﻿<?xml version="1.0" encoding="utf-8"?><gpx version="1.1" creator="izvne.com" xmlns="http://www.topografix.com/GPX/1/1"><trk><name>jordan-overview</name><trkseg><trkpt lat="29.55473852" lon="34.9536361"><ele>-37.4</ele><time>2015-11-19T12:10:39.0000000+00:00</time></trkpt><trkpt lat="29.5547946" lon="34.95359712"><ele>-35.9</ele><time>2015-11-19T12:11:15.0000000+00:00</time></trkpt><trkpt lat="29.55476325" lon="34.95356393"><ele>-34.5</ele><time>2015-11-19T12:11:49.0000000+00:00</time></trkpt><trkpt lat="29.55475646" lon="34.95358346"><ele>-34.5</ele><time>2015-11-19T12:11:53.0000000+00:00</time></trkpt><trkpt lat="29.55474582" lon="34.95363065"><ele>-35.0</ele><time>2015-11-19T12:11:56.0000000+00:00</time></trkpt><trkpt lat="29.55475939" lon="34.95365052"><ele>-35.0</ele><time>2015-11-19T12:11:57.0000000+00:00</time></trkpt><trkpt lat="29.55478312" lon="34.95366108"><ele>-35.0</ele><time>2015-11-19T12:11:58.0000000+00:00</time></trkpt><trkpt lat="29.55482553" lon="34.95364356"><ele>-34.5</ele><time>2015-11-19T12:12:00.0000000+00:00</time></trkpt><trkpt lat="29.55483726" lon="34.95362621"><ele>-34.5</ele><time>2015-11-19T12:12:01.0000000+00:00</time></trkpt><trkpt lat="29.55484372" lon="34.9536107"><ele>-34.0</ele><time>2015-11-19T12:12:02.0000000+00:00</time></trkpt><trkpt lat="29.5548433" lon="34.95359754"><ele>-34.0</ele><time>2015-11-19T12:12:03.0000000+00:00</time></trkpt><trkpt lat="29.55482318" lon="34.95358053"><ele>-34.0</ele><time>2015-11-19T12:12:05.0000000+00:00</time></trkpt><trkpt lat="29.55479963" lon="34.95357038"><ele>-34.0</ele><time>2015-11-19T12:12:07.0000000+00:00</time></trkpt><trkpt lat="29.55474665" lon="34.95358019"><ele>-34.0</ele><time>2015-11-19T12:12:10.0000000+00:00</time></trkpt><trkpt lat="29.55473718" lon="34.95359964"><ele>-34.0</ele><time>2015-11-19T12:12:11.0000000+00:00</time></trkpt><trkpt lat="29.55473291" lon="34.95361749"><ele>-34.0</ele><time>2015-11-19T12:12:12.0000000+00:00</time></trkpt><trkpt lat="29.5547314" lon="34.95363166"><ele>-34.0</ele><time>2015-11-19T12:12:13.0000000+00:00</time></trkpt><trkpt lat="29.55473056" lon="34.95364398"><ele>-34.0</ele><time>2015-11-19T12:12:14.0000000+00:00</time></trkpt><trkpt lat="29.55473064" lon="34.95365622"><ele>-34.5</ele><time>2015-11-19T12:12:15.0000000+00:00</time></trkpt><trkpt lat="29.55472821" lon="34.95366736"><ele>-34.5</ele><time>2015-11-19T12:12:16.0000000+00:00</time></trkpt><trkpt lat="29.55472729" lon="34.95367683"><ele>-34.0</ele><time>2015-11-19T12:12:17.0000000+00:00</time></trkpt><trkpt lat="29.55472478" lon="34.95368765"><ele>-34.5</ele><time>2015-11-19T12:12:18.0000000+00:00</time></trkpt><trkpt lat="29.5547231" lon="34.95370751"><ele>-34.5</ele><time>2015-11-19T12:12:20.0000000+00:00</time></trkpt><trkpt lat="29.55472386" lon="34.95371941"><ele>-34.5</ele><time>2015-11-19T12:12:21.0000000+00:00</time></trkpt><trkpt lat="29.55472209" lon="34.95373626"><ele>-35.0</ele><time>2015-11-19T12:12:22.0000000+00:00</time></trkpt><trkpt lat="29.55466116" lon="34.95406089"><ele>-35.9</ele><time>2015-11-19T12:12:31.0000000+00:00</time></trkpt><trkpt lat="29.55452034" lon="34.95443372"><ele>-37.4</ele><time>2015-11-19T12:12:43.0000000+00:00</time></trkpt><trkpt lat="29.55442269" lon="34.95454503"><ele>-38.3</ele><time>2015-11-19T12:12:48.0000000+00:00</time></trkpt><trkpt lat="29.55439956" lon="34.9545856"><ele>-38.3</ele><time>2015-11-19T12:12:49.0000000+00:00</time></trkpt><trkpt lat="29.55438757" lon="34.95463681"><ele>-38.3</ele><time>2015-11-19T12:12:50.0000000+00:00</time></trkpt><trkpt lat="29.55439168" lon="34.95468853"><ele>-38.8</ele><time>2015-11-19T12:12:51.0000000+00:00</time></trkpt><trkpt lat="29.55441037" lon="34.95473254"><ele>-38.8</ele><time>2015-11-19T12:12:52.0000000+00:00</time></trkpt><trkpt lat="29.55443652" lon="34.95476774"><ele>-38.3</ele><time>2015-11-19T12:12:53.0000000+00:00</time></trkpt><trkpt lat="29.55446879" lon="34.95479196"><ele>-38.3</ele><time>2015-11-19T12:12:54.0000000+00:00</time></trkpt><trkpt lat="29.55450609" lon="34.95480604"><ele>-38.3</ele><time>2015-11-19T12:12:55.0000000+00:00</time></trkpt><trkpt lat="29.55454163" lon="34.95481468"><ele>-38.3</ele><time>2015-11-19T12:12:56.0000000+00:00</time></trkpt><trkpt lat="29.55457608" lon="34.95481661"><ele>-38.3</ele><time>2015-11-19T12:12:57.0000000+00:00</time></trkpt><trkpt lat="29.55460944" lon="34.9548135"><ele>-37.8</ele><time>2015-11-19T12:12:58.0000000+00:00</time></trkpt><trkpt lat="29.55464171" lon="34.95480889"><ele>-37.4</ele><time>2015-11-19T12:12:59.0000000+00:00</time></trkpt><trkpt lat="29.55512149" lon="34.95496245"><ele>-35.4</ele><time>2015-11-19T12:13:13.0000000+00:00</time></trkpt><trkpt lat="29.55524102" lon="34.95501157"><ele>-37.4</ele><time>2015-11-19T12:13:16.0000000+00:00</time></trkpt><trkpt lat="29.55605465" lon="34.95549998"><ele>-37.4</ele><time>2015-11-19T12:13:34.0000000+00:00</time></trkpt><trkpt lat="29.55666997" lon="34.9559143"><ele>-37.4</ele><time>2015-11-19T12:13:49.0000000+00:00</time></trkpt><trkpt lat="29.55700759" lon="34.95612184"><ele>-37.4</ele><time>2015-11-19T12:13:58.0000000+00:00</time></trkpt><trkpt lat="29.55756272" lon="34.95642635"><ele>-36.9</ele><time>2015-11-19T12:14:11.0000000+00:00</time></trkpt><trkpt lat="29.55759306" lon="34.95646323"><ele>-36.4</ele><time>2015-11-19T12:14:12.0000000+00:00</time></trkpt><trkpt lat="29.5576395" lon="34.95654537"><ele>-36.4</ele><time>2015-11-19T12:14:14.0000000+00:00</time></trkpt><trkpt lat="29.55767152" lon="34.95658175"><ele>-36.4</ele><time>2015-11-19T12:14:15.0000000+00:00</time></trkpt><trkpt lat="29.55770882" lon="34.95661335"><ele>-35.9</ele><time>2015-11-19T12:14:16.0000000+00:00</time></trkpt><trkpt lat="29.55774872" lon="34.95663824"><ele>-35.9</ele><time>2015-11-19T12:14:17.0000000+00:00</time></trkpt><trkpt lat="29.55778954" lon="34.9566566"><ele>-35.9</ele><time>2015-11-19T12:14:18.0000000+00:00</time></trkpt><trkpt lat="29.55783228" lon="34.956668"><ele>-35.9</ele><time>2015-11-19T12:14:19.0000000+00:00</time></trkpt><trkpt lat="29.55787562" lon="34.95667395"><ele>-35.9</ele><time>2015-11-19T12:14:20.0000000+00:00</time></trkpt><trkpt lat="29.5579187" lon="34.95667479"><ele>-35.9</ele><time>2015-11-19T12:14:21.0000000+00:00</time></trkpt><trkpt lat="29.55795902" lon="34.95667974"><ele>-35.9</ele><time>2015-11-19T12:14:22.0000000+00:00</time></trkpt><trkpt lat="29.55799724" lon="34.95669633"><ele>-35.4</ele><time>2015-11-19T12:14:23.0000000+00:00</time></trkpt><trkpt lat="29.55803144" lon="34.95672475"><ele>-35.4</ele><time>2015-11-19T12:14:24.0000000+00:00</time></trkpt><trkpt lat="29.55806673" lon="34.95675677"><ele>-35.4</ele><time>2015-11-19T12:14:25.0000000+00:00</time></trkpt><trkpt lat="29.55875061" lon="34.95723453"><ele>-35.0</ele><time>2015-11-19T12:14:42.0000000+00:00</time></trkpt><trkpt lat="29.55948293" lon="34.95770694"><ele>-34.5</ele><time>2015-11-19T12:15:01.0000000+00:00</time></trkpt><trkpt lat="29.560285" lon="34.95823936"><ele>-33.5</ele><time>2015-11-19T12:15:21.0000000+00:00</time></trkpt><trkpt lat="29.56118412" lon="34.95892189"><ele>-34.0</ele><time>2015-11-19T12:15:42.0000000+00:00</time></trkpt><trkpt lat="29.56187429" lon="34.95946328"><ele>-34.0</ele><time>2015-11-19T12:15:58.0000000+00:00</time></trkpt><trkpt lat="29.56243412" lon="34.95995748"><ele>-32.6</ele><time>2015-11-19T12:16:13.0000000+00:00</time></trkpt><trkpt lat="29.56293913" lon="34.96028454"><ele>-32.1</ele><time>2015-11-19T12:16:26.0000000+00:00</time></trkpt><trkpt lat="29.56296645" lon="34.96032092"><ele>-32.1</ele><time>2015-11-19T12:16:27.0000000+00:00</time></trkpt><trkpt lat="29.56300928" lon="34.9604091"><ele>-31.1</ele><time>2015-11-19T12:16:29.0000000+00:00</time></trkpt><trkpt lat="29.56303485" lon="34.96045025"><ele>-31.1</ele><time>2015-11-19T12:16:30.0000000+00:00</time></trkpt><trkpt lat="29.56306376" lon="34.96048604"><ele>-31.1</ele><time>2015-11-19T12:16:31.0000000+00:00</time></trkpt><trkpt lat="29.56309595" lon="34.9605158"><ele>-31.1</ele><time>2015-11-19T12:16:32.0000000+00:00</time></trkpt><trkpt lat="29.56312965" lon="34.96054069"><ele>-30.1</ele><time>2015-11-19T12:16:33.0000000+00:00</time></trkpt><trkpt lat="29.56316711" lon="34.96056022"><ele>-30.6</ele><time>2015-11-19T12:16:34.0000000+00:00</time></trkpt><trkpt lat="29.56320634" lon="34.96057355"><ele>-30.6</ele><time>2015-11-19T12:16:35.0000000+00:00</time></trkpt><trkpt lat="29.56324574" lon="34.96058227"><ele>-30.1</ele><time>2015-11-19T12:16:36.0000000+00:00</time></trkpt><trkpt lat="29.56335898" lon="34.96060062"><ele>-30.6</ele><time>2015-11-19T12:16:39.0000000+00:00</time></trkpt><trkpt lat="29.56339426" lon="34.96062116"><ele>-30.1</ele><time>2015-11-19T12:16:40.0000000+00:00</time></trkpt><trkpt lat="29.56342896" lon="34.96064815"><ele>-30.1</ele><time>2015-11-19T12:16:41.0000000+00:00</time></trkpt><trkpt lat="29.56346123" lon="34.9606795"><ele>-30.1</ele><time>2015-11-19T12:16:42.0000000+00:00</time></trkpt><trkpt lat="29.56349216" lon="34.96071118"><ele>-30.1</ele><time>2015-11-19T12:16:43.0000000+00:00</time></trkpt><trkpt lat="29.56352393" lon="34.96073959"><ele>-30.1</ele><time>2015-11-19T12:16:44.0000000+00:00</time></trkpt><trkpt lat="29.56355771" lon="34.96076843"><ele>-29.7</ele><time>2015-11-19T12:16:45.0000000+00:00</time></trkpt><trkpt lat="29.56426238" lon="34.96128006"><ele>-29.2</ele><time>2015-11-19T12:17:05.0000000+00:00</time></trkpt><trkpt lat="29.56496554" lon="34.96173947"><ele>-28.2</ele><time>2015-11-19T12:17:23.0000000+00:00</time></trkpt><trkpt lat="29.56557205" lon="34.96214197"><ele>-27.7</ele><time>2015-11-19T12:17:39.0000000+00:00</time></trkpt><trkpt lat="29.56626942" lon="34.96260272"><ele>-26.8</ele><time>2015-11-19T12:17:59.0000000+00:00</time></trkpt><trkpt lat="29.56687485" lon="34.9630121"><ele>-24.9</ele><time>2015-11-19T12:18:16.0000000+00:00</time></trkpt><trkpt lat="29.56760659" lon="34.96349908"><ele>-22.0</ele><time>2015-11-19T12:18:36.0000000+00:00</time></trkpt><trkpt lat="29.56817832" lon="34.96384375"><ele>-20.5</ele><time>2015-11-19T12:18:53.0000000+00:00</time></trkpt><trkpt lat="29.56885574" lon="34.96412295"><ele>-18.1</ele><time>2015-11-19T12:19:13.0000000+00:00</time></trkpt><trkpt lat="29.56930426" lon="34.9644247"><ele>-17.2</ele><time>2015-11-19T12:19:28.0000000+00:00</time></trkpt><trkpt lat="29.56958539" lon="34.96462578"><ele>-16.7</ele><time>2015-11-19T12:19:39.0000000+00:00</time></trkpt><trkpt lat="29.56980097" lon="34.96461966"><ele>-16.2</ele><time>2015-11-19T12:19:46.0000000+00:00</time></trkpt><trkpt lat="29.56982989" lon="34.96463559"><ele>-16.2</ele><time>2015-11-19T12:19:47.0000000+00:00</time></trkpt><trkpt lat="29.57038603" lon="34.96504596"><ele>-15.2</ele><time>2015-11-19T12:20:06.0000000+00:00</time></trkpt><trkpt lat="29.57108684" lon="34.96551611"><ele>-14.8</ele><time>2015-11-19T12:20:27.0000000+00:00</time></trkpt><trkpt lat="29.57183467" lon="34.96588558"><ele>-12.8</ele><time>2015-11-19T12:20:47.0000000+00:00</time></trkpt><trkpt lat="29.57252509" lon="34.96615673"><ele>-12.4</ele><time>2015-11-19T12:21:05.0000000+00:00</time></trkpt><trkpt lat="29.57315742" lon="34.96637056"><ele>-11.9</ele><time>2015-11-19T12:21:21.0000000+00:00</time></trkpt><trkpt lat="29.57350745" lon="34.96647818"><ele>-11.9</ele><time>2015-11-19T12:21:30.0000000+00:00</time></trkpt><trkpt lat="29.57413768" lon="34.96667767"><ele>-10.0</ele><time>2015-11-19T12:21:46.0000000+00:00</time></trkpt><trkpt lat="29.57489759" lon="34.96691002"><ele>-8.0</ele><time>2015-11-19T12:22:06.0000000+00:00</time></trkpt><trkpt lat="29.57546127" lon="34.96708168"><ele>-5.2</ele><time>2015-11-19T12:22:22.0000000+00:00</time></trkpt><trkpt lat="29.57593644" lon="34.96722551"><ele>-2.3</ele><time>2015-11-19T12:22:37.0000000+00:00</time></trkpt><trkpt lat="29.57646148" lon="34.96738192"><ele>0.6</ele><time>2015-11-19T12:22:54.0000000+00:00</time></trkpt><trkpt lat="29.57695853" lon="34.96751645"><ele>3.0</ele><time>2015-11-19T12:23:10.0000000+00:00</time></trkpt><trkpt lat="29.57748592" lon="34.96767453"><ele>6.4</ele><time>2015-11-19T12:23:28.0000000+00:00</time></trkpt><trkpt lat="29.57782136" lon="34.96793169"><ele>7.8</ele><time>2015-11-19T12:23:42.0000000+00:00</time></trkpt><trkpt lat="29.57811104" lon="34.96797494"><ele>9.8</ele><time>2015-11-19T12:23:51.0000000+00:00</time></trkpt><trkpt lat="29.57849317" lon="34.96798382"><ele>11.2</ele><time>2015-11-19T12:24:05.0000000+00:00</time></trkpt><trkpt lat="29.57901645" lon="34.96817627"><ele>14.6</ele><time>2015-11-19T12:24:24.0000000+00:00</time></trkpt><trkpt lat="29.57955868" lon="34.96850601"><ele>16.5</ele><time>2015-11-19T12:24:45.0000000+00:00</time></trkpt><trkpt lat="29.58009856" lon="34.96884674"><ele>17.4</ele><time>2015-11-19T12:25:04.0000000+00:00</time></trkpt><trkpt lat="29.58088269" lon="34.9693261"><ele>17.4</ele><time>2015-11-19T12:25:26.0000000+00:00</time></trkpt><trkpt lat="29.58155751" lon="34.96975039"><ele>16.0</ele><time>2015-11-19T12:25:44.0000000+00:00</time></trkpt><trkpt lat="29.5815871" lon="34.96978166"><ele>16.5</ele><time>2015-11-19T12:25:45.0000000+00:00</time></trkpt><trkpt lat="29.58161158" lon="34.96982063"><ele>16.0</ele><time>2015-11-19T12:25:46.0000000+00:00</time></trkpt><trkpt lat="29.58163043" lon="34.96986338"><ele>15.5</ele><time>2015-11-19T12:25:47.0000000+00:00</time></trkpt><trkpt lat="29.58164351" lon="34.96990998"><ele>15.5</ele><time>2015-11-19T12:25:48.0000000+00:00</time></trkpt><trkpt lat="29.5816529" lon="34.96995969"><ele>15.5</ele><time>2015-11-19T12:25:49.0000000+00:00</time></trkpt><trkpt lat="29.58166312" lon="34.97006505"><ele>15.0</ele><time>2015-11-19T12:25:51.0000000+00:00</time></trkpt><trkpt lat="29.58165835" lon="34.9701202"><ele>15.0</ele><time>2015-11-19T12:25:52.0000000+00:00</time></trkpt><trkpt lat="29.58164049" lon="34.97017552"><ele>15.0</ele><time>2015-11-19T12:25:53.0000000+00:00</time></trkpt><trkpt lat="29.58161141" lon="34.97022858"><ele>15.0</ele><time>2015-11-19T12:25:54.0000000+00:00</time></trkpt><trkpt lat="29.58157143" lon="34.97027862"><ele>15.0</ele><time>2015-11-19T12:25:55.0000000+00:00</time></trkpt><trkpt lat="29.58151946" lon="34.9703217"><ele>15.5</ele><time>2015-11-19T12:25:56.0000000+00:00</time></trkpt><trkpt lat="29.58145869" lon="34.97035909"><ele>14.6</ele><time>2015-11-19T12:25:57.0000000+00:00</time></trkpt><trkpt lat="29.58139239" lon="34.97039588"><ele>14.1</ele><time>2015-11-19T12:25:58.0000000+00:00</time></trkpt><trkpt lat="29.58117647" lon="34.97052228"><ele>10.7</ele><time>2015-11-19T12:26:01.0000000+00:00</time></trkpt><trkpt lat="29.58095251" lon="34.97064013"><ele>9.3</ele><time>2015-11-19T12:26:04.0000000+00:00</time></trkpt><trkpt lat="29.58072251" lon="34.97079369"><ele>8.8</ele><time>2015-11-19T12:26:08.0000000+00:00</time></trkpt><trkpt lat="29.58069074" lon="34.97084188"><ele>8.3</ele><time>2015-11-19T12:26:09.0000000+00:00</time></trkpt><trkpt lat="29.58067163" lon="34.97089972"><ele>7.8</ele><time>2015-11-19T12:26:10.0000000+00:00</time></trkpt><trkpt lat="29.5806661" lon="34.97096091"><ele>7.8</ele><time>2015-11-19T12:26:11.0000000+00:00</time></trkpt><trkpt lat="29.58067146" lon="34.97102042"><ele>7.4</ele><time>2015-11-19T12:26:12.0000000+00:00</time></trkpt><trkpt lat="29.58067968" lon="34.97107892"><ele>6.4</ele><time>2015-11-19T12:26:13.0000000+00:00</time></trkpt><trkpt lat="29.58068328" lon="34.97113902"><ele>6.4</ele><time>2015-11-19T12:26:14.0000000+00:00</time></trkpt><trkpt lat="29.58068127" lon="34.97120046"><ele>6.4</ele><time>2015-11-19T12:26:15.0000000+00:00</time></trkpt><trkpt lat="29.58067465" lon="34.97126048"><ele>6.4</ele><time>2015-11-19T12:26:16.0000000+00:00</time></trkpt><trkpt lat="29.58066551" lon="34.97132091"><ele>6.4</ele><time>2015-11-19T12:26:17.0000000+00:00</time></trkpt><trkpt lat="29.58065193" lon="34.97138252"><ele>5.9</ele><time>2015-11-19T12:26:18.0000000+00:00</time></trkpt><trkpt lat="29.58063324" lon="34.9714458"><ele>5.9</ele><time>2015-11-19T12:26:19.0000000+00:00</time></trkpt><trkpt lat="29.58035798" lon="34.97224183"><ele>2.5</ele><time>2015-11-19T12:26:31.0000000+00:00</time></trkpt><trkpt lat="29.58012027" lon="34.97291163"><ele>-0.3</ele><time>2015-11-19T12:26:40.0000000+00:00</time></trkpt><trkpt lat="29.57988029" lon="34.97360489"><ele>-3.7</ele><time>2015-11-19T12:26:49.0000000+00:00</time></trkpt><trkpt lat="29.57984576" lon="34.97365183"><ele>-3.7</ele><time>2015-11-19T12:26:50.0000000+00:00</time></trkpt><trkpt lat="29.5797948" lon="34.97368561"><ele>-3.7</ele><time>2015-11-19T12:26:51.0000000+00:00</time></trkpt><trkpt lat="29.57973504" lon="34.97370145"><ele>-3.7</ele><time>2015-11-19T12:26:52.0000000+00:00</time></trkpt><trkpt lat="29.5796746" lon="34.97369668"><ele>-3.7</ele><time>2015-11-19T12:26:53.0000000+00:00</time></trkpt><trkpt lat="29.57961828" lon="34.97367606"><ele>-3.7</ele><time>2015-11-19T12:26:54.0000000+00:00</time></trkpt><trkpt lat="29.57956539" lon="34.97364781"><ele>-3.7</ele><time>2015-11-19T12:26:55.0000000+00:00</time></trkpt><trkpt lat="29.57951283" lon="34.97361973"><ele>-3.7</ele><time>2015-11-19T12:26:56.0000000+00:00</time></trkpt><trkpt lat="29.57862552" lon="34.97311355"><ele>-3.7</ele><time>2015-11-19T12:27:11.0000000+00:00</time></trkpt><trkpt lat="29.57800954" lon="34.97271121"><ele>-4.2</ele><time>2015-11-19T12:27:22.0000000+00:00</time></trkpt><trkpt lat="29.57796402" lon="34.9726973"><ele>-3.7</ele><time>2015-11-19T12:27:23.0000000+00:00</time></trkpt><trkpt lat="29.57792094" lon="34.97270082"><ele>-3.2</ele><time>2015-11-19T12:27:24.0000000+00:00</time></trkpt><trkpt lat="29.5778797" lon="34.97271859"><ele>-3.2</ele><time>2015-11-19T12:27:25.0000000+00:00</time></trkpt><trkpt lat="29.57783989" lon="34.97274516"><ele>-3.7</ele><time>2015-11-19T12:27:26.0000000+00:00</time></trkpt><trkpt lat="29.57780058" lon="34.97277676"><ele>-3.7</ele><time>2015-11-19T12:27:27.0000000+00:00</time></trkpt><trkpt lat="29.5777611" lon="34.97281247"><ele>-4.2</ele><time>2015-11-19T12:27:28.0000000+00:00</time></trkpt><trkpt lat="29.57772145" lon="34.97285228"><ele>-4.7</ele><time>2015-11-19T12:27:29.0000000+00:00</time></trkpt><trkpt lat="29.57726279" lon="34.97338822"><ele>-7.6</ele><time>2015-11-19T12:27:39.0000000+00:00</time></trkpt><trkpt lat="29.57676725" lon="34.97397118"><ele>-10.9</ele><time>2015-11-19T12:27:48.0000000+00:00</time></trkpt><trkpt lat="29.57630843" lon="34.97451827"><ele>-12.8</ele><time>2015-11-19T12:27:56.0000000+00:00</time></trkpt><trkpt lat="29.57566663" lon="34.97538747"><ele>-14.8</ele><time>2015-11-19T12:28:10.0000000+00:00</time></trkpt><trkpt lat="29.5754725" lon="34.97574136"><ele>-16.7</ele><time>2015-11-19T12:28:16.0000000+00:00</time></trkpt><trkpt lat="29.57535876" lon="34.9759235"><ele>-16.2</ele><time>2015-11-19T12:28:20.0000000+00:00</time></trkpt><trkpt lat="29.57522792" lon="34.97617252"><ele>-16.7</ele><time>2015-11-19T12:28:30.0000000+00:00</time></trkpt><trkpt lat="29.57521861" lon="34.97619817"><ele>-16.2</ele><time>2015-11-19T12:28:59.0000000+00:00</time></trkpt><trkpt lat="29.57522716" lon="34.9762177"><ele>-16.2</ele><time>2015-11-19T12:29:06.0000000+00:00</time></trkpt><trkpt lat="29.57520663" lon="34.97628811"><ele>-15.7</ele><time>2015-11-19T12:29:18.0000000+00:00</time></trkpt><trkpt lat="29.57514586" lon="34.97644116"><ele>-15.2</ele><time>2015-11-19T12:29:31.0000000+00:00</time></trkpt><trkpt lat="29.57515684" lon="34.97660494"><ele>-15.2</ele><time>2015-11-19T12:29:45.0000000+00:00</time></trkpt><trkpt lat="29.57516531" lon="34.97667611"><ele>-15.2</ele><time>2015-11-19T12:29:51.0000000+00:00</time></trkpt><trkpt lat="29.57517344" lon="34.97686311"><ele>-15.2</ele><time>2015-11-19T12:30:05.0000000+00:00</time></trkpt><trkpt lat="29.5751788" lon="34.97696302"><ele>-14.8</ele><time>2015-11-19T12:30:18.0000000+00:00</time></trkpt><trkpt lat="29.57514603" lon="34.97703217"><ele>-14.3</ele><time>2015-11-19T12:30:31.0000000+00:00</time></trkpt><trkpt lat="29.57520738" lon="34.9770206"><ele>-14.3</ele><time>2015-11-19T12:30:59.0000000+00:00</time></trkpt><trkpt lat="29.57529858" lon="34.97693201"><ele>-13.3</ele><time>2015-11-19T12:31:39.0000000+00:00</time></trkpt><trkpt lat="29.57530889" lon="34.97699722"><ele>-11.9</ele><time>2015-11-19T12:32:17.0000000+00:00</time></trkpt><trkpt lat="29.57528299" lon="34.97701197"><ele>-11.9</ele><time>2015-11-19T12:33:01.0000000+00:00</time></trkpt><trkpt lat="29.57529028" lon="34.97704575"><ele>-11.4</ele><time>2015-11-19T12:33:39.0000000+00:00</time></trkpt><trkpt lat="29.57525273" lon="34.9770828"><ele>-10.4</ele><time>2015-11-19T12:34:15.0000000+00:00</time></trkpt><trkpt lat="29.57528282" lon="34.97700535"><ele>-10.0</ele><time>2015-11-19T12:34:52.0000000+00:00</time></trkpt><trkpt lat="29.57530227" lon="34.97702739"><ele>-9.0</ele><time>2015-11-19T12:35:28.0000000+00:00</time></trkpt><trkpt lat="29.57527611" lon="34.97699395"><ele>-9.0</ele><time>2015-11-19T12:36:02.0000000+00:00</time></trkpt><trkpt lat="29.57533554" lon="34.97699034"><ele>-8.0</ele><time>2015-11-19T12:36:35.0000000+00:00</time></trkpt><trkpt lat="29.57532615" lon="34.9770206"><ele>-8.0</ele><time>2015-11-19T12:37:10.0000000+00:00</time></trkpt><trkpt lat="29.57537695" lon="34.97699688"><ele>-7.1</ele><time>2015-11-19T12:37:48.0000000+00:00</time></trkpt><trkpt lat="29.57545113" lon="34.97697459"><ele>-6.6</ele><time>2015-11-19T12:38:23.0000000+00:00</time></trkpt><trkpt lat="29.57542548" lon="34.9769735"><ele>-6.6</ele><time>2015-11-19T12:38:56.0000000+00:00</time></trkpt><trkpt lat="29.57544283" lon="34.97699554"><ele>-6.1</ele><time>2015-11-19T12:39:35.0000000+00:00</time></trkpt><trkpt lat="29.5753891" lon="34.97704005"><ele>-6.1</ele><time>2015-11-19T12:40:10.0000000+00:00</time></trkpt><trkpt lat="29.57527586" lon="34.97714072"><ele>-6.1</ele><time>2015-11-19T12:40:16.0000000+00:00</time></trkpt><trkpt lat="29.57527561" lon="34.97757398"><ele>-6.1</ele><time>2015-11-19T12:40:31.0000000+00:00</time></trkpt><trkpt lat="29.57522063" lon="34.97781093"><ele>-5.2</ele><time>2015-11-19T12:40:44.0000000+00:00</time></trkpt><trkpt lat="29.57518861" lon="34.97788142"><ele>-5.2</ele><time>2015-11-19T12:40:54.0000000+00:00</time></trkpt><trkpt lat="29.57516681" lon="34.97787271"><ele>-5.2</ele><time>2015-11-19T12:40:57.0000000+00:00</time></trkpt><trkpt lat="29.57505584" lon="34.97790129"><ele>-4.7</ele><time>2015-11-19T12:41:11.0000000+00:00</time></trkpt><trkpt lat="29.57505609" lon="34.97790137"><ele>-4.7</ele><time>2015-11-19T12:41:12.0000000+00:00</time></trkpt><trkpt lat="29.57510395" lon="34.9778836"><ele>-4.7</ele><time>2015-11-19T12:41:18.0000000+00:00</time></trkpt><trkpt lat="29.57516086" lon="34.9778852"><ele>-4.7</ele><time>2015-11-19T12:41:22.0000000+00:00</time></trkpt><trkpt lat="29.57518408" lon="34.97787673"><ele>-4.7</ele><time>2015-11-19T12:41:25.0000000+00:00</time></trkpt><trkpt lat="29.57523303" lon="34.97780414"><ele>-4.7</ele><time>2015-11-19T12:41:33.0000000+00:00</time></trkpt><trkpt lat="29.57526455" lon="34.97777095"><ele>-4.7</ele><time>2015-11-19T12:41:36.0000000+00:00</time></trkpt><trkpt lat="29.57527821" lon="34.97777715"><ele>-4.2</ele><time>2015-11-19T12:41:41.0000000+00:00</time></trkpt><trkpt lat="29.57527251" lon="34.97781496"><ele>-3.2</ele><time>2015-11-19T12:41:57.0000000+00:00</time></trkpt><trkpt lat="29.57521878" lon="34.97799165"><ele>-2.8</ele><time>2015-11-19T12:42:20.0000000+00:00</time></trkpt><trkpt lat="29.57519154" lon="34.97804009"><ele>-2.3</ele><time>2015-11-19T12:42:40.0000000+00:00</time></trkpt><trkpt lat="29.57517846" lon="34.97802685"><ele>-2.3</ele><time>2015-11-19T12:42:59.0000000+00:00</time></trkpt><trkpt lat="29.57517654" lon="34.97804881"><ele>-2.3</ele><time>2015-11-19T12:43:03.0000000+00:00</time></trkpt><trkpt lat="29.57514075" lon="34.97816431"><ele>-1.3</ele><time>2015-11-19T12:43:12.0000000+00:00</time></trkpt><trkpt lat="29.57511099" lon="34.97834461"><ele>-0.8</ele><time>2015-11-19T12:43:29.0000000+00:00</time></trkpt><trkpt lat="29.57511602" lon="34.97847495"><ele>-1.8</ele><time>2015-11-19T12:43:41.0000000+00:00</time></trkpt><trkpt lat="29.57514301" lon="34.9789725"><ele>-1.3</ele><time>2015-11-19T12:43:56.0000000+00:00</time></trkpt><trkpt lat="29.57522448" lon="34.97965034"><ele>-0.3</ele><time>2015-11-19T12:44:13.0000000+00:00</time></trkpt><trkpt lat="29.57527192" lon="34.98003465"><ele>-0.3</ele><time>2015-11-19T12:44:24.0000000+00:00</time></trkpt><trkpt lat="29.57529187" lon="34.98004823"><ele>-0.3</ele><time>2015-11-19T12:44:25.0000000+00:00</time></trkpt><trkpt lat="29.57532825" lon="34.98004672"><ele>-0.3</ele><time>2015-11-19T12:44:27.0000000+00:00</time></trkpt><trkpt lat="29.57533118" lon="34.98002929"><ele>0.1</ele><time>2015-11-19T12:44:28.0000000+00:00</time></trkpt><trkpt lat="29.57532062" lon="34.98001001"><ele>0.1</ele><time>2015-11-19T12:44:29.0000000+00:00</time></trkpt><trkpt lat="29.57530168" lon="34.98000029"><ele>-0.3</ele><time>2015-11-19T12:44:30.0000000+00:00</time></trkpt><trkpt lat="29.57526069" lon="34.98002728"><ele>-0.3</ele><time>2015-11-19T12:44:32.0000000+00:00</time></trkpt><trkpt lat="29.57525097" lon="34.9800572"><ele>0.1</ele><time>2015-11-19T12:44:33.0000000+00:00</time></trkpt><trkpt lat="29.57525038" lon="34.98009089"><ele>0.1</ele><time>2015-11-19T12:44:34.0000000+00:00</time></trkpt><trkpt lat="29.57525533" lon="34.98012249"><ele>0.1</ele><time>2015-11-19T12:44:35.0000000+00:00</time></trkpt><trkpt lat="29.57526153" lon="34.98015108"><ele>0.1</ele><time>2015-11-19T12:44:36.0000000+00:00</time></trkpt><trkpt lat="29.57526857" lon="34.98017672"><ele>0.1</ele><time>2015-11-19T12:44:37.0000000+00:00</time></trkpt><trkpt lat="29.57527293" lon="34.98019667"><ele>0.6</ele><time>2015-11-19T12:44:38.0000000+00:00</time></trkpt><trkpt lat="29.5752762" lon="34.980281"><ele>0.6</ele><time>2015-11-19T12:44:53.0000000+00:00</time></trkpt><trkpt lat="29.57531475" lon="34.98055617"><ele>0.6</ele><time>2015-11-19T12:45:12.0000000+00:00</time></trkpt><trkpt lat="29.57536094" lon="34.98080285"><ele>1.1</ele><time>2015-11-19T12:45:31.0000000+00:00</time></trkpt><trkpt lat="29.57533864" lon="34.9808228"><ele>1.6</ele><time>2015-11-19T12:45:44.0000000+00:00</time></trkpt><trkpt lat="29.57529263" lon="34.98077226"><ele>1.6</ele><time>2015-11-19T12:45:56.0000000+00:00</time></trkpt><trkpt lat="29.57528383" lon="34.98074862"><ele>1.6</ele><time>2015-11-19T12:45:59.0000000+00:00</time></trkpt><trkpt lat="29.57534183" lon="34.98066078"><ele>1.6</ele><time>2015-11-19T12:46:13.0000000+00:00</time></trkpt><trkpt lat="29.57536622" lon="34.98065751"><ele>2.1</ele><time>2015-11-19T12:46:28.0000000+00:00</time></trkpt><trkpt lat="29.57539832" lon="34.98066581"><ele>2.5</ele><time>2015-11-19T12:46:44.0000000+00:00</time></trkpt><trkpt lat="29.5754264" lon="34.98065567"><ele>3.0</ele><time>2015-11-19T12:47:07.0000000+00:00</time></trkpt><trkpt lat="29.57542481" lon="34.98067738"><ele>3.5</ele><time>2015-11-19T12:47:31.0000000+00:00</time></trkpt><trkpt lat="29.57541861" lon="34.98066279"><ele>3.5</ele><time>2015-11-19T12:47:53.0000000+00:00</time></trkpt><trkpt lat="29.57545373" lon="34.98067352"><ele>3.0</ele><time>2015-11-19T12:48:11.0000000+00:00</time></trkpt><trkpt lat="29.57549513" lon="34.98073915"><ele>3.5</ele><time>2015-11-19T12:48:45.0000000+00:00</time></trkpt><trkpt lat="29.57549924" lon="34.98074041"><ele>4.9</ele><time>2015-11-19T12:49:09.0000000+00:00</time></trkpt><trkpt lat="29.57544358" lon="34.98079749"><ele>4.9</ele><time>2015-11-19T12:49:29.0000000+00:00</time></trkpt><trkpt lat="29.5754212" lon="34.98084535"><ele>4.9</ele><time>2015-11-19T12:49:32.0000000+00:00</time></trkpt><trkpt lat="29.57532431" lon="34.98090805"><ele>5.4</ele><time>2015-11-19T12:49:47.0000000+00:00</time></trkpt><trkpt lat="29.57525633" lon="34.98088768"><ele>5.9</ele><time>2015-11-19T12:50:17.0000000+00:00</time></trkpt><trkpt lat="29.57525181" lon="34.98089229"><ele>6.4</ele><time>2015-11-19T12:50:45.0000000+00:00</time></trkpt><trkpt lat="29.57522423" lon="34.98090276"><ele>6.9</ele><time>2015-11-19T12:51:06.0000000+00:00</time></trkpt><trkpt lat="29.57517385" lon="34.98089053"><ele>7.8</ele><time>2015-11-19T12:51:30.0000000+00:00</time></trkpt><trkpt lat="29.575227" lon="34.98092774"><ele>8.3</ele><time>2015-11-19T12:51:58.0000000+00:00</time></trkpt><trkpt lat="29.57521375" lon="34.98093361"><ele>8.8</ele><time>2015-11-19T12:52:21.0000000+00:00</time></trkpt><trkpt lat="29.57518651" lon="34.98091274"><ele>9.3</ele><time>2015-11-19T12:52:41.0000000+00:00</time></trkpt><trkpt lat="29.5752534" lon="34.98086538"><ele>10.2</ele><time>2015-11-19T12:53:16.0000000+00:00</time></trkpt><trkpt lat="29.57527963" lon="34.98084753"><ele>10.7</ele><time>2015-11-19T12:53:53.0000000+00:00</time></trkpt><trkpt lat="29.57527075" lon="34.98089212"><ele>11.7</ele><time>2015-11-19T12:54:21.0000000+00:00</time></trkpt><trkpt lat="29.57525969" lon="34.98086614"><ele>12.2</ele><time>2015-11-19T12:54:44.0000000+00:00</time></trkpt><trkpt lat="29.5752456" lon="34.98081702"><ele>12.6</ele><time>2015-11-19T12:55:14.0000000+00:00</time></trkpt><trkpt lat="29.57525264" lon="34.98083906"><ele>13.6</ele><time>2015-11-19T12:55:38.0000000+00:00</time></trkpt><trkpt lat="29.57525893" lon="34.98084107"><ele>14.1</ele><time>2015-11-19T12:56:06.0000000+00:00</time></trkpt><trkpt lat="29.57527553" lon="34.98087619"><ele>14.6</ele><time>2015-11-19T12:56:34.0000000+00:00</time></trkpt><trkpt lat="29.57521996" lon="34.98092741"><ele>15.5</ele><time>2015-11-19T12:57:07.0000000+00:00</time></trkpt><trkpt lat="29.57522054" lon="34.98089673"><ele>16.5</ele><time>2015-11-19T12:57:41.0000000+00:00</time></trkpt><trkpt lat="29.57525206" lon="34.98088785"><ele>16.5</ele><time>2015-11-19T12:58:01.0000000+00:00</time></trkpt><trkpt lat="29.57524921" lon="34.9808912"><ele>17.4</ele><time>2015-11-19T12:58:25.0000000+00:00</time></trkpt><trkpt lat="29.57520596" lon="34.98087879"><ele>17.9</ele><time>2015-11-19T12:58:58.0000000+00:00</time></trkpt><trkpt lat="29.5752337" lon="34.98085641"><ele>18.9</ele><time>2015-11-19T12:59:32.0000000+00:00</time></trkpt><trkpt lat="29.57521484" lon="34.98085013"><ele>19.8</ele><time>2015-11-19T13:00:07.0000000+00:00</time></trkpt><trkpt lat="29.57523479" lon="34.98085817"><ele>20.3</ele><time>2015-11-19T13:00:35.0000000+00:00</time></trkpt><trkpt lat="29.57516807" lon="34.98080704"><ele>21.3</ele><time>2015-11-19T13:01:11.0000000+00:00</time></trkpt><trkpt lat="29.5751923" lon="34.98082138"><ele>21.8</ele><time>2015-11-19T13:01:36.0000000+00:00</time></trkpt><trkpt lat="29.57518484" lon="34.98080813"><ele>22.7</ele><time>2015-11-19T13:02:13.0000000+00:00</time></trkpt><trkpt lat="29.57518525" lon="34.98081685"><ele>23.2</ele><time>2015-11-19T13:02:45.0000000+00:00</time></trkpt><trkpt lat="29.57521736" lon="34.9808135"><ele>23.7</ele><time>2015-11-19T13:03:14.0000000+00:00</time></trkpt><trkpt lat="29.57517184" lon="34.98080486"><ele>24.7</ele><time>2015-11-19T13:03:44.0000000+00:00</time></trkpt><trkpt lat="29.5752306" lon="34.98083236"><ele>25.1</ele><time>2015-11-19T13:04:12.0000000+00:00</time></trkpt><trkpt lat="29.57524845" lon="34.98091425"><ele>25.6</ele><time>2015-11-19T13:04:44.0000000+00:00</time></trkpt><trkpt lat="29.57521317" lon="34.98103369"><ele>26.1</ele><time>2015-11-19T13:05:22.0000000+00:00</time></trkpt><trkpt lat="29.57522683" lon="34.9809777"><ele>26.6</ele><time>2015-11-19T13:05:59.0000000+00:00</time></trkpt><trkpt lat="29.57522172" lon="34.9809632"><ele>27.5</ele><time>2015-11-19T13:06:32.0000000+00:00</time></trkpt><trkpt lat="29.57519062" lon="34.98094618"><ele>27.5</ele><time>2015-11-19T13:07:09.0000000+00:00</time></trkpt><trkpt lat="29.57523949" lon="34.98093478"><ele>28.5</ele><time>2015-11-19T13:07:51.0000000+00:00</time></trkpt><trkpt lat="29.57524326" lon="34.98093537"><ele>28.5</ele><time>2015-11-19T13:08:21.0000000+00:00</time></trkpt><trkpt lat="29.57525281" lon="34.98090888"><ele>29.0</ele><time>2015-11-19T13:09:01.0000000+00:00</time></trkpt><trkpt lat="29.57526983" lon="34.98090981"><ele>29.5</ele><time>2015-11-19T13:09:33.0000000+00:00</time></trkpt><trkpt lat="29.57526128" lon="34.98090276"><ele>29.5</ele><time>2015-11-19T13:10:01.0000000+00:00</time></trkpt><trkpt lat="29.57528165" lon="34.98093026"><ele>29.5</ele><time>2015-11-19T13:10:34.0000000+00:00</time></trkpt><trkpt lat="29.57528684" lon="34.98095029"><ele>29.9</ele><time>2015-11-19T13:11:06.0000000+00:00</time></trkpt><trkpt lat="29.57531056" lon="34.980944"><ele>29.9</ele><time>2015-11-19T13:11:41.0000000+00:00</time></trkpt><trkpt lat="29.57528014" lon="34.980972"><ele>29.9</ele><time>2015-11-19T13:12:08.0000000+00:00</time></trkpt><trkpt lat="29.57530243" lon="34.98099061"><ele>30.4</ele><time>2015-11-19T13:12:41.0000000+00:00</time></trkpt><trkpt lat="29.5753223" lon="34.98098843"><ele>30.4</ele><time>2015-11-19T13:13:12.0000000+00:00</time></trkpt><trkpt lat="29.57529807" lon="34.98099597"><ele>29.9</ele><time>2015-11-19T13:13:46.0000000+00:00</time></trkpt><trkpt lat="29.57527536" lon="34.98099756"><ele>29.5</ele><time>2015-11-19T13:14:14.0000000+00:00</time></trkpt><trkpt lat="29.57531048" lon="34.98100477"><ele>30.4</ele><time>2015-11-19T13:14:46.0000000+00:00</time></trkpt><trkpt lat="29.57530696" lon="34.98101751"><ele>30.4</ele><time>2015-11-19T13:15:17.0000000+00:00</time></trkpt><trkpt lat="29.57529807" lon="34.98101626"><ele>30.9</ele><time>2015-11-19T13:15:49.0000000+00:00</time></trkpt><trkpt lat="29.57532733" lon="34.9810129"><ele>30.9</ele><time>2015-11-19T13:16:26.0000000+00:00</time></trkpt><trkpt lat="29.57532666" lon="34.98098348"><ele>30.9</ele><time>2015-11-19T13:16:54.0000000+00:00</time></trkpt><trkpt lat="29.57532649" lon="34.98096823"><ele>30.9</ele><time>2015-11-19T13:17:30.0000000+00:00</time></trkpt><trkpt lat="29.57533412" lon="34.98098591"><ele>30.9</ele><time>2015-11-19T13:17:58.0000000+00:00</time></trkpt><trkpt lat="29.57537091" lon="34.98107141"><ele>30.9</ele><time>2015-11-19T13:18:27.0000000+00:00</time></trkpt><trkpt lat="29.57532741" lon="34.98105984"><ele>31.4</ele><time>2015-11-19T13:19:00.0000000+00:00</time></trkpt><trkpt lat="29.5753311" lon="34.98105817"><ele>31.4</ele><time>2015-11-19T13:19:27.0000000+00:00</time></trkpt><trkpt lat="29.57534309" lon="34.98111038"><ele>31.4</ele><time>2015-11-19T13:19:47.0000000+00:00</time></trkpt><trkpt lat="29.57535817" lon="34.98115925"><ele>31.4</ele><time>2015-11-19T13:20:16.0000000+00:00</time></trkpt><trkpt lat="29.5753451" lon="34.98127132"><ele>31.9</ele><time>2015-11-19T13:20:48.0000000+00:00</time></trkpt><trkpt lat="29.57542565" lon="34.98141716"><ele>31.9</ele><time>2015-11-19T13:20:56.0000000+00:00</time></trkpt><trkpt lat="29.5755984" lon="34.98176845"><ele>31.9</ele><time>2015-11-19T13:21:09.0000000+00:00</time></trkpt><trkpt lat="29.5755994" lon="34.98182176"><ele>31.9</ele><time>2015-11-19T13:21:18.0000000+00:00</time></trkpt><trkpt lat="29.57561349" lon="34.98189141"><ele>31.9</ele><time>2015-11-19T13:21:31.0000000+00:00</time></trkpt><trkpt lat="29.57563109" lon="34.98195805"><ele>31.9</ele><time>2015-11-19T13:21:51.0000000+00:00</time></trkpt><trkpt lat="29.57561801" lon="34.98196467"><ele>31.9</ele><time>2015-11-19T13:22:23.0000000+00:00</time></trkpt><trkpt lat="29.57561801" lon="34.98208612"><ele>32.8</ele><time>2015-11-19T13:22:41.0000000+00:00</time></trkpt><trkpt lat="29.57568272" lon="34.98235837"><ele>32.3</ele><time>2015-11-19T13:22:53.0000000+00:00</time></trkpt><trkpt lat="29.57577442" lon="34.98277654"><ele>32.8</ele><time>2015-11-19T13:23:07.0000000+00:00</time></trkpt><trkpt lat="29.57589939" lon="34.98327803"><ele>32.3</ele><time>2015-11-19T13:23:22.0000000+00:00</time></trkpt><trkpt lat="29.57603677" lon="34.98390282"><ele>33.8</ele><time>2015-11-19T13:23:39.0000000+00:00</time></trkpt><trkpt lat="29.57617784" lon="34.98451461"><ele>33.8</ele><time>2015-11-19T13:23:55.0000000+00:00</time></trkpt><trkpt lat="29.57640155" lon="34.98546705"><ele>35.2</ele><time>2015-11-19T13:24:14.0000000+00:00</time></trkpt><trkpt lat="29.57660867" lon="34.98627573"><ele>35.7</ele><time>2015-11-19T13:24:29.0000000+00:00</time></trkpt><trkpt lat="29.57683708" lon="34.98723747"><ele>36.7</ele><time>2015-11-19T13:24:47.0000000+00:00</time></trkpt><trkpt lat="29.57705115" lon="34.98811254"><ele>37.6</ele><time>2015-11-19T13:25:05.0000000+00:00</time></trkpt><trkpt lat="29.57725416" lon="34.98893028"><ele>39.1</ele><time>2015-11-19T13:25:21.0000000+00:00</time></trkpt><trkpt lat="29.57743194" lon="34.98974919"><ele>40.0</ele><time>2015-11-19T13:25:37.0000000+00:00</time></trkpt><trkpt lat="29.57759715" lon="34.99068604"><ele>40.5</ele><time>2015-11-19T13:25:55.0000000+00:00</time></trkpt><trkpt lat="29.57768139" lon="34.99155801"><ele>41.5</ele><time>2015-11-19T13:26:12.0000000+00:00</time></trkpt><trkpt lat="29.57775615" lon="34.99239117"><ele>42.9</ele><time>2015-11-19T13:26:29.0000000+00:00</time></trkpt><trkpt lat="29.57776244" lon="34.99243987"><ele>42.4</ele><time>2015-11-19T13:26:30.0000000+00:00</time></trkpt><trkpt lat="29.57777836" lon="34.99258831"><ele>42.9</ele><time>2015-11-19T13:26:33.0000000+00:00</time></trkpt><trkpt lat="29.57778566" lon="34.99263718"><ele>42.9</ele><time>2015-11-19T13:26:34.0000000+00:00</time></trkpt><trkpt lat="29.57788507" lon="34.99356153"><ele>43.4</ele><time>2015-11-19T13:26:52.0000000+00:00</time></trkpt><trkpt lat="29.57798481" lon="34.99459016"><ele>44.4</ele><time>2015-11-19T13:27:11.0000000+00:00</time></trkpt><trkpt lat="29.57809252" lon="34.99557026"><ele>45.8</ele><time>2015-11-19T13:27:30.0000000+00:00</time></trkpt><trkpt lat="29.57813141" lon="34.99586966"><ele>45.8</ele><time>2015-11-19T13:27:36.0000000+00:00</time></trkpt><trkpt lat="29.57813476" lon="34.99592355"><ele>45.8</ele><time>2015-11-19T13:27:37.0000000+00:00</time></trkpt><trkpt lat="29.5782444" lon="34.99691782"><ele>47.2</ele><time>2015-11-19T13:27:57.0000000+00:00</time></trkpt><trkpt lat="29.57834582" lon="34.99784787"><ele>48.7</ele><time>2015-11-19T13:28:16.0000000+00:00</time></trkpt><trkpt lat="29.57845286" lon="34.99881221"><ele>49.2</ele><time>2015-11-19T13:28:36.0000000+00:00</time></trkpt><trkpt lat="29.5784728" lon="34.99896476"><ele>49.7</ele><time>2015-11-19T13:28:39.0000000+00:00</time></trkpt><trkpt lat="29.57848018" lon="34.99901455"><ele>49.7</ele><time>2015-11-19T13:28:40.0000000+00:00</time></trkpt><trkpt lat="29.57848622" lon="34.99906509"><ele>50.1</ele><time>2015-11-19T13:28:41.0000000+00:00</time></trkpt><trkpt lat="29.57858638" lon="34.99988124"><ele>51.6</ele><time>2015-11-19T13:28:58.0000000+00:00</time></trkpt><trkpt lat="29.57863416" lon="35.00033068"><ele>52.1</ele><time>2015-11-19T13:29:07.0000000+00:00</time></trkpt><trkpt lat="29.57863944" lon="35.00037845"><ele>53.0</ele><time>2015-11-19T13:29:08.0000000+00:00</time></trkpt><trkpt lat="29.57874496" lon="35.00129065"><ele>53.5</ele><time>2015-11-19T13:29:26.0000000+00:00</time></trkpt><trkpt lat="29.57880473" lon="35.00186448"><ele>53.5</ele><time>2015-11-19T13:29:37.0000000+00:00</time></trkpt><trkpt lat="29.5788106" lon="35.00191645"><ele>54.0</ele><time>2015-11-19T13:29:38.0000000+00:00</time></trkpt><trkpt lat="29.57888352" lon="35.00276587"><ele>54.9</ele><time>2015-11-19T13:29:55.0000000+00:00</time></trkpt><trkpt lat="29.57897111" lon="35.0036075"><ele>56.4</ele><time>2015-11-19T13:30:13.0000000+00:00</time></trkpt><trkpt lat="29.57904638" lon="35.00438358"><ele>57.8</ele><time>2015-11-19T13:30:30.0000000+00:00</time></trkpt><trkpt lat="29.57913011" lon="35.00525454"><ele>58.8</ele><time>2015-11-19T13:30:49.0000000+00:00</time></trkpt><trkpt lat="29.57917479" lon="35.00573063"><ele>59.7</ele><time>2015-11-19T13:31:03.0000000+00:00</time></trkpt><trkpt lat="29.57918845" lon="35.00589031"><ele>60.2</ele><time>2015-11-19T13:31:09.0000000+00:00</time></trkpt><trkpt lat="29.57920203" lon="35.00591554"><ele>59.7</ele><time>2015-11-19T13:31:21.0000000+00:00</time></trkpt><trkpt lat="29.57920731" lon="35.00591143"><ele>59.7</ele><time>2015-11-19T13:31:56.0000000+00:00</time></trkpt><trkpt lat="29.57921527" lon="35.00594714"><ele>59.7</ele><time>2015-11-19T13:32:11.0000000+00:00</time></trkpt><trkpt lat="29.57929708" lon="35.00637176"><ele>60.2</ele><time>2015-11-19T13:32:24.0000000+00:00</time></trkpt><trkpt lat="29.5793384" lon="35.00695154"><ele>61.2</ele><time>2015-11-19T13:32:38.0000000+00:00</time></trkpt><trkpt lat="29.57941636" lon="35.00767934"><ele>61.7</ele><time>2015-11-19T13:32:55.0000000+00:00</time></trkpt><trkpt lat="29.57950059" lon="35.00847294"><ele>64.6</ele><time>2015-11-19T13:33:13.0000000+00:00</time></trkpt><trkpt lat="29.57954519" lon="35.00900385"><ele>65.5</ele><time>2015-11-19T13:33:26.0000000+00:00</time></trkpt><trkpt lat="29.5795886" lon="35.00961263"><ele>66.0</ele><time>2015-11-19T13:33:40.0000000+00:00</time></trkpt><trkpt lat="29.57950596" lon="35.01035811"><ele>67.9</ele><time>2015-11-19T13:33:57.0000000+00:00</time></trkpt><trkpt lat="29.57931628" lon="35.01110285"><ele>69.4</ele><time>2015-11-19T13:34:15.0000000+00:00</time></trkpt><trkpt lat="29.57911335" lon="35.01190759"><ele>70.8</ele><time>2015-11-19T13:34:35.0000000+00:00</time></trkpt><trkpt lat="29.57894705" lon="35.01257638"><ele>74.2</ele><time>2015-11-19T13:34:53.0000000+00:00</time></trkpt><trkpt lat="29.57869845" lon="35.01312171"><ele>74.2</ele><time>2015-11-19T13:35:10.0000000+00:00</time></trkpt><trkpt lat="29.57815815" lon="35.0132005"><ele>74.2</ele><time>2015-11-19T13:35:24.0000000+00:00</time></trkpt><trkpt lat="29.57718258" lon="35.01319371"><ele>74.2</ele><time>2015-11-19T13:35:41.0000000+00:00</time></trkpt><trkpt lat="29.57575573" lon="35.01317007"><ele>74.2</ele><time>2015-11-19T13:36:03.0000000+00:00</time></trkpt><trkpt lat="29.57441932" lon="35.01316253"><ele>74.2</ele><time>2015-11-19T13:36:22.0000000+00:00</time></trkpt><trkpt lat="29.57271611" lon="35.01314065"><ele>73.7</ele><time>2015-11-19T13:36:42.0000000+00:00</time></trkpt><trkpt lat="29.5712471" lon="35.01310763"><ele>74.2</ele><time>2015-11-19T13:36:59.0000000+00:00</time></trkpt><trkpt lat="29.56922782" lon="35.01330125"><ele>74.2</ele><time>2015-11-19T13:37:22.0000000+00:00</time></trkpt><trkpt lat="29.56793063" lon="35.01355514"><ele>74.2</ele><time>2015-11-19T13:37:38.0000000+00:00</time></trkpt><trkpt lat="29.56779736" lon="35.01358766"><ele>73.7</ele><time>2015-11-19T13:37:40.0000000+00:00</time></trkpt><trkpt lat="29.56773324" lon="35.01359277"><ele>74.2</ele><time>2015-11-19T13:37:41.0000000+00:00</time></trkpt><trkpt lat="29.56766912" lon="35.01358858"><ele>74.2</ele><time>2015-11-19T13:37:42.0000000+00:00</time></trkpt><trkpt lat="29.56760768" lon="35.01357006"><ele>74.2</ele><time>2015-11-19T13:37:43.0000000+00:00</time></trkpt><trkpt lat="29.56755085" lon="35.01353192"><ele>73.7</ele><time>2015-11-19T13:37:44.0000000+00:00</time></trkpt><trkpt lat="29.56750374" lon="35.0134771"><ele>73.7</ele><time>2015-11-19T13:37:45.0000000+00:00</time></trkpt><trkpt lat="29.56746996" lon="35.01340963"><ele>73.2</ele><time>2015-11-19T13:37:46.0000000+00:00</time></trkpt><trkpt lat="29.56744985" lon="35.01333226"><ele>73.2</ele><time>2015-11-19T13:37:47.0000000+00:00</time></trkpt><trkpt lat="29.56743736" lon="35.01324903"><ele>72.2</ele><time>2015-11-19T13:37:48.0000000+00:00</time></trkpt><trkpt lat="29.56740232" lon="35.01297863"><ele>70.8</ele><time>2015-11-19T13:37:51.0000000+00:00</time></trkpt><trkpt lat="29.56735496" lon="35.01207314"><ele>67.4</ele><time>2015-11-19T13:38:00.0000000+00:00</time></trkpt><trkpt lat="29.56736092" lon="35.01078341"><ele>65.0</ele><time>2015-11-19T13:38:13.0000000+00:00</time></trkpt><trkpt lat="29.56735245" lon="35.00923075"><ele>61.7</ele><time>2015-11-19T13:38:29.0000000+00:00</time></trkpt><trkpt lat="29.56735295" lon="35.00751824"><ele>58.3</ele><time>2015-11-19T13:38:47.0000000+00:00</time></trkpt><trkpt lat="29.5673517" lon="35.00621385"><ele>56.4</ele><time>2015-11-19T13:39:01.0000000+00:00</time></trkpt><trkpt lat="29.56735496" lon="35.00458583"><ele>53.0</ele><time>2015-11-19T13:39:18.0000000+00:00</time></trkpt><trkpt lat="29.56734767" lon="35.00277568"><ele>50.6</ele><time>2015-11-19T13:39:37.0000000+00:00</time></trkpt><trkpt lat="29.56719202" lon="35.00129987"><ele>48.7</ele><time>2015-11-19T13:39:53.0000000+00:00</time></trkpt><trkpt lat="29.56654653" lon="35.00041567"><ele>46.8</ele><time>2015-11-19T13:40:05.0000000+00:00</time></trkpt><trkpt lat="29.56564011" lon="34.99940079"><ele>43.9</ele><time>2015-11-19T13:40:20.0000000+00:00</time></trkpt><trkpt lat="29.56460159" lon="34.99839487"><ele>42.9</ele><time>2015-11-19T13:40:36.0000000+00:00</time></trkpt><trkpt lat="29.56365955" lon="34.99826613"><ele>42.0</ele><time>2015-11-19T13:40:47.0000000+00:00</time></trkpt><trkpt lat="29.56241232" lon="34.9982673"><ele>41.5</ele><time>2015-11-19T13:41:02.0000000+00:00</time></trkpt><trkpt lat="29.561063" lon="34.99828457"><ele>40.5</ele><time>2015-11-19T13:41:18.0000000+00:00</time></trkpt><trkpt lat="29.56071792" lon="34.99829538"><ele>40.5</ele><time>2015-11-19T13:41:23.0000000+00:00</time></trkpt><trkpt lat="29.55958528" lon="34.99829823"><ele>40.0</ele><time>2015-11-19T13:41:37.0000000+00:00</time></trkpt><trkpt lat="29.55803412" lon="34.99827568"><ele>39.1</ele><time>2015-11-19T13:41:55.0000000+00:00</time></trkpt><trkpt lat="29.55628297" lon="34.99828407"><ele>38.1</ele><time>2015-11-19T13:42:15.0000000+00:00</time></trkpt><trkpt lat="29.55470324" lon="34.99827669"><ele>36.7</ele><time>2015-11-19T13:42:33.0000000+00:00</time></trkpt><trkpt lat="29.55326071" lon="34.99829915"><ele>35.2</ele><time>2015-11-19T13:42:49.0000000+00:00</time></trkpt><trkpt lat="29.55167594" lon="34.99830536"><ele>33.3</ele><time>2015-11-19T13:43:06.0000000+00:00</time></trkpt><trkpt lat="29.55041355" lon="34.99829991"><ele>32.3</ele><time>2015-11-19T13:43:20.0000000+00:00</time></trkpt><trkpt lat="29.54863197" lon="34.99830267"><ele>30.4</ele><time>2015-11-19T13:43:40.0000000+00:00</time></trkpt><trkpt lat="29.54805303" lon="34.99822766"><ele>29.5</ele><time>2015-11-19T13:43:47.0000000+00:00</time></trkpt><trkpt lat="29.54760871" lon="34.99801585"><ele>28.5</ele><time>2015-11-19T13:43:56.0000000+00:00</time></trkpt><trkpt lat="29.54759521" lon="34.99801006"><ele>28.5</ele><time>2015-11-19T13:43:59.0000000+00:00</time></trkpt><trkpt lat="29.5475844" lon="34.99800537"><ele>28.5</ele><time>2015-11-19T13:44:00.0000000+00:00</time></trkpt><trkpt lat="29.54757149" lon="34.99800009"><ele>28.5</ele><time>2015-11-19T13:44:01.0000000+00:00</time></trkpt><trkpt lat="29.54755666" lon="34.99799439"><ele>28.5</ele><time>2015-11-19T13:44:02.0000000+00:00</time></trkpt><trkpt lat="29.54754056" lon="34.99798676"><ele>28.5</ele><time>2015-11-19T13:44:03.0000000+00:00</time></trkpt><trkpt lat="29.54712683" lon="34.99779616"><ele>27.5</ele><time>2015-11-19T13:44:14.0000000+00:00</time></trkpt><trkpt lat="29.54625419" lon="34.99758929"><ele>27.1</ele><time>2015-11-19T13:44:27.0000000+00:00</time></trkpt><trkpt lat="29.54489783" lon="34.99760907"><ele>25.6</ele><time>2015-11-19T13:44:43.0000000+00:00</time></trkpt><trkpt lat="29.54327443" lon="34.9976374"><ele>23.7</ele><time>2015-11-19T13:45:01.0000000+00:00</time></trkpt><trkpt lat="29.54232224" lon="34.99787712"><ele>22.7</ele><time>2015-11-19T13:45:13.0000000+00:00</time></trkpt><trkpt lat="29.54094979" lon="34.99821475"><ele>21.3</ele><time>2015-11-19T13:45:30.0000000+00:00</time></trkpt><trkpt lat="29.53949427" lon="34.99830762"><ele>19.8</ele><time>2015-11-19T13:45:47.0000000+00:00</time></trkpt><trkpt lat="29.53798444" lon="34.99832388"><ele>18.9</ele><time>2015-11-19T13:46:05.0000000+00:00</time></trkpt><trkpt lat="29.53653504" lon="34.99833453"><ele>17.4</ele><time>2015-11-19T13:46:22.0000000+00:00</time></trkpt><trkpt lat="29.53557221" lon="34.99836956"><ele>17.0</ele><time>2015-11-19T13:46:34.0000000+00:00</time></trkpt><trkpt lat="29.53541933" lon="34.99836328"><ele>17.0</ele><time>2015-11-19T13:46:36.0000000+00:00</time></trkpt><trkpt lat="29.53534573" lon="34.9983497"><ele>17.0</ele><time>2015-11-19T13:46:37.0000000+00:00</time></trkpt><trkpt lat="29.53527197" lon="34.99832774"><ele>17.0</ele><time>2015-11-19T13:46:38.0000000+00:00</time></trkpt><trkpt lat="29.53520089" lon="34.99829999"><ele>17.0</ele><time>2015-11-19T13:46:39.0000000+00:00</time></trkpt><trkpt lat="29.53513174" lon="34.99826781"><ele>17.0</ele><time>2015-11-19T13:46:40.0000000+00:00</time></trkpt><trkpt lat="29.53458172" lon="34.99787067"><ele>16.5</ele><time>2015-11-19T13:46:50.0000000+00:00</time></trkpt><trkpt lat="29.53394436" lon="34.99730489"><ele>15.5</ele><time>2015-11-19T13:47:01.0000000+00:00</time></trkpt><trkpt lat="29.53391201" lon="34.99724345"><ele>15.5</ele><time>2015-11-19T13:47:02.0000000+00:00</time></trkpt><trkpt lat="29.53388703" lon="34.99717824"><ele>16.0</ele><time>2015-11-19T13:47:03.0000000+00:00</time></trkpt><trkpt lat="29.53387203" lon="34.99710809"><ele>16.0</ele><time>2015-11-19T13:47:04.0000000+00:00</time></trkpt><trkpt lat="29.53386054" lon="34.99703399"><ele>16.0</ele><time>2015-11-19T13:47:05.0000000+00:00</time></trkpt><trkpt lat="29.53382886" lon="34.99688127"><ele>15.5</ele><time>2015-11-19T13:47:07.0000000+00:00</time></trkpt><trkpt lat="29.53379315" lon="34.99681246"><ele>15.5</ele><time>2015-11-19T13:47:08.0000000+00:00</time></trkpt><trkpt lat="29.53374412" lon="34.99676015"><ele>15.5</ele><time>2015-11-19T13:47:09.0000000+00:00</time></trkpt><trkpt lat="29.5336857" lon="34.99672922"><ele>15.0</ele><time>2015-11-19T13:47:10.0000000+00:00</time></trkpt><trkpt lat="29.53362132" lon="34.99671699"><ele>15.0</ele><time>2015-11-19T13:47:11.0000000+00:00</time></trkpt><trkpt lat="29.53355595" lon="34.99672327"><ele>15.0</ele><time>2015-11-19T13:47:12.0000000+00:00</time></trkpt><trkpt lat="29.53349618" lon="34.99675428"><ele>15.0</ele><time>2015-11-19T13:47:13.0000000+00:00</time></trkpt><trkpt lat="29.53344489" lon="34.99679955"><ele>15.0</ele><time>2015-11-19T13:47:14.0000000+00:00</time></trkpt><trkpt lat="29.53340046" lon="34.99684934"><ele>15.0</ele><time>2015-11-19T13:47:15.0000000+00:00</time></trkpt><trkpt lat="29.53336107" lon="34.99690264"><ele>15.0</ele><time>2015-11-19T13:47:16.0000000+00:00</time></trkpt><trkpt lat="29.53332142" lon="34.99695428"><ele>15.0</ele><time>2015-11-19T13:47:17.0000000+00:00</time></trkpt><trkpt lat="29.533235" lon="34.99704908"><ele>14.6</ele><time>2015-11-19T13:47:19.0000000+00:00</time></trkpt><trkpt lat="29.53255624" lon="34.99760798"><ele>16.0</ele><time>2015-11-19T13:47:33.0000000+00:00</time></trkpt><trkpt lat="29.5320902" lon="34.99827183"><ele>17.4</ele><time>2015-11-19T13:47:45.0000000+00:00</time></trkpt><trkpt lat="29.53189448" lon="34.99904674"><ele>17.9</ele><time>2015-11-19T13:47:56.0000000+00:00</time></trkpt><trkpt lat="29.53187948" lon="34.99909703"><ele>18.4</ele><time>2015-11-19T13:47:57.0000000+00:00</time></trkpt><trkpt lat="29.53179047" lon="34.99947899"><ele>18.4</ele><time>2015-11-19T13:48:07.0000000+00:00</time></trkpt><trkpt lat="29.53173791" lon="34.99966934"><ele>18.4</ele><time>2015-11-19T13:48:17.0000000+00:00</time></trkpt><trkpt lat="29.53174956" lon="34.99968988"><ele>17.9</ele><time>2015-11-19T13:48:21.0000000+00:00</time></trkpt><trkpt lat="29.53178921" lon="34.99974302"><ele>18.4</ele><time>2015-11-19T13:48:24.0000000+00:00</time></trkpt><trkpt lat="29.53181108" lon="34.9997452"><ele>18.9</ele><time>2015-11-19T13:48:25.0000000+00:00</time></trkpt><trkpt lat="29.53182927" lon="34.9997426"><ele>18.4</ele><time>2015-11-19T13:48:26.0000000+00:00</time></trkpt><trkpt lat="29.53187102" lon="34.99974587"><ele>18.4</ele><time>2015-11-19T13:48:38.0000000+00:00</time></trkpt><trkpt lat="29.53189524" lon="34.99974319"><ele>18.4</ele><time>2015-11-19T13:48:47.0000000+00:00</time></trkpt><trkpt lat="29.53191225" lon="34.99973397"><ele>18.4</ele><time>2015-11-19T13:48:48.0000000+00:00</time></trkpt><trkpt lat="29.53196732" lon="34.99969876"><ele>18.4</ele><time>2015-11-19T13:48:50.0000000+00:00</time></trkpt><trkpt lat="29.53199046" lon="34.99966431"><ele>18.9</ele><time>2015-11-19T13:48:51.0000000+00:00</time></trkpt><trkpt lat="29.53200412" lon="34.99962735"><ele>18.9</ele><time>2015-11-19T13:48:52.0000000+00:00</time></trkpt><trkpt lat="29.53201854" lon="34.9995432"><ele>18.4</ele><time>2015-11-19T13:48:54.0000000+00:00</time></trkpt><trkpt lat="29.53203287" lon="34.9994976"><ele>18.9</ele><time>2015-11-19T13:48:55.0000000+00:00</time></trkpt><trkpt lat="29.53206807" lon="34.99940255"><ele>18.9</ele><time>2015-11-19T13:48:57.0000000+00:00</time></trkpt><trkpt lat="29.53215499" lon="34.99905394"><ele>18.4</ele><time>2015-11-19T13:49:05.0000000+00:00</time></trkpt><trkpt lat="29.53216782" lon="34.99903525"><ele>18.4</ele><time>2015-11-19T13:49:06.0000000+00:00</time></trkpt><trkpt lat="29.53217687" lon="34.99901933"><ele>18.9</ele><time>2015-11-19T13:49:07.0000000+00:00</time></trkpt><trkpt lat="29.5321897" lon="34.99898295"><ele>18.9</ele><time>2015-11-19T13:49:17.0000000+00:00</time></trkpt><trkpt lat="29.53221149" lon="34.99897012"><ele>18.4</ele><time>2015-11-19T13:49:33.0000000+00:00</time></trkpt><trkpt lat="29.53220294" lon="34.99898035"><ele>18.4</ele><time>2015-11-19T13:50:08.0000000+00:00</time></trkpt><trkpt lat="29.53219196" lon="34.99898144"><ele>18.4</ele><time>2015-11-19T13:50:49.0000000+00:00</time></trkpt><trkpt lat="29.53221166" lon="34.99900047"><ele>18.4</ele><time>2015-11-19T13:51:32.0000000+00:00</time></trkpt><trkpt lat="29.53221551" lon="34.9990024"><ele>17.9</ele><time>2015-11-19T13:52:03.0000000+00:00</time></trkpt></trkseg><trkseg><trkpt lat="31.51724548" lon="35.55870683"><ele>-257.5</ele><time>2015-11-20T11:19:00.0000000+00:00</time></trkpt><trkpt lat="31.51723651" lon="35.55869082"><ele>-257.0</ele><time>2015-11-20T11:19:43.0000000+00:00</time></trkpt><trkpt lat="31.51724171" lon="35.55870976"><ele>-256.5</ele><time>2015-11-20T11:20:11.0000000+00:00</time></trkpt><trkpt lat="31.51697483" lon="35.55870867"><ele>-257.0</ele><time>2015-11-20T11:20:24.0000000+00:00</time></trkpt><trkpt lat="31.51666663" lon="35.55869191"><ele>-257.0</ele><time>2015-11-20T11:20:32.0000000+00:00</time></trkpt><trkpt lat="31.5159369" lon="35.55871136"><ele>-257.5</ele><time>2015-11-20T11:20:45.0000000+00:00</time></trkpt><trkpt lat="31.51478288" lon="35.5588966"><ele>-259.9</ele><time>2015-11-20T11:21:03.0000000+00:00</time></trkpt><trkpt lat="31.5143228" lon="35.55904973"><ele>-260.9</ele><time>2015-11-20T11:21:14.0000000+00:00</time></trkpt><trkpt lat="31.51431274" lon="35.55903909"><ele>-260.9</ele><time>2015-11-20T11:21:36.0000000+00:00</time></trkpt><trkpt lat="31.51430268" lon="35.55907337"><ele>-260.4</ele><time>2015-11-20T11:22:11.0000000+00:00</time></trkpt><trkpt lat="31.51430922" lon="35.5590727"><ele>-259.9</ele><time>2015-11-20T11:22:41.0000000+00:00</time></trkpt><trkpt lat="31.51427099" lon="35.55908963"><ele>-260.4</ele><time>2015-11-20T11:23:11.0000000+00:00</time></trkpt><trkpt lat="31.51387604" lon="35.55924201"><ele>-260.9</ele><time>2015-11-20T11:23:21.0000000+00:00</time></trkpt><trkpt lat="31.51289846" lon="35.55975817"><ele>-263.3</ele><time>2015-11-20T11:23:36.0000000+00:00</time></trkpt><trkpt lat="31.51163916" lon="35.56045563"><ele>-266.2</ele><time>2015-11-20T11:23:53.0000000+00:00</time></trkpt><trkpt lat="31.51049813" lon="35.56109651"><ele>-269.5</ele><time>2015-11-20T11:24:09.0000000+00:00</time></trkpt><trkpt lat="31.50959062" lon="35.5615757"><ele>-272.4</ele><time>2015-11-20T11:24:21.0000000+00:00</time></trkpt><trkpt lat="31.50908603" lon="35.56180973"><ele>-275.8</ele><time>2015-11-20T11:24:27.0000000+00:00</time></trkpt><trkpt lat="31.50812513" lon="35.56218096"><ele>-279.1</ele><time>2015-11-20T11:24:37.0000000+00:00</time></trkpt><trkpt lat="31.50759338" lon="35.56234768"><ele>-282.0</ele><time>2015-11-20T11:24:42.0000000+00:00</time></trkpt><trkpt lat="31.50725819" lon="35.56243711"><ele>-283.9</ele><time>2015-11-20T11:24:45.0000000+00:00</time></trkpt><trkpt lat="31.50667766" lon="35.56257575"><ele>-287.3</ele><time>2015-11-20T11:24:50.0000000+00:00</time></trkpt><trkpt lat="31.50610199" lon="35.56267658"><ele>-290.7</ele><time>2015-11-20T11:24:55.0000000+00:00</time></trkpt><trkpt lat="31.50553479" lon="35.56274255"><ele>-294.0</ele><time>2015-11-20T11:25:00.0000000+00:00</time></trkpt><trkpt lat="31.50530429" lon="35.56275898"><ele>-295.0</ele><time>2015-11-20T11:25:02.0000000+00:00</time></trkpt><trkpt lat="31.50483591" lon="35.56279426"><ele>-297.9</ele><time>2015-11-20T11:25:06.0000000+00:00</time></trkpt><trkpt lat="31.50459308" lon="35.56280164"><ele>-299.3</ele><time>2015-11-20T11:25:08.0000000+00:00</time></trkpt><trkpt lat="31.50396762" lon="35.56280994"><ele>-302.7</ele><time>2015-11-20T11:25:13.0000000+00:00</time></trkpt><trkpt lat="31.50346471" lon="35.56280248"><ele>-305.6</ele><time>2015-11-20T11:25:17.0000000+00:00</time></trkpt><trkpt lat="31.50310697" lon="35.56280483"><ele>-307.5</ele><time>2015-11-20T11:25:20.0000000+00:00</time></trkpt><trkpt lat="31.50250817" lon="35.56281405"><ele>-310.4</ele><time>2015-11-20T11:25:25.0000000+00:00</time></trkpt><trkpt lat="31.50202051" lon="35.56284481"><ele>-313.3</ele><time>2015-11-20T11:25:29.0000000+00:00</time></trkpt><trkpt lat="31.50152438" lon="35.56290616"><ele>-316.1</ele><time>2015-11-20T11:25:33.0000000+00:00</time></trkpt><trkpt lat="31.5014" lon="35.56292712"><ele>-316.1</ele><time>2015-11-20T11:25:34.0000000+00:00</time></trkpt><trkpt lat="31.50077219" lon="35.56306232"><ele>-320.0</ele><time>2015-11-20T11:25:39.0000000+00:00</time></trkpt><trkpt lat="31.50016719" lon="35.56324831"><ele>-323.4</ele><time>2015-11-20T11:25:44.0000000+00:00</time></trkpt><trkpt lat="31.49968523" lon="35.56342953"><ele>-326.2</ele><time>2015-11-20T11:25:48.0000000+00:00</time></trkpt><trkpt lat="31.49908399" lon="35.56370957"><ele>-329.6</ele><time>2015-11-20T11:25:53.0000000+00:00</time></trkpt><trkpt lat="31.49884176" lon="35.56382834"><ele>-330.6</ele><time>2015-11-20T11:25:55.0000000+00:00</time></trkpt><trkpt lat="31.49847354" lon="35.56400394"><ele>-333.9</ele><time>2015-11-20T11:25:58.0000000+00:00</time></trkpt><trkpt lat="31.49771741" lon="35.56431223"><ele>-337.8</ele><time>2015-11-20T11:26:04.0000000+00:00</time></trkpt><trkpt lat="31.49719773" lon="35.56447383"><ele>-340.7</ele><time>2015-11-20T11:26:08.0000000+00:00</time></trkpt><trkpt lat="31.49667721" lon="35.56459428"><ele>-344.0</ele><time>2015-11-20T11:26:12.0000000+00:00</time></trkpt><trkpt lat="31.49654679" lon="35.56462018"><ele>-344.0</ele><time>2015-11-20T11:26:13.0000000+00:00</time></trkpt><trkpt lat="31.49590189" lon="35.56470031"><ele>-348.3</ele><time>2015-11-20T11:26:18.0000000+00:00</time></trkpt><trkpt lat="31.49577482" lon="35.56471162"><ele>-348.3</ele><time>2015-11-20T11:26:19.0000000+00:00</time></trkpt><trkpt lat="31.49515481" lon="35.56476996"><ele>-351.7</ele><time>2015-11-20T11:26:24.0000000+00:00</time></trkpt><trkpt lat="31.49455994" lon="35.56487256"><ele>-355.1</ele><time>2015-11-20T11:26:29.0000000+00:00</time></trkpt><trkpt lat="31.49366895" lon="35.56516467"><ele>-358.0</ele><time>2015-11-20T11:26:37.0000000+00:00</time></trkpt><trkpt lat="31.49290418" lon="35.5655509"><ele>-360.8</ele><time>2015-11-20T11:26:45.0000000+00:00</time></trkpt><trkpt lat="31.49163659" lon="35.56655916"><ele>-363.7</ele><time>2015-11-20T11:27:01.0000000+00:00</time></trkpt><trkpt lat="31.49045055" lon="35.56770941"><ele>-365.2</ele><time>2015-11-20T11:27:18.0000000+00:00</time></trkpt><trkpt lat="31.48907608" lon="35.56904381"><ele>-367.6</ele><time>2015-11-20T11:27:39.0000000+00:00</time></trkpt><trkpt lat="31.48776214" lon="35.57030244"><ele>-370.0</ele><time>2015-11-20T11:28:00.0000000+00:00</time></trkpt><trkpt lat="31.48651709" lon="35.57135252"><ele>-371.9</ele><time>2015-11-20T11:28:19.0000000+00:00</time></trkpt><trkpt lat="31.48527397" lon="35.57223422"><ele>-373.8</ele><time>2015-11-20T11:28:37.0000000+00:00</time></trkpt><trkpt lat="31.48434877" lon="35.57278256"><ele>-374.8</ele><time>2015-11-20T11:28:52.0000000+00:00</time></trkpt><trkpt lat="31.48399053" lon="35.57299194"><ele>-375.7</ele><time>2015-11-20T11:29:04.0000000+00:00</time></trkpt><trkpt lat="31.48391794" lon="35.57303351"><ele>-375.7</ele><time>2015-11-20T11:29:06.0000000+00:00</time></trkpt><trkpt lat="31.48388132" lon="35.57305765"><ele>-375.7</ele><time>2015-11-20T11:29:07.0000000+00:00</time></trkpt><trkpt lat="31.48384175" lon="35.57307635"><ele>-375.7</ele><time>2015-11-20T11:29:08.0000000+00:00</time></trkpt><trkpt lat="31.48380068" lon="35.57309479"><ele>-375.7</ele><time>2015-11-20T11:29:09.0000000+00:00</time></trkpt><trkpt lat="31.48376053" lon="35.57311675"><ele>-375.7</ele><time>2015-11-20T11:29:10.0000000+00:00</time></trkpt><trkpt lat="31.48291362" lon="35.57352528"><ele>-376.2</ele><time>2015-11-20T11:29:26.0000000+00:00</time></trkpt><trkpt lat="31.48167654" lon="35.57402518"><ele>-376.7</ele><time>2015-11-20T11:29:47.0000000+00:00</time></trkpt><trkpt lat="31.48065085" lon="35.574398"><ele>-376.2</ele><time>2015-11-20T11:30:05.0000000+00:00</time></trkpt><trkpt lat="31.47976764" lon="35.5747425"><ele>-375.7</ele><time>2015-11-20T11:30:21.0000000+00:00</time></trkpt><trkpt lat="31.47873919" lon="35.57510443"><ele>-375.3</ele><time>2015-11-20T11:30:38.0000000+00:00</time></trkpt><trkpt lat="31.47760713" lon="35.57539428"><ele>-374.8</ele><time>2015-11-20T11:30:56.0000000+00:00</time></trkpt><trkpt lat="31.47629066" lon="35.57546401"><ele>-375.3</ele><time>2015-11-20T11:31:17.0000000+00:00</time></trkpt><trkpt lat="31.47504629" lon="35.57546401"><ele>-376.2</ele><time>2015-11-20T11:31:35.0000000+00:00</time></trkpt><trkpt lat="31.47427934" lon="35.57546468"><ele>-376.7</ele><time>2015-11-20T11:31:46.0000000+00:00</time></trkpt><trkpt lat="31.47420893" lon="35.57545798"><ele>-376.7</ele><time>2015-11-20T11:31:47.0000000+00:00</time></trkpt><trkpt lat="31.47282064" lon="35.57519915"><ele>-375.7</ele><time>2015-11-20T11:32:08.0000000+00:00</time></trkpt><trkpt lat="31.47166084" lon="35.5747218"><ele>-373.3</ele><time>2015-11-20T11:32:29.0000000+00:00</time></trkpt><trkpt lat="31.47075643" lon="35.57414345"><ele>-370.5</ele><time>2015-11-20T11:32:48.0000000+00:00</time></trkpt><trkpt lat="31.46992092" lon="35.57356576"><ele>-368.5</ele><time>2015-11-20T11:33:07.0000000+00:00</time></trkpt><trkpt lat="31.46950928" lon="35.57328489"><ele>-368.1</ele><time>2015-11-20T11:33:18.0000000+00:00</time></trkpt><trkpt lat="31.46895398" lon="35.57296629"><ele>-367.6</ele><time>2015-11-20T11:33:32.0000000+00:00</time></trkpt><trkpt lat="31.46805519" lon="35.57267443"><ele>-367.6</ele><time>2015-11-20T11:33:49.0000000+00:00</time></trkpt><trkpt lat="31.46744264" lon="35.57259204"><ele>-368.5</ele><time>2015-11-20T11:34:04.0000000+00:00</time></trkpt><trkpt lat="31.46720845" lon="35.57260076"><ele>-368.5</ele><time>2015-11-20T11:34:14.0000000+00:00</time></trkpt><trkpt lat="31.46713486" lon="35.57258148"><ele>-368.5</ele><time>2015-11-20T11:34:29.0000000+00:00</time></trkpt><trkpt lat="31.46713117" lon="35.57259799"><ele>-368.5</ele><time>2015-11-20T11:34:32.0000000+00:00</time></trkpt><trkpt lat="31.46713654" lon="35.57263294"><ele>-368.5</ele><time>2015-11-20T11:34:34.0000000+00:00</time></trkpt><trkpt lat="31.46714911" lon="35.57265239"><ele>-369.0</ele><time>2015-11-20T11:34:35.0000000+00:00</time></trkpt><trkpt lat="31.46717099" lon="35.57266253"><ele>-368.5</ele><time>2015-11-20T11:34:36.0000000+00:00</time></trkpt><trkpt lat="31.46719571" lon="35.57266957"><ele>-368.5</ele><time>2015-11-20T11:34:37.0000000+00:00</time></trkpt><trkpt lat="31.46750928" lon="35.57270025"><ele>-369.0</ele><time>2015-11-20T11:34:50.0000000+00:00</time></trkpt><trkpt lat="31.46755412" lon="35.57268851"><ele>-368.5</ele><time>2015-11-20T11:35:03.0000000+00:00</time></trkpt><trkpt lat="31.46751079" lon="35.57268902"><ele>-368.5</ele><time>2015-11-20T11:35:21.0000000+00:00</time></trkpt><trkpt lat="31.46749738" lon="35.57268508"><ele>-368.5</ele><time>2015-11-20T11:35:22.0000000+00:00</time></trkpt><trkpt lat="31.46748489" lon="35.57267686"><ele>-368.5</ele><time>2015-11-20T11:35:23.0000000+00:00</time></trkpt><trkpt lat="31.46747382" lon="35.57266546"><ele>-368.5</ele><time>2015-11-20T11:35:24.0000000+00:00</time></trkpt><trkpt lat="31.46746393" lon="35.57265298"><ele>-368.5</ele><time>2015-11-20T11:35:25.0000000+00:00</time></trkpt><trkpt lat="31.46732546" lon="35.57255868"><ele>-369.0</ele><time>2015-11-20T11:35:40.0000000+00:00</time></trkpt><trkpt lat="31.46731323" lon="35.57255751"><ele>-369.0</ele><time>2015-11-20T11:35:41.0000000+00:00</time></trkpt><trkpt lat="31.46730836" lon="35.57254904"><ele>-369.5</ele><time>2015-11-20T11:35:52.0000000+00:00</time></trkpt><trkpt lat="31.46729068" lon="35.57254636"><ele>-369.5</ele><time>2015-11-20T11:36:20.0000000+00:00</time></trkpt><trkpt lat="31.46731918" lon="35.57253915"><ele>-370.0</ele><time>2015-11-20T11:37:05.0000000+00:00</time></trkpt><trkpt lat="31.46721826" lon="35.57237612"><ele>-372.4</ele><time>2015-11-20T11:37:22.0000000+00:00</time></trkpt><trkpt lat="31.46719538" lon="35.57234083"><ele>-372.9</ele><time>2015-11-20T11:37:26.0000000+00:00</time></trkpt><trkpt lat="31.46715389" lon="35.57232231"><ele>-373.3</ele><time>2015-11-20T11:37:30.0000000+00:00</time></trkpt><trkpt lat="31.46702975" lon="35.57233446"><ele>-373.8</ele><time>2015-11-20T11:37:41.0000000+00:00</time></trkpt><trkpt lat="31.46696781" lon="35.57239741"><ele>-373.8</ele><time>2015-11-20T11:37:58.0000000+00:00</time></trkpt><trkpt lat="31.46697812" lon="35.57242834"><ele>-373.8</ele><time>2015-11-20T11:38:11.0000000+00:00</time></trkpt><trkpt lat="31.46707702" lon="35.5724016"><ele>-373.3</ele><time>2015-11-20T11:38:21.0000000+00:00</time></trkpt><trkpt lat="31.46712606" lon="35.57241619"><ele>-373.3</ele><time>2015-11-20T11:38:26.0000000+00:00</time></trkpt><trkpt lat="31.4671419" lon="35.57261702"><ele>-373.3</ele><time>2015-11-20T11:38:42.0000000+00:00</time></trkpt><trkpt lat="31.46712698" lon="35.57274543"><ele>-373.8</ele><time>2015-11-20T11:38:52.0000000+00:00</time></trkpt><trkpt lat="31.46697686" lon="35.57294643"><ele>-375.7</ele><time>2015-11-20T11:39:09.0000000+00:00</time></trkpt><trkpt lat="31.46699773" lon="35.57303594"><ele>-375.3</ele><time>2015-11-20T11:39:24.0000000+00:00</time></trkpt><trkpt lat="31.46695917" lon="35.57300384"><ele>-375.7</ele><time>2015-11-20T11:39:47.0000000+00:00</time></trkpt><trkpt lat="31.46689338" lon="35.57287526"><ele>-375.7</ele><time>2015-11-20T11:40:21.0000000+00:00</time></trkpt><trkpt lat="31.46690251" lon="35.57283344"><ele>-375.7</ele><time>2015-11-20T11:40:43.0000000+00:00</time></trkpt><trkpt lat="31.46694819" lon="35.57285213"><ele>-376.7</ele><time>2015-11-20T11:41:15.0000000+00:00</time></trkpt><trkpt lat="31.46694308" lon="35.57287174"><ele>-376.7</ele><time>2015-11-20T11:41:43.0000000+00:00</time></trkpt><trkpt lat="31.46693512" lon="35.57296503"><ele>-376.7</ele><time>2015-11-20T11:42:16.0000000+00:00</time></trkpt><trkpt lat="31.46691785" lon="35.57291734"><ele>-376.7</ele><time>2015-11-20T11:42:39.0000000+00:00</time></trkpt><trkpt lat="31.46690159" lon="35.57289136"><ele>-377.2</ele><time>2015-11-20T11:43:11.0000000+00:00</time></trkpt><trkpt lat="31.46689329" lon="35.57287971"><ele>-377.2</ele><time>2015-11-20T11:43:31.0000000+00:00</time></trkpt><trkpt lat="31.46687435" lon="35.5728984"><ele>-377.2</ele><time>2015-11-20T11:44:02.0000000+00:00</time></trkpt><trkpt lat="31.46690126" lon="35.57292136"><ele>-377.2</ele><time>2015-11-20T11:44:33.0000000+00:00</time></trkpt><trkpt lat="31.46690251" lon="35.57293192"><ele>-377.2</ele><time>2015-11-20T11:45:01.0000000+00:00</time></trkpt><trkpt lat="31.46691291" lon="35.57297057"><ele>-377.7</ele><time>2015-11-20T11:45:25.0000000+00:00</time></trkpt><trkpt lat="31.46690394" lon="35.57294039"><ele>-377.7</ele><time>2015-11-20T11:45:52.0000000+00:00</time></trkpt><trkpt lat="31.46694962" lon="35.57294366"><ele>-377.7</ele><time>2015-11-20T11:46:22.0000000+00:00</time></trkpt><trkpt lat="31.46695934" lon="35.57292564"><ele>-377.7</ele><time>2015-11-20T11:46:55.0000000+00:00</time></trkpt><trkpt lat="31.46697393" lon="35.57290619"><ele>-377.7</ele><time>2015-11-20T11:47:32.0000000+00:00</time></trkpt><trkpt lat="31.46693763" lon="35.57290007"><ele>-377.7</ele><time>2015-11-20T11:48:10.0000000+00:00</time></trkpt><trkpt lat="31.46692397" lon="35.57284048"><ele>-378.1</ele><time>2015-11-20T11:48:42.0000000+00:00</time></trkpt><trkpt lat="31.46690603" lon="35.57275331"><ele>-378.1</ele><time>2015-11-20T11:49:23.0000000+00:00</time></trkpt><trkpt lat="31.46692405" lon="35.57272372"><ele>-378.1</ele><time>2015-11-20T11:50:00.0000000+00:00</time></trkpt><trkpt lat="31.46684501" lon="35.57272816"><ele>-378.1</ele><time>2015-11-20T11:50:39.0000000+00:00</time></trkpt><trkpt lat="31.4668482" lon="35.57280762"><ele>-378.1</ele><time>2015-11-20T11:51:15.0000000+00:00</time></trkpt><trkpt lat="31.46684895" lon="35.57287493"><ele>-377.7</ele><time>2015-11-20T11:51:52.0000000+00:00</time></trkpt><trkpt lat="31.4668808" lon="35.57307551"><ele>-377.2</ele><time>2015-11-20T11:52:32.0000000+00:00</time></trkpt><trkpt lat="31.4668746" lon="35.57305355"><ele>-377.2</ele><time>2015-11-20T11:53:07.0000000+00:00</time></trkpt><trkpt lat="31.46683311" lon="35.57290083"><ele>-376.7</ele><time>2015-11-20T11:53:51.0000000+00:00</time></trkpt><trkpt lat="31.46680277" lon="35.57283151"><ele>-376.2</ele><time>2015-11-20T11:54:24.0000000+00:00</time></trkpt><trkpt lat="31.46684811" lon="35.57280527"><ele>-375.7</ele><time>2015-11-20T11:54:51.0000000+00:00</time></trkpt><trkpt lat="31.46702229" lon="35.57282908"><ele>-374.8</ele><time>2015-11-20T11:55:07.0000000+00:00</time></trkpt><trkpt lat="31.46716881" lon="35.57280636"><ele>-372.9</ele><time>2015-11-20T11:55:23.0000000+00:00</time></trkpt><trkpt lat="31.46727584" lon="35.57279865"><ele>-371.4</ele><time>2015-11-20T11:55:38.0000000+00:00</time></trkpt><trkpt lat="31.46730929" lon="35.57278935"><ele>-370.9</ele><time>2015-11-20T11:55:42.0000000+00:00</time></trkpt><trkpt lat="31.46737282" lon="35.57277694"><ele>-370.5</ele><time>2015-11-20T11:55:52.0000000+00:00</time></trkpt><trkpt lat="31.46742303" lon="35.57270888"><ele>-370.0</ele><time>2015-11-20T11:56:03.0000000+00:00</time></trkpt><trkpt lat="31.4673999" lon="35.57268432"><ele>-369.5</ele><time>2015-11-20T11:56:24.0000000+00:00</time></trkpt><trkpt lat="31.46739428" lon="35.57268592"><ele>-370.0</ele><time>2015-11-20T11:56:26.0000000+00:00</time></trkpt><trkpt lat="31.46736327" lon="35.57265163"><ele>-369.5</ele><time>2015-11-20T11:56:29.0000000+00:00</time></trkpt><trkpt lat="31.46734835" lon="35.57263328"><ele>-369.5</ele><time>2015-11-20T11:56:30.0000000+00:00</time></trkpt><trkpt lat="31.46732689" lon="35.57261618"><ele>-369.5</ele><time>2015-11-20T11:56:31.0000000+00:00</time></trkpt><trkpt lat="31.46729881" lon="35.57260813"><ele>-370.0</ele><time>2015-11-20T11:56:32.0000000+00:00</time></trkpt><trkpt lat="31.46727039" lon="35.57260252"><ele>-370.0</ele><time>2015-11-20T11:56:33.0000000+00:00</time></trkpt><trkpt lat="31.46723988" lon="35.57259975"><ele>-370.0</ele><time>2015-11-20T11:56:34.0000000+00:00</time></trkpt><trkpt lat="31.46720954" lon="35.57259715"><ele>-370.0</ele><time>2015-11-20T11:56:35.0000000+00:00</time></trkpt><trkpt lat="31.46717803" lon="35.57259128"><ele>-370.0</ele><time>2015-11-20T11:56:36.0000000+00:00</time></trkpt><trkpt lat="31.46714743" lon="35.57258843"><ele>-370.0</ele><time>2015-11-20T11:56:37.0000000+00:00</time></trkpt><trkpt lat="31.46648191" lon="35.57256815"><ele>-370.5</ele><time>2015-11-20T11:56:54.0000000+00:00</time></trkpt><trkpt lat="31.46561522" lon="35.57253521"><ele>-370.9</ele><time>2015-11-20T11:57:11.0000000+00:00</time></trkpt><trkpt lat="31.46449716" lon="35.57246698"><ele>-371.9</ele><time>2015-11-20T11:57:29.0000000+00:00</time></trkpt><trkpt lat="31.4634024" lon="35.57243295"><ele>-372.9</ele><time>2015-11-20T11:57:47.0000000+00:00</time></trkpt><trkpt lat="31.46250503" lon="35.57240579"><ele>-373.8</ele><time>2015-11-20T11:58:03.0000000+00:00</time></trkpt><trkpt lat="31.46160842" lon="35.57235927"><ele>-374.3</ele><time>2015-11-20T11:58:19.0000000+00:00</time></trkpt><trkpt lat="31.46060293" lon="35.57225173"><ele>-375.3</ele><time>2015-11-20T11:58:36.0000000+00:00</time></trkpt><trkpt lat="31.45968134" lon="35.57207831"><ele>-375.7</ele><time>2015-11-20T11:58:53.0000000+00:00</time></trkpt><trkpt lat="31.45871775" lon="35.5718634"><ele>-376.2</ele><time>2015-11-20T11:59:10.0000000+00:00</time></trkpt><trkpt lat="31.45752367" lon="35.57142637"><ele>-377.2</ele><time>2015-11-20T11:59:30.0000000+00:00</time></trkpt><trkpt lat="31.45664197" lon="35.57071391"><ele>-378.1</ele><time>2015-11-20T11:59:47.0000000+00:00</time></trkpt><trkpt lat="31.45574804" lon="35.56959962"><ele>-378.6</ele><time>2015-11-20T12:00:07.0000000+00:00</time></trkpt><trkpt lat="31.4548174" lon="35.56843679"><ele>-379.1</ele><time>2015-11-20T12:00:28.0000000+00:00</time></trkpt><trkpt lat="31.45394904" lon="35.56737732"><ele>-379.1</ele><time>2015-11-20T12:00:47.0000000+00:00</time></trkpt><trkpt lat="31.45312275" lon="35.56666"><ele>-379.1</ele><time>2015-11-20T12:01:03.0000000+00:00</time></trkpt><trkpt lat="31.45206814" lon="35.5662228"><ele>-379.1</ele><time>2015-11-20T12:01:20.0000000+00:00</time></trkpt><trkpt lat="31.45096055" lon="35.56606304"><ele>-380.1</ele><time>2015-11-20T12:01:37.0000000+00:00</time></trkpt><trkpt lat="31.44964149" lon="35.56591543"><ele>-379.6</ele><time>2015-11-20T12:01:58.0000000+00:00</time></trkpt><trkpt lat="31.4484977" lon="35.56597025"><ele>-378.1</ele><time>2015-11-20T12:02:17.0000000+00:00</time></trkpt><trkpt lat="31.44731149" lon="35.56633453"><ele>-377.2</ele><time>2015-11-20T12:02:37.0000000+00:00</time></trkpt><trkpt lat="31.44633349" lon="35.56665086"><ele>-375.7</ele><time>2015-11-20T12:02:55.0000000+00:00</time></trkpt><trkpt lat="31.44529833" lon="35.5669915"><ele>-374.3</ele><time>2015-11-20T12:03:14.0000000+00:00</time></trkpt><trkpt lat="31.44426098" lon="35.56722184"><ele>-374.3</ele><time>2015-11-20T12:03:32.0000000+00:00</time></trkpt><trkpt lat="31.44289372" lon="35.56730272"><ele>-374.3</ele><time>2015-11-20T12:03:54.0000000+00:00</time></trkpt><trkpt lat="31.44134064" lon="35.56727649"><ele>-377.7</ele><time>2015-11-20T12:04:16.0000000+00:00</time></trkpt><trkpt lat="31.44021026" lon="35.56721287"><ele>-380.1</ele><time>2015-11-20T12:04:32.0000000+00:00</time></trkpt><trkpt lat="31.4401624" lon="35.56719124"><ele>-380.1</ele><time>2015-11-20T12:04:33.0000000+00:00</time></trkpt><trkpt lat="31.44012468" lon="35.56715746"><ele>-380.1</ele><time>2015-11-20T12:04:34.0000000+00:00</time></trkpt><trkpt lat="31.44009568" lon="35.56712159"><ele>-380.1</ele><time>2015-11-20T12:04:35.0000000+00:00</time></trkpt><trkpt lat="31.44007321" lon="35.5670925"><ele>-380.1</ele><time>2015-11-20T12:04:36.0000000+00:00</time></trkpt><trkpt lat="31.44005301" lon="35.56707088"><ele>-379.6</ele><time>2015-11-20T12:04:37.0000000+00:00</time></trkpt><trkpt lat="31.44004187" lon="35.56701933"><ele>-380.1</ele><time>2015-11-20T12:04:48.0000000+00:00</time></trkpt><trkpt lat="31.44000876" lon="35.5670024"><ele>-380.1</ele><time>2015-11-20T12:05:14.0000000+00:00</time></trkpt><trkpt lat="31.44004706" lon="35.56698748"><ele>-380.1</ele><time>2015-11-20T12:05:48.0000000+00:00</time></trkpt><trkpt lat="31.44005511" lon="35.56698714"><ele>-380.1</ele><time>2015-11-20T12:06:13.0000000+00:00</time></trkpt><trkpt lat="31.44003818" lon="35.56698337"><ele>-380.1</ele><time>2015-11-20T12:06:35.0000000+00:00</time></trkpt><trkpt lat="31.4400386" lon="35.56698748"><ele>-380.5</ele><time>2015-11-20T12:07:11.0000000+00:00</time></trkpt><trkpt lat="31.44003424" lon="35.56697893"><ele>-380.5</ele><time>2015-11-20T12:07:44.0000000+00:00</time></trkpt><trkpt lat="31.44004472" lon="35.56700634"><ele>-380.1</ele><time>2015-11-20T12:07:54.0000000+00:00</time></trkpt><trkpt lat="31.44002795" lon="35.56702855"><ele>-380.1</ele><time>2015-11-20T12:07:56.0000000+00:00</time></trkpt><trkpt lat="31.44000909" lon="35.56704657"><ele>-380.5</ele><time>2015-11-20T12:07:57.0000000+00:00</time></trkpt><trkpt lat="31.43998269" lon="35.56705805"><ele>-380.5</ele><time>2015-11-20T12:07:58.0000000+00:00</time></trkpt><trkpt lat="31.43995168" lon="35.56706484"><ele>-380.5</ele><time>2015-11-20T12:07:59.0000000+00:00</time></trkpt><trkpt lat="31.43991848" lon="35.56707029"><ele>-380.5</ele><time>2015-11-20T12:08:00.0000000+00:00</time></trkpt><trkpt lat="31.43944927" lon="35.56703836"><ele>-381.0</ele><time>2015-11-20T12:08:14.0000000+00:00</time></trkpt><trkpt lat="31.43859699" lon="35.56679755"><ele>-381.5</ele><time>2015-11-20T12:08:31.0000000+00:00</time></trkpt><trkpt lat="31.43744675" lon="35.56636462"><ele>-381.5</ele><time>2015-11-20T12:08:51.0000000+00:00</time></trkpt><trkpt lat="31.43634494" lon="35.56592859"><ele>-381.0</ele><time>2015-11-20T12:09:10.0000000+00:00</time></trkpt><trkpt lat="31.43539234" lon="35.56555585"><ele>-381.0</ele><time>2015-11-20T12:09:27.0000000+00:00</time></trkpt><trkpt lat="31.43533769" lon="35.56553615"><ele>-381.0</ele><time>2015-11-20T12:09:28.0000000+00:00</time></trkpt><trkpt lat="31.43435349" lon="35.5648568"><ele>-381.5</ele><time>2015-11-20T12:09:47.0000000+00:00</time></trkpt><trkpt lat="31.43362678" lon="35.5639917"><ele>-382.0</ele><time>2015-11-20T12:10:04.0000000+00:00</time></trkpt><trkpt lat="31.43278297" lon="35.56327094"><ele>-382.0</ele><time>2015-11-20T12:10:21.0000000+00:00</time></trkpt><trkpt lat="31.4317582" lon="35.56295796"><ele>-383.0</ele><time>2015-11-20T12:10:37.0000000+00:00</time></trkpt><trkpt lat="31.43083929" lon="35.56300406"><ele>-383.4</ele><time>2015-11-20T12:10:52.0000000+00:00</time></trkpt><trkpt lat="31.43004234" lon="35.56311361"><ele>-383.4</ele><time>2015-11-20T12:11:08.0000000+00:00</time></trkpt><trkpt lat="31.42898127" lon="35.56328092"><ele>-382.5</ele><time>2015-11-20T12:11:27.0000000+00:00</time></trkpt><trkpt lat="31.42800939" lon="35.56352299"><ele>-381.5</ele><time>2015-11-20T12:11:45.0000000+00:00</time></trkpt><trkpt lat="31.4269148" lon="35.56384955"><ele>-380.1</ele><time>2015-11-20T12:12:06.0000000+00:00</time></trkpt><trkpt lat="31.42581845" lon="35.56408399"><ele>-378.1</ele><time>2015-11-20T12:12:28.0000000+00:00</time></trkpt><trkpt lat="31.42509132" lon="35.56406739"><ele>-377.2</ele><time>2015-11-20T12:12:44.0000000+00:00</time></trkpt><trkpt lat="31.42421189" lon="35.56388425"><ele>-375.7</ele><time>2015-11-20T12:13:01.0000000+00:00</time></trkpt><trkpt lat="31.42391676" lon="35.56380445"><ele>-375.7</ele><time>2015-11-20T12:13:07.0000000+00:00</time></trkpt><trkpt lat="31.42324965" lon="35.56361737"><ele>-375.7</ele><time>2015-11-20T12:13:22.0000000+00:00</time></trkpt><trkpt lat="31.4225278" lon="35.56342743"><ele>-375.7</ele><time>2015-11-20T12:13:38.0000000+00:00</time></trkpt><trkpt lat="31.42221046" lon="35.56334957"><ele>-375.7</ele><time>2015-11-20T12:13:44.0000000+00:00</time></trkpt><trkpt lat="31.42118166" lon="35.5630997"><ele>-375.7</ele><time>2015-11-20T12:14:02.0000000+00:00</time></trkpt><trkpt lat="31.42082853" lon="35.56303332"><ele>-375.7</ele><time>2015-11-20T12:14:10.0000000+00:00</time></trkpt><trkpt lat="31.42078344" lon="35.56302988"><ele>-375.7</ele><time>2015-11-20T12:14:11.0000000+00:00</time></trkpt><trkpt lat="31.41985112" lon="35.56301923"><ele>-376.2</ele><time>2015-11-20T12:14:30.0000000+00:00</time></trkpt><trkpt lat="31.41846274" lon="35.56299426"><ele>-376.2</ele><time>2015-11-20T12:14:55.0000000+00:00</time></trkpt><trkpt lat="31.41740595" lon="35.56301043"><ele>-375.7</ele><time>2015-11-20T12:15:14.0000000+00:00</time></trkpt><trkpt lat="31.41649911" lon="35.56301488"><ele>-375.3</ele><time>2015-11-20T12:15:31.0000000+00:00</time></trkpt><trkpt lat="31.4154507" lon="35.56300272"><ele>-374.8</ele><time>2015-11-20T12:15:51.0000000+00:00</time></trkpt><trkpt lat="31.41450162" lon="35.56302141"><ele>-374.3</ele><time>2015-11-20T12:16:09.0000000+00:00</time></trkpt><trkpt lat="31.41397398" lon="35.56300649"><ele>-373.8</ele><time>2015-11-20T12:16:19.0000000+00:00</time></trkpt><trkpt lat="31.41301325" lon="35.56298428"><ele>-373.8</ele><time>2015-11-20T12:16:36.0000000+00:00</time></trkpt><trkpt lat="31.41187909" lon="35.56285235"><ele>-372.9</ele><time>2015-11-20T12:16:56.0000000+00:00</time></trkpt><trkpt lat="31.41084342" lon="35.56266946"><ele>-372.4</ele><time>2015-11-20T12:17:14.0000000+00:00</time></trkpt><trkpt lat="31.40968873" lon="35.56239529"><ele>-371.9</ele><time>2015-11-20T12:17:34.0000000+00:00</time></trkpt><trkpt lat="31.4086249" lon="35.56209446"><ele>-370.9</ele><time>2015-11-20T12:17:53.0000000+00:00</time></trkpt><trkpt lat="31.40756476" lon="35.56176706"><ele>-370.0</ele><time>2015-11-20T12:18:13.0000000+00:00</time></trkpt><trkpt lat="31.40651023" lon="35.56143405"><ele>-369.0</ele><time>2015-11-20T12:18:34.0000000+00:00</time></trkpt><trkpt lat="31.40641283" lon="35.56140035"><ele>-369.0</ele><time>2015-11-20T12:18:36.0000000+00:00</time></trkpt><trkpt lat="31.40566274" lon="35.56113163"><ele>-368.1</ele><time>2015-11-20T12:18:51.0000000+00:00</time></trkpt><trkpt lat="31.40517541" lon="35.56086726"><ele>-367.1</ele><time>2015-11-20T12:19:01.0000000+00:00</time></trkpt><trkpt lat="31.40440218" lon="35.56024021"><ele>-366.1</ele><time>2015-11-20T12:19:18.0000000+00:00</time></trkpt><trkpt lat="31.40373909" lon="35.55945097"><ele>-364.7</ele><time>2015-11-20T12:19:35.0000000+00:00</time></trkpt><trkpt lat="31.40312067" lon="35.55853274"><ele>-363.2</ele><time>2015-11-20T12:19:53.0000000+00:00</time></trkpt><trkpt lat="31.40262119" lon="35.55777828"><ele>-362.3</ele><time>2015-11-20T12:20:08.0000000+00:00</time></trkpt><trkpt lat="31.40205366" lon="35.55693565"><ele>-360.8</ele><time>2015-11-20T12:20:25.0000000+00:00</time></trkpt><trkpt lat="31.40147656" lon="35.55608631"><ele>-360.4</ele><time>2015-11-20T12:20:42.0000000+00:00</time></trkpt><trkpt lat="31.40114657" lon="35.55563436"><ele>-359.9</ele><time>2015-11-20T12:20:51.0000000+00:00</time></trkpt><trkpt lat="31.40042773" lon="35.55481696"><ele>-358.9</ele><time>2015-11-20T12:21:08.0000000+00:00</time></trkpt><trkpt lat="31.39977898" lon="35.55426853"><ele>-358.4</ele><time>2015-11-20T12:21:23.0000000+00:00</time></trkpt><trkpt lat="31.39894774" lon="35.55376553"><ele>-358.0</ele><time>2015-11-20T12:21:40.0000000+00:00</time></trkpt><trkpt lat="31.3978368" lon="35.55320336"><ele>-357.5</ele><time>2015-11-20T12:22:00.0000000+00:00</time></trkpt><trkpt lat="31.39650224" lon="35.55256147"><ele>-356.0</ele><time>2015-11-20T12:22:23.0000000+00:00</time></trkpt><trkpt lat="31.39542365" lon="35.55216911"><ele>-355.6</ele><time>2015-11-20T12:22:41.0000000+00:00</time></trkpt><trkpt lat="31.39450173" lon="35.5519656"><ele>-355.1</ele><time>2015-11-20T12:22:56.0000000+00:00</time></trkpt><trkpt lat="31.39324729" lon="35.55184934"><ele>-356.0</ele><time>2015-11-20T12:23:16.0000000+00:00</time></trkpt><trkpt lat="31.39207047" lon="35.55187591"><ele>-357.5</ele><time>2015-11-20T12:23:34.0000000+00:00</time></trkpt><trkpt lat="31.3909815" lon="35.55191665"><ele>-359.4</ele><time>2015-11-20T12:23:49.0000000+00:00</time></trkpt><trkpt lat="31.38975699" lon="35.55197197"><ele>-362.8</ele><time>2015-11-20T12:24:05.0000000+00:00</time></trkpt><trkpt lat="31.38884587" lon="35.55199577"><ele>-366.1</ele><time>2015-11-20T12:24:16.0000000+00:00</time></trkpt><trkpt lat="31.38796468" lon="35.55202603"><ele>-369.0</ele><time>2015-11-20T12:24:26.0000000+00:00</time></trkpt><trkpt lat="31.38710814" lon="35.55206744"><ele>-372.4</ele><time>2015-11-20T12:24:35.0000000+00:00</time></trkpt><trkpt lat="31.386811" lon="35.55207817"><ele>-373.8</ele><time>2015-11-20T12:24:38.0000000+00:00</time></trkpt><trkpt lat="31.38631135" lon="35.55209711"><ele>-375.3</ele><time>2015-11-20T12:24:43.0000000+00:00</time></trkpt><trkpt lat="31.38526378" lon="35.55205889"><ele>-378.6</ele><time>2015-11-20T12:24:53.0000000+00:00</time></trkpt><trkpt lat="31.3837977" lon="35.5517133"><ele>-380.5</ele><time>2015-11-20T12:25:08.0000000+00:00</time></trkpt><trkpt lat="31.38258736" lon="35.55141591"><ele>-380.1</ele><time>2015-11-20T12:25:23.0000000+00:00</time></trkpt><trkpt lat="31.38144943" lon="35.5513191"><ele>-379.1</ele><time>2015-11-20T12:25:40.0000000+00:00</time></trkpt><trkpt lat="31.38042147" lon="35.55134165"><ele>-379.1</ele><time>2015-11-20T12:25:57.0000000+00:00</time></trkpt><trkpt lat="31.3794392" lon="35.55130477"><ele>-379.1</ele><time>2015-11-20T12:26:13.0000000+00:00</time></trkpt><trkpt lat="31.37836011" lon="35.5510876"><ele>-379.1</ele><time>2015-11-20T12:26:31.0000000+00:00</time></trkpt><trkpt lat="31.37730039" lon="35.55078761"><ele>-379.1</ele><time>2015-11-20T12:26:49.0000000+00:00</time></trkpt><trkpt lat="31.37600924" lon="35.55040648"><ele>-380.5</ele><time>2015-11-20T12:27:08.0000000+00:00</time></trkpt><trkpt lat="31.37476654" lon="35.54988722"><ele>-382.0</ele><time>2015-11-20T12:27:26.0000000+00:00</time></trkpt><trkpt lat="31.37386666" lon="35.54937291"><ele>-382.0</ele><time>2015-11-20T12:27:42.0000000+00:00</time></trkpt><trkpt lat="31.37323592" lon="35.54893831"><ele>-381.5</ele><time>2015-11-20T12:27:58.0000000+00:00</time></trkpt><trkpt lat="31.37293903" lon="35.54874427"><ele>-381.0</ele><time>2015-11-20T12:28:11.0000000+00:00</time></trkpt><trkpt lat="31.37269344" lon="35.5485856"><ele>-380.5</ele><time>2015-11-20T12:28:23.0000000+00:00</time></trkpt><trkpt lat="31.37267534" lon="35.54854939"><ele>-381.0</ele><time>2015-11-20T12:28:38.0000000+00:00</time></trkpt><trkpt lat="31.372703" lon="35.54853011"><ele>-381.0</ele><time>2015-11-20T12:28:52.0000000+00:00</time></trkpt><trkpt lat="31.37270333" lon="35.5484768"><ele>-382.5</ele><time>2015-11-20T12:29:07.0000000+00:00</time></trkpt><trkpt lat="31.37269881" lon="35.54843238"><ele>-383.9</ele><time>2015-11-20T12:29:21.0000000+00:00</time></trkpt><trkpt lat="31.37269135" lon="35.54842877"><ele>-384.9</ele><time>2015-11-20T12:29:44.0000000+00:00</time></trkpt><trkpt lat="31.37269394" lon="35.54840254"><ele>-384.9</ele><time>2015-11-20T12:30:05.0000000+00:00</time></trkpt><trkpt lat="31.37268841" lon="35.54834973"><ele>-386.3</ele><time>2015-11-20T12:30:14.0000000+00:00</time></trkpt><trkpt lat="31.3726051" lon="35.54825594"><ele>-386.8</ele><time>2015-11-20T12:30:28.0000000+00:00</time></trkpt><trkpt lat="31.37250351" lon="35.54813172"><ele>-388.2</ele><time>2015-11-20T12:30:46.0000000+00:00</time></trkpt><trkpt lat="31.37243452" lon="35.54803181"><ele>-389.7</ele><time>2015-11-20T12:31:02.0000000+00:00</time></trkpt><trkpt lat="31.37243587" lon="35.54801714"><ele>-389.7</ele><time>2015-11-20T12:31:17.0000000+00:00</time></trkpt><trkpt lat="31.37243964" lon="35.54800976"><ele>-390.2</ele><time>2015-11-20T12:31:43.0000000+00:00</time></trkpt><trkpt lat="31.37243981" lon="35.5480163"><ele>-389.7</ele><time>2015-11-20T12:32:06.0000000+00:00</time></trkpt><trkpt lat="31.37241801" lon="35.54800498"><ele>-390.2</ele><time>2015-11-20T12:32:49.0000000+00:00</time></trkpt><trkpt lat="31.37242178" lon="35.54800658"><ele>-390.2</ele><time>2015-11-20T12:33:21.0000000+00:00</time></trkpt><trkpt lat="31.37242782" lon="35.54801228"><ele>-390.6</ele><time>2015-11-20T12:34:06.0000000+00:00</time></trkpt><trkpt lat="31.37242262" lon="35.54799685"><ele>-390.2</ele><time>2015-11-20T12:34:58.0000000+00:00</time></trkpt><trkpt lat="31.37241642" lon="35.54800255"><ele>-390.2</ele><time>2015-11-20T12:35:49.0000000+00:00</time></trkpt><trkpt lat="31.37242539" lon="35.54801278"><ele>-390.2</ele><time>2015-11-20T12:36:26.0000000+00:00</time></trkpt><trkpt lat="31.37242774" lon="35.54800498"><ele>-390.2</ele><time>2015-11-20T12:37:14.0000000+00:00</time></trkpt><trkpt lat="31.3724419" lon="35.54800532"><ele>-389.7</ele><time>2015-11-20T12:38:05.0000000+00:00</time></trkpt><trkpt lat="31.37243251" lon="35.5480075"><ele>-389.7</ele><time>2015-11-20T12:39:01.0000000+00:00</time></trkpt><trkpt lat="31.3724181" lon="35.54799953"><ele>-390.2</ele><time>2015-11-20T12:39:50.0000000+00:00</time></trkpt><trkpt lat="31.37242824" lon="35.54800155"><ele>-389.7</ele><time>2015-11-20T12:40:43.0000000+00:00</time></trkpt><trkpt lat="31.3724186" lon="35.54800607"><ele>-390.2</ele><time>2015-11-20T12:41:30.0000000+00:00</time></trkpt><trkpt lat="31.37241625" lon="35.54800255"><ele>-390.2</ele><time>2015-11-20T12:42:15.0000000+00:00</time></trkpt><trkpt lat="31.37240577" lon="35.54800959"><ele>-390.2</ele><time>2015-11-20T12:42:51.0000000+00:00</time></trkpt><trkpt lat="31.37241961" lon="35.54800079"><ele>-390.2</ele><time>2015-11-20T12:43:26.0000000+00:00</time></trkpt><trkpt lat="31.37242036" lon="35.54800331"><ele>-390.2</ele><time>2015-11-20T12:43:51.0000000+00:00</time></trkpt><trkpt lat="31.37242069" lon="35.54800716"><ele>-390.2</ele><time>2015-11-20T12:44:24.0000000+00:00</time></trkpt><trkpt lat="31.37241164" lon="35.54800875"><ele>-390.2</ele><time>2015-11-20T12:45:03.0000000+00:00</time></trkpt><trkpt lat="31.37242589" lon="35.54800901"><ele>-390.2</ele><time>2015-11-20T12:45:43.0000000+00:00</time></trkpt><trkpt lat="31.3724238" lon="35.54800951"><ele>-390.2</ele><time>2015-11-20T12:46:24.0000000+00:00</time></trkpt><trkpt lat="31.37242539" lon="35.54800356"><ele>-390.2</ele><time>2015-11-20T12:47:05.0000000+00:00</time></trkpt><trkpt lat="31.37242514" lon="35.54800272"><ele>-390.2</ele><time>2015-11-20T12:47:40.0000000+00:00</time></trkpt><trkpt lat="31.37243059" lon="35.54800331"><ele>-390.2</ele><time>2015-11-20T12:48:09.0000000+00:00</time></trkpt><trkpt lat="31.3724336" lon="35.54798277"><ele>-390.2</ele><time>2015-11-20T12:48:44.0000000+00:00</time></trkpt><trkpt lat="31.37242254" lon="35.5479883"><ele>-390.2</ele><time>2015-11-20T12:49:31.0000000+00:00</time></trkpt><trkpt lat="31.37242673" lon="35.54799459"><ele>-390.2</ele><time>2015-11-20T12:50:01.0000000+00:00</time></trkpt><trkpt lat="31.3724108" lon="35.54799107"><ele>-390.2</ele><time>2015-11-20T12:50:43.0000000+00:00</time></trkpt><trkpt lat="31.37242589" lon="35.54800456"><ele>-389.7</ele><time>2015-11-20T12:51:15.0000000+00:00</time></trkpt><trkpt lat="31.372416" lon="35.54799794"><ele>-390.2</ele><time>2015-11-20T12:51:52.0000000+00:00</time></trkpt><trkpt lat="31.37242128" lon="35.54798981"><ele>-390.2</ele><time>2015-11-20T12:52:23.0000000+00:00</time></trkpt><trkpt lat="31.37242715" lon="35.54798746"><ele>-390.2</ele><time>2015-11-20T12:52:53.0000000+00:00</time></trkpt><trkpt lat="31.37244492" lon="35.54799409"><ele>-389.7</ele><time>2015-11-20T12:53:32.0000000+00:00</time></trkpt><trkpt lat="31.37244333" lon="35.54799719"><ele>-389.7</ele><time>2015-11-20T12:54:02.0000000+00:00</time></trkpt><trkpt lat="31.37245741" lon="35.547994"><ele>-390.2</ele><time>2015-11-20T12:54:41.0000000+00:00</time></trkpt><trkpt lat="31.37244374" lon="35.54798654"><ele>-390.2</ele><time>2015-11-20T12:55:16.0000000+00:00</time></trkpt><trkpt lat="31.37244634" lon="35.54800448"><ele>-389.7</ele><time>2015-11-20T12:55:54.0000000+00:00</time></trkpt><trkpt lat="31.37244165" lon="35.54800272"><ele>-389.7</ele><time>2015-11-20T12:56:24.0000000+00:00</time></trkpt><trkpt lat="31.37244643" lon="35.54799585"><ele>-390.2</ele><time>2015-11-20T12:56:52.0000000+00:00</time></trkpt><trkpt lat="31.37244383" lon="35.5479987"><ele>-390.2</ele><time>2015-11-20T12:57:32.0000000+00:00</time></trkpt><trkpt lat="31.37244106" lon="35.54800976"><ele>-390.2</ele><time>2015-11-20T12:58:04.0000000+00:00</time></trkpt><trkpt lat="31.37246076" lon="35.54801697"><ele>-390.2</ele><time>2015-11-20T12:58:41.0000000+00:00</time></trkpt><trkpt lat="31.37245707" lon="35.54801663"><ele>-390.6</ele><time>2015-11-20T12:59:09.0000000+00:00</time></trkpt><trkpt lat="31.37245892" lon="35.54802502"><ele>-390.6</ele><time>2015-11-20T12:59:41.0000000+00:00</time></trkpt><trkpt lat="31.37245188" lon="35.54802242"><ele>-390.6</ele><time>2015-11-20T13:00:20.0000000+00:00</time></trkpt><trkpt lat="31.37244567" lon="35.54801563"><ele>-390.6</ele><time>2015-11-20T13:00:54.0000000+00:00</time></trkpt><trkpt lat="31.37245196" lon="35.54803139"><ele>-391.1</ele><time>2015-11-20T13:01:25.0000000+00:00</time></trkpt><trkpt lat="31.37245917" lon="35.5480194"><ele>-391.1</ele><time>2015-11-20T13:01:55.0000000+00:00</time></trkpt><trkpt lat="31.37245623" lon="35.54802359"><ele>-391.1</ele><time>2015-11-20T13:02:29.0000000+00:00</time></trkpt><trkpt lat="31.37245758" lon="35.54802225"><ele>-391.1</ele><time>2015-11-20T13:03:08.0000000+00:00</time></trkpt><trkpt lat="31.3724538" lon="35.54802435"><ele>-391.1</ele><time>2015-11-20T13:03:43.0000000+00:00</time></trkpt><trkpt lat="31.3724704" lon="35.54802787"><ele>-391.6</ele><time>2015-11-20T13:04:20.0000000+00:00</time></trkpt><trkpt lat="31.37245749" lon="35.54802476"><ele>-391.6</ele><time>2015-11-20T13:04:57.0000000+00:00</time></trkpt><trkpt lat="31.37245833" lon="35.54801261"><ele>-391.6</ele><time>2015-11-20T13:05:36.0000000+00:00</time></trkpt><trkpt lat="31.3724512" lon="35.54801152"><ele>-391.6</ele><time>2015-11-20T13:06:16.0000000+00:00</time></trkpt><trkpt lat="31.37245741" lon="35.54801261"><ele>-391.6</ele><time>2015-11-20T13:06:54.0000000+00:00</time></trkpt><trkpt lat="31.37246361" lon="35.54801756"><ele>-391.6</ele><time>2015-11-20T13:07:33.0000000+00:00</time></trkpt><trkpt lat="31.37244928" lon="35.54801663"><ele>-391.6</ele><time>2015-11-20T13:08:12.0000000+00:00</time></trkpt><trkpt lat="31.37243796" lon="35.54801119"><ele>-391.6</ele><time>2015-11-20T13:08:54.0000000+00:00</time></trkpt><trkpt lat="31.37244274" lon="35.54800121"><ele>-391.6</ele><time>2015-11-20T13:09:39.0000000+00:00</time></trkpt><trkpt lat="31.37244727" lon="35.5480075"><ele>-391.6</ele><time>2015-11-20T13:10:18.0000000+00:00</time></trkpt><trkpt lat="31.37243503" lon="35.5480044"><ele>-391.6</ele><time>2015-11-20T13:11:07.0000000+00:00</time></trkpt><trkpt lat="31.37244483" lon="35.54799895"><ele>-391.6</ele><time>2015-11-20T13:11:41.0000000+00:00</time></trkpt><trkpt lat="31.37245229" lon="35.54800792"><ele>-391.6</ele><time>2015-11-20T13:12:23.0000000+00:00</time></trkpt><trkpt lat="31.37245028" lon="35.54799601"><ele>-391.6</ele><time>2015-11-20T13:13:10.0000000+00:00</time></trkpt><trkpt lat="31.37243528" lon="35.54800213"><ele>-391.6</ele><time>2015-11-20T13:13:54.0000000+00:00</time></trkpt><trkpt lat="31.37244752" lon="35.54799828"><ele>-391.6</ele><time>2015-11-20T13:14:36.0000000+00:00</time></trkpt><trkpt lat="31.37245364" lon="35.54799241"><ele>-392.1</ele><time>2015-11-20T13:15:19.0000000+00:00</time></trkpt><trkpt lat="31.37246369" lon="35.54799425"><ele>-392.1</ele><time>2015-11-20T13:15:56.0000000+00:00</time></trkpt><trkpt lat="31.37245623" lon="35.54799182"><ele>-392.1</ele><time>2015-11-20T13:16:38.0000000+00:00</time></trkpt><trkpt lat="31.37245213" lon="35.54799652"><ele>-392.1</ele><time>2015-11-20T13:17:19.0000000+00:00</time></trkpt><trkpt lat="31.37244727" lon="35.54800171"><ele>-392.6</ele><time>2015-11-20T13:17:57.0000000+00:00</time></trkpt><trkpt lat="31.37245305" lon="35.54798596"><ele>-392.6</ele><time>2015-11-20T13:18:40.0000000+00:00</time></trkpt><trkpt lat="31.3724476" lon="35.54799241"><ele>-392.6</ele><time>2015-11-20T13:19:25.0000000+00:00</time></trkpt><trkpt lat="31.37245263" lon="35.54799006"><ele>-392.6</ele><time>2015-11-20T13:20:01.0000000+00:00</time></trkpt><trkpt lat="31.37244651" lon="35.54799509"><ele>-392.6</ele><time>2015-11-20T13:20:47.0000000+00:00</time></trkpt><trkpt lat="31.37245917" lon="35.54798663"><ele>-392.6</ele><time>2015-11-20T13:21:32.0000000+00:00</time></trkpt><trkpt lat="31.37246445" lon="35.54798746"><ele>-393.0</ele><time>2015-11-20T13:22:17.0000000+00:00</time></trkpt><trkpt lat="31.37245204" lon="35.54798378"><ele>-392.6</ele><time>2015-11-20T13:22:48.0000000+00:00</time></trkpt><trkpt lat="31.37245548" lon="35.54799031"><ele>-392.6</ele><time>2015-11-20T13:23:26.0000000+00:00</time></trkpt><trkpt lat="31.37245866" lon="35.54799249"><ele>-393.0</ele><time>2015-11-20T13:24:02.0000000+00:00</time></trkpt><trkpt lat="31.37245975" lon="35.54798713"><ele>-393.0</ele><time>2015-11-20T13:24:42.0000000+00:00</time></trkpt><trkpt lat="31.37245732" lon="35.54798478"><ele>-393.0</ele><time>2015-11-20T13:25:15.0000000+00:00</time></trkpt><trkpt lat="31.37245397" lon="35.54798319"><ele>-393.0</ele><time>2015-11-20T13:25:44.0000000+00:00</time></trkpt><trkpt lat="31.37246587" lon="35.54797816"><ele>-393.0</ele><time>2015-11-20T13:26:12.0000000+00:00</time></trkpt><trkpt lat="31.3724621" lon="35.54798319"><ele>-393.0</ele><time>2015-11-20T13:26:44.0000000+00:00</time></trkpt><trkpt lat="31.37245825" lon="35.54797908"><ele>-393.5</ele><time>2015-11-20T13:27:20.0000000+00:00</time></trkpt><trkpt lat="31.37245573" lon="35.54798495"><ele>-393.0</ele><time>2015-11-20T13:27:49.0000000+00:00</time></trkpt><trkpt lat="31.37246788" lon="35.5479878"><ele>-393.5</ele><time>2015-11-20T13:28:20.0000000+00:00</time></trkpt><trkpt lat="31.3724704" lon="35.54798839"><ele>-393.5</ele><time>2015-11-20T13:28:53.0000000+00:00</time></trkpt><trkpt lat="31.37246629" lon="35.54798084"><ele>-393.5</ele><time>2015-11-20T13:29:26.0000000+00:00</time></trkpt><trkpt lat="31.37245607" lon="35.54797481"><ele>-393.5</ele><time>2015-11-20T13:30:00.0000000+00:00</time></trkpt><trkpt lat="31.37245548" lon="35.54798487"><ele>-393.5</ele><time>2015-11-20T13:30:40.0000000+00:00</time></trkpt><trkpt lat="31.37244349" lon="35.54803315"><ele>-393.0</ele><time>2015-11-20T13:31:03.0000000+00:00</time></trkpt><trkpt lat="31.37249764" lon="35.54813934"><ele>-392.1</ele><time>2015-11-20T13:31:20.0000000+00:00</time></trkpt><trkpt lat="31.37257375" lon="35.5482059"><ele>-391.1</ele><time>2015-11-20T13:31:37.0000000+00:00</time></trkpt><trkpt lat="31.37261247" lon="35.5482354"><ele>-391.1</ele><time>2015-11-20T13:31:42.0000000+00:00</time></trkpt><trkpt lat="31.37266737" lon="35.54830053"><ele>-391.6</ele><time>2015-11-20T13:31:59.0000000+00:00</time></trkpt><trkpt lat="31.37270342" lon="35.54833791"><ele>-390.6</ele><time>2015-11-20T13:32:14.0000000+00:00</time></trkpt><trkpt lat="31.37270467" lon="35.54836432"><ele>-390.2</ele><time>2015-11-20T13:32:29.0000000+00:00</time></trkpt><trkpt lat="31.37270291" lon="35.54840027"><ele>-389.2</ele><time>2015-11-20T13:32:46.0000000+00:00</time></trkpt><trkpt lat="31.37270006" lon="35.54844285"><ele>-388.2</ele><time>2015-11-20T13:33:01.0000000+00:00</time></trkpt><trkpt lat="31.37272655" lon="35.54847362"><ele>-386.8</ele><time>2015-11-20T13:33:15.0000000+00:00</time></trkpt><trkpt lat="31.37275287" lon="35.54853086"><ele>-386.3</ele><time>2015-11-20T13:33:24.0000000+00:00</time></trkpt><trkpt lat="31.37274625" lon="35.54856263"><ele>-385.8</ele><time>2015-11-20T13:33:28.0000000+00:00</time></trkpt><trkpt lat="31.37272328" lon="35.54859373"><ele>-385.8</ele><time>2015-11-20T13:33:32.0000000+00:00</time></trkpt><trkpt lat="31.37264248" lon="35.54862072"><ele>-385.4</ele><time>2015-11-20T13:33:45.0000000+00:00</time></trkpt><trkpt lat="31.3725719" lon="35.5485996"><ele>-385.4</ele><time>2015-11-20T13:33:50.0000000+00:00</time></trkpt><trkpt lat="31.37255137" lon="35.54859071"><ele>-385.4</ele><time>2015-11-20T13:33:51.0000000+00:00</time></trkpt><trkpt lat="31.37253083" lon="35.54858065"><ele>-385.4</ele><time>2015-11-20T13:33:52.0000000+00:00</time></trkpt><trkpt lat="31.37250887" lon="35.54856732"><ele>-385.4</ele><time>2015-11-20T13:33:53.0000000+00:00</time></trkpt><trkpt lat="31.37200411" lon="35.54829072"><ele>-384.4</ele><time>2015-11-20T13:34:08.0000000+00:00</time></trkpt><trkpt lat="31.37131101" lon="35.54788127"><ele>-382.5</ele><time>2015-11-20T13:34:26.0000000+00:00</time></trkpt><trkpt lat="31.37066636" lon="35.54753635"><ele>-380.1</ele><time>2015-11-20T13:34:43.0000000+00:00</time></trkpt><trkpt lat="31.36980856" lon="35.54718138"><ele>-377.7</ele><time>2015-11-20T13:35:04.0000000+00:00</time></trkpt><trkpt lat="31.36892008" lon="35.54693621"><ele>-377.7</ele><time>2015-11-20T13:35:24.0000000+00:00</time></trkpt><trkpt lat="31.36795658" lon="35.546785"><ele>-378.6</ele><time>2015-11-20T13:35:42.0000000+00:00</time></trkpt><trkpt lat="31.36688059" lon="35.54675289"><ele>-381.0</ele><time>2015-11-20T13:35:59.0000000+00:00</time></trkpt><trkpt lat="31.36565994" lon="35.54689614"><ele>-383.9</ele><time>2015-11-20T13:36:17.0000000+00:00</time></trkpt><trkpt lat="31.36536422" lon="35.54694492"><ele>-384.4</ele><time>2015-11-20T13:36:21.0000000+00:00</time></trkpt><trkpt lat="31.36425085" lon="35.54714131"><ele>-386.3</ele><time>2015-11-20T13:36:36.0000000+00:00</time></trkpt><trkpt lat="31.36317738" lon="35.54731993"><ele>-387.8</ele><time>2015-11-20T13:36:50.0000000+00:00</time></trkpt><trkpt lat="31.36185489" lon="35.54754783"><ele>-387.8</ele><time>2015-11-20T13:37:08.0000000+00:00</time></trkpt><trkpt lat="31.36016618" lon="35.54782729"><ele>-387.3</ele><time>2015-11-20T13:37:33.0000000+00:00</time></trkpt><trkpt lat="31.35884285" lon="35.54801881"><ele>-387.8</ele><time>2015-11-20T13:37:54.0000000+00:00</time></trkpt><trkpt lat="31.35743083" lon="35.54805402"><ele>-386.8</ele><time>2015-11-20T13:38:16.0000000+00:00</time></trkpt><trkpt lat="31.35585546" lon="35.54790532"><ele>-387.3</ele><time>2015-11-20T13:38:40.0000000+00:00</time></trkpt><trkpt lat="31.35459415" lon="35.54784665"><ele>-387.8</ele><time>2015-11-20T13:38:59.0000000+00:00</time></trkpt><trkpt lat="31.35320543" lon="35.54787708"><ele>-388.7</ele><time>2015-11-20T13:39:19.0000000+00:00</time></trkpt><trkpt lat="31.35205225" lon="35.54789929"><ele>-389.2</ele><time>2015-11-20T13:39:36.0000000+00:00</time></trkpt><trkpt lat="31.35110199" lon="35.54789803"><ele>-387.8</ele><time>2015-11-20T13:39:51.0000000+00:00</time></trkpt><trkpt lat="31.34996583" lon="35.54788051"><ele>-386.3</ele><time>2015-11-20T13:40:11.0000000+00:00</time></trkpt><trkpt lat="31.34899688" lon="35.54783181"><ele>-384.4</ele><time>2015-11-20T13:40:29.0000000+00:00</time></trkpt><trkpt lat="31.34812751" lon="35.54777373"><ele>-381.5</ele><time>2015-11-20T13:40:47.0000000+00:00</time></trkpt><trkpt lat="31.34730985" lon="35.54770927"><ele>-379.1</ele><time>2015-11-20T13:41:04.0000000+00:00</time></trkpt><trkpt lat="31.34633747" lon="35.54761866"><ele>-378.6</ele><time>2015-11-20T13:41:23.0000000+00:00</time></trkpt><trkpt lat="31.34533105" lon="35.54753032"><ele>-379.1</ele><time>2015-11-20T13:41:41.0000000+00:00</time></trkpt><trkpt lat="31.34416547" lon="35.54760517"><ele>-381.5</ele><time>2015-11-20T13:41:59.0000000+00:00</time></trkpt><trkpt lat="31.343006" lon="35.54781622"><ele>-383.9</ele><time>2015-11-20T13:42:15.0000000+00:00</time></trkpt><trkpt lat="31.34141117" lon="35.54821344"><ele>-386.3</ele><time>2015-11-20T13:42:35.0000000+00:00</time></trkpt><trkpt lat="31.34014366" lon="35.54840983"><ele>-387.3</ele><time>2015-11-20T13:42:51.0000000+00:00</time></trkpt><trkpt lat="31.33875654" lon="35.54842458"><ele>-387.8</ele><time>2015-11-20T13:43:10.0000000+00:00</time></trkpt><trkpt lat="31.33785088" lon="35.54830045"><ele>-388.2</ele><time>2015-11-20T13:43:24.0000000+00:00</time></trkpt><trkpt lat="31.33646191" lon="35.54802896"><ele>-388.7</ele><time>2015-11-20T13:43:46.0000000+00:00</time></trkpt><trkpt lat="31.33548475" lon="35.54797489"><ele>-388.7</ele><time>2015-11-20T13:44:01.0000000+00:00</time></trkpt><trkpt lat="31.33439594" lon="35.54811998"><ele>-389.2</ele><time>2015-11-20T13:44:18.0000000+00:00</time></trkpt><trkpt lat="31.33397542" lon="35.54811412"><ele>-388.7</ele><time>2015-11-20T13:44:25.0000000+00:00</time></trkpt><trkpt lat="31.33392387" lon="35.5481137"><ele>-388.2</ele><time>2015-11-20T13:44:26.0000000+00:00</time></trkpt><trkpt lat="31.33387442" lon="35.54810917"><ele>-388.7</ele><time>2015-11-20T13:44:27.0000000+00:00</time></trkpt><trkpt lat="31.33304704" lon="35.54788705"><ele>-386.3</ele><time>2015-11-20T13:44:45.0000000+00:00</time></trkpt><trkpt lat="31.33300337" lon="35.54786911"><ele>-386.3</ele><time>2015-11-20T13:44:46.0000000+00:00</time></trkpt><trkpt lat="31.3329618" lon="35.54784765"><ele>-385.8</ele><time>2015-11-20T13:44:47.0000000+00:00</time></trkpt><trkpt lat="31.3323692" lon="35.54748254"><ele>-383.4</ele><time>2015-11-20T13:45:02.0000000+00:00</time></trkpt><trkpt lat="31.33173862" lon="35.5468466"><ele>-381.5</ele><time>2015-11-20T13:45:20.0000000+00:00</time></trkpt><trkpt lat="31.33108081" lon="35.54607027"><ele>-380.1</ele><time>2015-11-20T13:45:40.0000000+00:00</time></trkpt><trkpt lat="31.33042116" lon="35.5454801"><ele>-381.0</ele><time>2015-11-20T13:45:55.0000000+00:00</time></trkpt><trkpt lat="31.32944182" lon="35.54495833"><ele>-383.9</ele><time>2015-11-20T13:46:10.0000000+00:00</time></trkpt><trkpt lat="31.32840833" lon="35.54470637"><ele>-386.8</ele><time>2015-11-20T13:46:22.0000000+00:00</time></trkpt><trkpt lat="31.32726864" lon="35.54468089"><ele>-389.7</ele><time>2015-11-20T13:46:34.0000000+00:00</time></trkpt><trkpt lat="31.32560064" lon="35.54471869"><ele>-392.1</ele><time>2015-11-20T13:46:52.0000000+00:00</time></trkpt><trkpt lat="31.3243369" lon="35.5447601"><ele>-392.1</ele><time>2015-11-20T13:47:07.0000000+00:00</time></trkpt><trkpt lat="31.32293109" lon="35.54479346"><ele>-391.6</ele><time>2015-11-20T13:47:26.0000000+00:00</time></trkpt><trkpt lat="31.32190942" lon="35.54480033"><ele>-391.1</ele><time>2015-11-20T13:47:41.0000000+00:00</time></trkpt><trkpt lat="31.32056136" lon="35.54472045"><ele>-391.1</ele><time>2015-11-20T13:48:00.0000000+00:00</time></trkpt><trkpt lat="31.31954195" lon="35.54452524"><ele>-390.2</ele><time>2015-11-20T13:48:15.0000000+00:00</time></trkpt><trkpt lat="31.31871918" lon="35.54424008"><ele>-388.2</ele><time>2015-11-20T13:48:29.0000000+00:00</time></trkpt><trkpt lat="31.31782668" lon="35.54381772"><ele>-385.4</ele><time>2015-11-20T13:48:46.0000000+00:00</time></trkpt><trkpt lat="31.3172065" lon="35.54346191"><ele>-382.5</ele><time>2015-11-20T13:49:00.0000000+00:00</time></trkpt><trkpt lat="31.31671406" lon="35.54311548"><ele>-379.1</ele><time>2015-11-20T13:49:14.0000000+00:00</time></trkpt><trkpt lat="31.3162316" lon="35.54275548"><ele>-376.7</ele><time>2015-11-20T13:49:30.0000000+00:00</time></trkpt><trkpt lat="31.31580932" lon="35.54247561"><ele>-374.3</ele><time>2015-11-20T13:49:44.0000000+00:00</time></trkpt><trkpt lat="31.31524438" lon="35.54207051"><ele>-371.4</ele><time>2015-11-20T13:50:03.0000000+00:00</time></trkpt><trkpt lat="31.31471112" lon="35.54171428"><ele>-368.5</ele><time>2015-11-20T13:50:21.0000000+00:00</time></trkpt><trkpt lat="31.31430318" lon="35.54142796"><ele>-366.1</ele><time>2015-11-20T13:50:35.0000000+00:00</time></trkpt><trkpt lat="31.31391929" lon="35.5411604"><ele>-364.2</ele><time>2015-11-20T13:50:48.0000000+00:00</time></trkpt><trkpt lat="31.31340765" lon="35.54081113"><ele>-360.8</ele><time>2015-11-20T13:51:05.0000000+00:00</time></trkpt><trkpt lat="31.31305603" lon="35.54056973"><ele>-358.9</ele><time>2015-11-20T13:51:18.0000000+00:00</time></trkpt><trkpt lat="31.31248841" lon="35.54017285"><ele>-356.5</ele><time>2015-11-20T13:51:37.0000000+00:00</time></trkpt><trkpt lat="31.31188609" lon="35.5397525"><ele>-354.6</ele><time>2015-11-20T13:51:56.0000000+00:00</time></trkpt><trkpt lat="31.31132207" lon="35.53935243"><ele>-352.7</ele><time>2015-11-20T13:52:15.0000000+00:00</time></trkpt><trkpt lat="31.31080583" lon="35.53899905"><ele>-352.2</ele><time>2015-11-20T13:52:32.0000000+00:00</time></trkpt><trkpt lat="31.31067817" lon="35.53891364"><ele>-352.2</ele><time>2015-11-20T13:52:43.0000000+00:00</time></trkpt><trkpt lat="31.31071664" lon="35.53889679"><ele>-352.2</ele><time>2015-11-20T13:53:14.0000000+00:00</time></trkpt><trkpt lat="31.31071455" lon="35.53889302"><ele>-352.7</ele><time>2015-11-20T13:53:49.0000000+00:00</time></trkpt><trkpt lat="31.31066811" lon="35.53887458"><ele>-352.7</ele><time>2015-11-20T13:54:14.0000000+00:00</time></trkpt><trkpt lat="31.31031632" lon="35.53864826"><ele>-352.2</ele><time>2015-11-20T13:54:27.0000000+00:00</time></trkpt><trkpt lat="31.30965105" lon="35.53819145"><ele>-352.7</ele><time>2015-11-20T13:54:44.0000000+00:00</time></trkpt><trkpt lat="31.30948459" lon="35.5380819"><ele>-352.7</ele><time>2015-11-20T13:54:48.0000000+00:00</time></trkpt><trkpt lat="31.30870021" lon="35.53752869"><ele>-354.1</ele><time>2015-11-20T13:55:04.0000000+00:00</time></trkpt><trkpt lat="31.30780812" lon="35.53697482"><ele>-355.6</ele><time>2015-11-20T13:55:20.0000000+00:00</time></trkpt><trkpt lat="31.30660331" lon="35.53635355"><ele>-358.4</ele><time>2015-11-20T13:55:39.0000000+00:00</time></trkpt><trkpt lat="31.30558935" lon="35.53592331"><ele>-359.9</ele><time>2015-11-20T13:55:56.0000000+00:00</time></trkpt><trkpt lat="31.30463105" lon="35.53557848"><ele>-360.8</ele><time>2015-11-20T13:56:12.0000000+00:00</time></trkpt><trkpt lat="31.30357082" lon="35.5352769"><ele>-360.4</ele><time>2015-11-20T13:56:30.0000000+00:00</time></trkpt><trkpt lat="31.30245418" lon="35.53503466"><ele>-359.4</ele><time>2015-11-20T13:56:50.0000000+00:00</time></trkpt><trkpt lat="31.30137677" lon="35.53489057"><ele>-357.5</ele><time>2015-11-20T13:57:10.0000000+00:00</time></trkpt><trkpt lat="31.30045108" lon="35.53482226"><ele>-355.6</ele><time>2015-11-20T13:57:28.0000000+00:00</time></trkpt><trkpt lat="31.29954415" lon="35.53480768"><ele>-353.6</ele><time>2015-11-20T13:57:46.0000000+00:00</time></trkpt><trkpt lat="31.29869532" lon="35.5348345"><ele>-352.7</ele><time>2015-11-20T13:58:04.0000000+00:00</time></trkpt><trkpt lat="31.29782603" lon="35.53488144"><ele>-350.7</ele><time>2015-11-20T13:58:22.0000000+00:00</time></trkpt><trkpt lat="31.29691752" lon="35.53491983"><ele>-349.3</ele><time>2015-11-20T13:58:41.0000000+00:00</time></trkpt><trkpt lat="31.29624646" lon="35.53493701"><ele>-348.8</ele><time>2015-11-20T13:58:57.0000000+00:00</time></trkpt><trkpt lat="31.29523426" lon="35.53497322"><ele>-348.3</ele><time>2015-11-20T13:59:19.0000000+00:00</time></trkpt><trkpt lat="31.29462574" lon="35.53496182"><ele>-348.3</ele><time>2015-11-20T13:59:31.0000000+00:00</time></trkpt><trkpt lat="31.29377523" lon="35.53490189"><ele>-348.8</ele><time>2015-11-20T13:59:47.0000000+00:00</time></trkpt><trkpt lat="31.29292916" lon="35.53477373"><ele>-350.7</ele><time>2015-11-20T14:00:04.0000000+00:00</time></trkpt><trkpt lat="31.29197362" lon="35.53459704"><ele>-352.7</ele><time>2015-11-20T14:00:21.0000000+00:00</time></trkpt><trkpt lat="31.2909527" lon="35.53433393"><ele>-355.6</ele><time>2015-11-20T14:00:38.0000000+00:00</time></trkpt><trkpt lat="31.28991988" lon="35.53397083"><ele>-358.4</ele><time>2015-11-20T14:00:54.0000000+00:00</time></trkpt><trkpt lat="31.28894063" lon="35.53357755"><ele>-358.9</ele><time>2015-11-20T14:01:11.0000000+00:00</time></trkpt><trkpt lat="31.28803312" lon="35.53319902"><ele>-358.4</ele><time>2015-11-20T14:01:29.0000000+00:00</time></trkpt><trkpt lat="31.28712326" lon="35.53281245"><ele>-358.9</ele><time>2015-11-20T14:01:47.0000000+00:00</time></trkpt><trkpt lat="31.28643444" lon="35.53254289"><ele>-358.4</ele><time>2015-11-20T14:02:01.0000000+00:00</time></trkpt><trkpt lat="31.28628801" lon="35.53247089"><ele>-358.4</ele><time>2015-11-20T14:02:04.0000000+00:00</time></trkpt><trkpt lat="31.28592029" lon="35.53230685"><ele>-358.4</ele><time>2015-11-20T14:02:12.0000000+00:00</time></trkpt><trkpt lat="31.28587486" lon="35.53228824"><ele>-358.9</ele><time>2015-11-20T14:02:13.0000000+00:00</time></trkpt><trkpt lat="31.2850681" lon="35.53194618"><ele>-359.9</ele><time>2015-11-20T14:02:29.0000000+00:00</time></trkpt><trkpt lat="31.28423695" lon="35.53160529"><ele>-363.2</ele><time>2015-11-20T14:02:43.0000000+00:00</time></trkpt><trkpt lat="31.28309425" lon="35.53112894"><ele>-366.1</ele><time>2015-11-20T14:03:02.0000000+00:00</time></trkpt><trkpt lat="31.28184912" lon="35.53060373"><ele>-368.1</ele><time>2015-11-20T14:03:23.0000000+00:00</time></trkpt><trkpt lat="31.28090247" lon="35.53021649"><ele>-366.1</ele><time>2015-11-20T14:03:43.0000000+00:00</time></trkpt><trkpt lat="31.28014214" lon="35.52990058"><ele>-364.7</ele><time>2015-11-20T14:04:01.0000000+00:00</time></trkpt><trkpt lat="31.27931963" lon="35.52957905"><ele>-366.1</ele><time>2015-11-20T14:04:17.0000000+00:00</time></trkpt><trkpt lat="31.27926422" lon="35.52955071"><ele>-366.1</ele><time>2015-11-20T14:04:18.0000000+00:00</time></trkpt><trkpt lat="31.27835345" lon="35.52913816"><ele>-365.2</ele><time>2015-11-20T14:04:35.0000000+00:00</time></trkpt><trkpt lat="31.27750796" lon="35.52879333"><ele>-362.3</ele><time>2015-11-20T14:04:53.0000000+00:00</time></trkpt><trkpt lat="31.27669827" lon="35.52845327"><ele>-360.4</ele><time>2015-11-20T14:05:10.0000000+00:00</time></trkpt><trkpt lat="31.27646542" lon="35.52834531"><ele>-360.4</ele><time>2015-11-20T14:05:15.0000000+00:00</time></trkpt><trkpt lat="31.27587785" lon="35.52811179"><ele>-358.9</ele><time>2015-11-20T14:05:29.0000000+00:00</time></trkpt><trkpt lat="31.27559035" lon="35.52800979"><ele>-358.4</ele><time>2015-11-20T14:05:36.0000000+00:00</time></trkpt><trkpt lat="31.2755507" lon="35.5279916"><ele>-358.4</ele><time>2015-11-20T14:05:37.0000000+00:00</time></trkpt><trkpt lat="31.27551483" lon="35.52796603"><ele>-358.4</ele><time>2015-11-20T14:05:38.0000000+00:00</time></trkpt><trkpt lat="31.27489055" lon="35.52769002"><ele>-357.0</ele><time>2015-11-20T14:05:53.0000000+00:00</time></trkpt><trkpt lat="31.27424086" lon="35.52742691"><ele>-355.6</ele><time>2015-11-20T14:06:09.0000000+00:00</time></trkpt><trkpt lat="31.27376595" lon="35.52722876"><ele>-353.2</ele><time>2015-11-20T14:06:24.0000000+00:00</time></trkpt><trkpt lat="31.27334886" lon="35.5270747"><ele>-350.7</ele><time>2015-11-20T14:06:40.0000000+00:00</time></trkpt><trkpt lat="31.27299045" lon="35.52691"><ele>-348.8</ele><time>2015-11-20T14:06:53.0000000+00:00</time></trkpt><trkpt lat="31.27248645" lon="35.52669114"><ele>-345.9</ele><time>2015-11-20T14:07:10.0000000+00:00</time></trkpt><trkpt lat="31.27201287" lon="35.52649333"><ele>-343.1</ele><time>2015-11-20T14:07:26.0000000+00:00</time></trkpt><trkpt lat="31.27169495" lon="35.52637992"><ele>-341.6</ele><time>2015-11-20T14:07:38.0000000+00:00</time></trkpt><trkpt lat="31.27168681" lon="35.52637615"><ele>-341.1</ele><time>2015-11-20T14:07:53.0000000+00:00</time></trkpt><trkpt lat="31.27168832" lon="35.52636299"><ele>-341.6</ele><time>2015-11-20T14:08:13.0000000+00:00</time></trkpt><trkpt lat="31.27174105" lon="35.5263899"><ele>-341.6</ele><time>2015-11-20T14:08:36.0000000+00:00</time></trkpt><trkpt lat="31.27175664" lon="35.52639199"><ele>-341.6</ele><time>2015-11-20T14:08:48.0000000+00:00</time></trkpt><trkpt lat="31.27176477" lon="35.52638328"><ele>-341.6</ele><time>2015-11-20T14:08:49.0000000+00:00</time></trkpt><trkpt lat="31.27178933" lon="35.52630139"><ele>-342.1</ele><time>2015-11-20T14:08:55.0000000+00:00</time></trkpt><trkpt lat="31.27180886" lon="35.52615831"><ele>-342.1</ele><time>2015-11-20T14:09:15.0000000+00:00</time></trkpt><trkpt lat="31.2718216" lon="35.52613936"><ele>-342.6</ele><time>2015-11-20T14:09:35.0000000+00:00</time></trkpt><trkpt lat="31.27183434" lon="35.52612704"><ele>-342.1</ele><time>2015-11-20T14:10:25.0000000+00:00</time></trkpt><trkpt lat="31.27180198" lon="35.52615101"><ele>-342.1</ele><time>2015-11-20T14:11:18.0000000+00:00</time></trkpt><trkpt lat="31.27180316" lon="35.52617046"><ele>-342.1</ele><time>2015-11-20T14:12:10.0000000+00:00</time></trkpt><trkpt lat="31.27183207" lon="35.52616401"><ele>-342.1</ele><time>2015-11-20T14:12:57.0000000+00:00</time></trkpt><trkpt lat="31.27182201" lon="35.52615747"><ele>-342.1</ele><time>2015-11-20T14:13:58.0000000+00:00</time></trkpt><trkpt lat="31.27181531" lon="35.52614272"><ele>-342.1</ele><time>2015-11-20T14:14:38.0000000+00:00</time></trkpt><trkpt lat="31.27181732" lon="35.52616753"><ele>-342.1</ele><time>2015-11-20T14:15:16.0000000+00:00</time></trkpt><trkpt lat="31.27180374" lon="35.52615839"><ele>-342.1</ele><time>2015-11-20T14:16:00.0000000+00:00</time></trkpt><trkpt lat="31.27179159" lon="35.52615571"><ele>-342.1</ele><time>2015-11-20T14:16:40.0000000+00:00</time></trkpt><trkpt lat="31.27180131" lon="35.52616275"><ele>-342.1</ele><time>2015-11-20T14:17:15.0000000+00:00</time></trkpt><trkpt lat="31.27179595" lon="35.5261563"><ele>-342.1</ele><time>2015-11-20T14:18:06.0000000+00:00</time></trkpt><trkpt lat="31.27181347" lon="35.52615286"><ele>-342.1</ele><time>2015-11-20T14:18:44.0000000+00:00</time></trkpt><trkpt lat="31.27180651" lon="35.52615085"><ele>-342.1</ele><time>2015-11-20T14:19:27.0000000+00:00</time></trkpt><trkpt lat="31.271819" lon="35.52613249"><ele>-342.1</ele><time>2015-11-20T14:20:11.0000000+00:00</time></trkpt><trkpt lat="31.27178857" lon="35.52617767"><ele>-342.1</ele><time>2015-11-20T14:21:03.0000000+00:00</time></trkpt><trkpt lat="31.27177994" lon="35.52618203"><ele>-342.1</ele><time>2015-11-20T14:21:58.0000000+00:00</time></trkpt><trkpt lat="31.27181254" lon="35.52617549"><ele>-342.1</ele><time>2015-11-20T14:22:50.0000000+00:00</time></trkpt><trkpt lat="31.27183425" lon="35.5261449"><ele>-341.6</ele><time>2015-11-20T14:23:46.0000000+00:00</time></trkpt><trkpt lat="31.27183551" lon="35.52616837"><ele>-341.6</ele><time>2015-11-20T14:24:40.0000000+00:00</time></trkpt><trkpt lat="31.27181707" lon="35.52616241"><ele>-341.6</ele><time>2015-11-20T14:25:25.0000000+00:00</time></trkpt><trkpt lat="31.27180718" lon="35.52617901"><ele>-341.6</ele><time>2015-11-20T14:26:16.0000000+00:00</time></trkpt><trkpt lat="31.27182352" lon="35.52614481"><ele>-341.6</ele><time>2015-11-20T14:27:15.0000000+00:00</time></trkpt><trkpt lat="31.27184071" lon="35.52614171"><ele>-341.6</ele><time>2015-11-20T14:28:01.0000000+00:00</time></trkpt><trkpt lat="31.27184825" lon="35.52616216"><ele>-341.6</ele><time>2015-11-20T14:28:46.0000000+00:00</time></trkpt><trkpt lat="31.27182512" lon="35.52616199"><ele>-340.2</ele><time>2015-11-20T14:29:26.0000000+00:00</time></trkpt><trkpt lat="31.27182185" lon="35.52615135"><ele>-341.6</ele><time>2015-11-20T14:29:42.0000000+00:00</time></trkpt><trkpt lat="31.27183308" lon="35.52611489"><ele>-341.6</ele><time>2015-11-20T14:29:50.0000000+00:00</time></trkpt><trkpt lat="31.27180098" lon="35.52609988"><ele>-341.6</ele><time>2015-11-20T14:30:04.0000000+00:00</time></trkpt><trkpt lat="31.27182738" lon="35.5260651"><ele>-342.1</ele><time>2015-11-20T14:30:12.0000000+00:00</time></trkpt><trkpt lat="31.27191388" lon="35.52604565"><ele>-342.1</ele><time>2015-11-20T14:30:30.0000000+00:00</time></trkpt></trkseg><trkseg><trkpt lat="31.25516617" lon="35.52080764"><ele>-314.2</ele><time>2015-11-21T07:18:38.0000000+00:00</time></trkpt><trkpt lat="31.25516558" lon="35.5208078"><ele>-314.2</ele><time>2015-11-21T07:18:45.0000000+00:00</time></trkpt><trkpt lat="31.2551608" lon="35.52080411"><ele>-314.2</ele><time>2015-11-21T07:18:58.0000000+00:00</time></trkpt><trkpt lat="31.25515561" lon="35.52080856"><ele>-314.2</ele><time>2015-11-21T07:19:21.0000000+00:00</time></trkpt><trkpt lat="31.2551256" lon="35.52085038"><ele>-313.7</ele><time>2015-11-21T07:19:36.0000000+00:00</time></trkpt><trkpt lat="31.25503281" lon="35.52089489"><ele>-313.3</ele><time>2015-11-21T07:19:50.0000000+00:00</time></trkpt><trkpt lat="31.25493432" lon="35.52090009"><ele>-313.3</ele><time>2015-11-21T07:20:08.0000000+00:00</time></trkpt><trkpt lat="31.2549075" lon="35.52089565"><ele>-313.3</ele><time>2015-11-21T07:20:29.0000000+00:00</time></trkpt><trkpt lat="31.25490633" lon="35.52089154"><ele>-313.3</ele><time>2015-11-21T07:20:30.0000000+00:00</time></trkpt><trkpt lat="31.25489468" lon="35.52050848"><ele>-314.2</ele><time>2015-11-21T07:20:44.0000000+00:00</time></trkpt><trkpt lat="31.25488286" lon="35.52027631"><ele>-314.7</ele><time>2015-11-21T07:20:53.0000000+00:00</time></trkpt><trkpt lat="31.25487481" lon="35.51989694"><ele>-315.7</ele><time>2015-11-21T07:21:05.0000000+00:00</time></trkpt><trkpt lat="31.2548759" lon="35.51989057"><ele>-316.1</ele><time>2015-11-21T07:21:07.0000000+00:00</time></trkpt><trkpt lat="31.25482511" lon="35.51964222"><ele>-316.1</ele><time>2015-11-21T07:21:17.0000000+00:00</time></trkpt><trkpt lat="31.25486836" lon="35.5195651"><ele>-316.1</ele><time>2015-11-21T07:21:20.0000000+00:00</time></trkpt><trkpt lat="31.25489024" lon="35.51956049"><ele>-316.1</ele><time>2015-11-21T07:21:21.0000000+00:00</time></trkpt><trkpt lat="31.25491337" lon="35.51956309"><ele>-316.1</ele><time>2015-11-21T07:21:22.0000000+00:00</time></trkpt><trkpt lat="31.25493793" lon="35.51956938"><ele>-316.1</ele><time>2015-11-21T07:21:23.0000000+00:00</time></trkpt><trkpt lat="31.25540396" lon="35.51969611"><ele>-315.7</ele><time>2015-11-21T07:21:39.0000000+00:00</time></trkpt><trkpt lat="31.25584225" lon="35.5198184"><ele>-315.7</ele><time>2015-11-21T07:21:55.0000000+00:00</time></trkpt><trkpt lat="31.25637492" lon="35.52000691"><ele>-315.2</ele><time>2015-11-21T07:22:11.0000000+00:00</time></trkpt><trkpt lat="31.25702343" lon="35.5202442"><ele>-315.2</ele><time>2015-11-21T07:22:29.0000000+00:00</time></trkpt><trkpt lat="31.25777805" lon="35.52055953"><ele>-316.1</ele><time>2015-11-21T07:22:49.0000000+00:00</time></trkpt><trkpt lat="31.25846445" lon="35.52085835"><ele>-317.6</ele><time>2015-11-21T07:23:10.0000000+00:00</time></trkpt><trkpt lat="31.2590169" lon="35.52108675"><ele>-318.5</ele><time>2015-11-21T07:23:28.0000000+00:00</time></trkpt><trkpt lat="31.25956943" lon="35.5213429"><ele>-319.0</ele><time>2015-11-21T07:23:45.0000000+00:00</time></trkpt><trkpt lat="31.25993614" lon="35.5214999"><ele>-319.5</ele><time>2015-11-21T07:24:00.0000000+00:00</time></trkpt><trkpt lat="31.26032322" lon="35.5216537"><ele>-320.0</ele><time>2015-11-21T07:24:14.0000000+00:00</time></trkpt><trkpt lat="31.26086595" lon="35.521891"><ele>-321.9</ele><time>2015-11-21T07:24:32.0000000+00:00</time></trkpt><trkpt lat="31.26138629" lon="35.52213935"><ele>-322.4</ele><time>2015-11-21T07:24:50.0000000+00:00</time></trkpt><trkpt lat="31.26149157" lon="35.52214807"><ele>-322.9</ele><time>2015-11-21T07:25:01.0000000+00:00</time></trkpt><trkpt lat="31.26150389" lon="35.5221396"><ele>-322.9</ele><time>2015-11-21T07:25:05.0000000+00:00</time></trkpt><trkpt lat="31.26155972" lon="35.52195252"><ele>-321.4</ele><time>2015-11-21T07:25:16.0000000+00:00</time></trkpt><trkpt lat="31.26157011" lon="35.52193542"><ele>-321.4</ele><time>2015-11-21T07:25:31.0000000+00:00</time></trkpt><trkpt lat="31.26155427" lon="35.52200189"><ele>-321.4</ele><time>2015-11-21T07:25:56.0000000+00:00</time></trkpt><trkpt lat="31.26154941" lon="35.52208613"><ele>-321.4</ele><time>2015-11-21T07:26:28.0000000+00:00</time></trkpt><trkpt lat="31.2615562" lon="35.5220723"><ele>-320.9</ele><time>2015-11-21T07:26:50.0000000+00:00</time></trkpt><trkpt lat="31.26156567" lon="35.52203575"><ele>-320.9</ele><time>2015-11-21T07:27:23.0000000+00:00</time></trkpt><trkpt lat="31.26158377" lon="35.52211236"><ele>-320.9</ele><time>2015-11-21T07:28:03.0000000+00:00</time></trkpt><trkpt lat="31.26159458" lon="35.52203944"><ele>-320.9</ele><time>2015-11-21T07:28:35.0000000+00:00</time></trkpt><trkpt lat="31.26158746" lon="35.52207951"><ele>-320.5</ele><time>2015-11-21T07:29:09.0000000+00:00</time></trkpt><trkpt lat="31.26157916" lon="35.52203734"><ele>-320.5</ele><time>2015-11-21T07:29:43.0000000+00:00</time></trkpt><trkpt lat="31.26161017" lon="35.52207934"><ele>-320.5</ele><time>2015-11-21T07:30:23.0000000+00:00</time></trkpt><trkpt lat="31.26160028" lon="35.52213248"><ele>-320.5</ele><time>2015-11-21T07:30:54.0000000+00:00</time></trkpt><trkpt lat="31.26159341" lon="35.52207791"><ele>-320.0</ele><time>2015-11-21T07:31:27.0000000+00:00</time></trkpt><trkpt lat="31.26160548" lon="35.52208202"><ele>-320.0</ele><time>2015-11-21T07:32:01.0000000+00:00</time></trkpt><trkpt lat="31.26159358" lon="35.52210792"><ele>-320.0</ele><time>2015-11-21T07:32:29.0000000+00:00</time></trkpt><trkpt lat="31.26161009" lon="35.52210415"><ele>-320.0</ele><time>2015-11-21T07:33:02.0000000+00:00</time></trkpt><trkpt lat="31.26158662" lon="35.52208629"><ele>-320.0</ele><time>2015-11-21T07:33:32.0000000+00:00</time></trkpt><trkpt lat="31.26158629" lon="35.52211546"><ele>-319.5</ele><time>2015-11-21T07:34:09.0000000+00:00</time></trkpt><trkpt lat="31.26158788" lon="35.52209174"><ele>-319.5</ele><time>2015-11-21T07:34:44.0000000+00:00</time></trkpt><trkpt lat="31.26159182" lon="35.5220842"><ele>-319.5</ele><time>2015-11-21T07:35:22.0000000+00:00</time></trkpt><trkpt lat="31.26162317" lon="35.52200449"><ele>-319.0</ele><time>2015-11-21T07:35:49.0000000+00:00</time></trkpt><trkpt lat="31.26159224" lon="35.52205101"><ele>-319.0</ele><time>2015-11-21T07:36:24.0000000+00:00</time></trkpt><trkpt lat="31.26156986" lon="35.52214371"><ele>-318.5</ele><time>2015-11-21T07:37:07.0000000+00:00</time></trkpt><trkpt lat="31.26158905" lon="35.5221391"><ele>-318.1</ele><time>2015-11-21T07:37:46.0000000+00:00</time></trkpt><trkpt lat="31.2616023" lon="35.52217942"><ele>-318.5</ele><time>2015-11-21T07:38:22.0000000+00:00</time></trkpt><trkpt lat="31.26156047" lon="35.52219392"><ele>-318.1</ele><time>2015-11-21T07:39:05.0000000+00:00</time></trkpt><trkpt lat="31.2615401" lon="35.52216735"><ele>-317.6</ele><time>2015-11-21T07:39:41.0000000+00:00</time></trkpt><trkpt lat="31.26156013" lon="35.52213147"><ele>-317.6</ele><time>2015-11-21T07:40:19.0000000+00:00</time></trkpt><trkpt lat="31.26161847" lon="35.5220852"><ele>-317.1</ele><time>2015-11-21T07:40:52.0000000+00:00</time></trkpt><trkpt lat="31.26161068" lon="35.52199493"><ele>-317.1</ele><time>2015-11-21T07:41:28.0000000+00:00</time></trkpt><trkpt lat="31.26157841" lon="35.52199736"><ele>-317.1</ele><time>2015-11-21T07:42:02.0000000+00:00</time></trkpt><trkpt lat="31.26156449" lon="35.52200398"><ele>-317.1</ele><time>2015-11-21T07:42:30.0000000+00:00</time></trkpt><trkpt lat="31.26155972" lon="35.52202536"><ele>-317.1</ele><time>2015-11-21T07:42:57.0000000+00:00</time></trkpt><trkpt lat="31.26158805" lon="35.5220386"><ele>-316.6</ele><time>2015-11-21T07:43:25.0000000+00:00</time></trkpt><trkpt lat="31.26160573" lon="35.52202209"><ele>-317.1</ele><time>2015-11-21T07:43:49.0000000+00:00</time></trkpt><trkpt lat="31.26159668" lon="35.52199611"><ele>-317.1</ele><time>2015-11-21T07:44:08.0000000+00:00</time></trkpt><trkpt lat="31.26158159" lon="35.52199736"><ele>-317.1</ele><time>2015-11-21T07:44:33.0000000+00:00</time></trkpt><trkpt lat="31.26158704" lon="35.52204154"><ele>-316.6</ele><time>2015-11-21T07:45:03.0000000+00:00</time></trkpt><trkpt lat="31.26159064" lon="35.52199409"><ele>-317.1</ele><time>2015-11-21T07:45:27.0000000+00:00</time></trkpt><trkpt lat="31.26159626" lon="35.52196166"><ele>-317.1</ele><time>2015-11-21T07:45:54.0000000+00:00</time></trkpt><trkpt lat="31.26160699" lon="35.52201094"><ele>-317.1</ele><time>2015-11-21T07:46:17.0000000+00:00</time></trkpt><trkpt lat="31.26159986" lon="35.52200918"><ele>-317.6</ele><time>2015-11-21T07:46:48.0000000+00:00</time></trkpt><trkpt lat="31.26158629" lon="35.52201488"><ele>-317.6</ele><time>2015-11-21T07:47:13.0000000+00:00</time></trkpt><trkpt lat="31.2615857" lon="35.5219614"><ele>-317.6</ele><time>2015-11-21T07:47:38.0000000+00:00</time></trkpt><trkpt lat="31.26157145" lon="35.52197347"><ele>-317.6</ele><time>2015-11-21T07:48:14.0000000+00:00</time></trkpt><trkpt lat="31.26158117" lon="35.52196467"><ele>-317.6</ele><time>2015-11-21T07:48:39.0000000+00:00</time></trkpt><trkpt lat="31.26156759" lon="35.52199082"><ele>-317.6</ele><time>2015-11-21T07:48:59.0000000+00:00</time></trkpt><trkpt lat="31.26159098" lon="35.52198026"><ele>-318.1</ele><time>2015-11-21T07:49:28.0000000+00:00</time></trkpt><trkpt lat="31.26157665" lon="35.52193693"><ele>-318.5</ele><time>2015-11-21T07:49:58.0000000+00:00</time></trkpt><trkpt lat="31.26160095" lon="35.52192117"><ele>-318.1</ele><time>2015-11-21T07:50:23.0000000+00:00</time></trkpt><trkpt lat="31.26159375" lon="35.521935"><ele>-318.1</ele><time>2015-11-21T07:50:52.0000000+00:00</time></trkpt><trkpt lat="31.26157212" lon="35.52195855"><ele>-318.5</ele><time>2015-11-21T07:51:04.0000000+00:00</time></trkpt><trkpt lat="31.26154278" lon="35.52203014"><ele>-318.5</ele><time>2015-11-21T07:51:10.0000000+00:00</time></trkpt><trkpt lat="31.26145151" lon="35.52198051"><ele>-319.0</ele><time>2015-11-21T07:51:17.0000000+00:00</time></trkpt><trkpt lat="31.26143156" lon="35.52197121"><ele>-318.5</ele><time>2015-11-21T07:51:18.0000000+00:00</time></trkpt><trkpt lat="31.26141219" lon="35.52196501"><ele>-318.5</ele><time>2015-11-21T07:51:19.0000000+00:00</time></trkpt><trkpt lat="31.26139283" lon="35.52196149"><ele>-318.5</ele><time>2015-11-21T07:51:20.0000000+00:00</time></trkpt><trkpt lat="31.26137272" lon="35.5219604"><ele>-318.5</ele><time>2015-11-21T07:51:21.0000000+00:00</time></trkpt><trkpt lat="31.26106971" lon="35.52183819"><ele>-318.5</ele><time>2015-11-21T07:51:34.0000000+00:00</time></trkpt><trkpt lat="31.26067727" lon="35.52167097"><ele>-317.6</ele><time>2015-11-21T07:51:50.0000000+00:00</time></trkpt><trkpt lat="31.26029279" lon="35.52151674"><ele>-317.1</ele><time>2015-11-21T07:52:05.0000000+00:00</time></trkpt><trkpt lat="31.26023387" lon="35.52150828"><ele>-316.6</ele><time>2015-11-21T07:52:08.0000000+00:00</time></trkpt><trkpt lat="31.26021308" lon="35.52158749"><ele>-316.6</ele><time>2015-11-21T07:52:11.0000000+00:00</time></trkpt><trkpt lat="31.26022012" lon="35.52161615"><ele>-316.6</ele><time>2015-11-21T07:52:12.0000000+00:00</time></trkpt><trkpt lat="31.26023278" lon="35.52163769"><ele>-316.6</ele><time>2015-11-21T07:52:13.0000000+00:00</time></trkpt><trkpt lat="31.26024585" lon="35.52165655"><ele>-316.6</ele><time>2015-11-21T07:52:14.0000000+00:00</time></trkpt><trkpt lat="31.26025625" lon="35.52167533"><ele>-317.1</ele><time>2015-11-21T07:52:15.0000000+00:00</time></trkpt><trkpt lat="31.26027502" lon="35.52174021"><ele>-316.6</ele><time>2015-11-21T07:52:26.0000000+00:00</time></trkpt><trkpt lat="31.26025541" lon="35.52172998"><ele>-316.6</ele><time>2015-11-21T07:52:50.0000000+00:00</time></trkpt><trkpt lat="31.26025189" lon="35.52178094"><ele>-317.1</ele><time>2015-11-21T07:53:27.0000000+00:00</time></trkpt><trkpt lat="31.26024761" lon="35.52178622"><ele>-317.1</ele><time>2015-11-21T07:54:05.0000000+00:00</time></trkpt><trkpt lat="31.26024719" lon="35.5218086"><ele>-317.1</ele><time>2015-11-21T07:54:47.0000000+00:00</time></trkpt><trkpt lat="31.26021727" lon="35.52182788"><ele>-316.6</ele><time>2015-11-21T07:55:32.0000000+00:00</time></trkpt><trkpt lat="31.26022205" lon="35.52182704"><ele>-317.1</ele><time>2015-11-21T07:56:09.0000000+00:00</time></trkpt><trkpt lat="31.26022205" lon="35.52182243"><ele>-317.6</ele><time>2015-11-21T07:56:51.0000000+00:00</time></trkpt><trkpt lat="31.26024351" lon="35.52181497"><ele>-317.6</ele><time>2015-11-21T07:57:23.0000000+00:00</time></trkpt><trkpt lat="31.26024334" lon="35.52180307"><ele>-317.6</ele><time>2015-11-21T07:57:59.0000000+00:00</time></trkpt><trkpt lat="31.26025616" lon="35.52180081"><ele>-318.1</ele><time>2015-11-21T07:58:38.0000000+00:00</time></trkpt><trkpt lat="31.26024904" lon="35.5218164"><ele>-317.6</ele><time>2015-11-21T07:59:03.0000000+00:00</time></trkpt><trkpt lat="31.26025775" lon="35.52182034"><ele>-318.1</ele><time>2015-11-21T07:59:39.0000000+00:00</time></trkpt><trkpt lat="31.26025247" lon="35.52181631"><ele>-318.1</ele><time>2015-11-21T08:00:09.0000000+00:00</time></trkpt><trkpt lat="31.26026052" lon="35.52178756"><ele>-317.6</ele><time>2015-11-21T08:00:44.0000000+00:00</time></trkpt><trkpt lat="31.26023688" lon="35.52181925"><ele>-317.6</ele><time>2015-11-21T08:01:30.0000000+00:00</time></trkpt><trkpt lat="31.26024761" lon="35.52181531"><ele>-317.6</ele><time>2015-11-21T08:02:12.0000000+00:00</time></trkpt><trkpt lat="31.26026312" lon="35.5217879"><ele>-317.1</ele><time>2015-11-21T08:02:47.0000000+00:00</time></trkpt><trkpt lat="31.26025113" lon="35.52178916"><ele>-317.1</ele><time>2015-11-21T08:03:19.0000000+00:00</time></trkpt><trkpt lat="31.26025482" lon="35.52179603"><ele>-317.1</ele><time>2015-11-21T08:03:46.0000000+00:00</time></trkpt><trkpt lat="31.26026597" lon="35.52178279"><ele>-317.1</ele><time>2015-11-21T08:04:13.0000000+00:00</time></trkpt><trkpt lat="31.2602565" lon="35.52180072"><ele>-317.6</ele><time>2015-11-21T08:04:54.0000000+00:00</time></trkpt><trkpt lat="31.26027217" lon="35.52176468"><ele>-317.6</ele><time>2015-11-21T08:05:19.0000000+00:00</time></trkpt><trkpt lat="31.26025859" lon="35.52173861"><ele>-317.6</ele><time>2015-11-21T08:05:29.0000000+00:00</time></trkpt><trkpt lat="31.26024283" lon="35.52172847"><ele>-317.6</ele><time>2015-11-21T08:05:31.0000000+00:00</time></trkpt><trkpt lat="31.26017285" lon="35.52165127"><ele>-318.1</ele><time>2015-11-21T08:05:39.0000000+00:00</time></trkpt><trkpt lat="31.2598892" lon="35.52147844"><ele>-317.1</ele><time>2015-11-21T08:05:55.0000000+00:00</time></trkpt><trkpt lat="31.25987747" lon="35.52147894"><ele>-317.1</ele><time>2015-11-21T08:05:56.0000000+00:00</time></trkpt><trkpt lat="31.25986582" lon="35.52147693"><ele>-317.1</ele><time>2015-11-21T08:05:57.0000000+00:00</time></trkpt><trkpt lat="31.25956616" lon="35.52136704"><ele>-316.6</ele><time>2015-11-21T08:06:10.0000000+00:00</time></trkpt><trkpt lat="31.25934186" lon="35.52124542"><ele>-316.1</ele><time>2015-11-21T08:06:19.0000000+00:00</time></trkpt><trkpt lat="31.25931923" lon="35.52123453"><ele>-316.1</ele><time>2015-11-21T08:06:20.0000000+00:00</time></trkpt><trkpt lat="31.25929509" lon="35.52122497"><ele>-316.6</ele><time>2015-11-21T08:06:21.0000000+00:00</time></trkpt><trkpt lat="31.25927229" lon="35.52121206"><ele>-316.1</ele><time>2015-11-21T08:06:22.0000000+00:00</time></trkpt><trkpt lat="31.25924991" lon="35.52119882"><ele>-316.6</ele><time>2015-11-21T08:06:23.0000000+00:00</time></trkpt><trkpt lat="31.25911941" lon="35.52111441"><ele>-316.1</ele><time>2015-11-21T08:06:29.0000000+00:00</time></trkpt><trkpt lat="31.2591117" lon="35.52108457"><ele>-315.7</ele><time>2015-11-21T08:06:30.0000000+00:00</time></trkpt><trkpt lat="31.25910231" lon="35.52105591"><ele>-316.1</ele><time>2015-11-21T08:06:31.0000000+00:00</time></trkpt><trkpt lat="31.25908664" lon="35.52102908"><ele>-315.7</ele><time>2015-11-21T08:06:32.0000000+00:00</time></trkpt><trkpt lat="31.25906291" lon="35.52100687"><ele>-316.1</ele><time>2015-11-21T08:06:33.0000000+00:00</time></trkpt><trkpt lat="31.25903592" lon="35.52098768"><ele>-315.7</ele><time>2015-11-21T08:06:34.0000000+00:00</time></trkpt><trkpt lat="31.25900608" lon="35.5209715"><ele>-315.7</ele><time>2015-11-21T08:06:35.0000000+00:00</time></trkpt><trkpt lat="31.25854877" lon="35.52076933"><ele>-314.7</ele><time>2015-11-21T08:06:51.0000000+00:00</time></trkpt><trkpt lat="31.25805222" lon="35.52055241"><ele>-314.2</ele><time>2015-11-21T08:07:06.0000000+00:00</time></trkpt><trkpt lat="31.2572406" lon="35.52020305"><ele>-312.8</ele><time>2015-11-21T08:07:27.0000000+00:00</time></trkpt><trkpt lat="31.25650099" lon="35.51991169"><ele>-312.8</ele><time>2015-11-21T08:07:46.0000000+00:00</time></trkpt><trkpt lat="31.25570177" lon="35.51965102"><ele>-312.8</ele><time>2015-11-21T08:08:05.0000000+00:00</time></trkpt><trkpt lat="31.25526533" lon="35.51952596"><ele>-313.3</ele><time>2015-11-21T08:08:15.0000000+00:00</time></trkpt><trkpt lat="31.25443602" lon="35.51931666"><ele>-314.2</ele><time>2015-11-21T08:08:32.0000000+00:00</time></trkpt><trkpt lat="31.25358869" lon="35.51912623"><ele>-314.2</ele><time>2015-11-21T08:08:49.0000000+00:00</time></trkpt><trkpt lat="31.25249662" lon="35.51888491"><ele>-314.7</ele><time>2015-11-21T08:09:10.0000000+00:00</time></trkpt><trkpt lat="31.25142298" lon="35.51864871"><ele>-314.7</ele><time>2015-11-21T08:09:30.0000000+00:00</time></trkpt><trkpt lat="31.25092543" lon="35.51861719"><ele>-313.3</ele><time>2015-11-21T08:09:42.0000000+00:00</time></trkpt><trkpt lat="31.25090229" lon="35.51864804"><ele>-313.3</ele><time>2015-11-21T08:09:43.0000000+00:00</time></trkpt><trkpt lat="31.25087514" lon="35.51867796"><ele>-313.3</ele><time>2015-11-21T08:09:44.0000000+00:00</time></trkpt><trkpt lat="31.25084446" lon="35.51870386"><ele>-313.3</ele><time>2015-11-21T08:09:45.0000000+00:00</time></trkpt><trkpt lat="31.25081806" lon="35.51873186"><ele>-313.7</ele><time>2015-11-21T08:09:46.0000000+00:00</time></trkpt><trkpt lat="31.25080246" lon="35.51876756"><ele>-313.3</ele><time>2015-11-21T08:09:47.0000000+00:00</time></trkpt><trkpt lat="31.25079601" lon="35.5188062"><ele>-313.3</ele><time>2015-11-21T08:09:48.0000000+00:00</time></trkpt><trkpt lat="31.25079224" lon="35.51884577"><ele>-313.3</ele><time>2015-11-21T08:09:49.0000000+00:00</time></trkpt><trkpt lat="31.25082174" lon="35.5194092"><ele>-312.3</ele><time>2015-11-21T08:10:02.0000000+00:00</time></trkpt><trkpt lat="31.25086801" lon="35.52005268"><ele>-310.9</ele><time>2015-11-21T08:10:18.0000000+00:00</time></trkpt><trkpt lat="31.2509095" lon="35.52076044"><ele>-308.9</ele><time>2015-11-21T08:10:36.0000000+00:00</time></trkpt><trkpt lat="31.25093113" lon="35.52130426"><ele>-306.5</ele><time>2015-11-21T08:10:51.0000000+00:00</time></trkpt><trkpt lat="31.25097547" lon="35.52191606"><ele>-304.6</ele><time>2015-11-21T08:11:09.0000000+00:00</time></trkpt><trkpt lat="31.25100003" lon="35.52250564"><ele>-302.7</ele><time>2015-11-21T08:11:26.0000000+00:00</time></trkpt><trkpt lat="31.25100933" lon="35.52298827"><ele>-300.8</ele><time>2015-11-21T08:11:41.0000000+00:00</time></trkpt><trkpt lat="31.25097128" lon="35.52349043"><ele>-299.3</ele><time>2015-11-21T08:11:57.0000000+00:00</time></trkpt><trkpt lat="31.25088804" lon="35.52399511"><ele>-296.9</ele><time>2015-11-21T08:12:12.0000000+00:00</time></trkpt><trkpt lat="31.25078252" lon="35.52445561"><ele>-295.0</ele><time>2015-11-21T08:12:27.0000000+00:00</time></trkpt><trkpt lat="31.25066282" lon="35.52498702"><ele>-292.1</ele><time>2015-11-21T08:12:44.0000000+00:00</time></trkpt><trkpt lat="31.25060591" lon="35.52535188"><ele>-290.2</ele><time>2015-11-21T08:12:57.0000000+00:00</time></trkpt><trkpt lat="31.25056417" lon="35.52571323"><ele>-288.3</ele><time>2015-11-21T08:13:11.0000000+00:00</time></trkpt><trkpt lat="31.25056115" lon="35.52612453"><ele>-285.4</ele><time>2015-11-21T08:13:27.0000000+00:00</time></trkpt><trkpt lat="31.25058001" lon="35.52656081"><ele>-282.5</ele><time>2015-11-21T08:13:44.0000000+00:00</time></trkpt><trkpt lat="31.25061924" lon="35.52697009"><ele>-279.6</ele><time>2015-11-21T08:14:01.0000000+00:00</time></trkpt><trkpt lat="31.25069266" lon="35.52737779"><ele>-277.2</ele><time>2015-11-21T08:14:18.0000000+00:00</time></trkpt><trkpt lat="31.25075159" lon="35.52774969"><ele>-274.3</ele><time>2015-11-21T08:14:33.0000000+00:00</time></trkpt><trkpt lat="31.2508168" lon="35.52811121"><ele>-271.9</ele><time>2015-11-21T08:14:48.0000000+00:00</time></trkpt><trkpt lat="31.2508888" lon="35.52852603"><ele>-268.6</ele><time>2015-11-21T08:15:05.0000000+00:00</time></trkpt><trkpt lat="31.25096055" lon="35.52892425"><ele>-266.6</ele><time>2015-11-21T08:15:21.0000000+00:00</time></trkpt><trkpt lat="31.25102517" lon="35.52930688"><ele>-264.2</ele><time>2015-11-21T08:15:37.0000000+00:00</time></trkpt><trkpt lat="31.25108846" lon="35.52967468"><ele>-261.8</ele><time>2015-11-21T08:15:52.0000000+00:00</time></trkpt><trkpt lat="31.2511799" lon="35.53016469"><ele>-258.5</ele><time>2015-11-21T08:16:12.0000000+00:00</time></trkpt><trkpt lat="31.25125408" lon="35.53056233"><ele>-255.6</ele><time>2015-11-21T08:16:28.0000000+00:00</time></trkpt><trkpt lat="31.25133111" lon="35.53097757"><ele>-253.2</ele><time>2015-11-21T08:16:45.0000000+00:00</time></trkpt><trkpt lat="31.2513959" lon="35.53141519"><ele>-250.3</ele><time>2015-11-21T08:17:02.0000000+00:00</time></trkpt><trkpt lat="31.25144351" lon="35.53176329"><ele>-247.9</ele><time>2015-11-21T08:17:16.0000000+00:00</time></trkpt><trkpt lat="31.25150294" lon="35.53215464"><ele>-245.5</ele><time>2015-11-21T08:17:33.0000000+00:00</time></trkpt><trkpt lat="31.2515555" lon="35.53251816"><ele>-243.1</ele><time>2015-11-21T08:17:48.0000000+00:00</time></trkpt><trkpt lat="31.25162037" lon="35.53294094"><ele>-241.6</ele><time>2015-11-21T08:18:04.0000000+00:00</time></trkpt><trkpt lat="31.25169799" lon="35.53343673"><ele>-239.7</ele><time>2015-11-21T08:18:23.0000000+00:00</time></trkpt><trkpt lat="31.25178616" lon="35.534001"><ele>-237.3</ele><time>2015-11-21T08:18:43.0000000+00:00</time></trkpt><trkpt lat="31.25185171" lon="35.53452663"><ele>-235.9</ele><time>2015-11-21T08:19:00.0000000+00:00</time></trkpt><trkpt lat="31.2519051" lon="35.53508193"><ele>-233.0</ele><time>2015-11-21T08:19:17.0000000+00:00</time></trkpt><trkpt lat="31.25193846" lon="35.53567738"><ele>-232.5</ele><time>2015-11-21T08:19:34.0000000+00:00</time></trkpt><trkpt lat="31.25196428" lon="35.53624685"><ele>-230.6</ele><time>2015-11-21T08:19:50.0000000+00:00</time></trkpt><trkpt lat="31.25198976" lon="35.53689754"><ele>-229.1</ele><time>2015-11-21T08:20:08.0000000+00:00</time></trkpt><trkpt lat="31.25200845" lon="35.5375043"><ele>-228.2</ele><time>2015-11-21T08:20:24.0000000+00:00</time></trkpt><trkpt lat="31.25202882" lon="35.53829379"><ele>-226.7</ele><time>2015-11-21T08:20:43.0000000+00:00</time></trkpt><trkpt lat="31.25205648" lon="35.53887349"><ele>-225.8</ele><time>2015-11-21T08:20:57.0000000+00:00</time></trkpt><trkpt lat="31.25206964" lon="35.53949098"><ele>-224.3</ele><time>2015-11-21T08:21:13.0000000+00:00</time></trkpt><trkpt lat="31.25209437" lon="35.54013052"><ele>-221.9</ele><time>2015-11-21T08:21:30.0000000+00:00</time></trkpt><trkpt lat="31.25211616" lon="35.54075095"><ele>-220.0</ele><time>2015-11-21T08:21:47.0000000+00:00</time></trkpt><trkpt lat="31.25213611" lon="35.54130072"><ele>-218.6</ele><time>2015-11-21T08:22:02.0000000+00:00</time></trkpt><trkpt lat="31.25215346" lon="35.54191461"><ele>-216.2</ele><time>2015-11-21T08:22:19.0000000+00:00</time></trkpt><trkpt lat="31.25216897" lon="35.54248609"><ele>-214.2</ele><time>2015-11-21T08:22:36.0000000+00:00</time></trkpt><trkpt lat="31.25217584" lon="35.54291558"><ele>-213.3</ele><time>2015-11-21T08:22:50.0000000+00:00</time></trkpt><trkpt lat="31.25219981" lon="35.5433718"><ele>-211.4</ele><time>2015-11-21T08:23:04.0000000+00:00</time></trkpt><trkpt lat="31.25220417" lon="35.54388243"><ele>-209.4</ele><time>2015-11-21T08:23:19.0000000+00:00</time></trkpt><trkpt lat="31.25214432" lon="35.54464568"><ele>-208.0</ele><time>2015-11-21T08:23:40.0000000+00:00</time></trkpt><trkpt lat="31.25205489" lon="35.54505891"><ele>-207.0</ele><time>2015-11-21T08:23:53.0000000+00:00</time></trkpt><trkpt lat="31.25204324" lon="35.54513343"><ele>-207.0</ele><time>2015-11-21T08:24:05.0000000+00:00</time></trkpt><trkpt lat="31.25204818" lon="35.54514801"><ele>-207.0</ele><time>2015-11-21T08:24:31.0000000+00:00</time></trkpt><trkpt lat="31.25204885" lon="35.54515505"><ele>-207.0</ele><time>2015-11-21T08:24:58.0000000+00:00</time></trkpt><trkpt lat="31.25203175" lon="35.54516561"><ele>-207.0</ele><time>2015-11-21T08:25:33.0000000+00:00</time></trkpt><trkpt lat="31.25204282" lon="35.5451517"><ele>-207.5</ele><time>2015-11-21T08:26:07.0000000+00:00</time></trkpt><trkpt lat="31.25204978" lon="35.54514692"><ele>-209.0</ele><time>2015-11-21T08:26:23.0000000+00:00</time></trkpt><trkpt lat="31.25205011" lon="35.54514483"><ele>-204.1</ele><time>2015-11-21T08:26:26.0000000+00:00</time></trkpt><trkpt lat="31.25205045" lon="35.54514172"><ele>-208.0</ele><time>2015-11-21T08:26:28.0000000+00:00</time></trkpt><trkpt lat="31.25203477" lon="35.5451543"><ele>-207.0</ele><time>2015-11-21T08:26:57.0000000+00:00</time></trkpt><trkpt lat="31.25202865" lon="35.54517173"><ele>-207.0</ele><time>2015-11-21T08:27:00.0000000+00:00</time></trkpt><trkpt lat="31.25202564" lon="35.54518648"><ele>-207.5</ele><time>2015-11-21T08:27:01.0000000+00:00</time></trkpt><trkpt lat="31.25202195" lon="35.54520635"><ele>-207.0</ele><time>2015-11-21T08:27:02.0000000+00:00</time></trkpt><trkpt lat="31.25201533" lon="35.54522739"><ele>-207.0</ele><time>2015-11-21T08:27:03.0000000+00:00</time></trkpt><trkpt lat="31.25200585" lon="35.54525195"><ele>-207.0</ele><time>2015-11-21T08:27:04.0000000+00:00</time></trkpt><trkpt lat="31.25199705" lon="35.54527776"><ele>-207.0</ele><time>2015-11-21T08:27:05.0000000+00:00</time></trkpt><trkpt lat="31.2519885" lon="35.54530492"><ele>-207.0</ele><time>2015-11-21T08:27:06.0000000+00:00</time></trkpt><trkpt lat="31.25198004" lon="35.54533334"><ele>-207.0</ele><time>2015-11-21T08:27:07.0000000+00:00</time></trkpt><trkpt lat="31.25196839" lon="35.54536183"><ele>-206.6</ele><time>2015-11-21T08:27:08.0000000+00:00</time></trkpt><trkpt lat="31.25178365" lon="35.54582896"><ele>-205.6</ele><time>2015-11-21T08:27:23.0000000+00:00</time></trkpt><trkpt lat="31.25153337" lon="35.54638007"><ele>-204.1</ele><time>2015-11-21T08:27:39.0000000+00:00</time></trkpt><trkpt lat="31.25125769" lon="35.54698491"><ele>-200.8</ele><time>2015-11-21T08:27:57.0000000+00:00</time></trkpt><trkpt lat="31.2510421" lon="35.54746326"><ele>-198.9</ele><time>2015-11-21T08:28:11.0000000+00:00</time></trkpt><trkpt lat="31.25074698" lon="35.54808972"><ele>-196.0</ele><time>2015-11-21T08:28:30.0000000+00:00</time></trkpt><trkpt lat="31.25052016" lon="35.54860923"><ele>-193.6</ele><time>2015-11-21T08:28:46.0000000+00:00</time></trkpt><trkpt lat="31.25030274" lon="35.54908692"><ele>-191.7</ele><time>2015-11-21T08:29:01.0000000+00:00</time></trkpt><trkpt lat="31.25003804" lon="35.5496941"><ele>-188.3</ele><time>2015-11-21T08:29:20.0000000+00:00</time></trkpt><trkpt lat="31.24974953" lon="35.55030464"><ele>-185.4</ele><time>2015-11-21T08:29:39.0000000+00:00</time></trkpt><trkpt lat="31.24946237" lon="35.55093815"><ele>-182.5</ele><time>2015-11-21T08:29:59.0000000+00:00</time></trkpt><trkpt lat="31.2492208" lon="35.55144684"><ele>-180.1</ele><time>2015-11-21T08:30:16.0000000+00:00</time></trkpt><trkpt lat="31.24898116" lon="35.55198614"><ele>-177.2</ele><time>2015-11-21T08:30:34.0000000+00:00</time></trkpt><trkpt lat="31.24874244" lon="35.55252526"><ele>-174.3</ele><time>2015-11-21T08:30:52.0000000+00:00</time></trkpt><trkpt lat="31.24851353" lon="35.55303345"><ele>-171.9</ele><time>2015-11-21T08:31:09.0000000+00:00</time></trkpt><trkpt lat="31.24829393" lon="35.55352882"><ele>-169.5</ele><time>2015-11-21T08:31:26.0000000+00:00</time></trkpt><trkpt lat="31.24802839" lon="35.55410558"><ele>-166.2</ele><time>2015-11-21T08:31:45.0000000+00:00</time></trkpt><trkpt lat="31.24782857" lon="35.55457053"><ele>-164.7</ele><time>2015-11-21T08:32:00.0000000+00:00</time></trkpt><trkpt lat="31.24761525" lon="35.55503321"><ele>-163.3</ele><time>2015-11-21T08:32:15.0000000+00:00</time></trkpt><trkpt lat="31.24737921" lon="35.55554853"><ele>-160.4</ele><time>2015-11-21T08:32:32.0000000+00:00</time></trkpt><trkpt lat="31.24714586" lon="35.55608011"><ele>-157.5</ele><time>2015-11-21T08:32:49.0000000+00:00</time></trkpt><trkpt lat="31.24690622" lon="35.55659819"><ele>-154.6</ele><time>2015-11-21T08:33:05.0000000+00:00</time></trkpt><trkpt lat="31.24669558" lon="35.55708719"><ele>-151.8</ele><time>2015-11-21T08:33:22.0000000+00:00</time></trkpt><trkpt lat="31.24651588" lon="35.55747293"><ele>-148.9</ele><time>2015-11-21T08:33:36.0000000+00:00</time></trkpt><trkpt lat="31.24633089" lon="35.55789295"><ele>-146.5</ele><time>2015-11-21T08:33:52.0000000+00:00</time></trkpt><trkpt lat="31.24614464" lon="35.55829234"><ele>-143.6</ele><time>2015-11-21T08:34:09.0000000+00:00</time></trkpt><trkpt lat="31.24594431" lon="35.55874287"><ele>-141.2</ele><time>2015-11-21T08:34:27.0000000+00:00</time></trkpt><trkpt lat="31.24571767" lon="35.55923975"><ele>-138.3</ele><time>2015-11-21T08:34:47.0000000+00:00</time></trkpt><trkpt lat="31.24552036" lon="35.55967712"><ele>-135.9</ele><time>2015-11-21T08:35:05.0000000+00:00</time></trkpt><trkpt lat="31.24536035" lon="35.560045"><ele>-133.5</ele><time>2015-11-21T08:35:20.0000000+00:00</time></trkpt><trkpt lat="31.24520377" lon="35.56040064"><ele>-131.6</ele><time>2015-11-21T08:35:35.0000000+00:00</time></trkpt><trkpt lat="31.24504594" lon="35.56074087"><ele>-129.6</ele><time>2015-11-21T08:35:50.0000000+00:00</time></trkpt><trkpt lat="31.24488199" lon="35.5611183"><ele>-127.2</ele><time>2015-11-21T08:36:06.0000000+00:00</time></trkpt><trkpt lat="31.24467446" lon="35.56157134"><ele>-124.8</ele><time>2015-11-21T08:36:25.0000000+00:00</time></trkpt><trkpt lat="31.24446935" lon="35.56203838"><ele>-122.0</ele><time>2015-11-21T08:36:44.0000000+00:00</time></trkpt><trkpt lat="31.24429819" lon="35.56243158"><ele>-120.0</ele><time>2015-11-21T08:37:00.0000000+00:00</time></trkpt><trkpt lat="31.24409258" lon="35.56286149"><ele>-117.6</ele><time>2015-11-21T08:37:18.0000000+00:00</time></trkpt><trkpt lat="31.24388035" lon="35.5633416"><ele>-114.3</ele><time>2015-11-21T08:37:38.0000000+00:00</time></trkpt><trkpt lat="31.24368447" lon="35.5637778"><ele>-111.4</ele><time>2015-11-21T08:37:56.0000000+00:00</time></trkpt><trkpt lat="31.24344709" lon="35.56430259"><ele>-108.0</ele><time>2015-11-21T08:38:17.0000000+00:00</time></trkpt><trkpt lat="31.24327778" lon="35.56468061"><ele>-105.6</ele><time>2015-11-21T08:38:33.0000000+00:00</time></trkpt><trkpt lat="31.24310494" lon="35.56506702"><ele>-103.2</ele><time>2015-11-21T08:38:49.0000000+00:00</time></trkpt><trkpt lat="31.24295516" lon="35.56539131"><ele>-101.3</ele><time>2015-11-21T08:39:03.0000000+00:00</time></trkpt><trkpt lat="31.24277872" lon="35.56579792"><ele>-98.9</ele><time>2015-11-21T08:39:20.0000000+00:00</time></trkpt><trkpt lat="31.24259155" lon="35.56620184"><ele>-96.5</ele><time>2015-11-21T08:39:37.0000000+00:00</time></trkpt><trkpt lat="31.24236147" lon="35.56670006"><ele>-93.6</ele><time>2015-11-21T08:39:58.0000000+00:00</time></trkpt><trkpt lat="31.24218025" lon="35.56709653"><ele>-91.7</ele><time>2015-11-21T08:40:14.0000000+00:00</time></trkpt><trkpt lat="31.24199166" lon="35.56752736"><ele>-89.3</ele><time>2015-11-21T08:40:33.0000000+00:00</time></trkpt><trkpt lat="31.2418293" lon="35.56788485"><ele>-87.8</ele><time>2015-11-21T08:40:49.0000000+00:00</time></trkpt><trkpt lat="31.24167751" lon="35.56822004"><ele>-85.4</ele><time>2015-11-21T08:41:04.0000000+00:00</time></trkpt><trkpt lat="31.24152512" lon="35.56858691"><ele>-83.5</ele><time>2015-11-21T08:41:21.0000000+00:00</time></trkpt><trkpt lat="31.24137442" lon="35.56895337"><ele>-81.1</ele><time>2015-11-21T08:41:38.0000000+00:00</time></trkpt><trkpt lat="31.24125623" lon="35.56937842"><ele>-77.7</ele><time>2015-11-21T08:41:58.0000000+00:00</time></trkpt><trkpt lat="31.24120896" lon="35.56965544"><ele>-75.3</ele><time>2015-11-21T08:42:12.0000000+00:00</time></trkpt><trkpt lat="31.24116529" lon="35.57001368"><ele>-72.9</ele><time>2015-11-21T08:42:30.0000000+00:00</time></trkpt><trkpt lat="31.24115422" lon="35.57032088"><ele>-71.0</ele><time>2015-11-21T08:42:46.0000000+00:00</time></trkpt><trkpt lat="31.24116252" lon="35.57060234"><ele>-68.6</ele><time>2015-11-21T08:43:00.0000000+00:00</time></trkpt><trkpt lat="31.2412025" lon="35.57094893"><ele>-66.2</ele><time>2015-11-21T08:43:17.0000000+00:00</time></trkpt><trkpt lat="31.2412652" lon="35.57128656"><ele>-63.8</ele><time>2015-11-21T08:43:35.0000000+00:00</time></trkpt><trkpt lat="31.24135606" lon="35.57161194"><ele>-61.4</ele><time>2015-11-21T08:43:52.0000000+00:00</time></trkpt><trkpt lat="31.2414429" lon="35.57182459"><ele>-59.5</ele><time>2015-11-21T08:44:04.0000000+00:00</time></trkpt><trkpt lat="31.2414543" lon="35.57183876"><ele>-59.5</ele><time>2015-11-21T08:44:05.0000000+00:00</time></trkpt><trkpt lat="31.24146603" lon="35.57185351"><ele>-59.5</ele><time>2015-11-21T08:44:06.0000000+00:00</time></trkpt><trkpt lat="31.24147542" lon="35.57186726"><ele>-59.5</ele><time>2015-11-21T08:44:07.0000000+00:00</time></trkpt><trkpt lat="31.24147927" lon="35.57188419"><ele>-59.5</ele><time>2015-11-21T08:44:08.0000000+00:00</time></trkpt><trkpt lat="31.24148036" lon="35.57190162"><ele>-59.0</ele><time>2015-11-21T08:44:09.0000000+00:00</time></trkpt><trkpt lat="31.24148087" lon="35.57191847"><ele>-59.0</ele><time>2015-11-21T08:44:10.0000000+00:00</time></trkpt><trkpt lat="31.24148363" lon="35.57193808"><ele>-59.0</ele><time>2015-11-21T08:44:11.0000000+00:00</time></trkpt><trkpt lat="31.24148782" lon="35.57195552"><ele>-59.0</ele><time>2015-11-21T08:44:12.0000000+00:00</time></trkpt><trkpt lat="31.24149143" lon="35.57197354"><ele>-58.5</ele><time>2015-11-21T08:44:13.0000000+00:00</time></trkpt><trkpt lat="31.24149763" lon="35.57198896"><ele>-58.5</ele><time>2015-11-21T08:44:14.0000000+00:00</time></trkpt><trkpt lat="31.24163509" lon="35.57231083"><ele>-55.6</ele><time>2015-11-21T08:44:33.0000000+00:00</time></trkpt><trkpt lat="31.24169821" lon="35.57247268"><ele>-54.2</ele><time>2015-11-21T08:44:42.0000000+00:00</time></trkpt><trkpt lat="31.24170408" lon="35.57249095"><ele>-54.2</ele><time>2015-11-21T08:44:43.0000000+00:00</time></trkpt><trkpt lat="31.24171321" lon="35.57250956"><ele>-53.7</ele><time>2015-11-21T08:44:44.0000000+00:00</time></trkpt><trkpt lat="31.24172151" lon="35.5725275"><ele>-53.7</ele><time>2015-11-21T08:44:45.0000000+00:00</time></trkpt><trkpt lat="31.24172704" lon="35.57254569"><ele>-53.7</ele><time>2015-11-21T08:44:46.0000000+00:00</time></trkpt><trkpt lat="31.24173266" lon="35.5725658"><ele>-53.7</ele><time>2015-11-21T08:44:47.0000000+00:00</time></trkpt><trkpt lat="31.24174104" lon="35.57258441"><ele>-53.7</ele><time>2015-11-21T08:44:48.0000000+00:00</time></trkpt><trkpt lat="31.24174624" lon="35.57260486"><ele>-53.2</ele><time>2015-11-21T08:44:49.0000000+00:00</time></trkpt><trkpt lat="31.24175261" lon="35.57262247"><ele>-53.2</ele><time>2015-11-21T08:44:50.0000000+00:00</time></trkpt><trkpt lat="31.24188269" lon="35.57292597"><ele>-50.8</ele><time>2015-11-21T08:45:07.0000000+00:00</time></trkpt><trkpt lat="31.24197934" lon="35.57315153"><ele>-48.9</ele><time>2015-11-21T08:45:20.0000000+00:00</time></trkpt><trkpt lat="31.24209677" lon="35.57345688"><ele>-46.0</ele><time>2015-11-21T08:45:36.0000000+00:00</time></trkpt><trkpt lat="31.24220934" lon="35.57374111"><ele>-44.1</ele><time>2015-11-21T08:45:52.0000000+00:00</time></trkpt><trkpt lat="31.24232082" lon="35.57400749"><ele>-42.2</ele><time>2015-11-21T08:46:08.0000000+00:00</time></trkpt><trkpt lat="31.24241495" lon="35.57424738"><ele>-40.2</ele><time>2015-11-21T08:46:21.0000000+00:00</time></trkpt><trkpt lat="31.24251838" lon="35.57450362"><ele>-37.8</ele><time>2015-11-21T08:46:35.0000000+00:00</time></trkpt><trkpt lat="31.24263262" lon="35.57479296"><ele>-35.9</ele><time>2015-11-21T08:46:52.0000000+00:00</time></trkpt><trkpt lat="31.24273622" lon="35.57506219"><ele>-34.0</ele><time>2015-11-21T08:47:07.0000000+00:00</time></trkpt><trkpt lat="31.24278442" lon="35.57517333"><ele>-33.5</ele><time>2015-11-21T08:47:15.0000000+00:00</time></trkpt><trkpt lat="31.24288852" lon="35.57545898"><ele>-32.1</ele><time>2015-11-21T08:47:31.0000000+00:00</time></trkpt><trkpt lat="31.24297192" lon="35.57570592"><ele>-30.6</ele><time>2015-11-21T08:47:46.0000000+00:00</time></trkpt><trkpt lat="31.24295985" lon="35.57569359"><ele>-30.6</ele><time>2015-11-21T08:47:56.0000000+00:00</time></trkpt><trkpt lat="31.24295617" lon="35.57570013"><ele>-30.6</ele><time>2015-11-21T08:48:13.0000000+00:00</time></trkpt><trkpt lat="31.24295365" lon="35.5757148"><ele>-30.1</ele><time>2015-11-21T08:48:51.0000000+00:00</time></trkpt><trkpt lat="31.24295516" lon="35.57570022"><ele>-30.1</ele><time>2015-11-21T08:49:38.0000000+00:00</time></trkpt><trkpt lat="31.242957" lon="35.57570566"><ele>-29.7</ele><time>2015-11-21T08:50:20.0000000+00:00</time></trkpt><trkpt lat="31.24296589" lon="35.57570064"><ele>-29.2</ele><time>2015-11-21T08:51:02.0000000+00:00</time></trkpt><trkpt lat="31.24296488" lon="35.57570432"><ele>-29.7</ele><time>2015-11-21T08:51:47.0000000+00:00</time></trkpt><trkpt lat="31.24296103" lon="35.57569904"><ele>-29.2</ele><time>2015-11-21T08:52:30.0000000+00:00</time></trkpt><trkpt lat="31.24296471" lon="35.57571203"><ele>-29.2</ele><time>2015-11-21T08:53:18.0000000+00:00</time></trkpt><trkpt lat="31.24295642" lon="35.57570248"><ele>-28.7</ele><time>2015-11-21T08:54:10.0000000+00:00</time></trkpt><trkpt lat="31.24295063" lon="35.57570826"><ele>-28.7</ele><time>2015-11-21T08:54:54.0000000+00:00</time></trkpt><trkpt lat="31.24295734" lon="35.57571639"><ele>-28.7</ele><time>2015-11-21T08:55:32.0000000+00:00</time></trkpt><trkpt lat="31.24295441" lon="35.57570516"><ele>-28.2</ele><time>2015-11-21T08:56:10.0000000+00:00</time></trkpt><trkpt lat="31.24295457" lon="35.57571086"><ele>-27.7</ele><time>2015-11-21T08:56:57.0000000+00:00</time></trkpt><trkpt lat="31.24295407" lon="35.57571765"><ele>-27.7</ele><time>2015-11-21T08:57:36.0000000+00:00</time></trkpt><trkpt lat="31.24295323" lon="35.57571312"><ele>-27.3</ele><time>2015-11-21T08:58:24.0000000+00:00</time></trkpt><trkpt lat="31.24296304" lon="35.57572276"><ele>-27.3</ele><time>2015-11-21T08:59:06.0000000+00:00</time></trkpt><trkpt lat="31.24296371" lon="35.57572695"><ele>-26.8</ele><time>2015-11-21T08:59:50.0000000+00:00</time></trkpt><trkpt lat="31.24296547" lon="35.57571623"><ele>-26.8</ele><time>2015-11-21T09:00:27.0000000+00:00</time></trkpt><trkpt lat="31.2429658" lon="35.57571631"><ele>-26.8</ele><time>2015-11-21T09:01:11.0000000+00:00</time></trkpt><trkpt lat="31.24296329" lon="35.57571555"><ele>-26.8</ele><time>2015-11-21T09:01:49.0000000+00:00</time></trkpt><trkpt lat="31.24296145" lon="35.57570902"><ele>-26.3</ele><time>2015-11-21T09:02:28.0000000+00:00</time></trkpt><trkpt lat="31.24296673" lon="35.57571488"><ele>-26.3</ele><time>2015-11-21T09:03:09.0000000+00:00</time></trkpt><trkpt lat="31.24295943" lon="35.575721"><ele>-26.3</ele><time>2015-11-21T09:03:42.0000000+00:00</time></trkpt><trkpt lat="31.24295969" lon="35.57572109"><ele>-26.8</ele><time>2015-11-21T09:04:27.0000000+00:00</time></trkpt><trkpt lat="31.24295181" lon="35.57571136"><ele>-26.3</ele><time>2015-11-21T09:05:00.0000000+00:00</time></trkpt><trkpt lat="31.24295709" lon="35.57571639"><ele>-26.3</ele><time>2015-11-21T09:05:44.0000000+00:00</time></trkpt><trkpt lat="31.2429591" lon="35.57570742"><ele>-26.8</ele><time>2015-11-21T09:06:28.0000000+00:00</time></trkpt><trkpt lat="31.24296052" lon="35.57571782"><ele>-26.3</ele><time>2015-11-21T09:07:07.0000000+00:00</time></trkpt><trkpt lat="31.24295767" lon="35.57571975"><ele>-26.3</ele><time>2015-11-21T09:07:58.0000000+00:00</time></trkpt><trkpt lat="31.24296572" lon="35.57572955"><ele>-26.8</ele><time>2015-11-21T09:08:40.0000000+00:00</time></trkpt><trkpt lat="31.24296539" lon="35.57572293"><ele>-26.8</ele><time>2015-11-21T09:09:18.0000000+00:00</time></trkpt><trkpt lat="31.24295298" lon="35.57571053"><ele>-26.8</ele><time>2015-11-21T09:09:57.0000000+00:00</time></trkpt><trkpt lat="31.24295466" lon="35.57570801"><ele>-26.8</ele><time>2015-11-21T09:10:43.0000000+00:00</time></trkpt><trkpt lat="31.24296153" lon="35.5756977"><ele>-26.8</ele><time>2015-11-21T09:11:21.0000000+00:00</time></trkpt><trkpt lat="31.2429627" lon="35.57569846"><ele>-26.8</ele><time>2015-11-21T09:11:55.0000000+00:00</time></trkpt><trkpt lat="31.24296279" lon="35.57572016"><ele>-26.8</ele><time>2015-11-21T09:12:28.0000000+00:00</time></trkpt><trkpt lat="31.24296262" lon="35.57569896"><ele>-26.8</ele><time>2015-11-21T09:13:11.0000000+00:00</time></trkpt><trkpt lat="31.24297285" lon="35.57570256"><ele>-26.8</ele><time>2015-11-21T09:13:47.0000000+00:00</time></trkpt><trkpt lat="31.24296807" lon="35.57571472"><ele>-26.8</ele><time>2015-11-21T09:14:22.0000000+00:00</time></trkpt><trkpt lat="31.24298986" lon="35.57573668"><ele>-26.8</ele><time>2015-11-21T09:14:43.0000000+00:00</time></trkpt><trkpt lat="31.24299464" lon="35.5757557"><ele>-26.3</ele><time>2015-11-21T09:15:00.0000000+00:00</time></trkpt><trkpt lat="31.24307452" lon="35.57593022"><ele>-25.3</ele><time>2015-11-21T09:15:10.0000000+00:00</time></trkpt><trkpt lat="31.24331466" lon="35.57648652"><ele>-23.9</ele><time>2015-11-21T09:15:29.0000000+00:00</time></trkpt><trkpt lat="31.24349982" lon="35.57696773"><ele>-24.4</ele><time>2015-11-21T09:15:40.0000000+00:00</time></trkpt><trkpt lat="31.24385906" lon="35.57776485"><ele>-22.9</ele><time>2015-11-21T09:15:57.0000000+00:00</time></trkpt><trkpt lat="31.24387935" lon="35.57780734"><ele>-22.9</ele><time>2015-11-21T09:15:58.0000000+00:00</time></trkpt><trkpt lat="31.24394179" lon="35.57792947"><ele>-22.5</ele><time>2015-11-21T09:16:01.0000000+00:00</time></trkpt><trkpt lat="31.24435016" lon="35.57847681"><ele>-20.5</ele><time>2015-11-21T09:16:17.0000000+00:00</time></trkpt><trkpt lat="31.24489984" lon="35.57899925"><ele>-19.6</ele><time>2015-11-21T09:16:35.0000000+00:00</time></trkpt><trkpt lat="31.24567048" lon="35.5793497"><ele>-19.6</ele><time>2015-11-21T09:16:54.0000000+00:00</time></trkpt><trkpt lat="31.2465137" lon="35.5796346"><ele>-19.6</ele><time>2015-11-21T09:17:12.0000000+00:00</time></trkpt><trkpt lat="31.24700932" lon="35.57978556"><ele>-16.7</ele><time>2015-11-21T09:17:26.0000000+00:00</time></trkpt><trkpt lat="31.24735306" lon="35.57989108"><ele>-13.8</ele><time>2015-11-21T09:17:41.0000000+00:00</time></trkpt><trkpt lat="31.24768364" lon="35.57998437"><ele>-10.9</ele><time>2015-11-21T09:17:57.0000000+00:00</time></trkpt><trkpt lat="31.24802722" lon="35.58009191"><ele>-7.6</ele><time>2015-11-21T09:18:14.0000000+00:00</time></trkpt><trkpt lat="31.24835344" lon="35.58018646"><ele>-4.7</ele><time>2015-11-21T09:18:31.0000000+00:00</time></trkpt><trkpt lat="31.24863801" lon="35.58029794"><ele>-3.2</ele><time>2015-11-21T09:18:47.0000000+00:00</time></trkpt><trkpt lat="31.24893892" lon="35.58041462"><ele>-0.8</ele><time>2015-11-21T09:19:04.0000000+00:00</time></trkpt><trkpt lat="31.24913832" lon="35.58049919"><ele>0.1</ele><time>2015-11-21T09:19:19.0000000+00:00</time></trkpt><trkpt lat="31.24913899" lon="35.5804976"><ele>1.1</ele><time>2015-11-21T09:19:41.0000000+00:00</time></trkpt><trkpt lat="31.24915701" lon="35.58049768"><ele>0.6</ele><time>2015-11-21T09:20:02.0000000+00:00</time></trkpt><trkpt lat="31.24916431" lon="35.58048419"><ele>0.6</ele><time>2015-11-21T09:20:03.0000000+00:00</time></trkpt><trkpt lat="31.24916967" lon="35.58047052"><ele>0.6</ele><time>2015-11-21T09:20:04.0000000+00:00</time></trkpt><trkpt lat="31.24917244" lon="35.58045669"><ele>0.6</ele><time>2015-11-21T09:20:05.0000000+00:00</time></trkpt><trkpt lat="31.24917411" lon="35.58044261"><ele>0.6</ele><time>2015-11-21T09:20:06.0000000+00:00</time></trkpt><trkpt lat="31.2491628" lon="35.58042468"><ele>0.6</ele><time>2015-11-21T09:20:22.0000000+00:00</time></trkpt><trkpt lat="31.24913623" lon="35.58042929"><ele>1.1</ele><time>2015-11-21T09:20:59.0000000+00:00</time></trkpt><trkpt lat="31.24912089" lon="35.58043666"><ele>0.6</ele><time>2015-11-21T09:21:03.0000000+00:00</time></trkpt><trkpt lat="31.24915685" lon="35.58049969"><ele>1.1</ele><time>2015-11-21T09:21:08.0000000+00:00</time></trkpt><trkpt lat="31.24937092" lon="35.58059935"><ele>3.0</ele><time>2015-11-21T09:21:22.0000000+00:00</time></trkpt><trkpt lat="31.24940218" lon="35.58060992"><ele>3.0</ele><time>2015-11-21T09:21:24.0000000+00:00</time></trkpt><trkpt lat="31.24970737" lon="35.58072852"><ele>5.9</ele><time>2015-11-21T09:21:42.0000000+00:00</time></trkpt><trkpt lat="31.24996947" lon="35.58084754"><ele>7.8</ele><time>2015-11-21T09:21:58.0000000+00:00</time></trkpt><trkpt lat="31.25025236" lon="35.58095307"><ele>9.3</ele><time>2015-11-21T09:22:13.0000000+00:00</time></trkpt><trkpt lat="31.25071077" lon="35.58109707"><ele>9.8</ele><time>2015-11-21T09:22:28.0000000+00:00</time></trkpt><trkpt lat="31.25112953" lon="35.58123873"><ele>9.8</ele><time>2015-11-21T09:22:41.0000000+00:00</time></trkpt><trkpt lat="31.25167385" lon="35.58142246"><ele>9.8</ele><time>2015-11-21T09:22:54.0000000+00:00</time></trkpt><trkpt lat="31.25234993" lon="35.58163812"><ele>12.6</ele><time>2015-11-21T09:23:09.0000000+00:00</time></trkpt><trkpt lat="31.25276978" lon="35.58211262"><ele>14.6</ele><time>2015-11-21T09:23:24.0000000+00:00</time></trkpt><trkpt lat="31.25314563" lon="35.58258654"><ele>17.4</ele><time>2015-11-21T09:23:41.0000000+00:00</time></trkpt><trkpt lat="31.25327798" lon="35.58280447"><ele>19.8</ele><time>2015-11-21T09:23:52.0000000+00:00</time></trkpt><trkpt lat="31.25334352" lon="35.58297303"><ele>22.3</ele><time>2015-11-21T09:24:04.0000000+00:00</time></trkpt><trkpt lat="31.25338736" lon="35.5832327"><ele>24.7</ele><time>2015-11-21T09:24:18.0000000+00:00</time></trkpt><trkpt lat="31.25342214" lon="35.58353755"><ele>27.1</ele><time>2015-11-21T09:24:34.0000000+00:00</time></trkpt><trkpt lat="31.25345626" lon="35.58390493"><ele>29.5</ele><time>2015-11-21T09:24:52.0000000+00:00</time></trkpt><trkpt lat="31.25352616" lon="35.58422755"><ele>31.4</ele><time>2015-11-21T09:25:09.0000000+00:00</time></trkpt><trkpt lat="31.25364016" lon="35.58447707"><ele>33.3</ele><time>2015-11-21T09:25:23.0000000+00:00</time></trkpt><trkpt lat="31.2537912" lon="35.58474035"><ele>35.7</ele><time>2015-11-21T09:25:38.0000000+00:00</time></trkpt><trkpt lat="31.25399111" lon="35.5849758"><ele>38.1</ele><time>2015-11-21T09:25:53.0000000+00:00</time></trkpt><trkpt lat="31.25417761" lon="35.58521854"><ele>40.0</ele><time>2015-11-21T09:26:09.0000000+00:00</time></trkpt><trkpt lat="31.25435472" lon="35.58546471"><ele>42.4</ele><time>2015-11-21T09:26:24.0000000+00:00</time></trkpt><trkpt lat="31.25446326" lon="35.58570636"><ele>45.3</ele><time>2015-11-21T09:26:37.0000000+00:00</time></trkpt><trkpt lat="31.25446762" lon="35.58572229"><ele>45.8</ele><time>2015-11-21T09:26:38.0000000+00:00</time></trkpt><trkpt lat="31.2544698" lon="35.5857383"><ele>45.8</ele><time>2015-11-21T09:26:39.0000000+00:00</time></trkpt><trkpt lat="31.2544734" lon="35.58575557"><ele>46.3</ele><time>2015-11-21T09:26:40.0000000+00:00</time></trkpt><trkpt lat="31.25450207" lon="35.58582078"><ele>47.2</ele><time>2015-11-21T09:26:44.0000000+00:00</time></trkpt><trkpt lat="31.25450433" lon="35.58583779"><ele>47.7</ele><time>2015-11-21T09:26:45.0000000+00:00</time></trkpt><trkpt lat="31.25450794" lon="35.58585313"><ele>47.7</ele><time>2015-11-21T09:26:46.0000000+00:00</time></trkpt><trkpt lat="31.2545128" lon="35.58586713"><ele>48.2</ele><time>2015-11-21T09:26:47.0000000+00:00</time></trkpt><trkpt lat="31.25451431" lon="35.58588305"><ele>48.2</ele><time>2015-11-21T09:26:48.0000000+00:00</time></trkpt><trkpt lat="31.25451632" lon="35.58590091"><ele>48.7</ele><time>2015-11-21T09:26:49.0000000+00:00</time></trkpt><trkpt lat="31.25452101" lon="35.58591918"><ele>48.7</ele><time>2015-11-21T09:26:50.0000000+00:00</time></trkpt><trkpt lat="31.25452596" lon="35.58593662"><ele>49.2</ele><time>2015-11-21T09:26:51.0000000+00:00</time></trkpt><trkpt lat="31.25453023" lon="35.58595405"><ele>49.2</ele><time>2015-11-21T09:26:52.0000000+00:00</time></trkpt><trkpt lat="31.25453132" lon="35.58597232"><ele>49.7</ele><time>2015-11-21T09:26:53.0000000+00:00</time></trkpt><trkpt lat="31.25453752" lon="35.58600736"><ele>50.1</ele><time>2015-11-21T09:26:55.0000000+00:00</time></trkpt><trkpt lat="31.25453317" lon="35.58602714"><ele>50.6</ele><time>2015-11-21T09:26:56.0000000+00:00</time></trkpt><trkpt lat="31.25452571" lon="35.58604533"><ele>50.6</ele><time>2015-11-21T09:26:57.0000000+00:00</time></trkpt><trkpt lat="31.25452361" lon="35.58606201"><ele>51.1</ele><time>2015-11-21T09:26:58.0000000+00:00</time></trkpt><trkpt lat="31.25452269" lon="35.58607785"><ele>51.1</ele><time>2015-11-21T09:26:59.0000000+00:00</time></trkpt><trkpt lat="31.25451967" lon="35.58609378"><ele>51.1</ele><time>2015-11-21T09:27:00.0000000+00:00</time></trkpt><trkpt lat="31.25451682" lon="35.58611054"><ele>51.6</ele><time>2015-11-21T09:27:01.0000000+00:00</time></trkpt><trkpt lat="31.25451414" lon="35.5861263"><ele>51.6</ele><time>2015-11-21T09:27:02.0000000+00:00</time></trkpt><trkpt lat="31.25451146" lon="35.58614172"><ele>52.1</ele><time>2015-11-21T09:27:03.0000000+00:00</time></trkpt><trkpt lat="31.25445563" lon="35.58636342"><ele>54.5</ele><time>2015-11-21T09:27:16.0000000+00:00</time></trkpt><trkpt lat="31.25445278" lon="35.58641061"><ele>54.9</ele><time>2015-11-21T09:27:19.0000000+00:00</time></trkpt><trkpt lat="31.2544522" lon="35.58642821"><ele>54.9</ele><time>2015-11-21T09:27:20.0000000+00:00</time></trkpt><trkpt lat="31.2544532" lon="35.58644447"><ele>55.4</ele><time>2015-11-21T09:27:21.0000000+00:00</time></trkpt><trkpt lat="31.25444951" lon="35.58646082"><ele>55.4</ele><time>2015-11-21T09:27:22.0000000+00:00</time></trkpt><trkpt lat="31.25444868" lon="35.58647675"><ele>55.9</ele><time>2015-11-21T09:27:23.0000000+00:00</time></trkpt><trkpt lat="31.25444935" lon="35.58649343"><ele>55.9</ele><time>2015-11-21T09:27:24.0000000+00:00</time></trkpt><trkpt lat="31.25444767" lon="35.58651036"><ele>55.9</ele><time>2015-11-21T09:27:25.0000000+00:00</time></trkpt><trkpt lat="31.25444373" lon="35.58652662"><ele>56.4</ele><time>2015-11-21T09:27:26.0000000+00:00</time></trkpt><trkpt lat="31.25441917" lon="35.58674195"><ele>59.7</ele><time>2015-11-21T09:27:39.0000000+00:00</time></trkpt><trkpt lat="31.25441532" lon="35.58683348"><ele>60.7</ele><time>2015-11-21T09:27:45.0000000+00:00</time></trkpt><trkpt lat="31.2544154" lon="35.58684915"><ele>61.2</ele><time>2015-11-21T09:27:46.0000000+00:00</time></trkpt><trkpt lat="31.25441808" lon="35.586866"><ele>61.2</ele><time>2015-11-21T09:27:47.0000000+00:00</time></trkpt><trkpt lat="31.25442035" lon="35.58688235"><ele>61.7</ele><time>2015-11-21T09:27:48.0000000+00:00</time></trkpt><trkpt lat="31.25442127" lon="35.58689861"><ele>61.7</ele><time>2015-11-21T09:27:49.0000000+00:00</time></trkpt><trkpt lat="31.25442135" lon="35.58701847"><ele>62.6</ele><time>2015-11-21T09:27:56.0000000+00:00</time></trkpt><trkpt lat="31.25441993" lon="35.58703741"><ele>62.6</ele><time>2015-11-21T09:27:57.0000000+00:00</time></trkpt><trkpt lat="31.25441842" lon="35.58705887"><ele>63.1</ele><time>2015-11-21T09:27:58.0000000+00:00</time></trkpt><trkpt lat="31.25441808" lon="35.58708225"><ele>63.1</ele><time>2015-11-21T09:27:59.0000000+00:00</time></trkpt><trkpt lat="31.25441691" lon="35.58710162"><ele>63.1</ele><time>2015-11-21T09:28:00.0000000+00:00</time></trkpt><trkpt lat="31.25441565" lon="35.58713682"><ele>63.6</ele><time>2015-11-21T09:28:02.0000000+00:00</time></trkpt><trkpt lat="31.25441289" lon="35.5871566"><ele>63.6</ele><time>2015-11-21T09:28:03.0000000+00:00</time></trkpt><trkpt lat="31.25440593" lon="35.58717479"><ele>63.6</ele><time>2015-11-21T09:28:04.0000000+00:00</time></trkpt><trkpt lat="31.25439562" lon="35.5871913"><ele>64.1</ele><time>2015-11-21T09:28:05.0000000+00:00</time></trkpt><trkpt lat="31.25438606" lon="35.58720731"><ele>64.1</ele><time>2015-11-21T09:28:06.0000000+00:00</time></trkpt><trkpt lat="31.254375" lon="35.58721896"><ele>64.6</ele><time>2015-11-21T09:28:07.0000000+00:00</time></trkpt><trkpt lat="31.25435974" lon="35.58722416"><ele>65.0</ele><time>2015-11-21T09:28:08.0000000+00:00</time></trkpt><trkpt lat="31.254289" lon="35.58719113"><ele>66.5</ele><time>2015-11-21T09:28:13.0000000+00:00</time></trkpt><trkpt lat="31.25425003" lon="35.5870437"><ele>67.4</ele><time>2015-11-21T09:28:22.0000000+00:00</time></trkpt><trkpt lat="31.25419294" lon="35.58670792"><ele>69.4</ele><time>2015-11-21T09:28:41.0000000+00:00</time></trkpt><trkpt lat="31.25414743" lon="35.58643542"><ele>70.8</ele><time>2015-11-21T09:28:56.0000000+00:00</time></trkpt><trkpt lat="31.25408893" lon="35.58621967"><ele>73.2</ele><time>2015-11-21T09:29:09.0000000+00:00</time></trkpt><trkpt lat="31.25396194" lon="35.58604332"><ele>75.6</ele><time>2015-11-21T09:29:22.0000000+00:00</time></trkpt><trkpt lat="31.25386178" lon="35.58599244"><ele>77.5</ele><time>2015-11-21T09:29:30.0000000+00:00</time></trkpt><trkpt lat="31.25373336" lon="35.58600032"><ele>79.5</ele><time>2015-11-21T09:29:39.0000000+00:00</time></trkpt><trkpt lat="31.25370688" lon="35.58601331"><ele>79.9</ele><time>2015-11-21T09:29:41.0000000+00:00</time></trkpt><trkpt lat="31.25366405" lon="35.58605606"><ele>80.4</ele><time>2015-11-21T09:29:45.0000000+00:00</time></trkpt><trkpt lat="31.2536415" lon="35.58607634"><ele>80.4</ele><time>2015-11-21T09:29:47.0000000+00:00</time></trkpt><trkpt lat="31.25356212" lon="35.58621255"><ele>81.9</ele><time>2015-11-21T09:29:58.0000000+00:00</time></trkpt><trkpt lat="31.25352751" lon="35.58627675"><ele>82.8</ele><time>2015-11-21T09:30:04.0000000+00:00</time></trkpt><trkpt lat="31.25344276" lon="35.58642587"><ele>84.7</ele><time>2015-11-21T09:30:16.0000000+00:00</time></trkpt><trkpt lat="31.25342005" lon="35.58644179"><ele>84.7</ele><time>2015-11-21T09:30:18.0000000+00:00</time></trkpt><trkpt lat="31.25336909" lon="35.58649334"><ele>85.7</ele><time>2015-11-21T09:30:23.0000000+00:00</time></trkpt><trkpt lat="31.25326658" lon="35.58659392"><ele>87.6</ele><time>2015-11-21T09:30:33.0000000+00:00</time></trkpt><trkpt lat="31.25319701" lon="35.58663927"><ele>88.1</ele><time>2015-11-21T09:30:39.0000000+00:00</time></trkpt><trkpt lat="31.25299634" lon="35.58675117"><ele>90.0</ele><time>2015-11-21T09:30:54.0000000+00:00</time></trkpt><trkpt lat="31.25284773" lon="35.58681169"><ele>91.5</ele><time>2015-11-21T09:31:04.0000000+00:00</time></trkpt><trkpt lat="31.25262301" lon="35.58685158"><ele>93.4</ele><time>2015-11-21T09:31:20.0000000+00:00</time></trkpt><trkpt lat="31.25236309" lon="35.58691453"><ele>95.8</ele><time>2015-11-21T09:31:36.0000000+00:00</time></trkpt><trkpt lat="31.25226058" lon="35.58695703"><ele>96.8</ele><time>2015-11-21T09:31:42.0000000+00:00</time></trkpt><trkpt lat="31.25225136" lon="35.58696901"><ele>97.2</ele><time>2015-11-21T09:31:43.0000000+00:00</time></trkpt><trkpt lat="31.25223518" lon="35.58697932"><ele>97.2</ele><time>2015-11-21T09:31:44.0000000+00:00</time></trkpt><trkpt lat="31.25221876" lon="35.58699148"><ele>97.7</ele><time>2015-11-21T09:31:45.0000000+00:00</time></trkpt><trkpt lat="31.2522056" lon="35.5870064"><ele>97.7</ele><time>2015-11-21T09:31:46.0000000+00:00</time></trkpt><trkpt lat="31.25219386" lon="35.58701914"><ele>98.2</ele><time>2015-11-21T09:31:47.0000000+00:00</time></trkpt><trkpt lat="31.25218062" lon="35.58704278"><ele>98.2</ele><time>2015-11-21T09:31:49.0000000+00:00</time></trkpt><trkpt lat="31.25217835" lon="35.58705652"><ele>98.7</ele><time>2015-11-21T09:31:50.0000000+00:00</time></trkpt><trkpt lat="31.25217374" lon="35.58707454"><ele>98.7</ele><time>2015-11-21T09:31:51.0000000+00:00</time></trkpt><trkpt lat="31.25217073" lon="35.58709298"><ele>98.7</ele><time>2015-11-21T09:31:52.0000000+00:00</time></trkpt><trkpt lat="31.25216888" lon="35.58711067"><ele>99.2</ele><time>2015-11-21T09:31:53.0000000+00:00</time></trkpt><trkpt lat="31.2521693" lon="35.58712869"><ele>99.2</ele><time>2015-11-21T09:31:54.0000000+00:00</time></trkpt><trkpt lat="31.25217014" lon="35.58714654"><ele>99.6</ele><time>2015-11-21T09:31:55.0000000+00:00</time></trkpt><trkpt lat="31.2521755" lon="35.58717915"><ele>99.6</ele><time>2015-11-21T09:31:57.0000000+00:00</time></trkpt><trkpt lat="31.25218053" lon="35.58719365"><ele>100.1</ele><time>2015-11-21T09:31:58.0000000+00:00</time></trkpt><trkpt lat="31.25219193" lon="35.58721678"><ele>100.1</ele><time>2015-11-21T09:32:10.0000000+00:00</time></trkpt><trkpt lat="31.25217458" lon="35.58719918"><ele>100.6</ele><time>2015-11-21T09:32:32.0000000+00:00</time></trkpt><trkpt lat="31.25217601" lon="35.58720128"><ele>100.6</ele><time>2015-11-21T09:32:55.0000000+00:00</time></trkpt><trkpt lat="31.25218439" lon="35.58725316"><ele>100.6</ele><time>2015-11-21T09:33:08.0000000+00:00</time></trkpt><trkpt lat="31.2521657" lon="35.58726699"><ele>100.1</ele><time>2015-11-21T09:33:34.0000000+00:00</time></trkpt><trkpt lat="31.25214776" lon="35.5872654"><ele>100.1</ele><time>2015-11-21T09:34:14.0000000+00:00</time></trkpt><trkpt lat="31.25215279" lon="35.5872778"><ele>100.1</ele><time>2015-11-21T09:34:46.0000000+00:00</time></trkpt><trkpt lat="31.25219629" lon="35.58725551"><ele>101.1</ele><time>2015-11-21T09:35:01.0000000+00:00</time></trkpt><trkpt lat="31.25222052" lon="35.58725081"><ele>101.1</ele><time>2015-11-21T09:35:20.0000000+00:00</time></trkpt><trkpt lat="31.2522092" lon="35.58727127"><ele>101.1</ele><time>2015-11-21T09:35:42.0000000+00:00</time></trkpt><trkpt lat="31.2522211" lon="35.58727998"><ele>100.6</ele><time>2015-11-21T09:35:58.0000000+00:00</time></trkpt><trkpt lat="31.25223183" lon="35.58728325"><ele>100.6</ele><time>2015-11-21T09:35:59.0000000+00:00</time></trkpt><trkpt lat="31.25226066" lon="35.58729708"><ele>100.6</ele><time>2015-11-21T09:36:02.0000000+00:00</time></trkpt><trkpt lat="31.25227022" lon="35.58730597"><ele>101.1</ele><time>2015-11-21T09:36:03.0000000+00:00</time></trkpt><trkpt lat="31.25228095" lon="35.58731426"><ele>101.1</ele><time>2015-11-21T09:36:04.0000000+00:00</time></trkpt><trkpt lat="31.25229268" lon="35.5873208"><ele>101.1</ele><time>2015-11-21T09:36:05.0000000+00:00</time></trkpt><trkpt lat="31.25230618" lon="35.58732525"><ele>101.1</ele><time>2015-11-21T09:36:06.0000000+00:00</time></trkpt><trkpt lat="31.25232135" lon="35.58732793"><ele>101.1</ele><time>2015-11-21T09:36:07.0000000+00:00</time></trkpt><trkpt lat="31.25233811" lon="35.58732902"><ele>101.6</ele><time>2015-11-21T09:36:08.0000000+00:00</time></trkpt><trkpt lat="31.25236158" lon="35.58732902"><ele>101.1</ele><time>2015-11-21T09:36:10.0000000+00:00</time></trkpt><trkpt lat="31.25237566" lon="35.58732709"><ele>101.6</ele><time>2015-11-21T09:36:11.0000000+00:00</time></trkpt><trkpt lat="31.25239176" lon="35.58732575"><ele>101.6</ele><time>2015-11-21T09:36:12.0000000+00:00</time></trkpt><trkpt lat="31.25265981" lon="35.58727579"><ele>102.5</ele><time>2015-11-21T09:36:26.0000000+00:00</time></trkpt><trkpt lat="31.25271429" lon="35.58727152"><ele>103.0</ele><time>2015-11-21T09:36:29.0000000+00:00</time></trkpt><trkpt lat="31.2527319" lon="35.58727353"><ele>103.5</ele><time>2015-11-21T09:36:30.0000000+00:00</time></trkpt><trkpt lat="31.25274874" lon="35.58727437"><ele>103.5</ele><time>2015-11-21T09:36:31.0000000+00:00</time></trkpt><trkpt lat="31.25281647" lon="35.58728451"><ele>104.0</ele><time>2015-11-21T09:36:35.0000000+00:00</time></trkpt><trkpt lat="31.25283248" lon="35.58729641"><ele>104.0</ele><time>2015-11-21T09:36:36.0000000+00:00</time></trkpt><trkpt lat="31.25286307" lon="35.5873203"><ele>104.4</ele><time>2015-11-21T09:36:38.0000000+00:00</time></trkpt><trkpt lat="31.25287657" lon="35.58733363"><ele>104.9</ele><time>2015-11-21T09:36:39.0000000+00:00</time></trkpt><trkpt lat="31.25288989" lon="35.58734771"><ele>105.4</ele><time>2015-11-21T09:36:40.0000000+00:00</time></trkpt><trkpt lat="31.25289685" lon="35.58736271"><ele>105.4</ele><time>2015-11-21T09:36:41.0000000+00:00</time></trkpt><trkpt lat="31.2529002" lon="35.58737939"><ele>105.9</ele><time>2015-11-21T09:36:42.0000000+00:00</time></trkpt><trkpt lat="31.25290456" lon="35.58739599"><ele>106.4</ele><time>2015-11-21T09:36:43.0000000+00:00</time></trkpt><trkpt lat="31.25290934" lon="35.58742155"><ele>106.8</ele><time>2015-11-21T09:36:45.0000000+00:00</time></trkpt><trkpt lat="31.25290724" lon="35.58743614"><ele>107.3</ele><time>2015-11-21T09:36:46.0000000+00:00</time></trkpt><trkpt lat="31.25290615" lon="35.58745047"><ele>107.8</ele><time>2015-11-21T09:36:47.0000000+00:00</time></trkpt><trkpt lat="31.25290255" lon="35.58746698"><ele>107.8</ele><time>2015-11-21T09:36:48.0000000+00:00</time></trkpt><trkpt lat="31.2528992" lon="35.58748517"><ele>108.3</ele><time>2015-11-21T09:36:49.0000000+00:00</time></trkpt><trkpt lat="31.25289878" lon="35.58750294"><ele>108.8</ele><time>2015-11-21T09:36:50.0000000+00:00</time></trkpt><trkpt lat="31.25289945" lon="35.58751895"><ele>108.8</ele><time>2015-11-21T09:36:51.0000000+00:00</time></trkpt><trkpt lat="31.25285645" lon="35.58763269"><ele>111.2</ele><time>2015-11-21T09:37:00.0000000+00:00</time></trkpt><trkpt lat="31.25285067" lon="35.58764761"><ele>111.2</ele><time>2015-11-21T09:37:01.0000000+00:00</time></trkpt><trkpt lat="31.25283893" lon="35.5876601"><ele>111.7</ele><time>2015-11-21T09:37:02.0000000+00:00</time></trkpt><trkpt lat="31.25282661" lon="35.58767276"><ele>111.7</ele><time>2015-11-21T09:37:03.0000000+00:00</time></trkpt><trkpt lat="31.2528163" lon="35.5876855"><ele>111.7</ele><time>2015-11-21T09:37:04.0000000+00:00</time></trkpt><trkpt lat="31.25280834" lon="35.5876969"><ele>112.1</ele><time>2015-11-21T09:37:05.0000000+00:00</time></trkpt><trkpt lat="31.25280281" lon="35.58770939"><ele>112.1</ele><time>2015-11-21T09:37:06.0000000+00:00</time></trkpt><trkpt lat="31.25272829" lon="35.58787426"><ele>114.1</ele><time>2015-11-21T09:37:18.0000000+00:00</time></trkpt><trkpt lat="31.25270214" lon="35.58795263"><ele>115.0</ele><time>2015-11-21T09:37:24.0000000+00:00</time></trkpt><trkpt lat="31.25270046" lon="35.58796562"><ele>115.0</ele><time>2015-11-21T09:37:25.0000000+00:00</time></trkpt><trkpt lat="31.25269728" lon="35.58797845"><ele>115.5</ele><time>2015-11-21T09:37:26.0000000+00:00</time></trkpt><trkpt lat="31.25269133" lon="35.58799303"><ele>115.5</ele><time>2015-11-21T09:37:27.0000000+00:00</time></trkpt><trkpt lat="31.25268521" lon="35.5880077"><ele>116.0</ele><time>2015-11-21T09:37:28.0000000+00:00</time></trkpt><trkpt lat="31.25267901" lon="35.58802404"><ele>116.0</ele><time>2015-11-21T09:37:29.0000000+00:00</time></trkpt><trkpt lat="31.25267532" lon="35.58803838"><ele>116.0</ele><time>2015-11-21T09:37:30.0000000+00:00</time></trkpt><trkpt lat="31.25267096" lon="35.58805296"><ele>116.0</ele><time>2015-11-21T09:37:31.0000000+00:00</time></trkpt><trkpt lat="31.25266383" lon="35.5880678"><ele>116.0</ele><time>2015-11-21T09:37:32.0000000+00:00</time></trkpt><trkpt lat="31.25265713" lon="35.58808012"><ele>116.5</ele><time>2015-11-21T09:37:33.0000000+00:00</time></trkpt><trkpt lat="31.25265135" lon="35.5880942"><ele>116.5</ele><time>2015-11-21T09:37:34.0000000+00:00</time></trkpt><trkpt lat="31.25264464" lon="35.58810703"><ele>116.5</ele><time>2015-11-21T09:37:35.0000000+00:00</time></trkpt><trkpt lat="31.25257373" lon="35.58826377"><ele>118.4</ele><time>2015-11-21T09:37:46.0000000+00:00</time></trkpt><trkpt lat="31.2525744" lon="35.58827517"><ele>118.4</ele><time>2015-11-21T09:37:47.0000000+00:00</time></trkpt><trkpt lat="31.25257549" lon="35.58828539"><ele>118.4</ele><time>2015-11-21T09:37:48.0000000+00:00</time></trkpt><trkpt lat="31.25257121" lon="35.58829864"><ele>118.4</ele><time>2015-11-21T09:37:49.0000000+00:00</time></trkpt><trkpt lat="31.25256501" lon="35.58831104"><ele>118.9</ele><time>2015-11-21T09:37:50.0000000+00:00</time></trkpt><trkpt lat="31.25256007" lon="35.58832395"><ele>118.9</ele><time>2015-11-21T09:37:51.0000000+00:00</time></trkpt><trkpt lat="31.25254984" lon="35.588391"><ele>119.8</ele><time>2015-11-21T09:37:56.0000000+00:00</time></trkpt><trkpt lat="31.25253869" lon="35.58842881"><ele>120.3</ele><time>2015-11-21T09:37:59.0000000+00:00</time></trkpt><trkpt lat="31.25253903" lon="35.58844364"><ele>120.3</ele><time>2015-11-21T09:38:00.0000000+00:00</time></trkpt><trkpt lat="31.25253417" lon="35.5884558"><ele>120.3</ele><time>2015-11-21T09:38:01.0000000+00:00</time></trkpt><trkpt lat="31.25252922" lon="35.58847214"><ele>120.8</ele><time>2015-11-21T09:38:02.0000000+00:00</time></trkpt><trkpt lat="31.25252377" lon="35.58848916"><ele>120.8</ele><time>2015-11-21T09:38:03.0000000+00:00</time></trkpt><trkpt lat="31.25252109" lon="35.58850391"><ele>120.8</ele><time>2015-11-21T09:38:04.0000000+00:00</time></trkpt><trkpt lat="31.25252327" lon="35.58851841"><ele>121.3</ele><time>2015-11-21T09:38:05.0000000+00:00</time></trkpt><trkpt lat="31.25252344" lon="35.58853241"><ele>121.3</ele><time>2015-11-21T09:38:06.0000000+00:00</time></trkpt><trkpt lat="31.25252" lon="35.58854691"><ele>121.3</ele><time>2015-11-21T09:38:07.0000000+00:00</time></trkpt><trkpt lat="31.25251581" lon="35.58856057"><ele>121.3</ele><time>2015-11-21T09:38:08.0000000+00:00</time></trkpt><trkpt lat="31.25251061" lon="35.58857499"><ele>121.7</ele><time>2015-11-21T09:38:09.0000000+00:00</time></trkpt><trkpt lat="31.25250944" lon="35.58858907"><ele>121.7</ele><time>2015-11-21T09:38:10.0000000+00:00</time></trkpt><trkpt lat="31.25250684" lon="35.58860491"><ele>121.7</ele><time>2015-11-21T09:38:11.0000000+00:00</time></trkpt><trkpt lat="31.252505" lon="35.58861933"><ele>122.2</ele><time>2015-11-21T09:38:12.0000000+00:00</time></trkpt><trkpt lat="31.25250542" lon="35.58863467"><ele>122.2</ele><time>2015-11-21T09:38:13.0000000+00:00</time></trkpt><trkpt lat="31.25250692" lon="35.58865076"><ele>122.2</ele><time>2015-11-21T09:38:14.0000000+00:00</time></trkpt><trkpt lat="31.25250718" lon="35.58866367"><ele>122.7</ele><time>2015-11-21T09:38:15.0000000+00:00</time></trkpt><trkpt lat="31.25250977" lon="35.58867926"><ele>122.7</ele><time>2015-11-21T09:38:16.0000000+00:00</time></trkpt><trkpt lat="31.25251212" lon="35.58869644"><ele>122.7</ele><time>2015-11-21T09:38:17.0000000+00:00</time></trkpt><trkpt lat="31.25251497" lon="35.58871295"><ele>122.7</ele><time>2015-11-21T09:38:18.0000000+00:00</time></trkpt><trkpt lat="31.25251849" lon="35.58872938"><ele>123.2</ele><time>2015-11-21T09:38:19.0000000+00:00</time></trkpt><trkpt lat="31.25252252" lon="35.58874573"><ele>123.2</ele><time>2015-11-21T09:38:20.0000000+00:00</time></trkpt><trkpt lat="31.25252738" lon="35.58876115"><ele>123.2</ele><time>2015-11-21T09:38:21.0000000+00:00</time></trkpt><trkpt lat="31.25253333" lon="35.58877783"><ele>123.2</ele><time>2015-11-21T09:38:22.0000000+00:00</time></trkpt><trkpt lat="31.25253894" lon="35.58879518"><ele>123.2</ele><time>2015-11-21T09:38:23.0000000+00:00</time></trkpt><trkpt lat="31.25254272" lon="35.58881312"><ele>123.2</ele><time>2015-11-21T09:38:24.0000000+00:00</time></trkpt><trkpt lat="31.25254825" lon="35.58883072"><ele>123.7</ele><time>2015-11-21T09:38:25.0000000+00:00</time></trkpt><trkpt lat="31.25263374" lon="35.58899609"><ele>125.1</ele><time>2015-11-21T09:38:36.0000000+00:00</time></trkpt><trkpt lat="31.25264288" lon="35.58900716"><ele>125.6</ele><time>2015-11-21T09:38:37.0000000+00:00</time></trkpt><trkpt lat="31.25270298" lon="35.58906566"><ele>126.6</ele><time>2015-11-21T09:38:42.0000000+00:00</time></trkpt><trkpt lat="31.25271698" lon="35.58908075"><ele>127.0</ele><time>2015-11-21T09:38:43.0000000+00:00</time></trkpt><trkpt lat="31.25273315" lon="35.5890898"><ele>127.0</ele><time>2015-11-21T09:38:44.0000000+00:00</time></trkpt><trkpt lat="31.25275872" lon="35.5891012"><ele>127.0</ele><time>2015-11-21T09:38:46.0000000+00:00</time></trkpt><trkpt lat="31.25277104" lon="35.58911109"><ele>127.5</ele><time>2015-11-21T09:38:47.0000000+00:00</time></trkpt><trkpt lat="31.25278604" lon="35.58912182"><ele>127.5</ele><time>2015-11-21T09:38:48.0000000+00:00</time></trkpt><trkpt lat="31.25295318" lon="35.58925258"><ele>130.9</ele><time>2015-11-21T09:39:01.0000000+00:00</time></trkpt><trkpt lat="31.25301872" lon="35.58934864"><ele>132.3</ele><time>2015-11-21T09:39:08.0000000+00:00</time></trkpt><trkpt lat="31.25302828" lon="35.58936339"><ele>132.8</ele><time>2015-11-21T09:39:09.0000000+00:00</time></trkpt><trkpt lat="31.25303331" lon="35.58937789"><ele>133.3</ele><time>2015-11-21T09:39:10.0000000+00:00</time></trkpt><trkpt lat="31.25303691" lon="35.58939264"><ele>133.3</ele><time>2015-11-21T09:39:11.0000000+00:00</time></trkpt><trkpt lat="31.25304295" lon="35.58940941"><ele>133.8</ele><time>2015-11-21T09:39:12.0000000+00:00</time></trkpt><trkpt lat="31.25304647" lon="35.58942433"><ele>134.2</ele><time>2015-11-21T09:39:13.0000000+00:00</time></trkpt><trkpt lat="31.25305091" lon="35.58943857"><ele>134.2</ele><time>2015-11-21T09:39:14.0000000+00:00</time></trkpt><trkpt lat="31.25305284" lon="35.58945299"><ele>134.2</ele><time>2015-11-21T09:39:15.0000000+00:00</time></trkpt><trkpt lat="31.25305326" lon="35.58946783"><ele>134.7</ele><time>2015-11-21T09:39:16.0000000+00:00</time></trkpt><trkpt lat="31.25305711" lon="35.58948216"><ele>134.7</ele><time>2015-11-21T09:39:17.0000000+00:00</time></trkpt><trkpt lat="31.25306474" lon="35.58949599"><ele>135.2</ele><time>2015-11-21T09:39:18.0000000+00:00</time></trkpt><trkpt lat="31.25307178" lon="35.58950907"><ele>135.2</ele><time>2015-11-21T09:39:19.0000000+00:00</time></trkpt><trkpt lat="31.25307505" lon="35.5895239"><ele>135.2</ele><time>2015-11-21T09:39:20.0000000+00:00</time></trkpt><trkpt lat="31.25307756" lon="35.58954025"><ele>135.7</ele><time>2015-11-21T09:39:21.0000000+00:00</time></trkpt><trkpt lat="31.25308058" lon="35.58955559"><ele>135.7</ele><time>2015-11-21T09:39:22.0000000+00:00</time></trkpt><trkpt lat="31.25310271" lon="35.58977067"><ele>138.1</ele><time>2015-11-21T09:39:36.0000000+00:00</time></trkpt><trkpt lat="31.25310204" lon="35.58978793"><ele>138.1</ele><time>2015-11-21T09:39:37.0000000+00:00</time></trkpt><trkpt lat="31.25310464" lon="35.58980553"><ele>138.1</ele><time>2015-11-21T09:39:38.0000000+00:00</time></trkpt><trkpt lat="31.25310556" lon="35.58982045"><ele>138.1</ele><time>2015-11-21T09:39:39.0000000+00:00</time></trkpt><trkpt lat="31.25310833" lon="35.5898363"><ele>138.6</ele><time>2015-11-21T09:39:40.0000000+00:00</time></trkpt><trkpt lat="31.25311042" lon="35.58985339"><ele>138.6</ele><time>2015-11-21T09:39:41.0000000+00:00</time></trkpt><trkpt lat="31.25311377" lon="35.58987016"><ele>139.1</ele><time>2015-11-21T09:39:42.0000000+00:00</time></trkpt><trkpt lat="31.25311403" lon="35.58988751"><ele>139.1</ele><time>2015-11-21T09:39:43.0000000+00:00</time></trkpt><trkpt lat="31.25311503" lon="35.58990637"><ele>139.1</ele><time>2015-11-21T09:39:44.0000000+00:00</time></trkpt><trkpt lat="31.25311755" lon="35.5899269"><ele>139.1</ele><time>2015-11-21T09:39:45.0000000+00:00</time></trkpt><trkpt lat="31.25311738" lon="35.5899466"><ele>139.5</ele><time>2015-11-21T09:39:46.0000000+00:00</time></trkpt><trkpt lat="31.25311688" lon="35.58996588"><ele>139.5</ele><time>2015-11-21T09:39:47.0000000+00:00</time></trkpt><trkpt lat="31.25310481" lon="35.5902714"><ele>141.9</ele><time>2015-11-21T09:40:03.0000000+00:00</time></trkpt><trkpt lat="31.25310548" lon="35.59035371"><ele>142.9</ele><time>2015-11-21T09:40:07.0000000+00:00</time></trkpt><trkpt lat="31.2531043" lon="35.59037341"><ele>142.9</ele><time>2015-11-21T09:40:08.0000000+00:00</time></trkpt><trkpt lat="31.25308561" lon="35.59055932"><ele>144.8</ele><time>2015-11-21T09:40:17.0000000+00:00</time></trkpt><trkpt lat="31.25305971" lon="35.59059637"><ele>145.3</ele><time>2015-11-21T09:40:19.0000000+00:00</time></trkpt><trkpt lat="31.25304194" lon="35.59060391"><ele>145.3</ele><time>2015-11-21T09:40:20.0000000+00:00</time></trkpt><trkpt lat="31.25302367" lon="35.59060869"><ele>145.8</ele><time>2015-11-21T09:40:21.0000000+00:00</time></trkpt><trkpt lat="31.25300422" lon="35.59060684"><ele>146.3</ele><time>2015-11-21T09:40:22.0000000+00:00</time></trkpt><trkpt lat="31.25295695" lon="35.59056963"><ele>147.2</ele><time>2015-11-21T09:40:25.0000000+00:00</time></trkpt><trkpt lat="31.25284974" lon="35.59024827"><ele>149.6</ele><time>2015-11-21T09:40:42.0000000+00:00</time></trkpt><trkpt lat="31.25281337" lon="35.5900295"><ele>151.1</ele><time>2015-11-21T09:40:53.0000000+00:00</time></trkpt><trkpt lat="31.25272494" lon="35.58971501"><ele>153.0</ele><time>2015-11-21T09:41:09.0000000+00:00</time></trkpt><trkpt lat="31.2525692" lon="35.58959917"><ele>155.9</ele><time>2015-11-21T09:41:22.0000000+00:00</time></trkpt><trkpt lat="31.25247574" lon="35.58966162"><ele>156.8</ele><time>2015-11-21T09:41:29.0000000+00:00</time></trkpt><trkpt lat="31.25242193" lon="35.58989036"><ele>158.8</ele><time>2015-11-21T09:41:43.0000000+00:00</time></trkpt><trkpt lat="31.25240995" lon="35.59021172"><ele>161.6</ele><time>2015-11-21T09:42:01.0000000+00:00</time></trkpt><trkpt lat="31.25241548" lon="35.59029881"><ele>162.1</ele><time>2015-11-21T09:42:06.0000000+00:00</time></trkpt><trkpt lat="31.252419" lon="35.59040107"><ele>163.1</ele><time>2015-11-21T09:42:12.0000000+00:00</time></trkpt><trkpt lat="31.25244448" lon="35.59057415"><ele>165.0</ele><time>2015-11-21T09:42:22.0000000+00:00</time></trkpt><trkpt lat="31.25247658" lon="35.5907635"><ele>166.9</ele><time>2015-11-21T09:42:34.0000000+00:00</time></trkpt><trkpt lat="31.2525283" lon="35.59101337"><ele>170.3</ele><time>2015-11-21T09:42:50.0000000+00:00</time></trkpt><trkpt lat="31.25253081" lon="35.59104254"><ele>170.8</ele><time>2015-11-21T09:42:52.0000000+00:00</time></trkpt><trkpt lat="31.25257591" lon="35.59126776"><ele>173.7</ele><time>2015-11-21T09:43:07.0000000+00:00</time></trkpt><trkpt lat="31.2525858" lon="35.59129743"><ele>173.7</ele><time>2015-11-21T09:43:09.0000000+00:00</time></trkpt><trkpt lat="31.25261731" lon="35.59152315"><ele>177.5</ele><time>2015-11-21T09:43:23.0000000+00:00</time></trkpt><trkpt lat="31.25261975" lon="35.59158526"><ele>178.0</ele><time>2015-11-21T09:43:27.0000000+00:00</time></trkpt><trkpt lat="31.252621" lon="35.59161695"><ele>178.5</ele><time>2015-11-21T09:43:29.0000000+00:00</time></trkpt><trkpt lat="31.25255956" lon="35.59170035"><ele>179.9</ele><time>2015-11-21T09:43:36.0000000+00:00</time></trkpt><trkpt lat="31.25252729" lon="35.59173748"><ele>180.9</ele><time>2015-11-21T09:43:48.0000000+00:00</time></trkpt><trkpt lat="31.25250114" lon="35.5917415"><ele>181.4</ele><time>2015-11-21T09:44:09.0000000+00:00</time></trkpt><trkpt lat="31.25242621" lon="35.59176983"><ele>182.8</ele><time>2015-11-21T09:44:22.0000000+00:00</time></trkpt><trkpt lat="31.25242311" lon="35.59177008"><ele>182.8</ele><time>2015-11-21T09:44:23.0000000+00:00</time></trkpt><trkpt lat="31.25239436" lon="35.59176715"><ele>182.8</ele><time>2015-11-21T09:44:26.0000000+00:00</time></trkpt><trkpt lat="31.25222848" lon="35.5916612"><ele>184.2</ele><time>2015-11-21T09:44:40.0000000+00:00</time></trkpt><trkpt lat="31.25217609" lon="35.59158971"><ele>184.7</ele><time>2015-11-21T09:44:45.0000000+00:00</time></trkpt><trkpt lat="31.25196118" lon="35.59136105"><ele>186.6</ele><time>2015-11-21T09:45:03.0000000+00:00</time></trkpt><trkpt lat="31.25184249" lon="35.59130003"><ele>188.1</ele><time>2015-11-21T09:45:12.0000000+00:00</time></trkpt><trkpt lat="31.2517974" lon="35.59126927"><ele>188.6</ele><time>2015-11-21T09:45:16.0000000+00:00</time></trkpt><trkpt lat="31.25175876" lon="35.59127446"><ele>188.6</ele><time>2015-11-21T09:45:19.0000000+00:00</time></trkpt><trkpt lat="31.25168919" lon="35.59127228"><ele>189.5</ele><time>2015-11-21T09:45:24.0000000+00:00</time></trkpt><trkpt lat="31.25149665" lon="35.59139089"><ele>192.4</ele><time>2015-11-21T09:45:40.0000000+00:00</time></trkpt><trkpt lat="31.2514591" lon="35.5914369"><ele>192.9</ele><time>2015-11-21T09:45:44.0000000+00:00</time></trkpt><trkpt lat="31.25134117" lon="35.59162533"><ele>195.8</ele><time>2015-11-21T09:46:00.0000000+00:00</time></trkpt><trkpt lat="31.25131896" lon="35.59166322"><ele>196.7</ele><time>2015-11-21T09:46:03.0000000+00:00</time></trkpt><trkpt lat="31.25123824" lon="35.59180864"><ele>199.1</ele><time>2015-11-21T09:46:15.0000000+00:00</time></trkpt><trkpt lat="31.25115652" lon="35.59197217"><ele>201.1</ele><time>2015-11-21T09:46:29.0000000+00:00</time></trkpt><trkpt lat="31.25115006" lon="35.59200469"><ele>202.0</ele><time>2015-11-21T09:46:34.0000000+00:00</time></trkpt><trkpt lat="31.2510882" lon="35.59213671"><ele>203.9</ele><time>2015-11-21T09:46:46.0000000+00:00</time></trkpt><trkpt lat="31.25106381" lon="35.59217996"><ele>204.4</ele><time>2015-11-21T09:46:50.0000000+00:00</time></trkpt><trkpt lat="31.25100522" lon="35.59224978"><ele>205.4</ele><time>2015-11-21T09:46:57.0000000+00:00</time></trkpt><trkpt lat="31.25097203" lon="35.5923445"><ele>206.8</ele><time>2015-11-21T09:47:04.0000000+00:00</time></trkpt><trkpt lat="31.25093674" lon="35.5924279"><ele>207.8</ele><time>2015-11-21T09:47:11.0000000+00:00</time></trkpt><trkpt lat="31.25082334" lon="35.59262655"><ele>210.2</ele><time>2015-11-21T09:47:26.0000000+00:00</time></trkpt><trkpt lat="31.25081353" lon="35.59263702"><ele>210.2</ele><time>2015-11-21T09:47:27.0000000+00:00</time></trkpt><trkpt lat="31.25078361" lon="35.59269402"><ele>211.2</ele><time>2015-11-21T09:47:32.0000000+00:00</time></trkpt><trkpt lat="31.25066718" lon="35.59288622"><ele>213.6</ele><time>2015-11-21T09:47:48.0000000+00:00</time></trkpt><trkpt lat="31.25065964" lon="35.59290365"><ele>213.6</ele><time>2015-11-21T09:48:01.0000000+00:00</time></trkpt><trkpt lat="31.25065888" lon="35.5928977"><ele>213.6</ele><time>2015-11-21T09:48:15.0000000+00:00</time></trkpt><trkpt lat="31.25068042" lon="35.59289644"><ele>212.6</ele><time>2015-11-21T09:48:30.0000000+00:00</time></trkpt><trkpt lat="31.25068026" lon="35.59289938"><ele>213.1</ele><time>2015-11-21T09:49:05.0000000+00:00</time></trkpt><trkpt lat="31.25068193" lon="35.59292779"><ele>213.1</ele><time>2015-11-21T09:49:46.0000000+00:00</time></trkpt><trkpt lat="31.25067129" lon="35.59293693"><ele>213.1</ele><time>2015-11-21T09:50:32.0000000+00:00</time></trkpt><trkpt lat="31.25068403" lon="35.59292444"><ele>213.6</ele><time>2015-11-21T09:51:18.0000000+00:00</time></trkpt><trkpt lat="31.25067925" lon="35.59293542"><ele>213.1</ele><time>2015-11-21T09:51:58.0000000+00:00</time></trkpt><trkpt lat="31.25067707" lon="35.59292947"><ele>213.6</ele><time>2015-11-21T09:52:39.0000000+00:00</time></trkpt><trkpt lat="31.25067716" lon="35.59292863"><ele>213.6</ele><time>2015-11-21T09:53:15.0000000+00:00</time></trkpt><trkpt lat="31.25067548" lon="35.5929267"><ele>213.1</ele><time>2015-11-21T09:53:59.0000000+00:00</time></trkpt><trkpt lat="31.2506847" lon="35.59291421"><ele>213.1</ele><time>2015-11-21T09:54:41.0000000+00:00</time></trkpt><trkpt lat="31.2506769" lon="35.59290709"><ele>213.1</ele><time>2015-11-21T09:55:15.0000000+00:00</time></trkpt><trkpt lat="31.25068394" lon="35.59292704"><ele>213.1</ele><time>2015-11-21T09:55:56.0000000+00:00</time></trkpt><trkpt lat="31.25069467" lon="35.59294355"><ele>214.5</ele><time>2015-11-21T09:56:17.0000000+00:00</time></trkpt><trkpt lat="31.25067623" lon="35.59302276"><ele>215.0</ele><time>2015-11-21T09:56:29.0000000+00:00</time></trkpt><trkpt lat="31.25066349" lon="35.5930619"><ele>215.5</ele><time>2015-11-21T09:56:33.0000000+00:00</time></trkpt><trkpt lat="31.25064824" lon="35.59312167"><ele>216.0</ele><time>2015-11-21T09:56:38.0000000+00:00</time></trkpt><trkpt lat="31.25064044" lon="35.59327539"><ele>217.4</ele><time>2015-11-21T09:56:49.0000000+00:00</time></trkpt><trkpt lat="31.2506422" lon="35.59336524"><ele>217.9</ele><time>2015-11-21T09:56:55.0000000+00:00</time></trkpt><trkpt lat="31.25070892" lon="35.59366331"><ele>219.3</ele><time>2015-11-21T09:57:11.0000000+00:00</time></trkpt><trkpt lat="31.25078428" lon="35.59383002"><ele>220.8</ele><time>2015-11-21T09:57:21.0000000+00:00</time></trkpt><trkpt lat="31.25082568" lon="35.59389389"><ele>221.2</ele><time>2015-11-21T09:57:25.0000000+00:00</time></trkpt><trkpt lat="31.25086701" lon="35.5939643"><ele>221.7</ele><time>2015-11-21T09:57:29.0000000+00:00</time></trkpt><trkpt lat="31.25096256" lon="35.59408416"><ele>222.7</ele><time>2015-11-21T09:57:37.0000000+00:00</time></trkpt><trkpt lat="31.25101176" lon="35.59413638"><ele>223.2</ele><time>2015-11-21T09:57:41.0000000+00:00</time></trkpt><trkpt lat="31.25113674" lon="35.59422632"><ele>224.1</ele><time>2015-11-21T09:57:49.0000000+00:00</time></trkpt><trkpt lat="31.2513814" lon="35.59436261"><ele>226.1</ele><time>2015-11-21T09:58:02.0000000+00:00</time></trkpt><trkpt lat="31.25171534" lon="35.59448683"><ele>228.0</ele><time>2015-11-21T09:58:19.0000000+00:00</time></trkpt><trkpt lat="31.2520305" lon="35.5946382"><ele>230.4</ele><time>2015-11-21T09:58:36.0000000+00:00</time></trkpt><trkpt lat="31.25233468" lon="35.59482571"><ele>232.8</ele><time>2015-11-21T09:58:53.0000000+00:00</time></trkpt><trkpt lat="31.2525754" lon="35.59503785"><ele>235.7</ele><time>2015-11-21T09:59:09.0000000+00:00</time></trkpt><trkpt lat="31.25264397" lon="35.59512016"><ele>236.6</ele><time>2015-11-21T09:59:15.0000000+00:00</time></trkpt><trkpt lat="31.25265872" lon="35.59513332"><ele>236.6</ele><time>2015-11-21T09:59:16.0000000+00:00</time></trkpt><trkpt lat="31.25267004" lon="35.59514816"><ele>237.1</ele><time>2015-11-21T09:59:17.0000000+00:00</time></trkpt><trkpt lat="31.25283499" lon="35.59536927"><ele>240.0</ele><time>2015-11-21T09:59:32.0000000+00:00</time></trkpt><trkpt lat="31.25298235" lon="35.5955919"><ele>242.4</ele><time>2015-11-21T09:59:47.0000000+00:00</time></trkpt><trkpt lat="31.25310573" lon="35.59579206"><ele>245.8</ele><time>2015-11-21T09:59:59.0000000+00:00</time></trkpt><trkpt lat="31.25324487" lon="35.59603597"><ele>248.2</ele><time>2015-11-21T10:00:14.0000000+00:00</time></trkpt><trkpt lat="31.2533623" lon="35.59629338"><ele>251.0</ele><time>2015-11-21T10:00:29.0000000+00:00</time></trkpt><trkpt lat="31.25347487" lon="35.59656118"><ele>253.9</ele><time>2015-11-21T10:00:45.0000000+00:00</time></trkpt><trkpt lat="31.25353974" lon="35.59673728"><ele>255.4</ele><time>2015-11-21T10:00:55.0000000+00:00</time></trkpt><trkpt lat="31.25354553" lon="35.59675782"><ele>255.9</ele><time>2015-11-21T10:00:56.0000000+00:00</time></trkpt><trkpt lat="31.25355382" lon="35.59677668"><ele>255.9</ele><time>2015-11-21T10:00:57.0000000+00:00</time></trkpt><trkpt lat="31.25366078" lon="35.59703157"><ele>259.2</ele><time>2015-11-21T10:01:11.0000000+00:00</time></trkpt><trkpt lat="31.25376279" lon="35.59725403"><ele>261.1</ele><time>2015-11-21T10:01:24.0000000+00:00</time></trkpt><trkpt lat="31.25386907" lon="35.59747959"><ele>263.5</ele><time>2015-11-21T10:01:38.0000000+00:00</time></trkpt><trkpt lat="31.25403042" lon="35.59774915"><ele>266.9</ele><time>2015-11-21T10:01:55.0000000+00:00</time></trkpt><trkpt lat="31.25420778" lon="35.59800186"><ele>269.8</ele><time>2015-11-21T10:02:13.0000000+00:00</time></trkpt><trkpt lat="31.25434558" lon="35.59821459"><ele>272.7</ele><time>2015-11-21T10:02:28.0000000+00:00</time></trkpt><trkpt lat="31.25454222" lon="35.59845909"><ele>275.1</ele><time>2015-11-21T10:02:47.0000000+00:00</time></trkpt><trkpt lat="31.25455077" lon="35.59847401"><ele>275.6</ele><time>2015-11-21T10:02:48.0000000+00:00</time></trkpt><trkpt lat="31.25455923" lon="35.59849078"><ele>275.6</ele><time>2015-11-21T10:02:49.0000000+00:00</time></trkpt><trkpt lat="31.2546998" lon="35.59872212"><ele>278.4</ele><time>2015-11-21T10:03:04.0000000+00:00</time></trkpt><trkpt lat="31.25480466" lon="35.59898456"><ele>280.4</ele><time>2015-11-21T10:03:20.0000000+00:00</time></trkpt><trkpt lat="31.25486651" lon="35.59915253"><ele>281.3</ele><time>2015-11-21T10:03:31.0000000+00:00</time></trkpt><trkpt lat="31.25487481" lon="35.59916787"><ele>281.3</ele><time>2015-11-21T10:03:32.0000000+00:00</time></trkpt><trkpt lat="31.25488252" lon="35.59918245"><ele>281.3</ele><time>2015-11-21T10:03:33.0000000+00:00</time></trkpt><trkpt lat="31.25497045" lon="35.59940181"><ele>284.7</ele><time>2015-11-21T10:03:47.0000000+00:00</time></trkpt><trkpt lat="31.25508822" lon="35.59963474"><ele>287.1</ele><time>2015-11-21T10:04:02.0000000+00:00</time></trkpt><trkpt lat="31.25516005" lon="35.59979416"><ele>289.0</ele><time>2015-11-21T10:04:12.0000000+00:00</time></trkpt><trkpt lat="31.25523423" lon="35.59993959"><ele>290.0</ele><time>2015-11-21T10:04:22.0000000+00:00</time></trkpt><trkpt lat="31.25523716" lon="35.59995711"><ele>290.0</ele><time>2015-11-21T10:04:23.0000000+00:00</time></trkpt><trkpt lat="31.25534981" lon="35.60018878"><ele>292.9</ele><time>2015-11-21T10:04:39.0000000+00:00</time></trkpt><trkpt lat="31.2554452" lon="35.60041543"><ele>295.3</ele><time>2015-11-21T10:04:55.0000000+00:00</time></trkpt><trkpt lat="31.25554704" lon="35.60063554"><ele>298.2</ele><time>2015-11-21T10:05:11.0000000+00:00</time></trkpt><trkpt lat="31.25560588" lon="35.60077325"><ele>300.1</ele><time>2015-11-21T10:05:21.0000000+00:00</time></trkpt><trkpt lat="31.25560923" lon="35.60078918"><ele>300.6</ele><time>2015-11-21T10:05:22.0000000+00:00</time></trkpt><trkpt lat="31.25571501" lon="35.60101256"><ele>303.4</ele><time>2015-11-21T10:05:38.0000000+00:00</time></trkpt><trkpt lat="31.25580378" lon="35.60123074"><ele>306.8</ele><time>2015-11-21T10:05:54.0000000+00:00</time></trkpt><trkpt lat="31.25584141" lon="35.60134213"><ele>307.8</ele><time>2015-11-21T10:06:02.0000000+00:00</time></trkpt><trkpt lat="31.2558482" lon="35.60135504"><ele>308.2</ele><time>2015-11-21T10:06:03.0000000+00:00</time></trkpt><trkpt lat="31.25585105" lon="35.60136921"><ele>307.8</ele><time>2015-11-21T10:06:04.0000000+00:00</time></trkpt><trkpt lat="31.25585214" lon="35.60138145"><ele>308.2</ele><time>2015-11-21T10:06:05.0000000+00:00</time></trkpt><trkpt lat="31.25585558" lon="35.60139486"><ele>308.2</ele><time>2015-11-21T10:06:06.0000000+00:00</time></trkpt><trkpt lat="31.25585969" lon="35.60140827"><ele>308.7</ele><time>2015-11-21T10:06:07.0000000+00:00</time></trkpt><trkpt lat="31.25586279" lon="35.60142227"><ele>308.7</ele><time>2015-11-21T10:06:08.0000000+00:00</time></trkpt><trkpt lat="31.2558674" lon="35.60143685"><ele>309.2</ele><time>2015-11-21T10:06:09.0000000+00:00</time></trkpt><trkpt lat="31.25589011" lon="35.60151187"><ele>310.6</ele><time>2015-11-21T10:06:15.0000000+00:00</time></trkpt><trkpt lat="31.25589615" lon="35.6015231"><ele>310.2</ele><time>2015-11-21T10:06:16.0000000+00:00</time></trkpt><trkpt lat="31.25589774" lon="35.60153525"><ele>310.6</ele><time>2015-11-21T10:06:17.0000000+00:00</time></trkpt><trkpt lat="31.25589933" lon="35.60155403"><ele>310.6</ele><time>2015-11-21T10:06:19.0000000+00:00</time></trkpt><trkpt lat="31.25591316" lon="35.60160005"><ele>311.1</ele><time>2015-11-21T10:06:23.0000000+00:00</time></trkpt><trkpt lat="31.25591601" lon="35.60165143"><ele>311.6</ele><time>2015-11-21T10:06:27.0000000+00:00</time></trkpt><trkpt lat="31.25591534" lon="35.60166501"><ele>311.6</ele><time>2015-11-21T10:06:28.0000000+00:00</time></trkpt><trkpt lat="31.25591702" lon="35.60167741"><ele>312.1</ele><time>2015-11-21T10:06:29.0000000+00:00</time></trkpt><trkpt lat="31.25592071" lon="35.60172988"><ele>312.6</ele><time>2015-11-21T10:06:33.0000000+00:00</time></trkpt><trkpt lat="31.2559192" lon="35.60174589"><ele>313.1</ele><time>2015-11-21T10:06:34.0000000+00:00</time></trkpt><trkpt lat="31.25592004" lon="35.60175997"><ele>313.1</ele><time>2015-11-21T10:06:35.0000000+00:00</time></trkpt><trkpt lat="31.25592012" lon="35.60177271"><ele>313.5</ele><time>2015-11-21T10:06:36.0000000+00:00</time></trkpt><trkpt lat="31.25591903" lon="35.60178688"><ele>314.0</ele><time>2015-11-21T10:06:37.0000000+00:00</time></trkpt><trkpt lat="31.25591869" lon="35.6017997"><ele>314.0</ele><time>2015-11-21T10:06:38.0000000+00:00</time></trkpt><trkpt lat="31.25591719" lon="35.60181295"><ele>314.0</ele><time>2015-11-21T10:06:39.0000000+00:00</time></trkpt><trkpt lat="31.25591568" lon="35.60182812"><ele>314.0</ele><time>2015-11-21T10:06:40.0000000+00:00</time></trkpt><trkpt lat="31.25591559" lon="35.60184279"><ele>314.5</ele><time>2015-11-21T10:06:41.0000000+00:00</time></trkpt><trkpt lat="31.25591316" lon="35.60185594"><ele>314.5</ele><time>2015-11-21T10:06:42.0000000+00:00</time></trkpt><trkpt lat="31.25590637" lon="35.60187137"><ele>315.0</ele><time>2015-11-21T10:06:44.0000000+00:00</time></trkpt><trkpt lat="31.25590537" lon="35.60188461"><ele>315.0</ele><time>2015-11-21T10:06:45.0000000+00:00</time></trkpt><trkpt lat="31.25590134" lon="35.6018966"><ele>315.0</ele><time>2015-11-21T10:06:46.0000000+00:00</time></trkpt><trkpt lat="31.25589162" lon="35.60190733"><ele>315.5</ele><time>2015-11-21T10:06:47.0000000+00:00</time></trkpt><trkpt lat="31.25588022" lon="35.60193909"><ele>315.5</ele><time>2015-11-21T10:06:57.0000000+00:00</time></trkpt><trkpt lat="31.25586564" lon="35.60199349"><ele>315.9</ele><time>2015-11-21T10:07:11.0000000+00:00</time></trkpt><trkpt lat="31.25584938" lon="35.6020411"><ele>316.4</ele><time>2015-11-21T10:07:25.0000000+00:00</time></trkpt><trkpt lat="31.25590369" lon="35.60207614"><ele>316.9</ele><time>2015-11-21T10:07:29.0000000+00:00</time></trkpt><trkpt lat="31.2559114" lon="35.60219189"><ele>318.8</ele><time>2015-11-21T10:07:44.0000000+00:00</time></trkpt><trkpt lat="31.2559632" lon="35.60225987"><ele>317.4</ele><time>2015-11-21T10:07:58.0000000+00:00</time></trkpt><trkpt lat="31.25604618" lon="35.60226565"><ele>316.9</ele><time>2015-11-21T10:08:13.0000000+00:00</time></trkpt><trkpt lat="31.25602431" lon="35.60226473"><ele>316.4</ele><time>2015-11-21T10:08:48.0000000+00:00</time></trkpt><trkpt lat="31.25603579" lon="35.60226029"><ele>316.9</ele><time>2015-11-21T10:09:31.0000000+00:00</time></trkpt><trkpt lat="31.25603093" lon="35.60226012"><ele>318.3</ele><time>2015-11-21T10:10:12.0000000+00:00</time></trkpt><trkpt lat="31.25605054" lon="35.60226364"><ele>317.4</ele><time>2015-11-21T10:10:52.0000000+00:00</time></trkpt><trkpt lat="31.25604576" lon="35.60226473"><ele>318.3</ele><time>2015-11-21T10:11:27.0000000+00:00</time></trkpt><trkpt lat="31.25604384" lon="35.60226272"><ele>317.9</ele><time>2015-11-21T10:12:05.0000000+00:00</time></trkpt><trkpt lat="31.25604149" lon="35.602253"><ele>317.4</ele><time>2015-11-21T10:12:32.0000000+00:00</time></trkpt><trkpt lat="31.25602447" lon="35.60227429"><ele>316.9</ele><time>2015-11-21T10:13:02.0000000+00:00</time></trkpt><trkpt lat="31.25602883" lon="35.60226532"><ele>317.4</ele><time>2015-11-21T10:13:27.0000000+00:00</time></trkpt><trkpt lat="31.25605314" lon="35.60226046"><ele>317.4</ele><time>2015-11-21T10:13:56.0000000+00:00</time></trkpt><trkpt lat="31.25603093" lon="35.60223447"><ele>317.9</ele><time>2015-11-21T10:14:21.0000000+00:00</time></trkpt><trkpt lat="31.25602037" lon="35.60224855"><ele>317.9</ele><time>2015-11-21T10:14:43.0000000+00:00</time></trkpt><trkpt lat="31.25598298" lon="35.60226926"><ele>318.3</ele><time>2015-11-21T10:15:05.0000000+00:00</time></trkpt><trkpt lat="31.25592976" lon="35.60224822"><ele>318.8</ele><time>2015-11-21T10:15:12.0000000+00:00</time></trkpt><trkpt lat="31.25589606" lon="35.60217706"><ele>319.3</ele><time>2015-11-21T10:15:25.0000000+00:00</time></trkpt><trkpt lat="31.25589447" lon="35.60218435"><ele>319.8</ele><time>2015-11-21T10:15:43.0000000+00:00</time></trkpt><trkpt lat="31.25589866" lon="35.60218611"><ele>319.3</ele><time>2015-11-21T10:15:52.0000000+00:00</time></trkpt><trkpt lat="31.25583806" lon="35.60213699"><ele>319.3</ele><time>2015-11-21T10:15:57.0000000+00:00</time></trkpt><trkpt lat="31.25581744" lon="35.60213665"><ele>319.3</ele><time>2015-11-21T10:15:58.0000000+00:00</time></trkpt><trkpt lat="31.2558016" lon="35.6021364"><ele>319.3</ele><time>2015-11-21T10:15:59.0000000+00:00</time></trkpt><trkpt lat="31.25579121" lon="35.60213942"><ele>319.3</ele><time>2015-11-21T10:16:00.0000000+00:00</time></trkpt><trkpt lat="31.25578148" lon="35.60214445"><ele>319.3</ele><time>2015-11-21T10:16:01.0000000+00:00</time></trkpt><trkpt lat="31.25577285" lon="35.60215074"><ele>319.3</ele><time>2015-11-21T10:16:02.0000000+00:00</time></trkpt><trkpt lat="31.25576137" lon="35.60215686"><ele>319.8</ele><time>2015-11-21T10:16:03.0000000+00:00</time></trkpt><trkpt lat="31.25561133" lon="35.60226406"><ele>320.7</ele><time>2015-11-21T10:16:15.0000000+00:00</time></trkpt><trkpt lat="31.25559742" lon="35.60226942"><ele>320.7</ele><time>2015-11-21T10:16:16.0000000+00:00</time></trkpt><trkpt lat="31.25558577" lon="35.6022804"><ele>320.7</ele><time>2015-11-21T10:16:17.0000000+00:00</time></trkpt><trkpt lat="31.25557051" lon="35.60228879"><ele>321.2</ele><time>2015-11-21T10:16:18.0000000+00:00</time></trkpt><trkpt lat="31.25555735" lon="35.60229817"><ele>321.2</ele><time>2015-11-21T10:16:19.0000000+00:00</time></trkpt><trkpt lat="31.25554344" lon="35.60230681"><ele>321.7</ele><time>2015-11-21T10:16:20.0000000+00:00</time></trkpt><trkpt lat="31.25552952" lon="35.60231477"><ele>321.7</ele><time>2015-11-21T10:16:21.0000000+00:00</time></trkpt><trkpt lat="31.25551578" lon="35.60232407"><ele>322.2</ele><time>2015-11-21T10:16:22.0000000+00:00</time></trkpt><trkpt lat="31.25539893" lon="35.60240001"><ele>323.1</ele><time>2015-11-21T10:16:31.0000000+00:00</time></trkpt><trkpt lat="31.25538644" lon="35.60241058"><ele>323.1</ele><time>2015-11-21T10:16:32.0000000+00:00</time></trkpt><trkpt lat="31.25523272" lon="35.60250898"><ele>325.1</ele><time>2015-11-21T10:16:44.0000000+00:00</time></trkpt><trkpt lat="31.25522325" lon="35.60252004"><ele>325.1</ele><time>2015-11-21T10:16:45.0000000+00:00</time></trkpt><trkpt lat="31.25521101" lon="35.60252775"><ele>325.5</ele><time>2015-11-21T10:16:46.0000000+00:00</time></trkpt><trkpt lat="31.25519785" lon="35.60253245"><ele>325.5</ele><time>2015-11-21T10:16:47.0000000+00:00</time></trkpt><trkpt lat="31.25518469" lon="35.60254041"><ele>325.5</ele><time>2015-11-21T10:16:48.0000000+00:00</time></trkpt><trkpt lat="31.2551722" lon="35.6025534"><ele>326.0</ele><time>2015-11-21T10:16:49.0000000+00:00</time></trkpt><trkpt lat="31.25498302" lon="35.60272808"><ele>328.4</ele><time>2015-11-21T10:17:04.0000000+00:00</time></trkpt><trkpt lat="31.25487071" lon="35.60290745"><ele>329.9</ele><time>2015-11-21T10:17:17.0000000+00:00</time></trkpt><trkpt lat="31.25479133" lon="35.60310745"><ele>331.8</ele><time>2015-11-21T10:17:30.0000000+00:00</time></trkpt><trkpt lat="31.25469871" lon="35.60340266"><ele>334.2</ele><time>2015-11-21T10:17:46.0000000+00:00</time></trkpt><trkpt lat="31.25461849" lon="35.60364489"><ele>336.1</ele><time>2015-11-21T10:18:00.0000000+00:00</time></trkpt><trkpt lat="31.25447986" lon="35.60394069"><ele>338.0</ele><time>2015-11-21T10:18:15.0000000+00:00</time></trkpt><trkpt lat="31.25428523" lon="35.60419852"><ele>339.0</ele><time>2015-11-21T10:18:29.0000000+00:00</time></trkpt><trkpt lat="31.25408951" lon="35.60443128"><ele>340.0</ele><time>2015-11-21T10:18:42.0000000+00:00</time></trkpt><trkpt lat="31.25390419" lon="35.60478056"><ele>342.4</ele><time>2015-11-21T10:18:57.0000000+00:00</time></trkpt><trkpt lat="31.25378324" lon="35.60518566"><ele>343.8</ele><time>2015-11-21T10:19:11.0000000+00:00</time></trkpt><trkpt lat="31.25356472" lon="35.60569754"><ele>345.3</ele><time>2015-11-21T10:19:27.0000000+00:00</time></trkpt><trkpt lat="31.25335509" lon="35.60627438"><ele>346.2</ele><time>2015-11-21T10:19:45.0000000+00:00</time></trkpt><trkpt lat="31.2531634" lon="35.60678207"><ele>347.7</ele><time>2015-11-21T10:20:00.0000000+00:00</time></trkpt><trkpt lat="31.25302074" lon="35.60731273"><ele>349.1</ele><time>2015-11-21T10:20:18.0000000+00:00</time></trkpt><trkpt lat="31.25303834" lon="35.60766997"><ele>351.0</ele><time>2015-11-21T10:20:32.0000000+00:00</time></trkpt><trkpt lat="31.2530613" lon="35.60782084"><ele>352.5</ele><time>2015-11-21T10:20:41.0000000+00:00</time></trkpt><trkpt lat="31.25306197" lon="35.60783568"><ele>352.5</ele><time>2015-11-21T10:20:42.0000000+00:00</time></trkpt><trkpt lat="31.25306449" lon="35.60785295"><ele>352.5</ele><time>2015-11-21T10:20:43.0000000+00:00</time></trkpt><trkpt lat="31.25311445" lon="35.60812376"><ele>354.9</ele><time>2015-11-21T10:20:59.0000000+00:00</time></trkpt><trkpt lat="31.25311579" lon="35.60814162"><ele>354.9</ele><time>2015-11-21T10:21:00.0000000+00:00</time></trkpt><trkpt lat="31.25311864" lon="35.60815662"><ele>355.3</ele><time>2015-11-21T10:21:01.0000000+00:00</time></trkpt><trkpt lat="31.25319181" lon="35.60842518"><ele>357.3</ele><time>2015-11-21T10:21:18.0000000+00:00</time></trkpt><trkpt lat="31.25320296" lon="35.60848746"><ele>358.2</ele><time>2015-11-21T10:21:22.0000000+00:00</time></trkpt><trkpt lat="31.25320019" lon="35.60850263"><ele>358.7</ele><time>2015-11-21T10:21:23.0000000+00:00</time></trkpt><trkpt lat="31.25320011" lon="35.60852023"><ele>358.7</ele><time>2015-11-21T10:21:24.0000000+00:00</time></trkpt><trkpt lat="31.25320564" lon="35.60853599"><ele>358.7</ele><time>2015-11-21T10:21:25.0000000+00:00</time></trkpt><trkpt lat="31.25321268" lon="35.6085525"><ele>359.2</ele><time>2015-11-21T10:21:26.0000000+00:00</time></trkpt><trkpt lat="31.25321821" lon="35.6085675"><ele>359.2</ele><time>2015-11-21T10:21:27.0000000+00:00</time></trkpt><trkpt lat="31.25321788" lon="35.60858251"><ele>359.2</ele><time>2015-11-21T10:21:28.0000000+00:00</time></trkpt><trkpt lat="31.25321545" lon="35.60859659"><ele>359.7</ele><time>2015-11-21T10:21:29.0000000+00:00</time></trkpt><trkpt lat="31.25321679" lon="35.60861293"><ele>359.7</ele><time>2015-11-21T10:21:30.0000000+00:00</time></trkpt><trkpt lat="31.25322115" lon="35.60862869"><ele>359.7</ele><time>2015-11-21T10:21:31.0000000+00:00</time></trkpt><trkpt lat="31.25322668" lon="35.60864378"><ele>359.7</ele><time>2015-11-21T10:21:32.0000000+00:00</time></trkpt><trkpt lat="31.25327647" lon="35.60892264"><ele>362.1</ele><time>2015-11-21T10:21:49.0000000+00:00</time></trkpt><trkpt lat="31.25327345" lon="35.60894184"><ele>362.6</ele><time>2015-11-21T10:21:50.0000000+00:00</time></trkpt><trkpt lat="31.25327462" lon="35.60896128"><ele>362.6</ele><time>2015-11-21T10:21:51.0000000+00:00</time></trkpt><trkpt lat="31.25328091" lon="35.60901945"><ele>363.0</ele><time>2015-11-21T10:21:54.0000000+00:00</time></trkpt><trkpt lat="31.25327915" lon="35.60904167"><ele>363.0</ele><time>2015-11-21T10:21:55.0000000+00:00</time></trkpt><trkpt lat="31.25328083" lon="35.6090643"><ele>363.0</ele><time>2015-11-21T10:21:56.0000000+00:00</time></trkpt><trkpt lat="31.25328166" lon="35.60908601"><ele>363.0</ele><time>2015-11-21T10:21:57.0000000+00:00</time></trkpt><trkpt lat="31.25328208" lon="35.60910805"><ele>363.0</ele><time>2015-11-21T10:21:58.0000000+00:00</time></trkpt><trkpt lat="31.25327311" lon="35.60930058"><ele>364.0</ele><time>2015-11-21T10:22:08.0000000+00:00</time></trkpt><trkpt lat="31.25322836" lon="35.60959278"><ele>367.4</ele><time>2015-11-21T10:22:24.0000000+00:00</time></trkpt><trkpt lat="31.25316231" lon="35.60983946"><ele>368.8</ele><time>2015-11-21T10:22:38.0000000+00:00</time></trkpt><trkpt lat="31.25303867" lon="35.61008932"><ele>371.7</ele><time>2015-11-21T10:22:53.0000000+00:00</time></trkpt><trkpt lat="31.2528707" lon="35.61035092"><ele>372.7</ele><time>2015-11-21T10:23:06.0000000+00:00</time></trkpt><trkpt lat="31.25267515" lon="35.61067589"><ele>373.6</ele><time>2015-11-21T10:23:20.0000000+00:00</time></trkpt><trkpt lat="31.25254028" lon="35.61117335"><ele>374.6</ele><time>2015-11-21T10:23:36.0000000+00:00</time></trkpt><trkpt lat="31.25262276" lon="35.61163327"><ele>374.6</ele><time>2015-11-21T10:23:49.0000000+00:00</time></trkpt><trkpt lat="31.25288252" lon="35.61208958"><ele>374.1</ele><time>2015-11-21T10:24:01.0000000+00:00</time></trkpt><trkpt lat="31.25308234" lon="35.61248336"><ele>372.7</ele><time>2015-11-21T10:24:08.0000000+00:00</time></trkpt><trkpt lat="31.2532556" lon="35.6130721"><ele>371.7</ele><time>2015-11-21T10:24:18.0000000+00:00</time></trkpt><trkpt lat="31.25326473" lon="35.61312273"><ele>371.7</ele><time>2015-11-21T10:24:19.0000000+00:00</time></trkpt><trkpt lat="31.25328971" lon="35.61366546"><ele>372.7</ele><time>2015-11-21T10:24:32.0000000+00:00</time></trkpt><trkpt lat="31.25326473" lon="35.61404776"><ele>373.6</ele><time>2015-11-21T10:24:43.0000000+00:00</time></trkpt><trkpt lat="31.2532136" lon="35.61438044"><ele>375.5</ele><time>2015-11-21T10:24:57.0000000+00:00</time></trkpt><trkpt lat="31.2531468" lon="35.61466433"><ele>377.5</ele><time>2015-11-21T10:25:11.0000000+00:00</time></trkpt><trkpt lat="31.25311076" lon="35.61476567"><ele>378.4</ele><time>2015-11-21T10:25:16.0000000+00:00</time></trkpt><trkpt lat="31.25310573" lon="35.61478847"><ele>378.4</ele><time>2015-11-21T10:25:17.0000000+00:00</time></trkpt><trkpt lat="31.25302526" lon="35.61505183"><ele>381.3</ele><time>2015-11-21T10:25:31.0000000+00:00</time></trkpt><trkpt lat="31.25293616" lon="35.61528778"><ele>380.8</ele><time>2015-11-21T10:25:45.0000000+00:00</time></trkpt><trkpt lat="31.25283298" lon="35.61560185"><ele>382.7</ele><time>2015-11-21T10:26:03.0000000+00:00</time></trkpt><trkpt lat="31.25278177" lon="35.61587476"><ele>384.2</ele><time>2015-11-21T10:26:18.0000000+00:00</time></trkpt><trkpt lat="31.25274757" lon="35.6162014"><ele>387.1</ele><time>2015-11-21T10:26:35.0000000+00:00</time></trkpt><trkpt lat="31.25271019" lon="35.61646753"><ele>389.0</ele><time>2015-11-21T10:26:49.0000000+00:00</time></trkpt><trkpt lat="31.25266341" lon="35.61673324"><ele>390.9</ele><time>2015-11-21T10:27:05.0000000+00:00</time></trkpt><trkpt lat="31.25263198" lon="35.6168562"><ele>392.4</ele><time>2015-11-21T10:27:13.0000000+00:00</time></trkpt><trkpt lat="31.25262578" lon="35.61687129"><ele>392.8</ele><time>2015-11-21T10:27:14.0000000+00:00</time></trkpt><trkpt lat="31.25262058" lon="35.6168857"><ele>392.8</ele><time>2015-11-21T10:27:15.0000000+00:00</time></trkpt><trkpt lat="31.25261832" lon="35.61689962"><ele>392.8</ele><time>2015-11-21T10:27:16.0000000+00:00</time></trkpt><trkpt lat="31.25261488" lon="35.61691655"><ele>393.3</ele><time>2015-11-21T10:27:17.0000000+00:00</time></trkpt><trkpt lat="31.25260994" lon="35.61693256"><ele>393.3</ele><time>2015-11-21T10:27:18.0000000+00:00</time></trkpt><trkpt lat="31.2525397" lon="35.61715552"><ele>395.7</ele><time>2015-11-21T10:27:32.0000000+00:00</time></trkpt><trkpt lat="31.25243233" lon="35.61740496"><ele>398.6</ele><time>2015-11-21T10:27:49.0000000+00:00</time></trkpt><trkpt lat="31.25241003" lon="35.61744813"><ele>399.6</ele><time>2015-11-21T10:27:52.0000000+00:00</time></trkpt><trkpt lat="31.25240425" lon="35.61746372"><ele>399.6</ele><time>2015-11-21T10:27:53.0000000+00:00</time></trkpt><trkpt lat="31.25230744" lon="35.61766874"><ele>402.0</ele><time>2015-11-21T10:28:08.0000000+00:00</time></trkpt><trkpt lat="31.25229897" lon="35.61768115"><ele>402.0</ele><time>2015-11-21T10:28:09.0000000+00:00</time></trkpt><trkpt lat="31.25220174" lon="35.6178855"><ele>403.4</ele><time>2015-11-21T10:28:24.0000000+00:00</time></trkpt><trkpt lat="31.2520921" lon="35.61809982"><ele>406.3</ele><time>2015-11-21T10:28:40.0000000+00:00</time></trkpt><trkpt lat="31.25198213" lon="35.61828774"><ele>408.2</ele><time>2015-11-21T10:28:54.0000000+00:00</time></trkpt><trkpt lat="31.25197803" lon="35.61830241"><ele>408.2</ele><time>2015-11-21T10:28:55.0000000+00:00</time></trkpt><trkpt lat="31.2519704" lon="35.61831356"><ele>408.2</ele><time>2015-11-21T10:28:56.0000000+00:00</time></trkpt><trkpt lat="31.25196143" lon="35.61832697"><ele>408.7</ele><time>2015-11-21T10:28:57.0000000+00:00</time></trkpt><trkpt lat="31.25195347" lon="35.61833971"><ele>408.7</ele><time>2015-11-21T10:28:58.0000000+00:00</time></trkpt><trkpt lat="31.25188499" lon="35.61844717"><ele>411.1</ele><time>2015-11-21T10:29:06.0000000+00:00</time></trkpt><trkpt lat="31.25178206" lon="35.61859226"><ele>411.1</ele><time>2015-11-21T10:29:17.0000000+00:00</time></trkpt><trkpt lat="31.25177359" lon="35.61860517"><ele>411.6</ele><time>2015-11-21T10:29:18.0000000+00:00</time></trkpt><trkpt lat="31.25176353" lon="35.61861933"><ele>412.1</ele><time>2015-11-21T10:29:19.0000000+00:00</time></trkpt><trkpt lat="31.25162121" lon="35.61880466"><ele>413.0</ele><time>2015-11-21T10:29:34.0000000+00:00</time></trkpt><trkpt lat="31.2515622" lon="35.61888068"><ele>414.0</ele><time>2015-11-21T10:29:40.0000000+00:00</time></trkpt><trkpt lat="31.25155156" lon="35.618892"><ele>414.0</ele><time>2015-11-21T10:29:41.0000000+00:00</time></trkpt><trkpt lat="31.25154108" lon="35.61890499"><ele>414.0</ele><time>2015-11-21T10:29:42.0000000+00:00</time></trkpt><trkpt lat="31.25153102" lon="35.61891932"><ele>414.0</ele><time>2015-11-21T10:29:43.0000000+00:00</time></trkpt><trkpt lat="31.25152063" lon="35.6189329"><ele>414.0</ele><time>2015-11-21T10:29:44.0000000+00:00</time></trkpt><trkpt lat="31.2515083" lon="35.61894522"><ele>413.5</ele><time>2015-11-21T10:29:45.0000000+00:00</time></trkpt><trkpt lat="31.251498" lon="35.61895905"><ele>414.0</ele><time>2015-11-21T10:29:46.0000000+00:00</time></trkpt><trkpt lat="31.25148593" lon="35.61897229"><ele>414.0</ele><time>2015-11-21T10:29:47.0000000+00:00</time></trkpt><trkpt lat="31.2514726" lon="35.61898679"><ele>414.5</ele><time>2015-11-21T10:29:48.0000000+00:00</time></trkpt><trkpt lat="31.2514617" lon="35.6190023"><ele>414.5</ele><time>2015-11-21T10:29:49.0000000+00:00</time></trkpt><trkpt lat="31.25125844" lon="35.61920766"><ele>415.9</ele><time>2015-11-21T10:30:05.0000000+00:00</time></trkpt><trkpt lat="31.25105468" lon="35.61939625"><ele>417.4</ele><time>2015-11-21T10:30:21.0000000+00:00</time></trkpt><trkpt lat="31.25102777" lon="35.61940447"><ele>417.4</ele><time>2015-11-21T10:30:32.0000000+00:00</time></trkpt><trkpt lat="31.25103741" lon="35.6194017"><ele>416.9</ele><time>2015-11-21T10:30:47.0000000+00:00</time></trkpt><trkpt lat="31.25105736" lon="35.61939592"><ele>416.4</ele><time>2015-11-21T10:31:20.0000000+00:00</time></trkpt><trkpt lat="31.2510592" lon="35.61938946"><ele>416.9</ele><time>2015-11-21T10:31:56.0000000+00:00</time></trkpt><trkpt lat="31.25106624" lon="35.61939323"><ele>416.9</ele><time>2015-11-21T10:32:30.0000000+00:00</time></trkpt><trkpt lat="31.25105484" lon="35.61938217"><ele>416.9</ele><time>2015-11-21T10:33:02.0000000+00:00</time></trkpt><trkpt lat="31.25105166" lon="35.61940312"><ele>417.4</ele><time>2015-11-21T10:33:29.0000000+00:00</time></trkpt><trkpt lat="31.25104881" lon="35.61939625"><ele>416.9</ele><time>2015-11-21T10:34:03.0000000+00:00</time></trkpt><trkpt lat="31.25104328" lon="35.6194022"><ele>417.8</ele><time>2015-11-21T10:34:30.0000000+00:00</time></trkpt><trkpt lat="31.25103582" lon="35.61940639"><ele>417.4</ele><time>2015-11-21T10:35:05.0000000+00:00</time></trkpt><trkpt lat="31.25102475" lon="35.61941033"><ele>417.4</ele><time>2015-11-21T10:35:41.0000000+00:00</time></trkpt><trkpt lat="31.25104504" lon="35.61939348"><ele>417.4</ele><time>2015-11-21T10:36:25.0000000+00:00</time></trkpt><trkpt lat="31.25104085" lon="35.61941335"><ele>417.8</ele><time>2015-11-21T10:37:06.0000000+00:00</time></trkpt><trkpt lat="31.25103313" lon="35.61939793"><ele>418.3</ele><time>2015-11-21T10:37:27.0000000+00:00</time></trkpt><trkpt lat="31.25104898" lon="35.61941352"><ele>419.3</ele><time>2015-11-21T10:37:46.0000000+00:00</time></trkpt><trkpt lat="31.25104881" lon="35.61942073"><ele>418.8</ele><time>2015-11-21T10:38:19.0000000+00:00</time></trkpt><trkpt lat="31.25098586" lon="35.6194566"><ele>419.3</ele><time>2015-11-21T10:38:40.0000000+00:00</time></trkpt><trkpt lat="31.250967" lon="35.61947906"><ele>419.3</ele><time>2015-11-21T10:38:47.0000000+00:00</time></trkpt><trkpt lat="31.25095359" lon="35.61950698"><ele>419.3</ele><time>2015-11-21T10:38:50.0000000+00:00</time></trkpt><trkpt lat="31.2509437" lon="35.61951485"><ele>419.8</ele><time>2015-11-21T10:38:51.0000000+00:00</time></trkpt><trkpt lat="31.25093398" lon="35.619526"><ele>419.3</ele><time>2015-11-21T10:38:52.0000000+00:00</time></trkpt><trkpt lat="31.25092191" lon="35.61953967"><ele>419.3</ele><time>2015-11-21T10:38:53.0000000+00:00</time></trkpt><trkpt lat="31.25090732" lon="35.61955433"><ele>419.3</ele><time>2015-11-21T10:38:54.0000000+00:00</time></trkpt><trkpt lat="31.25089047" lon="35.61956825"><ele>419.3</ele><time>2015-11-21T10:38:55.0000000+00:00</time></trkpt><trkpt lat="31.25087488" lon="35.61958015"><ele>419.3</ele><time>2015-11-21T10:38:56.0000000+00:00</time></trkpt><trkpt lat="31.25086022" lon="35.61958996"><ele>419.8</ele><time>2015-11-21T10:38:57.0000000+00:00</time></trkpt><trkpt lat="31.25084396" lon="35.61959943"><ele>419.8</ele><time>2015-11-21T10:38:58.0000000+00:00</time></trkpt><trkpt lat="31.25082535" lon="35.61961267"><ele>419.8</ele><time>2015-11-21T10:38:59.0000000+00:00</time></trkpt><trkpt lat="31.25057532" lon="35.61980361"><ele>419.8</ele><time>2015-11-21T10:39:10.0000000+00:00</time></trkpt><trkpt lat="31.25030718" lon="35.6199477"><ele>418.8</ele><time>2015-11-21T10:39:25.0000000+00:00</time></trkpt><trkpt lat="31.24987861" lon="35.62018482"><ele>417.4</ele><time>2015-11-21T10:39:40.0000000+00:00</time></trkpt><trkpt lat="31.24950838" lon="35.62062504"><ele>416.4</ele><time>2015-11-21T10:39:55.0000000+00:00</time></trkpt><trkpt lat="31.24942272" lon="35.62078178"><ele>416.4</ele><time>2015-11-21T10:39:59.0000000+00:00</time></trkpt><trkpt lat="31.24917923" lon="35.62131805"><ele>416.4</ele><time>2015-11-21T10:40:13.0000000+00:00</time></trkpt><trkpt lat="31.24880665" lon="35.62178233"><ele>416.4</ele><time>2015-11-21T10:40:30.0000000+00:00</time></trkpt><trkpt lat="31.24828194" lon="35.62214996"><ele>416.4</ele><time>2015-11-21T10:40:49.0000000+00:00</time></trkpt><trkpt lat="31.24779378" lon="35.62245254"><ele>417.4</ele><time>2015-11-21T10:41:07.0000000+00:00</time></trkpt><trkpt lat="31.24739866" lon="35.62270182"><ele>419.3</ele><time>2015-11-21T10:41:23.0000000+00:00</time></trkpt><trkpt lat="31.24702885" lon="35.62297348"><ele>422.2</ele><time>2015-11-21T10:41:40.0000000+00:00</time></trkpt><trkpt lat="31.2468224" lon="35.62315973"><ele>423.6</ele><time>2015-11-21T10:41:54.0000000+00:00</time></trkpt><trkpt lat="31.24657656" lon="35.62340003"><ele>426.0</ele><time>2015-11-21T10:42:12.0000000+00:00</time></trkpt><trkpt lat="31.24640054" lon="35.62361285"><ele>426.5</ele><time>2015-11-21T10:42:26.0000000+00:00</time></trkpt><trkpt lat="31.24618806" lon="35.62388141"><ele>427.9</ele><time>2015-11-21T10:42:42.0000000+00:00</time></trkpt><trkpt lat="31.24595362" lon="35.62424728"><ele>429.4</ele><time>2015-11-21T10:43:01.0000000+00:00</time></trkpt><trkpt lat="31.2457698" lon="35.62452254"><ele>430.3</ele><time>2015-11-21T10:43:15.0000000+00:00</time></trkpt><trkpt lat="31.24553293" lon="35.62489092"><ele>432.3</ele><time>2015-11-21T10:43:32.0000000+00:00</time></trkpt><trkpt lat="31.2452912" lon="35.62527657"><ele>432.7</ele><time>2015-11-21T10:43:50.0000000+00:00</time></trkpt><trkpt lat="31.24506363" lon="35.62560691"><ele>434.7</ele><time>2015-11-21T10:44:07.0000000+00:00</time></trkpt><trkpt lat="31.24487629" lon="35.62587605"><ele>436.6</ele><time>2015-11-21T10:44:22.0000000+00:00</time></trkpt><trkpt lat="31.24468703" lon="35.62613765"><ele>437.5</ele><time>2015-11-21T10:44:37.0000000+00:00</time></trkpt><trkpt lat="31.24449818" lon="35.62639589"><ele>439.5</ele><time>2015-11-21T10:44:53.0000000+00:00</time></trkpt><trkpt lat="31.24431051" lon="35.62665087"><ele>440.9</ele><time>2015-11-21T10:45:08.0000000+00:00</time></trkpt><trkpt lat="31.24409342" lon="35.62693292"><ele>442.8</ele><time>2015-11-21T10:45:26.0000000+00:00</time></trkpt><trkpt lat="31.24390265" lon="35.627177"><ele>446.2</ele><time>2015-11-21T10:45:42.0000000+00:00</time></trkpt><trkpt lat="31.24372948" lon="35.62739485"><ele>446.2</ele><time>2015-11-21T10:45:56.0000000+00:00</time></trkpt><trkpt lat="31.24353267" lon="35.62765192"><ele>447.6</ele><time>2015-11-21T10:46:12.0000000+00:00</time></trkpt><trkpt lat="31.2433626" lon="35.62788259"><ele>449.1</ele><time>2015-11-21T10:46:27.0000000+00:00</time></trkpt><trkpt lat="31.24319153" lon="35.62810807"><ele>450.5</ele><time>2015-11-21T10:46:41.0000000+00:00</time></trkpt><trkpt lat="31.24297762" lon="35.62841945"><ele>451.5</ele><time>2015-11-21T10:46:58.0000000+00:00</time></trkpt><trkpt lat="31.24282449" lon="35.62861115"><ele>452.0</ele><time>2015-11-21T10:47:12.0000000+00:00</time></trkpt><trkpt lat="31.24269004" lon="35.62878222"><ele>452.0</ele><time>2015-11-21T10:47:26.0000000+00:00</time></trkpt><trkpt lat="31.24267361" lon="35.6287735"><ele>453.4</ele><time>2015-11-21T10:47:41.0000000+00:00</time></trkpt><trkpt lat="31.24268727" lon="35.62878767"><ele>454.4</ele><time>2015-11-21T10:48:06.0000000+00:00</time></trkpt><trkpt lat="31.24268652" lon="35.62877837"><ele>452.4</ele><time>2015-11-21T10:48:23.0000000+00:00</time></trkpt><trkpt lat="31.24268769" lon="35.62877233"><ele>452.9</ele><time>2015-11-21T10:48:47.0000000+00:00</time></trkpt><trkpt lat="31.24268342" lon="35.62878482"><ele>452.0</ele><time>2015-11-21T10:49:03.0000000+00:00</time></trkpt><trkpt lat="31.24265919" lon="35.62882774"><ele>452.4</ele><time>2015-11-21T10:49:08.0000000+00:00</time></trkpt><trkpt lat="31.24250153" lon="35.6290377"><ele>453.4</ele><time>2015-11-21T10:49:22.0000000+00:00</time></trkpt><trkpt lat="31.24218687" lon="35.62944163"><ele>454.4</ele><time>2015-11-21T10:49:41.0000000+00:00</time></trkpt><trkpt lat="31.24188186" lon="35.62986483"><ele>454.4</ele><time>2015-11-21T10:49:57.0000000+00:00</time></trkpt><trkpt lat="31.24163032" lon="35.63023103"><ele>454.8</ele><time>2015-11-21T10:50:11.0000000+00:00</time></trkpt><trkpt lat="31.24134541" lon="35.63076563"><ele>454.4</ele><time>2015-11-21T10:50:27.0000000+00:00</time></trkpt><trkpt lat="31.24106479" lon="35.631376"><ele>454.4</ele><time>2015-11-21T10:50:44.0000000+00:00</time></trkpt><trkpt lat="31.24080361" lon="35.63195762"><ele>455.8</ele><time>2015-11-21T10:51:02.0000000+00:00</time></trkpt><trkpt lat="31.24052634" lon="35.63253715"><ele>455.8</ele><time>2015-11-21T10:51:18.0000000+00:00</time></trkpt><trkpt lat="31.24024185" lon="35.63314559"><ele>456.3</ele><time>2015-11-21T10:51:36.0000000+00:00</time></trkpt><trkpt lat="31.24001621" lon="35.63363585"><ele>456.8</ele><time>2015-11-21T10:51:52.0000000+00:00</time></trkpt><trkpt lat="31.23987238" lon="35.63394975"><ele>456.3</ele><time>2015-11-21T10:52:02.0000000+00:00</time></trkpt><trkpt lat="31.23963199" lon="35.63445593"><ele>457.2</ele><time>2015-11-21T10:52:19.0000000+00:00</time></trkpt><trkpt lat="31.23943501" lon="35.63486606"><ele>459.2</ele><time>2015-11-21T10:52:34.0000000+00:00</time></trkpt><trkpt lat="31.23922823" lon="35.63532203"><ele>462.1</ele><time>2015-11-21T10:52:53.0000000+00:00</time></trkpt><trkpt lat="31.23913771" lon="35.63554684"><ele>463.0</ele><time>2015-11-21T10:53:05.0000000+00:00</time></trkpt><trkpt lat="31.23905866" lon="35.63573828"><ele>463.5</ele><time>2015-11-21T10:53:15.0000000+00:00</time></trkpt><trkpt lat="31.23904785" lon="35.63575529"><ele>464.0</ele><time>2015-11-21T10:53:16.0000000+00:00</time></trkpt><trkpt lat="31.23904081" lon="35.6357755"><ele>464.0</ele><time>2015-11-21T10:53:17.0000000+00:00</time></trkpt><trkpt lat="31.23903528" lon="35.63579813"><ele>464.0</ele><time>2015-11-21T10:53:18.0000000+00:00</time></trkpt><trkpt lat="31.23902975" lon="35.63582009"><ele>464.5</ele><time>2015-11-21T10:53:19.0000000+00:00</time></trkpt><trkpt lat="31.23902312" lon="35.63584062"><ele>464.5</ele><time>2015-11-21T10:53:20.0000000+00:00</time></trkpt><trkpt lat="31.23901432" lon="35.63585973"><ele>464.9</ele><time>2015-11-21T10:53:21.0000000+00:00</time></trkpt><trkpt lat="31.23891123" lon="35.63618445"><ele>466.4</ele><time>2015-11-21T10:53:36.0000000+00:00</time></trkpt><trkpt lat="31.23885607" lon="35.63651855"><ele>468.3</ele><time>2015-11-21T10:53:51.0000000+00:00</time></trkpt><trkpt lat="31.23886311" lon="35.6369327"><ele>470.2</ele><time>2015-11-21T10:54:08.0000000+00:00</time></trkpt><trkpt lat="31.23889471" lon="35.63721023"><ele>473.6</ele><time>2015-11-21T10:54:21.0000000+00:00</time></trkpt><trkpt lat="31.23895624" lon="35.63755078"><ele>476.5</ele><time>2015-11-21T10:54:38.0000000+00:00</time></trkpt><trkpt lat="31.23899597" lon="35.63782487"><ele>478.4</ele><time>2015-11-21T10:54:52.0000000+00:00</time></trkpt><trkpt lat="31.23899538" lon="35.63814204"><ele>481.3</ele><time>2015-11-21T10:55:07.0000000+00:00</time></trkpt><trkpt lat="31.23899245" lon="35.63817607"><ele>481.3</ele><time>2015-11-21T10:55:09.0000000+00:00</time></trkpt><trkpt lat="31.2389896" lon="35.63819267"><ele>481.8</ele><time>2015-11-21T10:55:10.0000000+00:00</time></trkpt><trkpt lat="31.23894266" lon="35.63847413"><ele>484.6</ele><time>2015-11-21T10:55:27.0000000+00:00</time></trkpt><trkpt lat="31.23881525" lon="35.6386934"><ele>485.6</ele><time>2015-11-21T10:55:42.0000000+00:00</time></trkpt><trkpt lat="31.23865156" lon="35.63891133"><ele>486.6</ele><time>2015-11-21T10:56:00.0000000+00:00</time></trkpt><trkpt lat="31.23854544" lon="35.63903899"><ele>487.1</ele><time>2015-11-21T10:56:11.0000000+00:00</time></trkpt><trkpt lat="31.2385348" lon="35.63904813"><ele>487.1</ele><time>2015-11-21T10:56:12.0000000+00:00</time></trkpt><trkpt lat="31.23852381" lon="35.63905953"><ele>487.1</ele><time>2015-11-21T10:56:13.0000000+00:00</time></trkpt><trkpt lat="31.23851527" lon="35.63907101"><ele>487.5</ele><time>2015-11-21T10:56:14.0000000+00:00</time></trkpt><trkpt lat="31.23850739" lon="35.63908174"><ele>487.5</ele><time>2015-11-21T10:56:15.0000000+00:00</time></trkpt><trkpt lat="31.23849699" lon="35.63909104"><ele>488.0</ele><time>2015-11-21T10:56:16.0000000+00:00</time></trkpt><trkpt lat="31.23848492" lon="35.63910018"><ele>488.5</ele><time>2015-11-21T10:56:17.0000000+00:00</time></trkpt><trkpt lat="31.23847512" lon="35.6391104"><ele>489.0</ele><time>2015-11-21T10:56:18.0000000+00:00</time></trkpt><trkpt lat="31.23846556" lon="35.63912239"><ele>489.0</ele><time>2015-11-21T10:56:19.0000000+00:00</time></trkpt><trkpt lat="31.23845709" lon="35.63913429"><ele>489.0</ele><time>2015-11-21T10:56:20.0000000+00:00</time></trkpt><trkpt lat="31.23844838" lon="35.63914619"><ele>489.0</ele><time>2015-11-21T10:56:21.0000000+00:00</time></trkpt><trkpt lat="31.23844058" lon="35.63915717"><ele>489.0</ele><time>2015-11-21T10:56:22.0000000+00:00</time></trkpt><trkpt lat="31.23843161" lon="35.63916924"><ele>489.0</ele><time>2015-11-21T10:56:23.0000000+00:00</time></trkpt><trkpt lat="31.23842239" lon="35.63917964"><ele>489.0</ele><time>2015-11-21T10:56:24.0000000+00:00</time></trkpt><trkpt lat="31.23841116" lon="35.63919112"><ele>489.5</ele><time>2015-11-21T10:56:25.0000000+00:00</time></trkpt><trkpt lat="31.23840161" lon="35.63920084"><ele>489.5</ele><time>2015-11-21T10:56:26.0000000+00:00</time></trkpt><trkpt lat="31.23839021" lon="35.63920973"><ele>489.5</ele><time>2015-11-21T10:56:27.0000000+00:00</time></trkpt><trkpt lat="31.2383773" lon="35.63921912"><ele>489.5</ele><time>2015-11-21T10:56:28.0000000+00:00</time></trkpt><trkpt lat="31.23830438" lon="35.63929497"><ele>489.5</ele><time>2015-11-21T10:56:35.0000000+00:00</time></trkpt><trkpt lat="31.23829524" lon="35.6393078"><ele>489.5</ele><time>2015-11-21T10:56:36.0000000+00:00</time></trkpt><trkpt lat="31.23828535" lon="35.63931945"><ele>489.5</ele><time>2015-11-21T10:56:37.0000000+00:00</time></trkpt><trkpt lat="31.23827596" lon="35.6393306"><ele>489.9</ele><time>2015-11-21T10:56:38.0000000+00:00</time></trkpt><trkpt lat="31.23826616" lon="35.63934283"><ele>489.9</ele><time>2015-11-21T10:56:39.0000000+00:00</time></trkpt><trkpt lat="31.23825652" lon="35.63935532"><ele>489.9</ele><time>2015-11-21T10:56:40.0000000+00:00</time></trkpt><trkpt lat="31.23824671" lon="35.63936773"><ele>489.9</ele><time>2015-11-21T10:56:41.0000000+00:00</time></trkpt><trkpt lat="31.2382359" lon="35.63938038"><ele>489.9</ele><time>2015-11-21T10:56:42.0000000+00:00</time></trkpt><trkpt lat="31.23822609" lon="35.63939086"><ele>490.4</ele><time>2015-11-21T10:56:43.0000000+00:00</time></trkpt><trkpt lat="31.23821528" lon="35.63940058"><ele>490.4</ele><time>2015-11-21T10:56:44.0000000+00:00</time></trkpt><trkpt lat="31.23800556" lon="35.63961483"><ele>491.9</ele><time>2015-11-21T10:57:03.0000000+00:00</time></trkpt><trkpt lat="31.23783306" lon="35.63984592"><ele>493.3</ele><time>2015-11-21T10:57:23.0000000+00:00</time></trkpt><trkpt lat="31.23778663" lon="35.63992035"><ele>493.8</ele><time>2015-11-21T10:57:29.0000000+00:00</time></trkpt><trkpt lat="31.237779" lon="35.63993099"><ele>493.8</ele><time>2015-11-21T10:57:30.0000000+00:00</time></trkpt><trkpt lat="31.23777196" lon="35.63994247"><ele>494.3</ele><time>2015-11-21T10:57:31.0000000+00:00</time></trkpt><trkpt lat="31.23776525" lon="35.63995354"><ele>494.3</ele><time>2015-11-21T10:57:32.0000000+00:00</time></trkpt><trkpt lat="31.23775662" lon="35.63996469"><ele>494.3</ele><time>2015-11-21T10:57:33.0000000+00:00</time></trkpt><trkpt lat="31.23763827" lon="35.64016434"><ele>496.7</ele><time>2015-11-21T10:57:50.0000000+00:00</time></trkpt><trkpt lat="31.23755244" lon="35.64034447"><ele>498.6</ele><time>2015-11-21T10:58:04.0000000+00:00</time></trkpt><trkpt lat="31.23742956" lon="35.64063122"><ele>501.0</ele><time>2015-11-21T10:58:22.0000000+00:00</time></trkpt><trkpt lat="31.23740399" lon="35.64069483"><ele>501.5</ele><time>2015-11-21T10:58:26.0000000+00:00</time></trkpt><trkpt lat="31.23739704" lon="35.64070908"><ele>501.5</ele><time>2015-11-21T10:58:27.0000000+00:00</time></trkpt><trkpt lat="31.23739159" lon="35.64072493"><ele>501.5</ele><time>2015-11-21T10:58:28.0000000+00:00</time></trkpt><trkpt lat="31.23738455" lon="35.64074052"><ele>501.5</ele><time>2015-11-21T10:58:29.0000000+00:00</time></trkpt><trkpt lat="31.23737943" lon="35.64075602"><ele>502.0</ele><time>2015-11-21T10:58:30.0000000+00:00</time></trkpt><trkpt lat="31.23737197" lon="35.64076885"><ele>502.0</ele><time>2015-11-21T10:58:31.0000000+00:00</time></trkpt><trkpt lat="31.23736435" lon="35.64078284"><ele>502.4</ele><time>2015-11-21T10:58:32.0000000+00:00</time></trkpt><trkpt lat="31.23735873" lon="35.64079885"><ele>502.0</ele><time>2015-11-21T10:58:33.0000000+00:00</time></trkpt><trkpt lat="31.23735253" lon="35.64081361"><ele>502.9</ele><time>2015-11-21T10:58:34.0000000+00:00</time></trkpt><trkpt lat="31.23734708" lon="35.64082836"><ele>502.4</ele><time>2015-11-21T10:58:35.0000000+00:00</time></trkpt><trkpt lat="31.23734213" lon="35.64084529"><ele>502.4</ele><time>2015-11-21T10:58:36.0000000+00:00</time></trkpt><trkpt lat="31.23733602" lon="35.6408618"><ele>502.9</ele><time>2015-11-21T10:58:37.0000000+00:00</time></trkpt><trkpt lat="31.23732939" lon="35.64087681"><ele>502.9</ele><time>2015-11-21T10:58:38.0000000+00:00</time></trkpt><trkpt lat="31.23732319" lon="35.64089248"><ele>503.4</ele><time>2015-11-21T10:58:39.0000000+00:00</time></trkpt><trkpt lat="31.23731615" lon="35.6409079"><ele>503.4</ele><time>2015-11-21T10:58:40.0000000+00:00</time></trkpt><trkpt lat="31.23731012" lon="35.64092584"><ele>503.4</ele><time>2015-11-21T10:58:41.0000000+00:00</time></trkpt><trkpt lat="31.23718942" lon="35.64125315"><ele>503.9</ele><time>2015-11-21T10:58:59.0000000+00:00</time></trkpt><trkpt lat="31.23704156" lon="35.64163797"><ele>506.8</ele><time>2015-11-21T10:59:20.0000000+00:00</time></trkpt><trkpt lat="31.23700594" lon="35.64172983"><ele>507.7</ele><time>2015-11-21T10:59:26.0000000+00:00</time></trkpt><trkpt lat="31.2369989" lon="35.64174592"><ele>507.7</ele><time>2015-11-21T10:59:27.0000000+00:00</time></trkpt><trkpt lat="31.23694953" lon="35.64187744"><ele>508.2</ele><time>2015-11-21T10:59:35.0000000+00:00</time></trkpt><trkpt lat="31.23694399" lon="35.64189521"><ele>508.2</ele><time>2015-11-21T10:59:36.0000000+00:00</time></trkpt><trkpt lat="31.23693771" lon="35.64191264"><ele>508.7</ele><time>2015-11-21T10:59:37.0000000+00:00</time></trkpt><trkpt lat="31.23693192" lon="35.64192639"><ele>508.7</ele><time>2015-11-21T10:59:38.0000000+00:00</time></trkpt><trkpt lat="31.23692505" lon="35.6419424"><ele>508.2</ele><time>2015-11-21T10:59:39.0000000+00:00</time></trkpt><trkpt lat="31.23691776" lon="35.6419595"><ele>508.7</ele><time>2015-11-21T10:59:40.0000000+00:00</time></trkpt><trkpt lat="31.23691005" lon="35.64197886"><ele>509.2</ele><time>2015-11-21T10:59:41.0000000+00:00</time></trkpt><trkpt lat="31.23690267" lon="35.64199638"><ele>508.7</ele><time>2015-11-21T10:59:42.0000000+00:00</time></trkpt><trkpt lat="31.23675104" lon="35.64236568"><ele>510.1</ele><time>2015-11-21T11:00:01.0000000+00:00</time></trkpt><trkpt lat="31.23664057" lon="35.64266928"><ele>511.6</ele><time>2015-11-21T11:00:17.0000000+00:00</time></trkpt><trkpt lat="31.23652138" lon="35.64300464"><ele>514.0</ele><time>2015-11-21T11:00:34.0000000+00:00</time></trkpt><trkpt lat="31.23640135" lon="35.64328275"><ele>514.4</ele><time>2015-11-21T11:00:50.0000000+00:00</time></trkpt><trkpt lat="31.23628057" lon="35.64352507"><ele>515.4</ele><time>2015-11-21T11:01:05.0000000+00:00</time></trkpt><trkpt lat="31.23616884" lon="35.64369505"><ele>516.9</ele><time>2015-11-21T11:01:16.0000000+00:00</time></trkpt><trkpt lat="31.23615735" lon="35.6437036"><ele>516.4</ele><time>2015-11-21T11:01:17.0000000+00:00</time></trkpt><trkpt lat="31.23614964" lon="35.6437145"><ele>517.3</ele><time>2015-11-21T11:01:18.0000000+00:00</time></trkpt><trkpt lat="31.23614134" lon="35.643729"><ele>517.8</ele><time>2015-11-21T11:01:19.0000000+00:00</time></trkpt><trkpt lat="31.23613279" lon="35.64374275"><ele>517.3</ele><time>2015-11-21T11:01:20.0000000+00:00</time></trkpt><trkpt lat="31.23612324" lon="35.6437575"><ele>517.3</ele><time>2015-11-21T11:01:21.0000000+00:00</time></trkpt><trkpt lat="31.23611368" lon="35.64377133"><ele>517.3</ele><time>2015-11-21T11:01:22.0000000+00:00</time></trkpt><trkpt lat="31.23610404" lon="35.64378541"><ele>516.9</ele><time>2015-11-21T11:01:23.0000000+00:00</time></trkpt><trkpt lat="31.23609415" lon="35.64379723"><ele>517.8</ele><time>2015-11-21T11:01:24.0000000+00:00</time></trkpt><trkpt lat="31.2360851" lon="35.6438093"><ele>517.3</ele><time>2015-11-21T11:01:25.0000000+00:00</time></trkpt><trkpt lat="31.23607605" lon="35.6438212"><ele>517.8</ele><time>2015-11-21T11:01:26.0000000+00:00</time></trkpt><trkpt lat="31.23606607" lon="35.64383243"><ele>517.8</ele><time>2015-11-21T11:01:27.0000000+00:00</time></trkpt><trkpt lat="31.23605635" lon="35.64384383"><ele>517.8</ele><time>2015-11-21T11:01:28.0000000+00:00</time></trkpt><trkpt lat="31.23604797" lon="35.64385833"><ele>517.3</ele><time>2015-11-21T11:01:29.0000000+00:00</time></trkpt><trkpt lat="31.23588938" lon="35.64402371"><ele>520.7</ele><time>2015-11-21T11:01:40.0000000+00:00</time></trkpt><trkpt lat="31.23561454" lon="35.6441926"><ele>521.7</ele><time>2015-11-21T11:01:56.0000000+00:00</time></trkpt><trkpt lat="31.23531112" lon="35.64424046"><ele>521.2</ele><time>2015-11-21T11:02:10.0000000+00:00</time></trkpt><trkpt lat="31.23524046" lon="35.64424801"><ele>522.1</ele><time>2015-11-21T11:02:14.0000000+00:00</time></trkpt><trkpt lat="31.23522193" lon="35.64424524"><ele>521.7</ele><time>2015-11-21T11:02:15.0000000+00:00</time></trkpt><trkpt lat="31.23520609" lon="35.64424625"><ele>521.7</ele><time>2015-11-21T11:02:16.0000000+00:00</time></trkpt><trkpt lat="31.23518882" lon="35.64424734"><ele>521.7</ele><time>2015-11-21T11:02:17.0000000+00:00</time></trkpt><trkpt lat="31.23517164" lon="35.64424658"><ele>521.7</ele><time>2015-11-21T11:02:18.0000000+00:00</time></trkpt><trkpt lat="31.2351558" lon="35.64424776"><ele>522.1</ele><time>2015-11-21T11:02:19.0000000+00:00</time></trkpt><trkpt lat="31.23514046" lon="35.64425195"><ele>522.1</ele><time>2015-11-21T11:02:20.0000000+00:00</time></trkpt><trkpt lat="31.23512504" lon="35.64425463"><ele>522.1</ele><time>2015-11-21T11:02:21.0000000+00:00</time></trkpt><trkpt lat="31.23510676" lon="35.64425337"><ele>522.6</ele><time>2015-11-21T11:02:22.0000000+00:00</time></trkpt><trkpt lat="31.23508849" lon="35.64425262"><ele>522.1</ele><time>2015-11-21T11:02:23.0000000+00:00</time></trkpt><trkpt lat="31.23507131" lon="35.64424968"><ele>522.1</ele><time>2015-11-21T11:02:24.0000000+00:00</time></trkpt><trkpt lat="31.23505597" lon="35.64424952"><ele>521.7</ele><time>2015-11-21T11:02:25.0000000+00:00</time></trkpt><trkpt lat="31.23475196" lon="35.64424524"><ele>523.6</ele><time>2015-11-21T11:02:41.0000000+00:00</time></trkpt><trkpt lat="31.23446572" lon="35.64424893"><ele>524.1</ele><time>2015-11-21T11:02:57.0000000+00:00</time></trkpt><trkpt lat="31.23420445" lon="35.6442667"><ele>525.5</ele><time>2015-11-21T11:03:14.0000000+00:00</time></trkpt><trkpt lat="31.23394067" lon="35.64427684"><ele>528.4</ele><time>2015-11-21T11:03:31.0000000+00:00</time></trkpt><trkpt lat="31.23367488" lon="35.64430383"><ele>529.8</ele><time>2015-11-21T11:03:49.0000000+00:00</time></trkpt><trkpt lat="31.23345478" lon="35.64431037"><ele>532.7</ele><time>2015-11-21T11:04:03.0000000+00:00</time></trkpt><trkpt lat="31.23343784" lon="35.64431263"><ele>532.2</ele><time>2015-11-21T11:04:04.0000000+00:00</time></trkpt><trkpt lat="31.23310332" lon="35.64434775"><ele>533.7</ele><time>2015-11-21T11:04:23.0000000+00:00</time></trkpt><trkpt lat="31.23282337" lon="35.64441171"><ele>535.6</ele><time>2015-11-21T11:04:38.0000000+00:00</time></trkpt><trkpt lat="31.23250745" lon="35.64455043"><ele>536.6</ele><time>2015-11-21T11:04:55.0000000+00:00</time></trkpt><trkpt lat="31.23231274" lon="35.64463601"><ele>537.0</ele><time>2015-11-21T11:05:11.0000000+00:00</time></trkpt><trkpt lat="31.23230084" lon="35.64463936"><ele>536.1</ele><time>2015-11-21T11:05:30.0000000+00:00</time></trkpt><trkpt lat="31.23232154" lon="35.64462218"><ele>536.6</ele><time>2015-11-21T11:05:48.0000000+00:00</time></trkpt><trkpt lat="31.23232473" lon="35.64461748"><ele>537.5</ele><time>2015-11-21T11:06:08.0000000+00:00</time></trkpt><trkpt lat="31.23232238" lon="35.64461396"><ele>536.1</ele><time>2015-11-21T11:06:11.0000000+00:00</time></trkpt><trkpt lat="31.23232582" lon="35.64462746"><ele>536.6</ele><time>2015-11-21T11:06:42.0000000+00:00</time></trkpt><trkpt lat="31.23232481" lon="35.64462226"><ele>536.6</ele><time>2015-11-21T11:07:03.0000000+00:00</time></trkpt><trkpt lat="31.23232121" lon="35.64463299"><ele>536.6</ele><time>2015-11-21T11:07:28.0000000+00:00</time></trkpt><trkpt lat="31.23232682" lon="35.64462025"><ele>536.6</ele><time>2015-11-21T11:08:03.0000000+00:00</time></trkpt><trkpt lat="31.2323233" lon="35.64462125"><ele>536.1</ele><time>2015-11-21T11:08:35.0000000+00:00</time></trkpt><trkpt lat="31.2323233" lon="35.6446324"><ele>536.6</ele><time>2015-11-21T11:09:06.0000000+00:00</time></trkpt><trkpt lat="31.23232364" lon="35.64462595"><ele>536.1</ele><time>2015-11-21T11:09:37.0000000+00:00</time></trkpt><trkpt lat="31.23232691" lon="35.64463324"><ele>536.6</ele><time>2015-11-21T11:10:03.0000000+00:00</time></trkpt><trkpt lat="31.23233344" lon="35.64462855"><ele>536.6</ele><time>2015-11-21T11:10:27.0000000+00:00</time></trkpt><trkpt lat="31.23233252" lon="35.64462779"><ele>536.6</ele><time>2015-11-21T11:10:53.0000000+00:00</time></trkpt><trkpt lat="31.23233135" lon="35.64463399"><ele>537.0</ele><time>2015-11-21T11:11:19.0000000+00:00</time></trkpt><trkpt lat="31.23233034" lon="35.64463165"><ele>536.6</ele><time>2015-11-21T11:11:41.0000000+00:00</time></trkpt><trkpt lat="31.23232674" lon="35.64463726"><ele>537.5</ele><time>2015-11-21T11:12:10.0000000+00:00</time></trkpt><trkpt lat="31.23232506" lon="35.64463357"><ele>537.0</ele><time>2015-11-21T11:12:39.0000000+00:00</time></trkpt><trkpt lat="31.23232515" lon="35.6446319"><ele>537.5</ele><time>2015-11-21T11:13:02.0000000+00:00</time></trkpt><trkpt lat="31.23233118" lon="35.64462394"><ele>538.0</ele><time>2015-11-21T11:13:26.0000000+00:00</time></trkpt><trkpt lat="31.23232816" lon="35.64462394"><ele>537.5</ele><time>2015-11-21T11:13:50.0000000+00:00</time></trkpt><trkpt lat="31.23232473" lon="35.64461706"><ele>538.5</ele><time>2015-11-21T11:14:15.0000000+00:00</time></trkpt><trkpt lat="31.23232758" lon="35.64461715"><ele>537.5</ele><time>2015-11-21T11:14:37.0000000+00:00</time></trkpt><trkpt lat="31.23233143" lon="35.6446091"><ele>538.5</ele><time>2015-11-21T11:15:10.0000000+00:00</time></trkpt><trkpt lat="31.23232976" lon="35.64461614"><ele>538.5</ele><time>2015-11-21T11:15:36.0000000+00:00</time></trkpt><trkpt lat="31.23233294" lon="35.64461522"><ele>538.0</ele><time>2015-11-21T11:16:08.0000000+00:00</time></trkpt><trkpt lat="31.23232984" lon="35.64460742"><ele>538.5</ele><time>2015-11-21T11:16:35.0000000+00:00</time></trkpt><trkpt lat="31.23233034" lon="35.64461748"><ele>538.5</ele><time>2015-11-21T11:17:03.0000000+00:00</time></trkpt><trkpt lat="31.23232984" lon="35.64460918"><ele>539.4</ele><time>2015-11-21T11:17:29.0000000+00:00</time></trkpt><trkpt lat="31.23232858" lon="35.6446158"><ele>538.5</ele><time>2015-11-21T11:18:00.0000000+00:00</time></trkpt><trkpt lat="31.23232263" lon="35.64462427"><ele>539.4</ele><time>2015-11-21T11:18:27.0000000+00:00</time></trkpt><trkpt lat="31.23232263" lon="35.64462896"><ele>539.0</ele><time>2015-11-21T11:18:58.0000000+00:00</time></trkpt><trkpt lat="31.23232716" lon="35.64461849"><ele>538.5</ele><time>2015-11-21T11:19:23.0000000+00:00</time></trkpt><trkpt lat="31.23231802" lon="35.64461933"><ele>538.5</ele><time>2015-11-21T11:19:50.0000000+00:00</time></trkpt><trkpt lat="31.23232238" lon="35.64462083"><ele>539.4</ele><time>2015-11-21T11:20:15.0000000+00:00</time></trkpt><trkpt lat="31.23232079" lon="35.6446298"><ele>539.4</ele><time>2015-11-21T11:20:36.0000000+00:00</time></trkpt><trkpt lat="31.23229916" lon="35.64465042"><ele>539.9</ele><time>2015-11-21T11:20:59.0000000+00:00</time></trkpt><trkpt lat="31.23228701" lon="35.64465302"><ele>539.0</ele><time>2015-11-21T11:21:03.0000000+00:00</time></trkpt><trkpt lat="31.23227335" lon="35.64465922"><ele>539.0</ele><time>2015-11-21T11:21:18.0000000+00:00</time></trkpt><trkpt lat="31.23222691" lon="35.6447013"><ele>539.0</ele><time>2015-11-21T11:21:30.0000000+00:00</time></trkpt><trkpt lat="31.23221559" lon="35.64470759"><ele>539.0</ele><time>2015-11-21T11:21:31.0000000+00:00</time></trkpt><trkpt lat="31.23220394" lon="35.64471672"><ele>539.0</ele><time>2015-11-21T11:21:32.0000000+00:00</time></trkpt><trkpt lat="31.23218969" lon="35.64472619"><ele>538.5</ele><time>2015-11-21T11:21:33.0000000+00:00</time></trkpt><trkpt lat="31.23217125" lon="35.64473516"><ele>538.0</ele><time>2015-11-21T11:21:34.0000000+00:00</time></trkpt><trkpt lat="31.23215198" lon="35.64474572"><ele>538.5</ele><time>2015-11-21T11:21:35.0000000+00:00</time></trkpt><trkpt lat="31.23213152" lon="35.64475821"><ele>538.5</ele><time>2015-11-21T11:21:36.0000000+00:00</time></trkpt><trkpt lat="31.23211258" lon="35.64476961"><ele>538.5</ele><time>2015-11-21T11:21:37.0000000+00:00</time></trkpt><trkpt lat="31.23209582" lon="35.64478235"><ele>538.5</ele><time>2015-11-21T11:21:38.0000000+00:00</time></trkpt><trkpt lat="31.23171335" lon="35.64509626"><ele>539.0</ele><time>2015-11-21T11:21:52.0000000+00:00</time></trkpt><trkpt lat="31.23135528" lon="35.6454462"><ele>535.1</ele><time>2015-11-21T11:22:00.0000000+00:00</time></trkpt><trkpt lat="31.23129836" lon="35.64549808"><ele>534.6</ele><time>2015-11-21T11:22:01.0000000+00:00</time></trkpt><trkpt lat="31.23098664" lon="35.64579807"><ele>530.8</ele><time>2015-11-21T11:22:06.0000000+00:00</time></trkpt><trkpt lat="31.23084733" lon="35.64592967"><ele>530.3</ele><time>2015-11-21T11:22:08.0000000+00:00</time></trkpt><trkpt lat="31.23063561" lon="35.64614056"><ele>528.4</ele><time>2015-11-21T11:22:11.0000000+00:00</time></trkpt><trkpt lat="31.22985098" lon="35.64698445"><ele>527.9</ele><time>2015-11-21T11:22:25.0000000+00:00</time></trkpt><trkpt lat="31.22944789" lon="35.64749097"><ele>529.3</ele><time>2015-11-21T11:22:38.0000000+00:00</time></trkpt><trkpt lat="31.22922367" lon="35.64781342"><ele>531.8</ele><time>2015-11-21T11:22:53.0000000+00:00</time></trkpt><trkpt lat="31.22896761" lon="35.64821416"><ele>533.2</ele><time>2015-11-21T11:23:12.0000000+00:00</time></trkpt><trkpt lat="31.22874456" lon="35.64857466"><ele>535.1</ele><time>2015-11-21T11:23:29.0000000+00:00</time></trkpt><trkpt lat="31.22853275" lon="35.64888437"><ele>537.5</ele><time>2015-11-21T11:23:46.0000000+00:00</time></trkpt><trkpt lat="31.2282901" lon="35.64914639"><ele>539.4</ele><time>2015-11-21T11:24:03.0000000+00:00</time></trkpt><trkpt lat="31.22810226" lon="35.64931956"><ele>541.8</ele><time>2015-11-21T11:24:16.0000000+00:00</time></trkpt><trkpt lat="31.22808826" lon="35.64932551"><ele>541.8</ele><time>2015-11-21T11:24:17.0000000+00:00</time></trkpt><trkpt lat="31.2280772" lon="35.64932954"><ele>542.3</ele><time>2015-11-21T11:24:18.0000000+00:00</time></trkpt><trkpt lat="31.22806504" lon="35.64933398"><ele>542.3</ele><time>2015-11-21T11:24:19.0000000+00:00</time></trkpt><trkpt lat="31.22803479" lon="35.64934395"><ele>541.8</ele><time>2015-11-21T11:24:33.0000000+00:00</time></trkpt><trkpt lat="31.2280166" lon="35.64937228"><ele>542.3</ele><time>2015-11-21T11:24:50.0000000+00:00</time></trkpt><trkpt lat="31.22801249" lon="35.64937723"><ele>542.8</ele><time>2015-11-21T11:25:09.0000000+00:00</time></trkpt><trkpt lat="31.22802598" lon="35.64937396"><ele>542.8</ele><time>2015-11-21T11:25:27.0000000+00:00</time></trkpt><trkpt lat="31.2279855" lon="35.64941092"><ele>543.3</ele><time>2015-11-21T11:25:44.0000000+00:00</time></trkpt><trkpt lat="31.22797435" lon="35.64941319"><ele>543.3</ele><time>2015-11-21T11:25:45.0000000+00:00</time></trkpt><trkpt lat="31.22796396" lon="35.64941746"><ele>543.3</ele><time>2015-11-21T11:25:46.0000000+00:00</time></trkpt><trkpt lat="31.2279534" lon="35.64942551"><ele>543.8</ele><time>2015-11-21T11:25:47.0000000+00:00</time></trkpt><trkpt lat="31.22794401" lon="35.64943439"><ele>543.8</ele><time>2015-11-21T11:25:48.0000000+00:00</time></trkpt><trkpt lat="31.22793336" lon="35.6494416"><ele>543.8</ele><time>2015-11-21T11:25:49.0000000+00:00</time></trkpt><trkpt lat="31.22791995" lon="35.64944705"><ele>544.2</ele><time>2015-11-21T11:25:50.0000000+00:00</time></trkpt><trkpt lat="31.22787335" lon="35.64948209"><ele>545.7</ele><time>2015-11-21T11:25:54.0000000+00:00</time></trkpt><trkpt lat="31.22768727" lon="35.64960136"><ele>547.1</ele><time>2015-11-21T11:26:07.0000000+00:00</time></trkpt><trkpt lat="31.22754009" lon="35.64968484"><ele>548.6</ele><time>2015-11-21T11:26:17.0000000+00:00</time></trkpt><trkpt lat="31.22752433" lon="35.64969105"><ele>548.6</ele><time>2015-11-21T11:26:18.0000000+00:00</time></trkpt><trkpt lat="31.22724177" lon="35.64982197"><ele>551.5</ele><time>2015-11-21T11:26:36.0000000+00:00</time></trkpt><trkpt lat="31.22700532" lon="35.64991753"><ele>553.9</ele><time>2015-11-21T11:26:51.0000000+00:00</time></trkpt><trkpt lat="31.22672243" lon="35.65003286"><ele>554.8</ele><time>2015-11-21T11:27:08.0000000+00:00</time></trkpt><trkpt lat="31.22644952" lon="35.65012808"><ele>556.3</ele><time>2015-11-21T11:27:25.0000000+00:00</time></trkpt><trkpt lat="31.22614592" lon="35.65023637"><ele>557.7</ele><time>2015-11-21T11:27:43.0000000+00:00</time></trkpt><trkpt lat="31.22581358" lon="35.6503668"><ele>559.1</ele><time>2015-11-21T11:28:00.0000000+00:00</time></trkpt><trkpt lat="31.22549255" lon="35.65051692"><ele>561.1</ele><time>2015-11-21T11:28:17.0000000+00:00</time></trkpt><trkpt lat="31.22519483" lon="35.65070878"><ele>562.5</ele><time>2015-11-21T11:28:34.0000000+00:00</time></trkpt><trkpt lat="31.22490691" lon="35.65095956"><ele>564.0</ele><time>2015-11-21T11:28:52.0000000+00:00</time></trkpt><trkpt lat="31.22484706" lon="35.65103006"><ele>564.9</ele><time>2015-11-21T11:28:56.0000000+00:00</time></trkpt><trkpt lat="31.22483457" lon="35.65104908"><ele>564.9</ele><time>2015-11-21T11:28:57.0000000+00:00</time></trkpt><trkpt lat="31.22481907" lon="35.65106719"><ele>564.9</ele><time>2015-11-21T11:28:58.0000000+00:00</time></trkpt><trkpt lat="31.22480197" lon="35.65108177"><ele>564.9</ele><time>2015-11-21T11:28:59.0000000+00:00</time></trkpt><trkpt lat="31.22478487" lon="35.6510977"><ele>564.9</ele><time>2015-11-21T11:29:00.0000000+00:00</time></trkpt><trkpt lat="31.2245138" lon="35.65141638"><ele>566.8</ele><time>2015-11-21T11:29:19.0000000+00:00</time></trkpt><trkpt lat="31.22430517" lon="35.65171637"><ele>568.8</ele><time>2015-11-21T11:29:38.0000000+00:00</time></trkpt><trkpt lat="31.22426435" lon="35.65177462"><ele>568.8</ele><time>2015-11-21T11:29:42.0000000+00:00</time></trkpt><trkpt lat="31.22425195" lon="35.65178744"><ele>569.2</ele><time>2015-11-21T11:29:43.0000000+00:00</time></trkpt><trkpt lat="31.22424365" lon="35.65180211"><ele>569.2</ele><time>2015-11-21T11:29:44.0000000+00:00</time></trkpt><trkpt lat="31.22423317" lon="35.65181628"><ele>569.2</ele><time>2015-11-21T11:29:45.0000000+00:00</time></trkpt><trkpt lat="31.22422219" lon="35.65182944"><ele>569.2</ele><time>2015-11-21T11:29:46.0000000+00:00</time></trkpt><trkpt lat="31.22421247" lon="35.6518436"><ele>569.7</ele><time>2015-11-21T11:29:47.0000000+00:00</time></trkpt><trkpt lat="31.22404165" lon="35.65209934"><ele>571.6</ele><time>2015-11-21T11:30:05.0000000+00:00</time></trkpt><trkpt lat="31.22385708" lon="35.65236077"><ele>573.6</ele><time>2015-11-21T11:30:23.0000000+00:00</time></trkpt><trkpt lat="31.22373973" lon="35.65253595"><ele>575.0</ele><time>2015-11-21T11:30:36.0000000+00:00</time></trkpt><trkpt lat="31.22372816" lon="35.65254961"><ele>575.5</ele><time>2015-11-21T11:30:37.0000000+00:00</time></trkpt><trkpt lat="31.22372003" lon="35.65256369"><ele>575.5</ele><time>2015-11-21T11:30:38.0000000+00:00</time></trkpt><trkpt lat="31.22371333" lon="35.65257777"><ele>575.5</ele><time>2015-11-21T11:30:39.0000000+00:00</time></trkpt><trkpt lat="31.22370511" lon="35.65258943"><ele>575.5</ele><time>2015-11-21T11:30:40.0000000+00:00</time></trkpt><trkpt lat="31.2236964" lon="35.65260317"><ele>576.0</ele><time>2015-11-21T11:30:41.0000000+00:00</time></trkpt><trkpt lat="31.22368827" lon="35.65261683"><ele>576.0</ele><time>2015-11-21T11:30:42.0000000+00:00</time></trkpt><trkpt lat="31.22367167" lon="35.65264533"><ele>576.0</ele><time>2015-11-21T11:30:44.0000000+00:00</time></trkpt><trkpt lat="31.22366035" lon="35.65265791"><ele>576.0</ele><time>2015-11-21T11:30:45.0000000+00:00</time></trkpt><trkpt lat="31.22349389" lon="35.65291163"><ele>577.9</ele><time>2015-11-21T11:31:02.0000000+00:00</time></trkpt><trkpt lat="31.22330999" lon="35.65313567"><ele>579.8</ele><time>2015-11-21T11:31:19.0000000+00:00</time></trkpt><trkpt lat="31.22325023" lon="35.65321421"><ele>580.8</ele><time>2015-11-21T11:31:25.0000000+00:00</time></trkpt><trkpt lat="31.22323581" lon="35.65322293"><ele>580.8</ele><time>2015-11-21T11:31:26.0000000+00:00</time></trkpt><trkpt lat="31.22322357" lon="35.65323458"><ele>581.3</ele><time>2015-11-21T11:31:27.0000000+00:00</time></trkpt><trkpt lat="31.22317605" lon="35.65327875"><ele>581.3</ele><time>2015-11-21T11:31:31.0000000+00:00</time></trkpt><trkpt lat="31.22316381" lon="35.65328957"><ele>581.3</ele><time>2015-11-21T11:31:32.0000000+00:00</time></trkpt><trkpt lat="31.22315191" lon="35.65330113"><ele>581.3</ele><time>2015-11-21T11:31:33.0000000+00:00</time></trkpt><trkpt lat="31.22313942" lon="35.65331337"><ele>581.7</ele><time>2015-11-21T11:31:34.0000000+00:00</time></trkpt><trkpt lat="31.22312819" lon="35.65332611"><ele>581.7</ele><time>2015-11-21T11:31:35.0000000+00:00</time></trkpt><trkpt lat="31.22311788" lon="35.65333935"><ele>581.7</ele><time>2015-11-21T11:31:36.0000000+00:00</time></trkpt><trkpt lat="31.22310665" lon="35.65335184"><ele>581.7</ele><time>2015-11-21T11:31:37.0000000+00:00</time></trkpt><trkpt lat="31.2230416" lon="35.65342468"><ele>582.7</ele><time>2015-11-21T11:31:43.0000000+00:00</time></trkpt><trkpt lat="31.22303012" lon="35.65343382"><ele>582.7</ele><time>2015-11-21T11:31:44.0000000+00:00</time></trkpt><trkpt lat="31.22302174" lon="35.65344346"><ele>582.7</ele><time>2015-11-21T11:31:45.0000000+00:00</time></trkpt><trkpt lat="31.22294286" lon="35.653537"><ele>582.7</ele><time>2015-11-21T11:31:52.0000000+00:00</time></trkpt><trkpt lat="31.22292836" lon="35.65354773"><ele>583.2</ele><time>2015-11-21T11:31:53.0000000+00:00</time></trkpt><trkpt lat="31.22291629" lon="35.65355921"><ele>582.7</ele><time>2015-11-21T11:31:54.0000000+00:00</time></trkpt><trkpt lat="31.22290288" lon="35.65357246"><ele>583.2</ele><time>2015-11-21T11:31:55.0000000+00:00</time></trkpt><trkpt lat="31.2228867" lon="35.65358922"><ele>583.2</ele><time>2015-11-21T11:31:56.0000000+00:00</time></trkpt><trkpt lat="31.22257867" lon="35.65394495"><ele>585.6</ele><time>2015-11-21T11:32:15.0000000+00:00</time></trkpt><trkpt lat="31.2222294" lon="35.65432146"><ele>586.5</ele><time>2015-11-21T11:32:32.0000000+00:00</time></trkpt><trkpt lat="31.22178013" lon="35.65471977"><ele>588.0</ele><time>2015-11-21T11:32:51.0000000+00:00</time></trkpt><trkpt lat="31.22129599" lon="35.6550677"><ele>586.5</ele><time>2015-11-21T11:33:07.0000000+00:00</time></trkpt><trkpt lat="31.22075477" lon="35.65545294"><ele>586.5</ele><time>2015-11-21T11:33:25.0000000+00:00</time></trkpt><trkpt lat="31.22031857" lon="35.65572744"><ele>587.0</ele><time>2015-11-21T11:33:41.0000000+00:00</time></trkpt><trkpt lat="31.21999369" lon="35.65590983"><ele>588.5</ele><time>2015-11-21T11:33:55.0000000+00:00</time></trkpt><trkpt lat="31.21975673" lon="35.65607429"><ele>590.4</ele><time>2015-11-21T11:34:07.0000000+00:00</time></trkpt><trkpt lat="31.21973477" lon="35.65608141"><ele>590.4</ele><time>2015-11-21T11:34:08.0000000+00:00</time></trkpt><trkpt lat="31.21947871" lon="35.65623438"><ele>593.3</ele><time>2015-11-21T11:34:22.0000000+00:00</time></trkpt><trkpt lat="31.21919204" lon="35.65636195"><ele>596.2</ele><time>2015-11-21T11:34:39.0000000+00:00</time></trkpt><trkpt lat="31.21890589" lon="35.65642272"><ele>598.1</ele><time>2015-11-21T11:34:57.0000000+00:00</time></trkpt><trkpt lat="31.21864177" lon="35.65642222"><ele>599.5</ele><time>2015-11-21T11:35:14.0000000+00:00</time></trkpt><trkpt lat="31.21846969" lon="35.65639674"><ele>601.4</ele><time>2015-11-21T11:35:26.0000000+00:00</time></trkpt><trkpt lat="31.21821379" lon="35.65635357"><ele>601.9</ele><time>2015-11-21T11:35:43.0000000+00:00</time></trkpt><trkpt lat="31.21796192" lon="35.65636329"><ele>602.9</ele><time>2015-11-21T11:35:58.0000000+00:00</time></trkpt><trkpt lat="31.21770417" lon="35.65646882"><ele>603.9</ele><time>2015-11-21T11:36:12.0000000+00:00</time></trkpt><trkpt lat="31.21734652" lon="35.65671927"><ele>604.3</ele><time>2015-11-21T11:36:30.0000000+00:00</time></trkpt><trkpt lat="31.21705122" lon="35.65696511"><ele>605.8</ele><time>2015-11-21T11:36:46.0000000+00:00</time></trkpt><trkpt lat="31.21680496" lon="35.65717584"><ele>607.2</ele><time>2015-11-21T11:36:59.0000000+00:00</time></trkpt><trkpt lat="31.21651109" lon="35.65742226"><ele>608.7</ele><time>2015-11-21T11:37:17.0000000+00:00</time></trkpt><trkpt lat="31.21626592" lon="35.65761295"><ele>610.1</ele><time>2015-11-21T11:37:31.0000000+00:00</time></trkpt><trkpt lat="31.21598873" lon="35.65783524"><ele>611.5</ele><time>2015-11-21T11:37:47.0000000+00:00</time></trkpt><trkpt lat="31.21565304" lon="35.65807546"><ele>611.1</ele><time>2015-11-21T11:38:05.0000000+00:00</time></trkpt><trkpt lat="31.21533243" lon="35.6583094"><ele>612.0</ele><time>2015-11-21T11:38:22.0000000+00:00</time></trkpt><trkpt lat="31.21509832" lon="35.65848408"><ele>612.5</ele><time>2015-11-21T11:38:35.0000000+00:00</time></trkpt><trkpt lat="31.21476321" lon="35.65873294"><ele>613.5</ele><time>2015-11-21T11:38:53.0000000+00:00</time></trkpt><trkpt lat="31.21443691" lon="35.65897333"><ele>614.9</ele><time>2015-11-21T11:39:12.0000000+00:00</time></trkpt><trkpt lat="31.21415729" lon="35.65915874"><ele>616.3</ele><time>2015-11-21T11:39:29.0000000+00:00</time></trkpt><trkpt lat="31.21399057" lon="35.65927307"><ele>617.8</ele><time>2015-11-21T11:39:40.0000000+00:00</time></trkpt><trkpt lat="31.2139754" lon="35.65927927"><ele>617.8</ele><time>2015-11-21T11:39:41.0000000+00:00</time></trkpt><trkpt lat="31.21395964" lon="35.65928699"><ele>617.8</ele><time>2015-11-21T11:39:42.0000000+00:00</time></trkpt><trkpt lat="31.21394321" lon="35.65929495"><ele>617.8</ele><time>2015-11-21T11:39:43.0000000+00:00</time></trkpt><trkpt lat="31.2139267" lon="35.65930375"><ele>617.8</ele><time>2015-11-21T11:39:44.0000000+00:00</time></trkpt><trkpt lat="31.21367508" lon="35.65940794"><ele>619.7</ele><time>2015-11-21T11:40:00.0000000+00:00</time></trkpt><trkpt lat="31.2134662" lon="35.65945479"><ele>620.7</ele><time>2015-11-21T11:40:13.0000000+00:00</time></trkpt><trkpt lat="31.21320779" lon="35.65947323"><ele>621.6</ele><time>2015-11-21T11:40:28.0000000+00:00</time></trkpt><trkpt lat="31.21290721" lon="35.65947533"><ele>623.1</ele><time>2015-11-21T11:40:46.0000000+00:00</time></trkpt><trkpt lat="31.21266229" lon="35.65952009"><ele>625.5</ele><time>2015-11-21T11:41:01.0000000+00:00</time></trkpt><trkpt lat="31.21244042" lon="35.65960877"><ele>628.4</ele><time>2015-11-21T11:41:16.0000000+00:00</time></trkpt><trkpt lat="31.21218762" lon="35.65971706"><ele>630.3</ele><time>2015-11-21T11:41:34.0000000+00:00</time></trkpt><trkpt lat="31.2120132" lon="35.65980809"><ele>631.7</ele><time>2015-11-21T11:41:48.0000000+00:00</time></trkpt><trkpt lat="31.21179149" lon="35.65990289"><ele>634.1</ele><time>2015-11-21T11:42:04.0000000+00:00</time></trkpt><trkpt lat="31.21151347" lon="35.66000909"><ele>635.6</ele><time>2015-11-21T11:42:24.0000000+00:00</time></trkpt><trkpt lat="31.21128967" lon="35.66010816"><ele>637.5</ele><time>2015-11-21T11:42:40.0000000+00:00</time></trkpt><trkpt lat="31.21100728" lon="35.66025702"><ele>640.4</ele><time>2015-11-21T11:43:01.0000000+00:00</time></trkpt><trkpt lat="31.21081777" lon="35.66034755"><ele>642.8</ele><time>2015-11-21T11:43:15.0000000+00:00</time></trkpt><trkpt lat="31.21063555" lon="35.6604483"><ele>644.7</ele><time>2015-11-21T11:43:29.0000000+00:00</time></trkpt><trkpt lat="31.21041133" lon="35.66057227"><ele>647.1</ele><time>2015-11-21T11:43:46.0000000+00:00</time></trkpt><trkpt lat="31.21020539" lon="35.66067914"><ele>649.5</ele><time>2015-11-21T11:44:02.0000000+00:00</time></trkpt><trkpt lat="31.20998318" lon="35.66079346"><ele>652.4</ele><time>2015-11-21T11:44:19.0000000+00:00</time></trkpt><trkpt lat="31.20980096" lon="35.66088508"><ele>653.4</ele><time>2015-11-21T11:44:33.0000000+00:00</time></trkpt><trkpt lat="31.20957079" lon="35.66098583"><ele>655.8</ele><time>2015-11-21T11:44:50.0000000+00:00</time></trkpt><trkpt lat="31.209376" lon="35.66107292"><ele>657.7</ele><time>2015-11-21T11:45:04.0000000+00:00</time></trkpt><trkpt lat="31.2091988" lon="35.66116973"><ele>660.6</ele><time>2015-11-21T11:45:18.0000000+00:00</time></trkpt><trkpt lat="31.20915907" lon="35.66118842"><ele>661.5</ele><time>2015-11-21T11:45:21.0000000+00:00</time></trkpt><trkpt lat="31.208973" lon="35.66126687"><ele>663.5</ele><time>2015-11-21T11:45:35.0000000+00:00</time></trkpt><trkpt lat="31.208959" lon="35.66127526"><ele>663.9</ele><time>2015-11-21T11:45:36.0000000+00:00</time></trkpt><trkpt lat="31.20894408" lon="35.6612797"><ele>663.9</ele><time>2015-11-21T11:45:37.0000000+00:00</time></trkpt><trkpt lat="31.20893058" lon="35.66128615"><ele>663.9</ele><time>2015-11-21T11:45:38.0000000+00:00</time></trkpt><trkpt lat="31.20891793" lon="35.66129286"><ele>664.4</ele><time>2015-11-21T11:45:39.0000000+00:00</time></trkpt><trkpt lat="31.20890602" lon="35.66129697"><ele>664.4</ele><time>2015-11-21T11:45:40.0000000+00:00</time></trkpt><trkpt lat="31.20889429" lon="35.66130275"><ele>664.4</ele><time>2015-11-21T11:45:41.0000000+00:00</time></trkpt><trkpt lat="31.2088813" lon="35.66130769"><ele>664.9</ele><time>2015-11-21T11:45:42.0000000+00:00</time></trkpt><trkpt lat="31.20867862" lon="35.66138514"><ele>665.9</ele><time>2015-11-21T11:45:58.0000000+00:00</time></trkpt><trkpt lat="31.20845315" lon="35.66146687"><ele>667.8</ele><time>2015-11-21T11:46:15.0000000+00:00</time></trkpt><trkpt lat="31.20822717" lon="35.66157281"><ele>669.2</ele><time>2015-11-21T11:46:32.0000000+00:00</time></trkpt><trkpt lat="31.20796231" lon="35.66168974"><ele>670.7</ele><time>2015-11-21T11:46:47.0000000+00:00</time></trkpt><trkpt lat="31.2076852" lon="35.66180089"><ele>672.1</ele><time>2015-11-21T11:47:03.0000000+00:00</time></trkpt><trkpt lat="31.20747096" lon="35.66190013"><ele>672.6</ele><time>2015-11-21T11:47:16.0000000+00:00</time></trkpt><trkpt lat="31.20717952" lon="35.66202007"><ele>674.0</ele><time>2015-11-21T11:47:34.0000000+00:00</time></trkpt><trkpt lat="31.20716385" lon="35.66201773"><ele>674.5</ele><time>2015-11-21T11:47:35.0000000+00:00</time></trkpt><trkpt lat="31.20713635" lon="35.66202242"><ele>674.5</ele><time>2015-11-21T11:47:37.0000000+00:00</time></trkpt><trkpt lat="31.20712403" lon="35.66202745"><ele>674.5</ele><time>2015-11-21T11:47:38.0000000+00:00</time></trkpt><trkpt lat="31.2071102" lon="35.66203013"><ele>675.0</ele><time>2015-11-21T11:47:39.0000000+00:00</time></trkpt><trkpt lat="31.20709646" lon="35.66203105"><ele>675.0</ele><time>2015-11-21T11:47:40.0000000+00:00</time></trkpt><trkpt lat="31.20708355" lon="35.66203499"><ele>675.5</ele><time>2015-11-21T11:47:41.0000000+00:00</time></trkpt><trkpt lat="31.20700501" lon="35.66205117"><ele>675.9</ele><time>2015-11-21T11:47:55.0000000+00:00</time></trkpt><trkpt lat="31.20699227" lon="35.66206827"><ele>675.5</ele><time>2015-11-21T11:48:13.0000000+00:00</time></trkpt><trkpt lat="31.20697249" lon="35.66205729"><ele>675.5</ele><time>2015-11-21T11:48:24.0000000+00:00</time></trkpt><trkpt lat="31.20698422" lon="35.66202602"><ele>675.5</ele><time>2015-11-21T11:48:57.0000000+00:00</time></trkpt><trkpt lat="31.20699755" lon="35.66201421"><ele>675.9</ele><time>2015-11-21T11:49:31.0000000+00:00</time></trkpt><trkpt lat="31.20698615" lon="35.66202435"><ele>675.9</ele><time>2015-11-21T11:50:01.0000000+00:00</time></trkpt><trkpt lat="31.20697374" lon="35.66203482"><ele>676.4</ele><time>2015-11-21T11:50:35.0000000+00:00</time></trkpt><trkpt lat="31.20697014" lon="35.66203332"><ele>676.4</ele><time>2015-11-21T11:51:13.0000000+00:00</time></trkpt><trkpt lat="31.20696628" lon="35.66203038"><ele>676.4</ele><time>2015-11-21T11:51:50.0000000+00:00</time></trkpt><trkpt lat="31.20697291" lon="35.66201798"><ele>676.4</ele><time>2015-11-21T11:52:26.0000000+00:00</time></trkpt><trkpt lat="31.20696972" lon="35.66201043"><ele>676.4</ele><time>2015-11-21T11:52:56.0000000+00:00</time></trkpt><trkpt lat="31.20696813" lon="35.66200867"><ele>676.4</ele><time>2015-11-21T11:53:29.0000000+00:00</time></trkpt><trkpt lat="31.20695639" lon="35.66202049"><ele>676.9</ele><time>2015-11-21T11:53:50.0000000+00:00</time></trkpt><trkpt lat="31.20696411" lon="35.66203315"><ele>676.4</ele><time>2015-11-21T11:54:13.0000000+00:00</time></trkpt><trkpt lat="31.20696545" lon="35.6620298"><ele>676.4</ele><time>2015-11-21T11:54:40.0000000+00:00</time></trkpt><trkpt lat="31.20696737" lon="35.66201823"><ele>676.9</ele><time>2015-11-21T11:55:10.0000000+00:00</time></trkpt><trkpt lat="31.20695338" lon="35.66203809"><ele>676.4</ele><time>2015-11-21T11:55:44.0000000+00:00</time></trkpt><trkpt lat="31.20696427" lon="35.66202183"><ele>676.4</ele><time>2015-11-21T11:56:08.0000000+00:00</time></trkpt><trkpt lat="31.20697785" lon="35.66203776"><ele>676.4</ele><time>2015-11-21T11:56:29.0000000+00:00</time></trkpt><trkpt lat="31.20698472" lon="35.66206785"><ele>676.4</ele><time>2015-11-21T11:56:33.0000000+00:00</time></trkpt><trkpt lat="31.2069869" lon="35.66208285"><ele>676.4</ele><time>2015-11-21T11:56:34.0000000+00:00</time></trkpt><trkpt lat="31.20698389" lon="35.66209509"><ele>676.4</ele><time>2015-11-21T11:56:35.0000000+00:00</time></trkpt><trkpt lat="31.2069781" lon="35.66210683"><ele>676.4</ele><time>2015-11-21T11:56:36.0000000+00:00</time></trkpt><trkpt lat="31.20696989" lon="35.66211856"><ele>676.4</ele><time>2015-11-21T11:56:37.0000000+00:00</time></trkpt><trkpt lat="31.20695799" lon="35.6621261"><ele>676.4</ele><time>2015-11-21T11:56:38.0000000+00:00</time></trkpt><trkpt lat="31.20694332" lon="35.66213373"><ele>676.4</ele><time>2015-11-21T11:56:39.0000000+00:00</time></trkpt><trkpt lat="31.20693024" lon="35.66214454"><ele>676.9</ele><time>2015-11-21T11:56:40.0000000+00:00</time></trkpt><trkpt lat="31.20691532" lon="35.66215167"><ele>676.9</ele><time>2015-11-21T11:56:41.0000000+00:00</time></trkpt><trkpt lat="31.20689973" lon="35.66215871"><ele>676.9</ele><time>2015-11-21T11:56:42.0000000+00:00</time></trkpt><trkpt lat="31.20688356" lon="35.66216717"><ele>676.9</ele><time>2015-11-21T11:56:43.0000000+00:00</time></trkpt><trkpt lat="31.20686763" lon="35.66217623"><ele>677.4</ele><time>2015-11-21T11:56:44.0000000+00:00</time></trkpt><trkpt lat="31.20685237" lon="35.6621862"><ele>677.4</ele><time>2015-11-21T11:56:45.0000000+00:00</time></trkpt><trkpt lat="31.20683628" lon="35.66219685"><ele>677.4</ele><time>2015-11-21T11:56:46.0000000+00:00</time></trkpt><trkpt lat="31.20681784" lon="35.66220607"><ele>676.9</ele><time>2015-11-21T11:56:47.0000000+00:00</time></trkpt><trkpt lat="31.20650721" lon="35.66237781"><ele>679.3</ele><time>2015-11-21T11:57:05.0000000+00:00</time></trkpt><trkpt lat="31.20618995" lon="35.66257076"><ele>681.2</ele><time>2015-11-21T11:57:23.0000000+00:00</time></trkpt><trkpt lat="31.20593028" lon="35.6627182"><ele>681.7</ele><time>2015-11-21T11:57:38.0000000+00:00</time></trkpt><trkpt lat="31.20560129" lon="35.66291233"><ele>683.6</ele><time>2015-11-21T11:57:57.0000000+00:00</time></trkpt><trkpt lat="31.20532586" lon="35.66307209"><ele>685.1</ele><time>2015-11-21T11:58:13.0000000+00:00</time></trkpt><trkpt lat="31.20503375" lon="35.66324391"><ele>687.0</ele><time>2015-11-21T11:58:30.0000000+00:00</time></trkpt><trkpt lat="31.20469387" lon="35.66343653"><ele>688.0</ele><time>2015-11-21T11:58:48.0000000+00:00</time></trkpt><trkpt lat="31.20441307" lon="35.66362127"><ele>689.9</ele><time>2015-11-21T11:59:03.0000000+00:00</time></trkpt><trkpt lat="31.20414041" lon="35.66382143"><ele>690.4</ele><time>2015-11-21T11:59:20.0000000+00:00</time></trkpt><trkpt lat="31.20392852" lon="35.66399451"><ele>692.8</ele><time>2015-11-21T11:59:35.0000000+00:00</time></trkpt><trkpt lat="31.20372182" lon="35.66420373"><ele>693.7</ele><time>2015-11-21T11:59:48.0000000+00:00</time></trkpt><trkpt lat="31.20336617" lon="35.66462517"><ele>692.3</ele><time>2015-11-21T12:00:04.0000000+00:00</time></trkpt><trkpt lat="31.2029796" lon="35.66502809"><ele>692.8</ele><time>2015-11-21T12:00:20.0000000+00:00</time></trkpt><trkpt lat="31.20264265" lon="35.66536814"><ele>693.3</ele><time>2015-11-21T12:00:33.0000000+00:00</time></trkpt><trkpt lat="31.20237602" lon="35.66572714"><ele>694.2</ele><time>2015-11-21T12:00:49.0000000+00:00</time></trkpt><trkpt lat="31.20221903" lon="35.66600173"><ele>697.6</ele><time>2015-11-21T12:01:03.0000000+00:00</time></trkpt><trkpt lat="31.20207679" lon="35.66628311"><ele>700.0</ele><time>2015-11-21T12:01:20.0000000+00:00</time></trkpt><trkpt lat="31.2020368" lon="35.66636768"><ele>700.0</ele><time>2015-11-21T12:01:25.0000000+00:00</time></trkpt><trkpt lat="31.20202607" lon="35.66638302"><ele>700.5</ele><time>2015-11-21T12:01:26.0000000+00:00</time></trkpt><trkpt lat="31.20188333" lon="35.66668326"><ele>702.4</ele><time>2015-11-21T12:01:44.0000000+00:00</time></trkpt><trkpt lat="31.20176724" lon="35.66691821"><ele>703.8</ele><time>2015-11-21T12:01:59.0000000+00:00</time></trkpt><trkpt lat="31.20165559" lon="35.66712365"><ele>705.3</ele><time>2015-11-21T12:02:12.0000000+00:00</time></trkpt><trkpt lat="31.20152333" lon="35.66733965"><ele>706.7</ele><time>2015-11-21T12:02:26.0000000+00:00</time></trkpt><trkpt lat="31.20135552" lon="35.66759077"><ele>708.2</ele><time>2015-11-21T12:02:42.0000000+00:00</time></trkpt><trkpt lat="31.20117565" lon="35.66786846"><ele>710.1</ele><time>2015-11-21T12:02:59.0000000+00:00</time></trkpt><trkpt lat="31.20098789" lon="35.66815839"><ele>711.5</ele><time>2015-11-21T12:03:18.0000000+00:00</time></trkpt><trkpt lat="31.20091924" lon="35.66826384"><ele>712.5</ele><time>2015-11-21T12:03:25.0000000+00:00</time></trkpt><trkpt lat="31.20091019" lon="35.66827943"><ele>713.0</ele><time>2015-11-21T12:03:26.0000000+00:00</time></trkpt><trkpt lat="31.20073677" lon="35.66853323"><ele>714.4</ele><time>2015-11-21T12:03:42.0000000+00:00</time></trkpt><trkpt lat="31.20054751" lon="35.66881243"><ele>714.4</ele><time>2015-11-21T12:03:58.0000000+00:00</time></trkpt><trkpt lat="31.2003305" lon="35.66915123"><ele>715.8</ele><time>2015-11-21T12:04:13.0000000+00:00</time></trkpt><trkpt lat="31.20010067" lon="35.6695197"><ele>715.4</ele><time>2015-11-21T12:04:27.0000000+00:00</time></trkpt><trkpt lat="31.19974511" lon="35.67012286"><ele>713.9</ele><time>2015-11-21T12:04:43.0000000+00:00</time></trkpt><trkpt lat="31.19972382" lon="35.67016787"><ele>713.9</ele><time>2015-11-21T12:04:44.0000000+00:00</time></trkpt><trkpt lat="31.19944923" lon="35.67081705"><ele>710.6</ele><time>2015-11-21T12:04:57.0000000+00:00</time></trkpt><trkpt lat="31.19942609" lon="35.67087924"><ele>710.1</ele><time>2015-11-21T12:04:58.0000000+00:00</time></trkpt><trkpt lat="31.19919073" lon="35.67156421"><ele>707.2</ele><time>2015-11-21T12:05:08.0000000+00:00</time></trkpt><trkpt lat="31.19886367" lon="35.67251975"><ele>706.2</ele><time>2015-11-21T12:05:23.0000000+00:00</time></trkpt><trkpt lat="31.19875043" lon="35.67285947"><ele>708.6</ele><time>2015-11-21T12:05:35.0000000+00:00</time></trkpt><trkpt lat="31.19865772" lon="35.67317504"><ele>710.6</ele><time>2015-11-21T12:05:48.0000000+00:00</time></trkpt><trkpt lat="31.19860693" lon="35.67345173"><ele>713.4</ele><time>2015-11-21T12:06:02.0000000+00:00</time></trkpt><trkpt lat="31.198591" lon="35.67379799"><ele>714.9</ele><time>2015-11-21T12:06:19.0000000+00:00</time></trkpt><trkpt lat="31.19865286" lon="35.67421172"><ele>715.8</ele><time>2015-11-21T12:06:36.0000000+00:00</time></trkpt><trkpt lat="31.1987428" lon="35.67464607"><ele>716.3</ele><time>2015-11-21T12:06:51.0000000+00:00</time></trkpt><trkpt lat="31.19878991" lon="35.67516223"><ele>716.8</ele><time>2015-11-21T12:07:06.0000000+00:00</time></trkpt><trkpt lat="31.19871363" lon="35.67572834"><ele>715.4</ele><time>2015-11-21T12:07:18.0000000+00:00</time></trkpt><trkpt lat="31.19869578" lon="35.675784"><ele>715.4</ele><time>2015-11-21T12:07:19.0000000+00:00</time></trkpt><trkpt lat="31.19835212" lon="35.67675051"><ele>713.0</ele><time>2015-11-21T12:07:35.0000000+00:00</time></trkpt><trkpt lat="31.19822203" lon="35.67713985"><ele>712.5</ele><time>2015-11-21T12:07:42.0000000+00:00</time></trkpt><trkpt lat="31.19809806" lon="35.67803856"><ele>713.9</ele><time>2015-11-21T12:08:00.0000000+00:00</time></trkpt><trkpt lat="31.19800645" lon="35.67902955"><ele>714.4</ele><time>2015-11-21T12:08:21.0000000+00:00</time></trkpt><trkpt lat="31.19782641" lon="35.68015147"><ele>711.5</ele><time>2015-11-21T12:08:39.0000000+00:00</time></trkpt><trkpt lat="31.19768584" lon="35.68077173"><ele>708.6</ele><time>2015-11-21T12:08:48.0000000+00:00</time></trkpt><trkpt lat="31.19759247" lon="35.68124749"><ele>708.2</ele><time>2015-11-21T12:08:57.0000000+00:00</time></trkpt><trkpt lat="31.19758199" lon="35.68129459"><ele>708.6</ele><time>2015-11-21T12:08:58.0000000+00:00</time></trkpt><trkpt lat="31.1975695" lon="35.68133944"><ele>708.6</ele><time>2015-11-21T12:08:59.0000000+00:00</time></trkpt><trkpt lat="31.19747571" lon="35.68184629"><ele>710.6</ele><time>2015-11-21T12:09:13.0000000+00:00</time></trkpt><trkpt lat="31.19734478" lon="35.6824539"><ele>712.5</ele><time>2015-11-21T12:09:33.0000000+00:00</time></trkpt><trkpt lat="31.19723967" lon="35.68295798"><ele>714.4</ele><time>2015-11-21T12:09:52.0000000+00:00</time></trkpt><trkpt lat="31.19719022" lon="35.68324825"><ele>713.9</ele><time>2015-11-21T12:10:04.0000000+00:00</time></trkpt><trkpt lat="31.19714336" lon="35.68361051"><ele>714.4</ele><time>2015-11-21T12:10:18.0000000+00:00</time></trkpt><trkpt lat="31.19708369" lon="35.68405333"><ele>714.4</ele><time>2015-11-21T12:10:31.0000000+00:00</time></trkpt><trkpt lat="31.19703398" lon="35.68449665"><ele>715.4</ele><time>2015-11-21T12:10:45.0000000+00:00</time></trkpt><trkpt lat="31.19698796" lon="35.68509721"><ele>715.8</ele><time>2015-11-21T12:11:01.0000000+00:00</time></trkpt><trkpt lat="31.19692309" lon="35.6856034"><ele>714.9</ele><time>2015-11-21T12:11:16.0000000+00:00</time></trkpt><trkpt lat="31.19684765" lon="35.68594714"><ele>714.4</ele><time>2015-11-21T12:11:25.0000000+00:00</time></trkpt><trkpt lat="31.19661405" lon="35.68676597"><ele>712.5</ele><time>2015-11-21T12:11:40.0000000+00:00</time></trkpt><trkpt lat="31.19650953" lon="35.68719839"><ele>711.5</ele><time>2015-11-21T12:11:47.0000000+00:00</time></trkpt><trkpt lat="31.19648228" lon="35.68754406"><ele>711.5</ele><time>2015-11-21T12:11:53.0000000+00:00</time></trkpt><trkpt lat="31.19648639" lon="35.68759795"><ele>711.5</ele><time>2015-11-21T12:11:54.0000000+00:00</time></trkpt><trkpt lat="31.19649293" lon="35.68764707"><ele>711.5</ele><time>2015-11-21T12:11:55.0000000+00:00</time></trkpt><trkpt lat="31.19667012" lon="35.68820061"><ele>713.0</ele><time>2015-11-21T12:12:10.0000000+00:00</time></trkpt><trkpt lat="31.19693575" lon="35.6886959"><ele>715.8</ele><time>2015-11-21T12:12:29.0000000+00:00</time></trkpt><trkpt lat="31.19718712" lon="35.68914768"><ele>718.2</ele><time>2015-11-21T12:12:47.0000000+00:00</time></trkpt><trkpt lat="31.19743053" lon="35.68957516"><ele>719.2</ele><time>2015-11-21T12:13:03.0000000+00:00</time></trkpt><trkpt lat="31.19764326" lon="35.69001169"><ele>719.2</ele><time>2015-11-21T12:13:17.0000000+00:00</time></trkpt><trkpt lat="31.1978311" lon="35.69043707"><ele>719.2</ele><time>2015-11-21T12:13:36.0000000+00:00</time></trkpt><trkpt lat="31.19799698" lon="35.69085441"><ele>718.7</ele><time>2015-11-21T12:13:52.0000000+00:00</time></trkpt><trkpt lat="31.19812623" lon="35.69122078"><ele>718.7</ele><time>2015-11-21T12:14:05.0000000+00:00</time></trkpt><trkpt lat="31.19822815" lon="35.69184087"><ele>717.3</ele><time>2015-11-21T12:14:21.0000000+00:00</time></trkpt><trkpt lat="31.19822647" lon="35.69188957"><ele>717.3</ele><time>2015-11-21T12:14:22.0000000+00:00</time></trkpt><trkpt lat="31.19822136" lon="35.69198747"><ele>716.8</ele><time>2015-11-21T12:14:24.0000000+00:00</time></trkpt><trkpt lat="31.19805037" lon="35.69283404"><ele>714.9</ele><time>2015-11-21T12:14:40.0000000+00:00</time></trkpt><trkpt lat="31.19783169" lon="35.69370501"><ele>713.4</ele><time>2015-11-21T12:14:56.0000000+00:00</time></trkpt><trkpt lat="31.19749742" lon="35.69429493"><ele>712.5</ele><time>2015-11-21T12:15:10.0000000+00:00</time></trkpt><trkpt lat="31.19711428" lon="35.6946323"><ele>712.5</ele><time>2015-11-21T12:15:24.0000000+00:00</time></trkpt><trkpt lat="31.1966687" lon="35.69499532"><ele>712.0</ele><time>2015-11-21T12:15:39.0000000+00:00</time></trkpt><trkpt lat="31.19630836" lon="35.69516757"><ele>710.1</ele><time>2015-11-21T12:15:48.0000000+00:00</time></trkpt><trkpt lat="31.19625463" lon="35.69518148"><ele>710.1</ele><time>2015-11-21T12:15:49.0000000+00:00</time></trkpt><trkpt lat="31.19569128" lon="35.69528173"><ele>706.7</ele><time>2015-11-21T12:15:57.0000000+00:00</time></trkpt><trkpt lat="31.19459116" lon="35.69528307"><ele>708.6</ele><time>2015-11-21T12:16:10.0000000+00:00</time></trkpt><trkpt lat="31.19446644" lon="35.69527972"><ele>709.1</ele><time>2015-11-21T12:16:12.0000000+00:00</time></trkpt><trkpt lat="31.19398632" lon="35.6952544"><ele>712.0</ele><time>2015-11-21T12:16:24.0000000+00:00</time></trkpt><trkpt lat="31.19357762" lon="35.69522783"><ele>714.9</ele><time>2015-11-21T12:16:41.0000000+00:00</time></trkpt><trkpt lat="31.19329222" lon="35.69519841"><ele>717.8</ele><time>2015-11-21T12:16:56.0000000+00:00</time></trkpt><trkpt lat="31.19309985" lon="35.69517394"><ele>718.7</ele><time>2015-11-21T12:17:08.0000000+00:00</time></trkpt><trkpt lat="31.19308493" lon="35.69517402"><ele>718.7</ele><time>2015-11-21T12:17:09.0000000+00:00</time></trkpt><trkpt lat="31.19306859" lon="35.69517134"><ele>719.2</ele><time>2015-11-21T12:17:10.0000000+00:00</time></trkpt><trkpt lat="31.19274228" lon="35.69515139"><ele>722.1</ele><time>2015-11-21T12:17:30.0000000+00:00</time></trkpt><trkpt lat="31.19261957" lon="35.69515793"><ele>722.6</ele><time>2015-11-21T12:17:38.0000000+00:00</time></trkpt><trkpt lat="31.19260557" lon="35.69516136"><ele>722.6</ele><time>2015-11-21T12:17:39.0000000+00:00</time></trkpt><trkpt lat="31.19234305" lon="35.69521534"><ele>724.5</ele><time>2015-11-21T12:17:56.0000000+00:00</time></trkpt><trkpt lat="31.19210492" lon="35.69532464"><ele>727.4</ele><time>2015-11-21T12:18:13.0000000+00:00</time></trkpt><trkpt lat="31.191904" lon="35.69544266"><ele>729.8</ele><time>2015-11-21T12:18:27.0000000+00:00</time></trkpt><trkpt lat="31.19172522" lon="35.69554978"><ele>731.7</ele><time>2015-11-21T12:18:41.0000000+00:00</time></trkpt><trkpt lat="31.19166981" lon="35.69557543"><ele>732.2</ele><time>2015-11-21T12:18:45.0000000+00:00</time></trkpt><trkpt lat="31.19165749" lon="35.69558105"><ele>732.7</ele><time>2015-11-21T12:18:46.0000000+00:00</time></trkpt><trkpt lat="31.19164593" lon="35.69558616"><ele>732.7</ele><time>2015-11-21T12:18:47.0000000+00:00</time></trkpt><trkpt lat="31.19163536" lon="35.69559261"><ele>732.7</ele><time>2015-11-21T12:18:48.0000000+00:00</time></trkpt><trkpt lat="31.19162438" lon="35.69559881"><ele>733.1</ele><time>2015-11-21T12:18:49.0000000+00:00</time></trkpt><trkpt lat="31.19160133" lon="35.69561264"><ele>733.6</ele><time>2015-11-21T12:18:51.0000000+00:00</time></trkpt><trkpt lat="31.19159044" lon="35.69561969"><ele>733.6</ele><time>2015-11-21T12:18:52.0000000+00:00</time></trkpt><trkpt lat="31.19157728" lon="35.69562622"><ele>733.6</ele><time>2015-11-21T12:18:53.0000000+00:00</time></trkpt><trkpt lat="31.19156496" lon="35.6956341"><ele>733.6</ele><time>2015-11-21T12:18:54.0000000+00:00</time></trkpt><trkpt lat="31.19155339" lon="35.69564148"><ele>733.6</ele><time>2015-11-21T12:18:55.0000000+00:00</time></trkpt><trkpt lat="31.19153989" lon="35.69564743"><ele>734.1</ele><time>2015-11-21T12:18:56.0000000+00:00</time></trkpt><trkpt lat="31.19152506" lon="35.69565263"><ele>734.1</ele><time>2015-11-21T12:18:57.0000000+00:00</time></trkpt><trkpt lat="31.19130981" lon="35.69578322"><ele>735.6</ele><time>2015-11-21T12:19:14.0000000+00:00</time></trkpt><trkpt lat="31.19110026" lon="35.69590869"><ele>737.5</ele><time>2015-11-21T12:19:30.0000000+00:00</time></trkpt><trkpt lat="31.19108484" lon="35.69591573"><ele>738.0</ele><time>2015-11-21T12:19:31.0000000+00:00</time></trkpt><trkpt lat="31.19107218" lon="35.6959216"><ele>738.0</ele><time>2015-11-21T12:19:32.0000000+00:00</time></trkpt><trkpt lat="31.19105785" lon="35.69592889"><ele>738.0</ele><time>2015-11-21T12:19:33.0000000+00:00</time></trkpt><trkpt lat="31.19104243" lon="35.69593568"><ele>738.4</ele><time>2015-11-21T12:19:34.0000000+00:00</time></trkpt><trkpt lat="31.19089013" lon="35.69600299"><ele>739.4</ele><time>2015-11-21T12:19:45.0000000+00:00</time></trkpt><trkpt lat="31.19087555" lon="35.69600919"><ele>739.9</ele><time>2015-11-21T12:19:46.0000000+00:00</time></trkpt><trkpt lat="31.1908613" lon="35.69601263"><ele>739.9</ele><time>2015-11-21T12:19:47.0000000+00:00</time></trkpt><trkpt lat="31.19084696" lon="35.6960154"><ele>739.9</ele><time>2015-11-21T12:19:48.0000000+00:00</time></trkpt><trkpt lat="31.19083255" lon="35.6960195"><ele>739.9</ele><time>2015-11-21T12:19:49.0000000+00:00</time></trkpt><trkpt lat="31.19081721" lon="35.69602336"><ele>740.4</ele><time>2015-11-21T12:19:50.0000000+00:00</time></trkpt><trkpt lat="31.19080279" lon="35.69602713"><ele>740.4</ele><time>2015-11-21T12:19:51.0000000+00:00</time></trkpt><trkpt lat="31.19059232" lon="35.696077"><ele>742.3</ele><time>2015-11-21T12:20:06.0000000+00:00</time></trkpt><trkpt lat="31.19055083" lon="35.69608505"><ele>742.8</ele><time>2015-11-21T12:20:09.0000000+00:00</time></trkpt><trkpt lat="31.19053658" lon="35.69608664"><ele>742.8</ele><time>2015-11-21T12:20:10.0000000+00:00</time></trkpt><trkpt lat="31.19052216" lon="35.696091"><ele>743.2</ele><time>2015-11-21T12:20:11.0000000+00:00</time></trkpt><trkpt lat="31.19050859" lon="35.69609645"><ele>743.2</ele><time>2015-11-21T12:20:12.0000000+00:00</time></trkpt><trkpt lat="31.19049434" lon="35.69609997"><ele>743.2</ele><time>2015-11-21T12:20:13.0000000+00:00</time></trkpt><trkpt lat="31.19047891" lon="35.69610022"><ele>743.7</ele><time>2015-11-21T12:20:14.0000000+00:00</time></trkpt><trkpt lat="31.19046475" lon="35.69610039"><ele>743.7</ele><time>2015-11-21T12:20:15.0000000+00:00</time></trkpt><trkpt lat="31.19027423" lon="35.69614506"><ele>745.6</ele><time>2015-11-21T12:20:29.0000000+00:00</time></trkpt><trkpt lat="31.1901283" lon="35.69617457"><ele>747.1</ele><time>2015-11-21T12:20:39.0000000+00:00</time></trkpt><trkpt lat="31.19011313" lon="35.69617683"><ele>747.1</ele><time>2015-11-21T12:20:40.0000000+00:00</time></trkpt><trkpt lat="31.19009913" lon="35.69617985"><ele>747.6</ele><time>2015-11-21T12:20:41.0000000+00:00</time></trkpt><trkpt lat="31.19003258" lon="35.69619636"><ele>748.0</ele><time>2015-11-21T12:20:46.0000000+00:00</time></trkpt><trkpt lat="31.19001749" lon="35.69619728"><ele>748.0</ele><time>2015-11-21T12:20:47.0000000+00:00</time></trkpt><trkpt lat="31.19000366" lon="35.69620064"><ele>748.5</ele><time>2015-11-21T12:20:48.0000000+00:00</time></trkpt><trkpt lat="31.18998983" lon="35.69620457"><ele>748.5</ele><time>2015-11-21T12:20:49.0000000+00:00</time></trkpt><trkpt lat="31.18997642" lon="35.69620793"><ele>749.0</ele><time>2015-11-21T12:20:50.0000000+00:00</time></trkpt><trkpt lat="31.18996217" lon="35.69620952"><ele>749.0</ele><time>2015-11-21T12:20:51.0000000+00:00</time></trkpt><trkpt lat="31.18977894" lon="35.69625336"><ele>750.5</ele><time>2015-11-21T12:21:05.0000000+00:00</time></trkpt><trkpt lat="31.18976654" lon="35.69625814"><ele>750.9</ele><time>2015-11-21T12:21:06.0000000+00:00</time></trkpt><trkpt lat="31.18975413" lon="35.69626191"><ele>750.9</ele><time>2015-11-21T12:21:07.0000000+00:00</time></trkpt><trkpt lat="31.18973955" lon="35.69626593"><ele>750.9</ele><time>2015-11-21T12:21:08.0000000+00:00</time></trkpt><trkpt lat="31.18972639" lon="35.69627129"><ele>750.9</ele><time>2015-11-21T12:21:09.0000000+00:00</time></trkpt><trkpt lat="31.18971272" lon="35.69627733"><ele>751.4</ele><time>2015-11-21T12:21:10.0000000+00:00</time></trkpt><trkpt lat="31.18969806" lon="35.69628043"><ele>751.4</ele><time>2015-11-21T12:21:11.0000000+00:00</time></trkpt><trkpt lat="31.18968481" lon="35.69628336"><ele>751.4</ele><time>2015-11-21T12:21:12.0000000+00:00</time></trkpt><trkpt lat="31.18944802" lon="35.69636073"><ele>753.8</ele><time>2015-11-21T12:21:30.0000000+00:00</time></trkpt><trkpt lat="31.18943478" lon="35.69635604"><ele>754.3</ele><time>2015-11-21T12:21:31.0000000+00:00</time></trkpt><trkpt lat="31.18938197" lon="35.69630231"><ele>754.8</ele><time>2015-11-21T12:21:36.0000000+00:00</time></trkpt><trkpt lat="31.18927619" lon="35.69622058"><ele>755.3</ele><time>2015-11-21T12:21:48.0000000+00:00</time></trkpt><trkpt lat="31.18922884" lon="35.69615806"><ele>754.8</ele><time>2015-11-21T12:22:03.0000000+00:00</time></trkpt><trkpt lat="31.1892306" lon="35.6961516"><ele>754.8</ele><time>2015-11-21T12:22:17.0000000+00:00</time></trkpt><trkpt lat="31.18919481" lon="35.6961599"><ele>755.3</ele><time>2015-11-21T12:22:51.0000000+00:00</time></trkpt><trkpt lat="31.18919497" lon="35.69616484"><ele>755.3</ele><time>2015-11-21T12:23:40.0000000+00:00</time></trkpt><trkpt lat="31.18920285" lon="35.69613157"><ele>755.7</ele><time>2015-11-21T12:24:15.0000000+00:00</time></trkpt><trkpt lat="31.18922993" lon="35.69615948"><ele>756.2</ele><time>2015-11-21T12:24:51.0000000+00:00</time></trkpt><trkpt lat="31.18918961" lon="35.69617599"><ele>756.2</ele><time>2015-11-21T12:25:19.0000000+00:00</time></trkpt><trkpt lat="31.18922934" lon="35.69617013"><ele>755.7</ele><time>2015-11-21T12:25:55.0000000+00:00</time></trkpt><trkpt lat="31.18920235" lon="35.69616199"><ele>756.2</ele><time>2015-11-21T12:26:26.0000000+00:00</time></trkpt><trkpt lat="31.18921182" lon="35.69617314"><ele>757.2</ele><time>2015-11-21T12:27:02.0000000+00:00</time></trkpt><trkpt lat="31.18923454" lon="35.69615906"><ele>756.7</ele><time>2015-11-21T12:27:35.0000000+00:00</time></trkpt><trkpt lat="31.18919154" lon="35.69616032"><ele>756.7</ele><time>2015-11-21T12:28:10.0000000+00:00</time></trkpt><trkpt lat="31.18920126" lon="35.69613618"><ele>756.7</ele><time>2015-11-21T12:28:42.0000000+00:00</time></trkpt><trkpt lat="31.18917109" lon="35.69614842"><ele>756.7</ele><time>2015-11-21T12:29:20.0000000+00:00</time></trkpt><trkpt lat="31.1891741" lon="35.69616359"><ele>756.7</ele><time>2015-11-21T12:30:04.0000000+00:00</time></trkpt><trkpt lat="31.18921341" lon="35.69614615"><ele>757.2</ele><time>2015-11-21T12:30:35.0000000+00:00</time></trkpt><trkpt lat="31.1892171" lon="35.69612486"><ele>757.2</ele><time>2015-11-21T12:31:10.0000000+00:00</time></trkpt><trkpt lat="31.18919598" lon="35.69616392"><ele>757.2</ele><time>2015-11-21T12:31:44.0000000+00:00</time></trkpt><trkpt lat="31.18920302" lon="35.6961397"><ele>757.7</ele><time>2015-11-21T12:32:24.0000000+00:00</time></trkpt><trkpt lat="31.18918139" lon="35.69614255"><ele>757.7</ele><time>2015-11-21T12:32:54.0000000+00:00</time></trkpt><trkpt lat="31.18920394" lon="35.69613744"><ele>757.7</ele><time>2015-11-21T12:33:29.0000000+00:00</time></trkpt><trkpt lat="31.18920906" lon="35.69613702"><ele>757.7</ele><time>2015-11-21T12:34:06.0000000+00:00</time></trkpt><trkpt lat="31.18919707" lon="35.69614272"><ele>757.7</ele><time>2015-11-21T12:34:43.0000000+00:00</time></trkpt><trkpt lat="31.18918668" lon="35.69615135"><ele>757.7</ele><time>2015-11-21T12:35:11.0000000+00:00</time></trkpt><trkpt lat="31.18921367" lon="35.69612687"><ele>757.7</ele><time>2015-11-21T12:35:45.0000000+00:00</time></trkpt><trkpt lat="31.18921283" lon="35.69614892"><ele>757.7</ele><time>2015-11-21T12:36:17.0000000+00:00</time></trkpt><trkpt lat="31.18921232" lon="35.6961775"><ele>757.7</ele><time>2015-11-21T12:36:45.0000000+00:00</time></trkpt><trkpt lat="31.1893953" lon="35.69634229"><ele>757.7</ele><time>2015-11-21T12:36:57.0000000+00:00</time></trkpt><trkpt lat="31.18937778" lon="35.69638504"><ele>757.7</ele><time>2015-11-21T12:37:04.0000000+00:00</time></trkpt><trkpt lat="31.18933411" lon="35.69640155"><ele>758.6</ele><time>2015-11-21T12:37:08.0000000+00:00</time></trkpt><trkpt lat="31.18914778" lon="35.69645754"><ele>760.5</ele><time>2015-11-21T12:37:23.0000000+00:00</time></trkpt><trkpt lat="31.18902532" lon="35.69649861"><ele>762.0</ele><time>2015-11-21T12:37:33.0000000+00:00</time></trkpt><trkpt lat="31.18879935" lon="35.69654815"><ele>764.9</ele><time>2015-11-21T12:37:50.0000000+00:00</time></trkpt><trkpt lat="31.18859701" lon="35.69659576"><ele>767.3</ele><time>2015-11-21T12:38:05.0000000+00:00</time></trkpt><trkpt lat="31.1884002" lon="35.69661244"><ele>769.2</ele><time>2015-11-21T12:38:19.0000000+00:00</time></trkpt><trkpt lat="31.18817766" lon="35.6966209"><ele>771.6</ele><time>2015-11-21T12:38:35.0000000+00:00</time></trkpt><trkpt lat="31.18802436" lon="35.69661462"><ele>773.0</ele><time>2015-11-21T12:38:45.0000000+00:00</time></trkpt><trkpt lat="31.18781514" lon="35.69659903"><ele>775.4</ele><time>2015-11-21T12:39:00.0000000+00:00</time></trkpt><trkpt lat="31.18761683" lon="35.6966002"><ele>777.8</ele><time>2015-11-21T12:39:15.0000000+00:00</time></trkpt><trkpt lat="31.18743896" lon="35.6966432"><ele>780.3</ele><time>2015-11-21T12:39:29.0000000+00:00</time></trkpt><trkpt lat="31.18720176" lon="35.69673976"><ele>782.7</ele><time>2015-11-21T12:39:47.0000000+00:00</time></trkpt><trkpt lat="31.18698408" lon="35.69683582"><ele>784.6</ele><time>2015-11-21T12:40:04.0000000+00:00</time></trkpt><trkpt lat="31.18678669" lon="35.69690891"><ele>786.0</ele><time>2015-11-21T12:40:19.0000000+00:00</time></trkpt><trkpt lat="31.18658518" lon="35.69695015"><ele>787.5</ele><time>2015-11-21T12:40:33.0000000+00:00</time></trkpt><trkpt lat="31.18635896" lon="35.69696859"><ele>789.4</ele><time>2015-11-21T12:40:49.0000000+00:00</time></trkpt><trkpt lat="31.1861251" lon="35.69696096"><ele>792.3</ele><time>2015-11-21T12:41:05.0000000+00:00</time></trkpt><trkpt lat="31.1858863" lon="35.69693866"><ele>794.7</ele><time>2015-11-21T12:41:21.0000000+00:00</time></trkpt><trkpt lat="31.18574071" lon="35.69691653"><ele>796.1</ele><time>2015-11-21T12:41:31.0000000+00:00</time></trkpt><trkpt lat="31.18546955" lon="35.69687295"><ele>799.5</ele><time>2015-11-21T12:41:51.0000000+00:00</time></trkpt><trkpt lat="31.185216" lon="35.69684126"><ele>801.9</ele><time>2015-11-21T12:42:10.0000000+00:00</time></trkpt><trkpt lat="31.18494694" lon="35.69685124"><ele>804.8</ele><time>2015-11-21T12:42:29.0000000+00:00</time></trkpt><trkpt lat="31.18466774" lon="35.69688544"><ele>807.6</ele><time>2015-11-21T12:42:48.0000000+00:00</time></trkpt><trkpt lat="31.18443891" lon="35.69692751"><ele>810.1</ele><time>2015-11-21T12:43:04.0000000+00:00</time></trkpt><trkpt lat="31.18421176" lon="35.69698711"><ele>812.5</ele><time>2015-11-21T12:43:20.0000000+00:00</time></trkpt><trkpt lat="31.18398587" lon="35.69710538"><ele>814.9</ele><time>2015-11-21T12:43:38.0000000+00:00</time></trkpt><trkpt lat="31.18383986" lon="35.69728333"><ele>817.3</ele><time>2015-11-21T12:43:54.0000000+00:00</time></trkpt><trkpt lat="31.18378219" lon="35.69752146"><ele>819.7</ele><time>2015-11-21T12:44:10.0000000+00:00</time></trkpt><trkpt lat="31.18384883" lon="35.69779823"><ele>822.6</ele><time>2015-11-21T12:44:28.0000000+00:00</time></trkpt><trkpt lat="31.1839469" lon="35.69791792"><ele>824.0</ele><time>2015-11-21T12:44:39.0000000+00:00</time></trkpt><trkpt lat="31.18413264" lon="35.6980149"><ele>825.4</ele><time>2015-11-21T12:44:54.0000000+00:00</time></trkpt><trkpt lat="31.18436188" lon="35.6980936"><ele>827.4</ele><time>2015-11-21T12:45:10.0000000+00:00</time></trkpt><trkpt lat="31.18457453" lon="35.69813484"><ele>828.8</ele><time>2015-11-21T12:45:24.0000000+00:00</time></trkpt><trkpt lat="31.18490989" lon="35.69821095"><ele>830.2</ele><time>2015-11-21T12:45:41.0000000+00:00</time></trkpt><trkpt lat="31.18532547" lon="35.6983148"><ele>832.2</ele><time>2015-11-21T12:45:59.0000000+00:00</time></trkpt><trkpt lat="31.18601706" lon="35.69846928"><ele>832.6</ele><time>2015-11-21T12:46:19.0000000+00:00</time></trkpt><trkpt lat="31.18684108" lon="35.69868"><ele>832.6</ele><time>2015-11-21T12:46:34.0000000+00:00</time></trkpt><trkpt lat="31.18735724" lon="35.69878687"><ele>834.6</ele><time>2015-11-21T12:46:46.0000000+00:00</time></trkpt><trkpt lat="31.18772931" lon="35.69880531"><ele>837.0</ele><time>2015-11-21T12:47:01.0000000+00:00</time></trkpt><trkpt lat="31.18807641" lon="35.69875821"><ele>840.3</ele><time>2015-11-21T12:47:17.0000000+00:00</time></trkpt><trkpt lat="31.18842392" lon="35.69867606"><ele>843.2</ele><time>2015-11-21T12:47:36.0000000+00:00</time></trkpt><trkpt lat="31.18869499" lon="35.69864279"><ele>845.6</ele><time>2015-11-21T12:47:53.0000000+00:00</time></trkpt><trkpt lat="31.18894469" lon="35.69862535"><ele>848.0</ele><time>2015-11-21T12:48:09.0000000+00:00</time></trkpt><trkpt lat="31.18918207" lon="35.69860188"><ele>849.9</ele><time>2015-11-21T12:48:25.0000000+00:00</time></trkpt><trkpt lat="31.18940628" lon="35.69857179"><ele>851.9</ele><time>2015-11-21T12:48:39.0000000+00:00</time></trkpt><trkpt lat="31.1896776" lon="35.69848596"><ele>853.8</ele><time>2015-11-21T12:48:56.0000000+00:00</time></trkpt><trkpt lat="31.18991288" lon="35.69842033"><ele>855.7</ele><time>2015-11-21T12:49:12.0000000+00:00</time></trkpt><trkpt lat="31.19016727" lon="35.69833416"><ele>858.6</ele><time>2015-11-21T12:49:30.0000000+00:00</time></trkpt><trkpt lat="31.1904049" lon="35.69827013"><ele>860.0</ele><time>2015-11-21T12:49:45.0000000+00:00</time></trkpt><trkpt lat="31.19071872" lon="35.69818782"><ele>862.4</ele><time>2015-11-21T12:50:03.0000000+00:00</time></trkpt><trkpt lat="31.19094671" lon="35.69810517"><ele>864.4</ele><time>2015-11-21T12:50:17.0000000+00:00</time></trkpt><trkpt lat="31.19117998" lon="35.69803837"><ele>865.8</ele><time>2015-11-21T12:50:31.0000000+00:00</time></trkpt><trkpt lat="31.19151433" lon="35.69791264"><ele>868.7</ele><time>2015-11-21T12:50:51.0000000+00:00</time></trkpt><trkpt lat="31.19178515" lon="35.69780577"><ele>871.1</ele><time>2015-11-21T12:51:07.0000000+00:00</time></trkpt><trkpt lat="31.19202864" lon="35.69771323"><ele>874.0</ele><time>2015-11-21T12:51:23.0000000+00:00</time></trkpt><trkpt lat="31.19222973" lon="35.69762967"><ele>875.4</ele><time>2015-11-21T12:51:37.0000000+00:00</time></trkpt><trkpt lat="31.1924645" lon="35.69753763"><ele>877.8</ele><time>2015-11-21T12:51:53.0000000+00:00</time></trkpt><trkpt lat="31.19256316" lon="35.69750587"><ele>879.3</ele><time>2015-11-21T12:52:00.0000000+00:00</time></trkpt><trkpt lat="31.19257917" lon="35.69750587"><ele>879.3</ele><time>2015-11-21T12:52:01.0000000+00:00</time></trkpt><trkpt lat="31.19281922" lon="35.69753143"><ele>882.2</ele><time>2015-11-21T12:52:17.0000000+00:00</time></trkpt><trkpt lat="31.19294747" lon="35.69766722"><ele>883.6</ele><time>2015-11-21T12:52:29.0000000+00:00</time></trkpt><trkpt lat="31.19296147" lon="35.69767451"><ele>884.1</ele><time>2015-11-21T12:52:30.0000000+00:00</time></trkpt><trkpt lat="31.19298217" lon="35.69767694"><ele>884.1</ele><time>2015-11-21T12:52:31.0000000+00:00</time></trkpt><trkpt lat="31.1930053" lon="35.69768138"><ele>884.6</ele><time>2015-11-21T12:52:32.0000000+00:00</time></trkpt><trkpt lat="31.19302332" lon="35.69768063"><ele>884.6</ele><time>2015-11-21T12:52:33.0000000+00:00</time></trkpt><trkpt lat="31.19303657" lon="35.69767644"><ele>884.6</ele><time>2015-11-21T12:52:34.0000000+00:00</time></trkpt><trkpt lat="31.19305031" lon="35.6976761"><ele>884.6</ele><time>2015-11-21T12:52:35.0000000+00:00</time></trkpt><trkpt lat="31.19313489" lon="35.69769261"><ele>885.0</ele><time>2015-11-21T12:52:48.0000000+00:00</time></trkpt><trkpt lat="31.19315182" lon="35.69769211"><ele>884.6</ele><time>2015-11-21T12:53:04.0000000+00:00</time></trkpt><trkpt lat="31.19313908" lon="35.69770142"><ele>885.0</ele><time>2015-11-21T12:53:18.0000000+00:00</time></trkpt><trkpt lat="31.19314402" lon="35.69771013"><ele>885.0</ele><time>2015-11-21T12:53:35.0000000+00:00</time></trkpt><trkpt lat="31.19314084" lon="35.69771701"><ele>884.1</ele><time>2015-11-21T12:53:53.0000000+00:00</time></trkpt><trkpt lat="31.19312692" lon="35.69772053"><ele>884.6</ele><time>2015-11-21T12:54:36.0000000+00:00</time></trkpt><trkpt lat="31.19314453" lon="35.69773293"><ele>885.0</ele><time>2015-11-21T12:55:21.0000000+00:00</time></trkpt><trkpt lat="31.1931234" lon="35.69774542"><ele>885.0</ele><time>2015-11-21T12:55:59.0000000+00:00</time></trkpt><trkpt lat="31.1931198" lon="35.69773687"><ele>886.0</ele><time>2015-11-21T12:56:48.0000000+00:00</time></trkpt><trkpt lat="31.19314528" lon="35.69772975"><ele>886.0</ele><time>2015-11-21T12:57:22.0000000+00:00</time></trkpt><trkpt lat="31.19315576" lon="35.69772145"><ele>886.5</ele><time>2015-11-21T12:58:03.0000000+00:00</time></trkpt><trkpt lat="31.19315618" lon="35.69770544"><ele>887.0</ele><time>2015-11-21T12:58:42.0000000+00:00</time></trkpt><trkpt lat="31.19314813" lon="35.69771994"><ele>887.0</ele><time>2015-11-21T12:59:30.0000000+00:00</time></trkpt><trkpt lat="31.19315559" lon="35.69770552"><ele>887.0</ele><time>2015-11-21T13:00:10.0000000+00:00</time></trkpt><trkpt lat="31.19316246" lon="35.69770812"><ele>887.0</ele><time>2015-11-21T13:00:49.0000000+00:00</time></trkpt><trkpt lat="31.19315366" lon="35.69769211"><ele>887.4</ele><time>2015-11-21T13:01:30.0000000+00:00</time></trkpt><trkpt lat="31.19312785" lon="35.69768524"><ele>887.9</ele><time>2015-11-21T13:01:52.0000000+00:00</time></trkpt><trkpt lat="31.19312072" lon="35.69769748"><ele>887.9</ele><time>2015-11-21T13:02:01.0000000+00:00</time></trkpt><trkpt lat="31.19295183" lon="35.69792722"><ele>887.9</ele><time>2015-11-21T13:02:13.0000000+00:00</time></trkpt><trkpt lat="31.19273314" lon="35.69813644"><ele>888.9</ele><time>2015-11-21T13:02:28.0000000+00:00</time></trkpt><trkpt lat="31.19247272" lon="35.69830156"><ele>890.8</ele><time>2015-11-21T13:02:43.0000000+00:00</time></trkpt><trkpt lat="31.19220701" lon="35.69845453"><ele>892.7</ele><time>2015-11-21T13:02:59.0000000+00:00</time></trkpt><trkpt lat="31.19196938" lon="35.69858101"><ele>894.2</ele><time>2015-11-21T13:03:14.0000000+00:00</time></trkpt><trkpt lat="31.19171424" lon="35.69873205"><ele>895.6</ele><time>2015-11-21T13:03:32.0000000+00:00</time></trkpt><trkpt lat="31.19150142" lon="35.69884362"><ele>898.0</ele><time>2015-11-21T13:03:47.0000000+00:00</time></trkpt><trkpt lat="31.19131912" lon="35.69895409"><ele>901.4</ele><time>2015-11-21T13:04:00.0000000+00:00</time></trkpt><trkpt lat="31.19130269" lon="35.69896197"><ele>901.4</ele><time>2015-11-21T13:04:01.0000000+00:00</time></trkpt><trkpt lat="31.19128701" lon="35.6989701"><ele>900.9</ele><time>2015-11-21T13:04:02.0000000+00:00</time></trkpt><trkpt lat="31.19127469" lon="35.69897748"><ele>901.4</ele><time>2015-11-21T13:04:03.0000000+00:00</time></trkpt><trkpt lat="31.19126447" lon="35.69898636"><ele>901.4</ele><time>2015-11-21T13:04:04.0000000+00:00</time></trkpt><trkpt lat="31.19125156" lon="35.69899508"><ele>900.9</ele><time>2015-11-21T13:04:05.0000000+00:00</time></trkpt><trkpt lat="31.19123882" lon="35.69900245"><ele>901.4</ele><time>2015-11-21T13:04:06.0000000+00:00</time></trkpt><trkpt lat="31.1910514" lon="35.69910455"><ele>902.8</ele><time>2015-11-21T13:04:20.0000000+00:00</time></trkpt><trkpt lat="31.19085903" lon="35.69921368"><ele>905.2</ele><time>2015-11-21T13:04:35.0000000+00:00</time></trkpt><trkpt lat="31.1906727" lon="35.69930705"><ele>906.7</ele><time>2015-11-21T13:04:50.0000000+00:00</time></trkpt><trkpt lat="31.19050071" lon="35.69937989"><ele>909.1</ele><time>2015-11-21T13:05:05.0000000+00:00</time></trkpt><trkpt lat="31.19028512" lon="35.69950101"><ele>911.5</ele><time>2015-11-21T13:05:22.0000000+00:00</time></trkpt><trkpt lat="31.19021011" lon="35.69953227"><ele>912.4</ele><time>2015-11-21T13:05:28.0000000+00:00</time></trkpt><trkpt lat="31.19019695" lon="35.69953705"><ele>912.4</ele><time>2015-11-21T13:05:29.0000000+00:00</time></trkpt><trkpt lat="31.19018404" lon="35.69954569"><ele>912.9</ele><time>2015-11-21T13:05:30.0000000+00:00</time></trkpt><trkpt lat="31.19017222" lon="35.69955432"><ele>912.9</ele><time>2015-11-21T13:05:31.0000000+00:00</time></trkpt><trkpt lat="31.19015831" lon="35.69956454"><ele>912.9</ele><time>2015-11-21T13:05:32.0000000+00:00</time></trkpt><trkpt lat="31.18997172" lon="35.69970813"><ele>916.3</ele><time>2015-11-21T13:05:48.0000000+00:00</time></trkpt><trkpt lat="31.18981875" lon="35.69987107"><ele>918.2</ele><time>2015-11-21T13:06:03.0000000+00:00</time></trkpt><trkpt lat="31.18968632" lon="35.70007433"><ele>920.1</ele><time>2015-11-21T13:06:19.0000000+00:00</time></trkpt><trkpt lat="31.18954274" lon="35.70031816"><ele>922.5</ele><time>2015-11-21T13:06:37.0000000+00:00</time></trkpt><trkpt lat="31.18943562" lon="35.70052042"><ele>924.5</ele><time>2015-11-21T13:06:52.0000000+00:00</time></trkpt><trkpt lat="31.18931375" lon="35.70075477"><ele>927.3</ele><time>2015-11-21T13:07:08.0000000+00:00</time></trkpt><trkpt lat="31.18918835" lon="35.70099215"><ele>929.7</ele><time>2015-11-21T13:07:25.0000000+00:00</time></trkpt><trkpt lat="31.18917997" lon="35.70100363"><ele>929.7</ele><time>2015-11-21T13:07:26.0000000+00:00</time></trkpt><trkpt lat="31.18917268" lon="35.70101637"><ele>929.7</ele><time>2015-11-21T13:07:27.0000000+00:00</time></trkpt><trkpt lat="31.18916329" lon="35.70102962"><ele>929.7</ele><time>2015-11-21T13:07:28.0000000+00:00</time></trkpt><trkpt lat="31.18915407" lon="35.70104487"><ele>930.2</ele><time>2015-11-21T13:07:29.0000000+00:00</time></trkpt><trkpt lat="31.18902943" lon="35.70124394"><ele>932.6</ele><time>2015-11-21T13:07:45.0000000+00:00</time></trkpt><trkpt lat="31.18892474" lon="35.70135802"><ele>934.5</ele><time>2015-11-21T13:07:55.0000000+00:00</time></trkpt><trkpt lat="31.18872005" lon="35.70149029"><ele>936.9</ele><time>2015-11-21T13:08:11.0000000+00:00</time></trkpt><trkpt lat="31.18857991" lon="35.70156874"><ele>937.9</ele><time>2015-11-21T13:08:22.0000000+00:00</time></trkpt><trkpt lat="31.18856658" lon="35.7015762"><ele>937.9</ele><time>2015-11-21T13:08:23.0000000+00:00</time></trkpt><trkpt lat="31.18855359" lon="35.70158634"><ele>938.4</ele><time>2015-11-21T13:08:24.0000000+00:00</time></trkpt><trkpt lat="31.18853909" lon="35.70159431"><ele>938.4</ele><time>2015-11-21T13:08:25.0000000+00:00</time></trkpt><trkpt lat="31.18852543" lon="35.70160395"><ele>938.4</ele><time>2015-11-21T13:08:26.0000000+00:00</time></trkpt><trkpt lat="31.18851084" lon="35.70161384"><ele>938.9</ele><time>2015-11-21T13:08:27.0000000+00:00</time></trkpt><trkpt lat="31.18849668" lon="35.70162297"><ele>938.9</ele><time>2015-11-21T13:08:28.0000000+00:00</time></trkpt><trkpt lat="31.18848209" lon="35.70162985"><ele>938.9</ele><time>2015-11-21T13:08:29.0000000+00:00</time></trkpt><trkpt lat="31.18846717" lon="35.70163705"><ele>938.9</ele><time>2015-11-21T13:08:30.0000000+00:00</time></trkpt><trkpt lat="31.18845259" lon="35.70164535"><ele>939.4</ele><time>2015-11-21T13:08:31.0000000+00:00</time></trkpt><trkpt lat="31.18843918" lon="35.70165373"><ele>939.8</ele><time>2015-11-21T13:08:32.0000000+00:00</time></trkpt><trkpt lat="31.18842585" lon="35.70166027"><ele>939.8</ele><time>2015-11-21T13:08:33.0000000+00:00</time></trkpt><trkpt lat="31.18823667" lon="35.70177158"><ele>941.8</ele><time>2015-11-21T13:08:47.0000000+00:00</time></trkpt><trkpt lat="31.18822376" lon="35.70177862"><ele>941.8</ele><time>2015-11-21T13:08:48.0000000+00:00</time></trkpt><trkpt lat="31.18821018" lon="35.70178575"><ele>941.8</ele><time>2015-11-21T13:08:49.0000000+00:00</time></trkpt><trkpt lat="31.18819887" lon="35.70179589"><ele>941.8</ele><time>2015-11-21T13:08:50.0000000+00:00</time></trkpt><trkpt lat="31.1881863" lon="35.70180553"><ele>942.2</ele><time>2015-11-21T13:08:51.0000000+00:00</time></trkpt><trkpt lat="31.1881723" lon="35.70181425"><ele>942.2</ele><time>2015-11-21T13:08:52.0000000+00:00</time></trkpt><trkpt lat="31.18792805" lon="35.70195498"><ele>945.1</ele><time>2015-11-21T13:09:10.0000000+00:00</time></trkpt><trkpt lat="31.18780986" lon="35.70203092"><ele>946.1</ele><time>2015-11-21T13:09:19.0000000+00:00</time></trkpt><trkpt lat="31.18779637" lon="35.70203779"><ele>945.6</ele><time>2015-11-21T13:09:20.0000000+00:00</time></trkpt><trkpt lat="31.18778505" lon="35.70204693"><ele>946.1</ele><time>2015-11-21T13:09:21.0000000+00:00</time></trkpt><trkpt lat="31.18766813" lon="35.70216956"><ele>948.5</ele><time>2015-11-21T13:09:32.0000000+00:00</time></trkpt><trkpt lat="31.18765832" lon="35.70218272"><ele>948.5</ele><time>2015-11-21T13:09:33.0000000+00:00</time></trkpt><trkpt lat="31.18763636" lon="35.70221792"><ele>949.0</ele><time>2015-11-21T13:09:36.0000000+00:00</time></trkpt><trkpt lat="31.18763284" lon="35.70223141"><ele>949.4</ele><time>2015-11-21T13:09:37.0000000+00:00</time></trkpt><trkpt lat="31.18762798" lon="35.70225656"><ele>949.4</ele><time>2015-11-21T13:09:39.0000000+00:00</time></trkpt><trkpt lat="31.18762739" lon="35.70227207"><ele>949.9</ele><time>2015-11-21T13:09:40.0000000+00:00</time></trkpt><trkpt lat="31.1876263" lon="35.70228674"><ele>949.9</ele><time>2015-11-21T13:09:41.0000000+00:00</time></trkpt><trkpt lat="31.18764809" lon="35.70242579"><ele>951.4</ele><time>2015-11-21T13:09:49.0000000+00:00</time></trkpt><trkpt lat="31.18765631" lon="35.70246619"><ele>951.8</ele><time>2015-11-21T13:09:51.0000000+00:00</time></trkpt><trkpt lat="31.1877579" lon="35.70269049"><ele>953.3</ele><time>2015-11-21T13:10:05.0000000+00:00</time></trkpt><trkpt lat="31.18792377" lon="35.70303541"><ele>956.2</ele><time>2015-11-21T13:10:25.0000000+00:00</time></trkpt><trkpt lat="31.18800877" lon="35.70329893"><ele>958.6</ele><time>2015-11-21T13:10:40.0000000+00:00</time></trkpt><trkpt lat="31.18807507" lon="35.70357436"><ele>961.0</ele><time>2015-11-21T13:10:54.0000000+00:00</time></trkpt><trkpt lat="31.18815352" lon="35.70382155"><ele>961.9</ele><time>2015-11-21T13:11:08.0000000+00:00</time></trkpt><trkpt lat="31.18825645" lon="35.7041165"><ele>964.3</ele><time>2015-11-21T13:11:25.0000000+00:00</time></trkpt><trkpt lat="31.18830641" lon="35.70423938"><ele>965.8</ele><time>2015-11-21T13:11:32.0000000+00:00</time></trkpt><trkpt lat="31.18834597" lon="35.70449201"><ele>968.2</ele><time>2015-11-21T13:11:45.0000000+00:00</time></trkpt><trkpt lat="31.18833214" lon="35.70452621"><ele>968.7</ele><time>2015-11-21T13:11:47.0000000+00:00</time></trkpt><trkpt lat="31.18831839" lon="35.70454004"><ele>969.2</ele><time>2015-11-21T13:11:48.0000000+00:00</time></trkpt><trkpt lat="31.18828638" lon="35.70455236"><ele>969.2</ele><time>2015-11-21T13:11:50.0000000+00:00</time></trkpt><trkpt lat="31.18821396" lon="35.70451582"><ele>971.1</ele><time>2015-11-21T13:11:55.0000000+00:00</time></trkpt><trkpt lat="31.18820172" lon="35.70449478"><ele>971.6</ele><time>2015-11-21T13:11:56.0000000+00:00</time></trkpt><trkpt lat="31.18819149" lon="35.70447399"><ele>971.6</ele><time>2015-11-21T13:11:57.0000000+00:00</time></trkpt><trkpt lat="31.18815394" lon="35.70438431"><ele>972.0</ele><time>2015-11-21T13:12:08.0000000+00:00</time></trkpt><trkpt lat="31.18807322" lon="35.70420451"><ele>973.0</ele><time>2015-11-21T13:12:21.0000000+00:00</time></trkpt><trkpt lat="31.18796216" lon="35.70392473"><ele>974.4</ele><time>2015-11-21T13:12:36.0000000+00:00</time></trkpt><trkpt lat="31.18781003" lon="35.70366598"><ele>974.4</ele><time>2015-11-21T13:12:52.0000000+00:00</time></trkpt><trkpt lat="31.18765237" lon="35.70347009"><ele>974.9</ele><time>2015-11-21T13:13:05.0000000+00:00</time></trkpt><trkpt lat="31.1873471" lon="35.70327253"><ele>975.4</ele><time>2015-11-21T13:13:18.0000000+00:00</time></trkpt><trkpt lat="31.18698844" lon="35.70304002"><ele>975.9</ele><time>2015-11-21T13:13:32.0000000+00:00</time></trkpt><trkpt lat="31.18669474" lon="35.70288126"><ele>977.8</ele><time>2015-11-21T13:13:45.0000000+00:00</time></trkpt><trkpt lat="31.18662835" lon="35.70277071"><ele>978.3</ele><time>2015-11-21T13:13:56.0000000+00:00</time></trkpt><trkpt lat="31.18662559" lon="35.70275327"><ele>978.3</ele><time>2015-11-21T13:14:01.0000000+00:00</time></trkpt><trkpt lat="31.1866188" lon="35.70273994"><ele>978.3</ele><time>2015-11-21T13:14:02.0000000+00:00</time></trkpt><trkpt lat="31.18661117" lon="35.70272511"><ele>978.3</ele><time>2015-11-21T13:14:03.0000000+00:00</time></trkpt><trkpt lat="31.18660195" lon="35.70270952"><ele>978.3</ele><time>2015-11-21T13:14:04.0000000+00:00</time></trkpt><trkpt lat="31.18659164" lon="35.70269083"><ele>978.3</ele><time>2015-11-21T13:14:05.0000000+00:00</time></trkpt><trkpt lat="31.18658267" lon="35.70266585"><ele>978.3</ele><time>2015-11-21T13:14:06.0000000+00:00</time></trkpt><trkpt lat="31.1865758" lon="35.70263844"><ele>978.8</ele><time>2015-11-21T13:14:07.0000000+00:00</time></trkpt><trkpt lat="31.18657068" lon="35.70261111"><ele>978.8</ele><time>2015-11-21T13:14:08.0000000+00:00</time></trkpt><trkpt lat="31.18656649" lon="35.70258446"><ele>978.8</ele><time>2015-11-21T13:14:09.0000000+00:00</time></trkpt><trkpt lat="31.18655987" lon="35.70255496"><ele>978.8</ele><time>2015-11-21T13:14:10.0000000+00:00</time></trkpt><trkpt lat="31.18657722" lon="35.70214801"><ele>980.7</ele><time>2015-11-21T13:14:21.0000000+00:00</time></trkpt><trkpt lat="31.18658192" lon="35.70208012"><ele>981.6</ele><time>2015-11-21T13:14:24.0000000+00:00</time></trkpt><trkpt lat="31.18656725" lon="35.70206696"><ele>982.1</ele><time>2015-11-21T13:14:25.0000000+00:00</time></trkpt><trkpt lat="31.18654998" lon="35.70206369"><ele>982.6</ele><time>2015-11-21T13:14:26.0000000+00:00</time></trkpt><trkpt lat="31.18653338" lon="35.70206663"><ele>982.6</ele><time>2015-11-21T13:14:27.0000000+00:00</time></trkpt><trkpt lat="31.18651729" lon="35.70207048"><ele>982.6</ele><time>2015-11-21T13:14:28.0000000+00:00</time></trkpt><trkpt lat="31.18650371" lon="35.70207501"><ele>982.6</ele><time>2015-11-21T13:14:29.0000000+00:00</time></trkpt><trkpt lat="31.18649089" lon="35.70208088"><ele>983.1</ele><time>2015-11-21T13:14:30.0000000+00:00</time></trkpt><trkpt lat="31.18647957" lon="35.70209119"><ele>983.1</ele><time>2015-11-21T13:14:31.0000000+00:00</time></trkpt><trkpt lat="31.18647295" lon="35.70210233"><ele>982.6</ele><time>2015-11-21T13:14:32.0000000+00:00</time></trkpt><trkpt lat="31.186352" lon="35.70232948"><ele>985.0</ele><time>2015-11-21T13:14:45.0000000+00:00</time></trkpt><trkpt lat="31.18619467" lon="35.70257893"><ele>986.5</ele><time>2015-11-21T13:14:58.0000000+00:00</time></trkpt><trkpt lat="31.18613449" lon="35.70271245"><ele>987.4</ele><time>2015-11-21T13:15:04.0000000+00:00</time></trkpt><trkpt lat="31.18612183" lon="35.70272997"><ele>987.9</ele><time>2015-11-21T13:15:05.0000000+00:00</time></trkpt><trkpt lat="31.18610993" lon="35.70275025"><ele>987.9</ele><time>2015-11-21T13:15:06.0000000+00:00</time></trkpt><trkpt lat="31.18609979" lon="35.70277196"><ele>987.9</ele><time>2015-11-21T13:15:07.0000000+00:00</time></trkpt><trkpt lat="31.18608453" lon="35.70279183"><ele>987.9</ele><time>2015-11-21T13:15:08.0000000+00:00</time></trkpt><trkpt lat="31.18606743" lon="35.70281379"><ele>987.9</ele><time>2015-11-21T13:15:09.0000000+00:00</time></trkpt><trkpt lat="31.18605168" lon="35.70283634"><ele>988.4</ele><time>2015-11-21T13:15:10.0000000+00:00</time></trkpt><trkpt lat="31.18603525" lon="35.70285587"><ele>988.4</ele><time>2015-11-21T13:15:11.0000000+00:00</time></trkpt><trkpt lat="31.18589678" lon="35.70311688"><ele>990.8</ele><time>2015-11-21T13:15:24.0000000+00:00</time></trkpt><trkpt lat="31.18587825" lon="35.70318352"><ele>991.3</ele><time>2015-11-21T13:15:37.0000000+00:00</time></trkpt><trkpt lat="31.18588337" lon="35.7032214"><ele>991.7</ele><time>2015-11-21T13:16:03.0000000+00:00</time></trkpt><trkpt lat="31.18583635" lon="35.70327119"><ele>992.2</ele><time>2015-11-21T13:16:31.0000000+00:00</time></trkpt><trkpt lat="31.18575697" lon="35.70345576"><ele>993.7</ele><time>2015-11-21T13:16:44.0000000+00:00</time></trkpt><trkpt lat="31.18561339" lon="35.70394987"><ele>994.6</ele><time>2015-11-21T13:16:59.0000000+00:00</time></trkpt><trkpt lat="31.18552119" lon="35.70430342"><ele>996.1</ele><time>2015-11-21T13:17:12.0000000+00:00</time></trkpt><trkpt lat="31.1853921" lon="35.70480064"><ele>997.5</ele><time>2015-11-21T13:17:26.0000000+00:00</time></trkpt><trkpt lat="31.18531122" lon="35.70510574"><ele>999.0</ele><time>2015-11-21T13:17:38.0000000+00:00</time></trkpt><trkpt lat="31.18528456" lon="35.7052489"><ele>999.4</ele><time>2015-11-21T13:17:47.0000000+00:00</time></trkpt><trkpt lat="31.18528658" lon="35.70525963"><ele>999.4</ele><time>2015-11-21T13:17:48.0000000+00:00</time></trkpt><trkpt lat="31.18528859" lon="35.70527229"><ele>999.4</ele><time>2015-11-21T13:17:49.0000000+00:00</time></trkpt><trkpt lat="31.18528758" lon="35.70528486"><ele>999.4</ele><time>2015-11-21T13:17:50.0000000+00:00</time></trkpt><trkpt lat="31.18526646" lon="35.70543221"><ele>999.4</ele><time>2015-11-21T13:18:01.0000000+00:00</time></trkpt><trkpt lat="31.1852564" lon="35.70555132"><ele>999.9</ele><time>2015-11-21T13:18:08.0000000+00:00</time></trkpt><trkpt lat="31.18522807" lon="35.70568099"><ele>999.4</ele><time>2015-11-21T13:18:19.0000000+00:00</time></trkpt><trkpt lat="31.18522229" lon="35.70569155"><ele>999.4</ele><time>2015-11-21T13:18:20.0000000+00:00</time></trkpt><trkpt lat="31.18521717" lon="35.7057011"><ele>999.9</ele><time>2015-11-21T13:18:21.0000000+00:00</time></trkpt><trkpt lat="31.18521106" lon="35.70571099"><ele>999.9</ele><time>2015-11-21T13:18:22.0000000+00:00</time></trkpt><trkpt lat="31.18520435" lon="35.70572264"><ele>999.4</ele><time>2015-11-21T13:18:23.0000000+00:00</time></trkpt><trkpt lat="31.18519505" lon="35.70573455"><ele>999.4</ele><time>2015-11-21T13:18:24.0000000+00:00</time></trkpt><trkpt lat="31.18518465" lon="35.70574855"><ele>999.4</ele><time>2015-11-21T13:18:25.0000000+00:00</time></trkpt><trkpt lat="31.1851756" lon="35.70576497"><ele>999.9</ele><time>2015-11-21T13:18:26.0000000+00:00</time></trkpt><trkpt lat="31.18503244" lon="35.70601568"><ele>999.9</ele><time>2015-11-21T13:18:39.0000000+00:00</time></trkpt><trkpt lat="31.18495901" lon="35.7061145"><ele>999.4</ele><time>2015-11-21T13:18:52.0000000+00:00</time></trkpt><trkpt lat="31.18494946" lon="35.70617745"><ele>999.4</ele><time>2015-11-21T13:18:57.0000000+00:00</time></trkpt><trkpt lat="31.18494476" lon="35.70619589"><ele>999.4</ele><time>2015-11-21T13:18:58.0000000+00:00</time></trkpt><trkpt lat="31.18493973" lon="35.70621517"><ele>999.4</ele><time>2015-11-21T13:18:59.0000000+00:00</time></trkpt><trkpt lat="31.18493278" lon="35.70623721"><ele>999.4</ele><time>2015-11-21T13:19:00.0000000+00:00</time></trkpt><trkpt lat="31.18491484" lon="35.70629287"><ele>999.4</ele><time>2015-11-21T13:19:07.0000000+00:00</time></trkpt><trkpt lat="31.18490629" lon="35.70630678"><ele>999.4</ele><time>2015-11-21T13:19:08.0000000+00:00</time></trkpt><trkpt lat="31.1848969" lon="35.70632145"><ele>999.4</ele><time>2015-11-21T13:19:09.0000000+00:00</time></trkpt><trkpt lat="31.18489053" lon="35.70633846"><ele>999.4</ele><time>2015-11-21T13:19:10.0000000+00:00</time></trkpt><trkpt lat="31.18488508" lon="35.70635716"><ele>999.4</ele><time>2015-11-21T13:19:11.0000000+00:00</time></trkpt><trkpt lat="31.18487653" lon="35.70637652"><ele>999.4</ele><time>2015-11-21T13:19:12.0000000+00:00</time></trkpt><trkpt lat="31.18470051" lon="35.70673074"><ele>999.0</ele><time>2015-11-21T13:19:26.0000000+00:00</time></trkpt><trkpt lat="31.18463983" lon="35.70681414"><ele>998.5</ele><time>2015-11-21T13:19:29.0000000+00:00</time></trkpt><trkpt lat="31.18461192" lon="35.70681942"><ele>998.0</ele><time>2015-11-21T13:19:30.0000000+00:00</time></trkpt><trkpt lat="31.18458308" lon="35.7068159"><ele>998.0</ele><time>2015-11-21T13:19:31.0000000+00:00</time></trkpt><trkpt lat="31.184554" lon="35.70680668"><ele>998.0</ele><time>2015-11-21T13:19:32.0000000+00:00</time></trkpt><trkpt lat="31.1845255" lon="35.70679461"><ele>998.0</ele><time>2015-11-21T13:19:33.0000000+00:00</time></trkpt><trkpt lat="31.18403298" lon="35.70662169"><ele>996.5</ele><time>2015-11-21T13:19:48.0000000+00:00</time></trkpt><trkpt lat="31.18387691" lon="35.70659118"><ele>996.1</ele><time>2015-11-21T13:19:53.0000000+00:00</time></trkpt><trkpt lat="31.18385729" lon="35.70660258"><ele>995.6</ele><time>2015-11-21T13:19:54.0000000+00:00</time></trkpt><trkpt lat="31.1838412" lon="35.70661867"><ele>995.1</ele><time>2015-11-21T13:19:55.0000000+00:00</time></trkpt><trkpt lat="31.18382854" lon="35.70663585"><ele>995.1</ele><time>2015-11-21T13:19:56.0000000+00:00</time></trkpt><trkpt lat="31.18381673" lon="35.70665597"><ele>995.1</ele><time>2015-11-21T13:19:57.0000000+00:00</time></trkpt><trkpt lat="31.18363534" lon="35.70695302"><ele>991.7</ele><time>2015-11-21T13:20:08.0000000+00:00</time></trkpt><trkpt lat="31.18351531" lon="35.70714086"><ele>988.9</ele><time>2015-11-21T13:20:16.0000000+00:00</time></trkpt><trkpt lat="31.18341423" lon="35.70729869"><ele>985.5</ele><time>2015-11-21T13:20:23.0000000+00:00</time></trkpt><trkpt lat="31.18333485" lon="35.70742426"><ele>982.6</ele><time>2015-11-21T13:20:30.0000000+00:00</time></trkpt><trkpt lat="31.18330224" lon="35.70745393"><ele>982.1</ele><time>2015-11-21T13:20:38.0000000+00:00</time></trkpt><trkpt lat="31.18328615" lon="35.70744052"><ele>982.1</ele><time>2015-11-21T13:20:39.0000000+00:00</time></trkpt><trkpt lat="31.18327182" lon="35.70742493"><ele>981.6</ele><time>2015-11-21T13:20:40.0000000+00:00</time></trkpt><trkpt lat="31.18315967" lon="35.70731185"><ele>980.7</ele><time>2015-11-21T13:20:51.0000000+00:00</time></trkpt><trkpt lat="31.18298197" lon="35.70709208"><ele>978.8</ele><time>2015-11-21T13:21:02.0000000+00:00</time></trkpt><trkpt lat="31.1829155" lon="35.70702938"><ele>977.8</ele><time>2015-11-21T13:21:09.0000000+00:00</time></trkpt><trkpt lat="31.18287887" lon="35.70698982"><ele>977.8</ele><time>2015-11-21T13:21:13.0000000+00:00</time></trkpt><trkpt lat="31.18286379" lon="35.70698337"><ele>977.3</ele><time>2015-11-21T13:21:14.0000000+00:00</time></trkpt><trkpt lat="31.18284711" lon="35.70698236"><ele>977.3</ele><time>2015-11-21T13:21:15.0000000+00:00</time></trkpt><trkpt lat="31.18283244" lon="35.70698286"><ele>976.8</ele><time>2015-11-21T13:21:16.0000000+00:00</time></trkpt><trkpt lat="31.18282054" lon="35.7069796"><ele>976.8</ele><time>2015-11-21T13:21:17.0000000+00:00</time></trkpt><trkpt lat="31.18278223" lon="35.70696518"><ele>977.3</ele><time>2015-11-21T13:21:30.0000000+00:00</time></trkpt><trkpt lat="31.18276848" lon="35.70697163"><ele>977.8</ele><time>2015-11-21T13:21:32.0000000+00:00</time></trkpt><trkpt lat="31.18275541" lon="35.706977"><ele>978.3</ele><time>2015-11-21T13:21:33.0000000+00:00</time></trkpt><trkpt lat="31.18274284" lon="35.70698144"><ele>977.3</ele><time>2015-11-21T13:21:34.0000000+00:00</time></trkpt><trkpt lat="31.18273051" lon="35.70698655"><ele>976.4</ele><time>2015-11-21T13:21:35.0000000+00:00</time></trkpt><trkpt lat="31.18271425" lon="35.70699703"><ele>975.9</ele><time>2015-11-21T13:21:36.0000000+00:00</time></trkpt><trkpt lat="31.18269355" lon="35.70701321"><ele>975.9</ele><time>2015-11-21T13:21:37.0000000+00:00</time></trkpt><trkpt lat="31.18267033" lon="35.70703349"><ele>975.9</ele><time>2015-11-21T13:21:38.0000000+00:00</time></trkpt><trkpt lat="31.18262675" lon="35.7070899"><ele>975.9</ele><time>2015-11-21T13:21:41.0000000+00:00</time></trkpt><trkpt lat="31.18262138" lon="35.7070956"><ele>975.4</ele><time>2015-11-21T13:21:54.0000000+00:00</time></trkpt><trkpt lat="31.18260655" lon="35.70712049"><ele>975.9</ele><time>2015-11-21T13:22:24.0000000+00:00</time></trkpt><trkpt lat="31.18261166" lon="35.70713525"><ele>975.4</ele><time>2015-11-21T13:22:30.0000000+00:00</time></trkpt><trkpt lat="31.18261049" lon="35.70715746"><ele>975.4</ele><time>2015-11-21T13:22:31.0000000+00:00</time></trkpt><trkpt lat="31.18260923" lon="35.70717976"><ele>975.4</ele><time>2015-11-21T13:22:32.0000000+00:00</time></trkpt><trkpt lat="31.18267394" lon="35.70741646"><ele>972.5</ele><time>2015-11-21T13:22:39.0000000+00:00</time></trkpt><trkpt lat="31.18269908" lon="35.70745267"><ele>972.5</ele><time>2015-11-21T13:22:40.0000000+00:00</time></trkpt><trkpt lat="31.18277075" lon="35.70753993"><ele>971.1</ele><time>2015-11-21T13:22:49.0000000+00:00</time></trkpt><trkpt lat="31.18276689" lon="35.70753573"><ele>971.1</ele><time>2015-11-21T13:23:18.0000000+00:00</time></trkpt><trkpt lat="31.18276211" lon="35.7075468"><ele>971.1</ele><time>2015-11-21T13:23:43.0000000+00:00</time></trkpt><trkpt lat="31.18277125" lon="35.7075473"><ele>971.1</ele><time>2015-11-21T13:24:12.0000000+00:00</time></trkpt><trkpt lat="31.18273714" lon="35.70752517"><ele>972.0</ele><time>2015-11-21T13:24:25.0000000+00:00</time></trkpt><trkpt lat="31.18272993" lon="35.70750766"><ele>972.0</ele><time>2015-11-21T13:24:53.0000000+00:00</time></trkpt><trkpt lat="31.18270143" lon="35.70753766"><ele>971.1</ele><time>2015-11-21T13:25:21.0000000+00:00</time></trkpt><trkpt lat="31.1827104" lon="35.7075421"><ele>971.6</ele><time>2015-11-21T13:25:48.0000000+00:00</time></trkpt><trkpt lat="31.182713" lon="35.70752836"><ele>971.6</ele><time>2015-11-21T13:26:16.0000000+00:00</time></trkpt><trkpt lat="31.18269565" lon="35.70749349"><ele>972.0</ele><time>2015-11-21T13:26:26.0000000+00:00</time></trkpt><trkpt lat="31.18268986" lon="35.70748209"><ele>972.0</ele><time>2015-11-21T13:26:27.0000000+00:00</time></trkpt><trkpt lat="31.18268475" lon="35.70746943"><ele>972.0</ele><time>2015-11-21T13:26:28.0000000+00:00</time></trkpt><trkpt lat="31.18261158" lon="35.70727682"><ele>974.4</ele><time>2015-11-21T13:26:49.0000000+00:00</time></trkpt><trkpt lat="31.182599" lon="35.70714975"><ele>975.4</ele><time>2015-11-21T13:27:11.0000000+00:00</time></trkpt><trkpt lat="31.1826068" lon="35.70706266"><ele>975.4</ele><time>2015-11-21T13:27:24.0000000+00:00</time></trkpt><trkpt lat="31.18261401" lon="35.70698571"><ele>975.4</ele><time>2015-11-21T13:27:41.0000000+00:00</time></trkpt><trkpt lat="31.18262909" lon="35.70691371"><ele>974.0</ele><time>2015-11-21T13:27:59.0000000+00:00</time></trkpt><trkpt lat="31.18263563" lon="35.7068977"><ele>974.0</ele><time>2015-11-21T13:28:00.0000000+00:00</time></trkpt><trkpt lat="31.18263932" lon="35.70687776"><ele>973.5</ele><time>2015-11-21T13:28:01.0000000+00:00</time></trkpt><trkpt lat="31.18264535" lon="35.70685261"><ele>973.5</ele><time>2015-11-21T13:28:02.0000000+00:00</time></trkpt><trkpt lat="31.18264938" lon="35.70682503"><ele>973.0</ele><time>2015-11-21T13:28:03.0000000+00:00</time></trkpt><trkpt lat="31.18265064" lon="35.70679955"><ele>972.5</ele><time>2015-11-21T13:28:04.0000000+00:00</time></trkpt><trkpt lat="31.18264494" lon="35.70677893"><ele>972.5</ele><time>2015-11-21T13:28:05.0000000+00:00</time></trkpt><trkpt lat="31.18259414" lon="35.7065035"><ele>970.6</ele><time>2015-11-21T13:28:15.0000000+00:00</time></trkpt><trkpt lat="31.18256908" lon="35.7064657"><ele>970.1</ele><time>2015-11-21T13:28:16.0000000+00:00</time></trkpt><trkpt lat="31.18254092" lon="35.70642698"><ele>970.1</ele><time>2015-11-21T13:28:17.0000000+00:00</time></trkpt><trkpt lat="31.18251669" lon="35.70638926"><ele>970.1</ele><time>2015-11-21T13:28:18.0000000+00:00</time></trkpt><trkpt lat="31.18228275" lon="35.70581342"><ele>970.1</ele><time>2015-11-21T13:28:33.0000000+00:00</time></trkpt><trkpt lat="31.182282" lon="35.70569423"><ele>972.0</ele><time>2015-11-21T13:28:42.0000000+00:00</time></trkpt><trkpt lat="31.18230429" lon="35.70554671"><ele>974.9</ele><time>2015-11-21T13:28:56.0000000+00:00</time></trkpt><trkpt lat="31.18232165" lon="35.70537094"><ele>978.3</ele><time>2015-11-21T13:29:13.0000000+00:00</time></trkpt><trkpt lat="31.18236037" lon="35.70521571"><ele>981.6</ele><time>2015-11-21T13:29:31.0000000+00:00</time></trkpt><trkpt lat="31.18238258" lon="35.70513474"><ele>984.1</ele><time>2015-11-21T13:29:47.0000000+00:00</time></trkpt><trkpt lat="31.18237487" lon="35.70513834"><ele>984.1</ele><time>2015-11-21T13:30:04.0000000+00:00</time></trkpt><trkpt lat="31.18236288" lon="35.70512451"><ele>984.5</ele><time>2015-11-21T13:30:09.0000000+00:00</time></trkpt><trkpt lat="31.18224705" lon="35.7050619"><ele>987.4</ele><time>2015-11-21T13:30:25.0000000+00:00</time></trkpt><trkpt lat="31.18217731" lon="35.70500054"><ele>990.3</ele><time>2015-11-21T13:30:39.0000000+00:00</time></trkpt><trkpt lat="31.18219935" lon="35.70497121"><ele>989.8</ele><time>2015-11-21T13:30:45.0000000+00:00</time></trkpt><trkpt lat="31.18231343" lon="35.70491337"><ele>993.2</ele><time>2015-11-21T13:31:00.0000000+00:00</time></trkpt><trkpt lat="31.18242474" lon="35.70489066"><ele>996.1</ele><time>2015-11-21T13:31:15.0000000+00:00</time></trkpt><trkpt lat="31.1825581" lon="35.70487674"><ele>998.5</ele><time>2015-11-21T13:31:32.0000000+00:00</time></trkpt><trkpt lat="31.18259112" lon="35.70487792"><ele>1000.4</ele><time>2015-11-21T13:31:36.0000000+00:00</time></trkpt><trkpt lat="31.18269799" lon="35.70486342"><ele>1001.4</ele><time>2015-11-21T13:31:50.0000000+00:00</time></trkpt><trkpt lat="31.18283311" lon="35.70482469"><ele>1002.8</ele><time>2015-11-21T13:32:05.0000000+00:00</time></trkpt><trkpt lat="31.18296789" lon="35.70475277"><ele>1005.7</ele><time>2015-11-21T13:32:18.0000000+00:00</time></trkpt><trkpt lat="31.18300561" lon="35.70464356"><ele>1007.6</ele><time>2015-11-21T13:32:31.0000000+00:00</time></trkpt><trkpt lat="31.18287401" lon="35.70457399"><ele>1009.0</ele><time>2015-11-21T13:32:47.0000000+00:00</time></trkpt><trkpt lat="31.18278701" lon="35.70446771"><ele>1010.5</ele><time>2015-11-21T13:33:00.0000000+00:00</time></trkpt><trkpt lat="31.18275843" lon="35.70443426"><ele>1010.5</ele><time>2015-11-21T13:33:04.0000000+00:00</time></trkpt><trkpt lat="31.18274518" lon="35.70441255"><ele>1011.0</ele><time>2015-11-21T13:33:06.0000000+00:00</time></trkpt><trkpt lat="31.18272842" lon="35.70437978"><ele>1011.4</ele><time>2015-11-21T13:33:09.0000000+00:00</time></trkpt><trkpt lat="31.18261694" lon="35.70423704"><ele>1012.4</ele><time>2015-11-21T13:33:25.0000000+00:00</time></trkpt><trkpt lat="31.18255382" lon="35.7041678"><ele>1013.4</ele><time>2015-11-21T13:33:39.0000000+00:00</time></trkpt><trkpt lat="31.18246917" lon="35.70412975"><ele>1013.9</ele><time>2015-11-21T13:33:53.0000000+00:00</time></trkpt><trkpt lat="31.1823348" lon="35.70408532"><ele>1014.3</ele><time>2015-11-21T13:34:05.0000000+00:00</time></trkpt><trkpt lat="31.18228745" lon="35.7040409"><ele>1014.8</ele><time>2015-11-21T13:34:13.0000000+00:00</time></trkpt><trkpt lat="31.18226968" lon="35.7039404"><ele>1015.3</ele><time>2015-11-21T13:34:23.0000000+00:00</time></trkpt><trkpt lat="31.18227337" lon="35.70388818"><ele>1016.3</ele><time>2015-11-21T13:34:27.0000000+00:00</time></trkpt><trkpt lat="31.18227856" lon="35.70384971"><ele>1016.7</ele><time>2015-11-21T13:34:30.0000000+00:00</time></trkpt><trkpt lat="31.18227638" lon="35.70380084"><ele>1017.2</ele><time>2015-11-21T13:34:34.0000000+00:00</time></trkpt><trkpt lat="31.18229021" lon="35.70366707"><ele>1018.7</ele><time>2015-11-21T13:34:44.0000000+00:00</time></trkpt><trkpt lat="31.18227974" lon="35.70360865"><ele>1019.1</ele><time>2015-11-21T13:34:48.0000000+00:00</time></trkpt><trkpt lat="31.18231787" lon="35.70336984"><ele>1020.6</ele><time>2015-11-21T13:35:07.0000000+00:00</time></trkpt><trkpt lat="31.18236523" lon="35.70314714"><ele>1021.1</ele><time>2015-11-21T13:35:22.0000000+00:00</time></trkpt><trkpt lat="31.18240714" lon="35.70307581"><ele>1021.1</ele><time>2015-11-21T13:35:38.0000000+00:00</time></trkpt><trkpt lat="31.18243245" lon="35.70292518"><ele>1022.0</ele><time>2015-11-21T13:35:56.0000000+00:00</time></trkpt><trkpt lat="31.1824338" lon="35.70289887"><ele>1021.5</ele><time>2015-11-21T13:35:58.0000000+00:00</time></trkpt><trkpt lat="31.18244385" lon="35.70287079"><ele>1022.0</ele><time>2015-11-21T13:36:00.0000000+00:00</time></trkpt><trkpt lat="31.18248451" lon="35.70264959"><ele>1022.5</ele><time>2015-11-21T13:36:16.0000000+00:00</time></trkpt><trkpt lat="31.18254209" lon="35.70252679"><ele>1022.5</ele><time>2015-11-21T13:36:28.0000000+00:00</time></trkpt><trkpt lat="31.18256832" lon="35.70240576"><ele>1022.5</ele><time>2015-11-21T13:36:41.0000000+00:00</time></trkpt><trkpt lat="31.18255869" lon="35.70234759"><ele>1022.0</ele><time>2015-11-21T13:36:57.0000000+00:00</time></trkpt><trkpt lat="31.18255382" lon="35.70232814"><ele>1023.0</ele><time>2015-11-21T13:37:08.0000000+00:00</time></trkpt><trkpt lat="31.18259037" lon="35.70225203"><ele>1022.5</ele><time>2015-11-21T13:37:18.0000000+00:00</time></trkpt><trkpt lat="31.18260412" lon="35.70216604"><ele>1021.5</ele><time>2015-11-21T13:37:25.0000000+00:00</time></trkpt><trkpt lat="31.18255206" lon="35.70211457"><ele>1021.5</ele><time>2015-11-21T13:37:31.0000000+00:00</time></trkpt><trkpt lat="31.18231921" lon="35.70203645"><ele>1022.0</ele><time>2015-11-21T13:37:51.0000000+00:00</time></trkpt><trkpt lat="31.1821478" lon="35.70194593"><ele>1022.0</ele><time>2015-11-21T13:38:06.0000000+00:00</time></trkpt><trkpt lat="31.18215946" lon="35.70196663"><ele>1021.5</ele><time>2015-11-21T13:38:28.0000000+00:00</time></trkpt><trkpt lat="31.1821582" lon="35.70198306"><ele>1022.0</ele><time>2015-11-21T13:38:50.0000000+00:00</time></trkpt><trkpt lat="31.1821504" lon="35.70194576"><ele>1022.0</ele><time>2015-11-21T13:39:27.0000000+00:00</time></trkpt><trkpt lat="31.18207287" lon="35.70188055"><ele>1022.0</ele><time>2015-11-21T13:39:44.0000000+00:00</time></trkpt><trkpt lat="31.18195133" lon="35.70179505"><ele>1021.5</ele><time>2015-11-21T13:40:02.0000000+00:00</time></trkpt><trkpt lat="31.18187347" lon="35.7016964"><ele>1021.1</ele><time>2015-11-21T13:40:21.0000000+00:00</time></trkpt><trkpt lat="31.18172318" lon="35.70161342"><ele>1021.5</ele><time>2015-11-21T13:40:39.0000000+00:00</time></trkpt><trkpt lat="31.18171823" lon="35.70160227"><ele>1021.1</ele><time>2015-11-21T13:40:58.0000000+00:00</time></trkpt><trkpt lat="31.18174095" lon="35.70159188"><ele>1021.5</ele><time>2015-11-21T13:41:11.0000000+00:00</time></trkpt><trkpt lat="31.18170683" lon="35.7015358"><ele>1020.1</ele><time>2015-11-21T13:41:23.0000000+00:00</time></trkpt><trkpt lat="31.18165964" lon="35.70149766"><ele>1020.6</ele><time>2015-11-21T13:41:38.0000000+00:00</time></trkpt><trkpt lat="31.1815832" lon="35.70150839"><ele>1022.5</ele><time>2015-11-21T13:41:51.0000000+00:00</time></trkpt><trkpt lat="31.18152143" lon="35.70149012"><ele>1023.5</ele><time>2015-11-21T13:42:04.0000000+00:00</time></trkpt><trkpt lat="31.18146493" lon="35.70148325"><ele>1025.4</ele><time>2015-11-21T13:42:15.0000000+00:00</time></trkpt><trkpt lat="31.18141078" lon="35.70145751"><ele>1025.9</ele><time>2015-11-21T13:42:25.0000000+00:00</time></trkpt><trkpt lat="31.18138103" lon="35.70145416"><ele>1026.3</ele><time>2015-11-21T13:42:28.0000000+00:00</time></trkpt><trkpt lat="31.18130744" lon="35.70145274"><ele>1027.8</ele><time>2015-11-21T13:42:37.0000000+00:00</time></trkpt><trkpt lat="31.1812517" lon="35.70145047"><ele>1029.2</ele><time>2015-11-21T13:42:45.0000000+00:00</time></trkpt><trkpt lat="31.18119738" lon="35.70144117"><ele>1029.7</ele><time>2015-11-21T13:42:57.0000000+00:00</time></trkpt><trkpt lat="31.18119151" lon="35.70143798"><ele>1029.7</ele><time>2015-11-21T13:42:58.0000000+00:00</time></trkpt><trkpt lat="31.18114893" lon="35.70143916"><ele>1030.2</ele><time>2015-11-21T13:43:08.0000000+00:00</time></trkpt><trkpt lat="31.18116628" lon="35.70138359"><ele>1029.2</ele><time>2015-11-21T13:43:16.0000000+00:00</time></trkpt><trkpt lat="31.18116779" lon="35.70137084"><ele>1030.2</ele><time>2015-11-21T13:43:30.0000000+00:00</time></trkpt><trkpt lat="31.18116645" lon="35.70137353"><ele>1029.7</ele><time>2015-11-21T13:43:55.0000000+00:00</time></trkpt><trkpt lat="31.18117064" lon="35.70138342"><ele>1026.3</ele><time>2015-11-21T13:44:00.0000000+00:00</time></trkpt><trkpt lat="31.18117006" lon="35.70138669"><ele>1030.7</ele><time>2015-11-21T13:44:01.0000000+00:00</time></trkpt><trkpt lat="31.18109168" lon="35.70142348"><ele>1030.7</ele><time>2015-11-21T13:44:15.0000000+00:00</time></trkpt><trkpt lat="31.18097744" lon="35.70143765"><ele>1030.7</ele><time>2015-11-21T13:44:31.0000000+00:00</time></trkpt><trkpt lat="31.18097258" lon="35.7014374"><ele>1030.7</ele><time>2015-11-21T13:44:32.0000000+00:00</time></trkpt><trkpt lat="31.18092857" lon="35.70147931"><ele>1030.7</ele><time>2015-11-21T13:44:43.0000000+00:00</time></trkpt><trkpt lat="31.18092857" lon="35.7014985"><ele>1030.7</ele><time>2015-11-21T13:44:57.0000000+00:00</time></trkpt><trkpt lat="31.18092472" lon="35.70151761"><ele>1030.7</ele><time>2015-11-21T13:44:59.0000000+00:00</time></trkpt><trkpt lat="31.18095548" lon="35.70164745"><ele>1030.7</ele><time>2015-11-21T13:45:14.0000000+00:00</time></trkpt><trkpt lat="31.18084568" lon="35.70166463"><ele>1029.7</ele><time>2015-11-21T13:45:32.0000000+00:00</time></trkpt><trkpt lat="31.18089681" lon="35.70170646"><ele>1031.2</ele><time>2015-11-21T13:45:54.0000000+00:00</time></trkpt><trkpt lat="31.18096076" lon="35.70173236"><ele>1029.7</ele><time>2015-11-21T13:46:07.0000000+00:00</time></trkpt><trkpt lat="31.18099705" lon="35.70171165"><ele>1029.7</ele><time>2015-11-21T13:46:26.0000000+00:00</time></trkpt><trkpt lat="31.18101147" lon="35.70174376"><ele>1030.7</ele><time>2015-11-21T13:46:34.0000000+00:00</time></trkpt><trkpt lat="31.18110669" lon="35.70178575"><ele>1031.2</ele><time>2015-11-21T13:46:44.0000000+00:00</time></trkpt><trkpt lat="31.18117022" lon="35.70182481"><ele>1032.6</ele><time>2015-11-21T13:46:55.0000000+00:00</time></trkpt><trkpt lat="31.18121867" lon="35.70186253"><ele>1032.1</ele><time>2015-11-21T13:47:02.0000000+00:00</time></trkpt><trkpt lat="31.18127198" lon="35.70189287"><ele>1033.1</ele><time>2015-11-21T13:47:11.0000000+00:00</time></trkpt><trkpt lat="31.18128573" lon="35.70190636"><ele>1033.6</ele><time>2015-11-21T13:47:13.0000000+00:00</time></trkpt><trkpt lat="31.18133627" lon="35.70192824"><ele>1033.6</ele><time>2015-11-21T13:47:27.0000000+00:00</time></trkpt><trkpt lat="31.18140626" lon="35.70197166"><ele>1033.6</ele><time>2015-11-21T13:47:41.0000000+00:00</time></trkpt><trkpt lat="31.18146686" lon="35.70197954"><ele>1033.6</ele><time>2015-11-21T13:47:57.0000000+00:00</time></trkpt><trkpt lat="31.18151832" lon="35.70174359"><ele>1033.6</ele><time>2015-11-21T13:48:19.0000000+00:00</time></trkpt><trkpt lat="31.18155546" lon="35.701757"><ele>1032.1</ele><time>2015-11-21T13:48:32.0000000+00:00</time></trkpt><trkpt lat="31.18155026" lon="35.70178265"><ele>1032.1</ele><time>2015-11-21T13:48:52.0000000+00:00</time></trkpt><trkpt lat="31.1815345" lon="35.70176756"><ele>1032.1</ele><time>2015-11-21T13:49:10.0000000+00:00</time></trkpt><trkpt lat="31.18151497" lon="35.70174417"><ele>1032.6</ele><time>2015-11-21T13:49:25.0000000+00:00</time></trkpt><trkpt lat="31.18151539" lon="35.70174652"><ele>1032.6</ele><time>2015-11-21T13:49:26.0000000+00:00</time></trkpt><trkpt lat="31.18144901" lon="35.7018813"><ele>1032.6</ele><time>2015-11-21T13:49:46.0000000+00:00</time></trkpt><trkpt lat="31.18133568" lon="35.70223879"><ele>1032.6</ele><time>2015-11-21T13:50:15.0000000+00:00</time></trkpt><trkpt lat="31.18130676" lon="35.70219412"><ele>1032.6</ele><time>2015-11-21T13:50:36.0000000+00:00</time></trkpt><trkpt lat="31.18124465" lon="35.70227047"><ele>1033.1</ele><time>2015-11-21T13:50:50.0000000+00:00</time></trkpt><trkpt lat="31.18120459" lon="35.70223535"><ele>1035.0</ele><time>2015-11-21T13:51:07.0000000+00:00</time></trkpt><trkpt lat="31.18117978" lon="35.70223686"><ele>1035.5</ele><time>2015-11-21T13:51:11.0000000+00:00</time></trkpt><trkpt lat="31.18113217" lon="35.70226192"><ele>1034.5</ele><time>2015-11-21T13:51:17.0000000+00:00</time></trkpt><trkpt lat="31.18101315" lon="35.70216713"><ele>1034.0</ele><time>2015-11-21T13:51:34.0000000+00:00</time></trkpt><trkpt lat="31.18099362" lon="35.70213335"><ele>1033.6</ele><time>2015-11-21T13:51:43.0000000+00:00</time></trkpt><trkpt lat="31.18100024" lon="35.702102"><ele>1033.6</ele><time>2015-11-21T13:51:46.0000000+00:00</time></trkpt><trkpt lat="31.18096981" lon="35.7019621"><ele>1033.1</ele><time>2015-11-21T13:52:02.0000000+00:00</time></trkpt><trkpt lat="31.18091047" lon="35.7019321"><ele>1032.6</ele><time>2015-11-21T13:52:10.0000000+00:00</time></trkpt><trkpt lat="31.18078399" lon="35.70187342"><ele>1031.6</ele><time>2015-11-21T13:52:26.0000000+00:00</time></trkpt><trkpt lat="31.18077443" lon="35.70187191"><ele>1032.6</ele><time>2015-11-21T13:52:37.0000000+00:00</time></trkpt><trkpt lat="31.18064954" lon="35.70179882"><ele>1030.7</ele><time>2015-11-21T13:52:49.0000000+00:00</time></trkpt><trkpt lat="31.18058433" lon="35.70176915"><ele>1029.7</ele><time>2015-11-21T13:52:56.0000000+00:00</time></trkpt><trkpt lat="31.18055809" lon="35.70174644"><ele>1029.7</ele><time>2015-11-21T13:52:59.0000000+00:00</time></trkpt><trkpt lat="31.18047059" lon="35.70172263"><ele>1029.2</ele><time>2015-11-21T13:53:15.0000000+00:00</time></trkpt><trkpt lat="31.18041099" lon="35.70168827"><ele>1027.8</ele><time>2015-11-21T13:53:26.0000000+00:00</time></trkpt><trkpt lat="31.18036062" lon="35.70166589"><ele>1024.4</ele><time>2015-11-21T13:53:35.0000000+00:00</time></trkpt><trkpt lat="31.18032156" lon="35.70161249"><ele>1024.4</ele><time>2015-11-21T13:53:43.0000000+00:00</time></trkpt><trkpt lat="31.18031577" lon="35.70157972"><ele>1023.9</ele><time>2015-11-21T13:53:46.0000000+00:00</time></trkpt><trkpt lat="31.18024696" lon="35.70149825"><ele>1023.9</ele><time>2015-11-21T13:53:57.0000000+00:00</time></trkpt><trkpt lat="31.18014076" lon="35.70148568"><ele>1025.9</ele><time>2015-11-21T13:54:08.0000000+00:00</time></trkpt><trkpt lat="31.18011058" lon="35.70148635"><ele>1024.9</ele><time>2015-11-21T13:54:11.0000000+00:00</time></trkpt><trkpt lat="31.18008879" lon="35.70148274"><ele>1025.4</ele><time>2015-11-21T13:54:13.0000000+00:00</time></trkpt><trkpt lat="31.17991109" lon="35.70147126"><ele>1024.4</ele><time>2015-11-21T13:54:30.0000000+00:00</time></trkpt><trkpt lat="31.17985921" lon="35.70144511"><ele>1024.4</ele><time>2015-11-21T13:54:45.0000000+00:00</time></trkpt><trkpt lat="31.17989106" lon="35.70143094"><ele>1023.9</ele><time>2015-11-21T13:54:52.0000000+00:00</time></trkpt><trkpt lat="31.17993406" lon="35.70144226"><ele>1024.4</ele><time>2015-11-21T13:54:58.0000000+00:00</time></trkpt><trkpt lat="31.17998703" lon="35.70146598"><ele>1024.9</ele><time>2015-11-21T13:55:05.0000000+00:00</time></trkpt><trkpt lat="31.1801333" lon="35.70143782"><ele>1023.9</ele><time>2015-11-21T13:55:20.0000000+00:00</time></trkpt><trkpt lat="31.18017957" lon="35.70142072"><ele>1023.5</ele><time>2015-11-21T13:55:24.0000000+00:00</time></trkpt><trkpt lat="31.18034477" lon="35.70134033"><ele>1021.5</ele><time>2015-11-21T13:55:40.0000000+00:00</time></trkpt><trkpt lat="31.18043153" lon="35.70132215"><ele>1023.5</ele><time>2015-11-21T13:55:54.0000000+00:00</time></trkpt><trkpt lat="31.1804923" lon="35.70131217"><ele>1023.5</ele><time>2015-11-21T13:56:07.0000000+00:00</time></trkpt><trkpt lat="31.18056379" lon="35.7013317"><ele>1023.9</ele><time>2015-11-21T13:56:19.0000000+00:00</time></trkpt><trkpt lat="31.18065163" lon="35.70134402"><ele>1024.9</ele><time>2015-11-21T13:56:30.0000000+00:00</time></trkpt><trkpt lat="31.18080008" lon="35.70140731"><ele>1026.3</ele><time>2015-11-21T13:56:46.0000000+00:00</time></trkpt><trkpt lat="31.18082045" lon="35.70140982"><ele>1026.3</ele><time>2015-11-21T13:56:48.0000000+00:00</time></trkpt><trkpt lat="31.18095045" lon="35.70144184"><ele>1026.8</ele><time>2015-11-21T13:57:02.0000000+00:00</time></trkpt><trkpt lat="31.18098197" lon="35.70143832"><ele>1027.3</ele><time>2015-11-21T13:57:05.0000000+00:00</time></trkpt><trkpt lat="31.18115866" lon="35.70143078"><ele>1026.3</ele><time>2015-11-21T13:57:23.0000000+00:00</time></trkpt><trkpt lat="31.18130559" lon="35.70145802"><ele>1024.4</ele><time>2015-11-21T13:57:39.0000000+00:00</time></trkpt><trkpt lat="31.18143635" lon="35.70147595"><ele>1021.5</ele><time>2015-11-21T13:57:53.0000000+00:00</time></trkpt><trkpt lat="31.18149603" lon="35.70147662"><ele>1020.6</ele><time>2015-11-21T13:58:00.0000000+00:00</time></trkpt><trkpt lat="31.18163198" lon="35.70147042"><ele>1017.7</ele><time>2015-11-21T13:58:15.0000000+00:00</time></trkpt><trkpt lat="31.18170935" lon="35.7015208"><ele>1017.2</ele><time>2015-11-21T13:58:28.0000000+00:00</time></trkpt><trkpt lat="31.1817179" lon="35.70154921"><ele>1016.7</ele><time>2015-11-21T13:58:48.0000000+00:00</time></trkpt><trkpt lat="31.18175277" lon="35.70156991"><ele>1016.7</ele><time>2015-11-21T13:59:09.0000000+00:00</time></trkpt><trkpt lat="31.18174975" lon="35.70157981"><ele>1017.2</ele><time>2015-11-21T13:59:12.0000000+00:00</time></trkpt><trkpt lat="31.18174396" lon="35.70160504"><ele>1016.7</ele><time>2015-11-21T13:59:30.0000000+00:00</time></trkpt><trkpt lat="31.18175402" lon="35.70159037"><ele>1017.2</ele><time>2015-11-21T14:00:02.0000000+00:00</time></trkpt><trkpt lat="31.1817163" lon="35.7016503"><ele>1017.2</ele><time>2015-11-21T14:00:21.0000000+00:00</time></trkpt><trkpt lat="31.18172552" lon="35.70165088"><ele>1016.7</ele><time>2015-11-21T14:00:22.0000000+00:00</time></trkpt><trkpt lat="31.18191906" lon="35.70177536"><ele>1017.2</ele><time>2015-11-21T14:00:43.0000000+00:00</time></trkpt><trkpt lat="31.18200297" lon="35.70183101"><ele>1017.7</ele><time>2015-11-21T14:01:00.0000000+00:00</time></trkpt><trkpt lat="31.18222576" lon="35.70195674"><ele>1018.2</ele><time>2015-11-21T14:01:23.0000000+00:00</time></trkpt><trkpt lat="31.18233506" lon="35.70201734"><ele>1018.2</ele><time>2015-11-21T14:01:44.0000000+00:00</time></trkpt><trkpt lat="31.18236062" lon="35.70204039"><ele>1018.2</ele><time>2015-11-21T14:02:05.0000000+00:00</time></trkpt><trkpt lat="31.18237135" lon="35.70204265"><ele>1018.2</ele><time>2015-11-21T14:02:30.0000000+00:00</time></trkpt><trkpt lat="31.18236163" lon="35.702073"><ele>1018.2</ele><time>2015-11-21T14:03:06.0000000+00:00</time></trkpt><trkpt lat="31.18236984" lon="35.70201742"><ele>1018.7</ele><time>2015-11-21T14:03:43.0000000+00:00</time></trkpt><trkpt lat="31.18237169" lon="35.70205824"><ele>1018.2</ele><time>2015-11-21T14:04:25.0000000+00:00</time></trkpt><trkpt lat="31.18236599" lon="35.70208004"><ele>1018.7</ele><time>2015-11-21T14:05:00.0000000+00:00</time></trkpt><trkpt lat="31.18247394" lon="35.70211818"><ele>1018.7</ele><time>2015-11-21T14:05:23.0000000+00:00</time></trkpt><trkpt lat="31.18255634" lon="35.70221205"><ele>1018.7</ele><time>2015-11-21T14:05:42.0000000+00:00</time></trkpt><trkpt lat="31.1825379" lon="35.702304"><ele>1019.1</ele><time>2015-11-21T14:05:53.0000000+00:00</time></trkpt><trkpt lat="31.1825068" lon="35.70255856"><ele>1020.1</ele><time>2015-11-21T14:06:17.0000000+00:00</time></trkpt><trkpt lat="31.1825151" lon="35.70261455"><ele>1019.6</ele><time>2015-11-21T14:06:34.0000000+00:00</time></trkpt><trkpt lat="31.18252424" lon="35.7026179"><ele>1020.1</ele><time>2015-11-21T14:06:51.0000000+00:00</time></trkpt><trkpt lat="31.18248543" lon="35.70263584"><ele>1019.6</ele><time>2015-11-21T14:07:01.0000000+00:00</time></trkpt><trkpt lat="31.18234042" lon="35.70259695"><ele>1019.6</ele><time>2015-11-21T14:07:25.0000000+00:00</time></trkpt><trkpt lat="31.18233514" lon="35.70253568"><ele>1020.1</ele><time>2015-11-21T14:07:48.0000000+00:00</time></trkpt><trkpt lat="31.18224529" lon="35.70259108"><ele>1020.1</ele><time>2015-11-21T14:08:13.0000000+00:00</time></trkpt><trkpt lat="31.18247436" lon="35.70246401"><ele>1020.1</ele><time>2015-11-21T14:08:37.0000000+00:00</time></trkpt><trkpt lat="31.18250672" lon="35.70252813"><ele>1020.6</ele><time>2015-11-21T14:09:02.0000000+00:00</time></trkpt><trkpt lat="31.18250756" lon="35.70255345"><ele>1020.1</ele><time>2015-11-21T14:09:27.0000000+00:00</time></trkpt><trkpt lat="31.1824545" lon="35.70258069"><ele>1020.6</ele><time>2015-11-21T14:09:35.0000000+00:00</time></trkpt><trkpt lat="31.18241225" lon="35.70269141"><ele>1020.6</ele><time>2015-11-21T14:09:58.0000000+00:00</time></trkpt><trkpt lat="31.18249817" lon="35.70259477"><ele>1021.1</ele><time>2015-11-21T14:10:19.0000000+00:00</time></trkpt><trkpt lat="31.18243949" lon="35.7025128"><ele>1021.1</ele><time>2015-11-21T14:10:47.0000000+00:00</time></trkpt><trkpt lat="31.18239004" lon="35.70255068"><ele>1021.5</ele><time>2015-11-21T14:11:18.0000000+00:00</time></trkpt><trkpt lat="31.18238979" lon="35.70257583"><ele>1022.0</ele><time>2015-11-21T14:11:48.0000000+00:00</time></trkpt><trkpt lat="31.18235811" lon="35.70259821"><ele>1022.5</ele><time>2015-11-21T14:12:19.0000000+00:00</time></trkpt><trkpt lat="31.18226063" lon="35.70251204"><ele>1023.0</ele><time>2015-11-21T14:12:45.0000000+00:00</time></trkpt><trkpt lat="31.18235618" lon="35.70250785"><ele>1023.5</ele><time>2015-11-21T14:13:15.0000000+00:00</time></trkpt><trkpt lat="31.18234713" lon="35.70253232"><ele>1023.9</ele><time>2015-11-21T14:13:47.0000000+00:00</time></trkpt><trkpt lat="31.1823219" lon="35.70247944"><ele>1024.9</ele><time>2015-11-21T14:14:20.0000000+00:00</time></trkpt><trkpt lat="31.18235048" lon="35.70250341"><ele>1025.9</ele><time>2015-11-21T14:14:44.0000000+00:00</time></trkpt><trkpt lat="31.18242902" lon="35.70254976"><ele>1026.3</ele><time>2015-11-21T14:15:16.0000000+00:00</time></trkpt><trkpt lat="31.18238728" lon="35.70247306"><ele>1027.3</ele><time>2015-11-21T14:15:46.0000000+00:00</time></trkpt><trkpt lat="31.18257646" lon="35.7024009"><ele>1028.3</ele><time>2015-11-21T14:16:21.0000000+00:00</time></trkpt><trkpt lat="31.18252642" lon="35.70240852"><ele>1029.2</ele><time>2015-11-21T14:16:50.0000000+00:00</time></trkpt><trkpt lat="31.18236381" lon="35.70235698"><ele>1029.7</ele><time>2015-11-21T14:17:21.0000000+00:00</time></trkpt><trkpt lat="31.18240094" lon="35.70237072"><ele>1029.7</ele><time>2015-11-21T14:17:34.0000000+00:00</time></trkpt><trkpt lat="31.18245475" lon="35.70237667"><ele>1003.8</ele><time>2015-11-21T14:18:04.0000000+00:00</time></trkpt><trkpt lat="31.18243204" lon="35.70250894"><ele>1003.8</ele><time>2015-11-21T14:18:05.0000000+00:00</time></trkpt><trkpt lat="31.18246363" lon="35.7024755"><ele>1003.8</ele><time>2015-11-21T14:18:28.0000000+00:00</time></trkpt><trkpt lat="31.18252457" lon="35.70258991"><ele>1003.8</ele><time>2015-11-21T14:18:55.0000000+00:00</time></trkpt><trkpt lat="31.18254586" lon="35.70254532"><ele>1003.3</ele><time>2015-11-21T14:19:18.0000000+00:00</time></trkpt><trkpt lat="31.18248291" lon="35.70262117"><ele>1003.3</ele><time>2015-11-21T14:19:46.0000000+00:00</time></trkpt><trkpt lat="31.1824716" lon="35.70266618"><ele>1003.8</ele><time>2015-11-21T14:20:20.0000000+00:00</time></trkpt><trkpt lat="31.18235962" lon="35.70256141"><ele>1003.8</ele><time>2015-11-21T14:20:49.0000000+00:00</time></trkpt><trkpt lat="31.18226649" lon="35.70252378"><ele>1004.2</ele><time>2015-11-21T14:21:11.0000000+00:00</time></trkpt><trkpt lat="31.18227169" lon="35.70246519"><ele>1005.2</ele><time>2015-11-21T14:21:36.0000000+00:00</time></trkpt><trkpt lat="31.18233304" lon="35.70243996"><ele>1006.2</ele><time>2015-11-21T14:22:04.0000000+00:00</time></trkpt><trkpt lat="31.18238065" lon="35.70242269"><ele>1005.7</ele><time>2015-11-21T14:22:36.0000000+00:00</time></trkpt><trkpt lat="31.18232114" lon="35.7025014"><ele>1006.6</ele><time>2015-11-21T14:23:05.0000000+00:00</time></trkpt><trkpt lat="31.18238124" lon="35.70255487"><ele>1007.1</ele><time>2015-11-21T14:23:33.0000000+00:00</time></trkpt><trkpt lat="31.18227362" lon="35.7025226"><ele>1007.6</ele><time>2015-11-21T14:24:00.0000000+00:00</time></trkpt><trkpt lat="31.18231125" lon="35.70256284"><ele>1008.1</ele><time>2015-11-21T14:24:30.0000000+00:00</time></trkpt><trkpt lat="31.18218879" lon="35.70249989"><ele>1009.0</ele><time>2015-11-21T14:24:56.0000000+00:00</time></trkpt><trkpt lat="31.18226674" lon="35.70248866"><ele>1009.0</ele><time>2015-11-21T14:25:24.0000000+00:00</time></trkpt><trkpt lat="31.18230505" lon="35.70250341"><ele>1010.0</ele><time>2015-11-21T14:25:50.0000000+00:00</time></trkpt><trkpt lat="31.18234302" lon="35.70249075"><ele>1010.5</ele><time>2015-11-21T14:26:13.0000000+00:00</time></trkpt><trkpt lat="31.18236666" lon="35.70249486"><ele>1011.4</ele><time>2015-11-21T14:26:45.0000000+00:00</time></trkpt><trkpt lat="31.18239691" lon="35.70254381"><ele>1011.0</ele><time>2015-11-21T14:27:10.0000000+00:00</time></trkpt><trkpt lat="31.18246808" lon="35.70261254"><ele>1011.4</ele><time>2015-11-21T14:27:42.0000000+00:00</time></trkpt><trkpt lat="31.1824338" lon="35.70256711"><ele>1011.9</ele><time>2015-11-21T14:28:13.0000000+00:00</time></trkpt><trkpt lat="31.18247478" lon="35.70266451"><ele>1011.9</ele><time>2015-11-21T14:28:46.0000000+00:00</time></trkpt><trkpt lat="31.18247671" lon="35.70266392"><ele>1012.4</ele><time>2015-11-21T14:29:20.0000000+00:00</time></trkpt><trkpt lat="31.18240513" lon="35.7026827"><ele>1012.9</ele><time>2015-11-21T14:29:51.0000000+00:00</time></trkpt><trkpt lat="31.18224545" lon="35.70261958"><ele>1013.4</ele><time>2015-11-21T14:30:27.0000000+00:00</time></trkpt><trkpt lat="31.1823333" lon="35.70263148"><ele>1013.9</ele><time>2015-11-21T14:30:55.0000000+00:00</time></trkpt><trkpt lat="31.18243312" lon="35.70258572"><ele>1001.4</ele><time>2015-11-21T14:57:30.0000000+00:00</time></trkpt><trkpt lat="31.18247478" lon="35.70265906"><ele>1004.7</ele><time>2015-11-21T14:57:46.0000000+00:00</time></trkpt><trkpt lat="31.18246565" lon="35.70264892"><ele>1008.6</ele><time>2015-11-21T14:57:49.0000000+00:00</time></trkpt><trkpt lat="31.18246363" lon="35.70264766"><ele>1009.0</ele><time>2015-11-21T14:57:50.0000000+00:00</time></trkpt><trkpt lat="31.18245089" lon="35.70264271"><ele>1012.4</ele><time>2015-11-21T14:57:53.0000000+00:00</time></trkpt><trkpt lat="31.18244695" lon="35.70263559"><ele>1016.3</ele><time>2015-11-21T14:57:57.0000000+00:00</time></trkpt><trkpt lat="31.18245794" lon="35.70262419"><ele>1018.7</ele><time>2015-11-21T14:58:00.0000000+00:00</time></trkpt><trkpt lat="31.18246573" lon="35.70261765"><ele>1022.0</ele><time>2015-11-21T14:58:04.0000000+00:00</time></trkpt><trkpt lat="31.18246757" lon="35.70261681"><ele>1021.5</ele><time>2015-11-21T14:58:05.0000000+00:00</time></trkpt><trkpt lat="31.18246607" lon="35.70260634"><ele>1024.9</ele><time>2015-11-21T14:58:10.0000000+00:00</time></trkpt><trkpt lat="31.18246757" lon="35.70261061"><ele>1025.9</ele><time>2015-11-21T14:58:12.0000000+00:00</time></trkpt><trkpt lat="31.18246674" lon="35.70261438"><ele>1027.3</ele><time>2015-11-21T14:58:16.0000000+00:00</time></trkpt><trkpt lat="31.18245341" lon="35.70266912"><ele>1028.3</ele><time>2015-11-21T14:58:20.0000000+00:00</time></trkpt><trkpt lat="31.18242776" lon="35.7027832"><ele>1028.8</ele><time>2015-11-21T14:58:27.0000000+00:00</time></trkpt><trkpt lat="31.18238484" lon="35.70303868"><ele>1028.3</ele><time>2015-11-21T14:58:43.0000000+00:00</time></trkpt><trkpt lat="31.18237512" lon="35.70312149"><ele>1027.3</ele><time>2015-11-21T14:58:47.0000000+00:00</time></trkpt><trkpt lat="31.18234931" lon="35.70320707"><ele>1026.8</ele><time>2015-11-21T14:58:51.0000000+00:00</time></trkpt><trkpt lat="31.18234587" lon="35.70323624"><ele>1027.3</ele><time>2015-11-21T14:58:52.0000000+00:00</time></trkpt><trkpt lat="31.18233975" lon="35.70326608"><ele>1027.3</ele><time>2015-11-21T14:58:53.0000000+00:00</time></trkpt><trkpt lat="31.18226364" lon="35.70367981"><ele>1024.4</ele><time>2015-11-21T14:59:06.0000000+00:00</time></trkpt><trkpt lat="31.18223883" lon="35.70394635"><ele>1021.5</ele><time>2015-11-21T14:59:13.0000000+00:00</time></trkpt><trkpt lat="31.18224135" lon="35.70404241"><ele>1021.1</ele><time>2015-11-21T14:59:18.0000000+00:00</time></trkpt><trkpt lat="31.18225744" lon="35.70405263"><ele>1020.6</ele><time>2015-11-21T14:59:19.0000000+00:00</time></trkpt><trkpt lat="31.18254108" lon="35.70425699"><ele>1017.7</ele><time>2015-11-21T14:59:30.0000000+00:00</time></trkpt><trkpt lat="31.18277033" lon="35.70445949"><ele>1014.8</ele><time>2015-11-21T14:59:39.0000000+00:00</time></trkpt><trkpt lat="31.18294585" lon="35.7045698"><ele>1012.9</ele><time>2015-11-21T14:59:45.0000000+00:00</time></trkpt><trkpt lat="31.18298868" lon="35.70465521"><ele>1012.4</ele><time>2015-11-21T14:59:49.0000000+00:00</time></trkpt><trkpt lat="31.18298289" lon="35.70467407"><ele>1011.9</ele><time>2015-11-21T14:59:50.0000000+00:00</time></trkpt><trkpt lat="31.18296932" lon="35.70469494"><ele>1011.9</ele><time>2015-11-21T14:59:51.0000000+00:00</time></trkpt><trkpt lat="31.18295113" lon="35.70471573"><ele>1011.4</ele><time>2015-11-21T14:59:52.0000000+00:00</time></trkpt><trkpt lat="31.18293378" lon="35.70473467"><ele>1010.5</ele><time>2015-11-21T14:59:53.0000000+00:00</time></trkpt><trkpt lat="31.18291626" lon="35.70475252"><ele>1010.0</ele><time>2015-11-21T14:59:54.0000000+00:00</time></trkpt><trkpt lat="31.18278106" lon="35.70487817"><ele>1006.6</ele><time>2015-11-21T15:00:03.0000000+00:00</time></trkpt><trkpt lat="31.18257344" lon="35.70491371"><ele>1003.8</ele><time>2015-11-21T15:00:10.0000000+00:00</time></trkpt><trkpt lat="31.18248987" lon="35.70493936"><ele>1001.4</ele><time>2015-11-21T15:00:14.0000000+00:00</time></trkpt><trkpt lat="31.18247981" lon="35.70496425"><ele>1000.9</ele><time>2015-11-21T15:00:15.0000000+00:00</time></trkpt><trkpt lat="31.18247453" lon="35.70498864"><ele>1000.4</ele><time>2015-11-21T15:00:16.0000000+00:00</time></trkpt><trkpt lat="31.18247696" lon="35.70500599"><ele>1000.4</ele><time>2015-11-21T15:00:17.0000000+00:00</time></trkpt><trkpt lat="31.18248828" lon="35.70501773"><ele>1000.4</ele><time>2015-11-21T15:00:18.0000000+00:00</time></trkpt><trkpt lat="31.18250714" lon="35.70502762"><ele>999.9</ele><time>2015-11-21T15:00:19.0000000+00:00</time></trkpt><trkpt lat="31.18253354" lon="35.70503969"><ele>999.9</ele><time>2015-11-21T15:00:20.0000000+00:00</time></trkpt><trkpt lat="31.18260219" lon="35.70506441"><ele>999.4</ele><time>2015-11-21T15:00:22.0000000+00:00</time></trkpt><trkpt lat="31.18264368" lon="35.70507757"><ele>999.0</ele><time>2015-11-21T15:00:23.0000000+00:00</time></trkpt><trkpt lat="31.18272976" lon="35.70511303"><ele>998.5</ele><time>2015-11-21T15:00:25.0000000+00:00</time></trkpt><trkpt lat="31.18276932" lon="35.7051318"><ele>998.0</ele><time>2015-11-21T15:00:26.0000000+00:00</time></trkpt><trkpt lat="31.18280369" lon="35.70515469"><ele>997.5</ele><time>2015-11-21T15:00:27.0000000+00:00</time></trkpt><trkpt lat="31.18285172" lon="35.70519576"><ele>997.5</ele><time>2015-11-21T15:00:35.0000000+00:00</time></trkpt><trkpt lat="31.18286697" lon="35.70520783"><ele>997.0</ele><time>2015-11-21T15:00:44.0000000+00:00</time></trkpt><trkpt lat="31.18288097" lon="35.70521789"><ele>997.0</ele><time>2015-11-21T15:00:45.0000000+00:00</time></trkpt><trkpt lat="31.18314751" lon="35.7054789"><ele>995.1</ele><time>2015-11-21T15:00:57.0000000+00:00</time></trkpt><trkpt lat="31.18342278" lon="35.7058938"><ele>992.7</ele><time>2015-11-21T15:01:12.0000000+00:00</time></trkpt><trkpt lat="31.18340987" lon="35.70593504"><ele>992.2</ele><time>2015-11-21T15:01:14.0000000+00:00</time></trkpt><trkpt lat="31.18339889" lon="35.70599112"><ele>990.8</ele><time>2015-11-21T15:01:26.0000000+00:00</time></trkpt><trkpt lat="31.18329093" lon="35.70624475"><ele>987.4</ele><time>2015-11-21T15:01:38.0000000+00:00</time></trkpt><trkpt lat="31.18326612" lon="35.7062958"><ele>986.5</ele><time>2015-11-21T15:01:40.0000000+00:00</time></trkpt><trkpt lat="31.18322153" lon="35.70637777"><ele>985.5</ele><time>2015-11-21T15:01:51.0000000+00:00</time></trkpt><trkpt lat="31.18312748" lon="35.70660291"><ele>984.5</ele><time>2015-11-21T15:02:00.0000000+00:00</time></trkpt><trkpt lat="31.18310418" lon="35.70664147"><ele>984.1</ele><time>2015-11-21T15:02:01.0000000+00:00</time></trkpt><trkpt lat="31.18307711" lon="35.70667885"><ele>984.1</ele><time>2015-11-21T15:02:02.0000000+00:00</time></trkpt><trkpt lat="31.18285499" lon="35.7070003"><ele>981.6</ele><time>2015-11-21T15:02:15.0000000+00:00</time></trkpt><trkpt lat="31.1828311" lon="35.70699854"><ele>981.6</ele><time>2015-11-21T15:02:16.0000000+00:00</time></trkpt><trkpt lat="31.18270218" lon="35.70698245"><ele>979.7</ele><time>2015-11-21T15:02:28.0000000+00:00</time></trkpt><trkpt lat="31.18269917" lon="35.70699301"><ele>980.2</ele><time>2015-11-21T15:02:29.0000000+00:00</time></trkpt><trkpt lat="31.18269305" lon="35.70700499"><ele>980.2</ele><time>2015-11-21T15:02:30.0000000+00:00</time></trkpt><trkpt lat="31.18268232" lon="35.70701304"><ele>980.2</ele><time>2015-11-21T15:02:31.0000000+00:00</time></trkpt><trkpt lat="31.18267117" lon="35.70702285"><ele>980.2</ele><time>2015-11-21T15:02:32.0000000+00:00</time></trkpt><trkpt lat="31.18266136" lon="35.7070371"><ele>979.7</ele><time>2015-11-21T15:02:33.0000000+00:00</time></trkpt><trkpt lat="31.18265499" lon="35.7070557"><ele>980.2</ele><time>2015-11-21T15:02:34.0000000+00:00</time></trkpt><trkpt lat="31.18265005" lon="35.70707431"><ele>979.7</ele><time>2015-11-21T15:02:35.0000000+00:00</time></trkpt><trkpt lat="31.1826446" lon="35.70709091"><ele>979.7</ele><time>2015-11-21T15:02:36.0000000+00:00</time></trkpt><trkpt lat="31.18264041" lon="35.70711019"><ele>979.7</ele><time>2015-11-21T15:02:37.0000000+00:00</time></trkpt><trkpt lat="31.1826363" lon="35.7071324"><ele>979.7</ele><time>2015-11-21T15:02:38.0000000+00:00</time></trkpt><trkpt lat="31.18263186" lon="35.70715947"><ele>979.7</ele><time>2015-11-21T15:02:39.0000000+00:00</time></trkpt><trkpt lat="31.18265717" lon="35.70737774"><ele>977.8</ele><time>2015-11-21T15:02:45.0000000+00:00</time></trkpt><trkpt lat="31.18267092" lon="35.70742174"><ele>977.3</ele><time>2015-11-21T15:02:46.0000000+00:00</time></trkpt><trkpt lat="31.18269037" lon="35.7074634"><ele>976.8</ele><time>2015-11-21T15:02:47.0000000+00:00</time></trkpt><trkpt lat="31.18292137" lon="35.70772994"><ele>974.0</ele><time>2015-11-21T15:02:53.0000000+00:00</time></trkpt><trkpt lat="31.18296932" lon="35.70778149"><ele>973.5</ele><time>2015-11-21T15:02:54.0000000+00:00</time></trkpt><trkpt lat="31.18313318" lon="35.70797495"><ele>970.6</ele><time>2015-11-21T15:02:58.0000000+00:00</time></trkpt><trkpt lat="31.18326176" lon="35.70820277"><ele>968.2</ele><time>2015-11-21T15:03:08.0000000+00:00</time></trkpt><trkpt lat="31.18325497" lon="35.70821467"><ele>967.7</ele><time>2015-11-21T15:03:09.0000000+00:00</time></trkpt><trkpt lat="31.18319202" lon="35.70822313"><ele>966.7</ele><time>2015-11-21T15:03:13.0000000+00:00</time></trkpt><trkpt lat="31.1831673" lon="35.70820662"><ele>966.7</ele><time>2015-11-21T15:03:14.0000000+00:00</time></trkpt><trkpt lat="31.1831398" lon="35.70818223"><ele>965.8</ele><time>2015-11-21T15:03:15.0000000+00:00</time></trkpt><trkpt lat="31.18267788" lon="35.70775492"><ele>962.9</ele><time>2015-11-21T15:03:26.0000000+00:00</time></trkpt><trkpt lat="31.18261551" lon="35.70769398"><ele>961.9</ele><time>2015-11-21T15:03:28.0000000+00:00</time></trkpt><trkpt lat="31.18246112" lon="35.70751511"><ele>961.0</ele><time>2015-11-21T15:03:34.0000000+00:00</time></trkpt><trkpt lat="31.18244084" lon="35.70746415"><ele>960.5</ele><time>2015-11-21T15:03:35.0000000+00:00</time></trkpt><trkpt lat="31.18238744" lon="35.70727606"><ele>959.5</ele><time>2015-11-21T15:03:38.0000000+00:00</time></trkpt><trkpt lat="31.18227378" lon="35.70664641"><ele>956.2</ele><time>2015-11-21T15:03:46.0000000+00:00</time></trkpt><trkpt lat="31.18194102" lon="35.70611073"><ele>952.8</ele><time>2015-11-21T15:03:54.0000000+00:00</time></trkpt><trkpt lat="31.1815086" lon="35.70576472"><ele>949.9</ele><time>2015-11-21T15:04:01.0000000+00:00</time></trkpt><trkpt lat="31.18110744" lon="35.70539709"><ele>946.6</ele><time>2015-11-21T15:04:09.0000000+00:00</time></trkpt><trkpt lat="31.1807896" lon="35.70479619"><ele>943.7</ele><time>2015-11-21T15:04:17.0000000+00:00</time></trkpt><trkpt lat="31.18046514" lon="35.70412874"><ele>939.8</ele><time>2015-11-21T15:04:25.0000000+00:00</time></trkpt><trkpt lat="31.18009483" lon="35.70339005"><ele>937.4</ele><time>2015-11-21T15:04:38.0000000+00:00</time></trkpt><trkpt lat="31.18007027" lon="35.70335551"><ele>936.9</ele><time>2015-11-21T15:04:39.0000000+00:00</time></trkpt><trkpt lat="31.18004361" lon="35.70332525"><ele>937.4</ele><time>2015-11-21T15:04:40.0000000+00:00</time></trkpt><trkpt lat="31.18001428" lon="35.70329776"><ele>937.4</ele><time>2015-11-21T15:04:41.0000000+00:00</time></trkpt><trkpt lat="31.17998611" lon="35.70327027"><ele>937.4</ele><time>2015-11-21T15:04:42.0000000+00:00</time></trkpt><trkpt lat="31.17995929" lon="35.70324252"><ele>937.4</ele><time>2015-11-21T15:04:43.0000000+00:00</time></trkpt><trkpt lat="31.17993146" lon="35.70321721"><ele>936.9</ele><time>2015-11-21T15:04:44.0000000+00:00</time></trkpt><trkpt lat="31.17990556" lon="35.70319726"><ele>936.9</ele><time>2015-11-21T15:04:45.0000000+00:00</time></trkpt><trkpt lat="31.17977246" lon="35.70313348"><ele>936.9</ele><time>2015-11-21T15:04:57.0000000+00:00</time></trkpt><trkpt lat="31.17968034" lon="35.70311386"><ele>936.0</ele><time>2015-11-21T15:05:15.0000000+00:00</time></trkpt><trkpt lat="31.17961161" lon="35.70312115"><ele>936.0</ele><time>2015-11-21T15:05:28.0000000+00:00</time></trkpt><trkpt lat="31.17960851" lon="35.70309961"><ele>936.0</ele><time>2015-11-21T15:05:52.0000000+00:00</time></trkpt><trkpt lat="31.17957506" lon="35.70312124"><ele>935.5</ele><time>2015-11-21T15:06:01.0000000+00:00</time></trkpt><trkpt lat="31.17955956" lon="35.70312342"><ele>935.0</ele><time>2015-11-21T15:06:02.0000000+00:00</time></trkpt><trkpt lat="31.17954112" lon="35.70312266"><ele>935.0</ele><time>2015-11-21T15:06:03.0000000+00:00</time></trkpt><trkpt lat="31.17952167" lon="35.703123"><ele>935.0</ele><time>2015-11-21T15:06:04.0000000+00:00</time></trkpt><trkpt lat="31.17949954" lon="35.70312409"><ele>935.0</ele><time>2015-11-21T15:06:05.0000000+00:00</time></trkpt><trkpt lat="31.179477" lon="35.70312451"><ele>935.5</ele><time>2015-11-21T15:06:06.0000000+00:00</time></trkpt><trkpt lat="31.17945579" lon="35.70312493"><ele>935.0</ele><time>2015-11-21T15:06:07.0000000+00:00</time></trkpt><trkpt lat="31.17943735" lon="35.70312501"><ele>935.5</ele><time>2015-11-21T15:06:08.0000000+00:00</time></trkpt><trkpt lat="31.17941505" lon="35.7031385"><ele>935.0</ele><time>2015-11-21T15:06:11.0000000+00:00</time></trkpt><trkpt lat="31.17941732" lon="35.70322811"><ele>935.0</ele><time>2015-11-21T15:06:15.0000000+00:00</time></trkpt><trkpt lat="31.17942276" lon="35.70325443"><ele>934.5</ele><time>2015-11-21T15:06:16.0000000+00:00</time></trkpt><trkpt lat="31.17943659" lon="35.70331302"><ele>935.0</ele><time>2015-11-21T15:06:18.0000000+00:00</time></trkpt><trkpt lat="31.17943542" lon="35.7033483"><ele>934.5</ele><time>2015-11-21T15:06:19.0000000+00:00</time></trkpt><trkpt lat="31.17943282" lon="35.70338351"><ele>934.5</ele><time>2015-11-21T15:06:20.0000000+00:00</time></trkpt><trkpt lat="31.179493" lon="35.70399036"><ele>936.0</ele><time>2015-11-21T15:06:34.0000000+00:00</time></trkpt><trkpt lat="31.1795925" lon="35.70451154"><ele>937.9</ele><time>2015-11-21T15:06:48.0000000+00:00</time></trkpt><trkpt lat="31.17964162" lon="35.70502074"><ele>940.3</ele><time>2015-11-21T15:07:03.0000000+00:00</time></trkpt><trkpt lat="31.17961119" lon="35.70554009"><ele>942.7</ele><time>2015-11-21T15:07:18.0000000+00:00</time></trkpt><trkpt lat="31.17965151" lon="35.70610628"><ele>945.1</ele><time>2015-11-21T15:07:35.0000000+00:00</time></trkpt><trkpt lat="31.17980481" lon="35.70653887"><ele>947.5</ele><time>2015-11-21T15:07:50.0000000+00:00</time></trkpt><trkpt lat="31.18001889" lon="35.70695998"><ele>950.9</ele><time>2015-11-21T15:08:06.0000000+00:00</time></trkpt><trkpt lat="31.18014369" lon="35.70739433"><ele>953.8</ele><time>2015-11-21T15:08:22.0000000+00:00</time></trkpt><trkpt lat="31.18020857" lon="35.70779582"><ele>955.7</ele><time>2015-11-21T15:08:39.0000000+00:00</time></trkpt><trkpt lat="31.18023438" lon="35.70821425"><ele>958.1</ele><time>2015-11-21T15:08:57.0000000+00:00</time></trkpt><trkpt lat="31.1802063" lon="35.70859554"><ele>961.0</ele><time>2015-11-21T15:09:14.0000000+00:00</time></trkpt><trkpt lat="31.18006482" lon="35.70895622"><ele>963.9</ele><time>2015-11-21T15:09:31.0000000+00:00</time></trkpt><trkpt lat="31.17990246" lon="35.70926475"><ele>966.3</ele><time>2015-11-21T15:09:48.0000000+00:00</time></trkpt><trkpt lat="31.17988117" lon="35.7093132"><ele>966.7</ele><time>2015-11-21T15:09:51.0000000+00:00</time></trkpt><trkpt lat="31.17988653" lon="35.70932921"><ele>966.7</ele><time>2015-11-21T15:09:52.0000000+00:00</time></trkpt><trkpt lat="31.1798696" lon="35.70952803"><ele>967.7</ele><time>2015-11-21T15:10:01.0000000+00:00</time></trkpt><trkpt lat="31.17987103" lon="35.70954043"><ele>967.2</ele><time>2015-11-21T15:10:02.0000000+00:00</time></trkpt><trkpt lat="31.17994186" lon="35.70952317"><ele>966.7</ele><time>2015-11-21T15:10:11.0000000+00:00</time></trkpt><trkpt lat="31.17994957" lon="35.70953691"><ele>966.7</ele><time>2015-11-21T15:10:38.0000000+00:00</time></trkpt></trkseg><trkseg><trkpt lat="31.17997857" lon="35.70953096"><ele>946.1</ele><time>2015-11-22T05:14:31.0000000+00:00</time></trkpt><trkpt lat="31.18000086" lon="35.70953817"><ele>949.0</ele><time>2015-11-22T05:14:41.0000000+00:00</time></trkpt><trkpt lat="31.18000899" lon="35.70954379"><ele>952.3</ele><time>2015-11-22T05:14:50.0000000+00:00</time></trkpt><trkpt lat="31.1800214" lon="35.70954856"><ele>955.7</ele><time>2015-11-22T05:15:08.0000000+00:00</time></trkpt><trkpt lat="31.18001637" lon="35.70955032"><ele>956.7</ele><time>2015-11-22T05:15:22.0000000+00:00</time></trkpt><trkpt lat="31.17993498" lon="35.70959282"><ele>958.6</ele><time>2015-11-22T05:15:42.0000000+00:00</time></trkpt><trkpt lat="31.17990078" lon="35.70958511"><ele>960.0</ele><time>2015-11-22T05:15:59.0000000+00:00</time></trkpt><trkpt lat="31.17990824" lon="35.70954882"><ele>960.0</ele><time>2015-11-22T05:16:11.0000000+00:00</time></trkpt><trkpt lat="31.17990891" lon="35.7095318"><ele>960.5</ele><time>2015-11-22T05:16:20.0000000+00:00</time></trkpt><trkpt lat="31.17992157" lon="35.70949785"><ele>960.0</ele><time>2015-11-22T05:16:22.0000000+00:00</time></trkpt><trkpt lat="31.17993381" lon="35.70947506"><ele>960.0</ele><time>2015-11-22T05:16:23.0000000+00:00</time></trkpt><trkpt lat="31.18017429" lon="35.70906015"><ele>957.6</ele><time>2015-11-22T05:16:32.0000000+00:00</time></trkpt><trkpt lat="31.18035098" lon="35.70857367"><ele>954.3</ele><time>2015-11-22T05:16:38.0000000+00:00</time></trkpt><trkpt lat="31.18037838" lon="35.70813973"><ele>950.9</ele><time>2015-11-22T05:16:42.0000000+00:00</time></trkpt><trkpt lat="31.18031083" lon="35.70766658"><ele>947.5</ele><time>2015-11-22T05:16:46.0000000+00:00</time></trkpt><trkpt lat="31.18021552" lon="35.70716425"><ele>944.6</ele><time>2015-11-22T05:16:50.0000000+00:00</time></trkpt><trkpt lat="31.18014704" lon="35.70693836"><ele>942.7</ele><time>2015-11-22T05:16:52.0000000+00:00</time></trkpt><trkpt lat="31.18010002" lon="35.70682956"><ele>941.8</ele><time>2015-11-22T05:16:53.0000000+00:00</time></trkpt><trkpt lat="31.18004856" lon="35.70672009"><ele>942.2</ele><time>2015-11-22T05:16:54.0000000+00:00</time></trkpt><trkpt lat="31.17984194" lon="35.70626688"><ele>938.9</ele><time>2015-11-22T05:16:58.0000000+00:00</time></trkpt><trkpt lat="31.17976525" lon="35.70602213"><ele>937.4</ele><time>2015-11-22T05:17:00.0000000+00:00</time></trkpt><trkpt lat="31.1797417" lon="35.70589422"><ele>936.9</ele><time>2015-11-22T05:17:01.0000000+00:00</time></trkpt><trkpt lat="31.1797308" lon="35.70576573"><ele>936.5</ele><time>2015-11-22T05:17:02.0000000+00:00</time></trkpt><trkpt lat="31.17972719" lon="35.70563723"><ele>935.5</ele><time>2015-11-22T05:17:03.0000000+00:00</time></trkpt><trkpt lat="31.17972753" lon="35.70550891"><ele>934.5</ele><time>2015-11-22T05:17:04.0000000+00:00</time></trkpt><trkpt lat="31.17970842" lon="35.70474129"><ele>931.7</ele><time>2015-11-22T05:17:10.0000000+00:00</time></trkpt><trkpt lat="31.17963642" lon="35.70403562"><ele>928.3</ele><time>2015-11-22T05:17:16.0000000+00:00</time></trkpt><trkpt lat="31.17960675" lon="35.70376773"><ele>926.9</ele><time>2015-11-22T05:17:19.0000000+00:00</time></trkpt><trkpt lat="31.17957951" lon="35.70349096"><ele>925.4</ele><time>2015-11-22T05:17:26.0000000+00:00</time></trkpt><trkpt lat="31.1795811" lon="35.70347965"><ele>925.9</ele><time>2015-11-22T05:17:40.0000000+00:00</time></trkpt><trkpt lat="31.1795583" lon="35.7033872"><ele>925.9</ele><time>2015-11-22T05:18:04.0000000+00:00</time></trkpt><trkpt lat="31.17938052" lon="35.70318444"><ele>926.4</ele><time>2015-11-22T05:18:12.0000000+00:00</time></trkpt><trkpt lat="31.17928203" lon="35.70319123"><ele>926.4</ele><time>2015-11-22T05:18:15.0000000+00:00</time></trkpt><trkpt lat="31.17926493" lon="35.70318419"><ele>926.4</ele><time>2015-11-22T05:18:16.0000000+00:00</time></trkpt><trkpt lat="31.17925068" lon="35.70315678"><ele>926.4</ele><time>2015-11-22T05:18:23.0000000+00:00</time></trkpt><trkpt lat="31.17928932" lon="35.70313993"><ele>926.4</ele><time>2015-11-22T05:18:35.0000000+00:00</time></trkpt><trkpt lat="31.1792962" lon="35.70314588"><ele>926.9</ele><time>2015-11-22T05:18:51.0000000+00:00</time></trkpt><trkpt lat="31.17929662" lon="35.70313607"><ele>926.9</ele><time>2015-11-22T05:19:19.0000000+00:00</time></trkpt><trkpt lat="31.17929695" lon="35.70318326"><ele>926.4</ele><time>2015-11-22T05:19:53.0000000+00:00</time></trkpt><trkpt lat="31.17929259" lon="35.70316591"><ele>926.4</ele><time>2015-11-22T05:20:23.0000000+00:00</time></trkpt><trkpt lat="31.17929033" lon="35.70317815"><ele>925.9</ele><time>2015-11-22T05:20:50.0000000+00:00</time></trkpt><trkpt lat="31.17928622" lon="35.70323397"><ele>925.9</ele><time>2015-11-22T05:21:18.0000000+00:00</time></trkpt><trkpt lat="31.17931757" lon="35.70317999"><ele>925.9</ele><time>2015-11-22T05:21:48.0000000+00:00</time></trkpt><trkpt lat="31.17930667" lon="35.70319508"><ele>924.9</ele><time>2015-11-22T05:22:17.0000000+00:00</time></trkpt><trkpt lat="31.17931531" lon="35.7031753"><ele>925.4</ele><time>2015-11-22T05:22:44.0000000+00:00</time></trkpt><trkpt lat="31.17930776" lon="35.70320372"><ele>925.9</ele><time>2015-11-22T05:23:13.0000000+00:00</time></trkpt><trkpt lat="31.17928899" lon="35.70321118"><ele>925.9</ele><time>2015-11-22T05:23:42.0000000+00:00</time></trkpt><trkpt lat="31.17928723" lon="35.70318284"><ele>925.9</ele><time>2015-11-22T05:24:08.0000000+00:00</time></trkpt><trkpt lat="31.17931128" lon="35.70317111"><ele>925.9</ele><time>2015-11-22T05:24:33.0000000+00:00</time></trkpt><trkpt lat="31.17929653" lon="35.70315066"><ele>925.9</ele><time>2015-11-22T05:25:01.0000000+00:00</time></trkpt><trkpt lat="31.17930651" lon="35.70315979"><ele>925.9</ele><time>2015-11-22T05:25:30.0000000+00:00</time></trkpt><trkpt lat="31.17930894" lon="35.70320162"><ele>926.4</ele><time>2015-11-22T05:26:02.0000000+00:00</time></trkpt><trkpt lat="31.17927281" lon="35.70323045"><ele>926.4</ele><time>2015-11-22T05:26:37.0000000+00:00</time></trkpt><trkpt lat="31.17927164" lon="35.70322257"><ele>926.4</ele><time>2015-11-22T05:26:55.0000000+00:00</time></trkpt><trkpt lat="31.17926342" lon="35.70317999"><ele>925.9</ele><time>2015-11-22T05:26:57.0000000+00:00</time></trkpt><trkpt lat="31.17924834" lon="35.70314999"><ele>925.9</ele><time>2015-11-22T05:27:01.0000000+00:00</time></trkpt><trkpt lat="31.17918774" lon="35.70314479"><ele>926.4</ele><time>2015-11-22T05:27:05.0000000+00:00</time></trkpt><trkpt lat="31.1791677" lon="35.70313792"><ele>926.4</ele><time>2015-11-22T05:27:06.0000000+00:00</time></trkpt><trkpt lat="31.1788419" lon="35.70319106"><ele>927.3</ele><time>2015-11-22T05:27:17.0000000+00:00</time></trkpt><trkpt lat="31.17837109" lon="35.70325468"><ele>928.3</ele><time>2015-11-22T05:27:32.0000000+00:00</time></trkpt><trkpt lat="31.17825408" lon="35.70327027"><ele>928.8</ele><time>2015-11-22T05:27:42.0000000+00:00</time></trkpt><trkpt lat="31.17816665" lon="35.70328309"><ele>928.8</ele><time>2015-11-22T05:27:55.0000000+00:00</time></trkpt><trkpt lat="31.17810211" lon="35.70329885"><ele>929.3</ele><time>2015-11-22T05:27:58.0000000+00:00</time></trkpt><trkpt lat="31.17808225" lon="35.7032981"><ele>929.3</ele><time>2015-11-22T05:27:59.0000000+00:00</time></trkpt><trkpt lat="31.17806062" lon="35.70330204"><ele>929.7</ele><time>2015-11-22T05:28:00.0000000+00:00</time></trkpt><trkpt lat="31.17803925" lon="35.70330983"><ele>929.7</ele><time>2015-11-22T05:28:01.0000000+00:00</time></trkpt><trkpt lat="31.17801645" lon="35.70331645"><ele>929.7</ele><time>2015-11-22T05:28:02.0000000+00:00</time></trkpt><trkpt lat="31.17799331" lon="35.70332265"><ele>930.2</ele><time>2015-11-22T05:28:03.0000000+00:00</time></trkpt><trkpt lat="31.17770833" lon="35.70337127"><ele>932.1</ele><time>2015-11-22T05:28:19.0000000+00:00</time></trkpt><trkpt lat="31.17740021" lon="35.70340228"><ele>934.5</ele><time>2015-11-22T05:28:36.0000000+00:00</time></trkpt><trkpt lat="31.17718253" lon="35.70341234"><ele>936.0</ele><time>2015-11-22T05:28:48.0000000+00:00</time></trkpt><trkpt lat="31.17683376" lon="35.70342776"><ele>938.4</ele><time>2015-11-22T05:29:07.0000000+00:00</time></trkpt><trkpt lat="31.1764259" lon="35.70344553"><ele>940.3</ele><time>2015-11-22T05:29:25.0000000+00:00</time></trkpt><trkpt lat="31.17607956" lon="35.70344754"><ele>942.7</ele><time>2015-11-22T05:29:40.0000000+00:00</time></trkpt><trkpt lat="31.17578502" lon="35.70344595"><ele>944.6</ele><time>2015-11-22T05:29:55.0000000+00:00</time></trkpt><trkpt lat="31.17547673" lon="35.70344419"><ele>946.1</ele><time>2015-11-22T05:30:12.0000000+00:00</time></trkpt><trkpt lat="31.17521002" lon="35.70345685"><ele>947.5</ele><time>2015-11-22T05:30:27.0000000+00:00</time></trkpt><trkpt lat="31.17490869" lon="35.70345618"><ele>948.5</ele><time>2015-11-22T05:30:44.0000000+00:00</time></trkpt><trkpt lat="31.17458347" lon="35.70346456"><ele>950.4</ele><time>2015-11-22T05:31:02.0000000+00:00</time></trkpt><trkpt lat="31.17439681" lon="35.7034716"><ele>951.4</ele><time>2015-11-22T05:31:16.0000000+00:00</time></trkpt><trkpt lat="31.1743818" lon="35.70348895"><ele>951.4</ele><time>2015-11-22T05:31:30.0000000+00:00</time></trkpt><trkpt lat="31.1743606" lon="35.70350211"><ele>951.4</ele><time>2015-11-22T05:31:32.0000000+00:00</time></trkpt><trkpt lat="31.17434752" lon="35.70350639"><ele>951.4</ele><time>2015-11-22T05:31:33.0000000+00:00</time></trkpt><trkpt lat="31.1743316" lon="35.70351259"><ele>951.4</ele><time>2015-11-22T05:31:34.0000000+00:00</time></trkpt><trkpt lat="31.17421106" lon="35.70353773"><ele>952.8</ele><time>2015-11-22T05:31:48.0000000+00:00</time></trkpt><trkpt lat="31.17419883" lon="35.70353799"><ele>952.3</ele><time>2015-11-22T05:32:10.0000000+00:00</time></trkpt><trkpt lat="31.17418852" lon="35.70354771"><ele>952.8</ele><time>2015-11-22T05:32:11.0000000+00:00</time></trkpt><trkpt lat="31.17417737" lon="35.70355676"><ele>952.8</ele><time>2015-11-22T05:32:12.0000000+00:00</time></trkpt><trkpt lat="31.17416429" lon="35.7035628"><ele>952.8</ele><time>2015-11-22T05:32:13.0000000+00:00</time></trkpt><trkpt lat="31.17414719" lon="35.70356975"><ele>952.8</ele><time>2015-11-22T05:32:14.0000000+00:00</time></trkpt><trkpt lat="31.1741306" lon="35.70357705"><ele>952.8</ele><time>2015-11-22T05:32:15.0000000+00:00</time></trkpt><trkpt lat="31.1738037" lon="35.70377192"><ele>954.7</ele><time>2015-11-22T05:32:34.0000000+00:00</time></trkpt><trkpt lat="31.17378711" lon="35.70378475"><ele>954.7</ele><time>2015-11-22T05:32:35.0000000+00:00</time></trkpt><trkpt lat="31.1737716" lon="35.70379741"><ele>954.7</ele><time>2015-11-22T05:32:36.0000000+00:00</time></trkpt><trkpt lat="31.17375433" lon="35.70380956"><ele>954.7</ele><time>2015-11-22T05:32:37.0000000+00:00</time></trkpt><trkpt lat="31.17373548" lon="35.70382004"><ele>955.2</ele><time>2015-11-22T05:32:38.0000000+00:00</time></trkpt><trkpt lat="31.17371645" lon="35.70382884"><ele>955.2</ele><time>2015-11-22T05:32:39.0000000+00:00</time></trkpt><trkpt lat="31.17369876" lon="35.70384066"><ele>955.2</ele><time>2015-11-22T05:32:40.0000000+00:00</time></trkpt><trkpt lat="31.17345502" lon="35.70402171"><ele>957.1</ele><time>2015-11-22T05:32:55.0000000+00:00</time></trkpt><trkpt lat="31.17320113" lon="35.70420108"><ele>959.1</ele><time>2015-11-22T05:33:11.0000000+00:00</time></trkpt><trkpt lat="31.17290592" lon="35.70440325"><ele>961.0</ele><time>2015-11-22T05:33:28.0000000+00:00</time></trkpt><trkpt lat="31.17261725" lon="35.70450643"><ele>962.4</ele><time>2015-11-22T05:33:44.0000000+00:00</time></trkpt><trkpt lat="31.1723989" lon="35.70443401"><ele>965.3</ele><time>2015-11-22T05:33:57.0000000+00:00</time></trkpt><trkpt lat="31.17214778" lon="35.70428297"><ele>968.2</ele><time>2015-11-22T05:34:15.0000000+00:00</time></trkpt><trkpt lat="31.17188458" lon="35.70413109"><ele>969.6</ele><time>2015-11-22T05:34:32.0000000+00:00</time></trkpt><trkpt lat="31.17156054" lon="35.70400578"><ele>970.6</ele><time>2015-11-22T05:34:47.0000000+00:00</time></trkpt><trkpt lat="31.17104623" lon="35.70389204"><ele>973.5</ele><time>2015-11-22T05:35:09.0000000+00:00</time></trkpt><trkpt lat="31.17051875" lon="35.70387326"><ele>974.9</ele><time>2015-11-22T05:35:30.0000000+00:00</time></trkpt><trkpt lat="31.16998248" lon="35.70388625"><ele>975.9</ele><time>2015-11-22T05:35:50.0000000+00:00</time></trkpt><trkpt lat="31.16949884" lon="35.70387946"><ele>978.3</ele><time>2015-11-22T05:36:09.0000000+00:00</time></trkpt><trkpt lat="31.16917622" lon="35.70382741"><ele>979.7</ele><time>2015-11-22T05:36:23.0000000+00:00</time></trkpt><trkpt lat="31.16898771" lon="35.70376388"><ele>980.7</ele><time>2015-11-22T05:36:32.0000000+00:00</time></trkpt><trkpt lat="31.16896776" lon="35.70376111"><ele>981.2</ele><time>2015-11-22T05:36:33.0000000+00:00</time></trkpt><trkpt lat="31.16866652" lon="35.703655"><ele>983.6</ele><time>2015-11-22T05:36:49.0000000+00:00</time></trkpt><trkpt lat="31.16840282" lon="35.70352835"><ele>986.5</ele><time>2015-11-22T05:37:06.0000000+00:00</time></trkpt><trkpt lat="31.16834105" lon="35.70349499"><ele>986.9</ele><time>2015-11-22T05:37:10.0000000+00:00</time></trkpt><trkpt lat="31.16806755" lon="35.70339658"><ele>988.9</ele><time>2015-11-22T05:37:27.0000000+00:00</time></trkpt><trkpt lat="31.16775767" lon="35.70328695"><ele>990.8</ele><time>2015-11-22T05:37:44.0000000+00:00</time></trkpt><trkpt lat="31.16736959" lon="35.7031696"><ele>992.7</ele><time>2015-11-22T05:38:01.0000000+00:00</time></trkpt><trkpt lat="31.16701009" lon="35.70307002"><ele>996.1</ele><time>2015-11-22T05:38:17.0000000+00:00</time></trkpt><trkpt lat="31.16674824" lon="35.70299358"><ele>998.0</ele><time>2015-11-22T05:38:30.0000000+00:00</time></trkpt><trkpt lat="31.16642268" lon="35.70290004"><ele>999.9</ele><time>2015-11-22T05:38:47.0000000+00:00</time></trkpt><trkpt lat="31.16612311" lon="35.70283122"><ele>1001.8</ele><time>2015-11-22T05:39:02.0000000+00:00</time></trkpt><trkpt lat="31.16575984" lon="35.70273869"><ele>1004.2</ele><time>2015-11-22T05:39:21.0000000+00:00</time></trkpt><trkpt lat="31.16551518" lon="35.70268228"><ele>1006.2</ele><time>2015-11-22T05:39:36.0000000+00:00</time></trkpt><trkpt lat="31.16521351" lon="35.70259846"><ele>1007.6</ele><time>2015-11-22T05:39:54.0000000+00:00</time></trkpt><trkpt lat="31.1648577" lon="35.70247306"><ele>1010.0</ele><time>2015-11-22T05:40:13.0000000+00:00</time></trkpt><trkpt lat="31.1645132" lon="35.7022957"><ele>1011.4</ele><time>2015-11-22T05:40:31.0000000+00:00</time></trkpt><trkpt lat="31.16421003" lon="35.70202983"><ele>1012.9</ele><time>2015-11-22T05:40:48.0000000+00:00</time></trkpt><trkpt lat="31.16392689" lon="35.70168307"><ele>1013.9</ele><time>2015-11-22T05:41:03.0000000+00:00</time></trkpt><trkpt lat="31.16348944" lon="35.7011955"><ele>1016.7</ele><time>2015-11-22T05:41:24.0000000+00:00</time></trkpt><trkpt lat="31.16318048" lon="35.70084304"><ele>1019.6</ele><time>2015-11-22T05:41:41.0000000+00:00</time></trkpt><trkpt lat="31.16284763" lon="35.70048085"><ele>1022.0</ele><time>2015-11-22T05:42:00.0000000+00:00</time></trkpt><trkpt lat="31.16251848" lon="35.70013653"><ele>1025.4</ele><time>2015-11-22T05:42:19.0000000+00:00</time></trkpt><trkpt lat="31.16210667" lon="35.69984467"><ele>1027.8</ele><time>2015-11-22T05:42:39.0000000+00:00</time></trkpt><trkpt lat="31.16172882" lon="35.69969656"><ele>1029.7</ele><time>2015-11-22T05:42:55.0000000+00:00</time></trkpt><trkpt lat="31.16129145" lon="35.69954451"><ele>1031.6</ele><time>2015-11-22T05:43:13.0000000+00:00</time></trkpt><trkpt lat="31.1608799" lon="35.69945307"><ele>1034.0</ele><time>2015-11-22T05:43:30.0000000+00:00</time></trkpt><trkpt lat="31.16058561" lon="35.69938584"><ele>1036.4</ele><time>2015-11-22T05:43:43.0000000+00:00</time></trkpt><trkpt lat="31.16021262" lon="35.69929901"><ele>1038.4</ele><time>2015-11-22T05:44:01.0000000+00:00</time></trkpt><trkpt lat="31.15982319" lon="35.69921033"><ele>1041.3</ele><time>2015-11-22T05:44:21.0000000+00:00</time></trkpt><trkpt lat="31.15949688" lon="35.69912642"><ele>1042.7</ele><time>2015-11-22T05:44:38.0000000+00:00</time></trkpt><trkpt lat="31.15921995" lon="35.69905492"><ele>1044.1</ele><time>2015-11-22T05:44:53.0000000+00:00</time></trkpt><trkpt lat="31.15889515" lon="35.6989789"><ele>1046.5</ele><time>2015-11-22T05:45:10.0000000+00:00</time></trkpt><trkpt lat="31.15861461" lon="35.69890816"><ele>1048.5</ele><time>2015-11-22T05:45:25.0000000+00:00</time></trkpt><trkpt lat="31.15828939" lon="35.69881872"><ele>1050.9</ele><time>2015-11-22T05:45:42.0000000+00:00</time></trkpt><trkpt lat="31.15799091" lon="35.69870934"><ele>1052.8</ele><time>2015-11-22T05:45:58.0000000+00:00</time></trkpt><trkpt lat="31.1576247" lon="35.69853617"><ele>1054.7</ele><time>2015-11-22T05:46:18.0000000+00:00</time></trkpt><trkpt lat="31.15724081" lon="35.69836007"><ele>1057.1</ele><time>2015-11-22T05:46:36.0000000+00:00</time></trkpt><trkpt lat="31.15691442" lon="35.69821816"><ele>1059.0</ele><time>2015-11-22T05:46:52.0000000+00:00</time></trkpt><trkpt lat="31.15657001" lon="35.69807047"><ele>1062.4</ele><time>2015-11-22T05:47:09.0000000+00:00</time></trkpt><trkpt lat="31.15621973" lon="35.69799528"><ele>1062.9</ele><time>2015-11-22T05:47:25.0000000+00:00</time></trkpt><trkpt lat="31.15591127" lon="35.6980615"><ele>1064.8</ele><time>2015-11-22T05:47:40.0000000+00:00</time></trkpt><trkpt lat="31.15554783" lon="35.69821958"><ele>1067.2</ele><time>2015-11-22T05:47:58.0000000+00:00</time></trkpt><trkpt lat="31.15525388" lon="35.6983464"><ele>1070.1</ele><time>2015-11-22T05:48:16.0000000+00:00</time></trkpt><trkpt lat="31.15491207" lon="35.69848982"><ele>1073.0</ele><time>2015-11-22T05:48:38.0000000+00:00</time></trkpt><trkpt lat="31.15488055" lon="35.69850734"><ele>1073.0</ele><time>2015-11-22T05:48:40.0000000+00:00</time></trkpt><trkpt lat="31.15486446" lon="35.69851647"><ele>1073.0</ele><time>2015-11-22T05:48:41.0000000+00:00</time></trkpt><trkpt lat="31.15459247" lon="35.69864044"><ele>1074.9</ele><time>2015-11-22T05:48:58.0000000+00:00</time></trkpt><trkpt lat="31.1543276" lon="35.69875418"><ele>1076.3</ele><time>2015-11-22T05:49:15.0000000+00:00</time></trkpt><trkpt lat="31.15409173" lon="35.69886139"><ele>1078.3</ele><time>2015-11-22T05:49:30.0000000+00:00</time></trkpt><trkpt lat="31.15376098" lon="35.69901578"><ele>1081.1</ele><time>2015-11-22T05:49:51.0000000+00:00</time></trkpt><trkpt lat="31.15352939" lon="35.69912198"><ele>1082.6</ele><time>2015-11-22T05:50:06.0000000+00:00</time></trkpt><trkpt lat="31.15351288" lon="35.69912508"><ele>1082.6</ele><time>2015-11-22T05:50:07.0000000+00:00</time></trkpt><trkpt lat="31.15334138" lon="35.69921016"><ele>1084.0</ele><time>2015-11-22T05:50:18.0000000+00:00</time></trkpt><trkpt lat="31.15332487" lon="35.69921611"><ele>1084.5</ele><time>2015-11-22T05:50:19.0000000+00:00</time></trkpt><trkpt lat="31.15312479" lon="35.699298"><ele>1086.0</ele><time>2015-11-22T05:50:31.0000000+00:00</time></trkpt><trkpt lat="31.15310962" lon="35.69930814"><ele>1086.0</ele><time>2015-11-22T05:50:32.0000000+00:00</time></trkpt><trkpt lat="31.15309437" lon="35.69931678"><ele>1086.0</ele><time>2015-11-22T05:50:33.0000000+00:00</time></trkpt><trkpt lat="31.15282221" lon="35.69943513"><ele>1088.4</ele><time>2015-11-22T05:50:50.0000000+00:00</time></trkpt><trkpt lat="31.15253219" lon="35.69957527"><ele>1091.7</ele><time>2015-11-22T05:51:08.0000000+00:00</time></trkpt><trkpt lat="31.1522338" lon="35.69970075"><ele>1093.6</ele><time>2015-11-22T05:51:27.0000000+00:00</time></trkpt><trkpt lat="31.15196809" lon="35.69982883"><ele>1096.0</ele><time>2015-11-22T05:51:44.0000000+00:00</time></trkpt><trkpt lat="31.15173021" lon="35.69993226"><ele>1098.0</ele><time>2015-11-22T05:51:59.0000000+00:00</time></trkpt><trkpt lat="31.15157238" lon="35.70001742"><ele>1099.4</ele><time>2015-11-22T05:52:10.0000000+00:00</time></trkpt><trkpt lat="31.15155897" lon="35.70002664"><ele>1099.9</ele><time>2015-11-22T05:52:11.0000000+00:00</time></trkpt><trkpt lat="31.15127902" lon="35.7001579"><ele>1102.3</ele><time>2015-11-22T05:52:29.0000000+00:00</time></trkpt><trkpt lat="31.15091935" lon="35.70033836"><ele>1105.2</ele><time>2015-11-22T05:52:51.0000000+00:00</time></trkpt><trkpt lat="31.15064635" lon="35.70043551"><ele>1106.6</ele><time>2015-11-22T05:53:08.0000000+00:00</time></trkpt><trkpt lat="31.15032624" lon="35.70052302"><ele>1108.5</ele><time>2015-11-22T05:53:27.0000000+00:00</time></trkpt><trkpt lat="31.15000748" lon="35.70054355"><ele>1110.5</ele><time>2015-11-22T05:53:45.0000000+00:00</time></trkpt><trkpt lat="31.14966039" lon="35.70043132"><ele>1112.4</ele><time>2015-11-22T05:54:06.0000000+00:00</time></trkpt><trkpt lat="31.14963264" lon="35.70039586"><ele>1112.4</ele><time>2015-11-22T05:54:18.0000000+00:00</time></trkpt><trkpt lat="31.14959526" lon="35.70035907"><ele>1112.4</ele><time>2015-11-22T05:54:36.0000000+00:00</time></trkpt><trkpt lat="31.14958461" lon="35.7003573"><ele>1112.4</ele><time>2015-11-22T05:54:37.0000000+00:00</time></trkpt><trkpt lat="31.14957078" lon="35.70035169"><ele>1112.9</ele><time>2015-11-22T05:54:38.0000000+00:00</time></trkpt><trkpt lat="31.14955897" lon="35.70034138"><ele>1112.9</ele><time>2015-11-22T05:54:39.0000000+00:00</time></trkpt><trkpt lat="31.14954933" lon="35.7003278"><ele>1112.9</ele><time>2015-11-22T05:54:40.0000000+00:00</time></trkpt><trkpt lat="31.14953994" lon="35.70031372"><ele>1113.3</ele><time>2015-11-22T05:54:41.0000000+00:00</time></trkpt><trkpt lat="31.14952996" lon="35.70030324"><ele>1113.8</ele><time>2015-11-22T05:54:42.0000000+00:00</time></trkpt><trkpt lat="31.14940725" lon="35.70022278"><ele>1114.8</ele><time>2015-11-22T05:54:52.0000000+00:00</time></trkpt><trkpt lat="31.14939418" lon="35.700219"><ele>1114.8</ele><time>2015-11-22T05:54:53.0000000+00:00</time></trkpt><trkpt lat="31.14938244" lon="35.70021506"><ele>1114.3</ele><time>2015-11-22T05:54:54.0000000+00:00</time></trkpt><trkpt lat="31.1493702" lon="35.70020903"><ele>1114.8</ele><time>2015-11-22T05:54:55.0000000+00:00</time></trkpt><trkpt lat="31.14935755" lon="35.70020249"><ele>1114.8</ele><time>2015-11-22T05:54:56.0000000+00:00</time></trkpt><trkpt lat="31.14934271" lon="35.70019755"><ele>1114.8</ele><time>2015-11-22T05:54:57.0000000+00:00</time></trkpt><trkpt lat="31.14932628" lon="35.70019394"><ele>1114.3</ele><time>2015-11-22T05:54:58.0000000+00:00</time></trkpt><trkpt lat="31.14930759" lon="35.70018967"><ele>1114.3</ele><time>2015-11-22T05:54:59.0000000+00:00</time></trkpt><trkpt lat="31.14928613" lon="35.70018338"><ele>1114.3</ele><time>2015-11-22T05:55:00.0000000+00:00</time></trkpt><trkpt lat="31.14919888" lon="35.70015379"><ele>1113.8</ele><time>2015-11-22T05:55:11.0000000+00:00</time></trkpt><trkpt lat="31.14923006" lon="35.7001123"><ele>1113.8</ele><time>2015-11-22T05:55:25.0000000+00:00</time></trkpt><trkpt lat="31.14925311" lon="35.70009545"><ele>1114.3</ele><time>2015-11-22T05:55:42.0000000+00:00</time></trkpt><trkpt lat="31.14927876" lon="35.70007232"><ele>1114.3</ele><time>2015-11-22T05:56:06.0000000+00:00</time></trkpt><trkpt lat="31.14925663" lon="35.70005815"><ele>1114.3</ele><time>2015-11-22T05:56:32.0000000+00:00</time></trkpt><trkpt lat="31.14924883" lon="35.70006436"><ele>1114.3</ele><time>2015-11-22T05:57:02.0000000+00:00</time></trkpt><trkpt lat="31.14923065" lon="35.7000973"><ele>1114.3</ele><time>2015-11-22T05:57:28.0000000+00:00</time></trkpt><trkpt lat="31.1492433" lon="35.7000926"><ele>1114.3</ele><time>2015-11-22T05:57:57.0000000+00:00</time></trkpt><trkpt lat="31.14926325" lon="35.70005522"><ele>1113.8</ele><time>2015-11-22T05:58:26.0000000+00:00</time></trkpt><trkpt lat="31.14927951" lon="35.70005681"><ele>1113.8</ele><time>2015-11-22T05:58:52.0000000+00:00</time></trkpt><trkpt lat="31.14928035" lon="35.70001876"><ele>1113.3</ele><time>2015-11-22T05:59:19.0000000+00:00</time></trkpt><trkpt lat="31.14929753" lon="35.70012043"><ele>1112.9</ele><time>2015-11-22T05:59:34.0000000+00:00</time></trkpt><trkpt lat="31.14929577" lon="35.70022722"><ele>1112.9</ele><time>2015-11-22T05:59:50.0000000+00:00</time></trkpt><trkpt lat="31.14927934" lon="35.70025471"><ele>1112.4</ele><time>2015-11-22T06:00:25.0000000+00:00</time></trkpt><trkpt lat="31.14930189" lon="35.70024968"><ele>1112.4</ele><time>2015-11-22T06:01:04.0000000+00:00</time></trkpt><trkpt lat="31.14928161" lon="35.70027055"><ele>1112.9</ele><time>2015-11-22T06:01:45.0000000+00:00</time></trkpt><trkpt lat="31.14926996" lon="35.70026259"><ele>1112.9</ele><time>2015-11-22T06:02:25.0000000+00:00</time></trkpt><trkpt lat="31.14927188" lon="35.70027022"><ele>1113.3</ele><time>2015-11-22T06:03:03.0000000+00:00</time></trkpt><trkpt lat="31.14926878" lon="35.70027734"><ele>1112.9</ele><time>2015-11-22T06:03:37.0000000+00:00</time></trkpt><trkpt lat="31.14927608" lon="35.70025681"><ele>1113.3</ele><time>2015-11-22T06:04:17.0000000+00:00</time></trkpt><trkpt lat="31.14926744" lon="35.70025865"><ele>1113.3</ele><time>2015-11-22T06:05:01.0000000+00:00</time></trkpt><trkpt lat="31.14927683" lon="35.70025572"><ele>1113.8</ele><time>2015-11-22T06:05:37.0000000+00:00</time></trkpt><trkpt lat="31.1492687" lon="35.70023283"><ele>1113.8</ele><time>2015-11-22T06:06:18.0000000+00:00</time></trkpt><trkpt lat="31.14926878" lon="35.70023828"><ele>1113.8</ele><time>2015-11-22T06:06:59.0000000+00:00</time></trkpt><trkpt lat="31.14927708" lon="35.70024901"><ele>1113.8</ele><time>2015-11-22T06:07:37.0000000+00:00</time></trkpt><trkpt lat="31.14927566" lon="35.70023543"><ele>1113.8</ele><time>2015-11-22T06:08:05.0000000+00:00</time></trkpt><trkpt lat="31.14928102" lon="35.70024021"><ele>1113.3</ele><time>2015-11-22T06:08:34.0000000+00:00</time></trkpt><trkpt lat="31.14927524" lon="35.70026854"><ele>1113.3</ele><time>2015-11-22T06:09:01.0000000+00:00</time></trkpt><trkpt lat="31.14927138" lon="35.70025111"><ele>1113.3</ele><time>2015-11-22T06:09:37.0000000+00:00</time></trkpt><trkpt lat="31.14928404" lon="35.70023996"><ele>1113.3</ele><time>2015-11-22T06:10:13.0000000+00:00</time></trkpt><trkpt lat="31.14928974" lon="35.70020459"><ele>1113.3</ele><time>2015-11-22T06:10:43.0000000+00:00</time></trkpt><trkpt lat="31.14928328" lon="35.70022127"><ele>1113.3</ele><time>2015-11-22T06:11:17.0000000+00:00</time></trkpt><trkpt lat="31.14927599" lon="35.70025094"><ele>1113.3</ele><time>2015-11-22T06:11:48.0000000+00:00</time></trkpt><trkpt lat="31.14927608" lon="35.70024935"><ele>1113.3</ele><time>2015-11-22T06:12:24.0000000+00:00</time></trkpt><trkpt lat="31.14927038" lon="35.70022571"><ele>1113.3</ele><time>2015-11-22T06:12:55.0000000+00:00</time></trkpt><trkpt lat="31.14927004" lon="35.70020291"><ele>1113.3</ele><time>2015-11-22T06:13:26.0000000+00:00</time></trkpt><trkpt lat="31.14925495" lon="35.7002444"><ele>1113.8</ele><time>2015-11-22T06:14:01.0000000+00:00</time></trkpt><trkpt lat="31.14924842" lon="35.70025907"><ele>1113.8</ele><time>2015-11-22T06:14:32.0000000+00:00</time></trkpt><trkpt lat="31.14926275" lon="35.700204"><ele>1113.3</ele><time>2015-11-22T06:15:14.0000000+00:00</time></trkpt><trkpt lat="31.14925956" lon="35.70021431"><ele>1113.8</ele><time>2015-11-22T06:15:33.0000000+00:00</time></trkpt><trkpt lat="31.149263" lon="35.70023359"><ele>1113.8</ele><time>2015-11-22T06:16:02.0000000+00:00</time></trkpt><trkpt lat="31.14923517" lon="35.70027173"><ele>1113.8</ele><time>2015-11-22T06:16:33.0000000+00:00</time></trkpt><trkpt lat="31.14922243" lon="35.7002755"><ele>1113.8</ele><time>2015-11-22T06:16:34.0000000+00:00</time></trkpt><trkpt lat="31.14921355" lon="35.70027432"><ele>1113.8</ele><time>2015-11-22T06:16:35.0000000+00:00</time></trkpt><trkpt lat="31.1492081" lon="35.70026837"><ele>1114.3</ele><time>2015-11-22T06:16:36.0000000+00:00</time></trkpt><trkpt lat="31.14920106" lon="35.70026284"><ele>1114.3</ele><time>2015-11-22T06:16:37.0000000+00:00</time></trkpt><trkpt lat="31.14919008" lon="35.70025605"><ele>1114.3</ele><time>2015-11-22T06:16:38.0000000+00:00</time></trkpt><trkpt lat="31.14884608" lon="35.70008816"><ele>1115.3</ele><time>2015-11-22T06:16:56.0000000+00:00</time></trkpt><trkpt lat="31.14844526" lon="35.69991793"><ele>1116.7</ele><time>2015-11-22T06:17:14.0000000+00:00</time></trkpt><trkpt lat="31.14779726" lon="35.69963629"><ele>1118.6</ele><time>2015-11-22T06:17:35.0000000+00:00</time></trkpt><trkpt lat="31.14727045" lon="35.6994482"><ele>1120.1</ele><time>2015-11-22T06:17:51.0000000+00:00</time></trkpt><trkpt lat="31.14665246" lon="35.69939758"><ele>1121.0</ele><time>2015-11-22T06:18:08.0000000+00:00</time></trkpt><trkpt lat="31.14607033" lon="35.69938224"><ele>1122.5</ele><time>2015-11-22T06:18:25.0000000+00:00</time></trkpt><trkpt lat="31.14576515" lon="35.69937469"><ele>1123.9</ele><time>2015-11-22T06:18:38.0000000+00:00</time></trkpt><trkpt lat="31.14541587" lon="35.699356"><ele>1126.3</ele><time>2015-11-22T06:18:55.0000000+00:00</time></trkpt><trkpt lat="31.14508647" lon="35.69934385"><ele>1127.8</ele><time>2015-11-22T06:19:10.0000000+00:00</time></trkpt><trkpt lat="31.14460233" lon="35.69932474"><ele>1130.7</ele><time>2015-11-22T06:19:32.0000000+00:00</time></trkpt><trkpt lat="31.144216" lon="35.69931904"><ele>1133.5</ele><time>2015-11-22T06:19:49.0000000+00:00</time></trkpt><trkpt lat="31.14378911" lon="35.69931074"><ele>1135.9</ele><time>2015-11-22T06:20:07.0000000+00:00</time></trkpt><trkpt lat="31.14325259" lon="35.69930018"><ele>1137.4</ele><time>2015-11-22T06:20:26.0000000+00:00</time></trkpt><trkpt lat="31.14246528" lon="35.69927386"><ele>1139.8</ele><time>2015-11-22T06:20:49.0000000+00:00</time></trkpt><trkpt lat="31.14177578" lon="35.69917034"><ele>1141.2</ele><time>2015-11-22T06:21:09.0000000+00:00</time></trkpt><trkpt lat="31.14108352" lon="35.69897085"><ele>1142.2</ele><time>2015-11-22T06:21:28.0000000+00:00</time></trkpt><trkpt lat="31.14090792" lon="35.69886792"><ele>1142.7</ele><time>2015-11-22T06:21:36.0000000+00:00</time></trkpt><trkpt lat="31.14090499" lon="35.69884663"><ele>1142.7</ele><time>2015-11-22T06:21:37.0000000+00:00</time></trkpt><trkpt lat="31.14088546" lon="35.69868771"><ele>1143.1</ele><time>2015-11-22T06:21:46.0000000+00:00</time></trkpt><trkpt lat="31.14086844" lon="35.69861664"><ele>1143.1</ele><time>2015-11-22T06:21:59.0000000+00:00</time></trkpt><trkpt lat="31.14085394" lon="35.69860633"><ele>1143.1</ele><time>2015-11-22T06:22:14.0000000+00:00</time></trkpt><trkpt lat="31.14078831" lon="35.69862418"><ele>1143.1</ele><time>2015-11-22T06:22:19.0000000+00:00</time></trkpt><trkpt lat="31.14070214" lon="35.69869023"><ele>1142.7</ele><time>2015-11-22T06:22:25.0000000+00:00</time></trkpt><trkpt lat="31.14067976" lon="35.69869752"><ele>1142.7</ele><time>2015-11-22T06:22:26.0000000+00:00</time></trkpt><trkpt lat="31.14037843" lon="35.69872845"><ele>1142.7</ele><time>2015-11-22T06:22:38.0000000+00:00</time></trkpt><trkpt lat="31.1399321" lon="35.69859518"><ele>1142.2</ele><time>2015-11-22T06:22:54.0000000+00:00</time></trkpt><trkpt lat="31.13921209" lon="35.69836493"><ele>1141.2</ele><time>2015-11-22T06:23:10.0000000+00:00</time></trkpt><trkpt lat="31.13821339" lon="35.69803812"><ele>1139.3</ele><time>2015-11-22T06:23:31.0000000+00:00</time></trkpt><trkpt lat="31.13728358" lon="35.69772254"><ele>1136.9</ele><time>2015-11-22T06:23:48.0000000+00:00</time></trkpt><trkpt lat="31.13637742" lon="35.69762346"><ele>1134.0</ele><time>2015-11-22T06:24:02.0000000+00:00</time></trkpt><trkpt lat="31.13549849" lon="35.6979496"><ele>1135.9</ele><time>2015-11-22T06:24:15.0000000+00:00</time></trkpt><trkpt lat="31.13502273" lon="35.6981568"><ele>1138.3</ele><time>2015-11-22T06:24:28.0000000+00:00</time></trkpt><trkpt lat="31.13468897" lon="35.69829963"><ele>1140.7</ele><time>2015-11-22T06:24:44.0000000+00:00</time></trkpt><trkpt lat="31.13440415" lon="35.69842067"><ele>1142.7</ele><time>2015-11-22T06:24:59.0000000+00:00</time></trkpt><trkpt lat="31.13406225" lon="35.69857682"><ele>1145.1</ele><time>2015-11-22T06:25:17.0000000+00:00</time></trkpt><trkpt lat="31.13368968" lon="35.69871755"><ele>1147.0</ele><time>2015-11-22T06:25:34.0000000+00:00</time></trkpt><trkpt lat="31.13331601" lon="35.698823"><ele>1146.5</ele><time>2015-11-22T06:25:46.0000000+00:00</time></trkpt><trkpt lat="31.13269692" lon="35.69877237"><ele>1143.1</ele><time>2015-11-22T06:25:57.0000000+00:00</time></trkpt><trkpt lat="31.13213039" lon="35.69861798"><ele>1139.8</ele><time>2015-11-22T06:26:04.0000000+00:00</time></trkpt><trkpt lat="31.13126622" lon="35.69870104"><ele>1136.9</ele><time>2015-11-22T06:26:14.0000000+00:00</time></trkpt><trkpt lat="31.13003567" lon="35.69930823"><ele>1135.0</ele><time>2015-11-22T06:26:29.0000000+00:00</time></trkpt><trkpt lat="31.12862952" lon="35.70004634"><ele>1134.5</ele><time>2015-11-22T06:26:51.0000000+00:00</time></trkpt><trkpt lat="31.12745874" lon="35.70064296"><ele>1135.9</ele><time>2015-11-22T06:27:09.0000000+00:00</time></trkpt><trkpt lat="31.12679472" lon="35.70101361"><ele>1139.3</ele><time>2015-11-22T06:27:24.0000000+00:00</time></trkpt><trkpt lat="31.12631846" lon="35.70126146"><ele>1141.2</ele><time>2015-11-22T06:27:39.0000000+00:00</time></trkpt><trkpt lat="31.12579736" lon="35.70154041"><ele>1141.7</ele><time>2015-11-22T06:27:54.0000000+00:00</time></trkpt><trkpt lat="31.12509236" lon="35.70189312"><ele>1142.2</ele><time>2015-11-22T06:28:13.0000000+00:00</time></trkpt><trkpt lat="31.12443488" lon="35.70214885"><ele>1140.3</ele><time>2015-11-22T06:28:26.0000000+00:00</time></trkpt><trkpt lat="31.12354497" lon="35.70212103"><ele>1138.8</ele><time>2015-11-22T06:28:39.0000000+00:00</time></trkpt><trkpt lat="31.12227377" lon="35.70191131"><ele>1138.8</ele><time>2015-11-22T06:28:58.0000000+00:00</time></trkpt><trkpt lat="31.12126778" lon="35.70171442"><ele>1140.3</ele><time>2015-11-22T06:29:15.0000000+00:00</time></trkpt><trkpt lat="31.12056269" lon="35.70160302"><ele>1143.1</ele><time>2015-11-22T06:29:30.0000000+00:00</time></trkpt><trkpt lat="31.12006799" lon="35.70152826"><ele>1145.6</ele><time>2015-11-22T06:29:45.0000000+00:00</time></trkpt><trkpt lat="31.11962459" lon="35.7014462"><ele>1148.0</ele><time>2015-11-22T06:30:01.0000000+00:00</time></trkpt><trkpt lat="31.11915118" lon="35.70133656"><ele>1150.4</ele><time>2015-11-22T06:30:18.0000000+00:00</time></trkpt><trkpt lat="31.11867651" lon="35.70123087"><ele>1153.7</ele><time>2015-11-22T06:30:31.0000000+00:00</time></trkpt><trkpt lat="31.11817461" lon="35.70110958"><ele>1154.2</ele><time>2015-11-22T06:30:47.0000000+00:00</time></trkpt><trkpt lat="31.11766767" lon="35.70097111"><ele>1153.7</ele><time>2015-11-22T06:31:02.0000000+00:00</time></trkpt><trkpt lat="31.11709904" lon="35.70081487"><ele>1153.7</ele><time>2015-11-22T06:31:18.0000000+00:00</time></trkpt><trkpt lat="31.116373" lon="35.70060507"><ele>1152.8</ele><time>2015-11-22T06:31:35.0000000+00:00</time></trkpt><trkpt lat="31.11541537" lon="35.70041866"><ele>1152.3</ele><time>2015-11-22T06:31:52.0000000+00:00</time></trkpt><trkpt lat="31.11444273" lon="35.70024792"><ele>1150.4</ele><time>2015-11-22T06:32:07.0000000+00:00</time></trkpt><trkpt lat="31.11335292" lon="35.70002597"><ele>1151.8</ele><time>2015-11-22T06:32:25.0000000+00:00</time></trkpt><trkpt lat="31.11216579" lon="35.69982028"><ele>1151.3</ele><time>2015-11-22T06:32:45.0000000+00:00</time></trkpt><trkpt lat="31.11089216" lon="35.69960872"><ele>1151.3</ele><time>2015-11-22T06:33:06.0000000+00:00</time></trkpt><trkpt lat="31.10987577" lon="35.69943328"><ele>1150.4</ele><time>2015-11-22T06:33:23.0000000+00:00</time></trkpt><trkpt lat="31.10874061" lon="35.69925869"><ele>1149.4</ele><time>2015-11-22T06:33:40.0000000+00:00</time></trkpt><trkpt lat="31.10754685" lon="35.69901863"><ele>1149.4</ele><time>2015-11-22T06:33:59.0000000+00:00</time></trkpt><trkpt lat="31.1064412" lon="35.69869459"><ele>1148.9</ele><time>2015-11-22T06:34:17.0000000+00:00</time></trkpt><trkpt lat="31.10526304" lon="35.69830818"><ele>1147.0</ele><time>2015-11-22T06:34:36.0000000+00:00</time></trkpt><trkpt lat="31.10415897" lon="35.69797131"><ele>1146.5</ele><time>2015-11-22T06:34:55.0000000+00:00</time></trkpt><trkpt lat="31.10325431" lon="35.69767686"><ele>1148.4</ele><time>2015-11-22T06:35:12.0000000+00:00</time></trkpt><trkpt lat="31.10249458" lon="35.69746605"><ele>1148.4</ele><time>2015-11-22T06:35:28.0000000+00:00</time></trkpt><trkpt lat="31.10155924" lon="35.69714083"><ele>1148.4</ele><time>2015-11-22T06:35:46.0000000+00:00</time></trkpt><trkpt lat="31.10085038" lon="35.69691293"><ele>1148.9</ele><time>2015-11-22T06:36:02.0000000+00:00</time></trkpt><trkpt lat="31.10045509" lon="35.69671939"><ele>1149.9</ele><time>2015-11-22T06:36:15.0000000+00:00</time></trkpt><trkpt lat="31.09999585" lon="35.69659132"><ele>1151.8</ele><time>2015-11-22T06:36:29.0000000+00:00</time></trkpt><trkpt lat="31.0999557" lon="35.69658671"><ele>1151.8</ele><time>2015-11-22T06:36:37.0000000+00:00</time></trkpt><trkpt lat="31.09979142" lon="35.69652728"><ele>1152.3</ele><time>2015-11-22T06:36:49.0000000+00:00</time></trkpt><trkpt lat="31.09941029" lon="35.69645335"><ele>1153.7</ele><time>2015-11-22T06:37:02.0000000+00:00</time></trkpt><trkpt lat="31.09888508" lon="35.69638026"><ele>1155.6</ele><time>2015-11-22T06:37:17.0000000+00:00</time></trkpt><trkpt lat="31.09831746" lon="35.69632955"><ele>1157.1</ele><time>2015-11-22T06:37:32.0000000+00:00</time></trkpt><trkpt lat="31.09791613" lon="35.69627984"><ele>1158.1</ele><time>2015-11-22T06:37:42.0000000+00:00</time></trkpt><trkpt lat="31.09740618" lon="35.69619569"><ele>1159.0</ele><time>2015-11-22T06:37:54.0000000+00:00</time></trkpt><trkpt lat="31.097361" lon="35.69618764"><ele>1159.0</ele><time>2015-11-22T06:37:55.0000000+00:00</time></trkpt><trkpt lat="31.0965187" lon="35.69608899"><ele>1159.5</ele><time>2015-11-22T06:38:13.0000000+00:00</time></trkpt><trkpt lat="31.0964265" lon="35.69607809"><ele>1159.5</ele><time>2015-11-22T06:38:15.0000000+00:00</time></trkpt><trkpt lat="31.09628644" lon="35.69605672"><ele>1159.5</ele><time>2015-11-22T06:38:18.0000000+00:00</time></trkpt><trkpt lat="31.09610472" lon="35.6960423"><ele>1159.5</ele><time>2015-11-22T06:38:22.0000000+00:00</time></trkpt><trkpt lat="31.09606365" lon="35.6960423"><ele>1159.5</ele><time>2015-11-22T06:38:23.0000000+00:00</time></trkpt><trkpt lat="31.09529452" lon="35.69612076"><ele>1158.1</ele><time>2015-11-22T06:38:39.0000000+00:00</time></trkpt><trkpt lat="31.09487593" lon="35.69621237"><ele>1157.1</ele><time>2015-11-22T06:38:51.0000000+00:00</time></trkpt><trkpt lat="31.09482782" lon="35.69620189"><ele>1156.6</ele><time>2015-11-22T06:39:03.0000000+00:00</time></trkpt><trkpt lat="31.09481382" lon="35.69620214"><ele>1156.6</ele><time>2015-11-22T06:39:05.0000000+00:00</time></trkpt><trkpt lat="31.09479211" lon="35.69620105"><ele>1156.6</ele><time>2015-11-22T06:39:07.0000000+00:00</time></trkpt><trkpt lat="31.09478038" lon="35.69620265"><ele>1156.6</ele><time>2015-11-22T06:39:08.0000000+00:00</time></trkpt><trkpt lat="31.09476864" lon="35.69620944"><ele>1156.6</ele><time>2015-11-22T06:39:09.0000000+00:00</time></trkpt><trkpt lat="31.09475439" lon="35.69622075"><ele>1156.1</ele><time>2015-11-22T06:39:10.0000000+00:00</time></trkpt><trkpt lat="31.09473545" lon="35.69623014"><ele>1156.6</ele><time>2015-11-22T06:39:11.0000000+00:00</time></trkpt><trkpt lat="31.0947124" lon="35.69623802"><ele>1156.1</ele><time>2015-11-22T06:39:12.0000000+00:00</time></trkpt><trkpt lat="31.09468633" lon="35.69624464"><ele>1156.1</ele><time>2015-11-22T06:39:13.0000000+00:00</time></trkpt><trkpt lat="31.09415106" lon="35.69636735"><ele>1153.7</ele><time>2015-11-22T06:39:25.0000000+00:00</time></trkpt><trkpt lat="31.09353852" lon="35.69647472"><ele>1150.4</ele><time>2015-11-22T06:39:35.0000000+00:00</time></trkpt><trkpt lat="31.09304155" lon="35.69647498"><ele>1150.4</ele><time>2015-11-22T06:39:47.0000000+00:00</time></trkpt><trkpt lat="31.09274995" lon="35.69639795"><ele>1151.3</ele><time>2015-11-22T06:39:59.0000000+00:00</time></trkpt><trkpt lat="31.0926093" lon="35.69638747"><ele>1151.3</ele><time>2015-11-22T06:40:11.0000000+00:00</time></trkpt><trkpt lat="31.09257334" lon="35.69638638"><ele>1151.8</ele><time>2015-11-22T06:40:14.0000000+00:00</time></trkpt><trkpt lat="31.09238273" lon="35.69633919"><ele>1151.8</ele><time>2015-11-22T06:40:27.0000000+00:00</time></trkpt><trkpt lat="31.09208115" lon="35.69627917"><ele>1152.8</ele><time>2015-11-22T06:40:37.0000000+00:00</time></trkpt><trkpt lat="31.0916836" lon="35.6961599"><ele>1153.7</ele><time>2015-11-22T06:40:50.0000000+00:00</time></trkpt><trkpt lat="31.09120265" lon="35.69603249"><ele>1155.2</ele><time>2015-11-22T06:41:06.0000000+00:00</time></trkpt><trkpt lat="31.09065782" lon="35.69594507"><ele>1156.6</ele><time>2015-11-22T06:41:23.0000000+00:00</time></trkpt><trkpt lat="31.09042975" lon="35.69590006"><ele>1157.6</ele><time>2015-11-22T06:41:34.0000000+00:00</time></trkpt><trkpt lat="31.09010051" lon="35.69588883"><ele>1158.1</ele><time>2015-11-22T06:41:46.0000000+00:00</time></trkpt><trkpt lat="31.08964629" lon="35.69589159"><ele>1159.0</ele><time>2015-11-22T06:42:02.0000000+00:00</time></trkpt><trkpt lat="31.08926131" lon="35.69588137"><ele>1160.5</ele><time>2015-11-22T06:42:18.0000000+00:00</time></trkpt><trkpt lat="31.0888542" lon="35.69584239"><ele>1161.4</ele><time>2015-11-22T06:42:33.0000000+00:00</time></trkpt><trkpt lat="31.08835674" lon="35.69583678"><ele>1162.9</ele><time>2015-11-22T06:42:51.0000000+00:00</time></trkpt><trkpt lat="31.08783077" lon="35.69578975"><ele>1164.8</ele><time>2015-11-22T06:43:09.0000000+00:00</time></trkpt><trkpt lat="31.08726483" lon="35.69574642"><ele>1167.2</ele><time>2015-11-22T06:43:29.0000000+00:00</time></trkpt><trkpt lat="31.08680349" lon="35.69573594"><ele>1169.1</ele><time>2015-11-22T06:43:46.0000000+00:00</time></trkpt><trkpt lat="31.08642178" lon="35.69570853"><ele>1170.5</ele><time>2015-11-22T06:44:02.0000000+00:00</time></trkpt><trkpt lat="31.08600704" lon="35.69570409"><ele>1172.5</ele><time>2015-11-22T06:44:20.0000000+00:00</time></trkpt><trkpt lat="31.08559566" lon="35.69569378"><ele>1174.4</ele><time>2015-11-22T06:44:39.0000000+00:00</time></trkpt><trkpt lat="31.0855022" lon="35.69568456"><ele>1175.4</ele><time>2015-11-22T06:44:44.0000000+00:00</time></trkpt><trkpt lat="31.08546875" lon="35.69567283"><ele>1175.4</ele><time>2015-11-22T06:44:49.0000000+00:00</time></trkpt><trkpt lat="31.08545484" lon="35.69567048"><ele>1175.4</ele><time>2015-11-22T06:44:50.0000000+00:00</time></trkpt><trkpt lat="31.0854416" lon="35.69566587"><ele>1175.8</ele><time>2015-11-22T06:44:51.0000000+00:00</time></trkpt><trkpt lat="31.08542902" lon="35.69565732"><ele>1175.8</ele><time>2015-11-22T06:44:52.0000000+00:00</time></trkpt><trkpt lat="31.08541545" lon="35.6956445"><ele>1175.8</ele><time>2015-11-22T06:44:53.0000000+00:00</time></trkpt><trkpt lat="31.08538058" lon="35.69560116"><ele>1175.8</ele><time>2015-11-22T06:44:57.0000000+00:00</time></trkpt><trkpt lat="31.08536792" lon="35.69556864"><ele>1175.8</ele><time>2015-11-22T06:45:11.0000000+00:00</time></trkpt><trkpt lat="31.08536188" lon="35.69557677"><ele>1176.3</ele><time>2015-11-22T06:45:30.0000000+00:00</time></trkpt><trkpt lat="31.08535568" lon="35.69558482"><ele>1176.8</ele><time>2015-11-22T06:45:48.0000000+00:00</time></trkpt><trkpt lat="31.08536432" lon="35.69561482"><ele>1176.8</ele><time>2015-11-22T06:46:09.0000000+00:00</time></trkpt><trkpt lat="31.08535233" lon="35.69563067"><ele>1176.8</ele><time>2015-11-22T06:46:32.0000000+00:00</time></trkpt><trkpt lat="31.0853639" lon="35.69563536"><ele>1176.3</ele><time>2015-11-22T06:47:04.0000000+00:00</time></trkpt><trkpt lat="31.08535484" lon="35.69564257"><ele>1177.3</ele><time>2015-11-22T06:47:37.0000000+00:00</time></trkpt><trkpt lat="31.08537295" lon="35.69565095"><ele>1176.8</ele><time>2015-11-22T06:48:10.0000000+00:00</time></trkpt><trkpt lat="31.08537312" lon="35.69568297"><ele>1176.8</ele><time>2015-11-22T06:48:36.0000000+00:00</time></trkpt><trkpt lat="31.0853929" lon="35.69568163"><ele>1177.3</ele><time>2015-11-22T06:49:03.0000000+00:00</time></trkpt><trkpt lat="31.08540011" lon="35.69564584"><ele>1177.8</ele><time>2015-11-22T06:49:29.0000000+00:00</time></trkpt><trkpt lat="31.08538401" lon="35.69563963"><ele>1177.8</ele><time>2015-11-22T06:49:56.0000000+00:00</time></trkpt><trkpt lat="31.08537957" lon="35.69571063"><ele>1177.8</ele><time>2015-11-22T06:50:24.0000000+00:00</time></trkpt><trkpt lat="31.08539742" lon="35.69567752"><ele>1177.8</ele><time>2015-11-22T06:51:01.0000000+00:00</time></trkpt><trkpt lat="31.08539608" lon="35.69562329"><ele>1177.8</ele><time>2015-11-22T06:51:38.0000000+00:00</time></trkpt><trkpt lat="31.08537412" lon="35.69566444"><ele>1178.2</ele><time>2015-11-22T06:52:12.0000000+00:00</time></trkpt><trkpt lat="31.08534336" lon="35.6956186"><ele>1178.2</ele><time>2015-11-22T06:52:48.0000000+00:00</time></trkpt><trkpt lat="31.08538787" lon="35.69565305"><ele>1178.7</ele><time>2015-11-22T06:53:24.0000000+00:00</time></trkpt><trkpt lat="31.08537848" lon="35.69560636"><ele>1178.7</ele><time>2015-11-22T06:53:51.0000000+00:00</time></trkpt><trkpt lat="31.08536121" lon="35.6955901"><ele>1178.7</ele><time>2015-11-22T06:54:22.0000000+00:00</time></trkpt><trkpt lat="31.08533339" lon="35.695602"><ele>1178.7</ele><time>2015-11-22T06:54:50.0000000+00:00</time></trkpt><trkpt lat="31.08534512" lon="35.69558155"><ele>1178.7</ele><time>2015-11-22T06:55:18.0000000+00:00</time></trkpt><trkpt lat="31.0853499" lon="35.69561005"><ele>1178.7</ele><time>2015-11-22T06:55:52.0000000+00:00</time></trkpt><trkpt lat="31.08535409" lon="35.69557308"><ele>1178.7</ele><time>2015-11-22T06:56:24.0000000+00:00</time></trkpt><trkpt lat="31.08533707" lon="35.69557308"><ele>1178.2</ele><time>2015-11-22T06:56:50.0000000+00:00</time></trkpt><trkpt lat="31.08534386" lon="35.69560954"><ele>1178.2</ele><time>2015-11-22T06:57:15.0000000+00:00</time></trkpt><trkpt lat="31.08533741" lon="35.69558322"><ele>1178.2</ele><time>2015-11-22T06:57:45.0000000+00:00</time></trkpt><trkpt lat="31.08535359" lon="35.69558817"><ele>1178.7</ele><time>2015-11-22T06:58:27.0000000+00:00</time></trkpt><trkpt lat="31.08536867" lon="35.6955932"><ele>1178.2</ele><time>2015-11-22T06:58:56.0000000+00:00</time></trkpt><trkpt lat="31.08535551" lon="35.69560292"><ele>1178.2</ele><time>2015-11-22T06:59:30.0000000+00:00</time></trkpt><trkpt lat="31.08535283" lon="35.69560359"><ele>1178.2</ele><time>2015-11-22T06:59:58.0000000+00:00</time></trkpt><trkpt lat="31.08534437" lon="35.695617"><ele>1178.7</ele><time>2015-11-22T07:00:33.0000000+00:00</time></trkpt><trkpt lat="31.08532274" lon="35.69560988"><ele>1178.2</ele><time>2015-11-22T07:01:02.0000000+00:00</time></trkpt><trkpt lat="31.08534697" lon="35.69560946"><ele>1178.2</ele><time>2015-11-22T07:01:33.0000000+00:00</time></trkpt><trkpt lat="31.08533917" lon="35.69562262"><ele>1178.2</ele><time>2015-11-22T07:02:03.0000000+00:00</time></trkpt><trkpt lat="31.08534797" lon="35.69559915"><ele>1178.7</ele><time>2015-11-22T07:02:31.0000000+00:00</time></trkpt><trkpt lat="31.08534839" lon="35.69561281"><ele>1178.7</ele><time>2015-11-22T07:03:00.0000000+00:00</time></trkpt><trkpt lat="31.08533255" lon="35.69559311"><ele>1178.2</ele><time>2015-11-22T07:03:29.0000000+00:00</time></trkpt><trkpt lat="31.08533573" lon="35.69557451"><ele>1178.7</ele><time>2015-11-22T07:03:59.0000000+00:00</time></trkpt><trkpt lat="31.08535635" lon="35.69559705"><ele>1178.7</ele><time>2015-11-22T07:04:30.0000000+00:00</time></trkpt><trkpt lat="31.0853582" lon="35.69557576"><ele>1178.2</ele><time>2015-11-22T07:05:02.0000000+00:00</time></trkpt><trkpt lat="31.08533808" lon="35.69558993"><ele>1178.2</ele><time>2015-11-22T07:05:33.0000000+00:00</time></trkpt><trkpt lat="31.08533557" lon="35.69555984"><ele>1178.2</ele><time>2015-11-22T07:06:07.0000000+00:00</time></trkpt><trkpt lat="31.08535535" lon="35.69556084"><ele>1178.2</ele><time>2015-11-22T07:06:41.0000000+00:00</time></trkpt><trkpt lat="31.08535057" lon="35.69556856"><ele>1178.2</ele><time>2015-11-22T07:07:15.0000000+00:00</time></trkpt><trkpt lat="31.08534118" lon="35.69554978"><ele>1178.2</ele><time>2015-11-22T07:07:55.0000000+00:00</time></trkpt><trkpt lat="31.08533674" lon="35.69557769"><ele>1178.2</ele><time>2015-11-22T07:08:32.0000000+00:00</time></trkpt><trkpt lat="31.0853442" lon="35.69560904"><ele>1178.2</ele><time>2015-11-22T07:09:00.0000000+00:00</time></trkpt><trkpt lat="31.08534043" lon="35.69559345"><ele>1178.2</ele><time>2015-11-22T07:09:38.0000000+00:00</time></trkpt><trkpt lat="31.08537387" lon="35.69561306"><ele>1178.2</ele><time>2015-11-22T07:09:52.0000000+00:00</time></trkpt><trkpt lat="31.08537764" lon="35.69563494"><ele>1178.2</ele><time>2015-11-22T07:09:54.0000000+00:00</time></trkpt><trkpt lat="31.08537488" lon="35.6956476"><ele>1178.2</ele><time>2015-11-22T07:09:55.0000000+00:00</time></trkpt><trkpt lat="31.08535451" lon="35.69569102"><ele>1178.2</ele><time>2015-11-22T07:09:59.0000000+00:00</time></trkpt><trkpt lat="31.0853416" lon="35.69569713"><ele>1177.8</ele><time>2015-11-22T07:10:00.0000000+00:00</time></trkpt><trkpt lat="31.08532693" lon="35.69570166"><ele>1177.8</ele><time>2015-11-22T07:10:01.0000000+00:00</time></trkpt><trkpt lat="31.08531076" lon="35.6957025"><ele>1178.2</ele><time>2015-11-22T07:10:02.0000000+00:00</time></trkpt><trkpt lat="31.08529299" lon="35.69570032"><ele>1178.2</ele><time>2015-11-22T07:10:03.0000000+00:00</time></trkpt><trkpt lat="31.08527446" lon="35.69570158"><ele>1178.2</ele><time>2015-11-22T07:10:04.0000000+00:00</time></trkpt><trkpt lat="31.0850028" lon="35.69568314"><ele>1179.7</ele><time>2015-11-22T07:10:18.0000000+00:00</time></trkpt><trkpt lat="31.08476811" lon="35.69566436"><ele>1181.1</ele><time>2015-11-22T07:10:33.0000000+00:00</time></trkpt><trkpt lat="31.08447793" lon="35.695646"><ele>1182.6</ele><time>2015-11-22T07:10:49.0000000+00:00</time></trkpt><trkpt lat="31.08411809" lon="35.69562136"><ele>1184.5</ele><time>2015-11-22T07:11:05.0000000+00:00</time></trkpt><trkpt lat="31.08370981" lon="35.69560787"><ele>1186.9</ele><time>2015-11-22T07:11:22.0000000+00:00</time></trkpt><trkpt lat="31.0832825" lon="35.69559311"><ele>1188.8</ele><time>2015-11-22T07:11:40.0000000+00:00</time></trkpt><trkpt lat="31.08281974" lon="35.69555783"><ele>1190.7</ele><time>2015-11-22T07:11:59.0000000+00:00</time></trkpt><trkpt lat="31.08228371" lon="35.69552707"><ele>1193.1</ele><time>2015-11-22T07:12:19.0000000+00:00</time></trkpt><trkpt lat="31.08197032" lon="35.69550628"><ele>1194.6</ele><time>2015-11-22T07:12:31.0000000+00:00</time></trkpt><trkpt lat="31.0814244" lon="35.69547376"><ele>1197.5</ele><time>2015-11-22T07:12:52.0000000+00:00</time></trkpt><trkpt lat="31.08105577" lon="35.69545666"><ele>1199.4</ele><time>2015-11-22T07:13:07.0000000+00:00</time></trkpt><trkpt lat="31.08057456" lon="35.69542573"><ele>1201.8</ele><time>2015-11-22T07:13:27.0000000+00:00</time></trkpt><trkpt lat="31.08025035" lon="35.69541022"><ele>1203.7</ele><time>2015-11-22T07:13:41.0000000+00:00</time></trkpt><trkpt lat="31.07990015" lon="35.69539673"><ele>1205.6</ele><time>2015-11-22T07:13:56.0000000+00:00</time></trkpt><trkpt lat="31.07955909" lon="35.69539052"><ele>1208.0</ele><time>2015-11-22T07:14:12.0000000+00:00</time></trkpt><trkpt lat="31.07921476" lon="35.69535842"><ele>1210.9</ele><time>2015-11-22T07:14:29.0000000+00:00</time></trkpt><trkpt lat="31.0791773" lon="35.6953549"><ele>1211.4</ele><time>2015-11-22T07:14:31.0000000+00:00</time></trkpt><trkpt lat="31.07915928" lon="35.69535465"><ele>1211.4</ele><time>2015-11-22T07:14:32.0000000+00:00</time></trkpt><trkpt lat="31.07884931" lon="35.69533881"><ele>1214.3</ele><time>2015-11-22T07:14:49.0000000+00:00</time></trkpt><trkpt lat="31.0785396" lon="35.69531425"><ele>1217.2</ele><time>2015-11-22T07:15:06.0000000+00:00</time></trkpt><trkpt lat="31.07829007" lon="35.69530075"><ele>1219.6</ele><time>2015-11-22T07:15:20.0000000+00:00</time></trkpt><trkpt lat="31.0780164" lon="35.69528768"><ele>1222.0</ele><time>2015-11-22T07:15:35.0000000+00:00</time></trkpt><trkpt lat="31.0777595" lon="35.69527972"><ele>1223.9</ele><time>2015-11-22T07:15:50.0000000+00:00</time></trkpt><trkpt lat="31.07748658" lon="35.69525574"><ele>1226.8</ele><time>2015-11-22T07:16:07.0000000+00:00</time></trkpt><trkpt lat="31.07736337" lon="35.69524501"><ele>1227.7</ele><time>2015-11-22T07:16:15.0000000+00:00</time></trkpt><trkpt lat="31.07714972" lon="35.69522481"><ele>1230.1</ele><time>2015-11-22T07:16:29.0000000+00:00</time></trkpt><trkpt lat="31.07690932" lon="35.69519766"><ele>1232.6</ele><time>2015-11-22T07:16:45.0000000+00:00</time></trkpt><trkpt lat="31.07665267" lon="35.6951586"><ele>1235.0</ele><time>2015-11-22T07:17:03.0000000+00:00</time></trkpt><trkpt lat="31.07638805" lon="35.69507143"><ele>1238.3</ele><time>2015-11-22T07:17:20.0000000+00:00</time></trkpt><trkpt lat="31.07613022" lon="35.69496808"><ele>1241.2</ele><time>2015-11-22T07:17:38.0000000+00:00</time></trkpt><trkpt lat="31.07586552" lon="35.69486573"><ele>1243.6</ele><time>2015-11-22T07:17:56.0000000+00:00</time></trkpt><trkpt lat="31.0755709" lon="35.69472726"><ele>1245.5</ele><time>2015-11-22T07:18:17.0000000+00:00</time></trkpt><trkpt lat="31.07535121" lon="35.69464051"><ele>1246.5</ele><time>2015-11-22T07:18:30.0000000+00:00</time></trkpt><trkpt lat="31.07499758" lon="35.69454169"><ele>1247.0</ele><time>2015-11-22T07:18:44.0000000+00:00</time></trkpt><trkpt lat="31.07477537" lon="35.69449903"><ele>1247.0</ele><time>2015-11-22T07:18:57.0000000+00:00</time></trkpt><trkpt lat="31.0747488" lon="35.69448268"><ele>1247.0</ele><time>2015-11-22T07:19:19.0000000+00:00</time></trkpt><trkpt lat="31.07474905" lon="35.69448696"><ele>1247.0</ele><time>2015-11-22T07:19:42.0000000+00:00</time></trkpt><trkpt lat="31.07477169" lon="35.69448989"><ele>1247.0</ele><time>2015-11-22T07:20:07.0000000+00:00</time></trkpt><trkpt lat="31.07477261" lon="35.69448109"><ele>1247.0</ele><time>2015-11-22T07:20:25.0000000+00:00</time></trkpt><trkpt lat="31.07474922" lon="35.69447455"><ele>1247.0</ele><time>2015-11-22T07:20:55.0000000+00:00</time></trkpt><trkpt lat="31.07475216" lon="35.69446206"><ele>1247.0</ele><time>2015-11-22T07:21:16.0000000+00:00</time></trkpt><trkpt lat="31.07474931" lon="35.69446458"><ele>1247.5</ele><time>2015-11-22T07:21:36.0000000+00:00</time></trkpt><trkpt lat="31.07475098" lon="35.69447673"><ele>1247.0</ele><time>2015-11-22T07:21:59.0000000+00:00</time></trkpt><trkpt lat="31.07475098" lon="35.69449525"><ele>1247.5</ele><time>2015-11-22T07:22:26.0000000+00:00</time></trkpt><trkpt lat="31.07474696" lon="35.69450263"><ele>1247.5</ele><time>2015-11-22T07:22:56.0000000+00:00</time></trkpt><trkpt lat="31.07473263" lon="35.69449442"><ele>1247.5</ele><time>2015-11-22T07:23:07.0000000+00:00</time></trkpt><trkpt lat="31.0747219" lon="35.69448997"><ele>1247.5</ele><time>2015-11-22T07:23:08.0000000+00:00</time></trkpt><trkpt lat="31.07440573" lon="35.69442493"><ele>1247.9</ele><time>2015-11-22T07:23:21.0000000+00:00</time></trkpt><trkpt lat="31.07398169" lon="35.69435704"><ele>1247.9</ele><time>2015-11-22T07:23:36.0000000+00:00</time></trkpt><trkpt lat="31.07353443" lon="35.69439249"><ele>1247.9</ele><time>2015-11-22T07:23:50.0000000+00:00</time></trkpt><trkpt lat="31.07296932" lon="35.69448025"><ele>1247.9</ele><time>2015-11-22T07:24:07.0000000+00:00</time></trkpt><trkpt lat="31.07236449" lon="35.69456642"><ele>1247.9</ele><time>2015-11-22T07:24:22.0000000+00:00</time></trkpt><trkpt lat="31.07218159" lon="35.69459357"><ele>1247.5</ele><time>2015-11-22T07:24:26.0000000+00:00</time></trkpt><trkpt lat="31.07143636" lon="35.69471151"><ele>1247.5</ele><time>2015-11-22T07:24:42.0000000+00:00</time></trkpt><trkpt lat="31.0708565" lon="35.69481594"><ele>1247.0</ele><time>2015-11-22T07:24:54.0000000+00:00</time></trkpt><trkpt lat="31.07080805" lon="35.69481662"><ele>1246.5</ele><time>2015-11-22T07:24:55.0000000+00:00</time></trkpt><trkpt lat="31.07030824" lon="35.69489725"><ele>1246.5</ele><time>2015-11-22T07:25:06.0000000+00:00</time></trkpt><trkpt lat="31.07021344" lon="35.69492432"><ele>1246.5</ele><time>2015-11-22T07:25:08.0000000+00:00</time></trkpt><trkpt lat="31.07016373" lon="35.69492835"><ele>1246.5</ele><time>2015-11-22T07:25:09.0000000+00:00</time></trkpt><trkpt lat="31.06993332" lon="35.69494511"><ele>1246.0</ele><time>2015-11-22T07:25:14.0000000+00:00</time></trkpt><trkpt lat="31.06989015" lon="35.69494628"><ele>1246.0</ele><time>2015-11-22T07:25:15.0000000+00:00</time></trkpt><trkpt lat="31.06984572" lon="35.69495223"><ele>1246.0</ele><time>2015-11-22T07:25:16.0000000+00:00</time></trkpt><trkpt lat="31.06957851" lon="35.69500831"><ele>1246.0</ele><time>2015-11-22T07:25:22.0000000+00:00</time></trkpt><trkpt lat="31.0695335" lon="35.69501854"><ele>1246.0</ele><time>2015-11-22T07:25:23.0000000+00:00</time></trkpt><trkpt lat="31.06868064" lon="35.69520604"><ele>1243.1</ele><time>2015-11-22T07:25:39.0000000+00:00</time></trkpt><trkpt lat="31.06783994" lon="35.69533646"><ele>1241.2</ele><time>2015-11-22T07:25:54.0000000+00:00</time></trkpt><trkpt lat="31.06779995" lon="35.69535448"><ele>1241.7</ele><time>2015-11-22T07:25:55.0000000+00:00</time></trkpt><trkpt lat="31.06776567" lon="35.69537636"><ele>1241.7</ele><time>2015-11-22T07:25:56.0000000+00:00</time></trkpt><trkpt lat="31.0677365" lon="35.69540058"><ele>1241.7</ele><time>2015-11-22T07:25:57.0000000+00:00</time></trkpt><trkpt lat="31.06771253" lon="35.69542581"><ele>1241.7</ele><time>2015-11-22T07:25:58.0000000+00:00</time></trkpt><trkpt lat="31.06769342" lon="35.69545381"><ele>1241.7</ele><time>2015-11-22T07:25:59.0000000+00:00</time></trkpt><trkpt lat="31.06767934" lon="35.69548398"><ele>1241.7</ele><time>2015-11-22T07:26:00.0000000+00:00</time></trkpt><trkpt lat="31.0676702" lon="35.69551483"><ele>1242.2</ele><time>2015-11-22T07:26:01.0000000+00:00</time></trkpt><trkpt lat="31.06766333" lon="35.69554274"><ele>1242.2</ele><time>2015-11-22T07:26:02.0000000+00:00</time></trkpt><trkpt lat="31.06765755" lon="35.69557065"><ele>1242.2</ele><time>2015-11-22T07:26:03.0000000+00:00</time></trkpt><trkpt lat="31.06765394" lon="35.69560477"><ele>1242.2</ele><time>2015-11-22T07:26:04.0000000+00:00</time></trkpt><trkpt lat="31.06765319" lon="35.69582161"><ele>1242.2</ele><time>2015-11-22T07:26:13.0000000+00:00</time></trkpt><trkpt lat="31.06764598" lon="35.69581825"><ele>1242.2</ele><time>2015-11-22T07:26:38.0000000+00:00</time></trkpt><trkpt lat="31.06765855" lon="35.69582504"><ele>1242.2</ele><time>2015-11-22T07:27:08.0000000+00:00</time></trkpt><trkpt lat="31.06766366" lon="35.69581021"><ele>1242.2</ele><time>2015-11-22T07:27:11.0000000+00:00</time></trkpt><trkpt lat="31.06766216" lon="35.69579587"><ele>1242.2</ele><time>2015-11-22T07:27:12.0000000+00:00</time></trkpt><trkpt lat="31.06766123" lon="35.69577802"><ele>1242.2</ele><time>2015-11-22T07:27:13.0000000+00:00</time></trkpt><trkpt lat="31.06765746" lon="35.6957574"><ele>1242.2</ele><time>2015-11-22T07:27:14.0000000+00:00</time></trkpt><trkpt lat="31.06764782" lon="35.69573737"><ele>1241.7</ele><time>2015-11-22T07:27:15.0000000+00:00</time></trkpt><trkpt lat="31.06763592" lon="35.69571842"><ele>1241.7</ele><time>2015-11-22T07:27:16.0000000+00:00</time></trkpt><trkpt lat="31.06762502" lon="35.69570024"><ele>1241.7</ele><time>2015-11-22T07:27:17.0000000+00:00</time></trkpt><trkpt lat="31.06761128" lon="35.69564332"><ele>1241.7</ele><time>2015-11-22T07:27:27.0000000+00:00</time></trkpt><trkpt lat="31.06762058" lon="35.6956274"><ele>1241.7</ele><time>2015-11-22T07:27:28.0000000+00:00</time></trkpt><trkpt lat="31.06763106" lon="35.69560753"><ele>1241.7</ele><time>2015-11-22T07:27:29.0000000+00:00</time></trkpt><trkpt lat="31.06773256" lon="35.69531408"><ele>1241.7</ele><time>2015-11-22T07:27:39.0000000+00:00</time></trkpt><trkpt lat="31.06771597" lon="35.6952798"><ele>1241.2</ele><time>2015-11-22T07:27:40.0000000+00:00</time></trkpt><trkpt lat="31.06769057" lon="35.69525683"><ele>1241.2</ele><time>2015-11-22T07:27:41.0000000+00:00</time></trkpt><trkpt lat="31.0676583" lon="35.69524501"><ele>1241.2</ele><time>2015-11-22T07:27:42.0000000+00:00</time></trkpt><trkpt lat="31.06762477" lon="35.69523546"><ele>1241.2</ele><time>2015-11-22T07:27:43.0000000+00:00</time></trkpt><trkpt lat="31.06713586" lon="35.69503371"><ele>1240.7</ele><time>2015-11-22T07:27:57.0000000+00:00</time></trkpt><trkpt lat="31.06697652" lon="35.69490496"><ele>1240.7</ele><time>2015-11-22T07:28:08.0000000+00:00</time></trkpt><trkpt lat="31.0669393" lon="35.69485995"><ele>1240.2</ele><time>2015-11-22T07:28:37.0000000+00:00</time></trkpt><trkpt lat="31.06696671" lon="35.69491385"><ele>1240.2</ele><time>2015-11-22T07:29:02.0000000+00:00</time></trkpt><trkpt lat="31.0669621" lon="35.69490471"><ele>1240.7</ele><time>2015-11-22T07:29:25.0000000+00:00</time></trkpt><trkpt lat="31.06694399" lon="35.69491141"><ele>1240.7</ele><time>2015-11-22T07:29:29.0000000+00:00</time></trkpt><trkpt lat="31.06693301" lon="35.69491636"><ele>1240.7</ele><time>2015-11-22T07:29:30.0000000+00:00</time></trkpt><trkpt lat="31.0669222" lon="35.69491988"><ele>1240.7</ele><time>2015-11-22T07:29:31.0000000+00:00</time></trkpt><trkpt lat="31.06690728" lon="35.69492558"><ele>1240.7</ele><time>2015-11-22T07:29:32.0000000+00:00</time></trkpt><trkpt lat="31.06688683" lon="35.69493053"><ele>1240.7</ele><time>2015-11-22T07:29:33.0000000+00:00</time></trkpt><trkpt lat="31.06686336" lon="35.6949327"><ele>1240.7</ele><time>2015-11-22T07:29:34.0000000+00:00</time></trkpt><trkpt lat="31.06683964" lon="35.69493229"><ele>1240.7</ele><time>2015-11-22T07:29:35.0000000+00:00</time></trkpt><trkpt lat="31.06633421" lon="35.69492181"><ele>1240.7</ele><time>2015-11-22T07:29:50.0000000+00:00</time></trkpt><trkpt lat="31.06578788" lon="35.69487755"><ele>1240.2</ele><time>2015-11-22T07:30:06.0000000+00:00</time></trkpt><trkpt lat="31.06544279" lon="35.694869"><ele>1240.7</ele><time>2015-11-22T07:30:19.0000000+00:00</time></trkpt><trkpt lat="31.06484139" lon="35.69484361"><ele>1241.2</ele><time>2015-11-22T07:30:35.0000000+00:00</time></trkpt><trkpt lat="31.064285" lon="35.69482768"><ele>1241.7</ele><time>2015-11-22T07:30:52.0000000+00:00</time></trkpt><trkpt lat="31.0638359" lon="35.69482726"><ele>1242.6</ele><time>2015-11-22T07:31:06.0000000+00:00</time></trkpt><trkpt lat="31.06333651" lon="35.69480052"><ele>1243.6</ele><time>2015-11-22T07:31:21.0000000+00:00</time></trkpt><trkpt lat="31.06301112" lon="35.69485484"><ele>1244.1</ele><time>2015-11-22T07:31:31.0000000+00:00</time></trkpt><trkpt lat="31.06258725" lon="35.69501208"><ele>1245.5</ele><time>2015-11-22T07:31:46.0000000+00:00</time></trkpt><trkpt lat="31.06229229" lon="35.69500504"><ele>1246.5</ele><time>2015-11-22T07:31:58.0000000+00:00</time></trkpt><trkpt lat="31.06195525" lon="35.69501091"><ele>1247.5</ele><time>2015-11-22T07:32:12.0000000+00:00</time></trkpt><trkpt lat="31.06152124" lon="35.69502004"><ele>1249.4</ele><time>2015-11-22T07:32:29.0000000+00:00</time></trkpt><trkpt lat="31.0612878" lon="35.69512909"><ele>1250.3</ele><time>2015-11-22T07:32:41.0000000+00:00</time></trkpt><trkpt lat="31.06114967" lon="35.69542405"><ele>1250.8</ele><time>2015-11-22T07:32:54.0000000+00:00</time></trkpt><trkpt lat="31.06099645" lon="35.69578003"><ele>1251.8</ele><time>2015-11-22T07:33:08.0000000+00:00</time></trkpt><trkpt lat="31.06082378" lon="35.69619452"><ele>1253.7</ele><time>2015-11-22T07:33:23.0000000+00:00</time></trkpt><trkpt lat="31.06058749" lon="35.6965712"><ele>1256.1</ele><time>2015-11-22T07:33:39.0000000+00:00</time></trkpt><trkpt lat="31.06038549" lon="35.69693254"><ele>1258.0</ele><time>2015-11-22T07:33:54.0000000+00:00</time></trkpt><trkpt lat="31.06015415" lon="35.69737251"><ele>1260.4</ele><time>2015-11-22T07:34:12.0000000+00:00</time></trkpt><trkpt lat="31.05993915" lon="35.69780468"><ele>1261.4</ele><time>2015-11-22T07:34:28.0000000+00:00</time></trkpt><trkpt lat="31.05986925" lon="35.69791423"><ele>1260.9</ele><time>2015-11-22T07:34:31.0000000+00:00</time></trkpt><trkpt lat="31.059769" lon="35.69809126"><ele>1259.5</ele><time>2015-11-22T07:34:40.0000000+00:00</time></trkpt><trkpt lat="31.05975877" lon="35.69810065"><ele>1259.5</ele><time>2015-11-22T07:35:02.0000000+00:00</time></trkpt><trkpt lat="31.05974922" lon="35.69810224"><ele>1258.5</ele><time>2015-11-22T07:35:35.0000000+00:00</time></trkpt><trkpt lat="31.05974461" lon="35.69809813"><ele>1258.5</ele><time>2015-11-22T07:36:02.0000000+00:00</time></trkpt><trkpt lat="31.05972558" lon="35.69810232"><ele>1258.5</ele><time>2015-11-22T07:36:38.0000000+00:00</time></trkpt><trkpt lat="31.05971552" lon="35.69813476"><ele>1258.5</ele><time>2015-11-22T07:37:08.0000000+00:00</time></trkpt><trkpt lat="31.0597105" lon="35.69812009"><ele>1258.5</ele><time>2015-11-22T07:37:35.0000000+00:00</time></trkpt><trkpt lat="31.05973095" lon="35.69809427"><ele>1258.5</ele><time>2015-11-22T07:38:06.0000000+00:00</time></trkpt><trkpt lat="31.05975014" lon="35.69810391"><ele>1258.5</ele><time>2015-11-22T07:38:31.0000000+00:00</time></trkpt><trkpt lat="31.05972676" lon="35.69809293"><ele>1258.5</ele><time>2015-11-22T07:38:57.0000000+00:00</time></trkpt><trkpt lat="31.05972743" lon="35.69809805"><ele>1259.0</ele><time>2015-11-22T07:39:20.0000000+00:00</time></trkpt><trkpt lat="31.05971653" lon="35.69812881"><ele>1259.0</ele><time>2015-11-22T07:39:46.0000000+00:00</time></trkpt><trkpt lat="31.05971385" lon="35.69811724"><ele>1259.0</ele><time>2015-11-22T07:40:16.0000000+00:00</time></trkpt><trkpt lat="31.05973614" lon="35.69809478"><ele>1259.0</ele><time>2015-11-22T07:40:53.0000000+00:00</time></trkpt><trkpt lat="31.05974092" lon="35.69805714"><ele>1259.5</ele><time>2015-11-22T07:41:28.0000000+00:00</time></trkpt><trkpt lat="31.05975626" lon="35.69805756"><ele>1259.5</ele><time>2015-11-22T07:42:00.0000000+00:00</time></trkpt><trkpt lat="31.05975576" lon="35.69807835"><ele>1259.5</ele><time>2015-11-22T07:42:28.0000000+00:00</time></trkpt><trkpt lat="31.05977001" lon="35.69810375"><ele>1259.0</ele><time>2015-11-22T07:42:57.0000000+00:00</time></trkpt><trkpt lat="31.05971024" lon="35.69810425"><ele>1259.0</ele><time>2015-11-22T07:43:36.0000000+00:00</time></trkpt><trkpt lat="31.05967035" lon="35.69813166"><ele>1259.5</ele><time>2015-11-22T07:44:16.0000000+00:00</time></trkpt><trkpt lat="31.05971837" lon="35.69812244"><ele>1259.5</ele><time>2015-11-22T07:44:41.0000000+00:00</time></trkpt><trkpt lat="31.05969775" lon="35.69813199"><ele>1259.5</ele><time>2015-11-22T07:45:19.0000000+00:00</time></trkpt><trkpt lat="31.05969558" lon="35.69810903"><ele>1259.9</ele><time>2015-11-22T07:45:56.0000000+00:00</time></trkpt><trkpt lat="31.05972198" lon="35.69810324"><ele>1259.5</ele><time>2015-11-22T07:46:25.0000000+00:00</time></trkpt><trkpt lat="31.05975341" lon="35.69810987"><ele>1260.4</ele><time>2015-11-22T07:46:34.0000000+00:00</time></trkpt><trkpt lat="31.05976121" lon="35.69814356"><ele>1260.4</ele><time>2015-11-22T07:46:55.0000000+00:00</time></trkpt><trkpt lat="31.05960002" lon="35.69849879"><ele>1257.5</ele><time>2015-11-22T07:47:05.0000000+00:00</time></trkpt><trkpt lat="31.05939542" lon="35.69893959"><ele>1254.2</ele><time>2015-11-22T07:47:11.0000000+00:00</time></trkpt><trkpt lat="31.05917397" lon="35.69941116"><ele>1250.8</ele><time>2015-11-22T07:47:16.0000000+00:00</time></trkpt><trkpt lat="31.05903391" lon="35.69971844"><ele>1249.4</ele><time>2015-11-22T07:47:19.0000000+00:00</time></trkpt><trkpt lat="31.0586641" lon="35.70050491"><ele>1245.5</ele><time>2015-11-22T07:47:27.0000000+00:00</time></trkpt><trkpt lat="31.05857693" lon="35.70069208"><ele>1245.0</ele><time>2015-11-22T07:47:29.0000000+00:00</time></trkpt><trkpt lat="31.05827065" lon="35.70134142"><ele>1241.7</ele><time>2015-11-22T07:47:36.0000000+00:00</time></trkpt><trkpt lat="31.05784292" lon="35.70199639"><ele>1240.2</ele><time>2015-11-22T07:47:46.0000000+00:00</time></trkpt><trkpt lat="31.05716701" lon="35.70251422"><ele>1239.3</ele><time>2015-11-22T07:47:59.0000000+00:00</time></trkpt><trkpt lat="31.0564988" lon="35.70301001"><ele>1236.4</ele><time>2015-11-22T07:48:10.0000000+00:00</time></trkpt><trkpt lat="31.05599488" lon="35.70338937"><ele>1233.5</ele><time>2015-11-22T07:48:17.0000000+00:00</time></trkpt><trkpt lat="31.05552533" lon="35.70375089"><ele>1230.6</ele><time>2015-11-22T07:48:23.0000000+00:00</time></trkpt><trkpt lat="31.05536372" lon="35.70386882"><ele>1229.7</ele><time>2015-11-22T07:48:25.0000000+00:00</time></trkpt><trkpt lat="31.05487003" lon="35.70425095"><ele>1226.3</ele><time>2015-11-22T07:48:31.0000000+00:00</time></trkpt><trkpt lat="31.05385741" lon="35.70502887"><ele>1225.3</ele><time>2015-11-22T07:48:45.0000000+00:00</time></trkpt><trkpt lat="31.05278956" lon="35.70581703"><ele>1223.4</ele><time>2015-11-22T07:49:02.0000000+00:00</time></trkpt><trkpt lat="31.05192807" lon="35.70648615"><ele>1220.1</ele><time>2015-11-22T07:49:15.0000000+00:00</time></trkpt><trkpt lat="31.05069819" lon="35.70740791"><ele>1217.7</ele><time>2015-11-22T07:49:33.0000000+00:00</time></trkpt><trkpt lat="31.04984709" lon="35.70803647"><ele>1218.6</ele><time>2015-11-22T07:49:48.0000000+00:00</time></trkpt><trkpt lat="31.04892961" lon="35.7087429"><ele>1220.5</ele><time>2015-11-22T07:50:08.0000000+00:00</time></trkpt><trkpt lat="31.04821161" lon="35.70922351"><ele>1220.1</ele><time>2015-11-22T07:50:23.0000000+00:00</time></trkpt><trkpt lat="31.04733964" lon="35.70954789"><ele>1219.6</ele><time>2015-11-22T07:50:39.0000000+00:00</time></trkpt><trkpt lat="31.04628537" lon="35.70988334"><ele>1218.6</ele><time>2015-11-22T07:50:57.0000000+00:00</time></trkpt><trkpt lat="31.0454476" lon="35.71015768"><ele>1219.1</ele><time>2015-11-22T07:51:12.0000000+00:00</time></trkpt><trkpt lat="31.04450715" lon="35.71047015"><ele>1220.1</ele><time>2015-11-22T07:51:30.0000000+00:00</time></trkpt><trkpt lat="31.04376862" lon="35.71071742"><ele>1222.0</ele><time>2015-11-22T07:51:47.0000000+00:00</time></trkpt><trkpt lat="31.04312397" lon="35.71093895"><ele>1223.4</ele><time>2015-11-22T07:52:04.0000000+00:00</time></trkpt><trkpt lat="31.04251544" lon="35.71114062"><ele>1224.9</ele><time>2015-11-22T07:52:21.0000000+00:00</time></trkpt><trkpt lat="31.04173475" lon="35.7114148"><ele>1224.4</ele><time>2015-11-22T07:52:40.0000000+00:00</time></trkpt><trkpt lat="31.04078407" lon="35.71172962"><ele>1223.9</ele><time>2015-11-22T07:52:59.0000000+00:00</time></trkpt><trkpt lat="31.03978235" lon="35.7120742"><ele>1222.5</ele><time>2015-11-22T07:53:16.0000000+00:00</time></trkpt><trkpt lat="31.03871433" lon="35.71225877"><ele>1220.1</ele><time>2015-11-22T07:53:31.0000000+00:00</time></trkpt><trkpt lat="31.03749636" lon="35.71239263"><ele>1218.6</ele><time>2015-11-22T07:53:48.0000000+00:00</time></trkpt><trkpt lat="31.036328" lon="35.71252716"><ele>1219.6</ele><time>2015-11-22T07:54:08.0000000+00:00</time></trkpt><trkpt lat="31.03517113" lon="35.71269119"><ele>1219.6</ele><time>2015-11-22T07:54:28.0000000+00:00</time></trkpt><trkpt lat="31.03469026" lon="35.71281868"><ele>1219.1</ele><time>2015-11-22T07:54:36.0000000+00:00</time></trkpt><trkpt lat="31.03341755" lon="35.71345973"><ele>1216.2</ele><time>2015-11-22T07:54:56.0000000+00:00</time></trkpt><trkpt lat="31.03225658" lon="35.71405568"><ele>1215.2</ele><time>2015-11-22T07:55:15.0000000+00:00</time></trkpt><trkpt lat="31.03126634" lon="35.71454594"><ele>1217.2</ele><time>2015-11-22T07:55:34.0000000+00:00</time></trkpt><trkpt lat="31.03043837" lon="35.71496512"><ele>1219.1</ele><time>2015-11-22T07:55:52.0000000+00:00</time></trkpt><trkpt lat="31.0298047" lon="35.71527642"><ele>1220.1</ele><time>2015-11-22T07:56:08.0000000+00:00</time></trkpt><trkpt lat="31.02895335" lon="35.71569082"><ele>1222.0</ele><time>2015-11-22T07:56:30.0000000+00:00</time></trkpt><trkpt lat="31.02813385" lon="35.71611738"><ele>1222.5</ele><time>2015-11-22T07:56:50.0000000+00:00</time></trkpt><trkpt lat="31.02725174" lon="35.71659213"><ele>1219.6</ele><time>2015-11-22T07:57:06.0000000+00:00</time></trkpt><trkpt lat="31.02699635" lon="35.71671492"><ele>1218.1</ele><time>2015-11-22T07:57:14.0000000+00:00</time></trkpt><trkpt lat="31.02648111" lon="35.71698071"><ele>1216.7</ele><time>2015-11-22T07:57:29.0000000+00:00</time></trkpt><trkpt lat="31.02571123" lon="35.71732169"><ele>1213.3</ele><time>2015-11-22T07:57:43.0000000+00:00</time></trkpt><trkpt lat="31.02560948" lon="35.71734977"><ele>1212.4</ele><time>2015-11-22T07:57:51.0000000+00:00</time></trkpt><trkpt lat="31.02561375" lon="35.71735639"><ele>1212.4</ele><time>2015-11-22T07:58:24.0000000+00:00</time></trkpt><trkpt lat="31.02560713" lon="35.71735019"><ele>1212.4</ele><time>2015-11-22T07:58:57.0000000+00:00</time></trkpt><trkpt lat="31.02551384" lon="35.71739512"><ele>1212.4</ele><time>2015-11-22T07:59:24.0000000+00:00</time></trkpt><trkpt lat="31.02500992" lon="35.7175993"><ele>1210.0</ele><time>2015-11-22T07:59:37.0000000+00:00</time></trkpt><trkpt lat="31.02399051" lon="35.7180365"><ele>1208.5</ele><time>2015-11-22T07:59:54.0000000+00:00</time></trkpt><trkpt lat="31.02288351" lon="35.71852198"><ele>1206.1</ele><time>2015-11-22T08:00:12.0000000+00:00</time></trkpt><trkpt lat="31.02197709" lon="35.71860177"><ele>1204.7</ele><time>2015-11-22T08:00:26.0000000+00:00</time></trkpt><trkpt lat="31.02103606" lon="35.71862038"><ele>1201.3</ele><time>2015-11-22T08:00:40.0000000+00:00</time></trkpt><trkpt lat="31.0209602" lon="35.71862449"><ele>1200.8</ele><time>2015-11-22T08:00:41.0000000+00:00</time></trkpt><trkpt lat="31.02028739" lon="35.71866774"><ele>1197.5</ele><time>2015-11-22T08:00:49.0000000+00:00</time></trkpt><trkpt lat="31.02009821" lon="35.7186933"><ele>1196.5</ele><time>2015-11-22T08:00:51.0000000+00:00</time></trkpt><trkpt lat="31.01949664" lon="35.71881987"><ele>1193.1</ele><time>2015-11-22T08:00:57.0000000+00:00</time></trkpt><trkpt lat="31.01885165" lon="35.71898307"><ele>1189.8</ele><time>2015-11-22T08:01:03.0000000+00:00</time></trkpt><trkpt lat="31.01817884" lon="35.71914283"><ele>1186.9</ele><time>2015-11-22T08:01:09.0000000+00:00</time></trkpt><trkpt lat="31.01750895" lon="35.71929093"><ele>1184.0</ele><time>2015-11-22T08:01:15.0000000+00:00</time></trkpt><trkpt lat="31.01728004" lon="35.71933578"><ele>1183.0</ele><time>2015-11-22T08:01:17.0000000+00:00</time></trkpt><trkpt lat="31.01659608" lon="35.71950895"><ele>1180.2</ele><time>2015-11-22T08:01:23.0000000+00:00</time></trkpt><trkpt lat="31.01636566" lon="35.71956804"><ele>1179.2</ele><time>2015-11-22T08:01:25.0000000+00:00</time></trkpt><trkpt lat="31.01602477" lon="35.71965764"><ele>1177.3</ele><time>2015-11-22T08:01:28.0000000+00:00</time></trkpt><trkpt lat="31.01484988" lon="35.72005067"><ele>1173.9</ele><time>2015-11-22T08:01:39.0000000+00:00</time></trkpt><trkpt lat="31.01397783" lon="35.72046876"><ele>1171.0</ele><time>2015-11-22T08:01:48.0000000+00:00</time></trkpt><trkpt lat="31.0131419" lon="35.72090076"><ele>1168.1</ele><time>2015-11-22T08:01:57.0000000+00:00</time></trkpt><trkpt lat="31.01238744" lon="35.7211627"><ele>1164.8</ele><time>2015-11-22T08:02:05.0000000+00:00</time></trkpt><trkpt lat="31.01189056" lon="35.72132061"><ele>1161.9</ele><time>2015-11-22T08:02:10.0000000+00:00</time></trkpt><trkpt lat="31.01146351" lon="35.7214787"><ele>1158.1</ele><time>2015-11-22T08:02:14.0000000+00:00</time></trkpt><trkpt lat="31.0112532" lon="35.72158934"><ele>1157.1</ele><time>2015-11-22T08:02:16.0000000+00:00</time></trkpt><trkpt lat="31.01093796" lon="35.72178983"><ele>1152.8</ele><time>2015-11-22T08:02:19.0000000+00:00</time></trkpt><trkpt lat="31.01049975" lon="35.72208462"><ele>1148.9</ele><time>2015-11-22T08:02:23.0000000+00:00</time></trkpt><trkpt lat="31.01002718" lon="35.72239299"><ele>1145.6</ele><time>2015-11-22T08:02:27.0000000+00:00</time></trkpt><trkpt lat="31.00962938" lon="35.72259659"><ele>1142.2</ele><time>2015-11-22T08:02:30.0000000+00:00</time></trkpt><trkpt lat="31.00921347" lon="35.72279507"><ele>1138.8</ele><time>2015-11-22T08:02:33.0000000+00:00</time></trkpt><trkpt lat="31.00878289" lon="35.72299817"><ele>1135.5</ele><time>2015-11-22T08:02:36.0000000+00:00</time></trkpt><trkpt lat="31.0083617" lon="35.72319866"><ele>1131.6</ele><time>2015-11-22T08:02:39.0000000+00:00</time></trkpt><trkpt lat="31.00780774" lon="35.72345322"><ele>1128.2</ele><time>2015-11-22T08:02:43.0000000+00:00</time></trkpt><trkpt lat="31.00723618" lon="35.72365078"><ele>1123.9</ele><time>2015-11-22T08:02:47.0000000+00:00</time></trkpt><trkpt lat="31.0067911" lon="35.72374692"><ele>1121.0</ele><time>2015-11-22T08:02:50.0000000+00:00</time></trkpt><trkpt lat="31.006185" lon="35.72380643"><ele>1117.2</ele><time>2015-11-22T08:02:54.0000000+00:00</time></trkpt><trkpt lat="31.00559827" lon="35.723732"><ele>1113.3</ele><time>2015-11-22T08:02:58.0000000+00:00</time></trkpt><trkpt lat="31.00503392" lon="35.72357794"><ele>1109.5</ele><time>2015-11-22T08:03:02.0000000+00:00</time></trkpt><trkpt lat="31.00452337" lon="35.72342439"><ele>1105.7</ele><time>2015-11-22T08:03:06.0000000+00:00</time></trkpt><trkpt lat="31.00441022" lon="35.72341441"><ele>1105.2</ele><time>2015-11-22T08:03:07.0000000+00:00</time></trkpt><trkpt lat="31.00429639" lon="35.72341709"><ele>1104.7</ele><time>2015-11-22T08:03:08.0000000+00:00</time></trkpt><trkpt lat="31.00418097" lon="35.72343109"><ele>1103.7</ele><time>2015-11-22T08:03:09.0000000+00:00</time></trkpt><trkpt lat="31.00406296" lon="35.72345238"><ele>1102.8</ele><time>2015-11-22T08:03:10.0000000+00:00</time></trkpt><trkpt lat="31.00394393" lon="35.72348289"><ele>1101.8</ele><time>2015-11-22T08:03:11.0000000+00:00</time></trkpt><trkpt lat="31.0034551" lon="35.72361499"><ele>1098.0</ele><time>2015-11-22T08:03:15.0000000+00:00</time></trkpt><trkpt lat="31.00302729" lon="35.72380384"><ele>1094.1</ele><time>2015-11-22T08:03:19.0000000+00:00</time></trkpt><trkpt lat="31.00262345" lon="35.72407273"><ele>1090.8</ele><time>2015-11-22T08:03:23.0000000+00:00</time></trkpt><trkpt lat="31.00224668" lon="35.72439535"><ele>1086.9</ele><time>2015-11-22T08:03:27.0000000+00:00</time></trkpt><trkpt lat="31.00217233" lon="35.72448587"><ele>1086.4</ele><time>2015-11-22T08:03:28.0000000+00:00</time></trkpt><trkpt lat="31.0021119" lon="35.72457908"><ele>1085.5</ele><time>2015-11-22T08:03:29.0000000+00:00</time></trkpt><trkpt lat="31.00194544" lon="35.72484763"><ele>1082.6</ele><time>2015-11-22T08:03:32.0000000+00:00</time></trkpt><trkpt lat="31.00187444" lon="35.72491913"><ele>1081.1</ele><time>2015-11-22T08:03:33.0000000+00:00</time></trkpt><trkpt lat="31.00179113" lon="35.72497328"><ele>1079.2</ele><time>2015-11-22T08:03:34.0000000+00:00</time></trkpt><trkpt lat="31.00169658" lon="35.72500438"><ele>1079.2</ele><time>2015-11-22T08:03:35.0000000+00:00</time></trkpt><trkpt lat="31.00159373" lon="35.72501091"><ele>1078.3</ele><time>2015-11-22T08:03:36.0000000+00:00</time></trkpt><trkpt lat="31.00149474" lon="35.72499851"><ele>1078.7</ele><time>2015-11-22T08:03:37.0000000+00:00</time></trkpt><trkpt lat="31.00139969" lon="35.72497571"><ele>1078.3</ele><time>2015-11-22T08:03:38.0000000+00:00</time></trkpt><trkpt lat="31.001309" lon="35.72494813"><ele>1077.8</ele><time>2015-11-22T08:03:39.0000000+00:00</time></trkpt><trkpt lat="31.00104941" lon="35.72487881"><ele>1076.3</ele><time>2015-11-22T08:03:42.0000000+00:00</time></trkpt><trkpt lat="31.00064616" lon="35.72481327"><ele>1073.0</ele><time>2015-11-22T08:03:48.0000000+00:00</time></trkpt><trkpt lat="31.00054205" lon="35.72479793"><ele>1072.5</ele><time>2015-11-22T08:03:55.0000000+00:00</time></trkpt><trkpt lat="31.00053309" lon="35.72481662"><ele>1072.5</ele><time>2015-11-22T08:04:24.0000000+00:00</time></trkpt><trkpt lat="31.00049688" lon="35.72482249"><ele>1072.0</ele><time>2015-11-22T08:04:48.0000000+00:00</time></trkpt><trkpt lat="31.00003621" lon="35.72483783"><ele>1069.6</ele><time>2015-11-22T08:04:57.0000000+00:00</time></trkpt><trkpt lat="30.99958786" lon="35.72486448"><ele>1066.2</ele><time>2015-11-22T08:05:02.0000000+00:00</time></trkpt><trkpt lat="30.99918159" lon="35.724825"><ele>1062.9</ele><time>2015-11-22T08:05:06.0000000+00:00</time></trkpt><trkpt lat="30.99908126" lon="35.72479391"><ele>1062.4</ele><time>2015-11-22T08:05:07.0000000+00:00</time></trkpt><trkpt lat="30.99898495" lon="35.72474663"><ele>1061.0</ele><time>2015-11-22T08:05:08.0000000+00:00</time></trkpt><trkpt lat="30.99889392" lon="35.72468385"><ele>1060.0</ele><time>2015-11-22T08:05:09.0000000+00:00</time></trkpt><trkpt lat="30.99881169" lon="35.72460506"><ele>1059.0</ele><time>2015-11-22T08:05:10.0000000+00:00</time></trkpt><trkpt lat="30.99874028" lon="35.72451185"><ele>1058.6</ele><time>2015-11-22T08:05:11.0000000+00:00</time></trkpt><trkpt lat="30.99868085" lon="35.72440666"><ele>1058.1</ele><time>2015-11-22T08:05:12.0000000+00:00</time></trkpt><trkpt lat="30.99862536" lon="35.72429636"><ele>1057.6</ele><time>2015-11-22T08:05:13.0000000+00:00</time></trkpt><trkpt lat="30.99840408" lon="35.72382001"><ele>1054.7</ele><time>2015-11-22T08:05:17.0000000+00:00</time></trkpt><trkpt lat="30.99821918" lon="35.72349295"><ele>1052.3</ele><time>2015-11-22T08:05:20.0000000+00:00</time></trkpt><trkpt lat="30.9981419" lon="35.72339807"><ele>1051.8</ele><time>2015-11-22T08:05:21.0000000+00:00</time></trkpt><trkpt lat="30.99805766" lon="35.72331215"><ele>1050.4</ele><time>2015-11-22T08:05:22.0000000+00:00</time></trkpt><trkpt lat="30.99796579" lon="35.72323621"><ele>1049.4</ele><time>2015-11-22T08:05:23.0000000+00:00</time></trkpt><trkpt lat="30.9978673" lon="35.72316907"><ele>1048.9</ele><time>2015-11-22T08:05:24.0000000+00:00</time></trkpt><trkpt lat="30.99776706" lon="35.72310671"><ele>1048.0</ele><time>2015-11-22T08:05:25.0000000+00:00</time></trkpt><trkpt lat="30.99757821" lon="35.7229721"><ele>1046.5</ele><time>2015-11-22T08:05:27.0000000+00:00</time></trkpt><trkpt lat="30.99749691" lon="35.72288593"><ele>1045.6</ele><time>2015-11-22T08:05:28.0000000+00:00</time></trkpt><trkpt lat="30.99743354" lon="35.72277722"><ele>1044.6</ele><time>2015-11-22T08:05:29.0000000+00:00</time></trkpt><trkpt lat="30.99739264" lon="35.72265241"><ele>1044.1</ele><time>2015-11-22T08:05:30.0000000+00:00</time></trkpt><trkpt lat="30.99737202" lon="35.72251881"><ele>1043.7</ele><time>2015-11-22T08:05:31.0000000+00:00</time></trkpt><trkpt lat="30.99736691" lon="35.72238109"><ele>1043.2</ele><time>2015-11-22T08:05:32.0000000+00:00</time></trkpt><trkpt lat="30.99736867" lon="35.72224153"><ele>1042.2</ele><time>2015-11-22T08:05:33.0000000+00:00</time></trkpt><trkpt lat="30.99735634" lon="35.72166033"><ele>1038.8</ele><time>2015-11-22T08:05:37.0000000+00:00</time></trkpt><trkpt lat="30.99734654" lon="35.72120687"><ele>1035.5</ele><time>2015-11-22T08:05:40.0000000+00:00</time></trkpt><trkpt lat="30.99735341" lon="35.72061569"><ele>1031.6</ele><time>2015-11-22T08:05:44.0000000+00:00</time></trkpt><trkpt lat="30.99737328" lon="35.72047764"><ele>1030.7</ele><time>2015-11-22T08:05:45.0000000+00:00</time></trkpt><trkpt lat="30.99740915" lon="35.72034244"><ele>1030.2</ele><time>2015-11-22T08:05:46.0000000+00:00</time></trkpt><trkpt lat="30.99745969" lon="35.72021211"><ele>1028.8</ele><time>2015-11-22T08:05:47.0000000+00:00</time></trkpt><trkpt lat="30.99763211" lon="35.71982302"><ele>1025.4</ele><time>2015-11-22T08:05:50.0000000+00:00</time></trkpt><trkpt lat="30.9977171" lon="35.71957877"><ele>1023.9</ele><time>2015-11-22T08:05:52.0000000+00:00</time></trkpt><trkpt lat="30.99774149" lon="35.71945706"><ele>1022.5</ele><time>2015-11-22T08:05:53.0000000+00:00</time></trkpt><trkpt lat="30.99775323" lon="35.71933108"><ele>1022.0</ele><time>2015-11-22T08:05:54.0000000+00:00</time></trkpt><trkpt lat="30.99775608" lon="35.71920091"><ele>1021.1</ele><time>2015-11-22T08:05:55.0000000+00:00</time></trkpt><trkpt lat="30.9977544" lon="35.71906638"><ele>1020.6</ele><time>2015-11-22T08:05:56.0000000+00:00</time></trkpt><trkpt lat="30.99774015" lon="35.71849432"><ele>1016.7</ele><time>2015-11-22T08:06:00.0000000+00:00</time></trkpt><trkpt lat="30.99774417" lon="35.71792854"><ele>1013.4</ele><time>2015-11-22T08:06:04.0000000+00:00</time></trkpt><trkpt lat="30.99772984" lon="35.71780826"><ele>1011.9</ele><time>2015-11-22T08:06:05.0000000+00:00</time></trkpt><trkpt lat="30.99770403" lon="35.71769049"><ele>1011.0</ele><time>2015-11-22T08:06:06.0000000+00:00</time></trkpt><trkpt lat="30.99766471" lon="35.71757097"><ele>1009.5</ele><time>2015-11-22T08:06:07.0000000+00:00</time></trkpt><trkpt lat="30.99761828" lon="35.71745471"><ele>1008.1</ele><time>2015-11-22T08:06:08.0000000+00:00</time></trkpt><trkpt lat="30.99756732" lon="35.71734491"><ele>1007.1</ele><time>2015-11-22T08:06:09.0000000+00:00</time></trkpt><trkpt lat="30.99751644" lon="35.71724625"><ele>1006.2</ele><time>2015-11-22T08:06:10.0000000+00:00</time></trkpt><trkpt lat="30.99746942" lon="35.7171621"><ele>1005.2</ele><time>2015-11-22T08:06:11.0000000+00:00</time></trkpt><trkpt lat="30.99722131" lon="35.71692531"><ele>1003.8</ele><time>2015-11-22T08:06:18.0000000+00:00</time></trkpt><trkpt lat="30.99700715" lon="35.71708398"><ele>1002.3</ele><time>2015-11-22T08:06:26.0000000+00:00</time></trkpt><trkpt lat="30.99690238" lon="35.71721943"><ele>1000.9</ele><time>2015-11-22T08:06:36.0000000+00:00</time></trkpt><trkpt lat="30.99690112" lon="35.71722387"><ele>1000.9</ele><time>2015-11-22T08:06:57.0000000+00:00</time></trkpt><trkpt lat="30.99689433" lon="35.71722337"><ele>1000.4</ele><time>2015-11-22T08:07:28.0000000+00:00</time></trkpt><trkpt lat="30.99689869" lon="35.71722538"><ele>1000.4</ele><time>2015-11-22T08:08:00.0000000+00:00</time></trkpt><trkpt lat="30.99691168" lon="35.71723242"><ele>1000.4</ele><time>2015-11-22T08:08:29.0000000+00:00</time></trkpt><trkpt lat="30.99691143" lon="35.71723896"><ele>1000.4</ele><time>2015-11-22T08:08:31.0000000+00:00</time></trkpt><trkpt lat="30.99690791" lon="35.71725539"><ele>999.9</ele><time>2015-11-22T08:08:32.0000000+00:00</time></trkpt><trkpt lat="30.99689769" lon="35.71727769"><ele>999.9</ele><time>2015-11-22T08:08:33.0000000+00:00</time></trkpt><trkpt lat="30.99669183" lon="35.71778613"><ele>996.5</ele><time>2015-11-22T08:08:44.0000000+00:00</time></trkpt><trkpt lat="30.99653257" lon="35.71820271"><ele>993.2</ele><time>2015-11-22T08:08:49.0000000+00:00</time></trkpt><trkpt lat="30.99649418" lon="35.71829667"><ele>992.7</ele><time>2015-11-22T08:08:50.0000000+00:00</time></trkpt><trkpt lat="30.99634113" lon="35.71881006"><ele>988.9</ele><time>2015-11-22T08:08:55.0000000+00:00</time></trkpt><trkpt lat="30.99624884" lon="35.71926311"><ele>984.5</ele><time>2015-11-22T08:08:59.0000000+00:00</time></trkpt><trkpt lat="30.99614776" lon="35.71975864"><ele>980.7</ele><time>2015-11-22T08:09:03.0000000+00:00</time></trkpt><trkpt lat="30.99601977" lon="35.7202707"><ele>976.8</ele><time>2015-11-22T08:09:07.0000000+00:00</time></trkpt><trkpt lat="30.99588281" lon="35.72065107"><ele>974.0</ele><time>2015-11-22T08:09:10.0000000+00:00</time></trkpt><trkpt lat="30.99570259" lon="35.72101593"><ele>970.6</ele><time>2015-11-22T08:09:13.0000000+00:00</time></trkpt><trkpt lat="30.99540135" lon="35.7214564"><ele>966.7</ele><time>2015-11-22T08:09:17.0000000+00:00</time></trkpt><trkpt lat="30.99510237" lon="35.7218817"><ele>963.9</ele><time>2015-11-22T08:09:21.0000000+00:00</time></trkpt><trkpt lat="30.99471445" lon="35.72246575"><ele>960.5</ele><time>2015-11-22T08:09:27.0000000+00:00</time></trkpt><trkpt lat="30.99447054" lon="35.72285735"><ele>957.1</ele><time>2015-11-22T08:09:31.0000000+00:00</time></trkpt><trkpt lat="30.9942195" lon="35.72324912"><ele>953.8</ele><time>2015-11-22T08:09:35.0000000+00:00</time></trkpt><trkpt lat="30.99404558" lon="35.7235424"><ele>952.3</ele><time>2015-11-22T08:09:38.0000000+00:00</time></trkpt><trkpt lat="30.99386042" lon="35.72393945"><ele>949.0</ele><time>2015-11-22T08:09:42.0000000+00:00</time></trkpt><trkpt lat="30.99369152" lon="35.72433005"><ele>946.1</ele><time>2015-11-22T08:09:46.0000000+00:00</time></trkpt><trkpt lat="30.99350025" lon="35.72469307"><ele>942.2</ele><time>2015-11-22T08:09:50.0000000+00:00</time></trkpt><trkpt lat="30.99321987" lon="35.72511124"><ele>938.9</ele><time>2015-11-22T08:09:55.0000000+00:00</time></trkpt><trkpt lat="30.99295249" lon="35.72540822"><ele>935.5</ele><time>2015-11-22T08:09:59.0000000+00:00</time></trkpt><trkpt lat="30.99272283" lon="35.72560251"><ele>933.6</ele><time>2015-11-22T08:10:02.0000000+00:00</time></trkpt><trkpt lat="30.99237699" lon="35.72580158"><ele>930.7</ele><time>2015-11-22T08:10:06.0000000+00:00</time></trkpt><trkpt lat="30.99229233" lon="35.72584977"><ele>930.2</ele><time>2015-11-22T08:10:07.0000000+00:00</time></trkpt><trkpt lat="30.99195647" lon="35.7260434"><ele>927.3</ele><time>2015-11-22T08:10:11.0000000+00:00</time></trkpt><trkpt lat="30.99162639" lon="35.72626594"><ele>924.5</ele><time>2015-11-22T08:10:15.0000000+00:00</time></trkpt><trkpt lat="30.99133001" lon="35.72656022"><ele>921.1</ele><time>2015-11-22T08:10:19.0000000+00:00</time></trkpt><trkpt lat="30.99099414" lon="35.72698418"><ele>917.7</ele><time>2015-11-22T08:10:24.0000000+00:00</time></trkpt><trkpt lat="30.99079533" lon="35.72723547"><ele>916.3</ele><time>2015-11-22T08:10:27.0000000+00:00</time></trkpt><trkpt lat="30.99054965" lon="35.72755951"><ele>914.4</ele><time>2015-11-22T08:10:31.0000000+00:00</time></trkpt><trkpt lat="30.9900946" lon="35.72816628"><ele>910.5</ele><time>2015-11-22T08:10:39.0000000+00:00</time></trkpt><trkpt lat="30.98937283" lon="35.72914311"><ele>908.6</ele><time>2015-11-22T08:10:54.0000000+00:00</time></trkpt><trkpt lat="30.98910335" lon="35.72992313"><ele>908.6</ele><time>2015-11-22T08:11:07.0000000+00:00</time></trkpt><trkpt lat="30.98907838" lon="35.73019277"><ele>907.6</ele><time>2015-11-22T08:11:12.0000000+00:00</time></trkpt><trkpt lat="30.98907796" lon="35.73024072"><ele>908.1</ele><time>2015-11-22T08:11:13.0000000+00:00</time></trkpt><trkpt lat="30.98907854" lon="35.73027961"><ele>907.6</ele><time>2015-11-22T08:11:14.0000000+00:00</time></trkpt><trkpt lat="30.98907972" lon="35.73030995"><ele>908.1</ele><time>2015-11-22T08:11:15.0000000+00:00</time></trkpt><trkpt lat="30.98907896" lon="35.73033677"><ele>908.1</ele><time>2015-11-22T08:11:16.0000000+00:00</time></trkpt><trkpt lat="30.98907787" lon="35.73036267"><ele>908.1</ele><time>2015-11-22T08:11:17.0000000+00:00</time></trkpt><trkpt lat="30.98907502" lon="35.73039059"><ele>908.1</ele><time>2015-11-22T08:11:18.0000000+00:00</time></trkpt><trkpt lat="30.98907284" lon="35.73041766"><ele>908.1</ele><time>2015-11-22T08:11:19.0000000+00:00</time></trkpt><trkpt lat="30.98907293" lon="35.73044649"><ele>907.6</ele><time>2015-11-22T08:11:20.0000000+00:00</time></trkpt><trkpt lat="30.98907226" lon="35.73047566"><ele>908.1</ele><time>2015-11-22T08:11:21.0000000+00:00</time></trkpt><trkpt lat="30.98906673" lon="35.73050416"><ele>908.1</ele><time>2015-11-22T08:11:22.0000000+00:00</time></trkpt><trkpt lat="30.98906027" lon="35.73053534"><ele>908.1</ele><time>2015-11-22T08:11:23.0000000+00:00</time></trkpt><trkpt lat="30.98905633" lon="35.73056929"><ele>908.1</ele><time>2015-11-22T08:11:24.0000000+00:00</time></trkpt><trkpt lat="30.98905365" lon="35.73060541"><ele>907.1</ele><time>2015-11-22T08:11:25.0000000+00:00</time></trkpt><trkpt lat="30.98904024" lon="35.73140019"><ele>907.6</ele><time>2015-11-22T08:11:41.0000000+00:00</time></trkpt><trkpt lat="30.98901618" lon="35.73251531"><ele>906.2</ele><time>2015-11-22T08:11:59.0000000+00:00</time></trkpt><trkpt lat="30.98871561" lon="35.73333557"><ele>902.8</ele><time>2015-11-22T08:12:11.0000000+00:00</time></trkpt><trkpt lat="30.98837103" lon="35.73391543"><ele>899.9</ele><time>2015-11-22T08:12:19.0000000+00:00</time></trkpt><trkpt lat="30.9882318" lon="35.73415515"><ele>898.5</ele><time>2015-11-22T08:12:22.0000000+00:00</time></trkpt><trkpt lat="30.98808386" lon="35.73440426"><ele>896.6</ele><time>2015-11-22T08:12:25.0000000+00:00</time></trkpt><trkpt lat="30.98782394" lon="35.73484247"><ele>893.2</ele><time>2015-11-22T08:12:30.0000000+00:00</time></trkpt><trkpt lat="30.98754767" lon="35.73529257"><ele>890.3</ele><time>2015-11-22T08:12:35.0000000+00:00</time></trkpt><trkpt lat="30.98738196" lon="35.7355613"><ele>888.9</ele><time>2015-11-22T08:12:38.0000000+00:00</time></trkpt><trkpt lat="30.98706764" lon="35.73608039"><ele>885.0</ele><time>2015-11-22T08:12:44.0000000+00:00</time></trkpt><trkpt lat="30.98686044" lon="35.73642178"><ele>882.6</ele><time>2015-11-22T08:12:48.0000000+00:00</time></trkpt><trkpt lat="30.98675558" lon="35.73659278"><ele>881.7</ele><time>2015-11-22T08:12:50.0000000+00:00</time></trkpt><trkpt lat="30.98648837" lon="35.73701874"><ele>877.8</ele><time>2015-11-22T08:12:55.0000000+00:00</time></trkpt><trkpt lat="30.98636985" lon="35.73718127"><ele>876.4</ele><time>2015-11-22T08:12:57.0000000+00:00</time></trkpt><trkpt lat="30.98630355" lon="35.73725704"><ele>875.9</ele><time>2015-11-22T08:12:58.0000000+00:00</time></trkpt><trkpt lat="30.9858749" lon="35.73766935"><ele>873.0</ele><time>2015-11-22T08:13:04.0000000+00:00</time></trkpt><trkpt lat="30.98553945" lon="35.73800077"><ele>870.1</ele><time>2015-11-22T08:13:09.0000000+00:00</time></trkpt><trkpt lat="30.98518942" lon="35.73846085"><ele>867.3</ele><time>2015-11-22T08:13:15.0000000+00:00</time></trkpt><trkpt lat="30.9851362" lon="35.73854769"><ele>866.8</ele><time>2015-11-22T08:13:16.0000000+00:00</time></trkpt><trkpt lat="30.9849979" lon="35.73882278"><ele>864.8</ele><time>2015-11-22T08:13:19.0000000+00:00</time></trkpt><trkpt lat="30.98486161" lon="35.7391993"><ele>863.4</ele><time>2015-11-22T08:13:23.0000000+00:00</time></trkpt><trkpt lat="30.98445995" lon="35.74054048"><ele>861.0</ele><time>2015-11-22T08:13:39.0000000+00:00</time></trkpt><trkpt lat="30.98415007" lon="35.74165687"><ele>857.6</ele><time>2015-11-22T08:13:55.0000000+00:00</time></trkpt><trkpt lat="30.98403155" lon="35.74212341"><ele>854.3</ele><time>2015-11-22T08:14:01.0000000+00:00</time></trkpt><trkpt lat="30.98391755" lon="35.7425969"><ele>850.9</ele><time>2015-11-22T08:14:06.0000000+00:00</time></trkpt><trkpt lat="30.98381387" lon="35.74302211"><ele>847.5</ele><time>2015-11-22T08:14:10.0000000+00:00</time></trkpt><trkpt lat="30.98369342" lon="35.74348681"><ele>843.2</ele><time>2015-11-22T08:14:14.0000000+00:00</time></trkpt><trkpt lat="30.98356585" lon="35.74397564"><ele>839.4</ele><time>2015-11-22T08:14:18.0000000+00:00</time></trkpt><trkpt lat="30.98343476" lon="35.74446866"><ele>835.5</ele><time>2015-11-22T08:14:22.0000000+00:00</time></trkpt><trkpt lat="30.98330484" lon="35.74494853"><ele>832.2</ele><time>2015-11-22T08:14:26.0000000+00:00</time></trkpt><trkpt lat="30.98313326" lon="35.74541288"><ele>828.3</ele><time>2015-11-22T08:14:30.0000000+00:00</time></trkpt><trkpt lat="30.9829476" lon="35.74574791"><ele>825.4</ele><time>2015-11-22T08:14:33.0000000+00:00</time></trkpt><trkpt lat="30.98272707" lon="35.74607153"><ele>821.1</ele><time>2015-11-22T08:14:36.0000000+00:00</time></trkpt><trkpt lat="30.98246304" lon="35.7463789"><ele>817.3</ele><time>2015-11-22T08:14:39.0000000+00:00</time></trkpt><trkpt lat="30.98218787" lon="35.74668735"><ele>813.9</ele><time>2015-11-22T08:14:42.0000000+00:00</time></trkpt><trkpt lat="30.98191311" lon="35.74699162"><ele>810.5</ele><time>2015-11-22T08:14:45.0000000+00:00</time></trkpt><trkpt lat="30.98162896" lon="35.74729479"><ele>807.2</ele><time>2015-11-22T08:14:48.0000000+00:00</time></trkpt><trkpt lat="30.98144196" lon="35.74749134"><ele>805.7</ele><time>2015-11-22T08:14:50.0000000+00:00</time></trkpt><trkpt lat="30.98086051" lon="35.7481101"><ele>801.9</ele><time>2015-11-22T08:14:57.0000000+00:00</time></trkpt><trkpt lat="30.98018635" lon="35.7489296"><ele>798.5</ele><time>2015-11-22T08:15:09.0000000+00:00</time></trkpt><trkpt lat="30.97986004" lon="35.74950652"><ele>795.2</ele><time>2015-11-22T08:15:17.0000000+00:00</time></trkpt><trkpt lat="30.97964337" lon="35.75001195"><ele>791.8</ele><time>2015-11-22T08:15:23.0000000+00:00</time></trkpt><trkpt lat="30.9795158" lon="35.75040917"><ele>788.4</ele><time>2015-11-22T08:15:27.0000000+00:00</time></trkpt><trkpt lat="30.97941639" lon="35.75084251"><ele>785.1</ele><time>2015-11-22T08:15:31.0000000+00:00</time></trkpt><trkpt lat="30.97936107" lon="35.75119321"><ele>781.7</ele><time>2015-11-22T08:15:34.0000000+00:00</time></trkpt><trkpt lat="30.97929066" lon="35.75167148"><ele>779.3</ele><time>2015-11-22T08:15:38.0000000+00:00</time></trkpt><trkpt lat="30.97923056" lon="35.75203685"><ele>776.4</ele><time>2015-11-22T08:15:41.0000000+00:00</time></trkpt><trkpt lat="30.97915253" lon="35.75252795"><ele>772.6</ele><time>2015-11-22T08:15:45.0000000+00:00</time></trkpt><trkpt lat="30.97903484" lon="35.75313622"><ele>768.7</ele><time>2015-11-22T08:15:50.0000000+00:00</time></trkpt><trkpt lat="30.97889554" lon="35.75374072"><ele>765.4</ele><time>2015-11-22T08:15:55.0000000+00:00</time></trkpt><trkpt lat="30.97852984" lon="35.75454145"><ele>762.5</ele><time>2015-11-22T08:16:03.0000000+00:00</time></trkpt><trkpt lat="30.97841115" lon="35.75471059"><ele>761.0</ele><time>2015-11-22T08:16:05.0000000+00:00</time></trkpt><trkpt lat="30.97789591" lon="35.7553814"><ele>757.7</ele><time>2015-11-22T08:16:14.0000000+00:00</time></trkpt><trkpt lat="30.97751252" lon="35.75584601"><ele>754.3</ele><time>2015-11-22T08:16:21.0000000+00:00</time></trkpt><trkpt lat="30.97728211" lon="35.75616796"><ele>750.9</ele><time>2015-11-22T08:16:25.0000000+00:00</time></trkpt><trkpt lat="30.97708303" lon="35.756564"><ele>747.6</ele><time>2015-11-22T08:16:29.0000000+00:00</time></trkpt><trkpt lat="30.97696678" lon="35.75690732"><ele>744.2</ele><time>2015-11-22T08:16:32.0000000+00:00</time></trkpt><trkpt lat="30.97681892" lon="35.75739674"><ele>740.4</ele><time>2015-11-22T08:16:36.0000000+00:00</time></trkpt><trkpt lat="30.97665841" lon="35.75789295"><ele>737.5</ele><time>2015-11-22T08:16:40.0000000+00:00</time></trkpt><trkpt lat="30.97649429" lon="35.75836938"><ele>734.1</ele><time>2015-11-22T08:16:44.0000000+00:00</time></trkpt><trkpt lat="30.97626404" lon="35.75903901"><ele>730.3</ele><time>2015-11-22T08:16:50.0000000+00:00</time></trkpt><trkpt lat="30.97594142" lon="35.75972607"><ele>727.4</ele><time>2015-11-22T08:16:57.0000000+00:00</time></trkpt><trkpt lat="30.97563649" lon="35.76021901"><ele>723.5</ele><time>2015-11-22T08:17:03.0000000+00:00</time></trkpt><trkpt lat="30.97531068" lon="35.76063945"><ele>720.2</ele><time>2015-11-22T08:17:09.0000000+00:00</time></trkpt><trkpt lat="30.97504808" lon="35.7609308"><ele>716.3</ele><time>2015-11-22T08:17:13.0000000+00:00</time></trkpt><trkpt lat="30.97473342" lon="35.76120221"><ele>713.0</ele><time>2015-11-22T08:17:17.0000000+00:00</time></trkpt><trkpt lat="30.97439211" lon="35.76144772"><ele>709.6</ele><time>2015-11-22T08:17:21.0000000+00:00</time></trkpt><trkpt lat="30.97412473" lon="35.7616172"><ele>706.2</ele><time>2015-11-22T08:17:24.0000000+00:00</time></trkpt><trkpt lat="30.97383899" lon="35.76180143"><ele>702.9</ele><time>2015-11-22T08:17:27.0000000+00:00</time></trkpt><trkpt lat="30.97343724" lon="35.7620611"><ele>699.5</ele><time>2015-11-22T08:17:31.0000000+00:00</time></trkpt><trkpt lat="30.97313818" lon="35.76225531"><ele>695.7</ele><time>2015-11-22T08:17:34.0000000+00:00</time></trkpt><trkpt lat="30.97274917" lon="35.76250627"><ele>692.3</ele><time>2015-11-22T08:17:38.0000000+00:00</time></trkpt><trkpt lat="30.97219689" lon="35.76285856"><ele>689.4</ele><time>2015-11-22T08:17:44.0000000+00:00</time></trkpt><trkpt lat="30.97175575" lon="35.76314153"><ele>685.6</ele><time>2015-11-22T08:17:49.0000000+00:00</time></trkpt><trkpt lat="30.97130983" lon="35.76340724"><ele>682.2</ele><time>2015-11-22T08:17:54.0000000+00:00</time></trkpt><trkpt lat="30.97091597" lon="35.76358108"><ele>678.8</ele><time>2015-11-22T08:17:58.0000000+00:00</time></trkpt><trkpt lat="30.97060944" lon="35.76363347"><ele>676.4</ele><time>2015-11-22T08:18:01.0000000+00:00</time></trkpt><trkpt lat="30.97040308" lon="35.76364193"><ele>675.0</ele><time>2015-11-22T08:18:03.0000000+00:00</time></trkpt><trkpt lat="30.97030006" lon="35.76363296"><ele>674.5</ele><time>2015-11-22T08:18:04.0000000+00:00</time></trkpt><trkpt lat="30.97019898" lon="35.76361469"><ele>673.5</ele><time>2015-11-22T08:18:05.0000000+00:00</time></trkpt><trkpt lat="30.97009898" lon="35.76358678"><ele>673.1</ele><time>2015-11-22T08:18:06.0000000+00:00</time></trkpt><trkpt lat="30.96951652" lon="35.76331252"><ele>669.7</ele><time>2015-11-22T08:18:12.0000000+00:00</time></trkpt><trkpt lat="30.96886416" lon="35.7629656"><ele>666.8</ele><time>2015-11-22T08:18:19.0000000+00:00</time></trkpt><trkpt lat="30.96835278" lon="35.7628837"><ele>663.5</ele><time>2015-11-22T08:18:25.0000000+00:00</time></trkpt><trkpt lat="30.96827282" lon="35.76289678"><ele>663.0</ele><time>2015-11-22T08:18:26.0000000+00:00</time></trkpt><trkpt lat="30.96819428" lon="35.76291991"><ele>663.0</ele><time>2015-11-22T08:18:27.0000000+00:00</time></trkpt><trkpt lat="30.96804391" lon="35.76298487"><ele>661.5</ele><time>2015-11-22T08:18:29.0000000+00:00</time></trkpt><trkpt lat="30.96754367" lon="35.76327606"><ele>658.2</ele><time>2015-11-22T08:18:36.0000000+00:00</time></trkpt><trkpt lat="30.96701729" lon="35.76362877"><ele>655.3</ele><time>2015-11-22T08:18:44.0000000+00:00</time></trkpt><trkpt lat="30.96688494" lon="35.76372365"><ele>654.3</ele><time>2015-11-22T08:18:46.0000000+00:00</time></trkpt><trkpt lat="30.966506" lon="35.76398911"><ele>651.9</ele><time>2015-11-22T08:18:53.0000000+00:00</time></trkpt><trkpt lat="30.96649066" lon="35.76397117"><ele>652.4</ele><time>2015-11-22T08:19:04.0000000+00:00</time></trkpt><trkpt lat="30.9664842" lon="35.76392038"><ele>652.4</ele><time>2015-11-22T08:19:17.0000000+00:00</time></trkpt><trkpt lat="30.9664754" lon="35.7639239"><ele>652.4</ele><time>2015-11-22T08:19:43.0000000+00:00</time></trkpt><trkpt lat="30.9664749" lon="35.76393086"><ele>651.9</ele><time>2015-11-22T08:20:14.0000000+00:00</time></trkpt><trkpt lat="30.96647582" lon="35.76391619"><ele>651.9</ele><time>2015-11-22T08:20:53.0000000+00:00</time></trkpt><trkpt lat="30.96646811" lon="35.76393178"><ele>651.9</ele><time>2015-11-22T08:21:07.0000000+00:00</time></trkpt><trkpt lat="30.96627885" lon="35.76418575"><ele>649.5</ele><time>2015-11-22T08:21:20.0000000+00:00</time></trkpt><trkpt lat="30.96599973" lon="35.76461415"><ele>647.1</ele><time>2015-11-22T08:21:35.0000000+00:00</time></trkpt><trkpt lat="30.96589847" lon="35.76516274"><ele>644.7</ele><time>2015-11-22T08:21:46.0000000+00:00</time></trkpt><trkpt lat="30.96592236" lon="35.7658509"><ele>641.3</ele><time>2015-11-22T08:21:55.0000000+00:00</time></trkpt><trkpt lat="30.96593686" lon="35.76602457"><ele>640.9</ele><time>2015-11-22T08:21:57.0000000+00:00</time></trkpt><trkpt lat="30.965961" lon="35.76630067"><ele>639.4</ele><time>2015-11-22T08:22:00.0000000+00:00</time></trkpt><trkpt lat="30.96601716" lon="35.76698137"><ele>636.1</ele><time>2015-11-22T08:22:07.0000000+00:00</time></trkpt><trkpt lat="30.96604407" lon="35.76780254"><ele>632.2</ele><time>2015-11-22T08:22:15.0000000+00:00</time></trkpt><trkpt lat="30.96584357" lon="35.76883083"><ele>629.3</ele><time>2015-11-22T08:22:26.0000000+00:00</time></trkpt><trkpt lat="30.96552967" lon="35.76957079"><ele>626.4</ele><time>2015-11-22T08:22:35.0000000+00:00</time></trkpt><trkpt lat="30.96503908" lon="35.77070402"><ele>623.1</ele><time>2015-11-22T08:22:50.0000000+00:00</time></trkpt><trkpt lat="30.96037606" lon="35.77091767"><ele>539.4</ele><time>2015-11-22T08:33:11.0000000+00:00</time></trkpt><trkpt lat="30.96038821" lon="35.77091726"><ele>533.7</ele><time>2015-11-22T08:33:12.0000000+00:00</time></trkpt><trkpt lat="30.960395" lon="35.77091617"><ele>533.7</ele><time>2015-11-22T08:33:13.0000000+00:00</time></trkpt><trkpt lat="30.96038721" lon="35.77092765"><ele>534.2</ele><time>2015-11-22T08:33:37.0000000+00:00</time></trkpt><trkpt lat="30.96038486" lon="35.77093343"><ele>534.2</ele><time>2015-11-22T08:33:55.0000000+00:00</time></trkpt><trkpt lat="30.96035787" lon="35.77092195"><ele>534.6</ele><time>2015-11-22T08:34:11.0000000+00:00</time></trkpt><trkpt lat="30.96044135" lon="35.77082363"><ele>535.1</ele><time>2015-11-22T08:34:32.0000000+00:00</time></trkpt><trkpt lat="30.96046717" lon="35.77080946"><ele>532.2</ele><time>2015-11-22T08:34:51.0000000+00:00</time></trkpt><trkpt lat="30.96046231" lon="35.77080737"><ele>528.9</ele><time>2015-11-22T08:35:11.0000000+00:00</time></trkpt><trkpt lat="30.96045175" lon="35.77079765"><ele>528.9</ele><time>2015-11-22T08:35:23.0000000+00:00</time></trkpt><trkpt lat="30.96043859" lon="35.77074132"><ele>527.9</ele><time>2015-11-22T08:35:39.0000000+00:00</time></trkpt><trkpt lat="30.96043917" lon="35.77071944"><ele>527.9</ele><time>2015-11-22T08:36:03.0000000+00:00</time></trkpt><trkpt lat="30.96042559" lon="35.77069983"><ele>527.9</ele><time>2015-11-22T08:36:20.0000000+00:00</time></trkpt><trkpt lat="30.96041772" lon="35.77065004"><ele>527.9</ele><time>2015-11-22T08:36:37.0000000+00:00</time></trkpt><trkpt lat="30.96042249" lon="35.7706482"><ele>527.4</ele><time>2015-11-22T08:36:59.0000000+00:00</time></trkpt><trkpt lat="30.96041679" lon="35.77065465"><ele>527.4</ele><time>2015-11-22T08:37:02.0000000+00:00</time></trkpt><trkpt lat="30.96040187" lon="35.77062548"><ele>527.4</ele><time>2015-11-22T08:37:04.0000000+00:00</time></trkpt><trkpt lat="30.96038704" lon="35.77060126"><ele>527.4</ele><time>2015-11-22T08:37:05.0000000+00:00</time></trkpt><trkpt lat="30.96036608" lon="35.77057142"><ele>527.4</ele><time>2015-11-22T08:37:06.0000000+00:00</time></trkpt><trkpt lat="30.96034278" lon="35.77053496"><ele>526.9</ele><time>2015-11-22T08:37:07.0000000+00:00</time></trkpt><trkpt lat="30.96002427" lon="35.7701965"><ele>524.1</ele><time>2015-11-22T08:37:14.0000000+00:00</time></trkpt><trkpt lat="30.95972587" lon="35.77003456"><ele>520.7</ele><time>2015-11-22T08:37:18.0000000+00:00</time></trkpt><trkpt lat="30.95936193" lon="35.76990137"><ele>516.9</ele><time>2015-11-22T08:37:22.0000000+00:00</time></trkpt><trkpt lat="30.95893823" lon="35.76975041"><ele>514.0</ele><time>2015-11-22T08:37:26.0000000+00:00</time></trkpt><trkpt lat="30.95859742" lon="35.76962493"><ele>510.1</ele><time>2015-11-22T08:37:29.0000000+00:00</time></trkpt><trkpt lat="30.95825736" lon="35.76949753"><ele>506.8</ele><time>2015-11-22T08:37:32.0000000+00:00</time></trkpt><trkpt lat="30.95804513" lon="35.76941103"><ele>502.9</ele><time>2015-11-22T08:37:34.0000000+00:00</time></trkpt><trkpt lat="30.95785067" lon="35.76929787"><ele>502.0</ele><time>2015-11-22T08:37:36.0000000+00:00</time></trkpt><trkpt lat="30.95776032" lon="35.76922604"><ele>500.5</ele><time>2015-11-22T08:37:37.0000000+00:00</time></trkpt><trkpt lat="30.95767658" lon="35.76914063"><ele>498.6</ele><time>2015-11-22T08:37:38.0000000+00:00</time></trkpt><trkpt lat="30.95760341" lon="35.76904273"><ele>497.1</ele><time>2015-11-22T08:37:39.0000000+00:00</time></trkpt><trkpt lat="30.95754499" lon="35.76892957"><ele>494.3</ele><time>2015-11-22T08:37:40.0000000+00:00</time></trkpt><trkpt lat="30.95749788" lon="35.76880828"><ele>493.3</ele><time>2015-11-22T08:37:41.0000000+00:00</time></trkpt><trkpt lat="30.9574646" lon="35.76868909"><ele>493.3</ele><time>2015-11-22T08:37:42.0000000+00:00</time></trkpt><trkpt lat="30.95744642" lon="35.76856915"><ele>491.9</ele><time>2015-11-22T08:37:43.0000000+00:00</time></trkpt><trkpt lat="30.95744264" lon="35.76844459"><ele>490.4</ele><time>2015-11-22T08:37:44.0000000+00:00</time></trkpt><trkpt lat="30.95745605" lon="35.76831451"><ele>489.5</ele><time>2015-11-22T08:37:45.0000000+00:00</time></trkpt><trkpt lat="30.95748137" lon="35.76818408"><ele>488.5</ele><time>2015-11-22T08:37:46.0000000+00:00</time></trkpt><trkpt lat="30.95751833" lon="35.76805023"><ele>487.5</ele><time>2015-11-22T08:37:47.0000000+00:00</time></trkpt><trkpt lat="30.95756468" lon="35.76791704"><ele>485.6</ele><time>2015-11-22T08:37:48.0000000+00:00</time></trkpt><trkpt lat="30.95768413" lon="35.76751085"><ele>481.8</ele><time>2015-11-22T08:37:51.0000000+00:00</time></trkpt><trkpt lat="30.95777297" lon="35.76706829"><ele>477.9</ele><time>2015-11-22T08:37:54.0000000+00:00</time></trkpt><trkpt lat="30.95781413" lon="35.76659236"><ele>473.6</ele><time>2015-11-22T08:37:57.0000000+00:00</time></trkpt><trkpt lat="30.95778689" lon="35.76607922"><ele>468.8</ele><time>2015-11-22T08:38:00.0000000+00:00</time></trkpt><trkpt lat="30.95773651" lon="35.76573238"><ele>464.9</ele><time>2015-11-22T08:38:02.0000000+00:00</time></trkpt><trkpt lat="30.95764088" lon="35.76521119"><ele>461.1</ele><time>2015-11-22T08:38:05.0000000+00:00</time></trkpt><trkpt lat="30.95754893" lon="35.76468263"><ele>457.7</ele><time>2015-11-22T08:38:08.0000000+00:00</time></trkpt><trkpt lat="30.95748774" lon="35.76433671"><ele>456.8</ele><time>2015-11-22T08:38:10.0000000+00:00</time></trkpt><trkpt lat="30.95723159" lon="35.76306542"><ele>453.4</ele><time>2015-11-22T08:38:18.0000000+00:00</time></trkpt><trkpt lat="30.95720829" lon="35.76292302"><ele>453.4</ele><time>2015-11-22T08:38:19.0000000+00:00</time></trkpt><trkpt lat="30.95716302" lon="35.76198315"><ele>451.5</ele><time>2015-11-22T08:38:26.0000000+00:00</time></trkpt><trkpt lat="30.95722664" lon="35.761597"><ele>449.6</ele><time>2015-11-22T08:38:29.0000000+00:00</time></trkpt><trkpt lat="30.95766351" lon="35.76057407"><ele>447.6</ele><time>2015-11-22T08:38:38.0000000+00:00</time></trkpt><trkpt lat="30.95803005" lon="35.75990444"><ele>444.3</ele><time>2015-11-22T08:38:44.0000000+00:00</time></trkpt><trkpt lat="30.95828125" lon="35.75944654"><ele>442.8</ele><time>2015-11-22T08:38:48.0000000+00:00</time></trkpt><trkpt lat="30.95847672" lon="35.7591116"><ele>441.4</ele><time>2015-11-22T08:38:51.0000000+00:00</time></trkpt><trkpt lat="30.95908575" lon="35.75800242"><ele>438.5</ele><time>2015-11-22T08:39:01.0000000+00:00</time></trkpt><trkpt lat="30.95942723" lon="35.75734712"><ele>437.5</ele><time>2015-11-22T08:39:09.0000000+00:00</time></trkpt><trkpt lat="30.96019803" lon="35.75587627"><ele>435.6</ele><time>2015-11-22T08:39:29.0000000+00:00</time></trkpt><trkpt lat="30.96069734" lon="35.75428722"><ele>432.7</ele><time>2015-11-22T08:39:46.0000000+00:00</time></trkpt><trkpt lat="30.96085274" lon="35.75276976"><ele>432.3</ele><time>2015-11-22T08:40:01.0000000+00:00</time></trkpt><trkpt lat="30.96085307" lon="35.75145221"><ele>432.3</ele><time>2015-11-22T08:40:16.0000000+00:00</time></trkpt><trkpt lat="30.96080597" lon="35.74968648"><ele>430.3</ele><time>2015-11-22T08:40:35.0000000+00:00</time></trkpt><trkpt lat="30.96068501" lon="35.7476972"><ele>427.4</ele><time>2015-11-22T08:40:54.0000000+00:00</time></trkpt><trkpt lat="30.96055853" lon="35.74572369"><ele>423.6</ele><time>2015-11-22T08:41:13.0000000+00:00</time></trkpt><trkpt lat="30.96063196" lon="35.74425509"><ele>421.7</ele><time>2015-11-22T08:41:26.0000000+00:00</time></trkpt><trkpt lat="30.96109891" lon="35.74317508"><ele>421.2</ele><time>2015-11-22T08:41:37.0000000+00:00</time></trkpt><trkpt lat="30.96165212" lon="35.74250763"><ele>424.1</ele><time>2015-11-22T08:41:48.0000000+00:00</time></trkpt><trkpt lat="30.96213165" lon="35.74205032"><ele>427.0</ele><time>2015-11-22T08:42:01.0000000+00:00</time></trkpt><trkpt lat="30.96240934" lon="35.74177547"><ele>430.3</ele><time>2015-11-22T08:42:15.0000000+00:00</time></trkpt><trkpt lat="30.9624023" lon="35.74178059"><ele>429.9</ele><time>2015-11-22T08:42:29.0000000+00:00</time></trkpt><trkpt lat="30.96239333" lon="35.74179752"><ele>429.4</ele><time>2015-11-22T08:43:19.0000000+00:00</time></trkpt><trkpt lat="30.96240515" lon="35.74180372"><ele>429.9</ele><time>2015-11-22T08:44:01.0000000+00:00</time></trkpt><trkpt lat="30.96239719" lon="35.74180984"><ele>429.4</ele><time>2015-11-22T08:44:29.0000000+00:00</time></trkpt><trkpt lat="30.96239031" lon="35.7418116"><ele>428.9</ele><time>2015-11-22T08:45:13.0000000+00:00</time></trkpt><trkpt lat="30.96239266" lon="35.74180389"><ele>428.9</ele><time>2015-11-22T08:45:55.0000000+00:00</time></trkpt><trkpt lat="30.96239928" lon="35.7418116"><ele>428.9</ele><time>2015-11-22T08:46:36.0000000+00:00</time></trkpt><trkpt lat="30.96239408" lon="35.74181152"><ele>428.9</ele><time>2015-11-22T08:47:15.0000000+00:00</time></trkpt><trkpt lat="30.96238973" lon="35.74177807"><ele>428.9</ele><time>2015-11-22T08:47:54.0000000+00:00</time></trkpt><trkpt lat="30.96239434" lon="35.74176307"><ele>428.9</ele><time>2015-11-22T08:47:55.0000000+00:00</time></trkpt><trkpt lat="30.96240012" lon="35.74174589"><ele>428.9</ele><time>2015-11-22T08:47:56.0000000+00:00</time></trkpt><trkpt lat="30.96240624" lon="35.74172686"><ele>428.9</ele><time>2015-11-22T08:47:57.0000000+00:00</time></trkpt><trkpt lat="30.9624168" lon="35.74170708"><ele>428.9</ele><time>2015-11-22T08:47:58.0000000+00:00</time></trkpt><trkpt lat="30.96243147" lon="35.74168436"><ele>428.9</ele><time>2015-11-22T08:47:59.0000000+00:00</time></trkpt><trkpt lat="30.96265552" lon="35.74122"><ele>431.3</ele><time>2015-11-22T08:48:13.0000000+00:00</time></trkpt><trkpt lat="30.96264739" lon="35.74054342"><ele>433.2</ele><time>2015-11-22T08:48:29.0000000+00:00</time></trkpt><trkpt lat="30.96240071" lon="35.74000622"><ele>435.1</ele><time>2015-11-22T08:48:45.0000000+00:00</time></trkpt><trkpt lat="30.96209326" lon="35.73963415"><ele>437.5</ele><time>2015-11-22T08:49:02.0000000+00:00</time></trkpt><trkpt lat="30.96184633" lon="35.73935369"><ele>439.9</ele><time>2015-11-22T08:49:18.0000000+00:00</time></trkpt><trkpt lat="30.96156478" lon="35.73904993"><ele>442.8</ele><time>2015-11-22T08:49:34.0000000+00:00</time></trkpt><trkpt lat="30.96136822" lon="35.7388356"><ele>446.2</ele><time>2015-11-22T08:49:46.0000000+00:00</time></trkpt><trkpt lat="30.96119489" lon="35.73863134"><ele>448.1</ele><time>2015-11-22T08:49:59.0000000+00:00</time></trkpt><trkpt lat="30.96101685" lon="35.73837653"><ele>451.0</ele><time>2015-11-22T08:50:15.0000000+00:00</time></trkpt><trkpt lat="30.96086632" lon="35.73804075"><ele>453.4</ele><time>2015-11-22T08:50:34.0000000+00:00</time></trkpt><trkpt lat="30.96078887" lon="35.73776792"><ele>455.8</ele><time>2015-11-22T08:50:49.0000000+00:00</time></trkpt><trkpt lat="30.9607576" lon="35.73744304"><ele>458.2</ele><time>2015-11-22T08:51:06.0000000+00:00</time></trkpt><trkpt lat="30.96077135" lon="35.73719502"><ele>460.6</ele><time>2015-11-22T08:51:18.0000000+00:00</time></trkpt><trkpt lat="30.96077269" lon="35.73717875"><ele>460.6</ele><time>2015-11-22T08:51:19.0000000+00:00</time></trkpt><trkpt lat="30.96077512" lon="35.7371604"><ele>460.6</ele><time>2015-11-22T08:51:20.0000000+00:00</time></trkpt><trkpt lat="30.96077973" lon="35.73714213"><ele>461.1</ele><time>2015-11-22T08:51:21.0000000+00:00</time></trkpt><trkpt lat="30.96078342" lon="35.73712251"><ele>461.1</ele><time>2015-11-22T08:51:22.0000000+00:00</time></trkpt><trkpt lat="30.96082239" lon="35.73686007"><ele>464.0</ele><time>2015-11-22T08:51:36.0000000+00:00</time></trkpt><trkpt lat="30.96086456" lon="35.73651524"><ele>466.9</ele><time>2015-11-22T08:51:53.0000000+00:00</time></trkpt><trkpt lat="30.96088752" lon="35.73623453"><ele>469.3</ele><time>2015-11-22T08:52:08.0000000+00:00</time></trkpt><trkpt lat="30.96089079" lon="35.73594829"><ele>471.7</ele><time>2015-11-22T08:52:23.0000000+00:00</time></trkpt><trkpt lat="30.96089012" lon="35.73577965"><ele>473.1</ele><time>2015-11-22T08:52:32.0000000+00:00</time></trkpt><trkpt lat="30.96089859" lon="35.73576146"><ele>473.1</ele><time>2015-11-22T08:52:33.0000000+00:00</time></trkpt><trkpt lat="30.96090848" lon="35.73574637"><ele>473.1</ele><time>2015-11-22T08:52:34.0000000+00:00</time></trkpt><trkpt lat="30.96091309" lon="35.73573103"><ele>473.1</ele><time>2015-11-22T08:52:35.0000000+00:00</time></trkpt><trkpt lat="30.96091703" lon="35.73571586"><ele>473.6</ele><time>2015-11-22T08:52:36.0000000+00:00</time></trkpt><trkpt lat="30.96094125" lon="35.73567487"><ele>473.6</ele><time>2015-11-22T08:52:47.0000000+00:00</time></trkpt><trkpt lat="30.96095072" lon="35.73564034"><ele>474.1</ele><time>2015-11-22T08:52:57.0000000+00:00</time></trkpt><trkpt lat="30.96094217" lon="35.73565308"><ele>474.1</ele><time>2015-11-22T08:53:26.0000000+00:00</time></trkpt><trkpt lat="30.96093832" lon="35.73564"><ele>474.1</ele><time>2015-11-22T08:54:08.0000000+00:00</time></trkpt><trkpt lat="30.96094653" lon="35.73564026"><ele>473.6</ele><time>2015-11-22T08:54:49.0000000+00:00</time></trkpt><trkpt lat="30.96093329" lon="35.73562131"><ele>475.0</ele><time>2015-11-22T08:55:30.0000000+00:00</time></trkpt><trkpt lat="30.96093731" lon="35.7356364"><ele>473.6</ele><time>2015-11-22T08:56:06.0000000+00:00</time></trkpt><trkpt lat="30.96091795" lon="35.73568728"><ele>472.6</ele><time>2015-11-22T08:56:19.0000000+00:00</time></trkpt><trkpt lat="30.96090144" lon="35.73567814"><ele>473.6</ele><time>2015-11-22T08:56:21.0000000+00:00</time></trkpt><trkpt lat="30.96086564" lon="35.73562517"><ele>474.1</ele><time>2015-11-22T08:56:40.0000000+00:00</time></trkpt><trkpt lat="30.96084645" lon="35.73547069"><ele>474.6</ele><time>2015-11-22T08:56:52.0000000+00:00</time></trkpt><trkpt lat="30.96077847" lon="35.73523759"><ele>477.0</ele><time>2015-11-22T08:57:07.0000000+00:00</time></trkpt><trkpt lat="30.96077529" lon="35.7352225"><ele>477.0</ele><time>2015-11-22T08:57:08.0000000+00:00</time></trkpt><trkpt lat="30.96076909" lon="35.7352049"><ele>477.4</ele><time>2015-11-22T08:57:09.0000000+00:00</time></trkpt><trkpt lat="30.96076288" lon="35.73518923"><ele>477.0</ele><time>2015-11-22T08:57:10.0000000+00:00</time></trkpt><trkpt lat="30.96075584" lon="35.73517523"><ele>477.4</ele><time>2015-11-22T08:57:11.0000000+00:00</time></trkpt><trkpt lat="30.96075148" lon="35.73515989"><ele>477.4</ele><time>2015-11-22T08:57:12.0000000+00:00</time></trkpt><trkpt lat="30.96074662" lon="35.7351443"><ele>477.4</ele><time>2015-11-22T08:57:13.0000000+00:00</time></trkpt><trkpt lat="30.96073992" lon="35.73512879"><ele>477.9</ele><time>2015-11-22T08:57:14.0000000+00:00</time></trkpt><trkpt lat="30.96073162" lon="35.73511572"><ele>477.9</ele><time>2015-11-22T08:57:15.0000000+00:00</time></trkpt><trkpt lat="30.9607234" lon="35.73510155"><ele>477.9</ele><time>2015-11-22T08:57:16.0000000+00:00</time></trkpt><trkpt lat="30.96071762" lon="35.73508579"><ele>477.9</ele><time>2015-11-22T08:57:17.0000000+00:00</time></trkpt><trkpt lat="30.96071142" lon="35.73507087"><ele>477.9</ele><time>2015-11-22T08:57:18.0000000+00:00</time></trkpt><trkpt lat="30.96070337" lon="35.73505512"><ele>478.4</ele><time>2015-11-22T08:57:19.0000000+00:00</time></trkpt><trkpt lat="30.96069549" lon="35.73503902"><ele>478.9</ele><time>2015-11-22T08:57:20.0000000+00:00</time></trkpt><trkpt lat="30.96068761" lon="35.73502444"><ele>478.9</ele><time>2015-11-22T08:57:21.0000000+00:00</time></trkpt><trkpt lat="30.96068032" lon="35.73500876"><ele>478.9</ele><time>2015-11-22T08:57:22.0000000+00:00</time></trkpt><trkpt lat="30.96067554" lon="35.73499292"><ele>478.9</ele><time>2015-11-22T08:57:23.0000000+00:00</time></trkpt><trkpt lat="30.96066808" lon="35.73497716"><ele>479.4</ele><time>2015-11-22T08:57:24.0000000+00:00</time></trkpt><trkpt lat="30.96066104" lon="35.73496275"><ele>479.8</ele><time>2015-11-22T08:57:25.0000000+00:00</time></trkpt><trkpt lat="30.96065316" lon="35.73494816"><ele>478.9</ele><time>2015-11-22T08:57:26.0000000+00:00</time></trkpt><trkpt lat="30.96052123" lon="35.73473543"><ele>481.3</ele><time>2015-11-22T08:57:41.0000000+00:00</time></trkpt><trkpt lat="30.9605136" lon="35.73471967"><ele>481.3</ele><time>2015-11-22T08:57:42.0000000+00:00</time></trkpt><trkpt lat="30.96050438" lon="35.73470701"><ele>481.3</ele><time>2015-11-22T08:57:43.0000000+00:00</time></trkpt><trkpt lat="30.96049567" lon="35.73469453"><ele>481.8</ele><time>2015-11-22T08:57:44.0000000+00:00</time></trkpt><trkpt lat="30.96048536" lon="35.73468355"><ele>481.8</ele><time>2015-11-22T08:57:45.0000000+00:00</time></trkpt><trkpt lat="30.96047605" lon="35.73467164"><ele>481.8</ele><time>2015-11-22T08:57:46.0000000+00:00</time></trkpt><trkpt lat="30.96046583" lon="35.73465823"><ele>481.8</ele><time>2015-11-22T08:57:47.0000000+00:00</time></trkpt><trkpt lat="30.96045669" lon="35.73464449"><ele>481.8</ele><time>2015-11-22T08:57:48.0000000+00:00</time></trkpt><trkpt lat="30.96044865" lon="35.73463091"><ele>482.2</ele><time>2015-11-22T08:57:49.0000000+00:00</time></trkpt><trkpt lat="30.96025234" lon="35.73440585"><ele>484.2</ele><time>2015-11-22T08:58:06.0000000+00:00</time></trkpt><trkpt lat="30.96003139" lon="35.73419773"><ele>486.6</ele><time>2015-11-22T08:58:21.0000000+00:00</time></trkpt><trkpt lat="30.95975772" lon="35.73394921"><ele>488.5</ele><time>2015-11-22T08:58:37.0000000+00:00</time></trkpt><trkpt lat="30.95943762" lon="35.73366062"><ele>489.9</ele><time>2015-11-22T08:58:53.0000000+00:00</time></trkpt><trkpt lat="30.95912372" lon="35.73336239"><ele>491.4</ele><time>2015-11-22T08:59:08.0000000+00:00</time></trkpt><trkpt lat="30.95883949" lon="35.73294246"><ele>493.3</ele><time>2015-11-22T08:59:26.0000000+00:00</time></trkpt><trkpt lat="30.9586887" lon="35.73250869"><ele>495.2</ele><time>2015-11-22T08:59:42.0000000+00:00</time></trkpt><trkpt lat="30.95865333" lon="35.73207091"><ele>497.6</ele><time>2015-11-22T08:59:58.0000000+00:00</time></trkpt><trkpt lat="30.95868509" lon="35.73177343"><ele>499.5</ele><time>2015-11-22T09:00:12.0000000+00:00</time></trkpt><trkpt lat="30.95871778" lon="35.73179958"><ele>499.1</ele><time>2015-11-22T09:00:24.0000000+00:00</time></trkpt><trkpt lat="30.95873924" lon="35.73180269"><ele>499.1</ele><time>2015-11-22T09:00:41.0000000+00:00</time></trkpt><trkpt lat="30.95872751" lon="35.73179405"><ele>498.6</ele><time>2015-11-22T09:01:16.0000000+00:00</time></trkpt><trkpt lat="30.95873547" lon="35.73177058"><ele>498.6</ele><time>2015-11-22T09:02:09.0000000+00:00</time></trkpt><trkpt lat="30.95872834" lon="35.73180495"><ele>498.6</ele><time>2015-11-22T09:02:55.0000000+00:00</time></trkpt><trkpt lat="30.95873438" lon="35.73180864"><ele>498.6</ele><time>2015-11-22T09:03:33.0000000+00:00</time></trkpt><trkpt lat="30.95874251" lon="35.73179808"><ele>498.6</ele><time>2015-11-22T09:04:05.0000000+00:00</time></trkpt><trkpt lat="30.95874779" lon="35.73182959"><ele>499.5</ele><time>2015-11-22T09:04:22.0000000+00:00</time></trkpt><trkpt lat="30.95872751" lon="35.7318233"><ele>500.0</ele><time>2015-11-22T09:04:52.0000000+00:00</time></trkpt><trkpt lat="30.95874083" lon="35.73180872"><ele>499.5</ele><time>2015-11-22T09:05:12.0000000+00:00</time></trkpt><trkpt lat="30.95871611" lon="35.73182892"><ele>500.0</ele><time>2015-11-22T09:05:34.0000000+00:00</time></trkpt><trkpt lat="30.95869565" lon="35.73177142"><ele>500.5</ele><time>2015-11-22T09:05:50.0000000+00:00</time></trkpt><trkpt lat="30.95870194" lon="35.73175994"><ele>500.5</ele><time>2015-11-22T09:06:04.0000000+00:00</time></trkpt><trkpt lat="30.95874921" lon="35.73156028"><ele>502.4</ele><time>2015-11-22T09:06:17.0000000+00:00</time></trkpt><trkpt lat="30.95879054" lon="35.7314172"><ele>503.9</ele><time>2015-11-22T09:06:25.0000000+00:00</time></trkpt><trkpt lat="30.9588042" lon="35.73136331"><ele>504.4</ele><time>2015-11-22T09:06:28.0000000+00:00</time></trkpt><trkpt lat="30.95881107" lon="35.73134805"><ele>504.4</ele><time>2015-11-22T09:06:29.0000000+00:00</time></trkpt><trkpt lat="30.9589197" lon="35.73106449"><ele>507.2</ele><time>2015-11-22T09:06:46.0000000+00:00</time></trkpt><trkpt lat="30.9590606" lon="35.73076224"><ele>509.6</ele><time>2015-11-22T09:07:05.0000000+00:00</time></trkpt><trkpt lat="30.95917988" lon="35.73051078"><ele>512.0</ele><time>2015-11-22T09:07:20.0000000+00:00</time></trkpt><trkpt lat="30.95928582" lon="35.73027341"><ele>514.0</ele><time>2015-11-22T09:07:35.0000000+00:00</time></trkpt><trkpt lat="30.95937442" lon="35.73004492"><ele>515.9</ele><time>2015-11-22T09:07:49.0000000+00:00</time></trkpt><trkpt lat="30.95941071" lon="35.72990829"><ele>517.8</ele><time>2015-11-22T09:07:57.0000000+00:00</time></trkpt><trkpt lat="30.9594118" lon="35.72988901"><ele>518.3</ele><time>2015-11-22T09:07:58.0000000+00:00</time></trkpt><trkpt lat="30.95942245" lon="35.72979748"><ele>518.8</ele><time>2015-11-22T09:08:03.0000000+00:00</time></trkpt><trkpt lat="30.95942697" lon="35.72977862"><ele>519.3</ele><time>2015-11-22T09:08:04.0000000+00:00</time></trkpt><trkpt lat="30.95945715" lon="35.72944796"><ele>522.1</ele><time>2015-11-22T09:08:21.0000000+00:00</time></trkpt><trkpt lat="30.95940879" lon="35.72904252"><ele>524.1</ele><time>2015-11-22T09:08:38.0000000+00:00</time></trkpt><trkpt lat="30.95925204" lon="35.72864539"><ele>525.0</ele><time>2015-11-22T09:08:55.0000000+00:00</time></trkpt><trkpt lat="30.95889246" lon="35.72818715"><ele>524.5</ele><time>2015-11-22T09:09:10.0000000+00:00</time></trkpt><trkpt lat="30.95868208" lon="35.72798565"><ele>522.6</ele><time>2015-11-22T09:09:14.0000000+00:00</time></trkpt><trkpt lat="30.95821403" lon="35.72750352"><ele>519.3</ele><time>2015-11-22T09:09:21.0000000+00:00</time></trkpt><trkpt lat="30.958007" lon="35.72724762"><ele>518.3</ele><time>2015-11-22T09:09:24.0000000+00:00</time></trkpt><trkpt lat="30.95789585" lon="35.72705174"><ele>516.9</ele><time>2015-11-22T09:09:26.0000000+00:00</time></trkpt><trkpt lat="30.95785285" lon="35.72694822"><ele>517.3</ele><time>2015-11-22T09:09:27.0000000+00:00</time></trkpt><trkpt lat="30.957749" lon="35.72663516"><ele>517.3</ele><time>2015-11-22T09:09:30.0000000+00:00</time></trkpt><trkpt lat="30.95772654" lon="35.72652586"><ele>517.3</ele><time>2015-11-22T09:09:31.0000000+00:00</time></trkpt><trkpt lat="30.95771187" lon="35.72641932"><ele>516.9</ele><time>2015-11-22T09:09:32.0000000+00:00</time></trkpt><trkpt lat="30.95772922" lon="35.72596092"><ele>518.8</ele><time>2015-11-22T09:09:37.0000000+00:00</time></trkpt><trkpt lat="30.95774506" lon="35.72587886"><ele>519.3</ele><time>2015-11-22T09:09:38.0000000+00:00</time></trkpt><trkpt lat="30.9577863" lon="35.72572555"><ele>520.2</ele><time>2015-11-22T09:09:40.0000000+00:00</time></trkpt><trkpt lat="30.9578086" lon="35.72565364"><ele>521.2</ele><time>2015-11-22T09:09:41.0000000+00:00</time></trkpt><trkpt lat="30.95793466" lon="35.7253632"><ele>523.1</ele><time>2015-11-22T09:09:46.0000000+00:00</time></trkpt><trkpt lat="30.95796282" lon="35.72532213"><ele>523.1</ele><time>2015-11-22T09:09:47.0000000+00:00</time></trkpt><trkpt lat="30.95820774" lon="35.72499457"><ele>526.0</ele><time>2015-11-22T09:09:58.0000000+00:00</time></trkpt><trkpt lat="30.95854872" lon="35.72459416"><ele>528.9</ele><time>2015-11-22T09:10:17.0000000+00:00</time></trkpt><trkpt lat="30.95883957" lon="35.72423408"><ele>531.8</ele><time>2015-11-22T09:10:35.0000000+00:00</time></trkpt><trkpt lat="30.95902464" lon="35.72402813"><ele>533.7</ele><time>2015-11-22T09:10:48.0000000+00:00</time></trkpt><trkpt lat="30.95919069" lon="35.72383627"><ele>534.6</ele><time>2015-11-22T09:11:02.0000000+00:00</time></trkpt><trkpt lat="30.95928918" lon="35.72375329"><ele>536.1</ele><time>2015-11-22T09:11:13.0000000+00:00</time></trkpt><trkpt lat="30.95929152" lon="35.72376695"><ele>535.6</ele><time>2015-11-22T09:11:39.0000000+00:00</time></trkpt><trkpt lat="30.95925925" lon="35.72373921"><ele>535.6</ele><time>2015-11-22T09:12:13.0000000+00:00</time></trkpt><trkpt lat="30.9592792" lon="35.72374265"><ele>536.1</ele><time>2015-11-22T09:12:32.0000000+00:00</time></trkpt><trkpt lat="30.95928599" lon="35.72373795"><ele>536.1</ele><time>2015-11-22T09:12:33.0000000+00:00</time></trkpt><trkpt lat="30.9592937" lon="35.72372639"><ele>535.6</ele><time>2015-11-22T09:12:34.0000000+00:00</time></trkpt><trkpt lat="30.95930167" lon="35.72371406"><ele>535.6</ele><time>2015-11-22T09:12:35.0000000+00:00</time></trkpt><trkpt lat="30.95939227" lon="35.7235383"><ele>536.1</ele><time>2015-11-22T09:12:46.0000000+00:00</time></trkpt><trkpt lat="30.959403" lon="35.72351944"><ele>536.1</ele><time>2015-11-22T09:12:47.0000000+00:00</time></trkpt><trkpt lat="30.95941407" lon="35.72349831"><ele>536.6</ele><time>2015-11-22T09:12:48.0000000+00:00</time></trkpt><trkpt lat="30.95958715" lon="35.72308525"><ele>538.0</ele><time>2015-11-22T09:13:03.0000000+00:00</time></trkpt><trkpt lat="30.95965605" lon="35.72241143"><ele>537.5</ele><time>2015-11-22T09:13:18.0000000+00:00</time></trkpt><trkpt lat="30.95963971" lon="35.72220038"><ele>537.0</ele><time>2015-11-22T09:13:22.0000000+00:00</time></trkpt><trkpt lat="30.95963627" lon="35.72214933"><ele>537.0</ele><time>2015-11-22T09:13:23.0000000+00:00</time></trkpt><trkpt lat="30.95961808" lon="35.72204858"><ele>537.0</ele><time>2015-11-22T09:13:25.0000000+00:00</time></trkpt><trkpt lat="30.95960425" lon="35.72200064"><ele>537.5</ele><time>2015-11-22T09:13:26.0000000+00:00</time></trkpt><trkpt lat="30.95955438" lon="35.7218568"><ele>536.6</ele><time>2015-11-22T09:13:29.0000000+00:00</time></trkpt><trkpt lat="30.95951297" lon="35.72176653"><ele>536.1</ele><time>2015-11-22T09:13:31.0000000+00:00</time></trkpt><trkpt lat="30.9591155" lon="35.72109321"><ele>535.1</ele><time>2015-11-22T09:13:46.0000000+00:00</time></trkpt><trkpt lat="30.95852575" lon="35.72066138"><ele>534.2</ele><time>2015-11-22T09:13:59.0000000+00:00</time></trkpt><trkpt lat="30.95847613" lon="35.72063682"><ele>533.7</ele><time>2015-11-22T09:14:00.0000000+00:00</time></trkpt><trkpt lat="30.95760173" lon="35.72012812"><ele>531.8</ele><time>2015-11-22T09:14:18.0000000+00:00</time></trkpt><trkpt lat="30.95710007" lon="35.71957508"><ele>531.8</ele><time>2015-11-22T09:14:30.0000000+00:00</time></trkpt><trkpt lat="30.95679916" lon="35.71866573"><ele>530.3</ele><time>2015-11-22T09:14:44.0000000+00:00</time></trkpt><trkpt lat="30.95678961" lon="35.7186027"><ele>530.3</ele><time>2015-11-22T09:14:45.0000000+00:00</time></trkpt><trkpt lat="30.95689639" lon="35.71763366"><ele>531.3</ele><time>2015-11-22T09:15:00.0000000+00:00</time></trkpt><trkpt lat="30.95693495" lon="35.71745999"><ele>531.3</ele><time>2015-11-22T09:15:03.0000000+00:00</time></trkpt><trkpt lat="30.95708985" lon="35.71681459"><ele>534.2</ele><time>2015-11-22T09:15:17.0000000+00:00</time></trkpt><trkpt lat="30.95724986" lon="35.71624654"><ele>535.6</ele><time>2015-11-22T09:15:32.0000000+00:00</time></trkpt><trkpt lat="30.95737374" lon="35.71575176"><ele>538.0</ele><time>2015-11-22T09:15:47.0000000+00:00</time></trkpt><trkpt lat="30.95745505" lon="35.7152014"><ele>539.0</ele><time>2015-11-22T09:16:02.0000000+00:00</time></trkpt><trkpt lat="30.95745689" lon="35.71483796"><ele>539.0</ele><time>2015-11-22T09:16:10.0000000+00:00</time></trkpt><trkpt lat="30.95738967" lon="35.71402039"><ele>537.5</ele><time>2015-11-22T09:16:24.0000000+00:00</time></trkpt><trkpt lat="30.95726369" lon="35.71298338"><ele>534.2</ele><time>2015-11-22T09:16:37.0000000+00:00</time></trkpt><trkpt lat="30.95713134" lon="35.71181042"><ele>530.8</ele><time>2015-11-22T09:16:49.0000000+00:00</time></trkpt><trkpt lat="30.95690377" lon="35.71039598"><ele>527.9</ele><time>2015-11-22T09:17:02.0000000+00:00</time></trkpt><trkpt lat="30.95658232" lon="35.70978284"><ele>525.0</ele><time>2015-11-22T09:17:08.0000000+00:00</time></trkpt><trkpt lat="30.95580759" lon="35.70914162"><ele>523.6</ele><time>2015-11-22T09:17:18.0000000+00:00</time></trkpt><trkpt lat="30.95500359" lon="35.70896854"><ele>520.7</ele><time>2015-11-22T09:17:27.0000000+00:00</time></trkpt><trkpt lat="30.9542364" lon="35.70886234"><ele>517.3</ele><time>2015-11-22T09:17:36.0000000+00:00</time></trkpt><trkpt lat="30.95349443" lon="35.70875865"><ele>514.0</ele><time>2015-11-22T09:17:44.0000000+00:00</time></trkpt><trkpt lat="30.95308657" lon="35.70869856"><ele>510.6</ele><time>2015-11-22T09:17:48.0000000+00:00</time></trkpt><trkpt lat="30.95265322" lon="35.70863351"><ele>507.2</ele><time>2015-11-22T09:17:52.0000000+00:00</time></trkpt><trkpt lat="30.95220194" lon="35.70857165"><ele>503.9</ele><time>2015-11-22T09:17:56.0000000+00:00</time></trkpt><trkpt lat="30.95174546" lon="35.70850527"><ele>501.5</ele><time>2015-11-22T09:18:00.0000000+00:00</time></trkpt><trkpt lat="30.95080837" lon="35.7085502"><ele>498.1</ele><time>2015-11-22T09:18:09.0000000+00:00</time></trkpt><trkpt lat="30.95041987" lon="35.70862153"><ele>496.7</ele><time>2015-11-22T09:18:13.0000000+00:00</time></trkpt><trkpt lat="30.94965108" lon="35.70878279"><ele>493.3</ele><time>2015-11-22T09:18:21.0000000+00:00</time></trkpt><trkpt lat="30.94841927" lon="35.7088853"><ele>493.8</ele><time>2015-11-22T09:18:35.0000000+00:00</time></trkpt><trkpt lat="30.94761989" lon="35.70897642"><ele>496.2</ele><time>2015-11-22T09:18:49.0000000+00:00</time></trkpt><trkpt lat="30.94696417" lon="35.70917884"><ele>498.6</ele><time>2015-11-22T09:19:06.0000000+00:00</time></trkpt><trkpt lat="30.94640921" lon="35.70936592"><ele>499.5</ele><time>2015-11-22T09:19:21.0000000+00:00</time></trkpt><trkpt lat="30.94566909" lon="35.70951194"><ele>501.5</ele><time>2015-11-22T09:19:41.0000000+00:00</time></trkpt><trkpt lat="30.94481816" lon="35.70957455"><ele>503.4</ele><time>2015-11-22T09:20:04.0000000+00:00</time></trkpt><trkpt lat="30.94426914" lon="35.70961"><ele>505.3</ele><time>2015-11-22T09:20:20.0000000+00:00</time></trkpt><trkpt lat="30.9437793" lon="35.70962031"><ele>507.7</ele><time>2015-11-22T09:20:37.0000000+00:00</time></trkpt><trkpt lat="30.94342215" lon="35.7096157"><ele>510.1</ele><time>2015-11-22T09:20:51.0000000+00:00</time></trkpt><trkpt lat="30.94310825" lon="35.70962987"><ele>511.1</ele><time>2015-11-22T09:21:04.0000000+00:00</time></trkpt><trkpt lat="30.94270525" lon="35.70974076"><ele>513.0</ele><time>2015-11-22T09:21:21.0000000+00:00</time></trkpt><trkpt lat="30.94227525" lon="35.70992013"><ele>514.9</ele><time>2015-11-22T09:21:38.0000000+00:00</time></trkpt><trkpt lat="30.9418953" lon="35.71008014"><ele>516.9</ele><time>2015-11-22T09:21:52.0000000+00:00</time></trkpt><trkpt lat="30.94147394" lon="35.71026228"><ele>518.8</ele><time>2015-11-22T09:22:09.0000000+00:00</time></trkpt><trkpt lat="30.94110279" lon="35.71043076"><ele>520.2</ele><time>2015-11-22T09:22:24.0000000+00:00</time></trkpt><trkpt lat="30.94066878" lon="35.7106455"><ele>522.1</ele><time>2015-11-22T09:22:42.0000000+00:00</time></trkpt><trkpt lat="30.94025144" lon="35.71092068"><ele>524.1</ele><time>2015-11-22T09:23:00.0000000+00:00</time></trkpt><trkpt lat="30.93988298" lon="35.71118874"><ele>525.5</ele><time>2015-11-22T09:23:16.0000000+00:00</time></trkpt><trkpt lat="30.93947553" lon="35.71150725"><ele>527.4</ele><time>2015-11-22T09:23:35.0000000+00:00</time></trkpt><trkpt lat="30.93906482" lon="35.71181931"><ele>529.3</ele><time>2015-11-22T09:23:53.0000000+00:00</time></trkpt><trkpt lat="30.93875804" lon="35.71206423"><ele>530.8</ele><time>2015-11-22T09:24:07.0000000+00:00</time></trkpt><trkpt lat="30.93841841" lon="35.71234636"><ele>533.2</ele><time>2015-11-22T09:24:23.0000000+00:00</time></trkpt><trkpt lat="30.93808179" lon="35.71259773"><ele>535.6</ele><time>2015-11-22T09:24:40.0000000+00:00</time></trkpt><trkpt lat="30.9378424" lon="35.71278197"><ele>537.5</ele><time>2015-11-22T09:24:53.0000000+00:00</time></trkpt><trkpt lat="30.9375596" lon="35.71297291"><ele>539.0</ele><time>2015-11-22T09:25:07.0000000+00:00</time></trkpt><trkpt lat="30.93723463" lon="35.71317743"><ele>541.4</ele><time>2015-11-22T09:25:23.0000000+00:00</time></trkpt><trkpt lat="30.93682031" lon="35.7133542"><ele>543.8</ele><time>2015-11-22T09:25:42.0000000+00:00</time></trkpt><trkpt lat="30.93648227" lon="35.7134521"><ele>545.2</ele><time>2015-11-22T09:25:57.0000000+00:00</time></trkpt><trkpt lat="30.93605219" lon="35.71355327"><ele>547.1</ele><time>2015-11-22T09:26:15.0000000+00:00</time></trkpt><trkpt lat="30.93571172" lon="35.71362452"><ele>548.6</ele><time>2015-11-22T09:26:27.0000000+00:00</time></trkpt><trkpt lat="30.93522758" lon="35.71372619"><ele>549.1</ele><time>2015-11-22T09:26:43.0000000+00:00</time></trkpt><trkpt lat="30.93465242" lon="35.7138572"><ele>549.1</ele><time>2015-11-22T09:26:58.0000000+00:00</time></trkpt><trkpt lat="30.93418269" lon="35.71395971"><ele>550.5</ele><time>2015-11-22T09:27:12.0000000+00:00</time></trkpt><trkpt lat="30.93378866" lon="35.7140561"><ele>552.4</ele><time>2015-11-22T09:27:26.0000000+00:00</time></trkpt><trkpt lat="30.93328005" lon="35.71413657"><ele>554.8</ele><time>2015-11-22T09:27:44.0000000+00:00</time></trkpt><trkpt lat="30.93266062" lon="35.71415744"><ele>556.7</ele><time>2015-11-22T09:28:05.0000000+00:00</time></trkpt><trkpt lat="30.93218822" lon="35.71416113"><ele>558.7</ele><time>2015-11-22T09:28:20.0000000+00:00</time></trkpt><trkpt lat="30.93187138" lon="35.71416959"><ele>560.1</ele><time>2015-11-22T09:28:33.0000000+00:00</time></trkpt><trkpt lat="30.93184775" lon="35.7141706"><ele>560.6</ele><time>2015-11-22T09:28:34.0000000+00:00</time></trkpt><trkpt lat="30.93182721" lon="35.71417177"><ele>560.1</ele><time>2015-11-22T09:28:35.0000000+00:00</time></trkpt><trkpt lat="30.93148657" lon="35.71417236"><ele>561.6</ele><time>2015-11-22T09:28:50.0000000+00:00</time></trkpt><trkpt lat="30.93110167" lon="35.71418258"><ele>563.0</ele><time>2015-11-22T09:29:06.0000000+00:00</time></trkpt><trkpt lat="30.93066598" lon="35.71418024"><ele>564.9</ele><time>2015-11-22T09:29:22.0000000+00:00</time></trkpt><trkpt lat="30.93013692" lon="35.71417512"><ele>566.8</ele><time>2015-11-22T09:29:41.0000000+00:00</time></trkpt><trkpt lat="30.92969318" lon="35.71416389"><ele>568.3</ele><time>2015-11-22T09:29:56.0000000+00:00</time></trkpt><trkpt lat="30.92922865" lon="35.714082"><ele>570.2</ele><time>2015-11-22T09:30:12.0000000+00:00</time></trkpt><trkpt lat="30.92872465" lon="35.71386617"><ele>572.1</ele><time>2015-11-22T09:30:30.0000000+00:00</time></trkpt><trkpt lat="30.92824973" lon="35.71365184"><ele>574.5</ele><time>2015-11-22T09:30:48.0000000+00:00</time></trkpt><trkpt lat="30.9278308" lon="35.71346115"><ele>576.0</ele><time>2015-11-22T09:31:05.0000000+00:00</time></trkpt><trkpt lat="30.92740484" lon="35.71323585"><ele>578.4</ele><time>2015-11-22T09:31:22.0000000+00:00</time></trkpt><trkpt lat="30.92716763" lon="35.71308296"><ele>579.3</ele><time>2015-11-22T09:31:36.0000000+00:00</time></trkpt><trkpt lat="30.92718573" lon="35.71307433"><ele>578.4</ele><time>2015-11-22T09:31:56.0000000+00:00</time></trkpt><trkpt lat="30.92717417" lon="35.71306142"><ele>578.4</ele><time>2015-11-22T09:32:29.0000000+00:00</time></trkpt><trkpt lat="30.9271833" lon="35.71306687"><ele>578.4</ele><time>2015-11-22T09:33:08.0000000+00:00</time></trkpt><trkpt lat="30.92717668" lon="35.71306913"><ele>578.4</ele><time>2015-11-22T09:33:30.0000000+00:00</time></trkpt><trkpt lat="30.92718263" lon="35.71306628"><ele>578.9</ele><time>2015-11-22T09:34:04.0000000+00:00</time></trkpt><trkpt lat="30.92719227" lon="35.71306829"><ele>578.9</ele><time>2015-11-22T09:34:39.0000000+00:00</time></trkpt><trkpt lat="30.92718892" lon="35.71307508"><ele>578.4</ele><time>2015-11-22T09:35:10.0000000+00:00</time></trkpt><trkpt lat="30.92718883" lon="35.71307525"><ele>578.4</ele><time>2015-11-22T09:35:40.0000000+00:00</time></trkpt><trkpt lat="30.92718263" lon="35.7130719"><ele>578.4</ele><time>2015-11-22T09:36:17.0000000+00:00</time></trkpt><trkpt lat="30.92718783" lon="35.71307299"><ele>578.4</ele><time>2015-11-22T09:37:04.0000000+00:00</time></trkpt><trkpt lat="30.92719403" lon="35.71309185"><ele>578.4</ele><time>2015-11-22T09:37:48.0000000+00:00</time></trkpt><trkpt lat="30.92716838" lon="35.71309193"><ele>578.9</ele><time>2015-11-22T09:38:25.0000000+00:00</time></trkpt><trkpt lat="30.92716117" lon="35.71309872"><ele>578.4</ele><time>2015-11-22T09:38:52.0000000+00:00</time></trkpt><trkpt lat="30.92709823" lon="35.7130843"><ele>578.9</ele><time>2015-11-22T09:39:04.0000000+00:00</time></trkpt><trkpt lat="30.92708373" lon="35.71308296"><ele>579.3</ele><time>2015-11-22T09:39:05.0000000+00:00</time></trkpt><trkpt lat="30.92707266" lon="35.71307978"><ele>578.9</ele><time>2015-11-22T09:39:06.0000000+00:00</time></trkpt><trkpt lat="30.92706772" lon="35.71307844"><ele>578.9</ele><time>2015-11-22T09:39:07.0000000+00:00</time></trkpt><trkpt lat="30.927059" lon="35.7130698"><ele>579.3</ele><time>2015-11-22T09:39:08.0000000+00:00</time></trkpt><trkpt lat="30.92704651" lon="35.71305832"><ele>578.9</ele><time>2015-11-22T09:39:09.0000000+00:00</time></trkpt><trkpt lat="30.92674501" lon="35.71293309"><ele>580.3</ele><time>2015-11-22T09:39:24.0000000+00:00</time></trkpt><trkpt lat="30.9263861" lon="35.7128139"><ele>582.2</ele><time>2015-11-22T09:39:40.0000000+00:00</time></trkpt><trkpt lat="30.92591839" lon="35.7126632"><ele>583.7</ele><time>2015-11-22T09:40:00.0000000+00:00</time></trkpt><trkpt lat="30.92555973" lon="35.71255842"><ele>584.6</ele><time>2015-11-22T09:40:14.0000000+00:00</time></trkpt><trkpt lat="30.92507475" lon="35.71243144"><ele>586.5</ele><time>2015-11-22T09:40:33.0000000+00:00</time></trkpt><trkpt lat="30.92460101" lon="35.71230328"><ele>588.5</ele><time>2015-11-22T09:40:50.0000000+00:00</time></trkpt><trkpt lat="30.92413606" lon="35.71214821"><ele>589.0</ele><time>2015-11-22T09:41:06.0000000+00:00</time></trkpt><trkpt lat="30.92369459" lon="35.71200329"><ele>590.9</ele><time>2015-11-22T09:41:22.0000000+00:00</time></trkpt><trkpt lat="30.92330617" lon="35.71184554"><ele>592.3</ele><time>2015-11-22T09:41:37.0000000+00:00</time></trkpt><trkpt lat="30.92300015" lon="35.71168561"><ele>594.7</ele><time>2015-11-22T09:41:52.0000000+00:00</time></trkpt><trkpt lat="30.92269873" lon="35.71147456"><ele>597.1</ele><time>2015-11-22T09:42:08.0000000+00:00</time></trkpt><trkpt lat="30.92240084" lon="35.71125261"><ele>599.0</ele><time>2015-11-22T09:42:25.0000000+00:00</time></trkpt><trkpt lat="30.92209465" lon="35.71102579"><ele>601.0</ele><time>2015-11-22T09:42:41.0000000+00:00</time></trkpt><trkpt lat="30.92182936" lon="35.71083083"><ele>602.9</ele><time>2015-11-22T09:42:56.0000000+00:00</time></trkpt><trkpt lat="30.92146089" lon="35.71056521"><ele>604.8</ele><time>2015-11-22T09:43:13.0000000+00:00</time></trkpt><trkpt lat="30.921135" lon="35.71031911"><ele>607.2</ele><time>2015-11-22T09:43:28.0000000+00:00</time></trkpt><trkpt lat="30.92085614" lon="35.71011518"><ele>609.1</ele><time>2015-11-22T09:43:41.0000000+00:00</time></trkpt><trkpt lat="30.92050175" lon="35.70983288"><ele>611.5</ele><time>2015-11-22T09:43:58.0000000+00:00</time></trkpt><trkpt lat="30.92020034" lon="35.70952107"><ele>613.5</ele><time>2015-11-22T09:44:14.0000000+00:00</time></trkpt><trkpt lat="30.9198918" lon="35.70920348"><ele>615.4</ele><time>2015-11-22T09:44:29.0000000+00:00</time></trkpt><trkpt lat="30.91952384" lon="35.70875865"><ele>617.3</ele><time>2015-11-22T09:44:46.0000000+00:00</time></trkpt><trkpt lat="30.91917255" lon="35.70826085"><ele>618.8</ele><time>2015-11-22T09:45:04.0000000+00:00</time></trkpt><trkpt lat="30.91878254" lon="35.70774503"><ele>620.7</ele><time>2015-11-22T09:45:23.0000000+00:00</time></trkpt><trkpt lat="30.91840116" lon="35.7073779"><ele>623.1</ele><time>2015-11-22T09:45:39.0000000+00:00</time></trkpt><trkpt lat="30.91810076" lon="35.70709543"><ele>625.5</ele><time>2015-11-22T09:45:53.0000000+00:00</time></trkpt><trkpt lat="30.91781426" lon="35.70682704"><ele>628.4</ele><time>2015-11-22T09:46:08.0000000+00:00</time></trkpt><trkpt lat="30.91751344" lon="35.7065496"><ele>631.2</ele><time>2015-11-22T09:46:26.0000000+00:00</time></trkpt><trkpt lat="30.91722619" lon="35.70628155"><ele>633.7</ele><time>2015-11-22T09:46:44.0000000+00:00</time></trkpt><trkpt lat="30.91697641" lon="35.70604954"><ele>636.1</ele><time>2015-11-22T09:47:00.0000000+00:00</time></trkpt><trkpt lat="30.91667684" lon="35.7058249"><ele>638.5</ele><time>2015-11-22T09:47:18.0000000+00:00</time></trkpt><trkpt lat="30.91640426" lon="35.70570462"><ele>639.9</ele><time>2015-11-22T09:47:32.0000000+00:00</time></trkpt><trkpt lat="30.91611961" lon="35.70563078"><ele>642.8</ele><time>2015-11-22T09:47:47.0000000+00:00</time></trkpt><trkpt lat="30.91586178" lon="35.70558309"><ele>645.2</ele><time>2015-11-22T09:48:02.0000000+00:00</time></trkpt><trkpt lat="30.91559675" lon="35.70554864"><ele>647.1</ele><time>2015-11-22T09:48:17.0000000+00:00</time></trkpt><trkpt lat="30.9153696" lon="35.70552458"><ele>648.6</ele><time>2015-11-22T09:48:32.0000000+00:00</time></trkpt><trkpt lat="30.91537002" lon="35.70551888"><ele>648.1</ele><time>2015-11-22T09:48:50.0000000+00:00</time></trkpt><trkpt lat="30.91533548" lon="35.7055141"><ele>648.6</ele><time>2015-11-22T09:49:06.0000000+00:00</time></trkpt><trkpt lat="30.9153276" lon="35.70549147"><ele>648.1</ele><time>2015-11-22T09:49:21.0000000+00:00</time></trkpt><trkpt lat="30.91533758" lon="35.70548778"><ele>648.1</ele><time>2015-11-22T09:49:56.0000000+00:00</time></trkpt><trkpt lat="30.91535367" lon="35.70547764"><ele>648.1</ele><time>2015-11-22T09:50:27.0000000+00:00</time></trkpt><trkpt lat="30.91534847" lon="35.70548007"><ele>648.1</ele><time>2015-11-22T09:50:54.0000000+00:00</time></trkpt><trkpt lat="30.91532827" lon="35.70549767"><ele>648.1</ele><time>2015-11-22T09:51:37.0000000+00:00</time></trkpt><trkpt lat="30.91533842" lon="35.70550329"><ele>648.6</ele><time>2015-11-22T09:52:20.0000000+00:00</time></trkpt><trkpt lat="30.91532836" lon="35.7054996"><ele>648.6</ele><time>2015-11-22T09:52:39.0000000+00:00</time></trkpt><trkpt lat="30.91534093" lon="35.70550782"><ele>648.6</ele><time>2015-11-22T09:53:06.0000000+00:00</time></trkpt><trkpt lat="30.91532107" lon="35.70549399"><ele>649.0</ele><time>2015-11-22T09:53:32.0000000+00:00</time></trkpt><trkpt lat="30.9153183" lon="35.70549332"><ele>648.6</ele><time>2015-11-22T09:53:55.0000000+00:00</time></trkpt><trkpt lat="30.91528947" lon="35.70549784"><ele>648.6</ele><time>2015-11-22T09:54:07.0000000+00:00</time></trkpt><trkpt lat="30.91527572" lon="35.70550178"><ele>648.6</ele><time>2015-11-22T09:54:08.0000000+00:00</time></trkpt><trkpt lat="30.91526222" lon="35.70550463"><ele>648.6</ele><time>2015-11-22T09:54:09.0000000+00:00</time></trkpt><trkpt lat="30.91524948" lon="35.70550296"><ele>648.6</ele><time>2015-11-22T09:54:10.0000000+00:00</time></trkpt><trkpt lat="30.91523222" lon="35.70549952"><ele>648.6</ele><time>2015-11-22T09:54:11.0000000+00:00</time></trkpt><trkpt lat="30.91494237" lon="35.70545509"><ele>650.0</ele><time>2015-11-22T09:54:25.0000000+00:00</time></trkpt><trkpt lat="30.91457767" lon="35.70533037"><ele>652.4</ele><time>2015-11-22T09:54:43.0000000+00:00</time></trkpt><trkpt lat="30.91426" lon="35.70509836"><ele>654.3</ele><time>2015-11-22T09:55:01.0000000+00:00</time></trkpt><trkpt lat="30.91401919" lon="35.7047977"><ele>655.8</ele><time>2015-11-22T09:55:16.0000000+00:00</time></trkpt><trkpt lat="30.91376949" lon="35.70431926"><ele>657.7</ele><time>2015-11-22T09:55:35.0000000+00:00</time></trkpt><trkpt lat="30.91337638" lon="35.70395465"><ele>659.1</ele><time>2015-11-22T09:55:54.0000000+00:00</time></trkpt><trkpt lat="30.91312132" lon="35.70385474"><ele>661.0</ele><time>2015-11-22T09:56:08.0000000+00:00</time></trkpt><trkpt lat="30.91287187" lon="35.70382599"><ele>663.5</ele><time>2015-11-22T09:56:23.0000000+00:00</time></trkpt><trkpt lat="30.91271421" lon="35.70381828"><ele>665.4</ele><time>2015-11-22T09:56:33.0000000+00:00</time></trkpt><trkpt lat="30.91269879" lon="35.70381325"><ele>665.4</ele><time>2015-11-22T09:56:34.0000000+00:00</time></trkpt><trkpt lat="30.91268328" lon="35.70381157"><ele>665.4</ele><time>2015-11-22T09:56:35.0000000+00:00</time></trkpt><trkpt lat="30.91266895" lon="35.70380922"><ele>665.4</ele><time>2015-11-22T09:56:36.0000000+00:00</time></trkpt><trkpt lat="30.91265386" lon="35.70380411"><ele>665.9</ele><time>2015-11-22T09:56:37.0000000+00:00</time></trkpt><trkpt lat="30.91263693" lon="35.70380151"><ele>665.9</ele><time>2015-11-22T09:56:38.0000000+00:00</time></trkpt><trkpt lat="30.91261949" lon="35.70380193"><ele>665.9</ele><time>2015-11-22T09:56:39.0000000+00:00</time></trkpt><trkpt lat="30.91260156" lon="35.70380537"><ele>666.3</ele><time>2015-11-22T09:56:40.0000000+00:00</time></trkpt><trkpt lat="30.91234675" lon="35.70377553"><ele>669.2</ele><time>2015-11-22T09:56:56.0000000+00:00</time></trkpt><trkpt lat="30.91216226" lon="35.70372951"><ele>671.6</ele><time>2015-11-22T09:57:09.0000000+00:00</time></trkpt><trkpt lat="30.91214751" lon="35.70372457"><ele>672.1</ele><time>2015-11-22T09:57:10.0000000+00:00</time></trkpt><trkpt lat="30.91213133" lon="35.70372297"><ele>672.1</ele><time>2015-11-22T09:57:11.0000000+00:00</time></trkpt><trkpt lat="30.9119191" lon="35.70365424"><ele>675.0</ele><time>2015-11-22T09:57:27.0000000+00:00</time></trkpt><trkpt lat="30.91176957" lon="35.7035814"><ele>676.4</ele><time>2015-11-22T09:57:38.0000000+00:00</time></trkpt><trkpt lat="30.91176001" lon="35.7035721"><ele>676.4</ele><time>2015-11-22T09:57:39.0000000+00:00</time></trkpt><trkpt lat="30.91174618" lon="35.70356699"><ele>676.9</ele><time>2015-11-22T09:57:40.0000000+00:00</time></trkpt><trkpt lat="30.9117342" lon="35.70356171"><ele>676.9</ele><time>2015-11-22T09:57:41.0000000+00:00</time></trkpt><trkpt lat="30.9117228" lon="35.70355919"><ele>676.9</ele><time>2015-11-22T09:57:42.0000000+00:00</time></trkpt><trkpt lat="30.91170846" lon="35.70355819"><ele>677.4</ele><time>2015-11-22T09:57:43.0000000+00:00</time></trkpt><trkpt lat="30.91169514" lon="35.70355483"><ele>677.4</ele><time>2015-11-22T09:57:44.0000000+00:00</time></trkpt><trkpt lat="30.911685" lon="35.70354637"><ele>677.4</ele><time>2015-11-22T09:57:45.0000000+00:00</time></trkpt><trkpt lat="30.91167443" lon="35.70353505"><ele>677.4</ele><time>2015-11-22T09:57:46.0000000+00:00</time></trkpt><trkpt lat="30.91149565" lon="35.70340153"><ele>679.8</ele><time>2015-11-22T09:58:02.0000000+00:00</time></trkpt><trkpt lat="30.91126221" lon="35.70317329"><ele>682.7</ele><time>2015-11-22T09:58:22.0000000+00:00</time></trkpt><trkpt lat="30.91120915" lon="35.70313021"><ele>683.2</ele><time>2015-11-22T09:58:27.0000000+00:00</time></trkpt><trkpt lat="30.9112001" lon="35.70311964"><ele>683.6</ele><time>2015-11-22T09:58:28.0000000+00:00</time></trkpt><trkpt lat="30.91107421" lon="35.70300976"><ele>685.1</ele><time>2015-11-22T09:58:39.0000000+00:00</time></trkpt><trkpt lat="30.9110623" lon="35.70300196"><ele>685.1</ele><time>2015-11-22T09:58:40.0000000+00:00</time></trkpt><trkpt lat="30.91085242" lon="35.70281572"><ele>688.0</ele><time>2015-11-22T09:58:57.0000000+00:00</time></trkpt><trkpt lat="30.91067322" lon="35.70262838"><ele>689.9</ele><time>2015-11-22T09:59:13.0000000+00:00</time></trkpt><trkpt lat="30.91049066" lon="35.70247516"><ele>692.8</ele><time>2015-11-22T09:59:28.0000000+00:00</time></trkpt><trkpt lat="30.91027734" lon="35.70225907"><ele>695.7</ele><time>2015-11-22T09:59:47.0000000+00:00</time></trkpt><trkpt lat="30.91007684" lon="35.70207652"><ele>698.1</ele><time>2015-11-22T10:00:04.0000000+00:00</time></trkpt><trkpt lat="30.90986663" lon="35.70185926"><ele>700.0</ele><time>2015-11-22T10:00:22.0000000+00:00</time></trkpt><trkpt lat="30.90971089" lon="35.70167712"><ele>702.4</ele><time>2015-11-22T10:00:36.0000000+00:00</time></trkpt><trkpt lat="30.90957452" lon="35.7014783"><ele>703.8</ele><time>2015-11-22T10:00:49.0000000+00:00</time></trkpt><trkpt lat="30.90940981" lon="35.70120036"><ele>705.8</ele><time>2015-11-22T10:01:07.0000000+00:00</time></trkpt><trkpt lat="30.9092845" lon="35.70093784"><ele>708.2</ele><time>2015-11-22T10:01:23.0000000+00:00</time></trkpt><trkpt lat="30.90920672" lon="35.70064019"><ele>711.0</ele><time>2015-11-22T10:01:38.0000000+00:00</time></trkpt><trkpt lat="30.90917202" lon="35.7003677"><ele>713.4</ele><time>2015-11-22T10:01:53.0000000+00:00</time></trkpt><trkpt lat="30.90916313" lon="35.70003737"><ele>716.3</ele><time>2015-11-22T10:02:11.0000000+00:00</time></trkpt><trkpt lat="30.9091721" lon="35.69987442"><ele>718.2</ele><time>2015-11-22T10:02:20.0000000+00:00</time></trkpt><trkpt lat="30.90917638" lon="35.69985674"><ele>718.2</ele><time>2015-11-22T10:02:21.0000000+00:00</time></trkpt><trkpt lat="30.90921166" lon="35.6995793"><ele>720.7</ele><time>2015-11-22T10:02:37.0000000+00:00</time></trkpt><trkpt lat="30.9092809" lon="35.69934368"><ele>724.0</ele><time>2015-11-22T10:02:52.0000000+00:00</time></trkpt><trkpt lat="30.90937184" lon="35.69911703"><ele>726.4</ele><time>2015-11-22T10:03:07.0000000+00:00</time></trkpt><trkpt lat="30.90947251" lon="35.69889533"><ele>728.8</ele><time>2015-11-22T10:03:23.0000000+00:00</time></trkpt><trkpt lat="30.90959027" lon="35.69866911"><ele>731.2</ele><time>2015-11-22T10:03:39.0000000+00:00</time></trkpt><trkpt lat="30.90976856" lon="35.69844682"><ele>734.1</ele><time>2015-11-22T10:03:56.0000000+00:00</time></trkpt><trkpt lat="30.90983519" lon="35.69837666"><ele>734.6</ele><time>2015-11-22T10:04:02.0000000+00:00</time></trkpt><trkpt lat="30.9098455" lon="35.69837138"><ele>734.1</ele><time>2015-11-22T10:04:03.0000000+00:00</time></trkpt><trkpt lat="30.90985673" lon="35.6983609"><ele>734.6</ele><time>2015-11-22T10:04:04.0000000+00:00</time></trkpt><trkpt lat="30.91001876" lon="35.69821556"><ele>735.6</ele><time>2015-11-22T10:04:15.0000000+00:00</time></trkpt><trkpt lat="30.9103076" lon="35.69801657"><ele>736.0</ele><time>2015-11-22T10:04:28.0000000+00:00</time></trkpt><trkpt lat="30.91055411" lon="35.69790199"><ele>736.5</ele><time>2015-11-22T10:04:39.0000000+00:00</time></trkpt><trkpt lat="30.91057615" lon="35.69791641"><ele>736.5</ele><time>2015-11-22T10:04:48.0000000+00:00</time></trkpt><trkpt lat="30.91058697" lon="35.69790543"><ele>736.5</ele><time>2015-11-22T10:04:56.0000000+00:00</time></trkpt><trkpt lat="30.91059744" lon="35.69790007"><ele>736.5</ele><time>2015-11-22T10:04:57.0000000+00:00</time></trkpt><trkpt lat="30.91091872" lon="35.69783544"><ele>736.5</ele><time>2015-11-22T10:05:11.0000000+00:00</time></trkpt><trkpt lat="30.91140839" lon="35.69781683"><ele>737.0</ele><time>2015-11-22T10:05:25.0000000+00:00</time></trkpt><trkpt lat="30.91145424" lon="35.69781725"><ele>736.5</ele><time>2015-11-22T10:05:26.0000000+00:00</time></trkpt><trkpt lat="30.9116404" lon="35.69782195"><ele>737.0</ele><time>2015-11-22T10:05:30.0000000+00:00</time></trkpt><trkpt lat="30.91173579" lon="35.69782438"><ele>737.0</ele><time>2015-11-22T10:05:32.0000000+00:00</time></trkpt><trkpt lat="30.91246191" lon="35.69788137"><ele>737.5</ele><time>2015-11-22T10:05:49.0000000+00:00</time></trkpt><trkpt lat="30.91308058" lon="35.69794608"><ele>739.9</ele><time>2015-11-22T10:06:08.0000000+00:00</time></trkpt><trkpt lat="30.91342541" lon="35.69797022"><ele>740.8</ele><time>2015-11-22T10:06:20.0000000+00:00</time></trkpt><trkpt lat="30.91387619" lon="35.69801171"><ele>741.8</ele><time>2015-11-22T10:06:34.0000000+00:00</time></trkpt><trkpt lat="30.91424609" lon="35.69804541"><ele>741.8</ele><time>2015-11-22T10:06:45.0000000+00:00</time></trkpt><trkpt lat="30.91466409" lon="35.69807047"><ele>740.8</ele><time>2015-11-22T10:06:56.0000000+00:00</time></trkpt><trkpt lat="30.91520665" lon="35.69817239"><ele>742.3</ele><time>2015-11-22T10:07:10.0000000+00:00</time></trkpt><trkpt lat="30.91550446" lon="35.69828371"><ele>745.6</ele><time>2015-11-22T10:07:24.0000000+00:00</time></trkpt><trkpt lat="30.91576547" lon="35.69841924"><ele>748.0</ele><time>2015-11-22T10:07:38.0000000+00:00</time></trkpt><trkpt lat="30.91591341" lon="35.69849099"><ele>749.0</ele><time>2015-11-22T10:07:47.0000000+00:00</time></trkpt><trkpt lat="30.91592817" lon="35.69850013"><ele>749.0</ele><time>2015-11-22T10:07:48.0000000+00:00</time></trkpt><trkpt lat="30.91618499" lon="35.69863918"><ele>751.9</ele><time>2015-11-22T10:08:05.0000000+00:00</time></trkpt><trkpt lat="30.91642622" lon="35.69876072"><ele>754.8</ele><time>2015-11-22T10:08:22.0000000+00:00</time></trkpt><trkpt lat="30.91667634" lon="35.698895"><ele>757.2</ele><time>2015-11-22T10:08:39.0000000+00:00</time></trkpt><trkpt lat="30.91674641" lon="35.69893632"><ele>758.1</ele><time>2015-11-22T10:08:44.0000000+00:00</time></trkpt><trkpt lat="30.91675923" lon="35.69894345"><ele>758.6</ele><time>2015-11-22T10:08:45.0000000+00:00</time></trkpt><trkpt lat="30.91698144" lon="35.699053"><ele>760.5</ele><time>2015-11-22T10:09:01.0000000+00:00</time></trkpt><trkpt lat="30.91718252" lon="35.69916573"><ele>762.9</ele><time>2015-11-22T10:09:16.0000000+00:00</time></trkpt><trkpt lat="30.917352" lon="35.69925257"><ele>764.4</ele><time>2015-11-22T10:09:28.0000000+00:00</time></trkpt><trkpt lat="30.91736759" lon="35.69925592"><ele>764.4</ele><time>2015-11-22T10:09:29.0000000+00:00</time></trkpt><trkpt lat="30.91738218" lon="35.69926372"><ele>764.9</ele><time>2015-11-22T10:09:30.0000000+00:00</time></trkpt><trkpt lat="30.91739642" lon="35.69927235"><ele>764.9</ele><time>2015-11-22T10:09:31.0000000+00:00</time></trkpt><trkpt lat="30.91741176" lon="35.69928065"><ele>764.9</ele><time>2015-11-22T10:09:32.0000000+00:00</time></trkpt><trkpt lat="30.91742618" lon="35.69928777"><ele>765.4</ele><time>2015-11-22T10:09:33.0000000+00:00</time></trkpt><trkpt lat="30.91744043" lon="35.69929658"><ele>765.4</ele><time>2015-11-22T10:09:34.0000000+00:00</time></trkpt><trkpt lat="30.91745468" lon="35.69930412"><ele>765.4</ele><time>2015-11-22T10:09:35.0000000+00:00</time></trkpt><trkpt lat="30.91746884" lon="35.69931032"><ele>765.4</ele><time>2015-11-22T10:09:36.0000000+00:00</time></trkpt><trkpt lat="30.91748385" lon="35.69931686"><ele>765.8</ele><time>2015-11-22T10:09:37.0000000+00:00</time></trkpt><trkpt lat="30.91749793" lon="35.69932398"><ele>765.8</ele><time>2015-11-22T10:09:38.0000000+00:00</time></trkpt><trkpt lat="30.91772709" lon="35.69945726"><ele>767.3</ele><time>2015-11-22T10:09:53.0000000+00:00</time></trkpt><trkpt lat="30.91787059" lon="35.69954485"><ele>767.8</ele><time>2015-11-22T10:10:05.0000000+00:00</time></trkpt><trkpt lat="30.91787034" lon="35.69954057"><ele>768.2</ele><time>2015-11-22T10:10:20.0000000+00:00</time></trkpt><trkpt lat="30.91788182" lon="35.69953219"><ele>768.2</ele><time>2015-11-22T10:10:43.0000000+00:00</time></trkpt><trkpt lat="30.91788149" lon="35.69954082"><ele>768.2</ele><time>2015-11-22T10:11:06.0000000+00:00</time></trkpt><trkpt lat="30.917898" lon="35.69956253"><ele>768.7</ele><time>2015-11-22T10:11:24.0000000+00:00</time></trkpt><trkpt lat="30.91789071" lon="35.69955013"><ele>768.7</ele><time>2015-11-22T10:11:49.0000000+00:00</time></trkpt><trkpt lat="30.91790395" lon="35.69955365"><ele>768.7</ele><time>2015-11-22T10:12:14.0000000+00:00</time></trkpt><trkpt lat="30.91791661" lon="35.69955398"><ele>768.7</ele><time>2015-11-22T10:12:15.0000000+00:00</time></trkpt><trkpt lat="30.91792884" lon="35.69955734"><ele>768.7</ele><time>2015-11-22T10:12:16.0000000+00:00</time></trkpt><trkpt lat="30.91795265" lon="35.69956186"><ele>768.7</ele><time>2015-11-22T10:12:18.0000000+00:00</time></trkpt><trkpt lat="30.91796732" lon="35.69956983"><ele>768.7</ele><time>2015-11-22T10:12:19.0000000+00:00</time></trkpt><trkpt lat="30.91798475" lon="35.69957938"><ele>769.2</ele><time>2015-11-22T10:12:20.0000000+00:00</time></trkpt><trkpt lat="30.91800495" lon="35.69958894"><ele>769.2</ele><time>2015-11-22T10:12:21.0000000+00:00</time></trkpt><trkpt lat="30.91802591" lon="35.69960193"><ele>769.2</ele><time>2015-11-22T10:12:22.0000000+00:00</time></trkpt><trkpt lat="30.91840443" lon="35.69979647"><ele>769.7</ele><time>2015-11-22T10:12:38.0000000+00:00</time></trkpt><trkpt lat="30.91884188" lon="35.69988968"><ele>770.2</ele><time>2015-11-22T10:12:51.0000000+00:00</time></trkpt><trkpt lat="30.919192" lon="35.69984316"><ele>770.6</ele><time>2015-11-22T10:13:03.0000000+00:00</time></trkpt><trkpt lat="30.91946566" lon="35.69967837"><ele>772.6</ele><time>2015-11-22T10:13:17.0000000+00:00</time></trkpt><trkpt lat="30.91965962" lon="35.6994441"><ele>775.0</ele><time>2015-11-22T10:13:32.0000000+00:00</time></trkpt><trkpt lat="30.91978619" lon="35.69919189"><ele>778.3</ele><time>2015-11-22T10:13:49.0000000+00:00</time></trkpt><trkpt lat="30.91982709" lon="35.69901511"><ele>780.3</ele><time>2015-11-22T10:14:01.0000000+00:00</time></trkpt><trkpt lat="30.91982843" lon="35.69886549"><ele>781.7</ele><time>2015-11-22T10:14:11.0000000+00:00</time></trkpt><trkpt lat="30.91980689" lon="35.69873088"><ele>782.7</ele><time>2015-11-22T10:14:20.0000000+00:00</time></trkpt><trkpt lat="30.91977747" lon="35.69865226"><ele>783.6</ele><time>2015-11-22T10:14:25.0000000+00:00</time></trkpt><trkpt lat="30.91977412" lon="35.69863524"><ele>783.6</ele><time>2015-11-22T10:14:26.0000000+00:00</time></trkpt><trkpt lat="30.91976222" lon="35.69860633"><ele>783.6</ele><time>2015-11-22T10:14:28.0000000+00:00</time></trkpt><trkpt lat="30.91975543" lon="35.698594"><ele>784.1</ele><time>2015-11-22T10:14:29.0000000+00:00</time></trkpt><trkpt lat="30.91974629" lon="35.69858403"><ele>784.1</ele><time>2015-11-22T10:14:30.0000000+00:00</time></trkpt><trkpt lat="30.9197395" lon="35.69857146"><ele>784.1</ele><time>2015-11-22T10:14:31.0000000+00:00</time></trkpt><trkpt lat="30.91973833" lon="35.69855629"><ele>784.6</ele><time>2015-11-22T10:14:32.0000000+00:00</time></trkpt><trkpt lat="30.91973623" lon="35.69854153"><ele>784.6</ele><time>2015-11-22T10:14:33.0000000+00:00</time></trkpt><trkpt lat="30.91973062" lon="35.69852603"><ele>784.6</ele><time>2015-11-22T10:14:34.0000000+00:00</time></trkpt><trkpt lat="30.91972383" lon="35.6985132"><ele>785.1</ele><time>2015-11-22T10:14:35.0000000+00:00</time></trkpt><trkpt lat="30.91960816" lon="35.69826879"><ele>787.5</ele><time>2015-11-22T10:14:52.0000000+00:00</time></trkpt><trkpt lat="30.91950816" lon="35.69806083"><ele>789.4</ele><time>2015-11-22T10:15:07.0000000+00:00</time></trkpt><trkpt lat="30.91936483" lon="35.69781289"><ele>792.3</ele><time>2015-11-22T10:15:24.0000000+00:00</time></trkpt><trkpt lat="30.91934572" lon="35.69776746"><ele>792.7</ele><time>2015-11-22T10:15:27.0000000+00:00</time></trkpt><trkpt lat="30.91934119" lon="35.6977512"><ele>792.7</ele><time>2015-11-22T10:15:28.0000000+00:00</time></trkpt><trkpt lat="30.91933105" lon="35.69773762"><ele>792.7</ele><time>2015-11-22T10:15:29.0000000+00:00</time></trkpt><trkpt lat="30.91932074" lon="35.69772547"><ele>792.7</ele><time>2015-11-22T10:15:30.0000000+00:00</time></trkpt><trkpt lat="30.91930976" lon="35.69771374"><ele>793.2</ele><time>2015-11-22T10:15:31.0000000+00:00</time></trkpt><trkpt lat="30.91930197" lon="35.69769957"><ele>793.2</ele><time>2015-11-22T10:15:32.0000000+00:00</time></trkpt><trkpt lat="30.91929367" lon="35.69768474"><ele>793.2</ele><time>2015-11-22T10:15:33.0000000+00:00</time></trkpt><trkpt lat="30.91915704" lon="35.6974601"><ele>795.6</ele><time>2015-11-22T10:15:49.0000000+00:00</time></trkpt><trkpt lat="30.91901547" lon="35.69722951"><ele>798.5</ele><time>2015-11-22T10:16:06.0000000+00:00</time></trkpt><trkpt lat="30.91886921" lon="35.697012"><ele>800.4</ele><time>2015-11-22T10:16:22.0000000+00:00</time></trkpt><trkpt lat="30.9186605" lon="35.69671352"><ele>802.8</ele><time>2015-11-22T10:16:41.0000000+00:00</time></trkpt><trkpt lat="30.91859587" lon="35.69661185"><ele>803.3</ele><time>2015-11-22T10:16:47.0000000+00:00</time></trkpt><trkpt lat="30.91858473" lon="35.69659526"><ele>803.3</ele><time>2015-11-22T10:16:48.0000000+00:00</time></trkpt><trkpt lat="30.91837627" lon="35.6963065"><ele>805.2</ele><time>2015-11-22T10:17:06.0000000+00:00</time></trkpt><trkpt lat="30.91822984" lon="35.69610273"><ele>806.7</ele><time>2015-11-22T10:17:20.0000000+00:00</time></trkpt><trkpt lat="30.91821919" lon="35.69608941"><ele>807.2</ele><time>2015-11-22T10:17:21.0000000+00:00</time></trkpt><trkpt lat="30.91806312" lon="35.69582932"><ele>808.6</ele><time>2015-11-22T10:17:38.0000000+00:00</time></trkpt><trkpt lat="30.91790252" lon="35.6956165"><ele>810.1</ele><time>2015-11-22T10:17:53.0000000+00:00</time></trkpt><trkpt lat="30.91788174" lon="35.69558934"><ele>810.1</ele><time>2015-11-22T10:17:55.0000000+00:00</time></trkpt><trkpt lat="30.91787528" lon="35.69557266"><ele>810.1</ele><time>2015-11-22T10:17:56.0000000+00:00</time></trkpt><trkpt lat="30.91786573" lon="35.69555473"><ele>810.5</ele><time>2015-11-22T10:17:57.0000000+00:00</time></trkpt><trkpt lat="30.91785458" lon="35.69553914"><ele>810.5</ele><time>2015-11-22T10:17:58.0000000+00:00</time></trkpt><trkpt lat="30.91784385" lon="35.69552329"><ele>810.5</ele><time>2015-11-22T10:17:59.0000000+00:00</time></trkpt><trkpt lat="30.91783253" lon="35.69550544"><ele>810.5</ele><time>2015-11-22T10:18:00.0000000+00:00</time></trkpt><trkpt lat="30.91781996" lon="35.69549002"><ele>811.0</ele><time>2015-11-22T10:18:01.0000000+00:00</time></trkpt><trkpt lat="30.91780739" lon="35.69547409"><ele>811.0</ele><time>2015-11-22T10:18:02.0000000+00:00</time></trkpt><trkpt lat="30.917797" lon="35.69545926"><ele>811.0</ele><time>2015-11-22T10:18:03.0000000+00:00</time></trkpt><trkpt lat="30.91779021" lon="35.69544576"><ele>811.0</ele><time>2015-11-22T10:18:04.0000000+00:00</time></trkpt><trkpt lat="30.91777738" lon="35.69542724"><ele>811.5</ele><time>2015-11-22T10:18:16.0000000+00:00</time></trkpt><trkpt lat="30.91774176" lon="35.69538575"><ele>811.5</ele><time>2015-11-22T10:18:26.0000000+00:00</time></trkpt><trkpt lat="30.91773287" lon="35.69537736"><ele>811.5</ele><time>2015-11-22T10:18:27.0000000+00:00</time></trkpt><trkpt lat="30.91772516" lon="35.69536789"><ele>811.5</ele><time>2015-11-22T10:18:28.0000000+00:00</time></trkpt><trkpt lat="30.91771469" lon="35.69534166"><ele>812.0</ele><time>2015-11-22T10:18:31.0000000+00:00</time></trkpt><trkpt lat="30.91770547" lon="35.69533185"><ele>812.0</ele><time>2015-11-22T10:18:32.0000000+00:00</time></trkpt><trkpt lat="30.91769633" lon="35.69531802"><ele>812.0</ele><time>2015-11-22T10:18:33.0000000+00:00</time></trkpt><trkpt lat="30.91768971" lon="35.69530453"><ele>812.0</ele><time>2015-11-22T10:18:34.0000000+00:00</time></trkpt><trkpt lat="30.9176825" lon="35.69529053"><ele>812.5</ele><time>2015-11-22T10:18:35.0000000+00:00</time></trkpt><trkpt lat="30.9176747" lon="35.69527527"><ele>812.5</ele><time>2015-11-22T10:18:36.0000000+00:00</time></trkpt><trkpt lat="30.91750338" lon="35.69502105"><ele>813.9</ele><time>2015-11-22T10:18:51.0000000+00:00</time></trkpt><trkpt lat="30.91733473" lon="35.694768"><ele>815.8</ele><time>2015-11-22T10:19:05.0000000+00:00</time></trkpt><trkpt lat="30.91713491" lon="35.69447564"><ele>817.3</ele><time>2015-11-22T10:19:21.0000000+00:00</time></trkpt><trkpt lat="30.91697171" lon="35.69424036"><ele>818.7</ele><time>2015-11-22T10:19:34.0000000+00:00</time></trkpt><trkpt lat="30.91679988" lon="35.69397843"><ele>819.7</ele><time>2015-11-22T10:19:48.0000000+00:00</time></trkpt><trkpt lat="30.91657382" lon="35.69364784"><ele>821.6</ele><time>2015-11-22T10:20:05.0000000+00:00</time></trkpt><trkpt lat="30.91633419" lon="35.69328239"><ele>823.5</ele><time>2015-11-22T10:20:23.0000000+00:00</time></trkpt><trkpt lat="30.91607535" lon="35.69290026"><ele>825.4</ele><time>2015-11-22T10:20:42.0000000+00:00</time></trkpt><trkpt lat="30.91575818" lon="35.69248779"><ele>828.3</ele><time>2015-11-22T10:21:03.0000000+00:00</time></trkpt><trkpt lat="30.91555651" lon="35.69240414"><ele>829.8</ele><time>2015-11-22T10:21:13.0000000+00:00</time></trkpt><trkpt lat="30.91553656" lon="35.69240447"><ele>829.8</ele><time>2015-11-22T10:21:14.0000000+00:00</time></trkpt><trkpt lat="30.91532274" lon="35.69244529"><ele>831.7</ele><time>2015-11-22T10:21:26.0000000+00:00</time></trkpt><trkpt lat="30.91507967" lon="35.69254101"><ele>833.6</ele><time>2015-11-22T10:21:41.0000000+00:00</time></trkpt><trkpt lat="30.91485185" lon="35.69264822"><ele>836.0</ele><time>2015-11-22T10:21:56.0000000+00:00</time></trkpt><trkpt lat="30.91475772" lon="35.69269331"><ele>837.0</ele><time>2015-11-22T10:22:02.0000000+00:00</time></trkpt><trkpt lat="30.91459821" lon="35.69276967"><ele>838.9</ele><time>2015-11-22T10:22:14.0000000+00:00</time></trkpt><trkpt lat="30.91458321" lon="35.69277185"><ele>839.4</ele><time>2015-11-22T10:22:15.0000000+00:00</time></trkpt><trkpt lat="30.91457105" lon="35.69277529"><ele>839.4</ele><time>2015-11-22T10:22:16.0000000+00:00</time></trkpt><trkpt lat="30.91455664" lon="35.69277889"><ele>839.4</ele><time>2015-11-22T10:22:17.0000000+00:00</time></trkpt><trkpt lat="30.91454272" lon="35.69278266"><ele>839.9</ele><time>2015-11-22T10:22:18.0000000+00:00</time></trkpt><trkpt lat="30.91439621" lon="35.69285056"><ele>841.3</ele><time>2015-11-22T10:22:30.0000000+00:00</time></trkpt><trkpt lat="30.91438347" lon="35.6928529"><ele>841.3</ele><time>2015-11-22T10:22:31.0000000+00:00</time></trkpt><trkpt lat="30.91437307" lon="35.69285408"><ele>841.8</ele><time>2015-11-22T10:22:32.0000000+00:00</time></trkpt><trkpt lat="30.91436192" lon="35.69285852"><ele>841.8</ele><time>2015-11-22T10:22:33.0000000+00:00</time></trkpt><trkpt lat="30.91435094" lon="35.69286405"><ele>842.3</ele><time>2015-11-22T10:22:34.0000000+00:00</time></trkpt><trkpt lat="30.91433837" lon="35.69287059"><ele>842.3</ele><time>2015-11-22T10:22:35.0000000+00:00</time></trkpt><trkpt lat="30.91417207" lon="35.6929472"><ele>844.7</ele><time>2015-11-22T10:22:48.0000000+00:00</time></trkpt><trkpt lat="30.91415673" lon="35.69295064"><ele>844.7</ele><time>2015-11-22T10:22:49.0000000+00:00</time></trkpt><trkpt lat="30.91414416" lon="35.69295701"><ele>844.7</ele><time>2015-11-22T10:22:50.0000000+00:00</time></trkpt><trkpt lat="30.91398465" lon="35.69303328"><ele>846.6</ele><time>2015-11-22T10:23:02.0000000+00:00</time></trkpt><trkpt lat="30.91397166" lon="35.69304108"><ele>846.6</ele><time>2015-11-22T10:23:03.0000000+00:00</time></trkpt><trkpt lat="30.91376572" lon="35.69313663"><ele>849.0</ele><time>2015-11-22T10:23:19.0000000+00:00</time></trkpt><trkpt lat="30.91370227" lon="35.69315909"><ele>849.5</ele><time>2015-11-22T10:23:24.0000000+00:00</time></trkpt><trkpt lat="30.91369037" lon="35.6931684"><ele>849.9</ele><time>2015-11-22T10:23:25.0000000+00:00</time></trkpt><trkpt lat="30.91367704" lon="35.69317427"><ele>849.9</ele><time>2015-11-22T10:23:26.0000000+00:00</time></trkpt><trkpt lat="30.91366271" lon="35.69317846"><ele>849.9</ele><time>2015-11-22T10:23:27.0000000+00:00</time></trkpt><trkpt lat="30.91364896" lon="35.69318357"><ele>850.4</ele><time>2015-11-22T10:23:28.0000000+00:00</time></trkpt><trkpt lat="30.91338376" lon="35.69323671"><ele>852.4</ele><time>2015-11-22T10:23:45.0000000+00:00</time></trkpt><trkpt lat="30.91312358" lon="35.69324543"><ele>853.8</ele><time>2015-11-22T10:23:59.0000000+00:00</time></trkpt><trkpt lat="30.91306692" lon="35.69324233"><ele>853.8</ele><time>2015-11-22T10:24:03.0000000+00:00</time></trkpt><trkpt lat="30.913052" lon="35.69324006"><ele>854.3</ele><time>2015-11-22T10:24:04.0000000+00:00</time></trkpt><trkpt lat="30.91303607" lon="35.69323948"><ele>854.3</ele><time>2015-11-22T10:24:05.0000000+00:00</time></trkpt><trkpt lat="30.91302141" lon="35.69323956"><ele>854.3</ele><time>2015-11-22T10:24:06.0000000+00:00</time></trkpt><trkpt lat="30.9130085" lon="35.69323897"><ele>854.3</ele><time>2015-11-22T10:24:07.0000000+00:00</time></trkpt><trkpt lat="30.91299148" lon="35.69323679"><ele>854.3</ele><time>2015-11-22T10:24:08.0000000+00:00</time></trkpt><trkpt lat="30.9129686" lon="35.69323336"><ele>854.3</ele><time>2015-11-22T10:24:09.0000000+00:00</time></trkpt><trkpt lat="30.91280473" lon="35.69321316"><ele>855.2</ele><time>2015-11-22T10:24:18.0000000+00:00</time></trkpt><trkpt lat="30.91278973" lon="35.69320939"><ele>855.2</ele><time>2015-11-22T10:24:19.0000000+00:00</time></trkpt><trkpt lat="30.91277322" lon="35.6932062"><ele>855.2</ele><time>2015-11-22T10:24:20.0000000+00:00</time></trkpt><trkpt lat="30.91263961" lon="35.69316572"><ele>855.7</ele><time>2015-11-22T10:24:27.0000000+00:00</time></trkpt><trkpt lat="30.91262109" lon="35.69315985"><ele>855.7</ele><time>2015-11-22T10:24:28.0000000+00:00</time></trkpt><trkpt lat="30.91235002" lon="35.69299389"><ele>855.7</ele><time>2015-11-22T10:24:40.0000000+00:00</time></trkpt><trkpt lat="30.9120652" lon="35.69278694"><ele>856.2</ele><time>2015-11-22T10:24:52.0000000+00:00</time></trkpt><trkpt lat="30.91170494" lon="35.69248678"><ele>857.2</ele><time>2015-11-22T10:25:07.0000000+00:00</time></trkpt><trkpt lat="30.9113804" lon="35.69218252"><ele>857.6</ele><time>2015-11-22T10:25:22.0000000+00:00</time></trkpt><trkpt lat="30.91113925" lon="35.69196811"><ele>858.6</ele><time>2015-11-22T10:25:31.0000000+00:00</time></trkpt><trkpt lat="30.91091889" lon="35.69179234"><ele>859.6</ele><time>2015-11-22T10:25:45.0000000+00:00</time></trkpt><trkpt lat="30.91059644" lon="35.69156888"><ele>861.5</ele><time>2015-11-22T10:26:00.0000000+00:00</time></trkpt><trkpt lat="30.91030869" lon="35.6914087"><ele>862.9</ele><time>2015-11-22T10:26:14.0000000+00:00</time></trkpt><trkpt lat="30.90996511" lon="35.69129764"><ele>864.4</ele><time>2015-11-22T10:26:30.0000000+00:00</time></trkpt><trkpt lat="30.90961173" lon="35.6911922"><ele>865.8</ele><time>2015-11-22T10:26:46.0000000+00:00</time></trkpt><trkpt lat="30.90929481" lon="35.6910943"><ele>867.7</ele><time>2015-11-22T10:27:01.0000000+00:00</time></trkpt><trkpt lat="30.90905903" lon="35.69103193"><ele>869.7</ele><time>2015-11-22T10:27:13.0000000+00:00</time></trkpt><trkpt lat="30.9090395" lon="35.69102883"><ele>869.7</ele><time>2015-11-22T10:27:14.0000000+00:00</time></trkpt><trkpt lat="30.90901871" lon="35.69102364"><ele>869.7</ele><time>2015-11-22T10:27:15.0000000+00:00</time></trkpt><trkpt lat="30.90899927" lon="35.69101785"><ele>869.7</ele><time>2015-11-22T10:27:16.0000000+00:00</time></trkpt><trkpt lat="30.90898032" lon="35.69100972"><ele>869.7</ele><time>2015-11-22T10:27:17.0000000+00:00</time></trkpt><trkpt lat="30.90873633" lon="35.69094091"><ele>871.1</ele><time>2015-11-22T10:27:30.0000000+00:00</time></trkpt><trkpt lat="30.90839745" lon="35.69084971"><ele>873.5</ele><time>2015-11-22T10:27:47.0000000+00:00</time></trkpt><trkpt lat="30.90808187" lon="35.6907643"><ele>875.4</ele><time>2015-11-22T10:28:03.0000000+00:00</time></trkpt><trkpt lat="30.90776813" lon="35.69067688"><ele>877.3</ele><time>2015-11-22T10:28:20.0000000+00:00</time></trkpt><trkpt lat="30.90745976" lon="35.69062055"><ele>879.7</ele><time>2015-11-22T10:28:36.0000000+00:00</time></trkpt><trkpt lat="30.907185" lon="35.6905825"><ele>881.7</ele><time>2015-11-22T10:28:52.0000000+00:00</time></trkpt><trkpt lat="30.90695098" lon="35.69059549"><ele>883.6</ele><time>2015-11-22T10:29:07.0000000+00:00</time></trkpt><trkpt lat="30.90669399" lon="35.69050941"><ele>885.5</ele><time>2015-11-22T10:29:23.0000000+00:00</time></trkpt><trkpt lat="30.90660363" lon="35.69042207"><ele>886.0</ele><time>2015-11-22T10:29:37.0000000+00:00</time></trkpt><trkpt lat="30.90655535" lon="35.69038971"><ele>886.5</ele><time>2015-11-22T10:29:49.0000000+00:00</time></trkpt><trkpt lat="30.90653381" lon="35.690382"><ele>886.0</ele><time>2015-11-22T10:30:03.0000000+00:00</time></trkpt><trkpt lat="30.90651177" lon="35.69036616"><ele>886.5</ele><time>2015-11-22T10:30:46.0000000+00:00</time></trkpt><trkpt lat="30.90652971" lon="35.6903551"><ele>886.5</ele><time>2015-11-22T10:31:17.0000000+00:00</time></trkpt><trkpt lat="30.90650624" lon="35.69034445"><ele>886.5</ele><time>2015-11-22T10:31:42.0000000+00:00</time></trkpt><trkpt lat="30.90651495" lon="35.69034252"><ele>886.5</ele><time>2015-11-22T10:32:02.0000000+00:00</time></trkpt><trkpt lat="30.90652644" lon="35.69035065"><ele>886.5</ele><time>2015-11-22T10:32:21.0000000+00:00</time></trkpt><trkpt lat="30.90654161" lon="35.69035895"><ele>887.0</ele><time>2015-11-22T10:32:46.0000000+00:00</time></trkpt><trkpt lat="30.90653272" lon="35.69035158"><ele>886.5</ele><time>2015-11-22T10:33:15.0000000+00:00</time></trkpt><trkpt lat="30.90655284" lon="35.69035719"><ele>886.5</ele><time>2015-11-22T10:33:37.0000000+00:00</time></trkpt><trkpt lat="30.90653926" lon="35.69038108"><ele>887.0</ele><time>2015-11-22T10:34:00.0000000+00:00</time></trkpt><trkpt lat="30.90653448" lon="35.69040254"><ele>887.0</ele><time>2015-11-22T10:34:28.0000000+00:00</time></trkpt><trkpt lat="30.90655452" lon="35.69038955"><ele>886.5</ele><time>2015-11-22T10:34:55.0000000+00:00</time></trkpt><trkpt lat="30.90654345" lon="35.69038561"><ele>886.5</ele><time>2015-11-22T10:35:26.0000000+00:00</time></trkpt><trkpt lat="30.90652451" lon="35.6903877"><ele>886.5</ele><time>2015-11-22T10:35:54.0000000+00:00</time></trkpt><trkpt lat="30.90652803" lon="35.69037211"><ele>886.5</ele><time>2015-11-22T10:36:22.0000000+00:00</time></trkpt><trkpt lat="30.90652359" lon="35.69038435"><ele>886.5</ele><time>2015-11-22T10:36:49.0000000+00:00</time></trkpt><trkpt lat="30.9065396" lon="35.69038653"><ele>886.5</ele><time>2015-11-22T10:37:29.0000000+00:00</time></trkpt><trkpt lat="30.90654119" lon="35.69035878"><ele>886.5</ele><time>2015-11-22T10:38:06.0000000+00:00</time></trkpt><trkpt lat="30.90653742" lon="35.69037664"><ele>886.5</ele><time>2015-11-22T10:38:39.0000000+00:00</time></trkpt><trkpt lat="30.90652954" lon="35.69037287"><ele>886.5</ele><time>2015-11-22T10:39:11.0000000+00:00</time></trkpt><trkpt lat="30.90654572" lon="35.69036767"><ele>886.5</ele><time>2015-11-22T10:39:44.0000000+00:00</time></trkpt><trkpt lat="30.90654379" lon="35.69037756"><ele>887.0</ele><time>2015-11-22T10:40:23.0000000+00:00</time></trkpt><trkpt lat="30.90654773" lon="35.69037781"><ele>887.0</ele><time>2015-11-22T10:40:57.0000000+00:00</time></trkpt><trkpt lat="30.90653239" lon="35.69036658"><ele>887.0</ele><time>2015-11-22T10:41:27.0000000+00:00</time></trkpt><trkpt lat="30.90653616" lon="35.69036197"><ele>887.0</ele><time>2015-11-22T10:42:05.0000000+00:00</time></trkpt><trkpt lat="30.90654111" lon="35.69038988"><ele>887.0</ele><time>2015-11-22T10:42:29.0000000+00:00</time></trkpt><trkpt lat="30.90654245" lon="35.69038904"><ele>887.0</ele><time>2015-11-22T10:42:53.0000000+00:00</time></trkpt><trkpt lat="30.90653742" lon="35.69037991"><ele>887.0</ele><time>2015-11-22T10:43:21.0000000+00:00</time></trkpt><trkpt lat="30.90654211" lon="35.69037731"><ele>887.0</ele><time>2015-11-22T10:43:52.0000000+00:00</time></trkpt><trkpt lat="30.90654328" lon="35.69040832"><ele>887.4</ele><time>2015-11-22T10:44:20.0000000+00:00</time></trkpt><trkpt lat="30.90654798" lon="35.69039843"><ele>887.4</ele><time>2015-11-22T10:44:41.0000000+00:00</time></trkpt><trkpt lat="30.90654722" lon="35.6903981"><ele>887.4</ele><time>2015-11-22T10:45:06.0000000+00:00</time></trkpt><trkpt lat="30.90654303" lon="35.6904053"><ele>887.4</ele><time>2015-11-22T10:45:35.0000000+00:00</time></trkpt><trkpt lat="30.90654446" lon="35.69039164"><ele>887.9</ele><time>2015-11-22T10:46:00.0000000+00:00</time></trkpt><trkpt lat="30.90654756" lon="35.69039625"><ele>887.9</ele><time>2015-11-22T10:46:32.0000000+00:00</time></trkpt><trkpt lat="30.90654672" lon="35.69038594"><ele>888.4</ele><time>2015-11-22T10:46:59.0000000+00:00</time></trkpt><trkpt lat="30.90655628" lon="35.69039399"><ele>888.4</ele><time>2015-11-22T10:47:26.0000000+00:00</time></trkpt><trkpt lat="30.90655586" lon="35.69040254"><ele>887.9</ele><time>2015-11-22T10:47:52.0000000+00:00</time></trkpt><trkpt lat="30.90656097" lon="35.69039793"><ele>887.9</ele><time>2015-11-22T10:48:16.0000000+00:00</time></trkpt><trkpt lat="30.90659031" lon="35.69034336"><ele>888.4</ele><time>2015-11-22T10:48:25.0000000+00:00</time></trkpt><trkpt lat="30.90659316" lon="35.6903297"><ele>888.4</ele><time>2015-11-22T10:48:26.0000000+00:00</time></trkpt><trkpt lat="30.90659358" lon="35.69031763"><ele>888.4</ele><time>2015-11-22T10:48:27.0000000+00:00</time></trkpt><trkpt lat="30.906594" lon="35.69030749"><ele>888.4</ele><time>2015-11-22T10:48:28.0000000+00:00</time></trkpt><trkpt lat="30.90658964" lon="35.69029701"><ele>888.4</ele><time>2015-11-22T10:48:29.0000000+00:00</time></trkpt><trkpt lat="30.90658251" lon="35.69028486"><ele>888.9</ele><time>2015-11-22T10:48:30.0000000+00:00</time></trkpt><trkpt lat="30.90657455" lon="35.69027371"><ele>888.9</ele><time>2015-11-22T10:48:31.0000000+00:00</time></trkpt><trkpt lat="30.90656491" lon="35.6902613"><ele>888.9</ele><time>2015-11-22T10:48:32.0000000+00:00</time></trkpt><trkpt lat="30.90655603" lon="35.69024781"><ele>888.9</ele><time>2015-11-22T10:48:33.0000000+00:00</time></trkpt><trkpt lat="30.90654815" lon="35.6902344"><ele>889.4</ele><time>2015-11-22T10:48:34.0000000+00:00</time></trkpt><trkpt lat="30.90654169" lon="35.69021855"><ele>889.4</ele><time>2015-11-22T10:48:35.0000000+00:00</time></trkpt><trkpt lat="30.90640205" lon="35.69003365"><ele>890.8</ele><time>2015-11-22T10:48:50.0000000+00:00</time></trkpt><trkpt lat="30.90630826" lon="35.68995419"><ele>892.2</ele><time>2015-11-22T10:49:00.0000000+00:00</time></trkpt><trkpt lat="30.90630247" lon="35.68994589"><ele>892.2</ele><time>2015-11-22T10:49:01.0000000+00:00</time></trkpt><trkpt lat="30.9062878" lon="35.68993189"><ele>892.2</ele><time>2015-11-22T10:49:03.0000000+00:00</time></trkpt><trkpt lat="30.90627674" lon="35.68992653"><ele>892.7</ele><time>2015-11-22T10:49:04.0000000+00:00</time></trkpt><trkpt lat="30.90626325" lon="35.68992326"><ele>892.7</ele><time>2015-11-22T10:49:05.0000000+00:00</time></trkpt><trkpt lat="30.90625444" lon="35.68991873"><ele>892.7</ele><time>2015-11-22T10:49:06.0000000+00:00</time></trkpt><trkpt lat="30.90624606" lon="35.68991303"><ele>892.7</ele><time>2015-11-22T10:49:07.0000000+00:00</time></trkpt><trkpt lat="30.90611279" lon="35.68988403"><ele>894.2</ele><time>2015-11-22T10:49:19.0000000+00:00</time></trkpt><trkpt lat="30.90610215" lon="35.68988035"><ele>894.2</ele><time>2015-11-22T10:49:20.0000000+00:00</time></trkpt><trkpt lat="30.90608991" lon="35.68987976"><ele>894.6</ele><time>2015-11-22T10:49:21.0000000+00:00</time></trkpt><trkpt lat="30.90606325" lon="35.6898775"><ele>894.6</ele><time>2015-11-22T10:49:23.0000000+00:00</time></trkpt><trkpt lat="30.9060511" lon="35.68987548"><ele>894.6</ele><time>2015-11-22T10:49:24.0000000+00:00</time></trkpt><trkpt lat="30.90603878" lon="35.68987121"><ele>895.1</ele><time>2015-11-22T10:49:25.0000000+00:00</time></trkpt><trkpt lat="30.90580031" lon="35.6898272"><ele>897.5</ele><time>2015-11-22T10:49:43.0000000+00:00</time></trkpt><trkpt lat="30.90555724" lon="35.68978949"><ele>900.4</ele><time>2015-11-22T10:50:00.0000000+00:00</time></trkpt><trkpt lat="30.90544769" lon="35.6897718"><ele>901.9</ele><time>2015-11-22T10:50:08.0000000+00:00</time></trkpt><trkpt lat="30.90543251" lon="35.68977297"><ele>901.9</ele><time>2015-11-22T10:50:09.0000000+00:00</time></trkpt><trkpt lat="30.9054186" lon="35.68977188"><ele>901.9</ele><time>2015-11-22T10:50:10.0000000+00:00</time></trkpt><trkpt lat="30.90518617" lon="35.6897195"><ele>904.3</ele><time>2015-11-22T10:50:27.0000000+00:00</time></trkpt><trkpt lat="30.90510503" lon="35.68968731"><ele>905.2</ele><time>2015-11-22T10:50:33.0000000+00:00</time></trkpt><trkpt lat="30.90509296" lon="35.68967725"><ele>905.2</ele><time>2015-11-22T10:50:34.0000000+00:00</time></trkpt><trkpt lat="30.90507788" lon="35.68967038"><ele>905.2</ele><time>2015-11-22T10:50:35.0000000+00:00</time></trkpt><trkpt lat="30.90486548" lon="35.68946259"><ele>907.6</ele><time>2015-11-22T10:50:53.0000000+00:00</time></trkpt><trkpt lat="30.90474679" lon="35.6891761"><ele>909.1</ele><time>2015-11-22T10:51:08.0000000+00:00</time></trkpt><trkpt lat="30.90457655" lon="35.68886044"><ele>910.5</ele><time>2015-11-22T10:51:21.0000000+00:00</time></trkpt><trkpt lat="30.90425972" lon="35.68872892"><ele>912.0</ele><time>2015-11-22T10:51:35.0000000+00:00</time></trkpt><trkpt lat="30.90391799" lon="35.6887772"><ele>914.4</ele><time>2015-11-22T10:51:53.0000000+00:00</time></trkpt><trkpt lat="30.90365463" lon="35.68889061"><ele>916.8</ele><time>2015-11-22T10:52:09.0000000+00:00</time></trkpt><trkpt lat="30.90330519" lon="35.689059"><ele>919.6</ele><time>2015-11-22T10:52:30.0000000+00:00</time></trkpt><trkpt lat="30.90306647" lon="35.6891626"><ele>922.0</ele><time>2015-11-22T10:52:44.0000000+00:00</time></trkpt><trkpt lat="30.90277989" lon="35.68929789"><ele>925.4</ele><time>2015-11-22T10:53:03.0000000+00:00</time></trkpt><trkpt lat="30.90253338" lon="35.68939126"><ele>927.3</ele><time>2015-11-22T10:53:20.0000000+00:00</time></trkpt><trkpt lat="30.90227069" lon="35.68947885"><ele>929.3</ele><time>2015-11-22T10:53:37.0000000+00:00</time></trkpt><trkpt lat="30.90183601" lon="35.68948028"><ele>931.7</ele><time>2015-11-22T10:53:56.0000000+00:00</time></trkpt><trkpt lat="30.90139872" lon="35.68936544"><ele>933.1</ele><time>2015-11-22T10:54:15.0000000+00:00</time></trkpt><trkpt lat="30.90091836" lon="35.68921876"><ele>934.1</ele><time>2015-11-22T10:54:35.0000000+00:00</time></trkpt><trkpt lat="30.90044947" lon="35.68908784"><ele>936.5</ele><time>2015-11-22T10:54:56.0000000+00:00</time></trkpt><trkpt lat="30.900008" lon="35.68896253"><ele>938.4</ele><time>2015-11-22T10:55:16.0000000+00:00</time></trkpt><trkpt lat="30.89961145" lon="35.68885021"><ele>941.3</ele><time>2015-11-22T10:55:35.0000000+00:00</time></trkpt><trkpt lat="30.89928305" lon="35.68875155"><ele>944.2</ele><time>2015-11-22T10:55:53.0000000+00:00</time></trkpt><trkpt lat="30.89900762" lon="35.68867444"><ele>946.6</ele><time>2015-11-22T10:56:09.0000000+00:00</time></trkpt><trkpt lat="30.89878793" lon="35.68860881"><ele>948.5</ele><time>2015-11-22T10:56:23.0000000+00:00</time></trkpt><trkpt lat="30.89851216" lon="35.68851979"><ele>951.4</ele><time>2015-11-22T10:56:40.0000000+00:00</time></trkpt><trkpt lat="30.8982742" lon="35.68845333"><ele>953.3</ele><time>2015-11-22T10:56:55.0000000+00:00</time></trkpt><trkpt lat="30.89797304" lon="35.6883965"><ele>956.2</ele><time>2015-11-22T10:57:14.0000000+00:00</time></trkpt><trkpt lat="30.89774966" lon="35.68838015"><ele>958.6</ele><time>2015-11-22T10:57:28.0000000+00:00</time></trkpt><trkpt lat="30.89760114" lon="35.68837496"><ele>960.0</ele><time>2015-11-22T10:57:37.0000000+00:00</time></trkpt><trkpt lat="30.8975863" lon="35.68837848"><ele>960.0</ele><time>2015-11-22T10:57:38.0000000+00:00</time></trkpt><trkpt lat="30.89757205" lon="35.68838183"><ele>960.5</ele><time>2015-11-22T10:57:39.0000000+00:00</time></trkpt><trkpt lat="30.89729612" lon="35.68838409"><ele>962.4</ele><time>2015-11-22T10:57:57.0000000+00:00</time></trkpt><trkpt lat="30.89706997" lon="35.6884006"><ele>964.3</ele><time>2015-11-22T10:58:12.0000000+00:00</time></trkpt><trkpt lat="30.8967948" lon="35.68843396"><ele>966.3</ele><time>2015-11-22T10:58:30.0000000+00:00</time></trkpt><trkpt lat="30.89676957" lon="35.68844402"><ele>966.7</ele><time>2015-11-22T10:58:32.0000000+00:00</time></trkpt><trkpt lat="30.89675515" lon="35.68844712"><ele>966.7</ele><time>2015-11-22T10:58:33.0000000+00:00</time></trkpt><trkpt lat="30.89674174" lon="35.68844872"><ele>966.7</ele><time>2015-11-22T10:58:34.0000000+00:00</time></trkpt><trkpt lat="30.89672875" lon="35.68844461"><ele>967.2</ele><time>2015-11-22T10:58:35.0000000+00:00</time></trkpt><trkpt lat="30.89671517" lon="35.68844394"><ele>967.2</ele><time>2015-11-22T10:58:36.0000000+00:00</time></trkpt><trkpt lat="30.89670243" lon="35.68844427"><ele>967.2</ele><time>2015-11-22T10:58:37.0000000+00:00</time></trkpt><trkpt lat="30.89668818" lon="35.68844536"><ele>967.2</ele><time>2015-11-22T10:58:38.0000000+00:00</time></trkpt><trkpt lat="30.89667359" lon="35.68844771"><ele>967.7</ele><time>2015-11-22T10:58:39.0000000+00:00</time></trkpt><trkpt lat="30.89666018" lon="35.68844947"><ele>967.7</ele><time>2015-11-22T10:58:40.0000000+00:00</time></trkpt><trkpt lat="30.89664577" lon="35.68845064"><ele>967.7</ele><time>2015-11-22T10:58:41.0000000+00:00</time></trkpt><trkpt lat="30.89663143" lon="35.6884514"><ele>968.2</ele><time>2015-11-22T10:58:42.0000000+00:00</time></trkpt><trkpt lat="30.89638886" lon="35.68849674"><ele>970.1</ele><time>2015-11-22T10:58:59.0000000+00:00</time></trkpt><trkpt lat="30.89612609" lon="35.68859942"><ele>973.0</ele><time>2015-11-22T10:59:18.0000000+00:00</time></trkpt><trkpt lat="30.89588821" lon="35.6887078"><ele>975.4</ele><time>2015-11-22T10:59:36.0000000+00:00</time></trkpt><trkpt lat="30.89569828" lon="35.68879195"><ele>977.8</ele><time>2015-11-22T10:59:51.0000000+00:00</time></trkpt><trkpt lat="30.8954873" lon="35.68890318"><ele>980.7</ele><time>2015-11-22T11:00:07.0000000+00:00</time></trkpt><trkpt lat="30.89526678" lon="35.6889989"><ele>983.1</ele><time>2015-11-22T11:00:23.0000000+00:00</time></trkpt><trkpt lat="30.89505354" lon="35.68906956"><ele>985.0</ele><time>2015-11-22T11:00:38.0000000+00:00</time></trkpt><trkpt lat="30.89490979" lon="35.68912807"><ele>986.9</ele><time>2015-11-22T11:00:49.0000000+00:00</time></trkpt><trkpt lat="30.89489755" lon="35.68913167"><ele>987.4</ele><time>2015-11-22T11:00:50.0000000+00:00</time></trkpt><trkpt lat="30.89467132" lon="35.68921449"><ele>989.3</ele><time>2015-11-22T11:01:06.0000000+00:00</time></trkpt><trkpt lat="30.89442389" lon="35.68931624"><ele>991.7</ele><time>2015-11-22T11:01:25.0000000+00:00</time></trkpt><trkpt lat="30.89439975" lon="35.6893284"><ele>991.7</ele><time>2015-11-22T11:01:27.0000000+00:00</time></trkpt><trkpt lat="30.89438684" lon="35.68933167"><ele>992.2</ele><time>2015-11-22T11:01:28.0000000+00:00</time></trkpt><trkpt lat="30.89433135" lon="35.68934667"><ele>992.7</ele><time>2015-11-22T11:01:41.0000000+00:00</time></trkpt><trkpt lat="30.89433337" lon="35.68936125"><ele>992.7</ele><time>2015-11-22T11:02:00.0000000+00:00</time></trkpt><trkpt lat="30.89433387" lon="35.68933812"><ele>991.7</ele><time>2015-11-22T11:02:25.0000000+00:00</time></trkpt><trkpt lat="30.89432457" lon="35.68934097"><ele>991.7</ele><time>2015-11-22T11:03:03.0000000+00:00</time></trkpt><trkpt lat="30.89433479" lon="35.68935463"><ele>992.2</ele><time>2015-11-22T11:03:43.0000000+00:00</time></trkpt><trkpt lat="30.89433915" lon="35.68935379"><ele>992.2</ele><time>2015-11-22T11:04:13.0000000+00:00</time></trkpt><trkpt lat="30.89433496" lon="35.68935438"><ele>992.2</ele><time>2015-11-22T11:04:44.0000000+00:00</time></trkpt><trkpt lat="30.89433311" lon="35.68935866"><ele>992.2</ele><time>2015-11-22T11:05:18.0000000+00:00</time></trkpt><trkpt lat="30.89433898" lon="35.68936159"><ele>992.2</ele><time>2015-11-22T11:05:55.0000000+00:00</time></trkpt><trkpt lat="30.89433898" lon="35.6893584"><ele>992.2</ele><time>2015-11-22T11:06:37.0000000+00:00</time></trkpt><trkpt lat="30.89433404" lon="35.68935497"><ele>992.7</ele><time>2015-11-22T11:07:18.0000000+00:00</time></trkpt><trkpt lat="30.89432934" lon="35.6893631"><ele>992.7</ele><time>2015-11-22T11:07:56.0000000+00:00</time></trkpt><trkpt lat="30.89432431" lon="35.68936511"><ele>992.7</ele><time>2015-11-22T11:08:28.0000000+00:00</time></trkpt><trkpt lat="30.89432037" lon="35.68936327"><ele>992.7</ele><time>2015-11-22T11:08:58.0000000+00:00</time></trkpt><trkpt lat="30.89431769" lon="35.68936042"><ele>992.7</ele><time>2015-11-22T11:09:36.0000000+00:00</time></trkpt><trkpt lat="30.89432976" lon="35.68935782"><ele>993.2</ele><time>2015-11-22T11:10:21.0000000+00:00</time></trkpt><trkpt lat="30.8943446" lon="35.68934793"><ele>992.7</ele><time>2015-11-22T11:10:52.0000000+00:00</time></trkpt><trkpt lat="30.89435927" lon="35.68937793"><ele>993.7</ele><time>2015-11-22T11:11:19.0000000+00:00</time></trkpt><trkpt lat="30.89434233" lon="35.68936184"><ele>994.1</ele><time>2015-11-22T11:11:48.0000000+00:00</time></trkpt><trkpt lat="30.89431643" lon="35.68936922"><ele>994.1</ele><time>2015-11-22T11:12:13.0000000+00:00</time></trkpt><trkpt lat="30.89430512" lon="35.68937559"><ele>994.1</ele><time>2015-11-22T11:12:28.0000000+00:00</time></trkpt><trkpt lat="30.89426036" lon="35.68939654"><ele>994.6</ele><time>2015-11-22T11:12:34.0000000+00:00</time></trkpt><trkpt lat="30.89424955" lon="35.68940073"><ele>995.1</ele><time>2015-11-22T11:12:35.0000000+00:00</time></trkpt><trkpt lat="30.89423748" lon="35.68940274"><ele>995.1</ele><time>2015-11-22T11:12:36.0000000+00:00</time></trkpt><trkpt lat="30.89422549" lon="35.68940576"><ele>995.1</ele><time>2015-11-22T11:12:37.0000000+00:00</time></trkpt><trkpt lat="30.89421317" lon="35.68941079"><ele>995.1</ele><time>2015-11-22T11:12:38.0000000+00:00</time></trkpt><trkpt lat="30.8942006" lon="35.68941783"><ele>995.1</ele><time>2015-11-22T11:12:39.0000000+00:00</time></trkpt><trkpt lat="30.89407277" lon="35.68945446"><ele>996.5</ele><time>2015-11-22T11:12:49.0000000+00:00</time></trkpt><trkpt lat="30.89406012" lon="35.6894563"><ele>996.5</ele><time>2015-11-22T11:12:50.0000000+00:00</time></trkpt><trkpt lat="30.8940483" lon="35.68945698"><ele>997.0</ele><time>2015-11-22T11:12:51.0000000+00:00</time></trkpt><trkpt lat="30.89403522" lon="35.68946041"><ele>996.5</ele><time>2015-11-22T11:12:52.0000000+00:00</time></trkpt><trkpt lat="30.89402315" lon="35.68946485"><ele>997.0</ele><time>2015-11-22T11:12:53.0000000+00:00</time></trkpt><trkpt lat="30.89401091" lon="35.68947013"><ele>997.0</ele><time>2015-11-22T11:12:54.0000000+00:00</time></trkpt><trkpt lat="30.8939991" lon="35.68947223"><ele>997.0</ele><time>2015-11-22T11:12:55.0000000+00:00</time></trkpt><trkpt lat="30.89398694" lon="35.68947357"><ele>997.5</ele><time>2015-11-22T11:12:56.0000000+00:00</time></trkpt><trkpt lat="30.89397403" lon="35.68947743"><ele>997.5</ele><time>2015-11-22T11:12:57.0000000+00:00</time></trkpt><trkpt lat="30.89395937" lon="35.6894812"><ele>997.5</ele><time>2015-11-22T11:12:58.0000000+00:00</time></trkpt><trkpt lat="30.8939452" lon="35.68948438"><ele>997.5</ele><time>2015-11-22T11:12:59.0000000+00:00</time></trkpt><trkpt lat="30.89393104" lon="35.6894864"><ele>998.0</ele><time>2015-11-22T11:13:00.0000000+00:00</time></trkpt><trkpt lat="30.8939167" lon="35.6894874"><ele>998.0</ele><time>2015-11-22T11:13:01.0000000+00:00</time></trkpt><trkpt lat="30.89370204" lon="35.68952126"><ele>999.9</ele><time>2015-11-22T11:13:17.0000000+00:00</time></trkpt><trkpt lat="30.89345813" lon="35.68953585"><ele>1002.3</ele><time>2015-11-22T11:13:34.0000000+00:00</time></trkpt><trkpt lat="30.89338445" lon="35.68954691"><ele>1002.8</ele><time>2015-11-22T11:13:40.0000000+00:00</time></trkpt><trkpt lat="30.89337339" lon="35.68954691"><ele>1002.8</ele><time>2015-11-22T11:13:41.0000000+00:00</time></trkpt><trkpt lat="30.89314096" lon="35.68954934"><ele>1005.2</ele><time>2015-11-22T11:13:58.0000000+00:00</time></trkpt><trkpt lat="30.89290811" lon="35.68956359"><ele>1007.6</ele><time>2015-11-22T11:14:15.0000000+00:00</time></trkpt><trkpt lat="30.89270258" lon="35.68957399"><ele>1009.5</ele><time>2015-11-22T11:14:30.0000000+00:00</time></trkpt><trkpt lat="30.89244836" lon="35.68958798"><ele>1011.9</ele><time>2015-11-22T11:14:49.0000000+00:00</time></trkpt><trkpt lat="30.89222322" lon="35.68960148"><ele>1013.9</ele><time>2015-11-22T11:15:05.0000000+00:00</time></trkpt><trkpt lat="30.8920156" lon="35.6896169"><ele>1015.8</ele><time>2015-11-22T11:15:20.0000000+00:00</time></trkpt><trkpt lat="30.89176473" lon="35.68962922"><ele>1018.7</ele><time>2015-11-22T11:15:37.0000000+00:00</time></trkpt><trkpt lat="30.89156306" lon="35.68964414"><ele>1020.6</ele><time>2015-11-22T11:15:52.0000000+00:00</time></trkpt><trkpt lat="30.89141646" lon="35.68965412"><ele>1022.0</ele><time>2015-11-22T11:16:03.0000000+00:00</time></trkpt><trkpt lat="30.89121044" lon="35.68967205"><ele>1024.4</ele><time>2015-11-22T11:16:19.0000000+00:00</time></trkpt><trkpt lat="30.89099075" lon="35.68969494"><ele>1026.3</ele><time>2015-11-22T11:16:35.0000000+00:00</time></trkpt><trkpt lat="30.8907812" lon="35.68972846"><ele>1028.3</ele><time>2015-11-22T11:16:50.0000000+00:00</time></trkpt><trkpt lat="30.89076871" lon="35.68972855"><ele>1028.8</ele><time>2015-11-22T11:16:51.0000000+00:00</time></trkpt><trkpt lat="30.89075496" lon="35.68972905"><ele>1028.8</ele><time>2015-11-22T11:16:52.0000000+00:00</time></trkpt><trkpt lat="30.89074164" lon="35.68973224"><ele>1028.8</ele><time>2015-11-22T11:16:53.0000000+00:00</time></trkpt><trkpt lat="30.89072831" lon="35.68973425"><ele>1028.8</ele><time>2015-11-22T11:16:54.0000000+00:00</time></trkpt><trkpt lat="30.89071423" lon="35.68973484"><ele>1029.2</ele><time>2015-11-22T11:16:55.0000000+00:00</time></trkpt><trkpt lat="30.89070006" lon="35.68973534"><ele>1029.2</ele><time>2015-11-22T11:16:56.0000000+00:00</time></trkpt><trkpt lat="30.89041583" lon="35.68974338"><ele>1031.6</ele><time>2015-11-22T11:17:16.0000000+00:00</time></trkpt><trkpt lat="30.89015909" lon="35.68973048"><ele>1034.5</ele><time>2015-11-22T11:17:34.0000000+00:00</time></trkpt><trkpt lat="30.88988358" lon="35.68972846"><ele>1036.9</ele><time>2015-11-22T11:17:53.0000000+00:00</time></trkpt><trkpt lat="30.88973656" lon="35.68973106"><ele>1038.4</ele><time>2015-11-22T11:18:04.0000000+00:00</time></trkpt><trkpt lat="30.8897224" lon="35.68973366"><ele>1038.4</ele><time>2015-11-22T11:18:05.0000000+00:00</time></trkpt><trkpt lat="30.88970899" lon="35.6897309"><ele>1038.8</ele><time>2015-11-22T11:18:06.0000000+00:00</time></trkpt><trkpt lat="30.88969532" lon="35.68973056"><ele>1038.8</ele><time>2015-11-22T11:18:07.0000000+00:00</time></trkpt><trkpt lat="30.88968258" lon="35.6897324"><ele>1038.8</ele><time>2015-11-22T11:18:08.0000000+00:00</time></trkpt><trkpt lat="30.88966926" lon="35.68973333"><ele>1039.3</ele><time>2015-11-22T11:18:09.0000000+00:00</time></trkpt><trkpt lat="30.88965425" lon="35.68973416"><ele>1039.3</ele><time>2015-11-22T11:18:10.0000000+00:00</time></trkpt><trkpt lat="30.88964093" lon="35.68973375"><ele>1039.3</ele><time>2015-11-22T11:18:11.0000000+00:00</time></trkpt><trkpt lat="30.88962617" lon="35.68973324"><ele>1039.3</ele><time>2015-11-22T11:18:12.0000000+00:00</time></trkpt><trkpt lat="30.88961243" lon="35.68973299"><ele>1039.8</ele><time>2015-11-22T11:18:13.0000000+00:00</time></trkpt><trkpt lat="30.88936198" lon="35.6897459"><ele>1042.2</ele><time>2015-11-22T11:18:31.0000000+00:00</time></trkpt><trkpt lat="30.88907037" lon="35.68975445"><ele>1044.6</ele><time>2015-11-22T11:18:51.0000000+00:00</time></trkpt><trkpt lat="30.88879829" lon="35.68975554"><ele>1047.5</ele><time>2015-11-22T11:19:10.0000000+00:00</time></trkpt><trkpt lat="30.88866184" lon="35.68974364"><ele>1048.9</ele><time>2015-11-22T11:19:19.0000000+00:00</time></trkpt><trkpt lat="30.88864826" lon="35.68974439"><ele>1048.9</ele><time>2015-11-22T11:19:20.0000000+00:00</time></trkpt><trkpt lat="30.88863359" lon="35.68974288"><ele>1048.9</ele><time>2015-11-22T11:19:21.0000000+00:00</time></trkpt><trkpt lat="30.88861984" lon="35.68973961"><ele>1048.9</ele><time>2015-11-22T11:19:22.0000000+00:00</time></trkpt><trkpt lat="30.88860668" lon="35.68973492"><ele>1048.9</ele><time>2015-11-22T11:19:23.0000000+00:00</time></trkpt><trkpt lat="30.88859168" lon="35.68973123"><ele>1049.4</ele><time>2015-11-22T11:19:24.0000000+00:00</time></trkpt><trkpt lat="30.88832463" lon="35.68964624"><ele>1050.9</ele><time>2015-11-22T11:19:42.0000000+00:00</time></trkpt><trkpt lat="30.8882393" lon="35.6896102"><ele>1051.8</ele><time>2015-11-22T11:19:47.0000000+00:00</time></trkpt><trkpt lat="30.88821927" lon="35.68960316"><ele>1051.8</ele><time>2015-11-22T11:19:48.0000000+00:00</time></trkpt><trkpt lat="30.88783538" lon="35.68939042"><ele>1054.2</ele><time>2015-11-22T11:20:08.0000000+00:00</time></trkpt><trkpt lat="30.8874162" lon="35.68918909"><ele>1055.7</ele><time>2015-11-22T11:20:27.0000000+00:00</time></trkpt><trkpt lat="30.88690935" lon="35.68900268"><ele>1057.6</ele><time>2015-11-22T11:20:48.0000000+00:00</time></trkpt><trkpt lat="30.88652085" lon="35.68892841"><ele>1059.5</ele><time>2015-11-22T11:21:05.0000000+00:00</time></trkpt><trkpt lat="30.88613025" lon="35.68885054"><ele>1061.9</ele><time>2015-11-22T11:21:24.0000000+00:00</time></trkpt><trkpt lat="30.8858321" lon="35.68878072"><ele>1063.8</ele><time>2015-11-22T11:21:40.0000000+00:00</time></trkpt><trkpt lat="30.8855638" lon="35.68870612"><ele>1065.8</ele><time>2015-11-22T11:21:56.0000000+00:00</time></trkpt><trkpt lat="30.88525007" lon="35.6885949"><ele>1068.2</ele><time>2015-11-22T11:22:15.0000000+00:00</time></trkpt><trkpt lat="30.88495075" lon="35.68843598"><ele>1070.6</ele><time>2015-11-22T11:22:34.0000000+00:00</time></trkpt><trkpt lat="30.88466476" lon="35.6882416"><ele>1073.9</ele><time>2015-11-22T11:22:53.0000000+00:00</time></trkpt><trkpt lat="30.88444079" lon="35.68806441"><ele>1076.3</ele><time>2015-11-22T11:23:09.0000000+00:00</time></trkpt><trkpt lat="30.88442059" lon="35.68804957"><ele>1076.8</ele><time>2015-11-22T11:23:19.0000000+00:00</time></trkpt><trkpt lat="30.88443585" lon="35.68804999"><ele>1076.8</ele><time>2015-11-22T11:23:42.0000000+00:00</time></trkpt><trkpt lat="30.88441925" lon="35.68805519"><ele>1077.3</ele><time>2015-11-22T11:24:07.0000000+00:00</time></trkpt><trkpt lat="30.88441506" lon="35.68804152"><ele>1077.3</ele><time>2015-11-22T11:24:30.0000000+00:00</time></trkpt><trkpt lat="30.8843983" lon="35.68803666"><ele>1077.3</ele><time>2015-11-22T11:24:32.0000000+00:00</time></trkpt><trkpt lat="30.88438815" lon="35.6880292"><ele>1077.3</ele><time>2015-11-22T11:24:33.0000000+00:00</time></trkpt><trkpt lat="30.88415019" lon="35.68791613"><ele>1080.2</ele><time>2015-11-22T11:24:49.0000000+00:00</time></trkpt><trkpt lat="30.88406453" lon="35.6879028"><ele>1080.7</ele><time>2015-11-22T11:24:54.0000000+00:00</time></trkpt><trkpt lat="30.88404877" lon="35.68789802"><ele>1081.1</ele><time>2015-11-22T11:24:55.0000000+00:00</time></trkpt><trkpt lat="30.88403276" lon="35.68789509"><ele>1081.6</ele><time>2015-11-22T11:24:56.0000000+00:00</time></trkpt><trkpt lat="30.88401767" lon="35.68788973"><ele>1081.6</ele><time>2015-11-22T11:24:57.0000000+00:00</time></trkpt><trkpt lat="30.88400217" lon="35.68788545"><ele>1081.6</ele><time>2015-11-22T11:24:58.0000000+00:00</time></trkpt><trkpt lat="30.88398633" lon="35.68788252"><ele>1082.1</ele><time>2015-11-22T11:24:59.0000000+00:00</time></trkpt><trkpt lat="30.88373495" lon="35.68785352"><ele>1084.5</ele><time>2015-11-22T11:25:15.0000000+00:00</time></trkpt><trkpt lat="30.88347184" lon="35.68781186"><ele>1086.9</ele><time>2015-11-22T11:25:32.0000000+00:00</time></trkpt><trkpt lat="30.88324344" lon="35.68773575"><ele>1089.3</ele><time>2015-11-22T11:25:48.0000000+00:00</time></trkpt><trkpt lat="30.88301243" lon="35.68766057"><ele>1091.7</ele><time>2015-11-22T11:26:03.0000000+00:00</time></trkpt><trkpt lat="30.88279878" lon="35.68760013"><ele>1093.6</ele><time>2015-11-22T11:26:18.0000000+00:00</time></trkpt><trkpt lat="30.88257783" lon="35.68754506"><ele>1095.6</ele><time>2015-11-22T11:26:33.0000000+00:00</time></trkpt><trkpt lat="30.88246543" lon="35.68753635"><ele>1096.5</ele><time>2015-11-22T11:26:41.0000000+00:00</time></trkpt><trkpt lat="30.88242914" lon="35.68751841"><ele>1097.0</ele><time>2015-11-22T11:26:44.0000000+00:00</time></trkpt><trkpt lat="30.88241422" lon="35.68751615"><ele>1097.5</ele><time>2015-11-22T11:26:45.0000000+00:00</time></trkpt><trkpt lat="30.88213577" lon="35.6874931"><ele>1099.4</ele><time>2015-11-22T11:27:03.0000000+00:00</time></trkpt><trkpt lat="30.88187015" lon="35.68751271"><ele>1101.3</ele><time>2015-11-22T11:27:20.0000000+00:00</time></trkpt><trkpt lat="30.88158189" lon="35.68756468"><ele>1103.7</ele><time>2015-11-22T11:27:38.0000000+00:00</time></trkpt><trkpt lat="30.88132113" lon="35.68762494"><ele>1105.2</ele><time>2015-11-22T11:27:52.0000000+00:00</time></trkpt><trkpt lat="30.88122809" lon="35.68763861"><ele>1105.7</ele><time>2015-11-22T11:27:57.0000000+00:00</time></trkpt><trkpt lat="30.88120437" lon="35.6876464"><ele>1106.1</ele><time>2015-11-22T11:27:58.0000000+00:00</time></trkpt><trkpt lat="30.88117939" lon="35.68764984"><ele>1106.1</ele><time>2015-11-22T11:27:59.0000000+00:00</time></trkpt><trkpt lat="30.8811545" lon="35.68765051"><ele>1106.1</ele><time>2015-11-22T11:28:00.0000000+00:00</time></trkpt><trkpt lat="30.88113036" lon="35.68765068"><ele>1106.1</ele><time>2015-11-22T11:28:01.0000000+00:00</time></trkpt><trkpt lat="30.88110798" lon="35.68765126"><ele>1106.1</ele><time>2015-11-22T11:28:02.0000000+00:00</time></trkpt><trkpt lat="30.88108535" lon="35.68765369"><ele>1106.1</ele><time>2015-11-22T11:28:03.0000000+00:00</time></trkpt><trkpt lat="30.88106205" lon="35.68765562"><ele>1106.6</ele><time>2015-11-22T11:28:04.0000000+00:00</time></trkpt><trkpt lat="30.88103883" lon="35.68765797"><ele>1106.6</ele><time>2015-11-22T11:28:05.0000000+00:00</time></trkpt><trkpt lat="30.88060683" lon="35.68767012"><ele>1108.1</ele><time>2015-11-22T11:28:22.0000000+00:00</time></trkpt><trkpt lat="30.88017658" lon="35.68764917"><ele>1109.0</ele><time>2015-11-22T11:28:38.0000000+00:00</time></trkpt><trkpt lat="30.87976738" lon="35.68763081"><ele>1110.0</ele><time>2015-11-22T11:28:54.0000000+00:00</time></trkpt><trkpt lat="30.8793145" lon="35.68759234"><ele>1111.4</ele><time>2015-11-22T11:29:10.0000000+00:00</time></trkpt><trkpt lat="30.8790063" lon="35.68756677"><ele>1113.8</ele><time>2015-11-22T11:29:23.0000000+00:00</time></trkpt><trkpt lat="30.8786686" lon="35.68754481"><ele>1115.8</ele><time>2015-11-22T11:29:38.0000000+00:00</time></trkpt><trkpt lat="30.87838462" lon="35.68751967"><ele>1117.2</ele><time>2015-11-22T11:29:51.0000000+00:00</time></trkpt><trkpt lat="30.87802017" lon="35.68740693"><ele>1120.1</ele><time>2015-11-22T11:30:09.0000000+00:00</time></trkpt><trkpt lat="30.87771557" lon="35.6872434"><ele>1122.5</ele><time>2015-11-22T11:30:26.0000000+00:00</time></trkpt><trkpt lat="30.87747543" lon="35.6870538"><ele>1124.4</ele><time>2015-11-22T11:30:42.0000000+00:00</time></trkpt><trkpt lat="30.87725675" lon="35.68688239"><ele>1126.3</ele><time>2015-11-22T11:30:57.0000000+00:00</time></trkpt><trkpt lat="30.87704309" lon="35.68668248"><ele>1128.2</ele><time>2015-11-22T11:31:13.0000000+00:00</time></trkpt><trkpt lat="30.8768804" lon="35.68655055"><ele>1129.7</ele><time>2015-11-22T11:31:25.0000000+00:00</time></trkpt><trkpt lat="30.87675417" lon="35.68641158"><ele>1130.7</ele><time>2015-11-22T11:31:35.0000000+00:00</time></trkpt><trkpt lat="30.87674428" lon="35.68639808"><ele>1131.1</ele><time>2015-11-22T11:31:36.0000000+00:00</time></trkpt><trkpt lat="30.87673129" lon="35.68638367"><ele>1130.7</ele><time>2015-11-22T11:31:37.0000000+00:00</time></trkpt><trkpt lat="30.87672022" lon="35.68636975"><ele>1131.1</ele><time>2015-11-22T11:31:38.0000000+00:00</time></trkpt><trkpt lat="30.8767084" lon="35.68635508"><ele>1131.1</ele><time>2015-11-22T11:31:39.0000000+00:00</time></trkpt><trkpt lat="30.87669633" lon="35.68634201"><ele>1131.1</ele><time>2015-11-22T11:31:40.0000000+00:00</time></trkpt><trkpt lat="30.87668418" lon="35.68632985"><ele>1131.6</ele><time>2015-11-22T11:31:41.0000000+00:00</time></trkpt><trkpt lat="30.87663741" lon="35.68627764"><ele>1131.6</ele><time>2015-11-22T11:31:45.0000000+00:00</time></trkpt><trkpt lat="30.87663699" lon="35.6862592"><ele>1132.1</ele><time>2015-11-22T11:31:46.0000000+00:00</time></trkpt><trkpt lat="30.87665585" lon="35.68620865"><ele>1132.1</ele><time>2015-11-22T11:31:57.0000000+00:00</time></trkpt><trkpt lat="30.87667488" lon="35.68616507"><ele>1132.1</ele><time>2015-11-22T11:32:10.0000000+00:00</time></trkpt><trkpt lat="30.87670539" lon="35.68613648"><ele>1132.6</ele><time>2015-11-22T11:32:43.0000000+00:00</time></trkpt><trkpt lat="30.876696" lon="35.686125"><ele>1132.1</ele><time>2015-11-22T11:33:17.0000000+00:00</time></trkpt><trkpt lat="30.87670363" lon="35.68613623"><ele>1132.6</ele><time>2015-11-22T11:33:52.0000000+00:00</time></trkpt><trkpt lat="30.87670161" lon="35.68612031"><ele>1132.6</ele><time>2015-11-22T11:34:32.0000000+00:00</time></trkpt><trkpt lat="30.87669927" lon="35.68612492"><ele>1132.1</ele><time>2015-11-22T11:35:02.0000000+00:00</time></trkpt><trkpt lat="30.87670321" lon="35.6861255"><ele>1132.6</ele><time>2015-11-22T11:35:37.0000000+00:00</time></trkpt><trkpt lat="30.8766939" lon="35.68612869"><ele>1132.1</ele><time>2015-11-22T11:36:10.0000000+00:00</time></trkpt><trkpt lat="30.87670086" lon="35.68614168"><ele>1132.1</ele><time>2015-11-22T11:36:46.0000000+00:00</time></trkpt><trkpt lat="30.87672475" lon="35.68613229"><ele>1132.1</ele><time>2015-11-22T11:37:24.0000000+00:00</time></trkpt><trkpt lat="30.87673757" lon="35.68609382"><ele>1132.1</ele><time>2015-11-22T11:37:58.0000000+00:00</time></trkpt><trkpt lat="30.87673531" lon="35.6861312"><ele>1132.1</ele><time>2015-11-22T11:38:39.0000000+00:00</time></trkpt><trkpt lat="30.87669499" lon="35.68615501"><ele>1132.1</ele><time>2015-11-22T11:38:52.0000000+00:00</time></trkpt><trkpt lat="30.87666113" lon="35.68619398"><ele>1131.6</ele><time>2015-11-22T11:38:55.0000000+00:00</time></trkpt><trkpt lat="30.87653439" lon="35.68613539"><ele>1133.1</ele><time>2015-11-22T11:39:05.0000000+00:00</time></trkpt><trkpt lat="30.87629635" lon="35.68585225"><ele>1134.5</ele><time>2015-11-22T11:39:21.0000000+00:00</time></trkpt><trkpt lat="30.87601145" lon="35.68546962"><ele>1136.4</ele><time>2015-11-22T11:39:37.0000000+00:00</time></trkpt><trkpt lat="30.87579553" lon="35.68518053"><ele>1137.4</ele><time>2015-11-22T11:39:50.0000000+00:00</time></trkpt><trkpt lat="30.87554608" lon="35.68476319"><ele>1138.3</ele><time>2015-11-22T11:40:06.0000000+00:00</time></trkpt><trkpt lat="30.87543662" lon="35.68410236"><ele>1140.3</ele><time>2015-11-22T11:40:26.0000000+00:00</time></trkpt><trkpt lat="30.87541424" lon="35.68355989"><ele>1141.2</ele><time>2015-11-22T11:40:41.0000000+00:00</time></trkpt><trkpt lat="30.87539161" lon="35.68305253"><ele>1142.2</ele><time>2015-11-22T11:40:55.0000000+00:00</time></trkpt><trkpt lat="30.87536571" lon="35.68241861"><ele>1143.1</ele><time>2015-11-22T11:41:12.0000000+00:00</time></trkpt><trkpt lat="30.87534517" lon="35.68202608"><ele>1143.6</ele><time>2015-11-22T11:41:25.0000000+00:00</time></trkpt><trkpt lat="30.87531726" lon="35.68129585"><ele>1145.1</ele><time>2015-11-22T11:41:45.0000000+00:00</time></trkpt><trkpt lat="30.87530552" lon="35.68075522"><ele>1147.5</ele><time>2015-11-22T11:42:01.0000000+00:00</time></trkpt><trkpt lat="30.87530267" lon="35.68024417"><ele>1149.9</ele><time>2015-11-22T11:42:18.0000000+00:00</time></trkpt><trkpt lat="30.8752901" lon="35.67980672"><ele>1151.3</ele><time>2015-11-22T11:42:34.0000000+00:00</time></trkpt><trkpt lat="30.87527594" lon="35.67929023"><ele>1153.7</ele><time>2015-11-22T11:42:52.0000000+00:00</time></trkpt><trkpt lat="30.87526554" lon="35.67880752"><ele>1156.6</ele><time>2015-11-22T11:43:10.0000000+00:00</time></trkpt><trkpt lat="30.87525364" lon="35.67832321"><ele>1159.0</ele><time>2015-11-22T11:43:28.0000000+00:00</time></trkpt><trkpt lat="30.87524149" lon="35.67785257"><ele>1161.9</ele><time>2015-11-22T11:43:45.0000000+00:00</time></trkpt><trkpt lat="30.87514551" lon="35.67736264"><ele>1164.3</ele><time>2015-11-22T11:44:02.0000000+00:00</time></trkpt><trkpt lat="30.87500243" lon="35.67694833"><ele>1166.2</ele><time>2015-11-22T11:44:18.0000000+00:00</time></trkpt><trkpt lat="30.87486715" lon="35.67655982"><ele>1168.1</ele><time>2015-11-22T11:44:33.0000000+00:00</time></trkpt><trkpt lat="30.87468836" lon="35.67606881"><ele>1169.6</ele><time>2015-11-22T11:44:51.0000000+00:00</time></trkpt><trkpt lat="30.87449634" lon="35.67553975"><ele>1171.0</ele><time>2015-11-22T11:45:09.0000000+00:00</time></trkpt><trkpt lat="30.87433121" lon="35.67511872"><ele>1171.5</ele><time>2015-11-22T11:45:23.0000000+00:00</time></trkpt><trkpt lat="30.87416877" lon="35.67467649"><ele>1171.5</ele><time>2015-11-22T11:45:38.0000000+00:00</time></trkpt><trkpt lat="30.87387976" lon="35.67387921"><ele>1169.1</ele><time>2015-11-22T11:45:52.0000000+00:00</time></trkpt><trkpt lat="30.87342421" lon="35.67259468"><ele>1166.2</ele><time>2015-11-22T11:46:08.0000000+00:00</time></trkpt><trkpt lat="30.873086" lon="35.67166236"><ele>1165.3</ele><time>2015-11-22T11:46:21.0000000+00:00</time></trkpt><trkpt lat="30.87292003" lon="35.67119105"><ele>1165.3</ele><time>2015-11-22T11:46:30.0000000+00:00</time></trkpt><trkpt lat="30.87292967" lon="35.67117462"><ele>1165.3</ele><time>2015-11-22T11:46:31.0000000+00:00</time></trkpt><trkpt lat="30.87294744" lon="35.67115241"><ele>1165.3</ele><time>2015-11-22T11:46:43.0000000+00:00</time></trkpt><trkpt lat="30.87290009" lon="35.67113556"><ele>1165.3</ele><time>2015-11-22T11:47:02.0000000+00:00</time></trkpt><trkpt lat="30.87286874" lon="35.6710732"><ele>1165.3</ele><time>2015-11-22T11:47:06.0000000+00:00</time></trkpt><trkpt lat="30.87285843" lon="35.67104235"><ele>1165.3</ele><time>2015-11-22T11:47:07.0000000+00:00</time></trkpt><trkpt lat="30.87284745" lon="35.67101159"><ele>1164.8</ele><time>2015-11-22T11:47:08.0000000+00:00</time></trkpt><trkpt lat="30.87260664" lon="35.67036644"><ele>1163.8</ele><time>2015-11-22T11:47:26.0000000+00:00</time></trkpt><trkpt lat="30.87239139" lon="35.66987802"><ele>1163.8</ele><time>2015-11-22T11:47:41.0000000+00:00</time></trkpt><trkpt lat="30.87198093" lon="35.66936555"><ele>1162.9</ele><time>2015-11-22T11:47:59.0000000+00:00</time></trkpt><trkpt lat="30.87183642" lon="35.66925114"><ele>1162.9</ele><time>2015-11-22T11:48:12.0000000+00:00</time></trkpt><trkpt lat="30.87180985" lon="35.66924561"><ele>1162.4</ele><time>2015-11-22T11:48:38.0000000+00:00</time></trkpt><trkpt lat="30.87183131" lon="35.66925885"><ele>1162.9</ele><time>2015-11-22T11:48:55.0000000+00:00</time></trkpt><trkpt lat="30.87182905" lon="35.66922055"><ele>1162.9</ele><time>2015-11-22T11:49:24.0000000+00:00</time></trkpt><trkpt lat="30.87182268" lon="35.6692384"><ele>1162.4</ele><time>2015-11-22T11:49:44.0000000+00:00</time></trkpt><trkpt lat="30.87182008" lon="35.66925055"><ele>1162.4</ele><time>2015-11-22T11:50:35.0000000+00:00</time></trkpt><trkpt lat="30.8718091" lon="35.66926145"><ele>1162.4</ele><time>2015-11-22T11:51:09.0000000+00:00</time></trkpt><trkpt lat="30.87181027" lon="35.66924008"><ele>1162.4</ele><time>2015-11-22T11:52:00.0000000+00:00</time></trkpt><trkpt lat="30.87180734" lon="35.66923932"><ele>1162.4</ele><time>2015-11-22T11:52:48.0000000+00:00</time></trkpt><trkpt lat="30.87179158" lon="35.66923765"><ele>1162.4</ele><time>2015-11-22T11:53:42.0000000+00:00</time></trkpt><trkpt lat="30.87179845" lon="35.66924863"><ele>1162.4</ele><time>2015-11-22T11:54:34.0000000+00:00</time></trkpt><trkpt lat="30.87179686" lon="35.66924787"><ele>1162.4</ele><time>2015-11-22T11:55:24.0000000+00:00</time></trkpt><trkpt lat="30.87181396" lon="35.66927109"><ele>1162.4</ele><time>2015-11-22T11:56:18.0000000+00:00</time></trkpt><trkpt lat="30.87180189" lon="35.66926891"><ele>1162.4</ele><time>2015-11-22T11:57:06.0000000+00:00</time></trkpt><trkpt lat="30.87181094" lon="35.66923161"><ele>1162.4</ele><time>2015-11-22T11:58:09.0000000+00:00</time></trkpt><trkpt lat="30.87180164" lon="35.66925173"><ele>1162.4</ele><time>2015-11-22T11:59:04.0000000+00:00</time></trkpt><trkpt lat="30.87179686" lon="35.66924653"><ele>1162.4</ele><time>2015-11-22T11:59:58.0000000+00:00</time></trkpt><trkpt lat="30.87181044" lon="35.66925508"><ele>1162.4</ele><time>2015-11-22T12:00:39.0000000+00:00</time></trkpt><trkpt lat="30.87181245" lon="35.66924318"><ele>1162.4</ele><time>2015-11-22T12:01:33.0000000+00:00</time></trkpt><trkpt lat="30.8718127" lon="35.66920563"><ele>1162.9</ele><time>2015-11-22T12:02:21.0000000+00:00</time></trkpt><trkpt lat="30.87180214" lon="35.66922884"><ele>1162.9</ele><time>2015-11-22T12:03:04.0000000+00:00</time></trkpt><trkpt lat="30.87182703" lon="35.66924854"><ele>1162.9</ele><time>2015-11-22T12:04:08.0000000+00:00</time></trkpt><trkpt lat="30.87179636" lon="35.66923991"><ele>1162.9</ele><time>2015-11-22T12:05:04.0000000+00:00</time></trkpt><trkpt lat="30.871793" lon="35.66921099"><ele>1162.9</ele><time>2015-11-22T12:05:48.0000000+00:00</time></trkpt><trkpt lat="30.87178705" lon="35.66923312"><ele>1162.9</ele><time>2015-11-22T12:06:31.0000000+00:00</time></trkpt><trkpt lat="30.87181446" lon="35.66921409"><ele>1162.9</ele><time>2015-11-22T12:07:27.0000000+00:00</time></trkpt><trkpt lat="30.87180918" lon="35.6692094"><ele>1162.9</ele><time>2015-11-22T12:08:20.0000000+00:00</time></trkpt><trkpt lat="30.87181094" lon="35.66923178"><ele>1163.3</ele><time>2015-11-22T12:09:10.0000000+00:00</time></trkpt><trkpt lat="30.87182377" lon="35.66921057"><ele>1163.3</ele><time>2015-11-22T12:10:11.0000000+00:00</time></trkpt><trkpt lat="30.87179275" lon="35.66920931"><ele>1163.3</ele><time>2015-11-22T12:10:55.0000000+00:00</time></trkpt><trkpt lat="30.87182351" lon="35.66922398"><ele>1163.3</ele><time>2015-11-22T12:11:49.0000000+00:00</time></trkpt><trkpt lat="30.8718179" lon="35.66923907"><ele>1164.3</ele><time>2015-11-22T12:12:24.0000000+00:00</time></trkpt><trkpt lat="30.87183533" lon="35.66924863"><ele>1164.3</ele><time>2015-11-22T12:12:47.0000000+00:00</time></trkpt><trkpt lat="30.87181287" lon="35.66924703"><ele>1164.8</ele><time>2015-11-22T12:13:03.0000000+00:00</time></trkpt><trkpt lat="30.87181647" lon="35.66925156"><ele>1164.3</ele><time>2015-11-22T12:13:40.0000000+00:00</time></trkpt><trkpt lat="30.87178546" lon="35.6692405"><ele>1164.3</ele><time>2015-11-22T12:13:52.0000000+00:00</time></trkpt><trkpt lat="30.87177322" lon="35.6692353"><ele>1164.3</ele><time>2015-11-22T12:13:53.0000000+00:00</time></trkpt><trkpt lat="30.87176082" lon="35.66923178"><ele>1164.3</ele><time>2015-11-22T12:13:54.0000000+00:00</time></trkpt><trkpt lat="30.87174875" lon="35.66922658"><ele>1164.3</ele><time>2015-11-22T12:13:55.0000000+00:00</time></trkpt><trkpt lat="30.87173819" lon="35.66922164"><ele>1163.8</ele><time>2015-11-22T12:13:56.0000000+00:00</time></trkpt><trkpt lat="30.87172436" lon="35.66921828"><ele>1163.8</ele><time>2015-11-22T12:13:57.0000000+00:00</time></trkpt><trkpt lat="30.87167775" lon="35.66918551"><ele>1164.3</ele><time>2015-11-22T12:14:01.0000000+00:00</time></trkpt><trkpt lat="30.87166359" lon="35.66917746"><ele>1164.3</ele><time>2015-11-22T12:14:02.0000000+00:00</time></trkpt><trkpt lat="30.87128934" lon="35.66896146"><ele>1164.8</ele><time>2015-11-22T12:14:19.0000000+00:00</time></trkpt><trkpt lat="30.87088742" lon="35.66872979"><ele>1166.7</ele><time>2015-11-22T12:14:34.0000000+00:00</time></trkpt><trkpt lat="30.87035802" lon="35.66842393"><ele>1169.1</ele><time>2015-11-22T12:14:51.0000000+00:00</time></trkpt><trkpt lat="30.86989819" lon="35.66818748"><ele>1171.5</ele><time>2015-11-22T12:15:08.0000000+00:00</time></trkpt><trkpt lat="30.86940693" lon="35.66791758"><ele>1173.9</ele><time>2015-11-22T12:15:27.0000000+00:00</time></trkpt><trkpt lat="30.86892631" lon="35.66767333"><ele>1175.4</ele><time>2015-11-22T12:15:45.0000000+00:00</time></trkpt><trkpt lat="30.86827126" lon="35.66732573"><ele>1177.3</ele><time>2015-11-22T12:16:07.0000000+00:00</time></trkpt><trkpt lat="30.86774069" lon="35.66703463"><ele>1177.8</ele><time>2015-11-22T12:16:24.0000000+00:00</time></trkpt><trkpt lat="30.86707248" lon="35.66668267"><ele>1178.7</ele><time>2015-11-22T12:16:43.0000000+00:00</time></trkpt><trkpt lat="30.86662749" lon="35.66643926"><ele>1179.2</ele><time>2015-11-22T12:16:56.0000000+00:00</time></trkpt><trkpt lat="30.86606188" lon="35.6661179"><ele>1178.7</ele><time>2015-11-22T12:17:11.0000000+00:00</time></trkpt><trkpt lat="30.86535369" lon="35.66564642"><ele>1179.2</ele><time>2015-11-22T12:17:28.0000000+00:00</time></trkpt><trkpt lat="30.86464039" lon="35.66487579"><ele>1180.2</ele><time>2015-11-22T12:17:48.0000000+00:00</time></trkpt><trkpt lat="30.86408081" lon="35.66412787"><ele>1182.1</ele><time>2015-11-22T12:18:06.0000000+00:00</time></trkpt><trkpt lat="30.86359986" lon="35.66350208"><ele>1184.0</ele><time>2015-11-22T12:18:23.0000000+00:00</time></trkpt><trkpt lat="30.86313978" lon="35.66289355"><ele>1185.9</ele><time>2015-11-22T12:18:41.0000000+00:00</time></trkpt><trkpt lat="30.86278472" lon="35.66242626"><ele>1188.8</ele><time>2015-11-22T12:18:57.0000000+00:00</time></trkpt><trkpt lat="30.86248356" lon="35.66200892"><ele>1191.2</ele><time>2015-11-22T12:19:12.0000000+00:00</time></trkpt><trkpt lat="30.86219531" lon="35.66160542"><ele>1193.6</ele><time>2015-11-22T12:19:29.0000000+00:00</time></trkpt><trkpt lat="30.86198836" lon="35.66133703"><ele>1196.0</ele><time>2015-11-22T12:19:43.0000000+00:00</time></trkpt><trkpt lat="30.86176163" lon="35.66102221"><ele>1197.9</ele><time>2015-11-22T12:19:59.0000000+00:00</time></trkpt><trkpt lat="30.86147983" lon="35.66060303"><ele>1199.4</ele><time>2015-11-22T12:20:17.0000000+00:00</time></trkpt><trkpt lat="30.86113223" lon="35.66013574"><ele>1198.4</ele><time>2015-11-22T12:20:31.0000000+00:00</time></trkpt><trkpt lat="30.86090768" lon="35.65982351"><ele>1197.9</ele><time>2015-11-22T12:20:37.0000000+00:00</time></trkpt><trkpt lat="30.86019832" lon="35.65884031"><ele>1195.5</ele><time>2015-11-22T12:20:53.0000000+00:00</time></trkpt><trkpt lat="30.85946088" lon="35.65788981"><ele>1198.4</ele><time>2015-11-22T12:21:11.0000000+00:00</time></trkpt><trkpt lat="30.85887213" lon="35.65740961"><ele>1199.9</ele><time>2015-11-22T12:21:26.0000000+00:00</time></trkpt><trkpt lat="30.85819362" lon="35.65708095"><ele>1199.9</ele><time>2015-11-22T12:21:42.0000000+00:00</time></trkpt><trkpt lat="30.85733791" lon="35.65669212"><ele>1201.3</ele><time>2015-11-22T12:22:03.0000000+00:00</time></trkpt><trkpt lat="30.85683986" lon="35.65649087"><ele>1201.8</ele><time>2015-11-22T12:22:18.0000000+00:00</time></trkpt><trkpt lat="30.85639293" lon="35.6562757"><ele>1201.3</ele><time>2015-11-22T12:22:31.0000000+00:00</time></trkpt><trkpt lat="30.8563548" lon="35.65625399"><ele>1201.3</ele><time>2015-11-22T12:22:32.0000000+00:00</time></trkpt><trkpt lat="30.85631389" lon="35.65623681"><ele>1200.8</ele><time>2015-11-22T12:22:33.0000000+00:00</time></trkpt><trkpt lat="30.85559313" lon="35.65589952"><ele>1198.9</ele><time>2015-11-22T12:22:48.0000000+00:00</time></trkpt><trkpt lat="30.85509005" lon="35.65571101"><ele>1197.9</ele><time>2015-11-22T12:22:58.0000000+00:00</time></trkpt><trkpt lat="30.8550447" lon="35.65569098"><ele>1197.9</ele><time>2015-11-22T12:22:59.0000000+00:00</time></trkpt><trkpt lat="30.85495208" lon="35.65565569"><ele>1197.9</ele><time>2015-11-22T12:23:01.0000000+00:00</time></trkpt><trkpt lat="30.85422873" lon="35.65530164"><ele>1196.5</ele><time>2015-11-22T12:23:14.0000000+00:00</time></trkpt><trkpt lat="30.85343337" lon="35.65457476"><ele>1197.0</ele><time>2015-11-22T12:23:29.0000000+00:00</time></trkpt><trkpt lat="30.85316054" lon="35.65429506"><ele>1198.4</ele><time>2015-11-22T12:23:37.0000000+00:00</time></trkpt><trkpt lat="30.85269542" lon="35.65382827"><ele>1201.3</ele><time>2015-11-22T12:23:52.0000000+00:00</time></trkpt><trkpt lat="30.85233081" lon="35.65345553"><ele>1203.7</ele><time>2015-11-22T12:24:06.0000000+00:00</time></trkpt><trkpt lat="30.85192722" lon="35.65305931"><ele>1205.6</ele><time>2015-11-22T12:24:23.0000000+00:00</time></trkpt><trkpt lat="30.85149908" lon="35.65269789"><ele>1207.6</ele><time>2015-11-22T12:24:40.0000000+00:00</time></trkpt><trkpt lat="30.85121904" lon="35.65288598"><ele>1208.5</ele><time>2015-11-22T12:24:50.0000000+00:00</time></trkpt><trkpt lat="30.85089541" lon="35.65315822"><ele>1209.5</ele><time>2015-11-22T12:25:05.0000000+00:00</time></trkpt><trkpt lat="30.85049853" lon="35.65341177"><ele>1210.9</ele><time>2015-11-22T12:25:20.0000000+00:00</time></trkpt><trkpt lat="30.85045561" lon="35.65342468"><ele>1210.4</ele><time>2015-11-22T12:25:30.0000000+00:00</time></trkpt><trkpt lat="30.85043424" lon="35.65345896"><ele>1210.9</ele><time>2015-11-22T12:25:47.0000000+00:00</time></trkpt><trkpt lat="30.85042594" lon="35.65346978"><ele>1210.4</ele><time>2015-11-22T12:25:48.0000000+00:00</time></trkpt><trkpt lat="30.85041488" lon="35.65348076"><ele>1210.4</ele><time>2015-11-22T12:25:49.0000000+00:00</time></trkpt><trkpt lat="30.85020466" lon="35.65363364"><ele>1210.9</ele><time>2015-11-22T12:25:59.0000000+00:00</time></trkpt><trkpt lat="30.84996996" lon="35.65379768"><ele>1211.4</ele><time>2015-11-22T12:26:09.0000000+00:00</time></trkpt><trkpt lat="30.84961424" lon="35.65409574"><ele>1213.3</ele><time>2015-11-22T12:26:23.0000000+00:00</time></trkpt><trkpt lat="30.84924007" lon="35.65446504"><ele>1215.2</ele><time>2015-11-22T12:26:38.0000000+00:00</time></trkpt><trkpt lat="30.84886054" lon="35.65465263"><ele>1215.2</ele><time>2015-11-22T12:26:52.0000000+00:00</time></trkpt><trkpt lat="30.84838796" lon="35.65463888"><ele>1214.8</ele><time>2015-11-22T12:27:07.0000000+00:00</time></trkpt><trkpt lat="30.84774784" lon="35.65446781"><ele>1212.8</ele><time>2015-11-22T12:27:21.0000000+00:00</time></trkpt><trkpt lat="30.84688148" lon="35.65405617"><ele>1210.4</ele><time>2015-11-22T12:27:37.0000000+00:00</time></trkpt><trkpt lat="30.84636885" lon="35.65385182"><ele>1210.0</ele><time>2015-11-22T12:27:46.0000000+00:00</time></trkpt><trkpt lat="30.84604874" lon="35.65366432"><ele>1208.5</ele><time>2015-11-22T12:27:51.0000000+00:00</time></trkpt><trkpt lat="30.84598169" lon="35.65364538"><ele>1208.5</ele><time>2015-11-22T12:27:52.0000000+00:00</time></trkpt><trkpt lat="30.8459148" lon="35.65363599"><ele>1208.5</ele><time>2015-11-22T12:27:53.0000000+00:00</time></trkpt><trkpt lat="30.84509128" lon="35.65357547"><ele>1209.5</ele><time>2015-11-22T12:28:07.0000000+00:00</time></trkpt><trkpt lat="30.84432475" lon="35.65346039"><ele>1208.0</ele><time>2015-11-22T12:28:19.0000000+00:00</time></trkpt><trkpt lat="30.84425963" lon="35.6534624"><ele>1208.0</ele><time>2015-11-22T12:28:20.0000000+00:00</time></trkpt><trkpt lat="30.84311198" lon="35.65356491"><ele>1208.0</ele><time>2015-11-22T12:28:38.0000000+00:00</time></trkpt><trkpt lat="30.84274434" lon="35.65358637"><ele>1208.5</ele><time>2015-11-22T12:28:44.0000000+00:00</time></trkpt><trkpt lat="30.84268374" lon="35.65359232"><ele>1208.5</ele><time>2015-11-22T12:28:45.0000000+00:00</time></trkpt><trkpt lat="30.84182418" lon="35.65375283"><ele>1208.5</ele><time>2015-11-22T12:28:59.0000000+00:00</time></trkpt><trkpt lat="30.84144465" lon="35.65386817"><ele>1211.4</ele><time>2015-11-22T12:29:09.0000000+00:00</time></trkpt><trkpt lat="30.84093813" lon="35.65369466"><ele>1211.4</ele><time>2015-11-22T12:29:24.0000000+00:00</time></trkpt><trkpt lat="30.84066547" lon="35.65367337"><ele>1210.0</ele><time>2015-11-22T12:29:35.0000000+00:00</time></trkpt><trkpt lat="30.84063211" lon="35.65369525"><ele>1210.0</ele><time>2015-11-22T12:29:36.0000000+00:00</time></trkpt><trkpt lat="30.84060973" lon="35.65373087"><ele>1209.5</ele><time>2015-11-22T12:29:37.0000000+00:00</time></trkpt><trkpt lat="30.84060067" lon="35.65377697"><ele>1209.0</ele><time>2015-11-22T12:29:38.0000000+00:00</time></trkpt><trkpt lat="30.84060227" lon="35.65382869"><ele>1209.0</ele><time>2015-11-22T12:29:39.0000000+00:00</time></trkpt><trkpt lat="30.84061249" lon="35.65388518"><ele>1208.5</ele><time>2015-11-22T12:29:40.0000000+00:00</time></trkpt><trkpt lat="30.84062523" lon="35.65394713"><ele>1208.0</ele><time>2015-11-22T12:29:41.0000000+00:00</time></trkpt><trkpt lat="30.84063588" lon="35.65401577"><ele>1207.6</ele><time>2015-11-22T12:29:42.0000000+00:00</time></trkpt><trkpt lat="30.84064133" lon="35.65409062"><ele>1207.6</ele><time>2015-11-22T12:29:43.0000000+00:00</time></trkpt><trkpt lat="30.84064267" lon="35.65417117"><ele>1206.6</ele><time>2015-11-22T12:29:44.0000000+00:00</time></trkpt><trkpt lat="30.84061283" lon="35.65463344"><ele>1203.7</ele><time>2015-11-22T12:29:49.0000000+00:00</time></trkpt><trkpt lat="30.84060369" lon="35.6547388"><ele>1203.7</ele><time>2015-11-22T12:29:50.0000000+00:00</time></trkpt><trkpt lat="30.84056589" lon="35.65518765"><ele>1200.3</ele><time>2015-11-22T12:29:54.0000000+00:00</time></trkpt><trkpt lat="30.84050822" lon="35.65594185"><ele>1196.5</ele><time>2015-11-22T12:30:00.0000000+00:00</time></trkpt><trkpt lat="30.84046187" lon="35.65631728"><ele>1195.1</ele><time>2015-11-22T12:30:03.0000000+00:00</time></trkpt><trkpt lat="30.8404301" lon="35.6564358"><ele>1194.6</ele><time>2015-11-22T12:30:04.0000000+00:00</time></trkpt><trkpt lat="30.84038761" lon="35.6565482"><ele>1194.1</ele><time>2015-11-22T12:30:05.0000000+00:00</time></trkpt><trkpt lat="30.84033614" lon="35.65665465"><ele>1193.6</ele><time>2015-11-22T12:30:06.0000000+00:00</time></trkpt><trkpt lat="30.84027495" lon="35.65675263"><ele>1193.1</ele><time>2015-11-22T12:30:07.0000000+00:00</time></trkpt><trkpt lat="30.84020639" lon="35.65684056"><ele>1193.6</ele><time>2015-11-22T12:30:08.0000000+00:00</time></trkpt><trkpt lat="30.84013372" lon="35.65691952"><ele>1193.1</ele><time>2015-11-22T12:30:09.0000000+00:00</time></trkpt><trkpt lat="30.84005694" lon="35.65698833"><ele>1193.1</ele><time>2015-11-22T12:30:10.0000000+00:00</time></trkpt><trkpt lat="30.83997781" lon="35.65704835"><ele>1192.7</ele><time>2015-11-22T12:30:11.0000000+00:00</time></trkpt><trkpt lat="30.83989634" lon="35.65710006"><ele>1192.7</ele><time>2015-11-22T12:30:12.0000000+00:00</time></trkpt><trkpt lat="30.83981303" lon="35.65714063"><ele>1192.7</ele><time>2015-11-22T12:30:13.0000000+00:00</time></trkpt><trkpt lat="30.83972904" lon="35.65717164"><ele>1192.7</ele><time>2015-11-22T12:30:14.0000000+00:00</time></trkpt><trkpt lat="30.83964556" lon="35.65719654"><ele>1193.1</ele><time>2015-11-22T12:30:15.0000000+00:00</time></trkpt><trkpt lat="30.83886788" lon="35.65746384"><ele>1195.1</ele><time>2015-11-22T12:30:27.0000000+00:00</time></trkpt><trkpt lat="30.83816556" lon="35.65781345"><ele>1197.5</ele><time>2015-11-22T12:30:43.0000000+00:00</time></trkpt><trkpt lat="30.83759853" lon="35.65822441"><ele>1198.4</ele><time>2015-11-22T12:31:00.0000000+00:00</time></trkpt><trkpt lat="30.83704524" lon="35.65881148"><ele>1200.3</ele><time>2015-11-22T12:31:20.0000000+00:00</time></trkpt><trkpt lat="30.83659169" lon="35.65946963"><ele>1201.8</ele><time>2015-11-22T12:31:41.0000000+00:00</time></trkpt><trkpt lat="30.83617385" lon="35.66008804"><ele>1203.7</ele><time>2015-11-22T12:32:01.0000000+00:00</time></trkpt><trkpt lat="30.83582542" lon="35.66058953"><ele>1205.6</ele><time>2015-11-22T12:32:19.0000000+00:00</time></trkpt><trkpt lat="30.83545217" lon="35.66113109"><ele>1208.0</ele><time>2015-11-22T12:32:39.0000000+00:00</time></trkpt><trkpt lat="30.83513794" lon="35.66161087"><ele>1210.0</ele><time>2015-11-22T12:32:56.0000000+00:00</time></trkpt><trkpt lat="30.83481783" lon="35.66209367"><ele>1212.4</ele><time>2015-11-22T12:33:13.0000000+00:00</time></trkpt><trkpt lat="30.83453444" lon="35.66252232"><ele>1213.8</ele><time>2015-11-22T12:33:29.0000000+00:00</time></trkpt><trkpt lat="30.83422699" lon="35.66299874"><ele>1215.7</ele><time>2015-11-22T12:33:47.0000000+00:00</time></trkpt><trkpt lat="30.83387386" lon="35.66352529"><ele>1217.7</ele><time>2015-11-22T12:34:07.0000000+00:00</time></trkpt><trkpt lat="30.83354152" lon="35.66402393"><ele>1220.1</ele><time>2015-11-22T12:34:25.0000000+00:00</time></trkpt><trkpt lat="30.83317774" lon="35.66457395"><ele>1222.5</ele><time>2015-11-22T12:34:45.0000000+00:00</time></trkpt><trkpt lat="30.83283694" lon="35.66517418"><ele>1223.9</ele><time>2015-11-22T12:35:05.0000000+00:00</time></trkpt><trkpt lat="30.8324766" lon="35.66585915"><ele>1224.9</ele><time>2015-11-22T12:35:24.0000000+00:00</time></trkpt><trkpt lat="30.83213948" lon="35.66674277"><ele>1222.9</ele><time>2015-11-22T12:35:42.0000000+00:00</time></trkpt><trkpt lat="30.83191618" lon="35.66750695"><ele>1220.5</ele><time>2015-11-22T12:35:57.0000000+00:00</time></trkpt><trkpt lat="30.83192331" lon="35.66747912"><ele>1221.0</ele><time>2015-11-22T12:36:10.0000000+00:00</time></trkpt><trkpt lat="30.83192255" lon="35.66747124"><ele>1220.5</ele><time>2015-11-22T12:36:36.0000000+00:00</time></trkpt><trkpt lat="30.83191744" lon="35.66747007"><ele>1221.0</ele><time>2015-11-22T12:37:11.0000000+00:00</time></trkpt><trkpt lat="30.83191845" lon="35.66746923"><ele>1221.0</ele><time>2015-11-22T12:37:36.0000000+00:00</time></trkpt><trkpt lat="30.83192213" lon="35.66749245"><ele>1220.5</ele><time>2015-11-22T12:38:11.0000000+00:00</time></trkpt><trkpt lat="30.83192666" lon="35.66748742"><ele>1221.0</ele><time>2015-11-22T12:38:35.0000000+00:00</time></trkpt><trkpt lat="30.83192012" lon="35.6674777"><ele>1221.0</ele><time>2015-11-22T12:39:07.0000000+00:00</time></trkpt><trkpt lat="30.83192255" lon="35.66747946"><ele>1221.5</ele><time>2015-11-22T12:39:38.0000000+00:00</time></trkpt><trkpt lat="30.83192037" lon="35.66748055"><ele>1221.5</ele><time>2015-11-22T12:40:00.0000000+00:00</time></trkpt><trkpt lat="30.83190017" lon="35.6675984"><ele>1220.5</ele><time>2015-11-22T12:40:19.0000000+00:00</time></trkpt><trkpt lat="30.83187126" lon="35.66774961"><ele>1220.5</ele><time>2015-11-22T12:40:22.0000000+00:00</time></trkpt><trkpt lat="30.83186178" lon="35.66780669"><ele>1220.1</ele><time>2015-11-22T12:40:23.0000000+00:00</time></trkpt><trkpt lat="30.83183932" lon="35.66792462"><ele>1219.6</ele><time>2015-11-22T12:40:25.0000000+00:00</time></trkpt><trkpt lat="30.83181459" lon="35.66811916"><ele>1219.1</ele><time>2015-11-22T12:40:28.0000000+00:00</time></trkpt><trkpt lat="30.83169783" lon="35.66867991"><ele>1215.7</ele><time>2015-11-22T12:40:35.0000000+00:00</time></trkpt><trkpt lat="30.83159541" lon="35.6691638"><ele>1212.4</ele><time>2015-11-22T12:40:40.0000000+00:00</time></trkpt><trkpt lat="30.83155149" lon="35.66937318"><ele>1211.4</ele><time>2015-11-22T12:40:42.0000000+00:00</time></trkpt><trkpt lat="30.83146448" lon="35.66980208"><ele>1208.5</ele><time>2015-11-22T12:40:46.0000000+00:00</time></trkpt><trkpt lat="30.83135074" lon="35.67036702"><ele>1205.2</ele><time>2015-11-22T12:40:51.0000000+00:00</time></trkpt><trkpt lat="30.83122878" lon="35.67094537"><ele>1201.8</ele><time>2015-11-22T12:40:56.0000000+00:00</time></trkpt><trkpt lat="30.83117849" lon="35.67118367"><ele>1200.8</ele><time>2015-11-22T12:40:58.0000000+00:00</time></trkpt><trkpt lat="30.83112887" lon="35.67141945"><ele>1199.9</ele><time>2015-11-22T12:41:00.0000000+00:00</time></trkpt><trkpt lat="30.83105578" lon="35.67176236"><ele>1197.5</ele><time>2015-11-22T12:41:03.0000000+00:00</time></trkpt><trkpt lat="30.83096769" lon="35.6722071"><ele>1196.0</ele><time>2015-11-22T12:41:07.0000000+00:00</time></trkpt><trkpt lat="30.83077381" lon="35.67314856"><ele>1192.7</ele><time>2015-11-22T12:41:16.0000000+00:00</time></trkpt><trkpt lat="30.83059478" lon="35.67404601"><ele>1189.3</ele><time>2015-11-22T12:41:25.0000000+00:00</time></trkpt><trkpt lat="30.83041071" lon="35.67495117"><ele>1186.4</ele><time>2015-11-22T12:41:34.0000000+00:00</time></trkpt><trkpt lat="30.83025548" lon="35.67569657"><ele>1183.0</ele><time>2015-11-22T12:41:42.0000000+00:00</time></trkpt><trkpt lat="30.83004316" lon="35.67676376"><ele>1179.7</ele><time>2015-11-22T12:41:54.0000000+00:00</time></trkpt><trkpt lat="30.82986136" lon="35.67767479"><ele>1176.8</ele><time>2015-11-22T12:42:04.0000000+00:00</time></trkpt><trkpt lat="30.82965651" lon="35.67865086"><ele>1173.4</ele><time>2015-11-22T12:42:14.0000000+00:00</time></trkpt><trkpt lat="30.82953388" lon="35.67926307"><ele>1171.5</ele><time>2015-11-22T12:42:20.0000000+00:00</time></trkpt><trkpt lat="30.8292002" lon="35.68090458"><ele>1170.5</ele><time>2015-11-22T12:42:38.0000000+00:00</time></trkpt><trkpt lat="30.82901772" lon="35.681738"><ele>1173.0</ele><time>2015-11-22T12:42:52.0000000+00:00</time></trkpt><trkpt lat="30.82888839" lon="35.68231953"><ele>1175.4</ele><time>2015-11-22T12:43:07.0000000+00:00</time></trkpt><trkpt lat="30.828778" lon="35.68286746"><ele>1177.8</ele><time>2015-11-22T12:43:25.0000000+00:00</time></trkpt><trkpt lat="30.82867968" lon="35.68335763"><ele>1180.2</ele><time>2015-11-22T12:43:42.0000000+00:00</time></trkpt><trkpt lat="30.8286174" lon="35.68372065"><ele>1181.6</ele><time>2015-11-22T12:43:55.0000000+00:00</time></trkpt><trkpt lat="30.82849729" lon="35.6843379"><ele>1184.0</ele><time>2015-11-22T12:44:16.0000000+00:00</time></trkpt><trkpt lat="30.82837433" lon="35.68491809"><ele>1185.9</ele><time>2015-11-22T12:44:35.0000000+00:00</time></trkpt><trkpt lat="30.82824273" lon="35.68547918"><ele>1186.9</ele><time>2015-11-22T12:44:55.0000000+00:00</time></trkpt><trkpt lat="30.82819344" lon="35.68577313"><ele>1187.4</ele><time>2015-11-22T12:45:07.0000000+00:00</time></trkpt><trkpt lat="30.82816721" lon="35.68588159"><ele>1186.9</ele><time>2015-11-22T12:45:19.0000000+00:00</time></trkpt><trkpt lat="30.82817802" lon="35.68584203"><ele>1187.4</ele><time>2015-11-22T12:45:38.0000000+00:00</time></trkpt><trkpt lat="30.82818707" lon="35.68580573"><ele>1187.4</ele><time>2015-11-22T12:45:40.0000000+00:00</time></trkpt><trkpt lat="30.8281978" lon="35.68578495"><ele>1187.4</ele><time>2015-11-22T12:45:41.0000000+00:00</time></trkpt><trkpt lat="30.82821038" lon="35.68576785"><ele>1187.4</ele><time>2015-11-22T12:45:42.0000000+00:00</time></trkpt><trkpt lat="30.82822789" lon="35.68575435"><ele>1186.9</ele><time>2015-11-22T12:45:43.0000000+00:00</time></trkpt><trkpt lat="30.82824935" lon="35.68574186"><ele>1187.4</ele><time>2015-11-22T12:45:44.0000000+00:00</time></trkpt><trkpt lat="30.82827022" lon="35.68572267"><ele>1186.9</ele><time>2015-11-22T12:45:45.0000000+00:00</time></trkpt><trkpt lat="30.82828791" lon="35.68569467"><ele>1186.9</ele><time>2015-11-22T12:45:46.0000000+00:00</time></trkpt><trkpt lat="30.82830157" lon="35.68566073"><ele>1186.9</ele><time>2015-11-22T12:45:47.0000000+00:00</time></trkpt><trkpt lat="30.82840911" lon="35.68508548"><ele>1185.9</ele><time>2015-11-22T12:46:02.0000000+00:00</time></trkpt><trkpt lat="30.8285687" lon="35.6843187"><ele>1184.0</ele><time>2015-11-22T12:46:17.0000000+00:00</time></trkpt><trkpt lat="30.8285915" lon="35.68385493"><ele>1182.6</ele><time>2015-11-22T12:46:28.0000000+00:00</time></trkpt><trkpt lat="30.82855848" lon="35.68373934"><ele>1182.1</ele><time>2015-11-22T12:46:31.0000000+00:00</time></trkpt><trkpt lat="30.82849855" lon="35.68374161"><ele>1182.1</ele><time>2015-11-22T12:46:33.0000000+00:00</time></trkpt><trkpt lat="30.828477" lon="35.68375896"><ele>1182.1</ele><time>2015-11-22T12:46:34.0000000+00:00</time></trkpt><trkpt lat="30.82846276" lon="35.68378285"><ele>1182.1</ele><time>2015-11-22T12:46:35.0000000+00:00</time></trkpt><trkpt lat="30.82845605" lon="35.68380975"><ele>1182.1</ele><time>2015-11-22T12:46:36.0000000+00:00</time></trkpt><trkpt lat="30.82845119" lon="35.68383523"><ele>1182.1</ele><time>2015-11-22T12:46:37.0000000+00:00</time></trkpt><trkpt lat="30.82844943" lon="35.68385728"><ele>1182.6</ele><time>2015-11-22T12:46:38.0000000+00:00</time></trkpt><trkpt lat="30.82844499" lon="35.68388351"><ele>1182.6</ele><time>2015-11-22T12:46:39.0000000+00:00</time></trkpt><trkpt lat="30.82843987" lon="35.68390899"><ele>1183.0</ele><time>2015-11-22T12:46:40.0000000+00:00</time></trkpt><trkpt lat="30.82837475" lon="35.68431007"><ele>1185.4</ele><time>2015-11-22T12:46:55.0000000+00:00</time></trkpt><trkpt lat="30.82831121" lon="35.68460989"><ele>1188.8</ele><time>2015-11-22T12:47:08.0000000+00:00</time></trkpt><trkpt lat="30.82829554" lon="35.68465255"><ele>1189.3</ele><time>2015-11-22T12:47:11.0000000+00:00</time></trkpt><trkpt lat="30.82828841" lon="35.68466521"><ele>1189.8</ele><time>2015-11-22T12:47:12.0000000+00:00</time></trkpt><trkpt lat="30.82828422" lon="35.68467988"><ele>1189.8</ele><time>2015-11-22T12:47:13.0000000+00:00</time></trkpt><trkpt lat="30.8282812" lon="35.6846953"><ele>1189.8</ele><time>2015-11-22T12:47:14.0000000+00:00</time></trkpt><trkpt lat="30.82827668" lon="35.68471148"><ele>1189.8</ele><time>2015-11-22T12:47:15.0000000+00:00</time></trkpt><trkpt lat="30.82818565" lon="35.68499713"><ele>1192.2</ele><time>2015-11-22T12:47:31.0000000+00:00</time></trkpt><trkpt lat="30.82812823" lon="35.68529896"><ele>1194.1</ele><time>2015-11-22T12:47:47.0000000+00:00</time></trkpt><trkpt lat="30.82806353" lon="35.68564187"><ele>1196.5</ele><time>2015-11-22T12:48:05.0000000+00:00</time></trkpt><trkpt lat="30.82799639" lon="35.68602945"><ele>1197.9</ele><time>2015-11-22T12:48:24.0000000+00:00</time></trkpt><trkpt lat="30.82796998" lon="35.68634209"><ele>1199.4</ele><time>2015-11-22T12:48:38.0000000+00:00</time></trkpt><trkpt lat="30.8279694" lon="35.68698398"><ele>1200.8</ele><time>2015-11-22T12:49:02.0000000+00:00</time></trkpt><trkpt lat="30.82796722" lon="35.68751589"><ele>1199.4</ele><time>2015-11-22T12:49:17.0000000+00:00</time></trkpt><trkpt lat="30.82795674" lon="35.68756417"><ele>1198.9</ele><time>2015-11-22T12:49:18.0000000+00:00</time></trkpt><trkpt lat="30.82794459" lon="35.6876153"><ele>1198.9</ele><time>2015-11-22T12:49:19.0000000+00:00</time></trkpt><trkpt lat="30.82768978" lon="35.68785653"><ele>1198.9</ele><time>2015-11-22T12:49:28.0000000+00:00</time></trkpt><trkpt lat="30.82762926" lon="35.68782016"><ele>1199.4</ele><time>2015-11-22T12:49:30.0000000+00:00</time></trkpt><trkpt lat="30.82721142" lon="35.68747784"><ele>1199.9</ele><time>2015-11-22T12:49:45.0000000+00:00</time></trkpt><trkpt lat="30.82700078" lon="35.68733619"><ele>1199.4</ele><time>2015-11-22T12:49:56.0000000+00:00</time></trkpt><trkpt lat="30.82701285" lon="35.68734063"><ele>1199.4</ele><time>2015-11-22T12:50:21.0000000+00:00</time></trkpt><trkpt lat="30.82700632" lon="35.68734574"><ele>1199.4</ele><time>2015-11-22T12:50:39.0000000+00:00</time></trkpt><trkpt lat="30.82700548" lon="35.68734901"><ele>1199.4</ele><time>2015-11-22T12:51:09.0000000+00:00</time></trkpt><trkpt lat="30.82688327" lon="35.68727039"><ele>1198.9</ele><time>2015-11-22T12:51:21.0000000+00:00</time></trkpt><trkpt lat="30.82649418" lon="35.68694224"><ele>1197.5</ele><time>2015-11-22T12:51:35.0000000+00:00</time></trkpt><trkpt lat="30.82579907" lon="35.68634737"><ele>1195.1</ele><time>2015-11-22T12:51:53.0000000+00:00</time></trkpt><trkpt lat="30.82526472" lon="35.68597455"><ele>1191.7</ele><time>2015-11-22T12:52:03.0000000+00:00</time></trkpt><trkpt lat="30.8252234" lon="35.68594303"><ele>1191.2</ele><time>2015-11-22T12:52:04.0000000+00:00</time></trkpt><trkpt lat="30.82514453" lon="35.68587665"><ele>1190.7</ele><time>2015-11-22T12:52:06.0000000+00:00</time></trkpt><trkpt lat="30.82487455" lon="35.68556325"><ele>1186.9</ele><time>2015-11-22T12:52:14.0000000+00:00</time></trkpt><trkpt lat="30.82467732" lon="35.68527273"><ele>1183.5</ele><time>2015-11-22T12:52:19.0000000+00:00</time></trkpt><trkpt lat="30.82435344" lon="35.68505572"><ele>1179.7</ele><time>2015-11-22T12:52:25.0000000+00:00</time></trkpt><trkpt lat="30.82420936" lon="35.68502965"><ele>1178.7</ele><time>2015-11-22T12:52:27.0000000+00:00</time></trkpt><trkpt lat="30.82347016" lon="35.68454258"><ele>1175.4</ele><time>2015-11-22T12:52:37.0000000+00:00</time></trkpt><trkpt lat="30.82309197" lon="35.68395359"><ele>1177.3</ele><time>2015-11-22T12:52:48.0000000+00:00</time></trkpt><trkpt lat="30.82272928" lon="35.6834609"><ele>1177.8</ele><time>2015-11-22T12:53:02.0000000+00:00</time></trkpt><trkpt lat="30.82257539" lon="35.68326945"><ele>1178.2</ele><time>2015-11-22T12:53:10.0000000+00:00</time></trkpt><trkpt lat="30.82254563" lon="35.68323844"><ele>1178.2</ele><time>2015-11-22T12:53:19.0000000+00:00</time></trkpt><trkpt lat="30.82253943" lon="35.68323115"><ele>1178.2</ele><time>2015-11-22T12:53:43.0000000+00:00</time></trkpt><trkpt lat="30.82254698" lon="35.68323836"><ele>1178.2</ele><time>2015-11-22T12:54:05.0000000+00:00</time></trkpt><trkpt lat="30.8225453" lon="35.68324615"><ele>1178.2</ele><time>2015-11-22T12:54:35.0000000+00:00</time></trkpt><trkpt lat="30.82249132" lon="35.68316745"><ele>1178.2</ele><time>2015-11-22T12:54:40.0000000+00:00</time></trkpt><trkpt lat="30.82221748" lon="35.68281482"><ele>1178.7</ele><time>2015-11-22T12:54:52.0000000+00:00</time></trkpt><trkpt lat="30.8221402" lon="35.6826994"><ele>1178.7</ele><time>2015-11-22T12:54:55.0000000+00:00</time></trkpt><trkpt lat="30.82209335" lon="35.68261977"><ele>1178.7</ele><time>2015-11-22T12:54:57.0000000+00:00</time></trkpt><trkpt lat="30.82180166" lon="35.68211225"><ele>1179.2</ele><time>2015-11-22T12:55:09.0000000+00:00</time></trkpt><trkpt lat="30.82143411" lon="35.68151412"><ele>1179.7</ele><time>2015-11-22T12:55:23.0000000+00:00</time></trkpt><trkpt lat="30.8209265" lon="35.68091649"><ele>1181.1</ele><time>2015-11-22T12:55:40.0000000+00:00</time></trkpt><trkpt lat="30.82037782" lon="35.68034635"><ele>1181.6</ele><time>2015-11-22T12:55:57.0000000+00:00</time></trkpt><trkpt lat="30.82027439" lon="35.6802523"><ele>1181.6</ele><time>2015-11-22T12:56:00.0000000+00:00</time></trkpt><trkpt lat="30.81977835" lon="35.67984134"><ele>1182.1</ele><time>2015-11-22T12:56:15.0000000+00:00</time></trkpt><trkpt lat="30.81936051" lon="35.67939081"><ele>1183.5</ele><time>2015-11-22T12:56:30.0000000+00:00</time></trkpt><trkpt lat="30.81891434" lon="35.67889242"><ele>1184.5</ele><time>2015-11-22T12:56:46.0000000+00:00</time></trkpt><trkpt lat="30.8187462" lon="35.67871263"><ele>1185.0</ele><time>2015-11-22T12:56:52.0000000+00:00</time></trkpt><trkpt lat="30.81828436" lon="35.6781487"><ele>1186.4</ele><time>2015-11-22T12:57:09.0000000+00:00</time></trkpt><trkpt lat="30.81790826" lon="35.67778953"><ele>1187.4</ele><time>2015-11-22T12:57:23.0000000+00:00</time></trkpt><trkpt lat="30.81738523" lon="35.67758485"><ele>1187.9</ele><time>2015-11-22T12:57:37.0000000+00:00</time></trkpt><trkpt lat="30.8169461" lon="35.67709845"><ele>1188.8</ele><time>2015-11-22T12:57:52.0000000+00:00</time></trkpt><trkpt lat="30.81658828" lon="35.67663317"><ele>1189.8</ele><time>2015-11-22T12:58:06.0000000+00:00</time></trkpt><trkpt lat="30.81617296" lon="35.67618708"><ele>1190.7</ele><time>2015-11-22T12:58:21.0000000+00:00</time></trkpt><trkpt lat="30.8157003" lon="35.67579296"><ele>1191.2</ele><time>2015-11-22T12:58:37.0000000+00:00</time></trkpt><trkpt lat="30.81546192" lon="35.67554989"><ele>1190.3</ele><time>2015-11-22T12:58:50.0000000+00:00</time></trkpt><trkpt lat="30.81507468" lon="35.67528795"><ele>1190.3</ele><time>2015-11-22T12:59:05.0000000+00:00</time></trkpt><trkpt lat="30.81471425" lon="35.67518712"><ele>1192.7</ele><time>2015-11-22T12:59:18.0000000+00:00</time></trkpt><trkpt lat="30.8143374" lon="35.67502996"><ele>1193.1</ele><time>2015-11-22T12:59:31.0000000+00:00</time></trkpt><trkpt lat="30.81383164" lon="35.67489585"><ele>1194.1</ele><time>2015-11-22T12:59:45.0000000+00:00</time></trkpt><trkpt lat="30.81335144" lon="35.67499434"><ele>1195.1</ele><time>2015-11-22T12:59:59.0000000+00:00</time></trkpt><trkpt lat="30.81277653" lon="35.67507287"><ele>1196.0</ele><time>2015-11-22T13:00:16.0000000+00:00</time></trkpt><trkpt lat="30.81243974" lon="35.67514211"><ele>1196.5</ele><time>2015-11-22T13:00:30.0000000+00:00</time></trkpt><trkpt lat="30.81240211" lon="35.67514043"><ele>1196.5</ele><time>2015-11-22T13:00:32.0000000+00:00</time></trkpt><trkpt lat="30.81229398" lon="35.67504589"><ele>1195.5</ele><time>2015-11-22T13:00:37.0000000+00:00</time></trkpt><trkpt lat="30.81219675" lon="35.67488646"><ele>1196.5</ele><time>2015-11-22T13:00:42.0000000+00:00</time></trkpt><trkpt lat="30.81181169" lon="35.67501781"><ele>1198.4</ele><time>2015-11-22T13:01:00.0000000+00:00</time></trkpt><trkpt lat="30.81139854" lon="35.67522216"><ele>1200.8</ele><time>2015-11-22T13:01:17.0000000+00:00</time></trkpt><trkpt lat="30.81104315" lon="35.67538418"><ele>1203.2</ele><time>2015-11-22T13:01:33.0000000+00:00</time></trkpt><trkpt lat="30.81101851" lon="35.6754001"><ele>1203.2</ele><time>2015-11-22T13:01:35.0000000+00:00</time></trkpt><trkpt lat="30.81090686" lon="35.67537664"><ele>1203.7</ele><time>2015-11-22T13:01:43.0000000+00:00</time></trkpt><trkpt lat="30.81083788" lon="35.67530899"><ele>1204.7</ele><time>2015-11-22T13:01:48.0000000+00:00</time></trkpt><trkpt lat="30.81080167" lon="35.67521436"><ele>1205.6</ele><time>2015-11-22T13:01:54.0000000+00:00</time></trkpt><trkpt lat="30.81082572" lon="35.67512652"><ele>1205.6</ele><time>2015-11-22T13:02:02.0000000+00:00</time></trkpt><trkpt lat="30.81109445" lon="35.67476526"><ele>1204.7</ele><time>2015-11-22T13:02:15.0000000+00:00</time></trkpt><trkpt lat="30.81166224" lon="35.67400955"><ele>1202.8</ele><time>2015-11-22T13:02:29.0000000+00:00</time></trkpt><trkpt lat="30.81210346" lon="35.67345064"><ele>1206.1</ele><time>2015-11-22T13:02:40.0000000+00:00</time></trkpt><trkpt lat="30.81227043" lon="35.67317421"><ele>1209.0</ele><time>2015-11-22T13:02:52.0000000+00:00</time></trkpt><trkpt lat="30.81237378" lon="35.67285896"><ele>1211.9</ele><time>2015-11-22T13:03:07.0000000+00:00</time></trkpt><trkpt lat="30.81238484" lon="35.67252478"><ele>1214.3</ele><time>2015-11-22T13:03:23.0000000+00:00</time></trkpt><trkpt lat="30.81231519" lon="35.67220476"><ele>1216.7</ele><time>2015-11-22T13:03:38.0000000+00:00</time></trkpt><trkpt lat="30.81229725" lon="35.6721641"><ele>1216.7</ele><time>2015-11-22T13:03:40.0000000+00:00</time></trkpt><trkpt lat="30.8122431" lon="35.67206654"><ele>1217.7</ele><time>2015-11-22T13:03:46.0000000+00:00</time></trkpt><trkpt lat="30.81210514" lon="35.67184324"><ele>1219.6</ele><time>2015-11-22T13:04:01.0000000+00:00</time></trkpt><trkpt lat="30.81199223" lon="35.67166781"><ele>1221.5</ele><time>2015-11-22T13:04:14.0000000+00:00</time></trkpt><trkpt lat="30.81197907" lon="35.67163847"><ele>1222.0</ele><time>2015-11-22T13:04:16.0000000+00:00</time></trkpt><trkpt lat="30.81195644" lon="35.67161308"><ele>1222.0</ele><time>2015-11-22T13:04:18.0000000+00:00</time></trkpt><trkpt lat="30.81189752" lon="35.6715254"><ele>1222.9</ele><time>2015-11-22T13:04:25.0000000+00:00</time></trkpt><trkpt lat="30.81184379" lon="35.67144829"><ele>1223.9</ele><time>2015-11-22T13:04:31.0000000+00:00</time></trkpt><trkpt lat="30.81178729" lon="35.67130647"><ele>1225.3</ele><time>2015-11-22T13:04:42.0000000+00:00</time></trkpt><trkpt lat="30.8116847" lon="35.67118443"><ele>1226.8</ele><time>2015-11-22T13:04:52.0000000+00:00</time></trkpt><trkpt lat="30.8115013" lon="35.67115316"><ele>1227.7</ele><time>2015-11-22T13:05:05.0000000+00:00</time></trkpt><trkpt lat="30.8114837" lon="35.67116213"><ele>1227.7</ele><time>2015-11-22T13:05:06.0000000+00:00</time></trkpt><trkpt lat="30.81147113" lon="35.67117512"><ele>1227.3</ele><time>2015-11-22T13:05:07.0000000+00:00</time></trkpt><trkpt lat="30.811463" lon="35.67118409"><ele>1227.3</ele><time>2015-11-22T13:05:08.0000000+00:00</time></trkpt><trkpt lat="30.81145898" lon="35.67117948"><ele>1227.3</ele><time>2015-11-22T13:05:20.0000000+00:00</time></trkpt><trkpt lat="30.81145839" lon="35.67116448"><ele>1227.3</ele><time>2015-11-22T13:05:46.0000000+00:00</time></trkpt><trkpt lat="30.81143945" lon="35.6711649"><ele>1227.3</ele><time>2015-11-22T13:06:26.0000000+00:00</time></trkpt><trkpt lat="30.81145881" lon="35.67115744"><ele>1227.3</ele><time>2015-11-22T13:06:58.0000000+00:00</time></trkpt><trkpt lat="30.81143567" lon="35.67119834"><ele>1227.3</ele><time>2015-11-22T13:07:32.0000000+00:00</time></trkpt><trkpt lat="30.81145579" lon="35.67120488"><ele>1227.3</ele><time>2015-11-22T13:08:02.0000000+00:00</time></trkpt><trkpt lat="30.81144799" lon="35.67121217"><ele>1227.3</ele><time>2015-11-22T13:08:35.0000000+00:00</time></trkpt><trkpt lat="30.81145906" lon="35.67119641"><ele>1227.3</ele><time>2015-11-22T13:09:10.0000000+00:00</time></trkpt><trkpt lat="30.81143978" lon="35.67120479"><ele>1227.3</ele><time>2015-11-22T13:09:45.0000000+00:00</time></trkpt><trkpt lat="30.81145009" lon="35.67120706"><ele>1227.7</ele><time>2015-11-22T13:10:19.0000000+00:00</time></trkpt><trkpt lat="30.81145294" lon="35.67121175"><ele>1227.3</ele><time>2015-11-22T13:10:50.0000000+00:00</time></trkpt><trkpt lat="30.81145143" lon="35.67120873"><ele>1227.7</ele><time>2015-11-22T13:11:25.0000000+00:00</time></trkpt><trkpt lat="30.81145889" lon="35.67121301"><ele>1227.7</ele><time>2015-11-22T13:11:55.0000000+00:00</time></trkpt><trkpt lat="30.81144221" lon="35.67120295"><ele>1227.7</ele><time>2015-11-22T13:12:26.0000000+00:00</time></trkpt><trkpt lat="30.81145453" lon="35.67120924"><ele>1227.7</ele><time>2015-11-22T13:13:01.0000000+00:00</time></trkpt><trkpt lat="30.81146828" lon="35.67120781"><ele>1227.7</ele><time>2015-11-22T13:13:35.0000000+00:00</time></trkpt><trkpt lat="30.81145864" lon="35.67121318"><ele>1227.7</ele><time>2015-11-22T13:14:15.0000000+00:00</time></trkpt><trkpt lat="30.81145596" lon="35.6712094"><ele>1227.7</ele><time>2015-11-22T13:15:02.0000000+00:00</time></trkpt><trkpt lat="30.81146535" lon="35.67120655"><ele>1228.2</ele><time>2015-11-22T13:15:40.0000000+00:00</time></trkpt><trkpt lat="30.81142821" lon="35.67126892"><ele>1228.2</ele><time>2015-11-22T13:16:08.0000000+00:00</time></trkpt><trkpt lat="30.81139804" lon="35.67132114"><ele>1227.7</ele><time>2015-11-22T13:16:17.0000000+00:00</time></trkpt><trkpt lat="30.81139008" lon="35.67133865"><ele>1227.7</ele><time>2015-11-22T13:16:18.0000000+00:00</time></trkpt><trkpt lat="30.81137683" lon="35.67135986"><ele>1227.3</ele><time>2015-11-22T13:16:19.0000000+00:00</time></trkpt><trkpt lat="30.81135697" lon="35.67138517"><ele>1226.8</ele><time>2015-11-22T13:16:20.0000000+00:00</time></trkpt><trkpt lat="30.81133383" lon="35.67141619"><ele>1226.8</ele><time>2015-11-22T13:16:21.0000000+00:00</time></trkpt><trkpt lat="30.81131095" lon="35.67145323"><ele>1226.8</ele><time>2015-11-22T13:16:22.0000000+00:00</time></trkpt><trkpt lat="30.81128589" lon="35.67149338"><ele>1226.3</ele><time>2015-11-22T13:16:23.0000000+00:00</time></trkpt><trkpt lat="30.81107064" lon="35.67181248"><ele>1224.4</ele><time>2015-11-22T13:16:29.0000000+00:00</time></trkpt><trkpt lat="30.81058164" lon="35.67252318"><ele>1221.5</ele><time>2015-11-22T13:16:39.0000000+00:00</time></trkpt><trkpt lat="30.80984035" lon="35.67363856"><ele>1221.5</ele><time>2015-11-22T13:16:55.0000000+00:00</time></trkpt><trkpt lat="30.80933249" lon="35.67440894"><ele>1222.5</ele><time>2015-11-22T13:17:09.0000000+00:00</time></trkpt><trkpt lat="30.80884759" lon="35.67506055"><ele>1222.5</ele><time>2015-11-22T13:17:23.0000000+00:00</time></trkpt><trkpt lat="30.80808006" lon="35.67585801"><ele>1219.6</ele><time>2015-11-22T13:17:38.0000000+00:00</time></trkpt><trkpt lat="30.8073495" lon="35.67659562"><ele>1216.7</ele><time>2015-11-22T13:17:49.0000000+00:00</time></trkpt><trkpt lat="30.80665774" lon="35.67736298"><ele>1213.3</ele><time>2015-11-22T13:17:59.0000000+00:00</time></trkpt><trkpt lat="30.80556734" lon="35.67876007"><ele>1210.9</ele><time>2015-11-22T13:18:16.0000000+00:00</time></trkpt><trkpt lat="30.80504665" lon="35.67955334"><ele>1212.4</ele><time>2015-11-22T13:18:29.0000000+00:00</time></trkpt><trkpt lat="30.80488882" lon="35.67980102"><ele>1213.8</ele><time>2015-11-22T13:18:35.0000000+00:00</time></trkpt><trkpt lat="30.804574" lon="35.68032623"><ele>1215.2</ele><time>2015-11-22T13:18:51.0000000+00:00</time></trkpt><trkpt lat="30.8042963" lon="35.68078866"><ele>1217.2</ele><time>2015-11-22T13:19:07.0000000+00:00</time></trkpt><trkpt lat="30.80402347" lon="35.68125059"><ele>1220.1</ele><time>2015-11-22T13:19:24.0000000+00:00</time></trkpt><trkpt lat="30.80377897" lon="35.68167446"><ele>1222.0</ele><time>2015-11-22T13:19:40.0000000+00:00</time></trkpt><trkpt lat="30.80353095" lon="35.68213169"><ele>1222.9</ele><time>2015-11-22T13:19:56.0000000+00:00</time></trkpt><trkpt lat="30.80313943" lon="35.68286561"><ele>1223.9</ele><time>2015-11-22T13:20:14.0000000+00:00</time></trkpt><trkpt lat="30.80266351" lon="35.68377907"><ele>1224.4</ele><time>2015-11-22T13:20:32.0000000+00:00</time></trkpt><trkpt lat="30.80208776" lon="35.68488674"><ele>1225.3</ele><time>2015-11-22T13:20:54.0000000+00:00</time></trkpt><trkpt lat="30.80160529" lon="35.68584345"><ele>1225.8</ele><time>2015-11-22T13:21:13.0000000+00:00</time></trkpt><trkpt lat="30.80117119" lon="35.68669103"><ele>1227.7</ele><time>2015-11-22T13:21:30.0000000+00:00</time></trkpt><trkpt lat="30.80092368" lon="35.68718875"><ele>1230.1</ele><time>2015-11-22T13:21:44.0000000+00:00</time></trkpt><trkpt lat="30.80073894" lon="35.68759284"><ele>1233.5</ele><time>2015-11-22T13:22:01.0000000+00:00</time></trkpt><trkpt lat="30.80058455" lon="35.68796164"><ele>1235.9</ele><time>2015-11-22T13:22:19.0000000+00:00</time></trkpt><trkpt lat="30.80045739" lon="35.68829332"><ele>1238.3</ele><time>2015-11-22T13:22:37.0000000+00:00</time></trkpt><trkpt lat="30.80031624" lon="35.68866732"><ele>1240.7</ele><time>2015-11-22T13:22:58.0000000+00:00</time></trkpt><trkpt lat="30.80030853" lon="35.68868316"><ele>1241.2</ele><time>2015-11-22T13:22:59.0000000+00:00</time></trkpt><trkpt lat="30.80030166" lon="35.68869942"><ele>1241.2</ele><time>2015-11-22T13:23:00.0000000+00:00</time></trkpt><trkpt lat="30.80029554" lon="35.68871493"><ele>1241.7</ele><time>2015-11-22T13:23:01.0000000+00:00</time></trkpt><trkpt lat="30.80028917" lon="35.68873152"><ele>1241.7</ele><time>2015-11-22T13:23:02.0000000+00:00</time></trkpt><trkpt lat="30.80018666" lon="35.68902187"><ele>1243.6</ele><time>2015-11-22T13:23:19.0000000+00:00</time></trkpt><trkpt lat="30.80007752" lon="35.68936771"><ele>1246.0</ele><time>2015-11-22T13:23:39.0000000+00:00</time></trkpt><trkpt lat="30.80003151" lon="35.68948925"><ele>1246.5</ele><time>2015-11-22T13:23:46.0000000+00:00</time></trkpt><trkpt lat="30.80002665" lon="35.68950894"><ele>1247.0</ele><time>2015-11-22T13:23:47.0000000+00:00</time></trkpt><trkpt lat="30.8000212" lon="35.68952755"><ele>1247.0</ele><time>2015-11-22T13:23:48.0000000+00:00</time></trkpt><trkpt lat="30.79991139" lon="35.68990164"><ele>1249.4</ele><time>2015-11-22T13:24:10.0000000+00:00</time></trkpt><trkpt lat="30.79987125" lon="35.69005712"><ele>1250.8</ele><time>2015-11-22T13:24:19.0000000+00:00</time></trkpt><trkpt lat="30.79986571" lon="35.69007355"><ele>1250.3</ele><time>2015-11-22T13:24:20.0000000+00:00</time></trkpt><trkpt lat="30.79981542" lon="35.69033951"><ele>1252.7</ele><time>2015-11-22T13:24:36.0000000+00:00</time></trkpt><trkpt lat="30.79974711" lon="35.69062466"><ele>1255.1</ele><time>2015-11-22T13:24:53.0000000+00:00</time></trkpt><trkpt lat="30.79966052" lon="35.69093529"><ele>1257.5</ele><time>2015-11-22T13:25:12.0000000+00:00</time></trkpt><trkpt lat="30.79958433" lon="35.69120586"><ele>1259.5</ele><time>2015-11-22T13:25:29.0000000+00:00</time></trkpt><trkpt lat="30.79955994" lon="35.69133502"><ele>1259.9</ele><time>2015-11-22T13:25:37.0000000+00:00</time></trkpt><trkpt lat="30.79955382" lon="35.6913517"><ele>1259.9</ele><time>2015-11-22T13:25:38.0000000+00:00</time></trkpt><trkpt lat="30.79954544" lon="35.69136704"><ele>1260.4</ele><time>2015-11-22T13:25:39.0000000+00:00</time></trkpt><trkpt lat="30.79953899" lon="35.69138314"><ele>1260.4</ele><time>2015-11-22T13:25:40.0000000+00:00</time></trkpt><trkpt lat="30.79953463" lon="35.6913999"><ele>1260.4</ele><time>2015-11-22T13:25:41.0000000+00:00</time></trkpt><trkpt lat="30.79952952" lon="35.6914165"><ele>1260.4</ele><time>2015-11-22T13:25:42.0000000+00:00</time></trkpt><trkpt lat="30.79952432" lon="35.69143292"><ele>1260.4</ele><time>2015-11-22T13:25:43.0000000+00:00</time></trkpt><trkpt lat="30.79951895" lon="35.69144793"><ele>1260.4</ele><time>2015-11-22T13:25:44.0000000+00:00</time></trkpt><trkpt lat="30.79951535" lon="35.69146452"><ele>1260.9</ele><time>2015-11-22T13:25:45.0000000+00:00</time></trkpt><trkpt lat="30.79951108" lon="35.69148162"><ele>1260.9</ele><time>2015-11-22T13:25:46.0000000+00:00</time></trkpt><trkpt lat="30.79942893" lon="35.69174834"><ele>1262.4</ele><time>2015-11-22T13:26:02.0000000+00:00</time></trkpt><trkpt lat="30.79935643" lon="35.69200574"><ele>1264.3</ele><time>2015-11-22T13:26:18.0000000+00:00</time></trkpt><trkpt lat="30.79925677" lon="35.69231428"><ele>1266.2</ele><time>2015-11-22T13:26:37.0000000+00:00</time></trkpt><trkpt lat="30.7991789" lon="35.692582"><ele>1269.6</ele><time>2015-11-22T13:26:54.0000000+00:00</time></trkpt><trkpt lat="30.79914956" lon="35.69267563"><ele>1270.0</ele><time>2015-11-22T13:27:00.0000000+00:00</time></trkpt><trkpt lat="30.79907237" lon="35.69291837"><ele>1272.9</ele><time>2015-11-22T13:27:15.0000000+00:00</time></trkpt><trkpt lat="30.79897857" lon="35.69320545"><ele>1275.8</ele><time>2015-11-22T13:27:33.0000000+00:00</time></trkpt><trkpt lat="30.79892593" lon="35.69339898"><ele>1277.7</ele><time>2015-11-22T13:27:45.0000000+00:00</time></trkpt><trkpt lat="30.79883859" lon="35.69366829"><ele>1280.6</ele><time>2015-11-22T13:28:02.0000000+00:00</time></trkpt><trkpt lat="30.79874799" lon="35.69391648"><ele>1283.0</ele><time>2015-11-22T13:28:18.0000000+00:00</time></trkpt><trkpt lat="30.79866006" lon="35.69419552"><ele>1285.9</ele><time>2015-11-22T13:28:34.0000000+00:00</time></trkpt><trkpt lat="30.79857247" lon="35.69447539"><ele>1287.8</ele><time>2015-11-22T13:28:51.0000000+00:00</time></trkpt><trkpt lat="30.79852411" lon="35.69463699"><ele>1289.3</ele><time>2015-11-22T13:29:01.0000000+00:00</time></trkpt><trkpt lat="30.79852134" lon="35.69465409"><ele>1289.3</ele><time>2015-11-22T13:29:02.0000000+00:00</time></trkpt><trkpt lat="30.79851656" lon="35.6946737"><ele>1289.3</ele><time>2015-11-22T13:29:03.0000000+00:00</time></trkpt><trkpt lat="30.7984314" lon="35.6950348"><ele>1290.7</ele><time>2015-11-22T13:29:22.0000000+00:00</time></trkpt><trkpt lat="30.79835907" lon="35.69537778"><ele>1292.2</ele><time>2015-11-22T13:29:38.0000000+00:00</time></trkpt><trkpt lat="30.79827189" lon="35.69582236"><ele>1293.6</ele><time>2015-11-22T13:29:57.0000000+00:00</time></trkpt><trkpt lat="30.79815203" lon="35.69644799"><ele>1294.6</ele><time>2015-11-22T13:30:18.0000000+00:00</time></trkpt><trkpt lat="30.79802371" lon="35.69700563"><ele>1293.6</ele><time>2015-11-22T13:30:33.0000000+00:00</time></trkpt><trkpt lat="30.79801256" lon="35.69700974"><ele>1294.1</ele><time>2015-11-22T13:30:50.0000000+00:00</time></trkpt><trkpt lat="30.79801323" lon="35.69702558"><ele>1293.6</ele><time>2015-11-22T13:31:18.0000000+00:00</time></trkpt><trkpt lat="30.79800208" lon="35.69703832"><ele>1293.1</ele><time>2015-11-22T13:31:55.0000000+00:00</time></trkpt><trkpt lat="30.79799403" lon="35.69702894"><ele>1293.6</ele><time>2015-11-22T13:32:46.0000000+00:00</time></trkpt><trkpt lat="30.79800242" lon="35.69702969"><ele>1293.6</ele><time>2015-11-22T13:33:32.0000000+00:00</time></trkpt><trkpt lat="30.79800627" lon="35.69702868"><ele>1293.6</ele><time>2015-11-22T13:34:07.0000000+00:00</time></trkpt><trkpt lat="30.79800518" lon="35.69702894"><ele>1293.6</ele><time>2015-11-22T13:34:34.0000000+00:00</time></trkpt><trkpt lat="30.79801507" lon="35.69705735"><ele>1293.1</ele><time>2015-11-22T13:34:56.0000000+00:00</time></trkpt><trkpt lat="30.79801122" lon="35.69705148"><ele>1293.1</ele><time>2015-11-22T13:35:17.0000000+00:00</time></trkpt><trkpt lat="30.79801147" lon="35.69703036"><ele>1293.1</ele><time>2015-11-22T13:35:44.0000000+00:00</time></trkpt><trkpt lat="30.79801013" lon="35.69702935"><ele>1293.1</ele><time>2015-11-22T13:36:04.0000000+00:00</time></trkpt><trkpt lat="30.79801315" lon="35.69704168"><ele>1292.6</ele><time>2015-11-22T13:36:36.0000000+00:00</time></trkpt><trkpt lat="30.798017" lon="35.69705643"><ele>1293.1</ele><time>2015-11-22T13:36:43.0000000+00:00</time></trkpt><trkpt lat="30.79802069" lon="35.69706925"><ele>1292.6</ele><time>2015-11-22T13:36:44.0000000+00:00</time></trkpt><trkpt lat="30.79802128" lon="35.69708141"><ele>1292.6</ele><time>2015-11-22T13:36:45.0000000+00:00</time></trkpt><trkpt lat="30.79801943" lon="35.69709465"><ele>1293.1</ele><time>2015-11-22T13:36:46.0000000+00:00</time></trkpt><trkpt lat="30.7980175" lon="35.69710932"><ele>1292.6</ele><time>2015-11-22T13:36:47.0000000+00:00</time></trkpt><trkpt lat="30.79801558" lon="35.69712684"><ele>1293.1</ele><time>2015-11-22T13:36:48.0000000+00:00</time></trkpt><trkpt lat="30.79801231" lon="35.69714653"><ele>1292.6</ele><time>2015-11-22T13:36:49.0000000+00:00</time></trkpt><trkpt lat="30.79792698" lon="35.69765674"><ele>1291.7</ele><time>2015-11-22T13:37:05.0000000+00:00</time></trkpt><trkpt lat="30.79774769" lon="35.69862116"><ele>1289.8</ele><time>2015-11-22T13:37:21.0000000+00:00</time></trkpt><trkpt lat="30.79750839" lon="35.69993553"><ele>1286.4</ele><time>2015-11-22T13:37:38.0000000+00:00</time></trkpt><trkpt lat="30.79730085" lon="35.70129021"><ele>1284.9</ele><time>2015-11-22T13:37:55.0000000+00:00</time></trkpt><trkpt lat="30.7973322" lon="35.70250902"><ele>1283.5</ele><time>2015-11-22T13:38:11.0000000+00:00</time></trkpt><trkpt lat="30.79710974" lon="35.70345568"><ele>1283.5</ele><time>2015-11-22T13:38:26.0000000+00:00</time></trkpt><trkpt lat="30.79697086" lon="35.70404886"><ele>1282.1</ele><time>2015-11-22T13:38:42.0000000+00:00</time></trkpt><trkpt lat="30.79695384" lon="35.70427199"><ele>1281.1</ele><time>2015-11-22T13:38:56.0000000+00:00</time></trkpt><trkpt lat="30.7969437" lon="35.704317"><ele>1280.6</ele><time>2015-11-22T13:39:11.0000000+00:00</time></trkpt><trkpt lat="30.79695493" lon="35.70451951"><ele>1279.7</ele><time>2015-11-22T13:39:25.0000000+00:00</time></trkpt><trkpt lat="30.79697169" lon="35.70504815"><ele>1276.8</ele><time>2015-11-22T13:39:33.0000000+00:00</time></trkpt><trkpt lat="30.79696574" lon="35.70543892"><ele>1273.9</ele><time>2015-11-22T13:39:37.0000000+00:00</time></trkpt><trkpt lat="30.79693121" lon="35.70589758"><ele>1270.5</ele><time>2015-11-22T13:39:41.0000000+00:00</time></trkpt><trkpt lat="30.79686206" lon="35.70641122"><ele>1266.7</ele><time>2015-11-22T13:39:45.0000000+00:00</time></trkpt><trkpt lat="30.79676223" lon="35.7070811"><ele>1263.8</ele><time>2015-11-22T13:39:50.0000000+00:00</time></trkpt><trkpt lat="30.79667481" lon="35.70775584"><ele>1260.4</ele><time>2015-11-22T13:39:55.0000000+00:00</time></trkpt><trkpt lat="30.79658696" lon="35.70844173"><ele>1257.1</ele><time>2015-11-22T13:40:00.0000000+00:00</time></trkpt><trkpt lat="30.79651748" lon="35.70899561"><ele>1254.7</ele><time>2015-11-22T13:40:04.0000000+00:00</time></trkpt><trkpt lat="30.79636887" lon="35.71012449"><ele>1258.0</ele><time>2015-11-22T13:40:14.0000000+00:00</time></trkpt><trkpt lat="30.79632662" lon="35.71041232"><ele>1259.9</ele><time>2015-11-22T13:40:18.0000000+00:00</time></trkpt><trkpt lat="30.79628471" lon="35.71079244"><ele>1261.4</ele><time>2015-11-22T13:40:25.0000000+00:00</time></trkpt><trkpt lat="30.79613887" lon="35.71151253"><ele>1260.4</ele><time>2015-11-22T13:40:43.0000000+00:00</time></trkpt><trkpt lat="30.79600216" lon="35.71194411"><ele>1258.5</ele><time>2015-11-22T13:40:57.0000000+00:00</time></trkpt><trkpt lat="30.7959258" lon="35.71220697"><ele>1257.1</ele><time>2015-11-22T13:41:09.0000000+00:00</time></trkpt><trkpt lat="30.79593309" lon="35.71220764"><ele>1257.1</ele><time>2015-11-22T13:41:28.0000000+00:00</time></trkpt><trkpt lat="30.79586805" lon="35.71246547"><ele>1255.1</ele><time>2015-11-22T13:41:43.0000000+00:00</time></trkpt><trkpt lat="30.79582538" lon="35.71303636"><ele>1252.3</ele><time>2015-11-22T13:41:51.0000000+00:00</time></trkpt><trkpt lat="30.79594726" lon="35.71366601"><ele>1248.9</ele><time>2015-11-22T13:41:58.0000000+00:00</time></trkpt><trkpt lat="30.79603686" lon="35.71385175"><ele>1247.5</ele><time>2015-11-22T13:42:00.0000000+00:00</time></trkpt><trkpt lat="30.79609344" lon="35.71394093"><ele>1247.0</ele><time>2015-11-22T13:42:01.0000000+00:00</time></trkpt><trkpt lat="30.79644422" lon="35.71435064"><ele>1243.6</ele><time>2015-11-22T13:42:06.0000000+00:00</time></trkpt><trkpt lat="30.7967598" lon="35.71468382"><ele>1240.2</ele><time>2015-11-22T13:42:10.0000000+00:00</time></trkpt><trkpt lat="30.79700405" lon="35.71494743"><ele>1237.8</ele><time>2015-11-22T13:42:13.0000000+00:00</time></trkpt><trkpt lat="30.79723639" lon="35.71524306"><ele>1235.0</ele><time>2015-11-22T13:42:16.0000000+00:00</time></trkpt><trkpt lat="30.79730186" lon="35.71535932"><ele>1234.0</ele><time>2015-11-22T13:42:17.0000000+00:00</time></trkpt><trkpt lat="30.79735961" lon="35.71548346"><ele>1233.0</ele><time>2015-11-22T13:42:18.0000000+00:00</time></trkpt><trkpt lat="30.7974037" lon="35.71561396"><ele>1232.1</ele><time>2015-11-22T13:42:19.0000000+00:00</time></trkpt><trkpt lat="30.79743127" lon="35.71574765"><ele>1231.1</ele><time>2015-11-22T13:42:20.0000000+00:00</time></trkpt><trkpt lat="30.79744267" lon="35.71588369"><ele>1230.6</ele><time>2015-11-22T13:42:21.0000000+00:00</time></trkpt><trkpt lat="30.79744427" lon="35.71601889"><ele>1229.7</ele><time>2015-11-22T13:42:22.0000000+00:00</time></trkpt><trkpt lat="30.79743915" lon="35.71615434"><ele>1229.2</ele><time>2015-11-22T13:42:23.0000000+00:00</time></trkpt><trkpt lat="30.79742289" lon="35.71629055"><ele>1228.2</ele><time>2015-11-22T13:42:24.0000000+00:00</time></trkpt><trkpt lat="30.79739506" lon="35.71642382"><ele>1227.7</ele><time>2015-11-22T13:42:25.0000000+00:00</time></trkpt><trkpt lat="30.79736304" lon="35.71655676"><ele>1226.8</ele><time>2015-11-22T13:42:26.0000000+00:00</time></trkpt><trkpt lat="30.79723338" lon="35.71709974"><ele>1222.5</ele><time>2015-11-22T13:42:30.0000000+00:00</time></trkpt><trkpt lat="30.79714679" lon="35.71752034"><ele>1219.6</ele><time>2015-11-22T13:42:33.0000000+00:00</time></trkpt><trkpt lat="30.79701964" lon="35.71806961"><ele>1216.2</ele><time>2015-11-22T13:42:37.0000000+00:00</time></trkpt><trkpt lat="30.79691277" lon="35.71848694"><ele>1212.8</ele><time>2015-11-22T13:42:40.0000000+00:00</time></trkpt><trkpt lat="30.79679249" lon="35.71893772"><ele>1209.5</ele><time>2015-11-22T13:42:43.0000000+00:00</time></trkpt><trkpt lat="30.79663759" lon="35.7194056"><ele>1205.6</ele><time>2015-11-22T13:42:46.0000000+00:00</time></trkpt><trkpt lat="30.79645243" lon="35.71986862"><ele>1201.8</ele><time>2015-11-22T13:42:49.0000000+00:00</time></trkpt><trkpt lat="30.79626258" lon="35.72034814"><ele>1198.4</ele><time>2015-11-22T13:42:52.0000000+00:00</time></trkpt><trkpt lat="30.79604164" lon="35.72083807"><ele>1194.1</ele><time>2015-11-22T13:42:55.0000000+00:00</time></trkpt><trkpt lat="30.79587551" lon="35.72115792"><ele>1190.7</ele><time>2015-11-22T13:42:57.0000000+00:00</time></trkpt><trkpt lat="30.79568625" lon="35.72146252"><ele>1187.9</ele><time>2015-11-22T13:42:59.0000000+00:00</time></trkpt><trkpt lat="30.79547653" lon="35.72174063"><ele>1184.5</ele><time>2015-11-22T13:43:01.0000000+00:00</time></trkpt><trkpt lat="30.7952462" lon="35.72198178"><ele>1181.6</ele><time>2015-11-22T13:43:03.0000000+00:00</time></trkpt><trkpt lat="30.79480832" lon="35.72243448"><ele>1178.2</ele><time>2015-11-22T13:43:07.0000000+00:00</time></trkpt><trkpt lat="30.79415998" lon="35.72312758"><ele>1175.4</ele><time>2015-11-22T13:43:14.0000000+00:00</time></trkpt><trkpt lat="30.79379135" lon="35.72352916"><ele>1171.5</ele><time>2015-11-22T13:43:18.0000000+00:00</time></trkpt><trkpt lat="30.79342271" lon="35.72393359"><ele>1169.1</ele><time>2015-11-22T13:43:22.0000000+00:00</time></trkpt><trkpt lat="30.79279449" lon="35.72462987"><ele>1172.5</ele><time>2015-11-22T13:43:31.0000000+00:00</time></trkpt><trkpt lat="30.79262509" lon="35.72480623"><ele>1173.9</ele><time>2015-11-22T13:43:35.0000000+00:00</time></trkpt><trkpt lat="30.79234798" lon="35.72507428"><ele>1176.3</ele><time>2015-11-22T13:43:46.0000000+00:00</time></trkpt><trkpt lat="30.79193467" lon="35.72542774"><ele>1177.3</ele><time>2015-11-22T13:44:03.0000000+00:00</time></trkpt><trkpt lat="30.79160719" lon="35.72570108"><ele>1176.8</ele><time>2015-11-22T13:44:16.0000000+00:00</time></trkpt><trkpt lat="30.79121249" lon="35.7260646"><ele>1175.8</ele><time>2015-11-22T13:44:30.0000000+00:00</time></trkpt><trkpt lat="30.79059734" lon="35.72659828"><ele>1175.8</ele><time>2015-11-22T13:44:46.0000000+00:00</time></trkpt><trkpt lat="30.7901567" lon="35.72697982"><ele>1177.8</ele><time>2015-11-22T13:45:00.0000000+00:00</time></trkpt><trkpt lat="30.78957751" lon="35.7274974"><ele>1178.2</ele><time>2015-11-22T13:45:18.0000000+00:00</time></trkpt><trkpt lat="30.78893177" lon="35.72806863"><ele>1177.3</ele><time>2015-11-22T13:45:35.0000000+00:00</time></trkpt><trkpt lat="30.78804296" lon="35.72884924"><ele>1175.4</ele><time>2015-11-22T13:45:53.0000000+00:00</time></trkpt><trkpt lat="30.78730769" lon="35.7295021"><ele>1174.9</ele><time>2015-11-22T13:46:08.0000000+00:00</time></trkpt><trkpt lat="30.78660965" lon="35.73010493"><ele>1176.3</ele><time>2015-11-22T13:46:25.0000000+00:00</time></trkpt><trkpt lat="30.78614848" lon="35.73050324"><ele>1178.2</ele><time>2015-11-22T13:46:41.0000000+00:00</time></trkpt><trkpt lat="30.7857417" lon="35.7308655"><ele>1180.2</ele><time>2015-11-22T13:46:57.0000000+00:00</time></trkpt><trkpt lat="30.78520635" lon="35.73133648"><ele>1182.1</ele><time>2015-11-22T13:47:17.0000000+00:00</time></trkpt><trkpt lat="30.78483654" lon="35.7316638"><ele>1183.0</ele><time>2015-11-22T13:47:31.0000000+00:00</time></trkpt><trkpt lat="30.78432332" lon="35.73220242"><ele>1183.5</ele><time>2015-11-22T13:47:48.0000000+00:00</time></trkpt><trkpt lat="30.78376441" lon="35.73307422"><ele>1181.1</ele><time>2015-11-22T13:48:06.0000000+00:00</time></trkpt><trkpt lat="30.78303494" lon="35.73431449"><ele>1179.2</ele><time>2015-11-22T13:48:26.0000000+00:00</time></trkpt><trkpt lat="30.782385" lon="35.73537413"><ele>1178.7</ele><time>2015-11-22T13:48:45.0000000+00:00</time></trkpt><trkpt lat="30.78183766" lon="35.73628491"><ele>1180.2</ele><time>2015-11-22T13:49:02.0000000+00:00</time></trkpt><trkpt lat="30.78135596" lon="35.73709502"><ele>1181.1</ele><time>2015-11-22T13:49:20.0000000+00:00</time></trkpt><trkpt lat="30.78112981" lon="35.73745477"><ele>1182.1</ele><time>2015-11-22T13:49:30.0000000+00:00</time></trkpt><trkpt lat="30.78108832" lon="35.73740272"><ele>1181.6</ele><time>2015-11-22T13:49:34.0000000+00:00</time></trkpt><trkpt lat="30.781091" lon="35.73737699"><ele>1182.1</ele><time>2015-11-22T13:49:35.0000000+00:00</time></trkpt><trkpt lat="30.78109645" lon="35.73734866"><ele>1181.6</ele><time>2015-11-22T13:49:36.0000000+00:00</time></trkpt><trkpt lat="30.78108883" lon="35.73719569"><ele>1181.6</ele><time>2015-11-22T13:49:41.0000000+00:00</time></trkpt><trkpt lat="30.78094617" lon="35.7370827"><ele>1182.6</ele><time>2015-11-22T13:49:48.0000000+00:00</time></trkpt><trkpt lat="30.78046571" lon="35.73685236"><ele>1184.5</ele><time>2015-11-22T13:50:07.0000000+00:00</time></trkpt><trkpt lat="30.78013203" lon="35.73668581"><ele>1185.9</ele><time>2015-11-22T13:50:21.0000000+00:00</time></trkpt><trkpt lat="30.77979877" lon="35.73653804"><ele>1187.9</ele><time>2015-11-22T13:50:35.0000000+00:00</time></trkpt><trkpt lat="30.77945586" lon="35.73638063"><ele>1189.8</ele><time>2015-11-22T13:50:51.0000000+00:00</time></trkpt><trkpt lat="30.77906979" lon="35.73613026"><ele>1191.7</ele><time>2015-11-22T13:51:08.0000000+00:00</time></trkpt><trkpt lat="30.77870862" lon="35.73581443"><ele>1192.2</ele><time>2015-11-22T13:51:23.0000000+00:00</time></trkpt><trkpt lat="30.77813479" lon="35.73539743"><ele>1191.2</ele><time>2015-11-22T13:51:38.0000000+00:00</time></trkpt><trkpt lat="30.77737447" lon="35.73478983"><ele>1192.2</ele><time>2015-11-22T13:51:55.0000000+00:00</time></trkpt><trkpt lat="30.77697893" lon="35.73442362"><ele>1194.1</ele><time>2015-11-22T13:52:09.0000000+00:00</time></trkpt><trkpt lat="30.77661624" lon="35.73407695"><ele>1194.6</ele><time>2015-11-22T13:52:22.0000000+00:00</time></trkpt><trkpt lat="30.77583262" lon="35.73365576"><ele>1194.6</ele><time>2015-11-22T13:52:40.0000000+00:00</time></trkpt><trkpt lat="30.77504363" lon="35.73326751"><ele>1196.5</ele><time>2015-11-22T13:52:58.0000000+00:00</time></trkpt><trkpt lat="30.77451389" lon="35.73298462"><ele>1198.4</ele><time>2015-11-22T13:53:14.0000000+00:00</time></trkpt><trkpt lat="30.77395901" lon="35.73269997"><ele>1200.3</ele><time>2015-11-22T13:53:32.0000000+00:00</time></trkpt><trkpt lat="30.77334252" lon="35.73239428"><ele>1202.3</ele><time>2015-11-22T13:53:52.0000000+00:00</time></trkpt><trkpt lat="30.77276685" lon="35.73220694"><ele>1204.2</ele><time>2015-11-22T13:54:10.0000000+00:00</time></trkpt><trkpt lat="30.77231683" lon="35.73201039"><ele>1204.7</ele><time>2015-11-22T13:54:28.0000000+00:00</time></trkpt><trkpt lat="30.7718917" lon="35.73178584"><ele>1203.2</ele><time>2015-11-22T13:54:42.0000000+00:00</time></trkpt><trkpt lat="30.77174895" lon="35.73170017"><ele>1202.8</ele><time>2015-11-22T13:54:45.0000000+00:00</time></trkpt><trkpt lat="30.77143564" lon="35.73146649"><ele>1201.3</ele><time>2015-11-22T13:54:51.0000000+00:00</time></trkpt><trkpt lat="30.77043543" lon="35.73061899"><ele>1198.4</ele><time>2015-11-22T13:55:09.0000000+00:00</time></trkpt><trkpt lat="30.77024876" lon="35.73046468"><ele>1197.9</ele><time>2015-11-22T13:55:12.0000000+00:00</time></trkpt><trkpt lat="30.76914537" lon="35.73000351"><ele>1197.9</ele><time>2015-11-22T13:55:28.0000000+00:00</time></trkpt><trkpt lat="30.76823551" lon="35.72964007"><ele>1198.9</ele><time>2015-11-22T13:55:44.0000000+00:00</time></trkpt><trkpt lat="30.7674192" lon="35.72917831"><ele>1199.9</ele><time>2015-11-22T13:56:00.0000000+00:00</time></trkpt><trkpt lat="30.76648084" lon="35.72848555"><ele>1200.3</ele><time>2015-11-22T13:56:20.0000000+00:00</time></trkpt><trkpt lat="30.76584273" lon="35.72803619"><ele>1201.3</ele><time>2015-11-22T13:56:35.0000000+00:00</time></trkpt><trkpt lat="30.76568674" lon="35.72791239"><ele>1201.8</ele><time>2015-11-22T13:56:39.0000000+00:00</time></trkpt><trkpt lat="30.76501443" lon="35.72735315"><ele>1202.3</ele><time>2015-11-22T13:56:55.0000000+00:00</time></trkpt><trkpt lat="30.76484704" lon="35.72719499"><ele>1202.3</ele><time>2015-11-22T13:56:59.0000000+00:00</time></trkpt><trkpt lat="30.7643526" lon="35.72673608"><ele>1203.2</ele><time>2015-11-22T13:57:11.0000000+00:00</time></trkpt><trkpt lat="30.76367458" lon="35.72611439"><ele>1204.2</ele><time>2015-11-22T13:57:28.0000000+00:00</time></trkpt><trkpt lat="30.76349228" lon="35.72599713"><ele>1204.7</ele><time>2015-11-22T13:57:32.0000000+00:00</time></trkpt><trkpt lat="30.76281711" lon="35.72559354"><ele>1206.1</ele><time>2015-11-22T13:57:48.0000000+00:00</time></trkpt><trkpt lat="30.7622417" lon="35.72525382"><ele>1208.0</ele><time>2015-11-22T13:58:04.0000000+00:00</time></trkpt><trkpt lat="30.76178287" lon="35.72512751"><ele>1208.5</ele><time>2015-11-22T13:58:15.0000000+00:00</time></trkpt><trkpt lat="30.76126604" lon="35.72515869"><ele>1210.9</ele><time>2015-11-22T13:58:30.0000000+00:00</time></trkpt><trkpt lat="30.7609187" lon="35.72519045"><ele>1212.8</ele><time>2015-11-22T13:58:44.0000000+00:00</time></trkpt><trkpt lat="30.76046415" lon="35.72523412"><ele>1215.2</ele><time>2015-11-22T13:59:02.0000000+00:00</time></trkpt><trkpt lat="30.76002904" lon="35.72526656"><ele>1216.2</ele><time>2015-11-22T13:59:18.0000000+00:00</time></trkpt><trkpt lat="30.759548" lon="35.72529154"><ele>1217.7</ele><time>2015-11-22T13:59:36.0000000+00:00</time></trkpt><trkpt lat="30.7589798" lon="35.72536404"><ele>1219.6</ele><time>2015-11-22T13:59:56.0000000+00:00</time></trkpt><trkpt lat="30.75851276" lon="35.72552154"><ele>1222.0</ele><time>2015-11-22T14:00:14.0000000+00:00</time></trkpt><trkpt lat="30.75813104" lon="35.72582236"><ele>1223.4</ele><time>2015-11-22T14:00:31.0000000+00:00</time></trkpt><trkpt lat="30.75782234" lon="35.72620374"><ele>1224.9</ele><time>2015-11-22T14:00:47.0000000+00:00</time></trkpt><trkpt lat="30.75755965" lon="35.72656383"><ele>1226.3</ele><time>2015-11-22T14:01:03.0000000+00:00</time></trkpt><trkpt lat="30.75723401" lon="35.72696775"><ele>1226.8</ele><time>2015-11-22T14:01:18.0000000+00:00</time></trkpt><trkpt lat="30.75665608" lon="35.72733035"><ele>1227.7</ele><time>2015-11-22T14:01:35.0000000+00:00</time></trkpt><trkpt lat="30.75590121" lon="35.72728878"><ele>1228.7</ele><time>2015-11-22T14:01:51.0000000+00:00</time></trkpt><trkpt lat="30.75511767" lon="35.72718845"><ele>1230.1</ele><time>2015-11-22T14:02:09.0000000+00:00</time></trkpt><trkpt lat="30.75464501" lon="35.72704906"><ele>1230.6</ele><time>2015-11-22T14:02:21.0000000+00:00</time></trkpt><trkpt lat="30.75399986" lon="35.72673381"><ele>1232.1</ele><time>2015-11-22T14:02:38.0000000+00:00</time></trkpt><trkpt lat="30.75351245" lon="35.7264505"><ele>1233.5</ele><time>2015-11-22T14:02:52.0000000+00:00</time></trkpt><trkpt lat="30.75285003" lon="35.72608564"><ele>1235.4</ele><time>2015-11-22T14:03:13.0000000+00:00</time></trkpt><trkpt lat="30.75244585" lon="35.72587685"><ele>1235.9</ele><time>2015-11-22T14:03:28.0000000+00:00</time></trkpt><trkpt lat="30.75200178" lon="35.7256015"><ele>1237.4</ele><time>2015-11-22T14:03:45.0000000+00:00</time></trkpt><trkpt lat="30.75153834" lon="35.72531258"><ele>1238.8</ele><time>2015-11-22T14:04:00.0000000+00:00</time></trkpt><trkpt lat="30.75121304" lon="35.72512533"><ele>1239.8</ele><time>2015-11-22T14:04:13.0000000+00:00</time></trkpt><trkpt lat="30.75097986" lon="35.72498753"><ele>1239.8</ele><time>2015-11-22T14:04:24.0000000+00:00</time></trkpt><trkpt lat="30.75068733" lon="35.7247727"><ele>1240.2</ele><time>2015-11-22T14:04:35.0000000+00:00</time></trkpt><trkpt lat="30.75041106" lon="35.72451185"><ele>1239.8</ele><time>2015-11-22T14:04:45.0000000+00:00</time></trkpt><trkpt lat="30.75030704" lon="35.72439937"><ele>1239.8</ele><time>2015-11-22T14:04:49.0000000+00:00</time></trkpt><trkpt lat="30.74990211" lon="35.72395429"><ele>1240.2</ele><time>2015-11-22T14:05:04.0000000+00:00</time></trkpt><trkpt lat="30.74960455" lon="35.72365816"><ele>1240.2</ele><time>2015-11-22T14:05:15.0000000+00:00</time></trkpt><trkpt lat="30.74923139" lon="35.72330352"><ele>1240.7</ele><time>2015-11-22T14:05:28.0000000+00:00</time></trkpt><trkpt lat="30.74909233" lon="35.72321165"><ele>1240.7</ele><time>2015-11-22T14:05:32.0000000+00:00</time></trkpt><trkpt lat="30.74848875" lon="35.72313596"><ele>1241.2</ele><time>2015-11-22T14:05:47.0000000+00:00</time></trkpt><trkpt lat="30.74786095" lon="35.72314091"><ele>1242.6</ele><time>2015-11-22T14:06:04.0000000+00:00</time></trkpt><trkpt lat="30.74734814" lon="35.72313571"><ele>1244.6</ele><time>2015-11-22T14:06:19.0000000+00:00</time></trkpt><trkpt lat="30.74678605" lon="35.7231042"><ele>1247.0</ele><time>2015-11-22T14:06:36.0000000+00:00</time></trkpt><trkpt lat="30.74628482" lon="35.72305726"><ele>1248.9</ele><time>2015-11-22T14:06:54.0000000+00:00</time></trkpt><trkpt lat="30.74591543" lon="35.72305248"><ele>1250.3</ele><time>2015-11-22T14:07:08.0000000+00:00</time></trkpt><trkpt lat="30.74548074" lon="35.72317905"><ele>1251.8</ele><time>2015-11-22T14:07:25.0000000+00:00</time></trkpt><trkpt lat="30.74521093" lon="35.72339849"><ele>1253.2</ele><time>2015-11-22T14:07:38.0000000+00:00</time></trkpt><trkpt lat="30.74477498" lon="35.72368573"><ele>1254.7</ele><time>2015-11-22T14:07:55.0000000+00:00</time></trkpt><trkpt lat="30.74429537" lon="35.72377391"><ele>1256.6</ele><time>2015-11-22T14:08:12.0000000+00:00</time></trkpt><trkpt lat="30.7438" lon="35.72382186"><ele>1258.5</ele><time>2015-11-22T14:08:29.0000000+00:00</time></trkpt><trkpt lat="30.74332123" lon="35.72383929"><ele>1259.9</ele><time>2015-11-22T14:08:45.0000000+00:00</time></trkpt><trkpt lat="30.74278856" lon="35.72383577"><ele>1260.9</ele><time>2015-11-22T14:09:04.0000000+00:00</time></trkpt><trkpt lat="30.7422869" lon="35.72379721"><ele>1261.9</ele><time>2015-11-22T14:09:20.0000000+00:00</time></trkpt><trkpt lat="30.74164015" lon="35.72366453"><ele>1262.8</ele><time>2015-11-22T14:09:38.0000000+00:00</time></trkpt><trkpt lat="30.74086659" lon="35.72346076"><ele>1263.3</ele><time>2015-11-22T14:09:57.0000000+00:00</time></trkpt><trkpt lat="30.74035512" lon="35.72332238"><ele>1263.3</ele><time>2015-11-22T14:10:12.0000000+00:00</time></trkpt><trkpt lat="30.7398787" lon="35.7231876"><ele>1264.3</ele><time>2015-11-22T14:10:27.0000000+00:00</time></trkpt><trkpt lat="30.7392674" lon="35.72301225"><ele>1265.2</ele><time>2015-11-22T14:10:45.0000000+00:00</time></trkpt><trkpt lat="30.73876793" lon="35.72288769"><ele>1266.2</ele><time>2015-11-22T14:11:00.0000000+00:00</time></trkpt><trkpt lat="30.7382091" lon="35.72271444"><ele>1267.6</ele><time>2015-11-22T14:11:17.0000000+00:00</time></trkpt><trkpt lat="30.73749748" lon="35.72258041"><ele>1269.1</ele><time>2015-11-22T14:11:37.0000000+00:00</time></trkpt><trkpt lat="30.73701602" lon="35.72262635"><ele>1270.0</ele><time>2015-11-22T14:11:51.0000000+00:00</time></trkpt><trkpt lat="30.7364453" lon="35.72274352"><ele>1271.5</ele><time>2015-11-22T14:12:08.0000000+00:00</time></trkpt><trkpt lat="30.73608077" lon="35.72278619"><ele>1272.4</ele><time>2015-11-22T14:12:20.0000000+00:00</time></trkpt><trkpt lat="30.73554165" lon="35.72284696"><ele>1272.9</ele><time>2015-11-22T14:12:36.0000000+00:00</time></trkpt><trkpt lat="30.73516505" lon="35.72294033"><ele>1273.9</ele><time>2015-11-22T14:12:49.0000000+00:00</time></trkpt><trkpt lat="30.73505298" lon="35.72294201"><ele>1273.9</ele><time>2015-11-22T14:12:53.0000000+00:00</time></trkpt><trkpt lat="30.73446591" lon="35.7230446"><ele>1274.9</ele><time>2015-11-22T14:13:10.0000000+00:00</time></trkpt><trkpt lat="30.73389527" lon="35.72304033"><ele>1276.8</ele><time>2015-11-22T14:13:26.0000000+00:00</time></trkpt><trkpt lat="30.7332259" lon="35.72289431"><ele>1277.7</ele><time>2015-11-22T14:13:45.0000000+00:00</time></trkpt><trkpt lat="30.73259046" lon="35.72281326"><ele>1279.7</ele><time>2015-11-22T14:14:03.0000000+00:00</time></trkpt><trkpt lat="30.73195134" lon="35.72289792"><ele>1281.6</ele><time>2015-11-22T14:14:23.0000000+00:00</time></trkpt><trkpt lat="30.73138976" lon="35.72304796"><ele>1284.0</ele><time>2015-11-22T14:14:42.0000000+00:00</time></trkpt><trkpt lat="30.73083387" lon="35.72324426"><ele>1286.4</ele><time>2015-11-22T14:15:01.0000000+00:00</time></trkpt><trkpt lat="30.73028259" lon="35.72340402"><ele>1288.3</ele><time>2015-11-22T14:15:21.0000000+00:00</time></trkpt><trkpt lat="30.72985059" lon="35.72351592"><ele>1290.2</ele><time>2015-11-22T14:15:37.0000000+00:00</time></trkpt><trkpt lat="30.7293698" lon="35.72356361"><ele>1292.2</ele><time>2015-11-22T14:15:54.0000000+00:00</time></trkpt><trkpt lat="30.72888533" lon="35.72350485"><ele>1293.6</ele><time>2015-11-22T14:16:10.0000000+00:00</time></trkpt><trkpt lat="30.7284576" lon="35.72342422"><ele>1294.6</ele><time>2015-11-22T14:16:26.0000000+00:00</time></trkpt><trkpt lat="30.72813121" lon="35.72338801"><ele>1295.0</ele><time>2015-11-22T14:16:39.0000000+00:00</time></trkpt><trkpt lat="30.7279292" lon="35.72335222"><ele>1295.0</ele><time>2015-11-22T14:16:51.0000000+00:00</time></trkpt><trkpt lat="30.72789878" lon="35.7233083"><ele>1295.0</ele><time>2015-11-22T14:16:55.0000000+00:00</time></trkpt><trkpt lat="30.72790674" lon="35.72327519"><ele>1295.0</ele><time>2015-11-22T14:17:12.0000000+00:00</time></trkpt><trkpt lat="30.72790942" lon="35.72325147"><ele>1295.0</ele><time>2015-11-22T14:17:26.0000000+00:00</time></trkpt><trkpt lat="30.72789031" lon="35.72323797"><ele>1295.0</ele><time>2015-11-22T14:17:41.0000000+00:00</time></trkpt><trkpt lat="30.72789023" lon="35.72318978"><ele>1294.1</ele><time>2015-11-22T14:18:14.0000000+00:00</time></trkpt><trkpt lat="30.72788679" lon="35.72321056"><ele>1295.0</ele><time>2015-11-22T14:18:30.0000000+00:00</time></trkpt><trkpt lat="30.72788402" lon="35.72321978"><ele>1294.6</ele><time>2015-11-22T14:18:56.0000000+00:00</time></trkpt><trkpt lat="30.7278769" lon="35.72324518"><ele>1295.0</ele><time>2015-11-22T14:19:43.0000000+00:00</time></trkpt><trkpt lat="30.72787975" lon="35.72324233"><ele>1295.0</ele><time>2015-11-22T14:20:20.0000000+00:00</time></trkpt><trkpt lat="30.72788034" lon="35.7232368"><ele>1295.0</ele><time>2015-11-22T14:20:51.0000000+00:00</time></trkpt><trkpt lat="30.72788101" lon="35.72321241"><ele>1294.6</ele><time>2015-11-22T14:21:10.0000000+00:00</time></trkpt><trkpt lat="30.72789283" lon="35.72317704"><ele>1295.0</ele><time>2015-11-22T14:21:50.0000000+00:00</time></trkpt><trkpt lat="30.72788905" lon="35.72317938"><ele>1295.0</ele><time>2015-11-22T14:22:20.0000000+00:00</time></trkpt><trkpt lat="30.72788604" lon="35.72317217"><ele>1295.0</ele><time>2015-11-22T14:22:59.0000000+00:00</time></trkpt><trkpt lat="30.72789811" lon="35.72316187"><ele>1295.5</ele><time>2015-11-22T14:23:36.0000000+00:00</time></trkpt><trkpt lat="30.72789283" lon="35.72316505"><ele>1295.5</ele><time>2015-11-22T14:24:13.0000000+00:00</time></trkpt><trkpt lat="30.72788335" lon="35.72317402"><ele>1296.0</ele><time>2015-11-22T14:25:00.0000000+00:00</time></trkpt><trkpt lat="30.72788302" lon="35.72321216"><ele>1296.5</ele><time>2015-11-22T14:25:51.0000000+00:00</time></trkpt><trkpt lat="30.72789475" lon="35.72323009"><ele>1296.0</ele><time>2015-11-22T14:26:26.0000000+00:00</time></trkpt><trkpt lat="30.72790037" lon="35.72321308"><ele>1296.0</ele><time>2015-11-22T14:26:56.0000000+00:00</time></trkpt><trkpt lat="30.72789333" lon="35.72320964"><ele>1296.0</ele><time>2015-11-22T14:27:34.0000000+00:00</time></trkpt><trkpt lat="30.72789802" lon="35.72321467"><ele>1296.0</ele><time>2015-11-22T14:28:22.0000000+00:00</time></trkpt><trkpt lat="30.72790322" lon="35.7232435"><ele>1295.5</ele><time>2015-11-22T14:29:02.0000000+00:00</time></trkpt><trkpt lat="30.72793339" lon="35.72322213"><ele>1295.0</ele><time>2015-11-22T14:29:58.0000000+00:00</time></trkpt><trkpt lat="30.72793373" lon="35.72322657"><ele>1295.0</ele><time>2015-11-22T14:30:59.0000000+00:00</time></trkpt><trkpt lat="30.72792711" lon="35.72322339"><ele>1294.6</ele><time>2015-11-22T14:31:47.0000000+00:00</time></trkpt><trkpt lat="30.72792795" lon="35.72322138"><ele>1294.6</ele><time>2015-11-22T14:32:43.0000000+00:00</time></trkpt><trkpt lat="30.72791621" lon="35.72321861"><ele>1294.6</ele><time>2015-11-22T14:33:28.0000000+00:00</time></trkpt><trkpt lat="30.72789651" lon="35.72321861"><ele>1295.0</ele><time>2015-11-22T14:34:13.0000000+00:00</time></trkpt><trkpt lat="30.72787187" lon="35.72322431"><ele>1295.0</ele><time>2015-11-22T14:34:25.0000000+00:00</time></trkpt><trkpt lat="30.72769987" lon="35.72320361"><ele>1295.5</ele><time>2015-11-22T14:34:38.0000000+00:00</time></trkpt><trkpt lat="30.72748966" lon="35.72310654"><ele>1297.0</ele><time>2015-11-22T14:34:48.0000000+00:00</time></trkpt><trkpt lat="30.72729184" lon="35.7229415"><ele>1297.9</ele><time>2015-11-22T14:35:00.0000000+00:00</time></trkpt><trkpt lat="30.72711607" lon="35.72280765"><ele>1298.4</ele><time>2015-11-22T14:35:12.0000000+00:00</time></trkpt><trkpt lat="30.72686168" lon="35.72256113"><ele>1298.9</ele><time>2015-11-22T14:35:26.0000000+00:00</time></trkpt><trkpt lat="30.72653026" lon="35.72212326"><ele>1298.9</ele><time>2015-11-22T14:35:40.0000000+00:00</time></trkpt><trkpt lat="30.72604788" lon="35.72151926"><ele>1299.8</ele><time>2015-11-22T14:35:57.0000000+00:00</time></trkpt><trkpt lat="30.72601947" lon="35.72148666"><ele>1299.8</ele><time>2015-11-22T14:35:58.0000000+00:00</time></trkpt><trkpt lat="30.72571948" lon="35.72118784"><ele>1300.8</ele><time>2015-11-22T14:36:10.0000000+00:00</time></trkpt><trkpt lat="30.72507793" lon="35.72087076"><ele>1303.2</ele><time>2015-11-22T14:36:28.0000000+00:00</time></trkpt><trkpt lat="30.72499872" lon="35.72085089"><ele>1303.7</ele><time>2015-11-22T14:36:30.0000000+00:00</time></trkpt><trkpt lat="30.72426162" lon="35.72065635"><ele>1305.6</ele><time>2015-11-22T14:36:49.0000000+00:00</time></trkpt><trkpt lat="30.72326333" lon="35.72041436"><ele>1307.5</ele><time>2015-11-22T14:37:13.0000000+00:00</time></trkpt><trkpt lat="30.72239656" lon="35.72010599"><ele>1308.5</ele><time>2015-11-22T14:37:34.0000000+00:00</time></trkpt><trkpt lat="30.72192139" lon="35.71983995"><ele>1309.0</ele><time>2015-11-22T14:37:46.0000000+00:00</time></trkpt><trkpt lat="30.72184076" lon="35.71980357"><ele>1309.5</ele><time>2015-11-22T14:37:48.0000000+00:00</time></trkpt><trkpt lat="30.72176289" lon="35.71975864"><ele>1309.5</ele><time>2015-11-22T14:37:50.0000000+00:00</time></trkpt><trkpt lat="30.72092185" lon="35.71948154"><ele>1311.9</ele><time>2015-11-22T14:38:10.0000000+00:00</time></trkpt><trkpt lat="30.72084197" lon="35.7194631"><ele>1312.3</ele><time>2015-11-22T14:38:12.0000000+00:00</time></trkpt><trkpt lat="30.72020184" lon="35.71930418"><ele>1313.8</ele><time>2015-11-22T14:38:28.0000000+00:00</time></trkpt><trkpt lat="30.71956716" lon="35.71911517"><ele>1316.2</ele><time>2015-11-22T14:38:46.0000000+00:00</time></trkpt><trkpt lat="30.71896744" lon="35.7187249"><ele>1318.1</ele><time>2015-11-22T14:39:05.0000000+00:00</time></trkpt><trkpt lat="30.7184232" lon="35.71835677"><ele>1320.0</ele><time>2015-11-22T14:39:22.0000000+00:00</time></trkpt><trkpt lat="30.71784494" lon="35.71796039"><ele>1322.4</ele><time>2015-11-22T14:39:41.0000000+00:00</time></trkpt><trkpt lat="30.7172318" lon="35.71744197"><ele>1324.8</ele><time>2015-11-22T14:40:02.0000000+00:00</time></trkpt><trkpt lat="30.71677691" lon="35.71689958"><ele>1327.2</ele><time>2015-11-22T14:40:21.0000000+00:00</time></trkpt><trkpt lat="30.71630853" lon="35.71632802"><ele>1329.6</ele><time>2015-11-22T14:40:42.0000000+00:00</time></trkpt><trkpt lat="30.71603403" lon="35.71597941"><ele>1332.5</ele><time>2015-11-22T14:41:00.0000000+00:00</time></trkpt><trkpt lat="30.71583521" lon="35.71573935"><ele>1334.9</ele><time>2015-11-22T14:41:14.0000000+00:00</time></trkpt><trkpt lat="30.71563907" lon="35.71548622"><ele>1337.8</ele><time>2015-11-22T14:41:32.0000000+00:00</time></trkpt><trkpt lat="30.71545408" lon="35.71522881"><ele>1340.7</ele><time>2015-11-22T14:41:52.0000000+00:00</time></trkpt><trkpt lat="30.71534386" lon="35.71509311"><ele>1342.1</ele><time>2015-11-22T14:42:02.0000000+00:00</time></trkpt><trkpt lat="30.71533204" lon="35.7150859"><ele>1342.1</ele><time>2015-11-22T14:42:03.0000000+00:00</time></trkpt><trkpt lat="30.71532601" lon="35.71507241"><ele>1342.6</ele><time>2015-11-22T14:42:04.0000000+00:00</time></trkpt><trkpt lat="30.71532014" lon="35.71505866"><ele>1342.6</ele><time>2015-11-22T14:42:05.0000000+00:00</time></trkpt><trkpt lat="30.71530949" lon="35.71504793"><ele>1342.6</ele><time>2015-11-22T14:42:06.0000000+00:00</time></trkpt><trkpt lat="30.71515317" lon="35.71485582"><ele>1345.5</ele><time>2015-11-22T14:42:22.0000000+00:00</time></trkpt><trkpt lat="30.71501051" lon="35.71466924"><ele>1348.4</ele><time>2015-11-22T14:42:38.0000000+00:00</time></trkpt><trkpt lat="30.71486902" lon="35.71449875"><ele>1351.8</ele><time>2015-11-22T14:42:53.0000000+00:00</time></trkpt><trkpt lat="30.71482829" lon="35.71443362"><ele>1352.7</ele><time>2015-11-22T14:43:06.0000000+00:00</time></trkpt><trkpt lat="30.71475293" lon="35.7143472"><ele>1354.2</ele><time>2015-11-22T14:43:20.0000000+00:00</time></trkpt><trkpt lat="30.71462905" lon="35.71417253"><ele>1357.5</ele><time>2015-11-22T14:43:41.0000000+00:00</time></trkpt><trkpt lat="30.71449536" lon="35.71403096"><ele>1359.9</ele><time>2015-11-22T14:44:01.0000000+00:00</time></trkpt><trkpt lat="30.7143646" lon="35.71390162"><ele>1362.3</ele><time>2015-11-22T14:44:21.0000000+00:00</time></trkpt><trkpt lat="30.71423477" lon="35.7137805"><ele>1364.7</ele><time>2015-11-22T14:44:41.0000000+00:00</time></trkpt><trkpt lat="30.71413611" lon="35.7136764"><ele>1367.1</ele><time>2015-11-22T14:44:59.0000000+00:00</time></trkpt><trkpt lat="30.71401382" lon="35.71357473"><ele>1369.5</ele><time>2015-11-22T14:45:16.0000000+00:00</time></trkpt><trkpt lat="30.71387426" lon="35.7134832"><ele>1371.5</ele><time>2015-11-22T14:45:37.0000000+00:00</time></trkpt><trkpt lat="30.71372716" lon="35.71340231"><ele>1373.4</ele><time>2015-11-22T14:45:55.0000000+00:00</time></trkpt><trkpt lat="30.71357192" lon="35.71332897"><ele>1375.8</ele><time>2015-11-22T14:46:15.0000000+00:00</time></trkpt><trkpt lat="30.71349372" lon="35.71329838"><ele>1376.8</ele><time>2015-11-22T14:46:30.0000000+00:00</time></trkpt><trkpt lat="30.7133757" lon="35.71322772"><ele>1378.2</ele><time>2015-11-22T14:46:48.0000000+00:00</time></trkpt><trkpt lat="30.71324134" lon="35.7131465"><ele>1380.1</ele><time>2015-11-22T14:47:06.0000000+00:00</time></trkpt><trkpt lat="30.71307697" lon="35.7130408"><ele>1382.5</ele><time>2015-11-22T14:47:26.0000000+00:00</time></trkpt><trkpt lat="30.71293582" lon="35.71291851"><ele>1384.9</ele><time>2015-11-22T14:47:45.0000000+00:00</time></trkpt><trkpt lat="30.71282124" lon="35.71275221"><ele>1386.8</ele><time>2015-11-22T14:48:05.0000000+00:00</time></trkpt><trkpt lat="30.7127676" lon="35.71265792"><ele>1387.8</ele><time>2015-11-22T14:48:14.0000000+00:00</time></trkpt><trkpt lat="30.7127588" lon="35.71264358"><ele>1387.8</ele><time>2015-11-22T14:48:15.0000000+00:00</time></trkpt><trkpt lat="30.71274949" lon="35.71262858"><ele>1387.8</ele><time>2015-11-22T14:48:16.0000000+00:00</time></trkpt><trkpt lat="30.71271144" lon="35.71254333"><ele>1388.8</ele><time>2015-11-22T14:48:21.0000000+00:00</time></trkpt><trkpt lat="30.71270482" lon="35.71252733"><ele>1388.8</ele><time>2015-11-22T14:48:22.0000000+00:00</time></trkpt><trkpt lat="30.7125837" lon="35.7122845"><ele>1391.2</ele><time>2015-11-22T14:48:40.0000000+00:00</time></trkpt><trkpt lat="30.71254145" lon="35.71221611"><ele>1392.1</ele><time>2015-11-22T14:48:46.0000000+00:00</time></trkpt><trkpt lat="30.71253106" lon="35.71220781"><ele>1392.1</ele><time>2015-11-22T14:48:47.0000000+00:00</time></trkpt><trkpt lat="30.71252394" lon="35.71219666"><ele>1392.1</ele><time>2015-11-22T14:48:48.0000000+00:00</time></trkpt><trkpt lat="30.71252042" lon="35.71218568"><ele>1392.1</ele><time>2015-11-22T14:48:49.0000000+00:00</time></trkpt><trkpt lat="30.71251396" lon="35.71217529"><ele>1392.6</ele><time>2015-11-22T14:48:50.0000000+00:00</time></trkpt><trkpt lat="30.71250508" lon="35.71216632"><ele>1392.6</ele><time>2015-11-22T14:48:51.0000000+00:00</time></trkpt><trkpt lat="30.71249041" lon="35.71215215"><ele>1392.6</ele><time>2015-11-22T14:48:52.0000000+00:00</time></trkpt><trkpt lat="30.71247649" lon="35.71212994"><ele>1393.1</ele><time>2015-11-22T14:48:54.0000000+00:00</time></trkpt><trkpt lat="30.71247524" lon="35.71211267"><ele>1393.1</ele><time>2015-11-22T14:48:55.0000000+00:00</time></trkpt><trkpt lat="30.71247331" lon="35.71209784"><ele>1393.1</ele><time>2015-11-22T14:48:56.0000000+00:00</time></trkpt><trkpt lat="30.71247012" lon="35.71208275"><ele>1393.6</ele><time>2015-11-22T14:48:57.0000000+00:00</time></trkpt><trkpt lat="30.71246509" lon="35.71206976"><ele>1393.6</ele><time>2015-11-22T14:48:58.0000000+00:00</time></trkpt><trkpt lat="30.71246132" lon="35.71205576"><ele>1393.6</ele><time>2015-11-22T14:48:59.0000000+00:00</time></trkpt><trkpt lat="30.71245747" lon="35.71204327"><ele>1393.6</ele><time>2015-11-22T14:49:00.0000000+00:00</time></trkpt><trkpt lat="30.71245017" lon="35.7120162"><ele>1393.6</ele><time>2015-11-22T14:49:02.0000000+00:00</time></trkpt><trkpt lat="30.71235873" lon="35.71184428"><ele>1395.5</ele><time>2015-11-22T14:49:18.0000000+00:00</time></trkpt><trkpt lat="30.71235127" lon="35.71183347"><ele>1396.0</ele><time>2015-11-22T14:49:19.0000000+00:00</time></trkpt><trkpt lat="30.71227013" lon="35.71162024"><ele>1397.9</ele><time>2015-11-22T14:49:35.0000000+00:00</time></trkpt><trkpt lat="30.71225043" lon="35.71157229"><ele>1397.9</ele><time>2015-11-22T14:49:39.0000000+00:00</time></trkpt><trkpt lat="30.71224398" lon="35.71156123"><ele>1398.4</ele><time>2015-11-22T14:49:40.0000000+00:00</time></trkpt><trkpt lat="30.71223887" lon="35.71154958"><ele>1398.4</ele><time>2015-11-22T14:49:41.0000000+00:00</time></trkpt><trkpt lat="30.71213837" lon="35.71132075"><ele>1400.3</ele><time>2015-11-22T14:49:59.0000000+00:00</time></trkpt><trkpt lat="30.7120916" lon="35.71123073"><ele>1401.7</ele><time>2015-11-22T14:50:07.0000000+00:00</time></trkpt><trkpt lat="30.71208162" lon="35.71122017"><ele>1401.7</ele><time>2015-11-22T14:50:08.0000000+00:00</time></trkpt><trkpt lat="30.71207458" lon="35.71120827"><ele>1401.7</ele><time>2015-11-22T14:50:09.0000000+00:00</time></trkpt><trkpt lat="30.71207341" lon="35.71119133"><ele>1402.2</ele><time>2015-11-22T14:50:10.0000000+00:00</time></trkpt><trkpt lat="30.71207349" lon="35.71117222"><ele>1402.2</ele><time>2015-11-22T14:50:11.0000000+00:00</time></trkpt><trkpt lat="30.71206779" lon="35.71115714"><ele>1402.2</ele><time>2015-11-22T14:50:12.0000000+00:00</time></trkpt><trkpt lat="30.71206226" lon="35.71114616"><ele>1402.7</ele><time>2015-11-22T14:50:13.0000000+00:00</time></trkpt><trkpt lat="30.71205891" lon="35.71113367"><ele>1402.7</ele><time>2015-11-22T14:50:14.0000000+00:00</time></trkpt><trkpt lat="30.71205597" lon="35.71111984"><ele>1402.7</ele><time>2015-11-22T14:50:15.0000000+00:00</time></trkpt><trkpt lat="30.71205078" lon="35.71110668"><ele>1402.7</ele><time>2015-11-22T14:50:16.0000000+00:00</time></trkpt><trkpt lat="30.71204424" lon="35.71109402"><ele>1403.2</ele><time>2015-11-22T14:50:17.0000000+00:00</time></trkpt><trkpt lat="30.71200543" lon="35.71101607"><ele>1404.1</ele><time>2015-11-22T14:50:24.0000000+00:00</time></trkpt><trkpt lat="30.71200283" lon="35.71100174"><ele>1404.1</ele><time>2015-11-22T14:50:25.0000000+00:00</time></trkpt><trkpt lat="30.71196151" lon="35.7108812"><ele>1405.6</ele><time>2015-11-22T14:50:34.0000000+00:00</time></trkpt><trkpt lat="30.7119253" lon="35.71073745"><ele>1407.5</ele><time>2015-11-22T14:50:49.0000000+00:00</time></trkpt><trkpt lat="30.71191675" lon="35.7106657"><ele>1409.0</ele><time>2015-11-22T14:51:07.0000000+00:00</time></trkpt><trkpt lat="30.71192052" lon="35.7105067"><ele>1410.9</ele><time>2015-11-22T14:51:25.0000000+00:00</time></trkpt><trkpt lat="30.71190476" lon="35.71030201"><ele>1413.3</ele><time>2015-11-22T14:51:43.0000000+00:00</time></trkpt><trkpt lat="30.71194139" lon="35.71015609"><ele>1415.2</ele><time>2015-11-22T14:52:03.0000000+00:00</time></trkpt><trkpt lat="30.71196377" lon="35.71004427"><ele>1417.1</ele><time>2015-11-22T14:52:21.0000000+00:00</time></trkpt><trkpt lat="30.71197609" lon="35.70991578"><ele>1418.1</ele><time>2015-11-22T14:52:38.0000000+00:00</time></trkpt><trkpt lat="30.71201004" lon="35.7097209"><ele>1420.5</ele><time>2015-11-22T14:52:57.0000000+00:00</time></trkpt><trkpt lat="30.71202806" lon="35.7095468"><ele>1422.4</ele><time>2015-11-22T14:53:15.0000000+00:00</time></trkpt><trkpt lat="30.7120641" lon="35.70942267"><ele>1424.3</ele><time>2015-11-22T14:53:34.0000000+00:00</time></trkpt><trkpt lat="30.7120895" lon="35.70922762"><ele>1426.3</ele><time>2015-11-22T14:53:53.0000000+00:00</time></trkpt><trkpt lat="30.7121035" lon="35.70905688"><ele>1428.2</ele><time>2015-11-22T14:54:12.0000000+00:00</time></trkpt><trkpt lat="30.71209579" lon="35.70893509"><ele>1429.6</ele><time>2015-11-22T14:54:27.0000000+00:00</time></trkpt><trkpt lat="30.71200945" lon="35.70877232"><ele>1431.5</ele><time>2015-11-22T14:54:47.0000000+00:00</time></trkpt><trkpt lat="30.71189412" lon="35.7086522"><ele>1433.5</ele><time>2015-11-22T14:55:06.0000000+00:00</time></trkpt><trkpt lat="30.7117813" lon="35.70858305"><ele>1434.4</ele><time>2015-11-22T14:55:21.0000000+00:00</time></trkpt><trkpt lat="30.71163923" lon="35.70852379"><ele>1435.9</ele><time>2015-11-22T14:55:40.0000000+00:00</time></trkpt><trkpt lat="30.71150771" lon="35.70845456"><ele>1437.3</ele><time>2015-11-22T14:55:58.0000000+00:00</time></trkpt><trkpt lat="30.71136287" lon="35.70838155"><ele>1438.3</ele><time>2015-11-22T14:56:18.0000000+00:00</time></trkpt><trkpt lat="30.71123136" lon="35.70831584"><ele>1439.2</ele><time>2015-11-22T14:56:38.0000000+00:00</time></trkpt><trkpt lat="30.71120488" lon="35.70830377"><ele>1439.7</ele><time>2015-11-22T14:56:54.0000000+00:00</time></trkpt><trkpt lat="30.7112213" lon="35.70831265"><ele>1439.7</ele><time>2015-11-22T14:57:25.0000000+00:00</time></trkpt><trkpt lat="30.71119088" lon="35.70829145"><ele>1439.7</ele><time>2015-11-22T14:57:59.0000000+00:00</time></trkpt><trkpt lat="30.71117914" lon="35.70828164"><ele>1439.7</ele><time>2015-11-22T14:58:34.0000000+00:00</time></trkpt><trkpt lat="30.71117864" lon="35.70829321"><ele>1439.7</ele><time>2015-11-22T14:59:11.0000000+00:00</time></trkpt><trkpt lat="30.71117193" lon="35.70830218"><ele>1439.7</ele><time>2015-11-22T14:59:39.0000000+00:00</time></trkpt><trkpt lat="30.71118627" lon="35.70831383"><ele>1439.7</ele><time>2015-11-22T15:00:06.0000000+00:00</time></trkpt><trkpt lat="30.71118602" lon="35.70829237"><ele>1439.7</ele><time>2015-11-22T15:00:39.0000000+00:00</time></trkpt><trkpt lat="30.71119825" lon="35.70829279"><ele>1440.2</ele><time>2015-11-22T15:01:23.0000000+00:00</time></trkpt><trkpt lat="30.71118786" lon="35.7082741"><ele>1439.7</ele><time>2015-11-22T15:02:05.0000000+00:00</time></trkpt><trkpt lat="30.71116774" lon="35.70824325"><ele>1440.2</ele><time>2015-11-22T15:02:36.0000000+00:00</time></trkpt><trkpt lat="30.7111623" lon="35.70824686"><ele>1440.2</ele><time>2015-11-22T15:02:55.0000000+00:00</time></trkpt><trkpt lat="30.71114193" lon="35.70826027"><ele>1440.2</ele><time>2015-11-22T15:03:06.0000000+00:00</time></trkpt><trkpt lat="30.71113036" lon="35.70825314"><ele>1440.2</ele><time>2015-11-22T15:03:08.0000000+00:00</time></trkpt><trkpt lat="30.71111829" lon="35.70824996"><ele>1440.7</ele><time>2015-11-22T15:03:09.0000000+00:00</time></trkpt><trkpt lat="30.71110697" lon="35.70824568"><ele>1440.7</ele><time>2015-11-22T15:03:10.0000000+00:00</time></trkpt><trkpt lat="30.71109692" lon="35.70824283"><ele>1440.7</ele><time>2015-11-22T15:03:11.0000000+00:00</time></trkpt><trkpt lat="30.71108619" lon="35.70823948"><ele>1440.7</ele><time>2015-11-22T15:03:12.0000000+00:00</time></trkpt><trkpt lat="30.71107697" lon="35.70823328"><ele>1441.2</ele><time>2015-11-22T15:03:13.0000000+00:00</time></trkpt><trkpt lat="30.71106649" lon="35.70822506"><ele>1441.2</ele><time>2015-11-22T15:03:14.0000000+00:00</time></trkpt><trkpt lat="30.71105258" lon="35.70821769"><ele>1441.2</ele><time>2015-11-22T15:03:15.0000000+00:00</time></trkpt><trkpt lat="30.7110359" lon="35.70820838"><ele>1441.2</ele><time>2015-11-22T15:03:16.0000000+00:00</time></trkpt><trkpt lat="30.71101846" lon="35.70819891"><ele>1441.2</ele><time>2015-11-22T15:03:17.0000000+00:00</time></trkpt><trkpt lat="30.71100094" lon="35.70818944"><ele>1441.6</ele><time>2015-11-22T15:03:18.0000000+00:00</time></trkpt><trkpt lat="30.71098317" lon="35.70818231"><ele>1441.2</ele><time>2015-11-22T15:03:19.0000000+00:00</time></trkpt><trkpt lat="30.71070498" lon="35.70805868"><ele>1443.1</ele><time>2015-11-22T15:03:36.0000000+00:00</time></trkpt><trkpt lat="30.71056198" lon="35.70796799"><ele>1444.5</ele><time>2015-11-22T15:03:47.0000000+00:00</time></trkpt><trkpt lat="30.7105474" lon="35.70796304"><ele>1444.5</ele><time>2015-11-22T15:03:48.0000000+00:00</time></trkpt><trkpt lat="30.71053332" lon="35.70795625"><ele>1445.0</ele><time>2015-11-22T15:03:49.0000000+00:00</time></trkpt><trkpt lat="30.71051915" lon="35.70794687"><ele>1445.0</ele><time>2015-11-22T15:03:50.0000000+00:00</time></trkpt><trkpt lat="30.71050465" lon="35.70793991"><ele>1445.0</ele><time>2015-11-22T15:03:51.0000000+00:00</time></trkpt><trkpt lat="30.71042812" lon="35.70788233"><ele>1446.0</ele><time>2015-11-22T15:03:57.0000000+00:00</time></trkpt><trkpt lat="30.71041572" lon="35.70787671"><ele>1446.0</ele><time>2015-11-22T15:03:58.0000000+00:00</time></trkpt><trkpt lat="30.71040415" lon="35.70786732"><ele>1446.4</ele><time>2015-11-22T15:03:59.0000000+00:00</time></trkpt><trkpt lat="30.71039191" lon="35.70785953"><ele>1446.4</ele><time>2015-11-22T15:04:00.0000000+00:00</time></trkpt><trkpt lat="30.71037775" lon="35.70785089"><ele>1446.4</ele><time>2015-11-22T15:04:01.0000000+00:00</time></trkpt><trkpt lat="30.7103635" lon="35.707841"><ele>1446.4</ele><time>2015-11-22T15:04:02.0000000+00:00</time></trkpt><trkpt lat="30.71019377" lon="35.70770664"><ele>1448.8</ele><time>2015-11-22T15:04:15.0000000+00:00</time></trkpt><trkpt lat="30.71008774" lon="35.70758846"><ele>1450.3</ele><time>2015-11-22T15:04:24.0000000+00:00</time></trkpt><trkpt lat="30.71007868" lon="35.70756817"><ele>1450.3</ele><time>2015-11-22T15:04:25.0000000+00:00</time></trkpt><trkpt lat="30.70998615" lon="35.70722594"><ele>1452.2</ele><time>2015-11-22T15:04:42.0000000+00:00</time></trkpt><trkpt lat="30.70993527" lon="35.70695487"><ele>1454.6</ele><time>2015-11-22T15:04:55.0000000+00:00</time></trkpt><trkpt lat="30.70993627" lon="35.70665823"><ele>1456.5</ele><time>2015-11-22T15:05:09.0000000+00:00</time></trkpt><trkpt lat="30.70996779" lon="35.70631173"><ele>1458.5</ele><time>2015-11-22T15:05:26.0000000+00:00</time></trkpt><trkpt lat="30.70996243" lon="35.70620963"><ele>1458.9</ele><time>2015-11-22T15:05:31.0000000+00:00</time></trkpt><trkpt lat="30.70996528" lon="35.70618952"><ele>1459.4</ele><time>2015-11-22T15:05:32.0000000+00:00</time></trkpt><trkpt lat="30.70996829" lon="35.70616772"><ele>1458.9</ele><time>2015-11-22T15:05:33.0000000+00:00</time></trkpt><trkpt lat="30.70997072" lon="35.70614484"><ele>1458.9</ele><time>2015-11-22T15:05:34.0000000+00:00</time></trkpt><trkpt lat="30.70997332" lon="35.70612079"><ele>1458.9</ele><time>2015-11-22T15:05:35.0000000+00:00</time></trkpt><trkpt lat="30.71000593" lon="35.70564897"><ele>1459.9</ele><time>2015-11-22T15:05:55.0000000+00:00</time></trkpt><trkpt lat="30.71000274" lon="35.70565106"><ele>1459.9</ele><time>2015-11-22T15:06:20.0000000+00:00</time></trkpt><trkpt lat="30.71000023" lon="35.70563841"><ele>1459.9</ele><time>2015-11-22T15:07:03.0000000+00:00</time></trkpt><trkpt lat="30.70999537" lon="35.70563019"><ele>1459.9</ele><time>2015-11-22T15:07:24.0000000+00:00</time></trkpt><trkpt lat="30.70999587" lon="35.70562114"><ele>1459.9</ele><time>2015-11-22T15:07:25.0000000+00:00</time></trkpt><trkpt lat="30.70998556" lon="35.70549742"><ele>1459.9</ele><time>2015-11-22T15:07:38.0000000+00:00</time></trkpt><trkpt lat="30.70998388" lon="35.70548384"><ele>1459.9</ele><time>2015-11-22T15:07:39.0000000+00:00</time></trkpt><trkpt lat="30.70998405" lon="35.70546926"><ele>1459.9</ele><time>2015-11-22T15:07:40.0000000+00:00</time></trkpt><trkpt lat="30.70998573" lon="35.7054561"><ele>1459.9</ele><time>2015-11-22T15:07:41.0000000+00:00</time></trkpt><trkpt lat="30.70999486" lon="35.70544747"><ele>1459.9</ele><time>2015-11-22T15:07:42.0000000+00:00</time></trkpt><trkpt lat="30.71000358" lon="35.70544076"><ele>1459.9</ele><time>2015-11-22T15:07:43.0000000+00:00</time></trkpt><trkpt lat="30.71000668" lon="35.70542878"><ele>1459.9</ele><time>2015-11-22T15:07:44.0000000+00:00</time></trkpt><trkpt lat="30.71000626" lon="35.70539332"><ele>1459.9</ele><time>2015-11-22T15:07:47.0000000+00:00</time></trkpt><trkpt lat="30.71000341" lon="35.70537773"><ele>1459.9</ele><time>2015-11-22T15:07:48.0000000+00:00</time></trkpt><trkpt lat="30.7100035" lon="35.70536365"><ele>1459.9</ele><time>2015-11-22T15:07:49.0000000+00:00</time></trkpt><trkpt lat="30.71000081" lon="35.70534932"><ele>1459.9</ele><time>2015-11-22T15:07:50.0000000+00:00</time></trkpt><trkpt lat="30.71000123" lon="35.70533456"><ele>1459.9</ele><time>2015-11-22T15:07:51.0000000+00:00</time></trkpt><trkpt lat="30.7100014" lon="35.70531545"><ele>1459.9</ele><time>2015-11-22T15:07:52.0000000+00:00</time></trkpt><trkpt lat="30.71000216" lon="35.70529182"><ele>1459.9</ele><time>2015-11-22T15:07:53.0000000+00:00</time></trkpt><trkpt lat="30.71000207" lon="35.70526273"><ele>1459.9</ele><time>2015-11-22T15:07:54.0000000+00:00</time></trkpt><trkpt lat="30.71000258" lon="35.70523197"><ele>1459.9</ele><time>2015-11-22T15:07:55.0000000+00:00</time></trkpt><trkpt lat="30.71000434" lon="35.70519785"><ele>1459.9</ele><time>2015-11-22T15:07:56.0000000+00:00</time></trkpt><trkpt lat="30.71001615" lon="35.70448061"><ele>1458.5</ele><time>2015-11-22T15:08:09.0000000+00:00</time></trkpt><trkpt lat="30.70999067" lon="35.70312157"><ele>1457.0</ele><time>2015-11-22T15:08:25.0000000+00:00</time></trkpt><trkpt lat="30.70996469" lon="35.70145634"><ele>1457.0</ele><time>2015-11-22T15:08:45.0000000+00:00</time></trkpt><trkpt lat="30.70992286" lon="35.70011364"><ele>1458.9</ele><time>2015-11-22T15:09:01.0000000+00:00</time></trkpt><trkpt lat="30.70991976" lon="35.70004667"><ele>1459.4</ele><time>2015-11-22T15:09:02.0000000+00:00</time></trkpt><trkpt lat="30.70986637" lon="35.69946103"><ele>1462.3</ele><time>2015-11-22T15:09:14.0000000+00:00</time></trkpt><trkpt lat="30.70977333" lon="35.69894881"><ele>1464.7</ele><time>2015-11-22T15:09:31.0000000+00:00</time></trkpt><trkpt lat="30.70972547" lon="35.69868688"><ele>1465.7</ele><time>2015-11-22T15:09:45.0000000+00:00</time></trkpt><trkpt lat="30.70960569" lon="35.69796503"><ele>1467.1</ele><time>2015-11-22T15:10:04.0000000+00:00</time></trkpt><trkpt lat="30.70940696" lon="35.6970773"><ele>1466.2</ele><time>2015-11-22T15:10:19.0000000+00:00</time></trkpt><trkpt lat="30.70908417" lon="35.69578414"><ele>1463.3</ele><time>2015-11-22T15:10:33.0000000+00:00</time></trkpt><trkpt lat="30.70895584" lon="35.69454328"><ele>1463.3</ele><time>2015-11-22T15:10:44.0000000+00:00</time></trkpt><trkpt lat="30.70897571" lon="35.69428462"><ele>1464.7</ele><time>2015-11-22T15:10:47.0000000+00:00</time></trkpt><trkpt lat="30.70903748" lon="35.69388195"><ele>1468.1</ele><time>2015-11-22T15:10:54.0000000+00:00</time></trkpt><trkpt lat="30.70915273" lon="35.69318407"><ele>1470.0</ele><time>2015-11-22T15:11:09.0000000+00:00</time></trkpt><trkpt lat="30.70915558" lon="35.69232124"><ele>1467.6</ele><time>2015-11-22T15:11:21.0000000+00:00</time></trkpt><trkpt lat="30.70914418" lon="35.69165396"><ele>1464.2</ele><time>2015-11-22T15:11:27.0000000+00:00</time></trkpt><trkpt lat="30.70913999" lon="35.69140971"><ele>1463.3</ele><time>2015-11-22T15:11:29.0000000+00:00</time></trkpt><trkpt lat="30.70912725" lon="35.69039441"><ele>1466.6</ele><time>2015-11-22T15:11:39.0000000+00:00</time></trkpt><trkpt lat="30.70912968" lon="35.68990448"><ele>1470.0</ele><time>2015-11-22T15:11:48.0000000+00:00</time></trkpt><trkpt lat="30.70913907" lon="35.68955027"><ele>1472.4</ele><time>2015-11-22T15:12:01.0000000+00:00</time></trkpt><trkpt lat="30.70918115" lon="35.68920786"><ele>1474.8</ele><time>2015-11-22T15:12:17.0000000+00:00</time></trkpt><trkpt lat="30.70922599" lon="35.68886328"><ele>1478.2</ele><time>2015-11-22T15:12:35.0000000+00:00</time></trkpt><trkpt lat="30.7092477" lon="35.68862893"><ele>1480.1</ele><time>2015-11-22T15:12:48.0000000+00:00</time></trkpt><trkpt lat="30.70925038" lon="35.688612"><ele>1480.6</ele><time>2015-11-22T15:12:49.0000000+00:00</time></trkpt><trkpt lat="30.70925483" lon="35.68859146"><ele>1480.6</ele><time>2015-11-22T15:12:50.0000000+00:00</time></trkpt><trkpt lat="30.70925768" lon="35.68857595"><ele>1480.6</ele><time>2015-11-22T15:12:51.0000000+00:00</time></trkpt><trkpt lat="30.7092591" lon="35.68855927"><ele>1481.1</ele><time>2015-11-22T15:12:52.0000000+00:00</time></trkpt><trkpt lat="30.70926187" lon="35.68854125"><ele>1481.1</ele><time>2015-11-22T15:12:53.0000000+00:00</time></trkpt><trkpt lat="30.70926455" lon="35.6885213"><ele>1481.1</ele><time>2015-11-22T15:12:54.0000000+00:00</time></trkpt><trkpt lat="30.70926572" lon="35.68850353"><ele>1481.5</ele><time>2015-11-22T15:12:55.0000000+00:00</time></trkpt><trkpt lat="30.70928894" lon="35.68828284"><ele>1483.5</ele><time>2015-11-22T15:13:07.0000000+00:00</time></trkpt><trkpt lat="30.70929204" lon="35.68815376"><ele>1484.9</ele><time>2015-11-22T15:13:15.0000000+00:00</time></trkpt><trkpt lat="30.70933688" lon="35.6879075"><ele>1487.3</ele><time>2015-11-22T15:13:30.0000000+00:00</time></trkpt><trkpt lat="30.7093399" lon="35.68789233"><ele>1487.3</ele><time>2015-11-22T15:13:31.0000000+00:00</time></trkpt><trkpt lat="30.70934124" lon="35.6878759"><ele>1487.8</ele><time>2015-11-22T15:13:32.0000000+00:00</time></trkpt><trkpt lat="30.70934401" lon="35.68786073"><ele>1487.8</ele><time>2015-11-22T15:13:33.0000000+00:00</time></trkpt><trkpt lat="30.70934778" lon="35.68784589"><ele>1487.8</ele><time>2015-11-22T15:13:34.0000000+00:00</time></trkpt><trkpt lat="30.70934979" lon="35.68782971"><ele>1488.3</ele><time>2015-11-22T15:13:35.0000000+00:00</time></trkpt><trkpt lat="30.70934937" lon="35.68781571"><ele>1488.3</ele><time>2015-11-22T15:13:36.0000000+00:00</time></trkpt><trkpt lat="30.70935206" lon="35.68779853"><ele>1488.7</ele><time>2015-11-22T15:13:37.0000000+00:00</time></trkpt><trkpt lat="30.70935432" lon="35.6877811"><ele>1488.7</ele><time>2015-11-22T15:13:38.0000000+00:00</time></trkpt><trkpt lat="30.70939363" lon="35.68749771"><ele>1491.6</ele><time>2015-11-22T15:13:55.0000000+00:00</time></trkpt><trkpt lat="30.70939799" lon="35.68748186"><ele>1492.1</ele><time>2015-11-22T15:13:56.0000000+00:00</time></trkpt><trkpt lat="30.70940218" lon="35.68746493"><ele>1492.1</ele><time>2015-11-22T15:13:57.0000000+00:00</time></trkpt><trkpt lat="30.70940444" lon="35.68744758"><ele>1492.1</ele><time>2015-11-22T15:13:58.0000000+00:00</time></trkpt><trkpt lat="30.70943629" lon="35.68716478"><ele>1495.0</ele><time>2015-11-22T15:14:15.0000000+00:00</time></trkpt><trkpt lat="30.70947845" lon="35.6868611"><ele>1496.9</ele><time>2015-11-22T15:14:33.0000000+00:00</time></trkpt><trkpt lat="30.70959823" lon="35.68644469"><ele>1498.8</ele><time>2015-11-22T15:14:53.0000000+00:00</time></trkpt><trkpt lat="30.70977082" lon="35.68595879"><ele>1499.3</ele><time>2015-11-22T15:15:09.0000000+00:00</time></trkpt><trkpt lat="30.70996352" lon="35.6853998"><ele>1498.8</ele><time>2015-11-22T15:15:26.0000000+00:00</time></trkpt><trkpt lat="30.71010039" lon="35.68464736"><ele>1496.9</ele><time>2015-11-22T15:15:42.0000000+00:00</time></trkpt><trkpt lat="30.71010626" lon="35.68458793"><ele>1496.9</ele><time>2015-11-22T15:15:43.0000000+00:00</time></trkpt><trkpt lat="30.7101879" lon="35.68386734"><ele>1493.6</ele><time>2015-11-22T15:15:53.0000000+00:00</time></trkpt><trkpt lat="30.71020676" lon="35.68368469"><ele>1492.6</ele><time>2015-11-22T15:15:55.0000000+00:00</time></trkpt><trkpt lat="30.71030332" lon="35.68317348"><ele>1489.2</ele><time>2015-11-22T15:16:00.0000000+00:00</time></trkpt><trkpt lat="30.71051957" lon="35.68257887"><ele>1485.4</ele><time>2015-11-22T15:16:05.0000000+00:00</time></trkpt><trkpt lat="30.71068017" lon="35.68218777"><ele>1482.0</ele><time>2015-11-22T15:16:08.0000000+00:00</time></trkpt><trkpt lat="30.71079659" lon="35.68190555"><ele>1478.7</ele><time>2015-11-22T15:16:10.0000000+00:00</time></trkpt><trkpt lat="30.71098485" lon="35.68146097"><ele>1474.3</ele><time>2015-11-22T15:16:13.0000000+00:00</time></trkpt><trkpt lat="30.71111368" lon="35.68114908"><ele>1471.4</ele><time>2015-11-22T15:16:15.0000000+00:00</time></trkpt><trkpt lat="30.71124444" lon="35.68082227"><ele>1468.1</ele><time>2015-11-22T15:16:17.0000000+00:00</time></trkpt><trkpt lat="30.71137863" lon="35.68049303"><ele>1464.7</ele><time>2015-11-22T15:16:19.0000000+00:00</time></trkpt><trkpt lat="30.71150947" lon="35.68015432"><ele>1461.3</ele><time>2015-11-22T15:16:21.0000000+00:00</time></trkpt><trkpt lat="30.7116124" lon="35.67981041"><ele>1458.9</ele><time>2015-11-22T15:16:23.0000000+00:00</time></trkpt><trkpt lat="30.71164333" lon="35.67963833"><ele>1458.5</ele><time>2015-11-22T15:16:24.0000000+00:00</time></trkpt><trkpt lat="30.7116606" lon="35.67946843"><ele>1457.5</ele><time>2015-11-22T15:16:25.0000000+00:00</time></trkpt><trkpt lat="30.71166915" lon="35.67930062"><ele>1457.5</ele><time>2015-11-22T15:16:26.0000000+00:00</time></trkpt><trkpt lat="30.7116725" lon="35.67815457"><ele>1460.9</ele><time>2015-11-22T15:16:34.0000000+00:00</time></trkpt><trkpt lat="30.71169446" lon="35.67758963"><ele>1464.2</ele><time>2015-11-22T15:16:40.0000000+00:00</time></trkpt><trkpt lat="30.71170729" lon="35.67746121"><ele>1465.7</ele><time>2015-11-22T15:16:42.0000000+00:00</time></trkpt><trkpt lat="30.71172112" lon="35.67740967"><ele>1466.2</ele><time>2015-11-22T15:16:43.0000000+00:00</time></trkpt><trkpt lat="30.71173654" lon="35.67736566"><ele>1466.6</ele><time>2015-11-22T15:16:44.0000000+00:00</time></trkpt><trkpt lat="30.71174702" lon="35.67732736"><ele>1466.6</ele><time>2015-11-22T15:16:45.0000000+00:00</time></trkpt><trkpt lat="30.71176462" lon="35.67719392"><ele>1468.6</ele><time>2015-11-22T15:16:51.0000000+00:00</time></trkpt><trkpt lat="30.71176328" lon="35.67717858"><ele>1468.6</ele><time>2015-11-22T15:16:52.0000000+00:00</time></trkpt><trkpt lat="30.71175909" lon="35.67716475"><ele>1469.0</ele><time>2015-11-22T15:16:53.0000000+00:00</time></trkpt><trkpt lat="30.71175196" lon="35.6771505"><ele>1469.0</ele><time>2015-11-22T15:16:54.0000000+00:00</time></trkpt><trkpt lat="30.71169966" lon="35.67714019"><ele>1469.0</ele><time>2015-11-22T15:16:57.0000000+00:00</time></trkpt><trkpt lat="30.71168038" lon="35.67714698"><ele>1469.5</ele><time>2015-11-22T15:16:58.0000000+00:00</time></trkpt><trkpt lat="30.71134158" lon="35.67717891"><ele>1469.5</ele><time>2015-11-22T15:17:13.0000000+00:00</time></trkpt><trkpt lat="30.71098091" lon="35.67715762"><ele>1470.0</ele><time>2015-11-22T15:17:25.0000000+00:00</time></trkpt><trkpt lat="30.71057087" lon="35.67711119"><ele>1471.4</ele><time>2015-11-22T15:17:38.0000000+00:00</time></trkpt><trkpt lat="30.71016166" lon="35.67714572"><ele>1472.4</ele><time>2015-11-22T15:17:52.0000000+00:00</time></trkpt><trkpt lat="30.70969027" lon="35.67724337"><ele>1473.8</ele><time>2015-11-22T15:18:09.0000000+00:00</time></trkpt><trkpt lat="30.70925105" lon="35.67722216"><ele>1476.7</ele><time>2015-11-22T15:18:27.0000000+00:00</time></trkpt><trkpt lat="30.70892835" lon="35.67721705"><ele>1479.1</ele><time>2015-11-22T15:18:43.0000000+00:00</time></trkpt><trkpt lat="30.70862752" lon="35.67728813"><ele>1480.6</ele><time>2015-11-22T15:18:57.0000000+00:00</time></trkpt><trkpt lat="30.70799025" lon="35.67733138"><ele>1480.6</ele><time>2015-11-22T15:19:14.0000000+00:00</time></trkpt><trkpt lat="30.70761315" lon="35.67736658"><ele>1480.6</ele><time>2015-11-22T15:19:22.0000000+00:00</time></trkpt><trkpt lat="30.70705793" lon="35.67744085"><ele>1483.0</ele><time>2015-11-22T15:19:38.0000000+00:00</time></trkpt><trkpt lat="30.70651696" lon="35.67751695"><ele>1484.4</ele><time>2015-11-22T15:19:56.0000000+00:00</time></trkpt><trkpt lat="30.70604028" lon="35.67755434"><ele>1486.3</ele><time>2015-11-22T15:20:12.0000000+00:00</time></trkpt><trkpt lat="30.70559529" lon="35.67765023"><ele>1487.8</ele><time>2015-11-22T15:20:27.0000000+00:00</time></trkpt><trkpt lat="30.70513059" lon="35.67774737"><ele>1489.7</ele><time>2015-11-22T15:20:44.0000000+00:00</time></trkpt><trkpt lat="30.70480856" lon="35.67786044"><ele>1492.1</ele><time>2015-11-22T15:20:58.0000000+00:00</time></trkpt><trkpt lat="30.70450748" lon="35.67792792"><ele>1495.0</ele><time>2015-11-22T15:21:13.0000000+00:00</time></trkpt><trkpt lat="30.70429676" lon="35.67795097"><ele>1497.9</ele><time>2015-11-22T15:21:27.0000000+00:00</time></trkpt><trkpt lat="30.70405075" lon="35.67799388"><ele>1500.3</ele><time>2015-11-22T15:21:42.0000000+00:00</time></trkpt><trkpt lat="30.70374222" lon="35.67808005"><ele>1502.7</ele><time>2015-11-22T15:22:01.0000000+00:00</time></trkpt><trkpt lat="30.70372579" lon="35.67808634"><ele>1502.2</ele><time>2015-11-22T15:22:02.0000000+00:00</time></trkpt><trkpt lat="30.70370844" lon="35.67808751"><ele>1502.7</ele><time>2015-11-22T15:22:03.0000000+00:00</time></trkpt><trkpt lat="30.70369134" lon="35.6780886"><ele>1502.7</ele><time>2015-11-22T15:22:04.0000000+00:00</time></trkpt><trkpt lat="30.70364146" lon="35.67810008"><ele>1503.2</ele><time>2015-11-22T15:22:07.0000000+00:00</time></trkpt><trkpt lat="30.70361322" lon="35.67811316"><ele>1503.2</ele><time>2015-11-22T15:22:09.0000000+00:00</time></trkpt><trkpt lat="30.70339495" lon="35.67815859"><ele>1505.6</ele><time>2015-11-22T15:22:22.0000000+00:00</time></trkpt><trkpt lat="30.70325347" lon="35.67818373"><ele>1507.0</ele><time>2015-11-22T15:22:31.0000000+00:00</time></trkpt><trkpt lat="30.70296496" lon="35.67818943"><ele>1508.0</ele><time>2015-11-22T15:22:47.0000000+00:00</time></trkpt><trkpt lat="30.70259507" lon="35.67816001"><ele>1507.5</ele><time>2015-11-22T15:23:02.0000000+00:00</time></trkpt><trkpt lat="30.70230438" lon="35.6781642"><ele>1507.0</ele><time>2015-11-22T15:23:15.0000000+00:00</time></trkpt><trkpt lat="30.70229776" lon="35.67816605"><ele>1507.0</ele><time>2015-11-22T15:23:41.0000000+00:00</time></trkpt><trkpt lat="30.70229382" lon="35.67817435"><ele>1507.0</ele><time>2015-11-22T15:24:08.0000000+00:00</time></trkpt><trkpt lat="30.70229801" lon="35.67817493"><ele>1507.0</ele><time>2015-11-22T15:24:40.0000000+00:00</time></trkpt><trkpt lat="30.70230271" lon="35.67817552"><ele>1507.0</ele><time>2015-11-22T15:25:06.0000000+00:00</time></trkpt><trkpt lat="30.7022877" lon="35.67816437"><ele>1507.0</ele><time>2015-11-22T15:25:45.0000000+00:00</time></trkpt><trkpt lat="30.70230346" lon="35.67816337"><ele>1507.5</ele><time>2015-11-22T15:26:21.0000000+00:00</time></trkpt><trkpt lat="30.70228418" lon="35.67817678"><ele>1507.5</ele><time>2015-11-22T15:26:35.0000000+00:00</time></trkpt><trkpt lat="30.70212954" lon="35.6782031"><ele>1508.0</ele><time>2015-11-22T15:26:47.0000000+00:00</time></trkpt><trkpt lat="30.7018899" lon="35.67817477"><ele>1509.4</ele><time>2015-11-22T15:27:00.0000000+00:00</time></trkpt><trkpt lat="30.70155521" lon="35.67816521"><ele>1511.3</ele><time>2015-11-22T15:27:18.0000000+00:00</time></trkpt><trkpt lat="30.70122429" lon="35.6780508"><ele>1512.8</ele><time>2015-11-22T15:27:35.0000000+00:00</time></trkpt><trkpt lat="30.70080117" lon="35.67785785"><ele>1513.7</ele><time>2015-11-22T15:27:54.0000000+00:00</time></trkpt><trkpt lat="30.70043312" lon="35.67765442"><ele>1514.7</ele><time>2015-11-22T15:28:11.0000000+00:00</time></trkpt><trkpt lat="30.7001235" lon="35.67734546"><ele>1516.1</ele><time>2015-11-22T15:28:28.0000000+00:00</time></trkpt><trkpt lat="30.69992132" lon="35.67708059"><ele>1518.1</ele><time>2015-11-22T15:28:44.0000000+00:00</time></trkpt><trkpt lat="30.69969057" lon="35.67684783"><ele>1518.5</ele><time>2015-11-22T15:29:03.0000000+00:00</time></trkpt><trkpt lat="30.69934641" lon="35.67653636"><ele>1516.1</ele><time>2015-11-22T15:29:17.0000000+00:00</time></trkpt><trkpt lat="30.69902102" lon="35.6762761"><ele>1512.8</ele><time>2015-11-22T15:29:28.0000000+00:00</time></trkpt><trkpt lat="30.69876496" lon="35.67614341"><ele>1509.4</ele><time>2015-11-22T15:29:34.0000000+00:00</time></trkpt><trkpt lat="30.69860084" lon="35.67606496"><ele>1506.5</ele><time>2015-11-22T15:29:37.0000000+00:00</time></trkpt><trkpt lat="30.69838819" lon="35.67596479"><ele>1502.7</ele><time>2015-11-22T15:29:41.0000000+00:00</time></trkpt><trkpt lat="30.69821108" lon="35.67591953"><ele>1499.8</ele><time>2015-11-22T15:29:44.0000000+00:00</time></trkpt><trkpt lat="30.69803204" lon="35.67591375"><ele>1496.0</ele><time>2015-11-22T15:29:47.0000000+00:00</time></trkpt><trkpt lat="30.69782811" lon="35.67591609"><ele>1492.1</ele><time>2015-11-22T15:29:51.0000000+00:00</time></trkpt><trkpt lat="30.69762711" lon="35.67589832"><ele>1488.7</ele><time>2015-11-22T15:29:55.0000000+00:00</time></trkpt><trkpt lat="30.69758344" lon="35.675885"><ele>1487.8</ele><time>2015-11-22T15:29:56.0000000+00:00</time></trkpt><trkpt lat="30.69754078" lon="35.67586974"><ele>1487.3</ele><time>2015-11-22T15:29:57.0000000+00:00</time></trkpt><trkpt lat="30.69731036" lon="35.6757855"><ele>1483.5</ele><time>2015-11-22T15:30:01.0000000+00:00</time></trkpt><trkpt lat="30.69698129" lon="35.6756985"><ele>1482.0</ele><time>2015-11-22T15:30:05.0000000+00:00</time></trkpt><trkpt lat="30.69623731" lon="35.67565005"><ele>1484.9</ele><time>2015-11-22T15:30:16.0000000+00:00</time></trkpt><trkpt lat="30.69597496" lon="35.6757099"><ele>1486.8</ele><time>2015-11-22T15:30:26.0000000+00:00</time></trkpt><trkpt lat="30.69573339" lon="35.67580629"><ele>1489.2</ele><time>2015-11-22T15:30:41.0000000+00:00</time></trkpt><trkpt lat="30.69550641" lon="35.6759865"><ele>1492.1</ele><time>2015-11-22T15:31:00.0000000+00:00</time></trkpt><trkpt lat="30.69535118" lon="35.67613671"><ele>1494.5</ele><time>2015-11-22T15:31:14.0000000+00:00</time></trkpt><trkpt lat="30.69527272" lon="35.67619731"><ele>1495.5</ele><time>2015-11-22T15:31:21.0000000+00:00</time></trkpt><trkpt lat="30.69525939" lon="35.67620225"><ele>1495.5</ele><time>2015-11-22T15:31:22.0000000+00:00</time></trkpt><trkpt lat="30.69524556" lon="35.67622212"><ele>1495.5</ele><time>2015-11-22T15:31:24.0000000+00:00</time></trkpt><trkpt lat="30.6952397" lon="35.67623746"><ele>1496.0</ele><time>2015-11-22T15:31:25.0000000+00:00</time></trkpt><trkpt lat="30.69522863" lon="35.67625011"><ele>1496.0</ele><time>2015-11-22T15:31:26.0000000+00:00</time></trkpt><trkpt lat="30.6952169" lon="35.67626394"><ele>1496.0</ele><time>2015-11-22T15:31:27.0000000+00:00</time></trkpt><trkpt lat="30.69520315" lon="35.67627467"><ele>1496.4</ele><time>2015-11-22T15:31:28.0000000+00:00</time></trkpt><trkpt lat="30.69519209" lon="35.67628507"><ele>1496.4</ele><time>2015-11-22T15:31:29.0000000+00:00</time></trkpt><trkpt lat="30.69518052" lon="35.67629529"><ele>1496.4</ele><time>2015-11-22T15:31:30.0000000+00:00</time></trkpt><trkpt lat="30.6951677" lon="35.67630636"><ele>1496.9</ele><time>2015-11-22T15:31:31.0000000+00:00</time></trkpt><trkpt lat="30.69515613" lon="35.67631893"><ele>1496.9</ele><time>2015-11-22T15:31:32.0000000+00:00</time></trkpt><trkpt lat="30.69514339" lon="35.67632907"><ele>1496.9</ele><time>2015-11-22T15:31:33.0000000+00:00</time></trkpt><trkpt lat="30.69492362" lon="35.67652931"><ele>1498.8</ele><time>2015-11-22T15:31:50.0000000+00:00</time></trkpt><trkpt lat="30.69458851" lon="35.67675026"><ele>1500.3</ele><time>2015-11-22T15:32:10.0000000+00:00</time></trkpt><trkpt lat="30.69429774" lon="35.67692838"><ele>1503.2</ele><time>2015-11-22T15:32:29.0000000+00:00</time></trkpt><trkpt lat="30.69406346" lon="35.67711202"><ele>1506.0</ele><time>2015-11-22T15:32:47.0000000+00:00</time></trkpt><trkpt lat="30.69388426" lon="35.67725217"><ele>1507.5</ele><time>2015-11-22T15:33:01.0000000+00:00</time></trkpt><trkpt lat="30.6936846" lon="35.67741889"><ele>1509.4</ele><time>2015-11-22T15:33:17.0000000+00:00</time></trkpt><trkpt lat="30.69350984" lon="35.67757538"><ele>1512.3</ele><time>2015-11-22T15:33:32.0000000+00:00</time></trkpt><trkpt lat="30.69337531" lon="35.67768484"><ele>1514.2</ele><time>2015-11-22T15:33:44.0000000+00:00</time></trkpt><trkpt lat="30.6933655" lon="35.67769574"><ele>1514.2</ele><time>2015-11-22T15:33:45.0000000+00:00</time></trkpt><trkpt lat="30.69335394" lon="35.67770513"><ele>1514.2</ele><time>2015-11-22T15:33:46.0000000+00:00</time></trkpt><trkpt lat="30.69334103" lon="35.6777125"><ele>1514.2</ele><time>2015-11-22T15:33:47.0000000+00:00</time></trkpt><trkpt lat="30.69332929" lon="35.67771996"><ele>1514.2</ele><time>2015-11-22T15:33:48.0000000+00:00</time></trkpt><trkpt lat="30.69324975" lon="35.67778928"><ele>1515.2</ele><time>2015-11-22T15:33:55.0000000+00:00</time></trkpt><trkpt lat="30.69324128" lon="35.6778016"><ele>1515.2</ele><time>2015-11-22T15:33:56.0000000+00:00</time></trkpt><trkpt lat="30.69323089" lon="35.67781166"><ele>1515.2</ele><time>2015-11-22T15:33:57.0000000+00:00</time></trkpt><trkpt lat="30.69311815" lon="35.67790411"><ele>1517.1</ele><time>2015-11-22T15:34:07.0000000+00:00</time></trkpt><trkpt lat="30.69310575" lon="35.67791325"><ele>1517.1</ele><time>2015-11-22T15:34:08.0000000+00:00</time></trkpt><trkpt lat="30.6930925" lon="35.67792515"><ele>1517.1</ele><time>2015-11-22T15:34:09.0000000+00:00</time></trkpt><trkpt lat="30.69308035" lon="35.67793597"><ele>1517.1</ele><time>2015-11-22T15:34:10.0000000+00:00</time></trkpt><trkpt lat="30.69307038" lon="35.67794636"><ele>1517.6</ele><time>2015-11-22T15:34:11.0000000+00:00</time></trkpt><trkpt lat="30.6930604" lon="35.67795692"><ele>1517.6</ele><time>2015-11-22T15:34:12.0000000+00:00</time></trkpt><trkpt lat="30.69304951" lon="35.67796622"><ele>1518.1</ele><time>2015-11-22T15:34:13.0000000+00:00</time></trkpt><trkpt lat="30.69281423" lon="35.67818809"><ele>1520.9</ele><time>2015-11-22T15:34:33.0000000+00:00</time></trkpt><trkpt lat="30.69269051" lon="35.67833913"><ele>1522.4</ele><time>2015-11-22T15:34:45.0000000+00:00</time></trkpt><trkpt lat="30.69268171" lon="35.67835112"><ele>1522.9</ele><time>2015-11-22T15:34:46.0000000+00:00</time></trkpt><trkpt lat="30.69267098" lon="35.67836059"><ele>1522.9</ele><time>2015-11-22T15:34:47.0000000+00:00</time></trkpt><trkpt lat="30.6926605" lon="35.6783709"><ele>1522.9</ele><time>2015-11-22T15:34:48.0000000+00:00</time></trkpt><trkpt lat="30.69265028" lon="35.67838272"><ele>1523.4</ele><time>2015-11-22T15:34:49.0000000+00:00</time></trkpt><trkpt lat="30.69263946" lon="35.67839412"><ele>1523.4</ele><time>2015-11-22T15:34:50.0000000+00:00</time></trkpt><trkpt lat="30.69262865" lon="35.67840493"><ele>1523.4</ele><time>2015-11-22T15:34:51.0000000+00:00</time></trkpt><trkpt lat="30.69259655" lon="35.6784362"><ele>1523.8</ele><time>2015-11-22T15:34:54.0000000+00:00</time></trkpt><trkpt lat="30.69258456" lon="35.67844592"><ele>1523.8</ele><time>2015-11-22T15:34:55.0000000+00:00</time></trkpt><trkpt lat="30.69246311" lon="35.67857584"><ele>1524.8</ele><time>2015-11-22T15:35:06.0000000+00:00</time></trkpt><trkpt lat="30.69244802" lon="35.67858632"><ele>1525.3</ele><time>2015-11-22T15:35:07.0000000+00:00</time></trkpt><trkpt lat="30.69243528" lon="35.6785999"><ele>1525.3</ele><time>2015-11-22T15:35:08.0000000+00:00</time></trkpt><trkpt lat="30.69242304" lon="35.67861448"><ele>1525.3</ele><time>2015-11-22T15:35:09.0000000+00:00</time></trkpt><trkpt lat="30.69241122" lon="35.67862915"><ele>1525.3</ele><time>2015-11-22T15:35:10.0000000+00:00</time></trkpt><trkpt lat="30.69239781" lon="35.67864113"><ele>1525.8</ele><time>2015-11-22T15:35:11.0000000+00:00</time></trkpt><trkpt lat="30.69238499" lon="35.67865354"><ele>1525.8</ele><time>2015-11-22T15:35:12.0000000+00:00</time></trkpt><trkpt lat="30.69237342" lon="35.67866787"><ele>1525.3</ele><time>2015-11-22T15:35:13.0000000+00:00</time></trkpt><trkpt lat="30.69236043" lon="35.67868271"><ele>1526.2</ele><time>2015-11-22T15:35:14.0000000+00:00</time></trkpt><trkpt lat="30.69213202" lon="35.67896007"><ele>1528.2</ele><time>2015-11-22T15:35:33.0000000+00:00</time></trkpt><trkpt lat="30.69193203" lon="35.67920557"><ele>1530.6</ele><time>2015-11-22T15:35:50.0000000+00:00</time></trkpt><trkpt lat="30.69168912" lon="35.67947899"><ele>1532.5</ele><time>2015-11-22T15:36:09.0000000+00:00</time></trkpt><trkpt lat="30.69143054" lon="35.67980831"><ele>1534.4</ele><time>2015-11-22T15:36:27.0000000+00:00</time></trkpt><trkpt lat="30.69123449" lon="35.68007989"><ele>1533.9</ele><time>2015-11-22T15:36:43.0000000+00:00</time></trkpt><trkpt lat="30.69123399" lon="35.68006698"><ele>1534.4</ele><time>2015-11-22T15:36:57.0000000+00:00</time></trkpt><trkpt lat="30.69123927" lon="35.680085"><ele>1534.4</ele><time>2015-11-22T15:37:34.0000000+00:00</time></trkpt><trkpt lat="30.69124714" lon="35.68007352"><ele>1534.4</ele><time>2015-11-22T15:38:08.0000000+00:00</time></trkpt><trkpt lat="30.69125067" lon="35.68008441"><ele>1533.9</ele><time>2015-11-22T15:38:40.0000000+00:00</time></trkpt><trkpt lat="30.69125184" lon="35.680099"><ele>1534.4</ele><time>2015-11-22T15:38:48.0000000+00:00</time></trkpt><trkpt lat="30.69124664" lon="35.680113"><ele>1534.4</ele><time>2015-11-22T15:38:49.0000000+00:00</time></trkpt><trkpt lat="30.69123776" lon="35.68012792"><ele>1533.9</ele><time>2015-11-22T15:38:50.0000000+00:00</time></trkpt><trkpt lat="30.69122728" lon="35.68014284"><ele>1534.4</ele><time>2015-11-22T15:38:51.0000000+00:00</time></trkpt><trkpt lat="30.69121563" lon="35.68015885"><ele>1533.9</ele><time>2015-11-22T15:38:52.0000000+00:00</time></trkpt><trkpt lat="30.69120306" lon="35.68017494"><ele>1534.4</ele><time>2015-11-22T15:38:53.0000000+00:00</time></trkpt><trkpt lat="30.6911883" lon="35.68019346"><ele>1534.4</ele><time>2015-11-22T15:38:54.0000000+00:00</time></trkpt><trkpt lat="30.6908822" lon="35.68056579"><ele>1531.0</ele><time>2015-11-22T15:39:05.0000000+00:00</time></trkpt><trkpt lat="30.69069914" lon="35.68082211"><ele>1527.2</ele><time>2015-11-22T15:39:09.0000000+00:00</time></trkpt><trkpt lat="30.6905232" lon="35.68105227"><ele>1523.4</ele><time>2015-11-22T15:39:12.0000000+00:00</time></trkpt><trkpt lat="30.69038833" lon="35.68120147"><ele>1520.5</ele><time>2015-11-22T15:39:14.0000000+00:00</time></trkpt><trkpt lat="30.69017711" lon="35.68140012"><ele>1517.1</ele><time>2015-11-22T15:39:17.0000000+00:00</time></trkpt><trkpt lat="30.69004124" lon="35.6815023"><ele>1516.6</ele><time>2015-11-22T15:39:19.0000000+00:00</time></trkpt><trkpt lat="30.68996999" lon="35.68153884"><ele>1515.7</ele><time>2015-11-22T15:39:20.0000000+00:00</time></trkpt><trkpt lat="30.68967462" lon="35.68166901"><ele>1514.7</ele><time>2015-11-22T15:39:24.0000000+00:00</time></trkpt><trkpt lat="30.6896089" lon="35.68171327"><ele>1513.7</ele><time>2015-11-22T15:39:25.0000000+00:00</time></trkpt><trkpt lat="30.68940279" lon="35.68185543"><ele>1511.3</ele><time>2015-11-22T15:39:28.0000000+00:00</time></trkpt><trkpt lat="30.68932056" lon="35.6818861"><ele>1510.9</ele><time>2015-11-22T15:39:29.0000000+00:00</time></trkpt><trkpt lat="30.68901605" lon="35.68198233"><ele>1508.0</ele><time>2015-11-22T15:39:33.0000000+00:00</time></trkpt><trkpt lat="30.68896802" lon="35.6820011"><ele>1507.0</ele><time>2015-11-22T15:39:34.0000000+00:00</time></trkpt><trkpt lat="30.68872956" lon="35.68215617"><ele>1505.6</ele><time>2015-11-22T15:39:40.0000000+00:00</time></trkpt><trkpt lat="30.68868538" lon="35.68219909"><ele>1504.6</ele><time>2015-11-22T15:39:41.0000000+00:00</time></trkpt><trkpt lat="30.68837584" lon="35.68252321"><ele>1501.7</ele><time>2015-11-22T15:39:47.0000000+00:00</time></trkpt><trkpt lat="30.68803922" lon="35.68291549"><ele>1498.4</ele><time>2015-11-22T15:39:53.0000000+00:00</time></trkpt><trkpt lat="30.68794501" lon="35.68301607"><ele>1496.9</ele><time>2015-11-22T15:39:59.0000000+00:00</time></trkpt><trkpt lat="30.68794325" lon="35.68302227"><ele>1497.4</ele><time>2015-11-22T15:40:08.0000000+00:00</time></trkpt><trkpt lat="30.6879316" lon="35.68303702"><ele>1497.9</ele><time>2015-11-22T15:40:09.0000000+00:00</time></trkpt><trkpt lat="30.68775197" lon="35.68321221"><ele>1495.5</ele><time>2015-11-22T15:40:15.0000000+00:00</time></trkpt><trkpt lat="30.68753899" lon="35.68336803"><ele>1492.6</ele><time>2015-11-22T15:40:19.0000000+00:00</time></trkpt><trkpt lat="30.68733095" lon="35.68351706"><ele>1489.2</ele><time>2015-11-22T15:40:22.0000000+00:00</time></trkpt><trkpt lat="30.68707916" lon="35.68369433"><ele>1485.9</ele><time>2015-11-22T15:40:25.0000000+00:00</time></trkpt><trkpt lat="30.68680105" lon="35.68390489"><ele>1482.5</ele><time>2015-11-22T15:40:28.0000000+00:00</time></trkpt><trkpt lat="30.68653526" lon="35.68407655"><ele>1479.1</ele><time>2015-11-22T15:40:31.0000000+00:00</time></trkpt><trkpt lat="30.68644314" lon="35.68410932"><ele>1477.7</ele><time>2015-11-22T15:40:32.0000000+00:00</time></trkpt><trkpt lat="30.68634876" lon="35.68412676"><ele>1476.7</ele><time>2015-11-22T15:40:33.0000000+00:00</time></trkpt><trkpt lat="30.68625312" lon="35.68412919"><ele>1475.3</ele><time>2015-11-22T15:40:34.0000000+00:00</time></trkpt><trkpt lat="30.68615757" lon="35.68412223"><ele>1474.3</ele><time>2015-11-22T15:40:35.0000000+00:00</time></trkpt><trkpt lat="30.6857285" lon="35.68406548"><ele>1470.5</ele><time>2015-11-22T15:40:39.0000000+00:00</time></trkpt><trkpt lat="30.68542784" lon="35.68398938"><ele>1467.1</ele><time>2015-11-22T15:40:42.0000000+00:00</time></trkpt><trkpt lat="30.68535492" lon="35.68393825"><ele>1466.6</ele><time>2015-11-22T15:40:43.0000000+00:00</time></trkpt><trkpt lat="30.68529113" lon="35.6838696"><ele>1466.2</ele><time>2015-11-22T15:40:44.0000000+00:00</time></trkpt><trkpt lat="30.68523221" lon="35.68378813"><ele>1465.7</ele><time>2015-11-22T15:40:45.0000000+00:00</time></trkpt><trkpt lat="30.68517638" lon="35.6837002"><ele>1465.7</ele><time>2015-11-22T15:40:46.0000000+00:00</time></trkpt><trkpt lat="30.68466442" lon="35.68284089"><ele>1462.3</ele><time>2015-11-22T15:40:55.0000000+00:00</time></trkpt><trkpt lat="30.68397417" lon="35.68146793"><ele>1458.9</ele><time>2015-11-22T15:41:08.0000000+00:00</time></trkpt><trkpt lat="30.68361299" lon="35.68022163"><ele>1456.1</ele><time>2015-11-22T15:41:19.0000000+00:00</time></trkpt><trkpt lat="30.68310237" lon="35.67860534"><ele>1453.7</ele><time>2015-11-22T15:41:33.0000000+00:00</time></trkpt><trkpt lat="30.68222294" lon="35.67747865"><ele>1450.3</ele><time>2015-11-22T15:41:46.0000000+00:00</time></trkpt><trkpt lat="30.6812047" lon="35.67638079"><ele>1448.8</ele><time>2015-11-22T15:42:01.0000000+00:00</time></trkpt><trkpt lat="30.68007105" lon="35.67544294"><ele>1445.5</ele><time>2015-11-22T15:42:17.0000000+00:00</time></trkpt><trkpt lat="30.67941022" lon="35.67489266"><ele>1442.6</ele><time>2015-11-22T15:42:25.0000000+00:00</time></trkpt><trkpt lat="30.67870237" lon="35.67428967"><ele>1440.2</ele><time>2015-11-22T15:42:33.0000000+00:00</time></trkpt><trkpt lat="30.67732539" lon="35.67339356"><ele>1439.2</ele><time>2015-11-22T15:42:48.0000000+00:00</time></trkpt><trkpt lat="30.6760899" lon="35.67264799"><ele>1435.9</ele><time>2015-11-22T15:43:02.0000000+00:00</time></trkpt><trkpt lat="30.67506471" lon="35.67189856"><ele>1435.9</ele><time>2015-11-22T15:43:15.0000000+00:00</time></trkpt><trkpt lat="30.67389443" lon="35.67101075"><ele>1434.9</ele><time>2015-11-22T15:43:32.0000000+00:00</time></trkpt><trkpt lat="30.67282951" lon="35.66998037"><ele>1435.9</ele><time>2015-11-22T15:43:49.0000000+00:00</time></trkpt><trkpt lat="30.67201219" lon="35.66919666"><ele>1436.8</ele><time>2015-11-22T15:44:05.0000000+00:00</time></trkpt><trkpt lat="30.67120593" lon="35.66834304"><ele>1433.9</ele><time>2015-11-22T15:44:19.0000000+00:00</time></trkpt><trkpt lat="30.67043941" lon="35.66754375"><ele>1437.3</ele><time>2015-11-22T15:44:34.0000000+00:00</time></trkpt><trkpt lat="30.67017009" lon="35.66725574"><ele>1440.2</ele><time>2015-11-22T15:44:46.0000000+00:00</time></trkpt><trkpt lat="30.67001553" lon="35.66708207"><ele>1443.1</ele><time>2015-11-22T15:45:00.0000000+00:00</time></trkpt><trkpt lat="30.66996667" lon="35.66702541"><ele>1444.0</ele><time>2015-11-22T15:45:05.0000000+00:00</time></trkpt><trkpt lat="30.66995812" lon="35.66701233"><ele>1444.5</ele><time>2015-11-22T15:45:06.0000000+00:00</time></trkpt><trkpt lat="30.6699463" lon="35.66700077"><ele>1444.5</ele><time>2015-11-22T15:45:07.0000000+00:00</time></trkpt><trkpt lat="30.66993373" lon="35.66698845"><ele>1445.0</ele><time>2015-11-22T15:45:08.0000000+00:00</time></trkpt><trkpt lat="30.66992157" lon="35.66697805"><ele>1445.0</ele><time>2015-11-22T15:45:09.0000000+00:00</time></trkpt><trkpt lat="30.66991076" lon="35.66696783"><ele>1445.5</ele><time>2015-11-22T15:45:10.0000000+00:00</time></trkpt><trkpt lat="30.66989869" lon="35.66695852"><ele>1445.5</ele><time>2015-11-22T15:45:11.0000000+00:00</time></trkpt><trkpt lat="30.66987011" lon="35.66691561"><ele>1446.4</ele><time>2015-11-22T15:45:14.0000000+00:00</time></trkpt><trkpt lat="30.66974991" lon="35.6667815"><ele>1449.8</ele><time>2015-11-22T15:45:25.0000000+00:00</time></trkpt><trkpt lat="30.66959065" lon="35.66662031"><ele>1452.7</ele><time>2015-11-22T15:45:40.0000000+00:00</time></trkpt><trkpt lat="30.66941095" lon="35.66648159"><ele>1455.1</ele><time>2015-11-22T15:45:56.0000000+00:00</time></trkpt><trkpt lat="30.66921062" lon="35.66636601"><ele>1457.0</ele><time>2015-11-22T15:46:13.0000000+00:00</time></trkpt><trkpt lat="30.66909931" lon="35.66630876"><ele>1458.0</ele><time>2015-11-22T15:46:22.0000000+00:00</time></trkpt><trkpt lat="30.66908908" lon="35.66629945"><ele>1458.0</ele><time>2015-11-22T15:46:23.0000000+00:00</time></trkpt><trkpt lat="30.66907693" lon="35.66628923"><ele>1458.0</ele><time>2015-11-22T15:46:24.0000000+00:00</time></trkpt><trkpt lat="30.66906368" lon="35.6662816"><ele>1458.0</ele><time>2015-11-22T15:46:25.0000000+00:00</time></trkpt><trkpt lat="30.66905019" lon="35.66627288"><ele>1458.0</ele><time>2015-11-22T15:46:26.0000000+00:00</time></trkpt><trkpt lat="30.66903669" lon="35.66626442"><ele>1458.0</ele><time>2015-11-22T15:46:27.0000000+00:00</time></trkpt><trkpt lat="30.66902521" lon="35.66625671"><ele>1458.5</ele><time>2015-11-22T15:46:28.0000000+00:00</time></trkpt><trkpt lat="30.66901138" lon="35.66624916"><ele>1458.5</ele><time>2015-11-22T15:46:29.0000000+00:00</time></trkpt><trkpt lat="30.66883067" lon="35.66604791"><ele>1459.4</ele><time>2015-11-22T15:46:42.0000000+00:00</time></trkpt><trkpt lat="30.66860285" lon="35.66577466"><ele>1460.9</ele><time>2015-11-22T15:46:58.0000000+00:00</time></trkpt><trkpt lat="30.66820026" lon="35.6655129"><ele>1462.3</ele><time>2015-11-22T15:47:16.0000000+00:00</time></trkpt><trkpt lat="30.66772593" lon="35.66547669"><ele>1464.2</ele><time>2015-11-22T15:47:37.0000000+00:00</time></trkpt><trkpt lat="30.6674588" lon="35.66521433"><ele>1463.3</ele><time>2015-11-22T15:47:50.0000000+00:00</time></trkpt><trkpt lat="30.66745729" lon="35.66517016"><ele>1463.7</ele><time>2015-11-22T15:47:51.0000000+00:00</time></trkpt><trkpt lat="30.6674609" lon="35.66512339"><ele>1463.3</ele><time>2015-11-22T15:47:52.0000000+00:00</time></trkpt><trkpt lat="30.66757598" lon="35.66457178"><ele>1462.8</ele><time>2015-11-22T15:48:03.0000000+00:00</time></trkpt><trkpt lat="30.66767137" lon="35.6642251"><ele>1461.8</ele><time>2015-11-22T15:48:10.0000000+00:00</time></trkpt><trkpt lat="30.66769802" lon="35.6641857"><ele>1461.8</ele><time>2015-11-22T15:48:11.0000000+00:00</time></trkpt><trkpt lat="30.66772677" lon="35.6641469"><ele>1461.8</ele><time>2015-11-22T15:48:12.0000000+00:00</time></trkpt><trkpt lat="30.66787739" lon="35.66395923"><ele>1461.8</ele><time>2015-11-22T15:48:22.0000000+00:00</time></trkpt><trkpt lat="30.66789692" lon="35.66396065"><ele>1462.3</ele><time>2015-11-22T15:48:51.0000000+00:00</time></trkpt><trkpt lat="30.66792626" lon="35.6639671"><ele>1461.3</ele><time>2015-11-22T15:49:05.0000000+00:00</time></trkpt><trkpt lat="30.66791377" lon="35.66399854"><ele>1461.8</ele><time>2015-11-22T15:49:19.0000000+00:00</time></trkpt><trkpt lat="30.66792425" lon="35.6640433"><ele>1461.8</ele><time>2015-11-22T15:49:46.0000000+00:00</time></trkpt><trkpt lat="30.66791696" lon="35.6640552"><ele>1461.8</ele><time>2015-11-22T15:50:18.0000000+00:00</time></trkpt><trkpt lat="30.66791126" lon="35.66405528"><ele>1462.3</ele><time>2015-11-22T15:51:03.0000000+00:00</time></trkpt><trkpt lat="30.6679219" lon="35.66403609"><ele>1461.8</ele><time>2015-11-22T15:51:31.0000000+00:00</time></trkpt><trkpt lat="30.667924" lon="35.66403475"><ele>1462.3</ele><time>2015-11-22T15:52:12.0000000+00:00</time></trkpt><trkpt lat="30.66792944" lon="35.66405327"><ele>1462.3</ele><time>2015-11-22T15:52:43.0000000+00:00</time></trkpt><trkpt lat="30.6679053" lon="35.66403433"><ele>1460.9</ele><time>2015-11-22T15:53:03.0000000+00:00</time></trkpt><trkpt lat="30.66790287" lon="35.66402201"><ele>1460.4</ele><time>2015-11-22T15:53:51.0000000+00:00</time></trkpt><trkpt lat="30.66790656" lon="35.66402452"><ele>1460.4</ele><time>2015-11-22T15:54:36.0000000+00:00</time></trkpt><trkpt lat="30.66790262" lon="35.66402134"><ele>1459.9</ele><time>2015-11-22T15:55:17.0000000+00:00</time></trkpt><trkpt lat="30.66789617" lon="35.66402561"><ele>1459.9</ele><time>2015-11-22T15:55:57.0000000+00:00</time></trkpt><trkpt lat="30.66790346" lon="35.66398856"><ele>1460.9</ele><time>2015-11-22T15:56:28.0000000+00:00</time></trkpt><trkpt lat="30.6679473" lon="35.66393768"><ele>1460.9</ele><time>2015-11-22T15:56:47.0000000+00:00</time></trkpt><trkpt lat="30.66796926" lon="35.66392612"><ele>1460.9</ele><time>2015-11-22T15:56:49.0000000+00:00</time></trkpt><trkpt lat="30.66798409" lon="35.66391405"><ele>1460.9</ele><time>2015-11-22T15:56:50.0000000+00:00</time></trkpt><trkpt lat="30.66800069" lon="35.66389879"><ele>1460.4</ele><time>2015-11-22T15:56:51.0000000+00:00</time></trkpt><trkpt lat="30.66802106" lon="35.66388077"><ele>1460.9</ele><time>2015-11-22T15:56:52.0000000+00:00</time></trkpt><trkpt lat="30.66804436" lon="35.66386107"><ele>1460.9</ele><time>2015-11-22T15:56:53.0000000+00:00</time></trkpt><trkpt lat="30.66806993" lon="35.66383719"><ele>1460.4</ele><time>2015-11-22T15:56:54.0000000+00:00</time></trkpt><trkpt lat="30.66809926" lon="35.6638143"><ele>1460.4</ele><time>2015-11-22T15:56:55.0000000+00:00</time></trkpt><trkpt lat="30.66813095" lon="35.66379192"><ele>1460.4</ele><time>2015-11-22T15:56:56.0000000+00:00</time></trkpt><trkpt lat="30.66815961" lon="35.66376971"><ele>1460.9</ele><time>2015-11-22T15:56:57.0000000+00:00</time></trkpt><trkpt lat="30.66837469" lon="35.66359595"><ele>1461.3</ele><time>2015-11-22T15:57:08.0000000+00:00</time></trkpt><trkpt lat="30.66856085" lon="35.66341658"><ele>1462.3</ele><time>2015-11-22T15:57:19.0000000+00:00</time></trkpt><trkpt lat="30.66857452" lon="35.66340418"><ele>1462.8</ele><time>2015-11-22T15:57:20.0000000+00:00</time></trkpt><trkpt lat="30.6685865" lon="35.66339554"><ele>1462.8</ele><time>2015-11-22T15:57:21.0000000+00:00</time></trkpt><trkpt lat="30.66859832" lon="35.66338615"><ele>1462.8</ele><time>2015-11-22T15:57:22.0000000+00:00</time></trkpt><trkpt lat="30.66860905" lon="35.66337526"><ele>1462.8</ele><time>2015-11-22T15:57:23.0000000+00:00</time></trkpt><trkpt lat="30.66861944" lon="35.66336486"><ele>1462.8</ele><time>2015-11-22T15:57:24.0000000+00:00</time></trkpt><trkpt lat="30.66863076" lon="35.66335556"><ele>1462.8</ele><time>2015-11-22T15:57:25.0000000+00:00</time></trkpt><trkpt lat="30.66887752" lon="35.6631176"><ele>1463.7</ele><time>2015-11-22T15:57:40.0000000+00:00</time></trkpt><trkpt lat="30.66932553" lon="35.66277025"><ele>1464.7</ele><time>2015-11-22T15:57:56.0000000+00:00</time></trkpt><trkpt lat="30.66942561" lon="35.66253883"><ele>1464.2</ele><time>2015-11-22T15:58:05.0000000+00:00</time></trkpt><trkpt lat="30.66940106" lon="35.66251745"><ele>1463.7</ele><time>2015-11-22T15:58:06.0000000+00:00</time></trkpt><trkpt lat="30.66936568" lon="35.66250731"><ele>1463.7</ele><time>2015-11-22T15:58:07.0000000+00:00</time></trkpt><trkpt lat="30.66932403" lon="35.66251343"><ele>1463.3</ele><time>2015-11-22T15:58:08.0000000+00:00</time></trkpt><trkpt lat="30.66928027" lon="35.66253346"><ele>1463.3</ele><time>2015-11-22T15:58:09.0000000+00:00</time></trkpt><trkpt lat="30.66923543" lon="35.66256071"><ele>1462.8</ele><time>2015-11-22T15:58:10.0000000+00:00</time></trkpt><trkpt lat="30.66919302" lon="35.66259272"><ele>1462.8</ele><time>2015-11-22T15:58:11.0000000+00:00</time></trkpt><trkpt lat="30.66850076" lon="35.66303747"><ele>1459.4</ele><time>2015-11-22T15:58:24.0000000+00:00</time></trkpt><trkpt lat="30.66783858" lon="35.66334525"><ele>1456.1</ele><time>2015-11-22T15:58:33.0000000+00:00</time></trkpt><trkpt lat="30.66758495" lon="35.66343619"><ele>1455.1</ele><time>2015-11-22T15:58:36.0000000+00:00</time></trkpt><trkpt lat="30.66731648" lon="35.66352144"><ele>1453.7</ele><time>2015-11-22T15:58:39.0000000+00:00</time></trkpt><trkpt lat="30.66674072" lon="35.66365052"><ele>1450.3</ele><time>2015-11-22T15:58:45.0000000+00:00</time></trkpt><trkpt lat="30.66623647" lon="35.66373141"><ele>1446.9</ele><time>2015-11-22T15:58:50.0000000+00:00</time></trkpt><trkpt lat="30.66570388" lon="35.66379117"><ele>1443.6</ele><time>2015-11-22T15:58:55.0000000+00:00</time></trkpt><trkpt lat="30.66537254" lon="35.66383216"><ele>1441.6</ele><time>2015-11-22T15:58:58.0000000+00:00</time></trkpt><trkpt lat="30.6648175" lon="35.66390189"><ele>1437.8</ele><time>2015-11-22T15:59:03.0000000+00:00</time></trkpt><trkpt lat="30.66436479" lon="35.6639381"><ele>1434.9</ele><time>2015-11-22T15:59:07.0000000+00:00</time></trkpt><trkpt lat="30.66389549" lon="35.66395093"><ele>1431.5</ele><time>2015-11-22T15:59:11.0000000+00:00</time></trkpt><trkpt lat="30.66341386" lon="35.663935"><ele>1428.7</ele><time>2015-11-22T15:59:15.0000000+00:00</time></trkpt><trkpt lat="30.66293442" lon="35.66389318"><ele>1426.3</ele><time>2015-11-22T15:59:19.0000000+00:00</time></trkpt><trkpt lat="30.66234215" lon="35.66380424"><ele>1422.4</ele><time>2015-11-22T15:59:24.0000000+00:00</time></trkpt><trkpt lat="30.66154118" lon="35.66362395"><ele>1419.0</ele><time>2015-11-22T15:59:31.0000000+00:00</time></trkpt><trkpt lat="30.66068153" lon="35.66335397"><ele>1416.2</ele><time>2015-11-22T15:59:39.0000000+00:00</time></trkpt><trkpt lat="30.65966355" lon="35.6629114"><ele>1412.8</ele><time>2015-11-22T15:59:49.0000000+00:00</time></trkpt><trkpt lat="30.65869477" lon="35.66240807"><ele>1409.4</ele><time>2015-11-22T15:59:59.0000000+00:00</time></trkpt><trkpt lat="30.65697027" lon="35.66148749"><ele>1407.0</ele><time>2015-11-22T16:00:18.0000000+00:00</time></trkpt><trkpt lat="30.65602169" lon="35.66104635"><ele>1405.6</ele><time>2015-11-22T16:00:31.0000000+00:00</time></trkpt><trkpt lat="30.65589915" lon="35.66098097"><ele>1405.6</ele><time>2015-11-22T16:00:34.0000000+00:00</time></trkpt><trkpt lat="30.65588021" lon="35.66094551"><ele>1405.6</ele><time>2015-11-22T16:00:35.0000000+00:00</time></trkpt><trkpt lat="30.65586864" lon="35.66090913"><ele>1406.1</ele><time>2015-11-22T16:00:36.0000000+00:00</time></trkpt><trkpt lat="30.65576588" lon="35.66044318"><ele>1406.1</ele><time>2015-11-22T16:00:49.0000000+00:00</time></trkpt><trkpt lat="30.65555055" lon="35.65957834"><ele>1406.6</ele><time>2015-11-22T16:01:06.0000000+00:00</time></trkpt><trkpt lat="30.65535349" lon="35.65878927"><ele>1408.5</ele><time>2015-11-22T16:01:24.0000000+00:00</time></trkpt><trkpt lat="30.65515651" lon="35.658312"><ele>1409.9</ele><time>2015-11-22T16:01:38.0000000+00:00</time></trkpt><trkpt lat="30.65512994" lon="35.65769333"><ele>1412.3</ele><time>2015-11-22T16:01:55.0000000+00:00</time></trkpt><trkpt lat="30.65520597" lon="35.65740047"><ele>1413.8</ele><time>2015-11-22T16:02:08.0000000+00:00</time></trkpt><trkpt lat="30.65525995" lon="35.65718539"><ele>1415.2</ele><time>2015-11-22T16:02:19.0000000+00:00</time></trkpt><trkpt lat="30.65526741" lon="35.65717022"><ele>1415.2</ele><time>2015-11-22T16:02:20.0000000+00:00</time></trkpt><trkpt lat="30.65527059" lon="35.65715094"><ele>1415.2</ele><time>2015-11-22T16:02:21.0000000+00:00</time></trkpt><trkpt lat="30.65527235" lon="35.65712948"><ele>1415.2</ele><time>2015-11-22T16:02:22.0000000+00:00</time></trkpt><trkpt lat="30.65527394" lon="35.65710769"><ele>1415.2</ele><time>2015-11-22T16:02:23.0000000+00:00</time></trkpt><trkpt lat="30.65531703" lon="35.65672531"><ele>1417.1</ele><time>2015-11-22T16:02:39.0000000+00:00</time></trkpt><trkpt lat="30.65532507" lon="35.65629666"><ele>1420.5</ele><time>2015-11-22T16:02:57.0000000+00:00</time></trkpt><trkpt lat="30.65542423" lon="35.65596457"><ele>1421.5</ele><time>2015-11-22T16:03:10.0000000+00:00</time></trkpt><trkpt lat="30.65549254" lon="35.65551463"><ele>1423.4</ele><time>2015-11-22T16:03:28.0000000+00:00</time></trkpt><trkpt lat="30.65544502" lon="35.65504876"><ele>1422.9</ele><time>2015-11-22T16:03:46.0000000+00:00</time></trkpt><trkpt lat="30.65552146" lon="35.65468716"><ele>1423.4</ele><time>2015-11-22T16:03:58.0000000+00:00</time></trkpt><trkpt lat="30.6556948" lon="35.65415441"><ele>1423.4</ele><time>2015-11-22T16:04:15.0000000+00:00</time></trkpt><trkpt lat="30.65581894" lon="35.65358025"><ele>1421.5</ele><time>2015-11-22T16:04:29.0000000+00:00</time></trkpt><trkpt lat="30.6560952" lon="35.6528289"><ele>1421.5</ele><time>2015-11-22T16:04:47.0000000+00:00</time></trkpt><trkpt lat="30.65620501" lon="35.6524808"><ele>1421.5</ele><time>2015-11-22T16:05:01.0000000+00:00</time></trkpt><trkpt lat="30.65620995" lon="35.65206505"><ele>1421.5</ele><time>2015-11-22T16:05:16.0000000+00:00</time></trkpt><trkpt lat="30.65617165" lon="35.65146063"><ele>1421.5</ele><time>2015-11-22T16:05:34.0000000+00:00</time></trkpt><trkpt lat="30.65621029" lon="35.65092646"><ele>1421.5</ele><time>2015-11-22T16:05:48.0000000+00:00</time></trkpt><trkpt lat="30.65631615" lon="35.65010168"><ele>1419.5</ele><time>2015-11-22T16:06:04.0000000+00:00</time></trkpt><trkpt lat="30.65630727" lon="35.65000596"><ele>1420.0</ele><time>2015-11-22T16:06:07.0000000+00:00</time></trkpt><trkpt lat="30.65631213" lon="35.6499741"><ele>1419.5</ele><time>2015-11-22T16:06:08.0000000+00:00</time></trkpt><trkpt lat="30.65639905" lon="35.64958468"><ele>1418.6</ele><time>2015-11-22T16:06:18.0000000+00:00</time></trkpt><trkpt lat="30.65643685" lon="35.64928377"><ele>1416.6</ele><time>2015-11-22T16:06:26.0000000+00:00</time></trkpt><trkpt lat="30.65643433" lon="35.64880852"><ele>1415.7</ele><time>2015-11-22T16:06:34.0000000+00:00</time></trkpt><trkpt lat="30.65644079" lon="35.64873744"><ele>1415.2</ele><time>2015-11-22T16:06:35.0000000+00:00</time></trkpt><trkpt lat="30.65658261" lon="35.64771535"><ele>1412.3</ele><time>2015-11-22T16:06:50.0000000+00:00</time></trkpt><trkpt lat="30.65671991" lon="35.64702979"><ele>1413.8</ele><time>2015-11-22T16:07:06.0000000+00:00</time></trkpt><trkpt lat="30.65679098" lon="35.64654364"><ele>1416.2</ele><time>2015-11-22T16:07:23.0000000+00:00</time></trkpt><trkpt lat="30.6568251" lon="35.6462802"><ele>1419.0</ele><time>2015-11-22T16:07:36.0000000+00:00</time></trkpt><trkpt lat="30.65682518" lon="35.64626469"><ele>1419.0</ele><time>2015-11-22T16:07:37.0000000+00:00</time></trkpt><trkpt lat="30.65683004" lon="35.64624818"><ele>1419.0</ele><time>2015-11-22T16:07:38.0000000+00:00</time></trkpt><trkpt lat="30.656837" lon="35.64623385"><ele>1419.5</ele><time>2015-11-22T16:07:39.0000000+00:00</time></trkpt><trkpt lat="30.65684136" lon="35.6462206"><ele>1419.5</ele><time>2015-11-22T16:07:40.0000000+00:00</time></trkpt><trkpt lat="30.65683926" lon="35.6462077"><ele>1419.5</ele><time>2015-11-22T16:07:41.0000000+00:00</time></trkpt><trkpt lat="30.65682996" lon="35.64616931"><ele>1419.5</ele><time>2015-11-22T16:07:54.0000000+00:00</time></trkpt><trkpt lat="30.65683616" lon="35.64615011"><ele>1420.0</ele><time>2015-11-22T16:08:06.0000000+00:00</time></trkpt><trkpt lat="30.65683046" lon="35.64614081"><ele>1419.5</ele><time>2015-11-22T16:08:21.0000000+00:00</time></trkpt><trkpt lat="30.65682979" lon="35.64613075"><ele>1420.0</ele><time>2015-11-22T16:08:52.0000000+00:00</time></trkpt><trkpt lat="30.65682686" lon="35.64611248"><ele>1419.5</ele><time>2015-11-22T16:09:13.0000000+00:00</time></trkpt><trkpt lat="30.65684136" lon="35.64604232"><ele>1420.0</ele><time>2015-11-22T16:09:22.0000000+00:00</time></trkpt><trkpt lat="30.65689542" lon="35.64580101"><ele>1418.6</ele><time>2015-11-22T16:09:34.0000000+00:00</time></trkpt><trkpt lat="30.65692476" lon="35.64559456"><ele>1418.1</ele><time>2015-11-22T16:09:39.0000000+00:00</time></trkpt><trkpt lat="30.65693348" lon="35.64554251"><ele>1417.6</ele><time>2015-11-22T16:09:40.0000000+00:00</time></trkpt><trkpt lat="30.65699148" lon="35.64515065"><ele>1415.2</ele><time>2015-11-22T16:09:47.0000000+00:00</time></trkpt><trkpt lat="30.65708058" lon="35.64466367"><ele>1411.8</ele><time>2015-11-22T16:09:57.0000000+00:00</time></trkpt><trkpt lat="30.65720916" lon="35.64420794"><ele>1409.9</ele><time>2015-11-22T16:10:03.0000000+00:00</time></trkpt><trkpt lat="30.65724369" lon="35.64414617"><ele>1409.9</ele><time>2015-11-22T16:10:04.0000000+00:00</time></trkpt><trkpt lat="30.65750219" lon="35.64368055"><ele>1407.0</ele><time>2015-11-22T16:10:13.0000000+00:00</time></trkpt><trkpt lat="30.65753018" lon="35.64362708"><ele>1406.6</ele><time>2015-11-22T16:10:14.0000000+00:00</time></trkpt><trkpt lat="30.65771953" lon="35.64331049"><ele>1403.7</ele><time>2015-11-22T16:10:20.0000000+00:00</time></trkpt><trkpt lat="30.65775122" lon="35.64326037"><ele>1403.2</ele><time>2015-11-22T16:10:21.0000000+00:00</time></trkpt><trkpt lat="30.65777829" lon="35.64320899"><ele>1403.2</ele><time>2015-11-22T16:10:22.0000000+00:00</time></trkpt><trkpt lat="30.65780151" lon="35.64315995"><ele>1403.2</ele><time>2015-11-22T16:10:23.0000000+00:00</time></trkpt><trkpt lat="30.65797996" lon="35.64260733"><ele>1404.6</ele><time>2015-11-22T16:10:37.0000000+00:00</time></trkpt><trkpt lat="30.65804726" lon="35.64229704"><ele>1407.0</ele><time>2015-11-22T16:10:50.0000000+00:00</time></trkpt><trkpt lat="30.65804835" lon="35.64225395"><ele>1407.0</ele><time>2015-11-22T16:10:53.0000000+00:00</time></trkpt><trkpt lat="30.65804408" lon="35.64223995"><ele>1407.5</ele><time>2015-11-22T16:10:54.0000000+00:00</time></trkpt><trkpt lat="30.65803184" lon="35.6421988"><ele>1407.5</ele><time>2015-11-22T16:10:57.0000000+00:00</time></trkpt><trkpt lat="30.65781157" lon="35.64189102"><ele>1407.0</ele><time>2015-11-22T16:11:12.0000000+00:00</time></trkpt><trkpt lat="30.65761845" lon="35.64162682"><ele>1408.5</ele><time>2015-11-22T16:11:25.0000000+00:00</time></trkpt><trkpt lat="30.65761928" lon="35.64161567"><ele>1408.5</ele><time>2015-11-22T16:11:26.0000000+00:00</time></trkpt><trkpt lat="30.65761962" lon="35.64160234"><ele>1408.5</ele><time>2015-11-22T16:11:27.0000000+00:00</time></trkpt><trkpt lat="30.65761744" lon="35.64158876"><ele>1409.0</ele><time>2015-11-22T16:11:28.0000000+00:00</time></trkpt><trkpt lat="30.65761073" lon="35.64157611"><ele>1409.0</ele><time>2015-11-22T16:11:29.0000000+00:00</time></trkpt><trkpt lat="30.65759925" lon="35.64156907"><ele>1409.4</ele><time>2015-11-22T16:11:41.0000000+00:00</time></trkpt><trkpt lat="30.65760017" lon="35.64155918"><ele>1409.4</ele><time>2015-11-22T16:12:10.0000000+00:00</time></trkpt><trkpt lat="30.65759213" lon="35.64155482"><ele>1409.4</ele><time>2015-11-22T16:12:42.0000000+00:00</time></trkpt><trkpt lat="30.657585" lon="35.64152909"><ele>1409.9</ele><time>2015-11-22T16:13:07.0000000+00:00</time></trkpt><trkpt lat="30.65757813" lon="35.64153495"><ele>1409.9</ele><time>2015-11-22T16:13:42.0000000+00:00</time></trkpt><trkpt lat="30.65759003" lon="35.64153328"><ele>1409.9</ele><time>2015-11-22T16:14:18.0000000+00:00</time></trkpt><trkpt lat="30.65759305" lon="35.64151567"><ele>1409.9</ele><time>2015-11-22T16:14:53.0000000+00:00</time></trkpt><trkpt lat="30.65761333" lon="35.64151282"><ele>1410.4</ele><time>2015-11-22T16:15:20.0000000+00:00</time></trkpt><trkpt lat="30.65761048" lon="35.64152624"><ele>1410.4</ele><time>2015-11-22T16:15:57.0000000+00:00</time></trkpt><trkpt lat="30.65763546" lon="35.64151031"><ele>1410.4</ele><time>2015-11-22T16:16:33.0000000+00:00</time></trkpt><trkpt lat="30.65756153" lon="35.6414767"><ele>1410.9</ele><time>2015-11-22T16:16:59.0000000+00:00</time></trkpt><trkpt lat="30.65743731" lon="35.64131971"><ele>1413.3</ele><time>2015-11-22T16:17:11.0000000+00:00</time></trkpt><trkpt lat="30.65740345" lon="35.64127344"><ele>1413.8</ele><time>2015-11-22T16:17:14.0000000+00:00</time></trkpt><trkpt lat="30.6573949" lon="35.64126363"><ele>1414.2</ele><time>2015-11-22T16:17:15.0000000+00:00</time></trkpt><trkpt lat="30.6573861" lon="35.64125064"><ele>1414.2</ele><time>2015-11-22T16:17:16.0000000+00:00</time></trkpt><trkpt lat="30.65733983" lon="35.64119012"><ele>1414.7</ele><time>2015-11-22T16:17:21.0000000+00:00</time></trkpt><trkpt lat="30.65732894" lon="35.64117964"><ele>1414.7</ele><time>2015-11-22T16:17:22.0000000+00:00</time></trkpt><trkpt lat="30.6573208" lon="35.64116422"><ele>1415.2</ele><time>2015-11-22T16:17:23.0000000+00:00</time></trkpt><trkpt lat="30.65731066" lon="35.64114913"><ele>1415.2</ele><time>2015-11-22T16:17:24.0000000+00:00</time></trkpt><trkpt lat="30.65729893" lon="35.64113581"><ele>1415.2</ele><time>2015-11-22T16:17:25.0000000+00:00</time></trkpt><trkpt lat="30.65728636" lon="35.64112541"><ele>1415.2</ele><time>2015-11-22T16:17:26.0000000+00:00</time></trkpt><trkpt lat="30.65714051" lon="35.64091679"><ele>1417.6</ele><time>2015-11-22T16:17:40.0000000+00:00</time></trkpt><trkpt lat="30.65697044" lon="35.64068905"><ele>1419.5</ele><time>2015-11-22T16:17:55.0000000+00:00</time></trkpt><trkpt lat="30.65676886" lon="35.64044623"><ele>1421.9</ele><time>2015-11-22T16:18:14.0000000+00:00</time></trkpt><trkpt lat="30.65659862" lon="35.64022142"><ele>1423.9</ele><time>2015-11-22T16:18:30.0000000+00:00</time></trkpt><trkpt lat="30.65639368" lon="35.63993543"><ele>1426.3</ele><time>2015-11-22T16:18:48.0000000+00:00</time></trkpt><trkpt lat="30.65614021" lon="35.63961114"><ele>1428.7</ele><time>2015-11-22T16:19:09.0000000+00:00</time></trkpt><trkpt lat="30.65591541" lon="35.63940763"><ele>1430.6</ele><time>2015-11-22T16:19:25.0000000+00:00</time></trkpt><trkpt lat="30.65559891" lon="35.63914837"><ele>1433.0</ele><time>2015-11-22T16:19:46.0000000+00:00</time></trkpt><trkpt lat="30.65539498" lon="35.63897017"><ele>1435.4</ele><time>2015-11-22T16:20:01.0000000+00:00</time></trkpt><trkpt lat="30.65538509" lon="35.6389602"><ele>1435.4</ele><time>2015-11-22T16:20:02.0000000+00:00</time></trkpt><trkpt lat="30.65519725" lon="35.63879734"><ele>1437.8</ele><time>2015-11-22T16:20:17.0000000+00:00</time></trkpt><trkpt lat="30.65499801" lon="35.63860414"><ele>1439.7</ele><time>2015-11-22T16:20:33.0000000+00:00</time></trkpt><trkpt lat="30.65477405" lon="35.63839911"><ele>1442.1</ele><time>2015-11-22T16:20:50.0000000+00:00</time></trkpt><trkpt lat="30.6546448" lon="35.63816073"><ele>1443.6</ele><time>2015-11-22T16:21:04.0000000+00:00</time></trkpt><trkpt lat="30.65462929" lon="35.63787156"><ele>1445.5</ele><time>2015-11-22T16:21:19.0000000+00:00</time></trkpt><trkpt lat="30.65464916" lon="35.63755891"><ele>1447.4</ele><time>2015-11-22T16:21:35.0000000+00:00</time></trkpt><trkpt lat="30.65472711" lon="35.63724727"><ele>1448.8</ele><time>2015-11-22T16:21:51.0000000+00:00</time></trkpt><trkpt lat="30.65480699" lon="35.63708198"><ele>1450.3</ele><time>2015-11-22T16:22:00.0000000+00:00</time></trkpt><trkpt lat="30.6548183" lon="35.63706555"><ele>1450.3</ele><time>2015-11-22T16:22:01.0000000+00:00</time></trkpt><trkpt lat="30.65490807" lon="35.63693362"><ele>1451.7</ele><time>2015-11-22T16:22:10.0000000+00:00</time></trkpt><trkpt lat="30.65491612" lon="35.63691879"><ele>1451.7</ele><time>2015-11-22T16:22:11.0000000+00:00</time></trkpt><trkpt lat="30.65492584" lon="35.63690471"><ele>1451.7</ele><time>2015-11-22T16:22:12.0000000+00:00</time></trkpt><trkpt lat="30.65493557" lon="35.63689196"><ele>1451.7</ele><time>2015-11-22T16:22:13.0000000+00:00</time></trkpt><trkpt lat="30.65494403" lon="35.6368783"><ele>1451.7</ele><time>2015-11-22T16:22:14.0000000+00:00</time></trkpt><trkpt lat="30.65494998" lon="35.63686179"><ele>1451.7</ele><time>2015-11-22T16:22:15.0000000+00:00</time></trkpt><trkpt lat="30.65495526" lon="35.63684536"><ele>1451.7</ele><time>2015-11-22T16:22:16.0000000+00:00</time></trkpt><trkpt lat="30.65496088" lon="35.63682835"><ele>1452.2</ele><time>2015-11-22T16:22:17.0000000+00:00</time></trkpt><trkpt lat="30.65506532" lon="35.63661679"><ele>1454.1</ele><time>2015-11-22T16:22:31.0000000+00:00</time></trkpt><trkpt lat="30.65511452" lon="35.63639265"><ele>1456.5</ele><time>2015-11-22T16:22:45.0000000+00:00</time></trkpt><trkpt lat="30.65511611" lon="35.63637874"><ele>1457.0</ele><time>2015-11-22T16:22:46.0000000+00:00</time></trkpt><trkpt lat="30.65512014" lon="35.63636315"><ele>1457.0</ele><time>2015-11-22T16:22:47.0000000+00:00</time></trkpt><trkpt lat="30.65512441" lon="35.63634714"><ele>1457.5</ele><time>2015-11-22T16:22:48.0000000+00:00</time></trkpt><trkpt lat="30.65512894" lon="35.63633063"><ele>1457.5</ele><time>2015-11-22T16:22:49.0000000+00:00</time></trkpt><trkpt lat="30.65513304" lon="35.63631236"><ele>1457.5</ele><time>2015-11-22T16:22:50.0000000+00:00</time></trkpt><trkpt lat="30.65517244" lon="35.63599493"><ele>1460.4</ele><time>2015-11-22T16:23:08.0000000+00:00</time></trkpt><trkpt lat="30.65519205" lon="35.63586703"><ele>1462.8</ele><time>2015-11-22T16:23:16.0000000+00:00</time></trkpt><trkpt lat="30.65518375" lon="35.63584984"><ele>1462.3</ele><time>2015-11-22T16:23:17.0000000+00:00</time></trkpt><trkpt lat="30.65502014" lon="35.6356553"><ele>1462.8</ele><time>2015-11-22T16:23:31.0000000+00:00</time></trkpt><trkpt lat="30.65474706" lon="35.63553946"><ele>1462.3</ele><time>2015-11-22T16:23:43.0000000+00:00</time></trkpt><trkpt lat="30.65437591" lon="35.6354491"><ele>1458.9</ele><time>2015-11-22T16:23:52.0000000+00:00</time></trkpt><trkpt lat="30.6542739" lon="35.63542463"><ele>1457.5</ele><time>2015-11-22T16:23:57.0000000+00:00</time></trkpt><trkpt lat="30.65426158" lon="35.6354103"><ele>1457.5</ele><time>2015-11-22T16:23:58.0000000+00:00</time></trkpt><trkpt lat="30.65425395" lon="35.63539102"><ele>1457.0</ele><time>2015-11-22T16:23:59.0000000+00:00</time></trkpt><trkpt lat="30.65425253" lon="35.6353657"><ele>1457.0</ele><time>2015-11-22T16:24:00.0000000+00:00</time></trkpt><trkpt lat="30.65425839" lon="35.63534282"><ele>1457.0</ele><time>2015-11-22T16:24:01.0000000+00:00</time></trkpt><trkpt lat="30.65426895" lon="35.63532564"><ele>1457.0</ele><time>2015-11-22T16:24:02.0000000+00:00</time></trkpt><trkpt lat="30.65427868" lon="35.63530938"><ele>1457.0</ele><time>2015-11-22T16:24:03.0000000+00:00</time></trkpt><trkpt lat="30.65428832" lon="35.63528985"><ele>1457.0</ele><time>2015-11-22T16:24:04.0000000+00:00</time></trkpt><trkpt lat="30.65429955" lon="35.63526697"><ele>1457.0</ele><time>2015-11-22T16:24:05.0000000+00:00</time></trkpt><trkpt lat="30.65444481" lon="35.63500704"><ele>1458.0</ele><time>2015-11-22T16:24:17.0000000+00:00</time></trkpt><trkpt lat="30.65450842" lon="35.63486765"><ele>1458.5</ele><time>2015-11-22T16:24:25.0000000+00:00</time></trkpt><trkpt lat="30.65451614" lon="35.63485659"><ele>1458.5</ele><time>2015-11-22T16:24:26.0000000+00:00</time></trkpt><trkpt lat="30.65451873" lon="35.6348446"><ele>1458.5</ele><time>2015-11-22T16:24:27.0000000+00:00</time></trkpt><trkpt lat="30.65452217" lon="35.63483236"><ele>1458.9</ele><time>2015-11-22T16:24:28.0000000+00:00</time></trkpt><trkpt lat="30.65452955" lon="35.63481946"><ele>1458.9</ele><time>2015-11-22T16:24:29.0000000+00:00</time></trkpt><trkpt lat="30.65454053" lon="35.63475978"><ele>1459.9</ele><time>2015-11-22T16:24:42.0000000+00:00</time></trkpt><trkpt lat="30.65457531" lon="35.63470588"><ele>1459.9</ele><time>2015-11-22T16:25:11.0000000+00:00</time></trkpt><trkpt lat="30.65460415" lon="35.6346799"><ele>1459.9</ele><time>2015-11-22T16:25:14.0000000+00:00</time></trkpt><trkpt lat="30.65462007" lon="35.63467202"><ele>1459.9</ele><time>2015-11-22T16:25:15.0000000+00:00</time></trkpt><trkpt lat="30.65463591" lon="35.63466238"><ele>1460.4</ele><time>2015-11-22T16:25:16.0000000+00:00</time></trkpt><trkpt lat="30.65464673" lon="35.63465215"><ele>1460.4</ele><time>2015-11-22T16:25:17.0000000+00:00</time></trkpt><trkpt lat="30.65465352" lon="35.63463983"><ele>1460.4</ele><time>2015-11-22T16:25:18.0000000+00:00</time></trkpt><trkpt lat="30.65466383" lon="35.6346286"><ele>1460.9</ele><time>2015-11-22T16:25:19.0000000+00:00</time></trkpt><trkpt lat="30.65467439" lon="35.63461871"><ele>1460.4</ele><time>2015-11-22T16:25:20.0000000+00:00</time></trkpt><trkpt lat="30.65468126" lon="35.6346058"><ele>1460.9</ele><time>2015-11-22T16:25:21.0000000+00:00</time></trkpt><trkpt lat="30.65468822" lon="35.63459147"><ele>1460.9</ele><time>2015-11-22T16:25:22.0000000+00:00</time></trkpt><trkpt lat="30.65469626" lon="35.63457822"><ele>1460.9</ele><time>2015-11-22T16:25:23.0000000+00:00</time></trkpt><trkpt lat="30.65470406" lon="35.6345649"><ele>1461.3</ele><time>2015-11-22T16:25:24.0000000+00:00</time></trkpt><trkpt lat="30.65471143" lon="35.63455199"><ele>1461.3</ele><time>2015-11-22T16:25:25.0000000+00:00</time></trkpt><trkpt lat="30.65471688" lon="35.63453925"><ele>1461.3</ele><time>2015-11-22T16:25:26.0000000+00:00</time></trkpt><trkpt lat="30.65472342" lon="35.63452651"><ele>1461.3</ele><time>2015-11-22T16:25:27.0000000+00:00</time></trkpt><trkpt lat="30.65473172" lon="35.63451201"><ele>1461.8</ele><time>2015-11-22T16:25:28.0000000+00:00</time></trkpt><trkpt lat="30.65474194" lon="35.63449818"><ele>1461.3</ele><time>2015-11-22T16:25:29.0000000+00:00</time></trkpt><trkpt lat="30.65476717" lon="35.63444143"><ele>1461.8</ele><time>2015-11-22T16:25:33.0000000+00:00</time></trkpt><trkpt lat="30.65477715" lon="35.63442693"><ele>1461.8</ele><time>2015-11-22T16:25:34.0000000+00:00</time></trkpt><trkpt lat="30.65492224" lon="35.63420322"><ele>1463.3</ele><time>2015-11-22T16:25:50.0000000+00:00</time></trkpt><trkpt lat="30.65504747" lon="35.63396232"><ele>1464.7</ele><time>2015-11-22T16:26:05.0000000+00:00</time></trkpt><trkpt lat="30.65505048" lon="35.6339469"><ele>1464.7</ele><time>2015-11-22T16:26:06.0000000+00:00</time></trkpt><trkpt lat="30.65505585" lon="35.63393047"><ele>1465.2</ele><time>2015-11-22T16:26:07.0000000+00:00</time></trkpt><trkpt lat="30.65506347" lon="35.63391488"><ele>1465.2</ele><time>2015-11-22T16:26:08.0000000+00:00</time></trkpt><trkpt lat="30.65507068" lon="35.63389912"><ele>1465.2</ele><time>2015-11-22T16:26:09.0000000+00:00</time></trkpt><trkpt lat="30.65507806" lon="35.63388546"><ele>1465.7</ele><time>2015-11-22T16:26:10.0000000+00:00</time></trkpt><trkpt lat="30.65508711" lon="35.63387238"><ele>1465.7</ele><time>2015-11-22T16:26:11.0000000+00:00</time></trkpt><trkpt lat="30.65511972" lon="35.63381312"><ele>1465.7</ele><time>2015-11-22T16:26:15.0000000+00:00</time></trkpt><trkpt lat="30.65512994" lon="35.63379913"><ele>1466.2</ele><time>2015-11-22T16:26:16.0000000+00:00</time></trkpt><trkpt lat="30.65513782" lon="35.63378504"><ele>1466.2</ele><time>2015-11-22T16:26:17.0000000+00:00</time></trkpt><trkpt lat="30.65514419" lon="35.63377004"><ele>1466.6</ele><time>2015-11-22T16:26:18.0000000+00:00</time></trkpt><trkpt lat="30.65515182" lon="35.63375671"><ele>1466.2</ele><time>2015-11-22T16:26:19.0000000+00:00</time></trkpt><trkpt lat="30.65515953" lon="35.63374339"><ele>1466.6</ele><time>2015-11-22T16:26:20.0000000+00:00</time></trkpt><trkpt lat="30.65529238" lon="35.63353074"><ele>1469.0</ele><time>2015-11-22T16:26:36.0000000+00:00</time></trkpt><trkpt lat="30.65540914" lon="35.63329998"><ele>1471.4</ele><time>2015-11-22T16:26:52.0000000+00:00</time></trkpt><trkpt lat="30.65542415" lon="35.63326679"><ele>1471.9</ele><time>2015-11-22T16:26:54.0000000+00:00</time></trkpt><trkpt lat="30.65539531" lon="35.63299513"><ele>1473.4</ele><time>2015-11-22T16:27:09.0000000+00:00</time></trkpt><trkpt lat="30.65520077" lon="35.63259959"><ele>1472.9</ele><time>2015-11-22T16:27:26.0000000+00:00</time></trkpt><trkpt lat="30.65503154" lon="35.63235727"><ele>1472.4</ele><time>2015-11-22T16:27:33.0000000+00:00</time></trkpt><trkpt lat="30.65503146" lon="35.63232752"><ele>1472.4</ele><time>2015-11-22T16:27:34.0000000+00:00</time></trkpt><trkpt lat="30.65506498" lon="35.63214831"><ele>1473.8</ele><time>2015-11-22T16:27:45.0000000+00:00</time></trkpt><trkpt lat="30.65508887" lon="35.63207237"><ele>1474.3</ele><time>2015-11-22T16:27:50.0000000+00:00</time></trkpt><trkpt lat="30.65516221" lon="35.63178688"><ele>1476.7</ele><time>2015-11-22T16:28:08.0000000+00:00</time></trkpt><trkpt lat="30.65516397" lon="35.6317702"><ele>1477.2</ele><time>2015-11-22T16:28:09.0000000+00:00</time></trkpt><trkpt lat="30.65520479" lon="35.63159318"><ele>1479.1</ele><time>2015-11-22T16:28:20.0000000+00:00</time></trkpt><trkpt lat="30.65521468" lon="35.63157993"><ele>1479.1</ele><time>2015-11-22T16:28:21.0000000+00:00</time></trkpt><trkpt lat="30.65522038" lon="35.63156468"><ele>1479.1</ele><time>2015-11-22T16:28:22.0000000+00:00</time></trkpt><trkpt lat="30.655226" lon="35.63154875"><ele>1479.6</ele><time>2015-11-22T16:28:23.0000000+00:00</time></trkpt><trkpt lat="30.6552317" lon="35.63153367"><ele>1479.6</ele><time>2015-11-22T16:28:24.0000000+00:00</time></trkpt><trkpt lat="30.65523773" lon="35.63151858"><ele>1479.6</ele><time>2015-11-22T16:28:25.0000000+00:00</time></trkpt><trkpt lat="30.65529875" lon="35.63136837"><ele>1481.1</ele><time>2015-11-22T16:28:36.0000000+00:00</time></trkpt><trkpt lat="30.65530655" lon="35.63135798"><ele>1481.5</ele><time>2015-11-22T16:28:37.0000000+00:00</time></trkpt><trkpt lat="30.65539246" lon="35.63109236"><ele>1483.5</ele><time>2015-11-22T16:28:55.0000000+00:00</time></trkpt><trkpt lat="30.65542281" lon="35.63091986"><ele>1485.4</ele><time>2015-11-22T16:29:06.0000000+00:00</time></trkpt><trkpt lat="30.65542834" lon="35.63090494"><ele>1485.9</ele><time>2015-11-22T16:29:07.0000000+00:00</time></trkpt><trkpt lat="30.65545684" lon="35.63076546"><ele>1486.8</ele><time>2015-11-22T16:29:16.0000000+00:00</time></trkpt><trkpt lat="30.65552498" lon="35.63051283"><ele>1489.2</ele><time>2015-11-22T16:29:33.0000000+00:00</time></trkpt><trkpt lat="30.65554367" lon="35.63043874"><ele>1489.7</ele><time>2015-11-22T16:29:38.0000000+00:00</time></trkpt><trkpt lat="30.65554862" lon="35.63042382"><ele>1489.7</ele><time>2015-11-22T16:29:39.0000000+00:00</time></trkpt><trkpt lat="30.65555139" lon="35.6304089"><ele>1489.7</ele><time>2015-11-22T16:29:40.0000000+00:00</time></trkpt><trkpt lat="30.65555348" lon="35.63039448"><ele>1489.7</ele><time>2015-11-22T16:29:41.0000000+00:00</time></trkpt><trkpt lat="30.65555742" lon="35.63038006"><ele>1489.7</ele><time>2015-11-22T16:29:42.0000000+00:00</time></trkpt><trkpt lat="30.65556304" lon="35.63036489"><ele>1490.2</ele><time>2015-11-22T16:29:43.0000000+00:00</time></trkpt><trkpt lat="30.65556689" lon="35.63034914"><ele>1490.2</ele><time>2015-11-22T16:29:44.0000000+00:00</time></trkpt><trkpt lat="30.65556899" lon="35.63033271"><ele>1490.2</ele><time>2015-11-22T16:29:45.0000000+00:00</time></trkpt><trkpt lat="30.65557251" lon="35.63031686"><ele>1490.2</ele><time>2015-11-22T16:29:46.0000000+00:00</time></trkpt><trkpt lat="30.65557536" lon="35.63030094"><ele>1490.2</ele><time>2015-11-22T16:29:47.0000000+00:00</time></trkpt><trkpt lat="30.65557787" lon="35.63028543"><ele>1490.7</ele><time>2015-11-22T16:29:48.0000000+00:00</time></trkpt><trkpt lat="30.65557946" lon="35.6302706"><ele>1490.7</ele><time>2015-11-22T16:29:49.0000000+00:00</time></trkpt><trkpt lat="30.65558148" lon="35.63025459"><ele>1491.1</ele><time>2015-11-22T16:29:50.0000000+00:00</time></trkpt><trkpt lat="30.6556513" lon="35.62999056"><ele>1493.1</ele><time>2015-11-22T16:30:08.0000000+00:00</time></trkpt><trkpt lat="30.65566697" lon="35.62993784"><ele>1493.6</ele><time>2015-11-22T16:30:11.0000000+00:00</time></trkpt><trkpt lat="30.65570268" lon="35.62982753"><ele>1493.6</ele><time>2015-11-22T16:30:18.0000000+00:00</time></trkpt><trkpt lat="30.65570922" lon="35.62981077"><ele>1494.0</ele><time>2015-11-22T16:30:19.0000000+00:00</time></trkpt><trkpt lat="30.65571089" lon="35.62979308"><ele>1494.0</ele><time>2015-11-22T16:30:20.0000000+00:00</time></trkpt><trkpt lat="30.65571508" lon="35.62977497"><ele>1494.0</ele><time>2015-11-22T16:30:21.0000000+00:00</time></trkpt><trkpt lat="30.65572053" lon="35.62975679"><ele>1494.0</ele><time>2015-11-22T16:30:22.0000000+00:00</time></trkpt><trkpt lat="30.65572187" lon="35.62974053"><ele>1494.0</ele><time>2015-11-22T16:30:23.0000000+00:00</time></trkpt><trkpt lat="30.65572489" lon="35.62972535"><ele>1494.0</ele><time>2015-11-22T16:30:24.0000000+00:00</time></trkpt><trkpt lat="30.65578918" lon="35.629463"><ele>1495.5</ele><time>2015-11-22T16:30:39.0000000+00:00</time></trkpt><trkpt lat="30.65587342" lon="35.62918581"><ele>1495.5</ele><time>2015-11-22T16:30:53.0000000+00:00</time></trkpt><trkpt lat="30.65593469" lon="35.62902857"><ele>1496.0</ele><time>2015-11-22T16:31:02.0000000+00:00</time></trkpt><trkpt lat="30.65607836" lon="35.62870142"><ele>1496.9</ele><time>2015-11-22T16:31:17.0000000+00:00</time></trkpt><trkpt lat="30.65623602" lon="35.62843136"><ele>1497.9</ele><time>2015-11-22T16:31:31.0000000+00:00</time></trkpt><trkpt lat="30.65624893" lon="35.62842029"><ele>1497.9</ele><time>2015-11-22T16:31:32.0000000+00:00</time></trkpt><trkpt lat="30.6562724" lon="35.62839498"><ele>1498.4</ele><time>2015-11-22T16:31:34.0000000+00:00</time></trkpt><trkpt lat="30.6562853" lon="35.62839171"><ele>1497.9</ele><time>2015-11-22T16:31:35.0000000+00:00</time></trkpt><trkpt lat="30.65629494" lon="35.62839422"><ele>1498.4</ele><time>2015-11-22T16:31:36.0000000+00:00</time></trkpt><trkpt lat="30.65630374" lon="35.62839665"><ele>1498.4</ele><time>2015-11-22T16:31:37.0000000+00:00</time></trkpt><trkpt lat="30.65633048" lon="35.62841342"><ele>1498.4</ele><time>2015-11-22T16:31:50.0000000+00:00</time></trkpt><trkpt lat="30.65630274" lon="35.62845214"><ele>1498.8</ele><time>2015-11-22T16:32:27.0000000+00:00</time></trkpt><trkpt lat="30.6562967" lon="35.62849087"><ele>1498.4</ele><time>2015-11-22T16:33:03.0000000+00:00</time></trkpt><trkpt lat="30.65633141" lon="35.62846874"><ele>1498.4</ele><time>2015-11-22T16:33:38.0000000+00:00</time></trkpt><trkpt lat="30.65632654" lon="35.62846312"><ele>1498.4</ele><time>2015-11-22T16:34:17.0000000+00:00</time></trkpt><trkpt lat="30.6563309" lon="35.62846966"><ele>1497.9</ele><time>2015-11-22T16:34:59.0000000+00:00</time></trkpt><trkpt lat="30.65631774" lon="35.62840177"><ele>1497.9</ele><time>2015-11-22T16:35:10.0000000+00:00</time></trkpt><trkpt lat="30.65631288" lon="35.62834184"><ele>1497.4</ele><time>2015-11-22T16:35:16.0000000+00:00</time></trkpt><trkpt lat="30.6563133" lon="35.62832776"><ele>1497.4</ele><time>2015-11-22T16:35:17.0000000+00:00</time></trkpt><trkpt lat="30.65631917" lon="35.62830873"><ele>1497.9</ele><time>2015-11-22T16:35:18.0000000+00:00</time></trkpt><trkpt lat="30.65632763" lon="35.62828761"><ele>1498.4</ele><time>2015-11-22T16:35:19.0000000+00:00</time></trkpt><trkpt lat="30.65633258" lon="35.62826975"><ele>1498.4</ele><time>2015-11-22T16:35:20.0000000+00:00</time></trkpt><trkpt lat="30.65633744" lon="35.62825425"><ele>1497.9</ele><time>2015-11-22T16:35:21.0000000+00:00</time></trkpt><trkpt lat="30.65634532" lon="35.62823639"><ele>1498.8</ele><time>2015-11-22T16:35:22.0000000+00:00</time></trkpt><trkpt lat="30.65635781" lon="35.62821787"><ele>1498.4</ele><time>2015-11-22T16:35:23.0000000+00:00</time></trkpt><trkpt lat="30.65636971" lon="35.62819901"><ele>1498.8</ele><time>2015-11-22T16:35:24.0000000+00:00</time></trkpt><trkpt lat="30.65638077" lon="35.62817923"><ele>1498.8</ele><time>2015-11-22T16:35:25.0000000+00:00</time></trkpt><trkpt lat="30.65639226" lon="35.62815953"><ele>1499.3</ele><time>2015-11-22T16:35:26.0000000+00:00</time></trkpt><trkpt lat="30.65640315" lon="35.62813916"><ele>1499.3</ele><time>2015-11-22T16:35:27.0000000+00:00</time></trkpt><trkpt lat="30.65641413" lon="35.62811947"><ele>1499.3</ele><time>2015-11-22T16:35:28.0000000+00:00</time></trkpt><trkpt lat="30.65642553" lon="35.62809968"><ele>1499.8</ele><time>2015-11-22T16:35:29.0000000+00:00</time></trkpt><trkpt lat="30.65660214" lon="35.62779341"><ele>1501.7</ele><time>2015-11-22T16:35:46.0000000+00:00</time></trkpt><trkpt lat="30.65673659" lon="35.62755855"><ele>1504.1</ele><time>2015-11-22T16:36:03.0000000+00:00</time></trkpt><trkpt lat="30.65686164" lon="35.62733391"><ele>1507.0</ele><time>2015-11-22T16:36:19.0000000+00:00</time></trkpt><trkpt lat="30.65690917" lon="35.62725177"><ele>1508.0</ele><time>2015-11-22T16:36:25.0000000+00:00</time></trkpt><trkpt lat="30.65691722" lon="35.62723962"><ele>1508.0</ele><time>2015-11-22T16:36:26.0000000+00:00</time></trkpt><trkpt lat="30.656923" lon="35.62722604"><ele>1508.0</ele><time>2015-11-22T16:36:27.0000000+00:00</time></trkpt><trkpt lat="30.65693113" lon="35.62721305"><ele>1508.0</ele><time>2015-11-22T16:36:28.0000000+00:00</time></trkpt><trkpt lat="30.6569411" lon="35.62719838"><ele>1508.0</ele><time>2015-11-22T16:36:29.0000000+00:00</time></trkpt><trkpt lat="30.65695116" lon="35.62718421"><ele>1508.0</ele><time>2015-11-22T16:36:30.0000000+00:00</time></trkpt><trkpt lat="30.65696206" lon="35.62716954"><ele>1508.0</ele><time>2015-11-22T16:36:31.0000000+00:00</time></trkpt><trkpt lat="30.65697027" lon="35.62715504"><ele>1508.5</ele><time>2015-11-22T16:36:32.0000000+00:00</time></trkpt><trkpt lat="30.65711335" lon="35.6268973"><ele>1510.9</ele><time>2015-11-22T16:36:49.0000000+00:00</time></trkpt><trkpt lat="30.65712274" lon="35.62688255"><ele>1510.9</ele><time>2015-11-22T16:36:50.0000000+00:00</time></trkpt><trkpt lat="30.65726775" lon="35.62663109"><ele>1513.3</ele><time>2015-11-22T16:37:06.0000000+00:00</time></trkpt><trkpt lat="30.65740538" lon="35.62638223"><ele>1514.2</ele><time>2015-11-22T16:37:22.0000000+00:00</time></trkpt><trkpt lat="30.65756363" lon="35.6261006"><ele>1516.1</ele><time>2015-11-22T16:37:40.0000000+00:00</time></trkpt><trkpt lat="30.65770394" lon="35.62585652"><ele>1518.1</ele><time>2015-11-22T16:37:55.0000000+00:00</time></trkpt><trkpt lat="30.65785054" lon="35.62560179"><ele>1520.5</ele><time>2015-11-22T16:38:11.0000000+00:00</time></trkpt><trkpt lat="30.65797258" lon="35.62538135"><ele>1522.9</ele><time>2015-11-22T16:38:27.0000000+00:00</time></trkpt><trkpt lat="30.65806772" lon="35.6251868"><ele>1525.8</ele><time>2015-11-22T16:38:41.0000000+00:00</time></trkpt><trkpt lat="30.65812723" lon="35.62507574"><ele>1527.7</ele><time>2015-11-22T16:38:50.0000000+00:00</time></trkpt><trkpt lat="30.65822597" lon="35.62488816"><ele>1530.1</ele><time>2015-11-22T16:39:03.0000000+00:00</time></trkpt><trkpt lat="30.65833828" lon="35.62469546"><ele>1532.5</ele><time>2015-11-22T16:39:17.0000000+00:00</time></trkpt><trkpt lat="30.65843493" lon="35.62452455"><ele>1534.9</ele><time>2015-11-22T16:39:31.0000000+00:00</time></trkpt><trkpt lat="30.65857373" lon="35.62432263"><ele>1537.8</ele><time>2015-11-22T16:39:47.0000000+00:00</time></trkpt><trkpt lat="30.65867264" lon="35.62418642"><ele>1540.2</ele><time>2015-11-22T16:39:59.0000000+00:00</time></trkpt><trkpt lat="30.65867918" lon="35.6241741"><ele>1540.2</ele><time>2015-11-22T16:40:00.0000000+00:00</time></trkpt><trkpt lat="30.65868714" lon="35.62416128"><ele>1540.2</ele><time>2015-11-22T16:40:01.0000000+00:00</time></trkpt><trkpt lat="30.65880122" lon="35.62397"><ele>1542.6</ele><time>2015-11-22T16:40:17.0000000+00:00</time></trkpt><trkpt lat="30.6588681" lon="35.62386389"><ele>1543.5</ele><time>2015-11-22T16:40:26.0000000+00:00</time></trkpt><trkpt lat="30.65887875" lon="35.62385341"><ele>1543.5</ele><time>2015-11-22T16:40:27.0000000+00:00</time></trkpt><trkpt lat="30.65888747" lon="35.62384109"><ele>1543.5</ele><time>2015-11-22T16:40:28.0000000+00:00</time></trkpt><trkpt lat="30.65901688" lon="35.62363825"><ele>1545.5</ele><time>2015-11-22T16:40:44.0000000+00:00</time></trkpt><trkpt lat="30.65914705" lon="35.62343691"><ele>1547.9</ele><time>2015-11-22T16:41:00.0000000+00:00</time></trkpt><trkpt lat="30.65923003" lon="35.62331278"><ele>1548.8</ele><time>2015-11-22T16:41:10.0000000+00:00</time></trkpt><trkpt lat="30.65922392" lon="35.62330498"><ele>1549.3</ele><time>2015-11-22T16:41:11.0000000+00:00</time></trkpt><trkpt lat="30.65922165" lon="35.62329467"><ele>1549.3</ele><time>2015-11-22T16:41:12.0000000+00:00</time></trkpt><trkpt lat="30.6592204" lon="35.62328395"><ele>1549.3</ele><time>2015-11-22T16:41:13.0000000+00:00</time></trkpt><trkpt lat="30.65921905" lon="35.62327389"><ele>1549.3</ele><time>2015-11-22T16:41:14.0000000+00:00</time></trkpt><trkpt lat="30.65921989" lon="35.62326391"><ele>1549.8</ele><time>2015-11-22T16:41:15.0000000+00:00</time></trkpt><trkpt lat="30.65922157" lon="35.62325343"><ele>1549.8</ele><time>2015-11-22T16:41:16.0000000+00:00</time></trkpt><trkpt lat="30.65925074" lon="35.62314623"><ele>1551.2</ele><time>2015-11-22T16:41:26.0000000+00:00</time></trkpt><trkpt lat="30.65925049" lon="35.62313508"><ele>1551.2</ele><time>2015-11-22T16:41:27.0000000+00:00</time></trkpt><trkpt lat="30.65925091" lon="35.62312461"><ele>1551.2</ele><time>2015-11-22T16:41:28.0000000+00:00</time></trkpt><trkpt lat="30.65924454" lon="35.62303802"><ele>1551.2</ele><time>2015-11-22T16:41:39.0000000+00:00</time></trkpt><trkpt lat="30.65928468" lon="35.62297599"><ele>1551.2</ele><time>2015-11-22T16:42:08.0000000+00:00</time></trkpt><trkpt lat="30.65928234" lon="35.62293811"><ele>1551.2</ele><time>2015-11-22T16:42:16.0000000+00:00</time></trkpt><trkpt lat="30.65928225" lon="35.62292436"><ele>1551.2</ele><time>2015-11-22T16:42:17.0000000+00:00</time></trkpt><trkpt lat="30.65928318" lon="35.62290559"><ele>1551.2</ele><time>2015-11-22T16:42:18.0000000+00:00</time></trkpt><trkpt lat="30.65928309" lon="35.62288337"><ele>1551.2</ele><time>2015-11-22T16:42:19.0000000+00:00</time></trkpt><trkpt lat="30.65928259" lon="35.62285697"><ele>1551.2</ele><time>2015-11-22T16:42:20.0000000+00:00</time></trkpt><trkpt lat="30.65934914" lon="35.62226655"><ele>1547.9</ele><time>2015-11-22T16:42:32.0000000+00:00</time></trkpt><trkpt lat="30.6594804" lon="35.62188559"><ele>1545.0</ele><time>2015-11-22T16:42:37.0000000+00:00</time></trkpt><trkpt lat="30.65964351" lon="35.62150413"><ele>1541.6</ele><time>2015-11-22T16:42:41.0000000+00:00</time></trkpt><trkpt lat="30.65978467" lon="35.62120238"><ele>1537.8</ele><time>2015-11-22T16:42:44.0000000+00:00</time></trkpt><trkpt lat="30.65992414" lon="35.62093165"><ele>1534.4</ele><time>2015-11-22T16:42:47.0000000+00:00</time></trkpt><trkpt lat="30.66007745" lon="35.62060408"><ele>1530.6</ele><time>2015-11-22T16:42:51.0000000+00:00</time></trkpt><trkpt lat="30.66018951" lon="35.62027928"><ele>1527.2</ele><time>2015-11-22T16:42:54.0000000+00:00</time></trkpt><trkpt lat="30.66027325" lon="35.61990319"><ele>1523.8</ele><time>2015-11-22T16:42:57.0000000+00:00</time></trkpt><trkpt lat="30.66031935" lon="35.61963547"><ele>1520.0</ele><time>2015-11-22T16:42:59.0000000+00:00</time></trkpt><trkpt lat="30.66037131" lon="35.61935518"><ele>1516.6</ele><time>2015-11-22T16:43:01.0000000+00:00</time></trkpt><trkpt lat="30.66043284" lon="35.61905745"><ele>1512.3</ele><time>2015-11-22T16:43:03.0000000+00:00</time></trkpt><trkpt lat="30.66049939" lon="35.61875286"><ele>1508.0</ele><time>2015-11-22T16:43:05.0000000+00:00</time></trkpt><trkpt lat="30.66059226" lon="35.61843191"><ele>1503.6</ele><time>2015-11-22T16:43:07.0000000+00:00</time></trkpt><trkpt lat="30.66071573" lon="35.61811742"><ele>1499.8</ele><time>2015-11-22T16:43:09.0000000+00:00</time></trkpt><trkpt lat="30.66085973" lon="35.61781777"><ele>1496.0</ele><time>2015-11-22T16:43:11.0000000+00:00</time></trkpt><trkpt lat="30.66106182" lon="35.61745768"><ele>1493.1</ele><time>2015-11-22T16:43:14.0000000+00:00</time></trkpt><trkpt lat="30.66112862" lon="35.61738024"><ele>1492.1</ele><time>2015-11-22T16:43:15.0000000+00:00</time></trkpt><trkpt lat="30.66120381" lon="35.61732232"><ele>1491.6</ele><time>2015-11-22T16:43:16.0000000+00:00</time></trkpt><trkpt lat="30.66128477" lon="35.61728493"><ele>1490.7</ele><time>2015-11-22T16:43:17.0000000+00:00</time></trkpt><trkpt lat="30.66136734" lon="35.61726674"><ele>1490.2</ele><time>2015-11-22T16:43:18.0000000+00:00</time></trkpt><trkpt lat="30.66145015" lon="35.61726272"><ele>1490.2</ele><time>2015-11-22T16:43:19.0000000+00:00</time></trkpt><trkpt lat="30.66153254" lon="35.61726574"><ele>1489.7</ele><time>2015-11-22T16:43:20.0000000+00:00</time></trkpt><trkpt lat="30.66161469" lon="35.61727295"><ele>1489.2</ele><time>2015-11-22T16:43:21.0000000+00:00</time></trkpt><trkpt lat="30.66169574" lon="35.61729181"><ele>1489.2</ele><time>2015-11-22T16:43:22.0000000+00:00</time></trkpt><trkpt lat="30.66177503" lon="35.61731938"><ele>1488.7</ele><time>2015-11-22T16:43:23.0000000+00:00</time></trkpt><trkpt lat="30.66215968" lon="35.61747797"><ele>1485.9</ele><time>2015-11-22T16:43:28.0000000+00:00</time></trkpt><trkpt lat="30.66223838" lon="35.61749993"><ele>1485.4</ele><time>2015-11-22T16:43:29.0000000+00:00</time></trkpt><trkpt lat="30.66231868" lon="35.61751443"><ele>1485.4</ele><time>2015-11-22T16:43:30.0000000+00:00</time></trkpt><trkpt lat="30.66240057" lon="35.61751954"><ele>1484.4</ele><time>2015-11-22T16:43:31.0000000+00:00</time></trkpt><trkpt lat="30.66248355" lon="35.6175187"><ele>1484.4</ele><time>2015-11-22T16:43:32.0000000+00:00</time></trkpt><trkpt lat="30.66256654" lon="35.61751175"><ele>1483.9</ele><time>2015-11-22T16:43:33.0000000+00:00</time></trkpt><trkpt lat="30.66265035" lon="35.61750035"><ele>1483.5</ele><time>2015-11-22T16:43:34.0000000+00:00</time></trkpt><trkpt lat="30.66308638" lon="35.61733405"><ele>1480.6</ele><time>2015-11-22T16:43:39.0000000+00:00</time></trkpt><trkpt lat="30.66332954" lon="35.61716348"><ele>1477.2</ele><time>2015-11-22T16:43:42.0000000+00:00</time></trkpt><trkpt lat="30.6635468" lon="35.61699123"><ele>1475.8</ele><time>2015-11-22T16:43:45.0000000+00:00</time></trkpt><trkpt lat="30.66362031" lon="35.61694907"><ele>1474.8</ele><time>2015-11-22T16:43:46.0000000+00:00</time></trkpt><trkpt lat="30.66390655" lon="35.61681689"><ele>1471.0</ele><time>2015-11-22T16:43:50.0000000+00:00</time></trkpt><trkpt lat="30.66413764" lon="35.61671882"><ele>1467.6</ele><time>2015-11-22T16:43:53.0000000+00:00</time></trkpt><trkpt lat="30.66444878" lon="35.61659192"><ele>1464.2</ele><time>2015-11-22T16:43:57.0000000+00:00</time></trkpt><trkpt lat="30.66467073" lon="35.61655294"><ele>1460.9</ele><time>2015-11-22T16:44:00.0000000+00:00</time></trkpt><trkpt lat="30.66473535" lon="35.6165547"><ele>1460.4</ele><time>2015-11-22T16:44:01.0000000+00:00</time></trkpt><trkpt lat="30.66490727" lon="35.61657524"><ele>1457.0</ele><time>2015-11-22T16:44:04.0000000+00:00</time></trkpt><trkpt lat="30.66509963" lon="35.61660156"><ele>1453.7</ele><time>2015-11-22T16:44:08.0000000+00:00</time></trkpt><trkpt lat="30.66529878" lon="35.61659032"><ele>1448.8</ele><time>2015-11-22T16:44:12.0000000+00:00</time></trkpt><trkpt lat="30.66547447" lon="35.61654288"><ele>1445.5</ele><time>2015-11-22T16:44:15.0000000+00:00</time></trkpt><trkpt lat="30.66554018" lon="35.61651028"><ele>1444.0</ele><time>2015-11-22T16:44:16.0000000+00:00</time></trkpt><trkpt lat="30.66560598" lon="35.61646594"><ele>1442.6</ele><time>2015-11-22T16:44:17.0000000+00:00</time></trkpt><trkpt lat="30.66573464" lon="35.61635169"><ele>1439.2</ele><time>2015-11-22T16:44:19.0000000+00:00</time></trkpt><trkpt lat="30.66585794" lon="35.61621674"><ele>1435.9</ele><time>2015-11-22T16:44:21.0000000+00:00</time></trkpt><trkpt lat="30.66601426" lon="35.61601323"><ele>1432.0</ele><time>2015-11-22T16:44:24.0000000+00:00</time></trkpt><trkpt lat="30.66613019" lon="35.61587786"><ele>1429.6</ele><time>2015-11-22T16:44:27.0000000+00:00</time></trkpt><trkpt lat="30.66618844" lon="35.61581835"><ele>1428.7</ele><time>2015-11-22T16:44:35.0000000+00:00</time></trkpt><trkpt lat="30.66618894" lon="35.6158103"><ele>1428.7</ele><time>2015-11-22T16:44:47.0000000+00:00</time></trkpt><trkpt lat="30.66620001" lon="35.61578952"><ele>1428.2</ele><time>2015-11-22T16:44:48.0000000+00:00</time></trkpt><trkpt lat="30.66621727" lon="35.61576094"><ele>1428.2</ele><time>2015-11-22T16:44:49.0000000+00:00</time></trkpt><trkpt lat="30.66635574" lon="35.61555751"><ele>1424.3</ele><time>2015-11-22T16:44:53.0000000+00:00</time></trkpt><trkpt lat="30.6666155" lon="35.61512684"><ele>1421.0</ele><time>2015-11-22T16:44:58.0000000+00:00</time></trkpt><trkpt lat="30.66671021" lon="35.61492928"><ele>1420.0</ele><time>2015-11-22T16:45:00.0000000+00:00</time></trkpt><trkpt lat="30.66686285" lon="35.61466794"><ele>1417.6</ele><time>2015-11-22T16:45:03.0000000+00:00</time></trkpt><trkpt lat="30.66692253" lon="35.61459308"><ele>1416.2</ele><time>2015-11-22T16:45:04.0000000+00:00</time></trkpt><trkpt lat="30.66698388" lon="35.61452704"><ele>1415.2</ele><time>2015-11-22T16:45:05.0000000+00:00</time></trkpt><trkpt lat="30.66704415" lon="35.61447088"><ele>1413.8</ele><time>2015-11-22T16:45:06.0000000+00:00</time></trkpt><trkpt lat="30.66710223" lon="35.61442511"><ele>1412.3</ele><time>2015-11-22T16:45:07.0000000+00:00</time></trkpt><trkpt lat="30.6671625" lon="35.61438723"><ele>1410.9</ele><time>2015-11-22T16:45:08.0000000+00:00</time></trkpt><trkpt lat="30.6672293" lon="35.6143573"><ele>1410.4</ele><time>2015-11-22T16:45:09.0000000+00:00</time></trkpt><trkpt lat="30.66729753" lon="35.61433392"><ele>1409.9</ele><time>2015-11-22T16:45:10.0000000+00:00</time></trkpt><trkpt lat="30.66736232" lon="35.61431472"><ele>1408.5</ele><time>2015-11-22T16:45:11.0000000+00:00</time></trkpt><trkpt lat="30.66755813" lon="35.61423283"><ele>1405.1</ele><time>2015-11-22T16:45:14.0000000+00:00</time></trkpt><trkpt lat="30.66769643" lon="35.61415538"><ele>1401.3</ele><time>2015-11-22T16:45:16.0000000+00:00</time></trkpt><trkpt lat="30.66784898" lon="35.61405991"><ele>1398.4</ele><time>2015-11-22T16:45:18.0000000+00:00</time></trkpt><trkpt lat="30.66802458" lon="35.61395204"><ele>1394.5</ele><time>2015-11-22T16:45:20.0000000+00:00</time></trkpt><trkpt lat="30.66820789" lon="35.61384156"><ele>1390.2</ele><time>2015-11-22T16:45:22.0000000+00:00</time></trkpt><trkpt lat="30.66838358" lon="35.6137155"><ele>1385.9</ele><time>2015-11-22T16:45:24.0000000+00:00</time></trkpt><trkpt lat="30.66846807" lon="35.61363453"><ele>1383.5</ele><time>2015-11-22T16:45:25.0000000+00:00</time></trkpt><trkpt lat="30.66855214" lon="35.61353562"><ele>1381.6</ele><time>2015-11-22T16:45:26.0000000+00:00</time></trkpt><trkpt lat="30.66873302" lon="35.61330571"><ele>1376.3</ele><time>2015-11-22T16:45:28.0000000+00:00</time></trkpt><trkpt lat="30.66894407" lon="35.61306448"><ele>1371.5</ele><time>2015-11-22T16:45:30.0000000+00:00</time></trkpt><trkpt lat="30.66906" lon="35.61294512"><ele>1368.6</ele><time>2015-11-22T16:45:31.0000000+00:00</time></trkpt><trkpt lat="30.6693003" lon="35.61270355"><ele>1363.3</ele><time>2015-11-22T16:45:33.0000000+00:00</time></trkpt><trkpt lat="30.66952938" lon="35.61244581"><ele>1359.4</ele><time>2015-11-22T16:45:35.0000000+00:00</time></trkpt><trkpt lat="30.66964245" lon="35.61231497"><ele>1359.4</ele><time>2015-11-22T16:45:36.0000000+00:00</time></trkpt><trkpt lat="30.67032608" lon="35.6116424"><ele>1355.6</ele><time>2015-11-22T16:45:43.0000000+00:00</time></trkpt><trkpt lat="30.67058701" lon="35.61135801"><ele>1350.8</ele><time>2015-11-22T16:45:46.0000000+00:00</time></trkpt><trkpt lat="30.67078792" lon="35.61101837"><ele>1346.9</ele><time>2015-11-22T16:45:49.0000000+00:00</time></trkpt><trkpt lat="30.67100359" lon="35.61063146"><ele>1343.6</ele><time>2015-11-22T16:45:53.0000000+00:00</time></trkpt><trkpt lat="30.67105824" lon="35.61057002"><ele>1342.1</ele><time>2015-11-22T16:45:54.0000000+00:00</time></trkpt><trkpt lat="30.67111465" lon="35.61051881"><ele>1341.2</ele><time>2015-11-22T16:45:55.0000000+00:00</time></trkpt><trkpt lat="30.67116939" lon="35.61047556"><ele>1340.2</ele><time>2015-11-22T16:45:56.0000000+00:00</time></trkpt><trkpt lat="30.67122102" lon="35.61043851"><ele>1339.3</ele><time>2015-11-22T16:45:57.0000000+00:00</time></trkpt><trkpt lat="30.67126678" lon="35.61041202"><ele>1338.3</ele><time>2015-11-22T16:45:58.0000000+00:00</time></trkpt><trkpt lat="30.67130702" lon="35.61039467"><ele>1337.3</ele><time>2015-11-22T16:45:59.0000000+00:00</time></trkpt><trkpt lat="30.67134063" lon="35.61038336"><ele>1336.9</ele><time>2015-11-22T16:46:00.0000000+00:00</time></trkpt><trkpt lat="30.67153031" lon="35.61031974"><ele>1333.5</ele><time>2015-11-22T16:46:08.0000000+00:00</time></trkpt><trkpt lat="30.67162083" lon="35.61029946"><ele>1331.1</ele><time>2015-11-22T16:46:12.0000000+00:00</time></trkpt><trkpt lat="30.6716381" lon="35.61030365"><ele>1331.1</ele><time>2015-11-22T16:46:13.0000000+00:00</time></trkpt><trkpt lat="30.67181949" lon="35.61031513"><ele>1328.2</ele><time>2015-11-22T16:46:22.0000000+00:00</time></trkpt><trkpt lat="30.6718992" lon="35.61034421"><ele>1326.8</ele><time>2015-11-22T16:46:25.0000000+00:00</time></trkpt><trkpt lat="30.67208251" lon="35.61053205"><ele>1324.4</ele><time>2015-11-22T16:46:33.0000000+00:00</time></trkpt><trkpt lat="30.6721323" lon="35.61060917"><ele>1323.9</ele><time>2015-11-22T16:46:35.0000000+00:00</time></trkpt><trkpt lat="30.67219776" lon="35.61073917"><ele>1323.9</ele><time>2015-11-22T16:46:43.0000000+00:00</time></trkpt><trkpt lat="30.67219801" lon="35.61073448"><ele>1322.9</ele><time>2015-11-22T16:47:18.0000000+00:00</time></trkpt><trkpt lat="30.67220564" lon="35.61073649"><ele>1322.9</ele><time>2015-11-22T16:47:42.0000000+00:00</time></trkpt><trkpt lat="30.67230161" lon="35.61097068"><ele>1321.5</ele><time>2015-11-22T16:47:54.0000000+00:00</time></trkpt><trkpt lat="30.67238996" lon="35.61142121"><ele>1318.1</ele><time>2015-11-22T16:48:05.0000000+00:00</time></trkpt><trkpt lat="30.67239515" lon="35.61147753"><ele>1318.1</ele><time>2015-11-22T16:48:06.0000000+00:00</time></trkpt><trkpt lat="30.67240865" lon="35.61160091"><ele>1316.7</ele><time>2015-11-22T16:48:08.0000000+00:00</time></trkpt><trkpt lat="30.67241653" lon="35.61166747"><ele>1315.7</ele><time>2015-11-22T16:48:09.0000000+00:00</time></trkpt><trkpt lat="30.67243245" lon="35.61173494"><ele>1315.7</ele><time>2015-11-22T16:48:10.0000000+00:00</time></trkpt><trkpt lat="30.67245626" lon="35.611803"><ele>1314.7</ele><time>2015-11-22T16:48:11.0000000+00:00</time></trkpt><trkpt lat="30.67248912" lon="35.6118698"><ele>1314.3</ele><time>2015-11-22T16:48:12.0000000+00:00</time></trkpt><trkpt lat="30.67253002" lon="35.61193334"><ele>1313.3</ele><time>2015-11-22T16:48:13.0000000+00:00</time></trkpt><trkpt lat="30.67257796" lon="35.61199511"><ele>1313.3</ele><time>2015-11-22T16:48:14.0000000+00:00</time></trkpt><trkpt lat="30.67263186" lon="35.61205764"><ele>1312.8</ele><time>2015-11-22T16:48:15.0000000+00:00</time></trkpt><trkpt lat="30.67280855" lon="35.61223785"><ele>1310.9</ele><time>2015-11-22T16:48:18.0000000+00:00</time></trkpt><trkpt lat="30.67308205" lon="35.61243692"><ele>1307.5</ele><time>2015-11-22T16:48:22.0000000+00:00</time></trkpt><trkpt lat="30.67334223" lon="35.61260766"><ele>1304.2</ele><time>2015-11-22T16:48:26.0000000+00:00</time></trkpt><trkpt lat="30.67352436" lon="35.61271043"><ele>1300.8</ele><time>2015-11-22T16:48:29.0000000+00:00</time></trkpt><trkpt lat="30.6736677" lon="35.61276759"><ele>1298.9</ele><time>2015-11-22T16:48:31.0000000+00:00</time></trkpt><trkpt lat="30.67392519" lon="35.61281813"><ele>1295.5</ele><time>2015-11-22T16:48:34.0000000+00:00</time></trkpt><trkpt lat="30.67409593" lon="35.61284076"><ele>1294.6</ele><time>2015-11-22T16:48:36.0000000+00:00</time></trkpt><trkpt lat="30.67430682" lon="35.61286985"><ele>1293.6</ele><time>2015-11-22T16:48:39.0000000+00:00</time></trkpt><trkpt lat="30.6746669" lon="35.61291997"><ele>1293.1</ele><time>2015-11-22T16:48:48.0000000+00:00</time></trkpt><trkpt lat="30.67470185" lon="35.6128898"><ele>1292.2</ele><time>2015-11-22T16:48:50.0000000+00:00</time></trkpt><trkpt lat="30.67470831" lon="35.61286415"><ele>1292.2</ele><time>2015-11-22T16:48:51.0000000+00:00</time></trkpt><trkpt lat="30.67470831" lon="35.61283624"><ele>1291.2</ele><time>2015-11-22T16:48:52.0000000+00:00</time></trkpt><trkpt lat="30.67469817" lon="35.6128095"><ele>1291.2</ele><time>2015-11-22T16:48:53.0000000+00:00</time></trkpt><trkpt lat="30.67467269" lon="35.61278377"><ele>1290.7</ele><time>2015-11-22T16:48:54.0000000+00:00</time></trkpt><trkpt lat="30.67463421" lon="35.61275703"><ele>1290.7</ele><time>2015-11-22T16:48:55.0000000+00:00</time></trkpt><trkpt lat="30.67458426" lon="35.61272568"><ele>1290.2</ele><time>2015-11-22T16:48:56.0000000+00:00</time></trkpt><trkpt lat="30.67439013" lon="35.61260263"><ele>1286.9</ele><time>2015-11-22T16:48:59.0000000+00:00</time></trkpt><trkpt lat="30.67418955" lon="35.6124842"><ele>1284.0</ele><time>2015-11-22T16:49:02.0000000+00:00</time></trkpt><trkpt lat="30.67414345" lon="35.61244413"><ele>1283.5</ele><time>2015-11-22T16:49:03.0000000+00:00</time></trkpt><trkpt lat="30.67411093" lon="35.61239468"><ele>1283.0</ele><time>2015-11-22T16:49:04.0000000+00:00</time></trkpt><trkpt lat="30.67408914" lon="35.61233894"><ele>1282.5</ele><time>2015-11-22T16:49:05.0000000+00:00</time></trkpt><trkpt lat="30.67407598" lon="35.61227708"><ele>1282.5</ele><time>2015-11-22T16:49:06.0000000+00:00</time></trkpt><trkpt lat="30.67406651" lon="35.61221162"><ele>1282.1</ele><time>2015-11-22T16:49:07.0000000+00:00</time></trkpt><trkpt lat="30.67405268" lon="35.61214968"><ele>1281.1</ele><time>2015-11-22T16:49:08.0000000+00:00</time></trkpt><trkpt lat="30.67403323" lon="35.61209477"><ele>1281.1</ele><time>2015-11-22T16:49:09.0000000+00:00</time></trkpt><trkpt lat="30.67390742" lon="35.61179814"><ele>1277.7</ele><time>2015-11-22T16:49:15.0000000+00:00</time></trkpt><trkpt lat="30.67390205" lon="35.61173796"><ele>1276.8</ele><time>2015-11-22T16:49:17.0000000+00:00</time></trkpt><trkpt lat="30.67390826" lon="35.61172128"><ele>1276.3</ele><time>2015-11-22T16:49:18.0000000+00:00</time></trkpt><trkpt lat="30.67395478" lon="35.61162313"><ele>1274.9</ele><time>2015-11-22T16:49:24.0000000+00:00</time></trkpt><trkpt lat="30.67396257" lon="35.61160519"><ele>1274.4</ele><time>2015-11-22T16:49:25.0000000+00:00</time></trkpt><trkpt lat="30.67400415" lon="35.61155004"><ele>1273.9</ele><time>2015-11-22T16:49:31.0000000+00:00</time></trkpt><trkpt lat="30.67401303" lon="35.61153109"><ele>1273.4</ele><time>2015-11-22T16:49:32.0000000+00:00</time></trkpt><trkpt lat="30.67412426" lon="35.61135122"><ele>1270.0</ele><time>2015-11-22T16:49:37.0000000+00:00</time></trkpt><trkpt lat="30.67424848" lon="35.61119104"><ele>1266.7</ele><time>2015-11-22T16:49:40.0000000+00:00</time></trkpt><trkpt lat="30.67433967" lon="35.61109138"><ele>1263.8</ele><time>2015-11-22T16:49:42.0000000+00:00</time></trkpt><trkpt lat="30.6744649" lon="35.61096959"><ele>1259.9</ele><time>2015-11-22T16:49:45.0000000+00:00</time></trkpt><trkpt lat="30.67465357" lon="35.61080622"><ele>1256.6</ele><time>2015-11-22T16:49:49.0000000+00:00</time></trkpt><trkpt lat="30.67476799" lon="35.61072383"><ele>1252.7</ele><time>2015-11-22T16:49:53.0000000+00:00</time></trkpt><trkpt lat="30.67478601" lon="35.61071721"><ele>1253.2</ele><time>2015-11-22T16:50:04.0000000+00:00</time></trkpt><trkpt lat="30.6747876" lon="35.61070648"><ele>1252.7</ele><time>2015-11-22T16:50:27.0000000+00:00</time></trkpt><trkpt lat="30.67477595" lon="35.61071486"><ele>1252.7</ele><time>2015-11-22T16:51:00.0000000+00:00</time></trkpt><trkpt lat="30.67477243" lon="35.61069944"><ele>1252.3</ele><time>2015-11-22T16:51:43.0000000+00:00</time></trkpt><trkpt lat="30.67472625" lon="35.61065225"><ele>1252.3</ele><time>2015-11-22T16:51:53.0000000+00:00</time></trkpt><trkpt lat="30.67471862" lon="35.61064336"><ele>1252.7</ele><time>2015-11-22T16:51:54.0000000+00:00</time></trkpt><trkpt lat="30.67468727" lon="35.61052334"><ele>1252.7</ele><time>2015-11-22T16:52:10.0000000+00:00</time></trkpt></trkseg><trkseg><trkpt lat="31.1800006" lon="35.7093524"><ele>994.4</ele><time>2015-11-22T05:11:07.0000000+00:00</time></trkpt><trkpt lat="31.1799999" lon="35.7095657"><ele>995.4</ele><time>2015-11-22T05:11:36.0000000+00:00</time></trkpt><trkpt lat="31.1799765" lon="35.7094682"><ele>994.9</ele><time>2015-11-22T05:11:38.0000000+00:00</time></trkpt><trkpt lat="31.1799451" lon="35.7095093"><ele>980.5</ele><time>2015-11-22T05:15:51.0000000+00:00</time></trkpt><trkpt lat="31.1798996" lon="35.7095404"><ele>982.6</ele><time>2015-11-22T05:15:55.0000000+00:00</time></trkpt><trkpt lat="31.1798894" lon="35.7094812"><ele>975.9</ele><time>2015-11-22T05:16:26.0000000+00:00</time></trkpt><trkpt lat="31.179926" lon="35.709426"><ele>973.5</ele><time>2015-11-22T05:16:28.0000000+00:00</time></trkpt><trkpt lat="31.1799747" lon="35.7093521"><ele>973.2</ele><time>2015-11-22T05:16:30.0000000+00:00</time></trkpt><trkpt lat="31.180002" lon="35.7093083"><ele>972.3</ele><time>2015-11-22T05:16:31.0000000+00:00</time></trkpt><trkpt lat="31.1800493" lon="35.7092119"><ele>972.3</ele><time>2015-11-22T05:16:32.0000000+00:00</time></trkpt><trkpt lat="31.180078" lon="35.709162"><ele>971.9</ele><time>2015-11-22T05:16:33.0000000+00:00</time></trkpt><trkpt lat="31.1801153" lon="35.7091176"><ele>971.1</ele><time>2015-11-22T05:16:34.0000000+00:00</time></trkpt><trkpt lat="31.1801432" lon="35.709066"><ele>970.8</ele><time>2015-11-22T05:16:35.0000000+00:00</time></trkpt><trkpt lat="31.1801728" lon="35.7090147"><ele>969.6</ele><time>2015-11-22T05:16:36.0000000+00:00</time></trkpt><trkpt lat="31.1801908" lon="35.7089547"><ele>970.5</ele><time>2015-11-22T05:16:37.0000000+00:00</time></trkpt><trkpt lat="31.1802152" lon="35.7088991"><ele>970.9</ele><time>2015-11-22T05:16:38.0000000+00:00</time></trkpt><trkpt lat="31.1802481" lon="35.7088327"><ele>971.2</ele><time>2015-11-22T05:16:39.0000000+00:00</time></trkpt><trkpt lat="31.1802669" lon="35.7087572"><ele>972.3</ele><time>2015-11-22T05:16:40.0000000+00:00</time></trkpt><trkpt lat="31.1802904" lon="35.7086887"><ele>972.3</ele><time>2015-11-22T05:16:41.0000000+00:00</time></trkpt><trkpt lat="31.1803142" lon="35.7086197"><ele>971.9</ele><time>2015-11-22T05:16:42.0000000+00:00</time></trkpt><trkpt lat="31.1803292" lon="35.7085384"><ele>971.1</ele><time>2015-11-22T05:16:43.0000000+00:00</time></trkpt><trkpt lat="31.1803503" lon="35.7084551"><ele>970.3</ele><time>2015-11-22T05:16:44.0000000+00:00</time></trkpt><trkpt lat="31.1803656" lon="35.7083666"><ele>969.8</ele><time>2015-11-22T05:16:45.0000000+00:00</time></trkpt><trkpt lat="31.1803702" lon="35.708261"><ele>969.1</ele><time>2015-11-22T05:16:46.0000000+00:00</time></trkpt><trkpt lat="31.1803673" lon="35.7081549"><ele>967.8</ele><time>2015-11-22T05:16:47.0000000+00:00</time></trkpt><trkpt lat="31.180356" lon="35.7080559"><ele>966.1</ele><time>2015-11-22T05:16:48.0000000+00:00</time></trkpt><trkpt lat="31.1803462" lon="35.7079463"><ele>964.7</ele><time>2015-11-22T05:16:49.0000000+00:00</time></trkpt><trkpt lat="31.1803382" lon="35.7078355"><ele>963.6</ele><time>2015-11-22T05:16:50.0000000+00:00</time></trkpt><trkpt lat="31.1803238" lon="35.7077222"><ele>962.5</ele><time>2015-11-22T05:16:51.0000000+00:00</time></trkpt><trkpt lat="31.1803048" lon="35.7076045"><ele>960.9</ele><time>2015-11-22T05:16:52.0000000+00:00</time></trkpt><trkpt lat="31.1802837" lon="35.7074851"><ele>960.7</ele><time>2015-11-22T05:16:53.0000000+00:00</time></trkpt><trkpt lat="31.1802631" lon="35.7073678"><ele>959.5</ele><time>2015-11-22T05:16:54.0000000+00:00</time></trkpt><trkpt lat="31.1802377" lon="35.7072484"><ele>958.5</ele><time>2015-11-22T05:16:55.0000000+00:00</time></trkpt><trkpt lat="31.1802111" lon="35.7071375"><ele>957.4</ele><time>2015-11-22T05:16:56.0000000+00:00</time></trkpt><trkpt lat="31.1801839" lon="35.7070204"><ele>965.4</ele><time>2015-11-22T05:16:57.0000000+00:00</time></trkpt><trkpt lat="31.1801448" lon="35.7069099"><ele>969.4</ele><time>2015-11-22T05:16:58.0000000+00:00</time></trkpt><trkpt lat="31.1800973" lon="35.7068081"><ele>970.9</ele><time>2015-11-22T05:16:59.0000000+00:00</time></trkpt><trkpt lat="31.1800544" lon="35.7067131"><ele>971.2</ele><time>2015-11-22T05:17:00.0000000+00:00</time></trkpt><trkpt lat="31.18001" lon="35.7066185"><ele>971.3</ele><time>2015-11-22T05:17:01.0000000+00:00</time></trkpt><trkpt lat="31.1799682" lon="35.7065163"><ele>971.8</ele><time>2015-11-22T05:17:02.0000000+00:00</time></trkpt><trkpt lat="31.179931" lon="35.7064168"><ele>971.6</ele><time>2015-11-22T05:17:03.0000000+00:00</time></trkpt><trkpt lat="31.1798878" lon="35.7063228"><ele>971.5</ele><time>2015-11-22T05:17:04.0000000+00:00</time></trkpt><trkpt lat="31.1798524" lon="35.7062288"><ele>971.5</ele><time>2015-11-22T05:17:05.0000000+00:00</time></trkpt><trkpt lat="31.1798164" lon="35.7061216"><ele>971.9</ele><time>2015-11-22T05:17:06.0000000+00:00</time></trkpt><trkpt lat="31.1797798" lon="35.7060149"><ele>971.7</ele><time>2015-11-22T05:17:07.0000000+00:00</time></trkpt><trkpt lat="31.1797542" lon="35.705907"><ele>971.5</ele><time>2015-11-22T05:17:08.0000000+00:00</time></trkpt><trkpt lat="31.1797333" lon="35.705798"><ele>971.5</ele><time>2015-11-22T05:17:09.0000000+00:00</time></trkpt><trkpt lat="31.1797268" lon="35.7056833"><ele>971.4</ele><time>2015-11-22T05:17:10.0000000+00:00</time></trkpt><trkpt lat="31.1797223" lon="35.7055644"><ele>971.9</ele><time>2015-11-22T05:17:11.0000000+00:00</time></trkpt><trkpt lat="31.1797287" lon="35.7054264"><ele>972.7</ele><time>2015-11-22T05:17:12.0000000+00:00</time></trkpt><trkpt lat="31.1797381" lon="35.7053043"><ele>973.0</ele><time>2015-11-22T05:17:13.0000000+00:00</time></trkpt><trkpt lat="31.1797381" lon="35.705195"><ele>973.7</ele><time>2015-11-22T05:17:14.0000000+00:00</time></trkpt><trkpt lat="31.1797419" lon="35.705089"><ele>974.1</ele><time>2015-11-22T05:17:15.0000000+00:00</time></trkpt><trkpt lat="31.1797437" lon="35.7049843"><ele>974.7</ele><time>2015-11-22T05:17:16.0000000+00:00</time></trkpt><trkpt lat="31.1797358" lon="35.704899"><ele>975.6</ele><time>2015-11-22T05:17:17.0000000+00:00</time></trkpt><trkpt lat="31.1797334" lon="35.7048176"><ele>975.5</ele><time>2015-11-22T05:17:18.0000000+00:00</time></trkpt><trkpt lat="31.1797338" lon="35.7047322"><ele>974.9</ele><time>2015-11-22T05:17:19.0000000+00:00</time></trkpt><trkpt lat="31.1797293" lon="35.7046471"><ele>974.7</ele><time>2015-11-22T05:17:20.0000000+00:00</time></trkpt><trkpt lat="31.1797266" lon="35.7045554"><ele>975.0</ele><time>2015-11-22T05:17:21.0000000+00:00</time></trkpt><trkpt lat="31.1797158" lon="35.7044688"><ele>974.2</ele><time>2015-11-22T05:17:22.0000000+00:00</time></trkpt><trkpt lat="31.1797022" lon="35.7043758"><ele>973.3</ele><time>2015-11-22T05:17:23.0000000+00:00</time></trkpt><trkpt lat="31.179688" lon="35.7042821"><ele>972.9</ele><time>2015-11-22T05:17:24.0000000+00:00</time></trkpt><trkpt lat="31.1796747" lon="35.7041787"><ele>972.1</ele><time>2015-11-22T05:17:25.0000000+00:00</time></trkpt><trkpt lat="31.1796611" lon="35.7040874"><ele>970.8</ele><time>2015-11-22T05:17:26.0000000+00:00</time></trkpt><trkpt lat="31.1796454" lon="35.7039936"><ele>969.6</ele><time>2015-11-22T05:17:27.0000000+00:00</time></trkpt><trkpt lat="31.1796308" lon="35.7039132"><ele>968.0</ele><time>2015-11-22T05:17:28.0000000+00:00</time></trkpt><trkpt lat="31.1796117" lon="35.7038305"><ele>966.2</ele><time>2015-11-22T05:17:29.0000000+00:00</time></trkpt><trkpt lat="31.1795937" lon="35.7037511"><ele>963.8</ele><time>2015-11-22T05:17:30.0000000+00:00</time></trkpt><trkpt lat="31.1795797" lon="35.7036777"><ele>962.6</ele><time>2015-11-22T05:17:31.0000000+00:00</time></trkpt><trkpt lat="31.1795707" lon="35.7036252"><ele>962.0</ele><time>2015-11-22T05:17:32.0000000+00:00</time></trkpt><trkpt lat="31.1795523" lon="35.7035505"><ele>965.1</ele><time>2015-11-22T05:17:34.0000000+00:00</time></trkpt><trkpt lat="31.1795488" lon="35.7034949"><ele>962.8</ele><time>2015-11-22T05:17:38.0000000+00:00</time></trkpt><trkpt lat="31.1795303" lon="35.7034355"><ele>956.6</ele><time>2015-11-22T05:18:06.0000000+00:00</time></trkpt><trkpt lat="31.1795219" lon="35.7033763"><ele>960.3</ele><time>2015-11-22T05:18:09.0000000+00:00</time></trkpt><trkpt lat="31.1794908" lon="35.7033086"><ele>962.9</ele><time>2015-11-22T05:18:11.0000000+00:00</time></trkpt><trkpt lat="31.1794409" lon="35.7032481"><ele>969.0</ele><time>2015-11-22T05:18:13.0000000+00:00</time></trkpt><trkpt lat="31.1793752" lon="35.703215"><ele>974.3</ele><time>2015-11-22T05:18:15.0000000+00:00</time></trkpt><trkpt lat="31.1793038" lon="35.7032089"><ele>976.4</ele><time>2015-11-22T05:18:17.0000000+00:00</time></trkpt><trkpt lat="31.179236" lon="35.7032085"><ele>977.9</ele><time>2015-11-22T05:18:19.0000000+00:00</time></trkpt><trkpt lat="31.179178" lon="35.7032018"><ele>977.5</ele><time>2015-11-22T05:18:21.0000000+00:00</time></trkpt><trkpt lat="31.1792033" lon="35.703154"><ele>942.1</ele><time>2015-11-22T05:18:28.0000000+00:00</time></trkpt><trkpt lat="31.1792483" lon="35.7031597"><ele>935.8</ele><time>2015-11-22T05:18:47.0000000+00:00</time></trkpt><trkpt lat="31.1792912" lon="35.7031396"><ele>934.4</ele><time>2015-11-22T05:26:32.0000000+00:00</time></trkpt><trkpt lat="31.1792491" lon="35.7031198"><ele>936.6</ele><time>2015-11-22T05:26:39.0000000+00:00</time></trkpt><trkpt lat="31.1791937" lon="35.7031299"><ele>939.7</ele><time>2015-11-22T05:26:44.0000000+00:00</time></trkpt><trkpt lat="31.1791522" lon="35.7031542"><ele>940.6</ele><time>2015-11-22T05:26:48.0000000+00:00</time></trkpt><trkpt lat="31.1791066" lon="35.703144"><ele>941.4</ele><time>2015-11-22T05:27:00.0000000+00:00</time></trkpt><trkpt lat="31.1790593" lon="35.7031354"><ele>942.1</ele><time>2015-11-22T05:27:03.0000000+00:00</time></trkpt><trkpt lat="31.1790052" lon="35.7031659"><ele>943.5</ele><time>2015-11-22T05:27:06.0000000+00:00</time></trkpt><trkpt lat="31.1789452" lon="35.7031872"><ele>943.4</ele><time>2015-11-22T05:27:09.0000000+00:00</time></trkpt><trkpt lat="31.1788801" lon="35.7031987"><ele>942.0</ele><time>2015-11-22T05:27:12.0000000+00:00</time></trkpt><trkpt lat="31.1788341" lon="35.7032075"><ele>941.6</ele><time>2015-11-22T05:27:14.0000000+00:00</time></trkpt><trkpt lat="31.1787827" lon="35.7032137"><ele>940.7</ele><time>2015-11-22T05:27:16.0000000+00:00</time></trkpt><trkpt lat="31.178728" lon="35.7032178"><ele>939.7</ele><time>2015-11-22T05:27:18.0000000+00:00</time></trkpt><trkpt lat="31.1786723" lon="35.703228"><ele>939.5</ele><time>2015-11-22T05:27:20.0000000+00:00</time></trkpt><trkpt lat="31.1786144" lon="35.703235"><ele>940.2</ele><time>2015-11-22T05:27:22.0000000+00:00</time></trkpt><trkpt lat="31.1785552" lon="35.7032419"><ele>940.3</ele><time>2015-11-22T05:27:24.0000000+00:00</time></trkpt><trkpt lat="31.1784952" lon="35.7032497"><ele>940.4</ele><time>2015-11-22T05:27:26.0000000+00:00</time></trkpt><trkpt lat="31.1784346" lon="35.7032564"><ele>940.4</ele><time>2015-11-22T05:27:28.0000000+00:00</time></trkpt><trkpt lat="31.1783757" lon="35.7032667"><ele>941.2</ele><time>2015-11-22T05:27:30.0000000+00:00</time></trkpt><trkpt lat="31.1783192" lon="35.703279"><ele>941.3</ele><time>2015-11-22T05:27:32.0000000+00:00</time></trkpt><trkpt lat="31.1782643" lon="35.7032905"><ele>941.4</ele><time>2015-11-22T05:27:34.0000000+00:00</time></trkpt><trkpt lat="31.1782133" lon="35.7032948"><ele>940.9</ele><time>2015-11-22T05:27:36.0000000+00:00</time></trkpt><trkpt lat="31.178163" lon="35.7033075"><ele>938.5</ele><time>2015-11-22T05:27:55.0000000+00:00</time></trkpt><trkpt lat="31.1781111" lon="35.7033181"><ele>938.2</ele><time>2015-11-22T05:27:58.0000000+00:00</time></trkpt><trkpt lat="31.1780609" lon="35.7033257"><ele>939.7</ele><time>2015-11-22T05:28:01.0000000+00:00</time></trkpt><trkpt lat="31.1780148" lon="35.7033364"><ele>940.2</ele><time>2015-11-22T05:28:03.0000000+00:00</time></trkpt><trkpt lat="31.1779526" lon="35.7033537"><ele>940.4</ele><time>2015-11-22T05:28:06.0000000+00:00</time></trkpt><trkpt lat="31.1778936" lon="35.7033701"><ele>940.4</ele><time>2015-11-22T05:28:09.0000000+00:00</time></trkpt><trkpt lat="31.1778362" lon="35.7033886"><ele>941.2</ele><time>2015-11-22T05:28:12.0000000+00:00</time></trkpt><trkpt lat="31.1777838" lon="35.7033991"><ele>940.5</ele><time>2015-11-22T05:28:15.0000000+00:00</time></trkpt><trkpt lat="31.1777316" lon="35.703404"><ele>940.4</ele><time>2015-11-22T05:28:18.0000000+00:00</time></trkpt><trkpt lat="31.1776849" lon="35.7034143"><ele>940.7</ele><time>2015-11-22T05:28:21.0000000+00:00</time></trkpt><trkpt lat="31.1776373" lon="35.7034175"><ele>940.4</ele><time>2015-11-22T05:28:24.0000000+00:00</time></trkpt><trkpt lat="31.1775898" lon="35.703414"><ele>940.7</ele><time>2015-11-22T05:28:27.0000000+00:00</time></trkpt><trkpt lat="31.1775371" lon="35.7034185"><ele>939.9</ele><time>2015-11-22T05:28:30.0000000+00:00</time></trkpt><trkpt lat="31.1774835" lon="35.7034247"><ele>939.7</ele><time>2015-11-22T05:28:33.0000000+00:00</time></trkpt><trkpt lat="31.1774279" lon="35.7034263"><ele>938.6</ele><time>2015-11-22T05:28:36.0000000+00:00</time></trkpt><trkpt lat="31.1773751" lon="35.7034303"><ele>938.4</ele><time>2015-11-22T05:28:39.0000000+00:00</time></trkpt><trkpt lat="31.1773241" lon="35.7034427"><ele>937.5</ele><time>2015-11-22T05:28:42.0000000+00:00</time></trkpt><trkpt lat="31.1772708" lon="35.7034433"><ele>938.2</ele><time>2015-11-22T05:28:45.0000000+00:00</time></trkpt><trkpt lat="31.1772149" lon="35.7034377"><ele>939.2</ele><time>2015-11-22T05:28:48.0000000+00:00</time></trkpt><trkpt lat="31.1771595" lon="35.703434"><ele>938.5</ele><time>2015-11-22T05:28:51.0000000+00:00</time></trkpt><trkpt lat="31.1771045" lon="35.7034337"><ele>939.0</ele><time>2015-11-22T05:28:54.0000000+00:00</time></trkpt><trkpt lat="31.1770487" lon="35.7034353"><ele>939.7</ele><time>2015-11-22T05:28:57.0000000+00:00</time></trkpt><trkpt lat="31.1769924" lon="35.7034395"><ele>939.4</ele><time>2015-11-22T05:29:00.0000000+00:00</time></trkpt><trkpt lat="31.176935" lon="35.703439"><ele>939.5</ele><time>2015-11-22T05:29:03.0000000+00:00</time></trkpt><trkpt lat="31.1768811" lon="35.703437"><ele>940.0</ele><time>2015-11-22T05:29:06.0000000+00:00</time></trkpt><trkpt lat="31.1768286" lon="35.7034367"><ele>940.0</ele><time>2015-11-22T05:29:09.0000000+00:00</time></trkpt><trkpt lat="31.1767706" lon="35.7034335"><ele>939.5</ele><time>2015-11-22T05:29:12.0000000+00:00</time></trkpt><trkpt lat="31.1767096" lon="35.7034333"><ele>939.7</ele><time>2015-11-22T05:29:15.0000000+00:00</time></trkpt><trkpt lat="31.1766469" lon="35.7034388"><ele>939.9</ele><time>2015-11-22T05:29:18.0000000+00:00</time></trkpt><trkpt lat="31.1765803" lon="35.7034384"><ele>940.3</ele><time>2015-11-22T05:29:21.0000000+00:00</time></trkpt><trkpt lat="31.1765324" lon="35.7034406"><ele>940.4</ele><time>2015-11-22T05:29:23.0000000+00:00</time></trkpt><trkpt lat="31.1764813" lon="35.7034344"><ele>940.4</ele><time>2015-11-22T05:29:25.0000000+00:00</time></trkpt><trkpt lat="31.1764304" lon="35.7034302"><ele>940.9</ele><time>2015-11-22T05:29:27.0000000+00:00</time></trkpt><trkpt lat="31.1763795" lon="35.7034322"><ele>941.3</ele><time>2015-11-22T05:29:29.0000000+00:00</time></trkpt><trkpt lat="31.1763317" lon="35.7034377"><ele>941.4</ele><time>2015-11-22T05:29:31.0000000+00:00</time></trkpt><trkpt lat="31.1762845" lon="35.7034456"><ele>940.9</ele><time>2015-11-22T05:29:33.0000000+00:00</time></trkpt><trkpt lat="31.1762368" lon="35.7034534"><ele>940.5</ele><time>2015-11-22T05:29:35.0000000+00:00</time></trkpt><trkpt lat="31.1761895" lon="35.7034506"><ele>941.2</ele><time>2015-11-22T05:29:37.0000000+00:00</time></trkpt><trkpt lat="31.1761444" lon="35.7034468"><ele>941.3</ele><time>2015-11-22T05:29:39.0000000+00:00</time></trkpt><trkpt lat="31.1760833" lon="35.7034434"><ele>941.4</ele><time>2015-11-22T05:29:42.0000000+00:00</time></trkpt><trkpt lat="31.1760217" lon="35.7034412"><ele>941.4</ele><time>2015-11-22T05:29:45.0000000+00:00</time></trkpt><trkpt lat="31.1759609" lon="35.703439"><ele>941.4</ele><time>2015-11-22T05:29:48.0000000+00:00</time></trkpt><trkpt lat="31.1759024" lon="35.7034364"><ele>941.4</ele><time>2015-11-22T05:29:51.0000000+00:00</time></trkpt><trkpt lat="31.1758424" lon="35.7034325"><ele>941.7</ele><time>2015-11-22T05:29:54.0000000+00:00</time></trkpt><trkpt lat="31.1757848" lon="35.7034315"><ele>942.3</ele><time>2015-11-22T05:29:57.0000000+00:00</time></trkpt><trkpt lat="31.1757281" lon="35.7034433"><ele>941.9</ele><time>2015-11-22T05:30:00.0000000+00:00</time></trkpt><trkpt lat="31.1756704" lon="35.7034506"><ele>941.5</ele><time>2015-11-22T05:30:03.0000000+00:00</time></trkpt><trkpt lat="31.1756116" lon="35.7034491"><ele>942.3</ele><time>2015-11-22T05:30:06.0000000+00:00</time></trkpt><trkpt lat="31.1755522" lon="35.7034488"><ele>942.4</ele><time>2015-11-22T05:30:09.0000000+00:00</time></trkpt><trkpt lat="31.1754949" lon="35.703451"><ele>942.4</ele><time>2015-11-22T05:30:12.0000000+00:00</time></trkpt><trkpt lat="31.1754406" lon="35.7034445"><ele>942.4</ele><time>2015-11-22T05:30:15.0000000+00:00</time></trkpt><trkpt lat="31.175386" lon="35.7034447"><ele>942.4</ele><time>2015-11-22T05:30:18.0000000+00:00</time></trkpt><trkpt lat="31.1753304" lon="35.7034433"><ele>943.3</ele><time>2015-11-22T05:30:21.0000000+00:00</time></trkpt><trkpt lat="31.1752763" lon="35.7034484"><ele>942.9</ele><time>2015-11-22T05:30:24.0000000+00:00</time></trkpt><trkpt lat="31.1752211" lon="35.7034488"><ele>943.3</ele><time>2015-11-22T05:30:27.0000000+00:00</time></trkpt><trkpt lat="31.175166" lon="35.7034498"><ele>943.4</ele><time>2015-11-22T05:30:30.0000000+00:00</time></trkpt><trkpt lat="31.1751103" lon="35.7034515"><ele>943.5</ele><time>2015-11-22T05:30:33.0000000+00:00</time></trkpt><trkpt lat="31.1750527" lon="35.7034545"><ele>944.3</ele><time>2015-11-22T05:30:36.0000000+00:00</time></trkpt><trkpt lat="31.174996" lon="35.7034516"><ele>943.5</ele><time>2015-11-22T05:30:39.0000000+00:00</time></trkpt><trkpt lat="31.1749419" lon="35.703452"><ele>943.4</ele><time>2015-11-22T05:30:42.0000000+00:00</time></trkpt><trkpt lat="31.1748862" lon="35.7034504"><ele>943.4</ele><time>2015-11-22T05:30:45.0000000+00:00</time></trkpt><trkpt lat="31.1748296" lon="35.7034587"><ele>943.4</ele><time>2015-11-22T05:30:48.0000000+00:00</time></trkpt><trkpt lat="31.1747736" lon="35.7034619"><ele>943.9</ele><time>2015-11-22T05:30:51.0000000+00:00</time></trkpt><trkpt lat="31.1747218" lon="35.7034643"><ele>944.3</ele><time>2015-11-22T05:30:54.0000000+00:00</time></trkpt><trkpt lat="31.1746738" lon="35.7034658"><ele>944.1</ele><time>2015-11-22T05:30:57.0000000+00:00</time></trkpt><trkpt lat="31.1746261" lon="35.7034609"><ele>944.4</ele><time>2015-11-22T05:31:00.0000000+00:00</time></trkpt><trkpt lat="31.1745769" lon="35.7034454"><ele>945.1</ele><time>2015-11-22T05:31:03.0000000+00:00</time></trkpt><trkpt lat="31.1745364" lon="35.7034164"><ele>944.9</ele><time>2015-11-22T05:31:06.0000000+00:00</time></trkpt><trkpt lat="31.1744886" lon="35.7034126"><ele>945.2</ele><time>2015-11-22T05:31:09.0000000+00:00</time></trkpt><trkpt lat="31.1744316" lon="35.7034201"><ele>945.1</ele><time>2015-11-22T05:31:12.0000000+00:00</time></trkpt><trkpt lat="31.1743926" lon="35.7034592"><ele>942.7</ele><time>2015-11-22T05:31:33.0000000+00:00</time></trkpt><trkpt lat="31.1743464" lon="35.7034938"><ele>942.4</ele><time>2015-11-22T05:31:37.0000000+00:00</time></trkpt><trkpt lat="31.1742991" lon="35.7035033"><ele>942.4</ele><time>2015-11-22T05:31:40.0000000+00:00</time></trkpt><trkpt lat="31.1742519" lon="35.7035044"><ele>949.3</ele><time>2015-11-22T05:32:08.0000000+00:00</time></trkpt><trkpt lat="31.1742121" lon="35.7035385"><ele>948.9</ele><time>2015-11-22T05:32:13.0000000+00:00</time></trkpt><trkpt lat="31.1741635" lon="35.7035624"><ele>949.7</ele><time>2015-11-22T05:32:16.0000000+00:00</time></trkpt><trkpt lat="31.1741197" lon="35.70358"><ele>948.2</ele><time>2015-11-22T05:32:18.0000000+00:00</time></trkpt><trkpt lat="31.1740616" lon="35.7036154"><ele>947.6</ele><time>2015-11-22T05:32:21.0000000+00:00</time></trkpt><trkpt lat="31.1740081" lon="35.7036504"><ele>947.4</ele><time>2015-11-22T05:32:24.0000000+00:00</time></trkpt><trkpt lat="31.1739566" lon="35.7036877"><ele>948.3</ele><time>2015-11-22T05:32:27.0000000+00:00</time></trkpt><trkpt lat="31.1739073" lon="35.7037232"><ele>949.1</ele><time>2015-11-22T05:32:30.0000000+00:00</time></trkpt><trkpt lat="31.173857" lon="35.7037565"><ele>949.3</ele><time>2015-11-22T05:32:33.0000000+00:00</time></trkpt><trkpt lat="31.1738057" lon="35.7037892"><ele>949.4</ele><time>2015-11-22T05:32:36.0000000+00:00</time></trkpt><trkpt lat="31.1737502" lon="35.7038233"><ele>948.4</ele><time>2015-11-22T05:32:39.0000000+00:00</time></trkpt><trkpt lat="31.1737002" lon="35.7038627"><ele>947.7</ele><time>2015-11-22T05:32:42.0000000+00:00</time></trkpt><trkpt lat="31.1736543" lon="35.7039056"><ele>947.4</ele><time>2015-11-22T05:32:45.0000000+00:00</time></trkpt><trkpt lat="31.173609" lon="35.7039426"><ele>948.3</ele><time>2015-11-22T05:32:48.0000000+00:00</time></trkpt><trkpt lat="31.1735585" lon="35.7039724"><ele>948.9</ele><time>2015-11-22T05:32:51.0000000+00:00</time></trkpt><trkpt lat="31.1735125" lon="35.7040096"><ele>949.3</ele><time>2015-11-22T05:32:54.0000000+00:00</time></trkpt><trkpt lat="31.1734647" lon="35.704048"><ele>949.4</ele><time>2015-11-22T05:32:57.0000000+00:00</time></trkpt><trkpt lat="31.1734196" lon="35.704073"><ele>949.4</ele><time>2015-11-22T05:33:00.0000000+00:00</time></trkpt><trkpt lat="31.1733721" lon="35.7041082"><ele>950.3</ele><time>2015-11-22T05:33:03.0000000+00:00</time></trkpt><trkpt lat="31.1733252" lon="35.7041485"><ele>951.3</ele><time>2015-11-22T05:33:06.0000000+00:00</time></trkpt><trkpt lat="31.1732839" lon="35.7041813"><ele>951.4</ele><time>2015-11-22T05:33:09.0000000+00:00</time></trkpt><trkpt lat="31.1732438" lon="35.7042052"><ele>951.4</ele><time>2015-11-22T05:33:12.0000000+00:00</time></trkpt><trkpt lat="31.1732055" lon="35.7042395"><ele>950.7</ele><time>2015-11-22T05:33:15.0000000+00:00</time></trkpt><trkpt lat="31.1731538" lon="35.704262"><ele>950.9</ele><time>2015-11-22T05:33:18.0000000+00:00</time></trkpt><trkpt lat="31.1730982" lon="35.7042915"><ele>951.3</ele><time>2015-11-22T05:33:21.0000000+00:00</time></trkpt><trkpt lat="31.1730408" lon="35.7043258"><ele>951.4</ele><time>2015-11-22T05:33:24.0000000+00:00</time></trkpt><trkpt lat="31.1729858" lon="35.7043641"><ele>951.4</ele><time>2015-11-22T05:33:27.0000000+00:00</time></trkpt><trkpt lat="31.1729322" lon="35.7043977"><ele>951.9</ele><time>2015-11-22T05:33:30.0000000+00:00</time></trkpt><trkpt lat="31.1728758" lon="35.7044254"><ele>952.3</ele><time>2015-11-22T05:33:33.0000000+00:00</time></trkpt><trkpt lat="31.1728179" lon="35.704447"><ele>952.4</ele><time>2015-11-22T05:33:36.0000000+00:00</time></trkpt><trkpt lat="31.1727589" lon="35.7044713"><ele>951.9</ele><time>2015-11-22T05:33:39.0000000+00:00</time></trkpt><trkpt lat="31.1727018" lon="35.704498"><ele>953.6</ele><time>2015-11-22T05:33:42.0000000+00:00</time></trkpt><trkpt lat="31.1726395" lon="35.7045042"><ele>956.3</ele><time>2015-11-22T05:33:45.0000000+00:00</time></trkpt><trkpt lat="31.1725798" lon="35.7044935"><ele>958.5</ele><time>2015-11-22T05:33:48.0000000+00:00</time></trkpt><trkpt lat="31.1725301" lon="35.7044714"><ele>959.3</ele><time>2015-11-22T05:33:51.0000000+00:00</time></trkpt><trkpt lat="31.1724877" lon="35.7044433"><ele>960.3</ele><time>2015-11-22T05:33:54.0000000+00:00</time></trkpt><trkpt lat="31.172444" lon="35.7044215"><ele>961.5</ele><time>2015-11-22T05:33:57.0000000+00:00</time></trkpt><trkpt lat="31.1723978" lon="35.7044002"><ele>960.7</ele><time>2015-11-22T05:34:00.0000000+00:00</time></trkpt><trkpt lat="31.1723478" lon="35.7043716"><ele>961.7</ele><time>2015-11-22T05:34:03.0000000+00:00</time></trkpt><trkpt lat="31.1722955" lon="35.7043402"><ele>964.6</ele><time>2015-11-22T05:34:06.0000000+00:00</time></trkpt><trkpt lat="31.1722453" lon="35.7043089"><ele>965.0</ele><time>2015-11-22T05:34:09.0000000+00:00</time></trkpt><trkpt lat="31.1722052" lon="35.7042721"><ele>966.1</ele><time>2015-11-22T05:34:12.0000000+00:00</time></trkpt><trkpt lat="31.1721602" lon="35.7042459"><ele>966.4</ele><time>2015-11-22T05:34:15.0000000+00:00</time></trkpt><trkpt lat="31.1721109" lon="35.7042225"><ele>966.8</ele><time>2015-11-22T05:34:18.0000000+00:00</time></trkpt><trkpt lat="31.1720666" lon="35.7041957"><ele>966.3</ele><time>2015-11-22T05:34:21.0000000+00:00</time></trkpt><trkpt lat="31.1720198" lon="35.7041644"><ele>967.3</ele><time>2015-11-22T05:34:24.0000000+00:00</time></trkpt><trkpt lat="31.171973" lon="35.704133"><ele>967.4</ele><time>2015-11-22T05:34:27.0000000+00:00</time></trkpt><trkpt lat="31.1719256" lon="35.7041044"><ele>968.3</ele><time>2015-11-22T05:34:30.0000000+00:00</time></trkpt><trkpt lat="31.1718769" lon="35.7040798"><ele>967.1</ele><time>2015-11-22T05:34:33.0000000+00:00</time></trkpt><trkpt lat="31.1718234" lon="35.7040629"><ele>966.5</ele><time>2015-11-22T05:34:36.0000000+00:00</time></trkpt><trkpt lat="31.1717668" lon="35.7040393"><ele>966.4</ele><time>2015-11-22T05:34:39.0000000+00:00</time></trkpt><trkpt lat="31.1717054" lon="35.7040175"><ele>966.3</ele><time>2015-11-22T05:34:42.0000000+00:00</time></trkpt><trkpt lat="31.1716613" lon="35.7040031"><ele>967.6</ele><time>2015-11-22T05:34:44.0000000+00:00</time></trkpt><trkpt lat="31.1716147" lon="35.7039911"><ele>968.2</ele><time>2015-11-22T05:34:46.0000000+00:00</time></trkpt><trkpt lat="31.1715681" lon="35.7039824"><ele>967.6</ele><time>2015-11-22T05:34:48.0000000+00:00</time></trkpt><trkpt lat="31.1715204" lon="35.7039702"><ele>967.5</ele><time>2015-11-22T05:34:50.0000000+00:00</time></trkpt><trkpt lat="31.1714734" lon="35.7039577"><ele>968.2</ele><time>2015-11-22T05:34:52.0000000+00:00</time></trkpt><trkpt lat="31.1714283" lon="35.7039478"><ele>967.6</ele><time>2015-11-22T05:34:54.0000000+00:00</time></trkpt><trkpt lat="31.1713636" lon="35.7039374"><ele>967.4</ele><time>2015-11-22T05:34:57.0000000+00:00</time></trkpt><trkpt lat="31.1713185" lon="35.7039289"><ele>967.4</ele><time>2015-11-22T05:34:59.0000000+00:00</time></trkpt><trkpt lat="31.171273" lon="35.7039132"><ele>967.9</ele><time>2015-11-22T05:35:01.0000000+00:00</time></trkpt><trkpt lat="31.1712293" lon="35.7039001"><ele>963.0</ele><time>2015-11-22T05:35:03.0000000+00:00</time></trkpt><trkpt lat="31.1711841" lon="35.7038848"><ele>959.1</ele><time>2015-11-22T05:35:05.0000000+00:00</time></trkpt><trkpt lat="31.1711368" lon="35.7038701"><ele>957.1</ele><time>2015-11-22T05:35:07.0000000+00:00</time></trkpt><trkpt lat="31.1710878" lon="35.7038627"><ele>956.6</ele><time>2015-11-22T05:35:09.0000000+00:00</time></trkpt><trkpt lat="31.1710373" lon="35.7038617"><ele>956.4</ele><time>2015-11-22T05:35:11.0000000+00:00</time></trkpt><trkpt lat="31.1709854" lon="35.7038628"><ele>956.4</ele><time>2015-11-22T05:35:13.0000000+00:00</time></trkpt><trkpt lat="31.1709334" lon="35.7038566"><ele>957.2</ele><time>2015-11-22T05:35:15.0000000+00:00</time></trkpt><trkpt lat="31.1708828" lon="35.703854"><ele>957.3</ele><time>2015-11-22T05:35:17.0000000+00:00</time></trkpt><trkpt lat="31.1708344" lon="35.7038564"><ele>957.1</ele><time>2015-11-22T05:35:19.0000000+00:00</time></trkpt><trkpt lat="31.1707875" lon="35.7038567"><ele>957.3</ele><time>2015-11-22T05:35:21.0000000+00:00</time></trkpt><trkpt lat="31.1707411" lon="35.7038557"><ele>957.6</ele><time>2015-11-22T05:35:23.0000000+00:00</time></trkpt><trkpt lat="31.170694" lon="35.703859"><ele>957.5</ele><time>2015-11-22T05:35:25.0000000+00:00</time></trkpt><trkpt lat="31.1706453" lon="35.7038642"><ele>957.9</ele><time>2015-11-22T05:35:27.0000000+00:00</time></trkpt><trkpt lat="31.1705956" lon="35.7038685"><ele>957.5</ele><time>2015-11-22T05:35:29.0000000+00:00</time></trkpt><trkpt lat="31.1705438" lon="35.7038727"><ele>956.7</ele><time>2015-11-22T05:35:31.0000000+00:00</time></trkpt><trkpt lat="31.1704922" lon="35.7038783"><ele>956.2</ele><time>2015-11-22T05:35:33.0000000+00:00</time></trkpt><trkpt lat="31.1704407" lon="35.7038807"><ele>956.4</ele><time>2015-11-22T05:35:35.0000000+00:00</time></trkpt><trkpt lat="31.1703893" lon="35.7038823"><ele>956.6</ele><time>2015-11-22T05:35:37.0000000+00:00</time></trkpt><trkpt lat="31.1703368" lon="35.7038848"><ele>957.2</ele><time>2015-11-22T05:35:39.0000000+00:00</time></trkpt><trkpt lat="31.1702838" lon="35.7038824"><ele>958.1</ele><time>2015-11-22T05:35:41.0000000+00:00</time></trkpt><trkpt lat="31.1702294" lon="35.7038816"><ele>957.8</ele><time>2015-11-22T05:35:43.0000000+00:00</time></trkpt><trkpt lat="31.1701758" lon="35.7038796"><ele>958.3</ele><time>2015-11-22T05:35:45.0000000+00:00</time></trkpt><trkpt lat="31.17012" lon="35.7038766"><ele>959.1</ele><time>2015-11-22T05:35:47.0000000+00:00</time></trkpt><trkpt lat="31.170066" lon="35.7038786"><ele>958.6</ele><time>2015-11-22T05:35:49.0000000+00:00</time></trkpt><trkpt lat="31.1700125" lon="35.7038848"><ele>957.9</ele><time>2015-11-22T05:35:51.0000000+00:00</time></trkpt><trkpt lat="31.1699574" lon="35.7038908"><ele>958.3</ele><time>2015-11-22T05:35:53.0000000+00:00</time></trkpt><trkpt lat="31.1699025" lon="35.7038948"><ele>958.4</ele><time>2015-11-22T05:35:55.0000000+00:00</time></trkpt><trkpt lat="31.1698511" lon="35.7038947"><ele>958.9</ele><time>2015-11-22T05:35:57.0000000+00:00</time></trkpt><trkpt lat="31.1698005" lon="35.703897"><ele>958.5</ele><time>2015-11-22T05:35:59.0000000+00:00</time></trkpt><trkpt lat="31.1697516" lon="35.7038974"><ele>958.4</ele><time>2015-11-22T05:36:01.0000000+00:00</time></trkpt><trkpt lat="31.1697033" lon="35.7038971"><ele>959.2</ele><time>2015-11-22T05:36:03.0000000+00:00</time></trkpt><trkpt lat="31.1696546" lon="35.7038909"><ele>958.8</ele><time>2015-11-22T05:36:05.0000000+00:00</time></trkpt><trkpt lat="31.1696056" lon="35.7038876"><ele>957.8</ele><time>2015-11-22T05:36:07.0000000+00:00</time></trkpt><trkpt lat="31.1695577" lon="35.7038895"><ele>957.5</ele><time>2015-11-22T05:36:09.0000000+00:00</time></trkpt><trkpt lat="31.1695092" lon="35.7038938"><ele>956.7</ele><time>2015-11-22T05:36:11.0000000+00:00</time></trkpt><trkpt lat="31.1694595" lon="35.7038907"><ele>956.5</ele><time>2015-11-22T05:36:13.0000000+00:00</time></trkpt><trkpt lat="31.1694116" lon="35.7038836"><ele>956.9</ele><time>2015-11-22T05:36:15.0000000+00:00</time></trkpt><trkpt lat="31.1693644" lon="35.7038772"><ele>957.3</ele><time>2015-11-22T05:36:17.0000000+00:00</time></trkpt><trkpt lat="31.1693177" lon="35.7038673"><ele>957.4</ele><time>2015-11-22T05:36:19.0000000+00:00</time></trkpt><trkpt lat="31.1692705" lon="35.7038585"><ele>958.1</ele><time>2015-11-22T05:36:21.0000000+00:00</time></trkpt><trkpt lat="31.1692244" lon="35.7038522"><ele>958.3</ele><time>2015-11-22T05:36:23.0000000+00:00</time></trkpt><trkpt lat="31.1691783" lon="35.703838"><ele>957.6</ele><time>2015-11-22T05:36:25.0000000+00:00</time></trkpt><trkpt lat="31.1691328" lon="35.7038245"><ele>958.2</ele><time>2015-11-22T05:36:27.0000000+00:00</time></trkpt><trkpt lat="31.1690873" lon="35.7038096"><ele>958.4</ele><time>2015-11-22T05:36:29.0000000+00:00</time></trkpt><trkpt lat="31.1690425" lon="35.7037894"><ele>958.1</ele><time>2015-11-22T05:36:31.0000000+00:00</time></trkpt><trkpt lat="31.1689973" lon="35.7037783"><ele>957.6</ele><time>2015-11-22T05:36:33.0000000+00:00</time></trkpt><trkpt lat="31.1689324" lon="35.7037626"><ele>957.6</ele><time>2015-11-22T05:36:36.0000000+00:00</time></trkpt><trkpt lat="31.1688809" lon="35.7037464"><ele>956.4</ele><time>2015-11-22T05:36:39.0000000+00:00</time></trkpt><trkpt lat="31.1688325" lon="35.7037273"><ele>957.3</ele><time>2015-11-22T05:36:42.0000000+00:00</time></trkpt><trkpt lat="31.1687826" lon="35.7037076"><ele>958.0</ele><time>2015-11-22T05:36:45.0000000+00:00</time></trkpt><trkpt lat="31.168739" lon="35.7036848"><ele>957.6</ele><time>2015-11-22T05:36:48.0000000+00:00</time></trkpt><trkpt lat="31.1686927" lon="35.7036612"><ele>956.9</ele><time>2015-11-22T05:36:51.0000000+00:00</time></trkpt><trkpt lat="31.1686433" lon="35.7036385"><ele>957.0</ele><time>2015-11-22T05:36:54.0000000+00:00</time></trkpt><trkpt lat="31.168593" lon="35.7036111"><ele>959.5</ele><time>2015-11-22T05:36:57.0000000+00:00</time></trkpt><trkpt lat="31.1685421" lon="35.7035764"><ele>961.0</ele><time>2015-11-22T05:37:00.0000000+00:00</time></trkpt><trkpt lat="31.1684913" lon="35.7035506"><ele>962.1</ele><time>2015-11-22T05:37:03.0000000+00:00</time></trkpt><trkpt lat="31.1684423" lon="35.7035293"><ele>962.4</ele><time>2015-11-22T05:37:06.0000000+00:00</time></trkpt><trkpt lat="31.1683962" lon="35.7035042"><ele>962.1</ele><time>2015-11-22T05:37:09.0000000+00:00</time></trkpt><trkpt lat="31.1683443" lon="35.7034798"><ele>961.1</ele><time>2015-11-22T05:37:12.0000000+00:00</time></trkpt><trkpt lat="31.1682932" lon="35.7034581"><ele>960.6</ele><time>2015-11-22T05:37:15.0000000+00:00</time></trkpt><trkpt lat="31.1682407" lon="35.7034379"><ele>960.2</ele><time>2015-11-22T05:37:18.0000000+00:00</time></trkpt><trkpt lat="31.1681862" lon="35.703415"><ele>962.0</ele><time>2015-11-22T05:37:21.0000000+00:00</time></trkpt><trkpt lat="31.1681335" lon="35.7033914"><ele>963.1</ele><time>2015-11-22T05:37:24.0000000+00:00</time></trkpt><trkpt lat="31.1680824" lon="35.7033779"><ele>962.2</ele><time>2015-11-22T05:37:27.0000000+00:00</time></trkpt><trkpt lat="31.1680326" lon="35.7033601"><ele>964.3</ele><time>2015-11-22T05:37:30.0000000+00:00</time></trkpt><trkpt lat="31.1679836" lon="35.703352"><ele>964.9</ele><time>2015-11-22T05:37:33.0000000+00:00</time></trkpt><trkpt lat="31.1679336" lon="35.7033435"><ele>964.3</ele><time>2015-11-22T05:37:36.0000000+00:00</time></trkpt><trkpt lat="31.1678833" lon="35.7033271"><ele>961.3</ele><time>2015-11-22T05:37:39.0000000+00:00</time></trkpt><trkpt lat="31.167829" lon="35.7033119"><ele>960.4</ele><time>2015-11-22T05:37:42.0000000+00:00</time></trkpt><trkpt lat="31.1677707" lon="35.7032953"><ele>960.4</ele><time>2015-11-22T05:37:45.0000000+00:00</time></trkpt><trkpt lat="31.1677075" lon="35.7032785"><ele>960.3</ele><time>2015-11-22T05:37:48.0000000+00:00</time></trkpt><trkpt lat="31.1676626" lon="35.7032633"><ele>960.4</ele><time>2015-11-22T05:37:50.0000000+00:00</time></trkpt><trkpt lat="31.1676169" lon="35.7032497"><ele>960.9</ele><time>2015-11-22T05:37:52.0000000+00:00</time></trkpt><trkpt lat="31.1675688" lon="35.7032377"><ele>962.0</ele><time>2015-11-22T05:37:54.0000000+00:00</time></trkpt><trkpt lat="31.1675228" lon="35.7032279"><ele>960.8</ele><time>2015-11-22T05:37:56.0000000+00:00</time></trkpt><trkpt lat="31.1674746" lon="35.7032138"><ele>962.0</ele><time>2015-11-22T05:37:58.0000000+00:00</time></trkpt><trkpt lat="31.167428" lon="35.7031976"><ele>961.6</ele><time>2015-11-22T05:38:00.0000000+00:00</time></trkpt><trkpt lat="31.1673816" lon="35.7031866"><ele>960.9</ele><time>2015-11-22T05:38:02.0000000+00:00</time></trkpt><trkpt lat="31.1673337" lon="35.7031738"><ele>961.8</ele><time>2015-11-22T05:38:04.0000000+00:00</time></trkpt><trkpt lat="31.1672869" lon="35.7031588"><ele>961.7</ele><time>2015-11-22T05:38:06.0000000+00:00</time></trkpt><trkpt lat="31.1672416" lon="35.7031453"><ele>963.5</ele><time>2015-11-22T05:38:08.0000000+00:00</time></trkpt><trkpt lat="31.1671973" lon="35.703131"><ele>963.2</ele><time>2015-11-22T05:38:10.0000000+00:00</time></trkpt><trkpt lat="31.1671509" lon="35.7031176"><ele>963.3</ele><time>2015-11-22T05:38:12.0000000+00:00</time></trkpt><trkpt lat="31.1671041" lon="35.7031038"><ele>964.4</ele><time>2015-11-22T05:38:14.0000000+00:00</time></trkpt><trkpt lat="31.1670568" lon="35.7030848"><ele>964.1</ele><time>2015-11-22T05:38:16.0000000+00:00</time></trkpt><trkpt lat="31.1670104" lon="35.7030715"><ele>962.8</ele><time>2015-11-22T05:38:18.0000000+00:00</time></trkpt><trkpt lat="31.1669468" lon="35.7030543"><ele>962.2</ele><time>2015-11-22T05:38:21.0000000+00:00</time></trkpt><trkpt lat="31.1668882" lon="35.7030429"><ele>964.4</ele><time>2015-11-22T05:38:24.0000000+00:00</time></trkpt><trkpt lat="31.1668301" lon="35.703034"><ele>963.3</ele><time>2015-11-22T05:38:27.0000000+00:00</time></trkpt><trkpt lat="31.1667741" lon="35.7030187"><ele>962.3</ele><time>2015-11-22T05:38:30.0000000+00:00</time></trkpt><trkpt lat="31.1667174" lon="35.7029962"><ele>963.6</ele><time>2015-11-22T05:38:33.0000000+00:00</time></trkpt><trkpt lat="31.1666593" lon="35.702981"><ele>963.6</ele><time>2015-11-22T05:38:36.0000000+00:00</time></trkpt><trkpt lat="31.1666007" lon="35.7029546"><ele>962.4</ele><time>2015-11-22T05:38:39.0000000+00:00</time></trkpt><trkpt lat="31.1665592" lon="35.7029298"><ele>961.9</ele><time>2015-11-22T05:38:41.0000000+00:00</time></trkpt><trkpt lat="31.1664947" lon="35.7029116"><ele>977.2</ele><time>2015-11-22T05:38:44.0000000+00:00</time></trkpt><trkpt lat="31.1664314" lon="35.7028922"><ele>988.9</ele><time>2015-11-22T05:38:47.0000000+00:00</time></trkpt><trkpt lat="31.1663715" lon="35.7028821"><ele>993.3</ele><time>2015-11-22T05:38:50.0000000+00:00</time></trkpt><trkpt lat="31.1663125" lon="35.702858"><ele>996.4</ele><time>2015-11-22T05:38:53.0000000+00:00</time></trkpt><trkpt lat="31.166253" lon="35.7028394"><ele>996.4</ele><time>2015-11-22T05:38:56.0000000+00:00</time></trkpt><trkpt lat="31.1661951" lon="35.7028309"><ele>996.4</ele><time>2015-11-22T05:38:59.0000000+00:00</time></trkpt><trkpt lat="31.166136" lon="35.7028206"><ele>997.3</ele><time>2015-11-22T05:39:02.0000000+00:00</time></trkpt><trkpt lat="31.1660756" lon="35.7028058"><ele>998.1</ele><time>2015-11-22T05:39:05.0000000+00:00</time></trkpt><trkpt lat="31.1660174" lon="35.7027884"><ele>998.7</ele><time>2015-11-22T05:39:08.0000000+00:00</time></trkpt><trkpt lat="31.1659578" lon="35.7027827"><ele>999.2</ele><time>2015-11-22T05:39:11.0000000+00:00</time></trkpt><trkpt lat="31.1658999" lon="35.7027744"><ele>979.4</ele><time>2015-11-22T05:39:14.0000000+00:00</time></trkpt><trkpt lat="31.1658417" lon="35.7027586"><ele>972.3</ele><time>2015-11-22T05:39:17.0000000+00:00</time></trkpt><trkpt lat="31.165787" lon="35.7027438"><ele>972.9</ele><time>2015-11-22T05:39:20.0000000+00:00</time></trkpt><trkpt lat="31.1657313" lon="35.7027309"><ele>973.6</ele><time>2015-11-22T05:39:23.0000000+00:00</time></trkpt><trkpt lat="31.1656776" lon="35.702723"><ele>976.3</ele><time>2015-11-22T05:39:26.0000000+00:00</time></trkpt><trkpt lat="31.1656265" lon="35.7027114"><ele>975.6</ele><time>2015-11-22T05:39:29.0000000+00:00</time></trkpt><trkpt lat="31.1655783" lon="35.7026964"><ele>974.7</ele><time>2015-11-22T05:39:32.0000000+00:00</time></trkpt><trkpt lat="31.1655281" lon="35.702683"><ele>973.9</ele><time>2015-11-22T05:39:35.0000000+00:00</time></trkpt><trkpt lat="31.1654788" lon="35.7026676"><ele>973.5</ele><time>2015-11-22T05:39:38.0000000+00:00</time></trkpt><trkpt lat="31.1654307" lon="35.7026534"><ele>973.9</ele><time>2015-11-22T05:39:41.0000000+00:00</time></trkpt><trkpt lat="31.1653806" lon="35.702645"><ele>974.1</ele><time>2015-11-22T05:39:44.0000000+00:00</time></trkpt><trkpt lat="31.1653313" lon="35.7026385"><ele>973.4</ele><time>2015-11-22T05:39:47.0000000+00:00</time></trkpt><trkpt lat="31.1652807" lon="35.7026217"><ele>972.9</ele><time>2015-11-22T05:39:50.0000000+00:00</time></trkpt><trkpt lat="31.1652299" lon="35.7025997"><ele>974.3</ele><time>2015-11-22T05:39:53.0000000+00:00</time></trkpt><trkpt lat="31.1651783" lon="35.7025889"><ele>974.0</ele><time>2015-11-22T05:39:56.0000000+00:00</time></trkpt><trkpt lat="31.1651259" lon="35.7025729"><ele>971.9</ele><time>2015-11-22T05:39:59.0000000+00:00</time></trkpt><trkpt lat="31.1650744" lon="35.7025515"><ele>972.8</ele><time>2015-11-22T05:40:02.0000000+00:00</time></trkpt><trkpt lat="31.1650195" lon="35.7025282"><ele>974.1</ele><time>2015-11-22T05:40:05.0000000+00:00</time></trkpt><trkpt lat="31.1649637" lon="35.7025076"><ele>975.5</ele><time>2015-11-22T05:40:08.0000000+00:00</time></trkpt><trkpt lat="31.1649115" lon="35.7024832"><ele>975.8</ele><time>2015-11-22T05:40:11.0000000+00:00</time></trkpt><trkpt lat="31.1648573" lon="35.7024617"><ele>975.6</ele><time>2015-11-22T05:40:14.0000000+00:00</time></trkpt><trkpt lat="31.1648023" lon="35.70244"><ele>976.4</ele><time>2015-11-22T05:40:17.0000000+00:00</time></trkpt><trkpt lat="31.1647466" lon="35.7024135"><ele>974.8</ele><time>2015-11-22T05:40:20.0000000+00:00</time></trkpt><trkpt lat="31.1646894" lon="35.7023872"><ele>975.2</ele><time>2015-11-22T05:40:23.0000000+00:00</time></trkpt><trkpt lat="31.1646325" lon="35.702359"><ele>977.0</ele><time>2015-11-22T05:40:26.0000000+00:00</time></trkpt><trkpt lat="31.1645732" lon="35.7023313"><ele>977.2</ele><time>2015-11-22T05:40:29.0000000+00:00</time></trkpt><trkpt lat="31.1645189" lon="35.7022962"><ele>978.1</ele><time>2015-11-22T05:40:32.0000000+00:00</time></trkpt><trkpt lat="31.1644637" lon="35.7022685"><ele>978.1</ele><time>2015-11-22T05:40:35.0000000+00:00</time></trkpt><trkpt lat="31.1644132" lon="35.7022284"><ele>980.7</ele><time>2015-11-22T05:40:38.0000000+00:00</time></trkpt><trkpt lat="31.1643605" lon="35.7021862"><ele>981.8</ele><time>2015-11-22T05:40:41.0000000+00:00</time></trkpt><trkpt lat="31.1643266" lon="35.702151"><ele>981.0</ele><time>2015-11-22T05:40:43.0000000+00:00</time></trkpt><trkpt lat="31.1642909" lon="35.7021152"><ele>981.8</ele><time>2015-11-22T05:40:45.0000000+00:00</time></trkpt><trkpt lat="31.1642561" lon="35.702078"><ele>982.8</ele><time>2015-11-22T05:40:47.0000000+00:00</time></trkpt><trkpt lat="31.1642203" lon="35.7020371"><ele>984.0</ele><time>2015-11-22T05:40:49.0000000+00:00</time></trkpt><trkpt lat="31.164183" lon="35.7019965"><ele>985.0</ele><time>2015-11-22T05:40:51.0000000+00:00</time></trkpt><trkpt lat="31.1641451" lon="35.7019526"><ele>987.1</ele><time>2015-11-22T05:40:53.0000000+00:00</time></trkpt><trkpt lat="31.1641054" lon="35.7019076"><ele>986.1</ele><time>2015-11-22T05:40:55.0000000+00:00</time></trkpt><trkpt lat="31.16406" lon="35.7018631"><ele>985.3</ele><time>2015-11-22T05:40:57.0000000+00:00</time></trkpt><trkpt lat="31.164016" lon="35.7018173"><ele>984.6</ele><time>2015-11-22T05:40:59.0000000+00:00</time></trkpt><trkpt lat="31.1639723" lon="35.7017704"><ele>984.7</ele><time>2015-11-22T05:41:01.0000000+00:00</time></trkpt><trkpt lat="31.163927" lon="35.7017259"><ele>985.5</ele><time>2015-11-22T05:41:03.0000000+00:00</time></trkpt><trkpt lat="31.1638848" lon="35.701681"><ele>985.2</ele><time>2015-11-22T05:41:05.0000000+00:00</time></trkpt><trkpt lat="31.1638452" lon="35.7016329"><ele>984.3</ele><time>2015-11-22T05:41:07.0000000+00:00</time></trkpt><trkpt lat="31.1638047" lon="35.7015845"><ele>983.1</ele><time>2015-11-22T05:41:09.0000000+00:00</time></trkpt><trkpt lat="31.1637628" lon="35.7015348"><ele>983.3</ele><time>2015-11-22T05:41:11.0000000+00:00</time></trkpt><trkpt lat="31.1637203" lon="35.7014822"><ele>983.6</ele><time>2015-11-22T05:41:13.0000000+00:00</time></trkpt><trkpt lat="31.1636788" lon="35.7014307"><ele>982.2</ele><time>2015-11-22T05:41:15.0000000+00:00</time></trkpt><trkpt lat="31.1636362" lon="35.7013773"><ele>984.6</ele><time>2015-11-22T05:41:17.0000000+00:00</time></trkpt><trkpt lat="31.1635926" lon="35.7013298"><ele>983.7</ele><time>2015-11-22T05:41:19.0000000+00:00</time></trkpt><trkpt lat="31.163555" lon="35.701282"><ele>980.7</ele><time>2015-11-22T05:41:21.0000000+00:00</time></trkpt><trkpt lat="31.1635196" lon="35.7012327"><ele>981.7</ele><time>2015-11-22T05:41:23.0000000+00:00</time></trkpt><trkpt lat="31.1634792" lon="35.7011888"><ele>982.0</ele><time>2015-11-22T05:41:25.0000000+00:00</time></trkpt><trkpt lat="31.1634394" lon="35.7011488"><ele>984.3</ele><time>2015-11-22T05:41:27.0000000+00:00</time></trkpt><trkpt lat="31.1634048" lon="35.7011092"><ele>985.4</ele><time>2015-11-22T05:41:29.0000000+00:00</time></trkpt><trkpt lat="31.1633699" lon="35.7010665"><ele>984.6</ele><time>2015-11-22T05:41:31.0000000+00:00</time></trkpt><trkpt lat="31.1633294" lon="35.7010281"><ele>984.0</ele><time>2015-11-22T05:41:33.0000000+00:00</time></trkpt><trkpt lat="31.1632828" lon="35.7009946"><ele>983.8</ele><time>2015-11-22T05:41:35.0000000+00:00</time></trkpt><trkpt lat="31.1632395" lon="35.7009527"><ele>985.7</ele><time>2015-11-22T05:41:37.0000000+00:00</time></trkpt><trkpt lat="31.1631969" lon="35.7009074"><ele>987.7</ele><time>2015-11-22T05:41:39.0000000+00:00</time></trkpt><trkpt lat="31.163154" lon="35.7008635"><ele>990.0</ele><time>2015-11-22T05:41:41.0000000+00:00</time></trkpt><trkpt lat="31.1631125" lon="35.7008206"><ele>986.8</ele><time>2015-11-22T05:41:43.0000000+00:00</time></trkpt><trkpt lat="31.1630753" lon="35.7007801"><ele>985.5</ele><time>2015-11-22T05:41:45.0000000+00:00</time></trkpt><trkpt lat="31.1630397" lon="35.7007431"><ele>983.9</ele><time>2015-11-22T05:41:47.0000000+00:00</time></trkpt><trkpt lat="31.1630074" lon="35.7007021"><ele>983.5</ele><time>2015-11-22T05:41:49.0000000+00:00</time></trkpt><trkpt lat="31.1629741" lon="35.7006649"><ele>981.7</ele><time>2015-11-22T05:41:51.0000000+00:00</time></trkpt><trkpt lat="31.1629424" lon="35.700623"><ele>979.5</ele><time>2015-11-22T05:41:53.0000000+00:00</time></trkpt><trkpt lat="31.1629136" lon="35.7005786"><ele>978.2</ele><time>2015-11-22T05:41:55.0000000+00:00</time></trkpt><trkpt lat="31.1628813" lon="35.7005366"><ele>977.6</ele><time>2015-11-22T05:41:57.0000000+00:00</time></trkpt><trkpt lat="31.1628451" lon="35.7005008"><ele>979.0</ele><time>2015-11-22T05:41:59.0000000+00:00</time></trkpt><trkpt lat="31.1628093" lon="35.7004655"><ele>982.6</ele><time>2015-11-22T05:42:01.0000000+00:00</time></trkpt><trkpt lat="31.1627747" lon="35.7004252"><ele>986.7</ele><time>2015-11-22T05:42:03.0000000+00:00</time></trkpt><trkpt lat="31.1627394" lon="35.7003843"><ele>990.2</ele><time>2015-11-22T05:42:05.0000000+00:00</time></trkpt><trkpt lat="31.1627035" lon="35.7003442"><ele>987.9</ele><time>2015-11-22T05:42:07.0000000+00:00</time></trkpt><trkpt lat="31.1626668" lon="35.7003094"><ele>985.3</ele><time>2015-11-22T05:42:09.0000000+00:00</time></trkpt><trkpt lat="31.1626181" lon="35.7002563"><ele>984.6</ele><time>2015-11-22T05:42:12.0000000+00:00</time></trkpt><trkpt lat="31.1625685" lon="35.7002129"><ele>983.9</ele><time>2015-11-22T05:42:15.0000000+00:00</time></trkpt><trkpt lat="31.1625176" lon="35.700169"><ele>988.0</ele><time>2015-11-22T05:42:18.0000000+00:00</time></trkpt><trkpt lat="31.1624661" lon="35.7001225"><ele>988.6</ele><time>2015-11-22T05:42:21.0000000+00:00</time></trkpt><trkpt lat="31.1624282" lon="35.7000868"><ele>989.5</ele><time>2015-11-22T05:42:23.0000000+00:00</time></trkpt><trkpt lat="31.1623905" lon="35.7000473"><ele>990.9</ele><time>2015-11-22T05:42:25.0000000+00:00</time></trkpt><trkpt lat="31.1623536" lon="35.700007"><ele>988.5</ele><time>2015-11-22T05:42:27.0000000+00:00</time></trkpt><trkpt lat="31.1623163" lon="35.6999712"><ele>987.4</ele><time>2015-11-22T05:42:29.0000000+00:00</time></trkpt><trkpt lat="31.1622737" lon="35.6999412"><ele>985.9</ele><time>2015-11-22T05:42:31.0000000+00:00</time></trkpt><trkpt lat="31.1622326" lon="35.6999145"><ele>984.3</ele><time>2015-11-22T05:42:33.0000000+00:00</time></trkpt><trkpt lat="31.1621905" lon="35.6998878"><ele>982.9</ele><time>2015-11-22T05:42:35.0000000+00:00</time></trkpt><trkpt lat="31.1621487" lon="35.6998625"><ele>980.8</ele><time>2015-11-22T05:42:37.0000000+00:00</time></trkpt><trkpt lat="31.1621062" lon="35.6998377"><ele>981.5</ele><time>2015-11-22T05:42:39.0000000+00:00</time></trkpt><trkpt lat="31.1620623" lon="35.6998144"><ele>980.7</ele><time>2015-11-22T05:42:41.0000000+00:00</time></trkpt><trkpt lat="31.1620183" lon="35.6997949"><ele>980.2</ele><time>2015-11-22T05:42:43.0000000+00:00</time></trkpt><trkpt lat="31.1619729" lon="35.6997748"><ele>980.6</ele><time>2015-11-22T05:42:45.0000000+00:00</time></trkpt><trkpt lat="31.1619258" lon="35.6997587"><ele>981.0</ele><time>2015-11-22T05:42:47.0000000+00:00</time></trkpt><trkpt lat="31.1618807" lon="35.6997412"><ele>982.5</ele><time>2015-11-22T05:42:49.0000000+00:00</time></trkpt><trkpt lat="31.1618362" lon="35.6997247"><ele>984.7</ele><time>2015-11-22T05:42:51.0000000+00:00</time></trkpt><trkpt lat="31.1617903" lon="35.6997074"><ele>986.2</ele><time>2015-11-22T05:42:53.0000000+00:00</time></trkpt><trkpt lat="31.1617438" lon="35.6996882"><ele>983.9</ele><time>2015-11-22T05:42:55.0000000+00:00</time></trkpt><trkpt lat="31.1616967" lon="35.6996685"><ele>981.5</ele><time>2015-11-22T05:42:57.0000000+00:00</time></trkpt><trkpt lat="31.1616505" lon="35.699649"><ele>979.7</ele><time>2015-11-22T05:42:59.0000000+00:00</time></trkpt><trkpt lat="31.1616033" lon="35.6996299"><ele>982.2</ele><time>2015-11-22T05:43:01.0000000+00:00</time></trkpt><trkpt lat="31.1615564" lon="35.6996117"><ele>982.4</ele><time>2015-11-22T05:43:03.0000000+00:00</time></trkpt><trkpt lat="31.1615093" lon="35.6995939"><ele>983.1</ele><time>2015-11-22T05:43:05.0000000+00:00</time></trkpt><trkpt lat="31.1614636" lon="35.6995817"><ele>984.1</ele><time>2015-11-22T05:43:07.0000000+00:00</time></trkpt><trkpt lat="31.1614181" lon="35.6995698"><ele>985.1</ele><time>2015-11-22T05:43:09.0000000+00:00</time></trkpt><trkpt lat="31.1613724" lon="35.6995574"><ele>986.6</ele><time>2015-11-22T05:43:11.0000000+00:00</time></trkpt><trkpt lat="31.1613256" lon="35.6995459"><ele>989.2</ele><time>2015-11-22T05:43:13.0000000+00:00</time></trkpt><trkpt lat="31.1612812" lon="35.6995358"><ele>992.3</ele><time>2015-11-22T05:43:15.0000000+00:00</time></trkpt><trkpt lat="31.1612361" lon="35.6995353"><ele>993.9</ele><time>2015-11-22T05:43:17.0000000+00:00</time></trkpt><trkpt lat="31.1611908" lon="35.6995248"><ele>996.0</ele><time>2015-11-22T05:43:19.0000000+00:00</time></trkpt><trkpt lat="31.1611452" lon="35.6995072"><ele>992.8</ele><time>2015-11-22T05:43:21.0000000+00:00</time></trkpt><trkpt lat="31.1610976" lon="35.6994898"><ele>993.3</ele><time>2015-11-22T05:43:23.0000000+00:00</time></trkpt><trkpt lat="31.1610493" lon="35.6994788"><ele>992.9</ele><time>2015-11-22T05:43:25.0000000+00:00</time></trkpt><trkpt lat="31.1610021" lon="35.6994753"><ele>992.8</ele><time>2015-11-22T05:43:27.0000000+00:00</time></trkpt><trkpt lat="31.1609376" lon="35.699464"><ele>993.1</ele><time>2015-11-22T05:43:30.0000000+00:00</time></trkpt><trkpt lat="31.1608935" lon="35.6994537"><ele>989.1</ele><time>2015-11-22T05:43:32.0000000+00:00</time></trkpt><trkpt lat="31.1608299" lon="35.699436"><ele>991.2</ele><time>2015-11-22T05:43:35.0000000+00:00</time></trkpt><trkpt lat="31.1607646" lon="35.6994181"><ele>992.3</ele><time>2015-11-22T05:43:38.0000000+00:00</time></trkpt><trkpt lat="31.1607186" lon="35.6994089"><ele>994.6</ele><time>2015-11-22T05:43:40.0000000+00:00</time></trkpt><trkpt lat="31.1606737" lon="35.6993967"><ele>1002.2</ele><time>2015-11-22T05:43:42.0000000+00:00</time></trkpt><trkpt lat="31.1606299" lon="35.6993834"><ele>1011.6</ele><time>2015-11-22T05:43:44.0000000+00:00</time></trkpt><trkpt lat="31.1605654" lon="35.6993616"><ele>1010.6</ele><time>2015-11-22T05:43:47.0000000+00:00</time></trkpt><trkpt lat="31.1605215" lon="35.6993487"><ele>1010.9</ele><time>2015-11-22T05:43:49.0000000+00:00</time></trkpt><trkpt lat="31.1604567" lon="35.6993318"><ele>1008.6</ele><time>2015-11-22T05:43:52.0000000+00:00</time></trkpt><trkpt lat="31.160412" lon="35.6993267"><ele>1009.0</ele><time>2015-11-22T05:43:54.0000000+00:00</time></trkpt><trkpt lat="31.160348" lon="35.6993174"><ele>1008.6</ele><time>2015-11-22T05:43:57.0000000+00:00</time></trkpt><trkpt lat="31.1602832" lon="35.6993013"><ele>1009.7</ele><time>2015-11-22T05:44:00.0000000+00:00</time></trkpt><trkpt lat="31.1602185" lon="35.6992881"><ele>1010.6</ele><time>2015-11-22T05:44:03.0000000+00:00</time></trkpt><trkpt lat="31.1601546" lon="35.6992782"><ele>1010.3</ele><time>2015-11-22T05:44:06.0000000+00:00</time></trkpt><trkpt lat="31.1600931" lon="35.6992626"><ele>1011.5</ele><time>2015-11-22T05:44:09.0000000+00:00</time></trkpt><trkpt lat="31.1600293" lon="35.6992482"><ele>1011.9</ele><time>2015-11-22T05:44:12.0000000+00:00</time></trkpt><trkpt lat="31.1599847" lon="35.6992403"><ele>1012.5</ele><time>2015-11-22T05:44:14.0000000+00:00</time></trkpt><trkpt lat="31.1599178" lon="35.6992266"><ele>1014.9</ele><time>2015-11-22T05:44:17.0000000+00:00</time></trkpt><trkpt lat="31.1598544" lon="35.6992106"><ele>1018.2</ele><time>2015-11-22T05:44:20.0000000+00:00</time></trkpt><trkpt lat="31.1597928" lon="35.699193"><ele>1019.3</ele><time>2015-11-22T05:44:23.0000000+00:00</time></trkpt><trkpt lat="31.1597314" lon="35.699175"><ele>1020.8</ele><time>2015-11-22T05:44:26.0000000+00:00</time></trkpt><trkpt lat="31.1596672" lon="35.6991573"><ele>1020.4</ele><time>2015-11-22T05:44:29.0000000+00:00</time></trkpt><trkpt lat="31.1596072" lon="35.6991399"><ele>1020.5</ele><time>2015-11-22T05:44:32.0000000+00:00</time></trkpt><trkpt lat="31.1595456" lon="35.6991271"><ele>1020.7</ele><time>2015-11-22T05:44:35.0000000+00:00</time></trkpt><trkpt lat="31.1594835" lon="35.6991153"><ele>1021.1</ele><time>2015-11-22T05:44:38.0000000+00:00</time></trkpt><trkpt lat="31.1594277" lon="35.6991016"><ele>1020.5</ele><time>2015-11-22T05:44:41.0000000+00:00</time></trkpt><trkpt lat="31.1593752" lon="35.6990892"><ele>1018.4</ele><time>2015-11-22T05:44:44.0000000+00:00</time></trkpt><trkpt lat="31.1593198" lon="35.699074"><ele>1019.8</ele><time>2015-11-22T05:44:47.0000000+00:00</time></trkpt><trkpt lat="31.1592614" lon="35.6990635"><ele>1017.9</ele><time>2015-11-22T05:44:50.0000000+00:00</time></trkpt><trkpt lat="31.1592038" lon="35.6990511"><ele>1018.8</ele><time>2015-11-22T05:44:53.0000000+00:00</time></trkpt><trkpt lat="31.1591477" lon="35.6990382"><ele>1021.5</ele><time>2015-11-22T05:44:56.0000000+00:00</time></trkpt><trkpt lat="31.1590916" lon="35.6990309"><ele>1019.8</ele><time>2015-11-22T05:44:59.0000000+00:00</time></trkpt><trkpt lat="31.1590342" lon="35.699015"><ele>1021.7</ele><time>2015-11-22T05:45:02.0000000+00:00</time></trkpt><trkpt lat="31.1589773" lon="35.6989983"><ele>1021.1</ele><time>2015-11-22T05:45:05.0000000+00:00</time></trkpt><trkpt lat="31.1589191" lon="35.6989836"><ele>1019.7</ele><time>2015-11-22T05:45:08.0000000+00:00</time></trkpt><trkpt lat="31.1588652" lon="35.6989726"><ele>1018.8</ele><time>2015-11-22T05:45:11.0000000+00:00</time></trkpt><trkpt lat="31.1588108" lon="35.6989597"><ele>1018.6</ele><time>2015-11-22T05:45:14.0000000+00:00</time></trkpt><trkpt lat="31.1587569" lon="35.6989469"><ele>1018.9</ele><time>2015-11-22T05:45:17.0000000+00:00</time></trkpt><trkpt lat="31.1587025" lon="35.6989322"><ele>1021.0</ele><time>2015-11-22T05:45:20.0000000+00:00</time></trkpt><trkpt lat="31.1586458" lon="35.6989165"><ele>1022.6</ele><time>2015-11-22T05:45:23.0000000+00:00</time></trkpt><trkpt lat="31.1585899" lon="35.6989028"><ele>1025.3</ele><time>2015-11-22T05:45:26.0000000+00:00</time></trkpt><trkpt lat="31.1585356" lon="35.6988856"><ele>1026.0</ele><time>2015-11-22T05:45:29.0000000+00:00</time></trkpt><trkpt lat="31.1584818" lon="35.6988653"><ele>1024.5</ele><time>2015-11-22T05:45:32.0000000+00:00</time></trkpt><trkpt lat="31.1584237" lon="35.6988454"><ele>1019.5</ele><time>2015-11-22T05:45:35.0000000+00:00</time></trkpt><trkpt lat="31.1583676" lon="35.6988297"><ele>1017.2</ele><time>2015-11-22T05:45:38.0000000+00:00</time></trkpt><trkpt lat="31.1583137" lon="35.6988071"><ele>1019.4</ele><time>2015-11-22T05:45:41.0000000+00:00</time></trkpt><trkpt lat="31.1582605" lon="35.6987879"><ele>1018.9</ele><time>2015-11-22T05:45:44.0000000+00:00</time></trkpt><trkpt lat="31.1582085" lon="35.6987668"><ele>1016.2</ele><time>2015-11-22T05:45:47.0000000+00:00</time></trkpt><trkpt lat="31.1581543" lon="35.6987456"><ele>1018.5</ele><time>2015-11-22T05:45:50.0000000+00:00</time></trkpt><trkpt lat="31.1580977" lon="35.6987283"><ele>1021.3</ele><time>2015-11-22T05:45:53.0000000+00:00</time></trkpt><trkpt lat="31.1580404" lon="35.6987087"><ele>1025.6</ele><time>2015-11-22T05:45:56.0000000+00:00</time></trkpt><trkpt lat="31.1579814" lon="35.6986907"><ele>1028.8</ele><time>2015-11-22T05:45:59.0000000+00:00</time></trkpt><trkpt lat="31.1579295" lon="35.698663"><ele>1027.0</ele><time>2015-11-22T05:46:02.0000000+00:00</time></trkpt><trkpt lat="31.1578784" lon="35.6986363"><ele>1025.0</ele><time>2015-11-22T05:46:05.0000000+00:00</time></trkpt><trkpt lat="31.1578289" lon="35.698607"><ele>1025.8</ele><time>2015-11-22T05:46:08.0000000+00:00</time></trkpt><trkpt lat="31.1577758" lon="35.6985831"><ele>1024.8</ele><time>2015-11-22T05:46:11.0000000+00:00</time></trkpt><trkpt lat="31.157722" lon="35.6985576"><ele>1024.2</ele><time>2015-11-22T05:46:14.0000000+00:00</time></trkpt><trkpt lat="31.1576712" lon="35.6985306"><ele>1023.9</ele><time>2015-11-22T05:46:17.0000000+00:00</time></trkpt><trkpt lat="31.1576158" lon="35.6985066"><ele>1023.7</ele><time>2015-11-22T05:46:20.0000000+00:00</time></trkpt><trkpt lat="31.1575575" lon="35.6984825"><ele>1024.4</ele><time>2015-11-22T05:46:23.0000000+00:00</time></trkpt><trkpt lat="31.1574961" lon="35.6984574"><ele>1024.3</ele><time>2015-11-22T05:46:26.0000000+00:00</time></trkpt><trkpt lat="31.1574326" lon="35.6984344"><ele>1028.3</ele><time>2015-11-22T05:46:29.0000000+00:00</time></trkpt><trkpt lat="31.1573907" lon="35.6984146"><ele>1026.9</ele><time>2015-11-22T05:46:31.0000000+00:00</time></trkpt><trkpt lat="31.1573462" lon="35.6983946"><ele>1023.0</ele><time>2015-11-22T05:46:33.0000000+00:00</time></trkpt><trkpt lat="31.157302" lon="35.6983744"><ele>1022.8</ele><time>2015-11-22T05:46:35.0000000+00:00</time></trkpt><trkpt lat="31.157255" lon="35.6983603"><ele>1023.5</ele><time>2015-11-22T05:46:37.0000000+00:00</time></trkpt><trkpt lat="31.1572088" lon="35.6983463"><ele>1028.4</ele><time>2015-11-22T05:46:39.0000000+00:00</time></trkpt><trkpt lat="31.1571662" lon="35.6983256"><ele>1028.4</ele><time>2015-11-22T05:46:41.0000000+00:00</time></trkpt><trkpt lat="31.1571046" lon="35.698299"><ele>1028.5</ele><time>2015-11-22T05:46:44.0000000+00:00</time></trkpt><trkpt lat="31.1570434" lon="35.6982755"><ele>1027.2</ele><time>2015-11-22T05:46:47.0000000+00:00</time></trkpt><trkpt lat="31.1569831" lon="35.6982486"><ele>1029.1</ele><time>2015-11-22T05:46:50.0000000+00:00</time></trkpt><trkpt lat="31.1569231" lon="35.6982193"><ele>1032.6</ele><time>2015-11-22T05:46:53.0000000+00:00</time></trkpt><trkpt lat="31.1568655" lon="35.6981913"><ele>1032.4</ele><time>2015-11-22T05:46:56.0000000+00:00</time></trkpt><trkpt lat="31.1568046" lon="35.698165"><ele>1034.5</ele><time>2015-11-22T05:46:59.0000000+00:00</time></trkpt><trkpt lat="31.1567618" lon="35.6981434"><ele>1036.7</ele><time>2015-11-22T05:47:01.0000000+00:00</time></trkpt><trkpt lat="31.1567189" lon="35.6981227"><ele>1037.2</ele><time>2015-11-22T05:47:03.0000000+00:00</time></trkpt><trkpt lat="31.1566585" lon="35.6980908"><ele>1037.4</ele><time>2015-11-22T05:47:06.0000000+00:00</time></trkpt><trkpt lat="31.1565999" lon="35.6980598"><ele>1036.9</ele><time>2015-11-22T05:47:09.0000000+00:00</time></trkpt><trkpt lat="31.156538" lon="35.6980346"><ele>1036.2</ele><time>2015-11-22T05:47:12.0000000+00:00</time></trkpt><trkpt lat="31.1564745" lon="35.6980244"><ele>1026.1</ele><time>2015-11-22T05:47:15.0000000+00:00</time></trkpt><trkpt lat="31.1564107" lon="35.6980132"><ele>1022.2</ele><time>2015-11-22T05:47:18.0000000+00:00</time></trkpt><trkpt lat="31.1563454" lon="35.6980098"><ele>1022.6</ele><time>2015-11-22T05:47:21.0000000+00:00</time></trkpt><trkpt lat="31.1562788" lon="35.6980081"><ele>1023.6</ele><time>2015-11-22T05:47:24.0000000+00:00</time></trkpt><trkpt lat="31.1562119" lon="35.69801"><ele>1021.3</ele><time>2015-11-22T05:47:27.0000000+00:00</time></trkpt><trkpt lat="31.1561668" lon="35.6980126"><ele>1021.4</ele><time>2015-11-22T05:47:29.0000000+00:00</time></trkpt><trkpt lat="31.1561002" lon="35.6980143"><ele>1021.1</ele><time>2015-11-22T05:47:32.0000000+00:00</time></trkpt><trkpt lat="31.1560379" lon="35.6980153"><ele>1021.4</ele><time>2015-11-22T05:47:35.0000000+00:00</time></trkpt><trkpt lat="31.1559764" lon="35.6980286"><ele>1019.9</ele><time>2015-11-22T05:47:38.0000000+00:00</time></trkpt><trkpt lat="31.1559146" lon="35.698056"><ele>1020.2</ele><time>2015-11-22T05:47:41.0000000+00:00</time></trkpt><trkpt lat="31.1558537" lon="35.6980814"><ele>1022.5</ele><time>2015-11-22T05:47:44.0000000+00:00</time></trkpt><trkpt lat="31.1557927" lon="35.6981192"><ele>1022.7</ele><time>2015-11-22T05:47:47.0000000+00:00</time></trkpt><trkpt lat="31.1557521" lon="35.6981447"><ele>1022.7</ele><time>2015-11-22T05:47:49.0000000+00:00</time></trkpt><trkpt lat="31.1556918" lon="35.6981783"><ele>1029.6</ele><time>2015-11-22T05:47:52.0000000+00:00</time></trkpt><trkpt lat="31.1556321" lon="35.698207"><ele>1030.5</ele><time>2015-11-22T05:47:55.0000000+00:00</time></trkpt><trkpt lat="31.1555771" lon="35.698224"><ele>1032.4</ele><time>2015-11-22T05:47:58.0000000+00:00</time></trkpt><trkpt lat="31.1555298" lon="35.6982433"><ele>1031.2</ele><time>2015-11-22T05:48:01.0000000+00:00</time></trkpt><trkpt lat="31.1554837" lon="35.6982536"><ele>1024.0</ele><time>2015-11-22T05:48:04.0000000+00:00</time></trkpt><trkpt lat="31.1554268" lon="35.6982694"><ele>1028.1</ele><time>2015-11-22T05:48:08.0000000+00:00</time></trkpt><trkpt lat="31.1553724" lon="35.6982963"><ele>1034.2</ele><time>2015-11-22T05:48:12.0000000+00:00</time></trkpt><trkpt lat="31.1553292" lon="35.6983216"><ele>1031.4</ele><time>2015-11-22T05:48:15.0000000+00:00</time></trkpt><trkpt lat="31.1552849" lon="35.6983396"><ele>1028.6</ele><time>2015-11-22T05:48:18.0000000+00:00</time></trkpt><trkpt lat="31.1552305" lon="35.6983685"><ele>1030.5</ele><time>2015-11-22T05:48:22.0000000+00:00</time></trkpt><trkpt lat="31.1551734" lon="35.6983922"><ele>1030.2</ele><time>2015-11-22T05:48:26.0000000+00:00</time></trkpt><trkpt lat="31.1551203" lon="35.6984113"><ele>1031.7</ele><time>2015-11-22T05:48:30.0000000+00:00</time></trkpt><trkpt lat="31.1550685" lon="35.6984352"><ele>1025.8</ele><time>2015-11-22T05:48:34.0000000+00:00</time></trkpt><trkpt lat="31.1550249" lon="35.6984576"><ele>1026.0</ele><time>2015-11-22T05:48:37.0000000+00:00</time></trkpt><trkpt lat="31.1549829" lon="35.6984803"><ele>1031.0</ele><time>2015-11-22T05:48:40.0000000+00:00</time></trkpt><trkpt lat="31.1549366" lon="35.6984992"><ele>1043.0</ele><time>2015-11-22T05:48:43.0000000+00:00</time></trkpt><trkpt lat="31.1548866" lon="35.6985171"><ele>1061.7</ele><time>2015-11-22T05:48:46.0000000+00:00</time></trkpt><trkpt lat="31.1548359" lon="35.6985369"><ele>1068.8</ele><time>2015-11-22T05:48:49.0000000+00:00</time></trkpt><trkpt lat="31.1547865" lon="35.6985581"><ele>1072.8</ele><time>2015-11-22T05:48:52.0000000+00:00</time></trkpt><trkpt lat="31.1547389" lon="35.6985772"><ele>1074.7</ele><time>2015-11-22T05:48:55.0000000+00:00</time></trkpt><trkpt lat="31.1546935" lon="35.698595"><ele>1076.7</ele><time>2015-11-22T05:48:58.0000000+00:00</time></trkpt><trkpt lat="31.1546434" lon="35.6986137"><ele>1077.1</ele><time>2015-11-22T05:49:01.0000000+00:00</time></trkpt><trkpt lat="31.154591" lon="35.6986333"><ele>1078.7</ele><time>2015-11-22T05:49:04.0000000+00:00</time></trkpt><trkpt lat="31.1545365" lon="35.69866"><ele>1079.2</ele><time>2015-11-22T05:49:07.0000000+00:00</time></trkpt><trkpt lat="31.1544836" lon="35.6986879"><ele>1079.3</ele><time>2015-11-22T05:49:10.0000000+00:00</time></trkpt><trkpt lat="31.1544306" lon="35.6987119"><ele>1080.8</ele><time>2015-11-22T05:49:13.0000000+00:00</time></trkpt><trkpt lat="31.1543787" lon="35.6987352"><ele>1080.6</ele><time>2015-11-22T05:49:16.0000000+00:00</time></trkpt><trkpt lat="31.1543234" lon="35.6987564"><ele>1081.8</ele><time>2015-11-22T05:49:19.0000000+00:00</time></trkpt><trkpt lat="31.1542723" lon="35.6987855"><ele>1082.2</ele><time>2015-11-22T05:49:22.0000000+00:00</time></trkpt><trkpt lat="31.1542227" lon="35.6988109"><ele>1082.4</ele><time>2015-11-22T05:49:25.0000000+00:00</time></trkpt><trkpt lat="31.1541768" lon="35.6988297"><ele>1082.5</ele><time>2015-11-22T05:49:28.0000000+00:00</time></trkpt><trkpt lat="31.1541271" lon="35.6988481"><ele>1082.7</ele><time>2015-11-22T05:49:31.0000000+00:00</time></trkpt><trkpt lat="31.1540725" lon="35.6988676"><ele>1082.6</ele><time>2015-11-22T05:49:34.0000000+00:00</time></trkpt><trkpt lat="31.1540235" lon="35.6988951"><ele>1082.4</ele><time>2015-11-22T05:49:37.0000000+00:00</time></trkpt><trkpt lat="31.1539802" lon="35.6989175"><ele>1082.4</ele><time>2015-11-22T05:49:40.0000000+00:00</time></trkpt><trkpt lat="31.1539386" lon="35.6989454"><ele>1081.5</ele><time>2015-11-22T05:49:43.0000000+00:00</time></trkpt><trkpt lat="31.1538941" lon="35.6989676"><ele>1081.4</ele><time>2015-11-22T05:49:46.0000000+00:00</time></trkpt><trkpt lat="31.1538436" lon="35.6989818"><ele>1081.4</ele><time>2015-11-22T05:49:49.0000000+00:00</time></trkpt><trkpt lat="31.1537945" lon="35.6990048"><ele>1080.2</ele><time>2015-11-22T05:49:52.0000000+00:00</time></trkpt><trkpt lat="31.1537456" lon="35.6990372"><ele>1079.7</ele><time>2015-11-22T05:49:55.0000000+00:00</time></trkpt><trkpt lat="31.1536981" lon="35.6990643"><ele>1080.3</ele><time>2015-11-22T05:49:58.0000000+00:00</time></trkpt><trkpt lat="31.1536491" lon="35.6990891"><ele>1082.9</ele><time>2015-11-22T05:50:01.0000000+00:00</time></trkpt><trkpt lat="31.1535964" lon="35.6991118"><ele>1083.3</ele><time>2015-11-22T05:50:04.0000000+00:00</time></trkpt><trkpt lat="31.1535421" lon="35.6991362"><ele>1084.6</ele><time>2015-11-22T05:50:07.0000000+00:00</time></trkpt><trkpt lat="31.1534921" lon="35.6991642"><ele>1083.2</ele><time>2015-11-22T05:50:10.0000000+00:00</time></trkpt><trkpt lat="31.1534438" lon="35.6991907"><ele>1084.2</ele><time>2015-11-22T05:50:13.0000000+00:00</time></trkpt><trkpt lat="31.153386" lon="35.6992076"><ele>1085.5</ele><time>2015-11-22T05:50:16.0000000+00:00</time></trkpt><trkpt lat="31.1533311" lon="35.6992286"><ele>1085.9</ele><time>2015-11-22T05:50:19.0000000+00:00</time></trkpt><trkpt lat="31.1532816" lon="35.6992484"><ele>1085.6</ele><time>2015-11-22T05:50:22.0000000+00:00</time></trkpt><trkpt lat="31.1532369" lon="35.6992635"><ele>1086.3</ele><time>2015-11-22T05:50:25.0000000+00:00</time></trkpt><trkpt lat="31.1531913" lon="35.699276"><ele>1087.3</ele><time>2015-11-22T05:50:28.0000000+00:00</time></trkpt><trkpt lat="31.1531449" lon="35.6992854"><ele>1090.3</ele><time>2015-11-22T05:50:31.0000000+00:00</time></trkpt><trkpt lat="31.1530995" lon="35.6993039"><ele>1091.8</ele><time>2015-11-22T05:50:34.0000000+00:00</time></trkpt><trkpt lat="31.1530545" lon="35.6993282"><ele>1091.4</ele><time>2015-11-22T05:50:37.0000000+00:00</time></trkpt><trkpt lat="31.1530045" lon="35.6993522"><ele>1092.0</ele><time>2015-11-22T05:50:40.0000000+00:00</time></trkpt><trkpt lat="31.1529603" lon="35.6993781"><ele>1093.7</ele><time>2015-11-22T05:50:43.0000000+00:00</time></trkpt><trkpt lat="31.1529148" lon="35.6993939"><ele>1095.1</ele><time>2015-11-22T05:50:46.0000000+00:00</time></trkpt><trkpt lat="31.1528668" lon="35.6994148"><ele>1094.5</ele><time>2015-11-22T05:50:49.0000000+00:00</time></trkpt><trkpt lat="31.152815" lon="35.69944"><ele>1094.4</ele><time>2015-11-22T05:50:52.0000000+00:00</time></trkpt><trkpt lat="31.1527674" lon="35.6994679"><ele>1093.5</ele><time>2015-11-22T05:50:55.0000000+00:00</time></trkpt><trkpt lat="31.15272" lon="35.6994944"><ele>1091.8</ele><time>2015-11-22T05:50:58.0000000+00:00</time></trkpt><trkpt lat="31.1526787" lon="35.6995182"><ele>1090.8</ele><time>2015-11-22T05:51:01.0000000+00:00</time></trkpt><trkpt lat="31.1526328" lon="35.6995433"><ele>1092.1</ele><time>2015-11-22T05:51:04.0000000+00:00</time></trkpt><trkpt lat="31.1525839" lon="35.6995636"><ele>1093.2</ele><time>2015-11-22T05:51:07.0000000+00:00</time></trkpt><trkpt lat="31.1525368" lon="35.6995849"><ele>1092.9</ele><time>2015-11-22T05:51:10.0000000+00:00</time></trkpt><trkpt lat="31.1524928" lon="35.6996069"><ele>1093.0</ele><time>2015-11-22T05:51:13.0000000+00:00</time></trkpt><trkpt lat="31.1524477" lon="35.699621"><ele>1092.5</ele><time>2015-11-22T05:51:16.0000000+00:00</time></trkpt><trkpt lat="31.1524014" lon="35.6996447"><ele>1093.2</ele><time>2015-11-22T05:51:19.0000000+00:00</time></trkpt><trkpt lat="31.1523516" lon="35.699662"><ele>1094.1</ele><time>2015-11-22T05:51:22.0000000+00:00</time></trkpt><trkpt lat="31.1522974" lon="35.6996793"><ele>1095.2</ele><time>2015-11-22T05:51:25.0000000+00:00</time></trkpt><trkpt lat="31.1522541" lon="35.6997078"><ele>1095.5</ele><time>2015-11-22T05:51:28.0000000+00:00</time></trkpt><trkpt lat="31.1522081" lon="35.6997322"><ele>1097.5</ele><time>2015-11-22T05:51:31.0000000+00:00</time></trkpt><trkpt lat="31.1521585" lon="35.6997581"><ele>1097.9</ele><time>2015-11-22T05:51:34.0000000+00:00</time></trkpt><trkpt lat="31.1521091" lon="35.6997808"><ele>1098.8</ele><time>2015-11-22T05:51:37.0000000+00:00</time></trkpt><trkpt lat="31.152058" lon="35.6997992"><ele>1099.0</ele><time>2015-11-22T05:51:40.0000000+00:00</time></trkpt><trkpt lat="31.1520072" lon="35.6998146"><ele>1100.0</ele><time>2015-11-22T05:51:43.0000000+00:00</time></trkpt><trkpt lat="31.1519586" lon="35.6998395"><ele>1101.2</ele><time>2015-11-22T05:51:46.0000000+00:00</time></trkpt><trkpt lat="31.1519067" lon="35.6998584"><ele>1101.0</ele><time>2015-11-22T05:51:49.0000000+00:00</time></trkpt><trkpt lat="31.1518557" lon="35.699874"><ele>1101.6</ele><time>2015-11-22T05:51:52.0000000+00:00</time></trkpt><trkpt lat="31.1518095" lon="35.6999021"><ele>1102.3</ele><time>2015-11-22T05:51:55.0000000+00:00</time></trkpt><trkpt lat="31.151761" lon="35.6999253"><ele>1103.1</ele><time>2015-11-22T05:51:58.0000000+00:00</time></trkpt><trkpt lat="31.1517161" lon="35.6999549"><ele>1104.2</ele><time>2015-11-22T05:52:01.0000000+00:00</time></trkpt><trkpt lat="31.1516736" lon="35.6999832"><ele>1104.8</ele><time>2015-11-22T05:52:04.0000000+00:00</time></trkpt><trkpt lat="31.1516351" lon="35.7000126"><ele>1104.6</ele><time>2015-11-22T05:52:07.0000000+00:00</time></trkpt><trkpt lat="31.15159" lon="35.7000356"><ele>1105.3</ele><time>2015-11-22T05:52:10.0000000+00:00</time></trkpt><trkpt lat="31.1515475" lon="35.7000576"><ele>1104.0</ele><time>2015-11-22T05:52:13.0000000+00:00</time></trkpt><trkpt lat="31.1514998" lon="35.7000706"><ele>1102.6</ele><time>2015-11-22T05:52:16.0000000+00:00</time></trkpt><trkpt lat="31.1514548" lon="35.7000887"><ele>1101.6</ele><time>2015-11-22T05:52:19.0000000+00:00</time></trkpt><trkpt lat="31.1514118" lon="35.7001136"><ele>1101.8</ele><time>2015-11-22T05:52:22.0000000+00:00</time></trkpt><trkpt lat="31.1513669" lon="35.7001407"><ele>1102.8</ele><time>2015-11-22T05:52:25.0000000+00:00</time></trkpt><trkpt lat="31.1513141" lon="35.7001635"><ele>1105.0</ele><time>2015-11-22T05:52:28.0000000+00:00</time></trkpt><trkpt lat="31.1512602" lon="35.7001924"><ele>1106.7</ele><time>2015-11-22T05:52:31.0000000+00:00</time></trkpt><trkpt lat="31.1512062" lon="35.7002219"><ele>1106.8</ele><time>2015-11-22T05:52:34.0000000+00:00</time></trkpt><trkpt lat="31.1511492" lon="35.7002473"><ele>1106.8</ele><time>2015-11-22T05:52:37.0000000+00:00</time></trkpt><trkpt lat="31.1510952" lon="35.7002721"><ele>1108.7</ele><time>2015-11-22T05:52:40.0000000+00:00</time></trkpt><trkpt lat="31.1510454" lon="35.7002937"><ele>1109.3</ele><time>2015-11-22T05:52:43.0000000+00:00</time></trkpt><trkpt lat="31.1509974" lon="35.700317"><ele>1108.5</ele><time>2015-11-22T05:52:46.0000000+00:00</time></trkpt><trkpt lat="31.1509523" lon="35.7003399"><ele>1108.4</ele><time>2015-11-22T05:52:49.0000000+00:00</time></trkpt><trkpt lat="31.1509031" lon="35.7003588"><ele>1108.9</ele><time>2015-11-22T05:52:52.0000000+00:00</time></trkpt><trkpt lat="31.1508544" lon="35.700381"><ele>1109.8</ele><time>2015-11-22T05:52:55.0000000+00:00</time></trkpt><trkpt lat="31.1508081" lon="35.7004011"><ele>1110.8</ele><time>2015-11-22T05:52:58.0000000+00:00</time></trkpt><trkpt lat="31.1507619" lon="35.7004153"><ele>1111.8</ele><time>2015-11-22T05:53:01.0000000+00:00</time></trkpt><trkpt lat="31.1507128" lon="35.7004335"><ele>1112.3</ele><time>2015-11-22T05:53:04.0000000+00:00</time></trkpt><trkpt lat="31.1506669" lon="35.7004509"><ele>1112.4</ele><time>2015-11-22T05:53:07.0000000+00:00</time></trkpt><trkpt lat="31.1506151" lon="35.7004661"><ele>1112.4</ele><time>2015-11-22T05:53:10.0000000+00:00</time></trkpt><trkpt lat="31.1505638" lon="35.7004772"><ele>1112.7</ele><time>2015-11-22T05:53:13.0000000+00:00</time></trkpt><trkpt lat="31.1505117" lon="35.7004925"><ele>1112.4</ele><time>2015-11-22T05:53:16.0000000+00:00</time></trkpt><trkpt lat="31.1504623" lon="35.7005088"><ele>1112.3</ele><time>2015-11-22T05:53:19.0000000+00:00</time></trkpt><trkpt lat="31.1504138" lon="35.7005338"><ele>1111.5</ele><time>2015-11-22T05:53:22.0000000+00:00</time></trkpt><trkpt lat="31.1503635" lon="35.7005413"><ele>1110.9</ele><time>2015-11-22T05:53:25.0000000+00:00</time></trkpt><trkpt lat="31.1503161" lon="35.7005453"><ele>1111.2</ele><time>2015-11-22T05:53:28.0000000+00:00</time></trkpt><trkpt lat="31.150269" lon="35.7005526"><ele>1111.5</ele><time>2015-11-22T05:53:31.0000000+00:00</time></trkpt><trkpt lat="31.1502176" lon="35.7005589"><ele>1114.5</ele><time>2015-11-22T05:53:34.0000000+00:00</time></trkpt><trkpt lat="31.1501687" lon="35.7005644"><ele>1113.2</ele><time>2015-11-22T05:53:37.0000000+00:00</time></trkpt><trkpt lat="31.1501181" lon="35.7005694"><ele>1113.1</ele><time>2015-11-22T05:53:40.0000000+00:00</time></trkpt><trkpt lat="31.1500667" lon="35.7005668"><ele>1113.4</ele><time>2015-11-22T05:53:43.0000000+00:00</time></trkpt><trkpt lat="31.1500131" lon="35.7005683"><ele>1114.6</ele><time>2015-11-22T05:53:46.0000000+00:00</time></trkpt><trkpt lat="31.1499645" lon="35.7005562"><ele>1114.9</ele><time>2015-11-22T05:53:49.0000000+00:00</time></trkpt><trkpt lat="31.1499138" lon="35.7005547"><ele>1116.3</ele><time>2015-11-22T05:53:52.0000000+00:00</time></trkpt><trkpt lat="31.1498633" lon="35.7005455"><ele>1116.3</ele><time>2015-11-22T05:53:55.0000000+00:00</time></trkpt><trkpt lat="31.1498116" lon="35.7005242"><ele>1118.4</ele><time>2015-11-22T05:53:58.0000000+00:00</time></trkpt><trkpt lat="31.1497654" lon="35.7005062"><ele>1119.3</ele><time>2015-11-22T05:54:01.0000000+00:00</time></trkpt><trkpt lat="31.1497234" lon="35.7004827"><ele>1118.9</ele><time>2015-11-22T05:54:04.0000000+00:00</time></trkpt><trkpt lat="31.1496869" lon="35.7004436"><ele>1119.2</ele><time>2015-11-22T05:54:07.0000000+00:00</time></trkpt><trkpt lat="31.1496508" lon="35.7003937"><ele>1118.0</ele><time>2015-11-22T05:54:10.0000000+00:00</time></trkpt><trkpt lat="31.1496203" lon="35.7003536"><ele>1117.3</ele><time>2015-11-22T05:54:38.0000000+00:00</time></trkpt><trkpt lat="31.1495694" lon="35.7003354"><ele>1116.0</ele><time>2015-11-22T05:54:42.0000000+00:00</time></trkpt><trkpt lat="31.1495249" lon="35.7002884"><ele>1117.6</ele><time>2015-11-22T05:54:46.0000000+00:00</time></trkpt><trkpt lat="31.1494801" lon="35.7002637"><ele>1118.1</ele><time>2015-11-22T05:54:49.0000000+00:00</time></trkpt><trkpt lat="31.1494344" lon="35.7002412"><ele>1117.6</ele><time>2015-11-22T05:54:52.0000000+00:00</time></trkpt><trkpt lat="31.149389" lon="35.7002297"><ele>1118.4</ele><time>2015-11-22T05:54:55.0000000+00:00</time></trkpt><trkpt lat="31.1493396" lon="35.7002082"><ele>1117.5</ele><time>2015-11-22T05:54:59.0000000+00:00</time></trkpt><trkpt lat="31.1492853" lon="35.7001865"><ele>1117.9</ele><time>2015-11-22T05:55:04.0000000+00:00</time></trkpt><trkpt lat="31.1492328" lon="35.7001686"><ele>1119.8</ele><time>2015-11-22T05:55:07.0000000+00:00</time></trkpt><trkpt lat="31.1492301" lon="35.7001127"><ele>1119.8</ele><time>2015-11-22T05:55:21.0000000+00:00</time></trkpt><trkpt lat="31.1492352" lon="35.7001683"><ele>1116.7</ele><time>2015-11-22T05:59:41.0000000+00:00</time></trkpt><trkpt lat="31.1492425" lon="35.7002228"><ele>1117.4</ele><time>2015-11-22T05:59:49.0000000+00:00</time></trkpt><trkpt lat="31.1492834" lon="35.7001996"><ele>1111.2</ele><time>2015-11-22T06:02:01.0000000+00:00</time></trkpt><trkpt lat="31.1492494" lon="35.7002436"><ele>1116.8</ele><time>2015-11-22T06:16:33.0000000+00:00</time></trkpt><trkpt lat="31.1492005" lon="35.7002322"><ele>1117.2</ele><time>2015-11-22T06:16:37.0000000+00:00</time></trkpt><trkpt lat="31.149145" lon="35.7002155"><ele>1119.0</ele><time>2015-11-22T06:16:40.0000000+00:00</time></trkpt><trkpt lat="31.1491015" lon="35.7001987"><ele>1119.8</ele><time>2015-11-22T06:16:42.0000000+00:00</time></trkpt><trkpt lat="31.1490579" lon="35.7001807"><ele>1121.0</ele><time>2015-11-22T06:16:44.0000000+00:00</time></trkpt><trkpt lat="31.1490112" lon="35.7001618"><ele>1121.3</ele><time>2015-11-22T06:16:46.0000000+00:00</time></trkpt><trkpt lat="31.1489652" lon="35.7001432"><ele>1121.4</ele><time>2015-11-22T06:16:48.0000000+00:00</time></trkpt><trkpt lat="31.148919" lon="35.7001247"><ele>1121.4</ele><time>2015-11-22T06:16:50.0000000+00:00</time></trkpt><trkpt lat="31.1488738" lon="35.7001118"><ele>1122.7</ele><time>2015-11-22T06:16:52.0000000+00:00</time></trkpt><trkpt lat="31.1488108" lon="35.7000835"><ele>1123.0</ele><time>2015-11-22T06:16:55.0000000+00:00</time></trkpt><trkpt lat="31.1487477" lon="35.7000593"><ele>1123.3</ele><time>2015-11-22T06:16:58.0000000+00:00</time></trkpt><trkpt lat="31.1486889" lon="35.7000286"><ele>1122.6</ele><time>2015-11-22T06:17:01.0000000+00:00</time></trkpt><trkpt lat="31.1486456" lon="35.7000102"><ele>1123.0</ele><time>2015-11-22T06:17:03.0000000+00:00</time></trkpt><trkpt lat="31.1486003" lon="35.6999882"><ele>1123.3</ele><time>2015-11-22T06:17:05.0000000+00:00</time></trkpt><trkpt lat="31.1485547" lon="35.6999638"><ele>1122.6</ele><time>2015-11-22T06:17:07.0000000+00:00</time></trkpt><trkpt lat="31.1485072" lon="35.6999423"><ele>1122.5</ele><time>2015-11-22T06:17:09.0000000+00:00</time></trkpt><trkpt lat="31.1484582" lon="35.6999212"><ele>1122.2</ele><time>2015-11-22T06:17:11.0000000+00:00</time></trkpt><trkpt lat="31.1484065" lon="35.6999031"><ele>1122.3</ele><time>2015-11-22T06:17:13.0000000+00:00</time></trkpt><trkpt lat="31.148352" lon="35.6998796"><ele>1122.9</ele><time>2015-11-22T06:17:15.0000000+00:00</time></trkpt><trkpt lat="31.1482971" lon="35.6998562"><ele>1124.0</ele><time>2015-11-22T06:17:17.0000000+00:00</time></trkpt><trkpt lat="31.148239" lon="35.6998332"><ele>1124.3</ele><time>2015-11-22T06:17:19.0000000+00:00</time></trkpt><trkpt lat="31.1481781" lon="35.6998072"><ele>1124.6</ele><time>2015-11-22T06:17:21.0000000+00:00</time></trkpt><trkpt lat="31.1481116" lon="35.6997779"><ele>1124.0</ele><time>2015-11-22T06:17:23.0000000+00:00</time></trkpt><trkpt lat="31.148045" lon="35.6997487"><ele>1123.5</ele><time>2015-11-22T06:17:25.0000000+00:00</time></trkpt><trkpt lat="31.1479826" lon="35.6997141"><ele>1123.4</ele><time>2015-11-22T06:17:27.0000000+00:00</time></trkpt><trkpt lat="31.1479206" lon="35.6996826"><ele>1122.9</ele><time>2015-11-22T06:17:29.0000000+00:00</time></trkpt><trkpt lat="31.1478247" lon="35.6996412"><ele>1123.8</ele><time>2015-11-22T06:17:32.0000000+00:00</time></trkpt><trkpt lat="31.1477616" lon="35.6996108"><ele>1124.2</ele><time>2015-11-22T06:17:34.0000000+00:00</time></trkpt><trkpt lat="31.1477016" lon="35.6995808"><ele>1123.9</ele><time>2015-11-22T06:17:36.0000000+00:00</time></trkpt><trkpt lat="31.147643" lon="35.6995535"><ele>1123.5</ele><time>2015-11-22T06:17:38.0000000+00:00</time></trkpt><trkpt lat="31.1475796" lon="35.6995294"><ele>1124.2</ele><time>2015-11-22T06:17:40.0000000+00:00</time></trkpt><trkpt lat="31.1475121" lon="35.699509"><ele>1124.3</ele><time>2015-11-22T06:17:42.0000000+00:00</time></trkpt><trkpt lat="31.1474494" lon="35.6994844"><ele>1124.4</ele><time>2015-11-22T06:17:44.0000000+00:00</time></trkpt><trkpt lat="31.1473873" lon="35.6994645"><ele>1125.6</ele><time>2015-11-22T06:17:46.0000000+00:00</time></trkpt><trkpt lat="31.1473246" lon="35.699452"><ele>1127.7</ele><time>2015-11-22T06:17:48.0000000+00:00</time></trkpt><trkpt lat="31.1472545" lon="35.6994436"><ele>1126.7</ele><time>2015-11-22T06:17:50.0000000+00:00</time></trkpt><trkpt lat="31.1471812" lon="35.6994365"><ele>1126.2</ele><time>2015-11-22T06:17:52.0000000+00:00</time></trkpt><trkpt lat="31.1471068" lon="35.6994273"><ele>1125.6</ele><time>2015-11-22T06:17:54.0000000+00:00</time></trkpt><trkpt lat="31.1470312" lon="35.6994204"><ele>1126.2</ele><time>2015-11-22T06:17:56.0000000+00:00</time></trkpt><trkpt lat="31.1469572" lon="35.6994135"><ele>1126.4</ele><time>2015-11-22T06:17:58.0000000+00:00</time></trkpt><trkpt lat="31.1468835" lon="35.6994066"><ele>1126.4</ele><time>2015-11-22T06:18:00.0000000+00:00</time></trkpt><trkpt lat="31.1468114" lon="35.6994038"><ele>1126.1</ele><time>2015-11-22T06:18:02.0000000+00:00</time></trkpt><trkpt lat="31.1467384" lon="35.6994014"><ele>1126.1</ele><time>2015-11-22T06:18:04.0000000+00:00</time></trkpt><trkpt lat="31.1466642" lon="35.6993975"><ele>1126.1</ele><time>2015-11-22T06:18:06.0000000+00:00</time></trkpt><trkpt lat="31.1465909" lon="35.6993906"><ele>1126.3</ele><time>2015-11-22T06:18:08.0000000+00:00</time></trkpt><trkpt lat="31.1465198" lon="35.6993867"><ele>1126.4</ele><time>2015-11-22T06:18:10.0000000+00:00</time></trkpt><trkpt lat="31.1464494" lon="35.699386"><ele>1126.6</ele><time>2015-11-22T06:18:12.0000000+00:00</time></trkpt><trkpt lat="31.1463756" lon="35.699378"><ele>1128.2</ele><time>2015-11-22T06:18:14.0000000+00:00</time></trkpt><trkpt lat="31.1463005" lon="35.6993724"><ele>1128.9</ele><time>2015-11-22T06:18:16.0000000+00:00</time></trkpt><trkpt lat="31.1462274" lon="35.6993687"><ele>1129.3</ele><time>2015-11-22T06:18:18.0000000+00:00</time></trkpt><trkpt lat="31.1461559" lon="35.6993669"><ele>1130.1</ele><time>2015-11-22T06:18:20.0000000+00:00</time></trkpt><trkpt lat="31.1460882" lon="35.6993668"><ele>1131.1</ele><time>2015-11-22T06:18:22.0000000+00:00</time></trkpt><trkpt lat="31.146022" lon="35.6993635"><ele>1130.8</ele><time>2015-11-22T06:18:24.0000000+00:00</time></trkpt><trkpt lat="31.1459606" lon="35.6993598"><ele>1130.0</ele><time>2015-11-22T06:18:26.0000000+00:00</time></trkpt><trkpt lat="31.1459039" lon="35.6993604"><ele>1129.1</ele><time>2015-11-22T06:18:28.0000000+00:00</time></trkpt><trkpt lat="31.1458582" lon="35.6993581"><ele>1129.3</ele><time>2015-11-22T06:18:30.0000000+00:00</time></trkpt><trkpt lat="31.1457964" lon="35.6993541"><ele>1129.5</ele><time>2015-11-22T06:18:33.0000000+00:00</time></trkpt><trkpt lat="31.1457379" lon="35.6993522"><ele>1129.4</ele><time>2015-11-22T06:18:36.0000000+00:00</time></trkpt><trkpt lat="31.1456822" lon="35.6993468"><ele>1129.4</ele><time>2015-11-22T06:18:39.0000000+00:00</time></trkpt><trkpt lat="31.1456251" lon="35.6993381"><ele>1128.8</ele><time>2015-11-22T06:18:42.0000000+00:00</time></trkpt><trkpt lat="31.1455656" lon="35.6993363"><ele>1129.3</ele><time>2015-11-22T06:18:45.0000000+00:00</time></trkpt><trkpt lat="31.1455034" lon="35.6993406"><ele>1129.9</ele><time>2015-11-22T06:18:48.0000000+00:00</time></trkpt><trkpt lat="31.1454417" lon="35.6993411"><ele>1130.3</ele><time>2015-11-22T06:18:51.0000000+00:00</time></trkpt><trkpt lat="31.1453808" lon="35.6993438"><ele>1130.9</ele><time>2015-11-22T06:18:54.0000000+00:00</time></trkpt><trkpt lat="31.1453204" lon="35.6993445"><ele>1131.3</ele><time>2015-11-22T06:18:57.0000000+00:00</time></trkpt><trkpt lat="31.1452569" lon="35.6993388"><ele>1131.4</ele><time>2015-11-22T06:19:00.0000000+00:00</time></trkpt><trkpt lat="31.1451938" lon="35.699342"><ele>1131.9</ele><time>2015-11-22T06:19:03.0000000+00:00</time></trkpt><trkpt lat="31.1451301" lon="35.6993401"><ele>1131.5</ele><time>2015-11-22T06:19:06.0000000+00:00</time></trkpt><trkpt lat="31.1450668" lon="35.6993369"><ele>1132.2</ele><time>2015-11-22T06:19:09.0000000+00:00</time></trkpt><trkpt lat="31.1450015" lon="35.6993329"><ele>1132.4</ele><time>2015-11-22T06:19:12.0000000+00:00</time></trkpt><trkpt lat="31.1449546" lon="35.6993301"><ele>1132.9</ele><time>2015-11-22T06:19:14.0000000+00:00</time></trkpt><trkpt lat="31.1449081" lon="35.6993315"><ele>1132.5</ele><time>2015-11-22T06:19:16.0000000+00:00</time></trkpt><trkpt lat="31.1448629" lon="35.699332"><ele>1133.2</ele><time>2015-11-22T06:19:18.0000000+00:00</time></trkpt><trkpt lat="31.1447958" lon="35.6993334"><ele>1133.4</ele><time>2015-11-22T06:19:21.0000000+00:00</time></trkpt><trkpt lat="31.1447302" lon="35.699327"><ele>1134.1</ele><time>2015-11-22T06:19:24.0000000+00:00</time></trkpt><trkpt lat="31.1446651" lon="35.6993192"><ele>1134.7</ele><time>2015-11-22T06:19:27.0000000+00:00</time></trkpt><trkpt lat="31.1445987" lon="35.699315"><ele>1136.1</ele><time>2015-11-22T06:19:30.0000000+00:00</time></trkpt><trkpt lat="31.144552" lon="35.6993129"><ele>1136.6</ele><time>2015-11-22T06:19:32.0000000+00:00</time></trkpt><trkpt lat="31.1445056" lon="35.6993136"><ele>1136.9</ele><time>2015-11-22T06:19:34.0000000+00:00</time></trkpt><trkpt lat="31.1444586" lon="35.6993132"><ele>1137.3</ele><time>2015-11-22T06:19:36.0000000+00:00</time></trkpt><trkpt lat="31.144413" lon="35.6993064"><ele>1137.4</ele><time>2015-11-22T06:19:38.0000000+00:00</time></trkpt><trkpt lat="31.144368" lon="35.6993037"><ele>1137.4</ele><time>2015-11-22T06:19:40.0000000+00:00</time></trkpt><trkpt lat="31.1443209" lon="35.6993019"><ele>1137.4</ele><time>2015-11-22T06:19:42.0000000+00:00</time></trkpt><trkpt lat="31.1442742" lon="35.699302"><ele>1138.2</ele><time>2015-11-22T06:19:44.0000000+00:00</time></trkpt><trkpt lat="31.1442291" lon="35.6993055"><ele>1138.3</ele><time>2015-11-22T06:19:46.0000000+00:00</time></trkpt><trkpt lat="31.1441641" lon="35.6993069"><ele>1138.1</ele><time>2015-11-22T06:19:49.0000000+00:00</time></trkpt><trkpt lat="31.1440969" lon="35.6993002"><ele>1138.4</ele><time>2015-11-22T06:19:52.0000000+00:00</time></trkpt><trkpt lat="31.1440312" lon="35.6992965"><ele>1138.4</ele><time>2015-11-22T06:19:55.0000000+00:00</time></trkpt><trkpt lat="31.1439659" lon="35.6992926"><ele>1138.4</ele><time>2015-11-22T06:19:58.0000000+00:00</time></trkpt><trkpt lat="31.1439202" lon="35.699291"><ele>1138.2</ele><time>2015-11-22T06:20:00.0000000+00:00</time></trkpt><trkpt lat="31.1438731" lon="35.6992917"><ele>1138.8</ele><time>2015-11-22T06:20:02.0000000+00:00</time></trkpt><trkpt lat="31.1438243" lon="35.6992964"><ele>1139.3</ele><time>2015-11-22T06:20:04.0000000+00:00</time></trkpt><trkpt lat="31.1437743" lon="35.6992987"><ele>1139.4</ele><time>2015-11-22T06:20:06.0000000+00:00</time></trkpt><trkpt lat="31.1437228" lon="35.6992949"><ele>1139.9</ele><time>2015-11-22T06:20:08.0000000+00:00</time></trkpt><trkpt lat="31.1436707" lon="35.6992932"><ele>1140.8</ele><time>2015-11-22T06:20:10.0000000+00:00</time></trkpt><trkpt lat="31.1436176" lon="35.6992933"><ele>1141.2</ele><time>2015-11-22T06:20:12.0000000+00:00</time></trkpt><trkpt lat="31.1435614" lon="35.6992963"><ele>1141.4</ele><time>2015-11-22T06:20:14.0000000+00:00</time></trkpt><trkpt lat="31.1435003" lon="35.6992935"><ele>1141.9</ele><time>2015-11-22T06:20:16.0000000+00:00</time></trkpt><trkpt lat="31.1434389" lon="35.6992916"><ele>1142.3</ele><time>2015-11-22T06:20:18.0000000+00:00</time></trkpt><trkpt lat="31.143379" lon="35.6992928"><ele>1143.1</ele><time>2015-11-22T06:20:20.0000000+00:00</time></trkpt><trkpt lat="31.1433182" lon="35.6992911"><ele>1143.3</ele><time>2015-11-22T06:20:22.0000000+00:00</time></trkpt><trkpt lat="31.1432551" lon="35.6992892"><ele>1143.4</ele><time>2015-11-22T06:20:24.0000000+00:00</time></trkpt><trkpt lat="31.1431912" lon="35.6992868"><ele>1143.9</ele><time>2015-11-22T06:20:26.0000000+00:00</time></trkpt><trkpt lat="31.143127" lon="35.6992874"><ele>1143.5</ele><time>2015-11-22T06:20:28.0000000+00:00</time></trkpt><trkpt lat="31.1430651" lon="35.6992832"><ele>1143.4</ele><time>2015-11-22T06:20:30.0000000+00:00</time></trkpt><trkpt lat="31.1430048" lon="35.6992784"><ele>1143.4</ele><time>2015-11-22T06:20:32.0000000+00:00</time></trkpt><trkpt lat="31.1429458" lon="35.6992774"><ele>1143.4</ele><time>2015-11-22T06:20:34.0000000+00:00</time></trkpt><trkpt lat="31.1428858" lon="35.6992748"><ele>1143.4</ele><time>2015-11-22T06:20:36.0000000+00:00</time></trkpt><trkpt lat="31.1428227" lon="35.6992755"><ele>1144.7</ele><time>2015-11-22T06:20:38.0000000+00:00</time></trkpt><trkpt lat="31.1427577" lon="35.6992785"><ele>1145.2</ele><time>2015-11-22T06:20:40.0000000+00:00</time></trkpt><trkpt lat="31.1426913" lon="35.6992811"><ele>1146.1</ele><time>2015-11-22T06:20:42.0000000+00:00</time></trkpt><trkpt lat="31.1426223" lon="35.699283"><ele>1145.8</ele><time>2015-11-22T06:20:44.0000000+00:00</time></trkpt><trkpt lat="31.1425536" lon="35.6992794"><ele>1145.5</ele><time>2015-11-22T06:20:46.0000000+00:00</time></trkpt><trkpt lat="31.1424858" lon="35.6992764"><ele>1144.9</ele><time>2015-11-22T06:20:48.0000000+00:00</time></trkpt><trkpt lat="31.142418" lon="35.6992731"><ele>1145.3</ele><time>2015-11-22T06:20:50.0000000+00:00</time></trkpt><trkpt lat="31.1423483" lon="35.6992683"><ele>1144.9</ele><time>2015-11-22T06:20:52.0000000+00:00</time></trkpt><trkpt lat="31.1422782" lon="35.6992635"><ele>1145.0</ele><time>2015-11-22T06:20:54.0000000+00:00</time></trkpt><trkpt lat="31.1422095" lon="35.6992561"><ele>1145.1</ele><time>2015-11-22T06:20:56.0000000+00:00</time></trkpt><trkpt lat="31.1421402" lon="35.6992468"><ele>1145.3</ele><time>2015-11-22T06:20:58.0000000+00:00</time></trkpt><trkpt lat="31.1420712" lon="35.6992342"><ele>1146.1</ele><time>2015-11-22T06:21:00.0000000+00:00</time></trkpt><trkpt lat="31.1420023" lon="35.6992204"><ele>1146.1</ele><time>2015-11-22T06:21:02.0000000+00:00</time></trkpt><trkpt lat="31.1419317" lon="35.699204"><ele>1145.8</ele><time>2015-11-22T06:21:04.0000000+00:00</time></trkpt><trkpt lat="31.1418613" lon="35.6991834"><ele>1136.8</ele><time>2015-11-22T06:21:06.0000000+00:00</time></trkpt><trkpt lat="31.1417914" lon="35.6991634"><ele>1130.2</ele><time>2015-11-22T06:21:08.0000000+00:00</time></trkpt><trkpt lat="31.1417234" lon="35.6991389"><ele>1128.1</ele><time>2015-11-22T06:21:10.0000000+00:00</time></trkpt><trkpt lat="31.1416542" lon="35.699117"><ele>1126.6</ele><time>2015-11-22T06:21:12.0000000+00:00</time></trkpt><trkpt lat="31.1415819" lon="35.6991007"><ele>1126.9</ele><time>2015-11-22T06:21:14.0000000+00:00</time></trkpt><trkpt lat="31.1415072" lon="35.6990791"><ele>1125.8</ele><time>2015-11-22T06:21:16.0000000+00:00</time></trkpt><trkpt lat="31.1414333" lon="35.6990551"><ele>1122.7</ele><time>2015-11-22T06:21:18.0000000+00:00</time></trkpt><trkpt lat="31.1413601" lon="35.6990296"><ele>1121.0</ele><time>2015-11-22T06:21:20.0000000+00:00</time></trkpt><trkpt lat="31.1412839" lon="35.6990101"><ele>1122.3</ele><time>2015-11-22T06:21:22.0000000+00:00</time></trkpt><trkpt lat="31.141207" lon="35.6989904"><ele>1125.1</ele><time>2015-11-22T06:21:24.0000000+00:00</time></trkpt><trkpt lat="31.1411278" lon="35.698967"><ele>1124.6</ele><time>2015-11-22T06:21:26.0000000+00:00</time></trkpt><trkpt lat="31.14105" lon="35.6989414"><ele>1125.4</ele><time>2015-11-22T06:21:28.0000000+00:00</time></trkpt><trkpt lat="31.1409783" lon="35.6989161"><ele>1126.2</ele><time>2015-11-22T06:21:30.0000000+00:00</time></trkpt><trkpt lat="31.1409141" lon="35.6988938"><ele>1126.1</ele><time>2015-11-22T06:21:32.0000000+00:00</time></trkpt><trkpt lat="31.140875" lon="35.698846"><ele>1124.8</ele><time>2015-11-22T06:21:34.0000000+00:00</time></trkpt><trkpt lat="31.1408711" lon="35.6987833"><ele>1125.8</ele><time>2015-11-22T06:21:36.0000000+00:00</time></trkpt><trkpt lat="31.1408788" lon="35.6987306"><ele>1127.5</ele><time>2015-11-22T06:21:38.0000000+00:00</time></trkpt><trkpt lat="31.1408674" lon="35.6986576"><ele>1127.5</ele><time>2015-11-22T06:21:41.0000000+00:00</time></trkpt><trkpt lat="31.1408433" lon="35.698607"><ele>1125.5</ele><time>2015-11-22T06:21:44.0000000+00:00</time></trkpt><trkpt lat="31.1407966" lon="35.6986066"><ele>1116.0</ele><time>2015-11-22T06:21:59.0000000+00:00</time></trkpt><trkpt lat="31.1407421" lon="35.6986173"><ele>1119.8</ele><time>2015-11-22T06:22:18.0000000+00:00</time></trkpt><trkpt lat="31.1407002" lon="35.6986541"><ele>1119.1</ele><time>2015-11-22T06:22:21.0000000+00:00</time></trkpt><trkpt lat="31.1406465" lon="35.6986898"><ele>1120.2</ele><time>2015-11-22T06:22:24.0000000+00:00</time></trkpt><trkpt lat="31.1405988" lon="35.698694"><ele>1118.1</ele><time>2015-11-22T06:22:26.0000000+00:00</time></trkpt><trkpt lat="31.1405495" lon="35.6987043"><ele>1117.6</ele><time>2015-11-22T06:22:28.0000000+00:00</time></trkpt><trkpt lat="31.1404971" lon="35.6987173"><ele>1119.2</ele><time>2015-11-22T06:22:30.0000000+00:00</time></trkpt><trkpt lat="31.1404463" lon="35.6987145"><ele>1121.1</ele><time>2015-11-22T06:22:32.0000000+00:00</time></trkpt><trkpt lat="31.1403998" lon="35.6987052"><ele>1123.3</ele><time>2015-11-22T06:22:34.0000000+00:00</time></trkpt><trkpt lat="31.1403354" lon="35.6987002"><ele>1124.6</ele><time>2015-11-22T06:22:37.0000000+00:00</time></trkpt><trkpt lat="31.140271" lon="35.6987061"><ele>1124.4</ele><time>2015-11-22T06:22:40.0000000+00:00</time></trkpt><trkpt lat="31.140224" lon="35.6987"><ele>1122.9</ele><time>2015-11-22T06:22:42.0000000+00:00</time></trkpt><trkpt lat="31.1401726" lon="35.6986858"><ele>1122.5</ele><time>2015-11-22T06:22:44.0000000+00:00</time></trkpt><trkpt lat="31.1401226" lon="35.6986614"><ele>1123.2</ele><time>2015-11-22T06:22:46.0000000+00:00</time></trkpt><trkpt lat="31.1400712" lon="35.6986425"><ele>1123.3</ele><time>2015-11-22T06:22:48.0000000+00:00</time></trkpt><trkpt lat="31.1400176" lon="35.698623"><ele>1124.4</ele><time>2015-11-22T06:22:50.0000000+00:00</time></trkpt><trkpt lat="31.1399564" lon="35.6985976"><ele>1125.9</ele><time>2015-11-22T06:22:52.0000000+00:00</time></trkpt><trkpt lat="31.139882" lon="35.6985641"><ele>1125.0</ele><time>2015-11-22T06:22:54.0000000+00:00</time></trkpt><trkpt lat="31.1398019" lon="35.6985334"><ele>1125.3</ele><time>2015-11-22T06:22:56.0000000+00:00</time></trkpt><trkpt lat="31.1397183" lon="35.6985044"><ele>1124.6</ele><time>2015-11-22T06:22:58.0000000+00:00</time></trkpt><trkpt lat="31.1396346" lon="35.698476"><ele>1123.7</ele><time>2015-11-22T06:23:00.0000000+00:00</time></trkpt><trkpt lat="31.1395484" lon="35.6984503"><ele>1123.2</ele><time>2015-11-22T06:23:02.0000000+00:00</time></trkpt><trkpt lat="31.1394921" lon="35.6984302"><ele>1123.3</ele><time>2015-11-22T06:23:03.0000000+00:00</time></trkpt><trkpt lat="31.1394451" lon="35.6984097"><ele>1123.9</ele><time>2015-11-22T06:23:04.0000000+00:00</time></trkpt><trkpt lat="31.139398" lon="35.6983911"><ele>1123.6</ele><time>2015-11-22T06:23:05.0000000+00:00</time></trkpt><trkpt lat="31.1393391" lon="35.6983769"><ele>1123.0</ele><time>2015-11-22T06:23:06.0000000+00:00</time></trkpt><trkpt lat="31.1392525" lon="35.698355"><ele>1122.8</ele><time>2015-11-22T06:23:08.0000000+00:00</time></trkpt><trkpt lat="31.1391708" lon="35.6983286"><ele>1121.3</ele><time>2015-11-22T06:23:10.0000000+00:00</time></trkpt><trkpt lat="31.1390872" lon="35.6983004"><ele>1121.4</ele><time>2015-11-22T06:23:12.0000000+00:00</time></trkpt><trkpt lat="31.1390394" lon="35.6982803"><ele>1121.9</ele><time>2015-11-22T06:23:13.0000000+00:00</time></trkpt><trkpt lat="31.1389942" lon="35.6982707"><ele>1122.1</ele><time>2015-11-22T06:23:14.0000000+00:00</time></trkpt><trkpt lat="31.1389466" lon="35.6982577"><ele>1122.8</ele><time>2015-11-22T06:23:15.0000000+00:00</time></trkpt><trkpt lat="31.1388876" lon="35.6982462"><ele>1123.1</ele><time>2015-11-22T06:23:16.0000000+00:00</time></trkpt><trkpt lat="31.1388396" lon="35.6982362"><ele>1123.7</ele><time>2015-11-22T06:23:17.0000000+00:00</time></trkpt><trkpt lat="31.1387948" lon="35.698223"><ele>1125.1</ele><time>2015-11-22T06:23:18.0000000+00:00</time></trkpt><trkpt lat="31.1387499" lon="35.6982089"><ele>1125.7</ele><time>2015-11-22T06:23:19.0000000+00:00</time></trkpt><trkpt lat="31.1387008" lon="35.6981978"><ele>1127.1</ele><time>2015-11-22T06:23:20.0000000+00:00</time></trkpt><trkpt lat="31.1386452" lon="35.6981858"><ele>1127.2</ele><time>2015-11-22T06:23:21.0000000+00:00</time></trkpt><trkpt lat="31.138557" lon="35.6981628"><ele>1126.6</ele><time>2015-11-22T06:23:23.0000000+00:00</time></trkpt><trkpt lat="31.1384766" lon="35.6981363"><ele>1124.0</ele><time>2015-11-22T06:23:25.0000000+00:00</time></trkpt><trkpt lat="31.1384287" lon="35.6981202"><ele>1122.2</ele><time>2015-11-22T06:23:26.0000000+00:00</time></trkpt><trkpt lat="31.1383832" lon="35.6981016"><ele>1121.3</ele><time>2015-11-22T06:23:27.0000000+00:00</time></trkpt><trkpt lat="31.1383294" lon="35.6980839"><ele>1121.3</ele><time>2015-11-22T06:23:28.0000000+00:00</time></trkpt><trkpt lat="31.13827" lon="35.6980709"><ele>1120.4</ele><time>2015-11-22T06:23:29.0000000+00:00</time></trkpt><trkpt lat="31.138222" lon="35.6980527"><ele>1119.9</ele><time>2015-11-22T06:23:30.0000000+00:00</time></trkpt><trkpt lat="31.1381706" lon="35.6980331"><ele>1119.1</ele><time>2015-11-22T06:23:31.0000000+00:00</time></trkpt><trkpt lat="31.1381222" lon="35.6979922"><ele>1119.3</ele><time>2015-11-22T06:23:32.0000000+00:00</time></trkpt><trkpt lat="31.1380682" lon="35.69797"><ele>1119.8</ele><time>2015-11-22T06:23:33.0000000+00:00</time></trkpt><trkpt lat="31.1380154" lon="35.6979623"><ele>1120.1</ele><time>2015-11-22T06:23:34.0000000+00:00</time></trkpt><trkpt lat="31.1379623" lon="35.6979488"><ele>1119.8</ele><time>2015-11-22T06:23:35.0000000+00:00</time></trkpt><trkpt lat="31.1379089" lon="35.6979269"><ele>1119.6</ele><time>2015-11-22T06:23:36.0000000+00:00</time></trkpt><trkpt lat="31.1378529" lon="35.6979044"><ele>1119.5</ele><time>2015-11-22T06:23:37.0000000+00:00</time></trkpt><trkpt lat="31.1377956" lon="35.6978834"><ele>1119.4</ele><time>2015-11-22T06:23:38.0000000+00:00</time></trkpt><trkpt lat="31.1377356" lon="35.697872"><ele>1119.9</ele><time>2015-11-22T06:23:39.0000000+00:00</time></trkpt><trkpt lat="31.1376908" lon="35.6978618"><ele>1120.2</ele><time>2015-11-22T06:23:40.0000000+00:00</time></trkpt><trkpt lat="31.1376321" lon="35.697843"><ele>1119.8</ele><time>2015-11-22T06:23:41.0000000+00:00</time></trkpt><trkpt lat="31.1375744" lon="35.6978147"><ele>1119.6</ele><time>2015-11-22T06:23:42.0000000+00:00</time></trkpt><trkpt lat="31.1375115" lon="35.6977992"><ele>1120.0</ele><time>2015-11-22T06:23:43.0000000+00:00</time></trkpt><trkpt lat="31.1374619" lon="35.6977883"><ele>1120.2</ele><time>2015-11-22T06:23:44.0000000+00:00</time></trkpt><trkpt lat="31.1374098" lon="35.6977682"><ele>1120.3</ele><time>2015-11-22T06:23:45.0000000+00:00</time></trkpt><trkpt lat="31.1373532" lon="35.6977487"><ele>1121.4</ele><time>2015-11-22T06:23:46.0000000+00:00</time></trkpt><trkpt lat="31.1373031" lon="35.6977337"><ele>1120.9</ele><time>2015-11-22T06:23:47.0000000+00:00</time></trkpt><trkpt lat="31.1372492" lon="35.6977339"><ele>1119.6</ele><time>2015-11-22T06:23:48.0000000+00:00</time></trkpt><trkpt lat="31.1371969" lon="35.697715"><ele>1119.5</ele><time>2015-11-22T06:23:49.0000000+00:00</time></trkpt><trkpt lat="31.1371397" lon="35.6976754"><ele>1119.5</ele><time>2015-11-22T06:23:50.0000000+00:00</time></trkpt><trkpt lat="31.1370815" lon="35.6976448"><ele>1118.4</ele><time>2015-11-22T06:23:51.0000000+00:00</time></trkpt><trkpt lat="31.1370296" lon="35.697633"><ele>1117.9</ele><time>2015-11-22T06:23:52.0000000+00:00</time></trkpt><trkpt lat="31.1369712" lon="35.6976245"><ele>1118.2</ele><time>2015-11-22T06:23:53.0000000+00:00</time></trkpt><trkpt lat="31.1368931" lon="35.6976155"><ele>1118.3</ele><time>2015-11-22T06:23:54.0000000+00:00</time></trkpt><trkpt lat="31.1368292" lon="35.6976108"><ele>1118.3</ele><time>2015-11-22T06:23:55.0000000+00:00</time></trkpt><trkpt lat="31.1367599" lon="35.6976066"><ele>1117.9</ele><time>2015-11-22T06:23:56.0000000+00:00</time></trkpt><trkpt lat="31.13668" lon="35.6976055"><ele>1117.6</ele><time>2015-11-22T06:23:57.0000000+00:00</time></trkpt><trkpt lat="31.1366028" lon="35.6975972"><ele>1117.5</ele><time>2015-11-22T06:23:58.0000000+00:00</time></trkpt><trkpt lat="31.1365268" lon="35.6975987"><ele>1117.0</ele><time>2015-11-22T06:23:59.0000000+00:00</time></trkpt><trkpt lat="31.1364448" lon="35.6975986"><ele>1116.7</ele><time>2015-11-22T06:24:00.0000000+00:00</time></trkpt><trkpt lat="31.1363706" lon="35.6976205"><ele>1116.5</ele><time>2015-11-22T06:24:01.0000000+00:00</time></trkpt><trkpt lat="31.136292" lon="35.6976438"><ele>1116.5</ele><time>2015-11-22T06:24:02.0000000+00:00</time></trkpt><trkpt lat="31.1362038" lon="35.6976801"><ele>1115.9</ele><time>2015-11-22T06:24:03.0000000+00:00</time></trkpt><trkpt lat="31.1361229" lon="35.6976952"><ele>1116.2</ele><time>2015-11-22T06:24:04.0000000+00:00</time></trkpt><trkpt lat="31.1360428" lon="35.6977357"><ele>1116.3</ele><time>2015-11-22T06:24:05.0000000+00:00</time></trkpt><trkpt lat="31.1359642" lon="35.6977537"><ele>1116.3</ele><time>2015-11-22T06:24:06.0000000+00:00</time></trkpt><trkpt lat="31.1358864" lon="35.6977746"><ele>1116.4</ele><time>2015-11-22T06:24:07.0000000+00:00</time></trkpt><trkpt lat="31.1358044" lon="35.6978001"><ele>1116.9</ele><time>2015-11-22T06:24:08.0000000+00:00</time></trkpt><trkpt lat="31.1357371" lon="35.6978322"><ele>1117.1</ele><time>2015-11-22T06:24:09.0000000+00:00</time></trkpt><trkpt lat="31.1356735" lon="35.6978546"><ele>1117.3</ele><time>2015-11-22T06:24:10.0000000+00:00</time></trkpt><trkpt lat="31.1356065" lon="35.6978805"><ele>1117.3</ele><time>2015-11-22T06:24:11.0000000+00:00</time></trkpt><trkpt lat="31.1355415" lon="35.697893"><ele>1120.9</ele><time>2015-11-22T06:24:12.0000000+00:00</time></trkpt><trkpt lat="31.1354913" lon="35.6979332"><ele>1125.1</ele><time>2015-11-22T06:24:13.0000000+00:00</time></trkpt><trkpt lat="31.1354333" lon="35.6979488"><ele>1129.3</ele><time>2015-11-22T06:24:14.0000000+00:00</time></trkpt><trkpt lat="31.1353731" lon="35.6979783"><ele>1131.3</ele><time>2015-11-22T06:24:15.0000000+00:00</time></trkpt><trkpt lat="31.1353195" lon="35.6979916"><ele>1132.4</ele><time>2015-11-22T06:24:16.0000000+00:00</time></trkpt><trkpt lat="31.135268" lon="35.6980116"><ele>1132.9</ele><time>2015-11-22T06:24:17.0000000+00:00</time></trkpt><trkpt lat="31.1351956" lon="35.6980434"><ele>1134.0</ele><time>2015-11-22T06:24:19.0000000+00:00</time></trkpt><trkpt lat="31.135126" lon="35.6980667"><ele>1134.3</ele><time>2015-11-22T06:24:21.0000000+00:00</time></trkpt><trkpt lat="31.1350595" lon="35.6980977"><ele>1136.4</ele><time>2015-11-22T06:24:23.0000000+00:00</time></trkpt><trkpt lat="31.1349944" lon="35.6981158"><ele>1136.6</ele><time>2015-11-22T06:24:25.0000000+00:00</time></trkpt><trkpt lat="31.1349467" lon="35.6981126"><ele>1135.7</ele><time>2015-11-22T06:24:27.0000000+00:00</time></trkpt><trkpt lat="31.1348927" lon="35.6981392"><ele>1135.0</ele><time>2015-11-22T06:24:29.0000000+00:00</time></trkpt><trkpt lat="31.1348439" lon="35.6981586"><ele>1135.0</ele><time>2015-11-22T06:24:31.0000000+00:00</time></trkpt><trkpt lat="31.1347981" lon="35.6981867"><ele>1135.3</ele><time>2015-11-22T06:24:33.0000000+00:00</time></trkpt><trkpt lat="31.1347527" lon="35.6982155"><ele>1136.1</ele><time>2015-11-22T06:24:35.0000000+00:00</time></trkpt><trkpt lat="31.1347042" lon="35.6982603"><ele>1137.2</ele><time>2015-11-22T06:24:38.0000000+00:00</time></trkpt><trkpt lat="31.1346437" lon="35.6982864"><ele>1136.6</ele><time>2015-11-22T06:24:41.0000000+00:00</time></trkpt><trkpt lat="31.1345899" lon="35.6983019"><ele>1135.2</ele><time>2015-11-22T06:24:44.0000000+00:00</time></trkpt><trkpt lat="31.1345303" lon="35.6983216"><ele>1137.7</ele><time>2015-11-22T06:24:47.0000000+00:00</time></trkpt><trkpt lat="31.1344841" lon="35.698355"><ele>1139.4</ele><time>2015-11-22T06:24:50.0000000+00:00</time></trkpt><trkpt lat="31.134436" lon="35.6983879"><ele>1141.4</ele><time>2015-11-22T06:24:53.0000000+00:00</time></trkpt><trkpt lat="31.1343823" lon="35.6984122"><ele>1142.7</ele><time>2015-11-22T06:24:56.0000000+00:00</time></trkpt><trkpt lat="31.1343236" lon="35.6984359"><ele>1144.1</ele><time>2015-11-22T06:24:59.0000000+00:00</time></trkpt><trkpt lat="31.1342641" lon="35.6984678"><ele>1143.9</ele><time>2015-11-22T06:25:02.0000000+00:00</time></trkpt><trkpt lat="31.1342053" lon="35.6985022"><ele>1144.8</ele><time>2015-11-22T06:25:05.0000000+00:00</time></trkpt><trkpt lat="31.1341477" lon="35.6985282"><ele>1145.1</ele><time>2015-11-22T06:25:08.0000000+00:00</time></trkpt><trkpt lat="31.134093" lon="35.6985467"><ele>1145.0</ele><time>2015-11-22T06:25:11.0000000+00:00</time></trkpt><trkpt lat="31.134033" lon="35.6985597"><ele>1146.2</ele><time>2015-11-22T06:25:14.0000000+00:00</time></trkpt><trkpt lat="31.1339786" lon="35.698573"><ele>1145.6</ele><time>2015-11-22T06:25:17.0000000+00:00</time></trkpt><trkpt lat="31.1339258" lon="35.6985919"><ele>1144.9</ele><time>2015-11-22T06:25:20.0000000+00:00</time></trkpt><trkpt lat="31.1338702" lon="35.6986118"><ele>1145.2</ele><time>2015-11-22T06:25:23.0000000+00:00</time></trkpt><trkpt lat="31.1338123" lon="35.6986423"><ele>1146.3</ele><time>2015-11-22T06:25:26.0000000+00:00</time></trkpt><trkpt lat="31.1337709" lon="35.6986677"><ele>1147.1</ele><time>2015-11-22T06:25:28.0000000+00:00</time></trkpt><trkpt lat="31.1337294" lon="35.6986884"><ele>1148.1</ele><time>2015-11-22T06:25:30.0000000+00:00</time></trkpt><trkpt lat="31.1336702" lon="35.6987187"><ele>1142.1</ele><time>2015-11-22T06:25:33.0000000+00:00</time></trkpt><trkpt lat="31.1336132" lon="35.6987448"><ele>1138.0</ele><time>2015-11-22T06:25:36.0000000+00:00</time></trkpt><trkpt lat="31.1335581" lon="35.6987692"><ele>1136.4</ele><time>2015-11-22T06:25:39.0000000+00:00</time></trkpt><trkpt lat="31.1335032" lon="35.6987905"><ele>1134.6</ele><time>2015-11-22T06:25:42.0000000+00:00</time></trkpt><trkpt lat="31.1334389" lon="35.6988012"><ele>1135.6</ele><time>2015-11-22T06:25:45.0000000+00:00</time></trkpt><trkpt lat="31.1333856" lon="35.6988079"><ele>1136.7</ele><time>2015-11-22T06:25:47.0000000+00:00</time></trkpt><trkpt lat="31.133319" lon="35.6988195"><ele>1137.2</ele><time>2015-11-22T06:25:49.0000000+00:00</time></trkpt><trkpt lat="31.1332385" lon="35.6988299"><ele>1136.1</ele><time>2015-11-22T06:25:51.0000000+00:00</time></trkpt><trkpt lat="31.1331281" lon="35.6988243"><ele>1137.3</ele><time>2015-11-22T06:25:53.0000000+00:00</time></trkpt><trkpt lat="31.1330735" lon="35.6988221"><ele>1137.9</ele><time>2015-11-22T06:25:54.0000000+00:00</time></trkpt><trkpt lat="31.1330176" lon="35.6988128"><ele>1137.6</ele><time>2015-11-22T06:25:55.0000000+00:00</time></trkpt><trkpt lat="31.132964" lon="35.6988064"><ele>1137.5</ele><time>2015-11-22T06:25:56.0000000+00:00</time></trkpt><trkpt lat="31.132899" lon="35.6987911"><ele>1137.5</ele><time>2015-11-22T06:25:57.0000000+00:00</time></trkpt><trkpt lat="31.1328329" lon="35.6987816"><ele>1137.4</ele><time>2015-11-22T06:25:58.0000000+00:00</time></trkpt><trkpt lat="31.1327669" lon="35.6987671"><ele>1137.4</ele><time>2015-11-22T06:25:59.0000000+00:00</time></trkpt><trkpt lat="31.1326932" lon="35.6987561"><ele>1136.9</ele><time>2015-11-22T06:26:00.0000000+00:00</time></trkpt><trkpt lat="31.1326161" lon="35.6987404"><ele>1137.2</ele><time>2015-11-22T06:26:01.0000000+00:00</time></trkpt><trkpt lat="31.1325364" lon="35.6987251"><ele>1136.8</ele><time>2015-11-22T06:26:02.0000000+00:00</time></trkpt><trkpt lat="31.1324554" lon="35.698705"><ele>1136.6</ele><time>2015-11-22T06:26:03.0000000+00:00</time></trkpt><trkpt lat="31.1323813" lon="35.6986808"><ele>1136.0</ele><time>2015-11-22T06:26:04.0000000+00:00</time></trkpt><trkpt lat="31.1323009" lon="35.6986568"><ele>1134.7</ele><time>2015-11-22T06:26:05.0000000+00:00</time></trkpt><trkpt lat="31.1322242" lon="35.6986371"><ele>1134.1</ele><time>2015-11-22T06:26:06.0000000+00:00</time></trkpt><trkpt lat="31.1321435" lon="35.698626"><ele>1132.7</ele><time>2015-11-22T06:26:07.0000000+00:00</time></trkpt><trkpt lat="31.1320768" lon="35.6986045"><ele>1131.6</ele><time>2015-11-22T06:26:08.0000000+00:00</time></trkpt><trkpt lat="31.1319975" lon="35.6985949"><ele>1131.0</ele><time>2015-11-22T06:26:09.0000000+00:00</time></trkpt><trkpt lat="31.1319194" lon="35.6985748"><ele>1130.7</ele><time>2015-11-22T06:26:10.0000000+00:00</time></trkpt><trkpt lat="31.1318405" lon="35.6985782"><ele>1130.0</ele><time>2015-11-22T06:26:11.0000000+00:00</time></trkpt><trkpt lat="31.1317609" lon="35.6985694"><ele>1129.2</ele><time>2015-11-22T06:26:12.0000000+00:00</time></trkpt><trkpt lat="31.1316763" lon="35.6985646"><ele>1129.3</ele><time>2015-11-22T06:26:13.0000000+00:00</time></trkpt><trkpt lat="31.131588" lon="35.6985755"><ele>1129.9</ele><time>2015-11-22T06:26:14.0000000+00:00</time></trkpt><trkpt lat="31.1315132" lon="35.6985932"><ele>1130.6</ele><time>2015-11-22T06:26:15.0000000+00:00</time></trkpt><trkpt lat="31.1314318" lon="35.6986167"><ele>1131.0</ele><time>2015-11-22T06:26:16.0000000+00:00</time></trkpt><trkpt lat="31.1313572" lon="35.6986407"><ele>1131.7</ele><time>2015-11-22T06:26:17.0000000+00:00</time></trkpt><trkpt lat="31.1312792" lon="35.6986709"><ele>1132.1</ele><time>2015-11-22T06:26:18.0000000+00:00</time></trkpt><trkpt lat="31.1311996" lon="35.6987073"><ele>1133.2</ele><time>2015-11-22T06:26:19.0000000+00:00</time></trkpt><trkpt lat="31.1311173" lon="35.6987426"><ele>1134.3</ele><time>2015-11-22T06:26:20.0000000+00:00</time></trkpt><trkpt lat="31.1310386" lon="35.6987796"><ele>1134.9</ele><time>2015-11-22T06:26:21.0000000+00:00</time></trkpt><trkpt lat="31.1309582" lon="35.6988181"><ele>1133.1</ele><time>2015-11-22T06:26:22.0000000+00:00</time></trkpt><trkpt lat="31.1308772" lon="35.6988571"><ele>1131.8</ele><time>2015-11-22T06:26:23.0000000+00:00</time></trkpt><trkpt lat="31.1307949" lon="35.6988979"><ele>1130.6</ele><time>2015-11-22T06:26:24.0000000+00:00</time></trkpt><trkpt lat="31.1307089" lon="35.6989467"><ele>1130.5</ele><time>2015-11-22T06:26:25.0000000+00:00</time></trkpt><trkpt lat="31.1306174" lon="35.6989946"><ele>1129.4</ele><time>2015-11-22T06:26:26.0000000+00:00</time></trkpt><trkpt lat="31.1305308" lon="35.699044"><ele>1127.9</ele><time>2015-11-22T06:26:27.0000000+00:00</time></trkpt><trkpt lat="31.1304559" lon="35.6990926"><ele>1127.2</ele><time>2015-11-22T06:26:28.0000000+00:00</time></trkpt><trkpt lat="31.1303732" lon="35.6991483"><ele>1126.3</ele><time>2015-11-22T06:26:29.0000000+00:00</time></trkpt><trkpt lat="31.130288" lon="35.6991992"><ele>1126.3</ele><time>2015-11-22T06:26:30.0000000+00:00</time></trkpt><trkpt lat="31.1301949" lon="35.6992435"><ele>1126.4</ele><time>2015-11-22T06:26:31.0000000+00:00</time></trkpt><trkpt lat="31.1301051" lon="35.699295"><ele>1126.9</ele><time>2015-11-22T06:26:32.0000000+00:00</time></trkpt><trkpt lat="31.1300189" lon="35.6993438"><ele>1127.1</ele><time>2015-11-22T06:26:33.0000000+00:00</time></trkpt><trkpt lat="31.1299205" lon="35.6993789"><ele>1126.8</ele><time>2015-11-22T06:26:34.0000000+00:00</time></trkpt><trkpt lat="31.1298437" lon="35.6994254"><ele>1126.6</ele><time>2015-11-22T06:26:35.0000000+00:00</time></trkpt><trkpt lat="31.1297593" lon="35.6994756"><ele>1126.5</ele><time>2015-11-22T06:26:36.0000000+00:00</time></trkpt><trkpt lat="31.1296801" lon="35.699534"><ele>1126.4</ele><time>2015-11-22T06:26:37.0000000+00:00</time></trkpt><trkpt lat="31.1295996" lon="35.6995778"><ele>1126.9</ele><time>2015-11-22T06:26:38.0000000+00:00</time></trkpt><trkpt lat="31.1295194" lon="35.6996158"><ele>1127.7</ele><time>2015-11-22T06:26:39.0000000+00:00</time></trkpt><trkpt lat="31.1294406" lon="35.6996501"><ele>1128.0</ele><time>2015-11-22T06:26:40.0000000+00:00</time></trkpt><trkpt lat="31.1293627" lon="35.6996884"><ele>1128.7</ele><time>2015-11-22T06:26:41.0000000+00:00</time></trkpt><trkpt lat="31.1292785" lon="35.6997292"><ele>1129.1</ele><time>2015-11-22T06:26:42.0000000+00:00</time></trkpt><trkpt lat="31.1291965" lon="35.6997769"><ele>1129.7</ele><time>2015-11-22T06:26:43.0000000+00:00</time></trkpt><trkpt lat="31.1291197" lon="35.6998286"><ele>1130.6</ele><time>2015-11-22T06:26:44.0000000+00:00</time></trkpt><trkpt lat="31.1290333" lon="35.6998822"><ele>1131.5</ele><time>2015-11-22T06:26:45.0000000+00:00</time></trkpt><trkpt lat="31.1289543" lon="35.6999318"><ele>1131.4</ele><time>2015-11-22T06:26:46.0000000+00:00</time></trkpt><trkpt lat="31.1288811" lon="35.6999659"><ele>1130.4</ele><time>2015-11-22T06:26:47.0000000+00:00</time></trkpt><trkpt lat="31.1287884" lon="35.700009"><ele>1130.4</ele><time>2015-11-22T06:26:48.0000000+00:00</time></trkpt><trkpt lat="31.1287005" lon="35.7000461"><ele>1130.4</ele><time>2015-11-22T06:26:49.0000000+00:00</time></trkpt><trkpt lat="31.1286102" lon="35.7000843"><ele>1130.9</ele><time>2015-11-22T06:26:50.0000000+00:00</time></trkpt><trkpt lat="31.1285211" lon="35.7001258"><ele>1130.7</ele><time>2015-11-22T06:26:51.0000000+00:00</time></trkpt><trkpt lat="31.1284316" lon="35.7001732"><ele>1130.5</ele><time>2015-11-22T06:26:52.0000000+00:00</time></trkpt><trkpt lat="31.1283597" lon="35.7002244"><ele>1130.0</ele><time>2015-11-22T06:26:53.0000000+00:00</time></trkpt><trkpt lat="31.1282776" lon="35.7002666"><ele>1130.7</ele><time>2015-11-22T06:26:54.0000000+00:00</time></trkpt><trkpt lat="31.1281973" lon="35.7003265"><ele>1131.0</ele><time>2015-11-22T06:26:55.0000000+00:00</time></trkpt><trkpt lat="31.1281211" lon="35.7003702"><ele>1130.7</ele><time>2015-11-22T06:26:56.0000000+00:00</time></trkpt><trkpt lat="31.1280404" lon="35.7003963"><ele>1130.1</ele><time>2015-11-22T06:26:57.0000000+00:00</time></trkpt><trkpt lat="31.1279485" lon="35.7004189"><ele>1129.2</ele><time>2015-11-22T06:26:58.0000000+00:00</time></trkpt><trkpt lat="31.1278702" lon="35.7004563"><ele>1129.3</ele><time>2015-11-22T06:26:59.0000000+00:00</time></trkpt><trkpt lat="31.1277949" lon="35.7004817"><ele>1128.9</ele><time>2015-11-22T06:27:00.0000000+00:00</time></trkpt><trkpt lat="31.1277234" lon="35.7005242"><ele>1128.6</ele><time>2015-11-22T06:27:01.0000000+00:00</time></trkpt><trkpt lat="31.1276524" lon="35.7005707"><ele>1128.0</ele><time>2015-11-22T06:27:02.0000000+00:00</time></trkpt><trkpt lat="31.1275808" lon="35.7006065"><ele>1128.2</ele><time>2015-11-22T06:27:03.0000000+00:00</time></trkpt><trkpt lat="31.1275041" lon="35.7006465"><ele>1128.3</ele><time>2015-11-22T06:27:04.0000000+00:00</time></trkpt><trkpt lat="31.1274292" lon="35.7006775"><ele>1128.4</ele><time>2015-11-22T06:27:05.0000000+00:00</time></trkpt><trkpt lat="31.1273602" lon="35.7007127"><ele>1129.9</ele><time>2015-11-22T06:27:06.0000000+00:00</time></trkpt><trkpt lat="31.1273023" lon="35.7007427"><ele>1130.1</ele><time>2015-11-22T06:27:07.0000000+00:00</time></trkpt><trkpt lat="31.1272446" lon="35.7007752"><ele>1130.3</ele><time>2015-11-22T06:27:08.0000000+00:00</time></trkpt><trkpt lat="31.1271808" lon="35.7008076"><ele>1130.8</ele><time>2015-11-22T06:27:09.0000000+00:00</time></trkpt><trkpt lat="31.1271292" lon="35.7008462"><ele>1131.1</ele><time>2015-11-22T06:27:10.0000000+00:00</time></trkpt><trkpt lat="31.1270792" lon="35.7008708"><ele>1131.3</ele><time>2015-11-22T06:27:11.0000000+00:00</time></trkpt><trkpt lat="31.1270284" lon="35.7008788"><ele>1131.3</ele><time>2015-11-22T06:27:12.0000000+00:00</time></trkpt><trkpt lat="31.1269853" lon="35.7009027"><ele>1131.9</ele><time>2015-11-22T06:27:13.0000000+00:00</time></trkpt><trkpt lat="31.1269446" lon="35.7009314"><ele>1132.1</ele><time>2015-11-22T06:27:14.0000000+00:00</time></trkpt><trkpt lat="31.1269027" lon="35.7009577"><ele>1132.8</ele><time>2015-11-22T06:27:15.0000000+00:00</time></trkpt><trkpt lat="31.1268618" lon="35.7009812"><ele>1133.1</ele><time>2015-11-22T06:27:16.0000000+00:00</time></trkpt><trkpt lat="31.1267873" lon="35.7010346"><ele>1134.6</ele><time>2015-11-22T06:27:18.0000000+00:00</time></trkpt><trkpt lat="31.1267241" lon="35.7010702"><ele>1133.7</ele><time>2015-11-22T06:27:20.0000000+00:00</time></trkpt><trkpt lat="31.1266476" lon="35.7011148"><ele>1132.2</ele><time>2015-11-22T06:27:22.0000000+00:00</time></trkpt><trkpt lat="31.1265829" lon="35.7011419"><ele>1130.9</ele><time>2015-11-22T06:27:24.0000000+00:00</time></trkpt><trkpt lat="31.1265085" lon="35.7011811"><ele>1131.8</ele><time>2015-11-22T06:27:26.0000000+00:00</time></trkpt><trkpt lat="31.1264323" lon="35.7012193"><ele>1132.5</ele><time>2015-11-22T06:27:28.0000000+00:00</time></trkpt><trkpt lat="31.1263568" lon="35.7012545"><ele>1133.2</ele><time>2015-11-22T06:27:30.0000000+00:00</time></trkpt><trkpt lat="31.126285" lon="35.7012931"><ele>1133.3</ele><time>2015-11-22T06:27:32.0000000+00:00</time></trkpt><trkpt lat="31.1262116" lon="35.7013365"><ele>1132.9</ele><time>2015-11-22T06:27:34.0000000+00:00</time></trkpt><trkpt lat="31.1261378" lon="35.7013785"><ele>1133.0</ele><time>2015-11-22T06:27:36.0000000+00:00</time></trkpt><trkpt lat="31.1260616" lon="35.7014165"><ele>1133.8</ele><time>2015-11-22T06:27:38.0000000+00:00</time></trkpt><trkpt lat="31.1259866" lon="35.701453"><ele>1133.5</ele><time>2015-11-22T06:27:40.0000000+00:00</time></trkpt><trkpt lat="31.1259117" lon="35.7014902"><ele>1132.4</ele><time>2015-11-22T06:27:42.0000000+00:00</time></trkpt><trkpt lat="31.1258696" lon="35.7015193"><ele>1132.4</ele><time>2015-11-22T06:27:43.0000000+00:00</time></trkpt><trkpt lat="31.1257931" lon="35.7015635"><ele>1133.4</ele><time>2015-11-22T06:27:45.0000000+00:00</time></trkpt><trkpt lat="31.1257489" lon="35.7015848"><ele>1134.4</ele><time>2015-11-22T06:27:46.0000000+00:00</time></trkpt><trkpt lat="31.1256806" lon="35.7016225"><ele>1138.7</ele><time>2015-11-22T06:27:48.0000000+00:00</time></trkpt><trkpt lat="31.1256167" lon="35.7016725"><ele>1139.5</ele><time>2015-11-22T06:27:50.0000000+00:00</time></trkpt><trkpt lat="31.1255671" lon="35.701697"><ele>1141.4</ele><time>2015-11-22T06:27:52.0000000+00:00</time></trkpt><trkpt lat="31.1255077" lon="35.7017329"><ele>1141.2</ele><time>2015-11-22T06:27:54.0000000+00:00</time></trkpt><trkpt lat="31.1254475" lon="35.7017642"><ele>1140.3</ele><time>2015-11-22T06:27:56.0000000+00:00</time></trkpt><trkpt lat="31.1253826" lon="35.7017869"><ele>1140.4</ele><time>2015-11-22T06:27:58.0000000+00:00</time></trkpt><trkpt lat="31.125315" lon="35.7018108"><ele>1140.4</ele><time>2015-11-22T06:28:00.0000000+00:00</time></trkpt><trkpt lat="31.1252414" lon="35.7018453"><ele>1140.7</ele><time>2015-11-22T06:28:02.0000000+00:00</time></trkpt><trkpt lat="31.125169" lon="35.7018759"><ele>1140.2</ele><time>2015-11-22T06:28:04.0000000+00:00</time></trkpt><trkpt lat="31.1250955" lon="35.7019051"><ele>1139.6</ele><time>2015-11-22T06:28:06.0000000+00:00</time></trkpt><trkpt lat="31.1250181" lon="35.7019372"><ele>1140.7</ele><time>2015-11-22T06:28:08.0000000+00:00</time></trkpt><trkpt lat="31.1249153" lon="35.701984"><ele>1141.2</ele><time>2015-11-22T06:28:10.0000000+00:00</time></trkpt><trkpt lat="31.1248731" lon="35.7020073"><ele>1141.3</ele><time>2015-11-22T06:28:11.0000000+00:00</time></trkpt><trkpt lat="31.1248256" lon="35.7020326"><ele>1141.4</ele><time>2015-11-22T06:28:12.0000000+00:00</time></trkpt><trkpt lat="31.1247802" lon="35.7020512"><ele>1141.4</ele><time>2015-11-22T06:28:13.0000000+00:00</time></trkpt><trkpt lat="31.1247255" lon="35.702079"><ele>1141.4</ele><time>2015-11-22T06:28:14.0000000+00:00</time></trkpt><trkpt lat="31.124677" lon="35.7020993"><ele>1141.4</ele><time>2015-11-22T06:28:15.0000000+00:00</time></trkpt><trkpt lat="31.1246219" lon="35.7021215"><ele>1141.9</ele><time>2015-11-22T06:28:16.0000000+00:00</time></trkpt><trkpt lat="31.1245703" lon="35.7021328"><ele>1142.2</ele><time>2015-11-22T06:28:17.0000000+00:00</time></trkpt><trkpt lat="31.1245252" lon="35.7021387"><ele>1141.3</ele><time>2015-11-22T06:28:18.0000000+00:00</time></trkpt><trkpt lat="31.1244666" lon="35.7021556"><ele>1140.3</ele><time>2015-11-22T06:28:19.0000000+00:00</time></trkpt><trkpt lat="31.1244056" lon="35.702169"><ele>1139.9</ele><time>2015-11-22T06:28:20.0000000+00:00</time></trkpt><trkpt lat="31.1243501" lon="35.702177"><ele>1140.1</ele><time>2015-11-22T06:28:21.0000000+00:00</time></trkpt><trkpt lat="31.1242909" lon="35.7021824"><ele>1139.8</ele><time>2015-11-22T06:28:22.0000000+00:00</time></trkpt><trkpt lat="31.1242363" lon="35.7021843"><ele>1139.1</ele><time>2015-11-22T06:28:23.0000000+00:00</time></trkpt><trkpt lat="31.1241763" lon="35.7021858"><ele>1138.2</ele><time>2015-11-22T06:28:24.0000000+00:00</time></trkpt><trkpt lat="31.1241151" lon="35.7021957"><ele>1136.8</ele><time>2015-11-22T06:28:25.0000000+00:00</time></trkpt><trkpt lat="31.124061" lon="35.702199"><ele>1137.1</ele><time>2015-11-22T06:28:26.0000000+00:00</time></trkpt><trkpt lat="31.1239975" lon="35.7021917"><ele>1137.3</ele><time>2015-11-22T06:28:27.0000000+00:00</time></trkpt><trkpt lat="31.1239401" lon="35.7021941"><ele>1138.3</ele><time>2015-11-22T06:28:28.0000000+00:00</time></trkpt><trkpt lat="31.12388" lon="35.7021937"><ele>1138.4</ele><time>2015-11-22T06:28:29.0000000+00:00</time></trkpt><trkpt lat="31.1238226" lon="35.7021877"><ele>1138.4</ele><time>2015-11-22T06:28:30.0000000+00:00</time></trkpt><trkpt lat="31.1237626" lon="35.7021824"><ele>1137.9</ele><time>2015-11-22T06:28:31.0000000+00:00</time></trkpt><trkpt lat="31.1237026" lon="35.7021772"><ele>1137.6</ele><time>2015-11-22T06:28:32.0000000+00:00</time></trkpt><trkpt lat="31.1236375" lon="35.7021682"><ele>1137.0</ele><time>2015-11-22T06:28:33.0000000+00:00</time></trkpt><trkpt lat="31.1235657" lon="35.7021574"><ele>1136.7</ele><time>2015-11-22T06:28:34.0000000+00:00</time></trkpt><trkpt lat="31.1235061" lon="35.702141"><ele>1135.6</ele><time>2015-11-22T06:28:35.0000000+00:00</time></trkpt><trkpt lat="31.1234394" lon="35.7021303"><ele>1135.0</ele><time>2015-11-22T06:28:36.0000000+00:00</time></trkpt><trkpt lat="31.1233733" lon="35.702118"><ele>1135.2</ele><time>2015-11-22T06:28:37.0000000+00:00</time></trkpt><trkpt lat="31.1233073" lon="35.7021038"><ele>1135.8</ele><time>2015-11-22T06:28:38.0000000+00:00</time></trkpt><trkpt lat="31.1232398" lon="35.7020948"><ele>1136.6</ele><time>2015-11-22T06:28:39.0000000+00:00</time></trkpt><trkpt lat="31.1231726" lon="35.7020816"><ele>1137.0</ele><time>2015-11-22T06:28:40.0000000+00:00</time></trkpt><trkpt lat="31.1231054" lon="35.7020722"><ele>1137.2</ele><time>2015-11-22T06:28:41.0000000+00:00</time></trkpt><trkpt lat="31.1230387" lon="35.7020636"><ele>1137.3</ele><time>2015-11-22T06:28:42.0000000+00:00</time></trkpt><trkpt lat="31.1229656" lon="35.702055"><ele>1136.9</ele><time>2015-11-22T06:28:43.0000000+00:00</time></trkpt><trkpt lat="31.1229026" lon="35.7020374"><ele>1136.6</ele><time>2015-11-22T06:28:44.0000000+00:00</time></trkpt><trkpt lat="31.1228379" lon="35.7020253"><ele>1136.5</ele><time>2015-11-22T06:28:45.0000000+00:00</time></trkpt><trkpt lat="31.1227785" lon="35.7020022"><ele>1136.5</ele><time>2015-11-22T06:28:46.0000000+00:00</time></trkpt><trkpt lat="31.1227079" lon="35.7019859"><ele>1135.9</ele><time>2015-11-22T06:28:47.0000000+00:00</time></trkpt><trkpt lat="31.1226392" lon="35.7019666"><ele>1135.7</ele><time>2015-11-22T06:28:48.0000000+00:00</time></trkpt><trkpt lat="31.1225682" lon="35.7019575"><ele>1136.0</ele><time>2015-11-22T06:28:49.0000000+00:00</time></trkpt><trkpt lat="31.1225015" lon="35.7019432"><ele>1136.2</ele><time>2015-11-22T06:28:50.0000000+00:00</time></trkpt><trkpt lat="31.1224222" lon="35.701932"><ele>1135.8</ele><time>2015-11-22T06:28:51.0000000+00:00</time></trkpt><trkpt lat="31.1223588" lon="35.7019188"><ele>1135.6</ele><time>2015-11-22T06:28:52.0000000+00:00</time></trkpt><trkpt lat="31.1222979" lon="35.701912"><ele>1135.0</ele><time>2015-11-22T06:28:53.0000000+00:00</time></trkpt><trkpt lat="31.1222352" lon="35.7019026"><ele>1135.2</ele><time>2015-11-22T06:28:54.0000000+00:00</time></trkpt><trkpt lat="31.1221708" lon="35.701888"><ele>1135.3</ele><time>2015-11-22T06:28:55.0000000+00:00</time></trkpt><trkpt lat="31.1221108" lon="35.7018836"><ele>1135.4</ele><time>2015-11-22T06:28:56.0000000+00:00</time></trkpt><trkpt lat="31.122046" lon="35.7018717"><ele>1134.9</ele><time>2015-11-22T06:28:57.0000000+00:00</time></trkpt><trkpt lat="31.1219847" lon="35.7018607"><ele>1135.1</ele><time>2015-11-22T06:28:58.0000000+00:00</time></trkpt><trkpt lat="31.121927" lon="35.7018537"><ele>1135.3</ele><time>2015-11-22T06:28:59.0000000+00:00</time></trkpt><trkpt lat="31.1218719" lon="35.7018368"><ele>1134.8</ele><time>2015-11-22T06:29:00.0000000+00:00</time></trkpt><trkpt lat="31.1218044" lon="35.7018191"><ele>1134.1</ele><time>2015-11-22T06:29:01.0000000+00:00</time></trkpt><trkpt lat="31.1217374" lon="35.7018098"><ele>1133.8</ele><time>2015-11-22T06:29:02.0000000+00:00</time></trkpt><trkpt lat="31.121678" lon="35.7017884"><ele>1133.6</ele><time>2015-11-22T06:29:03.0000000+00:00</time></trkpt><trkpt lat="31.1216221" lon="35.7017757"><ele>1133.5</ele><time>2015-11-22T06:29:04.0000000+00:00</time></trkpt><trkpt lat="31.1215652" lon="35.7017724"><ele>1133.9</ele><time>2015-11-22T06:29:05.0000000+00:00</time></trkpt><trkpt lat="31.1215081" lon="35.7017642"><ele>1135.2</ele><time>2015-11-22T06:29:06.0000000+00:00</time></trkpt><trkpt lat="31.121453" lon="35.7017566"><ele>1135.8</ele><time>2015-11-22T06:29:07.0000000+00:00</time></trkpt><trkpt lat="31.1213954" lon="35.7017424"><ele>1136.1</ele><time>2015-11-22T06:29:08.0000000+00:00</time></trkpt><trkpt lat="31.1213479" lon="35.7017326"><ele>1135.7</ele><time>2015-11-22T06:29:09.0000000+00:00</time></trkpt><trkpt lat="31.1213032" lon="35.7017201"><ele>1136.1</ele><time>2015-11-22T06:29:10.0000000+00:00</time></trkpt><trkpt lat="31.1212524" lon="35.7017094"><ele>1136.7</ele><time>2015-11-22T06:29:11.0000000+00:00</time></trkpt><trkpt lat="31.1212073" lon="35.7017012"><ele>1137.1</ele><time>2015-11-22T06:29:12.0000000+00:00</time></trkpt><trkpt lat="31.1211573" lon="35.7016904"><ele>1136.2</ele><time>2015-11-22T06:29:13.0000000+00:00</time></trkpt><trkpt lat="31.1211073" lon="35.7016823"><ele>1135.8</ele><time>2015-11-22T06:29:14.0000000+00:00</time></trkpt><trkpt lat="31.1210592" lon="35.701671"><ele>1136.1</ele><time>2015-11-22T06:29:15.0000000+00:00</time></trkpt><trkpt lat="31.1209825" lon="35.7016611"><ele>1136.3</ele><time>2015-11-22T06:29:17.0000000+00:00</time></trkpt><trkpt lat="31.1209089" lon="35.7016474"><ele>1137.1</ele><time>2015-11-22T06:29:19.0000000+00:00</time></trkpt><trkpt lat="31.1208627" lon="35.7016448"><ele>1137.3</ele><time>2015-11-22T06:29:20.0000000+00:00</time></trkpt><trkpt lat="31.1208172" lon="35.7016373"><ele>1137.8</ele><time>2015-11-22T06:29:21.0000000+00:00</time></trkpt><trkpt lat="31.120737" lon="35.7016304"><ele>1138.3</ele><time>2015-11-22T06:29:23.0000000+00:00</time></trkpt><trkpt lat="31.1206665" lon="35.7016144"><ele>1138.9</ele><time>2015-11-22T06:29:25.0000000+00:00</time></trkpt><trkpt lat="31.1206014" lon="35.7016029"><ele>1138.5</ele><time>2015-11-22T06:29:27.0000000+00:00</time></trkpt><trkpt lat="31.1205326" lon="35.7015933"><ele>1138.7</ele><time>2015-11-22T06:29:29.0000000+00:00</time></trkpt><trkpt lat="31.1204693" lon="35.7015871"><ele>1138.5</ele><time>2015-11-22T06:29:31.0000000+00:00</time></trkpt><trkpt lat="31.1204034" lon="35.7015811"><ele>1137.9</ele><time>2015-11-22T06:29:33.0000000+00:00</time></trkpt><trkpt lat="31.1203373" lon="35.7015671"><ele>1138.0</ele><time>2015-11-22T06:29:35.0000000+00:00</time></trkpt><trkpt lat="31.1202678" lon="35.7015497"><ele>1138.3</ele><time>2015-11-22T06:29:37.0000000+00:00</time></trkpt><trkpt lat="31.1201997" lon="35.7015319"><ele>1139.4</ele><time>2015-11-22T06:29:39.0000000+00:00</time></trkpt><trkpt lat="31.1201318" lon="35.7015198"><ele>1139.4</ele><time>2015-11-22T06:29:41.0000000+00:00</time></trkpt><trkpt lat="31.1200629" lon="35.7015127"><ele>1140.7</ele><time>2015-11-22T06:29:43.0000000+00:00</time></trkpt><trkpt lat="31.119997" lon="35.7015021"><ele>1140.7</ele><time>2015-11-22T06:29:45.0000000+00:00</time></trkpt><trkpt lat="31.1199322" lon="35.7014859"><ele>1136.2</ele><time>2015-11-22T06:29:47.0000000+00:00</time></trkpt><trkpt lat="31.1198676" lon="35.7014702"><ele>1136.6</ele><time>2015-11-22T06:29:49.0000000+00:00</time></trkpt><trkpt lat="31.1198032" lon="35.7014584"><ele>1138.0</ele><time>2015-11-22T06:29:51.0000000+00:00</time></trkpt><trkpt lat="31.1197378" lon="35.7014455"><ele>1138.0</ele><time>2015-11-22T06:29:53.0000000+00:00</time></trkpt><trkpt lat="31.1196699" lon="35.7014337"><ele>1136.8</ele><time>2015-11-22T06:29:55.0000000+00:00</time></trkpt><trkpt lat="31.1195994" lon="35.7014203"><ele>1136.5</ele><time>2015-11-22T06:29:57.0000000+00:00</time></trkpt><trkpt lat="31.1195329" lon="35.7014038"><ele>1137.2</ele><time>2015-11-22T06:29:59.0000000+00:00</time></trkpt><trkpt lat="31.1194649" lon="35.701386"><ele>1137.1</ele><time>2015-11-22T06:30:01.0000000+00:00</time></trkpt><trkpt lat="31.1194014" lon="35.7013769"><ele>1139.1</ele><time>2015-11-22T06:30:03.0000000+00:00</time></trkpt><trkpt lat="31.1193446" lon="35.7013671"><ele>1139.8</ele><time>2015-11-22T06:30:05.0000000+00:00</time></trkpt><trkpt lat="31.1192929" lon="35.7013554"><ele>1140.8</ele><time>2015-11-22T06:30:07.0000000+00:00</time></trkpt><trkpt lat="31.1192404" lon="35.7013465"><ele>1143.2</ele><time>2015-11-22T06:30:09.0000000+00:00</time></trkpt><trkpt lat="31.1191862" lon="35.7013403"><ele>1143.6</ele><time>2015-11-22T06:30:11.0000000+00:00</time></trkpt><trkpt lat="31.1191358" lon="35.7013298"><ele>1145.0</ele><time>2015-11-22T06:30:13.0000000+00:00</time></trkpt><trkpt lat="31.1190822" lon="35.7013204"><ele>1144.8</ele><time>2015-11-22T06:30:15.0000000+00:00</time></trkpt><trkpt lat="31.1190268" lon="35.7013088"><ele>1145.7</ele><time>2015-11-22T06:30:17.0000000+00:00</time></trkpt><trkpt lat="31.1189752" lon="35.7012954"><ele>1145.2</ele><time>2015-11-22T06:30:19.0000000+00:00</time></trkpt><trkpt lat="31.118924" lon="35.7012842"><ele>1146.9</ele><time>2015-11-22T06:30:21.0000000+00:00</time></trkpt><trkpt lat="31.1188757" lon="35.701268"><ele>1148.5</ele><time>2015-11-22T06:30:23.0000000+00:00</time></trkpt><trkpt lat="31.1188267" lon="35.7012552"><ele>1148.7</ele><time>2015-11-22T06:30:25.0000000+00:00</time></trkpt><trkpt lat="31.1187751" lon="35.7012475"><ele>1147.7</ele><time>2015-11-22T06:30:27.0000000+00:00</time></trkpt><trkpt lat="31.1187184" lon="35.701237"><ele>1148.7</ele><time>2015-11-22T06:30:29.0000000+00:00</time></trkpt><trkpt lat="31.1186595" lon="35.7012284"><ele>1151.0</ele><time>2015-11-22T06:30:31.0000000+00:00</time></trkpt><trkpt lat="31.1185985" lon="35.7012172"><ele>1152.3</ele><time>2015-11-22T06:30:33.0000000+00:00</time></trkpt><trkpt lat="31.1185382" lon="35.7012058"><ele>1152.6</ele><time>2015-11-22T06:30:35.0000000+00:00</time></trkpt><trkpt lat="31.1184763" lon="35.7011928"><ele>1151.2</ele><time>2015-11-22T06:30:37.0000000+00:00</time></trkpt><trkpt lat="31.1184154" lon="35.7011779"><ele>1150.6</ele><time>2015-11-22T06:30:39.0000000+00:00</time></trkpt><trkpt lat="31.1183519" lon="35.7011558"><ele>1149.7</ele><time>2015-11-22T06:30:41.0000000+00:00</time></trkpt><trkpt lat="31.1182854" lon="35.7011294"><ele>1151.7</ele><time>2015-11-22T06:30:43.0000000+00:00</time></trkpt><trkpt lat="31.1182187" lon="35.7011049"><ele>1155.0</ele><time>2015-11-22T06:30:45.0000000+00:00</time></trkpt><trkpt lat="31.1181509" lon="35.701088"><ele>1156.8</ele><time>2015-11-22T06:30:47.0000000+00:00</time></trkpt><trkpt lat="31.1180856" lon="35.7010741"><ele>1157.3</ele><time>2015-11-22T06:30:49.0000000+00:00</time></trkpt><trkpt lat="31.1180242" lon="35.7010634"><ele>1158.1</ele><time>2015-11-22T06:30:51.0000000+00:00</time></trkpt><trkpt lat="31.1179678" lon="35.7010517"><ele>1158.3</ele><time>2015-11-22T06:30:53.0000000+00:00</time></trkpt><trkpt lat="31.1179133" lon="35.7010367"><ele>1158.4</ele><time>2015-11-22T06:30:55.0000000+00:00</time></trkpt><trkpt lat="31.1178552" lon="35.7010188"><ele>1157.6</ele><time>2015-11-22T06:30:57.0000000+00:00</time></trkpt><trkpt lat="31.117793" lon="35.7010046"><ele>1157.0</ele><time>2015-11-22T06:30:59.0000000+00:00</time></trkpt><trkpt lat="31.1177234" lon="35.7009908"><ele>1156.5</ele><time>2015-11-22T06:31:01.0000000+00:00</time></trkpt><trkpt lat="31.1176494" lon="35.7009748"><ele>1156.4</ele><time>2015-11-22T06:31:03.0000000+00:00</time></trkpt><trkpt lat="31.1175733" lon="35.7009612"><ele>1157.2</ele><time>2015-11-22T06:31:05.0000000+00:00</time></trkpt><trkpt lat="31.1174988" lon="35.7009446"><ele>1157.3</ele><time>2015-11-22T06:31:07.0000000+00:00</time></trkpt><trkpt lat="31.1174256" lon="35.7009234"><ele>1157.4</ele><time>2015-11-22T06:31:09.0000000+00:00</time></trkpt><trkpt lat="31.1173565" lon="35.7008969"><ele>1156.6</ele><time>2015-11-22T06:31:11.0000000+00:00</time></trkpt><trkpt lat="31.1172877" lon="35.7008739"><ele>1157.0</ele><time>2015-11-22T06:31:13.0000000+00:00</time></trkpt><trkpt lat="31.1172164" lon="35.7008542"><ele>1157.3</ele><time>2015-11-22T06:31:15.0000000+00:00</time></trkpt><trkpt lat="31.117144" lon="35.7008327"><ele>1157.9</ele><time>2015-11-22T06:31:17.0000000+00:00</time></trkpt><trkpt lat="31.1170658" lon="35.7008094"><ele>1158.3</ele><time>2015-11-22T06:31:19.0000000+00:00</time></trkpt><trkpt lat="31.1169829" lon="35.7007795"><ele>1158.4</ele><time>2015-11-22T06:31:21.0000000+00:00</time></trkpt><trkpt lat="31.1168999" lon="35.7007468"><ele>1158.1</ele><time>2015-11-22T06:31:23.0000000+00:00</time></trkpt><trkpt lat="31.1167985" lon="35.7007168"><ele>1157.8</ele><time>2015-11-22T06:31:25.0000000+00:00</time></trkpt><trkpt lat="31.1167503" lon="35.7007005"><ele>1158.6</ele><time>2015-11-22T06:31:26.0000000+00:00</time></trkpt><trkpt lat="31.1167052" lon="35.7006922"><ele>1159.5</ele><time>2015-11-22T06:31:27.0000000+00:00</time></trkpt><trkpt lat="31.1166573" lon="35.7006816"><ele>1160.0</ele><time>2015-11-22T06:31:28.0000000+00:00</time></trkpt><trkpt lat="31.1166068" lon="35.7006715"><ele>1159.7</ele><time>2015-11-22T06:31:29.0000000+00:00</time></trkpt><trkpt lat="31.1165601" lon="35.7006595"><ele>1160.0</ele><time>2015-11-22T06:31:30.0000000+00:00</time></trkpt><trkpt lat="31.1165038" lon="35.7006485"><ele>1160.2</ele><time>2015-11-22T06:31:31.0000000+00:00</time></trkpt><trkpt lat="31.1164511" lon="35.7006333"><ele>1160.3</ele><time>2015-11-22T06:31:32.0000000+00:00</time></trkpt><trkpt lat="31.1163645" lon="35.700614"><ele>1160.4</ele><time>2015-11-22T06:31:34.0000000+00:00</time></trkpt><trkpt lat="31.1163099" lon="35.7006039"><ele>1160.9</ele><time>2015-11-22T06:31:35.0000000+00:00</time></trkpt><trkpt lat="31.1162585" lon="35.7005894"><ele>1160.6</ele><time>2015-11-22T06:31:36.0000000+00:00</time></trkpt><trkpt lat="31.1162054" lon="35.7005719"><ele>1160.5</ele><time>2015-11-22T06:31:37.0000000+00:00</time></trkpt><trkpt lat="31.1161582" lon="35.7005582"><ele>1160.5</ele><time>2015-11-22T06:31:38.0000000+00:00</time></trkpt><trkpt lat="31.1160959" lon="35.7005492"><ele>1160.4</ele><time>2015-11-22T06:31:39.0000000+00:00</time></trkpt><trkpt lat="31.1160389" lon="35.7005382"><ele>1160.9</ele><time>2015-11-22T06:31:40.0000000+00:00</time></trkpt><trkpt lat="31.1159846" lon="35.7005286"><ele>1160.7</ele><time>2015-11-22T06:31:41.0000000+00:00</time></trkpt><trkpt lat="31.1159309" lon="35.7005294"><ele>1161.0</ele><time>2015-11-22T06:31:42.0000000+00:00</time></trkpt><trkpt lat="31.1158733" lon="35.7005187"><ele>1161.2</ele><time>2015-11-22T06:31:43.0000000+00:00</time></trkpt><trkpt lat="31.1158213" lon="35.7005105"><ele>1161.3</ele><time>2015-11-22T06:31:44.0000000+00:00</time></trkpt><trkpt lat="31.1157638" lon="35.7004966"><ele>1160.9</ele><time>2015-11-22T06:31:45.0000000+00:00</time></trkpt><trkpt lat="31.1157098" lon="35.7004895"><ele>1160.6</ele><time>2015-11-22T06:31:46.0000000+00:00</time></trkpt><trkpt lat="31.1156586" lon="35.7004748"><ele>1160.5</ele><time>2015-11-22T06:31:47.0000000+00:00</time></trkpt><trkpt lat="31.1156052" lon="35.7004685"><ele>1160.5</ele><time>2015-11-22T06:31:48.0000000+00:00</time></trkpt><trkpt lat="31.115551" lon="35.7004585"><ele>1160.4</ele><time>2015-11-22T06:31:49.0000000+00:00</time></trkpt><trkpt lat="31.1154968" lon="35.7004365"><ele>1160.4</ele><time>2015-11-22T06:31:50.0000000+00:00</time></trkpt><trkpt lat="31.1154336" lon="35.7004209"><ele>1160.9</ele><time>2015-11-22T06:31:51.0000000+00:00</time></trkpt><trkpt lat="31.115376" lon="35.700405"><ele>1161.2</ele><time>2015-11-22T06:31:52.0000000+00:00</time></trkpt><trkpt lat="31.1153108" lon="35.7003889"><ele>1160.8</ele><time>2015-11-22T06:31:53.0000000+00:00</time></trkpt><trkpt lat="31.115241" lon="35.7003714"><ele>1160.6</ele><time>2015-11-22T06:31:54.0000000+00:00</time></trkpt><trkpt lat="31.1151719" lon="35.7003573"><ele>1160.0</ele><time>2015-11-22T06:31:55.0000000+00:00</time></trkpt><trkpt lat="31.1151048" lon="35.700343"><ele>1159.2</ele><time>2015-11-22T06:31:56.0000000+00:00</time></trkpt><trkpt lat="31.1150341" lon="35.7003298"><ele>1158.8</ele><time>2015-11-22T06:31:57.0000000+00:00</time></trkpt><trkpt lat="31.1149712" lon="35.7003217"><ele>1158.6</ele><time>2015-11-22T06:31:58.0000000+00:00</time></trkpt><trkpt lat="31.114907" lon="35.7003141"><ele>1158.0</ele><time>2015-11-22T06:31:59.0000000+00:00</time></trkpt><trkpt lat="31.11484" lon="35.7003074"><ele>1157.7</ele><time>2015-11-22T06:32:00.0000000+00:00</time></trkpt><trkpt lat="31.1147742" lon="35.7002946"><ele>1157.6</ele><time>2015-11-22T06:32:01.0000000+00:00</time></trkpt><trkpt lat="31.1147017" lon="35.7002878"><ele>1157.5</ele><time>2015-11-22T06:32:02.0000000+00:00</time></trkpt><trkpt lat="31.1146455" lon="35.7002806"><ele>1157.4</ele><time>2015-11-22T06:32:03.0000000+00:00</time></trkpt><trkpt lat="31.1145823" lon="35.7002698"><ele>1157.4</ele><time>2015-11-22T06:32:04.0000000+00:00</time></trkpt><trkpt lat="31.1145198" lon="35.7002584"><ele>1157.4</ele><time>2015-11-22T06:32:05.0000000+00:00</time></trkpt><trkpt lat="31.1144658" lon="35.7002394"><ele>1156.9</ele><time>2015-11-22T06:32:06.0000000+00:00</time></trkpt><trkpt lat="31.1144001" lon="35.7002226"><ele>1156.7</ele><time>2015-11-22T06:32:07.0000000+00:00</time></trkpt><trkpt lat="31.1143337" lon="35.7002069"><ele>1156.0</ele><time>2015-11-22T06:32:08.0000000+00:00</time></trkpt><trkpt lat="31.1142694" lon="35.7001996"><ele>1155.7</ele><time>2015-11-22T06:32:09.0000000+00:00</time></trkpt><trkpt lat="31.1142119" lon="35.7001806"><ele>1155.1</ele><time>2015-11-22T06:32:10.0000000+00:00</time></trkpt><trkpt lat="31.1141523" lon="35.7001771"><ele>1154.7</ele><time>2015-11-22T06:32:11.0000000+00:00</time></trkpt><trkpt lat="31.1140916" lon="35.7001659"><ele>1154.6</ele><time>2015-11-22T06:32:12.0000000+00:00</time></trkpt><trkpt lat="31.1140291" lon="35.7001534"><ele>1155.0</ele><time>2015-11-22T06:32:13.0000000+00:00</time></trkpt><trkpt lat="31.1139635" lon="35.7001382"><ele>1154.7</ele><time>2015-11-22T06:32:14.0000000+00:00</time></trkpt><trkpt lat="31.113912" lon="35.700124"><ele>1154.5</ele><time>2015-11-22T06:32:15.0000000+00:00</time></trkpt><trkpt lat="31.1138468" lon="35.7001154"><ele>1154.5</ele><time>2015-11-22T06:32:16.0000000+00:00</time></trkpt><trkpt lat="31.1137883" lon="35.7001116"><ele>1154.4</ele><time>2015-11-22T06:32:17.0000000+00:00</time></trkpt><trkpt lat="31.1137297" lon="35.7001001"><ele>1154.4</ele><time>2015-11-22T06:32:18.0000000+00:00</time></trkpt><trkpt lat="31.1136726" lon="35.7000882"><ele>1154.9</ele><time>2015-11-22T06:32:19.0000000+00:00</time></trkpt><trkpt lat="31.1136099" lon="35.7000842"><ele>1155.7</ele><time>2015-11-22T06:32:20.0000000+00:00</time></trkpt><trkpt lat="31.1135478" lon="35.7000817"><ele>1156.5</ele><time>2015-11-22T06:32:21.0000000+00:00</time></trkpt><trkpt lat="31.1134827" lon="35.7000669"><ele>1156.0</ele><time>2015-11-22T06:32:22.0000000+00:00</time></trkpt><trkpt lat="31.1134284" lon="35.7000485"><ele>1155.7</ele><time>2015-11-22T06:32:23.0000000+00:00</time></trkpt><trkpt lat="31.1133784" lon="35.7000431"><ele>1156.0</ele><time>2015-11-22T06:32:24.0000000+00:00</time></trkpt><trkpt lat="31.1133248" lon="35.7000282"><ele>1156.2</ele><time>2015-11-22T06:32:25.0000000+00:00</time></trkpt><trkpt lat="31.1132574" lon="35.700021"><ele>1155.8</ele><time>2015-11-22T06:32:26.0000000+00:00</time></trkpt><trkpt lat="31.1131951" lon="35.700015"><ele>1155.1</ele><time>2015-11-22T06:32:27.0000000+00:00</time></trkpt><trkpt lat="31.1131397" lon="35.6999998"><ele>1154.3</ele><time>2015-11-22T06:32:28.0000000+00:00</time></trkpt><trkpt lat="31.1130802" lon="35.6999776"><ele>1153.3</ele><time>2015-11-22T06:32:29.0000000+00:00</time></trkpt><trkpt lat="31.1130185" lon="35.6999637"><ele>1152.9</ele><time>2015-11-22T06:32:30.0000000+00:00</time></trkpt><trkpt lat="31.1129568" lon="35.6999522"><ele>1152.1</ele><time>2015-11-22T06:32:31.0000000+00:00</time></trkpt><trkpt lat="31.1128987" lon="35.6999391"><ele>1151.3</ele><time>2015-11-22T06:32:32.0000000+00:00</time></trkpt><trkpt lat="31.112834" lon="35.6999259"><ele>1151.3</ele><time>2015-11-22T06:32:33.0000000+00:00</time></trkpt><trkpt lat="31.1127734" lon="35.6999105"><ele>1151.4</ele><time>2015-11-22T06:32:34.0000000+00:00</time></trkpt><trkpt lat="31.1127084" lon="35.6999011"><ele>1150.9</ele><time>2015-11-22T06:32:35.0000000+00:00</time></trkpt><trkpt lat="31.1126402" lon="35.6998955"><ele>1150.6</ele><time>2015-11-22T06:32:36.0000000+00:00</time></trkpt><trkpt lat="31.1125745" lon="35.6998878"><ele>1150.5</ele><time>2015-11-22T06:32:37.0000000+00:00</time></trkpt><trkpt lat="31.1125064" lon="35.6998793"><ele>1150.5</ele><time>2015-11-22T06:32:38.0000000+00:00</time></trkpt><trkpt lat="31.1124484" lon="35.6998765"><ele>1150.9</ele><time>2015-11-22T06:32:39.0000000+00:00</time></trkpt><trkpt lat="31.1123933" lon="35.6998668"><ele>1151.7</ele><time>2015-11-22T06:32:40.0000000+00:00</time></trkpt><trkpt lat="31.1123245" lon="35.699858"><ele>1152.0</ele><time>2015-11-22T06:32:41.0000000+00:00</time></trkpt><trkpt lat="31.1122498" lon="35.6998379"><ele>1152.2</ele><time>2015-11-22T06:32:42.0000000+00:00</time></trkpt><trkpt lat="31.1121732" lon="35.6998319"><ele>1151.8</ele><time>2015-11-22T06:32:43.0000000+00:00</time></trkpt><trkpt lat="31.11211" lon="35.6998223"><ele>1151.1</ele><time>2015-11-22T06:32:44.0000000+00:00</time></trkpt><trkpt lat="31.1120472" lon="35.6998161"><ele>1151.3</ele><time>2015-11-22T06:32:45.0000000+00:00</time></trkpt><trkpt lat="31.1119788" lon="35.699805"><ele>1151.3</ele><time>2015-11-22T06:32:46.0000000+00:00</time></trkpt><trkpt lat="31.1119102" lon="35.6997975"><ele>1151.4</ele><time>2015-11-22T06:32:47.0000000+00:00</time></trkpt><trkpt lat="31.1118482" lon="35.699795"><ele>1151.4</ele><time>2015-11-22T06:32:48.0000000+00:00</time></trkpt><trkpt lat="31.1117807" lon="35.6997739"><ele>1150.9</ele><time>2015-11-22T06:32:49.0000000+00:00</time></trkpt><trkpt lat="31.1117242" lon="35.6997632"><ele>1151.1</ele><time>2015-11-22T06:32:50.0000000+00:00</time></trkpt><trkpt lat="31.1116669" lon="35.699754"><ele>1151.3</ele><time>2015-11-22T06:32:51.0000000+00:00</time></trkpt><trkpt lat="31.1116181" lon="35.6997392"><ele>1150.8</ele><time>2015-11-22T06:32:52.0000000+00:00</time></trkpt><trkpt lat="31.1115636" lon="35.6997332"><ele>1150.6</ele><time>2015-11-22T06:32:53.0000000+00:00</time></trkpt><trkpt lat="31.1115077" lon="35.6997295"><ele>1150.5</ele><time>2015-11-22T06:32:54.0000000+00:00</time></trkpt><trkpt lat="31.1114504" lon="35.699723"><ele>1151.0</ele><time>2015-11-22T06:32:55.0000000+00:00</time></trkpt><trkpt lat="31.1113961" lon="35.6997164"><ele>1151.2</ele><time>2015-11-22T06:32:56.0000000+00:00</time></trkpt><trkpt lat="31.111338" lon="35.6997012"><ele>1151.3</ele><time>2015-11-22T06:32:57.0000000+00:00</time></trkpt><trkpt lat="31.1112844" lon="35.6996931"><ele>1151.3</ele><time>2015-11-22T06:32:58.0000000+00:00</time></trkpt><trkpt lat="31.1112307" lon="35.6996866"><ele>1151.9</ele><time>2015-11-22T06:32:59.0000000+00:00</time></trkpt><trkpt lat="31.1111798" lon="35.6996821"><ele>1152.1</ele><time>2015-11-22T06:33:00.0000000+00:00</time></trkpt><trkpt lat="31.1111195" lon="35.6996691"><ele>1152.3</ele><time>2015-11-22T06:33:01.0000000+00:00</time></trkpt><trkpt lat="31.1110678" lon="35.6996586"><ele>1152.8</ele><time>2015-11-22T06:33:02.0000000+00:00</time></trkpt><trkpt lat="31.1110087" lon="35.6996522"><ele>1153.6</ele><time>2015-11-22T06:33:03.0000000+00:00</time></trkpt><trkpt lat="31.1109538" lon="35.6996433"><ele>1154.0</ele><time>2015-11-22T06:33:04.0000000+00:00</time></trkpt><trkpt lat="31.1108971" lon="35.6996277"><ele>1154.2</ele><time>2015-11-22T06:33:05.0000000+00:00</time></trkpt><trkpt lat="31.1108415" lon="35.6996113"><ele>1153.8</ele><time>2015-11-22T06:33:06.0000000+00:00</time></trkpt><trkpt lat="31.1107846" lon="35.6995998"><ele>1153.1</ele><time>2015-11-22T06:33:07.0000000+00:00</time></trkpt><trkpt lat="31.1107382" lon="35.6995796"><ele>1153.3</ele><time>2015-11-22T06:33:08.0000000+00:00</time></trkpt><trkpt lat="31.1106818" lon="35.6995695"><ele>1153.3</ele><time>2015-11-22T06:33:09.0000000+00:00</time></trkpt><trkpt lat="31.1106216" lon="35.6995622"><ele>1154.4</ele><time>2015-11-22T06:33:10.0000000+00:00</time></trkpt><trkpt lat="31.1105666" lon="35.6995556"><ele>1154.4</ele><time>2015-11-22T06:33:11.0000000+00:00</time></trkpt><trkpt lat="31.1105025" lon="35.699546"><ele>1154.4</ele><time>2015-11-22T06:33:12.0000000+00:00</time></trkpt><trkpt lat="31.1104466" lon="35.6995368"><ele>1154.9</ele><time>2015-11-22T06:33:13.0000000+00:00</time></trkpt><trkpt lat="31.1103834" lon="35.6995281"><ele>1154.1</ele><time>2015-11-22T06:33:14.0000000+00:00</time></trkpt><trkpt lat="31.1103279" lon="35.6995229"><ele>1154.3</ele><time>2015-11-22T06:33:15.0000000+00:00</time></trkpt><trkpt lat="31.1102674" lon="35.6995123"><ele>1154.8</ele><time>2015-11-22T06:33:16.0000000+00:00</time></trkpt><trkpt lat="31.1102046" lon="35.6995019"><ele>1154.6</ele><time>2015-11-22T06:33:17.0000000+00:00</time></trkpt><trkpt lat="31.1101462" lon="35.6994912"><ele>1154.5</ele><time>2015-11-22T06:33:18.0000000+00:00</time></trkpt><trkpt lat="31.1100771" lon="35.6994789"><ele>1154.5</ele><time>2015-11-22T06:33:19.0000000+00:00</time></trkpt><trkpt lat="31.1100074" lon="35.6994666"><ele>1153.4</ele><time>2015-11-22T06:33:20.0000000+00:00</time></trkpt><trkpt lat="31.1099442" lon="35.6994542"><ele>1153.9</ele><time>2015-11-22T06:33:21.0000000+00:00</time></trkpt><trkpt lat="31.1098813" lon="35.6994353"><ele>1154.7</ele><time>2015-11-22T06:33:22.0000000+00:00</time></trkpt><trkpt lat="31.1098103" lon="35.6994322"><ele>1154.5</ele><time>2015-11-22T06:33:23.0000000+00:00</time></trkpt><trkpt lat="31.1097472" lon="35.6994194"><ele>1155.0</ele><time>2015-11-22T06:33:24.0000000+00:00</time></trkpt><trkpt lat="31.1096761" lon="35.6994087"><ele>1155.2</ele><time>2015-11-22T06:33:25.0000000+00:00</time></trkpt><trkpt lat="31.1096106" lon="35.6994039"><ele>1155.3</ele><time>2015-11-22T06:33:26.0000000+00:00</time></trkpt><trkpt lat="31.109534" lon="35.6993935"><ele>1155.3</ele><time>2015-11-22T06:33:27.0000000+00:00</time></trkpt><trkpt lat="31.1094546" lon="35.6993772"><ele>1155.4</ele><time>2015-11-22T06:33:28.0000000+00:00</time></trkpt><trkpt lat="31.1093863" lon="35.6993715"><ele>1155.4</ele><time>2015-11-22T06:33:29.0000000+00:00</time></trkpt><trkpt lat="31.109318" lon="35.6993651"><ele>1155.4</ele><time>2015-11-22T06:33:30.0000000+00:00</time></trkpt><trkpt lat="31.1092436" lon="35.6993539"><ele>1155.4</ele><time>2015-11-22T06:33:31.0000000+00:00</time></trkpt><trkpt lat="31.1091704" lon="35.6993448"><ele>1155.9</ele><time>2015-11-22T06:33:32.0000000+00:00</time></trkpt><trkpt lat="31.109101" lon="35.6993313"><ele>1156.2</ele><time>2015-11-22T06:33:33.0000000+00:00</time></trkpt><trkpt lat="31.1090345" lon="35.699325"><ele>1155.8</ele><time>2015-11-22T06:33:34.0000000+00:00</time></trkpt><trkpt lat="31.1089679" lon="35.6993191"><ele>1155.6</ele><time>2015-11-22T06:33:35.0000000+00:00</time></trkpt><trkpt lat="31.1088988" lon="35.6993016"><ele>1155.0</ele><time>2015-11-22T06:33:36.0000000+00:00</time></trkpt><trkpt lat="31.1088296" lon="35.6992959"><ele>1155.2</ele><time>2015-11-22T06:33:37.0000000+00:00</time></trkpt><trkpt lat="31.1087657" lon="35.6992917"><ele>1155.3</ele><time>2015-11-22T06:33:38.0000000+00:00</time></trkpt><trkpt lat="31.1087034" lon="35.6992841"><ele>1155.4</ele><time>2015-11-22T06:33:39.0000000+00:00</time></trkpt><trkpt lat="31.1086278" lon="35.6992738"><ele>1155.4</ele><time>2015-11-22T06:33:40.0000000+00:00</time></trkpt><trkpt lat="31.1085654" lon="35.699255"><ele>1155.4</ele><time>2015-11-22T06:33:41.0000000+00:00</time></trkpt><trkpt lat="31.108499" lon="35.6992323"><ele>1155.4</ele><time>2015-11-22T06:33:42.0000000+00:00</time></trkpt><trkpt lat="31.1084318" lon="35.699216"><ele>1155.4</ele><time>2015-11-22T06:33:43.0000000+00:00</time></trkpt><trkpt lat="31.1083664" lon="35.6991964"><ele>1154.9</ele><time>2015-11-22T06:33:44.0000000+00:00</time></trkpt><trkpt lat="31.1082982" lon="35.6991878"><ele>1154.7</ele><time>2015-11-22T06:33:45.0000000+00:00</time></trkpt><trkpt lat="31.108227" lon="35.699179"><ele>1154.5</ele><time>2015-11-22T06:33:46.0000000+00:00</time></trkpt><trkpt lat="31.108163" lon="35.699163"><ele>1154.5</ele><time>2015-11-22T06:33:47.0000000+00:00</time></trkpt><trkpt lat="31.108092" lon="35.6991439"><ele>1153.9</ele><time>2015-11-22T06:33:48.0000000+00:00</time></trkpt><trkpt lat="31.1080281" lon="35.6991293"><ele>1153.7</ele><time>2015-11-22T06:33:49.0000000+00:00</time></trkpt><trkpt lat="31.1079608" lon="35.6991275"><ele>1153.5</ele><time>2015-11-22T06:33:50.0000000+00:00</time></trkpt><trkpt lat="31.1079036" lon="35.6991174"><ele>1154.0</ele><time>2015-11-22T06:33:51.0000000+00:00</time></trkpt><trkpt lat="31.1078483" lon="35.6991063"><ele>1154.2</ele><time>2015-11-22T06:33:52.0000000+00:00</time></trkpt><trkpt lat="31.1077877" lon="35.6990959"><ele>1154.3</ele><time>2015-11-22T06:33:53.0000000+00:00</time></trkpt><trkpt lat="31.1077381" lon="35.699076"><ele>1153.8</ele><time>2015-11-22T06:33:54.0000000+00:00</time></trkpt><trkpt lat="31.1076822" lon="35.699065"><ele>1154.1</ele><time>2015-11-22T06:33:55.0000000+00:00</time></trkpt><trkpt lat="31.107622" lon="35.6990479"><ele>1153.3</ele><time>2015-11-22T06:33:56.0000000+00:00</time></trkpt><trkpt lat="31.1075631" lon="35.699036"><ele>1153.3</ele><time>2015-11-22T06:33:57.0000000+00:00</time></trkpt><trkpt lat="31.1075093" lon="35.699007"><ele>1154.4</ele><time>2015-11-22T06:33:58.0000000+00:00</time></trkpt><trkpt lat="31.1074403" lon="35.6989891"><ele>1154.9</ele><time>2015-11-22T06:33:59.0000000+00:00</time></trkpt><trkpt lat="31.1073801" lon="35.6989748"><ele>1154.6</ele><time>2015-11-22T06:34:00.0000000+00:00</time></trkpt><trkpt lat="31.1073155" lon="35.6989608"><ele>1155.0</ele><time>2015-11-22T06:34:01.0000000+00:00</time></trkpt><trkpt lat="31.107251" lon="35.6989475"><ele>1154.7</ele><time>2015-11-22T06:34:02.0000000+00:00</time></trkpt><trkpt lat="31.1071934" lon="35.6989356"><ele>1155.1</ele><time>2015-11-22T06:34:03.0000000+00:00</time></trkpt><trkpt lat="31.1071268" lon="35.6989093"><ele>1154.2</ele><time>2015-11-22T06:34:04.0000000+00:00</time></trkpt><trkpt lat="31.1070686" lon="35.6988875"><ele>1153.8</ele><time>2015-11-22T06:34:05.0000000+00:00</time></trkpt><trkpt lat="31.1070029" lon="35.6988666"><ele>1153.6</ele><time>2015-11-22T06:34:06.0000000+00:00</time></trkpt><trkpt lat="31.1069368" lon="35.6988525"><ele>1154.0</ele><time>2015-11-22T06:34:07.0000000+00:00</time></trkpt><trkpt lat="31.1068752" lon="35.6988322"><ele>1154.2</ele><time>2015-11-22T06:34:08.0000000+00:00</time></trkpt><trkpt lat="31.1068141" lon="35.6988147"><ele>1154.3</ele><time>2015-11-22T06:34:09.0000000+00:00</time></trkpt><trkpt lat="31.1067534" lon="35.6987983"><ele>1153.9</ele><time>2015-11-22T06:34:10.0000000+00:00</time></trkpt><trkpt lat="31.106696" lon="35.6987781"><ele>1153.6</ele><time>2015-11-22T06:34:11.0000000+00:00</time></trkpt><trkpt lat="31.1066384" lon="35.6987622"><ele>1154.0</ele><time>2015-11-22T06:34:12.0000000+00:00</time></trkpt><trkpt lat="31.1065765" lon="35.6987428"><ele>1154.7</ele><time>2015-11-22T06:34:13.0000000+00:00</time></trkpt><trkpt lat="31.1065223" lon="35.698723"><ele>1154.6</ele><time>2015-11-22T06:34:14.0000000+00:00</time></trkpt><trkpt lat="31.1064659" lon="35.6987085"><ele>1155.5</ele><time>2015-11-22T06:34:15.0000000+00:00</time></trkpt><trkpt lat="31.1064172" lon="35.6986857"><ele>1155.9</ele><time>2015-11-22T06:34:16.0000000+00:00</time></trkpt><trkpt lat="31.1063685" lon="35.6986626"><ele>1156.2</ele><time>2015-11-22T06:34:17.0000000+00:00</time></trkpt><trkpt lat="31.1063176" lon="35.6986453"><ele>1156.3</ele><time>2015-11-22T06:34:18.0000000+00:00</time></trkpt><trkpt lat="31.1062614" lon="35.6986266"><ele>1155.8</ele><time>2015-11-22T06:34:19.0000000+00:00</time></trkpt><trkpt lat="31.1062047" lon="35.6986036"><ele>1155.1</ele><time>2015-11-22T06:34:20.0000000+00:00</time></trkpt><trkpt lat="31.1061504" lon="35.6985848"><ele>1154.3</ele><time>2015-11-22T06:34:21.0000000+00:00</time></trkpt><trkpt lat="31.1060949" lon="35.6985639"><ele>1153.8</ele><time>2015-11-22T06:34:22.0000000+00:00</time></trkpt><trkpt lat="31.1060348" lon="35.6985479"><ele>1153.6</ele><time>2015-11-22T06:34:23.0000000+00:00</time></trkpt><trkpt lat="31.1059712" lon="35.698534"><ele>1153.0</ele><time>2015-11-22T06:34:24.0000000+00:00</time></trkpt><trkpt lat="31.1059105" lon="35.6985154"><ele>1152.2</ele><time>2015-11-22T06:34:25.0000000+00:00</time></trkpt><trkpt lat="31.1058479" lon="35.6984983"><ele>1151.8</ele><time>2015-11-22T06:34:26.0000000+00:00</time></trkpt><trkpt lat="31.1057805" lon="35.6984835"><ele>1151.1</ele><time>2015-11-22T06:34:27.0000000+00:00</time></trkpt><trkpt lat="31.1057244" lon="35.6984659"><ele>1151.3</ele><time>2015-11-22T06:34:28.0000000+00:00</time></trkpt><trkpt lat="31.1056671" lon="35.6984491"><ele>1151.3</ele><time>2015-11-22T06:34:29.0000000+00:00</time></trkpt><trkpt lat="31.1056013" lon="35.6984241"><ele>1151.4</ele><time>2015-11-22T06:34:30.0000000+00:00</time></trkpt><trkpt lat="31.1055398" lon="35.6984146"><ele>1150.9</ele><time>2015-11-22T06:34:31.0000000+00:00</time></trkpt><trkpt lat="31.1054882" lon="35.6983962"><ele>1151.1</ele><time>2015-11-22T06:34:32.0000000+00:00</time></trkpt><trkpt lat="31.1054327" lon="35.6983706"><ele>1150.8</ele><time>2015-11-22T06:34:33.0000000+00:00</time></trkpt><trkpt lat="31.1053714" lon="35.6983529"><ele>1150.6</ele><time>2015-11-22T06:34:34.0000000+00:00</time></trkpt><trkpt lat="31.1053155" lon="35.6983267"><ele>1151.0</ele><time>2015-11-22T06:34:35.0000000+00:00</time></trkpt><trkpt lat="31.1052544" lon="35.6983111"><ele>1150.7</ele><time>2015-11-22T06:34:36.0000000+00:00</time></trkpt><trkpt lat="31.105194" lon="35.6982939"><ele>1150.6</ele><time>2015-11-22T06:34:37.0000000+00:00</time></trkpt><trkpt lat="31.1051314" lon="35.6982708"><ele>1150.0</ele><time>2015-11-22T06:34:38.0000000+00:00</time></trkpt><trkpt lat="31.1050702" lon="35.6982513"><ele>1149.2</ele><time>2015-11-22T06:34:39.0000000+00:00</time></trkpt><trkpt lat="31.105011" lon="35.6982338"><ele>1148.8</ele><time>2015-11-22T06:34:40.0000000+00:00</time></trkpt><trkpt lat="31.1049469" lon="35.6982204"><ele>1148.6</ele><time>2015-11-22T06:34:41.0000000+00:00</time></trkpt><trkpt lat="31.1048828" lon="35.6981995"><ele>1148.5</ele><time>2015-11-22T06:34:42.0000000+00:00</time></trkpt><trkpt lat="31.1048182" lon="35.6981797"><ele>1149.0</ele><time>2015-11-22T06:34:43.0000000+00:00</time></trkpt><trkpt lat="31.1047556" lon="35.6981573"><ele>1149.2</ele><time>2015-11-22T06:34:44.0000000+00:00</time></trkpt><trkpt lat="31.1046983" lon="35.6981409"><ele>1149.8</ele><time>2015-11-22T06:34:45.0000000+00:00</time></trkpt><trkpt lat="31.1046406" lon="35.6981244"><ele>1150.1</ele><time>2015-11-22T06:34:46.0000000+00:00</time></trkpt><trkpt lat="31.1045802" lon="35.6981115"><ele>1150.2</ele><time>2015-11-22T06:34:47.0000000+00:00</time></trkpt><trkpt lat="31.1045221" lon="35.6980973"><ele>1150.8</ele><time>2015-11-22T06:34:48.0000000+00:00</time></trkpt><trkpt lat="31.1044749" lon="35.698087"><ele>1150.6</ele><time>2015-11-22T06:34:49.0000000+00:00</time></trkpt><trkpt lat="31.1044205" lon="35.6980694"><ele>1151.0</ele><time>2015-11-22T06:34:50.0000000+00:00</time></trkpt><trkpt lat="31.1043668" lon="35.6980499"><ele>1151.2</ele><time>2015-11-22T06:34:51.0000000+00:00</time></trkpt><trkpt lat="31.1043177" lon="35.6980385"><ele>1151.3</ele><time>2015-11-22T06:34:52.0000000+00:00</time></trkpt><trkpt lat="31.1042705" lon="35.6980199"><ele>1151.4</ele><time>2015-11-22T06:34:53.0000000+00:00</time></trkpt><trkpt lat="31.1042203" lon="35.697996"><ele>1151.9</ele><time>2015-11-22T06:34:54.0000000+00:00</time></trkpt><trkpt lat="31.1041599" lon="35.6979728"><ele>1152.6</ele><time>2015-11-22T06:34:55.0000000+00:00</time></trkpt><trkpt lat="31.104114" lon="35.6979534"><ele>1153.5</ele><time>2015-11-22T06:34:56.0000000+00:00</time></trkpt><trkpt lat="31.1040592" lon="35.6979419"><ele>1154.0</ele><time>2015-11-22T06:34:57.0000000+00:00</time></trkpt><trkpt lat="31.1040085" lon="35.6979345"><ele>1154.2</ele><time>2015-11-22T06:34:58.0000000+00:00</time></trkpt><trkpt lat="31.1039438" lon="35.6979152"><ele>1153.8</ele><time>2015-11-22T06:34:59.0000000+00:00</time></trkpt><trkpt lat="31.1038875" lon="35.6978949"><ele>1153.6</ele><time>2015-11-22T06:35:00.0000000+00:00</time></trkpt><trkpt lat="31.1038259" lon="35.6978673"><ele>1153.5</ele><time>2015-11-22T06:35:01.0000000+00:00</time></trkpt><trkpt lat="31.103767" lon="35.6978447"><ele>1153.5</ele><time>2015-11-22T06:35:02.0000000+00:00</time></trkpt><trkpt lat="31.1037129" lon="35.6978111"><ele>1153.4</ele><time>2015-11-22T06:35:03.0000000+00:00</time></trkpt><trkpt lat="31.103658" lon="35.6977931"><ele>1153.4</ele><time>2015-11-22T06:35:04.0000000+00:00</time></trkpt><trkpt lat="31.1036045" lon="35.6977801"><ele>1152.9</ele><time>2015-11-22T06:35:05.0000000+00:00</time></trkpt><trkpt lat="31.1035551" lon="35.6977589"><ele>1152.2</ele><time>2015-11-22T06:35:06.0000000+00:00</time></trkpt><trkpt lat="31.1035022" lon="35.6977408"><ele>1151.8</ele><time>2015-11-22T06:35:07.0000000+00:00</time></trkpt><trkpt lat="31.1034493" lon="35.6977191"><ele>1151.6</ele><time>2015-11-22T06:35:08.0000000+00:00</time></trkpt><trkpt lat="31.1034035" lon="35.6976949"><ele>1152.0</ele><time>2015-11-22T06:35:09.0000000+00:00</time></trkpt><trkpt lat="31.1033085" lon="35.6976605"><ele>1152.1</ele><time>2015-11-22T06:35:11.0000000+00:00</time></trkpt><trkpt lat="31.1032266" lon="35.6976462"><ele>1153.1</ele><time>2015-11-22T06:35:13.0000000+00:00</time></trkpt><trkpt lat="31.1031811" lon="35.6976272"><ele>1152.7</ele><time>2015-11-22T06:35:14.0000000+00:00</time></trkpt><trkpt lat="31.1030996" lon="35.6976111"><ele>1153.2</ele><time>2015-11-22T06:35:16.0000000+00:00</time></trkpt><trkpt lat="31.1030547" lon="35.6975922"><ele>1153.3</ele><time>2015-11-22T06:35:17.0000000+00:00</time></trkpt><trkpt lat="31.1030096" lon="35.697577"><ele>1152.9</ele><time>2015-11-22T06:35:18.0000000+00:00</time></trkpt><trkpt lat="31.1029567" lon="35.6975604"><ele>1153.1</ele><time>2015-11-22T06:35:19.0000000+00:00</time></trkpt><trkpt lat="31.1029063" lon="35.6975507"><ele>1153.3</ele><time>2015-11-22T06:35:20.0000000+00:00</time></trkpt><trkpt lat="31.102858" lon="35.6975374"><ele>1153.3</ele><time>2015-11-22T06:35:21.0000000+00:00</time></trkpt><trkpt lat="31.1028073" lon="35.697527"><ele>1153.4</ele><time>2015-11-22T06:35:22.0000000+00:00</time></trkpt><trkpt lat="31.102756" lon="35.6975174"><ele>1152.9</ele><time>2015-11-22T06:35:23.0000000+00:00</time></trkpt><trkpt lat="31.1027033" lon="35.6975059"><ele>1153.6</ele><time>2015-11-22T06:35:24.0000000+00:00</time></trkpt><trkpt lat="31.1026402" lon="35.6974863"><ele>1154.0</ele><time>2015-11-22T06:35:25.0000000+00:00</time></trkpt><trkpt lat="31.1025876" lon="35.6974714"><ele>1153.7</ele><time>2015-11-22T06:35:26.0000000+00:00</time></trkpt><trkpt lat="31.1025388" lon="35.6974461"><ele>1154.1</ele><time>2015-11-22T06:35:27.0000000+00:00</time></trkpt><trkpt lat="31.1024847" lon="35.6974261"><ele>1154.2</ele><time>2015-11-22T06:35:28.0000000+00:00</time></trkpt><trkpt lat="31.1024324" lon="35.6974088"><ele>1154.3</ele><time>2015-11-22T06:35:29.0000000+00:00</time></trkpt><trkpt lat="31.1023763" lon="35.6973899"><ele>1154.4</ele><time>2015-11-22T06:35:30.0000000+00:00</time></trkpt><trkpt lat="31.1023223" lon="35.6973708"><ele>1154.9</ele><time>2015-11-22T06:35:31.0000000+00:00</time></trkpt><trkpt lat="31.102274" lon="35.6973554"><ele>1155.1</ele><time>2015-11-22T06:35:32.0000000+00:00</time></trkpt><trkpt lat="31.1022132" lon="35.6973435"><ele>1155.3</ele><time>2015-11-22T06:35:33.0000000+00:00</time></trkpt><trkpt lat="31.1021593" lon="35.6973284"><ele>1154.8</ele><time>2015-11-22T06:35:34.0000000+00:00</time></trkpt><trkpt lat="31.1021023" lon="35.6973076"><ele>1155.1</ele><time>2015-11-22T06:35:35.0000000+00:00</time></trkpt><trkpt lat="31.1020459" lon="35.6972889"><ele>1155.3</ele><time>2015-11-22T06:35:36.0000000+00:00</time></trkpt><trkpt lat="31.101996" lon="35.6972691"><ele>1155.8</ele><time>2015-11-22T06:35:37.0000000+00:00</time></trkpt><trkpt lat="31.1019419" lon="35.6972568"><ele>1156.1</ele><time>2015-11-22T06:35:38.0000000+00:00</time></trkpt><trkpt lat="31.1018917" lon="35.6972426"><ele>1156.3</ele><time>2015-11-22T06:35:39.0000000+00:00</time></trkpt><trkpt lat="31.1018395" lon="35.6972326"><ele>1156.3</ele><time>2015-11-22T06:35:40.0000000+00:00</time></trkpt><trkpt lat="31.101788" lon="35.697206"><ele>1156.9</ele><time>2015-11-22T06:35:41.0000000+00:00</time></trkpt><trkpt lat="31.101737" lon="35.6971837"><ele>1156.6</ele><time>2015-11-22T06:35:42.0000000+00:00</time></trkpt><trkpt lat="31.1016909" lon="35.6971696"><ele>1156.5</ele><time>2015-11-22T06:35:43.0000000+00:00</time></trkpt><trkpt lat="31.1016446" lon="35.6971536"><ele>1157.0</ele><time>2015-11-22T06:35:44.0000000+00:00</time></trkpt><trkpt lat="31.1015653" lon="35.6971188"><ele>1156.8</ele><time>2015-11-22T06:35:46.0000000+00:00</time></trkpt><trkpt lat="31.1015212" lon="35.6971023"><ele>1156.1</ele><time>2015-11-22T06:35:47.0000000+00:00</time></trkpt><trkpt lat="31.1014287" lon="35.6970705"><ele>1155.1</ele><time>2015-11-22T06:35:49.0000000+00:00</time></trkpt><trkpt lat="31.1013792" lon="35.6970586"><ele>1154.7</ele><time>2015-11-22T06:35:50.0000000+00:00</time></trkpt><trkpt lat="31.1013314" lon="35.6970491"><ele>1154.6</ele><time>2015-11-22T06:35:51.0000000+00:00</time></trkpt><trkpt lat="31.1012859" lon="35.6970309"><ele>1154.5</ele><time>2015-11-22T06:35:52.0000000+00:00</time></trkpt><trkpt lat="31.1012374" lon="35.697019"><ele>1154.4</ele><time>2015-11-22T06:35:53.0000000+00:00</time></trkpt><trkpt lat="31.1011908" lon="35.6970071"><ele>1154.9</ele><time>2015-11-22T06:35:54.0000000+00:00</time></trkpt><trkpt lat="31.1011464" lon="35.6969963"><ele>1154.7</ele><time>2015-11-22T06:35:55.0000000+00:00</time></trkpt><trkpt lat="31.1011022" lon="35.6969863"><ele>1154.5</ele><time>2015-11-22T06:35:56.0000000+00:00</time></trkpt><trkpt lat="31.1010532" lon="35.6969732"><ele>1154.0</ele><time>2015-11-22T06:35:57.0000000+00:00</time></trkpt><trkpt lat="31.1010094" lon="35.6969608"><ele>1153.7</ele><time>2015-11-22T06:35:58.0000000+00:00</time></trkpt><trkpt lat="31.1009195" lon="35.6969552"><ele>1153.5</ele><time>2015-11-22T06:36:00.0000000+00:00</time></trkpt><trkpt lat="31.1008451" lon="35.6969318"><ele>1153.9</ele><time>2015-11-22T06:36:02.0000000+00:00</time></trkpt><trkpt lat="31.1007797" lon="35.6969095"><ele>1154.3</ele><time>2015-11-22T06:36:04.0000000+00:00</time></trkpt><trkpt lat="31.1007215" lon="35.6968812"><ele>1153.9</ele><time>2015-11-22T06:36:06.0000000+00:00</time></trkpt><trkpt lat="31.1006528" lon="35.6968546"><ele>1154.3</ele><time>2015-11-22T06:36:08.0000000+00:00</time></trkpt><trkpt lat="31.1005891" lon="35.6968289"><ele>1154.9</ele><time>2015-11-22T06:36:10.0000000+00:00</time></trkpt><trkpt lat="31.1005231" lon="35.6968026"><ele>1155.5</ele><time>2015-11-22T06:36:12.0000000+00:00</time></trkpt><trkpt lat="31.1004583" lon="35.6967717"><ele>1154.7</ele><time>2015-11-22T06:36:14.0000000+00:00</time></trkpt><trkpt lat="31.1003938" lon="35.6967376"><ele>1154.5</ele><time>2015-11-22T06:36:16.0000000+00:00</time></trkpt><trkpt lat="31.1003304" lon="35.6967035"><ele>1153.4</ele><time>2015-11-22T06:36:18.0000000+00:00</time></trkpt><trkpt lat="31.1002659" lon="35.696668"><ele>1151.9</ele><time>2015-11-22T06:36:20.0000000+00:00</time></trkpt><trkpt lat="31.1002002" lon="35.6966354"><ele>1152.3</ele><time>2015-11-22T06:36:22.0000000+00:00</time></trkpt><trkpt lat="31.1001326" lon="35.6966142"><ele>1153.6</ele><time>2015-11-22T06:36:24.0000000+00:00</time></trkpt><trkpt lat="31.1000648" lon="35.6965991"><ele>1155.0</ele><time>2015-11-22T06:36:26.0000000+00:00</time></trkpt><trkpt lat="31.0999955" lon="35.6965801"><ele>1155.5</ele><time>2015-11-22T06:36:28.0000000+00:00</time></trkpt><trkpt lat="31.099932" lon="35.6965675"><ele>1156.7</ele><time>2015-11-22T06:36:30.0000000+00:00</time></trkpt><trkpt lat="31.0998931" lon="35.6965992"><ele>1158.7</ele><time>2015-11-22T06:36:44.0000000+00:00</time></trkpt><trkpt lat="31.0998332" lon="35.6965636"><ele>1159.3</ele><time>2015-11-22T06:36:47.0000000+00:00</time></trkpt><trkpt lat="31.0997798" lon="35.6965396"><ele>1158.6</ele><time>2015-11-22T06:36:49.0000000+00:00</time></trkpt><trkpt lat="31.0997242" lon="35.696522"><ele>1157.0</ele><time>2015-11-22T06:36:51.0000000+00:00</time></trkpt><trkpt lat="31.0996666" lon="35.696506"><ele>1157.0</ele><time>2015-11-22T06:36:53.0000000+00:00</time></trkpt><trkpt lat="31.0996071" lon="35.6964887"><ele>1157.3</ele><time>2015-11-22T06:36:55.0000000+00:00</time></trkpt><trkpt lat="31.0995446" lon="35.6964751"><ele>1157.9</ele><time>2015-11-22T06:36:57.0000000+00:00</time></trkpt><trkpt lat="31.0994819" lon="35.6964655"><ele>1158.8</ele><time>2015-11-22T06:36:59.0000000+00:00</time></trkpt><trkpt lat="31.0994175" lon="35.696455"><ele>1160.2</ele><time>2015-11-22T06:37:01.0000000+00:00</time></trkpt><trkpt lat="31.0993532" lon="35.6964402"><ele>1162.4</ele><time>2015-11-22T06:37:03.0000000+00:00</time></trkpt><trkpt lat="31.0992888" lon="35.6964246"><ele>1163.1</ele><time>2015-11-22T06:37:05.0000000+00:00</time></trkpt><trkpt lat="31.099225" lon="35.6964104"><ele>1163.3</ele><time>2015-11-22T06:37:07.0000000+00:00</time></trkpt><trkpt lat="31.0991617" lon="35.6963998"><ele>1163.1</ele><time>2015-11-22T06:37:09.0000000+00:00</time></trkpt><trkpt lat="31.0990934" lon="35.6963906"><ele>1163.1</ele><time>2015-11-22T06:37:11.0000000+00:00</time></trkpt><trkpt lat="31.0990229" lon="35.69638"><ele>1164.1</ele><time>2015-11-22T06:37:13.0000000+00:00</time></trkpt><trkpt lat="31.0989512" lon="35.6963745"><ele>1165.1</ele><time>2015-11-22T06:37:15.0000000+00:00</time></trkpt><trkpt lat="31.0988806" lon="35.6963683"><ele>1165.3</ele><time>2015-11-22T06:37:17.0000000+00:00</time></trkpt><trkpt lat="31.0988087" lon="35.6963587"><ele>1165.1</ele><time>2015-11-22T06:37:19.0000000+00:00</time></trkpt><trkpt lat="31.0987386" lon="35.6963486"><ele>1165.3</ele><time>2015-11-22T06:37:21.0000000+00:00</time></trkpt><trkpt lat="31.0986667" lon="35.6963392"><ele>1165.9</ele><time>2015-11-22T06:37:23.0000000+00:00</time></trkpt><trkpt lat="31.0985927" lon="35.6963265"><ele>1167.0</ele><time>2015-11-22T06:37:25.0000000+00:00</time></trkpt><trkpt lat="31.0985166" lon="35.6963149"><ele>1167.3</ele><time>2015-11-22T06:37:27.0000000+00:00</time></trkpt><trkpt lat="31.098438" lon="35.6963115"><ele>1166.6</ele><time>2015-11-22T06:37:29.0000000+00:00</time></trkpt><trkpt lat="31.0983566" lon="35.6963073"><ele>1166.5</ele><time>2015-11-22T06:37:31.0000000+00:00</time></trkpt><trkpt lat="31.0982752" lon="35.6962945"><ele>1165.4</ele><time>2015-11-22T06:37:33.0000000+00:00</time></trkpt><trkpt lat="31.098205" lon="35.6962827"><ele>1164.9</ele><time>2015-11-22T06:37:34.0000000+00:00</time></trkpt><trkpt lat="31.0981212" lon="35.6962803"><ele>1164.5</ele><time>2015-11-22T06:37:36.0000000+00:00</time></trkpt><trkpt lat="31.098042" lon="35.696271"><ele>1165.7</ele><time>2015-11-22T06:37:38.0000000+00:00</time></trkpt><trkpt lat="31.0979659" lon="35.6962658"><ele>1166.0</ele><time>2015-11-22T06:37:40.0000000+00:00</time></trkpt><trkpt lat="31.0978925" lon="35.6962508"><ele>1165.8</ele><time>2015-11-22T06:37:42.0000000+00:00</time></trkpt><trkpt lat="31.0978173" lon="35.6962467"><ele>1165.8</ele><time>2015-11-22T06:37:44.0000000+00:00</time></trkpt><trkpt lat="31.0977384" lon="35.6962346"><ele>1165.5</ele><time>2015-11-22T06:37:46.0000000+00:00</time></trkpt><trkpt lat="31.097656" lon="35.6962318"><ele>1165.9</ele><time>2015-11-22T06:37:48.0000000+00:00</time></trkpt><trkpt lat="31.0976017" lon="35.6962358"><ele>1165.7</ele><time>2015-11-22T06:37:49.0000000+00:00</time></trkpt><trkpt lat="31.097551" lon="35.6962316"><ele>1165.5</ele><time>2015-11-22T06:37:50.0000000+00:00</time></trkpt><trkpt lat="31.0975032" lon="35.6962205"><ele>1166.0</ele><time>2015-11-22T06:37:51.0000000+00:00</time></trkpt><trkpt lat="31.097425" lon="35.6962093"><ele>1167.5</ele><time>2015-11-22T06:37:53.0000000+00:00</time></trkpt><trkpt lat="31.0973742" lon="35.6962025"><ele>1167.5</ele><time>2015-11-22T06:37:54.0000000+00:00</time></trkpt><trkpt lat="31.0972794" lon="35.6961877"><ele>1166.9</ele><time>2015-11-22T06:37:56.0000000+00:00</time></trkpt><trkpt lat="31.0972347" lon="35.6961718"><ele>1165.7</ele><time>2015-11-22T06:37:57.0000000+00:00</time></trkpt><trkpt lat="31.0971857" lon="35.6961652"><ele>1165.0</ele><time>2015-11-22T06:37:58.0000000+00:00</time></trkpt><trkpt lat="31.0971417" lon="35.6961538"><ele>1164.7</ele><time>2015-11-22T06:37:59.0000000+00:00</time></trkpt><trkpt lat="31.0970894" lon="35.6961492"><ele>1165.1</ele><time>2015-11-22T06:38:00.0000000+00:00</time></trkpt><trkpt lat="31.0970432" lon="35.6961412"><ele>1165.2</ele><time>2015-11-22T06:38:01.0000000+00:00</time></trkpt><trkpt lat="31.0969957" lon="35.6961409"><ele>1165.3</ele><time>2015-11-22T06:38:02.0000000+00:00</time></trkpt><trkpt lat="31.0969502" lon="35.6961374"><ele>1165.4</ele><time>2015-11-22T06:38:03.0000000+00:00</time></trkpt><trkpt lat="31.0968661" lon="35.6961337"><ele>1166.1</ele><time>2015-11-22T06:38:05.0000000+00:00</time></trkpt><trkpt lat="31.0968145" lon="35.6961251"><ele>1166.8</ele><time>2015-11-22T06:38:06.0000000+00:00</time></trkpt><trkpt lat="31.0967669" lon="35.696115"><ele>1167.1</ele><time>2015-11-22T06:38:07.0000000+00:00</time></trkpt><trkpt lat="31.0967177" lon="35.6961075"><ele>1166.7</ele><time>2015-11-22T06:38:08.0000000+00:00</time></trkpt><trkpt lat="31.0966712" lon="35.6961115"><ele>1167.1</ele><time>2015-11-22T06:38:09.0000000+00:00</time></trkpt><trkpt lat="31.0966243" lon="35.6961093"><ele>1167.2</ele><time>2015-11-22T06:38:10.0000000+00:00</time></trkpt><trkpt lat="31.0965788" lon="35.6961062"><ele>1167.3</ele><time>2015-11-22T06:38:11.0000000+00:00</time></trkpt><trkpt lat="31.0965323" lon="35.6960871"><ele>1167.4</ele><time>2015-11-22T06:38:12.0000000+00:00</time></trkpt><trkpt lat="31.0964441" lon="35.6960708"><ele>1167.4</ele><time>2015-11-22T06:38:14.0000000+00:00</time></trkpt><trkpt lat="31.0963625" lon="35.6960486"><ele>1168.1</ele><time>2015-11-22T06:38:16.0000000+00:00</time></trkpt><trkpt lat="31.0963168" lon="35.696047"><ele>1168.3</ele><time>2015-11-22T06:38:17.0000000+00:00</time></trkpt><trkpt lat="31.0962708" lon="35.696045"><ele>1168.3</ele><time>2015-11-22T06:38:18.0000000+00:00</time></trkpt><trkpt lat="31.0962223" lon="35.6960452"><ele>1167.9</ele><time>2015-11-22T06:38:19.0000000+00:00</time></trkpt><trkpt lat="31.0961422" lon="35.6960354"><ele>1167.3</ele><time>2015-11-22T06:38:21.0000000+00:00</time></trkpt><trkpt lat="31.096042" lon="35.6960399"><ele>1166.9</ele><time>2015-11-22T06:38:23.0000000+00:00</time></trkpt><trkpt lat="31.0959956" lon="35.6960428"><ele>1167.1</ele><time>2015-11-22T06:38:24.0000000+00:00</time></trkpt><trkpt lat="31.0959139" lon="35.6960496"><ele>1168.6</ele><time>2015-11-22T06:38:26.0000000+00:00</time></trkpt><trkpt lat="31.0958581" lon="35.6960522"><ele>1168.5</ele><time>2015-11-22T06:38:27.0000000+00:00</time></trkpt><trkpt lat="31.0957675" lon="35.6960633"><ele>1166.4</ele><time>2015-11-22T06:38:29.0000000+00:00</time></trkpt><trkpt lat="31.0957198" lon="35.6960666"><ele>1165.9</ele><time>2015-11-22T06:38:30.0000000+00:00</time></trkpt><trkpt lat="31.0956635" lon="35.696077"><ele>1165.7</ele><time>2015-11-22T06:38:31.0000000+00:00</time></trkpt><trkpt lat="31.0955705" lon="35.6960949"><ele>1164.2</ele><time>2015-11-22T06:38:33.0000000+00:00</time></trkpt><trkpt lat="31.095519" lon="35.6960991"><ele>1163.8</ele><time>2015-11-22T06:38:34.0000000+00:00</time></trkpt><trkpt lat="31.0954357" lon="35.6961129"><ele>1164.5</ele><time>2015-11-22T06:38:36.0000000+00:00</time></trkpt><trkpt lat="31.0953888" lon="35.6961177"><ele>1164.5</ele><time>2015-11-22T06:38:37.0000000+00:00</time></trkpt><trkpt lat="31.0953004" lon="35.696107"><ele>1165.2</ele><time>2015-11-22T06:38:39.0000000+00:00</time></trkpt><trkpt lat="31.0952206" lon="35.696135"><ele>1166.3</ele><time>2015-11-22T06:38:41.0000000+00:00</time></trkpt><trkpt lat="31.0951269" lon="35.6961533"><ele>1165.4</ele><time>2015-11-22T06:38:43.0000000+00:00</time></trkpt><trkpt lat="31.0950395" lon="35.6961683"><ele>1165.6</ele><time>2015-11-22T06:38:45.0000000+00:00</time></trkpt><trkpt lat="31.0949562" lon="35.6961907"><ele>1165.5</ele><time>2015-11-22T06:38:47.0000000+00:00</time></trkpt><trkpt lat="31.0949053" lon="35.6962036"><ele>1165.7</ele><time>2015-11-22T06:38:49.0000000+00:00</time></trkpt><trkpt lat="31.09486" lon="35.6962049"><ele>1163.9</ele><time>2015-11-22T06:38:59.0000000+00:00</time></trkpt><trkpt lat="31.0948136" lon="35.6961998"><ele>1162.9</ele><time>2015-11-22T06:39:06.0000000+00:00</time></trkpt><trkpt lat="31.0947661" lon="35.6962147"><ele>1162.6</ele><time>2015-11-22T06:39:10.0000000+00:00</time></trkpt><trkpt lat="31.0947159" lon="35.6962302"><ele>1162.7</ele><time>2015-11-22T06:39:13.0000000+00:00</time></trkpt><trkpt lat="31.0946615" lon="35.6962433"><ele>1163.5</ele><time>2015-11-22T06:39:15.0000000+00:00</time></trkpt><trkpt lat="31.0945842" lon="35.6962617"><ele>1162.9</ele><time>2015-11-22T06:39:17.0000000+00:00</time></trkpt><trkpt lat="31.0944538" lon="35.696298"><ele>1161.3</ele><time>2015-11-22T06:39:19.0000000+00:00</time></trkpt><trkpt lat="31.0944073" lon="35.6963004"><ele>1160.8</ele><time>2015-11-22T06:39:20.0000000+00:00</time></trkpt><trkpt lat="31.0943599" lon="35.6963056"><ele>1161.1</ele><time>2015-11-22T06:39:21.0000000+00:00</time></trkpt><trkpt lat="31.0943002" lon="35.6963257"><ele>1160.8</ele><time>2015-11-22T06:39:22.0000000+00:00</time></trkpt><trkpt lat="31.094238" lon="35.696339"><ele>1160.1</ele><time>2015-11-22T06:39:23.0000000+00:00</time></trkpt><trkpt lat="31.0941764" lon="35.6963546"><ele>1159.2</ele><time>2015-11-22T06:39:24.0000000+00:00</time></trkpt><trkpt lat="31.0941124" lon="35.6963645"><ele>1158.8</ele><time>2015-11-22T06:39:25.0000000+00:00</time></trkpt><trkpt lat="31.0940488" lon="35.6963834"><ele>1158.6</ele><time>2015-11-22T06:39:26.0000000+00:00</time></trkpt><trkpt lat="31.0939855" lon="35.6963911"><ele>1158.5</ele><time>2015-11-22T06:39:27.0000000+00:00</time></trkpt><trkpt lat="31.0939178" lon="35.696403"><ele>1158.5</ele><time>2015-11-22T06:39:28.0000000+00:00</time></trkpt><trkpt lat="31.0938464" lon="35.6964224"><ele>1157.9</ele><time>2015-11-22T06:39:29.0000000+00:00</time></trkpt><trkpt lat="31.0937659" lon="35.6964351"><ele>1157.7</ele><time>2015-11-22T06:39:30.0000000+00:00</time></trkpt><trkpt lat="31.093694" lon="35.6964415"><ele>1157.5</ele><time>2015-11-22T06:39:31.0000000+00:00</time></trkpt><trkpt lat="31.0936262" lon="35.6964452"><ele>1157.0</ele><time>2015-11-22T06:39:32.0000000+00:00</time></trkpt><trkpt lat="31.0935783" lon="35.6964665"><ele>1156.7</ele><time>2015-11-22T06:39:33.0000000+00:00</time></trkpt><trkpt lat="31.0934987" lon="35.6964878"><ele>1157.2</ele><time>2015-11-22T06:39:35.0000000+00:00</time></trkpt><trkpt lat="31.0934233" lon="35.6965053"><ele>1157.9</ele><time>2015-11-22T06:39:37.0000000+00:00</time></trkpt><trkpt lat="31.093378" lon="35.6965018"><ele>1157.6</ele><time>2015-11-22T06:39:38.0000000+00:00</time></trkpt><trkpt lat="31.0933318" lon="35.6964988"><ele>1157.5</ele><time>2015-11-22T06:39:39.0000000+00:00</time></trkpt><trkpt lat="31.0932596" lon="35.6964828"><ele>1157.4</ele><time>2015-11-22T06:39:41.0000000+00:00</time></trkpt><trkpt lat="31.0931861" lon="35.6964754"><ele>1156.9</ele><time>2015-11-22T06:39:43.0000000+00:00</time></trkpt><trkpt lat="31.0931181" lon="35.6964683"><ele>1157.0</ele><time>2015-11-22T06:39:45.0000000+00:00</time></trkpt><trkpt lat="31.0930476" lon="35.6964567"><ele>1157.6</ele><time>2015-11-22T06:39:47.0000000+00:00</time></trkpt><trkpt lat="31.0929743" lon="35.6964431"><ele>1158.4</ele><time>2015-11-22T06:39:49.0000000+00:00</time></trkpt><trkpt lat="31.0929028" lon="35.6964241"><ele>1157.2</ele><time>2015-11-22T06:39:51.0000000+00:00</time></trkpt><trkpt lat="31.0928413" lon="35.6964074"><ele>1156.3</ele><time>2015-11-22T06:39:53.0000000+00:00</time></trkpt><trkpt lat="31.0927937" lon="35.6963907"><ele>1157.4</ele><time>2015-11-22T06:39:55.0000000+00:00</time></trkpt><trkpt lat="31.0927486" lon="35.6963814"><ele>1156.2</ele><time>2015-11-22T06:39:58.0000000+00:00</time></trkpt><trkpt lat="31.0926986" lon="35.6963741"><ele>1156.7</ele><time>2015-11-22T06:40:02.0000000+00:00</time></trkpt><trkpt lat="31.0926536" lon="35.6963522"><ele>1156.5</ele><time>2015-11-22T06:40:15.0000000+00:00</time></trkpt><trkpt lat="31.092608" lon="35.6963523"><ele>1155.7</ele><time>2015-11-22T06:40:18.0000000+00:00</time></trkpt><trkpt lat="31.0925502" lon="35.6963436"><ele>1156.2</ele><time>2015-11-22T06:40:21.0000000+00:00</time></trkpt><trkpt lat="31.0924925" lon="35.6963364"><ele>1157.2</ele><time>2015-11-22T06:40:24.0000000+00:00</time></trkpt><trkpt lat="31.0924362" lon="35.6963172"><ele>1156.7</ele><time>2015-11-22T06:40:28.0000000+00:00</time></trkpt><trkpt lat="31.092381" lon="35.6963063"><ele>1156.2</ele><time>2015-11-22T06:40:31.0000000+00:00</time></trkpt><trkpt lat="31.092314" lon="35.6963025"><ele>1156.3</ele><time>2015-11-22T06:40:33.0000000+00:00</time></trkpt><trkpt lat="31.0922399" lon="35.6962924"><ele>1157.4</ele><time>2015-11-22T06:40:35.0000000+00:00</time></trkpt><trkpt lat="31.0921732" lon="35.6962742"><ele>1159.4</ele><time>2015-11-22T06:40:37.0000000+00:00</time></trkpt><trkpt lat="31.0921097" lon="35.6962494"><ele>1159.4</ele><time>2015-11-22T06:40:39.0000000+00:00</time></trkpt><trkpt lat="31.0920478" lon="35.6962323"><ele>1159.4</ele><time>2015-11-22T06:40:41.0000000+00:00</time></trkpt><trkpt lat="31.0919867" lon="35.6962219"><ele>1159.4</ele><time>2015-11-22T06:40:43.0000000+00:00</time></trkpt><trkpt lat="31.091921" lon="35.6962074"><ele>1159.9</ele><time>2015-11-22T06:40:45.0000000+00:00</time></trkpt><trkpt lat="31.091853" lon="35.6961909"><ele>1159.5</ele><time>2015-11-22T06:40:47.0000000+00:00</time></trkpt><trkpt lat="31.0917837" lon="35.696178"><ele>1159.2</ele><time>2015-11-22T06:40:49.0000000+00:00</time></trkpt><trkpt lat="31.091716" lon="35.6961627"><ele>1159.3</ele><time>2015-11-22T06:40:51.0000000+00:00</time></trkpt><trkpt lat="31.091652" lon="35.6961409"><ele>1159.1</ele><time>2015-11-22T06:40:53.0000000+00:00</time></trkpt><trkpt lat="31.0915856" lon="35.696125"><ele>1160.8</ele><time>2015-11-22T06:40:55.0000000+00:00</time></trkpt><trkpt lat="31.091522" lon="35.6961129"><ele>1161.3</ele><time>2015-11-22T06:40:57.0000000+00:00</time></trkpt><trkpt lat="31.0914587" lon="35.696097"><ele>1162.1</ele><time>2015-11-22T06:40:59.0000000+00:00</time></trkpt><trkpt lat="31.0913954" lon="35.696081"><ele>1162.8</ele><time>2015-11-22T06:41:01.0000000+00:00</time></trkpt><trkpt lat="31.0913317" lon="35.696073"><ele>1164.0</ele><time>2015-11-22T06:41:03.0000000+00:00</time></trkpt><trkpt lat="31.0912714" lon="35.6960712"><ele>1165.1</ele><time>2015-11-22T06:41:05.0000000+00:00</time></trkpt><trkpt lat="31.09121" lon="35.6960631"><ele>1166.1</ele><time>2015-11-22T06:41:07.0000000+00:00</time></trkpt><trkpt lat="31.0911493" lon="35.6960428"><ele>1167.8</ele><time>2015-11-22T06:41:09.0000000+00:00</time></trkpt><trkpt lat="31.0910889" lon="35.696026"><ele>1168.8</ele><time>2015-11-22T06:41:11.0000000+00:00</time></trkpt><trkpt lat="31.0910298" lon="35.6960117"><ele>1170.0</ele><time>2015-11-22T06:41:13.0000000+00:00</time></trkpt><trkpt lat="31.0909702" lon="35.6959991"><ele>1170.8</ele><time>2015-11-22T06:41:15.0000000+00:00</time></trkpt><trkpt lat="31.0909101" lon="35.6959924"><ele>1171.8</ele><time>2015-11-22T06:41:17.0000000+00:00</time></trkpt><trkpt lat="31.0908515" lon="35.6959804"><ele>1172.2</ele><time>2015-11-22T06:41:19.0000000+00:00</time></trkpt><trkpt lat="31.0907884" lon="35.6959717"><ele>1172.1</ele><time>2015-11-22T06:41:21.0000000+00:00</time></trkpt><trkpt lat="31.0907244" lon="35.6959593"><ele>1170.3</ele><time>2015-11-22T06:41:23.0000000+00:00</time></trkpt><trkpt lat="31.0906585" lon="35.6959437"><ele>1168.9</ele><time>2015-11-22T06:41:25.0000000+00:00</time></trkpt><trkpt lat="31.0905884" lon="35.6959298"><ele>1167.3</ele><time>2015-11-22T06:41:27.0000000+00:00</time></trkpt><trkpt lat="31.0905257" lon="35.6959172"><ele>1167.4</ele><time>2015-11-22T06:41:29.0000000+00:00</time></trkpt><trkpt lat="31.090481" lon="35.6959017"><ele>1167.6</ele><time>2015-11-22T06:41:35.0000000+00:00</time></trkpt><trkpt lat="31.0904353" lon="35.6958914"><ele>1166.1</ele><time>2015-11-22T06:41:38.0000000+00:00</time></trkpt><trkpt lat="31.0903865" lon="35.6958908"><ele>1165.1</ele><time>2015-11-22T06:41:40.0000000+00:00</time></trkpt><trkpt lat="31.0903213" lon="35.6959014"><ele>1163.6</ele><time>2015-11-22T06:41:42.0000000+00:00</time></trkpt><trkpt lat="31.090252" lon="35.695912"><ele>1161.9</ele><time>2015-11-22T06:41:44.0000000+00:00</time></trkpt><trkpt lat="31.0901819" lon="35.6959147"><ele>1162.0</ele><time>2015-11-22T06:41:46.0000000+00:00</time></trkpt><trkpt lat="31.090116" lon="35.6959149"><ele>1162.8</ele><time>2015-11-22T06:41:48.0000000+00:00</time></trkpt><trkpt lat="31.0900344" lon="35.6959117"><ele>1162.3</ele><time>2015-11-22T06:41:50.0000000+00:00</time></trkpt><trkpt lat="31.0899633" lon="35.6959008"><ele>1163.6</ele><time>2015-11-22T06:41:52.0000000+00:00</time></trkpt><trkpt lat="31.0898972" lon="35.6958961"><ele>1165.7</ele><time>2015-11-22T06:41:54.0000000+00:00</time></trkpt><trkpt lat="31.0898365" lon="35.6959022"><ele>1167.7</ele><time>2015-11-22T06:41:56.0000000+00:00</time></trkpt><trkpt lat="31.0897816" lon="35.6958927"><ele>1167.7</ele><time>2015-11-22T06:41:58.0000000+00:00</time></trkpt><trkpt lat="31.0897178" lon="35.6958808"><ele>1166.1</ele><time>2015-11-22T06:42:01.0000000+00:00</time></trkpt><trkpt lat="31.0896699" lon="35.6958781"><ele>1165.1</ele><time>2015-11-22T06:42:03.0000000+00:00</time></trkpt><trkpt lat="31.089617" lon="35.6958736"><ele>1163.6</ele><time>2015-11-22T06:42:05.0000000+00:00</time></trkpt><trkpt lat="31.0895614" lon="35.6958706"><ele>1162.2</ele><time>2015-11-22T06:42:07.0000000+00:00</time></trkpt><trkpt lat="31.0895036" lon="35.6958699"><ele>1161.1</ele><time>2015-11-22T06:42:09.0000000+00:00</time></trkpt><trkpt lat="31.0894482" lon="35.6958702"><ele>1159.8</ele><time>2015-11-22T06:42:11.0000000+00:00</time></trkpt><trkpt lat="31.0894001" lon="35.6958733"><ele>1160.3</ele><time>2015-11-22T06:42:13.0000000+00:00</time></trkpt><trkpt lat="31.0893542" lon="35.6958857"><ele>1160.6</ele><time>2015-11-22T06:42:15.0000000+00:00</time></trkpt><trkpt lat="31.0893088" lon="35.6958893"><ele>1162.0</ele><time>2015-11-22T06:42:17.0000000+00:00</time></trkpt><trkpt lat="31.0892624" lon="35.6958806"><ele>1160.5</ele><time>2015-11-22T06:42:19.0000000+00:00</time></trkpt><trkpt lat="31.0892125" lon="35.6958639"><ele>1160.2</ele><time>2015-11-22T06:42:21.0000000+00:00</time></trkpt><trkpt lat="31.0891616" lon="35.6958558"><ele>1160.6</ele><time>2015-11-22T06:42:23.0000000+00:00</time></trkpt><trkpt lat="31.0891156" lon="35.695858"><ele>1161.0</ele><time>2015-11-22T06:42:25.0000000+00:00</time></trkpt><trkpt lat="31.0890695" lon="35.6958567"><ele>1161.3</ele><time>2015-11-22T06:42:27.0000000+00:00</time></trkpt><trkpt lat="31.0890199" lon="35.6958519"><ele>1161.9</ele><time>2015-11-22T06:42:29.0000000+00:00</time></trkpt><trkpt lat="31.0889651" lon="35.6958486"><ele>1162.3</ele><time>2015-11-22T06:42:31.0000000+00:00</time></trkpt><trkpt lat="31.0889068" lon="35.6958402"><ele>1162.4</ele><time>2015-11-22T06:42:33.0000000+00:00</time></trkpt><trkpt lat="31.0888493" lon="35.6958353"><ele>1161.9</ele><time>2015-11-22T06:42:35.0000000+00:00</time></trkpt><trkpt lat="31.0887938" lon="35.6958413"><ele>1162.3</ele><time>2015-11-22T06:42:37.0000000+00:00</time></trkpt><trkpt lat="31.0887393" lon="35.6958486"><ele>1163.1</ele><time>2015-11-22T06:42:39.0000000+00:00</time></trkpt><trkpt lat="31.088684" lon="35.695844"><ele>1162.8</ele><time>2015-11-22T06:42:41.0000000+00:00</time></trkpt><trkpt lat="31.0886286" lon="35.6958323"><ele>1162.8</ele><time>2015-11-22T06:42:43.0000000+00:00</time></trkpt><trkpt lat="31.0885701" lon="35.6958282"><ele>1162.5</ele><time>2015-11-22T06:42:45.0000000+00:00</time></trkpt><trkpt lat="31.0885138" lon="35.6958347"><ele>1162.4</ele><time>2015-11-22T06:42:47.0000000+00:00</time></trkpt><trkpt lat="31.0884557" lon="35.695841"><ele>1161.9</ele><time>2015-11-22T06:42:49.0000000+00:00</time></trkpt><trkpt lat="31.088395" lon="35.6958393"><ele>1162.0</ele><time>2015-11-22T06:42:51.0000000+00:00</time></trkpt><trkpt lat="31.0883338" lon="35.6958357"><ele>1161.6</ele><time>2015-11-22T06:42:53.0000000+00:00</time></trkpt><trkpt lat="31.0882738" lon="35.6958308"><ele>1161.4</ele><time>2015-11-22T06:42:55.0000000+00:00</time></trkpt><trkpt lat="31.0882152" lon="35.6958286"><ele>1161.4</ele><time>2015-11-22T06:42:57.0000000+00:00</time></trkpt><trkpt lat="31.0881561" lon="35.6958243"><ele>1161.4</ele><time>2015-11-22T06:42:59.0000000+00:00</time></trkpt><trkpt lat="31.0880966" lon="35.6958176"><ele>1161.9</ele><time>2015-11-22T06:43:01.0000000+00:00</time></trkpt><trkpt lat="31.0880369" lon="35.6958102"><ele>1162.8</ele><time>2015-11-22T06:43:03.0000000+00:00</time></trkpt><trkpt lat="31.0879788" lon="35.6958057"><ele>1164.7</ele><time>2015-11-22T06:43:05.0000000+00:00</time></trkpt><trkpt lat="31.0879214" lon="35.6958005"><ele>1165.2</ele><time>2015-11-22T06:43:07.0000000+00:00</time></trkpt><trkpt lat="31.0878614" lon="35.6957914"><ele>1165.6</ele><time>2015-11-22T06:43:09.0000000+00:00</time></trkpt><trkpt lat="31.0877987" lon="35.6957811"><ele>1164.7</ele><time>2015-11-22T06:43:11.0000000+00:00</time></trkpt><trkpt lat="31.0877381" lon="35.6957706"><ele>1164.0</ele><time>2015-11-22T06:43:13.0000000+00:00</time></trkpt><trkpt lat="31.0876768" lon="35.6957655"><ele>1164.3</ele><time>2015-11-22T06:43:15.0000000+00:00</time></trkpt><trkpt lat="31.0876159" lon="35.6957632"><ele>1164.4</ele><time>2015-11-22T06:43:17.0000000+00:00</time></trkpt><trkpt lat="31.0875564" lon="35.6957599"><ele>1164.4</ele><time>2015-11-22T06:43:19.0000000+00:00</time></trkpt><trkpt lat="31.0874965" lon="35.695757"><ele>1163.7</ele><time>2015-11-22T06:43:21.0000000+00:00</time></trkpt><trkpt lat="31.0874388" lon="35.6957574"><ele>1164.2</ele><time>2015-11-22T06:43:23.0000000+00:00</time></trkpt><trkpt lat="31.0873803" lon="35.6957526"><ele>1164.9</ele><time>2015-11-22T06:43:25.0000000+00:00</time></trkpt><trkpt lat="31.0873241" lon="35.6957499"><ele>1166.0</ele><time>2015-11-22T06:43:27.0000000+00:00</time></trkpt><trkpt lat="31.0872698" lon="35.6957429"><ele>1167.6</ele><time>2015-11-22T06:43:29.0000000+00:00</time></trkpt><trkpt lat="31.0872148" lon="35.6957288"><ele>1167.4</ele><time>2015-11-22T06:43:31.0000000+00:00</time></trkpt><trkpt lat="31.0871591" lon="35.6957244"><ele>1166.7</ele><time>2015-11-22T06:43:33.0000000+00:00</time></trkpt><trkpt lat="31.0871022" lon="35.6957269"><ele>1167.7</ele><time>2015-11-22T06:43:35.0000000+00:00</time></trkpt><trkpt lat="31.0870481" lon="35.6957294"><ele>1168.2</ele><time>2015-11-22T06:43:37.0000000+00:00</time></trkpt><trkpt lat="31.0869956" lon="35.6957293"><ele>1168.4</ele><time>2015-11-22T06:43:39.0000000+00:00</time></trkpt><trkpt lat="31.0869434" lon="35.6957258"><ele>1168.4</ele><time>2015-11-22T06:43:41.0000000+00:00</time></trkpt><trkpt lat="31.0868916" lon="35.6957225"><ele>1168.4</ele><time>2015-11-22T06:43:43.0000000+00:00</time></trkpt><trkpt lat="31.0868391" lon="35.6957201"><ele>1168.2</ele><time>2015-11-22T06:43:45.0000000+00:00</time></trkpt><trkpt lat="31.0867816" lon="35.6957129"><ele>1167.6</ele><time>2015-11-22T06:43:47.0000000+00:00</time></trkpt><trkpt lat="31.0867253" lon="35.695709"><ele>1166.7</ele><time>2015-11-22T06:43:49.0000000+00:00</time></trkpt><trkpt lat="31.0866713" lon="35.6957076"><ele>1166.5</ele><time>2015-11-22T06:43:51.0000000+00:00</time></trkpt><trkpt lat="31.0866209" lon="35.6957031"><ele>1165.7</ele><time>2015-11-22T06:43:53.0000000+00:00</time></trkpt><trkpt lat="31.08657" lon="35.6957046"><ele>1166.0</ele><time>2015-11-22T06:43:55.0000000+00:00</time></trkpt><trkpt lat="31.0865219" lon="35.6957065"><ele>1167.5</ele><time>2015-11-22T06:43:57.0000000+00:00</time></trkpt><trkpt lat="31.086475" lon="35.6957079"><ele>1168.9</ele><time>2015-11-22T06:43:59.0000000+00:00</time></trkpt><trkpt lat="31.0864248" lon="35.6957062"><ele>1168.5</ele><time>2015-11-22T06:44:01.0000000+00:00</time></trkpt><trkpt lat="31.0863783" lon="35.6957052"><ele>1167.9</ele><time>2015-11-22T06:44:03.0000000+00:00</time></trkpt><trkpt lat="31.0863105" lon="35.6957008"><ele>1168.3</ele><time>2015-11-22T06:44:06.0000000+00:00</time></trkpt><trkpt lat="31.0862626" lon="35.6956991"><ele>1167.1</ele><time>2015-11-22T06:44:08.0000000+00:00</time></trkpt><trkpt lat="31.0862165" lon="35.6956904"><ele>1166.6</ele><time>2015-11-22T06:44:10.0000000+00:00</time></trkpt><trkpt lat="31.0861515" lon="35.6956815"><ele>1165.7</ele><time>2015-11-22T06:44:13.0000000+00:00</time></trkpt><trkpt lat="31.0860869" lon="35.6956807"><ele>1166.7</ele><time>2015-11-22T06:44:16.0000000+00:00</time></trkpt><trkpt lat="31.086026" lon="35.6956765"><ele>1168.7</ele><time>2015-11-22T06:44:19.0000000+00:00</time></trkpt><trkpt lat="31.0859613" lon="35.6956751"><ele>1170.2</ele><time>2015-11-22T06:44:22.0000000+00:00</time></trkpt><trkpt lat="31.0858997" lon="35.6956683"><ele>1171.6</ele><time>2015-11-22T06:44:25.0000000+00:00</time></trkpt><trkpt lat="31.0858395" lon="35.6956592"><ele>1172.2</ele><time>2015-11-22T06:44:28.0000000+00:00</time></trkpt><trkpt lat="31.0857778" lon="35.6956646"><ele>1171.5</ele><time>2015-11-22T06:44:31.0000000+00:00</time></trkpt><trkpt lat="31.085714" lon="35.6956713"><ele>1171.3</ele><time>2015-11-22T06:44:34.0000000+00:00</time></trkpt><trkpt lat="31.0856561" lon="35.6956733"><ele>1172.0</ele><time>2015-11-22T06:44:37.0000000+00:00</time></trkpt><trkpt lat="31.0856028" lon="35.6956938"><ele>1173.6</ele><time>2015-11-22T06:44:40.0000000+00:00</time></trkpt><trkpt lat="31.0855426" lon="35.6957022"><ele>1175.6</ele><time>2015-11-22T06:44:43.0000000+00:00</time></trkpt><trkpt lat="31.0854822" lon="35.6957083"><ele>1176.2</ele><time>2015-11-22T06:44:46.0000000+00:00</time></trkpt><trkpt lat="31.0854233" lon="35.6956859"><ele>1178.2</ele><time>2015-11-22T06:44:49.0000000+00:00</time></trkpt><trkpt lat="31.0853866" lon="35.6956544"><ele>1179.9</ele><time>2015-11-22T06:44:51.0000000+00:00</time></trkpt><trkpt lat="31.085361" lon="35.6955929"><ele>1179.5</ele><time>2015-11-22T06:44:54.0000000+00:00</time></trkpt><trkpt lat="31.0854025" lon="35.6955665"><ele>1182.4</ele><time>2015-11-22T06:56:49.0000000+00:00</time></trkpt><trkpt lat="31.0853584" lon="35.6955522"><ele>1181.4</ele><time>2015-11-22T07:04:23.0000000+00:00</time></trkpt><trkpt lat="31.0853268" lon="35.6955901"><ele>1176.9</ele><time>2015-11-22T07:06:43.0000000+00:00</time></trkpt><trkpt lat="31.0853679" lon="35.6956156"><ele>1179.9</ele><time>2015-11-22T07:09:56.0000000+00:00</time></trkpt><trkpt lat="31.0853402" lon="35.6956644"><ele>1181.3</ele><time>2015-11-22T07:10:03.0000000+00:00</time></trkpt><trkpt lat="31.0852889" lon="35.6956795"><ele>1180.9</ele><time>2015-11-22T07:10:06.0000000+00:00</time></trkpt><trkpt lat="31.0852306" lon="35.6956879"><ele>1178.2</ele><time>2015-11-22T07:10:09.0000000+00:00</time></trkpt><trkpt lat="31.0851684" lon="35.695682"><ele>1177.5</ele><time>2015-11-22T07:10:12.0000000+00:00</time></trkpt><trkpt lat="31.0851146" lon="35.6956749"><ele>1177.4</ele><time>2015-11-22T07:10:14.0000000+00:00</time></trkpt><trkpt lat="31.0850623" lon="35.6956682"><ele>1177.4</ele><time>2015-11-22T07:10:16.0000000+00:00</time></trkpt><trkpt lat="31.0850131" lon="35.6956587"><ele>1177.4</ele><time>2015-11-22T07:10:18.0000000+00:00</time></trkpt><trkpt lat="31.0849647" lon="35.6956549"><ele>1177.4</ele><time>2015-11-22T07:10:20.0000000+00:00</time></trkpt><trkpt lat="31.0849184" lon="35.6956485"><ele>1177.4</ele><time>2015-11-22T07:10:22.0000000+00:00</time></trkpt><trkpt lat="31.0848668" lon="35.6956302"><ele>1177.4</ele><time>2015-11-22T07:10:25.0000000+00:00</time></trkpt><trkpt lat="31.0848184" lon="35.6956337"><ele>1177.4</ele><time>2015-11-22T07:10:28.0000000+00:00</time></trkpt><trkpt lat="31.0847692" lon="35.6956376"><ele>1177.9</ele><time>2015-11-22T07:10:31.0000000+00:00</time></trkpt><trkpt lat="31.0847124" lon="35.6956354"><ele>1177.5</ele><time>2015-11-22T07:10:34.0000000+00:00</time></trkpt><trkpt lat="31.0846536" lon="35.6956375"><ele>1177.5</ele><time>2015-11-22T07:10:37.0000000+00:00</time></trkpt><trkpt lat="31.0845918" lon="35.6956366"><ele>1177.8</ele><time>2015-11-22T07:10:40.0000000+00:00</time></trkpt><trkpt lat="31.0845308" lon="35.6956358"><ele>1177.5</ele><time>2015-11-22T07:10:43.0000000+00:00</time></trkpt><trkpt lat="31.0844684" lon="35.6956394"><ele>1177.4</ele><time>2015-11-22T07:10:46.0000000+00:00</time></trkpt><trkpt lat="31.0844026" lon="35.6956434"><ele>1177.4</ele><time>2015-11-22T07:10:49.0000000+00:00</time></trkpt><trkpt lat="31.0843338" lon="35.6956436"><ele>1177.4</ele><time>2015-11-22T07:10:52.0000000+00:00</time></trkpt><trkpt lat="31.0842857" lon="35.6956392"><ele>1177.4</ele><time>2015-11-22T07:10:54.0000000+00:00</time></trkpt><trkpt lat="31.0842362" lon="35.6956368"><ele>1177.4</ele><time>2015-11-22T07:10:56.0000000+00:00</time></trkpt><trkpt lat="31.0841873" lon="35.6956426"><ele>1177.4</ele><time>2015-11-22T07:10:58.0000000+00:00</time></trkpt><trkpt lat="31.0841384" lon="35.6956431"><ele>1177.4</ele><time>2015-11-22T07:11:00.0000000+00:00</time></trkpt><trkpt lat="31.0840908" lon="35.6956398"><ele>1177.4</ele><time>2015-11-22T07:11:02.0000000+00:00</time></trkpt><trkpt lat="31.0840451" lon="35.6956335"><ele>1177.4</ele><time>2015-11-22T07:11:04.0000000+00:00</time></trkpt><trkpt lat="31.0839988" lon="35.6956257"><ele>1177.9</ele><time>2015-11-22T07:11:06.0000000+00:00</time></trkpt><trkpt lat="31.0839318" lon="35.6956178"><ele>1178.3</ele><time>2015-11-22T07:11:09.0000000+00:00</time></trkpt><trkpt lat="31.0838852" lon="35.6956142"><ele>1179.1</ele><time>2015-11-22T07:11:11.0000000+00:00</time></trkpt><trkpt lat="31.0838389" lon="35.6956117"><ele>1178.8</ele><time>2015-11-22T07:11:13.0000000+00:00</time></trkpt><trkpt lat="31.0837928" lon="35.6956077"><ele>1178.5</ele><time>2015-11-22T07:11:15.0000000+00:00</time></trkpt><trkpt lat="31.0837267" lon="35.6955993"><ele>1179.2</ele><time>2015-11-22T07:11:18.0000000+00:00</time></trkpt><trkpt lat="31.0836587" lon="35.6955976"><ele>1178.9</ele><time>2015-11-22T07:11:21.0000000+00:00</time></trkpt><trkpt lat="31.0836106" lon="35.6955995"><ele>1179.0</ele><time>2015-11-22T07:11:23.0000000+00:00</time></trkpt><trkpt lat="31.0835634" lon="35.695596"><ele>1178.6</ele><time>2015-11-22T07:11:25.0000000+00:00</time></trkpt><trkpt lat="31.0835167" lon="35.695597"><ele>1178.4</ele><time>2015-11-22T07:11:27.0000000+00:00</time></trkpt><trkpt lat="31.0834703" lon="35.6955971"><ele>1178.9</ele><time>2015-11-22T07:11:29.0000000+00:00</time></trkpt><trkpt lat="31.0834224" lon="35.695593"><ele>1178.8</ele><time>2015-11-22T07:11:31.0000000+00:00</time></trkpt><trkpt lat="31.0833751" lon="35.6955913"><ele>1179.2</ele><time>2015-11-22T07:11:33.0000000+00:00</time></trkpt><trkpt lat="31.0833259" lon="35.6955924"><ele>1180.1</ele><time>2015-11-22T07:11:35.0000000+00:00</time></trkpt><trkpt lat="31.0832763" lon="35.6955903"><ele>1180.3</ele><time>2015-11-22T07:11:37.0000000+00:00</time></trkpt><trkpt lat="31.0832259" lon="35.6955881"><ele>1180.4</ele><time>2015-11-22T07:11:39.0000000+00:00</time></trkpt><trkpt lat="31.0831743" lon="35.6955865"><ele>1180.4</ele><time>2015-11-22T07:11:41.0000000+00:00</time></trkpt><trkpt lat="31.0831225" lon="35.6955843"><ele>1180.4</ele><time>2015-11-22T07:11:43.0000000+00:00</time></trkpt><trkpt lat="31.0830705" lon="35.6955847"><ele>1180.4</ele><time>2015-11-22T07:11:45.0000000+00:00</time></trkpt><trkpt lat="31.0830181" lon="35.6955865"><ele>1181.2</ele><time>2015-11-22T07:11:47.0000000+00:00</time></trkpt><trkpt lat="31.0829655" lon="35.6955818"><ele>1181.6</ele><time>2015-11-22T07:11:49.0000000+00:00</time></trkpt><trkpt lat="31.0829134" lon="35.6955765"><ele>1182.2</ele><time>2015-11-22T07:11:51.0000000+00:00</time></trkpt><trkpt lat="31.0828605" lon="35.6955709"><ele>1182.4</ele><time>2015-11-22T07:11:53.0000000+00:00</time></trkpt><trkpt lat="31.0828079" lon="35.6955647"><ele>1182.4</ele><time>2015-11-22T07:11:55.0000000+00:00</time></trkpt><trkpt lat="31.0827572" lon="35.6955622"><ele>1182.9</ele><time>2015-11-22T07:11:57.0000000+00:00</time></trkpt><trkpt lat="31.082705" lon="35.6955579"><ele>1182.5</ele><time>2015-11-22T07:11:59.0000000+00:00</time></trkpt><trkpt lat="31.0826515" lon="35.6955533"><ele>1183.7</ele><time>2015-11-22T07:12:01.0000000+00:00</time></trkpt><trkpt lat="31.0825969" lon="35.6955476"><ele>1183.5</ele><time>2015-11-22T07:12:03.0000000+00:00</time></trkpt><trkpt lat="31.0825429" lon="35.6955461"><ele>1184.2</ele><time>2015-11-22T07:12:05.0000000+00:00</time></trkpt><trkpt lat="31.0824907" lon="35.6955505"><ele>1184.3</ele><time>2015-11-22T07:12:07.0000000+00:00</time></trkpt><trkpt lat="31.0824405" lon="35.6955516"><ele>1183.9</ele><time>2015-11-22T07:12:09.0000000+00:00</time></trkpt><trkpt lat="31.0823917" lon="35.6955476"><ele>1183.8</ele><time>2015-11-22T07:12:11.0000000+00:00</time></trkpt><trkpt lat="31.0823417" lon="35.6955443"><ele>1183.5</ele><time>2015-11-22T07:12:13.0000000+00:00</time></trkpt><trkpt lat="31.082291" lon="35.6955432"><ele>1182.7</ele><time>2015-11-22T07:12:15.0000000+00:00</time></trkpt><trkpt lat="31.0822417" lon="35.6955354"><ele>1182.0</ele><time>2015-11-22T07:12:17.0000000+00:00</time></trkpt><trkpt lat="31.0821938" lon="35.6955297"><ele>1182.3</ele><time>2015-11-22T07:12:19.0000000+00:00</time></trkpt><trkpt lat="31.0821453" lon="35.6955309"><ele>1182.4</ele><time>2015-11-22T07:12:21.0000000+00:00</time></trkpt><trkpt lat="31.0820972" lon="35.69553"><ele>1181.9</ele><time>2015-11-22T07:12:23.0000000+00:00</time></trkpt><trkpt lat="31.0820464" lon="35.6955297"><ele>1182.8</ele><time>2015-11-22T07:12:25.0000000+00:00</time></trkpt><trkpt lat="31.081996" lon="35.6955274"><ele>1183.2</ele><time>2015-11-22T07:12:27.0000000+00:00</time></trkpt><trkpt lat="31.0819439" lon="35.6955231"><ele>1183.9</ele><time>2015-11-22T07:12:29.0000000+00:00</time></trkpt><trkpt lat="31.0818907" lon="35.6955186"><ele>1184.3</ele><time>2015-11-22T07:12:31.0000000+00:00</time></trkpt><trkpt lat="31.0818376" lon="35.6955155"><ele>1184.9</ele><time>2015-11-22T07:12:33.0000000+00:00</time></trkpt><trkpt lat="31.0817857" lon="35.6955092"><ele>1185.3</ele><time>2015-11-22T07:12:35.0000000+00:00</time></trkpt><trkpt lat="31.0817352" lon="35.6954992"><ele>1185.4</ele><time>2015-11-22T07:12:37.0000000+00:00</time></trkpt><trkpt lat="31.0816862" lon="35.6954926"><ele>1185.4</ele><time>2015-11-22T07:12:39.0000000+00:00</time></trkpt><trkpt lat="31.0816358" lon="35.695494"><ele>1184.9</ele><time>2015-11-22T07:12:41.0000000+00:00</time></trkpt><trkpt lat="31.0815862" lon="35.6954945"><ele>1185.0</ele><time>2015-11-22T07:12:43.0000000+00:00</time></trkpt><trkpt lat="31.0815362" lon="35.6954933"><ele>1186.1</ele><time>2015-11-22T07:12:45.0000000+00:00</time></trkpt><trkpt lat="31.0814868" lon="35.6954937"><ele>1186.3</ele><time>2015-11-22T07:12:47.0000000+00:00</time></trkpt><trkpt lat="31.0814362" lon="35.6954946"><ele>1186.4</ele><time>2015-11-22T07:12:49.0000000+00:00</time></trkpt><trkpt lat="31.0813874" lon="35.6954918"><ele>1186.4</ele><time>2015-11-22T07:12:51.0000000+00:00</time></trkpt><trkpt lat="31.0813385" lon="35.6954884"><ele>1186.4</ele><time>2015-11-22T07:12:53.0000000+00:00</time></trkpt><trkpt lat="31.0812884" lon="35.6954897"><ele>1186.4</ele><time>2015-11-22T07:12:55.0000000+00:00</time></trkpt><trkpt lat="31.0812379" lon="35.6954915"><ele>1186.4</ele><time>2015-11-22T07:12:57.0000000+00:00</time></trkpt><trkpt lat="31.0811873" lon="35.695492"><ele>1186.4</ele><time>2015-11-22T07:12:59.0000000+00:00</time></trkpt><trkpt lat="31.0811371" lon="35.6954876"><ele>1185.7</ele><time>2015-11-22T07:13:01.0000000+00:00</time></trkpt><trkpt lat="31.081089" lon="35.6954836"><ele>1185.0</ele><time>2015-11-22T07:13:03.0000000+00:00</time></trkpt><trkpt lat="31.08104" lon="35.6954819"><ele>1185.3</ele><time>2015-11-22T07:13:05.0000000+00:00</time></trkpt><trkpt lat="31.0809887" lon="35.6954773"><ele>1183.9</ele><time>2015-11-22T07:13:07.0000000+00:00</time></trkpt><trkpt lat="31.0809364" lon="35.6954704"><ele>1183.5</ele><time>2015-11-22T07:13:09.0000000+00:00</time></trkpt><trkpt lat="31.0808838" lon="35.6954675"><ele>1183.9</ele><time>2015-11-22T07:13:11.0000000+00:00</time></trkpt><trkpt lat="31.0808317" lon="35.695467"><ele>1184.3</ele><time>2015-11-22T07:13:13.0000000+00:00</time></trkpt><trkpt lat="31.0807822" lon="35.6954626"><ele>1184.1</ele><time>2015-11-22T07:13:15.0000000+00:00</time></trkpt><trkpt lat="31.0807343" lon="35.6954567"><ele>1185.6</ele><time>2015-11-22T07:13:17.0000000+00:00</time></trkpt><trkpt lat="31.0806879" lon="35.695458"><ele>1186.9</ele><time>2015-11-22T07:13:19.0000000+00:00</time></trkpt><trkpt lat="31.0806403" lon="35.6954606"><ele>1187.3</ele><time>2015-11-22T07:13:21.0000000+00:00</time></trkpt><trkpt lat="31.0805916" lon="35.6954584"><ele>1187.9</ele><time>2015-11-22T07:13:23.0000000+00:00</time></trkpt><trkpt lat="31.0805423" lon="35.6954538"><ele>1188.8</ele><time>2015-11-22T07:13:25.0000000+00:00</time></trkpt><trkpt lat="31.0804934" lon="35.6954488"><ele>1189.7</ele><time>2015-11-22T07:13:27.0000000+00:00</time></trkpt><trkpt lat="31.0804438" lon="35.6954432"><ele>1189.7</ele><time>2015-11-22T07:13:29.0000000+00:00</time></trkpt><trkpt lat="31.0803932" lon="35.6954402"><ele>1188.7</ele><time>2015-11-22T07:13:31.0000000+00:00</time></trkpt><trkpt lat="31.0803436" lon="35.6954375"><ele>1190.7</ele><time>2015-11-22T07:13:33.0000000+00:00</time></trkpt><trkpt lat="31.0802963" lon="35.6954335"><ele>1190.5</ele><time>2015-11-22T07:13:35.0000000+00:00</time></trkpt><trkpt lat="31.0802496" lon="35.695431"><ele>1190.4</ele><time>2015-11-22T07:13:37.0000000+00:00</time></trkpt><trkpt lat="31.0801999" lon="35.6954253"><ele>1189.9</ele><time>2015-11-22T07:13:39.0000000+00:00</time></trkpt><trkpt lat="31.0801495" lon="35.6954249"><ele>1189.0</ele><time>2015-11-22T07:13:41.0000000+00:00</time></trkpt><trkpt lat="31.0801002" lon="35.6954237"><ele>1188.3</ele><time>2015-11-22T07:13:43.0000000+00:00</time></trkpt><trkpt lat="31.0800507" lon="35.6954205"><ele>1188.6</ele><time>2015-11-22T07:13:45.0000000+00:00</time></trkpt><trkpt lat="31.0800005" lon="35.6954162"><ele>1188.5</ele><time>2015-11-22T07:13:47.0000000+00:00</time></trkpt><trkpt lat="31.0799501" lon="35.6954163"><ele>1189.7</ele><time>2015-11-22T07:13:49.0000000+00:00</time></trkpt><trkpt lat="31.0799006" lon="35.6954128"><ele>1190.5</ele><time>2015-11-22T07:13:51.0000000+00:00</time></trkpt><trkpt lat="31.0798518" lon="35.6954076"><ele>1191.4</ele><time>2015-11-22T07:13:53.0000000+00:00</time></trkpt><trkpt lat="31.0798024" lon="35.6954015"><ele>1192.7</ele><time>2015-11-22T07:13:55.0000000+00:00</time></trkpt><trkpt lat="31.0797521" lon="35.6953972"><ele>1193.7</ele><time>2015-11-22T07:13:57.0000000+00:00</time></trkpt><trkpt lat="31.0797053" lon="35.695395"><ele>1194.7</ele><time>2015-11-22T07:13:59.0000000+00:00</time></trkpt><trkpt lat="31.0796457" lon="35.6953908"><ele>1195.3</ele><time>2015-11-22T07:14:02.0000000+00:00</time></trkpt><trkpt lat="31.0795933" lon="35.695387"><ele>1194.5</ele><time>2015-11-22T07:14:05.0000000+00:00</time></trkpt><trkpt lat="31.0795441" lon="35.6953765"><ele>1191.2</ele><time>2015-11-22T07:14:08.0000000+00:00</time></trkpt><trkpt lat="31.079487" lon="35.6953655"><ele>1190.9</ele><time>2015-11-22T07:14:12.0000000+00:00</time></trkpt><trkpt lat="31.0794313" lon="35.6953534"><ele>1194.0</ele><time>2015-11-22T07:14:16.0000000+00:00</time></trkpt><trkpt lat="31.0793742" lon="35.6953517"><ele>1193.3</ele><time>2015-11-22T07:14:20.0000000+00:00</time></trkpt><trkpt lat="31.0793295" lon="35.6953639"><ele>1192.5</ele><time>2015-11-22T07:14:23.0000000+00:00</time></trkpt><trkpt lat="31.0792722" lon="35.6953468"><ele>1191.5</ele><time>2015-11-22T07:14:27.0000000+00:00</time></trkpt><trkpt lat="31.0792269" lon="35.6953351"><ele>1189.9</ele><time>2015-11-22T07:14:30.0000000+00:00</time></trkpt><trkpt lat="31.0791786" lon="35.6953349"><ele>1190.5</ele><time>2015-11-22T07:14:33.0000000+00:00</time></trkpt><trkpt lat="31.0791298" lon="35.6953392"><ele>1189.7</ele><time>2015-11-22T07:14:36.0000000+00:00</time></trkpt><trkpt lat="31.0790825" lon="35.6953348"><ele>1191.9</ele><time>2015-11-22T07:14:39.0000000+00:00</time></trkpt><trkpt lat="31.0790319" lon="35.6953342"><ele>1192.8</ele><time>2015-11-22T07:14:42.0000000+00:00</time></trkpt><trkpt lat="31.078984" lon="35.6953365"><ele>1194.1</ele><time>2015-11-22T07:14:45.0000000+00:00</time></trkpt><trkpt lat="31.0789389" lon="35.6953417"><ele>1195.9</ele><time>2015-11-22T07:14:48.0000000+00:00</time></trkpt><trkpt lat="31.0788928" lon="35.6953407"><ele>1197.5</ele><time>2015-11-22T07:14:51.0000000+00:00</time></trkpt><trkpt lat="31.0788443" lon="35.6953419"><ele>1197.5</ele><time>2015-11-22T07:14:54.0000000+00:00</time></trkpt><trkpt lat="31.0787968" lon="35.6953374"><ele>1197.9</ele><time>2015-11-22T07:14:57.0000000+00:00</time></trkpt><trkpt lat="31.0787512" lon="35.6953326"><ele>1199.1</ele><time>2015-11-22T07:15:00.0000000+00:00</time></trkpt><trkpt lat="31.0787061" lon="35.6953379"><ele>1199.4</ele><time>2015-11-22T07:15:03.0000000+00:00</time></trkpt><trkpt lat="31.0786599" lon="35.6953404"><ele>1199.0</ele><time>2015-11-22T07:15:06.0000000+00:00</time></trkpt><trkpt lat="31.0786149" lon="35.6953413"><ele>1200.1</ele><time>2015-11-22T07:15:09.0000000+00:00</time></trkpt><trkpt lat="31.0785681" lon="35.6953388"><ele>1202.6</ele><time>2015-11-22T07:15:12.0000000+00:00</time></trkpt><trkpt lat="31.0785192" lon="35.6953352"><ele>1202.7</ele><time>2015-11-22T07:15:15.0000000+00:00</time></trkpt><trkpt lat="31.0784712" lon="35.6953321"><ele>1202.7</ele><time>2015-11-22T07:15:18.0000000+00:00</time></trkpt><trkpt lat="31.0784244" lon="35.6953236"><ele>1200.3</ele><time>2015-11-22T07:15:21.0000000+00:00</time></trkpt><trkpt lat="31.0783773" lon="35.6953215"><ele>1201.3</ele><time>2015-11-22T07:15:24.0000000+00:00</time></trkpt><trkpt lat="31.0783192" lon="35.6953244"><ele>1198.9</ele><time>2015-11-22T07:15:28.0000000+00:00</time></trkpt><trkpt lat="31.078261" lon="35.695328"><ele>1198.3</ele><time>2015-11-22T07:15:32.0000000+00:00</time></trkpt><trkpt lat="31.0782022" lon="35.6953279"><ele>1200.7</ele><time>2015-11-22T07:15:36.0000000+00:00</time></trkpt><trkpt lat="31.0781567" lon="35.6953205"><ele>1200.6</ele><time>2015-11-22T07:15:39.0000000+00:00</time></trkpt><trkpt lat="31.0781007" lon="35.6953159"><ele>1202.6</ele><time>2015-11-22T07:15:43.0000000+00:00</time></trkpt><trkpt lat="31.0780474" lon="35.6953066"><ele>1202.0</ele><time>2015-11-22T07:15:47.0000000+00:00</time></trkpt><trkpt lat="31.0779896" lon="35.6952948"><ele>1198.9</ele><time>2015-11-22T07:15:51.0000000+00:00</time></trkpt><trkpt lat="31.0779438" lon="35.695293"><ele>1199.1</ele><time>2015-11-22T07:15:54.0000000+00:00</time></trkpt><trkpt lat="31.077896" lon="35.6952956"><ele>1202.4</ele><time>2015-11-22T07:15:57.0000000+00:00</time></trkpt><trkpt lat="31.077847" lon="35.6953"><ele>1201.6</ele><time>2015-11-22T07:16:00.0000000+00:00</time></trkpt><trkpt lat="31.0777988" lon="35.6952946"><ele>1203.2</ele><time>2015-11-22T07:16:03.0000000+00:00</time></trkpt><trkpt lat="31.0777535" lon="35.6952879"><ele>1199.0</ele><time>2015-11-22T07:16:06.0000000+00:00</time></trkpt><trkpt lat="31.0776978" lon="35.6952789"><ele>1197.8</ele><time>2015-11-22T07:16:10.0000000+00:00</time></trkpt><trkpt lat="31.0776494" lon="35.6952628"><ele>1196.9</ele><time>2015-11-22T07:16:14.0000000+00:00</time></trkpt><trkpt lat="31.0775918" lon="35.6952594"><ele>1196.9</ele><time>2015-11-22T07:16:18.0000000+00:00</time></trkpt><trkpt lat="31.0775464" lon="35.6952513"><ele>1197.1</ele><time>2015-11-22T07:16:21.0000000+00:00</time></trkpt><trkpt lat="31.0775011" lon="35.6952455"><ele>1198.9</ele><time>2015-11-22T07:16:24.0000000+00:00</time></trkpt><trkpt lat="31.0774417" lon="35.6952368"><ele>1203.9</ele><time>2015-11-22T07:16:28.0000000+00:00</time></trkpt><trkpt lat="31.0773943" lon="35.6952396"><ele>1206.1</ele><time>2015-11-22T07:16:31.0000000+00:00</time></trkpt><trkpt lat="31.0773491" lon="35.6952386"><ele>1208.1</ele><time>2015-11-22T07:16:34.0000000+00:00</time></trkpt><trkpt lat="31.0773033" lon="35.6952344"><ele>1206.7</ele><time>2015-11-22T07:16:37.0000000+00:00</time></trkpt><trkpt lat="31.0772563" lon="35.6952269"><ele>1205.3</ele><time>2015-11-22T07:16:40.0000000+00:00</time></trkpt><trkpt lat="31.0771994" lon="35.695233"><ele>1205.7</ele><time>2015-11-22T07:16:44.0000000+00:00</time></trkpt><trkpt lat="31.0771458" lon="35.695232"><ele>1206.5</ele><time>2015-11-22T07:16:48.0000000+00:00</time></trkpt><trkpt lat="31.0770884" lon="35.6952262"><ele>1205.9</ele><time>2015-11-22T07:16:52.0000000+00:00</time></trkpt><trkpt lat="31.0770408" lon="35.695229"><ele>1203.7</ele><time>2015-11-22T07:16:55.0000000+00:00</time></trkpt><trkpt lat="31.0769922" lon="35.6952233"><ele>1201.1</ele><time>2015-11-22T07:16:58.0000000+00:00</time></trkpt><trkpt lat="31.0769443" lon="35.695216"><ele>1201.7</ele><time>2015-11-22T07:17:01.0000000+00:00</time></trkpt><trkpt lat="31.0768955" lon="35.6952152"><ele>1205.1</ele><time>2015-11-22T07:17:04.0000000+00:00</time></trkpt><trkpt lat="31.0768466" lon="35.695212"><ele>1207.2</ele><time>2015-11-22T07:17:07.0000000+00:00</time></trkpt><trkpt lat="31.0768001" lon="35.6952003"><ele>1209.5</ele><time>2015-11-22T07:17:10.0000000+00:00</time></trkpt><trkpt lat="31.0767505" lon="35.6951981"><ele>1206.5</ele><time>2015-11-22T07:17:13.0000000+00:00</time></trkpt><trkpt lat="31.0767006" lon="35.6951889"><ele>1205.9</ele><time>2015-11-22T07:17:16.0000000+00:00</time></trkpt><trkpt lat="31.0766532" lon="35.6951749"><ele>1207.0</ele><time>2015-11-22T07:17:19.0000000+00:00</time></trkpt><trkpt lat="31.0766061" lon="35.6951653"><ele>1209.7</ele><time>2015-11-22T07:17:22.0000000+00:00</time></trkpt><trkpt lat="31.0765562" lon="35.695155"><ele>1207.8</ele><time>2015-11-22T07:17:25.0000000+00:00</time></trkpt><trkpt lat="31.0765071" lon="35.695139"><ele>1211.0</ele><time>2015-11-22T07:17:28.0000000+00:00</time></trkpt><trkpt lat="31.076464" lon="35.6951194"><ele>1211.8</ele><time>2015-11-22T07:17:31.0000000+00:00</time></trkpt><trkpt lat="31.0764124" lon="35.6950893"><ele>1215.1</ele><time>2015-11-22T07:17:35.0000000+00:00</time></trkpt><trkpt lat="31.0763577" lon="35.6950768"><ele>1211.6</ele><time>2015-11-22T07:17:39.0000000+00:00</time></trkpt><trkpt lat="31.0763049" lon="35.6950601"><ele>1211.1</ele><time>2015-11-22T07:17:43.0000000+00:00</time></trkpt><trkpt lat="31.0762541" lon="35.6950466"><ele>1205.7</ele><time>2015-11-22T07:17:47.0000000+00:00</time></trkpt><trkpt lat="31.076201" lon="35.6950308"><ele>1208.9</ele><time>2015-11-22T07:17:51.0000000+00:00</time></trkpt><trkpt lat="31.0761462" lon="35.6950043"><ele>1207.7</ele><time>2015-11-22T07:17:55.0000000+00:00</time></trkpt><trkpt lat="31.0761008" lon="35.6949872"><ele>1211.3</ele><time>2015-11-22T07:17:58.0000000+00:00</time></trkpt><trkpt lat="31.0760597" lon="35.6949602"><ele>1215.3</ele><time>2015-11-22T07:18:01.0000000+00:00</time></trkpt><trkpt lat="31.0760156" lon="35.6949377"><ele>1216.4</ele><time>2015-11-22T07:18:04.0000000+00:00</time></trkpt><trkpt lat="31.0759682" lon="35.6949222"><ele>1215.9</ele><time>2015-11-22T07:18:07.0000000+00:00</time></trkpt><trkpt lat="31.0759207" lon="35.6949021"><ele>1218.2</ele><time>2015-11-22T07:18:10.0000000+00:00</time></trkpt><trkpt lat="31.0758753" lon="35.6948684"><ele>1215.4</ele><time>2015-11-22T07:18:13.0000000+00:00</time></trkpt><trkpt lat="31.0758334" lon="35.6948273"><ele>1210.4</ele><time>2015-11-22T07:18:16.0000000+00:00</time></trkpt><trkpt lat="31.0757873" lon="35.6947948"><ele>1209.2</ele><time>2015-11-22T07:18:19.0000000+00:00</time></trkpt><trkpt lat="31.0757335" lon="35.6947699"><ele>1208.0</ele><time>2015-11-22T07:18:22.0000000+00:00</time></trkpt><trkpt lat="31.0756791" lon="35.6947454"><ele>1211.6</ele><time>2015-11-22T07:18:25.0000000+00:00</time></trkpt><trkpt lat="31.0756179" lon="35.6947274"><ele>1214.2</ele><time>2015-11-22T07:18:28.0000000+00:00</time></trkpt><trkpt lat="31.075553" lon="35.6947164"><ele>1211.0</ele><time>2015-11-22T07:18:31.0000000+00:00</time></trkpt><trkpt lat="31.0754874" lon="35.6946969"><ele>1212.2</ele><time>2015-11-22T07:18:34.0000000+00:00</time></trkpt><trkpt lat="31.0754272" lon="35.6946755"><ele>1212.4</ele><time>2015-11-22T07:18:37.0000000+00:00</time></trkpt><trkpt lat="31.0753656" lon="35.6946618"><ele>1213.0</ele><time>2015-11-22T07:18:40.0000000+00:00</time></trkpt><trkpt lat="31.0753119" lon="35.6946363"><ele>1212.4</ele><time>2015-11-22T07:18:43.0000000+00:00</time></trkpt><trkpt lat="31.0752547" lon="35.69462"><ele>1208.9</ele><time>2015-11-22T07:18:46.0000000+00:00</time></trkpt><trkpt lat="31.0751993" lon="35.6945967"><ele>1205.6</ele><time>2015-11-22T07:18:49.0000000+00:00</time></trkpt><trkpt lat="31.0751365" lon="35.6945803"><ele>1198.6</ele><time>2015-11-22T07:18:52.0000000+00:00</time></trkpt><trkpt lat="31.0750762" lon="35.6945635"><ele>1201.0</ele><time>2015-11-22T07:18:55.0000000+00:00</time></trkpt><trkpt lat="31.075014" lon="35.6945321"><ele>1206.4</ele><time>2015-11-22T07:18:58.0000000+00:00</time></trkpt><trkpt lat="31.0749636" lon="35.6945173"><ele>1210.6</ele><time>2015-11-22T07:19:00.0000000+00:00</time></trkpt><trkpt lat="31.0749132" lon="35.6945046"><ele>1210.5</ele><time>2015-11-22T07:19:02.0000000+00:00</time></trkpt><trkpt lat="31.0748607" lon="35.6944997"><ele>1209.4</ele><time>2015-11-22T07:19:04.0000000+00:00</time></trkpt><trkpt lat="31.0748076" lon="35.6945038"><ele>1205.4</ele><time>2015-11-22T07:19:06.0000000+00:00</time></trkpt><trkpt lat="31.0747577" lon="35.6945122"><ele>1206.9</ele><time>2015-11-22T07:19:08.0000000+00:00</time></trkpt><trkpt lat="31.0747009" lon="35.6944942"><ele>1212.2</ele><time>2015-11-22T07:19:11.0000000+00:00</time></trkpt><trkpt lat="31.0746512" lon="35.6944912"><ele>1213.8</ele><time>2015-11-22T07:23:12.0000000+00:00</time></trkpt><trkpt lat="31.0745948" lon="35.6944858"><ele>1216.5</ele><time>2015-11-22T07:23:14.0000000+00:00</time></trkpt><trkpt lat="31.0745329" lon="35.6944772"><ele>1212.2</ele><time>2015-11-22T07:23:16.0000000+00:00</time></trkpt><trkpt lat="31.0744692" lon="35.6944659"><ele>1209.8</ele><time>2015-11-22T07:23:18.0000000+00:00</time></trkpt><trkpt lat="31.0744099" lon="35.6944518"><ele>1207.8</ele><time>2015-11-22T07:23:20.0000000+00:00</time></trkpt><trkpt lat="31.074353" lon="35.6944392"><ele>1207.7</ele><time>2015-11-22T07:23:22.0000000+00:00</time></trkpt><trkpt lat="31.0742983" lon="35.6944321"><ele>1208.0</ele><time>2015-11-22T07:23:24.0000000+00:00</time></trkpt><trkpt lat="31.0742482" lon="35.694426"><ele>1211.0</ele><time>2015-11-22T07:23:26.0000000+00:00</time></trkpt><trkpt lat="31.074198" lon="35.6944125"><ele>1213.3</ele><time>2015-11-22T07:23:28.0000000+00:00</time></trkpt><trkpt lat="31.0741429" lon="35.6943985"><ele>1212.6</ele><time>2015-11-22T07:23:30.0000000+00:00</time></trkpt><trkpt lat="31.0740854" lon="35.6943916"><ele>1214.0</ele><time>2015-11-22T07:23:32.0000000+00:00</time></trkpt><trkpt lat="31.0740289" lon="35.6943862"><ele>1214.5</ele><time>2015-11-22T07:23:34.0000000+00:00</time></trkpt><trkpt lat="31.073969" lon="35.6943841"><ele>1216.2</ele><time>2015-11-22T07:23:36.0000000+00:00</time></trkpt><trkpt lat="31.0739061" lon="35.6943813"><ele>1216.1</ele><time>2015-11-22T07:23:38.0000000+00:00</time></trkpt><trkpt lat="31.0738392" lon="35.6943806"><ele>1214.8</ele><time>2015-11-22T07:23:40.0000000+00:00</time></trkpt><trkpt lat="31.0737712" lon="35.6943826"><ele>1215.0</ele><time>2015-11-22T07:23:42.0000000+00:00</time></trkpt><trkpt lat="31.0737057" lon="35.6943872"><ele>1217.6</ele><time>2015-11-22T07:23:44.0000000+00:00</time></trkpt><trkpt lat="31.0736416" lon="35.6943918"><ele>1214.4</ele><time>2015-11-22T07:23:46.0000000+00:00</time></trkpt><trkpt lat="31.0735799" lon="35.6943956"><ele>1216.2</ele><time>2015-11-22T07:23:48.0000000+00:00</time></trkpt><trkpt lat="31.0735191" lon="35.6944009"><ele>1218.3</ele><time>2015-11-22T07:23:50.0000000+00:00</time></trkpt><trkpt lat="31.0734565" lon="35.6944097"><ele>1220.4</ele><time>2015-11-22T07:23:52.0000000+00:00</time></trkpt><trkpt lat="31.0733919" lon="35.6944204"><ele>1220.9</ele><time>2015-11-22T07:23:54.0000000+00:00</time></trkpt><trkpt lat="31.0733266" lon="35.6944317"><ele>1220.0</ele><time>2015-11-22T07:23:56.0000000+00:00</time></trkpt><trkpt lat="31.0732616" lon="35.6944439"><ele>1220.3</ele><time>2015-11-22T07:23:58.0000000+00:00</time></trkpt><trkpt lat="31.0731973" lon="35.6944539"><ele>1221.1</ele><time>2015-11-22T07:24:00.0000000+00:00</time></trkpt><trkpt lat="31.073132" lon="35.6944651"><ele>1218.8</ele><time>2015-11-22T07:24:02.0000000+00:00</time></trkpt><trkpt lat="31.0730659" lon="35.6944776"><ele>1219.0</ele><time>2015-11-22T07:24:04.0000000+00:00</time></trkpt><trkpt lat="31.0729986" lon="35.6944944"><ele>1220.6</ele><time>2015-11-22T07:24:06.0000000+00:00</time></trkpt><trkpt lat="31.0729304" lon="35.694513"><ele>1221.9</ele><time>2015-11-22T07:24:08.0000000+00:00</time></trkpt><trkpt lat="31.0728591" lon="35.6945296"><ele>1220.8</ele><time>2015-11-22T07:24:10.0000000+00:00</time></trkpt><trkpt lat="31.0727847" lon="35.6945394"><ele>1217.7</ele><time>2015-11-22T07:24:12.0000000+00:00</time></trkpt><trkpt lat="31.0727106" lon="35.6945501"><ele>1219.5</ele><time>2015-11-22T07:24:14.0000000+00:00</time></trkpt><trkpt lat="31.0726354" lon="35.6945616"><ele>1219.4</ele><time>2015-11-22T07:24:16.0000000+00:00</time></trkpt><trkpt lat="31.072562" lon="35.6945682"><ele>1216.2</ele><time>2015-11-22T07:24:18.0000000+00:00</time></trkpt><trkpt lat="31.072486" lon="35.694572"><ele>1213.8</ele><time>2015-11-22T07:24:20.0000000+00:00</time></trkpt><trkpt lat="31.0724082" lon="35.6945785"><ele>1212.5</ele><time>2015-11-22T07:24:22.0000000+00:00</time></trkpt><trkpt lat="31.0723311" lon="35.6945884"><ele>1214.9</ele><time>2015-11-22T07:24:24.0000000+00:00</time></trkpt><trkpt lat="31.0722551" lon="35.6945958"><ele>1216.5</ele><time>2015-11-22T07:24:26.0000000+00:00</time></trkpt><trkpt lat="31.0721845" lon="35.6946047"><ele>1215.7</ele><time>2015-11-22T07:24:28.0000000+00:00</time></trkpt><trkpt lat="31.0721178" lon="35.6946123"><ele>1216.5</ele><time>2015-11-22T07:24:30.0000000+00:00</time></trkpt><trkpt lat="31.0720555" lon="35.6946225"><ele>1218.7</ele><time>2015-11-22T07:24:32.0000000+00:00</time></trkpt><trkpt lat="31.0719958" lon="35.6946301"><ele>1219.5</ele><time>2015-11-22T07:24:34.0000000+00:00</time></trkpt><trkpt lat="31.0719361" lon="35.6946379"><ele>1220.2</ele><time>2015-11-22T07:24:36.0000000+00:00</time></trkpt><trkpt lat="31.0718722" lon="35.694642"><ele>1222.8</ele><time>2015-11-22T07:24:38.0000000+00:00</time></trkpt><trkpt lat="31.0718025" lon="35.6946503"><ele>1221.3</ele><time>2015-11-22T07:24:40.0000000+00:00</time></trkpt><trkpt lat="31.0717243" lon="35.6946636"><ele>1221.1</ele><time>2015-11-22T07:24:42.0000000+00:00</time></trkpt><trkpt lat="31.0716576" lon="35.6946704"><ele>1221.8</ele><time>2015-11-22T07:24:43.0000000+00:00</time></trkpt><trkpt lat="31.0716122" lon="35.6946797"><ele>1221.1</ele><time>2015-11-22T07:24:44.0000000+00:00</time></trkpt><trkpt lat="31.0715671" lon="35.69469"><ele>1220.2</ele><time>2015-11-22T07:24:45.0000000+00:00</time></trkpt><trkpt lat="31.0715208" lon="35.6946949"><ele>1220.8</ele><time>2015-11-22T07:24:46.0000000+00:00</time></trkpt><trkpt lat="31.0714754" lon="35.6946958"><ele>1220.1</ele><time>2015-11-22T07:24:47.0000000+00:00</time></trkpt><trkpt lat="31.0714297" lon="35.6947018"><ele>1219.8</ele><time>2015-11-22T07:24:48.0000000+00:00</time></trkpt><trkpt lat="31.0713799" lon="35.6947154"><ele>1218.1</ele><time>2015-11-22T07:24:49.0000000+00:00</time></trkpt><trkpt lat="31.071329" lon="35.6947223"><ele>1217.7</ele><time>2015-11-22T07:24:50.0000000+00:00</time></trkpt><trkpt lat="31.07123" lon="35.6947444"><ele>1218.7</ele><time>2015-11-22T07:24:52.0000000+00:00</time></trkpt><trkpt lat="31.0711826" lon="35.69476"><ele>1219.1</ele><time>2015-11-22T07:24:53.0000000+00:00</time></trkpt><trkpt lat="31.0711312" lon="35.6947662"><ele>1218.7</ele><time>2015-11-22T07:24:54.0000000+00:00</time></trkpt><trkpt lat="31.0710793" lon="35.6947724"><ele>1218.1</ele><time>2015-11-22T07:24:55.0000000+00:00</time></trkpt><trkpt lat="31.0710344" lon="35.694778"><ele>1216.7</ele><time>2015-11-22T07:24:56.0000000+00:00</time></trkpt><trkpt lat="31.0709887" lon="35.6947985"><ele>1215.6</ele><time>2015-11-22T07:24:57.0000000+00:00</time></trkpt><trkpt lat="31.0709402" lon="35.6948144"><ele>1215.0</ele><time>2015-11-22T07:24:58.0000000+00:00</time></trkpt><trkpt lat="31.070889" lon="35.6948302"><ele>1212.2</ele><time>2015-11-22T07:24:59.0000000+00:00</time></trkpt><trkpt lat="31.0708409" lon="35.6948313"><ele>1210.3</ele><time>2015-11-22T07:25:00.0000000+00:00</time></trkpt><trkpt lat="31.0707848" lon="35.6948318"><ele>1211.3</ele><time>2015-11-22T07:25:01.0000000+00:00</time></trkpt><trkpt lat="31.0707352" lon="35.6948408"><ele>1213.4</ele><time>2015-11-22T07:25:02.0000000+00:00</time></trkpt><trkpt lat="31.0706767" lon="35.694845"><ele>1214.4</ele><time>2015-11-22T07:25:03.0000000+00:00</time></trkpt><trkpt lat="31.0706231" lon="35.6948528"><ele>1215.4</ele><time>2015-11-22T07:25:04.0000000+00:00</time></trkpt><trkpt lat="31.0705755" lon="35.6948623"><ele>1216.4</ele><time>2015-11-22T07:25:05.0000000+00:00</time></trkpt><trkpt lat="31.0705252" lon="35.6948662"><ele>1215.9</ele><time>2015-11-22T07:25:06.0000000+00:00</time></trkpt><trkpt lat="31.0704655" lon="35.6948779"><ele>1213.7</ele><time>2015-11-22T07:25:07.0000000+00:00</time></trkpt><trkpt lat="31.0704202" lon="35.6948802"><ele>1213.0</ele><time>2015-11-22T07:25:08.0000000+00:00</time></trkpt><trkpt lat="31.0703681" lon="35.6948954"><ele>1213.7</ele><time>2015-11-22T07:25:09.0000000+00:00</time></trkpt><trkpt lat="31.07032" lon="35.694908"><ele>1213.6</ele><time>2015-11-22T07:25:10.0000000+00:00</time></trkpt><trkpt lat="31.0702738" lon="35.694917"><ele>1212.0</ele><time>2015-11-22T07:25:11.0000000+00:00</time></trkpt><trkpt lat="31.0702143" lon="35.6949284"><ele>1211.7</ele><time>2015-11-22T07:25:12.0000000+00:00</time></trkpt><trkpt lat="31.0701596" lon="35.6949397"><ele>1210.0</ele><time>2015-11-22T07:25:13.0000000+00:00</time></trkpt><trkpt lat="31.0701033" lon="35.69495"><ele>1207.7</ele><time>2015-11-22T07:25:14.0000000+00:00</time></trkpt><trkpt lat="31.0700421" lon="35.6949618"><ele>1204.1</ele><time>2015-11-22T07:25:15.0000000+00:00</time></trkpt><trkpt lat="31.069982" lon="35.6949612"><ele>1202.2</ele><time>2015-11-22T07:25:16.0000000+00:00</time></trkpt><trkpt lat="31.0699265" lon="35.6949599"><ele>1202.8</ele><time>2015-11-22T07:25:17.0000000+00:00</time></trkpt><trkpt lat="31.0698711" lon="35.694963"><ele>1204.1</ele><time>2015-11-22T07:25:18.0000000+00:00</time></trkpt><trkpt lat="31.0698153" lon="35.6949562"><ele>1205.3</ele><time>2015-11-22T07:25:19.0000000+00:00</time></trkpt><trkpt lat="31.0697623" lon="35.6949626"><ele>1206.8</ele><time>2015-11-22T07:25:20.0000000+00:00</time></trkpt><trkpt lat="31.0697055" lon="35.6949725"><ele>1211.6</ele><time>2015-11-22T07:25:21.0000000+00:00</time></trkpt><trkpt lat="31.0696569" lon="35.6949918"><ele>1218.5</ele><time>2015-11-22T07:25:22.0000000+00:00</time></trkpt><trkpt lat="31.0696044" lon="35.6950035"><ele>1225.0</ele><time>2015-11-22T07:25:23.0000000+00:00</time></trkpt><trkpt lat="31.0695529" lon="35.6950199"><ele>1229.7</ele><time>2015-11-22T07:25:24.0000000+00:00</time></trkpt><trkpt lat="31.0695057" lon="35.6950434"><ele>1233.5</ele><time>2015-11-22T07:25:25.0000000+00:00</time></trkpt><trkpt lat="31.0694506" lon="35.6950452"><ele>1236.5</ele><time>2015-11-22T07:25:26.0000000+00:00</time></trkpt><trkpt lat="31.0694053" lon="35.6950474"><ele>1237.9</ele><time>2015-11-22T07:25:27.0000000+00:00</time></trkpt><trkpt lat="31.06935" lon="35.6950544"><ele>1239.2</ele><time>2015-11-22T07:25:28.0000000+00:00</time></trkpt><trkpt lat="31.0692982" lon="35.6950596"><ele>1240.3</ele><time>2015-11-22T07:25:29.0000000+00:00</time></trkpt><trkpt lat="31.0692455" lon="35.6950664"><ele>1241.3</ele><time>2015-11-22T07:25:30.0000000+00:00</time></trkpt><trkpt lat="31.0691817" lon="35.6950824"><ele>1241.4</ele><time>2015-11-22T07:25:31.0000000+00:00</time></trkpt><trkpt lat="31.0691266" lon="35.6950964"><ele>1241.9</ele><time>2015-11-22T07:25:32.0000000+00:00</time></trkpt><trkpt lat="31.0690753" lon="35.6951128"><ele>1242.1</ele><time>2015-11-22T07:25:33.0000000+00:00</time></trkpt><trkpt lat="31.06901" lon="35.6951318"><ele>1242.3</ele><time>2015-11-22T07:25:34.0000000+00:00</time></trkpt><trkpt lat="31.0689558" lon="35.6951466"><ele>1242.3</ele><time>2015-11-22T07:25:35.0000000+00:00</time></trkpt><trkpt lat="31.0689014" lon="35.6951663"><ele>1241.9</ele><time>2015-11-22T07:25:36.0000000+00:00</time></trkpt><trkpt lat="31.0688418" lon="35.6951767"><ele>1242.1</ele><time>2015-11-22T07:25:37.0000000+00:00</time></trkpt><trkpt lat="31.0687783" lon="35.6951924"><ele>1242.3</ele><time>2015-11-22T07:25:38.0000000+00:00</time></trkpt><trkpt lat="31.068711" lon="35.6952028"><ele>1241.8</ele><time>2015-11-22T07:25:39.0000000+00:00</time></trkpt><trkpt lat="31.068646" lon="35.6952214"><ele>1241.6</ele><time>2015-11-22T07:25:40.0000000+00:00</time></trkpt><trkpt lat="31.0685775" lon="35.6952246"><ele>1241.5</ele><time>2015-11-22T07:25:41.0000000+00:00</time></trkpt><trkpt lat="31.0685189" lon="35.6952326"><ele>1241.5</ele><time>2015-11-22T07:25:42.0000000+00:00</time></trkpt><trkpt lat="31.068463" lon="35.6952397"><ele>1241.4</ele><time>2015-11-22T07:25:43.0000000+00:00</time></trkpt><trkpt lat="31.0684062" lon="35.6952512"><ele>1241.4</ele><time>2015-11-22T07:25:44.0000000+00:00</time></trkpt><trkpt lat="31.0683516" lon="35.6952592"><ele>1241.4</ele><time>2015-11-22T07:25:45.0000000+00:00</time></trkpt><trkpt lat="31.0682938" lon="35.6952676"><ele>1241.4</ele><time>2015-11-22T07:25:46.0000000+00:00</time></trkpt><trkpt lat="31.0682485" lon="35.6952667"><ele>1240.4</ele><time>2015-11-22T07:25:47.0000000+00:00</time></trkpt><trkpt lat="31.0681825" lon="35.6952738"><ele>1239.9</ele><time>2015-11-22T07:25:48.0000000+00:00</time></trkpt><trkpt lat="31.0681212" lon="35.6952841"><ele>1239.7</ele><time>2015-11-22T07:25:49.0000000+00:00</time></trkpt><trkpt lat="31.0680646" lon="35.6952811"><ele>1239.0</ele><time>2015-11-22T07:25:50.0000000+00:00</time></trkpt><trkpt lat="31.0680097" lon="35.6952866"><ele>1238.7</ele><time>2015-11-22T07:25:51.0000000+00:00</time></trkpt><trkpt lat="31.0679508" lon="35.6952945"><ele>1238.6</ele><time>2015-11-22T07:25:52.0000000+00:00</time></trkpt><trkpt lat="31.0678998" lon="35.6952914"><ele>1238.0</ele><time>2015-11-22T07:25:53.0000000+00:00</time></trkpt><trkpt lat="31.067851" lon="35.6952889"><ele>1238.2</ele><time>2015-11-22T07:25:54.0000000+00:00</time></trkpt><trkpt lat="31.0678038" lon="35.6952845"><ele>1237.8</ele><time>2015-11-22T07:25:55.0000000+00:00</time></trkpt><trkpt lat="31.0677395" lon="35.6952769"><ele>1237.5</ele><time>2015-11-22T07:25:57.0000000+00:00</time></trkpt><trkpt lat="31.0676809" lon="35.6952587"><ele>1238.3</ele><time>2015-11-22T07:26:00.0000000+00:00</time></trkpt><trkpt lat="31.067624" lon="35.6952603"><ele>1237.9</ele><time>2015-11-22T07:26:03.0000000+00:00</time></trkpt><trkpt lat="31.0676397" lon="35.6952057"><ele>1237.7</ele><time>2015-11-22T07:26:07.0000000+00:00</time></trkpt><trkpt lat="31.06768" lon="35.6952404"><ele>1236.7</ele><time>2015-11-22T07:26:09.0000000+00:00</time></trkpt><trkpt lat="31.0676993" lon="35.6952964"><ele>1236.5</ele><time>2015-11-22T07:26:11.0000000+00:00</time></trkpt><trkpt lat="31.0677256" lon="35.6953584"><ele>1237.3</ele><time>2015-11-22T07:26:14.0000000+00:00</time></trkpt><trkpt lat="31.0677048" lon="35.6954087"><ele>1237.4</ele><time>2015-11-22T07:26:17.0000000+00:00</time></trkpt><trkpt lat="31.0676709" lon="35.6954606"><ele>1236.5</ele><time>2015-11-22T07:26:20.0000000+00:00</time></trkpt><trkpt lat="31.0676451" lon="35.6955231"><ele>1236.2</ele><time>2015-11-22T07:26:23.0000000+00:00</time></trkpt><trkpt lat="31.0676334" lon="35.6955997"><ele>1236.2</ele><time>2015-11-22T07:26:26.0000000+00:00</time></trkpt><trkpt lat="31.0676299" lon="35.6956558"><ele>1236.9</ele><time>2015-11-22T07:26:28.0000000+00:00</time></trkpt><trkpt lat="31.0676331" lon="35.6957112"><ele>1237.3</ele><time>2015-11-22T07:26:30.0000000+00:00</time></trkpt><trkpt lat="31.0676479" lon="35.6957819"><ele>1237.9</ele><time>2015-11-22T07:26:33.0000000+00:00</time></trkpt><trkpt lat="31.0676658" lon="35.6957305"><ele>1242.8</ele><time>2015-11-22T07:27:13.0000000+00:00</time></trkpt><trkpt lat="31.0676391" lon="35.695681"><ele>1243.8</ele><time>2015-11-22T07:27:16.0000000+00:00</time></trkpt><trkpt lat="31.0675986" lon="35.6956342"><ele>1243.0</ele><time>2015-11-22T07:27:19.0000000+00:00</time></trkpt><trkpt lat="31.0676032" lon="35.6955755"><ele>1239.5</ele><time>2015-11-22T07:27:29.0000000+00:00</time></trkpt><trkpt lat="31.0676446" lon="35.6955297"><ele>1241.2</ele><time>2015-11-22T07:27:31.0000000+00:00</time></trkpt><trkpt lat="31.0676777" lon="35.6954762"><ele>1242.1</ele><time>2015-11-22T07:27:33.0000000+00:00</time></trkpt><trkpt lat="31.0677067" lon="35.6954158"><ele>1241.1</ele><time>2015-11-22T07:27:35.0000000+00:00</time></trkpt><trkpt lat="31.0677313" lon="35.6953521"><ele>1240.6</ele><time>2015-11-22T07:27:37.0000000+00:00</time></trkpt><trkpt lat="31.0677201" lon="35.6952799"><ele>1241.2</ele><time>2015-11-22T07:27:39.0000000+00:00</time></trkpt><trkpt lat="31.0676587" lon="35.6952315"><ele>1241.3</ele><time>2015-11-22T07:27:41.0000000+00:00</time></trkpt><trkpt lat="31.0675796" lon="35.6952095"><ele>1241.9</ele><time>2015-11-22T07:27:43.0000000+00:00</time></trkpt><trkpt lat="31.0675046" lon="35.695181"><ele>1241.5</ele><time>2015-11-22T07:27:45.0000000+00:00</time></trkpt><trkpt lat="31.0674348" lon="35.6951469"><ele>1241.2</ele><time>2015-11-22T07:27:47.0000000+00:00</time></trkpt><trkpt lat="31.0673668" lon="35.6951114"><ele>1241.3</ele><time>2015-11-22T07:27:49.0000000+00:00</time></trkpt><trkpt lat="31.0672928" lon="35.69509"><ele>1241.9</ele><time>2015-11-22T07:27:51.0000000+00:00</time></trkpt><trkpt lat="31.0672189" lon="35.6950676"><ele>1241.5</ele><time>2015-11-22T07:27:53.0000000+00:00</time></trkpt><trkpt lat="31.0671485" lon="35.69504"><ele>1241.4</ele><time>2015-11-22T07:27:55.0000000+00:00</time></trkpt><trkpt lat="31.0670811" lon="35.6950116"><ele>1241.2</ele><time>2015-11-22T07:27:57.0000000+00:00</time></trkpt><trkpt lat="31.0670161" lon="35.6949837"><ele>1241.3</ele><time>2015-11-22T07:27:59.0000000+00:00</time></trkpt><trkpt lat="31.0669548" lon="35.6949578"><ele>1241.4</ele><time>2015-11-22T07:28:01.0000000+00:00</time></trkpt><trkpt lat="31.0669055" lon="35.6949294"><ele>1241.4</ele><time>2015-11-22T07:28:03.0000000+00:00</time></trkpt><trkpt lat="31.0668884" lon="35.6948725"><ele>1240.7</ele><time>2015-11-22T07:28:06.0000000+00:00</time></trkpt><trkpt lat="31.066833" lon="35.6948926"><ele>1241.4</ele><time>2015-11-22T07:29:37.0000000+00:00</time></trkpt><trkpt lat="31.0667712" lon="35.6949064"><ele>1241.4</ele><time>2015-11-22T07:29:39.0000000+00:00</time></trkpt><trkpt lat="31.0667062" lon="35.6949144"><ele>1241.9</ele><time>2015-11-22T07:29:41.0000000+00:00</time></trkpt><trkpt lat="31.0666359" lon="35.6949217"><ele>1241.8</ele><time>2015-11-22T07:29:43.0000000+00:00</time></trkpt><trkpt lat="31.0665531" lon="35.694923"><ele>1240.7</ele><time>2015-11-22T07:29:45.0000000+00:00</time></trkpt><trkpt lat="31.0664248" lon="35.6949075"><ele>1240.0</ele><time>2015-11-22T07:29:48.0000000+00:00</time></trkpt><trkpt lat="31.0663458" lon="35.6949045"><ele>1240.3</ele><time>2015-11-22T07:29:50.0000000+00:00</time></trkpt><trkpt lat="31.0662694" lon="35.6949"><ele>1240.4</ele><time>2015-11-22T07:29:52.0000000+00:00</time></trkpt><trkpt lat="31.0661908" lon="35.6948959"><ele>1239.9</ele><time>2015-11-22T07:29:54.0000000+00:00</time></trkpt><trkpt lat="31.0661102" lon="35.6948928"><ele>1239.5</ele><time>2015-11-22T07:29:56.0000000+00:00</time></trkpt><trkpt lat="31.0660336" lon="35.694893"><ele>1239.4</ele><time>2015-11-22T07:29:58.0000000+00:00</time></trkpt><trkpt lat="31.0659563" lon="35.6948876"><ele>1238.7</ele><time>2015-11-22T07:30:00.0000000+00:00</time></trkpt><trkpt lat="31.0658823" lon="35.694886"><ele>1239.2</ele><time>2015-11-22T07:30:02.0000000+00:00</time></trkpt><trkpt lat="31.0658125" lon="35.6948863"><ele>1239.4</ele><time>2015-11-22T07:30:04.0000000+00:00</time></trkpt><trkpt lat="31.0657448" lon="35.6948862"><ele>1238.6</ele><time>2015-11-22T07:30:06.0000000+00:00</time></trkpt><trkpt lat="31.0656826" lon="35.6948841"><ele>1237.7</ele><time>2015-11-22T07:30:08.0000000+00:00</time></trkpt><trkpt lat="31.065632" lon="35.6948801"><ele>1237.2</ele><time>2015-11-22T07:30:10.0000000+00:00</time></trkpt><trkpt lat="31.065582" lon="35.6948746"><ele>1237.9</ele><time>2015-11-22T07:30:12.0000000+00:00</time></trkpt><trkpt lat="31.0655281" lon="35.6948698"><ele>1238.3</ele><time>2015-11-22T07:30:14.0000000+00:00</time></trkpt><trkpt lat="31.0654656" lon="35.6948678"><ele>1238.4</ele><time>2015-11-22T07:30:16.0000000+00:00</time></trkpt><trkpt lat="31.0653972" lon="35.6948667"><ele>1239.1</ele><time>2015-11-22T07:30:18.0000000+00:00</time></trkpt><trkpt lat="31.065328" lon="35.694863"><ele>1239.3</ele><time>2015-11-22T07:30:20.0000000+00:00</time></trkpt><trkpt lat="31.0652597" lon="35.6948579"><ele>1240.6</ele><time>2015-11-22T07:30:22.0000000+00:00</time></trkpt><trkpt lat="31.0651868" lon="35.6948565"><ele>1241.2</ele><time>2015-11-22T07:30:24.0000000+00:00</time></trkpt><trkpt lat="31.0651132" lon="35.6948547"><ele>1241.4</ele><time>2015-11-22T07:30:26.0000000+00:00</time></trkpt><trkpt lat="31.0650371" lon="35.6948521"><ele>1241.1</ele><time>2015-11-22T07:30:28.0000000+00:00</time></trkpt><trkpt lat="31.0649637" lon="35.6948476"><ele>1241.3</ele><time>2015-11-22T07:30:30.0000000+00:00</time></trkpt><trkpt lat="31.0648924" lon="35.6948429"><ele>1241.4</ele><time>2015-11-22T07:30:32.0000000+00:00</time></trkpt><trkpt lat="31.0648242" lon="35.6948451"><ele>1241.4</ele><time>2015-11-22T07:30:34.0000000+00:00</time></trkpt><trkpt lat="31.0647554" lon="35.6948488"><ele>1240.9</ele><time>2015-11-22T07:30:36.0000000+00:00</time></trkpt><trkpt lat="31.0646845" lon="35.6948512"><ele>1239.8</ele><time>2015-11-22T07:30:38.0000000+00:00</time></trkpt><trkpt lat="31.0646121" lon="35.694852"><ele>1240.0</ele><time>2015-11-22T07:30:40.0000000+00:00</time></trkpt><trkpt lat="31.064544" lon="35.694845"><ele>1240.3</ele><time>2015-11-22T07:30:42.0000000+00:00</time></trkpt><trkpt lat="31.0644834" lon="35.6948237"><ele>1240.4</ele><time>2015-11-22T07:30:44.0000000+00:00</time></trkpt><trkpt lat="31.0644209" lon="35.6948195"><ele>1240.9</ele><time>2015-11-22T07:30:46.0000000+00:00</time></trkpt><trkpt lat="31.0643552" lon="35.6948226"><ele>1241.3</ele><time>2015-11-22T07:30:48.0000000+00:00</time></trkpt><trkpt lat="31.0642862" lon="35.6948188"><ele>1240.9</ele><time>2015-11-22T07:30:50.0000000+00:00</time></trkpt><trkpt lat="31.0642208" lon="35.6948126"><ele>1240.5</ele><time>2015-11-22T07:30:52.0000000+00:00</time></trkpt><trkpt lat="31.0641561" lon="35.6948095"><ele>1240.2</ele><time>2015-11-22T07:30:54.0000000+00:00</time></trkpt><trkpt lat="31.0640912" lon="35.6948085"><ele>1240.3</ele><time>2015-11-22T07:30:56.0000000+00:00</time></trkpt><trkpt lat="31.0640281" lon="35.6948011"><ele>1239.6</ele><time>2015-11-22T07:30:58.0000000+00:00</time></trkpt><trkpt lat="31.0639654" lon="35.6947964"><ele>1239.5</ele><time>2015-11-22T07:31:00.0000000+00:00</time></trkpt><trkpt lat="31.063899" lon="35.694793"><ele>1239.4</ele><time>2015-11-22T07:31:02.0000000+00:00</time></trkpt><trkpt lat="31.0638337" lon="35.6947879"><ele>1238.9</ele><time>2015-11-22T07:31:04.0000000+00:00</time></trkpt><trkpt lat="31.0637641" lon="35.6947888"><ele>1239.3</ele><time>2015-11-22T07:31:06.0000000+00:00</time></trkpt><trkpt lat="31.0636969" lon="35.6947893"><ele>1239.9</ele><time>2015-11-22T07:31:08.0000000+00:00</time></trkpt><trkpt lat="31.0636282" lon="35.6947898"><ele>1240.3</ele><time>2015-11-22T07:31:10.0000000+00:00</time></trkpt><trkpt lat="31.063554" lon="35.6947956"><ele>1240.9</ele><time>2015-11-22T07:31:12.0000000+00:00</time></trkpt><trkpt lat="31.0634754" lon="35.6948038"><ele>1241.3</ele><time>2015-11-22T07:31:14.0000000+00:00</time></trkpt><trkpt lat="31.0633979" lon="35.694807"><ele>1241.4</ele><time>2015-11-22T07:31:16.0000000+00:00</time></trkpt><trkpt lat="31.0633291" lon="35.6947942"><ele>1240.9</ele><time>2015-11-22T07:31:18.0000000+00:00</time></trkpt><trkpt lat="31.0632637" lon="35.6947704"><ele>1240.5</ele><time>2015-11-22T07:31:20.0000000+00:00</time></trkpt><trkpt lat="31.0631994" lon="35.6947449"><ele>1240.5</ele><time>2015-11-22T07:31:22.0000000+00:00</time></trkpt><trkpt lat="31.063134" lon="35.694741"><ele>1241.2</ele><time>2015-11-22T07:31:24.0000000+00:00</time></trkpt><trkpt lat="31.0630735" lon="35.6947663"><ele>1241.3</ele><time>2015-11-22T07:31:26.0000000+00:00</time></trkpt><trkpt lat="31.0630138" lon="35.6948141"><ele>1241.4</ele><time>2015-11-22T07:31:28.0000000+00:00</time></trkpt><trkpt lat="31.0629536" lon="35.694861"><ele>1242.1</ele><time>2015-11-22T07:31:30.0000000+00:00</time></trkpt><trkpt lat="31.0628977" lon="35.6949052"><ele>1242.8</ele><time>2015-11-22T07:31:32.0000000+00:00</time></trkpt><trkpt lat="31.062851" lon="35.6949398"><ele>1244.0</ele><time>2015-11-22T07:31:34.0000000+00:00</time></trkpt><trkpt lat="31.0627954" lon="35.6949647"><ele>1244.4</ele><time>2015-11-22T07:31:37.0000000+00:00</time></trkpt><trkpt lat="31.0627488" lon="35.6949724"><ele>1244.4</ele><time>2015-11-22T07:31:39.0000000+00:00</time></trkpt><trkpt lat="31.0626961" lon="35.6949773"><ele>1244.4</ele><time>2015-11-22T07:31:41.0000000+00:00</time></trkpt><trkpt lat="31.0626422" lon="35.6949874"><ele>1243.9</ele><time>2015-11-22T07:31:43.0000000+00:00</time></trkpt><trkpt lat="31.0625904" lon="35.6949971"><ele>1244.8</ele><time>2015-11-22T07:31:45.0000000+00:00</time></trkpt><trkpt lat="31.0625357" lon="35.6950035"><ele>1245.5</ele><time>2015-11-22T07:31:47.0000000+00:00</time></trkpt><trkpt lat="31.062479" lon="35.695009"><ele>1246.7</ele><time>2015-11-22T07:31:49.0000000+00:00</time></trkpt><trkpt lat="31.0624234" lon="35.6950092"><ele>1247.7</ele><time>2015-11-22T07:31:51.0000000+00:00</time></trkpt><trkpt lat="31.0623717" lon="35.6950036"><ele>1247.5</ele><time>2015-11-22T07:31:53.0000000+00:00</time></trkpt><trkpt lat="31.0623216" lon="35.6949989"><ele>1246.9</ele><time>2015-11-22T07:31:55.0000000+00:00</time></trkpt><trkpt lat="31.062273" lon="35.6949949"><ele>1247.3</ele><time>2015-11-22T07:31:57.0000000+00:00</time></trkpt><trkpt lat="31.0622258" lon="35.6949933"><ele>1247.4</ele><time>2015-11-22T07:31:59.0000000+00:00</time></trkpt><trkpt lat="31.0621781" lon="35.694991"><ele>1247.4</ele><time>2015-11-22T07:32:01.0000000+00:00</time></trkpt><trkpt lat="31.0621297" lon="35.6949905"><ele>1247.4</ele><time>2015-11-22T07:32:03.0000000+00:00</time></trkpt><trkpt lat="31.0620809" lon="35.6949936"><ele>1247.9</ele><time>2015-11-22T07:32:05.0000000+00:00</time></trkpt><trkpt lat="31.0620314" lon="35.694997"><ele>1248.3</ele><time>2015-11-22T07:32:07.0000000+00:00</time></trkpt><trkpt lat="31.0619801" lon="35.6949983"><ele>1248.4</ele><time>2015-11-22T07:32:09.0000000+00:00</time></trkpt><trkpt lat="31.0619273" lon="35.6950041"><ele>1248.4</ele><time>2015-11-22T07:32:11.0000000+00:00</time></trkpt><trkpt lat="31.0618717" lon="35.69501"><ele>1247.9</ele><time>2015-11-22T07:32:13.0000000+00:00</time></trkpt><trkpt lat="31.0618184" lon="35.6950168"><ele>1248.0</ele><time>2015-11-22T07:32:15.0000000+00:00</time></trkpt><trkpt lat="31.0617643" lon="35.6950168"><ele>1247.1</ele><time>2015-11-22T07:32:17.0000000+00:00</time></trkpt><trkpt lat="31.0617097" lon="35.6950178"><ele>1247.3</ele><time>2015-11-22T07:32:19.0000000+00:00</time></trkpt><trkpt lat="31.0616549" lon="35.6950257"><ele>1248.1</ele><time>2015-11-22T07:32:21.0000000+00:00</time></trkpt><trkpt lat="31.0616012" lon="35.6950314"><ele>1247.8</ele><time>2015-11-22T07:32:23.0000000+00:00</time></trkpt><trkpt lat="31.061546" lon="35.6950285"><ele>1247.5</ele><time>2015-11-22T07:32:25.0000000+00:00</time></trkpt><trkpt lat="31.0614913" lon="35.6950272"><ele>1247.4</ele><time>2015-11-22T07:32:27.0000000+00:00</time></trkpt><trkpt lat="31.0614361" lon="35.6950254"><ele>1247.4</ele><time>2015-11-22T07:32:29.0000000+00:00</time></trkpt><trkpt lat="31.06138" lon="35.6950229"><ele>1247.4</ele><time>2015-11-22T07:32:31.0000000+00:00</time></trkpt><trkpt lat="31.0613271" lon="35.6950205"><ele>1247.4</ele><time>2015-11-22T07:32:33.0000000+00:00</time></trkpt><trkpt lat="31.0612656" lon="35.6950247"><ele>1247.9</ele><time>2015-11-22T07:32:36.0000000+00:00</time></trkpt><trkpt lat="31.0612325" lon="35.6950796"><ele>1247.5</ele><time>2015-11-22T07:32:39.0000000+00:00</time></trkpt><trkpt lat="31.0612187" lon="35.6951328"><ele>1247.4</ele><time>2015-11-22T07:32:41.0000000+00:00</time></trkpt><trkpt lat="31.0612021" lon="35.695191"><ele>1247.4</ele><time>2015-11-22T07:32:43.0000000+00:00</time></trkpt><trkpt lat="31.0611842" lon="35.69525"><ele>1246.2</ele><time>2015-11-22T07:32:45.0000000+00:00</time></trkpt><trkpt lat="31.0611756" lon="35.6953086"><ele>1246.3</ele><time>2015-11-22T07:32:47.0000000+00:00</time></trkpt><trkpt lat="31.0611686" lon="35.6953627"><ele>1246.4</ele><time>2015-11-22T07:32:49.0000000+00:00</time></trkpt><trkpt lat="31.061153" lon="35.6954356"><ele>1246.8</ele><time>2015-11-22T07:32:52.0000000+00:00</time></trkpt><trkpt lat="31.0611259" lon="35.6955056"><ele>1247.2</ele><time>2015-11-22T07:32:55.0000000+00:00</time></trkpt><trkpt lat="31.0611007" lon="35.6955537"><ele>1247.4</ele><time>2015-11-22T07:32:57.0000000+00:00</time></trkpt><trkpt lat="31.0610748" lon="35.6956097"><ele>1247.4</ele><time>2015-11-22T07:32:59.0000000+00:00</time></trkpt><trkpt lat="31.0610493" lon="35.6956747"><ele>1247.4</ele><time>2015-11-22T07:33:01.0000000+00:00</time></trkpt><trkpt lat="31.0610206" lon="35.6957418"><ele>1247.4</ele><time>2015-11-22T07:33:03.0000000+00:00</time></trkpt><trkpt lat="31.0609897" lon="35.6958129"><ele>1247.4</ele><time>2015-11-22T07:33:05.0000000+00:00</time></trkpt><trkpt lat="31.060959" lon="35.6958912"><ele>1247.9</ele><time>2015-11-22T07:33:07.0000000+00:00</time></trkpt><trkpt lat="31.0609274" lon="35.6959677"><ele>1248.3</ele><time>2015-11-22T07:33:09.0000000+00:00</time></trkpt><trkpt lat="31.0608967" lon="35.6960348"><ele>1248.9</ele><time>2015-11-22T07:33:11.0000000+00:00</time></trkpt><trkpt lat="31.0608678" lon="35.6960968"><ele>1249.3</ele><time>2015-11-22T07:33:13.0000000+00:00</time></trkpt><trkpt lat="31.0608425" lon="35.6961547"><ele>1249.4</ele><time>2015-11-22T07:33:15.0000000+00:00</time></trkpt><trkpt lat="31.0608053" lon="35.6962405"><ele>1249.9</ele><time>2015-11-22T07:33:18.0000000+00:00</time></trkpt><trkpt lat="31.0607781" lon="35.6962952"><ele>1251.0</ele><time>2015-11-22T07:33:20.0000000+00:00</time></trkpt><trkpt lat="31.06075" lon="35.696351"><ele>1251.2</ele><time>2015-11-22T07:33:22.0000000+00:00</time></trkpt><trkpt lat="31.060717" lon="35.6964013"><ele>1252.6</ele><time>2015-11-22T07:33:24.0000000+00:00</time></trkpt><trkpt lat="31.0606796" lon="35.6964456"><ele>1253.2</ele><time>2015-11-22T07:33:26.0000000+00:00</time></trkpt><trkpt lat="31.0606405" lon="35.6964862"><ele>1253.4</ele><time>2015-11-22T07:33:28.0000000+00:00</time></trkpt><trkpt lat="31.0606044" lon="35.6965299"><ele>1254.1</ele><time>2015-11-22T07:33:30.0000000+00:00</time></trkpt><trkpt lat="31.0605708" lon="35.6965749"><ele>1254.3</ele><time>2015-11-22T07:33:32.0000000+00:00</time></trkpt><trkpt lat="31.0605384" lon="35.6966201"><ele>1253.6</ele><time>2015-11-22T07:33:34.0000000+00:00</time></trkpt><trkpt lat="31.0605079" lon="35.6966699"><ele>1254.0</ele><time>2015-11-22T07:33:36.0000000+00:00</time></trkpt><trkpt lat="31.060477" lon="35.6967196"><ele>1254.3</ele><time>2015-11-22T07:33:38.0000000+00:00</time></trkpt><trkpt lat="31.0604471" lon="35.6967699"><ele>1254.4</ele><time>2015-11-22T07:33:40.0000000+00:00</time></trkpt><trkpt lat="31.0604214" lon="35.6968245"><ele>1254.4</ele><time>2015-11-22T07:33:42.0000000+00:00</time></trkpt><trkpt lat="31.0603998" lon="35.696879"><ele>1254.7</ele><time>2015-11-22T07:33:44.0000000+00:00</time></trkpt><trkpt lat="31.0603731" lon="35.6969298"><ele>1255.5</ele><time>2015-11-22T07:33:46.0000000+00:00</time></trkpt><trkpt lat="31.0603455" lon="35.6969815"><ele>1256.2</ele><time>2015-11-22T07:33:48.0000000+00:00</time></trkpt><trkpt lat="31.0603219" lon="35.6970383"><ele>1256.3</ele><time>2015-11-22T07:33:50.0000000+00:00</time></trkpt><trkpt lat="31.0602942" lon="35.6970953"><ele>1255.1</ele><time>2015-11-22T07:33:52.0000000+00:00</time></trkpt><trkpt lat="31.0602616" lon="35.6971521"><ele>1254.6</ele><time>2015-11-22T07:33:54.0000000+00:00</time></trkpt><trkpt lat="31.0602271" lon="35.6972019"><ele>1254.4</ele><time>2015-11-22T07:33:56.0000000+00:00</time></trkpt><trkpt lat="31.0601999" lon="35.6972557"><ele>1253.4</ele><time>2015-11-22T07:33:58.0000000+00:00</time></trkpt><trkpt lat="31.0601751" lon="35.6973115"><ele>1253.4</ele><time>2015-11-22T07:34:00.0000000+00:00</time></trkpt><trkpt lat="31.060154" lon="35.697368"><ele>1252.7</ele><time>2015-11-22T07:34:02.0000000+00:00</time></trkpt><trkpt lat="31.060132" lon="35.6974254"><ele>1253.0</ele><time>2015-11-22T07:34:04.0000000+00:00</time></trkpt><trkpt lat="31.0601055" lon="35.6974835"><ele>1253.3</ele><time>2015-11-22T07:34:06.0000000+00:00</time></trkpt><trkpt lat="31.0600757" lon="35.6975393"><ele>1253.1</ele><time>2015-11-22T07:34:08.0000000+00:00</time></trkpt><trkpt lat="31.0600456" lon="35.6975949"><ele>1254.1</ele><time>2015-11-22T07:34:10.0000000+00:00</time></trkpt><trkpt lat="31.0600132" lon="35.6976494"><ele>1255.1</ele><time>2015-11-22T07:34:12.0000000+00:00</time></trkpt><trkpt lat="31.0599829" lon="35.6977002"><ele>1254.6</ele><time>2015-11-22T07:34:14.0000000+00:00</time></trkpt><trkpt lat="31.0599527" lon="35.6977472"><ele>1255.7</ele><time>2015-11-22T07:34:16.0000000+00:00</time></trkpt><trkpt lat="31.0599294" lon="35.6977969"><ele>1256.2</ele><time>2015-11-22T07:34:18.0000000+00:00</time></trkpt><trkpt lat="31.0599074" lon="35.6978506"><ele>1255.9</ele><time>2015-11-22T07:34:20.0000000+00:00</time></trkpt><trkpt lat="31.0598748" lon="35.6979012"><ele>1255.5</ele><time>2015-11-22T07:34:22.0000000+00:00</time></trkpt><trkpt lat="31.0598335" lon="35.6979539"><ele>1254.7</ele><time>2015-11-22T07:34:24.0000000+00:00</time></trkpt><trkpt lat="31.0597872" lon="35.6980183"><ele>1253.7</ele><time>2015-11-22T07:34:26.0000000+00:00</time></trkpt><trkpt lat="31.059751" lon="35.6980798"><ele>1252.7</ele><time>2015-11-22T07:34:28.0000000+00:00</time></trkpt><trkpt lat="31.0597234" lon="35.6981272"><ele>1255.6</ele><time>2015-11-22T07:46:56.0000000+00:00</time></trkpt><trkpt lat="31.0597006" lon="35.698189"><ele>1255.9</ele><time>2015-11-22T07:47:00.0000000+00:00</time></trkpt><trkpt lat="31.0596749" lon="35.6982562"><ele>1255.8</ele><time>2015-11-22T07:47:02.0000000+00:00</time></trkpt><trkpt lat="31.0596328" lon="35.698349"><ele>1255.2</ele><time>2015-11-22T07:47:04.0000000+00:00</time></trkpt><trkpt lat="31.0596045" lon="35.6984264"><ele>1254.3</ele><time>2015-11-22T07:47:05.0000000+00:00</time></trkpt><trkpt lat="31.0595758" lon="35.6984959"><ele>1253.9</ele><time>2015-11-22T07:47:06.0000000+00:00</time></trkpt><trkpt lat="31.0595465" lon="35.6985565"><ele>1253.6</ele><time>2015-11-22T07:47:07.0000000+00:00</time></trkpt><trkpt lat="31.0595187" lon="35.6986239"><ele>1253.0</ele><time>2015-11-22T07:47:08.0000000+00:00</time></trkpt><trkpt lat="31.0594836" lon="35.6986998"><ele>1252.7</ele><time>2015-11-22T07:47:09.0000000+00:00</time></trkpt><trkpt lat="31.0594392" lon="35.698754"><ele>1252.1</ele><time>2015-11-22T07:47:10.0000000+00:00</time></trkpt><trkpt lat="31.0593974" lon="35.6988401"><ele>1251.2</ele><time>2015-11-22T07:47:11.0000000+00:00</time></trkpt><trkpt lat="31.0593557" lon="35.6989224"><ele>1250.8</ele><time>2015-11-22T07:47:12.0000000+00:00</time></trkpt><trkpt lat="31.0593205" lon="35.6990166"><ele>1250.1</ele><time>2015-11-22T07:47:13.0000000+00:00</time></trkpt><trkpt lat="31.0592861" lon="35.6991174"><ele>1249.8</ele><time>2015-11-22T07:47:14.0000000+00:00</time></trkpt><trkpt lat="31.0592408" lon="35.6992127"><ele>1249.6</ele><time>2015-11-22T07:47:15.0000000+00:00</time></trkpt><trkpt lat="31.0592035" lon="35.6993094"><ele>1249.0</ele><time>2015-11-22T07:47:16.0000000+00:00</time></trkpt><trkpt lat="31.0591612" lon="35.6994133"><ele>1248.2</ele><time>2015-11-22T07:47:17.0000000+00:00</time></trkpt><trkpt lat="31.0591151" lon="35.6995224"><ele>1247.8</ele><time>2015-11-22T07:47:18.0000000+00:00</time></trkpt><trkpt lat="31.0590673" lon="35.6996285"><ele>1247.6</ele><time>2015-11-22T07:47:19.0000000+00:00</time></trkpt><trkpt lat="31.0590263" lon="35.6997238"><ele>1247.5</ele><time>2015-11-22T07:47:20.0000000+00:00</time></trkpt><trkpt lat="31.0589832" lon="35.6998254"><ele>1247.0</ele><time>2015-11-22T07:47:21.0000000+00:00</time></trkpt><trkpt lat="31.0589429" lon="35.6999148"><ele>1246.2</ele><time>2015-11-22T07:47:22.0000000+00:00</time></trkpt><trkpt lat="31.0589051" lon="35.7000135"><ele>1245.8</ele><time>2015-11-22T07:47:23.0000000+00:00</time></trkpt><trkpt lat="31.0588646" lon="35.7001042"><ele>1245.1</ele><time>2015-11-22T07:47:24.0000000+00:00</time></trkpt><trkpt lat="31.0588149" lon="35.7002012"><ele>1244.7</ele><time>2015-11-22T07:47:25.0000000+00:00</time></trkpt><trkpt lat="31.058768" lon="35.7002941"><ele>1244.6</ele><time>2015-11-22T07:47:26.0000000+00:00</time></trkpt><trkpt lat="31.0587243" lon="35.7003839"><ele>1244.0</ele><time>2015-11-22T07:47:27.0000000+00:00</time></trkpt><trkpt lat="31.058678" lon="35.7004755"><ele>1243.7</ele><time>2015-11-22T07:47:28.0000000+00:00</time></trkpt><trkpt lat="31.0586316" lon="35.7005685"><ele>1243.5</ele><time>2015-11-22T07:47:29.0000000+00:00</time></trkpt><trkpt lat="31.0585892" lon="35.7006583"><ele>1243.5</ele><time>2015-11-22T07:47:30.0000000+00:00</time></trkpt><trkpt lat="31.0585387" lon="35.7007503"><ele>1243.4</ele><time>2015-11-22T07:47:31.0000000+00:00</time></trkpt><trkpt lat="31.0584998" lon="35.7008466"><ele>1242.9</ele><time>2015-11-22T07:47:32.0000000+00:00</time></trkpt><trkpt lat="31.0584506" lon="35.7009374"><ele>1242.7</ele><time>2015-11-22T07:47:33.0000000+00:00</time></trkpt><trkpt lat="31.0584043" lon="35.7010296"><ele>1242.5</ele><time>2015-11-22T07:47:34.0000000+00:00</time></trkpt><trkpt lat="31.0583594" lon="35.701129"><ele>1242.0</ele><time>2015-11-22T07:47:35.0000000+00:00</time></trkpt><trkpt lat="31.0583164" lon="35.7012267"><ele>1241.2</ele><time>2015-11-22T07:47:36.0000000+00:00</time></trkpt><trkpt lat="31.0582674" lon="35.7013304"><ele>1240.8</ele><time>2015-11-22T07:47:37.0000000+00:00</time></trkpt><trkpt lat="31.0582189" lon="35.7014233"><ele>1240.1</ele><time>2015-11-22T07:47:38.0000000+00:00</time></trkpt><trkpt lat="31.058171" lon="35.701524"><ele>1239.7</ele><time>2015-11-22T07:47:39.0000000+00:00</time></trkpt><trkpt lat="31.058123" lon="35.701614"><ele>1239.1</ele><time>2015-11-22T07:47:40.0000000+00:00</time></trkpt><trkpt lat="31.0580853" lon="35.7016828"><ele>1238.7</ele><time>2015-11-22T07:47:41.0000000+00:00</time></trkpt><trkpt lat="31.0580443" lon="35.7017479"><ele>1238.1</ele><time>2015-11-22T07:47:42.0000000+00:00</time></trkpt><trkpt lat="31.0580018" lon="35.7017985"><ele>1237.7</ele><time>2015-11-22T07:47:43.0000000+00:00</time></trkpt><trkpt lat="31.0579602" lon="35.7018503"><ele>1238.1</ele><time>2015-11-22T07:47:44.0000000+00:00</time></trkpt><trkpt lat="31.0579127" lon="35.701893"><ele>1237.7</ele><time>2015-11-22T07:47:45.0000000+00:00</time></trkpt><trkpt lat="31.0578637" lon="35.7019377"><ele>1238.1</ele><time>2015-11-22T07:47:46.0000000+00:00</time></trkpt><trkpt lat="31.0577698" lon="35.7020215"><ele>1238.2</ele><time>2015-11-22T07:47:48.0000000+00:00</time></trkpt><trkpt lat="31.0577287" lon="35.7020684"><ele>1237.8</ele><time>2015-11-22T07:47:49.0000000+00:00</time></trkpt><trkpt lat="31.0576861" lon="35.702108"><ele>1237.6</ele><time>2015-11-22T07:47:50.0000000+00:00</time></trkpt><trkpt lat="31.0576325" lon="35.702148"><ele>1237.5</ele><time>2015-11-22T07:47:51.0000000+00:00</time></trkpt><trkpt lat="31.057587" lon="35.7021909"><ele>1237.5</ele><time>2015-11-22T07:47:52.0000000+00:00</time></trkpt><trkpt lat="31.0575394" lon="35.7022306"><ele>1237.4</ele><time>2015-11-22T07:47:53.0000000+00:00</time></trkpt><trkpt lat="31.0574887" lon="35.7022695"><ele>1237.4</ele><time>2015-11-22T07:47:54.0000000+00:00</time></trkpt><trkpt lat="31.0574382" lon="35.7023135"><ele>1237.4</ele><time>2015-11-22T07:47:55.0000000+00:00</time></trkpt><trkpt lat="31.0573779" lon="35.7023512"><ele>1237.9</ele><time>2015-11-22T07:47:56.0000000+00:00</time></trkpt><trkpt lat="31.0573204" lon="35.7023878"><ele>1238.2</ele><time>2015-11-22T07:47:57.0000000+00:00</time></trkpt><trkpt lat="31.0572612" lon="35.702441"><ele>1238.3</ele><time>2015-11-22T07:47:58.0000000+00:00</time></trkpt><trkpt lat="31.057206" lon="35.702481"><ele>1238.3</ele><time>2015-11-22T07:47:59.0000000+00:00</time></trkpt><trkpt lat="31.0571464" lon="35.7025249"><ele>1238.9</ele><time>2015-11-22T07:48:00.0000000+00:00</time></trkpt><trkpt lat="31.057092" lon="35.702571"><ele>1239.1</ele><time>2015-11-22T07:48:01.0000000+00:00</time></trkpt><trkpt lat="31.057042" lon="35.7026038"><ele>1238.8</ele><time>2015-11-22T07:48:02.0000000+00:00</time></trkpt><trkpt lat="31.0569897" lon="35.7026481"><ele>1238.6</ele><time>2015-11-22T07:48:03.0000000+00:00</time></trkpt><trkpt lat="31.0569336" lon="35.7026888"><ele>1238.5</ele><time>2015-11-22T07:48:04.0000000+00:00</time></trkpt><trkpt lat="31.0568651" lon="35.7027409"><ele>1238.4</ele><time>2015-11-22T07:48:05.0000000+00:00</time></trkpt><trkpt lat="31.0568091" lon="35.7027847"><ele>1238.4</ele><time>2015-11-22T07:48:06.0000000+00:00</time></trkpt><trkpt lat="31.0567519" lon="35.7028234"><ele>1238.4</ele><time>2015-11-22T07:48:07.0000000+00:00</time></trkpt><trkpt lat="31.0566918" lon="35.702866"><ele>1238.4</ele><time>2015-11-22T07:48:08.0000000+00:00</time></trkpt><trkpt lat="31.0566378" lon="35.7029065"><ele>1238.4</ele><time>2015-11-22T07:48:09.0000000+00:00</time></trkpt><trkpt lat="31.0565781" lon="35.7029582"><ele>1238.4</ele><time>2015-11-22T07:48:10.0000000+00:00</time></trkpt><trkpt lat="31.0565058" lon="35.7030073"><ele>1237.9</ele><time>2015-11-22T07:48:11.0000000+00:00</time></trkpt><trkpt lat="31.0564383" lon="35.7030576"><ele>1237.7</ele><time>2015-11-22T07:48:12.0000000+00:00</time></trkpt><trkpt lat="31.056362" lon="35.7031048"><ele>1237.0</ele><time>2015-11-22T07:48:13.0000000+00:00</time></trkpt><trkpt lat="31.056291" lon="35.7031541"><ele>1236.2</ele><time>2015-11-22T07:48:14.0000000+00:00</time></trkpt><trkpt lat="31.0562081" lon="35.7032113"><ele>1236.3</ele><time>2015-11-22T07:48:15.0000000+00:00</time></trkpt><trkpt lat="31.0561376" lon="35.7032755"><ele>1235.9</ele><time>2015-11-22T07:48:16.0000000+00:00</time></trkpt><trkpt lat="31.0559761" lon="35.7033991"><ele>1235.1</ele><time>2015-11-22T07:48:18.0000000+00:00</time></trkpt><trkpt lat="31.0558979" lon="35.7034611"><ele>1234.8</ele><time>2015-11-22T07:48:19.0000000+00:00</time></trkpt><trkpt lat="31.0558158" lon="35.7035262"><ele>1235.1</ele><time>2015-11-22T07:48:20.0000000+00:00</time></trkpt><trkpt lat="31.055737" lon="35.7035839"><ele>1234.7</ele><time>2015-11-22T07:48:21.0000000+00:00</time></trkpt><trkpt lat="31.0556581" lon="35.7036405"><ele>1235.1</ele><time>2015-11-22T07:48:22.0000000+00:00</time></trkpt><trkpt lat="31.0555841" lon="35.7037018"><ele>1235.7</ele><time>2015-11-22T07:48:23.0000000+00:00</time></trkpt><trkpt lat="31.0554949" lon="35.7037658"><ele>1236.1</ele><time>2015-11-22T07:48:24.0000000+00:00</time></trkpt><trkpt lat="31.0554096" lon="35.7038327"><ele>1236.2</ele><time>2015-11-22T07:48:25.0000000+00:00</time></trkpt><trkpt lat="31.055315" lon="35.703901"><ele>1236.3</ele><time>2015-11-22T07:48:26.0000000+00:00</time></trkpt><trkpt lat="31.055222" lon="35.7039727"><ele>1235.9</ele><time>2015-11-22T07:48:27.0000000+00:00</time></trkpt><trkpt lat="31.0551335" lon="35.7040355"><ele>1235.6</ele><time>2015-11-22T07:48:28.0000000+00:00</time></trkpt><trkpt lat="31.0550606" lon="35.7040888"><ele>1235.0</ele><time>2015-11-22T07:48:29.0000000+00:00</time></trkpt><trkpt lat="31.0549614" lon="35.7041529"><ele>1234.7</ele><time>2015-11-22T07:48:30.0000000+00:00</time></trkpt><trkpt lat="31.0548766" lon="35.7042165"><ele>1234.6</ele><time>2015-11-22T07:48:31.0000000+00:00</time></trkpt><trkpt lat="31.0547829" lon="35.7042917"><ele>1234.0</ele><time>2015-11-22T07:48:32.0000000+00:00</time></trkpt><trkpt lat="31.0546943" lon="35.7043594"><ele>1234.2</ele><time>2015-11-22T07:48:33.0000000+00:00</time></trkpt><trkpt lat="31.0546068" lon="35.704425"><ele>1234.3</ele><time>2015-11-22T07:48:34.0000000+00:00</time></trkpt><trkpt lat="31.0545306" lon="35.7044783"><ele>1233.8</ele><time>2015-11-22T07:48:35.0000000+00:00</time></trkpt><trkpt lat="31.0544587" lon="35.7045378"><ele>1233.6</ele><time>2015-11-22T07:48:36.0000000+00:00</time></trkpt><trkpt lat="31.0543853" lon="35.7045957"><ele>1233.5</ele><time>2015-11-22T07:48:37.0000000+00:00</time></trkpt><trkpt lat="31.0543214" lon="35.7046442"><ele>1233.0</ele><time>2015-11-22T07:48:38.0000000+00:00</time></trkpt><trkpt lat="31.0542443" lon="35.7047059"><ele>1232.2</ele><time>2015-11-22T07:48:39.0000000+00:00</time></trkpt><trkpt lat="31.0541736" lon="35.70476"><ele>1232.3</ele><time>2015-11-22T07:48:40.0000000+00:00</time></trkpt><trkpt lat="31.0541098" lon="35.7048155"><ele>1232.8</ele><time>2015-11-22T07:48:41.0000000+00:00</time></trkpt><trkpt lat="31.053981" lon="35.7049242"><ele>1233.1</ele><time>2015-11-22T07:48:43.0000000+00:00</time></trkpt><trkpt lat="31.0539125" lon="35.7049728"><ele>1233.3</ele><time>2015-11-22T07:48:44.0000000+00:00</time></trkpt><trkpt lat="31.0538376" lon="35.7050278"><ele>1232.8</ele><time>2015-11-22T07:48:45.0000000+00:00</time></trkpt><trkpt lat="31.0537696" lon="35.7050869"><ele>1232.6</ele><time>2015-11-22T07:48:46.0000000+00:00</time></trkpt><trkpt lat="31.0536965" lon="35.7051418"><ele>1232.5</ele><time>2015-11-22T07:48:47.0000000+00:00</time></trkpt><trkpt lat="31.0536228" lon="35.7051919"><ele>1232.5</ele><time>2015-11-22T07:48:48.0000000+00:00</time></trkpt><trkpt lat="31.0535494" lon="35.7052455"><ele>1231.9</ele><time>2015-11-22T07:48:49.0000000+00:00</time></trkpt><trkpt lat="31.0534837" lon="35.7052962"><ele>1231.7</ele><time>2015-11-22T07:48:50.0000000+00:00</time></trkpt><trkpt lat="31.0534144" lon="35.7053508"><ele>1231.5</ele><time>2015-11-22T07:48:51.0000000+00:00</time></trkpt><trkpt lat="31.053343" lon="35.7054052"><ele>1231.5</ele><time>2015-11-22T07:48:52.0000000+00:00</time></trkpt><trkpt lat="31.0532658" lon="35.7054573"><ele>1231.4</ele><time>2015-11-22T07:48:53.0000000+00:00</time></trkpt><trkpt lat="31.0531916" lon="35.7055134"><ele>1231.4</ele><time>2015-11-22T07:48:54.0000000+00:00</time></trkpt><trkpt lat="31.053123" lon="35.7055629"><ele>1230.9</ele><time>2015-11-22T07:48:55.0000000+00:00</time></trkpt><trkpt lat="31.0530557" lon="35.7056153"><ele>1230.7</ele><time>2015-11-22T07:48:56.0000000+00:00</time></trkpt><trkpt lat="31.0529866" lon="35.7056692"><ele>1230.0</ele><time>2015-11-22T07:48:57.0000000+00:00</time></trkpt><trkpt lat="31.0529139" lon="35.7057183"><ele>1229.2</ele><time>2015-11-22T07:48:58.0000000+00:00</time></trkpt><trkpt lat="31.0528419" lon="35.7057696"><ele>1228.8</ele><time>2015-11-22T07:48:59.0000000+00:00</time></trkpt><trkpt lat="31.0527682" lon="35.7058234"><ele>1228.6</ele><time>2015-11-22T07:49:00.0000000+00:00</time></trkpt><trkpt lat="31.0526952" lon="35.7058708"><ele>1228.5</ele><time>2015-11-22T07:49:01.0000000+00:00</time></trkpt><trkpt lat="31.052623" lon="35.7059318"><ele>1228.0</ele><time>2015-11-22T07:49:02.0000000+00:00</time></trkpt><trkpt lat="31.052553" lon="35.7059862"><ele>1227.7</ele><time>2015-11-22T07:49:03.0000000+00:00</time></trkpt><trkpt lat="31.0524797" lon="35.7060371"><ele>1228.0</ele><time>2015-11-22T07:49:04.0000000+00:00</time></trkpt><trkpt lat="31.052412" lon="35.7060912"><ele>1227.7</ele><time>2015-11-22T07:49:05.0000000+00:00</time></trkpt><trkpt lat="31.0523339" lon="35.7061469"><ele>1227.6</ele><time>2015-11-22T07:49:06.0000000+00:00</time></trkpt><trkpt lat="31.0522614" lon="35.706201"><ele>1227.5</ele><time>2015-11-22T07:49:07.0000000+00:00</time></trkpt><trkpt lat="31.0521884" lon="35.7062585"><ele>1227.4</ele><time>2015-11-22T07:49:08.0000000+00:00</time></trkpt><trkpt lat="31.0521174" lon="35.7063202"><ele>1226.9</ele><time>2015-11-22T07:49:09.0000000+00:00</time></trkpt><trkpt lat="31.0520378" lon="35.7063833"><ele>1226.7</ele><time>2015-11-22T07:49:10.0000000+00:00</time></trkpt><trkpt lat="31.0519626" lon="35.7064399"><ele>1226.5</ele><time>2015-11-22T07:49:11.0000000+00:00</time></trkpt><trkpt lat="31.0518841" lon="35.7065058"><ele>1226.0</ele><time>2015-11-22T07:49:12.0000000+00:00</time></trkpt><trkpt lat="31.0518094" lon="35.7065602"><ele>1225.7</ele><time>2015-11-22T07:49:13.0000000+00:00</time></trkpt><trkpt lat="31.0517266" lon="35.7066156"><ele>1226.0</ele><time>2015-11-22T07:49:14.0000000+00:00</time></trkpt><trkpt lat="31.0516513" lon="35.7066749"><ele>1226.7</ele><time>2015-11-22T07:49:15.0000000+00:00</time></trkpt><trkpt lat="31.0515793" lon="35.7067362"><ele>1227.1</ele><time>2015-11-22T07:49:16.0000000+00:00</time></trkpt><trkpt lat="31.0515028" lon="35.7067897"><ele>1227.2</ele><time>2015-11-22T07:49:17.0000000+00:00</time></trkpt><trkpt lat="31.0514247" lon="35.7068495"><ele>1227.3</ele><time>2015-11-22T07:49:18.0000000+00:00</time></trkpt><trkpt lat="31.051346" lon="35.7069048"><ele>1226.9</ele><time>2015-11-22T07:49:19.0000000+00:00</time></trkpt><trkpt lat="31.0512636" lon="35.7069616"><ele>1226.1</ele><time>2015-11-22T07:49:20.0000000+00:00</time></trkpt><trkpt lat="31.0511905" lon="35.7070221"><ele>1225.8</ele><time>2015-11-22T07:49:21.0000000+00:00</time></trkpt><trkpt lat="31.0511174" lon="35.70708"><ele>1225.6</ele><time>2015-11-22T07:49:22.0000000+00:00</time></trkpt><trkpt lat="31.0510431" lon="35.7071414"><ele>1225.5</ele><time>2015-11-22T07:49:23.0000000+00:00</time></trkpt><trkpt lat="31.0509689" lon="35.7072001"><ele>1225.9</ele><time>2015-11-22T07:49:24.0000000+00:00</time></trkpt><trkpt lat="31.0509026" lon="35.7072576"><ele>1225.7</ele><time>2015-11-22T07:49:25.0000000+00:00</time></trkpt><trkpt lat="31.0508351" lon="35.707315"><ele>1225.0</ele><time>2015-11-22T07:49:26.0000000+00:00</time></trkpt><trkpt lat="31.050762" lon="35.7073662"><ele>1224.7</ele><time>2015-11-22T07:49:27.0000000+00:00</time></trkpt><trkpt lat="31.0506903" lon="35.7074217"><ele>1224.6</ele><time>2015-11-22T07:49:28.0000000+00:00</time></trkpt><trkpt lat="31.0506212" lon="35.7074761"><ele>1224.5</ele><time>2015-11-22T07:49:29.0000000+00:00</time></trkpt><trkpt lat="31.0505492" lon="35.707522"><ele>1223.9</ele><time>2015-11-22T07:49:30.0000000+00:00</time></trkpt><trkpt lat="31.0504854" lon="35.7075745"><ele>1223.7</ele><time>2015-11-22T07:49:31.0000000+00:00</time></trkpt><trkpt lat="31.0504131" lon="35.7076277"><ele>1223.5</ele><time>2015-11-22T07:49:32.0000000+00:00</time></trkpt><trkpt lat="31.0503419" lon="35.7076765"><ele>1223.5</ele><time>2015-11-22T07:49:33.0000000+00:00</time></trkpt><trkpt lat="31.0502781" lon="35.7077189"><ele>1223.4</ele><time>2015-11-22T07:49:34.0000000+00:00</time></trkpt><trkpt lat="31.0502082" lon="35.707771"><ele>1223.9</ele><time>2015-11-22T07:49:35.0000000+00:00</time></trkpt><trkpt lat="31.0501512" lon="35.7078171"><ele>1224.2</ele><time>2015-11-22T07:49:36.0000000+00:00</time></trkpt><trkpt lat="31.0500891" lon="35.707869"><ele>1224.3</ele><time>2015-11-22T07:49:37.0000000+00:00</time></trkpt><trkpt lat="31.0500242" lon="35.7079242"><ele>1223.8</ele><time>2015-11-22T07:49:38.0000000+00:00</time></trkpt><trkpt lat="31.0499583" lon="35.7079686"><ele>1223.6</ele><time>2015-11-22T07:49:39.0000000+00:00</time></trkpt><trkpt lat="31.049889" lon="35.7080109"><ele>1223.5</ele><time>2015-11-22T07:49:40.0000000+00:00</time></trkpt><trkpt lat="31.0498225" lon="35.7080526"><ele>1224.0</ele><time>2015-11-22T07:49:41.0000000+00:00</time></trkpt><trkpt lat="31.0497672" lon="35.7080989"><ele>1224.2</ele><time>2015-11-22T07:49:42.0000000+00:00</time></trkpt><trkpt lat="31.0497071" lon="35.7081467"><ele>1224.3</ele><time>2015-11-22T07:49:43.0000000+00:00</time></trkpt><trkpt lat="31.0496579" lon="35.708178"><ele>1223.3</ele><time>2015-11-22T07:49:44.0000000+00:00</time></trkpt><trkpt lat="31.0495983" lon="35.7082211"><ele>1222.9</ele><time>2015-11-22T07:49:45.0000000+00:00</time></trkpt><trkpt lat="31.0495371" lon="35.7082689"><ele>1222.6</ele><time>2015-11-22T07:49:46.0000000+00:00</time></trkpt><trkpt lat="31.0494799" lon="35.7083136"><ele>1222.5</ele><time>2015-11-22T07:49:47.0000000+00:00</time></trkpt><trkpt lat="31.0494238" lon="35.7083651"><ele>1222.5</ele><time>2015-11-22T07:49:48.0000000+00:00</time></trkpt><trkpt lat="31.0493629" lon="35.7084061"><ele>1222.4</ele><time>2015-11-22T07:49:49.0000000+00:00</time></trkpt><trkpt lat="31.0493143" lon="35.7084478"><ele>1222.9</ele><time>2015-11-22T07:49:50.0000000+00:00</time></trkpt><trkpt lat="31.049262" lon="35.7084886"><ele>1223.2</ele><time>2015-11-22T07:49:51.0000000+00:00</time></trkpt><trkpt lat="31.0492099" lon="35.7085295"><ele>1223.3</ele><time>2015-11-22T07:49:52.0000000+00:00</time></trkpt><trkpt lat="31.0491634" lon="35.7085732"><ele>1222.8</ele><time>2015-11-22T07:49:53.0000000+00:00</time></trkpt><trkpt lat="31.0491103" lon="35.7086111"><ele>1222.1</ele><time>2015-11-22T07:49:54.0000000+00:00</time></trkpt><trkpt lat="31.0490614" lon="35.7086539"><ele>1221.3</ele><time>2015-11-22T07:49:55.0000000+00:00</time></trkpt><trkpt lat="31.0490132" lon="35.7086919"><ele>1220.8</ele><time>2015-11-22T07:49:56.0000000+00:00</time></trkpt><trkpt lat="31.048969" lon="35.7087286"><ele>1220.6</ele><time>2015-11-22T07:49:57.0000000+00:00</time></trkpt><trkpt lat="31.0489246" lon="35.70876"><ele>1220.5</ele><time>2015-11-22T07:49:58.0000000+00:00</time></trkpt><trkpt lat="31.0488771" lon="35.7087978"><ele>1220.5</ele><time>2015-11-22T07:49:59.0000000+00:00</time></trkpt><trkpt lat="31.0488279" lon="35.7088289"><ele>1220.4</ele><time>2015-11-22T07:50:00.0000000+00:00</time></trkpt><trkpt lat="31.0487801" lon="35.7088616"><ele>1220.4</ele><time>2015-11-22T07:50:01.0000000+00:00</time></trkpt><trkpt lat="31.0487357" lon="35.7088882"><ele>1220.9</ele><time>2015-11-22T07:50:02.0000000+00:00</time></trkpt><trkpt lat="31.048662" lon="35.7089282"><ele>1221.3</ele><time>2015-11-22T07:50:04.0000000+00:00</time></trkpt><trkpt lat="31.0485926" lon="35.7089709"><ele>1220.6</ele><time>2015-11-22T07:50:06.0000000+00:00</time></trkpt><trkpt lat="31.048548" lon="35.7089981"><ele>1220.5</ele><time>2015-11-22T07:50:07.0000000+00:00</time></trkpt><trkpt lat="31.0484975" lon="35.7090292"><ele>1220.0</ele><time>2015-11-22T07:50:08.0000000+00:00</time></trkpt><trkpt lat="31.0484463" lon="35.7090595"><ele>1220.2</ele><time>2015-11-22T07:50:09.0000000+00:00</time></trkpt><trkpt lat="31.0484036" lon="35.7090923"><ele>1220.3</ele><time>2015-11-22T07:50:10.0000000+00:00</time></trkpt><trkpt lat="31.0483599" lon="35.7091216"><ele>1220.3</ele><time>2015-11-22T07:50:11.0000000+00:00</time></trkpt><trkpt lat="31.0483136" lon="35.7091529"><ele>1220.4</ele><time>2015-11-22T07:50:12.0000000+00:00</time></trkpt><trkpt lat="31.0482616" lon="35.7091804"><ele>1219.9</ele><time>2015-11-22T07:50:13.0000000+00:00</time></trkpt><trkpt lat="31.0482164" lon="35.7092139"><ele>1219.6</ele><time>2015-11-22T07:50:14.0000000+00:00</time></trkpt><trkpt lat="31.0481592" lon="35.7092422"><ele>1219.5</ele><time>2015-11-22T07:50:15.0000000+00:00</time></trkpt><trkpt lat="31.0481018" lon="35.709265"><ele>1219.0</ele><time>2015-11-22T07:50:16.0000000+00:00</time></trkpt><trkpt lat="31.0480437" lon="35.709296"><ele>1218.7</ele><time>2015-11-22T07:50:17.0000000+00:00</time></trkpt><trkpt lat="31.0479851" lon="35.7093225"><ele>1218.5</ele><time>2015-11-22T07:50:18.0000000+00:00</time></trkpt><trkpt lat="31.0479231" lon="35.7093452"><ele>1220.5</ele><time>2015-11-22T07:50:19.0000000+00:00</time></trkpt><trkpt lat="31.0478553" lon="35.7093671"><ele>1221.4</ele><time>2015-11-22T07:50:20.0000000+00:00</time></trkpt><trkpt lat="31.0477943" lon="35.7093879"><ele>1221.9</ele><time>2015-11-22T07:50:21.0000000+00:00</time></trkpt><trkpt lat="31.04773" lon="35.7094164"><ele>1222.2</ele><time>2015-11-22T07:50:22.0000000+00:00</time></trkpt><trkpt lat="31.0476698" lon="35.7094382"><ele>1222.3</ele><time>2015-11-22T07:50:23.0000000+00:00</time></trkpt><trkpt lat="31.04761" lon="35.7094533"><ele>1222.3</ele><time>2015-11-22T07:50:24.0000000+00:00</time></trkpt><trkpt lat="31.0475483" lon="35.7094738"><ele>1222.4</ele><time>2015-11-22T07:50:25.0000000+00:00</time></trkpt><trkpt lat="31.0474891" lon="35.7094915"><ele>1222.4</ele><time>2015-11-22T07:50:26.0000000+00:00</time></trkpt><trkpt lat="31.0474339" lon="35.7095159"><ele>1222.4</ele><time>2015-11-22T07:50:27.0000000+00:00</time></trkpt><trkpt lat="31.0473774" lon="35.7095323"><ele>1222.4</ele><time>2015-11-22T07:50:28.0000000+00:00</time></trkpt><trkpt lat="31.0473213" lon="35.7095494"><ele>1222.4</ele><time>2015-11-22T07:50:29.0000000+00:00</time></trkpt><trkpt lat="31.0472661" lon="35.7095646"><ele>1221.9</ele><time>2015-11-22T07:50:30.0000000+00:00</time></trkpt><trkpt lat="31.0472116" lon="35.7095842"><ele>1221.7</ele><time>2015-11-22T07:50:31.0000000+00:00</time></trkpt><trkpt lat="31.0471562" lon="35.7096136"><ele>1221.5</ele><time>2015-11-22T07:50:32.0000000+00:00</time></trkpt><trkpt lat="31.0470954" lon="35.7096355"><ele>1221.5</ele><time>2015-11-22T07:50:33.0000000+00:00</time></trkpt><trkpt lat="31.0470412" lon="35.7096535"><ele>1221.4</ele><time>2015-11-22T07:50:34.0000000+00:00</time></trkpt><trkpt lat="31.0469834" lon="35.709672"><ele>1221.4</ele><time>2015-11-22T07:50:35.0000000+00:00</time></trkpt><trkpt lat="31.0469269" lon="35.7096919"><ele>1221.4</ele><time>2015-11-22T07:50:36.0000000+00:00</time></trkpt><trkpt lat="31.0468662" lon="35.7097053"><ele>1221.4</ele><time>2015-11-22T07:50:37.0000000+00:00</time></trkpt><trkpt lat="31.046808" lon="35.7097316"><ele>1221.4</ele><time>2015-11-22T07:50:38.0000000+00:00</time></trkpt><trkpt lat="31.0467427" lon="35.7097551"><ele>1221.4</ele><time>2015-11-22T07:50:39.0000000+00:00</time></trkpt><trkpt lat="31.0466737" lon="35.7097752"><ele>1221.4</ele><time>2015-11-22T07:50:40.0000000+00:00</time></trkpt><trkpt lat="31.0466098" lon="35.7097924"><ele>1221.4</ele><time>2015-11-22T07:50:41.0000000+00:00</time></trkpt><trkpt lat="31.0465594" lon="35.7098103"><ele>1221.4</ele><time>2015-11-22T07:50:42.0000000+00:00</time></trkpt><trkpt lat="31.0464947" lon="35.7098314"><ele>1221.4</ele><time>2015-11-22T07:50:43.0000000+00:00</time></trkpt><trkpt lat="31.0464255" lon="35.7098554"><ele>1221.4</ele><time>2015-11-22T07:50:44.0000000+00:00</time></trkpt><trkpt lat="31.0463718" lon="35.7098783"><ele>1220.9</ele><time>2015-11-22T07:50:45.0000000+00:00</time></trkpt><trkpt lat="31.0463076" lon="35.7098998"><ele>1221.2</ele><time>2015-11-22T07:50:46.0000000+00:00</time></trkpt><trkpt lat="31.0462451" lon="35.7099181"><ele>1221.3</ele><time>2015-11-22T07:50:47.0000000+00:00</time></trkpt><trkpt lat="31.0461812" lon="35.7099392"><ele>1221.3</ele><time>2015-11-22T07:50:48.0000000+00:00</time></trkpt><trkpt lat="31.0461159" lon="35.7099619"><ele>1221.9</ele><time>2015-11-22T07:50:49.0000000+00:00</time></trkpt><trkpt lat="31.0460582" lon="35.7099851"><ele>1221.6</ele><time>2015-11-22T07:50:50.0000000+00:00</time></trkpt><trkpt lat="31.0459922" lon="35.7100075"><ele>1222.0</ele><time>2015-11-22T07:50:51.0000000+00:00</time></trkpt><trkpt lat="31.0459325" lon="35.7100292"><ele>1222.2</ele><time>2015-11-22T07:50:52.0000000+00:00</time></trkpt><trkpt lat="31.0458673" lon="35.7100528"><ele>1222.3</ele><time>2015-11-22T07:50:53.0000000+00:00</time></trkpt><trkpt lat="31.045809" lon="35.7100646"><ele>1222.4</ele><time>2015-11-22T07:50:54.0000000+00:00</time></trkpt><trkpt lat="31.0457458" lon="35.7100867"><ele>1222.4</ele><time>2015-11-22T07:50:55.0000000+00:00</time></trkpt><trkpt lat="31.0456943" lon="35.7101077"><ele>1221.9</ele><time>2015-11-22T07:50:56.0000000+00:00</time></trkpt><trkpt lat="31.0456465" lon="35.7101236"><ele>1221.6</ele><time>2015-11-22T07:50:57.0000000+00:00</time></trkpt><trkpt lat="31.0455829" lon="35.7101394"><ele>1222.0</ele><time>2015-11-22T07:50:58.0000000+00:00</time></trkpt><trkpt lat="31.0455192" lon="35.71016"><ele>1221.7</ele><time>2015-11-22T07:50:59.0000000+00:00</time></trkpt><trkpt lat="31.0454564" lon="35.7101726"><ele>1222.1</ele><time>2015-11-22T07:51:00.0000000+00:00</time></trkpt><trkpt lat="31.0453892" lon="35.7101916"><ele>1222.2</ele><time>2015-11-22T07:51:01.0000000+00:00</time></trkpt><trkpt lat="31.04533" lon="35.7102173"><ele>1222.3</ele><time>2015-11-22T07:51:02.0000000+00:00</time></trkpt><trkpt lat="31.045267" lon="35.7102361"><ele>1222.4</ele><time>2015-11-22T07:51:03.0000000+00:00</time></trkpt><trkpt lat="31.0452087" lon="35.7102461"><ele>1221.9</ele><time>2015-11-22T07:51:04.0000000+00:00</time></trkpt><trkpt lat="31.0451534" lon="35.710267"><ele>1221.6</ele><time>2015-11-22T07:51:05.0000000+00:00</time></trkpt><trkpt lat="31.04509" lon="35.7102938"><ele>1222.0</ele><time>2015-11-22T07:51:06.0000000+00:00</time></trkpt><trkpt lat="31.0450301" lon="35.7103127"><ele>1222.2</ele><time>2015-11-22T07:51:07.0000000+00:00</time></trkpt><trkpt lat="31.0449769" lon="35.7103292"><ele>1222.3</ele><time>2015-11-22T07:51:08.0000000+00:00</time></trkpt><trkpt lat="31.044917" lon="35.710343"><ele>1221.9</ele><time>2015-11-22T07:51:09.0000000+00:00</time></trkpt><trkpt lat="31.0448552" lon="35.7103596"><ele>1222.1</ele><time>2015-11-22T07:51:10.0000000+00:00</time></trkpt><trkpt lat="31.0448001" lon="35.7103765"><ele>1222.3</ele><time>2015-11-22T07:51:11.0000000+00:00</time></trkpt><trkpt lat="31.044742" lon="35.7103943"><ele>1221.8</ele><time>2015-11-22T07:51:12.0000000+00:00</time></trkpt><trkpt lat="31.0446805" lon="35.7104121"><ele>1222.1</ele><time>2015-11-22T07:51:13.0000000+00:00</time></trkpt><trkpt lat="31.0446277" lon="35.710428"><ele>1222.3</ele><time>2015-11-22T07:51:14.0000000+00:00</time></trkpt><trkpt lat="31.0445706" lon="35.7104448"><ele>1222.3</ele><time>2015-11-22T07:51:15.0000000+00:00</time></trkpt><trkpt lat="31.0445157" lon="35.7104545"><ele>1222.4</ele><time>2015-11-22T07:51:16.0000000+00:00</time></trkpt><trkpt lat="31.044452" lon="35.710472"><ele>1221.9</ele><time>2015-11-22T07:51:17.0000000+00:00</time></trkpt><trkpt lat="31.0443923" lon="35.7104958"><ele>1221.6</ele><time>2015-11-22T07:51:18.0000000+00:00</time></trkpt><trkpt lat="31.0443275" lon="35.7105211"><ele>1222.0</ele><time>2015-11-22T07:51:19.0000000+00:00</time></trkpt><trkpt lat="31.0442678" lon="35.7105402"><ele>1222.2</ele><time>2015-11-22T07:51:20.0000000+00:00</time></trkpt><trkpt lat="31.044211" lon="35.7105602"><ele>1222.3</ele><time>2015-11-22T07:51:21.0000000+00:00</time></trkpt><trkpt lat="31.0441494" lon="35.7105883"><ele>1222.4</ele><time>2015-11-22T07:51:22.0000000+00:00</time></trkpt><trkpt lat="31.044096" lon="35.7106101"><ele>1222.4</ele><time>2015-11-22T07:51:23.0000000+00:00</time></trkpt><trkpt lat="31.0440473" lon="35.7106329"><ele>1222.4</ele><time>2015-11-22T07:51:24.0000000+00:00</time></trkpt><trkpt lat="31.0439682" lon="35.7106554"><ele>1222.4</ele><time>2015-11-22T07:51:26.0000000+00:00</time></trkpt><trkpt lat="31.0439109" lon="35.7106814"><ele>1222.4</ele><time>2015-11-22T07:51:27.0000000+00:00</time></trkpt><trkpt lat="31.0438581" lon="35.7106915"><ele>1222.4</ele><time>2015-11-22T07:51:28.0000000+00:00</time></trkpt><trkpt lat="31.0438118" lon="35.7107098"><ele>1222.4</ele><time>2015-11-22T07:51:29.0000000+00:00</time></trkpt><trkpt lat="31.0437201" lon="35.7107323"><ele>1222.4</ele><time>2015-11-22T07:51:31.0000000+00:00</time></trkpt><trkpt lat="31.0436749" lon="35.7107518"><ele>1221.9</ele><time>2015-11-22T07:51:32.0000000+00:00</time></trkpt><trkpt lat="31.0436224" lon="35.7107775"><ele>1221.7</ele><time>2015-11-22T07:51:33.0000000+00:00</time></trkpt><trkpt lat="31.043533" lon="35.7108028"><ele>1221.5</ele><time>2015-11-22T07:51:35.0000000+00:00</time></trkpt><trkpt lat="31.0434492" lon="35.7108282"><ele>1220.7</ele><time>2015-11-22T07:51:37.0000000+00:00</time></trkpt><trkpt lat="31.0434054" lon="35.7108453"><ele>1220.5</ele><time>2015-11-22T07:51:38.0000000+00:00</time></trkpt><trkpt lat="31.0433328" lon="35.710865"><ele>1220.4</ele><time>2015-11-22T07:51:40.0000000+00:00</time></trkpt><trkpt lat="31.0432703" lon="35.710889"><ele>1220.4</ele><time>2015-11-22T07:51:42.0000000+00:00</time></trkpt><trkpt lat="31.0432124" lon="35.7108848"><ele>1220.9</ele><time>2015-11-22T07:51:44.0000000+00:00</time></trkpt><trkpt lat="31.0431556" lon="35.7109134"><ele>1221.3</ele><time>2015-11-22T07:51:46.0000000+00:00</time></trkpt><trkpt lat="31.0431083" lon="35.710936"><ele>1221.9</ele><time>2015-11-22T07:51:48.0000000+00:00</time></trkpt><trkpt lat="31.0430583" lon="35.7109489"><ele>1222.0</ele><time>2015-11-22T07:51:50.0000000+00:00</time></trkpt><trkpt lat="31.0430042" lon="35.7109694"><ele>1222.3</ele><time>2015-11-22T07:51:52.0000000+00:00</time></trkpt><trkpt lat="31.0429481" lon="35.7109908"><ele>1222.4</ele><time>2015-11-22T07:51:54.0000000+00:00</time></trkpt><trkpt lat="31.0428909" lon="35.7110178"><ele>1223.6</ele><time>2015-11-22T07:51:56.0000000+00:00</time></trkpt><trkpt lat="31.0428298" lon="35.7110434"><ele>1224.0</ele><time>2015-11-22T07:51:58.0000000+00:00</time></trkpt><trkpt lat="31.0427636" lon="35.7110675"><ele>1224.3</ele><time>2015-11-22T07:52:00.0000000+00:00</time></trkpt><trkpt lat="31.0426973" lon="35.7110924"><ele>1223.6</ele><time>2015-11-22T07:52:02.0000000+00:00</time></trkpt><trkpt lat="31.0426335" lon="35.7111165"><ele>1223.5</ele><time>2015-11-22T07:52:04.0000000+00:00</time></trkpt><trkpt lat="31.0425736" lon="35.7111305"><ele>1223.4</ele><time>2015-11-22T07:52:06.0000000+00:00</time></trkpt><trkpt lat="31.0425231" lon="35.7111426"><ele>1222.7</ele><time>2015-11-22T07:52:08.0000000+00:00</time></trkpt><trkpt lat="31.0424665" lon="35.711156"><ele>1222.4</ele><time>2015-11-22T07:52:11.0000000+00:00</time></trkpt><trkpt lat="31.0423772" lon="35.7111882"><ele>1223.0</ele><time>2015-11-22T07:52:15.0000000+00:00</time></trkpt><trkpt lat="31.0423295" lon="35.7112085"><ele>1223.1</ele><time>2015-11-22T07:52:17.0000000+00:00</time></trkpt><trkpt lat="31.0422861" lon="35.7112321"><ele>1222.6</ele><time>2015-11-22T07:52:19.0000000+00:00</time></trkpt><trkpt lat="31.0422338" lon="35.7112477"><ele>1222.4</ele><time>2015-11-22T07:52:21.0000000+00:00</time></trkpt><trkpt lat="31.0421716" lon="35.7112659"><ele>1223.2</ele><time>2015-11-22T07:52:23.0000000+00:00</time></trkpt><trkpt lat="31.04209" lon="35.7112955"><ele>1223.3</ele><time>2015-11-22T07:52:25.0000000+00:00</time></trkpt><trkpt lat="31.0420461" lon="35.7113107"><ele>1222.9</ele><time>2015-11-22T07:52:26.0000000+00:00</time></trkpt><trkpt lat="31.0419567" lon="35.711341"><ele>1222.6</ele><time>2015-11-22T07:52:28.0000000+00:00</time></trkpt><trkpt lat="31.0419107" lon="35.7113578"><ele>1223.0</ele><time>2015-11-22T07:52:29.0000000+00:00</time></trkpt><trkpt lat="31.0418475" lon="35.7113767"><ele>1223.2</ele><time>2015-11-22T07:52:30.0000000+00:00</time></trkpt><trkpt lat="31.0418065" lon="35.7113997"><ele>1222.8</ele><time>2015-11-22T07:52:31.0000000+00:00</time></trkpt><trkpt lat="31.0417544" lon="35.7114167"><ele>1222.6</ele><time>2015-11-22T07:52:32.0000000+00:00</time></trkpt><trkpt lat="31.0417064" lon="35.7114321"><ele>1222.5</ele><time>2015-11-22T07:52:33.0000000+00:00</time></trkpt><trkpt lat="31.0416585" lon="35.7114505"><ele>1222.5</ele><time>2015-11-22T07:52:34.0000000+00:00</time></trkpt><trkpt lat="31.0415628" lon="35.7114687"><ele>1222.4</ele><time>2015-11-22T07:52:36.0000000+00:00</time></trkpt><trkpt lat="31.0415136" lon="35.711484"><ele>1222.4</ele><time>2015-11-22T07:52:37.0000000+00:00</time></trkpt><trkpt lat="31.0414612" lon="35.711507"><ele>1222.4</ele><time>2015-11-22T07:52:38.0000000+00:00</time></trkpt><trkpt lat="31.0414024" lon="35.7115255"><ele>1221.9</ele><time>2015-11-22T07:52:39.0000000+00:00</time></trkpt><trkpt lat="31.0413441" lon="35.7115508"><ele>1222.2</ele><time>2015-11-22T07:52:40.0000000+00:00</time></trkpt><trkpt lat="31.0412935" lon="35.7115656"><ele>1221.8</ele><time>2015-11-22T07:52:41.0000000+00:00</time></trkpt><trkpt lat="31.0412431" lon="35.7115792"><ele>1221.6</ele><time>2015-11-22T07:52:42.0000000+00:00</time></trkpt><trkpt lat="31.0411871" lon="35.7115969"><ele>1221.5</ele><time>2015-11-22T07:52:43.0000000+00:00</time></trkpt><trkpt lat="31.0411351" lon="35.7116138"><ele>1221.4</ele><time>2015-11-22T07:52:44.0000000+00:00</time></trkpt><trkpt lat="31.0410805" lon="35.7116346"><ele>1221.4</ele><time>2015-11-22T07:52:45.0000000+00:00</time></trkpt><trkpt lat="31.0410296" lon="35.7116515"><ele>1220.9</ele><time>2015-11-22T07:52:46.0000000+00:00</time></trkpt><trkpt lat="31.0409757" lon="35.7116691"><ele>1221.2</ele><time>2015-11-22T07:52:47.0000000+00:00</time></trkpt><trkpt lat="31.0409192" lon="35.7116808"><ele>1221.3</ele><time>2015-11-22T07:52:48.0000000+00:00</time></trkpt><trkpt lat="31.0408599" lon="35.7116996"><ele>1221.3</ele><time>2015-11-22T07:52:49.0000000+00:00</time></trkpt><trkpt lat="31.040806" lon="35.7117204"><ele>1221.4</ele><time>2015-11-22T07:52:50.0000000+00:00</time></trkpt><trkpt lat="31.0407511" lon="35.7117405"><ele>1221.4</ele><time>2015-11-22T07:52:51.0000000+00:00</time></trkpt><trkpt lat="31.0406954" lon="35.7117502"><ele>1221.4</ele><time>2015-11-22T07:52:52.0000000+00:00</time></trkpt><trkpt lat="31.0406373" lon="35.7117696"><ele>1221.4</ele><time>2015-11-22T07:52:53.0000000+00:00</time></trkpt><trkpt lat="31.0405844" lon="35.7117888"><ele>1221.4</ele><time>2015-11-22T07:52:54.0000000+00:00</time></trkpt><trkpt lat="31.0405376" lon="35.7118021"><ele>1221.4</ele><time>2015-11-22T07:52:55.0000000+00:00</time></trkpt><trkpt lat="31.0404773" lon="35.7118226"><ele>1221.4</ele><time>2015-11-22T07:52:56.0000000+00:00</time></trkpt><trkpt lat="31.040414" lon="35.7118379"><ele>1220.9</ele><time>2015-11-22T07:52:57.0000000+00:00</time></trkpt><trkpt lat="31.0403509" lon="35.7118621"><ele>1220.7</ele><time>2015-11-22T07:52:58.0000000+00:00</time></trkpt><trkpt lat="31.0402906" lon="35.7118819"><ele>1220.5</ele><time>2015-11-22T07:52:59.0000000+00:00</time></trkpt><trkpt lat="31.0402272" lon="35.7119066"><ele>1220.5</ele><time>2015-11-22T07:53:00.0000000+00:00</time></trkpt><trkpt lat="31.040171" lon="35.7119221"><ele>1220.4</ele><time>2015-11-22T07:53:01.0000000+00:00</time></trkpt><trkpt lat="31.0401101" lon="35.7119493"><ele>1220.4</ele><time>2015-11-22T07:53:02.0000000+00:00</time></trkpt><trkpt lat="31.0400478" lon="35.711973"><ele>1220.4</ele><time>2015-11-22T07:53:03.0000000+00:00</time></trkpt><trkpt lat="31.03999" lon="35.7119937"><ele>1220.4</ele><time>2015-11-22T07:53:04.0000000+00:00</time></trkpt><trkpt lat="31.0399298" lon="35.7120056"><ele>1220.4</ele><time>2015-11-22T07:53:05.0000000+00:00</time></trkpt><trkpt lat="31.0398772" lon="35.7120195"><ele>1220.4</ele><time>2015-11-22T07:53:06.0000000+00:00</time></trkpt><trkpt lat="31.0398282" lon="35.7120406"><ele>1220.4</ele><time>2015-11-22T07:53:07.0000000+00:00</time></trkpt><trkpt lat="31.0397728" lon="35.7120732"><ele>1220.4</ele><time>2015-11-22T07:53:08.0000000+00:00</time></trkpt><trkpt lat="31.0396763" lon="35.7121004"><ele>1220.4</ele><time>2015-11-22T07:53:10.0000000+00:00</time></trkpt><trkpt lat="31.0396111" lon="35.7121307"><ele>1220.4</ele><time>2015-11-22T07:53:11.0000000+00:00</time></trkpt><trkpt lat="31.0395526" lon="35.7121456"><ele>1220.4</ele><time>2015-11-22T07:53:12.0000000+00:00</time></trkpt><trkpt lat="31.0394995" lon="35.7121552"><ele>1220.4</ele><time>2015-11-22T07:53:13.0000000+00:00</time></trkpt><trkpt lat="31.0394487" lon="35.7121539"><ele>1220.4</ele><time>2015-11-22T07:53:14.0000000+00:00</time></trkpt><trkpt lat="31.0393906" lon="35.712165"><ele>1219.9</ele><time>2015-11-22T07:53:15.0000000+00:00</time></trkpt><trkpt lat="31.0393202" lon="35.7121812"><ele>1219.7</ele><time>2015-11-22T07:53:16.0000000+00:00</time></trkpt><trkpt lat="31.0392592" lon="35.712193"><ele>1219.5</ele><time>2015-11-22T07:53:17.0000000+00:00</time></trkpt><trkpt lat="31.039202" lon="35.712199"><ele>1219.5</ele><time>2015-11-22T07:53:18.0000000+00:00</time></trkpt><trkpt lat="31.0391256" lon="35.71221"><ele>1218.9</ele><time>2015-11-22T07:53:19.0000000+00:00</time></trkpt><trkpt lat="31.0390632" lon="35.7122145"><ele>1218.7</ele><time>2015-11-22T07:53:20.0000000+00:00</time></trkpt><trkpt lat="31.0389833" lon="35.7122178"><ele>1218.5</ele><time>2015-11-22T07:53:21.0000000+00:00</time></trkpt><trkpt lat="31.0389134" lon="35.7122225"><ele>1218.5</ele><time>2015-11-22T07:53:22.0000000+00:00</time></trkpt><trkpt lat="31.0388362" lon="35.7122285"><ele>1218.4</ele><time>2015-11-22T07:53:23.0000000+00:00</time></trkpt><trkpt lat="31.0387715" lon="35.7122309"><ele>1218.4</ele><time>2015-11-22T07:53:24.0000000+00:00</time></trkpt><trkpt lat="31.0387008" lon="35.7122375"><ele>1217.9</ele><time>2015-11-22T07:53:25.0000000+00:00</time></trkpt><trkpt lat="31.0386304" lon="35.7122433"><ele>1217.7</ele><time>2015-11-22T07:53:26.0000000+00:00</time></trkpt><trkpt lat="31.0385572" lon="35.7122471"><ele>1218.0</ele><time>2015-11-22T07:53:27.0000000+00:00</time></trkpt><trkpt lat="31.0384797" lon="35.712261"><ele>1217.7</ele><time>2015-11-22T07:53:28.0000000+00:00</time></trkpt><trkpt lat="31.0384056" lon="35.7122766"><ele>1217.6</ele><time>2015-11-22T07:53:29.0000000+00:00</time></trkpt><trkpt lat="31.0383353" lon="35.7122949"><ele>1218.0</ele><time>2015-11-22T07:53:30.0000000+00:00</time></trkpt><trkpt lat="31.0382671" lon="35.7123106"><ele>1217.7</ele><time>2015-11-22T07:53:31.0000000+00:00</time></trkpt><trkpt lat="31.0381958" lon="35.7123178"><ele>1217.5</ele><time>2015-11-22T07:53:32.0000000+00:00</time></trkpt><trkpt lat="31.0381262" lon="35.7123264"><ele>1217.5</ele><time>2015-11-22T07:53:33.0000000+00:00</time></trkpt><trkpt lat="31.0380525" lon="35.7123334"><ele>1218.4</ele><time>2015-11-22T07:53:34.0000000+00:00</time></trkpt><trkpt lat="31.0379701" lon="35.7123499"><ele>1218.9</ele><time>2015-11-22T07:53:35.0000000+00:00</time></trkpt><trkpt lat="31.0378939" lon="35.7123631"><ele>1219.2</ele><time>2015-11-22T07:53:36.0000000+00:00</time></trkpt><trkpt lat="31.037822" lon="35.7123708"><ele>1219.3</ele><time>2015-11-22T07:53:37.0000000+00:00</time></trkpt><trkpt lat="31.0377486" lon="35.7123763"><ele>1219.3</ele><time>2015-11-22T07:53:38.0000000+00:00</time></trkpt><trkpt lat="31.0376749" lon="35.71239"><ele>1219.4</ele><time>2015-11-22T07:53:39.0000000+00:00</time></trkpt><trkpt lat="31.0376081" lon="35.7123933"><ele>1219.9</ele><time>2015-11-22T07:53:40.0000000+00:00</time></trkpt><trkpt lat="31.0375306" lon="35.7124101"><ele>1220.6</ele><time>2015-11-22T07:53:41.0000000+00:00</time></trkpt><trkpt lat="31.0374574" lon="35.7124188"><ele>1221.0</ele><time>2015-11-22T07:53:42.0000000+00:00</time></trkpt><trkpt lat="31.0373871" lon="35.712428"><ele>1221.2</ele><time>2015-11-22T07:53:43.0000000+00:00</time></trkpt><trkpt lat="31.0373255" lon="35.7124414"><ele>1221.3</ele><time>2015-11-22T07:53:44.0000000+00:00</time></trkpt><trkpt lat="31.0372621" lon="35.7124524"><ele>1220.9</ele><time>2015-11-22T07:53:45.0000000+00:00</time></trkpt><trkpt lat="31.0371993" lon="35.712454"><ele>1220.6</ele><time>2015-11-22T07:53:46.0000000+00:00</time></trkpt><trkpt lat="31.0371423" lon="35.712478"><ele>1221.0</ele><time>2015-11-22T07:53:47.0000000+00:00</time></trkpt><trkpt lat="31.037085" lon="35.7124903"><ele>1221.2</ele><time>2015-11-22T07:53:48.0000000+00:00</time></trkpt><trkpt lat="31.037025" lon="35.712495"><ele>1221.3</ele><time>2015-11-22T07:53:49.0000000+00:00</time></trkpt><trkpt lat="31.0369698" lon="35.7124962"><ele>1221.4</ele><time>2015-11-22T07:53:50.0000000+00:00</time></trkpt><trkpt lat="31.0369112" lon="35.7125034"><ele>1220.9</ele><time>2015-11-22T07:53:51.0000000+00:00</time></trkpt><trkpt lat="31.0368454" lon="35.7125069"><ele>1221.1</ele><time>2015-11-22T07:53:52.0000000+00:00</time></trkpt><trkpt lat="31.0367769" lon="35.712517"><ele>1221.3</ele><time>2015-11-22T07:53:53.0000000+00:00</time></trkpt><trkpt lat="31.0367079" lon="35.7125168"><ele>1221.3</ele><time>2015-11-22T07:53:54.0000000+00:00</time></trkpt><trkpt lat="31.0366355" lon="35.7125296"><ele>1221.9</ele><time>2015-11-22T07:53:55.0000000+00:00</time></trkpt><trkpt lat="31.036565" lon="35.7125374"><ele>1222.1</ele><time>2015-11-22T07:53:56.0000000+00:00</time></trkpt><trkpt lat="31.0364959" lon="35.7125461"><ele>1222.3</ele><time>2015-11-22T07:53:57.0000000+00:00</time></trkpt><trkpt lat="31.0364269" lon="35.7125602"><ele>1222.3</ele><time>2015-11-22T07:53:58.0000000+00:00</time></trkpt><trkpt lat="31.0363647" lon="35.7125669"><ele>1222.4</ele><time>2015-11-22T07:53:59.0000000+00:00</time></trkpt><trkpt lat="31.036306" lon="35.7125731"><ele>1222.4</ele><time>2015-11-22T07:54:00.0000000+00:00</time></trkpt><trkpt lat="31.0362423" lon="35.7125684"><ele>1222.4</ele><time>2015-11-22T07:54:01.0000000+00:00</time></trkpt><trkpt lat="31.0361774" lon="35.7125573"><ele>1222.4</ele><time>2015-11-22T07:54:02.0000000+00:00</time></trkpt><trkpt lat="31.0361158" lon="35.7125609"><ele>1222.4</ele><time>2015-11-22T07:54:03.0000000+00:00</time></trkpt><trkpt lat="31.036054" lon="35.7125688"><ele>1222.4</ele><time>2015-11-22T07:54:04.0000000+00:00</time></trkpt><trkpt lat="31.0359873" lon="35.7125731"><ele>1222.4</ele><time>2015-11-22T07:54:05.0000000+00:00</time></trkpt><trkpt lat="31.0359193" lon="35.7125754"><ele>1221.9</ele><time>2015-11-22T07:54:06.0000000+00:00</time></trkpt><trkpt lat="31.0358564" lon="35.7125822"><ele>1221.7</ele><time>2015-11-22T07:54:07.0000000+00:00</time></trkpt><trkpt lat="31.0357802" lon="35.7125922"><ele>1222.0</ele><time>2015-11-22T07:54:08.0000000+00:00</time></trkpt><trkpt lat="31.0357109" lon="35.7126039"><ele>1221.7</ele><time>2015-11-22T07:54:09.0000000+00:00</time></trkpt><trkpt lat="31.0356434" lon="35.7126155"><ele>1222.1</ele><time>2015-11-22T07:54:10.0000000+00:00</time></trkpt><trkpt lat="31.0355904" lon="35.7126287"><ele>1221.7</ele><time>2015-11-22T07:54:11.0000000+00:00</time></trkpt><trkpt lat="31.0355331" lon="35.7126495"><ele>1221.6</ele><time>2015-11-22T07:54:12.0000000+00:00</time></trkpt><trkpt lat="31.0354406" lon="35.7126524"><ele>1222.2</ele><time>2015-11-22T07:54:14.0000000+00:00</time></trkpt><trkpt lat="31.0353762" lon="35.7126707"><ele>1222.3</ele><time>2015-11-22T07:54:15.0000000+00:00</time></trkpt><trkpt lat="31.0353196" lon="35.7126887"><ele>1222.3</ele><time>2015-11-22T07:54:16.0000000+00:00</time></trkpt><trkpt lat="31.0352452" lon="35.7127055"><ele>1222.4</ele><time>2015-11-22T07:54:17.0000000+00:00</time></trkpt><trkpt lat="31.0351839" lon="35.7127213"><ele>1222.4</ele><time>2015-11-22T07:54:18.0000000+00:00</time></trkpt><trkpt lat="31.0351258" lon="35.7127306"><ele>1222.4</ele><time>2015-11-22T07:54:19.0000000+00:00</time></trkpt><trkpt lat="31.0350674" lon="35.7127431"><ele>1222.4</ele><time>2015-11-22T07:54:20.0000000+00:00</time></trkpt><trkpt lat="31.0350066" lon="35.7127509"><ele>1221.9</ele><time>2015-11-22T07:54:21.0000000+00:00</time></trkpt><trkpt lat="31.0349513" lon="35.712764"><ele>1221.7</ele><time>2015-11-22T07:54:22.0000000+00:00</time></trkpt><trkpt lat="31.0348917" lon="35.7127749"><ele>1221.5</ele><time>2015-11-22T07:54:23.0000000+00:00</time></trkpt><trkpt lat="31.034828" lon="35.7127888"><ele>1221.5</ele><time>2015-11-22T07:54:24.0000000+00:00</time></trkpt><trkpt lat="31.0347689" lon="35.7128127"><ele>1221.4</ele><time>2015-11-22T07:54:25.0000000+00:00</time></trkpt><trkpt lat="31.0347135" lon="35.7128311"><ele>1221.4</ele><time>2015-11-22T07:54:26.0000000+00:00</time></trkpt><trkpt lat="31.0346541" lon="35.7128592"><ele>1220.9</ele><time>2015-11-22T07:54:27.0000000+00:00</time></trkpt><trkpt lat="31.0345911" lon="35.7128869"><ele>1220.7</ele><time>2015-11-22T07:54:28.0000000+00:00</time></trkpt><trkpt lat="31.0345293" lon="35.7129044"><ele>1221.0</ele><time>2015-11-22T07:54:29.0000000+00:00</time></trkpt><trkpt lat="31.0344641" lon="35.712935"><ele>1221.2</ele><time>2015-11-22T07:54:30.0000000+00:00</time></trkpt><trkpt lat="31.0343999" lon="35.7129594"><ele>1220.8</ele><time>2015-11-22T07:54:31.0000000+00:00</time></trkpt><trkpt lat="31.0343375" lon="35.7129927"><ele>1220.1</ele><time>2015-11-22T07:54:32.0000000+00:00</time></trkpt><trkpt lat="31.0342052" lon="35.7130586"><ele>1218.8</ele><time>2015-11-22T07:54:34.0000000+00:00</time></trkpt><trkpt lat="31.0340721" lon="35.7131246"><ele>1218.1</ele><time>2015-11-22T07:54:36.0000000+00:00</time></trkpt><trkpt lat="31.0340021" lon="35.7131587"><ele>1217.2</ele><time>2015-11-22T07:54:37.0000000+00:00</time></trkpt><trkpt lat="31.0339333" lon="35.7131923"><ele>1216.8</ele><time>2015-11-22T07:54:38.0000000+00:00</time></trkpt><trkpt lat="31.0338672" lon="35.713232"><ele>1216.6</ele><time>2015-11-22T07:54:39.0000000+00:00</time></trkpt><trkpt lat="31.033804" lon="35.7132634"><ele>1216.0</ele><time>2015-11-22T07:54:40.0000000+00:00</time></trkpt><trkpt lat="31.0337423" lon="35.7132985"><ele>1215.7</ele><time>2015-11-22T07:54:41.0000000+00:00</time></trkpt><trkpt lat="31.0336143" lon="35.713371"><ele>1215.6</ele><time>2015-11-22T07:54:43.0000000+00:00</time></trkpt><trkpt lat="31.0334837" lon="35.713431"><ele>1215.5</ele><time>2015-11-22T07:54:45.0000000+00:00</time></trkpt><trkpt lat="31.0334182" lon="35.7134651"><ele>1214.9</ele><time>2015-11-22T07:54:46.0000000+00:00</time></trkpt><trkpt lat="31.0333564" lon="35.7134958"><ele>1214.7</ele><time>2015-11-22T07:54:47.0000000+00:00</time></trkpt><trkpt lat="31.0332905" lon="35.7135265"><ele>1214.0</ele><time>2015-11-22T07:54:48.0000000+00:00</time></trkpt><trkpt lat="31.0332283" lon="35.7135556"><ele>1213.7</ele><time>2015-11-22T07:54:49.0000000+00:00</time></trkpt><trkpt lat="31.0331627" lon="35.7135876"><ele>1213.1</ele><time>2015-11-22T07:54:50.0000000+00:00</time></trkpt><trkpt lat="31.0330986" lon="35.7136169"><ele>1212.7</ele><time>2015-11-22T07:54:51.0000000+00:00</time></trkpt><trkpt lat="31.0329709" lon="35.7136802"><ele>1212.6</ele><time>2015-11-22T07:54:53.0000000+00:00</time></trkpt><trkpt lat="31.0329073" lon="35.7137105"><ele>1212.5</ele><time>2015-11-22T07:54:54.0000000+00:00</time></trkpt><trkpt lat="31.032846" lon="35.7137442"><ele>1212.4</ele><time>2015-11-22T07:54:55.0000000+00:00</time></trkpt><trkpt lat="31.0327196" lon="35.7138098"><ele>1211.9</ele><time>2015-11-22T07:54:57.0000000+00:00</time></trkpt><trkpt lat="31.0326598" lon="35.713839"><ele>1211.7</ele><time>2015-11-22T07:54:58.0000000+00:00</time></trkpt><trkpt lat="31.0326055" lon="35.7138695"><ele>1212.0</ele><time>2015-11-22T07:54:59.0000000+00:00</time></trkpt><trkpt lat="31.0325504" lon="35.7138932"><ele>1212.2</ele><time>2015-11-22T07:55:00.0000000+00:00</time></trkpt><trkpt lat="31.0324941" lon="35.7139204"><ele>1212.8</ele><time>2015-11-22T07:55:01.0000000+00:00</time></trkpt><trkpt lat="31.0324343" lon="35.7139474"><ele>1213.1</ele><time>2015-11-22T07:55:02.0000000+00:00</time></trkpt><trkpt lat="31.0323779" lon="35.7139763"><ele>1212.8</ele><time>2015-11-22T07:55:03.0000000+00:00</time></trkpt><trkpt lat="31.0323182" lon="35.7139961"><ele>1212.6</ele><time>2015-11-22T07:55:04.0000000+00:00</time></trkpt><trkpt lat="31.0322666" lon="35.7140217"><ele>1212.5</ele><time>2015-11-22T07:55:05.0000000+00:00</time></trkpt><trkpt lat="31.0322155" lon="35.714052"><ele>1212.9</ele><time>2015-11-22T07:55:06.0000000+00:00</time></trkpt><trkpt lat="31.0321672" lon="35.7140717"><ele>1212.7</ele><time>2015-11-22T07:55:07.0000000+00:00</time></trkpt><trkpt lat="31.0321165" lon="35.7141003"><ele>1213.0</ele><time>2015-11-22T07:55:08.0000000+00:00</time></trkpt><trkpt lat="31.0320689" lon="35.7141239"><ele>1213.7</ele><time>2015-11-22T07:55:09.0000000+00:00</time></trkpt><trkpt lat="31.0320166" lon="35.7141515"><ele>1214.1</ele><time>2015-11-22T07:55:10.0000000+00:00</time></trkpt><trkpt lat="31.031977" lon="35.7141782"><ele>1213.7</ele><time>2015-11-22T07:55:11.0000000+00:00</time></trkpt><trkpt lat="31.0319323" lon="35.7142032"><ele>1214.1</ele><time>2015-11-22T07:55:12.0000000+00:00</time></trkpt><trkpt lat="31.0318873" lon="35.7142304"><ele>1214.2</ele><time>2015-11-22T07:55:13.0000000+00:00</time></trkpt><trkpt lat="31.0318423" lon="35.7142563"><ele>1214.8</ele><time>2015-11-22T07:55:14.0000000+00:00</time></trkpt><trkpt lat="31.0317947" lon="35.7142744"><ele>1214.6</ele><time>2015-11-22T07:55:15.0000000+00:00</time></trkpt><trkpt lat="31.0317486" lon="35.7142999"><ele>1214.5</ele><time>2015-11-22T07:55:16.0000000+00:00</time></trkpt><trkpt lat="31.0316669" lon="35.7143477"><ele>1214.4</ele><time>2015-11-22T07:55:18.0000000+00:00</time></trkpt><trkpt lat="31.0316228" lon="35.7143799"><ele>1213.9</ele><time>2015-11-22T07:55:19.0000000+00:00</time></trkpt><trkpt lat="31.0315751" lon="35.7144035"><ele>1213.7</ele><time>2015-11-22T07:55:20.0000000+00:00</time></trkpt><trkpt lat="31.0315265" lon="35.7144312"><ele>1214.0</ele><time>2015-11-22T07:55:21.0000000+00:00</time></trkpt><trkpt lat="31.0314785" lon="35.7144491"><ele>1214.2</ele><time>2015-11-22T07:55:22.0000000+00:00</time></trkpt><trkpt lat="31.031429" lon="35.714477"><ele>1214.3</ele><time>2015-11-22T07:55:23.0000000+00:00</time></trkpt><trkpt lat="31.0313776" lon="35.7145028"><ele>1214.9</ele><time>2015-11-22T07:55:24.0000000+00:00</time></trkpt><trkpt lat="31.0313313" lon="35.7145275"><ele>1215.1</ele><time>2015-11-22T07:55:25.0000000+00:00</time></trkpt><trkpt lat="31.0312818" lon="35.7145462"><ele>1215.3</ele><time>2015-11-22T07:55:26.0000000+00:00</time></trkpt><trkpt lat="31.031231" lon="35.7145639"><ele>1214.8</ele><time>2015-11-22T07:55:27.0000000+00:00</time></trkpt><trkpt lat="31.0311835" lon="35.7145946"><ele>1215.1</ele><time>2015-11-22T07:55:28.0000000+00:00</time></trkpt><trkpt lat="31.0311289" lon="35.7146193"><ele>1215.8</ele><time>2015-11-22T07:55:29.0000000+00:00</time></trkpt><trkpt lat="31.0310226" lon="35.7146646"><ele>1215.6</ele><time>2015-11-22T07:55:31.0000000+00:00</time></trkpt><trkpt lat="31.0309724" lon="35.7146871"><ele>1215.5</ele><time>2015-11-22T07:55:32.0000000+00:00</time></trkpt><trkpt lat="31.0309221" lon="35.7147133"><ele>1215.4</ele><time>2015-11-22T07:55:33.0000000+00:00</time></trkpt><trkpt lat="31.0308668" lon="35.7147449"><ele>1215.4</ele><time>2015-11-22T07:55:34.0000000+00:00</time></trkpt><trkpt lat="31.0308143" lon="35.7147762"><ele>1215.4</ele><time>2015-11-22T07:55:35.0000000+00:00</time></trkpt><trkpt lat="31.0307558" lon="35.714798"><ele>1215.4</ele><time>2015-11-22T07:55:36.0000000+00:00</time></trkpt><trkpt lat="31.0307002" lon="35.714826"><ele>1215.9</ele><time>2015-11-22T07:55:37.0000000+00:00</time></trkpt><trkpt lat="31.0306457" lon="35.7148465"><ele>1216.7</ele><time>2015-11-22T07:55:38.0000000+00:00</time></trkpt><trkpt lat="31.0305955" lon="35.7148591"><ele>1216.5</ele><time>2015-11-22T07:55:39.0000000+00:00</time></trkpt><trkpt lat="31.0305387" lon="35.7148926"><ele>1216.0</ele><time>2015-11-22T07:55:40.0000000+00:00</time></trkpt><trkpt lat="31.0304935" lon="35.7149278"><ele>1216.2</ele><time>2015-11-22T07:55:41.0000000+00:00</time></trkpt><trkpt lat="31.0304081" lon="35.7149638"><ele>1216.8</ele><time>2015-11-22T07:55:43.0000000+00:00</time></trkpt><trkpt lat="31.0303641" lon="35.7149913"><ele>1216.6</ele><time>2015-11-22T07:55:44.0000000+00:00</time></trkpt><trkpt lat="31.0303144" lon="35.7150145"><ele>1216.5</ele><time>2015-11-22T07:55:45.0000000+00:00</time></trkpt><trkpt lat="31.0302639" lon="35.7150391"><ele>1217.0</ele><time>2015-11-22T07:55:46.0000000+00:00</time></trkpt><trkpt lat="31.0302175" lon="35.7150703"><ele>1217.2</ele><time>2015-11-22T07:55:47.0000000+00:00</time></trkpt><trkpt lat="31.0301658" lon="35.7150925"><ele>1217.8</ele><time>2015-11-22T07:55:48.0000000+00:00</time></trkpt><trkpt lat="31.030113" lon="35.7151172"><ele>1218.1</ele><time>2015-11-22T07:55:49.0000000+00:00</time></trkpt><trkpt lat="31.0300694" lon="35.7151333"><ele>1217.7</ele><time>2015-11-22T07:55:50.0000000+00:00</time></trkpt><trkpt lat="31.030028" lon="35.7151565"><ele>1217.6</ele><time>2015-11-22T07:55:51.0000000+00:00</time></trkpt><trkpt lat="31.0299827" lon="35.715179"><ele>1217.5</ele><time>2015-11-22T07:55:52.0000000+00:00</time></trkpt><trkpt lat="31.0299368" lon="35.7152018"><ele>1217.4</ele><time>2015-11-22T07:55:53.0000000+00:00</time></trkpt><trkpt lat="31.0298948" lon="35.7152285"><ele>1217.4</ele><time>2015-11-22T07:55:54.0000000+00:00</time></trkpt><trkpt lat="31.0298051" lon="35.715269"><ele>1217.9</ele><time>2015-11-22T07:55:56.0000000+00:00</time></trkpt><trkpt lat="31.0297617" lon="35.7152902"><ele>1218.2</ele><time>2015-11-22T07:55:57.0000000+00:00</time></trkpt><trkpt lat="31.0297168" lon="35.7153119"><ele>1218.3</ele><time>2015-11-22T07:55:58.0000000+00:00</time></trkpt><trkpt lat="31.0296676" lon="35.7153377"><ele>1218.3</ele><time>2015-11-22T07:55:59.0000000+00:00</time></trkpt><trkpt lat="31.029621" lon="35.715355"><ele>1218.4</ele><time>2015-11-22T07:56:00.0000000+00:00</time></trkpt><trkpt lat="31.029568" lon="35.7153825"><ele>1218.4</ele><time>2015-11-22T07:56:01.0000000+00:00</time></trkpt><trkpt lat="31.0295153" lon="35.7154026"><ele>1218.9</ele><time>2015-11-22T07:56:02.0000000+00:00</time></trkpt><trkpt lat="31.0294717" lon="35.7154317"><ele>1219.1</ele><time>2015-11-22T07:56:03.0000000+00:00</time></trkpt><trkpt lat="31.0294242" lon="35.7154537"><ele>1219.3</ele><time>2015-11-22T07:56:04.0000000+00:00</time></trkpt><trkpt lat="31.0293809" lon="35.7154785"><ele>1219.8</ele><time>2015-11-22T07:56:05.0000000+00:00</time></trkpt><trkpt lat="31.0293376" lon="35.7154971"><ele>1220.1</ele><time>2015-11-22T07:56:06.0000000+00:00</time></trkpt><trkpt lat="31.029273" lon="35.7155265"><ele>1219.6</ele><time>2015-11-22T07:56:08.0000000+00:00</time></trkpt><trkpt lat="31.02923" lon="35.7155449"><ele>1219.5</ele><time>2015-11-22T07:56:09.0000000+00:00</time></trkpt><trkpt lat="31.0291507" lon="35.7155926"><ele>1219.9</ele><time>2015-11-22T07:56:11.0000000+00:00</time></trkpt><trkpt lat="31.0291047" lon="35.715618"><ele>1219.7</ele><time>2015-11-22T07:56:12.0000000+00:00</time></trkpt><trkpt lat="31.0290602" lon="35.7156367"><ele>1219.0</ele><time>2015-11-22T07:56:13.0000000+00:00</time></trkpt><trkpt lat="31.0289719" lon="35.7156783"><ele>1219.3</ele><time>2015-11-22T07:56:15.0000000+00:00</time></trkpt><trkpt lat="31.0289284" lon="35.7157024"><ele>1218.9</ele><time>2015-11-22T07:56:16.0000000+00:00</time></trkpt><trkpt lat="31.0288798" lon="35.715729"><ele>1219.1</ele><time>2015-11-22T07:56:17.0000000+00:00</time></trkpt><trkpt lat="31.0288367" lon="35.7157497"><ele>1219.3</ele><time>2015-11-22T07:56:18.0000000+00:00</time></trkpt><trkpt lat="31.028756" lon="35.7157917"><ele>1219.4</ele><time>2015-11-22T07:56:20.0000000+00:00</time></trkpt><trkpt lat="31.0287104" lon="35.7158082"><ele>1219.4</ele><time>2015-11-22T07:56:21.0000000+00:00</time></trkpt><trkpt lat="31.028642" lon="35.7158384"><ele>1218.6</ele><time>2015-11-22T07:56:23.0000000+00:00</time></trkpt><trkpt lat="31.0285906" lon="35.7158703"><ele>1219.0</ele><time>2015-11-22T07:56:24.0000000+00:00</time></trkpt><trkpt lat="31.028522" lon="35.715917"><ele>1219.1</ele><time>2015-11-22T07:56:26.0000000+00:00</time></trkpt><trkpt lat="31.0284424" lon="35.7159568"><ele>1220.1</ele><time>2015-11-22T07:56:28.0000000+00:00</time></trkpt><trkpt lat="31.0284009" lon="35.7159842"><ele>1220.7</ele><time>2015-11-22T07:56:29.0000000+00:00</time></trkpt><trkpt lat="31.0283456" lon="35.7160097"><ele>1221.2</ele><time>2015-11-22T07:56:31.0000000+00:00</time></trkpt><trkpt lat="31.0282751" lon="35.7160444"><ele>1220.6</ele><time>2015-11-22T07:56:33.0000000+00:00</time></trkpt><trkpt lat="31.0282345" lon="35.7160751"><ele>1220.5</ele><time>2015-11-22T07:56:34.0000000+00:00</time></trkpt><trkpt lat="31.0281611" lon="35.7161059"><ele>1221.9</ele><time>2015-11-22T07:56:36.0000000+00:00</time></trkpt><trkpt lat="31.0280927" lon="35.7161443"><ele>1222.0</ele><time>2015-11-22T07:56:38.0000000+00:00</time></trkpt><trkpt lat="31.0280271" lon="35.7161882"><ele>1222.3</ele><time>2015-11-22T07:56:40.0000000+00:00</time></trkpt><trkpt lat="31.0279614" lon="35.716226"><ele>1222.6</ele><time>2015-11-22T07:56:42.0000000+00:00</time></trkpt><trkpt lat="31.0278939" lon="35.7162616"><ele>1222.5</ele><time>2015-11-22T07:56:44.0000000+00:00</time></trkpt><trkpt lat="31.0278243" lon="35.7162943"><ele>1221.9</ele><time>2015-11-22T07:56:46.0000000+00:00</time></trkpt><trkpt lat="31.027754" lon="35.7163335"><ele>1221.0</ele><time>2015-11-22T07:56:48.0000000+00:00</time></trkpt><trkpt lat="31.0276404" lon="35.7163975"><ele>1221.1</ele><time>2015-11-22T07:56:51.0000000+00:00</time></trkpt><trkpt lat="31.0275582" lon="35.7164325"><ele>1220.6</ele><time>2015-11-22T07:56:53.0000000+00:00</time></trkpt><trkpt lat="31.0274973" lon="35.7164567"><ele>1220.5</ele><time>2015-11-22T07:56:54.0000000+00:00</time></trkpt><trkpt lat="31.0274266" lon="35.7164967"><ele>1220.4</ele><time>2015-11-22T07:56:56.0000000+00:00</time></trkpt><trkpt lat="31.0273732" lon="35.7165294"><ele>1219.9</ele><time>2015-11-22T07:56:58.0000000+00:00</time></trkpt><trkpt lat="31.0273097" lon="35.7165628"><ele>1219.5</ele><time>2015-11-22T07:57:01.0000000+00:00</time></trkpt><trkpt lat="31.0272628" lon="35.716579"><ele>1216.4</ele><time>2015-11-22T07:57:03.0000000+00:00</time></trkpt><trkpt lat="31.027209" lon="35.7166001"><ele>1215.7</ele><time>2015-11-22T07:57:05.0000000+00:00</time></trkpt><trkpt lat="31.0271584" lon="35.716621"><ele>1215.5</ele><time>2015-11-22T07:57:07.0000000+00:00</time></trkpt><trkpt lat="31.0271123" lon="35.7166427"><ele>1214.9</ele><time>2015-11-22T07:57:09.0000000+00:00</time></trkpt><trkpt lat="31.0270686" lon="35.7166621"><ele>1214.8</ele><time>2015-11-22T07:57:11.0000000+00:00</time></trkpt><trkpt lat="31.027008" lon="35.7166958"><ele>1214.4</ele><time>2015-11-22T07:57:14.0000000+00:00</time></trkpt><trkpt lat="31.0269613" lon="35.7167196"><ele>1214.4</ele><time>2015-11-22T07:57:16.0000000+00:00</time></trkpt><trkpt lat="31.0269074" lon="35.7167486"><ele>1213.9</ele><time>2015-11-22T07:57:18.0000000+00:00</time></trkpt><trkpt lat="31.0268157" lon="35.7168054"><ele>1213.5</ele><time>2015-11-22T07:57:21.0000000+00:00</time></trkpt><trkpt lat="31.0267371" lon="35.7168467"><ele>1213.4</ele><time>2015-11-22T07:57:23.0000000+00:00</time></trkpt><trkpt lat="31.0266948" lon="35.716865"><ele>1213.4</ele><time>2015-11-22T07:57:24.0000000+00:00</time></trkpt><trkpt lat="31.0266103" lon="35.7169001"><ele>1213.4</ele><time>2015-11-22T07:57:26.0000000+00:00</time></trkpt><trkpt lat="31.0265683" lon="35.7169206"><ele>1213.4</ele><time>2015-11-22T07:57:27.0000000+00:00</time></trkpt><trkpt lat="31.026508" lon="35.7169523"><ele>1213.4</ele><time>2015-11-22T07:57:28.0000000+00:00</time></trkpt><trkpt lat="31.0264634" lon="35.7169732"><ele>1213.4</ele><time>2015-11-22T07:57:29.0000000+00:00</time></trkpt><trkpt lat="31.0264181" lon="35.7169906"><ele>1213.4</ele><time>2015-11-22T07:57:30.0000000+00:00</time></trkpt><trkpt lat="31.0263683" lon="35.7170099"><ele>1213.4</ele><time>2015-11-22T07:57:31.0000000+00:00</time></trkpt><trkpt lat="31.0263166" lon="35.7170365"><ele>1213.4</ele><time>2015-11-22T07:57:32.0000000+00:00</time></trkpt><trkpt lat="31.0262599" lon="35.7170627"><ele>1213.4</ele><time>2015-11-22T07:57:33.0000000+00:00</time></trkpt><trkpt lat="31.0262099" lon="35.7170895"><ele>1213.4</ele><time>2015-11-22T07:57:34.0000000+00:00</time></trkpt><trkpt lat="31.0261549" lon="35.7171188"><ele>1213.4</ele><time>2015-11-22T07:57:35.0000000+00:00</time></trkpt><trkpt lat="31.0261009" lon="35.7171371"><ele>1213.4</ele><time>2015-11-22T07:57:36.0000000+00:00</time></trkpt><trkpt lat="31.0260343" lon="35.7171714"><ele>1213.9</ele><time>2015-11-22T07:57:37.0000000+00:00</time></trkpt><trkpt lat="31.0259705" lon="35.7171978"><ele>1213.7</ele><time>2015-11-22T07:57:38.0000000+00:00</time></trkpt><trkpt lat="31.0259053" lon="35.717224"><ele>1213.5</ele><time>2015-11-22T07:57:39.0000000+00:00</time></trkpt><trkpt lat="31.0258481" lon="35.7172567"><ele>1213.5</ele><time>2015-11-22T07:57:40.0000000+00:00</time></trkpt><trkpt lat="31.0257861" lon="35.7172856"><ele>1213.4</ele><time>2015-11-22T07:57:41.0000000+00:00</time></trkpt><trkpt lat="31.0257333" lon="35.7173023"><ele>1213.4</ele><time>2015-11-22T07:57:42.0000000+00:00</time></trkpt><trkpt lat="31.0256832" lon="35.7173251"><ele>1213.4</ele><time>2015-11-22T07:57:43.0000000+00:00</time></trkpt><trkpt lat="31.0256188" lon="35.7173492"><ele>1212.7</ele><time>2015-11-22T07:57:45.0000000+00:00</time></trkpt><trkpt lat="31.0255733" lon="35.7173758"><ele>1212.4</ele><time>2015-11-22T07:59:20.0000000+00:00</time></trkpt><trkpt lat="31.0255183" lon="35.7173986"><ele>1212.4</ele><time>2015-11-22T07:59:23.0000000+00:00</time></trkpt><trkpt lat="31.0254688" lon="35.7174233"><ele>1213.2</ele><time>2015-11-22T07:59:25.0000000+00:00</time></trkpt><trkpt lat="31.0254166" lon="35.7174493"><ele>1213.3</ele><time>2015-11-22T07:59:27.0000000+00:00</time></trkpt><trkpt lat="31.0253591" lon="35.7174751"><ele>1213.4</ele><time>2015-11-22T07:59:29.0000000+00:00</time></trkpt><trkpt lat="31.0252916" lon="35.7175027"><ele>1212.6</ele><time>2015-11-22T07:59:31.0000000+00:00</time></trkpt><trkpt lat="31.025184" lon="35.7175473"><ele>1212.5</ele><time>2015-11-22T07:59:33.0000000+00:00</time></trkpt><trkpt lat="31.0251331" lon="35.7175668"><ele>1211.9</ele><time>2015-11-22T07:59:34.0000000+00:00</time></trkpt><trkpt lat="31.0250758" lon="35.7175844"><ele>1211.7</ele><time>2015-11-22T07:59:35.0000000+00:00</time></trkpt><trkpt lat="31.0250227" lon="35.7175992"><ele>1211.5</ele><time>2015-11-22T07:59:36.0000000+00:00</time></trkpt><trkpt lat="31.024963" lon="35.7176247"><ele>1211.5</ele><time>2015-11-22T07:59:37.0000000+00:00</time></trkpt><trkpt lat="31.0249014" lon="35.717649"><ele>1211.4</ele><time>2015-11-22T07:59:38.0000000+00:00</time></trkpt><trkpt lat="31.0248484" lon="35.7176772"><ele>1211.9</ele><time>2015-11-22T07:59:39.0000000+00:00</time></trkpt><trkpt lat="31.0247795" lon="35.7177014"><ele>1212.2</ele><time>2015-11-22T07:59:40.0000000+00:00</time></trkpt><trkpt lat="31.0247183" lon="35.7177228"><ele>1211.8</ele><time>2015-11-22T07:59:41.0000000+00:00</time></trkpt><trkpt lat="31.0246533" lon="35.7177552"><ele>1212.1</ele><time>2015-11-22T07:59:42.0000000+00:00</time></trkpt><trkpt lat="31.0245869" lon="35.7177828"><ele>1211.7</ele><time>2015-11-22T07:59:43.0000000+00:00</time></trkpt><trkpt lat="31.0245316" lon="35.7178023"><ele>1211.6</ele><time>2015-11-22T07:59:44.0000000+00:00</time></trkpt><trkpt lat="31.024477" lon="35.7178342"><ele>1211.5</ele><time>2015-11-22T07:59:45.0000000+00:00</time></trkpt><trkpt lat="31.0244226" lon="35.7178591"><ele>1211.4</ele><time>2015-11-22T07:59:46.0000000+00:00</time></trkpt><trkpt lat="31.0243691" lon="35.7178898"><ele>1211.4</ele><time>2015-11-22T07:59:47.0000000+00:00</time></trkpt><trkpt lat="31.0243075" lon="35.717907"><ele>1211.4</ele><time>2015-11-22T07:59:48.0000000+00:00</time></trkpt><trkpt lat="31.02425" lon="35.7179274"><ele>1210.9</ele><time>2015-11-22T07:59:49.0000000+00:00</time></trkpt><trkpt lat="31.0241959" lon="35.7179571"><ele>1210.7</ele><time>2015-11-22T07:59:50.0000000+00:00</time></trkpt><trkpt lat="31.0241454" lon="35.71798"><ele>1210.5</ele><time>2015-11-22T07:59:51.0000000+00:00</time></trkpt><trkpt lat="31.0240899" lon="35.7180109"><ele>1211.0</ele><time>2015-11-22T07:59:52.0000000+00:00</time></trkpt><trkpt lat="31.0240267" lon="35.7180297"><ele>1211.2</ele><time>2015-11-22T07:59:53.0000000+00:00</time></trkpt><trkpt lat="31.0239133" lon="35.7180819"><ele>1211.3</ele><time>2015-11-22T07:59:55.0000000+00:00</time></trkpt><trkpt lat="31.0238565" lon="35.7181065"><ele>1210.8</ele><time>2015-11-22T07:59:56.0000000+00:00</time></trkpt><trkpt lat="31.0237969" lon="35.7181364"><ele>1210.6</ele><time>2015-11-22T07:59:57.0000000+00:00</time></trkpt><trkpt lat="31.0237338" lon="35.7181624"><ele>1210.5</ele><time>2015-11-22T07:59:58.0000000+00:00</time></trkpt><trkpt lat="31.0236734" lon="35.7181865"><ele>1210.0</ele><time>2015-11-22T07:59:59.0000000+00:00</time></trkpt><trkpt lat="31.0236136" lon="35.718215"><ele>1209.7</ele><time>2015-11-22T08:00:00.0000000+00:00</time></trkpt><trkpt lat="31.0235548" lon="35.7182475"><ele>1209.5</ele><time>2015-11-22T08:00:01.0000000+00:00</time></trkpt><trkpt lat="31.023487" lon="35.7182729"><ele>1209.5</ele><time>2015-11-22T08:00:02.0000000+00:00</time></trkpt><trkpt lat="31.0234275" lon="35.71831"><ele>1209.4</ele><time>2015-11-22T08:00:03.0000000+00:00</time></trkpt><trkpt lat="31.0233632" lon="35.7183408"><ele>1209.4</ele><time>2015-11-22T08:00:04.0000000+00:00</time></trkpt><trkpt lat="31.0232271" lon="35.7183989"><ele>1209.4</ele><time>2015-11-22T08:00:06.0000000+00:00</time></trkpt><trkpt lat="31.0231671" lon="35.7184336"><ele>1208.9</ele><time>2015-11-22T08:00:07.0000000+00:00</time></trkpt><trkpt lat="31.0231077" lon="35.7184535"><ele>1208.7</ele><time>2015-11-22T08:00:08.0000000+00:00</time></trkpt><trkpt lat="31.0230403" lon="35.7184754"><ele>1208.5</ele><time>2015-11-22T08:00:09.0000000+00:00</time></trkpt><trkpt lat="31.0229792" lon="35.7184949"><ele>1208.5</ele><time>2015-11-22T08:00:10.0000000+00:00</time></trkpt><trkpt lat="31.0229227" lon="35.7185165"><ele>1208.4</ele><time>2015-11-22T08:00:11.0000000+00:00</time></trkpt><trkpt lat="31.0228583" lon="35.7185333"><ele>1208.4</ele><time>2015-11-22T08:00:12.0000000+00:00</time></trkpt><trkpt lat="31.0227939" lon="35.7185483"><ele>1208.4</ele><time>2015-11-22T08:00:13.0000000+00:00</time></trkpt><trkpt lat="31.0227266" lon="35.7185614"><ele>1208.4</ele><time>2015-11-22T08:00:14.0000000+00:00</time></trkpt><trkpt lat="31.0226637" lon="35.7185665"><ele>1208.4</ele><time>2015-11-22T08:00:15.0000000+00:00</time></trkpt><trkpt lat="31.0225943" lon="35.718577"><ele>1208.4</ele><time>2015-11-22T08:00:16.0000000+00:00</time></trkpt><trkpt lat="31.0225268" lon="35.7185805"><ele>1208.4</ele><time>2015-11-22T08:00:17.0000000+00:00</time></trkpt><trkpt lat="31.022461" lon="35.7185917"><ele>1207.9</ele><time>2015-11-22T08:00:18.0000000+00:00</time></trkpt><trkpt lat="31.0224016" lon="35.7185956"><ele>1208.2</ele><time>2015-11-22T08:00:19.0000000+00:00</time></trkpt><trkpt lat="31.0223394" lon="35.7185996"><ele>1208.3</ele><time>2015-11-22T08:00:20.0000000+00:00</time></trkpt><trkpt lat="31.022267" lon="35.7185938"><ele>1207.8</ele><time>2015-11-22T08:00:21.0000000+00:00</time></trkpt><trkpt lat="31.0222032" lon="35.7185866"><ele>1207.6</ele><time>2015-11-22T08:00:22.0000000+00:00</time></trkpt><trkpt lat="31.0221304" lon="35.7185809"><ele>1207.5</ele><time>2015-11-22T08:00:23.0000000+00:00</time></trkpt><trkpt lat="31.0220586" lon="35.7185784"><ele>1207.5</ele><time>2015-11-22T08:00:24.0000000+00:00</time></trkpt><trkpt lat="31.0219905" lon="35.7185767"><ele>1206.9</ele><time>2015-11-22T08:00:25.0000000+00:00</time></trkpt><trkpt lat="31.0219224" lon="35.7185851"><ele>1206.7</ele><time>2015-11-22T08:00:26.0000000+00:00</time></trkpt><trkpt lat="31.021847" lon="35.7185848"><ele>1206.5</ele><time>2015-11-22T08:00:27.0000000+00:00</time></trkpt><trkpt lat="31.0217778" lon="35.7185898"><ele>1206.5</ele><time>2015-11-22T08:00:28.0000000+00:00</time></trkpt><trkpt lat="31.0217141" lon="35.7185934"><ele>1206.9</ele><time>2015-11-22T08:00:29.0000000+00:00</time></trkpt><trkpt lat="31.0216447" lon="35.7185924"><ele>1207.2</ele><time>2015-11-22T08:00:30.0000000+00:00</time></trkpt><trkpt lat="31.0215718" lon="35.7185963"><ele>1207.3</ele><time>2015-11-22T08:00:31.0000000+00:00</time></trkpt><trkpt lat="31.0215027" lon="35.7186075"><ele>1207.3</ele><time>2015-11-22T08:00:32.0000000+00:00</time></trkpt><trkpt lat="31.0214212" lon="35.7186011"><ele>1207.4</ele><time>2015-11-22T08:00:33.0000000+00:00</time></trkpt><trkpt lat="31.0213491" lon="35.7186026"><ele>1207.4</ele><time>2015-11-22T08:00:34.0000000+00:00</time></trkpt><trkpt lat="31.0212727" lon="35.7186117"><ele>1206.9</ele><time>2015-11-22T08:00:35.0000000+00:00</time></trkpt><trkpt lat="31.02119" lon="35.7186128"><ele>1206.6</ele><time>2015-11-22T08:00:36.0000000+00:00</time></trkpt><trkpt lat="31.0211167" lon="35.7186139"><ele>1207.0</ele><time>2015-11-22T08:00:37.0000000+00:00</time></trkpt><trkpt lat="31.0210447" lon="35.7186235"><ele>1206.7</ele><time>2015-11-22T08:00:38.0000000+00:00</time></trkpt><trkpt lat="31.0209613" lon="35.718633"><ele>1206.6</ele><time>2015-11-22T08:00:39.0000000+00:00</time></trkpt><trkpt lat="31.0208737" lon="35.718642"><ele>1206.0</ele><time>2015-11-22T08:00:40.0000000+00:00</time></trkpt><trkpt lat="31.0207893" lon="35.7186466"><ele>1206.2</ele><time>2015-11-22T08:00:41.0000000+00:00</time></trkpt><trkpt lat="31.0207054" lon="35.7186542"><ele>1206.3</ele><time>2015-11-22T08:00:42.0000000+00:00</time></trkpt><trkpt lat="31.0206106" lon="35.7186548"><ele>1205.8</ele><time>2015-11-22T08:00:43.0000000+00:00</time></trkpt><trkpt lat="31.0205206" lon="35.7186662"><ele>1205.6</ele><time>2015-11-22T08:00:44.0000000+00:00</time></trkpt><trkpt lat="31.0204194" lon="35.7186714"><ele>1205.5</ele><time>2015-11-22T08:00:45.0000000+00:00</time></trkpt><trkpt lat="31.0203209" lon="35.7186786"><ele>1204.5</ele><time>2015-11-22T08:00:46.0000000+00:00</time></trkpt><trkpt lat="31.0202129" lon="35.7187009"><ele>1204.9</ele><time>2015-11-22T08:00:47.0000000+00:00</time></trkpt><trkpt lat="31.0201246" lon="35.7187342"><ele>1205.7</ele><time>2015-11-22T08:00:48.0000000+00:00</time></trkpt><trkpt lat="31.0200209" lon="35.7187521"><ele>1206.5</ele><time>2015-11-22T08:00:49.0000000+00:00</time></trkpt><trkpt lat="31.0199024" lon="35.7187669"><ele>1207.0</ele><time>2015-11-22T08:00:50.0000000+00:00</time></trkpt><trkpt lat="31.0197886" lon="35.7187842"><ele>1207.2</ele><time>2015-11-22T08:00:51.0000000+00:00</time></trkpt><trkpt lat="31.0196816" lon="35.7188096"><ele>1207.3</ele><time>2015-11-22T08:00:52.0000000+00:00</time></trkpt><trkpt lat="31.0195682" lon="35.7188397"><ele>1206.8</ele><time>2015-11-22T08:00:53.0000000+00:00</time></trkpt><trkpt lat="31.0194677" lon="35.718856"><ele>1206.6</ele><time>2015-11-22T08:00:54.0000000+00:00</time></trkpt><trkpt lat="31.019351" lon="35.7188877"><ele>1206.5</ele><time>2015-11-22T08:00:55.0000000+00:00</time></trkpt><trkpt lat="31.0192307" lon="35.7189201"><ele>1206.5</ele><time>2015-11-22T08:00:56.0000000+00:00</time></trkpt><trkpt lat="31.0191107" lon="35.7189535"><ele>1206.9</ele><time>2015-11-22T08:00:57.0000000+00:00</time></trkpt><trkpt lat="31.0189915" lon="35.7189721"><ele>1207.2</ele><time>2015-11-22T08:00:58.0000000+00:00</time></trkpt><trkpt lat="31.0188683" lon="35.7189988"><ele>1206.8</ele><time>2015-11-22T08:00:59.0000000+00:00</time></trkpt><trkpt lat="31.0187536" lon="35.7190287"><ele>1207.1</ele><time>2015-11-22T08:01:00.0000000+00:00</time></trkpt><trkpt lat="31.0186383" lon="35.7190648"><ele>1206.7</ele><time>2015-11-22T08:01:01.0000000+00:00</time></trkpt><trkpt lat="31.0185098" lon="35.719098"><ele>1206.6</ele><time>2015-11-22T08:01:02.0000000+00:00</time></trkpt><trkpt lat="31.018392" lon="35.7191252"><ele>1206.0</ele><time>2015-11-22T08:01:03.0000000+00:00</time></trkpt><trkpt lat="31.018261" lon="35.7191506"><ele>1205.2</ele><time>2015-11-22T08:01:04.0000000+00:00</time></trkpt><trkpt lat="31.0181415" lon="35.7191868"><ele>1204.3</ele><time>2015-11-22T08:01:05.0000000+00:00</time></trkpt><trkpt lat="31.0180124" lon="35.7192101"><ele>1203.4</ele><time>2015-11-22T08:01:06.0000000+00:00</time></trkpt><trkpt lat="31.0178884" lon="35.7192384"><ele>1202.9</ele><time>2015-11-22T08:01:07.0000000+00:00</time></trkpt><trkpt lat="31.0177547" lon="35.7192641"><ele>1202.1</ele><time>2015-11-22T08:01:08.0000000+00:00</time></trkpt><trkpt lat="31.017628" lon="35.7192931"><ele>1201.8</ele><time>2015-11-22T08:01:09.0000000+00:00</time></trkpt><trkpt lat="31.0175" lon="35.7193232"><ele>1201.6</ele><time>2015-11-22T08:01:10.0000000+00:00</time></trkpt><trkpt lat="31.017373" lon="35.7193481"><ele>1201.5</ele><time>2015-11-22T08:01:11.0000000+00:00</time></trkpt><trkpt lat="31.0172457" lon="35.71938"><ele>1200.9</ele><time>2015-11-22T08:01:12.0000000+00:00</time></trkpt><trkpt lat="31.0171185" lon="35.7194078"><ele>1201.2</ele><time>2015-11-22T08:01:13.0000000+00:00</time></trkpt><trkpt lat="31.0169959" lon="35.7194445"><ele>1201.8</ele><time>2015-11-22T08:01:14.0000000+00:00</time></trkpt><trkpt lat="31.0168698" lon="35.719478"><ele>1202.1</ele><time>2015-11-22T08:01:15.0000000+00:00</time></trkpt><trkpt lat="31.0167539" lon="35.7195089"><ele>1201.7</ele><time>2015-11-22T08:01:16.0000000+00:00</time></trkpt><trkpt lat="31.0166241" lon="35.719547"><ele>1201.1</ele><time>2015-11-22T08:01:17.0000000+00:00</time></trkpt><trkpt lat="31.0164995" lon="35.719579"><ele>1200.2</ele><time>2015-11-22T08:01:18.0000000+00:00</time></trkpt><trkpt lat="31.0163773" lon="35.719616"><ele>1199.8</ele><time>2015-11-22T08:01:19.0000000+00:00</time></trkpt><trkpt lat="31.0162507" lon="35.7196468"><ele>1199.1</ele><time>2015-11-22T08:01:20.0000000+00:00</time></trkpt><trkpt lat="31.0161296" lon="35.7196807"><ele>1198.8</ele><time>2015-11-22T08:01:21.0000000+00:00</time></trkpt><trkpt lat="31.0160066" lon="35.7197038"><ele>1198.6</ele><time>2015-11-22T08:01:22.0000000+00:00</time></trkpt><trkpt lat="31.0158871" lon="35.7197271"><ele>1199.0</ele><time>2015-11-22T08:01:23.0000000+00:00</time></trkpt><trkpt lat="31.0157743" lon="35.7197676"><ele>1199.2</ele><time>2015-11-22T08:01:24.0000000+00:00</time></trkpt><trkpt lat="31.0156546" lon="35.7197976"><ele>1200.3</ele><time>2015-11-22T08:01:25.0000000+00:00</time></trkpt><trkpt lat="31.0155448" lon="35.7198296"><ele>1200.9</ele><time>2015-11-22T08:01:26.0000000+00:00</time></trkpt><trkpt lat="31.0154294" lon="35.7198648"><ele>1200.6</ele><time>2015-11-22T08:01:27.0000000+00:00</time></trkpt><trkpt lat="31.0153227" lon="35.7198992"><ele>1200.5</ele><time>2015-11-22T08:01:28.0000000+00:00</time></trkpt><trkpt lat="31.0152064" lon="35.7199424"><ele>1201.0</ele><time>2015-11-22T08:01:29.0000000+00:00</time></trkpt><trkpt lat="31.0151005" lon="35.7199914"><ele>1201.2</ele><time>2015-11-22T08:01:30.0000000+00:00</time></trkpt><trkpt lat="31.0150023" lon="35.720021"><ele>1200.8</ele><time>2015-11-22T08:01:31.0000000+00:00</time></trkpt><trkpt lat="31.014893" lon="35.7200663"><ele>1200.1</ele><time>2015-11-22T08:01:32.0000000+00:00</time></trkpt><trkpt lat="31.0147837" lon="35.7201031"><ele>1199.2</ele><time>2015-11-22T08:01:33.0000000+00:00</time></trkpt><trkpt lat="31.014679" lon="35.7201437"><ele>1197.8</ele><time>2015-11-22T08:01:34.0000000+00:00</time></trkpt><trkpt lat="31.0145794" lon="35.7201809"><ele>1197.1</ele><time>2015-11-22T08:01:35.0000000+00:00</time></trkpt><trkpt lat="31.0144769" lon="35.7202202"><ele>1196.3</ele><time>2015-11-22T08:01:36.0000000+00:00</time></trkpt><trkpt lat="31.0143786" lon="35.720275"><ele>1196.3</ele><time>2015-11-22T08:01:37.0000000+00:00</time></trkpt><trkpt lat="31.0142766" lon="35.720326"><ele>1195.4</ele><time>2015-11-22T08:01:38.0000000+00:00</time></trkpt><trkpt lat="31.0141768" lon="35.7203816"><ele>1195.4</ele><time>2015-11-22T08:01:39.0000000+00:00</time></trkpt><trkpt lat="31.014081" lon="35.7204273"><ele>1194.9</ele><time>2015-11-22T08:01:40.0000000+00:00</time></trkpt><trkpt lat="31.0139808" lon="35.7204821"><ele>1194.1</ele><time>2015-11-22T08:01:41.0000000+00:00</time></trkpt><trkpt lat="31.013886" lon="35.720533"><ele>1193.8</ele><time>2015-11-22T08:01:42.0000000+00:00</time></trkpt><trkpt lat="31.0137844" lon="35.7205792"><ele>1193.6</ele><time>2015-11-22T08:01:43.0000000+00:00</time></trkpt><trkpt lat="31.0136875" lon="35.7206329"><ele>1193.5</ele><time>2015-11-22T08:01:44.0000000+00:00</time></trkpt><trkpt lat="31.0135889" lon="35.720686"><ele>1192.9</ele><time>2015-11-22T08:01:45.0000000+00:00</time></trkpt><trkpt lat="31.0134937" lon="35.720739"><ele>1192.2</ele><time>2015-11-22T08:01:46.0000000+00:00</time></trkpt><trkpt lat="31.0133912" lon="35.7207927"><ele>1193.3</ele><time>2015-11-22T08:01:47.0000000+00:00</time></trkpt><trkpt lat="31.013285" lon="35.7208453"><ele>1194.3</ele><time>2015-11-22T08:01:48.0000000+00:00</time></trkpt><trkpt lat="31.0131803" lon="35.7208954"><ele>1193.9</ele><time>2015-11-22T08:01:49.0000000+00:00</time></trkpt><trkpt lat="31.0130823" lon="35.7209411"><ele>1194.1</ele><time>2015-11-22T08:01:50.0000000+00:00</time></trkpt><trkpt lat="31.012985" lon="35.7209788"><ele>1194.3</ele><time>2015-11-22T08:01:51.0000000+00:00</time></trkpt><trkpt lat="31.0127838" lon="35.7210514"><ele>1194.8</ele><time>2015-11-22T08:01:53.0000000+00:00</time></trkpt><trkpt lat="31.0126776" lon="35.7210899"><ele>1195.1</ele><time>2015-11-22T08:01:54.0000000+00:00</time></trkpt><trkpt lat="31.0125668" lon="35.7211206"><ele>1196.3</ele><time>2015-11-22T08:01:55.0000000+00:00</time></trkpt><trkpt lat="31.0124579" lon="35.7211521"><ele>1198.3</ele><time>2015-11-22T08:01:56.0000000+00:00</time></trkpt><trkpt lat="31.0123551" lon="35.7211884"><ele>1199.4</ele><time>2015-11-22T08:01:57.0000000+00:00</time></trkpt><trkpt lat="31.0122521" lon="35.7212212"><ele>1198.9</ele><time>2015-11-22T08:01:58.0000000+00:00</time></trkpt><trkpt lat="31.0121346" lon="35.7212605"><ele>1199.1</ele><time>2015-11-22T08:01:59.0000000+00:00</time></trkpt><trkpt lat="31.0120249" lon="35.7212952"><ele>1199.3</ele><time>2015-11-22T08:02:00.0000000+00:00</time></trkpt><trkpt lat="31.0119103" lon="35.7213473"><ele>1199.8</ele><time>2015-11-22T08:02:01.0000000+00:00</time></trkpt><trkpt lat="31.0117889" lon="35.721396"><ele>1199.1</ele><time>2015-11-22T08:02:02.0000000+00:00</time></trkpt><trkpt lat="31.0116665" lon="35.7214514"><ele>1198.3</ele><time>2015-11-22T08:02:03.0000000+00:00</time></trkpt><trkpt lat="31.0115469" lon="35.7214964"><ele>1199.3</ele><time>2015-11-22T08:02:04.0000000+00:00</time></trkpt><trkpt lat="31.0114142" lon="35.7215444"><ele>1199.9</ele><time>2015-11-22T08:02:05.0000000+00:00</time></trkpt><trkpt lat="31.0112847" lon="35.7216045"><ele>1200.1</ele><time>2015-11-22T08:02:06.0000000+00:00</time></trkpt><trkpt lat="31.0111477" lon="35.7216757"><ele>1200.3</ele><time>2015-11-22T08:02:07.0000000+00:00</time></trkpt><trkpt lat="31.0110173" lon="35.721752"><ele>1199.3</ele><time>2015-11-22T08:02:08.0000000+00:00</time></trkpt><trkpt lat="31.0108906" lon="35.7218351"><ele>1198.4</ele><time>2015-11-22T08:02:09.0000000+00:00</time></trkpt><trkpt lat="31.0107727" lon="35.7219295"><ele>1198.4</ele><time>2015-11-22T08:02:10.0000000+00:00</time></trkpt><trkpt lat="31.0106343" lon="35.7220231"><ele>1198.4</ele><time>2015-11-22T08:02:11.0000000+00:00</time></trkpt><trkpt lat="31.0105097" lon="35.7221028"><ele>1198.9</ele><time>2015-11-22T08:02:12.0000000+00:00</time></trkpt><trkpt lat="31.01037" lon="35.7221975"><ele>1199.1</ele><time>2015-11-22T08:02:13.0000000+00:00</time></trkpt><trkpt lat="31.0102323" lon="35.7222876"><ele>1199.3</ele><time>2015-11-22T08:02:14.0000000+00:00</time></trkpt><trkpt lat="31.0101029" lon="35.7223796"><ele>1198.3</ele><time>2015-11-22T08:02:15.0000000+00:00</time></trkpt><trkpt lat="31.0099694" lon="35.7224638"><ele>1196.9</ele><time>2015-11-22T08:02:16.0000000+00:00</time></trkpt><trkpt lat="31.0098262" lon="35.7225422"><ele>1196.6</ele><time>2015-11-22T08:02:17.0000000+00:00</time></trkpt><trkpt lat="31.0096625" lon="35.7226192"><ele>1196.0</ele><time>2015-11-22T08:02:18.0000000+00:00</time></trkpt><trkpt lat="31.0095123" lon="35.722689"><ele>1197.2</ele><time>2015-11-22T08:02:19.0000000+00:00</time></trkpt><trkpt lat="31.009359" lon="35.7227588"><ele>1196.8</ele><time>2015-11-22T08:02:20.0000000+00:00</time></trkpt><trkpt lat="31.0092113" lon="35.7228267"><ele>1197.1</ele><time>2015-11-22T08:02:21.0000000+00:00</time></trkpt><trkpt lat="31.0090543" lon="35.722897"><ele>1196.8</ele><time>2015-11-22T08:02:22.0000000+00:00</time></trkpt><trkpt lat="31.0088968" lon="35.7229664"><ele>1194.6</ele><time>2015-11-22T08:02:23.0000000+00:00</time></trkpt><trkpt lat="31.0087473" lon="35.7230371"><ele>1192.5</ele><time>2015-11-22T08:02:24.0000000+00:00</time></trkpt><trkpt lat="31.008592" lon="35.7231083"><ele>1189.9</ele><time>2015-11-22T08:02:25.0000000+00:00</time></trkpt><trkpt lat="31.008445" lon="35.7231803"><ele>1188.7</ele><time>2015-11-22T08:02:26.0000000+00:00</time></trkpt><trkpt lat="31.0082991" lon="35.7232597"><ele>1186.5</ele><time>2015-11-22T08:02:27.0000000+00:00</time></trkpt><trkpt lat="31.0081486" lon="35.7233278"><ele>1183.0</ele><time>2015-11-22T08:02:28.0000000+00:00</time></trkpt><trkpt lat="31.0080007" lon="35.7233862"><ele>1180.2</ele><time>2015-11-22T08:02:29.0000000+00:00</time></trkpt><trkpt lat="31.0078356" lon="35.7234626"><ele>1182.8</ele><time>2015-11-22T08:02:30.0000000+00:00</time></trkpt><trkpt lat="31.0076902" lon="35.7235222"><ele>1182.1</ele><time>2015-11-22T08:02:31.0000000+00:00</time></trkpt><trkpt lat="31.0075508" lon="35.7235728"><ele>1181.2</ele><time>2015-11-22T08:02:32.0000000+00:00</time></trkpt><trkpt lat="31.0074039" lon="35.7236217"><ele>1179.3</ele><time>2015-11-22T08:02:33.0000000+00:00</time></trkpt><trkpt lat="31.0072568" lon="35.7236628"><ele>1178.4</ele><time>2015-11-22T08:02:34.0000000+00:00</time></trkpt><trkpt lat="31.0071054" lon="35.7237027"><ele>1176.9</ele><time>2015-11-22T08:02:35.0000000+00:00</time></trkpt><trkpt lat="31.0069554" lon="35.7237346"><ele>1175.6</ele><time>2015-11-22T08:02:36.0000000+00:00</time></trkpt><trkpt lat="31.0067991" lon="35.7237607"><ele>1173.0</ele><time>2015-11-22T08:02:37.0000000+00:00</time></trkpt><trkpt lat="31.0066412" lon="35.7237843"><ele>1170.2</ele><time>2015-11-22T08:02:38.0000000+00:00</time></trkpt><trkpt lat="31.006493" lon="35.7238006"><ele>1171.8</ele><time>2015-11-22T08:02:39.0000000+00:00</time></trkpt><trkpt lat="31.006349" lon="35.7238178"><ele>1174.6</ele><time>2015-11-22T08:02:40.0000000+00:00</time></trkpt><trkpt lat="31.00621" lon="35.7238215"><ele>1176.5</ele><time>2015-11-22T08:02:41.0000000+00:00</time></trkpt><trkpt lat="31.0060747" lon="35.7238239"><ele>1177.0</ele><time>2015-11-22T08:02:42.0000000+00:00</time></trkpt><trkpt lat="31.0059386" lon="35.7238127"><ele>1174.7</ele><time>2015-11-22T08:02:43.0000000+00:00</time></trkpt><trkpt lat="31.0058066" lon="35.7237905"><ele>1175.5</ele><time>2015-11-22T08:02:44.0000000+00:00</time></trkpt><trkpt lat="31.0056742" lon="35.7237624"><ele>1177.5</ele><time>2015-11-22T08:02:45.0000000+00:00</time></trkpt><trkpt lat="31.005543" lon="35.7237336"><ele>1177.9</ele><time>2015-11-22T08:02:46.0000000+00:00</time></trkpt><trkpt lat="31.0054116" lon="35.7237015"><ele>1178.7</ele><time>2015-11-22T08:02:47.0000000+00:00</time></trkpt><trkpt lat="31.0052869" lon="35.7236666"><ele>1179.5</ele><time>2015-11-22T08:02:48.0000000+00:00</time></trkpt><trkpt lat="31.0051593" lon="35.7236247"><ele>1180.5</ele><time>2015-11-22T08:02:49.0000000+00:00</time></trkpt><trkpt lat="31.0050366" lon="35.7235906"><ele>1178.9</ele><time>2015-11-22T08:02:50.0000000+00:00</time></trkpt><trkpt lat="31.0049219" lon="35.7235533"><ele>1178.7</ele><time>2015-11-22T08:02:51.0000000+00:00</time></trkpt><trkpt lat="31.0048139" lon="35.7235194"><ele>1177.5</ele><time>2015-11-22T08:02:52.0000000+00:00</time></trkpt><trkpt lat="31.0046962" lon="35.7234935"><ele>1179.5</ele><time>2015-11-22T08:02:53.0000000+00:00</time></trkpt><trkpt lat="31.0045914" lon="35.7234684"><ele>1180.9</ele><time>2015-11-22T08:02:54.0000000+00:00</time></trkpt><trkpt lat="31.0044879" lon="35.723473"><ele>1182.7</ele><time>2015-11-22T08:02:55.0000000+00:00</time></trkpt><trkpt lat="31.0043714" lon="35.7234609"><ele>1175.5</ele><time>2015-11-22T08:02:56.0000000+00:00</time></trkpt><trkpt lat="31.0042575" lon="35.7234735"><ele>1170.0</ele><time>2015-11-22T08:02:57.0000000+00:00</time></trkpt><trkpt lat="31.0041393" lon="35.7234845"><ele>1164.2</ele><time>2015-11-22T08:02:58.0000000+00:00</time></trkpt><trkpt lat="31.0040268" lon="35.7234993"><ele>1159.8</ele><time>2015-11-22T08:02:59.0000000+00:00</time></trkpt><trkpt lat="31.0039073" lon="35.7235274"><ele>1156.1</ele><time>2015-11-22T08:03:00.0000000+00:00</time></trkpt><trkpt lat="31.0037904" lon="35.7235555"><ele>1152.7</ele><time>2015-11-22T08:03:01.0000000+00:00</time></trkpt><trkpt lat="31.0036757" lon="35.7235801"><ele>1151.1</ele><time>2015-11-22T08:03:02.0000000+00:00</time></trkpt><trkpt lat="31.0035528" lon="35.7236076"><ele>1150.2</ele><time>2015-11-22T08:03:03.0000000+00:00</time></trkpt><trkpt lat="31.003441" lon="35.7236422"><ele>1139.8</ele><time>2015-11-22T08:03:04.0000000+00:00</time></trkpt><trkpt lat="31.0033345" lon="35.7236763"><ele>1129.6</ele><time>2015-11-22T08:03:05.0000000+00:00</time></trkpt><trkpt lat="31.003231" lon="35.7237191"><ele>1118.5</ele><time>2015-11-22T08:03:06.0000000+00:00</time></trkpt><trkpt lat="31.0031208" lon="35.7237666"><ele>1109.0</ele><time>2015-11-22T08:03:07.0000000+00:00</time></trkpt><trkpt lat="31.0030175" lon="35.723823"><ele>1102.2</ele><time>2015-11-22T08:03:08.0000000+00:00</time></trkpt><trkpt lat="31.0029274" lon="35.7238771"><ele>1099.8</ele><time>2015-11-22T08:03:09.0000000+00:00</time></trkpt><trkpt lat="31.0028197" lon="35.7239474"><ele>1097.1</ele><time>2015-11-22T08:03:10.0000000+00:00</time></trkpt><trkpt lat="31.0027134" lon="35.7240312"><ele>1093.7</ele><time>2015-11-22T08:03:11.0000000+00:00</time></trkpt><trkpt lat="31.0026155" lon="35.7241098"><ele>1091.1</ele><time>2015-11-22T08:03:12.0000000+00:00</time></trkpt><trkpt lat="31.0025132" lon="35.7241838"><ele>1088.7</ele><time>2015-11-22T08:03:13.0000000+00:00</time></trkpt><trkpt lat="31.0024179" lon="35.7242571"><ele>1087.1</ele><time>2015-11-22T08:03:14.0000000+00:00</time></trkpt><trkpt lat="31.0023274" lon="35.724336"><ele>1085.2</ele><time>2015-11-22T08:03:15.0000000+00:00</time></trkpt><trkpt lat="31.0022554" lon="35.7244114"><ele>1083.3</ele><time>2015-11-22T08:03:16.0000000+00:00</time></trkpt><trkpt lat="31.0022034" lon="35.7244794"><ele>1081.4</ele><time>2015-11-22T08:03:17.0000000+00:00</time></trkpt><trkpt lat="31.0021502" lon="35.7245547"><ele>1079.9</ele><time>2015-11-22T08:03:18.0000000+00:00</time></trkpt><trkpt lat="31.0021039" lon="35.7246265"><ele>1078.6</ele><time>2015-11-22T08:03:19.0000000+00:00</time></trkpt><trkpt lat="31.0020628" lon="35.7246958"><ele>1077.5</ele><time>2015-11-22T08:03:20.0000000+00:00</time></trkpt><trkpt lat="31.002031" lon="35.7247555"><ele>1076.0</ele><time>2015-11-22T08:03:21.0000000+00:00</time></trkpt><trkpt lat="31.0019971" lon="35.724815"><ele>1075.7</ele><time>2015-11-22T08:03:22.0000000+00:00</time></trkpt><trkpt lat="31.0019424" lon="35.7248684"><ele>1075.0</ele><time>2015-11-22T08:03:23.0000000+00:00</time></trkpt><trkpt lat="31.0018917" lon="35.7249232"><ele>1074.2</ele><time>2015-11-22T08:03:24.0000000+00:00</time></trkpt><trkpt lat="31.0018376" lon="35.7249668"><ele>1072.3</ele><time>2015-11-22T08:03:25.0000000+00:00</time></trkpt><trkpt lat="31.001759" lon="35.7250044"><ele>1071.9</ele><time>2015-11-22T08:03:26.0000000+00:00</time></trkpt><trkpt lat="31.0016809" lon="35.7250232"><ele>1071.1</ele><time>2015-11-22T08:03:27.0000000+00:00</time></trkpt><trkpt lat="31.001595" lon="35.7250231"><ele>1070.3</ele><time>2015-11-22T08:03:28.0000000+00:00</time></trkpt><trkpt lat="31.0015054" lon="35.7250126"><ele>1069.8</ele><time>2015-11-22T08:03:29.0000000+00:00</time></trkpt><trkpt lat="31.0014232" lon="35.7249977"><ele>1069.1</ele><time>2015-11-22T08:03:30.0000000+00:00</time></trkpt><trkpt lat="31.0013318" lon="35.724976"><ele>1069.3</ele><time>2015-11-22T08:03:31.0000000+00:00</time></trkpt><trkpt lat="31.0012379" lon="35.7249495"><ele>1069.3</ele><time>2015-11-22T08:03:32.0000000+00:00</time></trkpt><trkpt lat="31.0011445" lon="35.7249276"><ele>1069.4</ele><time>2015-11-22T08:03:33.0000000+00:00</time></trkpt><trkpt lat="31.0010555" lon="35.7249062"><ele>1069.4</ele><time>2015-11-22T08:03:34.0000000+00:00</time></trkpt><trkpt lat="31.0009618" lon="35.7248907"><ele>1068.9</ele><time>2015-11-22T08:03:35.0000000+00:00</time></trkpt><trkpt lat="31.0008582" lon="35.7248786"><ele>1068.1</ele><time>2015-11-22T08:03:36.0000000+00:00</time></trkpt><trkpt lat="31.0007537" lon="35.7248666"><ele>1067.3</ele><time>2015-11-22T08:03:37.0000000+00:00</time></trkpt><trkpt lat="31.000644" lon="35.7248604"><ele>1066.3</ele><time>2015-11-22T08:03:38.0000000+00:00</time></trkpt><trkpt lat="31.0005296" lon="35.7248584"><ele>1065.4</ele><time>2015-11-22T08:03:39.0000000+00:00</time></trkpt><trkpt lat="31.0004145" lon="35.7248586"><ele>1065.4</ele><time>2015-11-22T08:03:40.0000000+00:00</time></trkpt><trkpt lat="31.0003005" lon="35.7248626"><ele>1064.9</ele><time>2015-11-22T08:03:41.0000000+00:00</time></trkpt><trkpt lat="31.0001816" lon="35.7248675"><ele>1064.1</ele><time>2015-11-22T08:03:42.0000000+00:00</time></trkpt><trkpt lat="31.0000626" lon="35.7248749"><ele>1062.8</ele><time>2015-11-22T08:03:43.0000000+00:00</time></trkpt><trkpt lat="30.999828" lon="35.7248847"><ele>1061.6</ele><time>2015-11-22T08:03:45.0000000+00:00</time></trkpt><trkpt lat="30.9997055" lon="35.7248801"><ele>1060.5</ele><time>2015-11-22T08:03:46.0000000+00:00</time></trkpt><trkpt lat="30.9995715" lon="35.7248773"><ele>1058.9</ele><time>2015-11-22T08:03:47.0000000+00:00</time></trkpt><trkpt lat="30.9994395" lon="35.7248623"><ele>1058.2</ele><time>2015-11-22T08:03:48.0000000+00:00</time></trkpt><trkpt lat="30.9993142" lon="35.7248427"><ele>1056.8</ele><time>2015-11-22T08:03:49.0000000+00:00</time></trkpt><trkpt lat="30.9991852" lon="35.7248164"><ele>1055.6</ele><time>2015-11-22T08:03:50.0000000+00:00</time></trkpt><trkpt lat="30.9990671" lon="35.7247706"><ele>1054.5</ele><time>2015-11-22T08:03:51.0000000+00:00</time></trkpt><trkpt lat="30.9989606" lon="35.7247092"><ele>1053.5</ele><time>2015-11-22T08:03:52.0000000+00:00</time></trkpt><trkpt lat="30.9988687" lon="35.7246352"><ele>1052.4</ele><time>2015-11-22T08:03:53.0000000+00:00</time></trkpt><trkpt lat="30.9987917" lon="35.7245508"><ele>1051.9</ele><time>2015-11-22T08:03:54.0000000+00:00</time></trkpt><trkpt lat="30.9987173" lon="35.7244408"><ele>1051.7</ele><time>2015-11-22T08:03:55.0000000+00:00</time></trkpt><trkpt lat="30.9986559" lon="35.7243189"><ele>1051.0</ele><time>2015-11-22T08:03:56.0000000+00:00</time></trkpt><trkpt lat="30.9985928" lon="35.7242045"><ele>1050.2</ele><time>2015-11-22T08:03:57.0000000+00:00</time></trkpt><trkpt lat="30.9985374" lon="35.7240789"><ele>1049.3</ele><time>2015-11-22T08:03:58.0000000+00:00</time></trkpt><trkpt lat="30.9984791" lon="35.723949"><ele>1047.9</ele><time>2015-11-22T08:03:59.0000000+00:00</time></trkpt><trkpt lat="30.9984248" lon="35.7238399"><ele>1047.1</ele><time>2015-11-22T08:04:00.0000000+00:00</time></trkpt><trkpt lat="30.9983637" lon="35.7237142"><ele>1045.8</ele><time>2015-11-22T08:04:01.0000000+00:00</time></trkpt><trkpt lat="30.9982982" lon="35.7235953"><ele>1045.1</ele><time>2015-11-22T08:04:02.0000000+00:00</time></trkpt><trkpt lat="30.9982284" lon="35.723487"><ele>1044.2</ele><time>2015-11-22T08:04:03.0000000+00:00</time></trkpt><trkpt lat="30.9981418" lon="35.7234008"><ele>1043.3</ele><time>2015-11-22T08:04:04.0000000+00:00</time></trkpt><trkpt lat="30.9980475" lon="35.7233252"><ele>1042.4</ele><time>2015-11-22T08:04:05.0000000+00:00</time></trkpt><trkpt lat="30.9979569" lon="35.7232517"><ele>1041.9</ele><time>2015-11-22T08:04:06.0000000+00:00</time></trkpt><trkpt lat="30.9978602" lon="35.7231934"><ele>1041.1</ele><time>2015-11-22T08:04:07.0000000+00:00</time></trkpt><trkpt lat="30.9977683" lon="35.7231472"><ele>1040.3</ele><time>2015-11-22T08:04:08.0000000+00:00</time></trkpt><trkpt lat="30.9976864" lon="35.7230919"><ele>1039.3</ele><time>2015-11-22T08:04:09.0000000+00:00</time></trkpt><trkpt lat="30.9976088" lon="35.723036"><ele>1038.4</ele><time>2015-11-22T08:04:10.0000000+00:00</time></trkpt><trkpt lat="30.9975371" lon="35.7229552"><ele>1037.4</ele><time>2015-11-22T08:04:11.0000000+00:00</time></trkpt><trkpt lat="30.99747" lon="35.7228654"><ele>1036.4</ele><time>2015-11-22T08:04:12.0000000+00:00</time></trkpt><trkpt lat="30.9974319" lon="35.7227516"><ele>1035.9</ele><time>2015-11-22T08:04:13.0000000+00:00</time></trkpt><trkpt lat="30.9974036" lon="35.7226333"><ele>1035.2</ele><time>2015-11-22T08:04:14.0000000+00:00</time></trkpt><trkpt lat="30.9973883" lon="35.7225207"><ele>1034.3</ele><time>2015-11-22T08:04:15.0000000+00:00</time></trkpt><trkpt lat="30.9973768" lon="35.7223988"><ele>1032.8</ele><time>2015-11-22T08:04:16.0000000+00:00</time></trkpt><trkpt lat="30.9973698" lon="35.7222682"><ele>1032.1</ele><time>2015-11-22T08:04:17.0000000+00:00</time></trkpt><trkpt lat="30.9973588" lon="35.7221336"><ele>1031.3</ele><time>2015-11-22T08:04:18.0000000+00:00</time></trkpt><trkpt lat="30.9973466" lon="35.7219969"><ele>1030.3</ele><time>2015-11-22T08:04:19.0000000+00:00</time></trkpt><trkpt lat="30.9973365" lon="35.7218461"><ele>1029.4</ele><time>2015-11-22T08:04:20.0000000+00:00</time></trkpt><trkpt lat="30.9973304" lon="35.721708"><ele>1028.4</ele><time>2015-11-22T08:04:21.0000000+00:00</time></trkpt><trkpt lat="30.9973249" lon="35.7215599"><ele>1027.9</ele><time>2015-11-22T08:04:22.0000000+00:00</time></trkpt><trkpt lat="30.9973225" lon="35.7214101"><ele>1027.1</ele><time>2015-11-22T08:04:23.0000000+00:00</time></trkpt><trkpt lat="30.9973145" lon="35.7212544"><ele>1026.8</ele><time>2015-11-22T08:04:24.0000000+00:00</time></trkpt><trkpt lat="30.9973106" lon="35.7211045"><ele>1026.1</ele><time>2015-11-22T08:04:25.0000000+00:00</time></trkpt><trkpt lat="30.9973109" lon="35.7209594"><ele>1025.2</ele><time>2015-11-22T08:04:26.0000000+00:00</time></trkpt><trkpt lat="30.9973139" lon="35.720825"><ele>1023.8</ele><time>2015-11-22T08:04:27.0000000+00:00</time></trkpt><trkpt lat="30.9973378" lon="35.7205657"><ele>1022.6</ele><time>2015-11-22T08:04:29.0000000+00:00</time></trkpt><trkpt lat="30.9973674" lon="35.7204425"><ele>1021.5</ele><time>2015-11-22T08:04:30.0000000+00:00</time></trkpt><trkpt lat="30.9974062" lon="35.7203267"><ele>1020.5</ele><time>2015-11-22T08:04:31.0000000+00:00</time></trkpt><trkpt lat="30.9974556" lon="35.7202055"><ele>1019.4</ele><time>2015-11-22T08:04:32.0000000+00:00</time></trkpt><trkpt lat="30.9975101" lon="35.7200968"><ele>1018.4</ele><time>2015-11-22T08:04:33.0000000+00:00</time></trkpt><trkpt lat="30.997554" lon="35.7199853"><ele>1017.4</ele><time>2015-11-22T08:04:34.0000000+00:00</time></trkpt><trkpt lat="30.9976001" lon="35.7198972"><ele>1016.4</ele><time>2015-11-22T08:04:35.0000000+00:00</time></trkpt><trkpt lat="30.9976313" lon="35.7198112"><ele>1015.4</ele><time>2015-11-22T08:04:36.0000000+00:00</time></trkpt><trkpt lat="30.9976514" lon="35.7197244"><ele>1014.9</ele><time>2015-11-22T08:04:37.0000000+00:00</time></trkpt><trkpt lat="30.9976779" lon="35.7196602"><ele>1014.2</ele><time>2015-11-22T08:04:38.0000000+00:00</time></trkpt><trkpt lat="30.9976961" lon="35.7195957"><ele>1013.3</ele><time>2015-11-22T08:04:39.0000000+00:00</time></trkpt><trkpt lat="30.9977156" lon="35.7195476"><ele>1012.3</ele><time>2015-11-22T08:04:40.0000000+00:00</time></trkpt><trkpt lat="30.997738" lon="35.7194968"><ele>1011.3</ele><time>2015-11-22T08:04:43.0000000+00:00</time></trkpt><trkpt lat="30.9977447" lon="35.719425"><ele>1012.7</ele><time>2015-11-22T08:05:27.0000000+00:00</time></trkpt><trkpt lat="30.9977536" lon="35.7193353"><ele>1011.2</ele><time>2015-11-22T08:05:29.0000000+00:00</time></trkpt><trkpt lat="30.9977579" lon="35.7192823"><ele>1010.8</ele><time>2015-11-22T08:05:30.0000000+00:00</time></trkpt><trkpt lat="30.9977606" lon="35.7192128"><ele>1010.6</ele><time>2015-11-22T08:05:31.0000000+00:00</time></trkpt><trkpt lat="30.997762" lon="35.7191417"><ele>1010.0</ele><time>2015-11-22T08:05:32.0000000+00:00</time></trkpt><trkpt lat="30.9977586" lon="35.7190684"><ele>1009.2</ele><time>2015-11-22T08:05:33.0000000+00:00</time></trkpt><trkpt lat="30.9977596" lon="35.7189866"><ele>1008.3</ele><time>2015-11-22T08:05:34.0000000+00:00</time></trkpt><trkpt lat="30.997753" lon="35.7189064"><ele>1007.9</ele><time>2015-11-22T08:05:35.0000000+00:00</time></trkpt><trkpt lat="30.9977489" lon="35.7188104"><ele>1007.6</ele><time>2015-11-22T08:05:36.0000000+00:00</time></trkpt><trkpt lat="30.9977444" lon="35.7187143"><ele>1007.0</ele><time>2015-11-22T08:05:37.0000000+00:00</time></trkpt><trkpt lat="30.9977448" lon="35.718615"><ele>1006.2</ele><time>2015-11-22T08:05:38.0000000+00:00</time></trkpt><trkpt lat="30.997742" lon="35.7185046"><ele>1004.8</ele><time>2015-11-22T08:05:39.0000000+00:00</time></trkpt><trkpt lat="30.9977374" lon="35.7183911"><ele>1003.6</ele><time>2015-11-22T08:05:40.0000000+00:00</time></trkpt><trkpt lat="30.9977374" lon="35.718284"><ele>1003.0</ele><time>2015-11-22T08:05:41.0000000+00:00</time></trkpt><trkpt lat="30.9977369" lon="35.7181692"><ele>1002.2</ele><time>2015-11-22T08:05:42.0000000+00:00</time></trkpt><trkpt lat="30.9977297" lon="35.7180555"><ele>1001.3</ele><time>2015-11-22T08:05:43.0000000+00:00</time></trkpt><trkpt lat="30.9977226" lon="35.7179393"><ele>1000.4</ele><time>2015-11-22T08:05:44.0000000+00:00</time></trkpt><trkpt lat="30.997708" lon="35.7178199"><ele>999.4</ele><time>2015-11-22T08:05:45.0000000+00:00</time></trkpt><trkpt lat="30.9976764" lon="35.7176975"><ele>997.9</ele><time>2015-11-22T08:05:46.0000000+00:00</time></trkpt><trkpt lat="30.9976375" lon="35.7175782"><ele>996.1</ele><time>2015-11-22T08:05:47.0000000+00:00</time></trkpt><trkpt lat="30.997591" lon="35.71747"><ele>997.8</ele><time>2015-11-22T08:05:48.0000000+00:00</time></trkpt><trkpt lat="30.9975438" lon="35.7173649"><ele>998.6</ele><time>2015-11-22T08:05:49.0000000+00:00</time></trkpt><trkpt lat="30.9974956" lon="35.7172775"><ele>999.0</ele><time>2015-11-22T08:05:50.0000000+00:00</time></trkpt><trkpt lat="30.9974529" lon="35.7172066"><ele>999.2</ele><time>2015-11-22T08:05:51.0000000+00:00</time></trkpt><trkpt lat="30.9974148" lon="35.7171455"><ele>999.3</ele><time>2015-11-22T08:05:52.0000000+00:00</time></trkpt><trkpt lat="30.9973704" lon="35.7171033"><ele>998.9</ele><time>2015-11-22T08:05:53.0000000+00:00</time></trkpt><trkpt lat="30.9973321" lon="35.7170678"><ele>998.6</ele><time>2015-11-22T08:05:54.0000000+00:00</time></trkpt><trkpt lat="30.9972864" lon="35.7170528"><ele>998.0</ele><time>2015-11-22T08:05:55.0000000+00:00</time></trkpt><trkpt lat="30.9972338" lon="35.7170461"><ele>997.2</ele><time>2015-11-22T08:05:56.0000000+00:00</time></trkpt><trkpt lat="30.9971397" lon="35.7170626"><ele>996.1</ele><time>2015-11-22T08:05:58.0000000+00:00</time></trkpt><trkpt lat="30.9970934" lon="35.7170768"><ele>995.8</ele><time>2015-11-22T08:05:59.0000000+00:00</time></trkpt><trkpt lat="30.9970483" lon="35.7171077"><ele>996.1</ele><time>2015-11-22T08:06:00.0000000+00:00</time></trkpt><trkpt lat="30.9970046" lon="35.717138"><ele>996.2</ele><time>2015-11-22T08:06:01.0000000+00:00</time></trkpt><trkpt lat="30.996939" lon="35.7171906"><ele>995.6</ele><time>2015-11-22T08:06:03.0000000+00:00</time></trkpt><trkpt lat="30.9969109" lon="35.7172358"><ele>995.5</ele><time>2015-11-22T08:06:05.0000000+00:00</time></trkpt><trkpt lat="30.9968774" lon="35.717276"><ele>999.5</ele><time>2015-11-22T08:07:06.0000000+00:00</time></trkpt><trkpt lat="30.9968639" lon="35.7173321"><ele>997.4</ele><time>2015-11-22T08:08:34.0000000+00:00</time></trkpt><trkpt lat="30.9968353" lon="35.7173872"><ele>997.2</ele><time>2015-11-22T08:08:36.0000000+00:00</time></trkpt><trkpt lat="30.9968061" lon="35.7174605"><ele>996.1</ele><time>2015-11-22T08:08:38.0000000+00:00</time></trkpt><trkpt lat="30.9967862" lon="35.7175113"><ele>996.2</ele><time>2015-11-22T08:08:39.0000000+00:00</time></trkpt><trkpt lat="30.9967227" lon="35.7176728"><ele>995.8</ele><time>2015-11-22T08:08:41.0000000+00:00</time></trkpt><trkpt lat="30.996698" lon="35.7177354"><ele>996.6</ele><time>2015-11-22T08:08:42.0000000+00:00</time></trkpt><trkpt lat="30.9966733" lon="35.7178094"><ele>996.5</ele><time>2015-11-22T08:08:43.0000000+00:00</time></trkpt><trkpt lat="30.9966384" lon="35.7178887"><ele>996.5</ele><time>2015-11-22T08:08:44.0000000+00:00</time></trkpt><trkpt lat="30.9966057" lon="35.7179726"><ele>996.4</ele><time>2015-11-22T08:08:45.0000000+00:00</time></trkpt><trkpt lat="30.9965721" lon="35.718064"><ele>996.4</ele><time>2015-11-22T08:08:46.0000000+00:00</time></trkpt><trkpt lat="30.9965412" lon="35.7181565"><ele>995.9</ele><time>2015-11-22T08:08:47.0000000+00:00</time></trkpt><trkpt lat="30.9965048" lon="35.7182508"><ele>995.7</ele><time>2015-11-22T08:08:48.0000000+00:00</time></trkpt><trkpt lat="30.9964639" lon="35.7183529"><ele>995.0</ele><time>2015-11-22T08:08:49.0000000+00:00</time></trkpt><trkpt lat="30.9964204" lon="35.7184672"><ele>994.7</ele><time>2015-11-22T08:08:50.0000000+00:00</time></trkpt><trkpt lat="30.9963908" lon="35.7185753"><ele>994.1</ele><time>2015-11-22T08:08:51.0000000+00:00</time></trkpt><trkpt lat="30.9963537" lon="35.7186944"><ele>993.7</ele><time>2015-11-22T08:08:52.0000000+00:00</time></trkpt><trkpt lat="30.9963257" lon="35.7188088"><ele>992.6</ele><time>2015-11-22T08:08:53.0000000+00:00</time></trkpt><trkpt lat="30.9962984" lon="35.7189364"><ele>994.0</ele><time>2015-11-22T08:08:54.0000000+00:00</time></trkpt><trkpt lat="30.9962681" lon="35.7190623"><ele>995.2</ele><time>2015-11-22T08:08:55.0000000+00:00</time></trkpt><trkpt lat="30.9962208" lon="35.7193184"><ele>994.3</ele><time>2015-11-22T08:08:57.0000000+00:00</time></trkpt><trkpt lat="30.9961998" lon="35.7194337"><ele>993.8</ele><time>2015-11-22T08:08:58.0000000+00:00</time></trkpt><trkpt lat="30.9961736" lon="35.7195605"><ele>993.1</ele><time>2015-11-22T08:08:59.0000000+00:00</time></trkpt><trkpt lat="30.9961474" lon="35.7196852"><ele>992.3</ele><time>2015-11-22T08:09:00.0000000+00:00</time></trkpt><trkpt lat="30.9961155" lon="35.7198134"><ele>990.8</ele><time>2015-11-22T08:09:01.0000000+00:00</time></trkpt><trkpt lat="30.9960901" lon="35.7199425"><ele>990.1</ele><time>2015-11-22T08:09:02.0000000+00:00</time></trkpt><trkpt lat="30.9960612" lon="35.7200658"><ele>989.8</ele><time>2015-11-22T08:09:03.0000000+00:00</time></trkpt><trkpt lat="30.996054" lon="35.7201833"><ele>991.6</ele><time>2015-11-22T08:09:04.0000000+00:00</time></trkpt><trkpt lat="30.996015" lon="35.7203068"><ele>992.5</ele><time>2015-11-22T08:09:05.0000000+00:00</time></trkpt><trkpt lat="30.9959722" lon="35.7204355"><ele>993.4</ele><time>2015-11-22T08:09:06.0000000+00:00</time></trkpt><trkpt lat="30.9959101" lon="35.7205682"><ele>995.4</ele><time>2015-11-22T08:09:07.0000000+00:00</time></trkpt><trkpt lat="30.9958541" lon="35.7206925"><ele>996.4</ele><time>2015-11-22T08:09:08.0000000+00:00</time></trkpt><trkpt lat="30.9957884" lon="35.7208205"><ele>996.9</ele><time>2015-11-22T08:09:09.0000000+00:00</time></trkpt><trkpt lat="30.9957226" lon="35.7209507"><ele>996.7</ele><time>2015-11-22T08:09:10.0000000+00:00</time></trkpt><trkpt lat="30.9956521" lon="35.7210716"><ele>995.5</ele><time>2015-11-22T08:09:11.0000000+00:00</time></trkpt><trkpt lat="30.9955751" lon="35.721195"><ele>995.5</ele><time>2015-11-22T08:09:12.0000000+00:00</time></trkpt><trkpt lat="30.9954966" lon="35.721305"><ele>995.4</ele><time>2015-11-22T08:09:13.0000000+00:00</time></trkpt><trkpt lat="30.9954174" lon="35.721415"><ele>995.9</ele><time>2015-11-22T08:09:14.0000000+00:00</time></trkpt><trkpt lat="30.9953312" lon="35.7215253"><ele>996.2</ele><time>2015-11-22T08:09:15.0000000+00:00</time></trkpt><trkpt lat="30.9952508" lon="35.7216386"><ele>996.3</ele><time>2015-11-22T08:09:16.0000000+00:00</time></trkpt><trkpt lat="30.9951739" lon="35.7217522"><ele>995.8</ele><time>2015-11-22T08:09:17.0000000+00:00</time></trkpt><trkpt lat="30.9950971" lon="35.7218606"><ele>995.6</ele><time>2015-11-22T08:09:18.0000000+00:00</time></trkpt><trkpt lat="30.9950165" lon="35.7219703"><ele>995.5</ele><time>2015-11-22T08:09:19.0000000+00:00</time></trkpt><trkpt lat="30.9949476" lon="35.7220809"><ele>995.5</ele><time>2015-11-22T08:09:20.0000000+00:00</time></trkpt><trkpt lat="30.9948817" lon="35.7221865"><ele>996.4</ele><time>2015-11-22T08:09:21.0000000+00:00</time></trkpt><trkpt lat="30.9948186" lon="35.7222824"><ele>997.4</ele><time>2015-11-22T08:09:22.0000000+00:00</time></trkpt><trkpt lat="30.9947552" lon="35.7223824"><ele>997.4</ele><time>2015-11-22T08:09:23.0000000+00:00</time></trkpt><trkpt lat="30.99469" lon="35.7224834"><ele>996.4</ele><time>2015-11-22T08:09:24.0000000+00:00</time></trkpt><trkpt lat="30.9946293" lon="35.7225902"><ele>995.9</ele><time>2015-11-22T08:09:25.0000000+00:00</time></trkpt><trkpt lat="30.9945666" lon="35.7226899"><ele>996.7</ele><time>2015-11-22T08:09:26.0000000+00:00</time></trkpt><trkpt lat="30.9945024" lon="35.722791"><ele>997.5</ele><time>2015-11-22T08:09:27.0000000+00:00</time></trkpt><trkpt lat="30.9944394" lon="35.7228962"><ele>997.5</ele><time>2015-11-22T08:09:28.0000000+00:00</time></trkpt><trkpt lat="30.994364" lon="35.7229983"><ele>996.9</ele><time>2015-11-22T08:09:29.0000000+00:00</time></trkpt><trkpt lat="30.9942874" lon="35.7231056"><ele>995.2</ele><time>2015-11-22T08:09:30.0000000+00:00</time></trkpt><trkpt lat="30.9942254" lon="35.7232054"><ele>992.8</ele><time>2015-11-22T08:09:31.0000000+00:00</time></trkpt><trkpt lat="30.9941646" lon="35.7233061"><ele>992.6</ele><time>2015-11-22T08:09:32.0000000+00:00</time></trkpt><trkpt lat="30.9941058" lon="35.7234089"><ele>992.0</ele><time>2015-11-22T08:09:33.0000000+00:00</time></trkpt><trkpt lat="30.9940544" lon="35.7235086"><ele>991.7</ele><time>2015-11-22T08:09:34.0000000+00:00</time></trkpt><trkpt lat="30.9940027" lon="35.7236214"><ele>991.1</ele><time>2015-11-22T08:09:35.0000000+00:00</time></trkpt><trkpt lat="30.9939576" lon="35.7237306"><ele>989.7</ele><time>2015-11-22T08:09:36.0000000+00:00</time></trkpt><trkpt lat="30.9939059" lon="35.7238394"><ele>989.6</ele><time>2015-11-22T08:09:37.0000000+00:00</time></trkpt><trkpt lat="30.9938604" lon="35.7239498"><ele>989.5</ele><time>2015-11-22T08:09:38.0000000+00:00</time></trkpt><trkpt lat="30.9938152" lon="35.7240551"><ele>989.4</ele><time>2015-11-22T08:09:39.0000000+00:00</time></trkpt><trkpt lat="30.993776" lon="35.7241642"><ele>988.4</ele><time>2015-11-22T08:09:40.0000000+00:00</time></trkpt><trkpt lat="30.9937365" lon="35.724269"><ele>987.9</ele><time>2015-11-22T08:09:41.0000000+00:00</time></trkpt><trkpt lat="30.9936868" lon="35.7243693"><ele>987.2</ele><time>2015-11-22T08:09:42.0000000+00:00</time></trkpt><trkpt lat="30.9936532" lon="35.7244635"><ele>987.3</ele><time>2015-11-22T08:09:43.0000000+00:00</time></trkpt><trkpt lat="30.9935989" lon="35.7245533"><ele>986.3</ele><time>2015-11-22T08:09:44.0000000+00:00</time></trkpt><trkpt lat="30.9935483" lon="35.7246463"><ele>984.4</ele><time>2015-11-22T08:09:45.0000000+00:00</time></trkpt><trkpt lat="30.9934915" lon="35.7247345"><ele>982.4</ele><time>2015-11-22T08:09:46.0000000+00:00</time></trkpt><trkpt lat="30.9934274" lon="35.7248277"><ele>984.9</ele><time>2015-11-22T08:09:47.0000000+00:00</time></trkpt><trkpt lat="30.9933708" lon="35.7249077"><ele>985.6</ele><time>2015-11-22T08:09:48.0000000+00:00</time></trkpt><trkpt lat="30.9933086" lon="35.7249983"><ele>985.5</ele><time>2015-11-22T08:09:49.0000000+00:00</time></trkpt><trkpt lat="30.993238" lon="35.7250964"><ele>986.0</ele><time>2015-11-22T08:09:50.0000000+00:00</time></trkpt><trkpt lat="30.9931708" lon="35.7251917"><ele>987.2</ele><time>2015-11-22T08:09:51.0000000+00:00</time></trkpt><trkpt lat="30.9931146" lon="35.7252604"><ele>986.8</ele><time>2015-11-22T08:09:52.0000000+00:00</time></trkpt><trkpt lat="30.9930395" lon="35.7253452"><ele>986.6</ele><time>2015-11-22T08:09:53.0000000+00:00</time></trkpt><trkpt lat="30.9929644" lon="35.7254193"><ele>987.5</ele><time>2015-11-22T08:09:54.0000000+00:00</time></trkpt><trkpt lat="30.9928886" lon="35.7254859"><ele>987.5</ele><time>2015-11-22T08:09:55.0000000+00:00</time></trkpt><trkpt lat="30.9928062" lon="35.7255408"><ele>987.9</ele><time>2015-11-22T08:09:56.0000000+00:00</time></trkpt><trkpt lat="30.9927184" lon="35.7256012"><ele>988.2</ele><time>2015-11-22T08:09:57.0000000+00:00</time></trkpt><trkpt lat="30.9926264" lon="35.7256578"><ele>987.8</ele><time>2015-11-22T08:09:58.0000000+00:00</time></trkpt><trkpt lat="30.9925323" lon="35.7257096"><ele>988.1</ele><time>2015-11-22T08:09:59.0000000+00:00</time></trkpt><trkpt lat="30.9924387" lon="35.7257613"><ele>988.2</ele><time>2015-11-22T08:10:00.0000000+00:00</time></trkpt><trkpt lat="30.9923524" lon="35.7258091"><ele>988.8</ele><time>2015-11-22T08:10:01.0000000+00:00</time></trkpt><trkpt lat="30.9922664" lon="35.725856"><ele>987.6</ele><time>2015-11-22T08:10:02.0000000+00:00</time></trkpt><trkpt lat="30.9921812" lon="35.7259073"><ele>987.5</ele><time>2015-11-22T08:10:03.0000000+00:00</time></trkpt><trkpt lat="30.9920967" lon="35.7259567"><ele>987.5</ele><time>2015-11-22T08:10:04.0000000+00:00</time></trkpt><trkpt lat="30.992007" lon="35.7260087"><ele>988.4</ele><time>2015-11-22T08:10:05.0000000+00:00</time></trkpt><trkpt lat="30.991926" lon="35.7260632"><ele>989.4</ele><time>2015-11-22T08:10:06.0000000+00:00</time></trkpt><trkpt lat="30.9918429" lon="35.7261216"><ele>989.9</ele><time>2015-11-22T08:10:07.0000000+00:00</time></trkpt><trkpt lat="30.9917554" lon="35.7261816"><ele>989.2</ele><time>2015-11-22T08:10:08.0000000+00:00</time></trkpt><trkpt lat="30.9916788" lon="35.7262296"><ele>989.3</ele><time>2015-11-22T08:10:09.0000000+00:00</time></trkpt><trkpt lat="30.9915942" lon="35.7262958"><ele>987.8</ele><time>2015-11-22T08:10:10.0000000+00:00</time></trkpt><trkpt lat="30.9915087" lon="35.7263655"><ele>988.1</ele><time>2015-11-22T08:10:11.0000000+00:00</time></trkpt><trkpt lat="30.9914311" lon="35.7264386"><ele>988.3</ele><time>2015-11-22T08:10:12.0000000+00:00</time></trkpt><trkpt lat="30.991363" lon="35.7265228"><ele>988.8</ele><time>2015-11-22T08:10:13.0000000+00:00</time></trkpt><trkpt lat="30.9912944" lon="35.7266119"><ele>987.6</ele><time>2015-11-22T08:10:14.0000000+00:00</time></trkpt><trkpt lat="30.9912256" lon="35.7266972"><ele>987.5</ele><time>2015-11-22T08:10:15.0000000+00:00</time></trkpt><trkpt lat="30.9911644" lon="35.7267724"><ele>988.0</ele><time>2015-11-22T08:10:16.0000000+00:00</time></trkpt><trkpt lat="30.991098" lon="35.7268641"><ele>988.7</ele><time>2015-11-22T08:10:17.0000000+00:00</time></trkpt><trkpt lat="30.9910263" lon="35.726952"><ele>989.0</ele><time>2015-11-22T08:10:18.0000000+00:00</time></trkpt><trkpt lat="30.990953" lon="35.7270403"><ele>988.2</ele><time>2015-11-22T08:10:19.0000000+00:00</time></trkpt><trkpt lat="30.9908921" lon="35.7271198"><ele>987.3</ele><time>2015-11-22T08:10:20.0000000+00:00</time></trkpt><trkpt lat="30.9908281" lon="35.727202"><ele>985.4</ele><time>2015-11-22T08:10:21.0000000+00:00</time></trkpt><trkpt lat="30.9907561" lon="35.7272875"><ele>984.4</ele><time>2015-11-22T08:10:22.0000000+00:00</time></trkpt><trkpt lat="30.9906884" lon="35.7273761"><ele>984.4</ele><time>2015-11-22T08:10:23.0000000+00:00</time></trkpt><trkpt lat="30.9906188" lon="35.727462"><ele>984.4</ele><time>2015-11-22T08:10:24.0000000+00:00</time></trkpt><trkpt lat="30.9905566" lon="35.7275515"><ele>983.9</ele><time>2015-11-22T08:10:25.0000000+00:00</time></trkpt><trkpt lat="30.990494" lon="35.7276456"><ele>983.7</ele><time>2015-11-22T08:10:26.0000000+00:00</time></trkpt><trkpt lat="30.990432" lon="35.7277342"><ele>984.5</ele><time>2015-11-22T08:10:27.0000000+00:00</time></trkpt><trkpt lat="30.9903761" lon="35.7278131"><ele>984.5</ele><time>2015-11-22T08:10:28.0000000+00:00</time></trkpt><trkpt lat="30.9903014" lon="35.7279022"><ele>985.4</ele><time>2015-11-22T08:10:29.0000000+00:00</time></trkpt><trkpt lat="30.9902467" lon="35.7279811"><ele>984.9</ele><time>2015-11-22T08:10:30.0000000+00:00</time></trkpt><trkpt lat="30.9901771" lon="35.7280613"><ele>986.2</ele><time>2015-11-22T08:10:31.0000000+00:00</time></trkpt><trkpt lat="30.9901205" lon="35.7281328"><ele>985.8</ele><time>2015-11-22T08:10:32.0000000+00:00</time></trkpt><trkpt lat="30.9900626" lon="35.7282055"><ele>983.6</ele><time>2015-11-22T08:10:33.0000000+00:00</time></trkpt><trkpt lat="30.9900082" lon="35.7282782"><ele>980.5</ele><time>2015-11-22T08:10:34.0000000+00:00</time></trkpt><trkpt lat="30.9899493" lon="35.7283542"><ele>978.9</ele><time>2015-11-22T08:10:35.0000000+00:00</time></trkpt><trkpt lat="30.9898967" lon="35.7284247"><ele>979.7</ele><time>2015-11-22T08:10:36.0000000+00:00</time></trkpt><trkpt lat="30.9898479" lon="35.7284866"><ele>980.0</ele><time>2015-11-22T08:10:37.0000000+00:00</time></trkpt><trkpt lat="30.9898018" lon="35.7285403"><ele>975.7</ele><time>2015-11-22T08:10:38.0000000+00:00</time></trkpt><trkpt lat="30.9897422" lon="35.7286114"><ele>967.6</ele><time>2015-11-22T08:10:39.0000000+00:00</time></trkpt><trkpt lat="30.9896924" lon="35.7286802"><ele>963.5</ele><time>2015-11-22T08:10:40.0000000+00:00</time></trkpt><trkpt lat="30.9896449" lon="35.7287558"><ele>956.9</ele><time>2015-11-22T08:10:41.0000000+00:00</time></trkpt><trkpt lat="30.9895886" lon="35.7288208"><ele>950.2</ele><time>2015-11-22T08:10:42.0000000+00:00</time></trkpt><trkpt lat="30.9895485" lon="35.7288687"><ele>942.3</ele><time>2015-11-22T08:10:43.0000000+00:00</time></trkpt><trkpt lat="30.9895071" lon="35.7289227"><ele>935.3</ele><time>2015-11-22T08:10:44.0000000+00:00</time></trkpt><trkpt lat="30.9894716" lon="35.7289782"><ele>928.4</ele><time>2015-11-22T08:10:45.0000000+00:00</time></trkpt><trkpt lat="30.9894445" lon="35.7290309"><ele>921.9</ele><time>2015-11-22T08:10:46.0000000+00:00</time></trkpt><trkpt lat="30.9894062" lon="35.7290903"><ele>917.6</ele><time>2015-11-22T08:10:47.0000000+00:00</time></trkpt><trkpt lat="30.9893594" lon="35.7291608"><ele>914.5</ele><time>2015-11-22T08:10:48.0000000+00:00</time></trkpt><trkpt lat="30.9893135" lon="35.7292371"><ele>912.5</ele><time>2015-11-22T08:10:49.0000000+00:00</time></trkpt><trkpt lat="30.9892765" lon="35.729297"><ele>910.9</ele><time>2015-11-22T08:10:50.0000000+00:00</time></trkpt><trkpt lat="30.9892477" lon="35.7293603"><ele>910.7</ele><time>2015-11-22T08:10:51.0000000+00:00</time></trkpt><trkpt lat="30.9892306" lon="35.7294137"><ele>909.5</ele><time>2015-11-22T08:10:52.0000000+00:00</time></trkpt><trkpt lat="30.9891961" lon="35.7294766"><ele>909.0</ele><time>2015-11-22T08:10:53.0000000+00:00</time></trkpt><trkpt lat="30.989174" lon="35.7295384"><ele>908.7</ele><time>2015-11-22T08:10:54.0000000+00:00</time></trkpt><trkpt lat="30.9891584" lon="35.7296016"><ele>908.5</ele><time>2015-11-22T08:10:55.0000000+00:00</time></trkpt><trkpt lat="30.9891437" lon="35.7297084"><ele>933.4</ele><time>2015-11-22T08:10:57.0000000+00:00</time></trkpt><trkpt lat="30.9891313" lon="35.7297756"><ele>945.4</ele><time>2015-11-22T08:10:58.0000000+00:00</time></trkpt><trkpt lat="30.9891157" lon="35.729825"><ele>951.9</ele><time>2015-11-22T08:10:59.0000000+00:00</time></trkpt><trkpt lat="30.9890927" lon="35.7298865"><ele>956.2</ele><time>2015-11-22T08:11:00.0000000+00:00</time></trkpt><trkpt lat="30.9890986" lon="35.7299404"><ele>958.8</ele><time>2015-11-22T08:11:01.0000000+00:00</time></trkpt><trkpt lat="30.9890865" lon="35.730045"><ele>959.5</ele><time>2015-11-22T08:11:03.0000000+00:00</time></trkpt><trkpt lat="30.9890643" lon="35.730123"><ele>958.9</ele><time>2015-11-22T08:11:05.0000000+00:00</time></trkpt><trkpt lat="30.9890652" lon="35.7301813"><ele>957.5</ele><time>2015-11-22T08:11:07.0000000+00:00</time></trkpt><trkpt lat="30.989063" lon="35.7302504"><ele>953.0</ele><time>2015-11-22T08:11:10.0000000+00:00</time></trkpt><trkpt lat="30.9890652" lon="35.7303058"><ele>954.7</ele><time>2015-11-22T08:11:13.0000000+00:00</time></trkpt><trkpt lat="30.9890595" lon="35.7303743"><ele>954.9</ele><time>2015-11-22T08:11:16.0000000+00:00</time></trkpt><trkpt lat="30.9890543" lon="35.7304446"><ele>955.1</ele><time>2015-11-22T08:11:19.0000000+00:00</time></trkpt><trkpt lat="30.9890525" lon="35.7305009"><ele>953.3</ele><time>2015-11-22T08:11:21.0000000+00:00</time></trkpt><trkpt lat="30.9890519" lon="35.7305576"><ele>951.6</ele><time>2015-11-22T08:11:23.0000000+00:00</time></trkpt><trkpt lat="30.989047" lon="35.7306217"><ele>953.5</ele><time>2015-11-22T08:11:25.0000000+00:00</time></trkpt><trkpt lat="30.9890488" lon="35.7307029"><ele>953.7</ele><time>2015-11-22T08:11:27.0000000+00:00</time></trkpt><trkpt lat="30.9890536" lon="35.7307952"><ele>950.5</ele><time>2015-11-22T08:11:29.0000000+00:00</time></trkpt><trkpt lat="30.989059" lon="35.7308935"><ele>952.2</ele><time>2015-11-22T08:11:31.0000000+00:00</time></trkpt><trkpt lat="30.9890591" lon="35.7309972"><ele>950.6</ele><time>2015-11-22T08:11:33.0000000+00:00</time></trkpt><trkpt lat="30.9890555" lon="35.7310898"><ele>951.0</ele><time>2015-11-22T08:11:34.0000000+00:00</time></trkpt><trkpt lat="30.9890562" lon="35.7311542"><ele>951.7</ele><time>2015-11-22T08:11:35.0000000+00:00</time></trkpt><trkpt lat="30.9890519" lon="35.7312132"><ele>950.1</ele><time>2015-11-22T08:11:36.0000000+00:00</time></trkpt><trkpt lat="30.9890506" lon="35.7312764"><ele>948.7</ele><time>2015-11-22T08:11:37.0000000+00:00</time></trkpt><trkpt lat="30.9890438" lon="35.7313426"><ele>946.1</ele><time>2015-11-22T08:11:38.0000000+00:00</time></trkpt><trkpt lat="30.9890431" lon="35.7314042"><ele>943.7</ele><time>2015-11-22T08:11:39.0000000+00:00</time></trkpt><trkpt lat="30.9890421" lon="35.7314734"><ele>941.1</ele><time>2015-11-22T08:11:40.0000000+00:00</time></trkpt><trkpt lat="30.9890433" lon="35.7315357"><ele>939.7</ele><time>2015-11-22T08:11:41.0000000+00:00</time></trkpt><trkpt lat="30.989045" lon="35.7315976"><ele>940.1</ele><time>2015-11-22T08:11:42.0000000+00:00</time></trkpt><trkpt lat="30.9890495" lon="35.7316684"><ele>940.2</ele><time>2015-11-22T08:11:43.0000000+00:00</time></trkpt><trkpt lat="30.9890462" lon="35.7317342"><ele>940.3</ele><time>2015-11-22T08:11:44.0000000+00:00</time></trkpt><trkpt lat="30.989044" lon="35.7318026"><ele>938.4</ele><time>2015-11-22T08:11:45.0000000+00:00</time></trkpt><trkpt lat="30.9890441" lon="35.7318726"><ele>939.4</ele><time>2015-11-22T08:11:46.0000000+00:00</time></trkpt><trkpt lat="30.9890407" lon="35.731943"><ele>940.4</ele><time>2015-11-22T08:11:47.0000000+00:00</time></trkpt><trkpt lat="30.9890425" lon="35.7320177"><ele>939.9</ele><time>2015-11-22T08:11:48.0000000+00:00</time></trkpt><trkpt lat="30.9890407" lon="35.7320868"><ele>943.1</ele><time>2015-11-22T08:11:49.0000000+00:00</time></trkpt><trkpt lat="30.9890384" lon="35.7321575"><ele>942.3</ele><time>2015-11-22T08:11:50.0000000+00:00</time></trkpt><trkpt lat="30.989032" lon="35.7322244"><ele>941.3</ele><time>2015-11-22T08:11:51.0000000+00:00</time></trkpt><trkpt lat="30.9890303" lon="35.7323008"><ele>939.4</ele><time>2015-11-22T08:11:52.0000000+00:00</time></trkpt><trkpt lat="30.9890264" lon="35.732375"><ele>941.4</ele><time>2015-11-22T08:11:53.0000000+00:00</time></trkpt><trkpt lat="30.9890127" lon="35.732451"><ele>941.4</ele><time>2015-11-22T08:11:54.0000000+00:00</time></trkpt><trkpt lat="30.9890002" lon="35.7325265"><ele>942.9</ele><time>2015-11-22T08:11:55.0000000+00:00</time></trkpt><trkpt lat="30.9889897" lon="35.7326059"><ele>943.2</ele><time>2015-11-22T08:11:56.0000000+00:00</time></trkpt><trkpt lat="30.9889724" lon="35.7326782"><ele>942.8</ele><time>2015-11-22T08:11:57.0000000+00:00</time></trkpt><trkpt lat="30.9889492" lon="35.7327557"><ele>942.6</ele><time>2015-11-22T08:11:58.0000000+00:00</time></trkpt><trkpt lat="30.9889234" lon="35.7328312"><ele>944.0</ele><time>2015-11-22T08:11:59.0000000+00:00</time></trkpt><trkpt lat="30.988902" lon="35.7329103"><ele>944.2</ele><time>2015-11-22T08:12:00.0000000+00:00</time></trkpt><trkpt lat="30.9888796" lon="35.7329853"><ele>944.8</ele><time>2015-11-22T08:12:01.0000000+00:00</time></trkpt><trkpt lat="30.9888516" lon="35.7330544"><ele>946.1</ele><time>2015-11-22T08:12:02.0000000+00:00</time></trkpt><trkpt lat="30.9888178" lon="35.7331234"><ele>945.8</ele><time>2015-11-22T08:12:03.0000000+00:00</time></trkpt><trkpt lat="30.988786" lon="35.7331931"><ele>947.6</ele><time>2015-11-22T08:12:04.0000000+00:00</time></trkpt><trkpt lat="30.9887478" lon="35.7332644"><ele>947.0</ele><time>2015-11-22T08:12:05.0000000+00:00</time></trkpt><trkpt lat="30.9887062" lon="35.7333286"><ele>949.2</ele><time>2015-11-22T08:12:06.0000000+00:00</time></trkpt><trkpt lat="30.9886732" lon="35.733397"><ele>949.3</ele><time>2015-11-22T08:12:07.0000000+00:00</time></trkpt><trkpt lat="30.9885993" lon="35.733545"><ele>948.4</ele><time>2015-11-22T08:12:09.0000000+00:00</time></trkpt><trkpt lat="30.988549" lon="35.7336205"><ele>951.4</ele><time>2015-11-22T08:12:10.0000000+00:00</time></trkpt><trkpt lat="30.9885102" lon="35.7336837"><ele>951.4</ele><time>2015-11-22T08:12:11.0000000+00:00</time></trkpt><trkpt lat="30.9884662" lon="35.7337576"><ele>950.9</ele><time>2015-11-22T08:12:12.0000000+00:00</time></trkpt><trkpt lat="30.9884184" lon="35.7338288"><ele>951.6</ele><time>2015-11-22T08:12:13.0000000+00:00</time></trkpt><trkpt lat="30.9883716" lon="35.7338969"><ele>951.5</ele><time>2015-11-22T08:12:14.0000000+00:00</time></trkpt><trkpt lat="30.9883204" lon="35.733973"><ele>952.5</ele><time>2015-11-22T08:12:15.0000000+00:00</time></trkpt><trkpt lat="30.9882823" lon="35.7340462"><ele>950.9</ele><time>2015-11-22T08:12:16.0000000+00:00</time></trkpt><trkpt lat="30.9882356" lon="35.7341279"><ele>947.7</ele><time>2015-11-22T08:12:17.0000000+00:00</time></trkpt><trkpt lat="30.9881951" lon="35.734203"><ele>943.5</ele><time>2015-11-22T08:12:18.0000000+00:00</time></trkpt><trkpt lat="30.9881539" lon="35.7342769"><ele>940.0</ele><time>2015-11-22T08:12:19.0000000+00:00</time></trkpt><trkpt lat="30.9881146" lon="35.7343535"><ele>938.2</ele><time>2015-11-22T08:12:20.0000000+00:00</time></trkpt><trkpt lat="30.9880626" lon="35.7344374"><ele>937.3</ele><time>2015-11-22T08:12:21.0000000+00:00</time></trkpt><trkpt lat="30.9880178" lon="35.7345237"><ele>938.3</ele><time>2015-11-22T08:12:22.0000000+00:00</time></trkpt><trkpt lat="30.987968" lon="35.7346143"><ele>936.4</ele><time>2015-11-22T08:12:23.0000000+00:00</time></trkpt><trkpt lat="30.9879206" lon="35.7347051"><ele>935.4</ele><time>2015-11-22T08:12:24.0000000+00:00</time></trkpt><trkpt lat="30.9878642" lon="35.7347816"><ele>935.4</ele><time>2015-11-22T08:12:25.0000000+00:00</time></trkpt><trkpt lat="30.9878118" lon="35.734866"><ele>935.9</ele><time>2015-11-22T08:12:26.0000000+00:00</time></trkpt><trkpt lat="30.9877646" lon="35.7349484"><ele>936.2</ele><time>2015-11-22T08:12:27.0000000+00:00</time></trkpt><trkpt lat="30.9877117" lon="35.7350313"><ele>938.8</ele><time>2015-11-22T08:12:28.0000000+00:00</time></trkpt><trkpt lat="30.9876565" lon="35.7351263"><ele>939.1</ele><time>2015-11-22T08:12:29.0000000+00:00</time></trkpt><trkpt lat="30.9875999" lon="35.7352233"><ele>941.7</ele><time>2015-11-22T08:12:30.0000000+00:00</time></trkpt><trkpt lat="30.9875449" lon="35.7353049"><ele>944.1</ele><time>2015-11-22T08:12:31.0000000+00:00</time></trkpt><trkpt lat="30.9874908" lon="35.7353903"><ele>945.2</ele><time>2015-11-22T08:12:32.0000000+00:00</time></trkpt><trkpt lat="30.9874347" lon="35.7354756"><ele>942.8</ele><time>2015-11-22T08:12:33.0000000+00:00</time></trkpt><trkpt lat="30.9873864" lon="35.7355602"><ele>940.1</ele><time>2015-11-22T08:12:34.0000000+00:00</time></trkpt><trkpt lat="30.98733" lon="35.7356518"><ele>941.3</ele><time>2015-11-22T08:12:35.0000000+00:00</time></trkpt><trkpt lat="30.9872728" lon="35.735743"><ele>946.8</ele><time>2015-11-22T08:12:36.0000000+00:00</time></trkpt><trkpt lat="30.9872167" lon="35.7358343"><ele>948.1</ele><time>2015-11-22T08:12:37.0000000+00:00</time></trkpt><trkpt lat="30.9871642" lon="35.7359268"><ele>949.3</ele><time>2015-11-22T08:12:38.0000000+00:00</time></trkpt><trkpt lat="30.9871028" lon="35.7360259"><ele>950.8</ele><time>2015-11-22T08:12:39.0000000+00:00</time></trkpt><trkpt lat="30.9870417" lon="35.7361255"><ele>952.6</ele><time>2015-11-22T08:12:40.0000000+00:00</time></trkpt><trkpt lat="30.9869826" lon="35.7362179"><ele>951.5</ele><time>2015-11-22T08:12:41.0000000+00:00</time></trkpt><trkpt lat="30.9869203" lon="35.7363018"><ele>951.5</ele><time>2015-11-22T08:12:42.0000000+00:00</time></trkpt><trkpt lat="30.98686" lon="35.7363908"><ele>950.4</ele><time>2015-11-22T08:12:43.0000000+00:00</time></trkpt><trkpt lat="30.9868025" lon="35.7364834"><ele>948.4</ele><time>2015-11-22T08:12:44.0000000+00:00</time></trkpt><trkpt lat="30.9867427" lon="35.7365866"><ele>946.4</ele><time>2015-11-22T08:12:45.0000000+00:00</time></trkpt><trkpt lat="30.9866873" lon="35.7366817"><ele>944.4</ele><time>2015-11-22T08:12:46.0000000+00:00</time></trkpt><trkpt lat="30.9866314" lon="35.7367824"><ele>942.9</ele><time>2015-11-22T08:12:47.0000000+00:00</time></trkpt><trkpt lat="30.9865809" lon="35.7368733"><ele>947.7</ele><time>2015-11-22T08:12:48.0000000+00:00</time></trkpt><trkpt lat="30.9865205" lon="35.7369725"><ele>948.5</ele><time>2015-11-22T08:12:49.0000000+00:00</time></trkpt><trkpt lat="30.9864588" lon="35.7370692"><ele>948.5</ele><time>2015-11-22T08:12:50.0000000+00:00</time></trkpt><trkpt lat="30.9863916" lon="35.7371587"><ele>948.9</ele><time>2015-11-22T08:12:51.0000000+00:00</time></trkpt><trkpt lat="30.9863154" lon="35.7372396"><ele>949.2</ele><time>2015-11-22T08:12:52.0000000+00:00</time></trkpt><trkpt lat="30.9862406" lon="35.7373221"><ele>947.3</ele><time>2015-11-22T08:12:53.0000000+00:00</time></trkpt><trkpt lat="30.9861625" lon="35.7373958"><ele>944.8</ele><time>2015-11-22T08:12:54.0000000+00:00</time></trkpt><trkpt lat="30.9860762" lon="35.7374728"><ele>945.6</ele><time>2015-11-22T08:12:55.0000000+00:00</time></trkpt><trkpt lat="30.986008" lon="35.7375416"><ele>947.5</ele><time>2015-11-22T08:12:56.0000000+00:00</time></trkpt><trkpt lat="30.985917" lon="35.7376263"><ele>950.0</ele><time>2015-11-22T08:12:57.0000000+00:00</time></trkpt><trkpt lat="30.9858331" lon="35.737711"><ele>950.2</ele><time>2015-11-22T08:12:58.0000000+00:00</time></trkpt><trkpt lat="30.9857524" lon="35.7377932"><ele>949.8</ele><time>2015-11-22T08:12:59.0000000+00:00</time></trkpt><trkpt lat="30.9856704" lon="35.7378666"><ele>949.6</ele><time>2015-11-22T08:13:00.0000000+00:00</time></trkpt><trkpt lat="30.9855939" lon="35.7379432"><ele>949.0</ele><time>2015-11-22T08:13:01.0000000+00:00</time></trkpt><trkpt lat="30.9855136" lon="35.7380247"><ele>950.7</ele><time>2015-11-22T08:13:02.0000000+00:00</time></trkpt><trkpt lat="30.9854383" lon="35.7381058"><ele>951.6</ele><time>2015-11-22T08:13:03.0000000+00:00</time></trkpt><trkpt lat="30.9853699" lon="35.7381925"><ele>951.0</ele><time>2015-11-22T08:13:04.0000000+00:00</time></trkpt><trkpt lat="30.9853083" lon="35.7382867"><ele>950.2</ele><time>2015-11-22T08:13:05.0000000+00:00</time></trkpt><trkpt lat="30.9852467" lon="35.7383701"><ele>948.8</ele><time>2015-11-22T08:13:06.0000000+00:00</time></trkpt><trkpt lat="30.9851821" lon="35.7384649"><ele>948.6</ele><time>2015-11-22T08:13:07.0000000+00:00</time></trkpt><trkpt lat="30.9851278" lon="35.738555"><ele>947.5</ele><time>2015-11-22T08:13:08.0000000+00:00</time></trkpt><trkpt lat="30.9850748" lon="35.7386516"><ele>947.5</ele><time>2015-11-22T08:13:09.0000000+00:00</time></trkpt><trkpt lat="30.9850366" lon="35.7387407"><ele>946.9</ele><time>2015-11-22T08:13:10.0000000+00:00</time></trkpt><trkpt lat="30.9849873" lon="35.738841"><ele>945.7</ele><time>2015-11-22T08:13:11.0000000+00:00</time></trkpt><trkpt lat="30.9849528" lon="35.7389465"><ele>945.5</ele><time>2015-11-22T08:13:12.0000000+00:00</time></trkpt><trkpt lat="30.984927" lon="35.7390436"><ele>943.5</ele><time>2015-11-22T08:13:13.0000000+00:00</time></trkpt><trkpt lat="30.9848978" lon="35.7391417"><ele>939.9</ele><time>2015-11-22T08:13:14.0000000+00:00</time></trkpt><trkpt lat="30.9848657" lon="35.7392518"><ele>938.2</ele><time>2015-11-22T08:13:15.0000000+00:00</time></trkpt><trkpt lat="30.9848545" lon="35.7393432"><ele>939.8</ele><time>2015-11-22T08:13:16.0000000+00:00</time></trkpt><trkpt lat="30.9848299" lon="35.7394369"><ele>939.1</ele><time>2015-11-22T08:13:17.0000000+00:00</time></trkpt><trkpt lat="30.9848061" lon="35.7395216"><ele>937.2</ele><time>2015-11-22T08:13:18.0000000+00:00</time></trkpt><trkpt lat="30.9847723" lon="35.7396169"><ele>934.8</ele><time>2015-11-22T08:13:19.0000000+00:00</time></trkpt><trkpt lat="30.9847262" lon="35.739719"><ele>939.6</ele><time>2015-11-22T08:13:20.0000000+00:00</time></trkpt><trkpt lat="30.984707" lon="35.7398073"><ele>942.0</ele><time>2015-11-22T08:13:21.0000000+00:00</time></trkpt><trkpt lat="30.9846796" lon="35.7398985"><ele>941.2</ele><time>2015-11-22T08:13:22.0000000+00:00</time></trkpt><trkpt lat="30.9846574" lon="35.7399801"><ele>937.8</ele><time>2015-11-22T08:13:23.0000000+00:00</time></trkpt><trkpt lat="30.9846327" lon="35.7400694"><ele>934.6</ele><time>2015-11-22T08:13:24.0000000+00:00</time></trkpt><trkpt lat="30.9846103" lon="35.74016"><ele>935.0</ele><time>2015-11-22T08:13:25.0000000+00:00</time></trkpt><trkpt lat="30.9845865" lon="35.7402358"><ele>931.7</ele><time>2015-11-22T08:13:26.0000000+00:00</time></trkpt><trkpt lat="30.9845631" lon="35.7403084"><ele>932.1</ele><time>2015-11-22T08:13:27.0000000+00:00</time></trkpt><trkpt lat="30.9845423" lon="35.740386"><ele>928.7</ele><time>2015-11-22T08:13:28.0000000+00:00</time></trkpt><trkpt lat="30.9845137" lon="35.7404663"><ele>930.6</ele><time>2015-11-22T08:13:29.0000000+00:00</time></trkpt><trkpt lat="30.9844912" lon="35.7405452"><ele>933.5</ele><time>2015-11-22T08:13:30.0000000+00:00</time></trkpt><trkpt lat="30.9844682" lon="35.740625"><ele>933.9</ele><time>2015-11-22T08:13:31.0000000+00:00</time></trkpt><trkpt lat="30.9844492" lon="35.7406958"><ele>935.7</ele><time>2015-11-22T08:13:32.0000000+00:00</time></trkpt><trkpt lat="30.9844121" lon="35.7407819"><ele>939.0</ele><time>2015-11-22T08:13:33.0000000+00:00</time></trkpt><trkpt lat="30.9843934" lon="35.7408464"><ele>938.7</ele><time>2015-11-22T08:13:34.0000000+00:00</time></trkpt><trkpt lat="30.9843702" lon="35.7409218"><ele>937.1</ele><time>2015-11-22T08:13:35.0000000+00:00</time></trkpt><trkpt lat="30.9843527" lon="35.740994"><ele>938.2</ele><time>2015-11-22T08:13:36.0000000+00:00</time></trkpt><trkpt lat="30.9843358" lon="35.7410714"><ele>938.8</ele><time>2015-11-22T08:13:37.0000000+00:00</time></trkpt><trkpt lat="30.9843142" lon="35.7411348"><ele>938.6</ele><time>2015-11-22T08:13:38.0000000+00:00</time></trkpt><trkpt lat="30.9842945" lon="35.7412048"><ele>936.5</ele><time>2015-11-22T08:13:39.0000000+00:00</time></trkpt><trkpt lat="30.9842767" lon="35.7412682"><ele>937.5</ele><time>2015-11-22T08:13:40.0000000+00:00</time></trkpt><trkpt lat="30.9842565" lon="35.7413353"><ele>937.9</ele><time>2015-11-22T08:13:41.0000000+00:00</time></trkpt><trkpt lat="30.9842321" lon="35.7414064"><ele>937.7</ele><time>2015-11-22T08:13:42.0000000+00:00</time></trkpt><trkpt lat="30.984199" lon="35.7415426"><ele>935.0</ele><time>2015-11-22T08:13:44.0000000+00:00</time></trkpt><trkpt lat="30.9841764" lon="35.7416181"><ele>929.2</ele><time>2015-11-22T08:13:45.0000000+00:00</time></trkpt><trkpt lat="30.9841505" lon="35.7416954"><ele>928.8</ele><time>2015-11-22T08:13:46.0000000+00:00</time></trkpt><trkpt lat="30.9841349" lon="35.7417688"><ele>928.6</ele><time>2015-11-22T08:13:47.0000000+00:00</time></trkpt><trkpt lat="30.9841166" lon="35.7418502"><ele>926.0</ele><time>2015-11-22T08:13:48.0000000+00:00</time></trkpt><trkpt lat="30.984094" lon="35.7419324"><ele>923.2</ele><time>2015-11-22T08:13:49.0000000+00:00</time></trkpt><trkpt lat="30.9840705" lon="35.742013"><ele>921.3</ele><time>2015-11-22T08:13:50.0000000+00:00</time></trkpt><trkpt lat="30.9840528" lon="35.7421126"><ele>923.4</ele><time>2015-11-22T08:13:51.0000000+00:00</time></trkpt><trkpt lat="30.9840394" lon="35.7422014"><ele>923.9</ele><time>2015-11-22T08:13:52.0000000+00:00</time></trkpt><trkpt lat="30.984017" lon="35.7422969"><ele>921.6</ele><time>2015-11-22T08:13:53.0000000+00:00</time></trkpt><trkpt lat="30.983993" lon="35.7423886"><ele>920.5</ele><time>2015-11-22T08:13:54.0000000+00:00</time></trkpt><trkpt lat="30.9839695" lon="35.742488"><ele>921.0</ele><time>2015-11-22T08:13:55.0000000+00:00</time></trkpt><trkpt lat="30.9839482" lon="35.7425968"><ele>921.2</ele><time>2015-11-22T08:13:56.0000000+00:00</time></trkpt><trkpt lat="30.9839244" lon="35.7427008"><ele>916.8</ele><time>2015-11-22T08:13:57.0000000+00:00</time></trkpt><trkpt lat="30.9839003" lon="35.7428068"><ele>916.6</ele><time>2015-11-22T08:13:58.0000000+00:00</time></trkpt><trkpt lat="30.983874" lon="35.7429227"><ele>919.0</ele><time>2015-11-22T08:13:59.0000000+00:00</time></trkpt><trkpt lat="30.9838458" lon="35.7430432"><ele>920.7</ele><time>2015-11-22T08:14:00.0000000+00:00</time></trkpt><trkpt lat="30.9838098" lon="35.7431657"><ele>922.1</ele><time>2015-11-22T08:14:01.0000000+00:00</time></trkpt><trkpt lat="30.9837829" lon="35.7432954"><ele>925.2</ele><time>2015-11-22T08:14:02.0000000+00:00</time></trkpt><trkpt lat="30.9837436" lon="35.7434292"><ele>925.8</ele><time>2015-11-22T08:14:03.0000000+00:00</time></trkpt><trkpt lat="30.983703" lon="35.7435525"><ele>928.6</ele><time>2015-11-22T08:14:04.0000000+00:00</time></trkpt><trkpt lat="30.9836681" lon="35.7436855"><ele>927.5</ele><time>2015-11-22T08:14:05.0000000+00:00</time></trkpt><trkpt lat="30.9836292" lon="35.7438291"><ele>931.0</ele><time>2015-11-22T08:14:06.0000000+00:00</time></trkpt><trkpt lat="30.9835985" lon="35.7439584"><ele>930.7</ele><time>2015-11-22T08:14:07.0000000+00:00</time></trkpt><trkpt lat="30.98353" lon="35.7442273"><ele>929.0</ele><time>2015-11-22T08:14:09.0000000+00:00</time></trkpt><trkpt lat="30.9834982" lon="35.7443663"><ele>925.2</ele><time>2015-11-22T08:14:10.0000000+00:00</time></trkpt><trkpt lat="30.9834682" lon="35.7444955"><ele>921.3</ele><time>2015-11-22T08:14:11.0000000+00:00</time></trkpt><trkpt lat="30.9834332" lon="35.7446276"><ele>920.4</ele><time>2015-11-22T08:14:12.0000000+00:00</time></trkpt><trkpt lat="30.9833945" lon="35.7447622"><ele>920.4</ele><time>2015-11-22T08:14:13.0000000+00:00</time></trkpt><trkpt lat="30.9833538" lon="35.7448991"><ele>917.9</ele><time>2015-11-22T08:14:14.0000000+00:00</time></trkpt><trkpt lat="30.983301" lon="35.7450372"><ele>920.1</ele><time>2015-11-22T08:14:15.0000000+00:00</time></trkpt><trkpt lat="30.9832534" lon="35.7451679"><ele>919.8</ele><time>2015-11-22T08:14:16.0000000+00:00</time></trkpt><trkpt lat="30.9832028" lon="35.7453005"><ele>917.6</ele><time>2015-11-22T08:14:17.0000000+00:00</time></trkpt><trkpt lat="30.9831383" lon="35.7454312"><ele>915.0</ele><time>2015-11-22T08:14:18.0000000+00:00</time></trkpt><trkpt lat="30.9830768" lon="35.74556"><ele>914.7</ele><time>2015-11-22T08:14:19.0000000+00:00</time></trkpt><trkpt lat="30.9830014" lon="35.7456815"><ele>911.1</ele><time>2015-11-22T08:14:20.0000000+00:00</time></trkpt><trkpt lat="30.9829177" lon="35.7458033"><ele>909.7</ele><time>2015-11-22T08:14:21.0000000+00:00</time></trkpt><trkpt lat="30.9828345" lon="35.7459177"><ele>912.6</ele><time>2015-11-22T08:14:22.0000000+00:00</time></trkpt><trkpt lat="30.982741" lon="35.7460409"><ele>913.0</ele><time>2015-11-22T08:14:23.0000000+00:00</time></trkpt><trkpt lat="30.9826485" lon="35.7461647"><ele>912.2</ele><time>2015-11-22T08:14:24.0000000+00:00</time></trkpt><trkpt lat="30.9825513" lon="35.7462816"><ele>914.3</ele><time>2015-11-22T08:14:25.0000000+00:00</time></trkpt><trkpt lat="30.9824534" lon="35.7463993"><ele>914.3</ele><time>2015-11-22T08:14:26.0000000+00:00</time></trkpt><trkpt lat="30.9823565" lon="35.7465125"><ele>917.9</ele><time>2015-11-22T08:14:27.0000000+00:00</time></trkpt><trkpt lat="30.9822563" lon="35.7466335"><ele>922.1</ele><time>2015-11-22T08:14:28.0000000+00:00</time></trkpt><trkpt lat="30.982156" lon="35.7467394"><ele>924.3</ele><time>2015-11-22T08:14:29.0000000+00:00</time></trkpt><trkpt lat="30.9820492" lon="35.7468489"><ele>925.3</ele><time>2015-11-22T08:14:30.0000000+00:00</time></trkpt><trkpt lat="30.9819462" lon="35.7469593"><ele>926.9</ele><time>2015-11-22T08:14:31.0000000+00:00</time></trkpt><trkpt lat="30.981845" lon="35.7470717"><ele>925.6</ele><time>2015-11-22T08:14:32.0000000+00:00</time></trkpt><trkpt lat="30.9817443" lon="35.7471774"><ele>926.5</ele><time>2015-11-22T08:14:33.0000000+00:00</time></trkpt><trkpt lat="30.9816436" lon="35.7472885"><ele>927.0</ele><time>2015-11-22T08:14:34.0000000+00:00</time></trkpt><trkpt lat="30.9815448" lon="35.7473966"><ele>925.2</ele><time>2015-11-22T08:14:35.0000000+00:00</time></trkpt><trkpt lat="30.9814465" lon="35.7474924"><ele>929.8</ele><time>2015-11-22T08:14:36.0000000+00:00</time></trkpt><trkpt lat="30.9813297" lon="35.7476067"><ele>934.6</ele><time>2015-11-22T08:14:37.0000000+00:00</time></trkpt><trkpt lat="30.9812355" lon="35.747706"><ele>936.0</ele><time>2015-11-22T08:14:38.0000000+00:00</time></trkpt><trkpt lat="30.9811347" lon="35.7478083"><ele>936.7</ele><time>2015-11-22T08:14:39.0000000+00:00</time></trkpt><trkpt lat="30.981038" lon="35.7479047"><ele>940.1</ele><time>2015-11-22T08:14:40.0000000+00:00</time></trkpt><trkpt lat="30.9809493" lon="35.7480017"><ele>941.7</ele><time>2015-11-22T08:14:41.0000000+00:00</time></trkpt><trkpt lat="30.9808607" lon="35.7480944"><ele>938.1</ele><time>2015-11-22T08:14:42.0000000+00:00</time></trkpt><trkpt lat="30.9807643" lon="35.748192"><ele>934.2</ele><time>2015-11-22T08:14:43.0000000+00:00</time></trkpt><trkpt lat="30.9806862" lon="35.7482806"><ele>928.8</ele><time>2015-11-22T08:14:44.0000000+00:00</time></trkpt><trkpt lat="30.9806203" lon="35.7483578"><ele>928.6</ele><time>2015-11-22T08:14:45.0000000+00:00</time></trkpt><trkpt lat="30.9805545" lon="35.7484341"><ele>925.5</ele><time>2015-11-22T08:14:46.0000000+00:00</time></trkpt><trkpt lat="30.9804819" lon="35.7485214"><ele>927.0</ele><time>2015-11-22T08:14:47.0000000+00:00</time></trkpt><trkpt lat="30.9804181" lon="35.7485992"><ele>930.7</ele><time>2015-11-22T08:14:48.0000000+00:00</time></trkpt><trkpt lat="30.9803534" lon="35.7486835"><ele>930.5</ele><time>2015-11-22T08:14:49.0000000+00:00</time></trkpt><trkpt lat="30.9803022" lon="35.7487556"><ele>933.0</ele><time>2015-11-22T08:14:50.0000000+00:00</time></trkpt><trkpt lat="30.9802489" lon="35.7488293"><ele>932.2</ele><time>2015-11-22T08:14:51.0000000+00:00</time></trkpt><trkpt lat="30.9801959" lon="35.7489089"><ele>933.3</ele><time>2015-11-22T08:14:52.0000000+00:00</time></trkpt><trkpt lat="30.9801459" lon="35.7489909"><ele>933.3</ele><time>2015-11-22T08:14:53.0000000+00:00</time></trkpt><trkpt lat="30.9800944" lon="35.7490746"><ele>934.9</ele><time>2015-11-22T08:14:54.0000000+00:00</time></trkpt><trkpt lat="30.9800549" lon="35.7491484"><ele>937.1</ele><time>2015-11-22T08:14:55.0000000+00:00</time></trkpt><trkpt lat="30.9800198" lon="35.7492312"><ele>934.3</ele><time>2015-11-22T08:14:56.0000000+00:00</time></trkpt><trkpt lat="30.9799776" lon="35.7493057"><ele>933.8</ele><time>2015-11-22T08:14:57.0000000+00:00</time></trkpt><trkpt lat="30.9799276" lon="35.749396"><ele>933.6</ele><time>2015-11-22T08:14:58.0000000+00:00</time></trkpt><trkpt lat="30.9798857" lon="35.7494709"><ele>933.0</ele><time>2015-11-22T08:14:59.0000000+00:00</time></trkpt><trkpt lat="30.9798479" lon="35.7495564"><ele>915.7</ele><time>2015-11-22T08:15:00.0000000+00:00</time></trkpt><trkpt lat="30.9798118" lon="35.7496359"><ele>901.6</ele><time>2015-11-22T08:15:01.0000000+00:00</time></trkpt><trkpt lat="30.9797693" lon="35.7497282"><ele>891.0</ele><time>2015-11-22T08:15:02.0000000+00:00</time></trkpt><trkpt lat="30.9797316" lon="35.7498247"><ele>881.2</ele><time>2015-11-22T08:15:03.0000000+00:00</time></trkpt><trkpt lat="30.9796934" lon="35.7499192"><ele>872.3</ele><time>2015-11-22T08:15:04.0000000+00:00</time></trkpt><trkpt lat="30.9796585" lon="35.750008"><ele>866.3</ele><time>2015-11-22T08:15:05.0000000+00:00</time></trkpt><trkpt lat="30.9796224" lon="35.7500997"><ele>868.4</ele><time>2015-11-22T08:15:06.0000000+00:00</time></trkpt><trkpt lat="30.979592" lon="35.7501985"><ele>879.9</ele><time>2015-11-22T08:15:07.0000000+00:00</time></trkpt><trkpt lat="30.9795616" lon="35.7503036"><ele>881.1</ele><time>2015-11-22T08:15:08.0000000+00:00</time></trkpt><trkpt lat="30.9795303" lon="35.7504212"><ele>879.3</ele><time>2015-11-22T08:15:09.0000000+00:00</time></trkpt><trkpt lat="30.9795076" lon="35.7505289"><ele>875.3</ele><time>2015-11-22T08:15:10.0000000+00:00</time></trkpt><trkpt lat="30.9794866" lon="35.7506319"><ele>875.9</ele><time>2015-11-22T08:15:11.0000000+00:00</time></trkpt><trkpt lat="30.9794503" lon="35.750754"><ele>875.1</ele><time>2015-11-22T08:15:12.0000000+00:00</time></trkpt><trkpt lat="30.979426" lon="35.7508743"><ele>877.3</ele><time>2015-11-22T08:15:13.0000000+00:00</time></trkpt><trkpt lat="30.9794037" lon="35.7509907"><ele>876.8</ele><time>2015-11-22T08:15:14.0000000+00:00</time></trkpt><trkpt lat="30.9793862" lon="35.7511116"><ele>871.6</ele><time>2015-11-22T08:15:15.0000000+00:00</time></trkpt><trkpt lat="30.9793671" lon="35.7512466"><ele>866.5</ele><time>2015-11-22T08:15:16.0000000+00:00</time></trkpt><trkpt lat="30.979348" lon="35.751383"><ele>862.0</ele><time>2015-11-22T08:15:17.0000000+00:00</time></trkpt><trkpt lat="30.9793271" lon="35.7515147"><ele>864.7</ele><time>2015-11-22T08:15:18.0000000+00:00</time></trkpt><trkpt lat="30.9793122" lon="35.7516402"><ele>860.5</ele><time>2015-11-22T08:15:19.0000000+00:00</time></trkpt><trkpt lat="30.979287" lon="35.7517721"><ele>866.5</ele><time>2015-11-22T08:15:20.0000000+00:00</time></trkpt><trkpt lat="30.9792684" lon="35.7518968"><ele>866.4</ele><time>2015-11-22T08:15:21.0000000+00:00</time></trkpt><trkpt lat="30.9792225" lon="35.752157"><ele>867.4</ele><time>2015-11-22T08:15:23.0000000+00:00</time></trkpt><trkpt lat="30.979203" lon="35.7522877"><ele>871.9</ele><time>2015-11-22T08:15:24.0000000+00:00</time></trkpt><trkpt lat="30.9791839" lon="35.7524179"><ele>871.7</ele><time>2015-11-22T08:15:25.0000000+00:00</time></trkpt><trkpt lat="30.9791593" lon="35.7525518"><ele>872.0</ele><time>2015-11-22T08:15:26.0000000+00:00</time></trkpt><trkpt lat="30.9791326" lon="35.7526799"><ele>870.7</ele><time>2015-11-22T08:15:27.0000000+00:00</time></trkpt><trkpt lat="30.9791079" lon="35.75281"><ele>866.6</ele><time>2015-11-22T08:15:28.0000000+00:00</time></trkpt><trkpt lat="30.9790844" lon="35.7529415"><ele>869.5</ele><time>2015-11-22T08:15:29.0000000+00:00</time></trkpt><trkpt lat="30.979058" lon="35.753068"><ele>867.4</ele><time>2015-11-22T08:15:30.0000000+00:00</time></trkpt><trkpt lat="30.9790055" lon="35.7533229"><ele>870.4</ele><time>2015-11-22T08:15:32.0000000+00:00</time></trkpt><trkpt lat="30.9789522" lon="35.7535747"><ele>871.9</ele><time>2015-11-22T08:15:34.0000000+00:00</time></trkpt><trkpt lat="30.9789117" lon="35.7537003"><ele>870.7</ele><time>2015-11-22T08:15:35.0000000+00:00</time></trkpt><trkpt lat="30.9788722" lon="35.7538172"><ele>871.5</ele><time>2015-11-22T08:15:36.0000000+00:00</time></trkpt><trkpt lat="30.9788276" lon="35.7539419"><ele>868.0</ele><time>2015-11-22T08:15:37.0000000+00:00</time></trkpt><trkpt lat="30.978783" lon="35.7540557"><ele>860.7</ele><time>2015-11-22T08:15:38.0000000+00:00</time></trkpt><trkpt lat="30.9787401" lon="35.7541649"><ele>847.0</ele><time>2015-11-22T08:15:39.0000000+00:00</time></trkpt><trkpt lat="30.97869" lon="35.754267"><ele>830.7</ele><time>2015-11-22T08:15:40.0000000+00:00</time></trkpt><trkpt lat="30.978636" lon="35.754372"><ele>812.6</ele><time>2015-11-22T08:15:41.0000000+00:00</time></trkpt><trkpt lat="30.9785807" lon="35.754469"><ele>798.5</ele><time>2015-11-22T08:15:42.0000000+00:00</time></trkpt><trkpt lat="30.9785279" lon="35.7545496"><ele>791.4</ele><time>2015-11-22T08:15:43.0000000+00:00</time></trkpt><trkpt lat="30.9784693" lon="35.7546344"><ele>784.4</ele><time>2015-11-22T08:15:44.0000000+00:00</time></trkpt><trkpt lat="30.9784051" lon="35.7547214"><ele>778.9</ele><time>2015-11-22T08:15:45.0000000+00:00</time></trkpt><trkpt lat="30.9783438" lon="35.7548035"><ele>773.7</ele><time>2015-11-22T08:15:46.0000000+00:00</time></trkpt><trkpt lat="30.9782833" lon="35.7548889"><ele>768.5</ele><time>2015-11-22T08:15:47.0000000+00:00</time></trkpt><trkpt lat="30.9782259" lon="35.7549764"><ele>765.0</ele><time>2015-11-22T08:15:48.0000000+00:00</time></trkpt><trkpt lat="30.9781677" lon="35.7550596"><ele>762.7</ele><time>2015-11-22T08:15:49.0000000+00:00</time></trkpt><trkpt lat="30.9780997" lon="35.7551454"><ele>761.0</ele><time>2015-11-22T08:15:50.0000000+00:00</time></trkpt><trkpt lat="30.9780333" lon="35.7552281"><ele>760.2</ele><time>2015-11-22T08:15:51.0000000+00:00</time></trkpt><trkpt lat="30.9779737" lon="35.7553"><ele>758.3</ele><time>2015-11-22T08:15:52.0000000+00:00</time></trkpt><trkpt lat="30.9779113" lon="35.7553729"><ele>756.9</ele><time>2015-11-22T08:15:53.0000000+00:00</time></trkpt><trkpt lat="30.9778536" lon="35.7554398"><ele>755.6</ele><time>2015-11-22T08:15:54.0000000+00:00</time></trkpt><trkpt lat="30.9777907" lon="35.755514"><ele>754.5</ele><time>2015-11-22T08:15:55.0000000+00:00</time></trkpt><trkpt lat="30.9777237" lon="35.7555881"><ele>754.0</ele><time>2015-11-22T08:15:56.0000000+00:00</time></trkpt><trkpt lat="30.9776626" lon="35.7556554"><ele>753.2</ele><time>2015-11-22T08:15:57.0000000+00:00</time></trkpt><trkpt lat="30.9776005" lon="35.7557341"><ele>752.8</ele><time>2015-11-22T08:15:58.0000000+00:00</time></trkpt><trkpt lat="30.9775426" lon="35.7558058"><ele>751.6</ele><time>2015-11-22T08:15:59.0000000+00:00</time></trkpt><trkpt lat="30.977481" lon="35.7558872"><ele>751.5</ele><time>2015-11-22T08:16:00.0000000+00:00</time></trkpt><trkpt lat="30.9774183" lon="35.7559727"><ele>751.5</ele><time>2015-11-22T08:16:01.0000000+00:00</time></trkpt><trkpt lat="30.9773494" lon="35.75606"><ele>750.9</ele><time>2015-11-22T08:16:02.0000000+00:00</time></trkpt><trkpt lat="30.9772886" lon="35.7561463"><ele>750.2</ele><time>2015-11-22T08:16:03.0000000+00:00</time></trkpt><trkpt lat="30.977219" lon="35.7562478"><ele>749.8</ele><time>2015-11-22T08:16:04.0000000+00:00</time></trkpt><trkpt lat="30.977177" lon="35.756341"><ele>748.1</ele><time>2015-11-22T08:16:05.0000000+00:00</time></trkpt><trkpt lat="30.9771315" lon="35.756446"><ele>746.2</ele><time>2015-11-22T08:16:06.0000000+00:00</time></trkpt><trkpt lat="30.9770819" lon="35.7565609"><ele>744.8</ele><time>2015-11-22T08:16:07.0000000+00:00</time></trkpt><trkpt lat="30.9770323" lon="35.7566841"><ele>744.1</ele><time>2015-11-22T08:16:08.0000000+00:00</time></trkpt><trkpt lat="30.9769976" lon="35.7568042"><ele>742.8</ele><time>2015-11-22T08:16:09.0000000+00:00</time></trkpt><trkpt lat="30.9769593" lon="35.7569313"><ele>740.6</ele><time>2015-11-22T08:16:10.0000000+00:00</time></trkpt><trkpt lat="30.9769237" lon="35.7570568"><ele>738.5</ele><time>2015-11-22T08:16:11.0000000+00:00</time></trkpt><trkpt lat="30.9768768" lon="35.7571867"><ele>736.9</ele><time>2015-11-22T08:16:12.0000000+00:00</time></trkpt><trkpt lat="30.9768389" lon="35.7573031"><ele>736.7</ele><time>2015-11-22T08:16:13.0000000+00:00</time></trkpt><trkpt lat="30.976794" lon="35.757437"><ele>736.0</ele><time>2015-11-22T08:16:14.0000000+00:00</time></trkpt><trkpt lat="30.9767533" lon="35.7575663"><ele>735.7</ele><time>2015-11-22T08:16:15.0000000+00:00</time></trkpt><trkpt lat="30.9766745" lon="35.7578203"><ele>734.1</ele><time>2015-11-22T08:16:17.0000000+00:00</time></trkpt><trkpt lat="30.9766336" lon="35.7579582"><ele>732.7</ele><time>2015-11-22T08:16:18.0000000+00:00</time></trkpt><trkpt lat="30.9765899" lon="35.7580826"><ele>731.1</ele><time>2015-11-22T08:16:19.0000000+00:00</time></trkpt><trkpt lat="30.9765512" lon="35.7582065"><ele>729.7</ele><time>2015-11-22T08:16:20.0000000+00:00</time></trkpt><trkpt lat="30.9765135" lon="35.7583334"><ele>728.6</ele><time>2015-11-22T08:16:21.0000000+00:00</time></trkpt><trkpt lat="30.9764752" lon="35.7584509"><ele>727.5</ele><time>2015-11-22T08:16:22.0000000+00:00</time></trkpt><trkpt lat="30.976439" lon="35.7585702"><ele>726.4</ele><time>2015-11-22T08:16:23.0000000+00:00</time></trkpt><trkpt lat="30.9763926" lon="35.758685"><ele>725.4</ele><time>2015-11-22T08:16:24.0000000+00:00</time></trkpt><trkpt lat="30.9763512" lon="35.7588021"><ele>724.4</ele><time>2015-11-22T08:16:25.0000000+00:00</time></trkpt><trkpt lat="30.9762652" lon="35.7590395"><ele>723.9</ele><time>2015-11-22T08:16:27.0000000+00:00</time></trkpt><trkpt lat="30.9762129" lon="35.7591484"><ele>723.2</ele><time>2015-11-22T08:16:28.0000000+00:00</time></trkpt><trkpt lat="30.9761712" lon="35.759261"><ele>722.3</ele><time>2015-11-22T08:16:29.0000000+00:00</time></trkpt><trkpt lat="30.9761144" lon="35.7593612"><ele>721.3</ele><time>2015-11-22T08:16:30.0000000+00:00</time></trkpt><trkpt lat="30.9760653" lon="35.7594654"><ele>720.9</ele><time>2015-11-22T08:16:31.0000000+00:00</time></trkpt><trkpt lat="30.9760102" lon="35.7595645"><ele>721.1</ele><time>2015-11-22T08:16:32.0000000+00:00</time></trkpt><trkpt lat="30.9759578" lon="35.7596564"><ele>720.8</ele><time>2015-11-22T08:16:33.0000000+00:00</time></trkpt><trkpt lat="30.975908" lon="35.7597578"><ele>720.6</ele><time>2015-11-22T08:16:34.0000000+00:00</time></trkpt><trkpt lat="30.975845" lon="35.7598491"><ele>720.0</ele><time>2015-11-22T08:16:35.0000000+00:00</time></trkpt><trkpt lat="30.9757882" lon="35.7599404"><ele>718.7</ele><time>2015-11-22T08:16:36.0000000+00:00</time></trkpt><trkpt lat="30.9757372" lon="35.76003"><ele>718.0</ele><time>2015-11-22T08:16:37.0000000+00:00</time></trkpt><trkpt lat="30.975684" lon="35.7601134"><ele>717.7</ele><time>2015-11-22T08:16:38.0000000+00:00</time></trkpt><trkpt lat="30.975632" lon="35.7601976"><ele>717.1</ele><time>2015-11-22T08:16:39.0000000+00:00</time></trkpt><trkpt lat="30.9755779" lon="35.7602884"><ele>716.2</ele><time>2015-11-22T08:16:40.0000000+00:00</time></trkpt><trkpt lat="30.9755094" lon="35.7603695"><ele>715.3</ele><time>2015-11-22T08:16:41.0000000+00:00</time></trkpt><trkpt lat="30.975444" lon="35.7604543"><ele>714.4</ele><time>2015-11-22T08:16:42.0000000+00:00</time></trkpt><trkpt lat="30.9753796" lon="35.7605396"><ele>713.4</ele><time>2015-11-22T08:16:43.0000000+00:00</time></trkpt><trkpt lat="30.9753172" lon="35.7606226"><ele>712.4</ele><time>2015-11-22T08:16:44.0000000+00:00</time></trkpt><trkpt lat="30.9752524" lon="35.7607088"><ele>711.4</ele><time>2015-11-22T08:16:45.0000000+00:00</time></trkpt><trkpt lat="30.9751862" lon="35.7607848"><ele>710.4</ele><time>2015-11-22T08:16:46.0000000+00:00</time></trkpt><trkpt lat="30.9751028" lon="35.7608688"><ele>709.4</ele><time>2015-11-22T08:16:47.0000000+00:00</time></trkpt><trkpt lat="30.975016" lon="35.7609531"><ele>708.4</ele><time>2015-11-22T08:16:48.0000000+00:00</time></trkpt><trkpt lat="30.9749285" lon="35.761037"><ele>707.4</ele><time>2015-11-22T08:16:49.0000000+00:00</time></trkpt><trkpt lat="30.9748356" lon="35.7611191"><ele>706.4</ele><time>2015-11-22T08:16:50.0000000+00:00</time></trkpt><trkpt lat="30.97465" lon="35.761266"><ele>705.4</ele><time>2015-11-22T08:16:52.0000000+00:00</time></trkpt><trkpt lat="30.9745503" lon="35.7613386"><ele>704.4</ele><time>2015-11-22T08:16:53.0000000+00:00</time></trkpt><trkpt lat="30.9744557" lon="35.7613857"><ele>705.4</ele><time>2015-11-22T08:16:54.0000000+00:00</time></trkpt><trkpt lat="30.9743572" lon="35.7614551"><ele>705.9</ele><time>2015-11-22T08:16:55.0000000+00:00</time></trkpt><trkpt lat="30.9742562" lon="35.7615186"><ele>705.2</ele><time>2015-11-22T08:16:56.0000000+00:00</time></trkpt><trkpt lat="30.974157" lon="35.7615795"><ele>704.3</ele><time>2015-11-22T08:16:57.0000000+00:00</time></trkpt><trkpt lat="30.9740587" lon="35.7616457"><ele>702.8</ele><time>2015-11-22T08:16:58.0000000+00:00</time></trkpt><trkpt lat="30.9739613" lon="35.7617106"><ele>700.6</ele><time>2015-11-22T08:16:59.0000000+00:00</time></trkpt><trkpt lat="30.9738568" lon="35.7617753"><ele>698.5</ele><time>2015-11-22T08:17:00.0000000+00:00</time></trkpt><trkpt lat="30.9737507" lon="35.7618458"><ele>697.5</ele><time>2015-11-22T08:17:01.0000000+00:00</time></trkpt><trkpt lat="30.9736461" lon="35.7619142"><ele>695.9</ele><time>2015-11-22T08:17:02.0000000+00:00</time></trkpt><trkpt lat="30.9735412" lon="35.7619775"><ele>694.2</ele><time>2015-11-22T08:17:03.0000000+00:00</time></trkpt><trkpt lat="30.9734301" lon="35.7620439"><ele>692.3</ele><time>2015-11-22T08:17:04.0000000+00:00</time></trkpt><trkpt lat="30.9733455" lon="35.7621006"><ele>690.8</ele><time>2015-11-22T08:17:05.0000000+00:00</time></trkpt><trkpt lat="30.9732331" lon="35.7621726"><ele>689.1</ele><time>2015-11-22T08:17:06.0000000+00:00</time></trkpt><trkpt lat="30.9731183" lon="35.7622499"><ele>688.3</ele><time>2015-11-22T08:17:07.0000000+00:00</time></trkpt><trkpt lat="30.9730052" lon="35.7623326"><ele>687.3</ele><time>2015-11-22T08:17:08.0000000+00:00</time></trkpt><trkpt lat="30.9728899" lon="35.7624091"><ele>685.9</ele><time>2015-11-22T08:17:09.0000000+00:00</time></trkpt><trkpt lat="30.9727712" lon="35.762487"><ele>684.6</ele><time>2015-11-22T08:17:10.0000000+00:00</time></trkpt><trkpt lat="30.9726502" lon="35.7625618"><ele>683.5</ele><time>2015-11-22T08:17:11.0000000+00:00</time></trkpt><trkpt lat="30.9725265" lon="35.7626417"><ele>682.5</ele><time>2015-11-22T08:17:12.0000000+00:00</time></trkpt><trkpt lat="30.9724016" lon="35.7627187"><ele>681.9</ele><time>2015-11-22T08:17:13.0000000+00:00</time></trkpt><trkpt lat="30.9722794" lon="35.7628002"><ele>681.2</ele><time>2015-11-22T08:17:14.0000000+00:00</time></trkpt><trkpt lat="30.9721474" lon="35.762887"><ele>743.8</ele><time>2015-11-22T08:17:15.0000000+00:00</time></trkpt><trkpt lat="30.9720492" lon="35.7629467"><ele>770.1</ele><time>2015-11-22T08:17:16.0000000+00:00</time></trkpt><trkpt lat="30.9719297" lon="35.7630219"><ele>775.7</ele><time>2015-11-22T08:17:17.0000000+00:00</time></trkpt><trkpt lat="30.9718111" lon="35.7630974"><ele>771.6</ele><time>2015-11-22T08:17:18.0000000+00:00</time></trkpt><trkpt lat="30.9716992" lon="35.7631619"><ele>768.5</ele><time>2015-11-22T08:17:19.0000000+00:00</time></trkpt><trkpt lat="30.9715863" lon="35.7632304"><ele>767.9</ele><time>2015-11-22T08:17:20.0000000+00:00</time></trkpt><trkpt lat="30.9714686" lon="35.7632966"><ele>763.2</ele><time>2015-11-22T08:17:21.0000000+00:00</time></trkpt><trkpt lat="30.9713607" lon="35.7633632"><ele>762.3</ele><time>2015-11-22T08:17:22.0000000+00:00</time></trkpt><trkpt lat="30.9712363" lon="35.763428"><ele>760.3</ele><time>2015-11-22T08:17:23.0000000+00:00</time></trkpt><trkpt lat="30.9711279" lon="35.7634819"><ele>756.4</ele><time>2015-11-22T08:17:24.0000000+00:00</time></trkpt><trkpt lat="30.9710115" lon="35.7635274"><ele>760.4</ele><time>2015-11-22T08:17:25.0000000+00:00</time></trkpt><trkpt lat="30.9708878" lon="35.7635699"><ele>750.4</ele><time>2015-11-22T08:17:26.0000000+00:00</time></trkpt><trkpt lat="30.9707608" lon="35.7635936"><ele>736.4</ele><time>2015-11-22T08:17:27.0000000+00:00</time></trkpt><trkpt lat="30.970642" lon="35.7636127"><ele>722.4</ele><time>2015-11-22T08:17:28.0000000+00:00</time></trkpt><trkpt lat="30.9705193" lon="35.7636216"><ele>710.4</ele><time>2015-11-22T08:17:29.0000000+00:00</time></trkpt><trkpt lat="30.9703884" lon="35.7636272"><ele>698.9</ele><time>2015-11-22T08:17:30.0000000+00:00</time></trkpt><trkpt lat="30.9702618" lon="35.7636109"><ele>690.7</ele><time>2015-11-22T08:17:31.0000000+00:00</time></trkpt><trkpt lat="30.9701448" lon="35.7635847"><ele>682.5</ele><time>2015-11-22T08:17:32.0000000+00:00</time></trkpt><trkpt lat="30.9700248" lon="35.7635512"><ele>678.5</ele><time>2015-11-22T08:17:33.0000000+00:00</time></trkpt><trkpt lat="30.9699119" lon="35.7634984"><ele>674.9</ele><time>2015-11-22T08:17:34.0000000+00:00</time></trkpt><trkpt lat="30.9698021" lon="35.7634412"><ele>670.7</ele><time>2015-11-22T08:17:35.0000000+00:00</time></trkpt><trkpt lat="30.9696851" lon="35.7633818"><ele>667.5</ele><time>2015-11-22T08:17:36.0000000+00:00</time></trkpt><trkpt lat="30.9695746" lon="35.7633294"><ele>665.0</ele><time>2015-11-22T08:17:37.0000000+00:00</time></trkpt><trkpt lat="30.969459" lon="35.7632749"><ele>663.7</ele><time>2015-11-22T08:17:38.0000000+00:00</time></trkpt><trkpt lat="30.9693486" lon="35.7632152"><ele>662.0</ele><time>2015-11-22T08:17:39.0000000+00:00</time></trkpt><trkpt lat="30.9692377" lon="35.7631538"><ele>660.7</ele><time>2015-11-22T08:17:40.0000000+00:00</time></trkpt><trkpt lat="30.9691258" lon="35.7630912"><ele>659.6</ele><time>2015-11-22T08:17:41.0000000+00:00</time></trkpt><trkpt lat="30.9690192" lon="35.7630244"><ele>658.5</ele><time>2015-11-22T08:17:42.0000000+00:00</time></trkpt><trkpt lat="30.9689046" lon="35.7629759"><ele>657.4</ele><time>2015-11-22T08:17:43.0000000+00:00</time></trkpt><trkpt lat="30.9688023" lon="35.7629344"><ele>656.4</ele><time>2015-11-22T08:17:44.0000000+00:00</time></trkpt><trkpt lat="30.9686999" lon="35.7629035"><ele>707.9</ele><time>2015-11-22T08:17:45.0000000+00:00</time></trkpt><trkpt lat="30.9685944" lon="35.7628812"><ele>733.2</ele><time>2015-11-22T08:17:46.0000000+00:00</time></trkpt><trkpt lat="30.9684924" lon="35.7628727"><ele>745.3</ele><time>2015-11-22T08:17:47.0000000+00:00</time></trkpt><trkpt lat="30.968388" lon="35.762888"><ele>746.3</ele><time>2015-11-22T08:17:48.0000000+00:00</time></trkpt><trkpt lat="30.9682964" lon="35.7629049"><ele>744.4</ele><time>2015-11-22T08:17:49.0000000+00:00</time></trkpt><trkpt lat="30.9681996" lon="35.7629276"><ele>744.9</ele><time>2015-11-22T08:17:50.0000000+00:00</time></trkpt><trkpt lat="30.9681026" lon="35.7629659"><ele>744.1</ele><time>2015-11-22T08:17:51.0000000+00:00</time></trkpt><trkpt lat="30.968016" lon="35.7630026"><ele>738.3</ele><time>2015-11-22T08:17:52.0000000+00:00</time></trkpt><trkpt lat="30.967926" lon="35.7630413"><ele>731.3</ele><time>2015-11-22T08:17:53.0000000+00:00</time></trkpt><trkpt lat="30.9678399" lon="35.7630822"><ele>727.4</ele><time>2015-11-22T08:17:54.0000000+00:00</time></trkpt><trkpt lat="30.9677624" lon="35.7631304"><ele>725.9</ele><time>2015-11-22T08:17:55.0000000+00:00</time></trkpt><trkpt lat="30.9676707" lon="35.7631798"><ele>722.6</ele><time>2015-11-22T08:17:56.0000000+00:00</time></trkpt><trkpt lat="30.9675872" lon="35.7632333"><ele>718.0</ele><time>2015-11-22T08:17:57.0000000+00:00</time></trkpt><trkpt lat="30.9675019" lon="35.7632916"><ele>715.7</ele><time>2015-11-22T08:17:58.0000000+00:00</time></trkpt><trkpt lat="30.9674318" lon="35.7633374"><ele>713.1</ele><time>2015-11-22T08:17:59.0000000+00:00</time></trkpt><trkpt lat="30.9673598" lon="35.7633901"><ele>711.2</ele><time>2015-11-22T08:18:00.0000000+00:00</time></trkpt><trkpt lat="30.9672923" lon="35.7634464"><ele>710.8</ele><time>2015-11-22T08:18:01.0000000+00:00</time></trkpt><trkpt lat="30.9672221" lon="35.7635043"><ele>709.6</ele><time>2015-11-22T08:18:02.0000000+00:00</time></trkpt><trkpt lat="30.9671499" lon="35.7635542"><ele>711.5</ele><time>2015-11-22T08:18:03.0000000+00:00</time></trkpt><trkpt lat="30.9670756" lon="35.7636041"><ele>710.0</ele><time>2015-11-22T08:18:04.0000000+00:00</time></trkpt><trkpt lat="30.9670017" lon="35.7636566"><ele>708.7</ele><time>2015-11-22T08:18:05.0000000+00:00</time></trkpt><trkpt lat="30.9669267" lon="35.7637112"><ele>705.5</ele><time>2015-11-22T08:18:06.0000000+00:00</time></trkpt><trkpt lat="30.9668683" lon="35.7637591"><ele>706.5</ele><time>2015-11-22T08:18:07.0000000+00:00</time></trkpt><trkpt lat="30.9667916" lon="35.7638042"><ele>709.9</ele><time>2015-11-22T08:18:08.0000000+00:00</time></trkpt><trkpt lat="30.966718" lon="35.7638521"><ele>714.2</ele><time>2015-11-22T08:18:09.0000000+00:00</time></trkpt><trkpt lat="30.9666618" lon="35.7638813"><ele>713.8</ele><time>2015-11-22T08:18:10.0000000+00:00</time></trkpt><trkpt lat="30.9666086" lon="35.7639188"><ele>712.1</ele><time>2015-11-22T08:18:11.0000000+00:00</time></trkpt><trkpt lat="30.9665614" lon="35.763943"><ele>713.2</ele><time>2015-11-22T08:18:12.0000000+00:00</time></trkpt><trkpt lat="30.9665035" lon="35.7639668"><ele>709.1</ele><time>2015-11-22T08:18:14.0000000+00:00</time></trkpt><trkpt lat="30.9664665" lon="35.7639297"><ele>703.0</ele><time>2015-11-22T08:19:17.0000000+00:00</time></trkpt><trkpt lat="30.9664386" lon="35.7639775"><ele>634.8</ele><time>2015-11-22T08:21:05.0000000+00:00</time></trkpt><trkpt lat="30.9664142" lon="35.764043"><ele>633.7</ele><time>2015-11-22T08:21:10.0000000+00:00</time></trkpt><trkpt lat="30.9663678" lon="35.7640796"><ele>634.2</ele><time>2015-11-22T08:21:13.0000000+00:00</time></trkpt><trkpt lat="30.966321" lon="35.7641234"><ele>633.5</ele><time>2015-11-22T08:21:16.0000000+00:00</time></trkpt><trkpt lat="30.9662885" lon="35.7641712"><ele>634.3</ele><time>2015-11-22T08:21:19.0000000+00:00</time></trkpt><trkpt lat="30.9662572" lon="35.7642164"><ele>633.0</ele><time>2015-11-22T08:21:22.0000000+00:00</time></trkpt><trkpt lat="30.9662228" lon="35.7642674"><ele>631.7</ele><time>2015-11-22T08:21:25.0000000+00:00</time></trkpt><trkpt lat="30.9661819" lon="35.7643347"><ele>630.7</ele><time>2015-11-22T08:21:28.0000000+00:00</time></trkpt><trkpt lat="30.9661393" lon="35.7643848"><ele>630.0</ele><time>2015-11-22T08:21:30.0000000+00:00</time></trkpt><trkpt lat="30.9660958" lon="35.7644428"><ele>629.8</ele><time>2015-11-22T08:21:32.0000000+00:00</time></trkpt><trkpt lat="30.96604" lon="35.7645531"><ele>629.5</ele><time>2015-11-22T08:21:35.0000000+00:00</time></trkpt><trkpt lat="30.9660058" lon="35.7646491"><ele>629.4</ele><time>2015-11-22T08:21:37.0000000+00:00</time></trkpt><trkpt lat="30.9659916" lon="35.7647004"><ele>629.9</ele><time>2015-11-22T08:21:38.0000000+00:00</time></trkpt><trkpt lat="30.9659794" lon="35.7647537"><ele>629.7</ele><time>2015-11-22T08:21:39.0000000+00:00</time></trkpt><trkpt lat="30.9659667" lon="35.7648455"><ele>629.0</ele><time>2015-11-22T08:21:40.0000000+00:00</time></trkpt><trkpt lat="30.9659536" lon="35.7649093"><ele>628.2</ele><time>2015-11-22T08:21:41.0000000+00:00</time></trkpt><trkpt lat="30.9659345" lon="35.764977"><ele>627.8</ele><time>2015-11-22T08:21:42.0000000+00:00</time></trkpt><trkpt lat="30.9659089" lon="35.7650546"><ele>627.6</ele><time>2015-11-22T08:21:43.0000000+00:00</time></trkpt><trkpt lat="30.965907" lon="35.7651197"><ele>627.5</ele><time>2015-11-22T08:21:44.0000000+00:00</time></trkpt><trkpt lat="30.9658968" lon="35.7651987"><ele>627.0</ele><time>2015-11-22T08:21:45.0000000+00:00</time></trkpt><trkpt lat="30.9658942" lon="35.7652742"><ele>626.7</ele><time>2015-11-22T08:21:46.0000000+00:00</time></trkpt><trkpt lat="30.9658924" lon="35.7654256"><ele>626.0</ele><time>2015-11-22T08:21:48.0000000+00:00</time></trkpt><trkpt lat="30.9658934" lon="35.7655028"><ele>626.2</ele><time>2015-11-22T08:21:49.0000000+00:00</time></trkpt><trkpt lat="30.9658898" lon="35.7655818"><ele>626.3</ele><time>2015-11-22T08:21:50.0000000+00:00</time></trkpt><trkpt lat="30.9658992" lon="35.7656586"><ele>625.9</ele><time>2015-11-22T08:21:51.0000000+00:00</time></trkpt><trkpt lat="30.9659099" lon="35.765735"><ele>625.6</ele><time>2015-11-22T08:21:52.0000000+00:00</time></trkpt><trkpt lat="30.9659146" lon="35.7658063"><ele>625.5</ele><time>2015-11-22T08:21:53.0000000+00:00</time></trkpt><trkpt lat="30.9659152" lon="35.7658956"><ele>625.5</ele><time>2015-11-22T08:21:54.0000000+00:00</time></trkpt><trkpt lat="30.9659229" lon="35.765984"><ele>625.4</ele><time>2015-11-22T08:21:55.0000000+00:00</time></trkpt><trkpt lat="30.9659358" lon="35.7660714"><ele>649.4</ele><time>2015-11-22T08:21:56.0000000+00:00</time></trkpt><trkpt lat="30.9659431" lon="35.7661703"><ele>662.4</ele><time>2015-11-22T08:21:57.0000000+00:00</time></trkpt><trkpt lat="30.9659489" lon="35.7662712"><ele>668.9</ele><time>2015-11-22T08:21:58.0000000+00:00</time></trkpt><trkpt lat="30.965954" lon="35.7663747"><ele>671.7</ele><time>2015-11-22T08:21:59.0000000+00:00</time></trkpt><trkpt lat="30.9659686" lon="35.7664729"><ele>674.0</ele><time>2015-11-22T08:22:00.0000000+00:00</time></trkpt><trkpt lat="30.9659795" lon="35.7665618"><ele>675.2</ele><time>2015-11-22T08:22:01.0000000+00:00</time></trkpt><trkpt lat="30.9659894" lon="35.7666584"><ele>674.3</ele><time>2015-11-22T08:22:02.0000000+00:00</time></trkpt><trkpt lat="30.9659994" lon="35.7667544"><ele>675.4</ele><time>2015-11-22T08:22:03.0000000+00:00</time></trkpt><trkpt lat="30.9659999" lon="35.7668621"><ele>679.9</ele><time>2015-11-22T08:22:04.0000000+00:00</time></trkpt><trkpt lat="30.9660099" lon="35.7669607"><ele>680.6</ele><time>2015-11-22T08:22:05.0000000+00:00</time></trkpt><trkpt lat="30.9660081" lon="35.7670694"><ele>682.5</ele><time>2015-11-22T08:22:06.0000000+00:00</time></trkpt><trkpt lat="30.9660054" lon="35.7671797"><ele>684.0</ele><time>2015-11-22T08:22:07.0000000+00:00</time></trkpt><trkpt lat="30.9660154" lon="35.7672771"><ele>683.7</ele><time>2015-11-22T08:22:08.0000000+00:00</time></trkpt><trkpt lat="30.9660205" lon="35.7673811"><ele>684.0</ele><time>2015-11-22T08:22:09.0000000+00:00</time></trkpt><trkpt lat="30.9660274" lon="35.7674795"><ele>683.2</ele><time>2015-11-22T08:22:10.0000000+00:00</time></trkpt><trkpt lat="30.9660241" lon="35.7675858"><ele>682.8</ele><time>2015-11-22T08:22:11.0000000+00:00</time></trkpt><trkpt lat="30.9660328" lon="35.7677024"><ele>682.1</ele><time>2015-11-22T08:22:12.0000000+00:00</time></trkpt><trkpt lat="30.9660323" lon="35.7677986"><ele>681.3</ele><time>2015-11-22T08:22:13.0000000+00:00</time></trkpt><trkpt lat="30.966031" lon="35.767909"><ele>680.3</ele><time>2015-11-22T08:22:14.0000000+00:00</time></trkpt><trkpt lat="30.9660098" lon="35.7681196"><ele>677.4</ele><time>2015-11-22T08:22:16.0000000+00:00</time></trkpt><trkpt lat="30.9660029" lon="35.7682252"><ele>676.9</ele><time>2015-11-22T08:22:17.0000000+00:00</time></trkpt><trkpt lat="30.965963" lon="35.7684077"><ele>676.1</ele><time>2015-11-22T08:22:19.0000000+00:00</time></trkpt><trkpt lat="30.965945" lon="35.7685078"><ele>672.8</ele><time>2015-11-22T08:22:20.0000000+00:00</time></trkpt><trkpt lat="30.9659192" lon="35.7686"><ele>670.6</ele><time>2015-11-22T08:22:21.0000000+00:00</time></trkpt><trkpt lat="30.9658896" lon="35.7686862"><ele>669.0</ele><time>2015-11-22T08:22:22.0000000+00:00</time></trkpt><trkpt lat="30.9658572" lon="35.7687802"><ele>671.7</ele><time>2015-11-22T08:22:23.0000000+00:00</time></trkpt><trkpt lat="30.9657961" lon="35.7689496"><ele>671.1</ele><time>2015-11-22T08:22:25.0000000+00:00</time></trkpt><trkpt lat="30.9657568" lon="35.7690385"><ele>669.2</ele><time>2015-11-22T08:22:26.0000000+00:00</time></trkpt><trkpt lat="30.9657212" lon="35.7691134"><ele>667.8</ele><time>2015-11-22T08:22:27.0000000+00:00</time></trkpt><trkpt lat="30.965685" lon="35.7691972"><ele>665.6</ele><time>2015-11-22T08:22:28.0000000+00:00</time></trkpt><trkpt lat="30.9656568" lon="35.7692744"><ele>664.5</ele><time>2015-11-22T08:22:29.0000000+00:00</time></trkpt><trkpt lat="30.9656209" lon="35.7693494"><ele>666.5</ele><time>2015-11-22T08:22:30.0000000+00:00</time></trkpt><trkpt lat="30.9655864" lon="35.7694327"><ele>666.4</ele><time>2015-11-22T08:22:31.0000000+00:00</time></trkpt><trkpt lat="30.9655518" lon="35.7695162"><ele>664.9</ele><time>2015-11-22T08:22:32.0000000+00:00</time></trkpt><trkpt lat="30.9655257" lon="35.7695943"><ele>668.2</ele><time>2015-11-22T08:22:33.0000000+00:00</time></trkpt><trkpt lat="30.9654566" lon="35.7697571"><ele>672.3</ele><time>2015-11-22T08:22:35.0000000+00:00</time></trkpt><trkpt lat="30.9654136" lon="35.7698368"><ele>672.8</ele><time>2015-11-22T08:22:36.0000000+00:00</time></trkpt><trkpt lat="30.9653803" lon="35.7699124"><ele>672.6</ele><time>2015-11-22T08:22:37.0000000+00:00</time></trkpt><trkpt lat="30.9653534" lon="35.7699916"><ele>671.5</ele><time>2015-11-22T08:22:38.0000000+00:00</time></trkpt><trkpt lat="30.9653254" lon="35.7700614"><ele>670.0</ele><time>2015-11-22T08:22:39.0000000+00:00</time></trkpt><trkpt lat="30.9653041" lon="35.77015"><ele>678.2</ele><time>2015-11-22T08:22:40.0000000+00:00</time></trkpt><trkpt lat="30.9652698" lon="35.7702224"><ele>680.8</ele><time>2015-11-22T08:22:41.0000000+00:00</time></trkpt><trkpt lat="30.9652056" lon="35.7703784"><ele>679.1</ele><time>2015-11-22T08:22:43.0000000+00:00</time></trkpt><trkpt lat="30.9604574" lon="35.7707093"><ele>519.4</ele><time>2015-11-22T08:36:25.0000000+00:00</time></trkpt><trkpt lat="30.9604132" lon="35.7706744"><ele>526.4</ele><time>2015-11-22T08:37:01.0000000+00:00</time></trkpt><trkpt lat="30.960381" lon="35.7706139"><ele>525.6</ele><time>2015-11-22T08:37:03.0000000+00:00</time></trkpt><trkpt lat="30.9603457" lon="35.7705427"><ele>524.7</ele><time>2015-11-22T08:37:05.0000000+00:00</time></trkpt><trkpt lat="30.9602907" lon="35.7704576"><ele>525.2</ele><time>2015-11-22T08:37:07.0000000+00:00</time></trkpt><trkpt lat="30.9602498" lon="35.7704149"><ele>525.3</ele><time>2015-11-22T08:37:08.0000000+00:00</time></trkpt><trkpt lat="30.9602024" lon="35.7703645"><ele>524.9</ele><time>2015-11-22T08:37:09.0000000+00:00</time></trkpt><trkpt lat="30.9601548" lon="35.7703147"><ele>524.6</ele><time>2015-11-22T08:37:10.0000000+00:00</time></trkpt><trkpt lat="30.9600994" lon="35.7702667"><ele>524.5</ele><time>2015-11-22T08:37:11.0000000+00:00</time></trkpt><trkpt lat="30.9600362" lon="35.7702227"><ele>524.5</ele><time>2015-11-22T08:37:12.0000000+00:00</time></trkpt><trkpt lat="30.9599718" lon="35.7701787"><ele>523.9</ele><time>2015-11-22T08:37:13.0000000+00:00</time></trkpt><trkpt lat="30.9599037" lon="35.7701345"><ele>523.7</ele><time>2015-11-22T08:37:14.0000000+00:00</time></trkpt><trkpt lat="30.9598228" lon="35.770097"><ele>523.0</ele><time>2015-11-22T08:37:15.0000000+00:00</time></trkpt><trkpt lat="30.959739" lon="35.7700583"><ele>522.2</ele><time>2015-11-22T08:37:16.0000000+00:00</time></trkpt><trkpt lat="30.9596524" lon="35.7700258"><ele>521.8</ele><time>2015-11-22T08:37:17.0000000+00:00</time></trkpt><trkpt lat="30.9595602" lon="35.7699922"><ele>521.1</ele><time>2015-11-22T08:37:18.0000000+00:00</time></trkpt><trkpt lat="30.9594648" lon="35.7699553"><ele>520.8</ele><time>2015-11-22T08:37:19.0000000+00:00</time></trkpt><trkpt lat="30.9593655" lon="35.7699215"><ele>520.1</ele><time>2015-11-22T08:37:20.0000000+00:00</time></trkpt><trkpt lat="30.9592647" lon="35.7698832"><ele>519.2</ele><time>2015-11-22T08:37:21.0000000+00:00</time></trkpt><trkpt lat="30.9591594" lon="35.7698477"><ele>518.3</ele><time>2015-11-22T08:37:22.0000000+00:00</time></trkpt><trkpt lat="30.959051" lon="35.7698102"><ele>516.9</ele><time>2015-11-22T08:37:23.0000000+00:00</time></trkpt><trkpt lat="30.9589429" lon="35.769771"><ele>515.1</ele><time>2015-11-22T08:37:24.0000000+00:00</time></trkpt><trkpt lat="30.9588352" lon="35.769732"><ele>513.8</ele><time>2015-11-22T08:37:25.0000000+00:00</time></trkpt><trkpt lat="30.958721" lon="35.7696871"><ele>512.6</ele><time>2015-11-22T08:37:26.0000000+00:00</time></trkpt><trkpt lat="30.958607" lon="35.7696435"><ele>511.0</ele><time>2015-11-22T08:37:27.0000000+00:00</time></trkpt><trkpt lat="30.9584901" lon="35.7695962"><ele>510.2</ele><time>2015-11-22T08:37:28.0000000+00:00</time></trkpt><trkpt lat="30.9583799" lon="35.7695541"><ele>508.8</ele><time>2015-11-22T08:37:29.0000000+00:00</time></trkpt><trkpt lat="30.9582737" lon="35.7695164"><ele>507.1</ele><time>2015-11-22T08:37:30.0000000+00:00</time></trkpt><trkpt lat="30.9581668" lon="35.7694738"><ele>505.7</ele><time>2015-11-22T08:37:31.0000000+00:00</time></trkpt><trkpt lat="30.9580662" lon="35.7694254"><ele>504.6</ele><time>2015-11-22T08:37:32.0000000+00:00</time></trkpt><trkpt lat="30.957968" lon="35.7693779"><ele>503.5</ele><time>2015-11-22T08:37:33.0000000+00:00</time></trkpt><trkpt lat="30.9578742" lon="35.7693207"><ele>502.4</ele><time>2015-11-22T08:37:34.0000000+00:00</time></trkpt><trkpt lat="30.9577864" lon="35.7692618"><ele>501.4</ele><time>2015-11-22T08:37:35.0000000+00:00</time></trkpt><trkpt lat="30.9577043" lon="35.7691895"><ele>500.4</ele><time>2015-11-22T08:37:36.0000000+00:00</time></trkpt><trkpt lat="30.9576373" lon="35.7691125"><ele>499.4</ele><time>2015-11-22T08:37:37.0000000+00:00</time></trkpt><trkpt lat="30.9575759" lon="35.7690199"><ele>498.4</ele><time>2015-11-22T08:37:38.0000000+00:00</time></trkpt><trkpt lat="30.9575244" lon="35.7689124"><ele>496.9</ele><time>2015-11-22T08:37:39.0000000+00:00</time></trkpt><trkpt lat="30.957479" lon="35.7688005"><ele>495.6</ele><time>2015-11-22T08:37:40.0000000+00:00</time></trkpt><trkpt lat="30.957444" lon="35.7686833"><ele>494.5</ele><time>2015-11-22T08:37:41.0000000+00:00</time></trkpt><trkpt lat="30.9574233" lon="35.7685653"><ele>493.5</ele><time>2015-11-22T08:37:42.0000000+00:00</time></trkpt><trkpt lat="30.95742" lon="35.7684443"><ele>492.4</ele><time>2015-11-22T08:37:43.0000000+00:00</time></trkpt><trkpt lat="30.9574231" lon="35.7683191"><ele>491.4</ele><time>2015-11-22T08:37:44.0000000+00:00</time></trkpt><trkpt lat="30.9574446" lon="35.7682015"><ele>490.4</ele><time>2015-11-22T08:37:45.0000000+00:00</time></trkpt><trkpt lat="30.9574791" lon="35.7680847"><ele>488.9</ele><time>2015-11-22T08:37:46.0000000+00:00</time></trkpt><trkpt lat="30.9575217" lon="35.7679613"><ele>487.7</ele><time>2015-11-22T08:37:47.0000000+00:00</time></trkpt><trkpt lat="30.9575654" lon="35.7678306"><ele>486.5</ele><time>2015-11-22T08:37:48.0000000+00:00</time></trkpt><trkpt lat="30.9576064" lon="35.7676981"><ele>485.5</ele><time>2015-11-22T08:37:49.0000000+00:00</time></trkpt><trkpt lat="30.9576448" lon="35.7675554"><ele>483.9</ele><time>2015-11-22T08:37:50.0000000+00:00</time></trkpt><trkpt lat="30.9576766" lon="35.7674094"><ele>482.7</ele><time>2015-11-22T08:37:51.0000000+00:00</time></trkpt><trkpt lat="30.9577121" lon="35.7672574"><ele>481.0</ele><time>2015-11-22T08:37:52.0000000+00:00</time></trkpt><trkpt lat="30.9577426" lon="35.7671015"><ele>479.7</ele><time>2015-11-22T08:37:53.0000000+00:00</time></trkpt><trkpt lat="30.9577655" lon="35.766942"><ele>478.1</ele><time>2015-11-22T08:37:54.0000000+00:00</time></trkpt><trkpt lat="30.957793" lon="35.7666099"><ele>475.7</ele><time>2015-11-22T08:37:56.0000000+00:00</time></trkpt><trkpt lat="30.9577928" lon="35.7664336"><ele>474.1</ele><time>2015-11-22T08:37:57.0000000+00:00</time></trkpt><trkpt lat="30.9577881" lon="35.7662576"><ele>472.2</ele><time>2015-11-22T08:37:58.0000000+00:00</time></trkpt><trkpt lat="30.9577755" lon="35.76608"><ele>470.3</ele><time>2015-11-22T08:37:59.0000000+00:00</time></trkpt><trkpt lat="30.9577533" lon="35.7659051"><ele>468.4</ele><time>2015-11-22T08:38:00.0000000+00:00</time></trkpt><trkpt lat="30.9577241" lon="35.7657292"><ele>466.4</ele><time>2015-11-22T08:38:01.0000000+00:00</time></trkpt><trkpt lat="30.9576948" lon="35.7655513"><ele>464.9</ele><time>2015-11-22T08:38:02.0000000+00:00</time></trkpt><trkpt lat="30.9576641" lon="35.7653741"><ele>463.6</ele><time>2015-11-22T08:38:03.0000000+00:00</time></trkpt><trkpt lat="30.9576324" lon="35.7651992"><ele>462.5</ele><time>2015-11-22T08:38:04.0000000+00:00</time></trkpt><trkpt lat="30.9576018" lon="35.7650259"><ele>461.5</ele><time>2015-11-22T08:38:05.0000000+00:00</time></trkpt><trkpt lat="30.95757" lon="35.7648553"><ele>460.4</ele><time>2015-11-22T08:38:06.0000000+00:00</time></trkpt><trkpt lat="30.9575366" lon="35.7646872"><ele>459.4</ele><time>2015-11-22T08:38:07.0000000+00:00</time></trkpt><trkpt lat="30.9575074" lon="35.7645209"><ele>458.4</ele><time>2015-11-22T08:38:08.0000000+00:00</time></trkpt><trkpt lat="30.9574769" lon="35.7643499"><ele>457.4</ele><time>2015-11-22T08:38:09.0000000+00:00</time></trkpt><trkpt lat="30.9574452" lon="35.7641824"><ele>456.4</ele><time>2015-11-22T08:38:10.0000000+00:00</time></trkpt><trkpt lat="30.9574102" lon="35.7640213"><ele>455.9</ele><time>2015-11-22T08:38:11.0000000+00:00</time></trkpt><trkpt lat="30.9573758" lon="35.7638608"><ele>455.6</ele><time>2015-11-22T08:38:12.0000000+00:00</time></trkpt><trkpt lat="30.9573404" lon="35.7637032"><ele>455.0</ele><time>2015-11-22T08:38:13.0000000+00:00</time></trkpt><trkpt lat="30.9573075" lon="35.7635483"><ele>454.7</ele><time>2015-11-22T08:38:14.0000000+00:00</time></trkpt><trkpt lat="30.9572778" lon="35.7633958"><ele>454.6</ele><time>2015-11-22T08:38:15.0000000+00:00</time></trkpt><trkpt lat="30.9572466" lon="35.7632524"><ele>454.5</ele><time>2015-11-22T08:38:16.0000000+00:00</time></trkpt><trkpt lat="30.9572171" lon="35.7631093"><ele>453.9</ele><time>2015-11-22T08:38:17.0000000+00:00</time></trkpt><trkpt lat="30.9571928" lon="35.7629689"><ele>453.7</ele><time>2015-11-22T08:38:18.0000000+00:00</time></trkpt><trkpt lat="30.95717" lon="35.7628309"><ele>453.0</ele><time>2015-11-22T08:38:19.0000000+00:00</time></trkpt><trkpt lat="30.95715" lon="35.7626939"><ele>452.7</ele><time>2015-11-22T08:38:20.0000000+00:00</time></trkpt><trkpt lat="30.9571292" lon="35.7625582"><ele>452.1</ele><time>2015-11-22T08:38:21.0000000+00:00</time></trkpt><trkpt lat="30.9571205" lon="35.7624259"><ele>451.7</ele><time>2015-11-22T08:38:22.0000000+00:00</time></trkpt><trkpt lat="30.9571178" lon="35.7622962"><ele>451.1</ele><time>2015-11-22T08:38:23.0000000+00:00</time></trkpt><trkpt lat="30.9571181" lon="35.7621666"><ele>450.7</ele><time>2015-11-22T08:38:24.0000000+00:00</time></trkpt><trkpt lat="30.9571448" lon="35.7619084"><ele>450.1</ele><time>2015-11-22T08:38:26.0000000+00:00</time></trkpt><trkpt lat="30.9571658" lon="35.7617779"><ele>449.2</ele><time>2015-11-22T08:38:27.0000000+00:00</time></trkpt><trkpt lat="30.9571902" lon="35.7616527"><ele>448.8</ele><time>2015-11-22T08:38:28.0000000+00:00</time></trkpt><trkpt lat="30.9572175" lon="35.7615308"><ele>448.6</ele><time>2015-11-22T08:38:29.0000000+00:00</time></trkpt><trkpt lat="30.9572479" lon="35.7614093"><ele>448.0</ele><time>2015-11-22T08:38:30.0000000+00:00</time></trkpt><trkpt lat="30.9572906" lon="35.761294"><ele>447.7</ele><time>2015-11-22T08:38:31.0000000+00:00</time></trkpt><trkpt lat="30.9573354" lon="35.7611786"><ele>447.1</ele><time>2015-11-22T08:38:32.0000000+00:00</time></trkpt><trkpt lat="30.957388" lon="35.7610682"><ele>446.7</ele><time>2015-11-22T08:38:33.0000000+00:00</time></trkpt><trkpt lat="30.9574409" lon="35.7609544"><ele>446.1</ele><time>2015-11-22T08:38:34.0000000+00:00</time></trkpt><trkpt lat="30.9574941" lon="35.7608425"><ele>445.2</ele><time>2015-11-22T08:38:35.0000000+00:00</time></trkpt><trkpt lat="30.9575465" lon="35.7607334"><ele>444.8</ele><time>2015-11-22T08:38:36.0000000+00:00</time></trkpt><trkpt lat="30.9576037" lon="35.7606271"><ele>444.6</ele><time>2015-11-22T08:38:37.0000000+00:00</time></trkpt><trkpt lat="30.9576654" lon="35.7605211"><ele>444.0</ele><time>2015-11-22T08:38:38.0000000+00:00</time></trkpt><trkpt lat="30.9577271" lon="35.7604154"><ele>443.7</ele><time>2015-11-22T08:38:39.0000000+00:00</time></trkpt><trkpt lat="30.9577884" lon="35.7603071"><ele>443.0</ele><time>2015-11-22T08:38:40.0000000+00:00</time></trkpt><trkpt lat="30.957916" lon="35.7600946"><ele>441.7</ele><time>2015-11-22T08:38:42.0000000+00:00</time></trkpt><trkpt lat="30.9579782" lon="35.7599864"><ele>440.6</ele><time>2015-11-22T08:38:43.0000000+00:00</time></trkpt><trkpt lat="30.958039" lon="35.7598777"><ele>439.5</ele><time>2015-11-22T08:38:44.0000000+00:00</time></trkpt><trkpt lat="30.958104" lon="35.7597658"><ele>438.4</ele><time>2015-11-22T08:38:45.0000000+00:00</time></trkpt><trkpt lat="30.9581666" lon="35.7596567"><ele>437.9</ele><time>2015-11-22T08:38:46.0000000+00:00</time></trkpt><trkpt lat="30.9582296" lon="35.7595452"><ele>437.2</ele><time>2015-11-22T08:38:47.0000000+00:00</time></trkpt><trkpt lat="30.9582921" lon="35.7594317"><ele>436.8</ele><time>2015-11-22T08:38:48.0000000+00:00</time></trkpt><trkpt lat="30.9583533" lon="35.759321"><ele>436.6</ele><time>2015-11-22T08:38:49.0000000+00:00</time></trkpt><trkpt lat="30.9584205" lon="35.7592095"><ele>436.0</ele><time>2015-11-22T08:38:50.0000000+00:00</time></trkpt><trkpt lat="30.9584841" lon="35.7591042"><ele>435.7</ele><time>2015-11-22T08:38:51.0000000+00:00</time></trkpt><trkpt lat="30.9585397" lon="35.7589923"><ele>435.5</ele><time>2015-11-22T08:38:52.0000000+00:00</time></trkpt><trkpt lat="30.9585985" lon="35.7588829"><ele>435.0</ele><time>2015-11-22T08:38:53.0000000+00:00</time></trkpt><trkpt lat="30.9586586" lon="35.7587745"><ele>434.7</ele><time>2015-11-22T08:38:54.0000000+00:00</time></trkpt><trkpt lat="30.958718" lon="35.7586705"><ele>434.5</ele><time>2015-11-22T08:38:55.0000000+00:00</time></trkpt><trkpt lat="30.9587756" lon="35.7585644"><ele>434.5</ele><time>2015-11-22T08:38:56.0000000+00:00</time></trkpt><trkpt lat="30.9588339" lon="35.7584634"><ele>433.9</ele><time>2015-11-22T08:38:57.0000000+00:00</time></trkpt><trkpt lat="30.9588903" lon="35.7583598"><ele>433.2</ele><time>2015-11-22T08:38:58.0000000+00:00</time></trkpt><trkpt lat="30.9589451" lon="35.7582578"><ele>432.8</ele><time>2015-11-22T08:38:59.0000000+00:00</time></trkpt><trkpt lat="30.9589992" lon="35.7581567"><ele>432.6</ele><time>2015-11-22T08:39:00.0000000+00:00</time></trkpt><trkpt lat="30.9590509" lon="35.7580612"><ele>432.5</ele><time>2015-11-22T08:39:01.0000000+00:00</time></trkpt><trkpt lat="30.9591041" lon="35.7579672"><ele>432.4</ele><time>2015-11-22T08:39:02.0000000+00:00</time></trkpt><trkpt lat="30.9591525" lon="35.7578773"><ele>432.4</ele><time>2015-11-22T08:39:03.0000000+00:00</time></trkpt><trkpt lat="30.9591986" lon="35.7577908"><ele>431.9</ele><time>2015-11-22T08:39:04.0000000+00:00</time></trkpt><trkpt lat="30.959237" lon="35.7577126"><ele>431.7</ele><time>2015-11-22T08:39:05.0000000+00:00</time></trkpt><trkpt lat="30.9592788" lon="35.7576405"><ele>431.5</ele><time>2015-11-22T08:39:06.0000000+00:00</time></trkpt><trkpt lat="30.9593194" lon="35.75756"><ele>431.5</ele><time>2015-11-22T08:39:07.0000000+00:00</time></trkpt><trkpt lat="30.9593563" lon="35.7574844"><ele>431.4</ele><time>2015-11-22T08:39:08.0000000+00:00</time></trkpt><trkpt lat="30.9593884" lon="35.757406"><ele>431.4</ele><time>2015-11-22T08:39:09.0000000+00:00</time></trkpt><trkpt lat="30.9594276" lon="35.7573281"><ele>430.9</ele><time>2015-11-22T08:39:10.0000000+00:00</time></trkpt><trkpt lat="30.9594706" lon="35.7572561"><ele>430.7</ele><time>2015-11-22T08:39:11.0000000+00:00</time></trkpt><trkpt lat="30.9595126" lon="35.7571823"><ele>430.5</ele><time>2015-11-22T08:39:12.0000000+00:00</time></trkpt><trkpt lat="30.959554" lon="35.7571086"><ele>430.0</ele><time>2015-11-22T08:39:13.0000000+00:00</time></trkpt><trkpt lat="30.959594" lon="35.7570324"><ele>429.7</ele><time>2015-11-22T08:39:14.0000000+00:00</time></trkpt><trkpt lat="30.9596376" lon="35.756958"><ele>429.5</ele><time>2015-11-22T08:39:15.0000000+00:00</time></trkpt><trkpt lat="30.9596783" lon="35.7568843"><ele>429.5</ele><time>2015-11-22T08:39:16.0000000+00:00</time></trkpt><trkpt lat="30.9597208" lon="35.756806"><ele>428.9</ele><time>2015-11-22T08:39:17.0000000+00:00</time></trkpt><trkpt lat="30.9597651" lon="35.7567287"><ele>428.7</ele><time>2015-11-22T08:39:18.0000000+00:00</time></trkpt><trkpt lat="30.9598062" lon="35.7566502"><ele>428.5</ele><time>2015-11-22T08:39:19.0000000+00:00</time></trkpt><trkpt lat="30.9598518" lon="35.7565711"><ele>428.5</ele><time>2015-11-22T08:39:20.0000000+00:00</time></trkpt><trkpt lat="30.9598835" lon="35.7564932"><ele>428.4</ele><time>2015-11-22T08:39:21.0000000+00:00</time></trkpt><trkpt lat="30.9599252" lon="35.756417"><ele>428.4</ele><time>2015-11-22T08:39:22.0000000+00:00</time></trkpt><trkpt lat="30.9599648" lon="35.7563408"><ele>428.9</ele><time>2015-11-22T08:39:23.0000000+00:00</time></trkpt><trkpt lat="30.9600031" lon="35.7562622"><ele>429.2</ele><time>2015-11-22T08:39:24.0000000+00:00</time></trkpt><trkpt lat="30.9600409" lon="35.7561843"><ele>429.3</ele><time>2015-11-22T08:39:25.0000000+00:00</time></trkpt><trkpt lat="30.9600845" lon="35.7561057"><ele>428.8</ele><time>2015-11-22T08:39:26.0000000+00:00</time></trkpt><trkpt lat="30.9601262" lon="35.7560272"><ele>428.6</ele><time>2015-11-22T08:39:27.0000000+00:00</time></trkpt><trkpt lat="30.960161" lon="35.7559554"><ele>428.5</ele><time>2015-11-22T08:39:28.0000000+00:00</time></trkpt><trkpt lat="30.9601947" lon="35.7558821"><ele>428.5</ele><time>2015-11-22T08:39:29.0000000+00:00</time></trkpt><trkpt lat="30.9602261" lon="35.7558004"><ele>428.4</ele><time>2015-11-22T08:39:30.0000000+00:00</time></trkpt><trkpt lat="30.9602606" lon="35.7557246"><ele>428.4</ele><time>2015-11-22T08:39:31.0000000+00:00</time></trkpt><trkpt lat="30.9602935" lon="35.7556428"><ele>428.4</ele><time>2015-11-22T08:39:32.0000000+00:00</time></trkpt><trkpt lat="30.9603293" lon="35.7555541"><ele>427.9</ele><time>2015-11-22T08:39:33.0000000+00:00</time></trkpt><trkpt lat="30.9603595" lon="35.7554646"><ele>427.7</ele><time>2015-11-22T08:39:34.0000000+00:00</time></trkpt><trkpt lat="30.9603892" lon="35.7553733"><ele>427.0</ele><time>2015-11-22T08:39:35.0000000+00:00</time></trkpt><trkpt lat="30.9604186" lon="35.7552832"><ele>426.7</ele><time>2015-11-22T08:39:36.0000000+00:00</time></trkpt><trkpt lat="30.9604532" lon="35.7551949"><ele>426.1</ele><time>2015-11-22T08:39:37.0000000+00:00</time></trkpt><trkpt lat="30.9604851" lon="35.7551036"><ele>425.7</ele><time>2015-11-22T08:39:38.0000000+00:00</time></trkpt><trkpt lat="30.9605132" lon="35.7550076"><ele>425.6</ele><time>2015-11-22T08:39:39.0000000+00:00</time></trkpt><trkpt lat="30.9605382" lon="35.7549111"><ele>425.5</ele><time>2015-11-22T08:39:40.0000000+00:00</time></trkpt><trkpt lat="30.9605644" lon="35.7548086"><ele>424.9</ele><time>2015-11-22T08:39:41.0000000+00:00</time></trkpt><trkpt lat="30.9605901" lon="35.7547088"><ele>424.7</ele><time>2015-11-22T08:39:42.0000000+00:00</time></trkpt><trkpt lat="30.9606177" lon="35.7546109"><ele>424.5</ele><time>2015-11-22T08:39:43.0000000+00:00</time></trkpt><trkpt lat="30.9606427" lon="35.7545132"><ele>424.5</ele><time>2015-11-22T08:39:44.0000000+00:00</time></trkpt><trkpt lat="30.9606686" lon="35.7544099"><ele>424.4</ele><time>2015-11-22T08:39:45.0000000+00:00</time></trkpt><trkpt lat="30.9606897" lon="35.7543055"><ele>424.4</ele><time>2015-11-22T08:39:46.0000000+00:00</time></trkpt><trkpt lat="30.960709" lon="35.7542047"><ele>424.4</ele><time>2015-11-22T08:39:47.0000000+00:00</time></trkpt><trkpt lat="30.960725" lon="35.7541084"><ele>424.4</ele><time>2015-11-22T08:39:48.0000000+00:00</time></trkpt><trkpt lat="30.9607376" lon="35.7540039"><ele>424.4</ele><time>2015-11-22T08:39:49.0000000+00:00</time></trkpt><trkpt lat="30.9607508" lon="35.7539"><ele>424.4</ele><time>2015-11-22T08:39:50.0000000+00:00</time></trkpt><trkpt lat="30.9607609" lon="35.7537919"><ele>424.4</ele><time>2015-11-22T08:39:51.0000000+00:00</time></trkpt><trkpt lat="30.960768" lon="35.753687"><ele>423.9</ele><time>2015-11-22T08:39:52.0000000+00:00</time></trkpt><trkpt lat="30.9607745" lon="35.7535837"><ele>424.1</ele><time>2015-11-22T08:39:53.0000000+00:00</time></trkpt><trkpt lat="30.9607986" lon="35.7533704"><ele>424.3</ele><time>2015-11-22T08:39:55.0000000+00:00</time></trkpt><trkpt lat="30.9608189" lon="35.7531623"><ele>424.3</ele><time>2015-11-22T08:39:57.0000000+00:00</time></trkpt><trkpt lat="30.9608278" lon="35.7530606"><ele>424.4</ele><time>2015-11-22T08:39:58.0000000+00:00</time></trkpt><trkpt lat="30.9608306" lon="35.7529645"><ele>424.9</ele><time>2015-11-22T08:39:59.0000000+00:00</time></trkpt><trkpt lat="30.9608324" lon="35.7528692"><ele>425.1</ele><time>2015-11-22T08:40:00.0000000+00:00</time></trkpt><trkpt lat="30.9608384" lon="35.752777"><ele>425.3</ele><time>2015-11-22T08:40:01.0000000+00:00</time></trkpt><trkpt lat="30.960841" lon="35.7526868"><ele>425.3</ele><time>2015-11-22T08:40:02.0000000+00:00</time></trkpt><trkpt lat="30.9608462" lon="35.752593"><ele>425.4</ele><time>2015-11-22T08:40:03.0000000+00:00</time></trkpt><trkpt lat="30.9608519" lon="35.7525028"><ele>424.9</ele><time>2015-11-22T08:40:04.0000000+00:00</time></trkpt><trkpt lat="30.9608551" lon="35.7524118"><ele>424.6</ele><time>2015-11-22T08:40:05.0000000+00:00</time></trkpt><trkpt lat="30.9608526" lon="35.752323"><ele>424.5</ele><time>2015-11-22T08:40:06.0000000+00:00</time></trkpt><trkpt lat="30.9608479" lon="35.7522346"><ele>424.5</ele><time>2015-11-22T08:40:07.0000000+00:00</time></trkpt><trkpt lat="30.9608481" lon="35.7521448"><ele>424.4</ele><time>2015-11-22T08:40:08.0000000+00:00</time></trkpt><trkpt lat="30.9608452" lon="35.7520584"><ele>424.4</ele><time>2015-11-22T08:40:09.0000000+00:00</time></trkpt><trkpt lat="30.9608434" lon="35.751974"><ele>424.4</ele><time>2015-11-22T08:40:10.0000000+00:00</time></trkpt><trkpt lat="30.9608419" lon="35.7518874"><ele>424.4</ele><time>2015-11-22T08:40:11.0000000+00:00</time></trkpt><trkpt lat="30.960842" lon="35.7517999"><ele>424.4</ele><time>2015-11-22T08:40:12.0000000+00:00</time></trkpt><trkpt lat="30.96084" lon="35.7517142"><ele>424.9</ele><time>2015-11-22T08:40:13.0000000+00:00</time></trkpt><trkpt lat="30.9608391" lon="35.7516289"><ele>425.1</ele><time>2015-11-22T08:40:14.0000000+00:00</time></trkpt><trkpt lat="30.96084" lon="35.7515435"><ele>425.3</ele><time>2015-11-22T08:40:15.0000000+00:00</time></trkpt><trkpt lat="30.9608431" lon="35.7514566"><ele>425.3</ele><time>2015-11-22T08:40:16.0000000+00:00</time></trkpt><trkpt lat="30.9608405" lon="35.7513701"><ele>425.4</ele><time>2015-11-22T08:40:17.0000000+00:00</time></trkpt><trkpt lat="30.9608426" lon="35.7512849"><ele>425.4</ele><time>2015-11-22T08:40:18.0000000+00:00</time></trkpt><trkpt lat="30.9608394" lon="35.7512022"><ele>425.4</ele><time>2015-11-22T08:40:19.0000000+00:00</time></trkpt><trkpt lat="30.960842" lon="35.7511124"><ele>424.9</ele><time>2015-11-22T08:40:20.0000000+00:00</time></trkpt><trkpt lat="30.9608381" lon="35.751024"><ele>425.1</ele><time>2015-11-22T08:40:21.0000000+00:00</time></trkpt><trkpt lat="30.9608418" lon="35.7509344"><ele>424.8</ele><time>2015-11-22T08:40:22.0000000+00:00</time></trkpt><trkpt lat="30.9608393" lon="35.7508505"><ele>424.6</ele><time>2015-11-22T08:40:23.0000000+00:00</time></trkpt><trkpt lat="30.9608387" lon="35.7507629"><ele>425.0</ele><time>2015-11-22T08:40:24.0000000+00:00</time></trkpt><trkpt lat="30.9608361" lon="35.7506762"><ele>425.2</ele><time>2015-11-22T08:40:25.0000000+00:00</time></trkpt><trkpt lat="30.9608251" lon="35.7504974"><ele>425.3</ele><time>2015-11-22T08:40:27.0000000+00:00</time></trkpt><trkpt lat="30.9608231" lon="35.7504073"><ele>425.3</ele><time>2015-11-22T08:40:28.0000000+00:00</time></trkpt><trkpt lat="30.9608169" lon="35.7503119"><ele>425.4</ele><time>2015-11-22T08:40:29.0000000+00:00</time></trkpt><trkpt lat="30.9608158" lon="35.750217"><ele>425.4</ele><time>2015-11-22T08:40:30.0000000+00:00</time></trkpt><trkpt lat="30.9608083" lon="35.7501201"><ele>425.4</ele><time>2015-11-22T08:40:31.0000000+00:00</time></trkpt><trkpt lat="30.9608032" lon="35.7500222"><ele>425.4</ele><time>2015-11-22T08:40:32.0000000+00:00</time></trkpt><trkpt lat="30.9607893" lon="35.7498254"><ele>425.4</ele><time>2015-11-22T08:40:34.0000000+00:00</time></trkpt><trkpt lat="30.9607847" lon="35.7497234"><ele>424.9</ele><time>2015-11-22T08:40:35.0000000+00:00</time></trkpt><trkpt lat="30.9607776" lon="35.7496264"><ele>424.6</ele><time>2015-11-22T08:40:36.0000000+00:00</time></trkpt><trkpt lat="30.960773" lon="35.7495309"><ele>424.5</ele><time>2015-11-22T08:40:37.0000000+00:00</time></trkpt><trkpt lat="30.9607626" lon="35.7494328"><ele>424.5</ele><time>2015-11-22T08:40:38.0000000+00:00</time></trkpt><trkpt lat="30.9607561" lon="35.7493339"><ele>424.4</ele><time>2015-11-22T08:40:39.0000000+00:00</time></trkpt><trkpt lat="30.9607468" lon="35.749237"><ele>424.4</ele><time>2015-11-22T08:40:40.0000000+00:00</time></trkpt><trkpt lat="30.9607366" lon="35.7491389"><ele>423.9</ele><time>2015-11-22T08:40:41.0000000+00:00</time></trkpt><trkpt lat="30.9607325" lon="35.7490416"><ele>423.7</ele><time>2015-11-22T08:40:42.0000000+00:00</time></trkpt><trkpt lat="30.9607269" lon="35.7489462"><ele>423.5</ele><time>2015-11-22T08:40:43.0000000+00:00</time></trkpt><trkpt lat="30.9607197" lon="35.7488469"><ele>423.5</ele><time>2015-11-22T08:40:44.0000000+00:00</time></trkpt><trkpt lat="30.9607119" lon="35.7487484"><ele>423.4</ele><time>2015-11-22T08:40:45.0000000+00:00</time></trkpt><trkpt lat="30.9607136" lon="35.7486446"><ele>422.4</ele><time>2015-11-22T08:40:46.0000000+00:00</time></trkpt><trkpt lat="30.9607081" lon="35.7485455"><ele>422.4</ele><time>2015-11-22T08:40:47.0000000+00:00</time></trkpt><trkpt lat="30.9607022" lon="35.7484385"><ele>421.9</ele><time>2015-11-22T08:40:48.0000000+00:00</time></trkpt><trkpt lat="30.9606915" lon="35.7483363"><ele>422.2</ele><time>2015-11-22T08:40:49.0000000+00:00</time></trkpt><trkpt lat="30.9606856" lon="35.7482309"><ele>421.8</ele><time>2015-11-22T08:40:50.0000000+00:00</time></trkpt><trkpt lat="30.9606802" lon="35.748123"><ele>421.6</ele><time>2015-11-22T08:40:51.0000000+00:00</time></trkpt><trkpt lat="30.9606741" lon="35.7480166"><ele>421.5</ele><time>2015-11-22T08:40:52.0000000+00:00</time></trkpt><trkpt lat="30.9606684" lon="35.7479074"><ele>421.4</ele><time>2015-11-22T08:40:53.0000000+00:00</time></trkpt><trkpt lat="30.9606608" lon="35.7478055"><ele>420.9</ele><time>2015-11-22T08:40:54.0000000+00:00</time></trkpt><trkpt lat="30.9606572" lon="35.7477012"><ele>420.7</ele><time>2015-11-22T08:40:55.0000000+00:00</time></trkpt><trkpt lat="30.9606498" lon="35.7475981"><ele>420.5</ele><time>2015-11-22T08:40:56.0000000+00:00</time></trkpt><trkpt lat="30.9606471" lon="35.7474931"><ele>420.0</ele><time>2015-11-22T08:40:57.0000000+00:00</time></trkpt><trkpt lat="30.9606405" lon="35.7473884"><ele>419.7</ele><time>2015-11-22T08:40:58.0000000+00:00</time></trkpt><trkpt lat="30.9606334" lon="35.747289"><ele>419.5</ele><time>2015-11-22T08:40:59.0000000+00:00</time></trkpt><trkpt lat="30.9606292" lon="35.7471868"><ele>419.5</ele><time>2015-11-22T08:41:00.0000000+00:00</time></trkpt><trkpt lat="30.9606285" lon="35.7470794"><ele>418.9</ele><time>2015-11-22T08:41:01.0000000+00:00</time></trkpt><trkpt lat="30.9606207" lon="35.7469777"><ele>418.2</ele><time>2015-11-22T08:41:02.0000000+00:00</time></trkpt><trkpt lat="30.960609" lon="35.7468803"><ele>417.8</ele><time>2015-11-22T08:41:03.0000000+00:00</time></trkpt><trkpt lat="30.9606015" lon="35.7467833"><ele>418.1</ele><time>2015-11-22T08:41:04.0000000+00:00</time></trkpt><trkpt lat="30.9605937" lon="35.7466837"><ele>417.7</ele><time>2015-11-22T08:41:05.0000000+00:00</time></trkpt><trkpt lat="30.9605836" lon="35.746586"><ele>417.6</ele><time>2015-11-22T08:41:06.0000000+00:00</time></trkpt><trkpt lat="30.9605734" lon="35.7464868"><ele>417.5</ele><time>2015-11-22T08:41:07.0000000+00:00</time></trkpt><trkpt lat="30.9605626" lon="35.7463853"><ele>417.4</ele><time>2015-11-22T08:41:08.0000000+00:00</time></trkpt><trkpt lat="30.9605534" lon="35.7462803"><ele>417.4</ele><time>2015-11-22T08:41:09.0000000+00:00</time></trkpt><trkpt lat="30.9605447" lon="35.7461748"><ele>417.4</ele><time>2015-11-22T08:41:10.0000000+00:00</time></trkpt><trkpt lat="30.9605352" lon="35.7460679"><ele>417.4</ele><time>2015-11-22T08:41:11.0000000+00:00</time></trkpt><trkpt lat="30.9605303" lon="35.7459588"><ele>417.4</ele><time>2015-11-22T08:41:12.0000000+00:00</time></trkpt><trkpt lat="30.9605237" lon="35.7458478"><ele>417.9</ele><time>2015-11-22T08:41:13.0000000+00:00</time></trkpt><trkpt lat="30.960511" lon="35.7456266"><ele>417.6</ele><time>2015-11-22T08:41:15.0000000+00:00</time></trkpt><trkpt lat="30.960506" lon="35.7455143"><ele>417.5</ele><time>2015-11-22T08:41:16.0000000+00:00</time></trkpt><trkpt lat="30.9605002" lon="35.7453978"><ele>417.5</ele><time>2015-11-22T08:41:17.0000000+00:00</time></trkpt><trkpt lat="30.9604925" lon="35.745283"><ele>417.4</ele><time>2015-11-22T08:41:18.0000000+00:00</time></trkpt><trkpt lat="30.960491" lon="35.74517"><ele>416.9</ele><time>2015-11-22T08:41:19.0000000+00:00</time></trkpt><trkpt lat="30.9604903" lon="35.7450534"><ele>416.7</ele><time>2015-11-22T08:41:20.0000000+00:00</time></trkpt><trkpt lat="30.9605002" lon="35.7449316"><ele>416.0</ele><time>2015-11-22T08:41:21.0000000+00:00</time></trkpt><trkpt lat="30.9605125" lon="35.7448154"><ele>415.2</ele><time>2015-11-22T08:41:22.0000000+00:00</time></trkpt><trkpt lat="30.9605293" lon="35.7446938"><ele>414.8</ele><time>2015-11-22T08:41:23.0000000+00:00</time></trkpt><trkpt lat="30.9605435" lon="35.7445748"><ele>414.1</ele><time>2015-11-22T08:41:24.0000000+00:00</time></trkpt><trkpt lat="30.9605646" lon="35.7444543"><ele>413.8</ele><time>2015-11-22T08:41:25.0000000+00:00</time></trkpt><trkpt lat="30.9605863" lon="35.7443376"><ele>413.6</ele><time>2015-11-22T08:41:26.0000000+00:00</time></trkpt><trkpt lat="30.9606146" lon="35.7442193"><ele>413.0</ele><time>2015-11-22T08:41:27.0000000+00:00</time></trkpt><trkpt lat="30.9606437" lon="35.74411"><ele>412.7</ele><time>2015-11-22T08:41:28.0000000+00:00</time></trkpt><trkpt lat="30.9606767" lon="35.7439988"><ele>412.5</ele><time>2015-11-22T08:41:29.0000000+00:00</time></trkpt><trkpt lat="30.960715" lon="35.7438905"><ele>412.0</ele><time>2015-11-22T08:41:30.0000000+00:00</time></trkpt><trkpt lat="30.9607466" lon="35.7437878"><ele>411.7</ele><time>2015-11-22T08:41:31.0000000+00:00</time></trkpt><trkpt lat="30.960788" lon="35.7436846"><ele>411.0</ele><time>2015-11-22T08:41:32.0000000+00:00</time></trkpt><trkpt lat="30.9608301" lon="35.7435807"><ele>410.7</ele><time>2015-11-22T08:41:33.0000000+00:00</time></trkpt><trkpt lat="30.9608775" lon="35.7434895"><ele>410.6</ele><time>2015-11-22T08:41:34.0000000+00:00</time></trkpt><trkpt lat="30.9609268" lon="35.7433955"><ele>410.5</ele><time>2015-11-22T08:41:35.0000000+00:00</time></trkpt><trkpt lat="30.9609787" lon="35.7433005"><ele>410.4</ele><time>2015-11-22T08:41:36.0000000+00:00</time></trkpt><trkpt lat="30.961031" lon="35.7432135"><ele>410.4</ele><time>2015-11-22T08:41:37.0000000+00:00</time></trkpt><trkpt lat="30.9610836" lon="35.7431325"><ele>410.4</ele><time>2015-11-22T08:41:38.0000000+00:00</time></trkpt><trkpt lat="30.9611384" lon="35.743056"><ele>410.4</ele><time>2015-11-22T08:41:39.0000000+00:00</time></trkpt><trkpt lat="30.961196" lon="35.7429823"><ele>410.4</ele><time>2015-11-22T08:41:40.0000000+00:00</time></trkpt><trkpt lat="30.9612462" lon="35.7429148"><ele>410.4</ele><time>2015-11-22T08:41:41.0000000+00:00</time></trkpt><trkpt lat="30.9613032" lon="35.7428471"><ele>410.9</ele><time>2015-11-22T08:41:42.0000000+00:00</time></trkpt><trkpt lat="30.9613507" lon="35.7427836"><ele>411.1</ele><time>2015-11-22T08:41:43.0000000+00:00</time></trkpt><trkpt lat="30.9614025" lon="35.7427227"><ele>411.8</ele><time>2015-11-22T08:41:44.0000000+00:00</time></trkpt><trkpt lat="30.9614494" lon="35.7426688"><ele>412.1</ele><time>2015-11-22T08:41:45.0000000+00:00</time></trkpt><trkpt lat="30.9615448" lon="35.74257"><ele>412.7</ele><time>2015-11-22T08:41:47.0000000+00:00</time></trkpt><trkpt lat="30.9615981" lon="35.7425259"><ele>413.6</ele><time>2015-11-22T08:41:48.0000000+00:00</time></trkpt><trkpt lat="30.9616476" lon="35.7424769"><ele>414.5</ele><time>2015-11-22T08:41:49.0000000+00:00</time></trkpt><trkpt lat="30.961695" lon="35.7424363"><ele>414.9</ele><time>2015-11-22T08:41:50.0000000+00:00</time></trkpt><trkpt lat="30.9617405" lon="35.7423977"><ele>415.7</ele><time>2015-11-22T08:41:51.0000000+00:00</time></trkpt><trkpt lat="30.961783" lon="35.7423596"><ele>416.0</ele><time>2015-11-22T08:41:52.0000000+00:00</time></trkpt><trkpt lat="30.9618225" lon="35.7423219"><ele>416.2</ele><time>2015-11-22T08:41:53.0000000+00:00</time></trkpt><trkpt lat="30.9618606" lon="35.7422854"><ele>416.8</ele><time>2015-11-22T08:41:54.0000000+00:00</time></trkpt><trkpt lat="30.9618974" lon="35.7422464"><ele>417.1</ele><time>2015-11-22T08:41:55.0000000+00:00</time></trkpt><trkpt lat="30.9619339" lon="35.74221"><ele>417.8</ele><time>2015-11-22T08:41:56.0000000+00:00</time></trkpt><trkpt lat="30.9620006" lon="35.7421474"><ele>419.0</ele><time>2015-11-22T08:41:58.0000000+00:00</time></trkpt><trkpt lat="30.9620379" lon="35.7421172"><ele>419.2</ele><time>2015-11-22T08:41:59.0000000+00:00</time></trkpt><trkpt lat="30.9620969" lon="35.7420631"><ele>419.8</ele><time>2015-11-22T08:42:01.0000000+00:00</time></trkpt><trkpt lat="30.9621595" lon="35.7419985"><ele>419.5</ele><time>2015-11-22T08:42:03.0000000+00:00</time></trkpt><trkpt lat="30.9622138" lon="35.7419458"><ele>419.4</ele><time>2015-11-22T08:42:05.0000000+00:00</time></trkpt><trkpt lat="30.9622487" lon="35.7419073"><ele>419.4</ele><time>2015-11-22T08:42:07.0000000+00:00</time></trkpt><trkpt lat="30.9622895" lon="35.7418617"><ele>419.9</ele><time>2015-11-22T08:42:10.0000000+00:00</time></trkpt><trkpt lat="30.9623372" lon="35.7418294"><ele>421.5</ele><time>2015-11-22T08:42:28.0000000+00:00</time></trkpt><trkpt lat="30.9623781" lon="35.7417947"><ele>420.5</ele><time>2015-11-22T08:42:31.0000000+00:00</time></trkpt><trkpt lat="30.9624017" lon="35.7417498"><ele>421.5</ele><time>2015-11-22T08:47:49.0000000+00:00</time></trkpt><trkpt lat="30.9624176" lon="35.7417"><ele>424.2</ele><time>2015-11-22T08:47:54.0000000+00:00</time></trkpt><trkpt lat="30.9624526" lon="35.741641"><ele>423.6</ele><time>2015-11-22T08:47:58.0000000+00:00</time></trkpt><trkpt lat="30.9624881" lon="35.7416014"><ele>424.0</ele><time>2015-11-22T08:48:00.0000000+00:00</time></trkpt><trkpt lat="30.9625231" lon="35.7415486"><ele>424.0</ele><time>2015-11-22T08:48:02.0000000+00:00</time></trkpt><trkpt lat="30.9625473" lon="35.7414881"><ele>425.1</ele><time>2015-11-22T08:48:04.0000000+00:00</time></trkpt><trkpt lat="30.9625729" lon="35.7414213"><ele>425.8</ele><time>2015-11-22T08:48:06.0000000+00:00</time></trkpt><trkpt lat="30.9625974" lon="35.7413476"><ele>426.3</ele><time>2015-11-22T08:48:08.0000000+00:00</time></trkpt><trkpt lat="30.962621" lon="35.7412664"><ele>426.4</ele><time>2015-11-22T08:48:10.0000000+00:00</time></trkpt><trkpt lat="30.9626402" lon="35.7411822"><ele>426.4</ele><time>2015-11-22T08:48:12.0000000+00:00</time></trkpt><trkpt lat="30.9626521" lon="35.7410942"><ele>426.4</ele><time>2015-11-22T08:48:14.0000000+00:00</time></trkpt><trkpt lat="30.9626588" lon="35.7410052"><ele>426.9</ele><time>2015-11-22T08:48:16.0000000+00:00</time></trkpt><trkpt lat="30.9626615" lon="35.7409153"><ele>427.3</ele><time>2015-11-22T08:48:18.0000000+00:00</time></trkpt><trkpt lat="30.9626605" lon="35.7408244"><ele>427.9</ele><time>2015-11-22T08:48:20.0000000+00:00</time></trkpt><trkpt lat="30.9626535" lon="35.7407338"><ele>429.0</ele><time>2015-11-22T08:48:22.0000000+00:00</time></trkpt><trkpt lat="30.9626414" lon="35.7406456"><ele>429.8</ele><time>2015-11-22T08:48:24.0000000+00:00</time></trkpt><trkpt lat="30.9626269" lon="35.7405637"><ele>428.3</ele><time>2015-11-22T08:48:26.0000000+00:00</time></trkpt><trkpt lat="30.9626068" lon="35.7404822"><ele>427.6</ele><time>2015-11-22T08:48:28.0000000+00:00</time></trkpt><trkpt lat="30.9625837" lon="35.7404011"><ele>428.5</ele><time>2015-11-22T08:48:30.0000000+00:00</time></trkpt><trkpt lat="30.9625561" lon="35.7403241"><ele>429.2</ele><time>2015-11-22T08:48:32.0000000+00:00</time></trkpt><trkpt lat="30.9625255" lon="35.7402501"><ele>429.3</ele><time>2015-11-22T08:48:34.0000000+00:00</time></trkpt><trkpt lat="30.9624898" lon="35.7401804"><ele>429.4</ele><time>2015-11-22T08:48:36.0000000+00:00</time></trkpt><trkpt lat="30.9624552" lon="35.7401127"><ele>431.1</ele><time>2015-11-22T08:48:38.0000000+00:00</time></trkpt><trkpt lat="30.962421" lon="35.7400547"><ele>431.3</ele><time>2015-11-22T08:48:40.0000000+00:00</time></trkpt><trkpt lat="30.9623859" lon="35.7399968"><ele>432.1</ele><time>2015-11-22T08:48:42.0000000+00:00</time></trkpt><trkpt lat="30.9623436" lon="35.7399427"><ele>432.8</ele><time>2015-11-22T08:48:44.0000000+00:00</time></trkpt><trkpt lat="30.962296" lon="35.7398952"><ele>433.0</ele><time>2015-11-22T08:48:46.0000000+00:00</time></trkpt><trkpt lat="30.9622508" lon="35.7398467"><ele>433.8</ele><time>2015-11-22T08:48:48.0000000+00:00</time></trkpt><trkpt lat="30.962206" lon="35.7397997"><ele>434.2</ele><time>2015-11-22T08:48:50.0000000+00:00</time></trkpt><trkpt lat="30.9621622" lon="35.7397583"><ele>434.4</ele><time>2015-11-22T08:48:52.0000000+00:00</time></trkpt><trkpt lat="30.9621193" lon="35.739721"><ele>434.6</ele><time>2015-11-22T08:48:54.0000000+00:00</time></trkpt><trkpt lat="30.9620713" lon="35.7396757"><ele>434.9</ele><time>2015-11-22T08:48:57.0000000+00:00</time></trkpt><trkpt lat="30.9620259" lon="35.739625"><ele>436.2</ele><time>2015-11-22T08:49:00.0000000+00:00</time></trkpt><trkpt lat="30.9619723" lon="35.7395797"><ele>437.3</ele><time>2015-11-22T08:49:03.0000000+00:00</time></trkpt><trkpt lat="30.9619287" lon="35.7395305"><ele>438.1</ele><time>2015-11-22T08:49:06.0000000+00:00</time></trkpt><trkpt lat="30.9618818" lon="35.7394822"><ele>438.9</ele><time>2015-11-22T08:49:09.0000000+00:00</time></trkpt><trkpt lat="30.9618376" lon="35.7394304"><ele>440.2</ele><time>2015-11-22T08:49:12.0000000+00:00</time></trkpt><trkpt lat="30.9617938" lon="35.7393838"><ele>439.9</ele><time>2015-11-22T08:49:15.0000000+00:00</time></trkpt><trkpt lat="30.9617553" lon="35.7393316"><ele>440.2</ele><time>2015-11-22T08:49:18.0000000+00:00</time></trkpt><trkpt lat="30.9617199" lon="35.7392821"><ele>440.9</ele><time>2015-11-22T08:49:21.0000000+00:00</time></trkpt><trkpt lat="30.9616824" lon="35.7392403"><ele>440.5</ele><time>2015-11-22T08:49:24.0000000+00:00</time></trkpt><trkpt lat="30.9616448" lon="35.7391963"><ele>441.2</ele><time>2015-11-22T08:49:27.0000000+00:00</time></trkpt><trkpt lat="30.9616029" lon="35.739157"><ele>441.4</ele><time>2015-11-22T08:49:30.0000000+00:00</time></trkpt><trkpt lat="30.9615541" lon="35.7391138"><ele>442.3</ele><time>2015-11-22T08:49:33.0000000+00:00</time></trkpt><trkpt lat="30.9615066" lon="35.7390632"><ele>444.0</ele><time>2015-11-22T08:49:36.0000000+00:00</time></trkpt><trkpt lat="30.9614601" lon="35.7390093"><ele>445.2</ele><time>2015-11-22T08:49:39.0000000+00:00</time></trkpt><trkpt lat="30.9614128" lon="35.738962"><ele>446.1</ele><time>2015-11-22T08:49:42.0000000+00:00</time></trkpt><trkpt lat="30.9613675" lon="35.7389174"><ele>446.4</ele><time>2015-11-22T08:49:45.0000000+00:00</time></trkpt><trkpt lat="30.9613245" lon="35.7388756"><ele>446.4</ele><time>2015-11-22T08:49:48.0000000+00:00</time></trkpt><trkpt lat="30.961286" lon="35.7388382"><ele>446.4</ele><time>2015-11-22T08:49:51.0000000+00:00</time></trkpt><trkpt lat="30.9612521" lon="35.7387981"><ele>446.4</ele><time>2015-11-22T08:49:54.0000000+00:00</time></trkpt><trkpt lat="30.9612232" lon="35.7387566"><ele>446.3</ele><time>2015-11-22T08:49:57.0000000+00:00</time></trkpt><trkpt lat="30.961188" lon="35.7387056"><ele>446.4</ele><time>2015-11-22T08:50:01.0000000+00:00</time></trkpt><trkpt lat="30.9611522" lon="35.7386703"><ele>446.3</ele><time>2015-11-22T08:50:04.0000000+00:00</time></trkpt><trkpt lat="30.9611178" lon="35.7386312"><ele>447.3</ele><time>2015-11-22T08:50:07.0000000+00:00</time></trkpt><trkpt lat="30.9610919" lon="35.7385849"><ele>447.4</ele><time>2015-11-22T08:50:10.0000000+00:00</time></trkpt><trkpt lat="30.9610686" lon="35.7385384"><ele>447.4</ele><time>2015-11-22T08:50:13.0000000+00:00</time></trkpt><trkpt lat="30.961032" lon="35.7384818"><ele>447.1</ele><time>2015-11-22T08:50:17.0000000+00:00</time></trkpt><trkpt lat="30.9610041" lon="35.738436"><ele>446.6</ele><time>2015-11-22T08:50:20.0000000+00:00</time></trkpt><trkpt lat="30.9609748" lon="35.738388"><ele>446.1</ele><time>2015-11-22T08:50:23.0000000+00:00</time></trkpt><trkpt lat="30.9609482" lon="35.7383347"><ele>447.2</ele><time>2015-11-22T08:50:26.0000000+00:00</time></trkpt><trkpt lat="30.9609261" lon="35.7382757"><ele>447.5</ele><time>2015-11-22T08:50:29.0000000+00:00</time></trkpt><trkpt lat="30.9609096" lon="35.738224"><ele>446.5</ele><time>2015-11-22T08:50:32.0000000+00:00</time></trkpt><trkpt lat="30.9608912" lon="35.7381707"><ele>445.9</ele><time>2015-11-22T08:50:35.0000000+00:00</time></trkpt><trkpt lat="30.9608692" lon="35.7381226"><ele>445.0</ele><time>2015-11-22T08:50:38.0000000+00:00</time></trkpt><trkpt lat="30.9608518" lon="35.7380675"><ele>444.5</ele><time>2015-11-22T08:50:41.0000000+00:00</time></trkpt><trkpt lat="30.960835" lon="35.7380101"><ele>445.2</ele><time>2015-11-22T08:50:44.0000000+00:00</time></trkpt><trkpt lat="30.9608181" lon="35.7379484"><ele>446.1</ele><time>2015-11-22T08:50:47.0000000+00:00</time></trkpt><trkpt lat="30.9608018" lon="35.7378809"><ele>447.2</ele><time>2015-11-22T08:50:50.0000000+00:00</time></trkpt><trkpt lat="30.9607841" lon="35.7378191"><ele>448.1</ele><time>2015-11-22T08:50:53.0000000+00:00</time></trkpt><trkpt lat="30.9607705" lon="35.7377583"><ele>448.9</ele><time>2015-11-22T08:50:56.0000000+00:00</time></trkpt><trkpt lat="30.9607543" lon="35.737698"><ele>450.0</ele><time>2015-11-22T08:50:59.0000000+00:00</time></trkpt><trkpt lat="30.96075" lon="35.737635"><ele>449.8</ele><time>2015-11-22T08:51:02.0000000+00:00</time></trkpt><trkpt lat="30.9607435" lon="35.7375748"><ele>451.0</ele><time>2015-11-22T08:51:05.0000000+00:00</time></trkpt><trkpt lat="30.9607368" lon="35.7375102"><ele>452.2</ele><time>2015-11-22T08:51:08.0000000+00:00</time></trkpt><trkpt lat="30.9607404" lon="35.7374457"><ele>452.4</ele><time>2015-11-22T08:51:11.0000000+00:00</time></trkpt><trkpt lat="30.9607466" lon="35.7373818"><ele>451.5</ele><time>2015-11-22T08:51:14.0000000+00:00</time></trkpt><trkpt lat="30.9607503" lon="35.7373205"><ele>452.0</ele><time>2015-11-22T08:51:17.0000000+00:00</time></trkpt><trkpt lat="30.9607557" lon="35.7372584"><ele>453.2</ele><time>2015-11-22T08:51:20.0000000+00:00</time></trkpt><trkpt lat="30.9607642" lon="35.7371996"><ele>453.9</ele><time>2015-11-22T08:51:23.0000000+00:00</time></trkpt><trkpt lat="30.9607766" lon="35.7371365"><ele>454.8</ele><time>2015-11-22T08:51:26.0000000+00:00</time></trkpt><trkpt lat="30.9607801" lon="35.7370745"><ele>456.6</ele><time>2015-11-22T08:51:29.0000000+00:00</time></trkpt><trkpt lat="30.9607911" lon="35.7370123"><ele>457.3</ele><time>2015-11-22T08:51:32.0000000+00:00</time></trkpt><trkpt lat="30.9608028" lon="35.7369459"><ele>457.8</ele><time>2015-11-22T08:51:35.0000000+00:00</time></trkpt><trkpt lat="30.960816" lon="35.7368839"><ele>457.4</ele><time>2015-11-22T08:51:38.0000000+00:00</time></trkpt><trkpt lat="30.9608226" lon="35.7368211"><ele>458.2</ele><time>2015-11-22T08:51:41.0000000+00:00</time></trkpt><trkpt lat="30.9608274" lon="35.7367632"><ele>458.2</ele><time>2015-11-22T08:51:44.0000000+00:00</time></trkpt><trkpt lat="30.9608316" lon="35.7367015"><ele>457.9</ele><time>2015-11-22T08:51:47.0000000+00:00</time></trkpt><trkpt lat="30.9608396" lon="35.736635"><ele>458.3</ele><time>2015-11-22T08:51:50.0000000+00:00</time></trkpt><trkpt lat="30.9608511" lon="35.7365662"><ele>460.0</ele><time>2015-11-22T08:51:53.0000000+00:00</time></trkpt><trkpt lat="30.9608664" lon="35.7365083"><ele>459.5</ele><time>2015-11-22T08:51:56.0000000+00:00</time></trkpt><trkpt lat="30.9608763" lon="35.7364456"><ele>459.9</ele><time>2015-11-22T08:51:59.0000000+00:00</time></trkpt><trkpt lat="30.9608769" lon="35.7363927"><ele>459.1</ele><time>2015-11-22T08:52:02.0000000+00:00</time></trkpt><trkpt lat="30.9608791" lon="35.7363332"><ele>461.7</ele><time>2015-11-22T08:52:05.0000000+00:00</time></trkpt><trkpt lat="30.9608852" lon="35.7362699"><ele>463.1</ele><time>2015-11-22T08:52:08.0000000+00:00</time></trkpt><trkpt lat="30.9608882" lon="35.7362054"><ele>463.6</ele><time>2015-11-22T08:52:11.0000000+00:00</time></trkpt><trkpt lat="30.960891" lon="35.7361416"><ele>464.2</ele><time>2015-11-22T08:52:14.0000000+00:00</time></trkpt><trkpt lat="30.9608914" lon="35.7360839"><ele>463.6</ele><time>2015-11-22T08:52:17.0000000+00:00</time></trkpt><trkpt lat="30.9608904" lon="35.7360232"><ele>464.8</ele><time>2015-11-22T08:52:20.0000000+00:00</time></trkpt><trkpt lat="30.9608909" lon="35.73596"><ele>465.3</ele><time>2015-11-22T08:52:23.0000000+00:00</time></trkpt><trkpt lat="30.9608919" lon="35.7358984"><ele>465.4</ele><time>2015-11-22T08:52:26.0000000+00:00</time></trkpt><trkpt lat="30.9608887" lon="35.7358383"><ele>465.6</ele><time>2015-11-22T08:52:29.0000000+00:00</time></trkpt><trkpt lat="30.9608908" lon="35.7357778"><ele>466.2</ele><time>2015-11-22T08:52:32.0000000+00:00</time></trkpt><trkpt lat="30.960895" lon="35.7357222"><ele>467.2</ele><time>2015-11-22T08:52:35.0000000+00:00</time></trkpt><trkpt lat="30.9608979" lon="35.7356574"><ele>468.1</ele><time>2015-11-22T08:52:39.0000000+00:00</time></trkpt><trkpt lat="30.9608645" lon="35.7356141"><ele>469.1</ele><time>2015-11-22T08:56:46.0000000+00:00</time></trkpt><trkpt lat="30.9608512" lon="35.7355598"><ele>468.9</ele><time>2015-11-22T08:56:50.0000000+00:00</time></trkpt><trkpt lat="30.960842" lon="35.7355081"><ele>469.3</ele><time>2015-11-22T08:56:53.0000000+00:00</time></trkpt><trkpt lat="30.9608344" lon="35.7354554"><ele>469.3</ele><time>2015-11-22T08:56:56.0000000+00:00</time></trkpt><trkpt lat="30.9608199" lon="35.7353942"><ele>469.4</ele><time>2015-11-22T08:57:00.0000000+00:00</time></trkpt><trkpt lat="30.9607917" lon="35.7353326"><ele>469.4</ele><time>2015-11-22T08:57:04.0000000+00:00</time></trkpt><trkpt lat="30.9607746" lon="35.7352818"><ele>469.9</ele><time>2015-11-22T08:57:07.0000000+00:00</time></trkpt><trkpt lat="30.9607533" lon="35.735218"><ele>471.7</ele><time>2015-11-22T08:57:11.0000000+00:00</time></trkpt><trkpt lat="30.9607255" lon="35.7351699"><ele>472.3</ele><time>2015-11-22T08:57:14.0000000+00:00</time></trkpt><trkpt lat="30.9607078" lon="35.7351158"><ele>472.4</ele><time>2015-11-22T08:57:17.0000000+00:00</time></trkpt><trkpt lat="30.9606935" lon="35.7350655"><ele>472.4</ele><time>2015-11-22T08:57:20.0000000+00:00</time></trkpt><trkpt lat="30.9606625" lon="35.7350069"><ele>473.3</ele><time>2015-11-22T08:57:24.0000000+00:00</time></trkpt><trkpt lat="30.9606393" lon="35.7349467"><ele>473.4</ele><time>2015-11-22T08:57:28.0000000+00:00</time></trkpt><trkpt lat="30.9606141" lon="35.7349022"><ele>472.5</ele><time>2015-11-22T08:57:31.0000000+00:00</time></trkpt><trkpt lat="30.9605858" lon="35.7348591"><ele>472.5</ele><time>2015-11-22T08:57:34.0000000+00:00</time></trkpt><trkpt lat="30.9605556" lon="35.7348037"><ele>472.4</ele><time>2015-11-22T08:57:38.0000000+00:00</time></trkpt><trkpt lat="30.9605223" lon="35.7347486"><ele>472.4</ele><time>2015-11-22T08:57:42.0000000+00:00</time></trkpt><trkpt lat="30.9604896" lon="35.7347083"><ele>474.0</ele><time>2015-11-22T08:57:45.0000000+00:00</time></trkpt><trkpt lat="30.9604601" lon="35.7346681"><ele>475.1</ele><time>2015-11-22T08:57:48.0000000+00:00</time></trkpt><trkpt lat="30.9604342" lon="35.7346248"><ele>475.4</ele><time>2015-11-22T08:57:51.0000000+00:00</time></trkpt><trkpt lat="30.9603975" lon="35.7345705"><ele>475.4</ele><time>2015-11-22T08:57:55.0000000+00:00</time></trkpt><trkpt lat="30.9603647" lon="35.734533"><ele>475.9</ele><time>2015-11-22T08:57:58.0000000+00:00</time></trkpt><trkpt lat="30.9603382" lon="35.7344891"><ele>476.3</ele><time>2015-11-22T08:58:01.0000000+00:00</time></trkpt><trkpt lat="30.9602982" lon="35.734441"><ele>475.5</ele><time>2015-11-22T08:58:05.0000000+00:00</time></trkpt><trkpt lat="30.9602568" lon="35.734406"><ele>476.2</ele><time>2015-11-22T08:58:08.0000000+00:00</time></trkpt><trkpt lat="30.9602126" lon="35.7343666"><ele>476.4</ele><time>2015-11-22T08:58:11.0000000+00:00</time></trkpt><trkpt lat="30.960171" lon="35.7343211"><ele>476.4</ele><time>2015-11-22T08:58:14.0000000+00:00</time></trkpt><trkpt lat="30.9601257" lon="35.7342762"><ele>478.6</ele><time>2015-11-22T08:58:17.0000000+00:00</time></trkpt><trkpt lat="30.9600806" lon="35.7342338"><ele>479.3</ele><time>2015-11-22T08:58:20.0000000+00:00</time></trkpt><trkpt lat="30.9600386" lon="35.7341985"><ele>479.9</ele><time>2015-11-22T08:58:23.0000000+00:00</time></trkpt><trkpt lat="30.9599898" lon="35.7341606"><ele>480.3</ele><time>2015-11-22T08:58:26.0000000+00:00</time></trkpt><trkpt lat="30.9599445" lon="35.734115"><ele>480.6</ele><time>2015-11-22T08:58:29.0000000+00:00</time></trkpt><trkpt lat="30.9598968" lon="35.734074"><ele>480.9</ele><time>2015-11-22T08:58:32.0000000+00:00</time></trkpt><trkpt lat="30.9598609" lon="35.7340423"><ele>482.0</ele><time>2015-11-22T08:58:34.0000000+00:00</time></trkpt><trkpt lat="30.9598242" lon="35.7340059"><ele>482.3</ele><time>2015-11-22T08:58:36.0000000+00:00</time></trkpt><trkpt lat="30.9597864" lon="35.7339688"><ele>483.1</ele><time>2015-11-22T08:58:38.0000000+00:00</time></trkpt><trkpt lat="30.9597206" lon="35.7339084"><ele>484.4</ele><time>2015-11-22T08:58:41.0000000+00:00</time></trkpt><trkpt lat="30.9596688" lon="35.7338653"><ele>485.1</ele><time>2015-11-22T08:58:43.0000000+00:00</time></trkpt><trkpt lat="30.9596192" lon="35.7338238"><ele>485.3</ele><time>2015-11-22T08:58:45.0000000+00:00</time></trkpt><trkpt lat="30.9595705" lon="35.7337845"><ele>485.4</ele><time>2015-11-22T08:58:47.0000000+00:00</time></trkpt><trkpt lat="30.959524" lon="35.733746"><ele>486.6</ele><time>2015-11-22T08:58:49.0000000+00:00</time></trkpt><trkpt lat="30.9594794" lon="35.7337107"><ele>487.2</ele><time>2015-11-22T08:58:51.0000000+00:00</time></trkpt><trkpt lat="30.9594374" lon="35.733678"><ele>487.4</ele><time>2015-11-22T08:58:53.0000000+00:00</time></trkpt><trkpt lat="30.9593962" lon="35.7336416"><ele>487.4</ele><time>2015-11-22T08:58:55.0000000+00:00</time></trkpt><trkpt lat="30.9593585" lon="35.7335983"><ele>470.6</ele><time>2015-11-22T08:58:57.0000000+00:00</time></trkpt><trkpt lat="30.9593185" lon="35.7335567"><ele>477.0</ele><time>2015-11-22T08:58:59.0000000+00:00</time></trkpt><trkpt lat="30.9592769" lon="35.7335169"><ele>482.0</ele><time>2015-11-22T08:59:01.0000000+00:00</time></trkpt><trkpt lat="30.9592346" lon="35.733476"><ele>484.6</ele><time>2015-11-22T08:59:03.0000000+00:00</time></trkpt><trkpt lat="30.9591925" lon="35.7334344"><ele>485.9</ele><time>2015-11-22T08:59:05.0000000+00:00</time></trkpt><trkpt lat="30.9591515" lon="35.7333917"><ele>486.7</ele><time>2015-11-22T08:59:07.0000000+00:00</time></trkpt><trkpt lat="30.9591095" lon="35.7333502"><ele>487.2</ele><time>2015-11-22T08:59:09.0000000+00:00</time></trkpt><trkpt lat="30.9590692" lon="35.7333082"><ele>487.4</ele><time>2015-11-22T08:59:11.0000000+00:00</time></trkpt><trkpt lat="30.9590349" lon="35.7332624"><ele>487.4</ele><time>2015-11-22T08:59:13.0000000+00:00</time></trkpt><trkpt lat="30.9590014" lon="35.7332173"><ele>487.4</ele><time>2015-11-22T08:59:15.0000000+00:00</time></trkpt><trkpt lat="30.9589686" lon="35.7331735"><ele>487.4</ele><time>2015-11-22T08:59:17.0000000+00:00</time></trkpt><trkpt lat="30.9589393" lon="35.7331268"><ele>487.4</ele><time>2015-11-22T08:59:19.0000000+00:00</time></trkpt><trkpt lat="30.9589075" lon="35.7330815"><ele>487.4</ele><time>2015-11-22T08:59:21.0000000+00:00</time></trkpt><trkpt lat="30.9588794" lon="35.7330337"><ele>487.9</ele><time>2015-11-22T08:59:23.0000000+00:00</time></trkpt><trkpt lat="30.9588532" lon="35.7329838"><ele>488.3</ele><time>2015-11-22T08:59:25.0000000+00:00</time></trkpt><trkpt lat="30.958825" lon="35.732935"><ele>488.4</ele><time>2015-11-22T08:59:27.0000000+00:00</time></trkpt><trkpt lat="30.958798" lon="35.7328853"><ele>488.9</ele><time>2015-11-22T08:59:29.0000000+00:00</time></trkpt><trkpt lat="30.9587775" lon="35.732832"><ele>488.5</ele><time>2015-11-22T08:59:31.0000000+00:00</time></trkpt><trkpt lat="30.9587581" lon="35.7327769"><ele>488.7</ele><time>2015-11-22T08:59:33.0000000+00:00</time></trkpt><trkpt lat="30.9587403" lon="35.7327205"><ele>488.5</ele><time>2015-11-22T08:59:35.0000000+00:00</time></trkpt><trkpt lat="30.9587244" lon="35.7326633"><ele>488.4</ele><time>2015-11-22T08:59:37.0000000+00:00</time></trkpt><trkpt lat="30.95871" lon="35.7326062"><ele>488.4</ele><time>2015-11-22T08:59:39.0000000+00:00</time></trkpt><trkpt lat="30.9586971" lon="35.7325487"><ele>488.9</ele><time>2015-11-22T08:59:41.0000000+00:00</time></trkpt><trkpt lat="30.958685" lon="35.7324915"><ele>489.3</ele><time>2015-11-22T08:59:43.0000000+00:00</time></trkpt><trkpt lat="30.9586732" lon="35.732434"><ele>489.4</ele><time>2015-11-22T08:59:45.0000000+00:00</time></trkpt><trkpt lat="30.9586536" lon="35.7323478"><ele>489.6</ele><time>2015-11-22T08:59:48.0000000+00:00</time></trkpt><trkpt lat="30.9586478" lon="35.7322892"><ele>490.0</ele><time>2015-11-22T08:59:50.0000000+00:00</time></trkpt><trkpt lat="30.9586468" lon="35.7322333"><ele>490.2</ele><time>2015-11-22T08:59:52.0000000+00:00</time></trkpt><trkpt lat="30.9586477" lon="35.732178"><ele>490.8</ele><time>2015-11-22T08:59:54.0000000+00:00</time></trkpt><trkpt lat="30.9586516" lon="35.7321234"><ele>491.0</ele><time>2015-11-22T08:59:56.0000000+00:00</time></trkpt><trkpt lat="30.9586554" lon="35.7320694"><ele>491.3</ele><time>2015-11-22T08:59:58.0000000+00:00</time></trkpt><trkpt lat="30.9586577" lon="35.7320158"><ele>491.9</ele><time>2015-11-22T09:00:00.0000000+00:00</time></trkpt><trkpt lat="30.9586591" lon="35.7319632"><ele>492.3</ele><time>2015-11-22T09:00:02.0000000+00:00</time></trkpt><trkpt lat="30.9586649" lon="35.7318891"><ele>492.9</ele><time>2015-11-22T09:00:05.0000000+00:00</time></trkpt><trkpt lat="30.9586713" lon="35.7318348"><ele>492.6</ele><time>2015-11-22T09:00:08.0000000+00:00</time></trkpt><trkpt lat="30.9587044" lon="35.7317986"><ele>492.4</ele><time>2015-11-22T09:02:29.0000000+00:00</time></trkpt><trkpt lat="30.9587185" lon="35.7317377"><ele>490.6</ele><time>2015-11-22T09:06:06.0000000+00:00</time></trkpt><trkpt lat="30.9587236" lon="35.731681"><ele>490.7</ele><time>2015-11-22T09:06:10.0000000+00:00</time></trkpt><trkpt lat="30.958733" lon="35.7316216"><ele>492.0</ele><time>2015-11-22T09:06:14.0000000+00:00</time></trkpt><trkpt lat="30.9587458" lon="35.7315684"><ele>492.4</ele><time>2015-11-22T09:06:17.0000000+00:00</time></trkpt><trkpt lat="30.9587616" lon="35.7315086"><ele>492.6</ele><time>2015-11-22T09:06:20.0000000+00:00</time></trkpt><trkpt lat="30.9587785" lon="35.7314487"><ele>493.1</ele><time>2015-11-22T09:06:23.0000000+00:00</time></trkpt><trkpt lat="30.9588006" lon="35.7313873"><ele>492.9</ele><time>2015-11-22T09:06:26.0000000+00:00</time></trkpt><trkpt lat="30.9588238" lon="35.7313242"><ele>492.7</ele><time>2015-11-22T09:06:29.0000000+00:00</time></trkpt><trkpt lat="30.9588462" lon="35.7312684"><ele>494.4</ele><time>2015-11-22T09:06:32.0000000+00:00</time></trkpt><trkpt lat="30.9588685" lon="35.7312143"><ele>496.9</ele><time>2015-11-22T09:06:35.0000000+00:00</time></trkpt><trkpt lat="30.9588891" lon="35.73116"><ele>497.8</ele><time>2015-11-22T09:06:38.0000000+00:00</time></trkpt><trkpt lat="30.9589098" lon="35.7311049"><ele>498.8</ele><time>2015-11-22T09:06:41.0000000+00:00</time></trkpt><trkpt lat="30.9589314" lon="35.7310553"><ele>499.3</ele><time>2015-11-22T09:06:44.0000000+00:00</time></trkpt><trkpt lat="30.9589518" lon="35.7310019"><ele>499.9</ele><time>2015-11-22T09:06:47.0000000+00:00</time></trkpt><trkpt lat="30.9589727" lon="35.730948"><ele>500.3</ele><time>2015-11-22T09:06:50.0000000+00:00</time></trkpt><trkpt lat="30.9589944" lon="35.7308954"><ele>501.1</ele><time>2015-11-22T09:06:53.0000000+00:00</time></trkpt><trkpt lat="30.9590176" lon="35.730841"><ele>502.1</ele><time>2015-11-22T09:06:56.0000000+00:00</time></trkpt><trkpt lat="30.959041" lon="35.7307908"><ele>501.9</ele><time>2015-11-22T09:06:59.0000000+00:00</time></trkpt><trkpt lat="30.9590586" lon="35.7307379"><ele>501.5</ele><time>2015-11-22T09:07:02.0000000+00:00</time></trkpt><trkpt lat="30.9590829" lon="35.7306868"><ele>502.2</ele><time>2015-11-22T09:07:05.0000000+00:00</time></trkpt><trkpt lat="30.959113" lon="35.7306342"><ele>503.6</ele><time>2015-11-22T09:07:08.0000000+00:00</time></trkpt><trkpt lat="30.9591369" lon="35.7305818"><ele>503.9</ele><time>2015-11-22T09:07:11.0000000+00:00</time></trkpt><trkpt lat="30.9591593" lon="35.73053"><ele>505.1</ele><time>2015-11-22T09:07:14.0000000+00:00</time></trkpt><trkpt lat="30.959185" lon="35.7304705"><ele>505.9</ele><time>2015-11-22T09:07:18.0000000+00:00</time></trkpt><trkpt lat="30.9592108" lon="35.7304194"><ele>505.6</ele><time>2015-11-22T09:07:22.0000000+00:00</time></trkpt><trkpt lat="30.9592338" lon="35.7303594"><ele>505.4</ele><time>2015-11-22T09:07:26.0000000+00:00</time></trkpt><trkpt lat="30.9592529" lon="35.73031"><ele>506.3</ele><time>2015-11-22T09:07:29.0000000+00:00</time></trkpt><trkpt lat="30.9592686" lon="35.7302559"><ele>508.0</ele><time>2015-11-22T09:07:32.0000000+00:00</time></trkpt><trkpt lat="30.9592915" lon="35.7301918"><ele>507.7</ele><time>2015-11-22T09:07:36.0000000+00:00</time></trkpt><trkpt lat="30.9593148" lon="35.730129"><ele>508.8</ele><time>2015-11-22T09:07:40.0000000+00:00</time></trkpt><trkpt lat="30.9593382" lon="35.7300652"><ele>509.5</ele><time>2015-11-22T09:07:44.0000000+00:00</time></trkpt><trkpt lat="30.9593533" lon="35.7300127"><ele>511.0</ele><time>2015-11-22T09:07:47.0000000+00:00</time></trkpt><trkpt lat="30.9593685" lon="35.7299607"><ele>512.1</ele><time>2015-11-22T09:07:50.0000000+00:00</time></trkpt><trkpt lat="30.9593827" lon="35.7298953"><ele>513.3</ele><time>2015-11-22T09:07:54.0000000+00:00</time></trkpt><trkpt lat="30.9593938" lon="35.7298437"><ele>515.0</ele><time>2015-11-22T09:07:57.0000000+00:00</time></trkpt><trkpt lat="30.9594105" lon="35.729792"><ele>515.9</ele><time>2015-11-22T09:08:00.0000000+00:00</time></trkpt><trkpt lat="30.9594254" lon="35.7297378"><ele>517.6</ele><time>2015-11-22T09:08:03.0000000+00:00</time></trkpt><trkpt lat="30.9594344" lon="35.7296771"><ele>518.3</ele><time>2015-11-22T09:08:06.0000000+00:00</time></trkpt><trkpt lat="30.9594378" lon="35.7296171"><ele>518.9</ele><time>2015-11-22T09:08:09.0000000+00:00</time></trkpt><trkpt lat="30.9594397" lon="35.7295571"><ele>519.3</ele><time>2015-11-22T09:08:12.0000000+00:00</time></trkpt><trkpt lat="30.9594411" lon="35.7294969"><ele>519.4</ele><time>2015-11-22T09:08:15.0000000+00:00</time></trkpt><trkpt lat="30.9594421" lon="35.7294373"><ele>519.4</ele><time>2015-11-22T09:08:18.0000000+00:00</time></trkpt><trkpt lat="30.9594416" lon="35.729376"><ele>520.3</ele><time>2015-11-22T09:08:21.0000000+00:00</time></trkpt><trkpt lat="30.9594385" lon="35.7293097"><ele>520.4</ele><time>2015-11-22T09:08:24.0000000+00:00</time></trkpt><trkpt lat="30.9594283" lon="35.7292414"><ele>520.4</ele><time>2015-11-22T09:08:27.0000000+00:00</time></trkpt><trkpt lat="30.9594127" lon="35.7291701"><ele>520.4</ele><time>2015-11-22T09:08:30.0000000+00:00</time></trkpt><trkpt lat="30.9593982" lon="35.7291019"><ele>507.8</ele><time>2015-11-22T09:08:33.0000000+00:00</time></trkpt><trkpt lat="30.9593819" lon="35.7290383"><ele>506.4</ele><time>2015-11-22T09:08:36.0000000+00:00</time></trkpt><trkpt lat="30.9593614" lon="35.7289661"><ele>505.4</ele><time>2015-11-22T09:08:39.0000000+00:00</time></trkpt><trkpt lat="30.9593356" lon="35.728896"><ele>507.1</ele><time>2015-11-22T09:08:42.0000000+00:00</time></trkpt><trkpt lat="30.9593184" lon="35.7288475"><ele>506.6</ele><time>2015-11-22T09:08:44.0000000+00:00</time></trkpt><trkpt lat="30.959295" lon="35.7288003"><ele>507.7</ele><time>2015-11-22T09:08:46.0000000+00:00</time></trkpt><trkpt lat="30.9592609" lon="35.7287356"><ele>509.2</ele><time>2015-11-22T09:08:49.0000000+00:00</time></trkpt><trkpt lat="30.9592303" lon="35.7286764"><ele>507.1</ele><time>2015-11-22T09:08:52.0000000+00:00</time></trkpt><trkpt lat="30.9591948" lon="35.7286085"><ele>507.1</ele><time>2015-11-22T09:08:55.0000000+00:00</time></trkpt><trkpt lat="30.959165" lon="35.7285608"><ele>507.1</ele><time>2015-11-22T09:08:57.0000000+00:00</time></trkpt><trkpt lat="30.9591354" lon="35.7285107"><ele>506.8</ele><time>2015-11-22T09:08:59.0000000+00:00</time></trkpt><trkpt lat="30.9591029" lon="35.7284619"><ele>508.3</ele><time>2015-11-22T09:09:01.0000000+00:00</time></trkpt><trkpt lat="30.9590612" lon="35.7284081"><ele>508.4</ele><time>2015-11-22T09:09:03.0000000+00:00</time></trkpt><trkpt lat="30.9590172" lon="35.7283508"><ele>508.6</ele><time>2015-11-22T09:09:05.0000000+00:00</time></trkpt><trkpt lat="30.9589685" lon="35.7282851"><ele>507.5</ele><time>2015-11-22T09:09:07.0000000+00:00</time></trkpt><trkpt lat="30.9589065" lon="35.7282092"><ele>507.9</ele><time>2015-11-22T09:09:09.0000000+00:00</time></trkpt><trkpt lat="30.9588535" lon="35.7281546"><ele>508.2</ele><time>2015-11-22T09:09:10.0000000+00:00</time></trkpt><trkpt lat="30.9588097" lon="35.728114"><ele>508.3</ele><time>2015-11-22T09:09:11.0000000+00:00</time></trkpt><trkpt lat="30.9587729" lon="35.7280694"><ele>508.3</ele><time>2015-11-22T09:09:12.0000000+00:00</time></trkpt><trkpt lat="30.9587375" lon="35.7280345"><ele>506.9</ele><time>2015-11-22T09:09:13.0000000+00:00</time></trkpt><trkpt lat="30.9586919" lon="35.7279868"><ele>507.6</ele><time>2015-11-22T09:09:14.0000000+00:00</time></trkpt><trkpt lat="30.9586378" lon="35.7279404"><ele>507.5</ele><time>2015-11-22T09:09:15.0000000+00:00</time></trkpt><trkpt lat="30.9585817" lon="35.7278809"><ele>507.5</ele><time>2015-11-22T09:09:16.0000000+00:00</time></trkpt><trkpt lat="30.9585162" lon="35.7278234"><ele>507.4</ele><time>2015-11-22T09:09:17.0000000+00:00</time></trkpt><trkpt lat="30.9584656" lon="35.7277584"><ele>506.4</ele><time>2015-11-22T09:09:18.0000000+00:00</time></trkpt><trkpt lat="30.9584061" lon="35.7277019"><ele>505.9</ele><time>2015-11-22T09:09:19.0000000+00:00</time></trkpt><trkpt lat="30.9583375" lon="35.7276427"><ele>505.7</ele><time>2015-11-22T09:09:20.0000000+00:00</time></trkpt><trkpt lat="30.9582677" lon="35.727576"><ele>505.5</ele><time>2015-11-22T09:09:21.0000000+00:00</time></trkpt><trkpt lat="30.9582026" lon="35.7275043"><ele>505.5</ele><time>2015-11-22T09:09:22.0000000+00:00</time></trkpt><trkpt lat="30.9581355" lon="35.7274264"><ele>505.4</ele><time>2015-11-22T09:09:23.0000000+00:00</time></trkpt><trkpt lat="30.958068" lon="35.7273439"><ele>505.4</ele><time>2015-11-22T09:09:24.0000000+00:00</time></trkpt><trkpt lat="30.9580085" lon="35.7272513"><ele>504.4</ele><time>2015-11-22T09:09:25.0000000+00:00</time></trkpt><trkpt lat="30.9579558" lon="35.7271538"><ele>504.4</ele><time>2015-11-22T09:09:26.0000000+00:00</time></trkpt><trkpt lat="30.9579073" lon="35.7270579"><ele>504.4</ele><time>2015-11-22T09:09:27.0000000+00:00</time></trkpt><trkpt lat="30.9578671" lon="35.7269608"><ele>504.9</ele><time>2015-11-22T09:09:28.0000000+00:00</time></trkpt><trkpt lat="30.9578226" lon="35.7268651"><ele>504.6</ele><time>2015-11-22T09:09:29.0000000+00:00</time></trkpt><trkpt lat="30.9577867" lon="35.7267627"><ele>504.0</ele><time>2015-11-22T09:09:30.0000000+00:00</time></trkpt><trkpt lat="30.9577605" lon="35.7266633"><ele>503.2</ele><time>2015-11-22T09:09:31.0000000+00:00</time></trkpt><trkpt lat="30.9577404" lon="35.7265577"><ele>502.8</ele><time>2015-11-22T09:09:32.0000000+00:00</time></trkpt><trkpt lat="30.9577283" lon="35.7264529"><ele>502.6</ele><time>2015-11-22T09:09:33.0000000+00:00</time></trkpt><trkpt lat="30.9577251" lon="35.7263649"><ele>502.5</ele><time>2015-11-22T09:09:34.0000000+00:00</time></trkpt><trkpt lat="30.9577233" lon="35.7262816"><ele>502.4</ele><time>2015-11-22T09:09:35.0000000+00:00</time></trkpt><trkpt lat="30.9577234" lon="35.7261903"><ele>502.9</ele><time>2015-11-22T09:09:36.0000000+00:00</time></trkpt><trkpt lat="30.9577266" lon="35.7261084"><ele>503.7</ele><time>2015-11-22T09:09:37.0000000+00:00</time></trkpt><trkpt lat="30.9577345" lon="35.7260383"><ele>504.0</ele><time>2015-11-22T09:09:38.0000000+00:00</time></trkpt><trkpt lat="30.9577404" lon="35.7259614"><ele>505.2</ele><time>2015-11-22T09:09:39.0000000+00:00</time></trkpt><trkpt lat="30.9577509" lon="35.7258844"><ele>505.3</ele><time>2015-11-22T09:09:40.0000000+00:00</time></trkpt><trkpt lat="30.9577742" lon="35.7258204"><ele>504.9</ele><time>2015-11-22T09:09:41.0000000+00:00</time></trkpt><trkpt lat="30.9577931" lon="35.7257556"><ele>504.6</ele><time>2015-11-22T09:09:42.0000000+00:00</time></trkpt><trkpt lat="30.9578086" lon="35.725691"><ele>504.5</ele><time>2015-11-22T09:09:43.0000000+00:00</time></trkpt><trkpt lat="30.9578282" lon="35.7256259"><ele>504.5</ele><time>2015-11-22T09:09:44.0000000+00:00</time></trkpt><trkpt lat="30.9578524" lon="35.7255591"><ele>503.9</ele><time>2015-11-22T09:09:45.0000000+00:00</time></trkpt><trkpt lat="30.9578781" lon="35.7254932"><ele>503.7</ele><time>2015-11-22T09:09:46.0000000+00:00</time></trkpt><trkpt lat="30.9579048" lon="35.7254279"><ele>503.5</ele><time>2015-11-22T09:09:47.0000000+00:00</time></trkpt><trkpt lat="30.9579264" lon="35.7253651"><ele>503.0</ele><time>2015-11-22T09:09:48.0000000+00:00</time></trkpt><trkpt lat="30.9579918" lon="35.7252892"><ele>502.3</ele><time>2015-11-22T09:09:50.0000000+00:00</time></trkpt><trkpt lat="30.9580536" lon="35.7252114"><ele>502.4</ele><time>2015-11-22T09:09:52.0000000+00:00</time></trkpt><trkpt lat="30.9581056" lon="35.7251359"><ele>503.6</ele><time>2015-11-22T09:09:54.0000000+00:00</time></trkpt><trkpt lat="30.9581528" lon="35.7250709"><ele>504.7</ele><time>2015-11-22T09:09:56.0000000+00:00</time></trkpt><trkpt lat="30.9581927" lon="35.7250122"><ele>506.5</ele><time>2015-11-22T09:09:58.0000000+00:00</time></trkpt><trkpt lat="30.9582261" lon="35.7249641"><ele>506.7</ele><time>2015-11-22T09:10:00.0000000+00:00</time></trkpt><trkpt lat="30.9582676" lon="35.7249045"><ele>507.0</ele><time>2015-11-22T09:10:02.0000000+00:00</time></trkpt><trkpt lat="30.9583121" lon="35.7248568"><ele>507.5</ele><time>2015-11-22T09:10:04.0000000+00:00</time></trkpt><trkpt lat="30.9583492" lon="35.7248098"><ele>507.4</ele><time>2015-11-22T09:10:06.0000000+00:00</time></trkpt><trkpt lat="30.9583807" lon="35.7247662"><ele>509.2</ele><time>2015-11-22T09:10:08.0000000+00:00</time></trkpt><trkpt lat="30.9584128" lon="35.7247232"><ele>511.3</ele><time>2015-11-22T09:10:10.0000000+00:00</time></trkpt><trkpt lat="30.9584449" lon="35.7246833"><ele>512.1</ele><time>2015-11-22T09:10:12.0000000+00:00</time></trkpt><trkpt lat="30.9584807" lon="35.7246462"><ele>512.3</ele><time>2015-11-22T09:10:14.0000000+00:00</time></trkpt><trkpt lat="30.9585164" lon="35.7246059"><ele>513.1</ele><time>2015-11-22T09:10:16.0000000+00:00</time></trkpt><trkpt lat="30.9585527" lon="35.7245645"><ele>513.3</ele><time>2015-11-22T09:10:18.0000000+00:00</time></trkpt><trkpt lat="30.9585917" lon="35.724524"><ele>513.4</ele><time>2015-11-22T09:10:20.0000000+00:00</time></trkpt><trkpt lat="30.9586244" lon="35.7244819"><ele>514.1</ele><time>2015-11-22T09:10:22.0000000+00:00</time></trkpt><trkpt lat="30.9586564" lon="35.7244419"><ele>513.6</ele><time>2015-11-22T09:10:24.0000000+00:00</time></trkpt><trkpt lat="30.9586877" lon="35.7244039"><ele>513.4</ele><time>2015-11-22T09:10:26.0000000+00:00</time></trkpt><trkpt lat="30.9587196" lon="35.724367"><ele>514.2</ele><time>2015-11-22T09:10:28.0000000+00:00</time></trkpt><trkpt lat="30.9587513" lon="35.7243288"><ele>514.3</ele><time>2015-11-22T09:10:30.0000000+00:00</time></trkpt><trkpt lat="30.9587923" lon="35.7242718"><ele>514.4</ele><time>2015-11-22T09:10:33.0000000+00:00</time></trkpt><trkpt lat="30.9588259" lon="35.7242223"><ele>513.1</ele><time>2015-11-22T09:10:36.0000000+00:00</time></trkpt><trkpt lat="30.95886" lon="35.7241831"><ele>513.8</ele><time>2015-11-22T09:10:40.0000000+00:00</time></trkpt><trkpt lat="30.9588964" lon="35.7241484"><ele>513.4</ele><time>2015-11-22T09:10:44.0000000+00:00</time></trkpt><trkpt lat="30.9589516" lon="35.7241178"><ele>514.8</ele><time>2015-11-22T09:10:48.0000000+00:00</time></trkpt><trkpt lat="30.9589967" lon="35.7240845"><ele>513.6</ele><time>2015-11-22T09:10:51.0000000+00:00</time></trkpt><trkpt lat="30.9590367" lon="35.7240391"><ele>512.5</ele><time>2015-11-22T09:10:54.0000000+00:00</time></trkpt><trkpt lat="30.9590761" lon="35.7239902"><ele>514.2</ele><time>2015-11-22T09:10:57.0000000+00:00</time></trkpt><trkpt lat="30.9591101" lon="35.7239411"><ele>513.6</ele><time>2015-11-22T09:11:00.0000000+00:00</time></trkpt><trkpt lat="30.9591446" lon="35.7238879"><ele>513.7</ele><time>2015-11-22T09:11:03.0000000+00:00</time></trkpt><trkpt lat="30.9591797" lon="35.7238346"><ele>515.2</ele><time>2015-11-22T09:11:06.0000000+00:00</time></trkpt><trkpt lat="30.9592188" lon="35.7237793"><ele>516.7</ele><time>2015-11-22T09:11:09.0000000+00:00</time></trkpt><trkpt lat="30.95926" lon="35.7237369"><ele>517.9</ele><time>2015-11-22T09:11:12.0000000+00:00</time></trkpt><trkpt lat="30.9592921" lon="35.7236796"><ele>511.3</ele><time>2015-11-22T09:12:30.0000000+00:00</time></trkpt><trkpt lat="30.9593382" lon="35.7236244"><ele>513.3</ele><time>2015-11-22T09:12:33.0000000+00:00</time></trkpt><trkpt lat="30.9593692" lon="35.7235805"><ele>516.1</ele><time>2015-11-22T09:12:35.0000000+00:00</time></trkpt><trkpt lat="30.9593961" lon="35.7235311"><ele>516.8</ele><time>2015-11-22T09:12:37.0000000+00:00</time></trkpt><trkpt lat="30.959425" lon="35.7234781"><ele>517.8</ele><time>2015-11-22T09:12:39.0000000+00:00</time></trkpt><trkpt lat="30.9594552" lon="35.7234228"><ele>518.0</ele><time>2015-11-22T09:12:41.0000000+00:00</time></trkpt><trkpt lat="30.9594835" lon="35.723364"><ele>518.3</ele><time>2015-11-22T09:12:43.0000000+00:00</time></trkpt><trkpt lat="30.9595133" lon="35.7233016"><ele>517.1</ele><time>2015-11-22T09:12:45.0000000+00:00</time></trkpt><trkpt lat="30.9595407" lon="35.7232362"><ele>517.1</ele><time>2015-11-22T09:12:47.0000000+00:00</time></trkpt><trkpt lat="30.9595666" lon="35.7231742"><ele>516.3</ele><time>2015-11-22T09:12:49.0000000+00:00</time></trkpt><trkpt lat="30.9595872" lon="35.7231074"><ele>517.9</ele><time>2015-11-22T09:12:51.0000000+00:00</time></trkpt><trkpt lat="30.9596063" lon="35.723042"><ele>518.3</ele><time>2015-11-22T09:12:53.0000000+00:00</time></trkpt><trkpt lat="30.9596188" lon="35.7229775"><ele>518.9</ele><time>2015-11-22T09:12:55.0000000+00:00</time></trkpt><trkpt lat="30.9596301" lon="35.722916"><ele>519.3</ele><time>2015-11-22T09:12:57.0000000+00:00</time></trkpt><trkpt lat="30.9596372" lon="35.7228602"><ele>518.6</ele><time>2015-11-22T09:12:59.0000000+00:00</time></trkpt><trkpt lat="30.9596454" lon="35.7227989"><ele>517.7</ele><time>2015-11-22T09:13:01.0000000+00:00</time></trkpt><trkpt lat="30.9596496" lon="35.7227299"><ele>518.2</ele><time>2015-11-22T09:13:03.0000000+00:00</time></trkpt><trkpt lat="30.9596525" lon="35.7226437"><ele>517.9</ele><time>2015-11-22T09:13:05.0000000+00:00</time></trkpt><trkpt lat="30.9596553" lon="35.722551"><ele>517.3</ele><time>2015-11-22T09:13:07.0000000+00:00</time></trkpt><trkpt lat="30.9596509" lon="35.7224569"><ele>516.1</ele><time>2015-11-22T09:13:09.0000000+00:00</time></trkpt><trkpt lat="30.9596418" lon="35.7223619"><ele>514.8</ele><time>2015-11-22T09:13:11.0000000+00:00</time></trkpt><trkpt lat="30.959628" lon="35.7222652"><ele>513.8</ele><time>2015-11-22T09:13:13.0000000+00:00</time></trkpt><trkpt lat="30.9596113" lon="35.7221698"><ele>514.7</ele><time>2015-11-22T09:13:15.0000000+00:00</time></trkpt><trkpt lat="30.9595925" lon="35.722074"><ele>515.2</ele><time>2015-11-22T09:13:17.0000000+00:00</time></trkpt><trkpt lat="30.9595641" lon="35.7219549"><ele>517.1</ele><time>2015-11-22T09:13:19.0000000+00:00</time></trkpt><trkpt lat="30.9595383" lon="35.7218528"><ele>517.8</ele><time>2015-11-22T09:13:21.0000000+00:00</time></trkpt><trkpt lat="30.9595066" lon="35.7217574"><ele>517.3</ele><time>2015-11-22T09:13:23.0000000+00:00</time></trkpt><trkpt lat="30.9594905" lon="35.7217024"><ele>516.3</ele><time>2015-11-22T09:13:24.0000000+00:00</time></trkpt><trkpt lat="30.959471" lon="35.7216435"><ele>515.4</ele><time>2015-11-22T09:13:25.0000000+00:00</time></trkpt><trkpt lat="30.9594462" lon="35.7215958"><ele>515.4</ele><time>2015-11-22T09:13:26.0000000+00:00</time></trkpt><trkpt lat="30.9594251" lon="35.7215451"><ele>515.4</ele><time>2015-11-22T09:13:27.0000000+00:00</time></trkpt><trkpt lat="30.9593985" lon="35.7214998"><ele>515.9</ele><time>2015-11-22T09:13:28.0000000+00:00</time></trkpt><trkpt lat="30.959371" lon="35.7214521"><ele>515.6</ele><time>2015-11-22T09:13:29.0000000+00:00</time></trkpt><trkpt lat="30.9593408" lon="35.7213985"><ele>515.5</ele><time>2015-11-22T09:13:30.0000000+00:00</time></trkpt><trkpt lat="30.9593162" lon="35.7213485"><ele>515.5</ele><time>2015-11-22T09:13:31.0000000+00:00</time></trkpt><trkpt lat="30.9592908" lon="35.7213023"><ele>514.4</ele><time>2015-11-22T09:13:32.0000000+00:00</time></trkpt><trkpt lat="30.9592509" lon="35.7212574"><ele>514.4</ele><time>2015-11-22T09:13:33.0000000+00:00</time></trkpt><trkpt lat="30.9591969" lon="35.7211926"><ele>512.9</ele><time>2015-11-22T09:13:35.0000000+00:00</time></trkpt><trkpt lat="30.9591374" lon="35.7211133"><ele>512.5</ele><time>2015-11-22T09:13:37.0000000+00:00</time></trkpt><trkpt lat="30.9590966" lon="35.7210775"><ele>512.5</ele><time>2015-11-22T09:13:38.0000000+00:00</time></trkpt><trkpt lat="30.9590577" lon="35.7210432"><ele>512.9</ele><time>2015-11-22T09:13:39.0000000+00:00</time></trkpt><trkpt lat="30.959022" lon="35.7210061"><ele>513.2</ele><time>2015-11-22T09:13:40.0000000+00:00</time></trkpt><trkpt lat="30.9589826" lon="35.7209732"><ele>512.8</ele><time>2015-11-22T09:13:41.0000000+00:00</time></trkpt><trkpt lat="30.958939" lon="35.7209481"><ele>512.1</ele><time>2015-11-22T09:13:42.0000000+00:00</time></trkpt><trkpt lat="30.9588945" lon="35.7209152"><ele>513.2</ele><time>2015-11-22T09:13:43.0000000+00:00</time></trkpt><trkpt lat="30.9588495" lon="35.7208819"><ele>513.8</ele><time>2015-11-22T09:13:44.0000000+00:00</time></trkpt><trkpt lat="30.9587714" lon="35.7208444"><ele>513.0</ele><time>2015-11-22T09:13:46.0000000+00:00</time></trkpt><trkpt lat="30.9587212" lon="35.7208172"><ele>513.2</ele><time>2015-11-22T09:13:47.0000000+00:00</time></trkpt><trkpt lat="30.9586761" lon="35.7207833"><ele>513.8</ele><time>2015-11-22T09:13:48.0000000+00:00</time></trkpt><trkpt lat="30.9586294" lon="35.7207557"><ele>514.6</ele><time>2015-11-22T09:13:49.0000000+00:00</time></trkpt><trkpt lat="30.9585772" lon="35.7207243"><ele>514.5</ele><time>2015-11-22T09:13:50.0000000+00:00</time></trkpt><trkpt lat="30.9585268" lon="35.7206963"><ele>514.9</ele><time>2015-11-22T09:13:51.0000000+00:00</time></trkpt><trkpt lat="30.9584743" lon="35.7206606"><ele>514.7</ele><time>2015-11-22T09:13:52.0000000+00:00</time></trkpt><trkpt lat="30.9584261" lon="35.7206316"><ele>515.5</ele><time>2015-11-22T09:13:53.0000000+00:00</time></trkpt><trkpt lat="30.958373" lon="35.7206031"><ele>515.5</ele><time>2015-11-22T09:13:54.0000000+00:00</time></trkpt><trkpt lat="30.9583249" lon="35.7205733"><ele>515.9</ele><time>2015-11-22T09:13:55.0000000+00:00</time></trkpt><trkpt lat="30.958272" lon="35.7205397"><ele>516.2</ele><time>2015-11-22T09:13:56.0000000+00:00</time></trkpt><trkpt lat="30.9582257" lon="35.7205106"><ele>516.8</ele><time>2015-11-22T09:13:57.0000000+00:00</time></trkpt><trkpt lat="30.9581806" lon="35.720489"><ele>516.6</ele><time>2015-11-22T09:13:58.0000000+00:00</time></trkpt><trkpt lat="30.9581316" lon="35.7204641"><ele>517.0</ele><time>2015-11-22T09:13:59.0000000+00:00</time></trkpt><trkpt lat="30.9580829" lon="35.7204338"><ele>517.2</ele><time>2015-11-22T09:14:00.0000000+00:00</time></trkpt><trkpt lat="30.9580316" lon="35.7204049"><ele>517.3</ele><time>2015-11-22T09:14:01.0000000+00:00</time></trkpt><trkpt lat="30.9579771" lon="35.7203722"><ele>517.3</ele><time>2015-11-22T09:14:02.0000000+00:00</time></trkpt><trkpt lat="30.9579262" lon="35.7203421"><ele>517.4</ele><time>2015-11-22T09:14:03.0000000+00:00</time></trkpt><trkpt lat="30.9578748" lon="35.7203147"><ele>517.4</ele><time>2015-11-22T09:14:04.0000000+00:00</time></trkpt><trkpt lat="30.9578343" lon="35.7202784"><ele>516.4</ele><time>2015-11-22T09:14:05.0000000+00:00</time></trkpt><trkpt lat="30.9577821" lon="35.7202565"><ele>515.4</ele><time>2015-11-22T09:14:06.0000000+00:00</time></trkpt><trkpt lat="30.9577285" lon="35.7202277"><ele>515.4</ele><time>2015-11-22T09:14:07.0000000+00:00</time></trkpt><trkpt lat="30.9576839" lon="35.7201986"><ele>515.4</ele><time>2015-11-22T09:14:08.0000000+00:00</time></trkpt><trkpt lat="30.9576384" lon="35.7201652"><ele>515.4</ele><time>2015-11-22T09:14:09.0000000+00:00</time></trkpt><trkpt lat="30.9575978" lon="35.7201268"><ele>512.9</ele><time>2015-11-22T09:14:10.0000000+00:00</time></trkpt><trkpt lat="30.9575579" lon="35.7200935"><ele>511.6</ele><time>2015-11-22T09:14:11.0000000+00:00</time></trkpt><trkpt lat="30.9575133" lon="35.7200581"><ele>511.0</ele><time>2015-11-22T09:14:12.0000000+00:00</time></trkpt><trkpt lat="30.9574751" lon="35.720012"><ele>510.7</ele><time>2015-11-22T09:14:13.0000000+00:00</time></trkpt><trkpt lat="30.9574337" lon="35.7199693"><ele>510.6</ele><time>2015-11-22T09:14:14.0000000+00:00</time></trkpt><trkpt lat="30.9573896" lon="35.7199236"><ele>510.5</ele><time>2015-11-22T09:14:15.0000000+00:00</time></trkpt><trkpt lat="30.957354" lon="35.7198737"><ele>510.9</ele><time>2015-11-22T09:14:16.0000000+00:00</time></trkpt><trkpt lat="30.9573072" lon="35.7198305"><ele>511.2</ele><time>2015-11-22T09:14:17.0000000+00:00</time></trkpt><trkpt lat="30.9572675" lon="35.7197764"><ele>511.3</ele><time>2015-11-22T09:14:18.0000000+00:00</time></trkpt><trkpt lat="30.957222" lon="35.7197274"><ele>512.3</ele><time>2015-11-22T09:14:19.0000000+00:00</time></trkpt><trkpt lat="30.9571751" lon="35.7196759"><ele>512.9</ele><time>2015-11-22T09:14:20.0000000+00:00</time></trkpt><trkpt lat="30.9571411" lon="35.7196196"><ele>513.6</ele><time>2015-11-22T09:14:21.0000000+00:00</time></trkpt><trkpt lat="30.9571075" lon="35.7195613"><ele>514.0</ele><time>2015-11-22T09:14:22.0000000+00:00</time></trkpt><trkpt lat="30.9570662" lon="35.7195177"><ele>513.2</ele><time>2015-11-22T09:14:23.0000000+00:00</time></trkpt><trkpt lat="30.9570392" lon="35.719462"><ele>513.3</ele><time>2015-11-22T09:14:24.0000000+00:00</time></trkpt><trkpt lat="30.9570053" lon="35.7194042"><ele>513.4</ele><time>2015-11-22T09:14:25.0000000+00:00</time></trkpt><trkpt lat="30.9569797" lon="35.7193486"><ele>513.9</ele><time>2015-11-22T09:14:26.0000000+00:00</time></trkpt><trkpt lat="30.9569496" lon="35.7192933"><ele>514.6</ele><time>2015-11-22T09:14:27.0000000+00:00</time></trkpt><trkpt lat="30.9569214" lon="35.7192293"><ele>515.0</ele><time>2015-11-22T09:14:28.0000000+00:00</time></trkpt><trkpt lat="30.9568935" lon="35.7191661"><ele>514.7</ele><time>2015-11-22T09:14:29.0000000+00:00</time></trkpt><trkpt lat="30.9568783" lon="35.7191003"><ele>513.6</ele><time>2015-11-22T09:14:30.0000000+00:00</time></trkpt><trkpt lat="30.9568659" lon="35.7190362"><ele>513.0</ele><time>2015-11-22T09:14:31.0000000+00:00</time></trkpt><trkpt lat="30.9568492" lon="35.7189636"><ele>513.2</ele><time>2015-11-22T09:14:32.0000000+00:00</time></trkpt><trkpt lat="30.9568355" lon="35.7188949"><ele>513.8</ele><time>2015-11-22T09:14:33.0000000+00:00</time></trkpt><trkpt lat="30.9568205" lon="35.7188267"><ele>514.1</ele><time>2015-11-22T09:14:34.0000000+00:00</time></trkpt><trkpt lat="30.9568054" lon="35.7187535"><ele>514.7</ele><time>2015-11-22T09:14:35.0000000+00:00</time></trkpt><trkpt lat="30.9567883" lon="35.7186874"><ele>514.6</ele><time>2015-11-22T09:14:36.0000000+00:00</time></trkpt><trkpt lat="30.9567716" lon="35.7186179"><ele>515.0</ele><time>2015-11-22T09:14:37.0000000+00:00</time></trkpt><trkpt lat="30.956759" lon="35.7185514"><ele>514.2</ele><time>2015-11-22T09:14:38.0000000+00:00</time></trkpt><trkpt lat="30.9567533" lon="35.7184861"><ele>514.3</ele><time>2015-11-22T09:14:39.0000000+00:00</time></trkpt><trkpt lat="30.9567597" lon="35.7184115"><ele>514.8</ele><time>2015-11-22T09:14:40.0000000+00:00</time></trkpt><trkpt lat="30.9567651" lon="35.7183358"><ele>515.1</ele><time>2015-11-22T09:14:41.0000000+00:00</time></trkpt><trkpt lat="30.9567612" lon="35.718279"><ele>513.8</ele><time>2015-11-22T09:14:42.0000000+00:00</time></trkpt><trkpt lat="30.9567598" lon="35.7182156"><ele>513.1</ele><time>2015-11-22T09:14:43.0000000+00:00</time></trkpt><trkpt lat="30.9567551" lon="35.718155"><ele>511.7</ele><time>2015-11-22T09:14:44.0000000+00:00</time></trkpt><trkpt lat="30.9567709" lon="35.7180893"><ele>510.1</ele><time>2015-11-22T09:14:45.0000000+00:00</time></trkpt><trkpt lat="30.9567858" lon="35.7180165"><ele>509.7</ele><time>2015-11-22T09:14:46.0000000+00:00</time></trkpt><trkpt lat="30.9567997" lon="35.7179441"><ele>510.1</ele><time>2015-11-22T09:14:47.0000000+00:00</time></trkpt><trkpt lat="30.9568144" lon="35.7178723"><ele>510.7</ele><time>2015-11-22T09:14:48.0000000+00:00</time></trkpt><trkpt lat="30.9568294" lon="35.7178098"><ele>511.1</ele><time>2015-11-22T09:14:49.0000000+00:00</time></trkpt><trkpt lat="30.9568445" lon="35.7177385"><ele>511.7</ele><time>2015-11-22T09:14:50.0000000+00:00</time></trkpt><trkpt lat="30.9568586" lon="35.7176698"><ele>511.6</ele><time>2015-11-22T09:14:51.0000000+00:00</time></trkpt><trkpt lat="30.9568759" lon="35.7176054"><ele>512.0</ele><time>2015-11-22T09:14:52.0000000+00:00</time></trkpt><trkpt lat="30.9568897" lon="35.7175395"><ele>512.7</ele><time>2015-11-22T09:14:53.0000000+00:00</time></trkpt><trkpt lat="30.9569077" lon="35.7174724"><ele>512.5</ele><time>2015-11-22T09:14:54.0000000+00:00</time></trkpt><trkpt lat="30.9569248" lon="35.7174092"><ele>512.5</ele><time>2015-11-22T09:14:55.0000000+00:00</time></trkpt><trkpt lat="30.9569418" lon="35.7173476"><ele>512.9</ele><time>2015-11-22T09:14:56.0000000+00:00</time></trkpt><trkpt lat="30.9569525" lon="35.7172834"><ele>512.7</ele><time>2015-11-22T09:14:57.0000000+00:00</time></trkpt><trkpt lat="30.9569636" lon="35.7172296"><ele>512.0</ele><time>2015-11-22T09:14:58.0000000+00:00</time></trkpt><trkpt lat="30.9569793" lon="35.7171186"><ele>511.1</ele><time>2015-11-22T09:15:00.0000000+00:00</time></trkpt><trkpt lat="30.9570047" lon="35.7170231"><ele>510.6</ele><time>2015-11-22T09:15:02.0000000+00:00</time></trkpt><trkpt lat="30.9570212" lon="35.7169579"><ele>510.5</ele><time>2015-11-22T09:15:03.0000000+00:00</time></trkpt><trkpt lat="30.9570406" lon="35.7169029"><ele>511.4</ele><time>2015-11-22T09:15:04.0000000+00:00</time></trkpt><trkpt lat="30.9570513" lon="35.7168456"><ele>511.9</ele><time>2015-11-22T09:15:05.0000000+00:00</time></trkpt><trkpt lat="30.9570577" lon="35.7167929"><ele>512.2</ele><time>2015-11-22T09:15:06.0000000+00:00</time></trkpt><trkpt lat="30.9570756" lon="35.7167028"><ele>514.3</ele><time>2015-11-22T09:15:08.0000000+00:00</time></trkpt><trkpt lat="30.9570995" lon="35.7166371"><ele>512.9</ele><time>2015-11-22T09:15:10.0000000+00:00</time></trkpt><trkpt lat="30.9571151" lon="35.7165848"><ele>512.5</ele><time>2015-11-22T09:15:12.0000000+00:00</time></trkpt><trkpt lat="30.9571414" lon="35.7165207"><ele>511.9</ele><time>2015-11-22T09:15:14.0000000+00:00</time></trkpt><trkpt lat="30.9571595" lon="35.7164614"><ele>512.8</ele><time>2015-11-22T09:15:16.0000000+00:00</time></trkpt><trkpt lat="30.9571811" lon="35.7164065"><ele>512.7</ele><time>2015-11-22T09:15:18.0000000+00:00</time></trkpt><trkpt lat="30.9571997" lon="35.7163413"><ele>513.7</ele><time>2015-11-22T09:15:20.0000000+00:00</time></trkpt><trkpt lat="30.9572162" lon="35.7162732"><ele>514.5</ele><time>2015-11-22T09:15:22.0000000+00:00</time></trkpt><trkpt lat="30.9572372" lon="35.7162107"><ele>513.2</ele><time>2015-11-22T09:15:24.0000000+00:00</time></trkpt><trkpt lat="30.9572609" lon="35.716148"><ele>512.8</ele><time>2015-11-22T09:15:26.0000000+00:00</time></trkpt><trkpt lat="30.9572761" lon="35.716081"><ele>515.0</ele><time>2015-11-22T09:15:28.0000000+00:00</time></trkpt><trkpt lat="30.9572881" lon="35.7160172"><ele>516.1</ele><time>2015-11-22T09:15:30.0000000+00:00</time></trkpt><trkpt lat="30.9573051" lon="35.7159612"><ele>515.8</ele><time>2015-11-22T09:15:32.0000000+00:00</time></trkpt><trkpt lat="30.9573182" lon="35.7159051"><ele>514.0</ele><time>2015-11-22T09:15:34.0000000+00:00</time></trkpt><trkpt lat="30.9573275" lon="35.7158446"><ele>514.5</ele><time>2015-11-22T09:15:36.0000000+00:00</time></trkpt><trkpt lat="30.9573439" lon="35.7157844"><ele>515.7</ele><time>2015-11-22T09:15:38.0000000+00:00</time></trkpt><trkpt lat="30.9573631" lon="35.715723"><ele>518.0</ele><time>2015-11-22T09:15:40.0000000+00:00</time></trkpt><trkpt lat="30.9573748" lon="35.7156604"><ele>517.3</ele><time>2015-11-22T09:15:42.0000000+00:00</time></trkpt><trkpt lat="30.9573873" lon="35.7155932"><ele>517.4</ele><time>2015-11-22T09:15:44.0000000+00:00</time></trkpt><trkpt lat="30.9574032" lon="35.7155216"><ele>517.6</ele><time>2015-11-22T09:15:46.0000000+00:00</time></trkpt><trkpt lat="30.957419" lon="35.7154413"><ele>514.7</ele><time>2015-11-22T09:15:48.0000000+00:00</time></trkpt><trkpt lat="30.9574316" lon="35.7153452"><ele>514.5</ele><time>2015-11-22T09:15:50.0000000+00:00</time></trkpt><trkpt lat="30.9574434" lon="35.7152438"><ele>516.2</ele><time>2015-11-22T09:15:52.0000000+00:00</time></trkpt><trkpt lat="30.9574534" lon="35.7151419"><ele>517.3</ele><time>2015-11-22T09:15:54.0000000+00:00</time></trkpt><trkpt lat="30.9574589" lon="35.7150424"><ele>514.4</ele><time>2015-11-22T09:15:56.0000000+00:00</time></trkpt><trkpt lat="30.9574568" lon="35.7149453"><ele>516.9</ele><time>2015-11-22T09:15:58.0000000+00:00</time></trkpt><trkpt lat="30.9574517" lon="35.7148517"><ele>517.3</ele><time>2015-11-22T09:16:00.0000000+00:00</time></trkpt><trkpt lat="30.9574414" lon="35.7147571"><ele>516.6</ele><time>2015-11-22T09:16:02.0000000+00:00</time></trkpt><trkpt lat="30.9574338" lon="35.7146603"><ele>518.7</ele><time>2015-11-22T09:16:04.0000000+00:00</time></trkpt><trkpt lat="30.9574306" lon="35.7145561"><ele>523.5</ele><time>2015-11-22T09:16:06.0000000+00:00</time></trkpt><trkpt lat="30.957423" lon="35.7144284"><ele>526.7</ele><time>2015-11-22T09:16:08.0000000+00:00</time></trkpt><trkpt lat="30.9574212" lon="35.7143601"><ele>528.5</ele><time>2015-11-22T09:16:09.0000000+00:00</time></trkpt><trkpt lat="30.957416" lon="35.7142987"><ele>529.0</ele><time>2015-11-22T09:16:10.0000000+00:00</time></trkpt><trkpt lat="30.9574091" lon="35.7142307"><ele>530.2</ele><time>2015-11-22T09:16:11.0000000+00:00</time></trkpt><trkpt lat="30.9574042" lon="35.7141676"><ele>530.3</ele><time>2015-11-22T09:16:12.0000000+00:00</time></trkpt><trkpt lat="30.9573941" lon="35.7140992"><ele>530.3</ele><time>2015-11-22T09:16:13.0000000+00:00</time></trkpt><trkpt lat="30.9573857" lon="35.7140307"><ele>530.4</ele><time>2015-11-22T09:16:14.0000000+00:00</time></trkpt><trkpt lat="30.9573762" lon="35.7139657"><ele>530.4</ele><time>2015-11-22T09:16:15.0000000+00:00</time></trkpt><trkpt lat="30.9573686" lon="35.713897"><ele>530.4</ele><time>2015-11-22T09:16:16.0000000+00:00</time></trkpt><trkpt lat="30.957358" lon="35.7138275"><ele>530.4</ele><time>2015-11-22T09:16:17.0000000+00:00</time></trkpt><trkpt lat="30.9573485" lon="35.7137512"><ele>530.4</ele><time>2015-11-22T09:16:18.0000000+00:00</time></trkpt><trkpt lat="30.9573404" lon="35.7136785"><ele>529.9</ele><time>2015-11-22T09:16:19.0000000+00:00</time></trkpt><trkpt lat="30.9573334" lon="35.7136007"><ele>529.6</ele><time>2015-11-22T09:16:20.0000000+00:00</time></trkpt><trkpt lat="30.9573239" lon="35.7135247"><ele>529.5</ele><time>2015-11-22T09:16:21.0000000+00:00</time></trkpt><trkpt lat="30.9573128" lon="35.7134409"><ele>529.5</ele><time>2015-11-22T09:16:22.0000000+00:00</time></trkpt><trkpt lat="30.9573034" lon="35.7133574"><ele>528.9</ele><time>2015-11-22T09:16:23.0000000+00:00</time></trkpt><trkpt lat="30.9572882" lon="35.713274"><ele>528.2</ele><time>2015-11-22T09:16:24.0000000+00:00</time></trkpt><trkpt lat="30.9572846" lon="35.713182"><ele>527.8</ele><time>2015-11-22T09:16:25.0000000+00:00</time></trkpt><trkpt lat="30.957275" lon="35.7130939"><ele>527.6</ele><time>2015-11-22T09:16:26.0000000+00:00</time></trkpt><trkpt lat="30.9572646" lon="35.7129976"><ele>527.0</ele><time>2015-11-22T09:16:27.0000000+00:00</time></trkpt><trkpt lat="30.9572546" lon="35.7129066"><ele>526.7</ele><time>2015-11-22T09:16:28.0000000+00:00</time></trkpt><trkpt lat="30.9572481" lon="35.7128114"><ele>526.5</ele><time>2015-11-22T09:16:29.0000000+00:00</time></trkpt><trkpt lat="30.9572386" lon="35.7127184"><ele>526.5</ele><time>2015-11-22T09:16:30.0000000+00:00</time></trkpt><trkpt lat="30.957226" lon="35.7126215"><ele>525.9</ele><time>2015-11-22T09:16:31.0000000+00:00</time></trkpt><trkpt lat="30.9572136" lon="35.7125251"><ele>525.7</ele><time>2015-11-22T09:16:32.0000000+00:00</time></trkpt><trkpt lat="30.9571993" lon="35.7124286"><ele>525.5</ele><time>2015-11-22T09:16:33.0000000+00:00</time></trkpt><trkpt lat="30.957188" lon="35.7123286"><ele>525.0</ele><time>2015-11-22T09:16:34.0000000+00:00</time></trkpt><trkpt lat="30.957177" lon="35.7122273"><ele>524.7</ele><time>2015-11-22T09:16:35.0000000+00:00</time></trkpt><trkpt lat="30.9571689" lon="35.7121173"><ele>524.5</ele><time>2015-11-22T09:16:36.0000000+00:00</time></trkpt><trkpt lat="30.9571567" lon="35.7120125"><ele>524.5</ele><time>2015-11-22T09:16:37.0000000+00:00</time></trkpt><trkpt lat="30.957144" lon="35.7119069"><ele>523.9</ele><time>2015-11-22T09:16:38.0000000+00:00</time></trkpt><trkpt lat="30.9571315" lon="35.7117957"><ele>523.7</ele><time>2015-11-22T09:16:39.0000000+00:00</time></trkpt><trkpt lat="30.9571186" lon="35.7116816"><ele>523.0</ele><time>2015-11-22T09:16:40.0000000+00:00</time></trkpt><trkpt lat="30.9571078" lon="35.7115721"><ele>522.7</ele><time>2015-11-22T09:16:41.0000000+00:00</time></trkpt><trkpt lat="30.9570934" lon="35.7114602"><ele>522.6</ele><time>2015-11-22T09:16:42.0000000+00:00</time></trkpt><trkpt lat="30.9570823" lon="35.711346"><ele>522.0</ele><time>2015-11-22T09:16:43.0000000+00:00</time></trkpt><trkpt lat="30.9570698" lon="35.7112345"><ele>521.7</ele><time>2015-11-22T09:16:44.0000000+00:00</time></trkpt><trkpt lat="30.9570572" lon="35.7111196"><ele>521.0</ele><time>2015-11-22T09:16:45.0000000+00:00</time></trkpt><trkpt lat="30.957044" lon="35.7110072"><ele>520.7</ele><time>2015-11-22T09:16:46.0000000+00:00</time></trkpt><trkpt lat="30.9570295" lon="35.7108937"><ele>520.6</ele><time>2015-11-22T09:16:47.0000000+00:00</time></trkpt><trkpt lat="30.9570164" lon="35.7107787"><ele>520.5</ele><time>2015-11-22T09:16:48.0000000+00:00</time></trkpt><trkpt lat="30.9569978" lon="35.7106676"><ele>519.9</ele><time>2015-11-22T09:16:49.0000000+00:00</time></trkpt><trkpt lat="30.9569731" lon="35.7105534"><ele>519.7</ele><time>2015-11-22T09:16:50.0000000+00:00</time></trkpt><trkpt lat="30.9569421" lon="35.7104383"><ele>519.5</ele><time>2015-11-22T09:16:51.0000000+00:00</time></trkpt><trkpt lat="30.956909" lon="35.7103248"><ele>519.0</ele><time>2015-11-22T09:16:52.0000000+00:00</time></trkpt><trkpt lat="30.9568569" lon="35.7102198"><ele>519.2</ele><time>2015-11-22T09:16:53.0000000+00:00</time></trkpt><trkpt lat="30.9568121" lon="35.7101075"><ele>518.8</ele><time>2015-11-22T09:16:54.0000000+00:00</time></trkpt><trkpt lat="30.9567497" lon="35.7099987"><ele>518.6</ele><time>2015-11-22T09:16:55.0000000+00:00</time></trkpt><trkpt lat="30.9566876" lon="35.7098941"><ele>518.5</ele><time>2015-11-22T09:16:56.0000000+00:00</time></trkpt><trkpt lat="30.9566214" lon="35.7097997"><ele>518.4</ele><time>2015-11-22T09:16:57.0000000+00:00</time></trkpt><trkpt lat="30.9565559" lon="35.7097089"><ele>517.9</ele><time>2015-11-22T09:16:58.0000000+00:00</time></trkpt><trkpt lat="30.956485" lon="35.7096167"><ele>517.7</ele><time>2015-11-22T09:16:59.0000000+00:00</time></trkpt><trkpt lat="30.9564058" lon="35.7095504"><ele>517.5</ele><time>2015-11-22T09:17:00.0000000+00:00</time></trkpt><trkpt lat="30.9563341" lon="35.7094722"><ele>517.5</ele><time>2015-11-22T09:17:01.0000000+00:00</time></trkpt><trkpt lat="30.956256" lon="35.7093959"><ele>516.9</ele><time>2015-11-22T09:17:02.0000000+00:00</time></trkpt><trkpt lat="30.9561764" lon="35.7093268"><ele>517.2</ele><time>2015-11-22T09:17:03.0000000+00:00</time></trkpt><trkpt lat="30.9560953" lon="35.7092662"><ele>516.8</ele><time>2015-11-22T09:17:04.0000000+00:00</time></trkpt><trkpt lat="30.9560121" lon="35.7092071"><ele>516.6</ele><time>2015-11-22T09:17:05.0000000+00:00</time></trkpt><trkpt lat="30.9559111" lon="35.7091752"><ele>516.5</ele><time>2015-11-22T09:17:06.0000000+00:00</time></trkpt><trkpt lat="30.9558188" lon="35.7091284"><ele>516.4</ele><time>2015-11-22T09:17:07.0000000+00:00</time></trkpt><trkpt lat="30.9557234" lon="35.7090977"><ele>516.4</ele><time>2015-11-22T09:17:08.0000000+00:00</time></trkpt><trkpt lat="30.9556269" lon="35.7090647"><ele>516.4</ele><time>2015-11-22T09:17:09.0000000+00:00</time></trkpt><trkpt lat="30.9555263" lon="35.7090497"><ele>515.9</ele><time>2015-11-22T09:17:10.0000000+00:00</time></trkpt><trkpt lat="30.9554295" lon="35.7090284"><ele>515.7</ele><time>2015-11-22T09:17:11.0000000+00:00</time></trkpt><trkpt lat="30.9553322" lon="35.7090084"><ele>515.5</ele><time>2015-11-22T09:17:12.0000000+00:00</time></trkpt><trkpt lat="30.9552434" lon="35.7089979"><ele>515.0</ele><time>2015-11-22T09:17:13.0000000+00:00</time></trkpt><trkpt lat="30.9551495" lon="35.7089815"><ele>514.7</ele><time>2015-11-22T09:17:14.0000000+00:00</time></trkpt><trkpt lat="30.9550539" lon="35.7089652"><ele>514.5</ele><time>2015-11-22T09:17:15.0000000+00:00</time></trkpt><trkpt lat="30.9549615" lon="35.708951"><ele>514.0</ele><time>2015-11-22T09:17:16.0000000+00:00</time></trkpt><trkpt lat="30.954872" lon="35.7089385"><ele>513.7</ele><time>2015-11-22T09:17:17.0000000+00:00</time></trkpt><trkpt lat="30.9547849" lon="35.708929"><ele>513.5</ele><time>2015-11-22T09:17:18.0000000+00:00</time></trkpt><trkpt lat="30.9546973" lon="35.7089135"><ele>513.5</ele><time>2015-11-22T09:17:19.0000000+00:00</time></trkpt><trkpt lat="30.9546106" lon="35.7089062"><ele>512.9</ele><time>2015-11-22T09:17:20.0000000+00:00</time></trkpt><trkpt lat="30.9545217" lon="35.7088954"><ele>512.7</ele><time>2015-11-22T09:17:21.0000000+00:00</time></trkpt><trkpt lat="30.9544303" lon="35.7088776"><ele>512.0</ele><time>2015-11-22T09:17:22.0000000+00:00</time></trkpt><trkpt lat="30.9543405" lon="35.7088648"><ele>511.7</ele><time>2015-11-22T09:17:23.0000000+00:00</time></trkpt><trkpt lat="30.9542486" lon="35.70885"><ele>511.1</ele><time>2015-11-22T09:17:24.0000000+00:00</time></trkpt><trkpt lat="30.9541553" lon="35.7088375"><ele>510.2</ele><time>2015-11-22T09:17:25.0000000+00:00</time></trkpt><trkpt lat="30.9540558" lon="35.7088255"><ele>509.8</ele><time>2015-11-22T09:17:26.0000000+00:00</time></trkpt><trkpt lat="30.9539603" lon="35.7088079"><ele>509.6</ele><time>2015-11-22T09:17:27.0000000+00:00</time></trkpt><trkpt lat="30.9538659" lon="35.7087939"><ele>509.0</ele><time>2015-11-22T09:17:28.0000000+00:00</time></trkpt><trkpt lat="30.9537685" lon="35.7087793"><ele>508.7</ele><time>2015-11-22T09:17:29.0000000+00:00</time></trkpt><trkpt lat="30.9536712" lon="35.7087657"><ele>508.0</ele><time>2015-11-22T09:17:30.0000000+00:00</time></trkpt><trkpt lat="30.9535693" lon="35.7087552"><ele>507.7</ele><time>2015-11-22T09:17:31.0000000+00:00</time></trkpt><trkpt lat="30.9534687" lon="35.7087402"><ele>507.1</ele><time>2015-11-22T09:17:32.0000000+00:00</time></trkpt><trkpt lat="30.95336" lon="35.7087274"><ele>506.2</ele><time>2015-11-22T09:17:33.0000000+00:00</time></trkpt><trkpt lat="30.9532546" lon="35.7087111"><ele>505.8</ele><time>2015-11-22T09:17:34.0000000+00:00</time></trkpt><trkpt lat="30.9531402" lon="35.7086882"><ele>505.1</ele><time>2015-11-22T09:17:35.0000000+00:00</time></trkpt><trkpt lat="30.9530303" lon="35.7086715"><ele>504.3</ele><time>2015-11-22T09:17:36.0000000+00:00</time></trkpt><trkpt lat="30.9529212" lon="35.7086522"><ele>503.3</ele><time>2015-11-22T09:17:37.0000000+00:00</time></trkpt><trkpt lat="30.9528055" lon="35.7086347"><ele>502.9</ele><time>2015-11-22T09:17:38.0000000+00:00</time></trkpt><trkpt lat="30.9526925" lon="35.7086193"><ele>502.1</ele><time>2015-11-22T09:17:39.0000000+00:00</time></trkpt><trkpt lat="30.9525752" lon="35.7085999"><ele>501.3</ele><time>2015-11-22T09:17:40.0000000+00:00</time></trkpt><trkpt lat="30.952459" lon="35.7085807"><ele>500.3</ele><time>2015-11-22T09:17:41.0000000+00:00</time></trkpt><trkpt lat="30.952341" lon="35.7085628"><ele>499.4</ele><time>2015-11-22T09:17:42.0000000+00:00</time></trkpt><trkpt lat="30.9522156" lon="35.7085392"><ele>498.9</ele><time>2015-11-22T09:17:43.0000000+00:00</time></trkpt><trkpt lat="30.9520956" lon="35.7085191"><ele>498.1</ele><time>2015-11-22T09:17:44.0000000+00:00</time></trkpt><trkpt lat="30.9519758" lon="35.7085062"><ele>497.3</ele><time>2015-11-22T09:17:45.0000000+00:00</time></trkpt><trkpt lat="30.951855" lon="35.7084879"><ele>496.8</ele><time>2015-11-22T09:17:46.0000000+00:00</time></trkpt><trkpt lat="30.9517369" lon="35.7084908"><ele>496.1</ele><time>2015-11-22T09:17:47.0000000+00:00</time></trkpt><trkpt lat="30.9516189" lon="35.7084788"><ele>495.3</ele><time>2015-11-22T09:17:48.0000000+00:00</time></trkpt><trkpt lat="30.9515017" lon="35.7084814"><ele>494.3</ele><time>2015-11-22T09:17:49.0000000+00:00</time></trkpt><trkpt lat="30.9513856" lon="35.7084774"><ele>493.9</ele><time>2015-11-22T09:17:50.0000000+00:00</time></trkpt><trkpt lat="30.951269" lon="35.7084829"><ele>493.1</ele><time>2015-11-22T09:17:51.0000000+00:00</time></trkpt><trkpt lat="30.9511576" lon="35.7085028"><ele>492.8</ele><time>2015-11-22T09:17:52.0000000+00:00</time></trkpt><trkpt lat="30.9510381" lon="35.7085121"><ele>492.1</ele><time>2015-11-22T09:17:53.0000000+00:00</time></trkpt><trkpt lat="30.9509264" lon="35.7085276"><ele>491.7</ele><time>2015-11-22T09:17:54.0000000+00:00</time></trkpt><trkpt lat="30.9508239" lon="35.7085402"><ele>491.6</ele><time>2015-11-22T09:17:55.0000000+00:00</time></trkpt><trkpt lat="30.9507147" lon="35.7085571"><ele>491.5</ele><time>2015-11-22T09:17:56.0000000+00:00</time></trkpt><trkpt lat="30.9506106" lon="35.7085811"><ele>491.4</ele><time>2015-11-22T09:17:57.0000000+00:00</time></trkpt><trkpt lat="30.9504976" lon="35.7085987"><ele>491.4</ele><time>2015-11-22T09:17:58.0000000+00:00</time></trkpt><trkpt lat="30.9504007" lon="35.7086128"><ele>490.9</ele><time>2015-11-22T09:17:59.0000000+00:00</time></trkpt><trkpt lat="30.9503009" lon="35.708638"><ele>490.7</ele><time>2015-11-22T09:18:00.0000000+00:00</time></trkpt><trkpt lat="30.9502068" lon="35.7086648"><ele>491.0</ele><time>2015-11-22T09:18:01.0000000+00:00</time></trkpt><trkpt lat="30.9501061" lon="35.7086969"><ele>490.7</ele><time>2015-11-22T09:18:02.0000000+00:00</time></trkpt><trkpt lat="30.9500031" lon="35.708728"><ele>490.1</ele><time>2015-11-22T09:18:03.0000000+00:00</time></trkpt><trkpt lat="30.9499041" lon="35.7087525"><ele>489.7</ele><time>2015-11-22T09:18:04.0000000+00:00</time></trkpt><trkpt lat="30.9498122" lon="35.7087585"><ele>489.6</ele><time>2015-11-22T09:18:05.0000000+00:00</time></trkpt><trkpt lat="30.9497101" lon="35.7087796"><ele>489.5</ele><time>2015-11-22T09:18:06.0000000+00:00</time></trkpt><trkpt lat="30.9496108" lon="35.7087986"><ele>489.4</ele><time>2015-11-22T09:18:07.0000000+00:00</time></trkpt><trkpt lat="30.949509" lon="35.708808"><ele>489.4</ele><time>2015-11-22T09:18:08.0000000+00:00</time></trkpt><trkpt lat="30.9494067" lon="35.7088107"><ele>489.4</ele><time>2015-11-22T09:18:09.0000000+00:00</time></trkpt><trkpt lat="30.9493057" lon="35.7088134"><ele>488.9</ele><time>2015-11-22T09:18:10.0000000+00:00</time></trkpt><trkpt lat="30.9491997" lon="35.7088241"><ele>488.7</ele><time>2015-11-22T09:18:11.0000000+00:00</time></trkpt><trkpt lat="30.9490982" lon="35.7088378"><ele>488.5</ele><time>2015-11-22T09:18:12.0000000+00:00</time></trkpt><trkpt lat="30.949" lon="35.7088428"><ele>488.5</ele><time>2015-11-22T09:18:13.0000000+00:00</time></trkpt><trkpt lat="30.9489039" lon="35.7088541"><ele>488.4</ele><time>2015-11-22T09:18:14.0000000+00:00</time></trkpt><trkpt lat="30.9488076" lon="35.7088581"><ele>488.4</ele><time>2015-11-22T09:18:15.0000000+00:00</time></trkpt><trkpt lat="30.9487164" lon="35.7088735"><ele>488.4</ele><time>2015-11-22T09:18:16.0000000+00:00</time></trkpt><trkpt lat="30.9486283" lon="35.7088741"><ele>487.9</ele><time>2015-11-22T09:18:17.0000000+00:00</time></trkpt><trkpt lat="30.9485318" lon="35.70888"><ele>488.2</ele><time>2015-11-22T09:18:18.0000000+00:00</time></trkpt><trkpt lat="30.9484442" lon="35.7088801"><ele>487.8</ele><time>2015-11-22T09:18:19.0000000+00:00</time></trkpt><trkpt lat="30.9483596" lon="35.7088854"><ele>487.6</ele><time>2015-11-22T09:18:20.0000000+00:00</time></trkpt><trkpt lat="30.9482731" lon="35.708884"><ele>487.5</ele><time>2015-11-22T09:18:21.0000000+00:00</time></trkpt><trkpt lat="30.9481907" lon="35.7088927"><ele>487.4</ele><time>2015-11-22T09:18:22.0000000+00:00</time></trkpt><trkpt lat="30.948109" lon="35.7088954"><ele>487.4</ele><time>2015-11-22T09:18:23.0000000+00:00</time></trkpt><trkpt lat="30.9480326" lon="35.7088951"><ele>487.4</ele><time>2015-11-22T09:18:24.0000000+00:00</time></trkpt><trkpt lat="30.9479577" lon="35.7089089"><ele>487.9</ele><time>2015-11-22T09:18:25.0000000+00:00</time></trkpt><trkpt lat="30.9478946" lon="35.7089161"><ele>487.7</ele><time>2015-11-22T09:18:26.0000000+00:00</time></trkpt><trkpt lat="30.9478247" lon="35.7089273"><ele>487.5</ele><time>2015-11-22T09:18:27.0000000+00:00</time></trkpt><trkpt lat="30.947759" lon="35.7089359"><ele>488.0</ele><time>2015-11-22T09:18:28.0000000+00:00</time></trkpt><trkpt lat="30.9476946" lon="35.7089523"><ele>488.7</ele><time>2015-11-22T09:18:29.0000000+00:00</time></trkpt><trkpt lat="30.9476361" lon="35.7089637"><ele>489.5</ele><time>2015-11-22T09:18:30.0000000+00:00</time></trkpt><trkpt lat="30.9475802" lon="35.7089847"><ele>490.0</ele><time>2015-11-22T09:18:31.0000000+00:00</time></trkpt><trkpt lat="30.9475222" lon="35.708991"><ele>489.7</ele><time>2015-11-22T09:18:32.0000000+00:00</time></trkpt><trkpt lat="30.9474697" lon="35.7089987"><ele>490.0</ele><time>2015-11-22T09:18:33.0000000+00:00</time></trkpt><trkpt lat="30.9474144" lon="35.7090196"><ele>489.7</ele><time>2015-11-22T09:18:34.0000000+00:00</time></trkpt><trkpt lat="30.9473501" lon="35.7090495"><ele>490.1</ele><time>2015-11-22T09:18:35.0000000+00:00</time></trkpt><trkpt lat="30.9472643" lon="35.7090734"><ele>490.8</ele><time>2015-11-22T09:18:37.0000000+00:00</time></trkpt><trkpt lat="30.9472026" lon="35.7090902"><ele>490.0</ele><time>2015-11-22T09:18:39.0000000+00:00</time></trkpt><trkpt lat="30.9471457" lon="35.709106"><ele>490.8</ele><time>2015-11-22T09:18:41.0000000+00:00</time></trkpt><trkpt lat="30.9470876" lon="35.7091297"><ele>490.5</ele><time>2015-11-22T09:18:43.0000000+00:00</time></trkpt><trkpt lat="30.9470304" lon="35.7091539"><ele>490.9</ele><time>2015-11-22T09:18:45.0000000+00:00</time></trkpt><trkpt lat="30.9469615" lon="35.7091775"><ele>491.5</ele><time>2015-11-22T09:18:47.0000000+00:00</time></trkpt><trkpt lat="30.9468889" lon="35.7092076"><ele>491.9</ele><time>2015-11-22T09:18:49.0000000+00:00</time></trkpt><trkpt lat="30.946812" lon="35.709241"><ele>491.5</ele><time>2015-11-22T09:18:51.0000000+00:00</time></trkpt><trkpt lat="30.9467349" lon="35.7092662"><ele>491.2</ele><time>2015-11-22T09:18:53.0000000+00:00</time></trkpt><trkpt lat="30.9466545" lon="35.7092912"><ele>491.3</ele><time>2015-11-22T09:18:55.0000000+00:00</time></trkpt><trkpt lat="30.9465698" lon="35.7093175"><ele>490.9</ele><time>2015-11-22T09:18:57.0000000+00:00</time></trkpt><trkpt lat="30.9465264" lon="35.7093346"><ele>491.1</ele><time>2015-11-22T09:18:58.0000000+00:00</time></trkpt><trkpt lat="30.9464615" lon="35.7093571"><ele>491.3</ele><time>2015-11-22T09:19:00.0000000+00:00</time></trkpt><trkpt lat="30.9463956" lon="35.7093838"><ele>491.4</ele><time>2015-11-22T09:19:02.0000000+00:00</time></trkpt><trkpt lat="30.9463378" lon="35.7094009"><ele>491.6</ele><time>2015-11-22T09:19:04.0000000+00:00</time></trkpt><trkpt lat="30.9462671" lon="35.7094138"><ele>492.0</ele><time>2015-11-22T09:19:06.0000000+00:00</time></trkpt><trkpt lat="30.9461919" lon="35.7094372"><ele>492.0</ele><time>2015-11-22T09:19:08.0000000+00:00</time></trkpt><trkpt lat="30.9461144" lon="35.7094532"><ele>492.3</ele><time>2015-11-22T09:19:10.0000000+00:00</time></trkpt><trkpt lat="30.94603" lon="35.7094612"><ele>492.9</ele><time>2015-11-22T09:19:12.0000000+00:00</time></trkpt><trkpt lat="30.9459404" lon="35.7094706"><ele>493.3</ele><time>2015-11-22T09:19:14.0000000+00:00</time></trkpt><trkpt lat="30.9458949" lon="35.709475"><ele>493.3</ele><time>2015-11-22T09:19:15.0000000+00:00</time></trkpt><trkpt lat="30.9458495" lon="35.7094792"><ele>493.4</ele><time>2015-11-22T09:19:16.0000000+00:00</time></trkpt><trkpt lat="30.9457618" lon="35.7094891"><ele>494.1</ele><time>2015-11-22T09:19:18.0000000+00:00</time></trkpt><trkpt lat="30.9456608" lon="35.7095148"><ele>494.8</ele><time>2015-11-22T09:19:20.0000000+00:00</time></trkpt><trkpt lat="30.9456088" lon="35.7095155"><ele>495.1</ele><time>2015-11-22T09:19:21.0000000+00:00</time></trkpt><trkpt lat="30.9455182" lon="35.7095267"><ele>495.8</ele><time>2015-11-22T09:19:23.0000000+00:00</time></trkpt><trkpt lat="30.9454295" lon="35.7095312"><ele>497.0</ele><time>2015-11-22T09:19:25.0000000+00:00</time></trkpt><trkpt lat="30.9453493" lon="35.7095378"><ele>497.3</ele><time>2015-11-22T09:19:27.0000000+00:00</time></trkpt><trkpt lat="30.9452737" lon="35.7095384"><ele>496.6</ele><time>2015-11-22T09:19:29.0000000+00:00</time></trkpt><trkpt lat="30.9451954" lon="35.7095427"><ele>496.5</ele><time>2015-11-22T09:19:31.0000000+00:00</time></trkpt><trkpt lat="30.9451159" lon="35.7095541"><ele>496.9</ele><time>2015-11-22T09:19:33.0000000+00:00</time></trkpt><trkpt lat="30.9450315" lon="35.7095623"><ele>498.3</ele><time>2015-11-22T09:19:35.0000000+00:00</time></trkpt><trkpt lat="30.9449751" lon="35.709565"><ele>498.3</ele><time>2015-11-22T09:19:36.0000000+00:00</time></trkpt><trkpt lat="30.9448911" lon="35.7095706"><ele>497.9</ele><time>2015-11-22T09:19:38.0000000+00:00</time></trkpt><trkpt lat="30.9448373" lon="35.709568"><ele>498.5</ele><time>2015-11-22T09:19:40.0000000+00:00</time></trkpt><trkpt lat="30.9447741" lon="35.7095772"><ele>499.2</ele><time>2015-11-22T09:19:42.0000000+00:00</time></trkpt><trkpt lat="30.9447075" lon="35.7095921"><ele>499.3</ele><time>2015-11-22T09:19:44.0000000+00:00</time></trkpt><trkpt lat="30.9446295" lon="35.7095935"><ele>499.6</ele><time>2015-11-22T09:19:46.0000000+00:00</time></trkpt><trkpt lat="30.9445558" lon="35.7096004"><ele>499.5</ele><time>2015-11-22T09:19:48.0000000+00:00</time></trkpt><trkpt lat="30.9444823" lon="35.7096078"><ele>499.4</ele><time>2015-11-22T09:19:50.0000000+00:00</time></trkpt><trkpt lat="30.9444115" lon="35.709617"><ele>500.2</ele><time>2015-11-22T09:19:52.0000000+00:00</time></trkpt><trkpt lat="30.9443438" lon="35.7096253"><ele>499.6</ele><time>2015-11-22T09:19:54.0000000+00:00</time></trkpt><trkpt lat="30.9442751" lon="35.7096279"><ele>500.2</ele><time>2015-11-22T09:19:56.0000000+00:00</time></trkpt><trkpt lat="30.9442045" lon="35.7096272"><ele>498.8</ele><time>2015-11-22T09:19:58.0000000+00:00</time></trkpt><trkpt lat="30.9441356" lon="35.7096334"><ele>498.5</ele><time>2015-11-22T09:20:00.0000000+00:00</time></trkpt><trkpt lat="30.9440722" lon="35.7096435"><ele>499.2</ele><time>2015-11-22T09:20:02.0000000+00:00</time></trkpt><trkpt lat="30.9440111" lon="35.709648"><ele>499.8</ele><time>2015-11-22T09:20:04.0000000+00:00</time></trkpt><trkpt lat="30.9439481" lon="35.7096416"><ele>499.5</ele><time>2015-11-22T09:20:06.0000000+00:00</time></trkpt><trkpt lat="30.94389" lon="35.7096303"><ele>499.4</ele><time>2015-11-22T09:20:08.0000000+00:00</time></trkpt><trkpt lat="30.9438275" lon="35.70963"><ele>499.4</ele><time>2015-11-22T09:20:10.0000000+00:00</time></trkpt><trkpt lat="30.9437664" lon="35.709629"><ele>499.4</ele><time>2015-11-22T09:20:12.0000000+00:00</time></trkpt><trkpt lat="30.9437038" lon="35.7096274"><ele>499.4</ele><time>2015-11-22T09:20:14.0000000+00:00</time></trkpt><trkpt lat="30.9436451" lon="35.7096214"><ele>498.6</ele><time>2015-11-22T09:20:16.0000000+00:00</time></trkpt><trkpt lat="30.9435864" lon="35.7096156"><ele>497.7</ele><time>2015-11-22T09:20:18.0000000+00:00</time></trkpt><trkpt lat="30.9435267" lon="35.7096057"><ele>496.7</ele><time>2015-11-22T09:20:20.0000000+00:00</time></trkpt><trkpt lat="30.9434738" lon="35.7096035"><ele>496.5</ele><time>2015-11-22T09:20:22.0000000+00:00</time></trkpt><trkpt lat="30.9434039" lon="35.7096055"><ele>495.5</ele><time>2015-11-22T09:20:25.0000000+00:00</time></trkpt><trkpt lat="30.9433502" lon="35.7096029"><ele>496.2</ele><time>2015-11-22T09:20:27.0000000+00:00</time></trkpt><trkpt lat="30.9432937" lon="35.7096045"><ele>497.6</ele><time>2015-11-22T09:20:29.0000000+00:00</time></trkpt><trkpt lat="30.9432359" lon="35.7096089"><ele>497.4</ele><time>2015-11-22T09:20:31.0000000+00:00</time></trkpt><trkpt lat="30.9431764" lon="35.7096158"><ele>498.7</ele><time>2015-11-22T09:20:33.0000000+00:00</time></trkpt><trkpt lat="30.9431182" lon="35.709624"><ele>499.7</ele><time>2015-11-22T09:20:35.0000000+00:00</time></trkpt><trkpt lat="30.9430572" lon="35.7096331"><ele>500.2</ele><time>2015-11-22T09:20:37.0000000+00:00</time></trkpt><trkpt lat="30.9429942" lon="35.7096449"><ele>501.1</ele><time>2015-11-22T09:20:39.0000000+00:00</time></trkpt><trkpt lat="30.9429394" lon="35.7096596"><ele>501.3</ele><time>2015-11-22T09:20:41.0000000+00:00</time></trkpt><trkpt lat="30.9428802" lon="35.709682"><ele>502.8</ele><time>2015-11-22T09:20:44.0000000+00:00</time></trkpt><trkpt lat="30.9428291" lon="35.7097009"><ele>503.8</ele><time>2015-11-22T09:20:47.0000000+00:00</time></trkpt><trkpt lat="30.9427687" lon="35.7097213"><ele>505.1</ele><time>2015-11-22T09:20:50.0000000+00:00</time></trkpt><trkpt lat="30.9427255" lon="35.7097382"><ele>505.8</ele><time>2015-11-22T09:20:52.0000000+00:00</time></trkpt><trkpt lat="30.9426784" lon="35.709753"><ele>506.3</ele><time>2015-11-22T09:20:54.0000000+00:00</time></trkpt><trkpt lat="30.9426277" lon="35.70977"><ele>505.9</ele><time>2015-11-22T09:20:56.0000000+00:00</time></trkpt><trkpt lat="30.9425724" lon="35.7097922"><ele>506.3</ele><time>2015-11-22T09:20:58.0000000+00:00</time></trkpt><trkpt lat="30.9425136" lon="35.7098134"><ele>506.1</ele><time>2015-11-22T09:21:00.0000000+00:00</time></trkpt><trkpt lat="30.9424528" lon="35.709835"><ele>505.8</ele><time>2015-11-22T09:21:02.0000000+00:00</time></trkpt><trkpt lat="30.9423923" lon="35.7098584"><ele>505.5</ele><time>2015-11-22T09:21:04.0000000+00:00</time></trkpt><trkpt lat="30.9423317" lon="35.7098802"><ele>505.4</ele><time>2015-11-22T09:21:06.0000000+00:00</time></trkpt><trkpt lat="30.9422728" lon="35.7099065"><ele>505.4</ele><time>2015-11-22T09:21:08.0000000+00:00</time></trkpt><trkpt lat="30.9422165" lon="35.7099363"><ele>506.2</ele><time>2015-11-22T09:21:10.0000000+00:00</time></trkpt><trkpt lat="30.942159" lon="35.7099655"><ele>507.1</ele><time>2015-11-22T09:21:12.0000000+00:00</time></trkpt><trkpt lat="30.9421007" lon="35.7099944"><ele>507.3</ele><time>2015-11-22T09:21:14.0000000+00:00</time></trkpt><trkpt lat="30.9420414" lon="35.7100228"><ele>507.4</ele><time>2015-11-22T09:21:16.0000000+00:00</time></trkpt><trkpt lat="30.9419798" lon="35.7100493"><ele>508.1</ele><time>2015-11-22T09:21:18.0000000+00:00</time></trkpt><trkpt lat="30.94192" lon="35.7100743"><ele>509.6</ele><time>2015-11-22T09:21:20.0000000+00:00</time></trkpt><trkpt lat="30.9418617" lon="35.7101045"><ele>510.7</ele><time>2015-11-22T09:21:22.0000000+00:00</time></trkpt><trkpt lat="30.9418029" lon="35.7101347"><ele>510.7</ele><time>2015-11-22T09:21:24.0000000+00:00</time></trkpt><trkpt lat="30.9417417" lon="35.7101602"><ele>510.5</ele><time>2015-11-22T09:21:26.0000000+00:00</time></trkpt><trkpt lat="30.941681" lon="35.710186"><ele>510.9</ele><time>2015-11-22T09:21:28.0000000+00:00</time></trkpt><trkpt lat="30.9416231" lon="35.7102114"><ele>511.8</ele><time>2015-11-22T09:21:30.0000000+00:00</time></trkpt><trkpt lat="30.9415658" lon="35.710237"><ele>513.0</ele><time>2015-11-22T09:21:32.0000000+00:00</time></trkpt><trkpt lat="30.9415089" lon="35.7102643"><ele>514.5</ele><time>2015-11-22T09:21:34.0000000+00:00</time></trkpt><trkpt lat="30.9414513" lon="35.7102915"><ele>515.2</ele><time>2015-11-22T09:21:36.0000000+00:00</time></trkpt><trkpt lat="30.9413904" lon="35.7103181"><ele>515.3</ele><time>2015-11-22T09:21:38.0000000+00:00</time></trkpt><trkpt lat="30.9413263" lon="35.7103454"><ele>514.4</ele><time>2015-11-22T09:21:40.0000000+00:00</time></trkpt><trkpt lat="30.9412617" lon="35.7103682"><ele>514.1</ele><time>2015-11-22T09:21:42.0000000+00:00</time></trkpt><trkpt lat="30.9411954" lon="35.710388"><ele>514.3</ele><time>2015-11-22T09:21:44.0000000+00:00</time></trkpt><trkpt lat="30.9411285" lon="35.7104125"><ele>514.4</ele><time>2015-11-22T09:21:46.0000000+00:00</time></trkpt><trkpt lat="30.9410615" lon="35.7104384"><ele>514.9</ele><time>2015-11-22T09:21:48.0000000+00:00</time></trkpt><trkpt lat="30.9409958" lon="35.7104652"><ele>515.5</ele><time>2015-11-22T09:21:50.0000000+00:00</time></trkpt><trkpt lat="30.9409313" lon="35.7104941"><ele>515.4</ele><time>2015-11-22T09:21:52.0000000+00:00</time></trkpt><trkpt lat="30.9408717" lon="35.7105259"><ele>515.4</ele><time>2015-11-22T09:21:54.0000000+00:00</time></trkpt><trkpt lat="30.940811" lon="35.7105571"><ele>516.2</ele><time>2015-11-22T09:21:56.0000000+00:00</time></trkpt><trkpt lat="30.9407509" lon="35.7105873"><ele>516.1</ele><time>2015-11-22T09:21:58.0000000+00:00</time></trkpt><trkpt lat="30.9406918" lon="35.7106187"><ele>516.1</ele><time>2015-11-22T09:22:00.0000000+00:00</time></trkpt><trkpt lat="30.9406307" lon="35.710654"><ele>516.3</ele><time>2015-11-22T09:22:02.0000000+00:00</time></trkpt><trkpt lat="30.9405721" lon="35.7106935"><ele>516.4</ele><time>2015-11-22T09:22:04.0000000+00:00</time></trkpt><trkpt lat="30.9405124" lon="35.7107343"><ele>515.9</ele><time>2015-11-22T09:22:06.0000000+00:00</time></trkpt><trkpt lat="30.9404536" lon="35.7107733"><ele>515.5</ele><time>2015-11-22T09:22:08.0000000+00:00</time></trkpt><trkpt lat="30.9403967" lon="35.7108103"><ele>515.4</ele><time>2015-11-22T09:22:10.0000000+00:00</time></trkpt><trkpt lat="30.9403425" lon="35.7108462"><ele>514.7</ele><time>2015-11-22T09:22:12.0000000+00:00</time></trkpt><trkpt lat="30.9402994" lon="35.710882"><ele>515.2</ele><time>2015-11-22T09:22:14.0000000+00:00</time></trkpt><trkpt lat="30.9402596" lon="35.7109185"><ele>515.9</ele><time>2015-11-22T09:22:16.0000000+00:00</time></trkpt><trkpt lat="30.9402182" lon="35.7109547"><ele>516.8</ele><time>2015-11-22T09:22:18.0000000+00:00</time></trkpt><trkpt lat="30.9401782" lon="35.7109926"><ele>517.5</ele><time>2015-11-22T09:22:20.0000000+00:00</time></trkpt><trkpt lat="30.9401365" lon="35.7110261"><ele>516.9</ele><time>2015-11-22T09:22:22.0000000+00:00</time></trkpt><trkpt lat="30.9400913" lon="35.7110619"><ele>516.8</ele><time>2015-11-22T09:22:24.0000000+00:00</time></trkpt><trkpt lat="30.9400424" lon="35.7111039"><ele>517.0</ele><time>2015-11-22T09:22:26.0000000+00:00</time></trkpt><trkpt lat="30.9399925" lon="35.7111453"><ele>517.3</ele><time>2015-11-22T09:22:28.0000000+00:00</time></trkpt><trkpt lat="30.9399437" lon="35.711181"><ele>518.6</ele><time>2015-11-22T09:22:30.0000000+00:00</time></trkpt><trkpt lat="30.9398978" lon="35.7112166"><ele>519.2</ele><time>2015-11-22T09:22:32.0000000+00:00</time></trkpt><trkpt lat="30.9398506" lon="35.7112524"><ele>520.1</ele><time>2015-11-22T09:22:34.0000000+00:00</time></trkpt><trkpt lat="30.9397991" lon="35.7112819"><ele>520.3</ele><time>2015-11-22T09:22:36.0000000+00:00</time></trkpt><trkpt lat="30.9397488" lon="35.7113184"><ele>520.4</ele><time>2015-11-22T09:22:38.0000000+00:00</time></trkpt><trkpt lat="30.9396998" lon="35.7113563"><ele>520.4</ele><time>2015-11-22T09:22:40.0000000+00:00</time></trkpt><trkpt lat="30.9396478" lon="35.711389"><ele>519.1</ele><time>2015-11-22T09:22:42.0000000+00:00</time></trkpt><trkpt lat="30.9395986" lon="35.7114307"><ele>519.3</ele><time>2015-11-22T09:22:44.0000000+00:00</time></trkpt><trkpt lat="30.9395465" lon="35.7114707"><ele>519.4</ele><time>2015-11-22T09:22:46.0000000+00:00</time></trkpt><trkpt lat="30.9394919" lon="35.7115088"><ele>519.4</ele><time>2015-11-22T09:22:48.0000000+00:00</time></trkpt><trkpt lat="30.939438" lon="35.7115489"><ele>519.9</ele><time>2015-11-22T09:22:50.0000000+00:00</time></trkpt><trkpt lat="30.9393818" lon="35.7115891"><ele>520.3</ele><time>2015-11-22T09:22:52.0000000+00:00</time></trkpt><trkpt lat="30.9393265" lon="35.7116333"><ele>520.4</ele><time>2015-11-22T09:22:54.0000000+00:00</time></trkpt><trkpt lat="30.9392733" lon="35.7116786"><ele>520.9</ele><time>2015-11-22T09:22:56.0000000+00:00</time></trkpt><trkpt lat="30.9392235" lon="35.7117241"><ele>521.8</ele><time>2015-11-22T09:22:58.0000000+00:00</time></trkpt><trkpt lat="30.9391701" lon="35.7117655"><ele>521.5</ele><time>2015-11-22T09:23:00.0000000+00:00</time></trkpt><trkpt lat="30.9391193" lon="35.7118071"><ele>521.7</ele><time>2015-11-22T09:23:02.0000000+00:00</time></trkpt><trkpt lat="30.9390647" lon="35.7118458"><ele>521.5</ele><time>2015-11-22T09:23:04.0000000+00:00</time></trkpt><trkpt lat="30.9390083" lon="35.7118804"><ele>520.2</ele><time>2015-11-22T09:23:06.0000000+00:00</time></trkpt><trkpt lat="30.9389569" lon="35.7119226"><ele>519.8</ele><time>2015-11-22T09:23:08.0000000+00:00</time></trkpt><trkpt lat="30.9389046" lon="35.7119691"><ele>520.3</ele><time>2015-11-22T09:23:10.0000000+00:00</time></trkpt><trkpt lat="30.938849" lon="35.7120142"><ele>520.9</ele><time>2015-11-22T09:23:12.0000000+00:00</time></trkpt><trkpt lat="30.9387918" lon="35.712057"><ele>522.0</ele><time>2015-11-22T09:23:14.0000000+00:00</time></trkpt><trkpt lat="30.9387358" lon="35.7121027"><ele>523.3</ele><time>2015-11-22T09:23:16.0000000+00:00</time></trkpt><trkpt lat="30.9386796" lon="35.7121514"><ele>522.9</ele><time>2015-11-22T09:23:18.0000000+00:00</time></trkpt><trkpt lat="30.938626" lon="35.7122007"><ele>523.8</ele><time>2015-11-22T09:23:20.0000000+00:00</time></trkpt><trkpt lat="30.9385706" lon="35.7122467"><ele>524.2</ele><time>2015-11-22T09:23:22.0000000+00:00</time></trkpt><trkpt lat="30.9385173" lon="35.7122894"><ele>524.4</ele><time>2015-11-22T09:23:24.0000000+00:00</time></trkpt><trkpt lat="30.9384682" lon="35.7123224"><ele>523.6</ele><time>2015-11-22T09:23:26.0000000+00:00</time></trkpt><trkpt lat="30.9384251" lon="35.7123567"><ele>524.2</ele><time>2015-11-22T09:23:28.0000000+00:00</time></trkpt><trkpt lat="30.9383814" lon="35.7123907"><ele>524.9</ele><time>2015-11-22T09:23:30.0000000+00:00</time></trkpt><trkpt lat="30.9383325" lon="35.7124221"><ele>526.5</ele><time>2015-11-22T09:23:32.0000000+00:00</time></trkpt><trkpt lat="30.9382856" lon="35.7124525"><ele>528.4</ele><time>2015-11-22T09:23:34.0000000+00:00</time></trkpt><trkpt lat="30.9382422" lon="35.7124881"><ele>528.7</ele><time>2015-11-22T09:23:36.0000000+00:00</time></trkpt><trkpt lat="30.9382001" lon="35.712524"><ele>528.5</ele><time>2015-11-22T09:23:38.0000000+00:00</time></trkpt><trkpt lat="30.9381579" lon="35.7125593"><ele>528.4</ele><time>2015-11-22T09:23:40.0000000+00:00</time></trkpt><trkpt lat="30.9381176" lon="35.7125926"><ele>529.2</ele><time>2015-11-22T09:23:42.0000000+00:00</time></trkpt><trkpt lat="30.9380736" lon="35.7126294"><ele>529.3</ele><time>2015-11-22T09:23:44.0000000+00:00</time></trkpt><trkpt lat="30.9380281" lon="35.7126655"><ele>529.4</ele><time>2015-11-22T09:23:46.0000000+00:00</time></trkpt><trkpt lat="30.9379809" lon="35.7126991"><ele>530.6</ele><time>2015-11-22T09:23:48.0000000+00:00</time></trkpt><trkpt lat="30.9379319" lon="35.7127333"><ele>531.2</ele><time>2015-11-22T09:23:50.0000000+00:00</time></trkpt><trkpt lat="30.9378804" lon="35.7127664"><ele>531.4</ele><time>2015-11-22T09:23:52.0000000+00:00</time></trkpt><trkpt lat="30.9378291" lon="35.7127978"><ele>532.1</ele><time>2015-11-22T09:23:54.0000000+00:00</time></trkpt><trkpt lat="30.9377773" lon="35.7128322"><ele>532.6</ele><time>2015-11-22T09:23:56.0000000+00:00</time></trkpt><trkpt lat="30.9377299" lon="35.7128702"><ele>533.2</ele><time>2015-11-22T09:23:58.0000000+00:00</time></trkpt><trkpt lat="30.9376797" lon="35.7129028"><ele>533.3</ele><time>2015-11-22T09:24:00.0000000+00:00</time></trkpt><trkpt lat="30.9376325" lon="35.712936"><ele>534.1</ele><time>2015-11-22T09:24:02.0000000+00:00</time></trkpt><trkpt lat="30.9375873" lon="35.7129734"><ele>533.8</ele><time>2015-11-22T09:24:04.0000000+00:00</time></trkpt><trkpt lat="30.9375415" lon="35.7130088"><ele>534.3</ele><time>2015-11-22T09:24:06.0000000+00:00</time></trkpt><trkpt lat="30.9374882" lon="35.7130398"><ele>534.4</ele><time>2015-11-22T09:24:08.0000000+00:00</time></trkpt><trkpt lat="30.9374326" lon="35.7130687"><ele>534.9</ele><time>2015-11-22T09:24:10.0000000+00:00</time></trkpt><trkpt lat="30.9373759" lon="35.7131033"><ele>535.3</ele><time>2015-11-22T09:24:12.0000000+00:00</time></trkpt><trkpt lat="30.9373204" lon="35.7131406"><ele>535.9</ele><time>2015-11-22T09:24:14.0000000+00:00</time></trkpt><trkpt lat="30.9372646" lon="35.713176"><ele>537.0</ele><time>2015-11-22T09:24:16.0000000+00:00</time></trkpt><trkpt lat="30.9372097" lon="35.7132046"><ele>537.1</ele><time>2015-11-22T09:24:18.0000000+00:00</time></trkpt><trkpt lat="30.9371529" lon="35.7132292"><ele>537.1</ele><time>2015-11-22T09:24:20.0000000+00:00</time></trkpt><trkpt lat="30.9370931" lon="35.7132527"><ele>537.1</ele><time>2015-11-22T09:24:22.0000000+00:00</time></trkpt><trkpt lat="30.9370307" lon="35.7132777"><ele>536.3</ele><time>2015-11-22T09:24:24.0000000+00:00</time></trkpt><trkpt lat="30.9369668" lon="35.713307"><ele>535.6</ele><time>2015-11-22T09:24:26.0000000+00:00</time></trkpt><trkpt lat="30.9369003" lon="35.7133302"><ele>535.5</ele><time>2015-11-22T09:24:28.0000000+00:00</time></trkpt><trkpt lat="30.9368341" lon="35.7133541"><ele>535.9</ele><time>2015-11-22T09:24:30.0000000+00:00</time></trkpt><trkpt lat="30.9367734" lon="35.7133808"><ele>538.5</ele><time>2015-11-22T09:24:32.0000000+00:00</time></trkpt><trkpt lat="30.9367159" lon="35.7134058"><ele>539.9</ele><time>2015-11-22T09:24:34.0000000+00:00</time></trkpt><trkpt lat="30.9366591" lon="35.7134289"><ele>541.0</ele><time>2015-11-22T09:24:36.0000000+00:00</time></trkpt><trkpt lat="30.9366006" lon="35.7134486"><ele>541.6</ele><time>2015-11-22T09:24:38.0000000+00:00</time></trkpt><trkpt lat="30.9365388" lon="35.7134634"><ele>541.4</ele><time>2015-11-22T09:24:40.0000000+00:00</time></trkpt><trkpt lat="30.9364779" lon="35.7134802"><ele>541.4</ele><time>2015-11-22T09:24:42.0000000+00:00</time></trkpt><trkpt lat="30.9364243" lon="35.713499"><ele>541.4</ele><time>2015-11-22T09:24:44.0000000+00:00</time></trkpt><trkpt lat="30.936371" lon="35.7135064"><ele>540.9</ele><time>2015-11-22T09:24:46.0000000+00:00</time></trkpt><trkpt lat="30.9363205" lon="35.7135087"><ele>541.3</ele><time>2015-11-22T09:24:48.0000000+00:00</time></trkpt><trkpt lat="30.9362738" lon="35.7135222"><ele>541.4</ele><time>2015-11-22T09:24:50.0000000+00:00</time></trkpt><trkpt lat="30.9362116" lon="35.7135362"><ele>541.9</ele><time>2015-11-22T09:24:53.0000000+00:00</time></trkpt><trkpt lat="30.9361512" lon="35.7135549"><ele>542.7</ele><time>2015-11-22T09:24:56.0000000+00:00</time></trkpt><trkpt lat="30.9360853" lon="35.7135729"><ele>541.9</ele><time>2015-11-22T09:24:59.0000000+00:00</time></trkpt><trkpt lat="30.9360395" lon="35.7135845"><ele>541.5</ele><time>2015-11-22T09:25:01.0000000+00:00</time></trkpt><trkpt lat="30.9359929" lon="35.713595"><ele>541.4</ele><time>2015-11-22T09:25:03.0000000+00:00</time></trkpt><trkpt lat="30.9359444" lon="35.7136029"><ele>541.9</ele><time>2015-11-22T09:25:05.0000000+00:00</time></trkpt><trkpt lat="30.9358934" lon="35.7136097"><ele>542.3</ele><time>2015-11-22T09:25:07.0000000+00:00</time></trkpt><trkpt lat="30.9358414" lon="35.7136156"><ele>543.1</ele><time>2015-11-22T09:25:09.0000000+00:00</time></trkpt><trkpt lat="30.9357892" lon="35.713627"><ele>542.6</ele><time>2015-11-22T09:25:11.0000000+00:00</time></trkpt><trkpt lat="30.9357338" lon="35.7136418"><ele>543.2</ele><time>2015-11-22T09:25:13.0000000+00:00</time></trkpt><trkpt lat="30.9356756" lon="35.7136519"><ele>543.3</ele><time>2015-11-22T09:25:15.0000000+00:00</time></trkpt><trkpt lat="30.9356169" lon="35.7136633"><ele>544.1</ele><time>2015-11-22T09:25:17.0000000+00:00</time></trkpt><trkpt lat="30.9355554" lon="35.7136744"><ele>544.3</ele><time>2015-11-22T09:25:19.0000000+00:00</time></trkpt><trkpt lat="30.9354898" lon="35.7136826"><ele>544.1</ele><time>2015-11-22T09:25:21.0000000+00:00</time></trkpt><trkpt lat="30.9354222" lon="35.7136935"><ele>543.6</ele><time>2015-11-22T09:25:23.0000000+00:00</time></trkpt><trkpt lat="30.9353514" lon="35.7137064"><ele>543.9</ele><time>2015-11-22T09:25:25.0000000+00:00</time></trkpt><trkpt lat="30.9352802" lon="35.7137211"><ele>544.3</ele><time>2015-11-22T09:25:27.0000000+00:00</time></trkpt><trkpt lat="30.935198" lon="35.7137383"><ele>543.9</ele><time>2015-11-22T09:25:29.0000000+00:00</time></trkpt><trkpt lat="30.9351126" lon="35.7137566"><ele>544.3</ele><time>2015-11-22T09:25:31.0000000+00:00</time></trkpt><trkpt lat="30.9350323" lon="35.7137732"><ele>544.4</ele><time>2015-11-22T09:25:33.0000000+00:00</time></trkpt><trkpt lat="30.9349537" lon="35.7137933"><ele>543.9</ele><time>2015-11-22T09:25:35.0000000+00:00</time></trkpt><trkpt lat="30.9348732" lon="35.7138138"><ele>544.0</ele><time>2015-11-22T09:25:37.0000000+00:00</time></trkpt><trkpt lat="30.9347885" lon="35.7138329"><ele>543.6</ele><time>2015-11-22T09:25:39.0000000+00:00</time></trkpt><trkpt lat="30.9347" lon="35.7138527"><ele>543.4</ele><time>2015-11-22T09:25:41.0000000+00:00</time></trkpt><trkpt lat="30.9346121" lon="35.7138717"><ele>544.2</ele><time>2015-11-22T09:25:43.0000000+00:00</time></trkpt><trkpt lat="30.934525" lon="35.7138898"><ele>543.8</ele><time>2015-11-22T09:25:45.0000000+00:00</time></trkpt><trkpt lat="30.9344405" lon="35.7139056"><ele>543.5</ele><time>2015-11-22T09:25:47.0000000+00:00</time></trkpt><trkpt lat="30.9343573" lon="35.7139237"><ele>543.4</ele><time>2015-11-22T09:25:49.0000000+00:00</time></trkpt><trkpt lat="30.9342781" lon="35.7139431"><ele>543.9</ele><time>2015-11-22T09:25:51.0000000+00:00</time></trkpt><trkpt lat="30.9342021" lon="35.7139597"><ele>544.8</ele><time>2015-11-22T09:25:53.0000000+00:00</time></trkpt><trkpt lat="30.9341277" lon="35.713979"><ele>545.7</ele><time>2015-11-22T09:25:55.0000000+00:00</time></trkpt><trkpt lat="30.9340573" lon="35.7140008"><ele>546.2</ele><time>2015-11-22T09:25:57.0000000+00:00</time></trkpt><trkpt lat="30.9339877" lon="35.714022"><ele>547.1</ele><time>2015-11-22T09:25:59.0000000+00:00</time></trkpt><trkpt lat="30.9339206" lon="35.7140392"><ele>547.3</ele><time>2015-11-22T09:26:01.0000000+00:00</time></trkpt><trkpt lat="30.9338544" lon="35.7140532"><ele>547.4</ele><time>2015-11-22T09:26:03.0000000+00:00</time></trkpt><trkpt lat="30.9337891" lon="35.7140714"><ele>547.6</ele><time>2015-11-22T09:26:05.0000000+00:00</time></trkpt><trkpt lat="30.9337237" lon="35.7140878"><ele>548.2</ele><time>2015-11-22T09:26:07.0000000+00:00</time></trkpt><trkpt lat="30.9336584" lon="35.7140993"><ele>547.9</ele><time>2015-11-22T09:26:09.0000000+00:00</time></trkpt><trkpt lat="30.9335956" lon="35.7141099"><ele>547.5</ele><time>2015-11-22T09:26:11.0000000+00:00</time></trkpt><trkpt lat="30.9335351" lon="35.7141204"><ele>548.7</ele><time>2015-11-22T09:26:13.0000000+00:00</time></trkpt><trkpt lat="30.9334759" lon="35.714133"><ele>550.0</ele><time>2015-11-22T09:26:15.0000000+00:00</time></trkpt><trkpt lat="30.9334159" lon="35.7141409"><ele>550.8</ele><time>2015-11-22T09:26:17.0000000+00:00</time></trkpt><trkpt lat="30.933353" lon="35.714146"><ele>550.5</ele><time>2015-11-22T09:26:19.0000000+00:00</time></trkpt><trkpt lat="30.9332887" lon="35.7141503"><ele>551.2</ele><time>2015-11-22T09:26:21.0000000+00:00</time></trkpt><trkpt lat="30.9332259" lon="35.7141553"><ele>551.1</ele><time>2015-11-22T09:26:23.0000000+00:00</time></trkpt><trkpt lat="30.9331692" lon="35.714165"><ele>551.6</ele><time>2015-11-22T09:26:25.0000000+00:00</time></trkpt><trkpt lat="30.9331141" lon="35.7141715"><ele>551.9</ele><time>2015-11-22T09:26:27.0000000+00:00</time></trkpt><trkpt lat="30.9330579" lon="35.7141734"><ele>552.3</ele><time>2015-11-22T09:26:29.0000000+00:00</time></trkpt><trkpt lat="30.9329964" lon="35.7141712"><ele>551.9</ele><time>2015-11-22T09:26:31.0000000+00:00</time></trkpt><trkpt lat="30.9329317" lon="35.714169"><ele>552.3</ele><time>2015-11-22T09:26:33.0000000+00:00</time></trkpt><trkpt lat="30.9328658" lon="35.7141732"><ele>552.9</ele><time>2015-11-22T09:26:35.0000000+00:00</time></trkpt><trkpt lat="30.9327999" lon="35.7141793"><ele>553.3</ele><time>2015-11-22T09:26:37.0000000+00:00</time></trkpt><trkpt lat="30.9327366" lon="35.7141809"><ele>552.9</ele><time>2015-11-22T09:26:39.0000000+00:00</time></trkpt><trkpt lat="30.9326774" lon="35.7141806"><ele>553.3</ele><time>2015-11-22T09:26:41.0000000+00:00</time></trkpt><trkpt lat="30.9326173" lon="35.7141848"><ele>554.9</ele><time>2015-11-22T09:26:43.0000000+00:00</time></trkpt><trkpt lat="30.9325547" lon="35.7141852"><ele>554.5</ele><time>2015-11-22T09:26:45.0000000+00:00</time></trkpt><trkpt lat="30.93249" lon="35.7141852"><ele>554.4</ele><time>2015-11-22T09:26:47.0000000+00:00</time></trkpt><trkpt lat="30.9324227" lon="35.7141862"><ele>554.4</ele><time>2015-11-22T09:26:49.0000000+00:00</time></trkpt><trkpt lat="30.9323557" lon="35.7141844"><ele>554.4</ele><time>2015-11-22T09:26:51.0000000+00:00</time></trkpt><trkpt lat="30.9322858" lon="35.7141853"><ele>554.4</ele><time>2015-11-22T09:26:53.0000000+00:00</time></trkpt><trkpt lat="30.932213" lon="35.7141859"><ele>554.9</ele><time>2015-11-22T09:26:55.0000000+00:00</time></trkpt><trkpt lat="30.9321415" lon="35.7141834"><ele>555.3</ele><time>2015-11-22T09:26:57.0000000+00:00</time></trkpt><trkpt lat="30.9320722" lon="35.7141843"><ele>555.9</ele><time>2015-11-22T09:26:59.0000000+00:00</time></trkpt><trkpt lat="30.9320064" lon="35.7141865"><ele>557.0</ele><time>2015-11-22T09:27:01.0000000+00:00</time></trkpt><trkpt lat="30.9319435" lon="35.714182"><ele>556.8</ele><time>2015-11-22T09:27:03.0000000+00:00</time></trkpt><trkpt lat="30.9318808" lon="35.7141783"><ele>556.5</ele><time>2015-11-22T09:27:05.0000000+00:00</time></trkpt><trkpt lat="30.9318167" lon="35.7141789"><ele>556.4</ele><time>2015-11-22T09:27:07.0000000+00:00</time></trkpt><trkpt lat="30.931751" lon="35.7141808"><ele>556.9</ele><time>2015-11-22T09:27:09.0000000+00:00</time></trkpt><trkpt lat="30.9316837" lon="35.7141823"><ele>557.8</ele><time>2015-11-22T09:27:11.0000000+00:00</time></trkpt><trkpt lat="30.9316176" lon="35.714179"><ele>558.2</ele><time>2015-11-22T09:27:13.0000000+00:00</time></trkpt><trkpt lat="30.9315516" lon="35.7141811"><ele>558.6</ele><time>2015-11-22T09:27:15.0000000+00:00</time></trkpt><trkpt lat="30.931483" lon="35.7141843"><ele>558.0</ele><time>2015-11-22T09:27:17.0000000+00:00</time></trkpt><trkpt lat="30.9314133" lon="35.7141894"><ele>558.0</ele><time>2015-11-22T09:27:19.0000000+00:00</time></trkpt><trkpt lat="30.9313466" lon="35.7141954"><ele>557.6</ele><time>2015-11-22T09:27:21.0000000+00:00</time></trkpt><trkpt lat="30.9312845" lon="35.714199"><ele>557.4</ele><time>2015-11-22T09:27:23.0000000+00:00</time></trkpt><trkpt lat="30.9312258" lon="35.7141984"><ele>557.9</ele><time>2015-11-22T09:27:25.0000000+00:00</time></trkpt><trkpt lat="30.931167" lon="35.7142014"><ele>558.0</ele><time>2015-11-22T09:27:27.0000000+00:00</time></trkpt><trkpt lat="30.9311044" lon="35.7142055"><ele>558.8</ele><time>2015-11-22T09:27:29.0000000+00:00</time></trkpt><trkpt lat="30.9310404" lon="35.7142043"><ele>559.3</ele><time>2015-11-22T09:27:31.0000000+00:00</time></trkpt><trkpt lat="30.9309749" lon="35.7142022"><ele>559.9</ele><time>2015-11-22T09:27:33.0000000+00:00</time></trkpt><trkpt lat="30.9309081" lon="35.7142007"><ele>560.3</ele><time>2015-11-22T09:27:35.0000000+00:00</time></trkpt><trkpt lat="30.9308392" lon="35.7142021"><ele>560.6</ele><time>2015-11-22T09:27:37.0000000+00:00</time></trkpt><trkpt lat="30.9307696" lon="35.7142007"><ele>561.7</ele><time>2015-11-22T09:27:39.0000000+00:00</time></trkpt><trkpt lat="30.9307036" lon="35.7142002"><ele>562.7</ele><time>2015-11-22T09:27:41.0000000+00:00</time></trkpt><trkpt lat="30.9306453" lon="35.7141992"><ele>562.7</ele><time>2015-11-22T09:27:43.0000000+00:00</time></trkpt><trkpt lat="30.9305997" lon="35.7141928"><ele>563.2</ele><time>2015-11-22T09:27:45.0000000+00:00</time></trkpt><trkpt lat="30.9305533" lon="35.7141898"><ele>562.9</ele><time>2015-11-22T09:27:47.0000000+00:00</time></trkpt><trkpt lat="30.9305" lon="35.7141898"><ele>563.3</ele><time>2015-11-22T09:27:49.0000000+00:00</time></trkpt><trkpt lat="30.9304413" lon="35.7141898"><ele>564.1</ele><time>2015-11-22T09:27:51.0000000+00:00</time></trkpt><trkpt lat="30.9303761" lon="35.7141906"><ele>564.3</ele><time>2015-11-22T09:27:53.0000000+00:00</time></trkpt><trkpt lat="30.9303072" lon="35.7141936"><ele>564.9</ele><time>2015-11-22T09:27:55.0000000+00:00</time></trkpt><trkpt lat="30.9302362" lon="35.7141952"><ele>565.3</ele><time>2015-11-22T09:27:57.0000000+00:00</time></trkpt><trkpt lat="30.9301656" lon="35.7141936"><ele>566.1</ele><time>2015-11-22T09:27:59.0000000+00:00</time></trkpt><trkpt lat="30.9301008" lon="35.7141959"><ele>565.6</ele><time>2015-11-22T09:28:01.0000000+00:00</time></trkpt><trkpt lat="30.9300357" lon="35.714201"><ele>565.4</ele><time>2015-11-22T09:28:03.0000000+00:00</time></trkpt><trkpt lat="30.9299695" lon="35.7142049"><ele>565.4</ele><time>2015-11-22T09:28:05.0000000+00:00</time></trkpt><trkpt lat="30.9299021" lon="35.714206"><ele>564.9</ele><time>2015-11-22T09:28:07.0000000+00:00</time></trkpt><trkpt lat="30.9298303" lon="35.7142063"><ele>565.3</ele><time>2015-11-22T09:28:09.0000000+00:00</time></trkpt><trkpt lat="30.929761" lon="35.7142053"><ele>565.9</ele><time>2015-11-22T09:28:11.0000000+00:00</time></trkpt><trkpt lat="30.9296977" lon="35.7142012"><ele>566.3</ele><time>2015-11-22T09:28:13.0000000+00:00</time></trkpt><trkpt lat="30.9296374" lon="35.7141952"><ele>565.9</ele><time>2015-11-22T09:28:15.0000000+00:00</time></trkpt><trkpt lat="30.9295753" lon="35.7141903"><ele>566.3</ele><time>2015-11-22T09:28:17.0000000+00:00</time></trkpt><trkpt lat="30.9295119" lon="35.714184"><ele>566.4</ele><time>2015-11-22T09:28:19.0000000+00:00</time></trkpt><trkpt lat="30.9294475" lon="35.714174"><ele>566.4</ele><time>2015-11-22T09:28:21.0000000+00:00</time></trkpt><trkpt lat="30.929383" lon="35.7141577"><ele>566.9</ele><time>2015-11-22T09:28:23.0000000+00:00</time></trkpt><trkpt lat="30.9293157" lon="35.714139"><ele>567.3</ele><time>2015-11-22T09:28:25.0000000+00:00</time></trkpt><trkpt lat="30.9292465" lon="35.7141195"><ele>568.6</ele><time>2015-11-22T09:28:27.0000000+00:00</time></trkpt><trkpt lat="30.9291779" lon="35.7140969"><ele>569.7</ele><time>2015-11-22T09:28:29.0000000+00:00</time></trkpt><trkpt lat="30.9291107" lon="35.7140714"><ele>569.5</ele><time>2015-11-22T09:28:31.0000000+00:00</time></trkpt><trkpt lat="30.9290428" lon="35.714041"><ele>570.9</ele><time>2015-11-22T09:28:33.0000000+00:00</time></trkpt><trkpt lat="30.9289743" lon="35.7140084"><ele>571.3</ele><time>2015-11-22T09:28:35.0000000+00:00</time></trkpt><trkpt lat="30.9289056" lon="35.7139732"><ele>571.1</ele><time>2015-11-22T09:28:37.0000000+00:00</time></trkpt><trkpt lat="30.9288382" lon="35.7139386"><ele>571.1</ele><time>2015-11-22T09:28:39.0000000+00:00</time></trkpt><trkpt lat="30.9287692" lon="35.7139043"><ele>571.3</ele><time>2015-11-22T09:28:41.0000000+00:00</time></trkpt><trkpt lat="30.9287036" lon="35.7138728"><ele>571.4</ele><time>2015-11-22T09:28:43.0000000+00:00</time></trkpt><trkpt lat="30.928645" lon="35.713841"><ele>571.4</ele><time>2015-11-22T09:28:45.0000000+00:00</time></trkpt><trkpt lat="30.9285846" lon="35.7138169"><ele>571.5</ele><time>2015-11-22T09:28:48.0000000+00:00</time></trkpt><trkpt lat="30.9285316" lon="35.7137921"><ele>571.2</ele><time>2015-11-22T09:28:51.0000000+00:00</time></trkpt><trkpt lat="30.9284777" lon="35.7137626"><ele>571.2</ele><time>2015-11-22T09:28:54.0000000+00:00</time></trkpt><trkpt lat="30.9284351" lon="35.7137416"><ele>571.4</ele><time>2015-11-22T09:28:56.0000000+00:00</time></trkpt><trkpt lat="30.9283887" lon="35.7137177"><ele>572.1</ele><time>2015-11-22T09:28:58.0000000+00:00</time></trkpt><trkpt lat="30.9283396" lon="35.713693"><ele>572.3</ele><time>2015-11-22T09:29:00.0000000+00:00</time></trkpt><trkpt lat="30.928284" lon="35.7136717"><ele>572.6</ele><time>2015-11-22T09:29:02.0000000+00:00</time></trkpt><trkpt lat="30.9282226" lon="35.7136494"><ele>573.5</ele><time>2015-11-22T09:29:04.0000000+00:00</time></trkpt><trkpt lat="30.9281599" lon="35.7136267"><ele>574.2</ele><time>2015-11-22T09:29:06.0000000+00:00</time></trkpt><trkpt lat="30.9280961" lon="35.7136056"><ele>575.1</ele><time>2015-11-22T09:29:08.0000000+00:00</time></trkpt><trkpt lat="30.9280313" lon="35.7135806"><ele>575.8</ele><time>2015-11-22T09:29:10.0000000+00:00</time></trkpt><trkpt lat="30.9279683" lon="35.7135551"><ele>575.5</ele><time>2015-11-22T09:29:12.0000000+00:00</time></trkpt><trkpt lat="30.9279071" lon="35.7135277"><ele>576.2</ele><time>2015-11-22T09:29:14.0000000+00:00</time></trkpt><trkpt lat="30.9278489" lon="35.7134956"><ele>576.8</ele><time>2015-11-22T09:29:16.0000000+00:00</time></trkpt><trkpt lat="30.927791" lon="35.7134612"><ele>577.3</ele><time>2015-11-22T09:29:18.0000000+00:00</time></trkpt><trkpt lat="30.9277328" lon="35.7134282"><ele>577.4</ele><time>2015-11-22T09:29:20.0000000+00:00</time></trkpt><trkpt lat="30.9276764" lon="35.7133957"><ele>576.9</ele><time>2015-11-22T09:29:22.0000000+00:00</time></trkpt><trkpt lat="30.9276186" lon="35.7133646"><ele>577.3</ele><time>2015-11-22T09:29:24.0000000+00:00</time></trkpt><trkpt lat="30.9275603" lon="35.713334"><ele>578.1</ele><time>2015-11-22T09:29:26.0000000+00:00</time></trkpt><trkpt lat="30.9275023" lon="35.7133019"><ele>578.8</ele><time>2015-11-22T09:29:28.0000000+00:00</time></trkpt><trkpt lat="30.9274426" lon="35.7132694"><ele>579.3</ele><time>2015-11-22T09:29:30.0000000+00:00</time></trkpt><trkpt lat="30.9273839" lon="35.7132389"><ele>579.4</ele><time>2015-11-22T09:29:32.0000000+00:00</time></trkpt><trkpt lat="30.9273243" lon="35.7132068"><ele>579.4</ele><time>2015-11-22T09:29:34.0000000+00:00</time></trkpt><trkpt lat="30.927263" lon="35.7131758"><ele>579.9</ele><time>2015-11-22T09:29:36.0000000+00:00</time></trkpt><trkpt lat="30.9272056" lon="35.7131458"><ele>580.3</ele><time>2015-11-22T09:29:38.0000000+00:00</time></trkpt><trkpt lat="30.9271512" lon="35.7131175"><ele>580.4</ele><time>2015-11-22T09:29:40.0000000+00:00</time></trkpt><trkpt lat="30.9270996" lon="35.7130886"><ele>580.4</ele><time>2015-11-22T09:29:42.0000000+00:00</time></trkpt><trkpt lat="30.9270584" lon="35.7130527"><ele>581.1</ele><time>2015-11-22T09:29:44.0000000+00:00</time></trkpt><trkpt lat="30.9271028" lon="35.7130708"><ele>576.3</ele><time>2015-11-22T09:30:45.0000000+00:00</time></trkpt><trkpt lat="30.9271397" lon="35.7130328"><ele>575.9</ele><time>2015-11-22T09:30:51.0000000+00:00</time></trkpt><trkpt lat="30.9271867" lon="35.7130025"><ele>575.9</ele><time>2015-11-22T09:30:55.0000000+00:00</time></trkpt><trkpt lat="30.927231" lon="35.7129729"><ele>577.6</ele><time>2015-11-22T09:31:00.0000000+00:00</time></trkpt><trkpt lat="30.927209" lon="35.7130229"><ele>577.9</ele><time>2015-11-22T09:37:27.0000000+00:00</time></trkpt><trkpt lat="30.9271697" lon="35.7130531"><ele>575.6</ele><time>2015-11-22T09:37:31.0000000+00:00</time></trkpt><trkpt lat="30.9271205" lon="35.7130545"><ele>573.5</ele><time>2015-11-22T09:37:42.0000000+00:00</time></trkpt><trkpt lat="30.9270743" lon="35.7130633"><ele>576.3</ele><time>2015-11-22T09:38:33.0000000+00:00</time></trkpt><trkpt lat="30.9270204" lon="35.7130574"><ele>577.8</ele><time>2015-11-22T09:38:42.0000000+00:00</time></trkpt><trkpt lat="30.9269661" lon="35.7130424"><ele>578.3</ele><time>2015-11-22T09:38:46.0000000+00:00</time></trkpt><trkpt lat="30.9269133" lon="35.7130133"><ele>579.1</ele><time>2015-11-22T09:38:50.0000000+00:00</time></trkpt><trkpt lat="30.9268666" lon="35.7129895"><ele>579.4</ele><time>2015-11-22T09:38:53.0000000+00:00</time></trkpt><trkpt lat="30.9268151" lon="35.7129671"><ele>580.1</ele><time>2015-11-22T09:38:56.0000000+00:00</time></trkpt><trkpt lat="30.9267604" lon="35.712947"><ele>579.5</ele><time>2015-11-22T09:38:59.0000000+00:00</time></trkpt><trkpt lat="30.9267021" lon="35.71293"><ele>580.2</ele><time>2015-11-22T09:39:02.0000000+00:00</time></trkpt><trkpt lat="30.9266412" lon="35.71291"><ele>579.7</ele><time>2015-11-22T09:39:05.0000000+00:00</time></trkpt><trkpt lat="30.9265786" lon="35.7128859"><ele>579.4</ele><time>2015-11-22T09:39:08.0000000+00:00</time></trkpt><trkpt lat="30.9265301" lon="35.712866"><ele>579.4</ele><time>2015-11-22T09:39:10.0000000+00:00</time></trkpt><trkpt lat="30.9264747" lon="35.7128425"><ele>579.2</ele><time>2015-11-22T09:39:12.0000000+00:00</time></trkpt><trkpt lat="30.926415" lon="35.7128187"><ele>580.1</ele><time>2015-11-22T09:39:14.0000000+00:00</time></trkpt><trkpt lat="30.9263524" lon="35.7127969"><ele>580.8</ele><time>2015-11-22T09:39:16.0000000+00:00</time></trkpt><trkpt lat="30.9262894" lon="35.7127758"><ele>581.3</ele><time>2015-11-22T09:39:18.0000000+00:00</time></trkpt><trkpt lat="30.9262265" lon="35.7127546"><ele>581.9</ele><time>2015-11-22T09:39:20.0000000+00:00</time></trkpt><trkpt lat="30.9261633" lon="35.7127394"><ele>582.3</ele><time>2015-11-22T09:39:22.0000000+00:00</time></trkpt><trkpt lat="30.9261007" lon="35.712724"><ele>582.4</ele><time>2015-11-22T09:39:24.0000000+00:00</time></trkpt><trkpt lat="30.926041" lon="35.7127014"><ele>583.1</ele><time>2015-11-22T09:39:26.0000000+00:00</time></trkpt><trkpt lat="30.9259839" lon="35.7126822"><ele>583.3</ele><time>2015-11-22T09:39:28.0000000+00:00</time></trkpt><trkpt lat="30.9259298" lon="35.7126661"><ele>583.4</ele><time>2015-11-22T09:39:30.0000000+00:00</time></trkpt><trkpt lat="30.925879" lon="35.7126525"><ele>582.9</ele><time>2015-11-22T09:39:32.0000000+00:00</time></trkpt><trkpt lat="30.9258283" lon="35.7126417"><ele>582.0</ele><time>2015-11-22T09:39:34.0000000+00:00</time></trkpt><trkpt lat="30.9257769" lon="35.7126252"><ele>582.3</ele><time>2015-11-22T09:39:36.0000000+00:00</time></trkpt><trkpt lat="30.9257244" lon="35.7126027"><ele>582.9</ele><time>2015-11-22T09:39:38.0000000+00:00</time></trkpt><trkpt lat="30.9256661" lon="35.712583"><ele>583.3</ele><time>2015-11-22T09:39:40.0000000+00:00</time></trkpt><trkpt lat="30.9256032" lon="35.7125678"><ele>584.1</ele><time>2015-11-22T09:39:42.0000000+00:00</time></trkpt><trkpt lat="30.9255377" lon="35.7125534"><ele>584.3</ele><time>2015-11-22T09:39:44.0000000+00:00</time></trkpt><trkpt lat="30.9254712" lon="35.7125391"><ele>584.4</ele><time>2015-11-22T09:39:46.0000000+00:00</time></trkpt><trkpt lat="30.9254051" lon="35.7125217"><ele>585.6</ele><time>2015-11-22T09:39:48.0000000+00:00</time></trkpt><trkpt lat="30.9253365" lon="35.7125022"><ele>585.7</ele><time>2015-11-22T09:39:50.0000000+00:00</time></trkpt><trkpt lat="30.9252673" lon="35.7124844"><ele>585.5</ele><time>2015-11-22T09:39:52.0000000+00:00</time></trkpt><trkpt lat="30.9251983" lon="35.7124681"><ele>584.7</ele><time>2015-11-22T09:39:54.0000000+00:00</time></trkpt><trkpt lat="30.9251273" lon="35.7124496"><ele>585.5</ele><time>2015-11-22T09:39:56.0000000+00:00</time></trkpt><trkpt lat="30.9250552" lon="35.7124324"><ele>586.7</ele><time>2015-11-22T09:39:58.0000000+00:00</time></trkpt><trkpt lat="30.9249844" lon="35.7124135"><ele>587.7</ele><time>2015-11-22T09:40:00.0000000+00:00</time></trkpt><trkpt lat="30.9249125" lon="35.7123928"><ele>587.7</ele><time>2015-11-22T09:40:02.0000000+00:00</time></trkpt><trkpt lat="30.9248418" lon="35.7123744"><ele>587.5</ele><time>2015-11-22T09:40:04.0000000+00:00</time></trkpt><trkpt lat="30.9247715" lon="35.7123583"><ele>587.7</ele><time>2015-11-22T09:40:06.0000000+00:00</time></trkpt><trkpt lat="30.9247024" lon="35.7123426"><ele>588.2</ele><time>2015-11-22T09:40:08.0000000+00:00</time></trkpt><trkpt lat="30.9246321" lon="35.7123261"><ele>588.9</ele><time>2015-11-22T09:40:10.0000000+00:00</time></trkpt><trkpt lat="30.924562" lon="35.7123074"><ele>589.8</ele><time>2015-11-22T09:40:12.0000000+00:00</time></trkpt><trkpt lat="30.9244898" lon="35.7122891"><ele>589.7</ele><time>2015-11-22T09:40:14.0000000+00:00</time></trkpt><trkpt lat="30.9244178" lon="35.7122689"><ele>590.0</ele><time>2015-11-22T09:40:16.0000000+00:00</time></trkpt><trkpt lat="30.9243463" lon="35.7122501"><ele>589.5</ele><time>2015-11-22T09:40:18.0000000+00:00</time></trkpt><trkpt lat="30.9242742" lon="35.7122288"><ele>589.4</ele><time>2015-11-22T09:40:20.0000000+00:00</time></trkpt><trkpt lat="30.9242035" lon="35.7122041"><ele>589.4</ele><time>2015-11-22T09:40:22.0000000+00:00</time></trkpt><trkpt lat="30.9241314" lon="35.7121748"><ele>589.9</ele><time>2015-11-22T09:40:24.0000000+00:00</time></trkpt><trkpt lat="30.9240591" lon="35.7121462"><ele>589.8</ele><time>2015-11-22T09:40:26.0000000+00:00</time></trkpt><trkpt lat="30.9239892" lon="35.7121184"><ele>588.7</ele><time>2015-11-22T09:40:28.0000000+00:00</time></trkpt><trkpt lat="30.9239191" lon="35.7120883"><ele>589.0</ele><time>2015-11-22T09:40:30.0000000+00:00</time></trkpt><trkpt lat="30.9238447" lon="35.7120634"><ele>589.3</ele><time>2015-11-22T09:40:32.0000000+00:00</time></trkpt><trkpt lat="30.9237712" lon="35.7120406"><ele>589.4</ele><time>2015-11-22T09:40:34.0000000+00:00</time></trkpt><trkpt lat="30.9236983" lon="35.712015"><ele>589.4</ele><time>2015-11-22T09:40:36.0000000+00:00</time></trkpt><trkpt lat="30.9236286" lon="35.7119889"><ele>590.1</ele><time>2015-11-22T09:40:38.0000000+00:00</time></trkpt><trkpt lat="30.9235633" lon="35.7119614"><ele>590.3</ele><time>2015-11-22T09:40:40.0000000+00:00</time></trkpt><trkpt lat="30.9234984" lon="35.7119333"><ele>591.6</ele><time>2015-11-22T09:40:42.0000000+00:00</time></trkpt><trkpt lat="30.9234358" lon="35.7119032"><ele>592.0</ele><time>2015-11-22T09:40:44.0000000+00:00</time></trkpt><trkpt lat="30.9233768" lon="35.7118781"><ele>592.0</ele><time>2015-11-22T09:40:46.0000000+00:00</time></trkpt><trkpt lat="30.9233201" lon="35.7118556"><ele>592.1</ele><time>2015-11-22T09:40:48.0000000+00:00</time></trkpt><trkpt lat="30.9232633" lon="35.7118359"><ele>593.1</ele><time>2015-11-22T09:40:50.0000000+00:00</time></trkpt><trkpt lat="30.9232085" lon="35.7118155"><ele>594.1</ele><time>2015-11-22T09:40:52.0000000+00:00</time></trkpt><trkpt lat="30.9231566" lon="35.7117902"><ele>594.3</ele><time>2015-11-22T09:40:54.0000000+00:00</time></trkpt><trkpt lat="30.9231106" lon="35.7117554"><ele>594.6</ele><time>2015-11-22T09:40:56.0000000+00:00</time></trkpt><trkpt lat="30.9230649" lon="35.7117213"><ele>594.5</ele><time>2015-11-22T09:40:58.0000000+00:00</time></trkpt><trkpt lat="30.9230187" lon="35.7116886"><ele>594.4</ele><time>2015-11-22T09:41:00.0000000+00:00</time></trkpt><trkpt lat="30.9229747" lon="35.7116516"><ele>595.2</ele><time>2015-11-22T09:41:02.0000000+00:00</time></trkpt><trkpt lat="30.9229303" lon="35.7116168"><ele>595.8</ele><time>2015-11-22T09:41:04.0000000+00:00</time></trkpt><trkpt lat="30.922882" lon="35.7115859"><ele>596.3</ele><time>2015-11-22T09:41:06.0000000+00:00</time></trkpt><trkpt lat="30.9228321" lon="35.711555"><ele>597.6</ele><time>2015-11-22T09:41:08.0000000+00:00</time></trkpt><trkpt lat="30.9227804" lon="35.7115284"><ele>599.0</ele><time>2015-11-22T09:41:10.0000000+00:00</time></trkpt><trkpt lat="30.922729" lon="35.7115025"><ele>600.8</ele><time>2015-11-22T09:41:12.0000000+00:00</time></trkpt><trkpt lat="30.922679" lon="35.7114742"><ele>602.0</ele><time>2015-11-22T09:41:14.0000000+00:00</time></trkpt><trkpt lat="30.9226339" lon="35.7114408"><ele>602.3</ele><time>2015-11-22T09:41:16.0000000+00:00</time></trkpt><trkpt lat="30.9225912" lon="35.7114068"><ele>602.9</ele><time>2015-11-22T09:41:18.0000000+00:00</time></trkpt><trkpt lat="30.9225483" lon="35.7113716"><ele>604.0</ele><time>2015-11-22T09:41:20.0000000+00:00</time></trkpt><trkpt lat="30.9225039" lon="35.7113352"><ele>604.3</ele><time>2015-11-22T09:41:22.0000000+00:00</time></trkpt><trkpt lat="30.9224575" lon="35.7113004"><ele>605.1</ele><time>2015-11-22T09:41:24.0000000+00:00</time></trkpt><trkpt lat="30.9224123" lon="35.7112675"><ele>606.1</ele><time>2015-11-22T09:41:26.0000000+00:00</time></trkpt><trkpt lat="30.9223672" lon="35.7112324"><ele>606.8</ele><time>2015-11-22T09:41:28.0000000+00:00</time></trkpt><trkpt lat="30.9223234" lon="35.7111987"><ele>607.3</ele><time>2015-11-22T09:41:30.0000000+00:00</time></trkpt><trkpt lat="30.9222779" lon="35.7111667"><ele>606.1</ele><time>2015-11-22T09:41:32.0000000+00:00</time></trkpt><trkpt lat="30.9222328" lon="35.7111333"><ele>605.6</ele><time>2015-11-22T09:41:34.0000000+00:00</time></trkpt><trkpt lat="30.922187" lon="35.7110976"><ele>604.9</ele><time>2015-11-22T09:41:36.0000000+00:00</time></trkpt><trkpt lat="30.9221438" lon="35.7110617"><ele>604.5</ele><time>2015-11-22T09:41:38.0000000+00:00</time></trkpt><trkpt lat="30.9221022" lon="35.7110246"><ele>603.2</ele><time>2015-11-22T09:41:40.0000000+00:00</time></trkpt><trkpt lat="30.9220564" lon="35.7109949"><ele>603.1</ele><time>2015-11-22T09:41:42.0000000+00:00</time></trkpt><trkpt lat="30.9220089" lon="35.7109636"><ele>603.3</ele><time>2015-11-22T09:41:44.0000000+00:00</time></trkpt><trkpt lat="30.9219629" lon="35.7109283"><ele>603.4</ele><time>2015-11-22T09:41:46.0000000+00:00</time></trkpt><trkpt lat="30.9219179" lon="35.7108936"><ele>603.4</ele><time>2015-11-22T09:41:48.0000000+00:00</time></trkpt><trkpt lat="30.921871" lon="35.7108617"><ele>603.4</ele><time>2015-11-22T09:41:50.0000000+00:00</time></trkpt><trkpt lat="30.921824" lon="35.7108294"><ele>603.4</ele><time>2015-11-22T09:41:52.0000000+00:00</time></trkpt><trkpt lat="30.921778" lon="35.7107912"><ele>602.9</ele><time>2015-11-22T09:41:54.0000000+00:00</time></trkpt><trkpt lat="30.9217302" lon="35.7107532"><ele>603.0</ele><time>2015-11-22T09:41:56.0000000+00:00</time></trkpt><trkpt lat="30.9216801" lon="35.7107177"><ele>603.3</ele><time>2015-11-22T09:41:58.0000000+00:00</time></trkpt><trkpt lat="30.9216309" lon="35.7106793"><ele>603.6</ele><time>2015-11-22T09:42:00.0000000+00:00</time></trkpt><trkpt lat="30.921581" lon="35.7106431"><ele>603.5</ele><time>2015-11-22T09:42:02.0000000+00:00</time></trkpt><trkpt lat="30.9215308" lon="35.7106095"><ele>604.2</ele><time>2015-11-22T09:42:04.0000000+00:00</time></trkpt><trkpt lat="30.9214823" lon="35.7105773"><ele>604.8</ele><time>2015-11-22T09:42:06.0000000+00:00</time></trkpt><trkpt lat="30.921434" lon="35.7105446"><ele>604.8</ele><time>2015-11-22T09:42:08.0000000+00:00</time></trkpt><trkpt lat="30.9213842" lon="35.7105103"><ele>604.5</ele><time>2015-11-22T09:42:10.0000000+00:00</time></trkpt><trkpt lat="30.9213343" lon="35.710476"><ele>604.4</ele><time>2015-11-22T09:42:12.0000000+00:00</time></trkpt><trkpt lat="30.9212831" lon="35.7104416"><ele>605.7</ele><time>2015-11-22T09:42:14.0000000+00:00</time></trkpt><trkpt lat="30.9212325" lon="35.7104074"><ele>606.2</ele><time>2015-11-22T09:42:16.0000000+00:00</time></trkpt><trkpt lat="30.921183" lon="35.7103719"><ele>607.4</ele><time>2015-11-22T09:42:18.0000000+00:00</time></trkpt><trkpt lat="30.9211317" lon="35.7103357"><ele>608.9</ele><time>2015-11-22T09:42:20.0000000+00:00</time></trkpt><trkpt lat="30.9210846" lon="35.7102997"><ele>608.8</ele><time>2015-11-22T09:42:22.0000000+00:00</time></trkpt><trkpt lat="30.921038" lon="35.7102635"><ele>609.2</ele><time>2015-11-22T09:42:24.0000000+00:00</time></trkpt><trkpt lat="30.9209935" lon="35.7102239"><ele>609.1</ele><time>2015-11-22T09:42:26.0000000+00:00</time></trkpt><trkpt lat="30.9209477" lon="35.7101858"><ele>609.1</ele><time>2015-11-22T09:42:28.0000000+00:00</time></trkpt><trkpt lat="30.9209017" lon="35.710147"><ele>609.1</ele><time>2015-11-22T09:42:30.0000000+00:00</time></trkpt><trkpt lat="30.9208538" lon="35.7101047"><ele>609.8</ele><time>2015-11-22T09:42:32.0000000+00:00</time></trkpt><trkpt lat="30.9208034" lon="35.7100638"><ele>611.5</ele><time>2015-11-22T09:42:34.0000000+00:00</time></trkpt><trkpt lat="30.9207478" lon="35.7100303"><ele>612.9</ele><time>2015-11-22T09:42:36.0000000+00:00</time></trkpt><trkpt lat="30.9206948" lon="35.709994"><ele>613.3</ele><time>2015-11-22T09:42:38.0000000+00:00</time></trkpt><trkpt lat="30.9206438" lon="35.7099549"><ele>613.9</ele><time>2015-11-22T09:42:40.0000000+00:00</time></trkpt><trkpt lat="30.9205943" lon="35.7099187"><ele>615.0</ele><time>2015-11-22T09:42:42.0000000+00:00</time></trkpt><trkpt lat="30.920545" lon="35.7098822"><ele>615.3</ele><time>2015-11-22T09:42:44.0000000+00:00</time></trkpt><trkpt lat="30.9204987" lon="35.7098445"><ele>615.9</ele><time>2015-11-22T09:42:46.0000000+00:00</time></trkpt><trkpt lat="30.920454" lon="35.7098026"><ele>616.3</ele><time>2015-11-22T09:42:48.0000000+00:00</time></trkpt><trkpt lat="30.9204101" lon="35.7097585"><ele>616.4</ele><time>2015-11-22T09:42:50.0000000+00:00</time></trkpt><trkpt lat="30.9203679" lon="35.7097101"><ele>615.9</ele><time>2015-11-22T09:42:52.0000000+00:00</time></trkpt><trkpt lat="30.9203246" lon="35.7096641"><ele>616.3</ele><time>2015-11-22T09:42:54.0000000+00:00</time></trkpt><trkpt lat="30.9202806" lon="35.7096175"><ele>616.4</ele><time>2015-11-22T09:42:56.0000000+00:00</time></trkpt><trkpt lat="30.9202391" lon="35.7095746"><ele>616.4</ele><time>2015-11-22T09:42:58.0000000+00:00</time></trkpt><trkpt lat="30.9201966" lon="35.7095225"><ele>615.6</ele><time>2015-11-22T09:43:01.0000000+00:00</time></trkpt><trkpt lat="30.9201674" lon="35.7094757"><ele>614.9</ele><time>2015-11-22T09:43:04.0000000+00:00</time></trkpt><trkpt lat="30.9201286" lon="35.7094276"><ele>614.5</ele><time>2015-11-22T09:43:07.0000000+00:00</time></trkpt><trkpt lat="30.9200877" lon="35.7093796"><ele>617.9</ele><time>2015-11-22T09:43:39.0000000+00:00</time></trkpt><trkpt lat="30.9200353" lon="35.7093379"><ele>618.1</ele><time>2015-11-22T09:43:42.0000000+00:00</time></trkpt><trkpt lat="30.9199896" lon="35.7092975"><ele>618.3</ele><time>2015-11-22T09:43:44.0000000+00:00</time></trkpt><trkpt lat="30.9199428" lon="35.7092531"><ele>618.1</ele><time>2015-11-22T09:43:46.0000000+00:00</time></trkpt><trkpt lat="30.9198984" lon="35.7092042"><ele>617.8</ele><time>2015-11-22T09:43:48.0000000+00:00</time></trkpt><trkpt lat="30.9198538" lon="35.7091541"><ele>617.5</ele><time>2015-11-22T09:43:50.0000000+00:00</time></trkpt><trkpt lat="30.9198084" lon="35.7090998"><ele>617.9</ele><time>2015-11-22T09:43:52.0000000+00:00</time></trkpt><trkpt lat="30.9197611" lon="35.7090411"><ele>618.3</ele><time>2015-11-22T09:43:54.0000000+00:00</time></trkpt><trkpt lat="30.9197105" lon="35.708984"><ele>618.9</ele><time>2015-11-22T09:43:56.0000000+00:00</time></trkpt><trkpt lat="30.9196587" lon="35.7089229"><ele>619.8</ele><time>2015-11-22T09:43:58.0000000+00:00</time></trkpt><trkpt lat="30.9196081" lon="35.7088612"><ele>620.5</ele><time>2015-11-22T09:44:00.0000000+00:00</time></trkpt><trkpt lat="30.9195589" lon="35.7087978"><ele>620.4</ele><time>2015-11-22T09:44:02.0000000+00:00</time></trkpt><trkpt lat="30.9195113" lon="35.7087334"><ele>620.4</ele><time>2015-11-22T09:44:04.0000000+00:00</time></trkpt><trkpt lat="30.9194634" lon="35.7086715"><ele>620.4</ele><time>2015-11-22T09:44:06.0000000+00:00</time></trkpt><trkpt lat="30.9194147" lon="35.7086116"><ele>620.4</ele><time>2015-11-22T09:44:08.0000000+00:00</time></trkpt><trkpt lat="30.9193698" lon="35.7085474"><ele>620.4</ele><time>2015-11-22T09:44:10.0000000+00:00</time></trkpt><trkpt lat="30.9193283" lon="35.7084792"><ele>620.4</ele><time>2015-11-22T09:44:12.0000000+00:00</time></trkpt><trkpt lat="30.9192864" lon="35.708411"><ele>620.4</ele><time>2015-11-22T09:44:14.0000000+00:00</time></trkpt><trkpt lat="30.9192413" lon="35.7083445"><ele>619.9</ele><time>2015-11-22T09:44:16.0000000+00:00</time></trkpt><trkpt lat="30.9191978" lon="35.708286"><ele>619.0</ele><time>2015-11-22T09:44:18.0000000+00:00</time></trkpt><trkpt lat="30.9191593" lon="35.7082339"><ele>619.3</ele><time>2015-11-22T09:44:20.0000000+00:00</time></trkpt><trkpt lat="30.919121" lon="35.708189"><ele>619.9</ele><time>2015-11-22T09:44:22.0000000+00:00</time></trkpt><trkpt lat="30.9190864" lon="35.7081427"><ele>619.8</ele><time>2015-11-22T09:44:24.0000000+00:00</time></trkpt><trkpt lat="30.919049" lon="35.7080882"><ele>619.5</ele><time>2015-11-22T09:44:26.0000000+00:00</time></trkpt><trkpt lat="30.9190054" lon="35.7080356"><ele>620.2</ele><time>2015-11-22T09:44:28.0000000+00:00</time></trkpt><trkpt lat="30.9189619" lon="35.7079796"><ele>619.8</ele><time>2015-11-22T09:44:30.0000000+00:00</time></trkpt><trkpt lat="30.9189154" lon="35.7079152"><ele>618.8</ele><time>2015-11-22T09:44:32.0000000+00:00</time></trkpt><trkpt lat="30.9188682" lon="35.7078556"><ele>618.5</ele><time>2015-11-22T09:44:34.0000000+00:00</time></trkpt><trkpt lat="30.9188198" lon="35.7078008"><ele>618.7</ele><time>2015-11-22T09:44:36.0000000+00:00</time></trkpt><trkpt lat="30.9187741" lon="35.7077464"><ele>619.0</ele><time>2015-11-22T09:44:38.0000000+00:00</time></trkpt><trkpt lat="30.9187267" lon="35.7076942"><ele>619.5</ele><time>2015-11-22T09:44:40.0000000+00:00</time></trkpt><trkpt lat="30.9186856" lon="35.7076383"><ele>617.9</ele><time>2015-11-22T09:44:42.0000000+00:00</time></trkpt><trkpt lat="30.918641" lon="35.707588"><ele>594.8</ele><time>2015-11-22T09:44:44.0000000+00:00</time></trkpt><trkpt lat="30.9185939" lon="35.7075438"><ele>589.5</ele><time>2015-11-22T09:44:46.0000000+00:00</time></trkpt><trkpt lat="30.9185497" lon="35.7075012"><ele>587.9</ele><time>2015-11-22T09:44:48.0000000+00:00</time></trkpt><trkpt lat="30.9185095" lon="35.7074678"><ele>588.3</ele><time>2015-11-22T09:44:50.0000000+00:00</time></trkpt><trkpt lat="30.9184616" lon="35.7074291"><ele>587.3</ele><time>2015-11-22T09:44:54.0000000+00:00</time></trkpt><trkpt lat="30.9184132" lon="35.7073969"><ele>586.9</ele><time>2015-11-22T09:44:57.0000000+00:00</time></trkpt><trkpt lat="30.9183571" lon="35.7073596"><ele>589.6</ele><time>2015-11-22T09:45:00.0000000+00:00</time></trkpt><trkpt lat="30.9183212" lon="35.707326"><ele>589.2</ele><time>2015-11-22T09:45:02.0000000+00:00</time></trkpt><trkpt lat="30.9182867" lon="35.7072894"><ele>589.8</ele><time>2015-11-22T09:45:04.0000000+00:00</time></trkpt><trkpt lat="30.9182514" lon="35.7072514"><ele>593.0</ele><time>2015-11-22T09:45:06.0000000+00:00</time></trkpt><trkpt lat="30.9182144" lon="35.7072141"><ele>594.8</ele><time>2015-11-22T09:45:08.0000000+00:00</time></trkpt><trkpt lat="30.91818" lon="35.7071747"><ele>595.5</ele><time>2015-11-22T09:45:10.0000000+00:00</time></trkpt><trkpt lat="30.9181408" lon="35.7071353"><ele>598.7</ele><time>2015-11-22T09:45:12.0000000+00:00</time></trkpt><trkpt lat="30.918102" lon="35.7070961"><ele>600.5</ele><time>2015-11-22T09:45:14.0000000+00:00</time></trkpt><trkpt lat="30.9180648" lon="35.7070566"><ele>601.7</ele><time>2015-11-22T09:45:16.0000000+00:00</time></trkpt><trkpt lat="30.9180283" lon="35.7070155"><ele>602.2</ele><time>2015-11-22T09:45:18.0000000+00:00</time></trkpt><trkpt lat="30.9179873" lon="35.70698"><ele>603.1</ele><time>2015-11-22T09:45:20.0000000+00:00</time></trkpt><trkpt lat="30.9179442" lon="35.7069495"><ele>601.6</ele><time>2015-11-22T09:45:22.0000000+00:00</time></trkpt><trkpt lat="30.9179055" lon="35.7069172"><ele>600.9</ele><time>2015-11-22T09:45:24.0000000+00:00</time></trkpt><trkpt lat="30.9178643" lon="35.7068856"><ele>602.0</ele><time>2015-11-22T09:45:26.0000000+00:00</time></trkpt><trkpt lat="30.9178206" lon="35.7068563"><ele>601.8</ele><time>2015-11-22T09:45:28.0000000+00:00</time></trkpt><trkpt lat="30.9177782" lon="35.7068219"><ele>601.0</ele><time>2015-11-22T09:45:30.0000000+00:00</time></trkpt><trkpt lat="30.9177376" lon="35.7067836"><ele>599.8</ele><time>2015-11-22T09:45:32.0000000+00:00</time></trkpt><trkpt lat="30.917684" lon="35.706742"><ele>598.2</ele><time>2015-11-22T09:45:35.0000000+00:00</time></trkpt><trkpt lat="30.9176478" lon="35.706707"><ele>601.6</ele><time>2015-11-22T09:45:38.0000000+00:00</time></trkpt><trkpt lat="30.9176109" lon="35.706676"><ele>602.6</ele><time>2015-11-22T09:45:41.0000000+00:00</time></trkpt><trkpt lat="30.9175746" lon="35.706631"><ele>601.8</ele><time>2015-11-22T09:45:44.0000000+00:00</time></trkpt><trkpt lat="30.9175328" lon="35.7065898"><ele>597.9</ele><time>2015-11-22T09:45:47.0000000+00:00</time></trkpt><trkpt lat="30.9174847" lon="35.7065549"><ele>593.8</ele><time>2015-11-22T09:45:50.0000000+00:00</time></trkpt><trkpt lat="30.9174457" lon="35.7065049"><ele>593.7</ele><time>2015-11-22T09:45:53.0000000+00:00</time></trkpt><trkpt lat="30.9174037" lon="35.706459"><ele>596.2</ele><time>2015-11-22T09:45:56.0000000+00:00</time></trkpt><trkpt lat="30.9173601" lon="35.7064091"><ele>595.6</ele><time>2015-11-22T09:45:59.0000000+00:00</time></trkpt><trkpt lat="30.9173092" lon="35.7063746"><ele>594.8</ele><time>2015-11-22T09:46:02.0000000+00:00</time></trkpt><trkpt lat="30.9172634" lon="35.7063343"><ele>593.6</ele><time>2015-11-22T09:46:05.0000000+00:00</time></trkpt><trkpt lat="30.9172213" lon="35.7062852"><ele>596.9</ele><time>2015-11-22T09:46:08.0000000+00:00</time></trkpt><trkpt lat="30.9171731" lon="35.7062405"><ele>597.1</ele><time>2015-11-22T09:46:11.0000000+00:00</time></trkpt><trkpt lat="30.9171186" lon="35.7062059"><ele>590.0</ele><time>2015-11-22T09:46:14.0000000+00:00</time></trkpt><trkpt lat="30.9170674" lon="35.7061604"><ele>591.0</ele><time>2015-11-22T09:46:17.0000000+00:00</time></trkpt><trkpt lat="30.9170133" lon="35.7061202"><ele>592.8</ele><time>2015-11-22T09:46:20.0000000+00:00</time></trkpt><trkpt lat="30.9169654" lon="35.706071"><ele>593.1</ele><time>2015-11-22T09:46:23.0000000+00:00</time></trkpt><trkpt lat="30.9169181" lon="35.7060241"><ele>591.4</ele><time>2015-11-22T09:46:26.0000000+00:00</time></trkpt><trkpt lat="30.9168706" lon="35.7059865"><ele>592.9</ele><time>2015-11-22T09:46:29.0000000+00:00</time></trkpt><trkpt lat="30.9168253" lon="35.7059418"><ele>594.7</ele><time>2015-11-22T09:46:32.0000000+00:00</time></trkpt><trkpt lat="30.9167697" lon="35.7059071"><ele>596.2</ele><time>2015-11-22T09:46:35.0000000+00:00</time></trkpt><trkpt lat="30.9167288" lon="35.7058821"><ele>596.6</ele><time>2015-11-22T09:46:37.0000000+00:00</time></trkpt><trkpt lat="30.9166901" lon="35.7058547"><ele>596.9</ele><time>2015-11-22T09:46:39.0000000+00:00</time></trkpt><trkpt lat="30.9166296" lon="35.7058239"><ele>594.2</ele><time>2015-11-22T09:46:42.0000000+00:00</time></trkpt><trkpt lat="30.9165708" lon="35.7057983"><ele>595.5</ele><time>2015-11-22T09:46:45.0000000+00:00</time></trkpt><trkpt lat="30.9165069" lon="35.7057755"><ele>595.3</ele><time>2015-11-22T09:46:48.0000000+00:00</time></trkpt><trkpt lat="30.9164623" lon="35.7057605"><ele>595.6</ele><time>2015-11-22T09:46:50.0000000+00:00</time></trkpt><trkpt lat="30.9164037" lon="35.705735"><ele>596.2</ele><time>2015-11-22T09:46:53.0000000+00:00</time></trkpt><trkpt lat="30.9163509" lon="35.7057204"><ele>595.2</ele><time>2015-11-22T09:46:56.0000000+00:00</time></trkpt><trkpt lat="30.9162993" lon="35.7057022"><ele>595.4</ele><time>2015-11-22T09:46:59.0000000+00:00</time></trkpt><trkpt lat="30.9162483" lon="35.7056891"><ele>594.5</ele><time>2015-11-22T09:47:02.0000000+00:00</time></trkpt><trkpt lat="30.9161951" lon="35.7056744"><ele>598.8</ele><time>2015-11-22T09:47:05.0000000+00:00</time></trkpt><trkpt lat="30.9161438" lon="35.7056586"><ele>601.4</ele><time>2015-11-22T09:47:08.0000000+00:00</time></trkpt><trkpt lat="30.9160925" lon="35.7056396"><ele>608.7</ele><time>2015-11-22T09:47:11.0000000+00:00</time></trkpt><trkpt lat="30.9160418" lon="35.705625"><ele>609.1</ele><time>2015-11-22T09:47:14.0000000+00:00</time></trkpt><trkpt lat="30.9159875" lon="35.7056154"><ele>607.2</ele><time>2015-11-22T09:47:17.0000000+00:00</time></trkpt><trkpt lat="30.9159284" lon="35.7056057"><ele>615.0</ele><time>2015-11-22T09:47:20.0000000+00:00</time></trkpt><trkpt lat="30.9158681" lon="35.705595"><ele>615.6</ele><time>2015-11-22T09:47:23.0000000+00:00</time></trkpt><trkpt lat="30.9158089" lon="35.7055905"><ele>618.0</ele><time>2015-11-22T09:47:26.0000000+00:00</time></trkpt><trkpt lat="30.9157493" lon="35.7055836"><ele>621.1</ele><time>2015-11-22T09:47:29.0000000+00:00</time></trkpt><trkpt lat="30.9156924" lon="35.705575"><ele>622.6</ele><time>2015-11-22T09:47:32.0000000+00:00</time></trkpt><trkpt lat="30.9156408" lon="35.7055633"><ele>622.9</ele><time>2015-11-22T09:47:35.0000000+00:00</time></trkpt><trkpt lat="30.9155914" lon="35.7055592"><ele>624.1</ele><time>2015-11-22T09:47:38.0000000+00:00</time></trkpt><trkpt lat="30.9155369" lon="35.7055447"><ele>622.4</ele><time>2015-11-22T09:47:41.0000000+00:00</time></trkpt><trkpt lat="30.9154776" lon="35.705534"><ele>623.3</ele><time>2015-11-22T09:47:44.0000000+00:00</time></trkpt><trkpt lat="30.9154116" lon="35.7055289"><ele>624.6</ele><time>2015-11-22T09:47:47.0000000+00:00</time></trkpt><trkpt lat="30.9153476" lon="35.7055221"><ele>624.3</ele><time>2015-11-22T09:47:50.0000000+00:00</time></trkpt><trkpt lat="30.9153052" lon="35.7054923"><ele>628.9</ele><time>2015-11-22T09:49:06.0000000+00:00</time></trkpt><trkpt lat="30.9152602" lon="35.7054975"><ele>648.3</ele><time>2015-11-22T09:53:49.0000000+00:00</time></trkpt><trkpt lat="30.9152146" lon="35.7054964"><ele>648.4</ele><time>2015-11-22T09:53:52.0000000+00:00</time></trkpt><trkpt lat="30.9151519" lon="35.7054822"><ele>647.6</ele><time>2015-11-22T09:53:55.0000000+00:00</time></trkpt><trkpt lat="30.9151029" lon="35.705473"><ele>647.2</ele><time>2015-11-22T09:53:57.0000000+00:00</time></trkpt><trkpt lat="30.9150475" lon="35.7054647"><ele>631.4</ele><time>2015-11-22T09:53:59.0000000+00:00</time></trkpt><trkpt lat="30.9149852" lon="35.7054534"><ele>625.9</ele><time>2015-11-22T09:54:01.0000000+00:00</time></trkpt><trkpt lat="30.9149288" lon="35.70544"><ele>623.8</ele><time>2015-11-22T09:54:03.0000000+00:00</time></trkpt><trkpt lat="30.9148765" lon="35.7054254"><ele>623.0</ele><time>2015-11-22T09:54:05.0000000+00:00</time></trkpt><trkpt lat="30.9148188" lon="35.705411"><ele>622.8</ele><time>2015-11-22T09:54:07.0000000+00:00</time></trkpt><trkpt lat="30.9147639" lon="35.7053995"><ele>623.2</ele><time>2015-11-22T09:54:09.0000000+00:00</time></trkpt><trkpt lat="30.9147086" lon="35.7053877"><ele>623.1</ele><time>2015-11-22T09:54:11.0000000+00:00</time></trkpt><trkpt lat="30.9146543" lon="35.7053709"><ele>624.6</ele><time>2015-11-22T09:54:13.0000000+00:00</time></trkpt><trkpt lat="30.9146009" lon="35.7053462"><ele>625.7</ele><time>2015-11-22T09:54:15.0000000+00:00</time></trkpt><trkpt lat="30.9145493" lon="35.7053193"><ele>626.7</ele><time>2015-11-22T09:54:17.0000000+00:00</time></trkpt><trkpt lat="30.914498" lon="35.705294"><ele>626.0</ele><time>2015-11-22T09:54:19.0000000+00:00</time></trkpt><trkpt lat="30.9144462" lon="35.7052699"><ele>626.8</ele><time>2015-11-22T09:54:21.0000000+00:00</time></trkpt><trkpt lat="30.9143964" lon="35.7052476"><ele>625.2</ele><time>2015-11-22T09:54:23.0000000+00:00</time></trkpt><trkpt lat="30.9143518" lon="35.7052143"><ele>625.1</ele><time>2015-11-22T09:54:25.0000000+00:00</time></trkpt><trkpt lat="30.9143084" lon="35.7051758"><ele>625.8</ele><time>2015-11-22T09:54:27.0000000+00:00</time></trkpt><trkpt lat="30.914267" lon="35.705135"><ele>625.3</ele><time>2015-11-22T09:54:29.0000000+00:00</time></trkpt><trkpt lat="30.9142247" lon="35.7050949"><ele>626.9</ele><time>2015-11-22T09:54:31.0000000+00:00</time></trkpt><trkpt lat="30.914183" lon="35.7050502"><ele>627.3</ele><time>2015-11-22T09:54:33.0000000+00:00</time></trkpt><trkpt lat="30.9141436" lon="35.7050058"><ele>627.9</ele><time>2015-11-22T09:54:35.0000000+00:00</time></trkpt><trkpt lat="30.9141067" lon="35.7049614"><ele>626.0</ele><time>2015-11-22T09:54:37.0000000+00:00</time></trkpt><trkpt lat="30.9140706" lon="35.704915"><ele>622.6</ele><time>2015-11-22T09:54:39.0000000+00:00</time></trkpt><trkpt lat="30.9140361" lon="35.7048636"><ele>621.9</ele><time>2015-11-22T09:54:41.0000000+00:00</time></trkpt><trkpt lat="30.9140046" lon="35.7048076"><ele>622.8</ele><time>2015-11-22T09:54:43.0000000+00:00</time></trkpt><trkpt lat="30.9139722" lon="35.7047518"><ele>623.7</ele><time>2015-11-22T09:54:45.0000000+00:00</time></trkpt><trkpt lat="30.9139368" lon="35.7046938"><ele>623.7</ele><time>2015-11-22T09:54:47.0000000+00:00</time></trkpt><trkpt lat="30.9139084" lon="35.7046312"><ele>624.0</ele><time>2015-11-22T09:54:49.0000000+00:00</time></trkpt><trkpt lat="30.9138797" lon="35.7045679"><ele>623.5</ele><time>2015-11-22T09:54:51.0000000+00:00</time></trkpt><trkpt lat="30.9138479" lon="35.7045054"><ele>625.2</ele><time>2015-11-22T09:54:53.0000000+00:00</time></trkpt><trkpt lat="30.9138199" lon="35.7044407"><ele>626.1</ele><time>2015-11-22T09:54:55.0000000+00:00</time></trkpt><trkpt lat="30.9137896" lon="35.7043768"><ele>625.3</ele><time>2015-11-22T09:54:57.0000000+00:00</time></trkpt><trkpt lat="30.9137538" lon="35.704318"><ele>624.1</ele><time>2015-11-22T09:54:59.0000000+00:00</time></trkpt><trkpt lat="30.9137131" lon="35.7042641"><ele>623.3</ele><time>2015-11-22T09:55:01.0000000+00:00</time></trkpt><trkpt lat="30.9136721" lon="35.7042086"><ele>623.9</ele><time>2015-11-22T09:55:03.0000000+00:00</time></trkpt><trkpt lat="30.9136254" lon="35.7041585"><ele>624.5</ele><time>2015-11-22T09:55:05.0000000+00:00</time></trkpt><trkpt lat="30.9135765" lon="35.7041118"><ele>624.7</ele><time>2015-11-22T09:55:07.0000000+00:00</time></trkpt><trkpt lat="30.9135245" lon="35.7040684"><ele>624.2</ele><time>2015-11-22T09:55:09.0000000+00:00</time></trkpt><trkpt lat="30.9134694" lon="35.7040283"><ele>624.4</ele><time>2015-11-22T09:55:11.0000000+00:00</time></trkpt><trkpt lat="30.913415" lon="35.7039911"><ele>624.4</ele><time>2015-11-22T09:55:13.0000000+00:00</time></trkpt><trkpt lat="30.9133631" lon="35.703959"><ele>624.4</ele><time>2015-11-22T09:55:15.0000000+00:00</time></trkpt><trkpt lat="30.9133132" lon="35.7039319"><ele>624.1</ele><time>2015-11-22T09:55:17.0000000+00:00</time></trkpt><trkpt lat="30.9132613" lon="35.7039126"><ele>624.6</ele><time>2015-11-22T09:55:19.0000000+00:00</time></trkpt><trkpt lat="30.9132151" lon="35.7038878"><ele>626.2</ele><time>2015-11-22T09:55:21.0000000+00:00</time></trkpt><trkpt lat="30.9131534" lon="35.7038598"><ele>626.7</ele><time>2015-11-22T09:55:24.0000000+00:00</time></trkpt><trkpt lat="30.9130902" lon="35.7038515"><ele>626.2</ele><time>2015-11-22T09:55:27.0000000+00:00</time></trkpt><trkpt lat="30.9130361" lon="35.7038387"><ele>642.9</ele><time>2015-11-22T09:55:30.0000000+00:00</time></trkpt><trkpt lat="30.9129825" lon="35.7038264"><ele>654.8</ele><time>2015-11-22T09:55:33.0000000+00:00</time></trkpt><trkpt lat="30.9129365" lon="35.7038176"><ele>659.2</ele><time>2015-11-22T09:55:36.0000000+00:00</time></trkpt><trkpt lat="30.9128777" lon="35.7038031"><ele>661.9</ele><time>2015-11-22T09:55:40.0000000+00:00</time></trkpt><trkpt lat="30.9128307" lon="35.703798"><ele>663.1</ele><time>2015-11-22T09:55:43.0000000+00:00</time></trkpt><trkpt lat="30.9127815" lon="35.703797"><ele>664.2</ele><time>2015-11-22T09:55:46.0000000+00:00</time></trkpt><trkpt lat="30.9127301" lon="35.7037928"><ele>664.1</ele><time>2015-11-22T09:55:49.0000000+00:00</time></trkpt><trkpt lat="30.9126811" lon="35.7037872"><ele>663.5</ele><time>2015-11-22T09:55:52.0000000+00:00</time></trkpt><trkpt lat="30.9126331" lon="35.7037838"><ele>663.5</ele><time>2015-11-22T09:55:55.0000000+00:00</time></trkpt><trkpt lat="30.9125869" lon="35.7037839"><ele>663.4</ele><time>2015-11-22T09:55:58.0000000+00:00</time></trkpt><trkpt lat="30.9125408" lon="35.7037833"><ele>663.4</ele><time>2015-11-22T09:56:01.0000000+00:00</time></trkpt><trkpt lat="30.9124824" lon="35.7037783"><ele>663.4</ele><time>2015-11-22T09:56:05.0000000+00:00</time></trkpt><trkpt lat="30.9124294" lon="35.7037691"><ele>664.3</ele><time>2015-11-22T09:56:09.0000000+00:00</time></trkpt><trkpt lat="30.9123784" lon="35.7037587"><ele>664.9</ele><time>2015-11-22T09:56:13.0000000+00:00</time></trkpt><trkpt lat="30.9123252" lon="35.7037478"><ele>666.2</ele><time>2015-11-22T09:56:17.0000000+00:00</time></trkpt><trkpt lat="30.9122756" lon="35.7037443"><ele>666.6</ele><time>2015-11-22T09:56:20.0000000+00:00</time></trkpt><trkpt lat="30.912222" lon="35.7037371"><ele>666.3</ele><time>2015-11-22T09:56:23.0000000+00:00</time></trkpt><trkpt lat="30.9121766" lon="35.7037248"><ele>668.4</ele><time>2015-11-22T09:56:26.0000000+00:00</time></trkpt><trkpt lat="30.9121295" lon="35.7037119"><ele>671.6</ele><time>2015-11-22T09:56:30.0000000+00:00</time></trkpt><trkpt lat="30.912078" lon="35.7037004"><ele>671.4</ele><time>2015-11-22T09:56:34.0000000+00:00</time></trkpt><trkpt lat="30.9120206" lon="35.7036796"><ele>671.6</ele><time>2015-11-22T09:56:38.0000000+00:00</time></trkpt><trkpt lat="30.9119746" lon="35.7036642"><ele>672.8</ele><time>2015-11-22T09:56:41.0000000+00:00</time></trkpt><trkpt lat="30.9119281" lon="35.7036472"><ele>673.3</ele><time>2015-11-22T09:56:44.0000000+00:00</time></trkpt><trkpt lat="30.9118736" lon="35.7036197"><ele>675.1</ele><time>2015-11-22T09:56:48.0000000+00:00</time></trkpt><trkpt lat="30.9118304" lon="35.703598"><ele>676.2</ele><time>2015-11-22T09:56:51.0000000+00:00</time></trkpt><trkpt lat="30.9117812" lon="35.7035852"><ele>676.3</ele><time>2015-11-22T09:56:54.0000000+00:00</time></trkpt><trkpt lat="30.9117378" lon="35.7035587"><ele>676.1</ele><time>2015-11-22T09:56:57.0000000+00:00</time></trkpt><trkpt lat="30.9116986" lon="35.7035329"><ele>677.5</ele><time>2015-11-22T09:57:00.0000000+00:00</time></trkpt><trkpt lat="30.9116503" lon="35.7035079"><ele>677.5</ele><time>2015-11-22T09:57:03.0000000+00:00</time></trkpt><trkpt lat="30.911605" lon="35.7034797"><ele>679.0</ele><time>2015-11-22T09:57:06.0000000+00:00</time></trkpt><trkpt lat="30.9115636" lon="35.7034452"><ele>673.0</ele><time>2015-11-22T09:57:09.0000000+00:00</time></trkpt><trkpt lat="30.9115239" lon="35.7034162"><ele>669.0</ele><time>2015-11-22T09:57:12.0000000+00:00</time></trkpt><trkpt lat="30.9114836" lon="35.7033681"><ele>670.0</ele><time>2015-11-22T09:57:16.0000000+00:00</time></trkpt><trkpt lat="30.9114404" lon="35.7033204"><ele>669.7</ele><time>2015-11-22T09:57:20.0000000+00:00</time></trkpt><trkpt lat="30.9113962" lon="35.7032863"><ele>669.9</ele><time>2015-11-22T09:57:23.0000000+00:00</time></trkpt><trkpt lat="30.9113534" lon="35.7032512"><ele>670.0</ele><time>2015-11-22T09:57:26.0000000+00:00</time></trkpt><trkpt lat="30.9113131" lon="35.7032195"><ele>669.8</ele><time>2015-11-22T09:57:29.0000000+00:00</time></trkpt><trkpt lat="30.911273" lon="35.7031735"><ele>671.6</ele><time>2015-11-22T09:57:33.0000000+00:00</time></trkpt><trkpt lat="30.9112459" lon="35.7031316"><ele>670.7</ele><time>2015-11-22T09:57:36.0000000+00:00</time></trkpt><trkpt lat="30.9112018" lon="35.7030878"><ele>670.9</ele><time>2015-11-22T09:57:40.0000000+00:00</time></trkpt><trkpt lat="30.9111602" lon="35.7030429"><ele>670.7</ele><time>2015-11-22T09:57:44.0000000+00:00</time></trkpt><trkpt lat="30.9111244" lon="35.7030101"><ele>670.4</ele><time>2015-11-22T09:57:47.0000000+00:00</time></trkpt><trkpt lat="30.9110856" lon="35.7029764"><ele>669.5</ele><time>2015-11-22T09:57:50.0000000+00:00</time></trkpt><trkpt lat="30.9110437" lon="35.7029478"><ele>670.2</ele><time>2015-11-22T09:57:53.0000000+00:00</time></trkpt><trkpt lat="30.9110051" lon="35.7029192"><ele>670.4</ele><time>2015-11-22T09:57:56.0000000+00:00</time></trkpt><trkpt lat="30.9109674" lon="35.7028901"><ele>669.6</ele><time>2015-11-22T09:57:59.0000000+00:00</time></trkpt><trkpt lat="30.9109163" lon="35.7028516"><ele>672.0</ele><time>2015-11-22T09:58:03.0000000+00:00</time></trkpt><trkpt lat="30.9108726" lon="35.7028212"><ele>671.5</ele><time>2015-11-22T09:58:06.0000000+00:00</time></trkpt><trkpt lat="30.9108271" lon="35.7027839"><ele>672.0</ele><time>2015-11-22T09:58:09.0000000+00:00</time></trkpt><trkpt lat="30.9107876" lon="35.7027397"><ele>671.1</ele><time>2015-11-22T09:58:12.0000000+00:00</time></trkpt><trkpt lat="30.9107431" lon="35.7027079"><ele>669.7</ele><time>2015-11-22T09:58:15.0000000+00:00</time></trkpt><trkpt lat="30.9107041" lon="35.7026805"><ele>669.4</ele><time>2015-11-22T09:58:18.0000000+00:00</time></trkpt><trkpt lat="30.9106647" lon="35.702652"><ele>669.9</ele><time>2015-11-22T09:58:21.0000000+00:00</time></trkpt><trkpt lat="30.9106235" lon="35.7026074"><ele>671.2</ele><time>2015-11-22T09:58:25.0000000+00:00</time></trkpt><trkpt lat="30.9105883" lon="35.7025731"><ele>671.1</ele><time>2015-11-22T09:58:28.0000000+00:00</time></trkpt><trkpt lat="30.9105537" lon="35.7025391"><ele>670.2</ele><time>2015-11-22T09:58:31.0000000+00:00</time></trkpt><trkpt lat="30.9105135" lon="35.70251"><ele>670.4</ele><time>2015-11-22T09:58:34.0000000+00:00</time></trkpt><trkpt lat="30.9104755" lon="35.7024744"><ele>668.8</ele><time>2015-11-22T09:58:37.0000000+00:00</time></trkpt><trkpt lat="30.9104332" lon="35.7024429"><ele>668.4</ele><time>2015-11-22T09:58:40.0000000+00:00</time></trkpt><trkpt lat="30.9103883" lon="35.7024146"><ele>668.4</ele><time>2015-11-22T09:58:43.0000000+00:00</time></trkpt><trkpt lat="30.9103459" lon="35.7023799"><ele>669.1</ele><time>2015-11-22T09:58:46.0000000+00:00</time></trkpt><trkpt lat="30.9103085" lon="35.7023426"><ele>670.6</ele><time>2015-11-22T09:58:49.0000000+00:00</time></trkpt><trkpt lat="30.9102687" lon="35.7023085"><ele>671.2</ele><time>2015-11-22T09:58:52.0000000+00:00</time></trkpt><trkpt lat="30.9102314" lon="35.7022737"><ele>671.2</ele><time>2015-11-22T09:58:55.0000000+00:00</time></trkpt><trkpt lat="30.910197" lon="35.7022347"><ele>672.3</ele><time>2015-11-22T09:58:58.0000000+00:00</time></trkpt><trkpt lat="30.9101579" lon="35.7021951"><ele>673.3</ele><time>2015-11-22T09:59:01.0000000+00:00</time></trkpt><trkpt lat="30.9101192" lon="35.7021559"><ele>672.6</ele><time>2015-11-22T09:59:04.0000000+00:00</time></trkpt><trkpt lat="30.9100842" lon="35.70211"><ele>673.4</ele><time>2015-11-22T09:59:07.0000000+00:00</time></trkpt><trkpt lat="30.9100494" lon="35.7020768"><ele>671.9</ele><time>2015-11-22T09:59:10.0000000+00:00</time></trkpt><trkpt lat="30.9100118" lon="35.70203"><ele>671.4</ele><time>2015-11-22T09:59:14.0000000+00:00</time></trkpt><trkpt lat="30.9099681" lon="35.7019835"><ele>671.4</ele><time>2015-11-22T09:59:18.0000000+00:00</time></trkpt><trkpt lat="30.909923" lon="35.7019546"><ele>672.9</ele><time>2015-11-22T09:59:21.0000000+00:00</time></trkpt><trkpt lat="30.9098824" lon="35.7019256"><ele>673.1</ele><time>2015-11-22T09:59:24.0000000+00:00</time></trkpt><trkpt lat="30.9098365" lon="35.7019002"><ele>672.9</ele><time>2015-11-22T09:59:27.0000000+00:00</time></trkpt><trkpt lat="30.9097948" lon="35.7018673"><ele>671.7</ele><time>2015-11-22T09:59:30.0000000+00:00</time></trkpt><trkpt lat="30.9097562" lon="35.701835"><ele>670.6</ele><time>2015-11-22T09:59:33.0000000+00:00</time></trkpt><trkpt lat="30.9097202" lon="35.7017964"><ele>671.2</ele><time>2015-11-22T09:59:36.0000000+00:00</time></trkpt><trkpt lat="30.9096892" lon="35.7017526"><ele>671.5</ele><time>2015-11-22T09:59:39.0000000+00:00</time></trkpt><trkpt lat="30.9096573" lon="35.7017029"><ele>671.7</ele><time>2015-11-22T09:59:42.0000000+00:00</time></trkpt><trkpt lat="30.9096346" lon="35.701655"><ele>671.4</ele><time>2015-11-22T09:59:45.0000000+00:00</time></trkpt><trkpt lat="30.9095996" lon="35.7016002"><ele>670.6</ele><time>2015-11-22T09:59:49.0000000+00:00</time></trkpt><trkpt lat="30.90956" lon="35.701555"><ele>670.8</ele><time>2015-11-22T09:59:53.0000000+00:00</time></trkpt><trkpt lat="30.9095305" lon="35.7015062"><ele>671.4</ele><time>2015-11-22T09:59:57.0000000+00:00</time></trkpt><trkpt lat="30.9095038" lon="35.7014608"><ele>671.8</ele><time>2015-11-22T10:00:00.0000000+00:00</time></trkpt><trkpt lat="30.9094719" lon="35.7014201"><ele>672.7</ele><time>2015-11-22T10:00:03.0000000+00:00</time></trkpt><trkpt lat="30.9094456" lon="35.7013661"><ele>673.3</ele><time>2015-11-22T10:00:06.0000000+00:00</time></trkpt><trkpt lat="30.9094192" lon="35.7013134"><ele>673.9</ele><time>2015-11-22T10:00:09.0000000+00:00</time></trkpt><trkpt lat="30.9093776" lon="35.7012632"><ele>673.5</ele><time>2015-11-22T10:00:12.0000000+00:00</time></trkpt><trkpt lat="30.9093364" lon="35.7012114"><ele>673.2</ele><time>2015-11-22T10:00:15.0000000+00:00</time></trkpt><trkpt lat="30.9093072" lon="35.7011499"><ele>673.2</ele><time>2015-11-22T10:00:18.0000000+00:00</time></trkpt><trkpt lat="30.9092734" lon="35.7010928"><ele>673.6</ele><time>2015-11-22T10:00:21.0000000+00:00</time></trkpt><trkpt lat="30.9092531" lon="35.7010364"><ele>671.8</ele><time>2015-11-22T10:00:24.0000000+00:00</time></trkpt><trkpt lat="30.909236" lon="35.7009844"><ele>671.6</ele><time>2015-11-22T10:00:27.0000000+00:00</time></trkpt><trkpt lat="30.9092215" lon="35.7009304"><ele>671.5</ele><time>2015-11-22T10:00:30.0000000+00:00</time></trkpt><trkpt lat="30.9092081" lon="35.7008738"><ele>670.0</ele><time>2015-11-22T10:00:33.0000000+00:00</time></trkpt><trkpt lat="30.9091991" lon="35.7008149"><ele>669.5</ele><time>2015-11-22T10:00:36.0000000+00:00</time></trkpt><trkpt lat="30.9091864" lon="35.70076"><ele>670.0</ele><time>2015-11-22T10:00:39.0000000+00:00</time></trkpt><trkpt lat="30.9091742" lon="35.7007056"><ele>672.1</ele><time>2015-11-22T10:00:42.0000000+00:00</time></trkpt><trkpt lat="30.9091583" lon="35.7006545"><ele>674.1</ele><time>2015-11-22T10:00:45.0000000+00:00</time></trkpt><trkpt lat="30.9091442" lon="35.7006013"><ele>673.1</ele><time>2015-11-22T10:00:48.0000000+00:00</time></trkpt><trkpt lat="30.9091338" lon="35.7005449"><ele>674.4</ele><time>2015-11-22T10:00:51.0000000+00:00</time></trkpt><trkpt lat="30.9091252" lon="35.7004906"><ele>674.0</ele><time>2015-11-22T10:00:54.0000000+00:00</time></trkpt><trkpt lat="30.9091075" lon="35.7004374"><ele>672.0</ele><time>2015-11-22T10:00:57.0000000+00:00</time></trkpt><trkpt lat="30.9091008" lon="35.7003737"><ele>671.8</ele><time>2015-11-22T10:01:01.0000000+00:00</time></trkpt><trkpt lat="30.9091062" lon="35.7003161"><ele>670.5</ele><time>2015-11-22T10:01:05.0000000+00:00</time></trkpt><trkpt lat="30.9091135" lon="35.7002572"><ele>672.2</ele><time>2015-11-22T10:01:09.0000000+00:00</time></trkpt><trkpt lat="30.9091123" lon="35.7001865"><ele>673.1</ele><time>2015-11-22T10:01:13.0000000+00:00</time></trkpt><trkpt lat="30.9091121" lon="35.7001296"><ele>673.9</ele><time>2015-11-22T10:01:16.0000000+00:00</time></trkpt><trkpt lat="30.9091114" lon="35.7000722"><ele>675.3</ele><time>2015-11-22T10:01:19.0000000+00:00</time></trkpt><trkpt lat="30.9091126" lon="35.700014"><ele>677.5</ele><time>2015-11-22T10:01:22.0000000+00:00</time></trkpt><trkpt lat="30.9091134" lon="35.6999555"><ele>676.9</ele><time>2015-11-22T10:01:25.0000000+00:00</time></trkpt><trkpt lat="30.9091189" lon="35.699882"><ele>677.2</ele><time>2015-11-22T10:01:29.0000000+00:00</time></trkpt><trkpt lat="30.9091226" lon="35.6998284"><ele>676.4</ele><time>2015-11-22T10:01:32.0000000+00:00</time></trkpt><trkpt lat="30.9091271" lon="35.6997677"><ele>675.5</ele><time>2015-11-22T10:01:35.0000000+00:00</time></trkpt><trkpt lat="30.9091296" lon="35.6997091"><ele>677.4</ele><time>2015-11-22T10:01:38.0000000+00:00</time></trkpt><trkpt lat="30.9091371" lon="35.6996557"><ele>678.9</ele><time>2015-11-22T10:01:41.0000000+00:00</time></trkpt><trkpt lat="30.9091503" lon="35.6996032"><ele>678.0</ele><time>2015-11-22T10:01:44.0000000+00:00</time></trkpt><trkpt lat="30.9091621" lon="35.699549"><ele>678.1</ele><time>2015-11-22T10:01:47.0000000+00:00</time></trkpt><trkpt lat="30.9091806" lon="35.6994953"><ele>679.5</ele><time>2015-11-22T10:01:50.0000000+00:00</time></trkpt><trkpt lat="30.9091946" lon="35.6994419"><ele>677.5</ele><time>2015-11-22T10:01:53.0000000+00:00</time></trkpt><trkpt lat="30.9092108" lon="35.6993891"><ele>677.3</ele><time>2015-11-22T10:01:56.0000000+00:00</time></trkpt><trkpt lat="30.9092245" lon="35.6993354"><ele>675.3</ele><time>2015-11-22T10:01:59.0000000+00:00</time></trkpt><trkpt lat="30.9092451" lon="35.699271"><ele>676.5</ele><time>2015-11-22T10:02:03.0000000+00:00</time></trkpt><trkpt lat="30.9092655" lon="35.6992234"><ele>677.2</ele><time>2015-11-22T10:02:06.0000000+00:00</time></trkpt><trkpt lat="30.9092866" lon="35.6991599"><ele>677.9</ele><time>2015-11-22T10:02:10.0000000+00:00</time></trkpt><trkpt lat="30.9093054" lon="35.6991122"><ele>680.7</ele><time>2015-11-22T10:02:13.0000000+00:00</time></trkpt><trkpt lat="30.9093328" lon="35.6990663"><ele>684.4</ele><time>2015-11-22T10:02:16.0000000+00:00</time></trkpt><trkpt lat="30.9093605" lon="35.6990174"><ele>685.0</ele><time>2015-11-22T10:02:19.0000000+00:00</time></trkpt><trkpt lat="30.9093915" lon="35.6989704"><ele>685.2</ele><time>2015-11-22T10:02:22.0000000+00:00</time></trkpt><trkpt lat="30.9094208" lon="35.6989254"><ele>686.0</ele><time>2015-11-22T10:02:25.0000000+00:00</time></trkpt><trkpt lat="30.909455" lon="35.698876"><ele>689.2</ele><time>2015-11-22T10:02:28.0000000+00:00</time></trkpt><trkpt lat="30.9094829" lon="35.6988247"><ele>691.3</ele><time>2015-11-22T10:02:31.0000000+00:00</time></trkpt><trkpt lat="30.9095171" lon="35.6987736"><ele>694.0</ele><time>2015-11-22T10:02:34.0000000+00:00</time></trkpt><trkpt lat="30.9095499" lon="35.6987244"><ele>687.1</ele><time>2015-11-22T10:02:37.0000000+00:00</time></trkpt><trkpt lat="30.9095818" lon="35.6986794"><ele>683.7</ele><time>2015-11-22T10:02:40.0000000+00:00</time></trkpt><trkpt lat="30.9096186" lon="35.6986399"><ele>683.1</ele><time>2015-11-22T10:02:43.0000000+00:00</time></trkpt><trkpt lat="30.9096449" lon="35.6985883"><ele>681.2</ele><time>2015-11-22T10:02:46.0000000+00:00</time></trkpt><trkpt lat="30.9096812" lon="35.6985417"><ele>683.9</ele><time>2015-11-22T10:02:49.0000000+00:00</time></trkpt><trkpt lat="30.9097183" lon="35.6984946"><ele>686.7</ele><time>2015-11-22T10:02:52.0000000+00:00</time></trkpt><trkpt lat="30.909752" lon="35.69845"><ele>692.4</ele><time>2015-11-22T10:02:55.0000000+00:00</time></trkpt><trkpt lat="30.9097969" lon="35.6984032"><ele>689.6</ele><time>2015-11-22T10:02:59.0000000+00:00</time></trkpt><trkpt lat="30.9098288" lon="35.6983618"><ele>682.5</ele><time>2015-11-22T10:03:02.0000000+00:00</time></trkpt><trkpt lat="30.9098705" lon="35.6983262"><ele>701.9</ele><time>2015-11-22T10:03:05.0000000+00:00</time></trkpt><trkpt lat="30.9099107" lon="35.6982938"><ele>720.2</ele><time>2015-11-22T10:03:08.0000000+00:00</time></trkpt><trkpt lat="30.909948" lon="35.6982608"><ele>727.9</ele><time>2015-11-22T10:03:11.0000000+00:00</time></trkpt><trkpt lat="30.9099949" lon="35.698234"><ele>730.1</ele><time>2015-11-22T10:03:14.0000000+00:00</time></trkpt><trkpt lat="30.9100342" lon="35.6982075"><ele>732.3</ele><time>2015-11-22T10:03:16.0000000+00:00</time></trkpt><trkpt lat="30.9100872" lon="35.6981692"><ele>734.4</ele><time>2015-11-22T10:03:18.0000000+00:00</time></trkpt><trkpt lat="30.9101435" lon="35.6981326"><ele>735.6</ele><time>2015-11-22T10:03:20.0000000+00:00</time></trkpt><trkpt lat="30.910192" lon="35.6980958"><ele>737.0</ele><time>2015-11-22T10:03:22.0000000+00:00</time></trkpt><trkpt lat="30.9102347" lon="35.6980571"><ele>737.3</ele><time>2015-11-22T10:03:24.0000000+00:00</time></trkpt><trkpt lat="30.9102771" lon="35.6980244"><ele>737.6</ele><time>2015-11-22T10:03:26.0000000+00:00</time></trkpt><trkpt lat="30.9103173" lon="35.6980002"><ele>737.5</ele><time>2015-11-22T10:03:28.0000000+00:00</time></trkpt><trkpt lat="30.9103594" lon="35.6979785"><ele>737.7</ele><time>2015-11-22T10:03:30.0000000+00:00</time></trkpt><trkpt lat="30.9104054" lon="35.6979569"><ele>738.2</ele><time>2015-11-22T10:03:32.0000000+00:00</time></trkpt><trkpt lat="30.9104502" lon="35.6979365"><ele>737.9</ele><time>2015-11-22T10:03:34.0000000+00:00</time></trkpt><trkpt lat="30.910494" lon="35.6979206"><ele>736.3</ele><time>2015-11-22T10:03:36.0000000+00:00</time></trkpt><trkpt lat="30.910553" lon="35.6978931"><ele>736.9</ele><time>2015-11-22T10:03:39.0000000+00:00</time></trkpt><trkpt lat="30.910603" lon="35.6978923"><ele>735.4</ele><time>2015-11-22T10:04:53.0000000+00:00</time></trkpt><trkpt lat="30.910653" lon="35.69788"><ele>735.4</ele><time>2015-11-22T10:04:57.0000000+00:00</time></trkpt><trkpt lat="30.9107052" lon="35.6978633"><ele>735.9</ele><time>2015-11-22T10:05:00.0000000+00:00</time></trkpt><trkpt lat="30.9107612" lon="35.6978425"><ele>736.0</ele><time>2015-11-22T10:05:03.0000000+00:00</time></trkpt><trkpt lat="30.9108256" lon="35.697837"><ele>734.1</ele><time>2015-11-22T10:05:06.0000000+00:00</time></trkpt><trkpt lat="30.910877" lon="35.697833"><ele>733.6</ele><time>2015-11-22T10:05:08.0000000+00:00</time></trkpt><trkpt lat="30.9109394" lon="35.6978257"><ele>733.4</ele><time>2015-11-22T10:05:10.0000000+00:00</time></trkpt><trkpt lat="30.9110035" lon="35.6978171"><ele>734.7</ele><time>2015-11-22T10:05:12.0000000+00:00</time></trkpt><trkpt lat="30.911064" lon="35.6978097"><ele>735.5</ele><time>2015-11-22T10:05:14.0000000+00:00</time></trkpt><trkpt lat="30.9111219" lon="35.6978002"><ele>734.9</ele><time>2015-11-22T10:05:16.0000000+00:00</time></trkpt><trkpt lat="30.9111809" lon="35.6977972"><ele>734.0</ele><time>2015-11-22T10:05:18.0000000+00:00</time></trkpt><trkpt lat="30.9112458" lon="35.6977943"><ele>733.6</ele><time>2015-11-22T10:05:20.0000000+00:00</time></trkpt><trkpt lat="30.9113179" lon="35.6977908"><ele>733.4</ele><time>2015-11-22T10:05:22.0000000+00:00</time></trkpt><trkpt lat="30.9113937" lon="35.6977914"><ele>732.7</ele><time>2015-11-22T10:05:24.0000000+00:00</time></trkpt><trkpt lat="30.9114802" lon="35.6977946"><ele>733.2</ele><time>2015-11-22T10:05:26.0000000+00:00</time></trkpt><trkpt lat="30.9115699" lon="35.6977964"><ele>733.4</ele><time>2015-11-22T10:05:28.0000000+00:00</time></trkpt><trkpt lat="30.91166" lon="35.6977995"><ele>733.1</ele><time>2015-11-22T10:05:30.0000000+00:00</time></trkpt><trkpt lat="30.9117317" lon="35.6978078"><ele>733.3</ele><time>2015-11-22T10:05:31.0000000+00:00</time></trkpt><trkpt lat="30.9117795" lon="35.6978116"><ele>733.8</ele><time>2015-11-22T10:05:32.0000000+00:00</time></trkpt><trkpt lat="30.9118719" lon="35.697815"><ele>734.3</ele><time>2015-11-22T10:05:34.0000000+00:00</time></trkpt><trkpt lat="30.911919" lon="35.6978162"><ele>733.8</ele><time>2015-11-22T10:05:35.0000000+00:00</time></trkpt><trkpt lat="30.9119689" lon="35.6978131"><ele>734.1</ele><time>2015-11-22T10:05:36.0000000+00:00</time></trkpt><trkpt lat="30.912016" lon="35.6978209"><ele>733.8</ele><time>2015-11-22T10:05:37.0000000+00:00</time></trkpt><trkpt lat="30.9120615" lon="35.6978261"><ele>733.6</ele><time>2015-11-22T10:05:38.0000000+00:00</time></trkpt><trkpt lat="30.9121423" lon="35.6978271"><ele>733.4</ele><time>2015-11-22T10:05:40.0000000+00:00</time></trkpt><trkpt lat="30.9122167" lon="35.697832"><ele>733.4</ele><time>2015-11-22T10:05:42.0000000+00:00</time></trkpt><trkpt lat="30.9123062" lon="35.6978334"><ele>734.7</ele><time>2015-11-22T10:05:44.0000000+00:00</time></trkpt><trkpt lat="30.9123808" lon="35.6978374"><ele>735.2</ele><time>2015-11-22T10:05:46.0000000+00:00</time></trkpt><trkpt lat="30.9124582" lon="35.697848"><ele>736.6</ele><time>2015-11-22T10:05:48.0000000+00:00</time></trkpt><trkpt lat="30.912534" lon="35.6978552"><ele>737.9</ele><time>2015-11-22T10:05:50.0000000+00:00</time></trkpt><trkpt lat="30.9126056" lon="35.6978601"><ele>738.3</ele><time>2015-11-22T10:05:52.0000000+00:00</time></trkpt><trkpt lat="30.9126756" lon="35.6978649"><ele>738.1</ele><time>2015-11-22T10:05:54.0000000+00:00</time></trkpt><trkpt lat="30.9127448" lon="35.6978727"><ele>737.8</ele><time>2015-11-22T10:05:56.0000000+00:00</time></trkpt><trkpt lat="30.9128131" lon="35.697884"><ele>737.5</ele><time>2015-11-22T10:05:58.0000000+00:00</time></trkpt><trkpt lat="30.9128777" lon="35.6978897"><ele>737.4</ele><time>2015-11-22T10:06:00.0000000+00:00</time></trkpt><trkpt lat="30.9129307" lon="35.6978927"><ele>737.4</ele><time>2015-11-22T10:06:02.0000000+00:00</time></trkpt><trkpt lat="30.9129877" lon="35.6978954"><ele>738.2</ele><time>2015-11-22T10:06:04.0000000+00:00</time></trkpt><trkpt lat="30.9130483" lon="35.6979004"><ele>738.3</ele><time>2015-11-22T10:06:06.0000000+00:00</time></trkpt><trkpt lat="30.9131114" lon="35.6979053"><ele>738.4</ele><time>2015-11-22T10:06:08.0000000+00:00</time></trkpt><trkpt lat="30.9131763" lon="35.6979094"><ele>739.1</ele><time>2015-11-22T10:06:10.0000000+00:00</time></trkpt><trkpt lat="30.9132408" lon="35.6979145"><ele>739.3</ele><time>2015-11-22T10:06:12.0000000+00:00</time></trkpt><trkpt lat="30.9133055" lon="35.6979202"><ele>739.4</ele><time>2015-11-22T10:06:14.0000000+00:00</time></trkpt><trkpt lat="30.9133723" lon="35.6979258"><ele>740.1</ele><time>2015-11-22T10:06:16.0000000+00:00</time></trkpt><trkpt lat="30.9134409" lon="35.6979306"><ele>740.8</ele><time>2015-11-22T10:06:18.0000000+00:00</time></trkpt><trkpt lat="30.9135107" lon="35.6979327"><ele>741.3</ele><time>2015-11-22T10:06:20.0000000+00:00</time></trkpt><trkpt lat="30.9135817" lon="35.6979359"><ele>741.4</ele><time>2015-11-22T10:06:22.0000000+00:00</time></trkpt><trkpt lat="30.9136529" lon="35.697941"><ele>741.4</ele><time>2015-11-22T10:06:24.0000000+00:00</time></trkpt><trkpt lat="30.9137218" lon="35.6979495"><ele>741.4</ele><time>2015-11-22T10:06:26.0000000+00:00</time></trkpt><trkpt lat="30.9137887" lon="35.6979563"><ele>741.4</ele><time>2015-11-22T10:06:28.0000000+00:00</time></trkpt><trkpt lat="30.9138566" lon="35.6979605"><ele>741.4</ele><time>2015-11-22T10:06:30.0000000+00:00</time></trkpt><trkpt lat="30.9139252" lon="35.6979642"><ele>741.4</ele><time>2015-11-22T10:06:32.0000000+00:00</time></trkpt><trkpt lat="30.9139915" lon="35.6979664"><ele>741.4</ele><time>2015-11-22T10:06:34.0000000+00:00</time></trkpt><trkpt lat="30.9140508" lon="35.6979724"><ele>742.1</ele><time>2015-11-22T10:06:36.0000000+00:00</time></trkpt><trkpt lat="30.9141165" lon="35.6979808"><ele>742.3</ele><time>2015-11-22T10:06:38.0000000+00:00</time></trkpt><trkpt lat="30.9141922" lon="35.6979869"><ele>742.4</ele><time>2015-11-22T10:06:40.0000000+00:00</time></trkpt><trkpt lat="30.9142654" lon="35.6979907"><ele>742.4</ele><time>2015-11-22T10:06:42.0000000+00:00</time></trkpt><trkpt lat="30.9143356" lon="35.6979933"><ele>741.9</ele><time>2015-11-22T10:06:44.0000000+00:00</time></trkpt><trkpt lat="30.9144029" lon="35.6979993"><ele>741.5</ele><time>2015-11-22T10:06:46.0000000+00:00</time></trkpt><trkpt lat="30.9144705" lon="35.6980045"><ele>741.4</ele><time>2015-11-22T10:06:48.0000000+00:00</time></trkpt><trkpt lat="30.9145447" lon="35.6980052"><ele>740.9</ele><time>2015-11-22T10:06:50.0000000+00:00</time></trkpt><trkpt lat="30.9145932" lon="35.6980072"><ele>740.7</ele><time>2015-11-22T10:06:51.0000000+00:00</time></trkpt><trkpt lat="30.914653" lon="35.6980112"><ele>740.5</ele><time>2015-11-22T10:06:52.0000000+00:00</time></trkpt><trkpt lat="30.9147032" lon="35.6980152"><ele>740.5</ele><time>2015-11-22T10:06:53.0000000+00:00</time></trkpt><trkpt lat="30.9147542" lon="35.6980186"><ele>740.4</ele><time>2015-11-22T10:06:54.0000000+00:00</time></trkpt><trkpt lat="30.914805" lon="35.6980274"><ele>740.4</ele><time>2015-11-22T10:06:55.0000000+00:00</time></trkpt><trkpt lat="30.9148543" lon="35.6980365"><ele>740.4</ele><time>2015-11-22T10:06:56.0000000+00:00</time></trkpt><trkpt lat="30.9148997" lon="35.698044"><ele>740.4</ele><time>2015-11-22T10:06:57.0000000+00:00</time></trkpt><trkpt lat="30.9149453" lon="35.6980517"><ele>740.9</ele><time>2015-11-22T10:06:58.0000000+00:00</time></trkpt><trkpt lat="30.9149937" lon="35.6980613"><ele>741.2</ele><time>2015-11-22T10:06:59.0000000+00:00</time></trkpt><trkpt lat="30.9150799" lon="35.698083"><ele>741.3</ele><time>2015-11-22T10:07:01.0000000+00:00</time></trkpt><trkpt lat="30.9151246" lon="35.6980972"><ele>741.9</ele><time>2015-11-22T10:07:02.0000000+00:00</time></trkpt><trkpt lat="30.9151989" lon="35.6981248"><ele>742.3</ele><time>2015-11-22T10:07:04.0000000+00:00</time></trkpt><trkpt lat="30.9152573" lon="35.6981421"><ele>742.4</ele><time>2015-11-22T10:07:06.0000000+00:00</time></trkpt><trkpt lat="30.9153009" lon="35.6981566"><ele>742.9</ele><time>2015-11-22T10:07:08.0000000+00:00</time></trkpt><trkpt lat="30.9153606" lon="35.6981816"><ele>743.3</ele><time>2015-11-22T10:07:11.0000000+00:00</time></trkpt><trkpt lat="30.9154203" lon="35.6982067"><ele>744.3</ele><time>2015-11-22T10:07:14.0000000+00:00</time></trkpt><trkpt lat="30.9154768" lon="35.6982291"><ele>744.4</ele><time>2015-11-22T10:07:17.0000000+00:00</time></trkpt><trkpt lat="30.9155308" lon="35.6982542"><ele>745.0</ele><time>2015-11-22T10:07:20.0000000+00:00</time></trkpt><trkpt lat="30.9155824" lon="35.6982759"><ele>745.4</ele><time>2015-11-22T10:07:23.0000000+00:00</time></trkpt><trkpt lat="30.9156334" lon="35.6983011"><ele>746.1</ele><time>2015-11-22T10:07:26.0000000+00:00</time></trkpt><trkpt lat="30.915684" lon="35.6983271"><ele>747.6</ele><time>2015-11-22T10:07:29.0000000+00:00</time></trkpt><trkpt lat="30.9157324" lon="35.6983544"><ele>748.3</ele><time>2015-11-22T10:07:32.0000000+00:00</time></trkpt><trkpt lat="30.9157811" lon="35.6983848"><ele>748.4</ele><time>2015-11-22T10:07:35.0000000+00:00</time></trkpt><trkpt lat="30.9158324" lon="35.6984156"><ele>747.6</ele><time>2015-11-22T10:07:38.0000000+00:00</time></trkpt><trkpt lat="30.9158837" lon="35.6984437"><ele>747.6</ele><time>2015-11-22T10:07:41.0000000+00:00</time></trkpt><trkpt lat="30.9159348" lon="35.6984702"><ele>748.2</ele><time>2015-11-22T10:07:44.0000000+00:00</time></trkpt><trkpt lat="30.9159849" lon="35.6985002"><ele>748.4</ele><time>2015-11-22T10:07:47.0000000+00:00</time></trkpt><trkpt lat="30.9160351" lon="35.6985291"><ele>748.4</ele><time>2015-11-22T10:07:50.0000000+00:00</time></trkpt><trkpt lat="30.9160861" lon="35.6985539"><ele>748.9</ele><time>2015-11-22T10:07:53.0000000+00:00</time></trkpt><trkpt lat="30.9161388" lon="35.6985752"><ele>749.3</ele><time>2015-11-22T10:07:56.0000000+00:00</time></trkpt><trkpt lat="30.9161926" lon="35.6985999"><ele>749.5</ele><time>2015-11-22T10:07:59.0000000+00:00</time></trkpt><trkpt lat="30.916243" lon="35.6986279"><ele>750.3</ele><time>2015-11-22T10:08:02.0000000+00:00</time></trkpt><trkpt lat="30.916294" lon="35.6986531"><ele>750.9</ele><time>2015-11-22T10:08:05.0000000+00:00</time></trkpt><trkpt lat="30.9163464" lon="35.6986764"><ele>751.3</ele><time>2015-11-22T10:08:08.0000000+00:00</time></trkpt><trkpt lat="30.9163982" lon="35.6987028"><ele>752.8</ele><time>2015-11-22T10:08:11.0000000+00:00</time></trkpt><trkpt lat="30.9164496" lon="35.6987313"><ele>753.3</ele><time>2015-11-22T10:08:14.0000000+00:00</time></trkpt><trkpt lat="30.9165008" lon="35.6987597"><ele>753.9</ele><time>2015-11-22T10:08:17.0000000+00:00</time></trkpt><trkpt lat="30.9165498" lon="35.6987897"><ele>754.3</ele><time>2015-11-22T10:08:20.0000000+00:00</time></trkpt><trkpt lat="30.9165997" lon="35.6988182"><ele>755.1</ele><time>2015-11-22T10:08:23.0000000+00:00</time></trkpt><trkpt lat="30.9166489" lon="35.6988438"><ele>756.1</ele><time>2015-11-22T10:08:26.0000000+00:00</time></trkpt><trkpt lat="30.9166977" lon="35.6988693"><ele>756.4</ele><time>2015-11-22T10:08:29.0000000+00:00</time></trkpt><trkpt lat="30.9167486" lon="35.6988931"><ele>757.3</ele><time>2015-11-22T10:08:32.0000000+00:00</time></trkpt><trkpt lat="30.9167986" lon="35.6989203"><ele>757.9</ele><time>2015-11-22T10:08:35.0000000+00:00</time></trkpt><trkpt lat="30.9168471" lon="35.6989467"><ele>759.1</ele><time>2015-11-22T10:08:38.0000000+00:00</time></trkpt><trkpt lat="30.9168951" lon="35.6989706"><ele>759.4</ele><time>2015-11-22T10:08:41.0000000+00:00</time></trkpt><trkpt lat="30.9169424" lon="35.6989965"><ele>759.4</ele><time>2015-11-22T10:08:44.0000000+00:00</time></trkpt><trkpt lat="30.9169898" lon="35.6990187"><ele>759.4</ele><time>2015-11-22T10:08:47.0000000+00:00</time></trkpt><trkpt lat="30.9170376" lon="35.699038"><ele>760.1</ele><time>2015-11-22T10:08:50.0000000+00:00</time></trkpt><trkpt lat="30.9170838" lon="35.6990612"><ele>760.9</ele><time>2015-11-22T10:08:53.0000000+00:00</time></trkpt><trkpt lat="30.9171282" lon="35.6990909"><ele>761.3</ele><time>2015-11-22T10:08:56.0000000+00:00</time></trkpt><trkpt lat="30.9171757" lon="35.6991166"><ele>762.1</ele><time>2015-11-22T10:08:59.0000000+00:00</time></trkpt><trkpt lat="30.9172248" lon="35.6991411"><ele>763.0</ele><time>2015-11-22T10:09:02.0000000+00:00</time></trkpt><trkpt lat="30.9172737" lon="35.6991681"><ele>763.3</ele><time>2015-11-22T10:09:05.0000000+00:00</time></trkpt><trkpt lat="30.917324" lon="35.6991955"><ele>763.4</ele><time>2015-11-22T10:09:08.0000000+00:00</time></trkpt><trkpt lat="30.9173751" lon="35.6992221"><ele>763.4</ele><time>2015-11-22T10:09:11.0000000+00:00</time></trkpt><trkpt lat="30.917431" lon="35.699249"><ele>764.1</ele><time>2015-11-22T10:09:14.0000000+00:00</time></trkpt><trkpt lat="30.9174726" lon="35.6992712"><ele>764.1</ele><time>2015-11-22T10:09:16.0000000+00:00</time></trkpt><trkpt lat="30.9175312" lon="35.6993024"><ele>764.4</ele><time>2015-11-22T10:09:19.0000000+00:00</time></trkpt><trkpt lat="30.9175734" lon="35.6993241"><ele>764.4</ele><time>2015-11-22T10:09:21.0000000+00:00</time></trkpt><trkpt lat="30.917617" lon="35.699346"><ele>764.9</ele><time>2015-11-22T10:09:23.0000000+00:00</time></trkpt><trkpt lat="30.9176618" lon="35.6993701"><ele>765.3</ele><time>2015-11-22T10:09:25.0000000+00:00</time></trkpt><trkpt lat="30.9177034" lon="35.6993926"><ele>765.4</ele><time>2015-11-22T10:09:27.0000000+00:00</time></trkpt><trkpt lat="30.9177515" lon="35.699417"><ele>765.4</ele><time>2015-11-22T10:09:30.0000000+00:00</time></trkpt><trkpt lat="30.9177961" lon="35.699433"><ele>765.4</ele><time>2015-11-22T10:09:33.0000000+00:00</time></trkpt><trkpt lat="30.9178542" lon="35.6994624"><ele>766.3</ele><time>2015-11-22T10:09:36.0000000+00:00</time></trkpt><trkpt lat="30.9179103" lon="35.6994976"><ele>766.4</ele><time>2015-11-22T10:09:39.0000000+00:00</time></trkpt><trkpt lat="30.9179483" lon="35.699526"><ele>768.5</ele><time>2015-11-22T10:12:14.0000000+00:00</time></trkpt><trkpt lat="30.9179997" lon="35.699555"><ele>768.4</ele><time>2015-11-22T10:12:17.0000000+00:00</time></trkpt><trkpt lat="30.9180415" lon="35.6995865"><ele>768.4</ele><time>2015-11-22T10:12:19.0000000+00:00</time></trkpt><trkpt lat="30.9180884" lon="35.6996214"><ele>769.1</ele><time>2015-11-22T10:12:21.0000000+00:00</time></trkpt><trkpt lat="30.9181383" lon="35.6996523"><ele>768.6</ele><time>2015-11-22T10:12:23.0000000+00:00</time></trkpt><trkpt lat="30.9181919" lon="35.6996841"><ele>768.4</ele><time>2015-11-22T10:12:25.0000000+00:00</time></trkpt><trkpt lat="30.9182498" lon="35.6997135"><ele>768.9</ele><time>2015-11-22T10:12:27.0000000+00:00</time></trkpt><trkpt lat="30.9183091" lon="35.699738"><ele>768.5</ele><time>2015-11-22T10:12:29.0000000+00:00</time></trkpt><trkpt lat="30.9183663" lon="35.6997611"><ele>768.4</ele><time>2015-11-22T10:12:31.0000000+00:00</time></trkpt><trkpt lat="30.9184198" lon="35.6997844"><ele>768.9</ele><time>2015-11-22T10:12:33.0000000+00:00</time></trkpt><trkpt lat="30.9184695" lon="35.699807"><ele>768.5</ele><time>2015-11-22T10:12:35.0000000+00:00</time></trkpt><trkpt lat="30.9185148" lon="35.699822"><ele>769.2</ele><time>2015-11-22T10:12:37.0000000+00:00</time></trkpt><trkpt lat="30.9185777" lon="35.699842"><ele>768.7</ele><time>2015-11-22T10:12:40.0000000+00:00</time></trkpt><trkpt lat="30.9186228" lon="35.6998527"><ele>768.5</ele><time>2015-11-22T10:12:42.0000000+00:00</time></trkpt><trkpt lat="30.9186744" lon="35.6998639"><ele>768.4</ele><time>2015-11-22T10:12:44.0000000+00:00</time></trkpt><trkpt lat="30.9187396" lon="35.6998758"><ele>768.4</ele><time>2015-11-22T10:12:46.0000000+00:00</time></trkpt><trkpt lat="30.9188093" lon="35.6998836"><ele>768.4</ele><time>2015-11-22T10:12:48.0000000+00:00</time></trkpt><trkpt lat="30.9188793" lon="35.6998877"><ele>769.1</ele><time>2015-11-22T10:12:50.0000000+00:00</time></trkpt><trkpt lat="30.9189499" lon="35.6998893"><ele>769.3</ele><time>2015-11-22T10:12:52.0000000+00:00</time></trkpt><trkpt lat="30.9190182" lon="35.6998859"><ele>769.4</ele><time>2015-11-22T10:12:54.0000000+00:00</time></trkpt><trkpt lat="30.9190851" lon="35.6998774"><ele>769.4</ele><time>2015-11-22T10:12:56.0000000+00:00</time></trkpt><trkpt lat="30.9191464" lon="35.69986"><ele>769.4</ele><time>2015-11-22T10:12:58.0000000+00:00</time></trkpt><trkpt lat="30.9192072" lon="35.6998396"><ele>769.4</ele><time>2015-11-22T10:13:00.0000000+00:00</time></trkpt><trkpt lat="30.9192684" lon="35.6998217"><ele>770.1</ele><time>2015-11-22T10:13:02.0000000+00:00</time></trkpt><trkpt lat="30.9193252" lon="35.6997941"><ele>770.3</ele><time>2015-11-22T10:13:04.0000000+00:00</time></trkpt><trkpt lat="30.9193764" lon="35.6997617"><ele>770.4</ele><time>2015-11-22T10:13:06.0000000+00:00</time></trkpt><trkpt lat="30.9194204" lon="35.6997272"><ele>770.4</ele><time>2015-11-22T10:13:08.0000000+00:00</time></trkpt><trkpt lat="30.9194588" lon="35.6996914"><ele>770.4</ele><time>2015-11-22T10:13:10.0000000+00:00</time></trkpt><trkpt lat="30.9194929" lon="35.699655"><ele>771.1</ele><time>2015-11-22T10:13:12.0000000+00:00</time></trkpt><trkpt lat="30.919529" lon="35.6996193"><ele>771.3</ele><time>2015-11-22T10:13:14.0000000+00:00</time></trkpt><trkpt lat="30.9195623" lon="35.6995826"><ele>771.4</ele><time>2015-11-22T10:13:16.0000000+00:00</time></trkpt><trkpt lat="30.9196068" lon="35.6995379"><ele>771.6</ele><time>2015-11-22T10:13:19.0000000+00:00</time></trkpt><trkpt lat="30.9196395" lon="35.6994888"><ele>771.4</ele><time>2015-11-22T10:13:23.0000000+00:00</time></trkpt><trkpt lat="30.9196676" lon="35.6994329"><ele>771.6</ele><time>2015-11-22T10:13:27.0000000+00:00</time></trkpt><trkpt lat="30.9196915" lon="35.6993885"><ele>772.7</ele><time>2015-11-22T10:13:30.0000000+00:00</time></trkpt><trkpt lat="30.9197135" lon="35.6993412"><ele>771.7</ele><time>2015-11-22T10:13:33.0000000+00:00</time></trkpt><trkpt lat="30.9197304" lon="35.699288"><ele>771.4</ele><time>2015-11-22T10:13:36.0000000+00:00</time></trkpt><trkpt lat="30.9197544" lon="35.699239"><ele>771.4</ele><time>2015-11-22T10:13:39.0000000+00:00</time></trkpt><trkpt lat="30.919775" lon="35.6991908"><ele>771.9</ele><time>2015-11-22T10:13:42.0000000+00:00</time></trkpt><trkpt lat="30.9197964" lon="35.6991407"><ele>772.5</ele><time>2015-11-22T10:13:45.0000000+00:00</time></trkpt><trkpt lat="30.9198152" lon="35.6990924"><ele>772.4</ele><time>2015-11-22T10:13:48.0000000+00:00</time></trkpt><trkpt lat="30.919831" lon="35.6990292"><ele>772.0</ele><time>2015-11-22T10:13:52.0000000+00:00</time></trkpt><trkpt lat="30.9198292" lon="35.6989678"><ele>770.6</ele><time>2015-11-22T10:13:56.0000000+00:00</time></trkpt><trkpt lat="30.919831" lon="35.6989034"><ele>770.4</ele><time>2015-11-22T10:14:00.0000000+00:00</time></trkpt><trkpt lat="30.9198287" lon="35.6988443"><ele>770.5</ele><time>2015-11-22T10:14:04.0000000+00:00</time></trkpt><trkpt lat="30.9198166" lon="35.6987866"><ele>770.9</ele><time>2015-11-22T10:14:08.0000000+00:00</time></trkpt><trkpt lat="30.919796" lon="35.6987274"><ele>772.1</ele><time>2015-11-22T10:14:12.0000000+00:00</time></trkpt><trkpt lat="30.9197704" lon="35.6986645"><ele>773.3</ele><time>2015-11-22T10:14:16.0000000+00:00</time></trkpt><trkpt lat="30.9197544" lon="35.6986107"><ele>777.1</ele><time>2015-11-22T10:14:19.0000000+00:00</time></trkpt><trkpt lat="30.9197374" lon="35.6985572"><ele>780.5</ele><time>2015-11-22T10:14:22.0000000+00:00</time></trkpt><trkpt lat="30.919721" lon="35.6985035"><ele>783.5</ele><time>2015-11-22T10:14:25.0000000+00:00</time></trkpt><trkpt lat="30.9197" lon="35.6984535"><ele>785.0</ele><time>2015-11-22T10:14:28.0000000+00:00</time></trkpt><trkpt lat="30.9196754" lon="35.6984019"><ele>786.6</ele><time>2015-11-22T10:14:31.0000000+00:00</time></trkpt><trkpt lat="30.9196534" lon="35.6983509"><ele>786.7</ele><time>2015-11-22T10:14:34.0000000+00:00</time></trkpt><trkpt lat="30.9196286" lon="35.698302"><ele>788.7</ele><time>2015-11-22T10:14:37.0000000+00:00</time></trkpt><trkpt lat="30.919599" lon="35.6982543"><ele>789.6</ele><time>2015-11-22T10:14:40.0000000+00:00</time></trkpt><trkpt lat="30.9195744" lon="35.6982036"><ele>790.0</ele><time>2015-11-22T10:14:43.0000000+00:00</time></trkpt><trkpt lat="30.9195457" lon="35.6981572"><ele>790.2</ele><time>2015-11-22T10:14:46.0000000+00:00</time></trkpt><trkpt lat="30.919514" lon="35.6981078"><ele>791.1</ele><time>2015-11-22T10:14:49.0000000+00:00</time></trkpt><trkpt lat="30.9194847" lon="35.6980576"><ele>791.4</ele><time>2015-11-22T10:14:52.0000000+00:00</time></trkpt><trkpt lat="30.919456" lon="35.6980093"><ele>790.5</ele><time>2015-11-22T10:14:55.0000000+00:00</time></trkpt><trkpt lat="30.9194256" lon="35.697959"><ele>790.8</ele><time>2015-11-22T10:14:58.0000000+00:00</time></trkpt><trkpt lat="30.919398" lon="35.6979104"><ele>791.3</ele><time>2015-11-22T10:15:01.0000000+00:00</time></trkpt><trkpt lat="30.9193696" lon="35.6978632"><ele>793.0</ele><time>2015-11-22T10:15:04.0000000+00:00</time></trkpt><trkpt lat="30.9193393" lon="35.6978157"><ele>793.4</ele><time>2015-11-22T10:15:07.0000000+00:00</time></trkpt><trkpt lat="30.9193134" lon="35.6977701"><ele>793.6</ele><time>2015-11-22T10:15:10.0000000+00:00</time></trkpt><trkpt lat="30.9192864" lon="35.6977244"><ele>792.3</ele><time>2015-11-22T10:15:13.0000000+00:00</time></trkpt><trkpt lat="30.9192584" lon="35.6976775"><ele>794.5</ele><time>2015-11-22T10:15:16.0000000+00:00</time></trkpt><trkpt lat="30.9192338" lon="35.6976298"><ele>795.4</ele><time>2015-11-22T10:15:19.0000000+00:00</time></trkpt><trkpt lat="30.9192044" lon="35.6975822"><ele>795.7</ele><time>2015-11-22T10:15:22.0000000+00:00</time></trkpt><trkpt lat="30.9191728" lon="35.6975407"><ele>794.2</ele><time>2015-11-22T10:15:25.0000000+00:00</time></trkpt><trkpt lat="30.9191428" lon="35.6975001"><ele>793.9</ele><time>2015-11-22T10:15:28.0000000+00:00</time></trkpt><trkpt lat="30.9191106" lon="35.6974593"><ele>784.2</ele><time>2015-11-22T10:15:31.0000000+00:00</time></trkpt><trkpt lat="30.9190847" lon="35.6974129"><ele>782.5</ele><time>2015-11-22T10:15:34.0000000+00:00</time></trkpt><trkpt lat="30.9190488" lon="35.6973708"><ele>782.4</ele><time>2015-11-22T10:15:37.0000000+00:00</time></trkpt><trkpt lat="30.9190203" lon="35.6973235"><ele>783.3</ele><time>2015-11-22T10:15:40.0000000+00:00</time></trkpt><trkpt lat="30.9189897" lon="35.6972769"><ele>783.9</ele><time>2015-11-22T10:15:43.0000000+00:00</time></trkpt><trkpt lat="30.918961" lon="35.6972271"><ele>785.1</ele><time>2015-11-22T10:15:46.0000000+00:00</time></trkpt><trkpt lat="30.9189286" lon="35.697175"><ele>785.1</ele><time>2015-11-22T10:15:49.0000000+00:00</time></trkpt><trkpt lat="30.9188966" lon="35.6971257"><ele>785.4</ele><time>2015-11-22T10:15:52.0000000+00:00</time></trkpt><trkpt lat="30.918865" lon="35.6970754"><ele>786.1</ele><time>2015-11-22T10:15:55.0000000+00:00</time></trkpt><trkpt lat="30.9188365" lon="35.697024"><ele>786.4</ele><time>2015-11-22T10:15:58.0000000+00:00</time></trkpt><trkpt lat="30.9188019" lon="35.6969747"><ele>787.5</ele><time>2015-11-22T10:16:01.0000000+00:00</time></trkpt><trkpt lat="30.9187673" lon="35.6969233"><ele>786.2</ele><time>2015-11-22T10:16:04.0000000+00:00</time></trkpt><trkpt lat="30.9187307" lon="35.6968726"><ele>785.5</ele><time>2015-11-22T10:16:07.0000000+00:00</time></trkpt><trkpt lat="30.9186896" lon="35.6968186"><ele>784.2</ele><time>2015-11-22T10:16:10.0000000+00:00</time></trkpt><trkpt lat="30.9186527" lon="35.6967546"><ele>784.4</ele><time>2015-11-22T10:16:13.0000000+00:00</time></trkpt><trkpt lat="30.9186174" lon="35.696693"><ele>784.9</ele><time>2015-11-22T10:16:16.0000000+00:00</time></trkpt><trkpt lat="30.918581" lon="35.6966344"><ele>785.1</ele><time>2015-11-22T10:16:19.0000000+00:00</time></trkpt><trkpt lat="30.9185458" lon="35.6965778"><ele>787.0</ele><time>2015-11-22T10:16:22.0000000+00:00</time></trkpt><trkpt lat="30.9185058" lon="35.6965169"><ele>787.1</ele><time>2015-11-22T10:16:25.0000000+00:00</time></trkpt><trkpt lat="30.9184648" lon="35.6964552"><ele>788.1</ele><time>2015-11-22T10:16:28.0000000+00:00</time></trkpt><trkpt lat="30.9184377" lon="35.6964121"><ele>788.1</ele><time>2015-11-22T10:16:30.0000000+00:00</time></trkpt><trkpt lat="30.9183982" lon="35.6963609"><ele>788.9</ele><time>2015-11-22T10:16:33.0000000+00:00</time></trkpt><trkpt lat="30.9183586" lon="35.6963115"><ele>798.0</ele><time>2015-11-22T10:16:36.0000000+00:00</time></trkpt><trkpt lat="30.918319" lon="35.6962544"><ele>804.0</ele><time>2015-11-22T10:16:39.0000000+00:00</time></trkpt><trkpt lat="30.9182806" lon="35.6961906"><ele>806.1</ele><time>2015-11-22T10:16:42.0000000+00:00</time></trkpt><trkpt lat="30.9182555" lon="35.6961436"><ele>806.1</ele><time>2015-11-22T10:16:44.0000000+00:00</time></trkpt><trkpt lat="30.9182283" lon="35.6961015"><ele>807.8</ele><time>2015-11-22T10:16:46.0000000+00:00</time></trkpt><trkpt lat="30.9181851" lon="35.6960424"><ele>808.8</ele><time>2015-11-22T10:16:49.0000000+00:00</time></trkpt><trkpt lat="30.9181461" lon="35.6959959"><ele>809.8</ele><time>2015-11-22T10:16:52.0000000+00:00</time></trkpt><trkpt lat="30.9181117" lon="35.6959502"><ele>810.8</ele><time>2015-11-22T10:16:55.0000000+00:00</time></trkpt><trkpt lat="30.9180741" lon="35.6959009"><ele>811.3</ele><time>2015-11-22T10:16:58.0000000+00:00</time></trkpt><trkpt lat="30.9180379" lon="35.6958627"><ele>810.6</ele><time>2015-11-22T10:17:01.0000000+00:00</time></trkpt><trkpt lat="30.918004" lon="35.6958172"><ele>809.6</ele><time>2015-11-22T10:17:04.0000000+00:00</time></trkpt><trkpt lat="30.9179671" lon="35.6957633"><ele>809.4</ele><time>2015-11-22T10:17:07.0000000+00:00</time></trkpt><trkpt lat="30.9179339" lon="35.6957034"><ele>810.2</ele><time>2015-11-22T10:17:10.0000000+00:00</time></trkpt><trkpt lat="30.9178986" lon="35.6956559"><ele>811.1</ele><time>2015-11-22T10:17:13.0000000+00:00</time></trkpt><trkpt lat="30.9178701" lon="35.6956128"><ele>812.1</ele><time>2015-11-22T10:17:16.0000000+00:00</time></trkpt><trkpt lat="30.9178369" lon="35.6955603"><ele>812.4</ele><time>2015-11-22T10:17:19.0000000+00:00</time></trkpt><trkpt lat="30.9178141" lon="35.6955123"><ele>812.4</ele><time>2015-11-22T10:17:22.0000000+00:00</time></trkpt><trkpt lat="30.9177869" lon="35.695468"><ele>811.5</ele><time>2015-11-22T10:17:25.0000000+00:00</time></trkpt><trkpt lat="30.9177484" lon="35.6954258"><ele>813.0</ele><time>2015-11-22T10:17:29.0000000+00:00</time></trkpt><trkpt lat="30.9177138" lon="35.6953848"><ele>813.8</ele><time>2015-11-22T10:18:21.0000000+00:00</time></trkpt><trkpt lat="30.9176785" lon="35.6953326"><ele>813.4</ele><time>2015-11-22T10:18:25.0000000+00:00</time></trkpt><trkpt lat="30.9176445" lon="35.695283"><ele>811.7</ele><time>2015-11-22T10:18:28.0000000+00:00</time></trkpt><trkpt lat="30.9176068" lon="35.6952297"><ele>813.2</ele><time>2015-11-22T10:18:31.0000000+00:00</time></trkpt><trkpt lat="30.9175726" lon="35.6951679"><ele>812.4</ele><time>2015-11-22T10:18:34.0000000+00:00</time></trkpt><trkpt lat="30.9175334" lon="35.6951076"><ele>812.9</ele><time>2015-11-22T10:18:37.0000000+00:00</time></trkpt><trkpt lat="30.9174928" lon="35.6950478"><ele>812.6</ele><time>2015-11-22T10:18:40.0000000+00:00</time></trkpt><trkpt lat="30.9174665" lon="35.695005"><ele>812.4</ele><time>2015-11-22T10:18:42.0000000+00:00</time></trkpt><trkpt lat="30.9174255" lon="35.6949507"><ele>798.0</ele><time>2015-11-22T10:18:45.0000000+00:00</time></trkpt><trkpt lat="30.9173843" lon="35.6948902"><ele>796.5</ele><time>2015-11-22T10:18:48.0000000+00:00</time></trkpt><trkpt lat="30.9173564" lon="35.6948444"><ele>796.2</ele><time>2015-11-22T10:18:50.0000000+00:00</time></trkpt><trkpt lat="30.9173258" lon="35.6947959"><ele>795.6</ele><time>2015-11-22T10:18:52.0000000+00:00</time></trkpt><trkpt lat="30.917296" lon="35.6947536"><ele>796.7</ele><time>2015-11-22T10:18:54.0000000+00:00</time></trkpt><trkpt lat="30.9172572" lon="35.694704"><ele>795.6</ele><time>2015-11-22T10:18:57.0000000+00:00</time></trkpt><trkpt lat="30.9172211" lon="35.6946571"><ele>796.7</ele><time>2015-11-22T10:19:00.0000000+00:00</time></trkpt><trkpt lat="30.9171894" lon="35.6945971"><ele>797.7</ele><time>2015-11-22T10:19:03.0000000+00:00</time></trkpt><trkpt lat="30.9171474" lon="35.694535"><ele>797.8</ele><time>2015-11-22T10:19:06.0000000+00:00</time></trkpt><trkpt lat="30.9171179" lon="35.6944908"><ele>798.8</ele><time>2015-11-22T10:19:08.0000000+00:00</time></trkpt><trkpt lat="30.9170879" lon="35.6944473"><ele>799.0</ele><time>2015-11-22T10:19:10.0000000+00:00</time></trkpt><trkpt lat="30.9170538" lon="35.6944099"><ele>799.0</ele><time>2015-11-22T10:19:12.0000000+00:00</time></trkpt><trkpt lat="30.9170178" lon="35.6943726"><ele>800.1</ele><time>2015-11-22T10:19:14.0000000+00:00</time></trkpt><trkpt lat="30.916989" lon="35.6943288"><ele>799.6</ele><time>2015-11-22T10:19:16.0000000+00:00</time></trkpt><trkpt lat="30.9169622" lon="35.6942835"><ele>799.7</ele><time>2015-11-22T10:19:18.0000000+00:00</time></trkpt><trkpt lat="30.9169344" lon="35.6942357"><ele>799.5</ele><time>2015-11-22T10:19:20.0000000+00:00</time></trkpt><trkpt lat="30.9169073" lon="35.6941882"><ele>799.4</ele><time>2015-11-22T10:19:22.0000000+00:00</time></trkpt><trkpt lat="30.9168783" lon="35.6941451"><ele>799.4</ele><time>2015-11-22T10:19:24.0000000+00:00</time></trkpt><trkpt lat="30.9168441" lon="35.6941048"><ele>799.4</ele><time>2015-11-22T10:19:26.0000000+00:00</time></trkpt><trkpt lat="30.9168125" lon="35.6940595"><ele>798.4</ele><time>2015-11-22T10:19:28.0000000+00:00</time></trkpt><trkpt lat="30.9167872" lon="35.6940146"><ele>797.1</ele><time>2015-11-22T10:19:30.0000000+00:00</time></trkpt><trkpt lat="30.9167596" lon="35.6939693"><ele>795.8</ele><time>2015-11-22T10:19:32.0000000+00:00</time></trkpt><trkpt lat="30.9167277" lon="35.6939227"><ele>796.0</ele><time>2015-11-22T10:19:34.0000000+00:00</time></trkpt><trkpt lat="30.9166949" lon="35.6938743"><ele>797.6</ele><time>2015-11-22T10:19:36.0000000+00:00</time></trkpt><trkpt lat="30.9166625" lon="35.6938257"><ele>800.2</ele><time>2015-11-22T10:19:38.0000000+00:00</time></trkpt><trkpt lat="30.9166303" lon="35.6937796"><ele>801.6</ele><time>2015-11-22T10:19:40.0000000+00:00</time></trkpt><trkpt lat="30.9165989" lon="35.6937349"><ele>800.9</ele><time>2015-11-22T10:19:42.0000000+00:00</time></trkpt><trkpt lat="30.9165691" lon="35.693689"><ele>801.3</ele><time>2015-11-22T10:19:44.0000000+00:00</time></trkpt><trkpt lat="30.9165377" lon="35.6936424"><ele>801.9</ele><time>2015-11-22T10:19:46.0000000+00:00</time></trkpt><trkpt lat="30.9165043" lon="35.6935968"><ele>803.3</ele><time>2015-11-22T10:19:48.0000000+00:00</time></trkpt><trkpt lat="30.9164731" lon="35.6935527"><ele>805.1</ele><time>2015-11-22T10:19:50.0000000+00:00</time></trkpt><trkpt lat="30.9164418" lon="35.6935068"><ele>805.6</ele><time>2015-11-22T10:19:52.0000000+00:00</time></trkpt><trkpt lat="30.9164105" lon="35.6934598"><ele>803.4</ele><time>2015-11-22T10:19:54.0000000+00:00</time></trkpt><trkpt lat="30.916377" lon="35.6934132"><ele>799.9</ele><time>2015-11-22T10:19:56.0000000+00:00</time></trkpt><trkpt lat="30.916343" lon="35.6933665"><ele>799.5</ele><time>2015-11-22T10:19:58.0000000+00:00</time></trkpt><trkpt lat="30.9163111" lon="35.6933172"><ele>800.4</ele><time>2015-11-22T10:20:00.0000000+00:00</time></trkpt><trkpt lat="30.916279" lon="35.6932703"><ele>798.4</ele><time>2015-11-22T10:20:02.0000000+00:00</time></trkpt><trkpt lat="30.9162468" lon="35.6932229"><ele>798.9</ele><time>2015-11-22T10:20:04.0000000+00:00</time></trkpt><trkpt lat="30.9162161" lon="35.693175"><ele>800.5</ele><time>2015-11-22T10:20:06.0000000+00:00</time></trkpt><trkpt lat="30.9161841" lon="35.6931314"><ele>801.2</ele><time>2015-11-22T10:20:08.0000000+00:00</time></trkpt><trkpt lat="30.9161508" lon="35.6930891"><ele>801.3</ele><time>2015-11-22T10:20:10.0000000+00:00</time></trkpt><trkpt lat="30.9161169" lon="35.6930436"><ele>801.4</ele><time>2015-11-22T10:20:12.0000000+00:00</time></trkpt><trkpt lat="30.9160847" lon="35.6929996"><ele>800.6</ele><time>2015-11-22T10:20:14.0000000+00:00</time></trkpt><trkpt lat="30.9160511" lon="35.6929516"><ele>800.7</ele><time>2015-11-22T10:20:16.0000000+00:00</time></trkpt><trkpt lat="30.9160195" lon="35.6928956"><ele>799.2</ele><time>2015-11-22T10:20:18.0000000+00:00</time></trkpt><trkpt lat="30.9159884" lon="35.6928448"><ele>797.9</ele><time>2015-11-22T10:20:20.0000000+00:00</time></trkpt><trkpt lat="30.9159564" lon="35.692796"><ele>798.8</ele><time>2015-11-22T10:20:22.0000000+00:00</time></trkpt><trkpt lat="30.9159293" lon="35.6927416"><ele>797.5</ele><time>2015-11-22T10:20:24.0000000+00:00</time></trkpt><trkpt lat="30.9159007" lon="35.6926906"><ele>797.9</ele><time>2015-11-22T10:20:26.0000000+00:00</time></trkpt><trkpt lat="30.915871" lon="35.6926467"><ele>797.5</ele><time>2015-11-22T10:20:28.0000000+00:00</time></trkpt><trkpt lat="30.9158399" lon="35.6926051"><ele>798.2</ele><time>2015-11-22T10:20:30.0000000+00:00</time></trkpt><trkpt lat="30.9158087" lon="35.6925614"><ele>798.6</ele><time>2015-11-22T10:20:32.0000000+00:00</time></trkpt><trkpt lat="30.9157726" lon="35.692523"><ele>799.2</ele><time>2015-11-22T10:20:34.0000000+00:00</time></trkpt><trkpt lat="30.9157223" lon="35.6924894"><ele>799.9</ele><time>2015-11-22T10:20:37.0000000+00:00</time></trkpt><trkpt lat="30.9156822" lon="35.6924413"><ele>801.1</ele><time>2015-11-22T10:20:40.0000000+00:00</time></trkpt><trkpt lat="30.9156219" lon="35.6924328"><ele>800.6</ele><time>2015-11-22T10:20:44.0000000+00:00</time></trkpt><trkpt lat="30.9155715" lon="35.69241"><ele>800.7</ele><time>2015-11-22T10:20:47.0000000+00:00</time></trkpt><trkpt lat="30.9155151" lon="35.6923999"><ele>803.6</ele><time>2015-11-22T10:20:50.0000000+00:00</time></trkpt><trkpt lat="30.9154579" lon="35.6924076"><ele>801.3</ele><time>2015-11-22T10:20:53.0000000+00:00</time></trkpt><trkpt lat="30.9154052" lon="35.6924237"><ele>803.8</ele><time>2015-11-22T10:20:56.0000000+00:00</time></trkpt><trkpt lat="30.9153526" lon="35.6924422"><ele>808.4</ele><time>2015-11-22T10:20:59.0000000+00:00</time></trkpt><trkpt lat="30.9153029" lon="35.6924654"><ele>812.2</ele><time>2015-11-22T10:21:02.0000000+00:00</time></trkpt><trkpt lat="30.9152547" lon="35.6924822"><ele>813.2</ele><time>2015-11-22T10:21:05.0000000+00:00</time></trkpt><trkpt lat="30.9152071" lon="35.6925028"><ele>813.5</ele><time>2015-11-22T10:21:08.0000000+00:00</time></trkpt><trkpt lat="30.9151604" lon="35.6925244"><ele>811.9</ele><time>2015-11-22T10:21:11.0000000+00:00</time></trkpt><trkpt lat="30.915117" lon="35.6925526"><ele>810.7</ele><time>2015-11-22T10:21:14.0000000+00:00</time></trkpt><trkpt lat="30.9150669" lon="35.6925732"><ele>809.7</ele><time>2015-11-22T10:21:17.0000000+00:00</time></trkpt><trkpt lat="30.9150226" lon="35.6925872"><ele>808.7</ele><time>2015-11-22T10:21:20.0000000+00:00</time></trkpt><trkpt lat="30.9149764" lon="35.6925998"><ele>811.9</ele><time>2015-11-22T10:21:23.0000000+00:00</time></trkpt><trkpt lat="30.9149212" lon="35.6926285"><ele>810.5</ele><time>2015-11-22T10:21:27.0000000+00:00</time></trkpt><trkpt lat="30.9148804" lon="35.6926539"><ele>810.2</ele><time>2015-11-22T10:21:30.0000000+00:00</time></trkpt><trkpt lat="30.9148284" lon="35.6926704"><ele>808.5</ele><time>2015-11-22T10:21:34.0000000+00:00</time></trkpt><trkpt lat="30.914772" lon="35.6926836"><ele>808.2</ele><time>2015-11-22T10:21:38.0000000+00:00</time></trkpt><trkpt lat="30.9147154" lon="35.6927053"><ele>809.0</ele><time>2015-11-22T10:21:42.0000000+00:00</time></trkpt><trkpt lat="30.9146714" lon="35.6927198"><ele>807.0</ele><time>2015-11-22T10:21:45.0000000+00:00</time></trkpt><trkpt lat="30.9146286" lon="35.6927377"><ele>809.3</ele><time>2015-11-22T10:21:48.0000000+00:00</time></trkpt><trkpt lat="30.9145835" lon="35.6927543"><ele>812.0</ele><time>2015-11-22T10:21:51.0000000+00:00</time></trkpt><trkpt lat="30.9145384" lon="35.6927778"><ele>811.7</ele><time>2015-11-22T10:21:54.0000000+00:00</time></trkpt><trkpt lat="30.9144877" lon="35.6928112"><ele>811.9</ele><time>2015-11-22T10:21:58.0000000+00:00</time></trkpt><trkpt lat="30.91444" lon="35.6928406"><ele>813.8</ele><time>2015-11-22T10:22:02.0000000+00:00</time></trkpt><trkpt lat="30.9143884" lon="35.6928605"><ele>813.2</ele><time>2015-11-22T10:22:06.0000000+00:00</time></trkpt><trkpt lat="30.9143345" lon="35.692884"><ele>813.0</ele><time>2015-11-22T10:22:10.0000000+00:00</time></trkpt><trkpt lat="30.914292" lon="35.6929024"><ele>815.1</ele><time>2015-11-22T10:22:13.0000000+00:00</time></trkpt><trkpt lat="30.9142502" lon="35.6929229"><ele>816.6</ele><time>2015-11-22T10:22:16.0000000+00:00</time></trkpt><trkpt lat="30.9142034" lon="35.6929502"><ele>815.2</ele><time>2015-11-22T10:22:20.0000000+00:00</time></trkpt><trkpt lat="30.9141588" lon="35.6929806"><ele>818.4</ele><time>2015-11-22T10:22:24.0000000+00:00</time></trkpt><trkpt lat="30.9141099" lon="35.6930038"><ele>819.1</ele><time>2015-11-22T10:22:28.0000000+00:00</time></trkpt><trkpt lat="30.9140564" lon="35.6930155"><ele>819.8</ele><time>2015-11-22T10:22:32.0000000+00:00</time></trkpt><trkpt lat="30.9140037" lon="35.6930364"><ele>817.3</ele><time>2015-11-22T10:22:36.0000000+00:00</time></trkpt><trkpt lat="30.9139601" lon="35.693053"><ele>816.9</ele><time>2015-11-22T10:22:39.0000000+00:00</time></trkpt><trkpt lat="30.913916" lon="35.6930696"><ele>819.0</ele><time>2015-11-22T10:22:42.0000000+00:00</time></trkpt><trkpt lat="30.9138736" lon="35.6930881"><ele>814.1</ele><time>2015-11-22T10:22:45.0000000+00:00</time></trkpt><trkpt lat="30.9138329" lon="35.6931105"><ele>814.7</ele><time>2015-11-22T10:22:48.0000000+00:00</time></trkpt><trkpt lat="30.9137833" lon="35.693144"><ele>819.9</ele><time>2015-11-22T10:22:52.0000000+00:00</time></trkpt><trkpt lat="30.9137322" lon="35.6931663"><ele>822.4</ele><time>2015-11-22T10:22:56.0000000+00:00</time></trkpt><trkpt lat="30.913688" lon="35.6931807"><ele>823.5</ele><time>2015-11-22T10:22:59.0000000+00:00</time></trkpt><trkpt lat="30.9136445" lon="35.6931956"><ele>821.8</ele><time>2015-11-22T10:23:02.0000000+00:00</time></trkpt><trkpt lat="30.9136012" lon="35.6932103"><ele>821.8</ele><time>2015-11-22T10:23:05.0000000+00:00</time></trkpt><trkpt lat="30.9135491" lon="35.6932244"><ele>819.2</ele><time>2015-11-22T10:23:08.0000000+00:00</time></trkpt><trkpt lat="30.9134997" lon="35.6932301"><ele>815.2</ele><time>2015-11-22T10:23:11.0000000+00:00</time></trkpt><trkpt lat="30.9134411" lon="35.6932449"><ele>812.4</ele><time>2015-11-22T10:23:15.0000000+00:00</time></trkpt><trkpt lat="30.913395" lon="35.6932501"><ele>813.6</ele><time>2015-11-22T10:23:18.0000000+00:00</time></trkpt><trkpt lat="30.9133487" lon="35.6932573"><ele>813.9</ele><time>2015-11-22T10:23:21.0000000+00:00</time></trkpt><trkpt lat="30.9132892" lon="35.6932625"><ele>812.5</ele><time>2015-11-22T10:23:25.0000000+00:00</time></trkpt><trkpt lat="30.9132391" lon="35.6932629"><ele>812.4</ele><time>2015-11-22T10:23:28.0000000+00:00</time></trkpt><trkpt lat="30.9131866" lon="35.6932555"><ele>813.0</ele><time>2015-11-22T10:23:32.0000000+00:00</time></trkpt><trkpt lat="30.9131291" lon="35.6932568"><ele>814.1</ele><time>2015-11-22T10:23:36.0000000+00:00</time></trkpt><trkpt lat="30.9130774" lon="35.6932558"><ele>809.9</ele><time>2015-11-22T10:23:40.0000000+00:00</time></trkpt><trkpt lat="30.9130305" lon="35.6932589"><ele>808.1</ele><time>2015-11-22T10:23:43.0000000+00:00</time></trkpt><trkpt lat="30.9129769" lon="35.6932501"><ele>807.6</ele><time>2015-11-22T10:23:46.0000000+00:00</time></trkpt><trkpt lat="30.9129321" lon="35.6932388"><ele>810.0</ele><time>2015-11-22T10:23:48.0000000+00:00</time></trkpt><trkpt lat="30.9128676" lon="35.6932285"><ele>809.2</ele><time>2015-11-22T10:23:51.0000000+00:00</time></trkpt><trkpt lat="30.9128118" lon="35.6932179"><ele>811.0</ele><time>2015-11-22T10:23:54.0000000+00:00</time></trkpt><trkpt lat="30.9127572" lon="35.6932104"><ele>809.5</ele><time>2015-11-22T10:23:57.0000000+00:00</time></trkpt><trkpt lat="30.9127048" lon="35.6931924"><ele>809.7</ele><time>2015-11-22T10:24:00.0000000+00:00</time></trkpt><trkpt lat="30.9126452" lon="35.6931631"><ele>822.4</ele><time>2015-11-22T10:24:03.0000000+00:00</time></trkpt><trkpt lat="30.9125912" lon="35.6931315"><ele>825.7</ele><time>2015-11-22T10:24:06.0000000+00:00</time></trkpt><trkpt lat="30.9125391" lon="35.693102"><ele>823.4</ele><time>2015-11-22T10:24:09.0000000+00:00</time></trkpt><trkpt lat="30.9124867" lon="35.6930723"><ele>819.2</ele><time>2015-11-22T10:24:12.0000000+00:00</time></trkpt><trkpt lat="30.9124373" lon="35.6930464"><ele>818.5</ele><time>2015-11-22T10:24:15.0000000+00:00</time></trkpt><trkpt lat="30.9123953" lon="35.6930206"><ele>810.7</ele><time>2015-11-22T10:24:18.0000000+00:00</time></trkpt><trkpt lat="30.9123532" lon="35.692992"><ele>805.6</ele><time>2015-11-22T10:24:22.0000000+00:00</time></trkpt><trkpt lat="30.9123075" lon="35.6929706"><ele>805.5</ele><time>2015-11-22T10:24:26.0000000+00:00</time></trkpt><trkpt lat="30.9122625" lon="35.6929434"><ele>814.3</ele><time>2015-11-22T10:24:29.0000000+00:00</time></trkpt><trkpt lat="30.912219" lon="35.6929172"><ele>834.3</ele><time>2015-11-22T10:24:32.0000000+00:00</time></trkpt><trkpt lat="30.9121814" lon="35.6928864"><ele>851.5</ele><time>2015-11-22T10:24:35.0000000+00:00</time></trkpt><trkpt lat="30.9121313" lon="35.6928409"><ele>856.5</ele><time>2015-11-22T10:24:38.0000000+00:00</time></trkpt><trkpt lat="30.9120897" lon="35.692802"><ele>858.0</ele><time>2015-11-22T10:24:41.0000000+00:00</time></trkpt><trkpt lat="30.9120442" lon="35.6927638"><ele>858.9</ele><time>2015-11-22T10:24:44.0000000+00:00</time></trkpt><trkpt lat="30.912" lon="35.6927276"><ele>859.3</ele><time>2015-11-22T10:24:46.0000000+00:00</time></trkpt><trkpt lat="30.9119566" lon="35.6926924"><ele>859.4</ele><time>2015-11-22T10:24:48.0000000+00:00</time></trkpt><trkpt lat="30.9119197" lon="35.6926577"><ele>859.4</ele><time>2015-11-22T10:24:50.0000000+00:00</time></trkpt><trkpt lat="30.9118718" lon="35.69262"><ele>858.9</ele><time>2015-11-22T10:24:53.0000000+00:00</time></trkpt><trkpt lat="30.9118187" lon="35.6925756"><ele>859.3</ele><time>2015-11-22T10:24:56.0000000+00:00</time></trkpt><trkpt lat="30.9117705" lon="35.6925293"><ele>858.6</ele><time>2015-11-22T10:24:58.0000000+00:00</time></trkpt><trkpt lat="30.9117249" lon="35.6924883"><ele>858.5</ele><time>2015-11-22T10:25:00.0000000+00:00</time></trkpt><trkpt lat="30.9116831" lon="35.6924538"><ele>858.4</ele><time>2015-11-22T10:25:02.0000000+00:00</time></trkpt><trkpt lat="30.9116272" lon="35.6924035"><ele>858.4</ele><time>2015-11-22T10:25:05.0000000+00:00</time></trkpt><trkpt lat="30.9115844" lon="35.6923622"><ele>858.4</ele><time>2015-11-22T10:25:07.0000000+00:00</time></trkpt><trkpt lat="30.9115426" lon="35.692319"><ele>857.6</ele><time>2015-11-22T10:25:09.0000000+00:00</time></trkpt><trkpt lat="30.9115029" lon="35.6922816"><ele>857.5</ele><time>2015-11-22T10:25:11.0000000+00:00</time></trkpt><trkpt lat="30.9114589" lon="35.692233"><ele>857.4</ele><time>2015-11-22T10:25:14.0000000+00:00</time></trkpt><trkpt lat="30.9114176" lon="35.6921943"><ele>857.7</ele><time>2015-11-22T10:25:16.0000000+00:00</time></trkpt><trkpt lat="30.911376" lon="35.6921546"><ele>857.5</ele><time>2015-11-22T10:25:18.0000000+00:00</time></trkpt><trkpt lat="30.9113382" lon="35.6921187"><ele>857.4</ele><time>2015-11-22T10:25:20.0000000+00:00</time></trkpt><trkpt lat="30.9112991" lon="35.6920871"><ele>857.4</ele><time>2015-11-22T10:25:22.0000000+00:00</time></trkpt><trkpt lat="30.911247" lon="35.6920415"><ele>857.4</ele><time>2015-11-22T10:25:25.0000000+00:00</time></trkpt><trkpt lat="30.9111942" lon="35.6919952"><ele>857.1</ele><time>2015-11-22T10:25:28.0000000+00:00</time></trkpt><trkpt lat="30.9111452" lon="35.691955"><ele>857.9</ele><time>2015-11-22T10:25:31.0000000+00:00</time></trkpt><trkpt lat="30.9110977" lon="35.6919131"><ele>858.2</ele><time>2015-11-22T10:25:34.0000000+00:00</time></trkpt><trkpt lat="30.9110612" lon="35.6918799"><ele>858.3</ele><time>2015-11-22T10:25:36.0000000+00:00</time></trkpt><trkpt lat="30.9110156" lon="35.691844"><ele>858.9</ele><time>2015-11-22T10:25:38.0000000+00:00</time></trkpt><trkpt lat="30.9109669" lon="35.6918047"><ele>859.3</ele><time>2015-11-22T10:25:40.0000000+00:00</time></trkpt><trkpt lat="30.9109209" lon="35.6917686"><ele>859.4</ele><time>2015-11-22T10:25:42.0000000+00:00</time></trkpt><trkpt lat="30.9108825" lon="35.6917405"><ele>859.4</ele><time>2015-11-22T10:25:44.0000000+00:00</time></trkpt><trkpt lat="30.9108436" lon="35.6917124"><ele>860.1</ele><time>2015-11-22T10:25:46.0000000+00:00</time></trkpt><trkpt lat="30.9108013" lon="35.6916782"><ele>860.3</ele><time>2015-11-22T10:25:48.0000000+00:00</time></trkpt><trkpt lat="30.9107555" lon="35.6916412"><ele>860.4</ele><time>2015-11-22T10:25:50.0000000+00:00</time></trkpt><trkpt lat="30.910706" lon="35.6916105"><ele>861.1</ele><time>2015-11-22T10:25:52.0000000+00:00</time></trkpt><trkpt lat="30.9106643" lon="35.6915816"><ele>861.3</ele><time>2015-11-22T10:25:54.0000000+00:00</time></trkpt><trkpt lat="30.9106072" lon="35.6915504"><ele>860.9</ele><time>2015-11-22T10:25:57.0000000+00:00</time></trkpt><trkpt lat="30.9105618" lon="35.6915275"><ele>860.5</ele><time>2015-11-22T10:25:59.0000000+00:00</time></trkpt><trkpt lat="30.9105121" lon="35.6914996"><ele>860.2</ele><time>2015-11-22T10:26:01.0000000+00:00</time></trkpt><trkpt lat="30.9104606" lon="35.6914696"><ele>860.3</ele><time>2015-11-22T10:26:03.0000000+00:00</time></trkpt><trkpt lat="30.9104151" lon="35.6914413"><ele>860.1</ele><time>2015-11-22T10:26:05.0000000+00:00</time></trkpt><trkpt lat="30.9103712" lon="35.6914196"><ele>859.6</ele><time>2015-11-22T10:26:07.0000000+00:00</time></trkpt><trkpt lat="30.9103257" lon="35.6914002"><ele>859.4</ele><time>2015-11-22T10:26:09.0000000+00:00</time></trkpt><trkpt lat="30.9102794" lon="35.69138"><ele>859.4</ele><time>2015-11-22T10:26:11.0000000+00:00</time></trkpt><trkpt lat="30.9102302" lon="35.6913625"><ele>859.7</ele><time>2015-11-22T10:26:13.0000000+00:00</time></trkpt><trkpt lat="30.9101817" lon="35.691346"><ele>859.0</ele><time>2015-11-22T10:26:15.0000000+00:00</time></trkpt><trkpt lat="30.9101331" lon="35.6913311"><ele>858.5</ele><time>2015-11-22T10:26:17.0000000+00:00</time></trkpt><trkpt lat="30.9100854" lon="35.691317"><ele>858.4</ele><time>2015-11-22T10:26:19.0000000+00:00</time></trkpt><trkpt lat="30.9100333" lon="35.6913084"><ele>858.4</ele><time>2015-11-22T10:26:22.0000000+00:00</time></trkpt><trkpt lat="30.9099825" lon="35.6912883"><ele>858.8</ele><time>2015-11-22T10:26:25.0000000+00:00</time></trkpt><trkpt lat="30.9099189" lon="35.6912706"><ele>859.8</ele><time>2015-11-22T10:26:28.0000000+00:00</time></trkpt><trkpt lat="30.9098724" lon="35.6912589"><ele>861.0</ele><time>2015-11-22T10:26:30.0000000+00:00</time></trkpt><trkpt lat="30.9098245" lon="35.6912456"><ele>860.8</ele><time>2015-11-22T10:26:32.0000000+00:00</time></trkpt><trkpt lat="30.9097758" lon="35.6912301"><ele>861.0</ele><time>2015-11-22T10:26:34.0000000+00:00</time></trkpt><trkpt lat="30.9097256" lon="35.6912126"><ele>861.5</ele><time>2015-11-22T10:26:36.0000000+00:00</time></trkpt><trkpt lat="30.9096721" lon="35.6911963"><ele>862.2</ele><time>2015-11-22T10:26:38.0000000+00:00</time></trkpt><trkpt lat="30.9096184" lon="35.6911773"><ele>861.8</ele><time>2015-11-22T10:26:40.0000000+00:00</time></trkpt><trkpt lat="30.9095658" lon="35.6911552"><ele>861.3</ele><time>2015-11-22T10:26:42.0000000+00:00</time></trkpt><trkpt lat="30.9095148" lon="35.6911387"><ele>861.1</ele><time>2015-11-22T10:26:44.0000000+00:00</time></trkpt><trkpt lat="30.9094615" lon="35.6911273"><ele>861.8</ele><time>2015-11-22T10:26:46.0000000+00:00</time></trkpt><trkpt lat="30.9094086" lon="35.6911141"><ele>862.0</ele><time>2015-11-22T10:26:48.0000000+00:00</time></trkpt><trkpt lat="30.9093499" lon="35.6910989"><ele>863.3</ele><time>2015-11-22T10:26:50.0000000+00:00</time></trkpt><trkpt lat="30.9092945" lon="35.6910862"><ele>865.4</ele><time>2015-11-22T10:26:52.0000000+00:00</time></trkpt><trkpt lat="30.9092405" lon="35.691075"><ele>866.6</ele><time>2015-11-22T10:26:54.0000000+00:00</time></trkpt><trkpt lat="30.9091882" lon="35.6910682"><ele>866.7</ele><time>2015-11-22T10:26:56.0000000+00:00</time></trkpt><trkpt lat="30.9091379" lon="35.6910551"><ele>866.2</ele><time>2015-11-22T10:26:58.0000000+00:00</time></trkpt><trkpt lat="30.9090862" lon="35.6910398"><ele>866.4</ele><time>2015-11-22T10:27:00.0000000+00:00</time></trkpt><trkpt lat="30.9090324" lon="35.6910247"><ele>867.1</ele><time>2015-11-22T10:27:02.0000000+00:00</time></trkpt><trkpt lat="30.9089794" lon="35.691009"><ele>868.1</ele><time>2015-11-22T10:27:04.0000000+00:00</time></trkpt><trkpt lat="30.908925" lon="35.6909947"><ele>867.1</ele><time>2015-11-22T10:27:06.0000000+00:00</time></trkpt><trkpt lat="30.9088701" lon="35.6909827"><ele>867.8</ele><time>2015-11-22T10:27:08.0000000+00:00</time></trkpt><trkpt lat="30.9088135" lon="35.6909664"><ele>869.5</ele><time>2015-11-22T10:27:10.0000000+00:00</time></trkpt><trkpt lat="30.9087572" lon="35.690949"><ele>871.4</ele><time>2015-11-22T10:27:12.0000000+00:00</time></trkpt><trkpt lat="30.9087017" lon="35.6909324"><ele>872.2</ele><time>2015-11-22T10:27:14.0000000+00:00</time></trkpt><trkpt lat="30.9086533" lon="35.6909211"><ele>871.6</ele><time>2015-11-22T10:27:16.0000000+00:00</time></trkpt><trkpt lat="30.9085882" lon="35.6909005"><ele>870.5</ele><time>2015-11-22T10:27:19.0000000+00:00</time></trkpt><trkpt lat="30.9085417" lon="35.6908862"><ele>870.4</ele><time>2015-11-22T10:27:21.0000000+00:00</time></trkpt><trkpt lat="30.9084968" lon="35.690864"><ele>869.7</ele><time>2015-11-22T10:27:23.0000000+00:00</time></trkpt><trkpt lat="30.9084484" lon="35.6908456"><ele>870.2</ele><time>2015-11-22T10:27:25.0000000+00:00</time></trkpt><trkpt lat="30.9083994" lon="35.6908297"><ele>869.9</ele><time>2015-11-22T10:27:27.0000000+00:00</time></trkpt><trkpt lat="30.9083506" lon="35.6908123"><ele>869.3</ele><time>2015-11-22T10:27:29.0000000+00:00</time></trkpt><trkpt lat="30.9083001" lon="35.6907988"><ele>869.4</ele><time>2015-11-22T10:27:31.0000000+00:00</time></trkpt><trkpt lat="30.9082456" lon="35.6907883"><ele>869.4</ele><time>2015-11-22T10:27:33.0000000+00:00</time></trkpt><trkpt lat="30.9081918" lon="35.6907758"><ele>869.9</ele><time>2015-11-22T10:27:35.0000000+00:00</time></trkpt><trkpt lat="30.9081407" lon="35.6907582"><ele>870.3</ele><time>2015-11-22T10:27:37.0000000+00:00</time></trkpt><trkpt lat="30.908091" lon="35.6907423"><ele>871.4</ele><time>2015-11-22T10:27:39.0000000+00:00</time></trkpt><trkpt lat="30.9080439" lon="35.6907269"><ele>871.9</ele><time>2015-11-22T10:27:41.0000000+00:00</time></trkpt><trkpt lat="30.9079812" lon="35.6907099"><ele>870.8</ele><time>2015-11-22T10:27:44.0000000+00:00</time></trkpt><trkpt lat="30.9079204" lon="35.6906988"><ele>872.1</ele><time>2015-11-22T10:27:47.0000000+00:00</time></trkpt><trkpt lat="30.9078556" lon="35.6906846"><ele>871.9</ele><time>2015-11-22T10:27:50.0000000+00:00</time></trkpt><trkpt lat="30.9077893" lon="35.6906654"><ele>871.2</ele><time>2015-11-22T10:27:53.0000000+00:00</time></trkpt><trkpt lat="30.9077405" lon="35.6906536"><ele>871.9</ele><time>2015-11-22T10:27:55.0000000+00:00</time></trkpt><trkpt lat="30.9076904" lon="35.6906478"><ele>873.5</ele><time>2015-11-22T10:27:57.0000000+00:00</time></trkpt><trkpt lat="30.9076415" lon="35.690635"><ele>874.4</ele><time>2015-11-22T10:27:59.0000000+00:00</time></trkpt><trkpt lat="30.9075917" lon="35.6906225"><ele>875.2</ele><time>2015-11-22T10:28:01.0000000+00:00</time></trkpt><trkpt lat="30.9075432" lon="35.6906157"><ele>874.1</ele><time>2015-11-22T10:28:03.0000000+00:00</time></trkpt><trkpt lat="30.9074792" lon="35.6906142"><ele>874.6</ele><time>2015-11-22T10:28:06.0000000+00:00</time></trkpt><trkpt lat="30.9074183" lon="35.6905982"><ele>876.2</ele><time>2015-11-22T10:28:09.0000000+00:00</time></trkpt><trkpt lat="30.9073714" lon="35.6905944"><ele>877.6</ele><time>2015-11-22T10:28:11.0000000+00:00</time></trkpt><trkpt lat="30.9073077" lon="35.690591"><ele>878.8</ele><time>2015-11-22T10:28:14.0000000+00:00</time></trkpt><trkpt lat="30.9072489" lon="35.6905946"><ele>879.8</ele><time>2015-11-22T10:28:17.0000000+00:00</time></trkpt><trkpt lat="30.907188" lon="35.690586"><ele>880.8</ele><time>2015-11-22T10:28:20.0000000+00:00</time></trkpt><trkpt lat="30.9071227" lon="35.6905738"><ele>882.3</ele><time>2015-11-22T10:28:23.0000000+00:00</time></trkpt><trkpt lat="30.9070777" lon="35.6905675"><ele>883.6</ele><time>2015-11-22T10:28:25.0000000+00:00</time></trkpt><trkpt lat="30.9070311" lon="35.6905633"><ele>884.0</ele><time>2015-11-22T10:28:27.0000000+00:00</time></trkpt><trkpt lat="30.9069843" lon="35.6905578"><ele>885.5</ele><time>2015-11-22T10:28:29.0000000+00:00</time></trkpt><trkpt lat="30.9069364" lon="35.6905487"><ele>885.2</ele><time>2015-11-22T10:28:31.0000000+00:00</time></trkpt><trkpt lat="30.9068892" lon="35.6905349"><ele>885.1</ele><time>2015-11-22T10:28:33.0000000+00:00</time></trkpt><trkpt lat="30.906846" lon="35.6905173"><ele>885.3</ele><time>2015-11-22T10:28:35.0000000+00:00</time></trkpt><trkpt lat="30.9067853" lon="35.6904905"><ele>885.0</ele><time>2015-11-22T10:28:38.0000000+00:00</time></trkpt><trkpt lat="30.906726" lon="35.6904718"><ele>883.4</ele><time>2015-11-22T10:28:41.0000000+00:00</time></trkpt><trkpt lat="30.9066618" lon="35.6904799"><ele>885.5</ele><time>2015-11-22T10:28:44.0000000+00:00</time></trkpt><trkpt lat="30.9065998" lon="35.6904581"><ele>885.8</ele><time>2015-11-22T10:28:47.0000000+00:00</time></trkpt><trkpt lat="30.9066065" lon="35.6904036"><ele>871.4</ele><time>2015-11-22T10:45:50.0000000+00:00</time></trkpt><trkpt lat="30.9065795" lon="35.6903571"><ele>871.3</ele><time>2015-11-22T10:45:55.0000000+00:00</time></trkpt><trkpt lat="30.90658" lon="35.6902977"><ele>876.4</ele><time>2015-11-22T10:47:25.0000000+00:00</time></trkpt><trkpt lat="30.9065522" lon="35.6902565"><ele>881.3</ele><time>2015-11-22T10:47:38.0000000+00:00</time></trkpt><trkpt lat="30.9065213" lon="35.6902114"><ele>883.1</ele><time>2015-11-22T10:47:42.0000000+00:00</time></trkpt><trkpt lat="30.9064903" lon="35.6901644"><ele>885.2</ele><time>2015-11-22T10:47:46.0000000+00:00</time></trkpt><trkpt lat="30.9064593" lon="35.6901154"><ele>888.1</ele><time>2015-11-22T10:47:50.0000000+00:00</time></trkpt><trkpt lat="30.9064236" lon="35.6900786"><ele>891.1</ele><time>2015-11-22T10:47:53.0000000+00:00</time></trkpt><trkpt lat="30.9063934" lon="35.6900386"><ele>891.4</ele><time>2015-11-22T10:47:56.0000000+00:00</time></trkpt><trkpt lat="30.9063638" lon="35.6899991"><ele>892.1</ele><time>2015-11-22T10:47:59.0000000+00:00</time></trkpt><trkpt lat="30.9063222" lon="35.689959"><ele>892.0</ele><time>2015-11-22T10:48:03.0000000+00:00</time></trkpt><trkpt lat="30.9062816" lon="35.6899222"><ele>887.6</ele><time>2015-11-22T10:48:07.0000000+00:00</time></trkpt><trkpt lat="30.906237" lon="35.6898862"><ele>884.2</ele><time>2015-11-22T10:48:11.0000000+00:00</time></trkpt><trkpt lat="30.9061844" lon="35.6898626"><ele>883.8</ele><time>2015-11-22T10:48:15.0000000+00:00</time></trkpt><trkpt lat="30.9061299" lon="35.6898556"><ele>886.0</ele><time>2015-11-22T10:48:19.0000000+00:00</time></trkpt><trkpt lat="30.9060734" lon="35.6898394"><ele>887.8</ele><time>2015-11-22T10:48:23.0000000+00:00</time></trkpt><trkpt lat="30.906028" lon="35.6898327"><ele>887.6</ele><time>2015-11-22T10:48:26.0000000+00:00</time></trkpt><trkpt lat="30.9059813" lon="35.689833"><ele>888.2</ele><time>2015-11-22T10:48:29.0000000+00:00</time></trkpt><trkpt lat="30.9059252" lon="35.6898308"><ele>887.0</ele><time>2015-11-22T10:48:32.0000000+00:00</time></trkpt><trkpt lat="30.9058723" lon="35.689822"><ele>887.7</ele><time>2015-11-22T10:48:35.0000000+00:00</time></trkpt><trkpt lat="30.9058196" lon="35.6898134"><ele>890.2</ele><time>2015-11-22T10:48:38.0000000+00:00</time></trkpt><trkpt lat="30.9057701" lon="35.6898086"><ele>878.0</ele><time>2015-11-22T10:48:41.0000000+00:00</time></trkpt><trkpt lat="30.905725" lon="35.689807"><ele>878.1</ele><time>2015-11-22T10:48:44.0000000+00:00</time></trkpt><trkpt lat="30.9056706" lon="35.6898005"><ele>879.4</ele><time>2015-11-22T10:48:48.0000000+00:00</time></trkpt><trkpt lat="30.905624" lon="35.6897864"><ele>876.9</ele><time>2015-11-22T10:48:54.0000000+00:00</time></trkpt><trkpt lat="30.9055711" lon="35.6897754"><ele>876.9</ele><time>2015-11-22T10:48:58.0000000+00:00</time></trkpt><trkpt lat="30.9055142" lon="35.6897623"><ele>876.4</ele><time>2015-11-22T10:49:02.0000000+00:00</time></trkpt><trkpt lat="30.9054588" lon="35.6897506"><ele>876.2</ele><time>2015-11-22T10:49:06.0000000+00:00</time></trkpt><trkpt lat="30.9054122" lon="35.6897491"><ele>877.1</ele><time>2015-11-22T10:49:09.0000000+00:00</time></trkpt><trkpt lat="30.9053636" lon="35.6897503"><ele>879.0</ele><time>2015-11-22T10:49:12.0000000+00:00</time></trkpt><trkpt lat="30.9053145" lon="35.689751"><ele>879.1</ele><time>2015-11-22T10:49:15.0000000+00:00</time></trkpt><trkpt lat="30.9052615" lon="35.6897375"><ele>878.8</ele><time>2015-11-22T10:49:19.0000000+00:00</time></trkpt><trkpt lat="30.9052061" lon="35.6897234"><ele>876.8</ele><time>2015-11-22T10:49:23.0000000+00:00</time></trkpt><trkpt lat="30.9051609" lon="35.689711"><ele>876.1</ele><time>2015-11-22T10:49:26.0000000+00:00</time></trkpt><trkpt lat="30.9051168" lon="35.6896944"><ele>876.4</ele><time>2015-11-22T10:49:29.0000000+00:00</time></trkpt><trkpt lat="30.9050642" lon="35.6896633"><ele>875.5</ele><time>2015-11-22T10:49:33.0000000+00:00</time></trkpt><trkpt lat="30.9050245" lon="35.6896351"><ele>875.8</ele><time>2015-11-22T10:49:36.0000000+00:00</time></trkpt><trkpt lat="30.9049764" lon="35.6895976"><ele>876.9</ele><time>2015-11-22T10:49:40.0000000+00:00</time></trkpt><trkpt lat="30.9049469" lon="35.689556"><ele>877.8</ele><time>2015-11-22T10:49:43.0000000+00:00</time></trkpt><trkpt lat="30.9049086" lon="35.6895031"><ele>879.6</ele><time>2015-11-22T10:49:47.0000000+00:00</time></trkpt><trkpt lat="30.9048757" lon="35.6894491"><ele>878.5</ele><time>2015-11-22T10:49:51.0000000+00:00</time></trkpt><trkpt lat="30.9048455" lon="35.6894086"><ele>878.4</ele><time>2015-11-22T10:49:54.0000000+00:00</time></trkpt><trkpt lat="30.9048224" lon="35.6893572"><ele>877.3</ele><time>2015-11-22T10:49:57.0000000+00:00</time></trkpt><trkpt lat="30.9047979" lon="35.6893025"><ele>878.1</ele><time>2015-11-22T10:50:00.0000000+00:00</time></trkpt><trkpt lat="30.9047711" lon="35.6892451"><ele>881.2</ele><time>2015-11-22T10:50:03.0000000+00:00</time></trkpt><trkpt lat="30.9047453" lon="35.6891838"><ele>881.8</ele><time>2015-11-22T10:50:06.0000000+00:00</time></trkpt><trkpt lat="30.9047164" lon="35.6891179"><ele>883.1</ele><time>2015-11-22T10:50:09.0000000+00:00</time></trkpt><trkpt lat="30.9046875" lon="35.6890678"><ele>882.6</ele><time>2015-11-22T10:50:11.0000000+00:00</time></trkpt><trkpt lat="30.9046539" lon="35.6890143"><ele>880.9</ele><time>2015-11-22T10:50:13.0000000+00:00</time></trkpt><trkpt lat="30.9046234" lon="35.6889596"><ele>880.0</ele><time>2015-11-22T10:50:15.0000000+00:00</time></trkpt><trkpt lat="30.9045884" lon="35.6889079"><ele>882.1</ele><time>2015-11-22T10:50:17.0000000+00:00</time></trkpt><trkpt lat="30.9045445" lon="35.6888638"><ele>882.1</ele><time>2015-11-22T10:50:19.0000000+00:00</time></trkpt><trkpt lat="30.9044989" lon="35.6888272"><ele>883.6</ele><time>2015-11-22T10:50:21.0000000+00:00</time></trkpt><trkpt lat="30.9044484" lon="35.6887986"><ele>891.2</ele><time>2015-11-22T10:50:23.0000000+00:00</time></trkpt><trkpt lat="30.9043976" lon="35.6887694"><ele>898.1</ele><time>2015-11-22T10:50:25.0000000+00:00</time></trkpt><trkpt lat="30.9043457" lon="35.6887492"><ele>902.3</ele><time>2015-11-22T10:50:27.0000000+00:00</time></trkpt><trkpt lat="30.9042936" lon="35.6887373"><ele>905.1</ele><time>2015-11-22T10:50:29.0000000+00:00</time></trkpt><trkpt lat="30.9042422" lon="35.6887334"><ele>906.1</ele><time>2015-11-22T10:50:31.0000000+00:00</time></trkpt><trkpt lat="30.9041933" lon="35.6887323"><ele>906.3</ele><time>2015-11-22T10:50:33.0000000+00:00</time></trkpt><trkpt lat="30.9041371" lon="35.6887354"><ele>906.4</ele><time>2015-11-22T10:50:36.0000000+00:00</time></trkpt><trkpt lat="30.9040884" lon="35.6887375"><ele>906.4</ele><time>2015-11-22T10:50:39.0000000+00:00</time></trkpt><trkpt lat="30.9040351" lon="35.6887468"><ele>905.5</ele><time>2015-11-22T10:50:43.0000000+00:00</time></trkpt><trkpt lat="30.9039916" lon="35.6887604"><ele>905.4</ele><time>2015-11-22T10:50:46.0000000+00:00</time></trkpt><trkpt lat="30.903946" lon="35.6887721"><ele>905.4</ele><time>2015-11-22T10:50:49.0000000+00:00</time></trkpt><trkpt lat="30.9039002" lon="35.68879"><ele>905.4</ele><time>2015-11-22T10:50:52.0000000+00:00</time></trkpt><trkpt lat="30.9038537" lon="35.6888115"><ele>905.9</ele><time>2015-11-22T10:50:55.0000000+00:00</time></trkpt><trkpt lat="30.9038075" lon="35.6888365"><ele>906.3</ele><time>2015-11-22T10:50:58.0000000+00:00</time></trkpt><trkpt lat="30.9037624" lon="35.6888605"><ele>906.4</ele><time>2015-11-22T10:51:01.0000000+00:00</time></trkpt><trkpt lat="30.9037171" lon="35.6888857"><ele>905.6</ele><time>2015-11-22T10:51:04.0000000+00:00</time></trkpt><trkpt lat="30.9036696" lon="35.6889099"><ele>907.2</ele><time>2015-11-22T10:51:07.0000000+00:00</time></trkpt><trkpt lat="30.9036216" lon="35.6889319"><ele>909.0</ele><time>2015-11-22T10:51:10.0000000+00:00</time></trkpt><trkpt lat="30.9035742" lon="35.6889547"><ele>910.2</ele><time>2015-11-22T10:51:13.0000000+00:00</time></trkpt><trkpt lat="30.9035243" lon="35.6889726"><ele>912.0</ele><time>2015-11-22T10:51:16.0000000+00:00</time></trkpt><trkpt lat="30.9034765" lon="35.6889979"><ele>912.8</ele><time>2015-11-22T10:51:19.0000000+00:00</time></trkpt><trkpt lat="30.9034304" lon="35.6890226"><ele>913.3</ele><time>2015-11-22T10:51:22.0000000+00:00</time></trkpt><trkpt lat="30.9033826" lon="35.689047"><ele>914.1</ele><time>2015-11-22T10:51:25.0000000+00:00</time></trkpt><trkpt lat="30.9033347" lon="35.6890711"><ele>914.9</ele><time>2015-11-22T10:51:28.0000000+00:00</time></trkpt><trkpt lat="30.9032859" lon="35.6890935"><ele>916.2</ele><time>2015-11-22T10:51:31.0000000+00:00</time></trkpt><trkpt lat="30.9032381" lon="35.6891162"><ele>917.1</ele><time>2015-11-22T10:51:34.0000000+00:00</time></trkpt><trkpt lat="30.9031906" lon="35.6891382"><ele>917.4</ele><time>2015-11-22T10:51:37.0000000+00:00</time></trkpt><trkpt lat="30.9031428" lon="35.6891584"><ele>918.3</ele><time>2015-11-22T10:51:40.0000000+00:00</time></trkpt><trkpt lat="30.9030953" lon="35.6891785"><ele>918.4</ele><time>2015-11-22T10:51:43.0000000+00:00</time></trkpt><trkpt lat="30.9030498" lon="35.6892016"><ele>919.3</ele><time>2015-11-22T10:51:46.0000000+00:00</time></trkpt><trkpt lat="30.9030028" lon="35.6892213"><ele>920.1</ele><time>2015-11-22T10:51:49.0000000+00:00</time></trkpt><trkpt lat="30.9029577" lon="35.6892392"><ele>920.9</ele><time>2015-11-22T10:51:53.0000000+00:00</time></trkpt><trkpt lat="30.9029061" lon="35.6892528"><ele>921.9</ele><time>2015-11-22T10:51:57.0000000+00:00</time></trkpt><trkpt lat="30.902854" lon="35.6892701"><ele>921.5</ele><time>2015-11-22T10:52:01.0000000+00:00</time></trkpt><trkpt lat="30.9027954" lon="35.6892826"><ele>921.8</ele><time>2015-11-22T10:52:05.0000000+00:00</time></trkpt><trkpt lat="30.9027386" lon="35.6893004"><ele>920.5</ele><time>2015-11-22T10:52:09.0000000+00:00</time></trkpt><trkpt lat="30.9026825" lon="35.6893239"><ele>920.4</ele><time>2015-11-22T10:52:13.0000000+00:00</time></trkpt><trkpt lat="30.9026382" lon="35.6893373"><ele>921.1</ele><time>2015-11-22T10:52:16.0000000+00:00</time></trkpt><trkpt lat="30.9025957" lon="35.6893597"><ele>921.4</ele><time>2015-11-22T10:52:19.0000000+00:00</time></trkpt><trkpt lat="30.9025509" lon="35.6893777"><ele>921.4</ele><time>2015-11-22T10:52:22.0000000+00:00</time></trkpt><trkpt lat="30.9025044" lon="35.689391"><ele>921.3</ele><time>2015-11-22T10:52:25.0000000+00:00</time></trkpt><trkpt lat="30.9024438" lon="35.6893951"><ele>921.4</ele><time>2015-11-22T10:52:29.0000000+00:00</time></trkpt><trkpt lat="30.9023936" lon="35.689407"><ele>921.4</ele><time>2015-11-22T10:52:32.0000000+00:00</time></trkpt><trkpt lat="30.9023458" lon="35.6894266"><ele>921.4</ele><time>2015-11-22T10:52:35.0000000+00:00</time></trkpt><trkpt lat="30.9022976" lon="35.6894469"><ele>921.4</ele><time>2015-11-22T10:52:38.0000000+00:00</time></trkpt><trkpt lat="30.9022432" lon="35.6894627"><ele>921.4</ele><time>2015-11-22T10:52:41.0000000+00:00</time></trkpt><trkpt lat="30.9021805" lon="35.6894736"><ele>922.3</ele><time>2015-11-22T10:52:44.0000000+00:00</time></trkpt><trkpt lat="30.9021301" lon="35.6894776"><ele>922.4</ele><time>2015-11-22T10:52:46.0000000+00:00</time></trkpt><trkpt lat="30.9020788" lon="35.6894818"><ele>922.4</ele><time>2015-11-22T10:52:48.0000000+00:00</time></trkpt><trkpt lat="30.9020292" lon="35.6894858"><ele>921.9</ele><time>2015-11-22T10:52:50.0000000+00:00</time></trkpt><trkpt lat="30.901978" lon="35.6894856"><ele>922.0</ele><time>2015-11-22T10:52:52.0000000+00:00</time></trkpt><trkpt lat="30.9019142" lon="35.6894757"><ele>922.4</ele><time>2015-11-22T10:52:55.0000000+00:00</time></trkpt><trkpt lat="30.9018523" lon="35.6894713"><ele>922.6</ele><time>2015-11-22T10:52:58.0000000+00:00</time></trkpt><trkpt lat="30.9017886" lon="35.6894653"><ele>922.4</ele><time>2015-11-22T10:53:01.0000000+00:00</time></trkpt><trkpt lat="30.901734" lon="35.6894566"><ele>922.4</ele><time>2015-11-22T10:53:04.0000000+00:00</time></trkpt><trkpt lat="30.9016784" lon="35.6894383"><ele>923.1</ele><time>2015-11-22T10:53:07.0000000+00:00</time></trkpt><trkpt lat="30.901621" lon="35.6894224"><ele>922.5</ele><time>2015-11-22T10:53:10.0000000+00:00</time></trkpt><trkpt lat="30.9015596" lon="35.6894086"><ele>922.4</ele><time>2015-11-22T10:53:13.0000000+00:00</time></trkpt><trkpt lat="30.9015119" lon="35.6893954"><ele>922.4</ele><time>2015-11-22T10:53:15.0000000+00:00</time></trkpt><trkpt lat="30.9014534" lon="35.6893742"><ele>922.4</ele><time>2015-11-22T10:53:18.0000000+00:00</time></trkpt><trkpt lat="30.9013986" lon="35.6893597"><ele>922.9</ele><time>2015-11-22T10:53:21.0000000+00:00</time></trkpt><trkpt lat="30.9013489" lon="35.6893484"><ele>922.7</ele><time>2015-11-22T10:53:24.0000000+00:00</time></trkpt><trkpt lat="30.9013025" lon="35.6893428"><ele>922.4</ele><time>2015-11-22T10:53:27.0000000+00:00</time></trkpt><trkpt lat="30.9012527" lon="35.6893379"><ele>923.2</ele><time>2015-11-22T10:53:31.0000000+00:00</time></trkpt><trkpt lat="30.9012067" lon="35.6893217"><ele>923.4</ele><time>2015-11-22T10:53:34.0000000+00:00</time></trkpt><trkpt lat="30.9011548" lon="35.6893031"><ele>923.1</ele><time>2015-11-22T10:53:37.0000000+00:00</time></trkpt><trkpt lat="30.9010972" lon="35.6892867"><ele>923.4</ele><time>2015-11-22T10:53:40.0000000+00:00</time></trkpt><trkpt lat="30.9010339" lon="35.6892653"><ele>923.4</ele><time>2015-11-22T10:53:43.0000000+00:00</time></trkpt><trkpt lat="30.9009708" lon="35.6892479"><ele>922.6</ele><time>2015-11-22T10:53:46.0000000+00:00</time></trkpt><trkpt lat="30.9009266" lon="35.6892334"><ele>922.5</ele><time>2015-11-22T10:53:48.0000000+00:00</time></trkpt><trkpt lat="30.9008652" lon="35.6892199"><ele>922.4</ele><time>2015-11-22T10:53:51.0000000+00:00</time></trkpt><trkpt lat="30.9008124" lon="35.6891988"><ele>922.8</ele><time>2015-11-22T10:53:54.0000000+00:00</time></trkpt><trkpt lat="30.9007539" lon="35.6891792"><ele>922.8</ele><time>2015-11-22T10:53:57.0000000+00:00</time></trkpt><trkpt lat="30.9006911" lon="35.689157"><ele>922.5</ele><time>2015-11-22T10:54:00.0000000+00:00</time></trkpt><trkpt lat="30.9006453" lon="35.6891397"><ele>922.4</ele><time>2015-11-22T10:54:02.0000000+00:00</time></trkpt><trkpt lat="30.9005965" lon="35.6891205"><ele>922.9</ele><time>2015-11-22T10:54:04.0000000+00:00</time></trkpt><trkpt lat="30.9005491" lon="35.6891034"><ele>923.3</ele><time>2015-11-22T10:54:06.0000000+00:00</time></trkpt><trkpt lat="30.9004878" lon="35.6890814"><ele>923.4</ele><time>2015-11-22T10:54:09.0000000+00:00</time></trkpt><trkpt lat="30.9004321" lon="35.6890635"><ele>923.4</ele><time>2015-11-22T10:54:12.0000000+00:00</time></trkpt><trkpt lat="30.9003702" lon="35.6890469"><ele>923.4</ele><time>2015-11-22T10:54:15.0000000+00:00</time></trkpt><trkpt lat="30.9003056" lon="35.6890273"><ele>923.3</ele><time>2015-11-22T10:54:18.0000000+00:00</time></trkpt><trkpt lat="30.900262" lon="35.6890141"><ele>924.1</ele><time>2015-11-22T10:54:20.0000000+00:00</time></trkpt><trkpt lat="30.9002162" lon="35.6890039"><ele>923.8</ele><time>2015-11-22T10:54:22.0000000+00:00</time></trkpt><trkpt lat="30.9001702" lon="35.6889959"><ele>923.5</ele><time>2015-11-22T10:54:24.0000000+00:00</time></trkpt><trkpt lat="30.9001228" lon="35.6889864"><ele>923.4</ele><time>2015-11-22T10:54:26.0000000+00:00</time></trkpt><trkpt lat="30.9000745" lon="35.688975"><ele>923.4</ele><time>2015-11-22T10:54:28.0000000+00:00</time></trkpt><trkpt lat="30.9000236" lon="35.6889637"><ele>923.4</ele><time>2015-11-22T10:54:30.0000000+00:00</time></trkpt><trkpt lat="30.8999722" lon="35.6889512"><ele>923.4</ele><time>2015-11-22T10:54:32.0000000+00:00</time></trkpt><trkpt lat="30.8999226" lon="35.6889366"><ele>923.4</ele><time>2015-11-22T10:54:34.0000000+00:00</time></trkpt><trkpt lat="30.8998747" lon="35.6889204"><ele>923.9</ele><time>2015-11-22T10:54:36.0000000+00:00</time></trkpt><trkpt lat="30.8998252" lon="35.6889039"><ele>924.3</ele><time>2015-11-22T10:54:38.0000000+00:00</time></trkpt><trkpt lat="30.8997787" lon="35.6888895"><ele>923.6</ele><time>2015-11-22T10:54:40.0000000+00:00</time></trkpt><trkpt lat="30.8997195" lon="35.6888721"><ele>924.8</ele><time>2015-11-22T10:54:43.0000000+00:00</time></trkpt><trkpt lat="30.89967" lon="35.6888581"><ele>925.8</ele><time>2015-11-22T10:54:46.0000000+00:00</time></trkpt><trkpt lat="30.8996256" lon="35.6888425"><ele>925.6</ele><time>2015-11-22T10:54:49.0000000+00:00</time></trkpt><trkpt lat="30.8995816" lon="35.6888267"><ele>926.2</ele><time>2015-11-22T10:54:52.0000000+00:00</time></trkpt><trkpt lat="30.8995361" lon="35.6888111"><ele>926.6</ele><time>2015-11-22T10:54:55.0000000+00:00</time></trkpt><trkpt lat="30.8994896" lon="35.6887939"><ele>926.9</ele><time>2015-11-22T10:54:58.0000000+00:00</time></trkpt><trkpt lat="30.8994425" lon="35.6887856"><ele>927.3</ele><time>2015-11-22T10:55:01.0000000+00:00</time></trkpt><trkpt lat="30.8993961" lon="35.6887713"><ele>927.1</ele><time>2015-11-22T10:55:04.0000000+00:00</time></trkpt><trkpt lat="30.8993478" lon="35.6887562"><ele>926.7</ele><time>2015-11-22T10:55:07.0000000+00:00</time></trkpt><trkpt lat="30.8993013" lon="35.68874"><ele>925.7</ele><time>2015-11-22T10:55:10.0000000+00:00</time></trkpt><trkpt lat="30.8992521" lon="35.6887274"><ele>925.4</ele><time>2015-11-22T10:55:13.0000000+00:00</time></trkpt><trkpt lat="30.8991989" lon="35.6887146"><ele>925.4</ele><time>2015-11-22T10:55:16.0000000+00:00</time></trkpt><trkpt lat="30.8991489" lon="35.6886942"><ele>925.4</ele><time>2015-11-22T10:55:19.0000000+00:00</time></trkpt><trkpt lat="30.8990987" lon="35.6886773"><ele>925.3</ele><time>2015-11-22T10:55:22.0000000+00:00</time></trkpt><trkpt lat="30.8990464" lon="35.6886678"><ele>924.8</ele><time>2015-11-22T10:55:25.0000000+00:00</time></trkpt><trkpt lat="30.8989942" lon="35.6886585"><ele>924.4</ele><time>2015-11-22T10:55:28.0000000+00:00</time></trkpt><trkpt lat="30.8989454" lon="35.6886402"><ele>924.4</ele><time>2015-11-22T10:55:31.0000000+00:00</time></trkpt><trkpt lat="30.8988964" lon="35.68863"><ele>925.3</ele><time>2015-11-22T10:55:34.0000000+00:00</time></trkpt><trkpt lat="30.8988502" lon="35.6886108"><ele>924.5</ele><time>2015-11-22T10:55:37.0000000+00:00</time></trkpt><trkpt lat="30.898802" lon="35.6885944"><ele>923.5</ele><time>2015-11-22T10:55:40.0000000+00:00</time></trkpt><trkpt lat="30.8987523" lon="35.688582"><ele>924.3</ele><time>2015-11-22T10:55:43.0000000+00:00</time></trkpt><trkpt lat="30.8987042" lon="35.688566"><ele>924.6</ele><time>2015-11-22T10:55:46.0000000+00:00</time></trkpt><trkpt lat="30.8986565" lon="35.6885488"><ele>924.7</ele><time>2015-11-22T10:55:49.0000000+00:00</time></trkpt><trkpt lat="30.8986113" lon="35.6885305"><ele>923.1</ele><time>2015-11-22T10:55:52.0000000+00:00</time></trkpt><trkpt lat="30.8985673" lon="35.6885097"><ele>922.6</ele><time>2015-11-22T10:55:55.0000000+00:00</time></trkpt><trkpt lat="30.898521" lon="35.6884953"><ele>923.8</ele><time>2015-11-22T10:55:58.0000000+00:00</time></trkpt><trkpt lat="30.8984725" lon="35.688482"><ele>924.6</ele><time>2015-11-22T10:56:01.0000000+00:00</time></trkpt><trkpt lat="30.8984208" lon="35.6884775"><ele>925.2</ele><time>2015-11-22T10:56:04.0000000+00:00</time></trkpt><trkpt lat="30.8983729" lon="35.6884618"><ele>924.9</ele><time>2015-11-22T10:56:07.0000000+00:00</time></trkpt><trkpt lat="30.8983168" lon="35.6884558"><ele>924.9</ele><time>2015-11-22T10:56:11.0000000+00:00</time></trkpt><trkpt lat="30.8982706" lon="35.6884458"><ele>925.8</ele><time>2015-11-22T10:56:14.0000000+00:00</time></trkpt><trkpt lat="30.8982245" lon="35.6884391"><ele>926.3</ele><time>2015-11-22T10:56:17.0000000+00:00</time></trkpt><trkpt lat="30.8981791" lon="35.6884251"><ele>927.8</ele><time>2015-11-22T10:56:20.0000000+00:00</time></trkpt><trkpt lat="30.8981319" lon="35.6884144"><ele>927.1</ele><time>2015-11-22T10:56:23.0000000+00:00</time></trkpt><trkpt lat="30.8980843" lon="35.6884095"><ele>927.6</ele><time>2015-11-22T10:56:26.0000000+00:00</time></trkpt><trkpt lat="30.8980362" lon="35.6884083"><ele>926.8</ele><time>2015-11-22T10:56:29.0000000+00:00</time></trkpt><trkpt lat="30.8979913" lon="35.6883984"><ele>926.7</ele><time>2015-11-22T10:56:32.0000000+00:00</time></trkpt><trkpt lat="30.897942" lon="35.6883859"><ele>927.3</ele><time>2015-11-22T10:56:35.0000000+00:00</time></trkpt><trkpt lat="30.8978945" lon="35.6883746"><ele>928.1</ele><time>2015-11-22T10:56:38.0000000+00:00</time></trkpt><trkpt lat="30.8978465" lon="35.6883772"><ele>927.5</ele><time>2015-11-22T10:56:41.0000000+00:00</time></trkpt><trkpt lat="30.8977974" lon="35.6883797"><ele>928.3</ele><time>2015-11-22T10:56:44.0000000+00:00</time></trkpt><trkpt lat="30.897749" lon="35.688377"><ele>927.6</ele><time>2015-11-22T10:56:47.0000000+00:00</time></trkpt><trkpt lat="30.897689" lon="35.6883722"><ele>928.7</ele><time>2015-11-22T10:56:51.0000000+00:00</time></trkpt><trkpt lat="30.8976428" lon="35.6883702"><ele>929.8</ele><time>2015-11-22T10:56:54.0000000+00:00</time></trkpt><trkpt lat="30.897595" lon="35.688366"><ele>930.2</ele><time>2015-11-22T10:56:57.0000000+00:00</time></trkpt><trkpt lat="30.8975452" lon="35.6883743"><ele>931.5</ele><time>2015-11-22T10:57:00.0000000+00:00</time></trkpt><trkpt lat="30.8974941" lon="35.688378"><ele>928.9</ele><time>2015-11-22T10:57:03.0000000+00:00</time></trkpt><trkpt lat="30.8974468" lon="35.688383"><ele>928.0</ele><time>2015-11-22T10:57:06.0000000+00:00</time></trkpt><trkpt lat="30.8973971" lon="35.6883762"><ele>928.0</ele><time>2015-11-22T10:57:09.0000000+00:00</time></trkpt><trkpt lat="30.8973454" lon="35.6883755"><ele>928.7</ele><time>2015-11-22T10:57:12.0000000+00:00</time></trkpt><trkpt lat="30.8972922" lon="35.6883772"><ele>930.1</ele><time>2015-11-22T10:57:15.0000000+00:00</time></trkpt><trkpt lat="30.8972395" lon="35.688377"><ele>929.9</ele><time>2015-11-22T10:57:18.0000000+00:00</time></trkpt><trkpt lat="30.8971869" lon="35.6883838"><ele>930.6</ele><time>2015-11-22T10:57:21.0000000+00:00</time></trkpt><trkpt lat="30.8971326" lon="35.6883872"><ele>930.8</ele><time>2015-11-22T10:57:24.0000000+00:00</time></trkpt><trkpt lat="30.897078" lon="35.6883923"><ele>929.4</ele><time>2015-11-22T10:57:27.0000000+00:00</time></trkpt><trkpt lat="30.8970294" lon="35.6883975"><ele>928.4</ele><time>2015-11-22T10:57:30.0000000+00:00</time></trkpt><trkpt lat="30.8969786" lon="35.6884067"><ele>927.0</ele><time>2015-11-22T10:57:33.0000000+00:00</time></trkpt><trkpt lat="30.8969275" lon="35.6884108"><ele>927.4</ele><time>2015-11-22T10:57:36.0000000+00:00</time></trkpt><trkpt lat="30.8968754" lon="35.6884181"><ele>926.8</ele><time>2015-11-22T10:57:39.0000000+00:00</time></trkpt><trkpt lat="30.8968204" lon="35.6884297"><ele>927.6</ele><time>2015-11-22T10:57:42.0000000+00:00</time></trkpt><trkpt lat="30.8967659" lon="35.6884366"><ele>929.0</ele><time>2015-11-22T10:57:45.0000000+00:00</time></trkpt><trkpt lat="30.8967085" lon="35.6884382"><ele>930.8</ele><time>2015-11-22T10:57:49.0000000+00:00</time></trkpt><trkpt lat="30.8966514" lon="35.6884437"><ele>931.9</ele><time>2015-11-22T10:57:53.0000000+00:00</time></trkpt><trkpt lat="30.8965938" lon="35.6884529"><ele>932.6</ele><time>2015-11-22T10:57:57.0000000+00:00</time></trkpt><trkpt lat="30.8965442" lon="35.6884576"><ele>930.8</ele><time>2015-11-22T10:58:01.0000000+00:00</time></trkpt><trkpt lat="30.8964975" lon="35.6884702"><ele>930.9</ele><time>2015-11-22T10:58:05.0000000+00:00</time></trkpt><trkpt lat="30.8964515" lon="35.6884804"><ele>928.9</ele><time>2015-11-22T10:58:09.0000000+00:00</time></trkpt><trkpt lat="30.8964001" lon="35.6884971"><ele>930.4</ele><time>2015-11-22T10:58:13.0000000+00:00</time></trkpt><trkpt lat="30.8963424" lon="35.6885158"><ele>930.1</ele><time>2015-11-22T10:58:17.0000000+00:00</time></trkpt><trkpt lat="30.8963005" lon="35.6885367"><ele>930.5</ele><time>2015-11-22T10:58:20.0000000+00:00</time></trkpt><trkpt lat="30.8962572" lon="35.6885525"><ele>932.5</ele><time>2015-11-22T10:58:23.0000000+00:00</time></trkpt><trkpt lat="30.8962116" lon="35.6885759"><ele>932.5</ele><time>2015-11-22T10:58:26.0000000+00:00</time></trkpt><trkpt lat="30.8961659" lon="35.6886011"><ele>932.8</ele><time>2015-11-22T10:58:29.0000000+00:00</time></trkpt><trkpt lat="30.8961186" lon="35.6886244"><ele>932.1</ele><time>2015-11-22T10:58:32.0000000+00:00</time></trkpt><trkpt lat="30.8960726" lon="35.688641"><ele>934.2</ele><time>2015-11-22T10:58:35.0000000+00:00</time></trkpt><trkpt lat="30.8960292" lon="35.6886605"><ele>936.3</ele><time>2015-11-22T10:58:38.0000000+00:00</time></trkpt><trkpt lat="30.8959856" lon="35.6886824"><ele>936.1</ele><time>2015-11-22T10:58:41.0000000+00:00</time></trkpt><trkpt lat="30.8959418" lon="35.688705"><ele>933.9</ele><time>2015-11-22T10:58:44.0000000+00:00</time></trkpt><trkpt lat="30.8958884" lon="35.688719"><ele>933.1</ele><time>2015-11-22T10:58:47.0000000+00:00</time></trkpt><trkpt lat="30.8958338" lon="35.68874"><ele>934.4</ele><time>2015-11-22T10:58:50.0000000+00:00</time></trkpt><trkpt lat="30.8957805" lon="35.6887626"><ele>932.8</ele><time>2015-11-22T10:58:53.0000000+00:00</time></trkpt><trkpt lat="30.895731" lon="35.6887819"><ele>933.6</ele><time>2015-11-22T10:58:56.0000000+00:00</time></trkpt><trkpt lat="30.8956845" lon="35.6888043"><ele>934.7</ele><time>2015-11-22T10:58:59.0000000+00:00</time></trkpt><trkpt lat="30.8956391" lon="35.6888273"><ele>936.2</ele><time>2015-11-22T10:59:02.0000000+00:00</time></trkpt><trkpt lat="30.8955938" lon="35.6888452"><ele>934.1</ele><time>2015-11-22T10:59:05.0000000+00:00</time></trkpt><trkpt lat="30.8955488" lon="35.6888662"><ele>936.9</ele><time>2015-11-22T10:59:08.0000000+00:00</time></trkpt><trkpt lat="30.895505" lon="35.6888932"><ele>936.8</ele><time>2015-11-22T10:59:11.0000000+00:00</time></trkpt><trkpt lat="30.8954584" lon="35.6889144"><ele>939.6</ele><time>2015-11-22T10:59:14.0000000+00:00</time></trkpt><trkpt lat="30.8954116" lon="35.6889356"><ele>941.2</ele><time>2015-11-22T10:59:17.0000000+00:00</time></trkpt><trkpt lat="30.8953619" lon="35.6889549"><ele>939.4</ele><time>2015-11-22T10:59:20.0000000+00:00</time></trkpt><trkpt lat="30.8953138" lon="35.6889799"><ele>939.5</ele><time>2015-11-22T10:59:23.0000000+00:00</time></trkpt><trkpt lat="30.8952668" lon="35.689003"><ele>937.2</ele><time>2015-11-22T10:59:26.0000000+00:00</time></trkpt><trkpt lat="30.8952184" lon="35.6890244"><ele>936.6</ele><time>2015-11-22T10:59:29.0000000+00:00</time></trkpt><trkpt lat="30.8951715" lon="35.6890361"><ele>938.1</ele><time>2015-11-22T10:59:32.0000000+00:00</time></trkpt><trkpt lat="30.8951271" lon="35.6890492"><ele>937.9</ele><time>2015-11-22T10:59:35.0000000+00:00</time></trkpt><trkpt lat="30.8950823" lon="35.6890679"><ele>940.6</ele><time>2015-11-22T10:59:38.0000000+00:00</time></trkpt><trkpt lat="30.8950384" lon="35.6890889"><ele>939.7</ele><time>2015-11-22T10:59:41.0000000+00:00</time></trkpt><trkpt lat="30.894996" lon="35.6891061"><ele>937.9</ele><time>2015-11-22T10:59:44.0000000+00:00</time></trkpt><trkpt lat="30.8949508" lon="35.6891182"><ele>937.7</ele><time>2015-11-22T10:59:47.0000000+00:00</time></trkpt><trkpt lat="30.8949041" lon="35.6891367"><ele>939.7</ele><time>2015-11-22T10:59:50.0000000+00:00</time></trkpt><trkpt lat="30.8948591" lon="35.6891562"><ele>939.6</ele><time>2015-11-22T10:59:53.0000000+00:00</time></trkpt><trkpt lat="30.8948101" lon="35.6891684"><ele>940.3</ele><time>2015-11-22T10:59:56.0000000+00:00</time></trkpt><trkpt lat="30.8947662" lon="35.6891856"><ele>941.8</ele><time>2015-11-22T10:59:59.0000000+00:00</time></trkpt><trkpt lat="30.8947208" lon="35.6892077"><ele>942.9</ele><time>2015-11-22T11:00:02.0000000+00:00</time></trkpt><trkpt lat="30.8946757" lon="35.6892295"><ele>943.5</ele><time>2015-11-22T11:00:05.0000000+00:00</time></trkpt><trkpt lat="30.8946308" lon="35.6892459"><ele>943.4</ele><time>2015-11-22T11:00:08.0000000+00:00</time></trkpt><trkpt lat="30.894588" lon="35.6892662"><ele>941.4</ele><time>2015-11-22T11:00:11.0000000+00:00</time></trkpt><trkpt lat="30.8945444" lon="35.6892933"><ele>940.1</ele><time>2015-11-22T11:00:14.0000000+00:00</time></trkpt><trkpt lat="30.8944957" lon="35.6893091"><ele>936.2</ele><time>2015-11-22T11:00:17.0000000+00:00</time></trkpt><trkpt lat="30.8944447" lon="35.6893264"><ele>947.5</ele><time>2015-11-22T11:00:20.0000000+00:00</time></trkpt><trkpt lat="30.8943965" lon="35.6893477"><ele>949.4</ele><time>2015-11-22T11:00:23.0000000+00:00</time></trkpt><trkpt lat="30.8943483" lon="35.6893705"><ele>951.4</ele><time>2015-11-22T11:00:26.0000000+00:00</time></trkpt><trkpt lat="30.8942981" lon="35.6893922"><ele>953.9</ele><time>2015-11-22T11:00:29.0000000+00:00</time></trkpt><trkpt lat="30.8942493" lon="35.6894099"><ele>957.1</ele><time>2015-11-22T11:00:32.0000000+00:00</time></trkpt><trkpt lat="30.8941995" lon="35.6894326"><ele>957.1</ele><time>2015-11-22T11:00:35.0000000+00:00</time></trkpt><trkpt lat="30.8941503" lon="35.6894501"><ele>960.9</ele><time>2015-11-22T11:00:38.0000000+00:00</time></trkpt><trkpt lat="30.8941922" lon="35.6894299"><ele>956.5</ele><time>2015-11-22T11:00:50.0000000+00:00</time></trkpt><trkpt lat="30.8942414" lon="35.6894138"><ele>954.3</ele><time>2015-11-22T11:00:54.0000000+00:00</time></trkpt><trkpt lat="30.8942888" lon="35.689389"><ele>954.8</ele><time>2015-11-22T11:00:58.0000000+00:00</time></trkpt><trkpt lat="30.8943283" lon="35.6893607"><ele>971.7</ele><time>2015-11-22T11:02:02.0000000+00:00</time></trkpt><trkpt lat="30.8942822" lon="35.6893868"><ele>984.5</ele><time>2015-11-22T11:11:52.0000000+00:00</time></trkpt><trkpt lat="30.8942438" lon="35.6894144"><ele>984.4</ele><time>2015-11-22T11:12:13.0000000+00:00</time></trkpt><trkpt lat="30.894203" lon="35.6894374"><ele>984.4</ele><time>2015-11-22T11:12:37.0000000+00:00</time></trkpt><trkpt lat="30.8941482" lon="35.689445"><ele>985.8</ele><time>2015-11-22T11:12:41.0000000+00:00</time></trkpt><trkpt lat="30.8940999" lon="35.6894495"><ele>985.5</ele><time>2015-11-22T11:12:44.0000000+00:00</time></trkpt><trkpt lat="30.8940511" lon="35.6894628"><ele>985.9</ele><time>2015-11-22T11:12:47.0000000+00:00</time></trkpt><trkpt lat="30.8940019" lon="35.6894757"><ele>986.8</ele><time>2015-11-22T11:12:50.0000000+00:00</time></trkpt><trkpt lat="30.8939509" lon="35.6894837"><ele>986.0</ele><time>2015-11-22T11:12:53.0000000+00:00</time></trkpt><trkpt lat="30.893902" lon="35.6894979"><ele>986.1</ele><time>2015-11-22T11:12:56.0000000+00:00</time></trkpt><trkpt lat="30.8938519" lon="35.6895126"><ele>986.9</ele><time>2015-11-22T11:12:59.0000000+00:00</time></trkpt><trkpt lat="30.8938023" lon="35.6895236"><ele>988.1</ele><time>2015-11-22T11:13:02.0000000+00:00</time></trkpt><trkpt lat="30.8937545" lon="35.6895314"><ele>988.5</ele><time>2015-11-22T11:13:05.0000000+00:00</time></trkpt><trkpt lat="30.8937071" lon="35.6895401"><ele>986.9</ele><time>2015-11-22T11:13:08.0000000+00:00</time></trkpt><trkpt lat="30.8936574" lon="35.689545"><ele>986.7</ele><time>2015-11-22T11:13:11.0000000+00:00</time></trkpt><trkpt lat="30.8936099" lon="35.6895553"><ele>987.3</ele><time>2015-11-22T11:13:14.0000000+00:00</time></trkpt><trkpt lat="30.8935634" lon="35.6895623"><ele>989.0</ele><time>2015-11-22T11:13:17.0000000+00:00</time></trkpt><trkpt lat="30.893515" lon="35.6895632"><ele>989.2</ele><time>2015-11-22T11:13:20.0000000+00:00</time></trkpt><trkpt lat="30.8934669" lon="35.6895632"><ele>988.4</ele><time>2015-11-22T11:13:23.0000000+00:00</time></trkpt><trkpt lat="30.8934156" lon="35.6895629"><ele>987.0</ele><time>2015-11-22T11:13:26.0000000+00:00</time></trkpt><trkpt lat="30.8933621" lon="35.6895667"><ele>987.4</ele><time>2015-11-22T11:13:29.0000000+00:00</time></trkpt><trkpt lat="30.8933102" lon="35.6895725"><ele>986.8</ele><time>2015-11-22T11:13:32.0000000+00:00</time></trkpt><trkpt lat="30.8932641" lon="35.6895854"><ele>986.6</ele><time>2015-11-22T11:13:35.0000000+00:00</time></trkpt><trkpt lat="30.8932081" lon="35.6895885"><ele>986.6</ele><time>2015-11-22T11:13:39.0000000+00:00</time></trkpt><trkpt lat="30.8931493" lon="35.6895788"><ele>988.6</ele><time>2015-11-22T11:13:43.0000000+00:00</time></trkpt><trkpt lat="30.893101" lon="35.6895774"><ele>990.0</ele><time>2015-11-22T11:13:46.0000000+00:00</time></trkpt><trkpt lat="30.8930498" lon="35.6895795"><ele>990.1</ele><time>2015-11-22T11:13:49.0000000+00:00</time></trkpt><trkpt lat="30.8929958" lon="35.6895814"><ele>989.5</ele><time>2015-11-22T11:13:52.0000000+00:00</time></trkpt><trkpt lat="30.8929421" lon="35.6895827"><ele>989.4</ele><time>2015-11-22T11:13:55.0000000+00:00</time></trkpt><trkpt lat="30.8928876" lon="35.6895862"><ele>990.2</ele><time>2015-11-22T11:13:58.0000000+00:00</time></trkpt><trkpt lat="30.8928359" lon="35.6895894"><ele>991.6</ele><time>2015-11-22T11:14:01.0000000+00:00</time></trkpt><trkpt lat="30.8927846" lon="35.6895921"><ele>992.4</ele><time>2015-11-22T11:14:04.0000000+00:00</time></trkpt><trkpt lat="30.8927333" lon="35.6895972"><ele>992.2</ele><time>2015-11-22T11:14:07.0000000+00:00</time></trkpt><trkpt lat="30.8926808" lon="35.6895983"><ele>992.6</ele><time>2015-11-22T11:14:10.0000000+00:00</time></trkpt><trkpt lat="30.8926278" lon="35.6895976"><ele>991.7</ele><time>2015-11-22T11:14:13.0000000+00:00</time></trkpt><trkpt lat="30.8925778" lon="35.6895997"><ele>991.7</ele><time>2015-11-22T11:14:16.0000000+00:00</time></trkpt><trkpt lat="30.892522" lon="35.6896066"><ele>990.9</ele><time>2015-11-22T11:14:19.0000000+00:00</time></trkpt><trkpt lat="30.892467" lon="35.6896048"><ele>989.6</ele><time>2015-11-22T11:14:22.0000000+00:00</time></trkpt><trkpt lat="30.8924177" lon="35.6896112"><ele>988.2</ele><time>2015-11-22T11:14:25.0000000+00:00</time></trkpt><trkpt lat="30.8923684" lon="35.6896109"><ele>986.6</ele><time>2015-11-22T11:14:28.0000000+00:00</time></trkpt><trkpt lat="30.8923188" lon="35.6896084"><ele>989.3</ele><time>2015-11-22T11:14:31.0000000+00:00</time></trkpt><trkpt lat="30.892269" lon="35.6896107"><ele>1001.5</ele><time>2015-11-22T11:14:34.0000000+00:00</time></trkpt><trkpt lat="30.8922218" lon="35.6896189"><ele>1007.4</ele><time>2015-11-22T11:14:37.0000000+00:00</time></trkpt><trkpt lat="30.8921733" lon="35.6896233"><ele>1012.0</ele><time>2015-11-22T11:14:40.0000000+00:00</time></trkpt><trkpt lat="30.8921236" lon="35.6896201"><ele>1014.7</ele><time>2015-11-22T11:14:43.0000000+00:00</time></trkpt><trkpt lat="30.8920724" lon="35.6896266"><ele>1017.4</ele><time>2015-11-22T11:14:46.0000000+00:00</time></trkpt><trkpt lat="30.8920199" lon="35.6896274"><ele>1019.0</ele><time>2015-11-22T11:14:49.0000000+00:00</time></trkpt><trkpt lat="30.8919658" lon="35.6896331"><ele>1020.1</ele><time>2015-11-22T11:14:52.0000000+00:00</time></trkpt><trkpt lat="30.891913" lon="35.6896415"><ele>1019.2</ele><time>2015-11-22T11:14:55.0000000+00:00</time></trkpt><trkpt lat="30.8918606" lon="35.6896505"><ele>1020.3</ele><time>2015-11-22T11:14:58.0000000+00:00</time></trkpt><trkpt lat="30.8918084" lon="35.6896498"><ele>1020.9</ele><time>2015-11-22T11:15:01.0000000+00:00</time></trkpt><trkpt lat="30.8917558" lon="35.6896561"><ele>1022.1</ele><time>2015-11-22T11:15:04.0000000+00:00</time></trkpt><trkpt lat="30.8917043" lon="35.689658"><ele>1021.9</ele><time>2015-11-22T11:15:07.0000000+00:00</time></trkpt><trkpt lat="30.8916504" lon="35.689659"><ele>1022.0</ele><time>2015-11-22T11:15:10.0000000+00:00</time></trkpt><trkpt lat="30.8915939" lon="35.6896693"><ele>1023.1</ele><time>2015-11-22T11:15:13.0000000+00:00</time></trkpt><trkpt lat="30.8915387" lon="35.6896784"><ele>1024.1</ele><time>2015-11-22T11:15:16.0000000+00:00</time></trkpt><trkpt lat="30.8914834" lon="35.689686"><ele>1024.4</ele><time>2015-11-22T11:15:19.0000000+00:00</time></trkpt><trkpt lat="30.8914295" lon="35.6896886"><ele>1023.6</ele><time>2015-11-22T11:15:22.0000000+00:00</time></trkpt><trkpt lat="30.8913724" lon="35.6896899"><ele>1025.3</ele><time>2015-11-22T11:15:25.0000000+00:00</time></trkpt><trkpt lat="30.8913118" lon="35.6896933"><ele>1025.9</ele><time>2015-11-22T11:15:28.0000000+00:00</time></trkpt><trkpt lat="30.8912557" lon="35.6897016"><ele>1029.2</ele><time>2015-11-22T11:15:31.0000000+00:00</time></trkpt><trkpt lat="30.8912036" lon="35.6897109"><ele>1031.9</ele><time>2015-11-22T11:15:34.0000000+00:00</time></trkpt><trkpt lat="30.8911497" lon="35.6897166"><ele>1034.2</ele><time>2015-11-22T11:15:37.0000000+00:00</time></trkpt><trkpt lat="30.8910963" lon="35.6897261"><ele>1036.0</ele><time>2015-11-22T11:15:40.0000000+00:00</time></trkpt><trkpt lat="30.891043" lon="35.6897338"><ele>1038.0</ele><time>2015-11-22T11:15:43.0000000+00:00</time></trkpt><trkpt lat="30.8909922" lon="35.6897479"><ele>1037.6</ele><time>2015-11-22T11:15:46.0000000+00:00</time></trkpt><trkpt lat="30.89094" lon="35.6897551"><ele>1037.7</ele><time>2015-11-22T11:15:49.0000000+00:00</time></trkpt><trkpt lat="30.8908886" lon="35.6897606"><ele>1036.7</ele><time>2015-11-22T11:15:52.0000000+00:00</time></trkpt><trkpt lat="30.8908379" lon="35.6897693"><ele>1027.9</ele><time>2015-11-22T11:15:55.0000000+00:00</time></trkpt><trkpt lat="30.8907876" lon="35.689775"><ele>1025.7</ele><time>2015-11-22T11:15:58.0000000+00:00</time></trkpt><trkpt lat="30.8907362" lon="35.6897764"><ele>1025.4</ele><time>2015-11-22T11:16:01.0000000+00:00</time></trkpt><trkpt lat="30.8906801" lon="35.6897796"><ele>1026.8</ele><time>2015-11-22T11:16:04.0000000+00:00</time></trkpt><trkpt lat="30.890624" lon="35.6897728"><ele>1025.7</ele><time>2015-11-22T11:16:07.0000000+00:00</time></trkpt><trkpt lat="30.8905707" lon="35.6897689"><ele>1024.7</ele><time>2015-11-22T11:16:10.0000000+00:00</time></trkpt><trkpt lat="30.89052" lon="35.6897635"><ele>1024.4</ele><time>2015-11-22T11:16:13.0000000+00:00</time></trkpt><trkpt lat="30.8904657" lon="35.6897722"><ele>1025.2</ele><time>2015-11-22T11:16:16.0000000+00:00</time></trkpt><trkpt lat="30.8904105" lon="35.6897801"><ele>1027.0</ele><time>2015-11-22T11:16:19.0000000+00:00</time></trkpt><trkpt lat="30.890358" lon="35.6897849"><ele>1026.0</ele><time>2015-11-22T11:16:22.0000000+00:00</time></trkpt><trkpt lat="30.8903019" lon="35.6897944"><ele>1026.3</ele><time>2015-11-22T11:16:25.0000000+00:00</time></trkpt><trkpt lat="30.8902513" lon="35.6897965"><ele>1026.3</ele><time>2015-11-22T11:16:28.0000000+00:00</time></trkpt><trkpt lat="30.8902006" lon="35.6897886"><ele>1028.0</ele><time>2015-11-22T11:16:31.0000000+00:00</time></trkpt><trkpt lat="30.8901489" lon="35.6897866"><ele>1028.0</ele><time>2015-11-22T11:16:34.0000000+00:00</time></trkpt><trkpt lat="30.8901008" lon="35.6897843"><ele>1029.1</ele><time>2015-11-22T11:16:37.0000000+00:00</time></trkpt><trkpt lat="30.8900534" lon="35.6897872"><ele>1031.0</ele><time>2015-11-22T11:16:40.0000000+00:00</time></trkpt><trkpt lat="30.8900046" lon="35.6897858"><ele>1029.5</ele><time>2015-11-22T11:16:43.0000000+00:00</time></trkpt><trkpt lat="30.8899555" lon="35.6897857"><ele>1029.3</ele><time>2015-11-22T11:16:46.0000000+00:00</time></trkpt><trkpt lat="30.8899082" lon="35.6897864"><ele>1030.9</ele><time>2015-11-22T11:16:49.0000000+00:00</time></trkpt><trkpt lat="30.8898581" lon="35.6897871"><ele>1033.0</ele><time>2015-11-22T11:16:52.0000000+00:00</time></trkpt><trkpt lat="30.8898103" lon="35.6897912"><ele>1032.6</ele><time>2015-11-22T11:16:55.0000000+00:00</time></trkpt><trkpt lat="30.8897627" lon="35.6897925"><ele>1034.3</ele><time>2015-11-22T11:16:58.0000000+00:00</time></trkpt><trkpt lat="30.8897175" lon="35.689793"><ele>1034.9</ele><time>2015-11-22T11:17:01.0000000+00:00</time></trkpt><trkpt lat="30.8896725" lon="35.68979"><ele>1031.0</ele><time>2015-11-22T11:17:04.0000000+00:00</time></trkpt><trkpt lat="30.8896122" lon="35.6897942"><ele>1030.7</ele><time>2015-11-22T11:17:08.0000000+00:00</time></trkpt><trkpt lat="30.8895664" lon="35.6897891"><ele>1029.9</ele><time>2015-11-22T11:17:11.0000000+00:00</time></trkpt><trkpt lat="30.8895188" lon="35.6897871"><ele>1030.6</ele><time>2015-11-22T11:17:14.0000000+00:00</time></trkpt><trkpt lat="30.8894685" lon="35.6897902"><ele>1031.7</ele><time>2015-11-22T11:17:17.0000000+00:00</time></trkpt><trkpt lat="30.8894222" lon="35.6897939"><ele>1031.8</ele><time>2015-11-22T11:17:20.0000000+00:00</time></trkpt><trkpt lat="30.8893644" lon="35.6897895"><ele>1031.4</ele><time>2015-11-22T11:17:24.0000000+00:00</time></trkpt><trkpt lat="30.8893166" lon="35.6897961"><ele>1031.4</ele><time>2015-11-22T11:17:27.0000000+00:00</time></trkpt><trkpt lat="30.8892666" lon="35.689803"><ele>1032.6</ele><time>2015-11-22T11:17:30.0000000+00:00</time></trkpt><trkpt lat="30.8892165" lon="35.6898022"><ele>1033.1</ele><time>2015-11-22T11:17:33.0000000+00:00</time></trkpt><trkpt lat="30.8891709" lon="35.6898034"><ele>1032.5</ele><time>2015-11-22T11:17:36.0000000+00:00</time></trkpt><trkpt lat="30.8891218" lon="35.6898008"><ele>1033.0</ele><time>2015-11-22T11:17:39.0000000+00:00</time></trkpt><trkpt lat="30.8890706" lon="35.6898033"><ele>1034.0</ele><time>2015-11-22T11:17:42.0000000+00:00</time></trkpt><trkpt lat="30.8890205" lon="35.6898058"><ele>1036.8</ele><time>2015-11-22T11:17:45.0000000+00:00</time></trkpt><trkpt lat="30.8889706" lon="35.6898019"><ele>1036.0</ele><time>2015-11-22T11:17:48.0000000+00:00</time></trkpt><trkpt lat="30.8889212" lon="35.6898018"><ele>1034.7</ele><time>2015-11-22T11:17:51.0000000+00:00</time></trkpt><trkpt lat="30.8888735" lon="35.6898044"><ele>1033.1</ele><time>2015-11-22T11:17:54.0000000+00:00</time></trkpt><trkpt lat="30.8888171" lon="35.6898029"><ele>1033.1</ele><time>2015-11-22T11:17:58.0000000+00:00</time></trkpt><trkpt lat="30.8887697" lon="35.6897814"><ele>1031.9</ele><time>2015-11-22T11:18:02.0000000+00:00</time></trkpt><trkpt lat="30.8887144" lon="35.6897718"><ele>1032.2</ele><time>2015-11-22T11:18:06.0000000+00:00</time></trkpt><trkpt lat="30.8886656" lon="35.6897632"><ele>1033.6</ele><time>2015-11-22T11:18:09.0000000+00:00</time></trkpt><trkpt lat="30.8886164" lon="35.6897572"><ele>1035.1</ele><time>2015-11-22T11:18:12.0000000+00:00</time></trkpt><trkpt lat="30.8885663" lon="35.689747"><ele>1033.6</ele><time>2015-11-22T11:18:15.0000000+00:00</time></trkpt><trkpt lat="30.8885152" lon="35.689737"><ele>1035.2</ele><time>2015-11-22T11:18:18.0000000+00:00</time></trkpt><trkpt lat="30.8884609" lon="35.6897363"><ele>1035.6</ele><time>2015-11-22T11:18:21.0000000+00:00</time></trkpt><trkpt lat="30.8884095" lon="35.6897217"><ele>1034.3</ele><time>2015-11-22T11:18:24.0000000+00:00</time></trkpt><trkpt lat="30.8883627" lon="35.689697"><ele>1031.4</ele><time>2015-11-22T11:18:27.0000000+00:00</time></trkpt><trkpt lat="30.8883144" lon="35.6896756"><ele>1031.8</ele><time>2015-11-22T11:18:30.0000000+00:00</time></trkpt><trkpt lat="30.8882588" lon="35.6896504"><ele>1030.4</ele><time>2015-11-22T11:18:33.0000000+00:00</time></trkpt><trkpt lat="30.8882093" lon="35.6896293"><ele>1031.3</ele><time>2015-11-22T11:18:36.0000000+00:00</time></trkpt><trkpt lat="30.8881601" lon="35.6896102"><ele>1033.5</ele><time>2015-11-22T11:18:39.0000000+00:00</time></trkpt><trkpt lat="30.8881056" lon="35.6895829"><ele>1032.7</ele><time>2015-11-22T11:18:42.0000000+00:00</time></trkpt><trkpt lat="30.8880528" lon="35.6895483"><ele>1033.7</ele><time>2015-11-22T11:18:45.0000000+00:00</time></trkpt><trkpt lat="30.8880024" lon="35.6895204"><ele>1031.3</ele><time>2015-11-22T11:18:48.0000000+00:00</time></trkpt><trkpt lat="30.8879485" lon="35.6894984"><ele>1030.8</ele><time>2015-11-22T11:18:51.0000000+00:00</time></trkpt><trkpt lat="30.8878949" lon="35.6894675"><ele>1030.8</ele><time>2015-11-22T11:18:54.0000000+00:00</time></trkpt><trkpt lat="30.8878528" lon="35.6894414"><ele>1031.3</ele><time>2015-11-22T11:18:57.0000000+00:00</time></trkpt><trkpt lat="30.8877984" lon="35.6894102"><ele>1030.1</ele><time>2015-11-22T11:19:01.0000000+00:00</time></trkpt><trkpt lat="30.8877468" lon="35.689382"><ele>1028.9</ele><time>2015-11-22T11:19:04.0000000+00:00</time></trkpt><trkpt lat="30.8876967" lon="35.6893684"><ele>1029.0</ele><time>2015-11-22T11:19:07.0000000+00:00</time></trkpt><trkpt lat="30.8876484" lon="35.6893502"><ele>1030.1</ele><time>2015-11-22T11:19:10.0000000+00:00</time></trkpt><trkpt lat="30.8875938" lon="35.6893222"><ele>1027.9</ele><time>2015-11-22T11:19:14.0000000+00:00</time></trkpt><trkpt lat="30.8875451" lon="35.6893006"><ele>1028.8</ele><time>2015-11-22T11:19:17.0000000+00:00</time></trkpt><trkpt lat="30.8874945" lon="35.6892741"><ele>1028.6</ele><time>2015-11-22T11:19:20.0000000+00:00</time></trkpt><trkpt lat="30.8874495" lon="35.6892558"><ele>1028.0</ele><time>2015-11-22T11:19:23.0000000+00:00</time></trkpt><trkpt lat="30.8874075" lon="35.6892352"><ele>1029.2</ele><time>2015-11-22T11:19:26.0000000+00:00</time></trkpt><trkpt lat="30.887364" lon="35.6892105"><ele>1030.4</ele><time>2015-11-22T11:19:29.0000000+00:00</time></trkpt><trkpt lat="30.8873075" lon="35.6891822"><ele>1028.3</ele><time>2015-11-22T11:19:32.0000000+00:00</time></trkpt><trkpt lat="30.8872526" lon="35.6891571"><ele>1030.0</ele><time>2015-11-22T11:19:35.0000000+00:00</time></trkpt><trkpt lat="30.887197" lon="35.6891301"><ele>1030.7</ele><time>2015-11-22T11:19:38.0000000+00:00</time></trkpt><trkpt lat="30.8871334" lon="35.6891052"><ele>1031.7</ele><time>2015-11-22T11:19:41.0000000+00:00</time></trkpt><trkpt lat="30.8870883" lon="35.6890967"><ele>1032.7</ele><time>2015-11-22T11:19:43.0000000+00:00</time></trkpt><trkpt lat="30.8870247" lon="35.6890848"><ele>1034.4</ele><time>2015-11-22T11:19:46.0000000+00:00</time></trkpt><trkpt lat="30.8869692" lon="35.6890851"><ele>1043.0</ele><time>2015-11-22T11:19:49.0000000+00:00</time></trkpt><trkpt lat="30.8869348" lon="35.6890444"><ele>1060.9</ele><time>2015-11-22T11:20:10.0000000+00:00</time></trkpt><trkpt lat="30.8868832" lon="35.6890403"><ele>1060.7</ele><time>2015-11-22T11:20:14.0000000+00:00</time></trkpt><trkpt lat="30.88683" lon="35.6890299"><ele>1062.7</ele><time>2015-11-22T11:20:17.0000000+00:00</time></trkpt><trkpt lat="30.8867697" lon="35.6890151"><ele>1063.7</ele><time>2015-11-22T11:20:20.0000000+00:00</time></trkpt><trkpt lat="30.8867036" lon="35.6889971"><ele>1064.1</ele><time>2015-11-22T11:20:23.0000000+00:00</time></trkpt><trkpt lat="30.8866576" lon="35.6889875"><ele>1064.8</ele><time>2015-11-22T11:20:25.0000000+00:00</time></trkpt><trkpt lat="30.8866118" lon="35.6889749"><ele>1065.3</ele><time>2015-11-22T11:20:27.0000000+00:00</time></trkpt><trkpt lat="30.886563" lon="35.6889626"><ele>1067.4</ele><time>2015-11-22T11:20:29.0000000+00:00</time></trkpt><trkpt lat="30.8865125" lon="35.6889552"><ele>1069.6</ele><time>2015-11-22T11:20:31.0000000+00:00</time></trkpt><trkpt lat="30.8864623" lon="35.6889472"><ele>1070.5</ele><time>2015-11-22T11:20:33.0000000+00:00</time></trkpt><trkpt lat="30.8864132" lon="35.6889369"><ele>1070.7</ele><time>2015-11-22T11:20:35.0000000+00:00</time></trkpt><trkpt lat="30.8863663" lon="35.6889245"><ele>1070.5</ele><time>2015-11-22T11:20:37.0000000+00:00</time></trkpt><trkpt lat="30.8863177" lon="35.6889134"><ele>1070.7</ele><time>2015-11-22T11:20:39.0000000+00:00</time></trkpt><trkpt lat="30.8862719" lon="35.6889044"><ele>1071.2</ele><time>2015-11-22T11:20:41.0000000+00:00</time></trkpt><trkpt lat="30.8862257" lon="35.6889001"><ele>1072.6</ele><time>2015-11-22T11:20:43.0000000+00:00</time></trkpt><trkpt lat="30.8861797" lon="35.6888924"><ele>1073.2</ele><time>2015-11-22T11:20:45.0000000+00:00</time></trkpt><trkpt lat="30.8861333" lon="35.6888837"><ele>1073.3</ele><time>2015-11-22T11:20:47.0000000+00:00</time></trkpt><trkpt lat="30.8860876" lon="35.6888763"><ele>1072.6</ele><time>2015-11-22T11:20:49.0000000+00:00</time></trkpt><trkpt lat="30.8860427" lon="35.688866"><ele>1072.7</ele><time>2015-11-22T11:20:51.0000000+00:00</time></trkpt><trkpt lat="30.8859981" lon="35.6888565"><ele>1073.7</ele><time>2015-11-22T11:20:53.0000000+00:00</time></trkpt><trkpt lat="30.8859392" lon="35.6888416"><ele>1072.7</ele><time>2015-11-22T11:20:56.0000000+00:00</time></trkpt><trkpt lat="30.8858946" lon="35.6888225"><ele>1071.7</ele><time>2015-11-22T11:20:59.0000000+00:00</time></trkpt><trkpt lat="30.8858464" lon="35.6888034"><ele>1071.9</ele><time>2015-11-22T11:21:02.0000000+00:00</time></trkpt><trkpt lat="30.8857907" lon="35.6887904"><ele>1072.6</ele><time>2015-11-22T11:21:05.0000000+00:00</time></trkpt><trkpt lat="30.8857324" lon="35.6887748"><ele>1074.5</ele><time>2015-11-22T11:21:08.0000000+00:00</time></trkpt><trkpt lat="30.8856737" lon="35.6887609"><ele>1074.5</ele><time>2015-11-22T11:21:11.0000000+00:00</time></trkpt><trkpt lat="30.8856178" lon="35.688742"><ele>1074.8</ele><time>2015-11-22T11:21:14.0000000+00:00</time></trkpt><trkpt lat="30.8855635" lon="35.6887231"><ele>1074.4</ele><time>2015-11-22T11:21:17.0000000+00:00</time></trkpt><trkpt lat="30.8855058" lon="35.6887059"><ele>1075.0</ele><time>2015-11-22T11:21:20.0000000+00:00</time></trkpt><trkpt lat="30.8854454" lon="35.688691"><ele>1075.4</ele><time>2015-11-22T11:21:23.0000000+00:00</time></trkpt><trkpt lat="30.8853857" lon="35.6886723"><ele>1075.4</ele><time>2015-11-22T11:21:26.0000000+00:00</time></trkpt><trkpt lat="30.8853274" lon="35.6886497"><ele>1076.3</ele><time>2015-11-22T11:21:29.0000000+00:00</time></trkpt><trkpt lat="30.8852671" lon="35.6886342"><ele>1077.5</ele><time>2015-11-22T11:21:32.0000000+00:00</time></trkpt><trkpt lat="30.8852116" lon="35.6886131"><ele>1078.2</ele><time>2015-11-22T11:21:35.0000000+00:00</time></trkpt><trkpt lat="30.8851559" lon="35.688582"><ele>1078.7</ele><time>2015-11-22T11:21:38.0000000+00:00</time></trkpt><trkpt lat="30.8850988" lon="35.6885456"><ele>1077.7</ele><time>2015-11-22T11:21:41.0000000+00:00</time></trkpt><trkpt lat="30.8850382" lon="35.6885187"><ele>1080.6</ele><time>2015-11-22T11:21:44.0000000+00:00</time></trkpt><trkpt lat="30.8849774" lon="35.6884954"><ele>1080.5</ele><time>2015-11-22T11:21:47.0000000+00:00</time></trkpt><trkpt lat="30.8849223" lon="35.6884648"><ele>1080.4</ele><time>2015-11-22T11:21:50.0000000+00:00</time></trkpt><trkpt lat="30.8848651" lon="35.6884404"><ele>1080.8</ele><time>2015-11-22T11:21:53.0000000+00:00</time></trkpt><trkpt lat="30.8848125" lon="35.6884067"><ele>1080.4</ele><time>2015-11-22T11:21:56.0000000+00:00</time></trkpt><trkpt lat="30.884762" lon="35.6883698"><ele>1080.4</ele><time>2015-11-22T11:21:59.0000000+00:00</time></trkpt><trkpt lat="30.8847124" lon="35.6883339"><ele>1080.4</ele><time>2015-11-22T11:22:02.0000000+00:00</time></trkpt><trkpt lat="30.8846636" lon="35.6882942"><ele>1080.8</ele><time>2015-11-22T11:22:05.0000000+00:00</time></trkpt><trkpt lat="30.8846177" lon="35.6882525"><ele>1080.4</ele><time>2015-11-22T11:22:08.0000000+00:00</time></trkpt><trkpt lat="30.8845755" lon="35.6882014"><ele>1079.5</ele><time>2015-11-22T11:22:11.0000000+00:00</time></trkpt><trkpt lat="30.884531" lon="35.6881535"><ele>1079.0</ele><time>2015-11-22T11:22:14.0000000+00:00</time></trkpt><trkpt lat="30.8844841" lon="35.6881103"><ele>1080.1</ele><time>2015-11-22T11:22:17.0000000+00:00</time></trkpt><trkpt lat="30.8844377" lon="35.6880657"><ele>1080.0</ele><time>2015-11-22T11:22:20.0000000+00:00</time></trkpt><trkpt lat="30.8843982" lon="35.6880323"><ele>1080.8</ele><time>2015-11-22T11:22:23.0000000+00:00</time></trkpt><trkpt lat="30.8843442" lon="35.6880042"><ele>1082.4</ele><time>2015-11-22T11:24:31.0000000+00:00</time></trkpt><trkpt lat="30.8842993" lon="35.6879806"><ele>1083.6</ele><time>2015-11-22T11:24:34.0000000+00:00</time></trkpt><trkpt lat="30.8842529" lon="35.6879535"><ele>1084.3</ele><time>2015-11-22T11:24:37.0000000+00:00</time></trkpt><trkpt lat="30.8842091" lon="35.6879345"><ele>1084.4</ele><time>2015-11-22T11:24:40.0000000+00:00</time></trkpt><trkpt lat="30.8841518" lon="35.687915"><ele>1084.5</ele><time>2015-11-22T11:24:44.0000000+00:00</time></trkpt><trkpt lat="30.8841077" lon="35.6879039"><ele>1085.8</ele><time>2015-11-22T11:24:47.0000000+00:00</time></trkpt><trkpt lat="30.8840631" lon="35.687895"><ele>1086.3</ele><time>2015-11-22T11:24:50.0000000+00:00</time></trkpt><trkpt lat="30.8840185" lon="35.6878827"><ele>1086.0</ele><time>2015-11-22T11:24:53.0000000+00:00</time></trkpt><trkpt lat="30.8839742" lon="35.687872"><ele>1085.6</ele><time>2015-11-22T11:24:56.0000000+00:00</time></trkpt><trkpt lat="30.88393" lon="35.6878598"><ele>1086.3</ele><time>2015-11-22T11:24:59.0000000+00:00</time></trkpt><trkpt lat="30.8838842" lon="35.6878502"><ele>1086.1</ele><time>2015-11-22T11:25:02.0000000+00:00</time></trkpt><trkpt lat="30.8838387" lon="35.6878413"><ele>1085.4</ele><time>2015-11-22T11:25:05.0000000+00:00</time></trkpt><trkpt lat="30.8837928" lon="35.6878353"><ele>1085.9</ele><time>2015-11-22T11:25:08.0000000+00:00</time></trkpt><trkpt lat="30.8837478" lon="35.6878267"><ele>1086.3</ele><time>2015-11-22T11:25:11.0000000+00:00</time></trkpt><trkpt lat="30.8837013" lon="35.6878228"><ele>1086.9</ele><time>2015-11-22T11:25:14.0000000+00:00</time></trkpt><trkpt lat="30.8836512" lon="35.6878279"><ele>1087.3</ele><time>2015-11-22T11:25:17.0000000+00:00</time></trkpt><trkpt lat="30.8836024" lon="35.6878246"><ele>1087.9</ele><time>2015-11-22T11:25:20.0000000+00:00</time></trkpt><trkpt lat="30.8835501" lon="35.6878181"><ele>1088.1</ele><time>2015-11-22T11:25:23.0000000+00:00</time></trkpt><trkpt lat="30.8834995" lon="35.6878077"><ele>1089.1</ele><time>2015-11-22T11:25:26.0000000+00:00</time></trkpt><trkpt lat="30.8834485" lon="35.6877989"><ele>1091.2</ele><time>2015-11-22T11:25:29.0000000+00:00</time></trkpt><trkpt lat="30.8834021" lon="35.6877889"><ele>1092.3</ele><time>2015-11-22T11:25:32.0000000+00:00</time></trkpt><trkpt lat="30.883358" lon="35.6877766"><ele>1093.4</ele><time>2015-11-22T11:25:35.0000000+00:00</time></trkpt><trkpt lat="30.883312" lon="35.6877622"><ele>1094.3</ele><time>2015-11-22T11:25:38.0000000+00:00</time></trkpt><trkpt lat="30.8832662" lon="35.6877505"><ele>1095.1</ele><time>2015-11-22T11:25:41.0000000+00:00</time></trkpt><trkpt lat="30.8832168" lon="35.6877417"><ele>1096.6</ele><time>2015-11-22T11:25:44.0000000+00:00</time></trkpt><trkpt lat="30.8831697" lon="35.6877303"><ele>1098.7</ele><time>2015-11-22T11:25:47.0000000+00:00</time></trkpt><trkpt lat="30.8831222" lon="35.6877222"><ele>1098.8</ele><time>2015-11-22T11:25:50.0000000+00:00</time></trkpt><trkpt lat="30.8830754" lon="35.687702"><ele>1097.6</ele><time>2015-11-22T11:25:53.0000000+00:00</time></trkpt><trkpt lat="30.8830263" lon="35.6876833"><ele>1095.7</ele><time>2015-11-22T11:25:56.0000000+00:00</time></trkpt><trkpt lat="30.8829804" lon="35.6876697"><ele>1097.7</ele><time>2015-11-22T11:25:59.0000000+00:00</time></trkpt><trkpt lat="30.8829329" lon="35.6876599"><ele>1099.1</ele><time>2015-11-22T11:26:02.0000000+00:00</time></trkpt><trkpt lat="30.8828878" lon="35.6876415"><ele>1098.9</ele><time>2015-11-22T11:26:05.0000000+00:00</time></trkpt><trkpt lat="30.8828341" lon="35.6876315"><ele>1101.2</ele><time>2015-11-22T11:26:08.0000000+00:00</time></trkpt><trkpt lat="30.8827802" lon="35.6876256"><ele>1102.2</ele><time>2015-11-22T11:26:11.0000000+00:00</time></trkpt><trkpt lat="30.8827354" lon="35.6876109"><ele>1099.6</ele><time>2015-11-22T11:26:14.0000000+00:00</time></trkpt><trkpt lat="30.8826801" lon="35.68759"><ele>1099.1</ele><time>2015-11-22T11:26:18.0000000+00:00</time></trkpt><trkpt lat="30.8826245" lon="35.6875757"><ele>1099.8</ele><time>2015-11-22T11:26:22.0000000+00:00</time></trkpt><trkpt lat="30.8825794" lon="35.6875651"><ele>1099.9</ele><time>2015-11-22T11:26:25.0000000+00:00</time></trkpt><trkpt lat="30.8825272" lon="35.687558"><ele>1100.0</ele><time>2015-11-22T11:26:28.0000000+00:00</time></trkpt><trkpt lat="30.8824778" lon="35.6875532"><ele>1099.5</ele><time>2015-11-22T11:26:31.0000000+00:00</time></trkpt><trkpt lat="30.8824274" lon="35.6875438"><ele>1100.5</ele><time>2015-11-22T11:26:34.0000000+00:00</time></trkpt><trkpt lat="30.8823782" lon="35.6875366"><ele>1101.8</ele><time>2015-11-22T11:26:37.0000000+00:00</time></trkpt><trkpt lat="30.8823296" lon="35.6875405"><ele>1103.9</ele><time>2015-11-22T11:26:40.0000000+00:00</time></trkpt><trkpt lat="30.8822789" lon="35.6875463"><ele>1105.1</ele><time>2015-11-22T11:26:43.0000000+00:00</time></trkpt><trkpt lat="30.8822299" lon="35.6875447"><ele>1106.2</ele><time>2015-11-22T11:26:46.0000000+00:00</time></trkpt><trkpt lat="30.8821721" lon="35.687537"><ele>1108.3</ele><time>2015-11-22T11:26:50.0000000+00:00</time></trkpt><trkpt lat="30.8821113" lon="35.6875329"><ele>1108.5</ele><time>2015-11-22T11:26:54.0000000+00:00</time></trkpt><trkpt lat="30.8820515" lon="35.68753"><ele>1108.4</ele><time>2015-11-22T11:26:58.0000000+00:00</time></trkpt><trkpt lat="30.8820022" lon="35.6875331"><ele>1108.4</ele><time>2015-11-22T11:27:01.0000000+00:00</time></trkpt><trkpt lat="30.8819513" lon="35.6875355"><ele>1108.4</ele><time>2015-11-22T11:27:04.0000000+00:00</time></trkpt><trkpt lat="30.8819" lon="35.6875392"><ele>1107.8</ele><time>2015-11-22T11:27:07.0000000+00:00</time></trkpt><trkpt lat="30.8818486" lon="35.6875503"><ele>1108.2</ele><time>2015-11-22T11:27:10.0000000+00:00</time></trkpt><trkpt lat="30.881794" lon="35.6875565"><ele>1108.4</ele><time>2015-11-22T11:27:13.0000000+00:00</time></trkpt><trkpt lat="30.8817405" lon="35.6875639"><ele>1109.3</ele><time>2015-11-22T11:27:16.0000000+00:00</time></trkpt><trkpt lat="30.8816863" lon="35.6875725"><ele>1109.4</ele><time>2015-11-22T11:27:19.0000000+00:00</time></trkpt><trkpt lat="30.8816406" lon="35.6875801"><ele>1109.4</ele><time>2015-11-22T11:27:22.0000000+00:00</time></trkpt><trkpt lat="30.8815958" lon="35.687588"><ele>1109.4</ele><time>2015-11-22T11:27:25.0000000+00:00</time></trkpt><trkpt lat="30.8815478" lon="35.6875997"><ele>1109.4</ele><time>2015-11-22T11:27:28.0000000+00:00</time></trkpt><trkpt lat="30.8814895" lon="35.6876096"><ele>1109.9</ele><time>2015-11-22T11:27:31.0000000+00:00</time></trkpt><trkpt lat="30.881425" lon="35.6876173"><ele>1110.3</ele><time>2015-11-22T11:27:34.0000000+00:00</time></trkpt><trkpt lat="30.8813677" lon="35.6876304"><ele>1109.9</ele><time>2015-11-22T11:27:37.0000000+00:00</time></trkpt><trkpt lat="30.8813093" lon="35.6876427"><ele>1110.3</ele><time>2015-11-22T11:27:40.0000000+00:00</time></trkpt><trkpt lat="30.8812356" lon="35.687655"><ele>1110.9</ele><time>2015-11-22T11:27:43.0000000+00:00</time></trkpt><trkpt lat="30.8811902" lon="35.6876651"><ele>1111.3</ele><time>2015-11-22T11:27:45.0000000+00:00</time></trkpt><trkpt lat="30.8811388" lon="35.6876685"><ele>1111.4</ele><time>2015-11-22T11:27:48.0000000+00:00</time></trkpt><trkpt lat="30.8810814" lon="35.6876753"><ele>1111.4</ele><time>2015-11-22T11:27:51.0000000+00:00</time></trkpt><trkpt lat="30.8810324" lon="35.6876828"><ele>1111.4</ele><time>2015-11-22T11:27:53.0000000+00:00</time></trkpt><trkpt lat="30.8809818" lon="35.6876888"><ele>1111.4</ele><time>2015-11-22T11:27:55.0000000+00:00</time></trkpt><trkpt lat="30.8809306" lon="35.6876947"><ele>1111.4</ele><time>2015-11-22T11:27:57.0000000+00:00</time></trkpt><trkpt lat="30.8808825" lon="35.6876993"><ele>1111.4</ele><time>2015-11-22T11:27:59.0000000+00:00</time></trkpt><trkpt lat="30.8808372" lon="35.6877001"><ele>1111.4</ele><time>2015-11-22T11:28:02.0000000+00:00</time></trkpt><trkpt lat="30.8807826" lon="35.6876972"><ele>1112.1</ele><time>2015-11-22T11:28:06.0000000+00:00</time></trkpt><trkpt lat="30.8807323" lon="35.6876939"><ele>1112.3</ele><time>2015-11-22T11:28:08.0000000+00:00</time></trkpt><trkpt lat="30.8806666" lon="35.6876931"><ele>1112.4</ele><time>2015-11-22T11:28:11.0000000+00:00</time></trkpt><trkpt lat="30.880609" lon="35.687693"><ele>1112.4</ele><time>2015-11-22T11:28:15.0000000+00:00</time></trkpt><trkpt lat="30.8805524" lon="35.687694"><ele>1112.4</ele><time>2015-11-22T11:28:18.0000000+00:00</time></trkpt><trkpt lat="30.8804935" lon="35.6876846"><ele>1112.9</ele><time>2015-11-22T11:28:20.0000000+00:00</time></trkpt><trkpt lat="30.8804082" lon="35.6876791"><ele>1113.0</ele><time>2015-11-22T11:28:23.0000000+00:00</time></trkpt><trkpt lat="30.8803525" lon="35.6876766"><ele>1113.3</ele><time>2015-11-22T11:28:25.0000000+00:00</time></trkpt><trkpt lat="30.8803025" lon="35.6876707"><ele>1113.1</ele><time>2015-11-22T11:28:27.0000000+00:00</time></trkpt><trkpt lat="30.8802509" lon="35.6876663"><ele>1112.6</ele><time>2015-11-22T11:28:30.0000000+00:00</time></trkpt><trkpt lat="30.8801959" lon="35.6876612"><ele>1112.4</ele><time>2015-11-22T11:28:34.0000000+00:00</time></trkpt><trkpt lat="30.8801347" lon="35.6876536"><ele>1112.9</ele><time>2015-11-22T11:28:37.0000000+00:00</time></trkpt><trkpt lat="30.8800838" lon="35.6876484"><ele>1113.3</ele><time>2015-11-22T11:28:39.0000000+00:00</time></trkpt><trkpt lat="30.8800224" lon="35.6876432"><ele>1113.4</ele><time>2015-11-22T11:28:42.0000000+00:00</time></trkpt><trkpt lat="30.8799532" lon="35.6876378"><ele>1113.9</ele><time>2015-11-22T11:28:45.0000000+00:00</time></trkpt><trkpt lat="30.8799048" lon="35.6876358"><ele>1114.3</ele><time>2015-11-22T11:28:47.0000000+00:00</time></trkpt><trkpt lat="30.8798382" lon="35.6876359"><ele>1114.4</ele><time>2015-11-22T11:28:50.0000000+00:00</time></trkpt><trkpt lat="30.8797812" lon="35.6876305"><ele>1114.9</ele><time>2015-11-22T11:28:54.0000000+00:00</time></trkpt><trkpt lat="30.8797156" lon="35.6876307"><ele>1116.2</ele><time>2015-11-22T11:28:57.0000000+00:00</time></trkpt><trkpt lat="30.8796593" lon="35.6876285"><ele>1116.4</ele><time>2015-11-22T11:28:59.0000000+00:00</time></trkpt><trkpt lat="30.8795995" lon="35.6876238"><ele>1116.9</ele><time>2015-11-22T11:29:01.0000000+00:00</time></trkpt><trkpt lat="30.8795461" lon="35.6876222"><ele>1118.0</ele><time>2015-11-22T11:29:03.0000000+00:00</time></trkpt><trkpt lat="30.8794946" lon="35.6876189"><ele>1118.3</ele><time>2015-11-22T11:29:05.0000000+00:00</time></trkpt><trkpt lat="30.8794422" lon="35.6876144"><ele>1118.9</ele><time>2015-11-22T11:29:07.0000000+00:00</time></trkpt><trkpt lat="30.8793882" lon="35.6876109"><ele>1119.3</ele><time>2015-11-22T11:29:09.0000000+00:00</time></trkpt><trkpt lat="30.8793323" lon="35.6876097"><ele>1119.4</ele><time>2015-11-22T11:29:11.0000000+00:00</time></trkpt><trkpt lat="30.8792793" lon="35.6876051"><ele>1119.4</ele><time>2015-11-22T11:29:13.0000000+00:00</time></trkpt><trkpt lat="30.8792263" lon="35.6876005"><ele>1119.4</ele><time>2015-11-22T11:29:15.0000000+00:00</time></trkpt><trkpt lat="30.8791718" lon="35.6875925"><ele>1120.1</ele><time>2015-11-22T11:29:17.0000000+00:00</time></trkpt><trkpt lat="30.8791155" lon="35.6875861"><ele>1120.3</ele><time>2015-11-22T11:29:19.0000000+00:00</time></trkpt><trkpt lat="30.8790605" lon="35.6875829"><ele>1120.6</ele><time>2015-11-22T11:29:21.0000000+00:00</time></trkpt><trkpt lat="30.8790067" lon="35.6875778"><ele>1120.2</ele><time>2015-11-22T11:29:23.0000000+00:00</time></trkpt><trkpt lat="30.878954" lon="35.6875758"><ele>1120.9</ele><time>2015-11-22T11:29:25.0000000+00:00</time></trkpt><trkpt lat="30.8789038" lon="35.687575"><ele>1121.8</ele><time>2015-11-22T11:29:27.0000000+00:00</time></trkpt><trkpt lat="30.8788561" lon="35.687569"><ele>1121.7</ele><time>2015-11-22T11:29:29.0000000+00:00</time></trkpt><trkpt lat="30.8788086" lon="35.6875659"><ele>1121.7</ele><time>2015-11-22T11:29:31.0000000+00:00</time></trkpt><trkpt lat="30.8787615" lon="35.6875632"><ele>1121.5</ele><time>2015-11-22T11:29:33.0000000+00:00</time></trkpt><trkpt lat="30.8787146" lon="35.6875566"><ele>1121.7</ele><time>2015-11-22T11:29:35.0000000+00:00</time></trkpt><trkpt lat="30.8786687" lon="35.6875533"><ele>1122.0</ele><time>2015-11-22T11:29:37.0000000+00:00</time></trkpt><trkpt lat="30.8786026" lon="35.6875471"><ele>1122.8</ele><time>2015-11-22T11:29:40.0000000+00:00</time></trkpt><trkpt lat="30.8785363" lon="35.6875401"><ele>1121.7</ele><time>2015-11-22T11:29:43.0000000+00:00</time></trkpt><trkpt lat="30.8784905" lon="35.6875355"><ele>1120.0</ele><time>2015-11-22T11:29:45.0000000+00:00</time></trkpt><trkpt lat="30.8784432" lon="35.687531"><ele>1119.5</ele><time>2015-11-22T11:29:47.0000000+00:00</time></trkpt><trkpt lat="30.8783943" lon="35.687531"><ele>1119.4</ele><time>2015-11-22T11:29:49.0000000+00:00</time></trkpt><trkpt lat="30.8783466" lon="35.6875304"><ele>1118.7</ele><time>2015-11-22T11:29:51.0000000+00:00</time></trkpt><trkpt lat="30.8783003" lon="35.6875257"><ele>1118.5</ele><time>2015-11-22T11:29:53.0000000+00:00</time></trkpt><trkpt lat="30.8782542" lon="35.6875203"><ele>1119.2</ele><time>2015-11-22T11:29:55.0000000+00:00</time></trkpt><trkpt lat="30.8781934" lon="35.6875078"><ele>1118.9</ele><time>2015-11-22T11:29:58.0000000+00:00</time></trkpt><trkpt lat="30.8781362" lon="35.6874925"><ele>1119.1</ele><time>2015-11-22T11:30:01.0000000+00:00</time></trkpt><trkpt lat="30.8780796" lon="35.6874712"><ele>1119.9</ele><time>2015-11-22T11:30:04.0000000+00:00</time></trkpt><trkpt lat="30.8780215" lon="35.6874518"><ele>1121.7</ele><time>2015-11-22T11:30:07.0000000+00:00</time></trkpt><trkpt lat="30.8779648" lon="35.6874316"><ele>1122.7</ele><time>2015-11-22T11:30:10.0000000+00:00</time></trkpt><trkpt lat="30.8779109" lon="35.6874068"><ele>1121.6</ele><time>2015-11-22T11:30:13.0000000+00:00</time></trkpt><trkpt lat="30.8778592" lon="35.6873734"><ele>1120.9</ele><time>2015-11-22T11:30:16.0000000+00:00</time></trkpt><trkpt lat="30.8778123" lon="35.6873383"><ele>1119.7</ele><time>2015-11-22T11:30:19.0000000+00:00</time></trkpt><trkpt lat="30.8777631" lon="35.6873064"><ele>1119.9</ele><time>2015-11-22T11:30:22.0000000+00:00</time></trkpt><trkpt lat="30.8777114" lon="35.6872728"><ele>1121.1</ele><time>2015-11-22T11:30:25.0000000+00:00</time></trkpt><trkpt lat="30.8776586" lon="35.6872417"><ele>1121.4</ele><time>2015-11-22T11:30:28.0000000+00:00</time></trkpt><trkpt lat="30.8776121" lon="35.6871992"><ele>1121.3</ele><time>2015-11-22T11:30:31.0000000+00:00</time></trkpt><trkpt lat="30.8775687" lon="35.6871549"><ele>1121.4</ele><time>2015-11-22T11:30:34.0000000+00:00</time></trkpt><trkpt lat="30.877526" lon="35.6871156"><ele>1122.3</ele><time>2015-11-22T11:30:37.0000000+00:00</time></trkpt><trkpt lat="30.8774816" lon="35.687077"><ele>1123.1</ele><time>2015-11-22T11:30:40.0000000+00:00</time></trkpt><trkpt lat="30.8774369" lon="35.6870391"><ele>1123.5</ele><time>2015-11-22T11:30:43.0000000+00:00</time></trkpt><trkpt lat="30.8773965" lon="35.6869979"><ele>1123.0</ele><time>2015-11-22T11:30:46.0000000+00:00</time></trkpt><trkpt lat="30.8773562" lon="35.6869592"><ele>1123.2</ele><time>2015-11-22T11:30:49.0000000+00:00</time></trkpt><trkpt lat="30.8773146" lon="35.6869196"><ele>1123.4</ele><time>2015-11-22T11:30:52.0000000+00:00</time></trkpt><trkpt lat="30.8772718" lon="35.6868819"><ele>1123.1</ele><time>2015-11-22T11:30:55.0000000+00:00</time></trkpt><trkpt lat="30.8772263" lon="35.6868414"><ele>1123.4</ele><time>2015-11-22T11:30:58.0000000+00:00</time></trkpt><trkpt lat="30.8771826" lon="35.6868"><ele>1122.4</ele><time>2015-11-22T11:31:01.0000000+00:00</time></trkpt><trkpt lat="30.8771422" lon="35.6867591"><ele>1120.6</ele><time>2015-11-22T11:31:04.0000000+00:00</time></trkpt><trkpt lat="30.8771026" lon="35.686725"><ele>1121.8</ele><time>2015-11-22T11:31:07.0000000+00:00</time></trkpt><trkpt lat="30.8770659" lon="35.6866929"><ele>1123.2</ele><time>2015-11-22T11:31:10.0000000+00:00</time></trkpt><trkpt lat="30.8770266" lon="35.6866612"><ele>1121.9</ele><time>2015-11-22T11:31:13.0000000+00:00</time></trkpt><trkpt lat="30.8769862" lon="35.686633"><ele>1122.8</ele><time>2015-11-22T11:31:16.0000000+00:00</time></trkpt><trkpt lat="30.8769482" lon="35.6866003"><ele>1123.6</ele><time>2015-11-22T11:31:19.0000000+00:00</time></trkpt><trkpt lat="30.8769092" lon="35.6865661"><ele>1125.5</ele><time>2015-11-22T11:31:22.0000000+00:00</time></trkpt><trkpt lat="30.8768728" lon="35.6865249"><ele>1125.4</ele><time>2015-11-22T11:31:25.0000000+00:00</time></trkpt><trkpt lat="30.8768296" lon="35.6864834"><ele>1125.9</ele><time>2015-11-22T11:31:28.0000000+00:00</time></trkpt><trkpt lat="30.876783" lon="35.686446"><ele>1125.3</ele><time>2015-11-22T11:31:31.0000000+00:00</time></trkpt><trkpt lat="30.8767416" lon="35.6864029"><ele>1124.6</ele><time>2015-11-22T11:31:34.0000000+00:00</time></trkpt><trkpt lat="30.8766984" lon="35.686359"><ele>1124.1</ele><time>2015-11-22T11:31:37.0000000+00:00</time></trkpt><trkpt lat="30.8766546" lon="35.686315"><ele>1123.6</ele><time>2015-11-22T11:31:40.0000000+00:00</time></trkpt><trkpt lat="30.876617" lon="35.6862694"><ele>1123.4</ele><time>2015-11-22T11:31:43.0000000+00:00</time></trkpt><trkpt lat="30.8766238" lon="35.6862049"><ele>1124.7</ele><time>2015-11-22T11:31:46.0000000+00:00</time></trkpt><trkpt lat="30.8765755" lon="35.6862042"><ele>1139.4</ele><time>2015-11-22T11:38:53.0000000+00:00</time></trkpt><trkpt lat="30.876534" lon="35.6861646"><ele>1139.4</ele><time>2015-11-22T11:39:02.0000000+00:00</time></trkpt><trkpt lat="30.8764978" lon="35.6861293"><ele>1139.4</ele><time>2015-11-22T11:39:05.0000000+00:00</time></trkpt><trkpt lat="30.8764525" lon="35.6860916"><ele>1139.4</ele><time>2015-11-22T11:39:08.0000000+00:00</time></trkpt><trkpt lat="30.8764093" lon="35.6860402"><ele>1139.4</ele><time>2015-11-22T11:39:11.0000000+00:00</time></trkpt><trkpt lat="30.8763594" lon="35.6859804"><ele>1139.9</ele><time>2015-11-22T11:39:14.0000000+00:00</time></trkpt><trkpt lat="30.876327" lon="35.6859359"><ele>1139.5</ele><time>2015-11-22T11:39:16.0000000+00:00</time></trkpt><trkpt lat="30.8762951" lon="35.685898"><ele>1139.4</ele><time>2015-11-22T11:39:18.0000000+00:00</time></trkpt><trkpt lat="30.8762627" lon="35.6858614"><ele>1140.2</ele><time>2015-11-22T11:39:20.0000000+00:00</time></trkpt><trkpt lat="30.8762334" lon="35.6858201"><ele>1140.3</ele><time>2015-11-22T11:39:22.0000000+00:00</time></trkpt><trkpt lat="30.8762083" lon="35.6857718"><ele>1140.9</ele><time>2015-11-22T11:39:24.0000000+00:00</time></trkpt><trkpt lat="30.8761791" lon="35.6857222"><ele>1141.3</ele><time>2015-11-22T11:39:26.0000000+00:00</time></trkpt><trkpt lat="30.8761403" lon="35.685674"><ele>1140.9</ele><time>2015-11-22T11:39:28.0000000+00:00</time></trkpt><trkpt lat="30.8760989" lon="35.6856208"><ele>1140.5</ele><time>2015-11-22T11:39:30.0000000+00:00</time></trkpt><trkpt lat="30.8760601" lon="35.6855679"><ele>1141.2</ele><time>2015-11-22T11:39:32.0000000+00:00</time></trkpt><trkpt lat="30.8760298" lon="35.6855166"><ele>1141.3</ele><time>2015-11-22T11:39:34.0000000+00:00</time></trkpt><trkpt lat="30.8760039" lon="35.6854672"><ele>1141.4</ele><time>2015-11-22T11:39:36.0000000+00:00</time></trkpt><trkpt lat="30.875974" lon="35.6854233"><ele>1141.4</ele><time>2015-11-22T11:39:38.0000000+00:00</time></trkpt><trkpt lat="30.8759401" lon="35.6853816"><ele>1141.4</ele><time>2015-11-22T11:39:40.0000000+00:00</time></trkpt><trkpt lat="30.8758919" lon="35.6853294"><ele>1141.4</ele><time>2015-11-22T11:39:43.0000000+00:00</time></trkpt><trkpt lat="30.8758477" lon="35.68527"><ele>1140.9</ele><time>2015-11-22T11:39:46.0000000+00:00</time></trkpt><trkpt lat="30.8758208" lon="35.6852263"><ele>1140.5</ele><time>2015-11-22T11:39:48.0000000+00:00</time></trkpt><trkpt lat="30.8757928" lon="35.6851788"><ele>1140.4</ele><time>2015-11-22T11:39:50.0000000+00:00</time></trkpt><trkpt lat="30.875764" lon="35.6851303"><ele>1140.4</ele><time>2015-11-22T11:39:52.0000000+00:00</time></trkpt><trkpt lat="30.8757298" lon="35.6850824"><ele>1140.4</ele><time>2015-11-22T11:39:54.0000000+00:00</time></trkpt><trkpt lat="30.875696" lon="35.6850304"><ele>1140.6</ele><time>2015-11-22T11:39:56.0000000+00:00</time></trkpt><trkpt lat="30.8756642" lon="35.6849754"><ele>1140.7</ele><time>2015-11-22T11:39:58.0000000+00:00</time></trkpt><trkpt lat="30.8756354" lon="35.684923"><ele>1140.5</ele><time>2015-11-22T11:40:00.0000000+00:00</time></trkpt><trkpt lat="30.8756042" lon="35.6848722"><ele>1140.4</ele><time>2015-11-22T11:40:02.0000000+00:00</time></trkpt><trkpt lat="30.8755723" lon="35.6848199"><ele>1141.2</ele><time>2015-11-22T11:40:04.0000000+00:00</time></trkpt><trkpt lat="30.8755473" lon="35.6847626"><ele>1141.3</ele><time>2015-11-22T11:40:06.0000000+00:00</time></trkpt><trkpt lat="30.8755254" lon="35.6847008"><ele>1141.4</ele><time>2015-11-22T11:40:08.0000000+00:00</time></trkpt><trkpt lat="30.8755065" lon="35.6846354"><ele>1141.4</ele><time>2015-11-22T11:40:10.0000000+00:00</time></trkpt><trkpt lat="30.8754838" lon="35.6845718"><ele>1142.1</ele><time>2015-11-22T11:40:12.0000000+00:00</time></trkpt><trkpt lat="30.8754649" lon="35.6845067"><ele>1142.3</ele><time>2015-11-22T11:40:14.0000000+00:00</time></trkpt><trkpt lat="30.8754581" lon="35.6844406"><ele>1142.4</ele><time>2015-11-22T11:40:16.0000000+00:00</time></trkpt><trkpt lat="30.8754494" lon="35.6843774"><ele>1142.4</ele><time>2015-11-22T11:40:18.0000000+00:00</time></trkpt><trkpt lat="30.8754351" lon="35.6843147"><ele>1142.9</ele><time>2015-11-22T11:40:20.0000000+00:00</time></trkpt><trkpt lat="30.8754276" lon="35.68425"><ele>1143.3</ele><time>2015-11-22T11:40:22.0000000+00:00</time></trkpt><trkpt lat="30.8754269" lon="35.6841836"><ele>1142.6</ele><time>2015-11-22T11:40:24.0000000+00:00</time></trkpt><trkpt lat="30.8754246" lon="35.6841147"><ele>1142.5</ele><time>2015-11-22T11:40:26.0000000+00:00</time></trkpt><trkpt lat="30.8754229" lon="35.6840489"><ele>1142.4</ele><time>2015-11-22T11:40:28.0000000+00:00</time></trkpt><trkpt lat="30.8754162" lon="35.6839844"><ele>1142.4</ele><time>2015-11-22T11:40:30.0000000+00:00</time></trkpt><trkpt lat="30.8754088" lon="35.6839196"><ele>1141.6</ele><time>2015-11-22T11:40:32.0000000+00:00</time></trkpt><trkpt lat="30.8754059" lon="35.6838508"><ele>1141.5</ele><time>2015-11-22T11:40:34.0000000+00:00</time></trkpt><trkpt lat="30.8754003" lon="35.6837819"><ele>1142.2</ele><time>2015-11-22T11:40:36.0000000+00:00</time></trkpt><trkpt lat="30.8753912" lon="35.6837126"><ele>1142.3</ele><time>2015-11-22T11:40:38.0000000+00:00</time></trkpt><trkpt lat="30.8753836" lon="35.6836405"><ele>1142.4</ele><time>2015-11-22T11:40:40.0000000+00:00</time></trkpt><trkpt lat="30.8753789" lon="35.6835662"><ele>1142.4</ele><time>2015-11-22T11:40:42.0000000+00:00</time></trkpt><trkpt lat="30.8753747" lon="35.6834909"><ele>1142.9</ele><time>2015-11-22T11:40:44.0000000+00:00</time></trkpt><trkpt lat="30.8753659" lon="35.6834154"><ele>1143.3</ele><time>2015-11-22T11:40:46.0000000+00:00</time></trkpt><trkpt lat="30.8753598" lon="35.6833381"><ele>1143.4</ele><time>2015-11-22T11:40:48.0000000+00:00</time></trkpt><trkpt lat="30.875359" lon="35.6832589"><ele>1143.4</ele><time>2015-11-22T11:40:50.0000000+00:00</time></trkpt><trkpt lat="30.8753598" lon="35.6831804"><ele>1144.1</ele><time>2015-11-22T11:40:52.0000000+00:00</time></trkpt><trkpt lat="30.8753608" lon="35.6831011"><ele>1143.6</ele><time>2015-11-22T11:40:54.0000000+00:00</time></trkpt><trkpt lat="30.8753628" lon="35.6830219"><ele>1143.4</ele><time>2015-11-22T11:40:56.0000000+00:00</time></trkpt><trkpt lat="30.8753604" lon="35.6829456"><ele>1143.4</ele><time>2015-11-22T11:40:58.0000000+00:00</time></trkpt><trkpt lat="30.8753555" lon="35.6828688"><ele>1143.4</ele><time>2015-11-22T11:41:00.0000000+00:00</time></trkpt><trkpt lat="30.8753544" lon="35.6827911"><ele>1143.4</ele><time>2015-11-22T11:41:02.0000000+00:00</time></trkpt><trkpt lat="30.8753604" lon="35.682714"><ele>1142.6</ele><time>2015-11-22T11:41:04.0000000+00:00</time></trkpt><trkpt lat="30.8753654" lon="35.6826393"><ele>1142.5</ele><time>2015-11-22T11:41:06.0000000+00:00</time></trkpt><trkpt lat="30.8753695" lon="35.6825674"><ele>1142.4</ele><time>2015-11-22T11:41:08.0000000+00:00</time></trkpt><trkpt lat="30.8753746" lon="35.6824925"><ele>1142.4</ele><time>2015-11-22T11:41:10.0000000+00:00</time></trkpt><trkpt lat="30.8753756" lon="35.6824168"><ele>1142.4</ele><time>2015-11-22T11:41:12.0000000+00:00</time></trkpt><trkpt lat="30.8753737" lon="35.6823456"><ele>1142.4</ele><time>2015-11-22T11:41:14.0000000+00:00</time></trkpt><trkpt lat="30.8753735" lon="35.6822787"><ele>1142.1</ele><time>2015-11-22T11:41:16.0000000+00:00</time></trkpt><trkpt lat="30.8753714" lon="35.6822186"><ele>1142.3</ele><time>2015-11-22T11:41:18.0000000+00:00</time></trkpt><trkpt lat="30.8753669" lon="35.6821644"><ele>1142.4</ele><time>2015-11-22T11:41:20.0000000+00:00</time></trkpt><trkpt lat="30.8753619" lon="35.6821107"><ele>1142.9</ele><time>2015-11-22T11:41:22.0000000+00:00</time></trkpt><trkpt lat="30.8753552" lon="35.6820507"><ele>1143.3</ele><time>2015-11-22T11:41:24.0000000+00:00</time></trkpt><trkpt lat="30.8753526" lon="35.6819852"><ele>1142.6</ele><time>2015-11-22T11:41:26.0000000+00:00</time></trkpt><trkpt lat="30.8753497" lon="35.6819144"><ele>1142.5</ele><time>2015-11-22T11:41:28.0000000+00:00</time></trkpt><trkpt lat="30.8753481" lon="35.6818404"><ele>1142.4</ele><time>2015-11-22T11:41:30.0000000+00:00</time></trkpt><trkpt lat="30.875348" lon="35.6817636"><ele>1142.4</ele><time>2015-11-22T11:41:32.0000000+00:00</time></trkpt><trkpt lat="30.8753518" lon="35.6816849"><ele>1142.4</ele><time>2015-11-22T11:41:34.0000000+00:00</time></trkpt><trkpt lat="30.875355" lon="35.6816022"><ele>1141.6</ele><time>2015-11-22T11:41:36.0000000+00:00</time></trkpt><trkpt lat="30.8753511" lon="35.6815233"><ele>1142.2</ele><time>2015-11-22T11:41:38.0000000+00:00</time></trkpt><trkpt lat="30.8753416" lon="35.6814494"><ele>1142.4</ele><time>2015-11-22T11:41:40.0000000+00:00</time></trkpt><trkpt lat="30.8753304" lon="35.681378"><ele>1142.9</ele><time>2015-11-22T11:41:42.0000000+00:00</time></trkpt><trkpt lat="30.8753226" lon="35.6813087"><ele>1143.3</ele><time>2015-11-22T11:41:44.0000000+00:00</time></trkpt><trkpt lat="30.8753218" lon="35.6812383"><ele>1143.4</ele><time>2015-11-22T11:41:46.0000000+00:00</time></trkpt><trkpt lat="30.8753218" lon="35.681166"><ele>1142.9</ele><time>2015-11-22T11:41:48.0000000+00:00</time></trkpt><trkpt lat="30.8753202" lon="35.6810928"><ele>1143.0</ele><time>2015-11-22T11:41:50.0000000+00:00</time></trkpt><trkpt lat="30.8753183" lon="35.6810208"><ele>1143.3</ele><time>2015-11-22T11:41:52.0000000+00:00</time></trkpt><trkpt lat="30.8753158" lon="35.6809524"><ele>1144.1</ele><time>2015-11-22T11:41:54.0000000+00:00</time></trkpt><trkpt lat="30.8753164" lon="35.6808861"><ele>1144.3</ele><time>2015-11-22T11:41:56.0000000+00:00</time></trkpt><trkpt lat="30.8753205" lon="35.6808231"><ele>1144.4</ele><time>2015-11-22T11:41:58.0000000+00:00</time></trkpt><trkpt lat="30.8753275" lon="35.680761"><ele>1143.9</ele><time>2015-11-22T11:42:00.0000000+00:00</time></trkpt><trkpt lat="30.8753287" lon="35.6806966"><ele>1143.8</ele><time>2015-11-22T11:42:02.0000000+00:00</time></trkpt><trkpt lat="30.8753273" lon="35.6806358"><ele>1143.5</ele><time>2015-11-22T11:42:04.0000000+00:00</time></trkpt><trkpt lat="30.8753265" lon="35.6805756"><ele>1144.2</ele><time>2015-11-22T11:42:06.0000000+00:00</time></trkpt><trkpt lat="30.8753264" lon="35.680513"><ele>1144.8</ele><time>2015-11-22T11:42:08.0000000+00:00</time></trkpt><trkpt lat="30.8753246" lon="35.6804487"><ele>1145.3</ele><time>2015-11-22T11:42:10.0000000+00:00</time></trkpt><trkpt lat="30.8753237" lon="35.6803852"><ele>1146.1</ele><time>2015-11-22T11:42:12.0000000+00:00</time></trkpt><trkpt lat="30.8753281" lon="35.6803242"><ele>1146.8</ele><time>2015-11-22T11:42:14.0000000+00:00</time></trkpt><trkpt lat="30.8753312" lon="35.6802663"><ele>1146.8</ele><time>2015-11-22T11:42:16.0000000+00:00</time></trkpt><trkpt lat="30.87533" lon="35.6802088"><ele>1146.5</ele><time>2015-11-22T11:42:18.0000000+00:00</time></trkpt><trkpt lat="30.8753277" lon="35.6801537"><ele>1146.4</ele><time>2015-11-22T11:42:20.0000000+00:00</time></trkpt><trkpt lat="30.8753204" lon="35.6801013"><ele>1146.9</ele><time>2015-11-22T11:42:22.0000000+00:00</time></trkpt><trkpt lat="30.87532" lon="35.6800221"><ele>1146.8</ele><time>2015-11-22T11:42:25.0000000+00:00</time></trkpt><trkpt lat="30.8753184" lon="35.679968"><ele>1146.5</ele><time>2015-11-22T11:42:27.0000000+00:00</time></trkpt><trkpt lat="30.8753095" lon="35.6798909"><ele>1147.2</ele><time>2015-11-22T11:42:30.0000000+00:00</time></trkpt><trkpt lat="30.8753114" lon="35.6798121"><ele>1147.0</ele><time>2015-11-22T11:42:33.0000000+00:00</time></trkpt><trkpt lat="30.8753105" lon="35.6797566"><ele>1147.5</ele><time>2015-11-22T11:42:35.0000000+00:00</time></trkpt><trkpt lat="30.8753095" lon="35.6796976"><ele>1146.7</ele><time>2015-11-22T11:42:37.0000000+00:00</time></trkpt><trkpt lat="30.8753067" lon="35.6796401"><ele>1146.5</ele><time>2015-11-22T11:42:39.0000000+00:00</time></trkpt><trkpt lat="30.875302" lon="35.6795827"><ele>1146.9</ele><time>2015-11-22T11:42:41.0000000+00:00</time></trkpt><trkpt lat="30.8752974" lon="35.6795253"><ele>1146.0</ele><time>2015-11-22T11:42:43.0000000+00:00</time></trkpt><trkpt lat="30.8752966" lon="35.6794679"><ele>1145.8</ele><time>2015-11-22T11:42:45.0000000+00:00</time></trkpt><trkpt lat="30.8752963" lon="35.6794126"><ele>1146.3</ele><time>2015-11-22T11:42:47.0000000+00:00</time></trkpt><trkpt lat="30.8752956" lon="35.6793562"><ele>1145.9</ele><time>2015-11-22T11:42:49.0000000+00:00</time></trkpt><trkpt lat="30.8752998" lon="35.6793016"><ele>1146.8</ele><time>2015-11-22T11:42:51.0000000+00:00</time></trkpt><trkpt lat="30.8752993" lon="35.6792455"><ele>1146.7</ele><time>2015-11-22T11:42:53.0000000+00:00</time></trkpt><trkpt lat="30.8752967" lon="35.6791857"><ele>1146.5</ele><time>2015-11-22T11:42:55.0000000+00:00</time></trkpt><trkpt lat="30.8752946" lon="35.6791269"><ele>1146.7</ele><time>2015-11-22T11:42:57.0000000+00:00</time></trkpt><trkpt lat="30.8752886" lon="35.679073"><ele>1146.5</ele><time>2015-11-22T11:42:59.0000000+00:00</time></trkpt><trkpt lat="30.8752825" lon="35.6790188"><ele>1145.9</ele><time>2015-11-22T11:43:01.0000000+00:00</time></trkpt><trkpt lat="30.8752835" lon="35.6789646"><ele>1144.8</ele><time>2015-11-22T11:43:03.0000000+00:00</time></trkpt><trkpt lat="30.8752813" lon="35.6789076"><ele>1144.5</ele><time>2015-11-22T11:43:05.0000000+00:00</time></trkpt><trkpt lat="30.8752752" lon="35.6788526"><ele>1144.4</ele><time>2015-11-22T11:43:07.0000000+00:00</time></trkpt><trkpt lat="30.8752754" lon="35.6787775"><ele>1144.4</ele><time>2015-11-22T11:43:10.0000000+00:00</time></trkpt><trkpt lat="30.8752751" lon="35.6787013"><ele>1145.1</ele><time>2015-11-22T11:43:13.0000000+00:00</time></trkpt><trkpt lat="30.8752717" lon="35.6786479"><ele>1145.3</ele><time>2015-11-22T11:43:15.0000000+00:00</time></trkpt><trkpt lat="30.8752707" lon="35.6785704"><ele>1146.1</ele><time>2015-11-22T11:43:18.0000000+00:00</time></trkpt><trkpt lat="30.875278" lon="35.678492"><ele>1145.6</ele><time>2015-11-22T11:43:21.0000000+00:00</time></trkpt><trkpt lat="30.8752781" lon="35.6784145"><ele>1146.8</ele><time>2015-11-22T11:43:24.0000000+00:00</time></trkpt><trkpt lat="30.8752782" lon="35.6783613"><ele>1148.0</ele><time>2015-11-22T11:43:26.0000000+00:00</time></trkpt><trkpt lat="30.875277" lon="35.6783049"><ele>1148.8</ele><time>2015-11-22T11:43:28.0000000+00:00</time></trkpt><trkpt lat="30.8752748" lon="35.6782469"><ele>1147.5</ele><time>2015-11-22T11:43:30.0000000+00:00</time></trkpt><trkpt lat="30.8752754" lon="35.6781881"><ele>1146.9</ele><time>2015-11-22T11:43:32.0000000+00:00</time></trkpt><trkpt lat="30.8752744" lon="35.6781314"><ele>1146.5</ele><time>2015-11-22T11:43:34.0000000+00:00</time></trkpt><trkpt lat="30.8752706" lon="35.6780779"><ele>1147.2</ele><time>2015-11-22T11:43:36.0000000+00:00</time></trkpt><trkpt lat="30.875269" lon="35.6780246"><ele>1147.8</ele><time>2015-11-22T11:43:38.0000000+00:00</time></trkpt><trkpt lat="30.8752687" lon="35.6779711"><ele>1148.8</ele><time>2015-11-22T11:43:40.0000000+00:00</time></trkpt><trkpt lat="30.8752608" lon="35.6779194"><ele>1148.2</ele><time>2015-11-22T11:43:42.0000000+00:00</time></trkpt><trkpt lat="30.8752496" lon="35.677842"><ele>1148.9</ele><time>2015-11-22T11:43:45.0000000+00:00</time></trkpt><trkpt lat="30.8752371" lon="35.6777654"><ele>1148.7</ele><time>2015-11-22T11:43:48.0000000+00:00</time></trkpt><trkpt lat="30.8752308" lon="35.6777128"><ele>1148.5</ele><time>2015-11-22T11:43:50.0000000+00:00</time></trkpt><trkpt lat="30.8752219" lon="35.6776571"><ele>1149.2</ele><time>2015-11-22T11:43:52.0000000+00:00</time></trkpt><trkpt lat="30.8752063" lon="35.6776012"><ele>1149.3</ele><time>2015-11-22T11:43:54.0000000+00:00</time></trkpt><trkpt lat="30.8751895" lon="35.6775439"><ele>1150.1</ele><time>2015-11-22T11:43:56.0000000+00:00</time></trkpt><trkpt lat="30.8751751" lon="35.6774872"><ele>1150.3</ele><time>2015-11-22T11:43:58.0000000+00:00</time></trkpt><trkpt lat="30.8751628" lon="35.6774307"><ele>1150.1</ele><time>2015-11-22T11:44:00.0000000+00:00</time></trkpt><trkpt lat="30.8751496" lon="35.6773732"><ele>1150.1</ele><time>2015-11-22T11:44:02.0000000+00:00</time></trkpt><trkpt lat="30.8751344" lon="35.6773154"><ele>1150.3</ele><time>2015-11-22T11:44:04.0000000+00:00</time></trkpt><trkpt lat="30.8751172" lon="35.6772596"><ele>1150.6</ele><time>2015-11-22T11:44:06.0000000+00:00</time></trkpt><trkpt lat="30.8751013" lon="35.6772073"><ele>1150.2</ele><time>2015-11-22T11:44:08.0000000+00:00</time></trkpt><trkpt lat="30.8750743" lon="35.6771414"><ele>1150.4</ele><time>2015-11-22T11:44:11.0000000+00:00</time></trkpt><trkpt lat="30.87504" lon="35.6770732"><ele>1148.6</ele><time>2015-11-22T11:44:14.0000000+00:00</time></trkpt><trkpt lat="30.8750186" lon="35.677022"><ele>1149.7</ele><time>2015-11-22T11:44:16.0000000+00:00</time></trkpt><trkpt lat="30.8749982" lon="35.67697"><ele>1150.2</ele><time>2015-11-22T11:44:18.0000000+00:00</time></trkpt><trkpt lat="30.8749791" lon="35.6769188"><ele>1152.6</ele><time>2015-11-22T11:44:20.0000000+00:00</time></trkpt><trkpt lat="30.8749612" lon="35.6768687"><ele>1153.7</ele><time>2015-11-22T11:44:22.0000000+00:00</time></trkpt><trkpt lat="30.8749438" lon="35.6768181"><ele>1152.2</ele><time>2015-11-22T11:44:24.0000000+00:00</time></trkpt><trkpt lat="30.8749264" lon="35.6767673"><ele>1151.6</ele><time>2015-11-22T11:44:26.0000000+00:00</time></trkpt><trkpt lat="30.8749102" lon="35.6767146"><ele>1152.2</ele><time>2015-11-22T11:44:28.0000000+00:00</time></trkpt><trkpt lat="30.8748958" lon="35.6766611"><ele>1152.3</ele><time>2015-11-22T11:44:30.0000000+00:00</time></trkpt><trkpt lat="30.8748829" lon="35.676608"><ele>1152.9</ele><time>2015-11-22T11:44:32.0000000+00:00</time></trkpt><trkpt lat="30.8748673" lon="35.6765538"><ele>1152.0</ele><time>2015-11-22T11:44:34.0000000+00:00</time></trkpt><trkpt lat="30.8748491" lon="35.6764992"><ele>1152.3</ele><time>2015-11-22T11:44:36.0000000+00:00</time></trkpt><trkpt lat="30.8748332" lon="35.6764458"><ele>1152.9</ele><time>2015-11-22T11:44:38.0000000+00:00</time></trkpt><trkpt lat="30.8748159" lon="35.6763909"><ele>1153.3</ele><time>2015-11-22T11:44:40.0000000+00:00</time></trkpt><trkpt lat="30.8747987" lon="35.6763383"><ele>1153.1</ele><time>2015-11-22T11:44:42.0000000+00:00</time></trkpt><trkpt lat="30.8747794" lon="35.6762863"><ele>1152.6</ele><time>2015-11-22T11:44:44.0000000+00:00</time></trkpt><trkpt lat="30.8747591" lon="35.6762331"><ele>1153.2</ele><time>2015-11-22T11:44:46.0000000+00:00</time></trkpt><trkpt lat="30.874738" lon="35.6761793"><ele>1153.8</ele><time>2015-11-22T11:44:48.0000000+00:00</time></trkpt><trkpt lat="30.874714" lon="35.6761246"><ele>1154.3</ele><time>2015-11-22T11:44:50.0000000+00:00</time></trkpt><trkpt lat="30.8746904" lon="35.6760658"><ele>1154.4</ele><time>2015-11-22T11:44:52.0000000+00:00</time></trkpt><trkpt lat="30.8746672" lon="35.6760047"><ele>1154.4</ele><time>2015-11-22T11:44:54.0000000+00:00</time></trkpt><trkpt lat="30.874643" lon="35.6759441"><ele>1151.9</ele><time>2015-11-22T11:44:56.0000000+00:00</time></trkpt><trkpt lat="30.8746196" lon="35.6758827"><ele>1152.3</ele><time>2015-11-22T11:44:58.0000000+00:00</time></trkpt><trkpt lat="30.874597" lon="35.6758217"><ele>1152.6</ele><time>2015-11-22T11:45:00.0000000+00:00</time></trkpt><trkpt lat="30.8745702" lon="35.6757682"><ele>1153.0</ele><time>2015-11-22T11:45:02.0000000+00:00</time></trkpt><trkpt lat="30.87454" lon="35.6757174"><ele>1155.3</ele><time>2015-11-22T11:45:04.0000000+00:00</time></trkpt><trkpt lat="30.8745146" lon="35.6756602"><ele>1155.4</ele><time>2015-11-22T11:45:06.0000000+00:00</time></trkpt><trkpt lat="30.8744941" lon="35.6756031"><ele>1157.4</ele><time>2015-11-22T11:45:08.0000000+00:00</time></trkpt><trkpt lat="30.8744729" lon="35.6755465"><ele>1158.9</ele><time>2015-11-22T11:45:10.0000000+00:00</time></trkpt><trkpt lat="30.87445" lon="35.6754882"><ele>1160.3</ele><time>2015-11-22T11:45:12.0000000+00:00</time></trkpt><trkpt lat="30.8744247" lon="35.6754225"><ele>1168.6</ele><time>2015-11-22T11:45:14.0000000+00:00</time></trkpt><trkpt lat="30.8744043" lon="35.6753626"><ele>1174.2</ele><time>2015-11-22T11:45:16.0000000+00:00</time></trkpt><trkpt lat="30.8743879" lon="35.6753117"><ele>1175.9</ele><time>2015-11-22T11:45:18.0000000+00:00</time></trkpt><trkpt lat="30.8743704" lon="35.6752537"><ele>1177.0</ele><time>2015-11-22T11:45:20.0000000+00:00</time></trkpt><trkpt lat="30.8743465" lon="35.6751886"><ele>1177.3</ele><time>2015-11-22T11:45:22.0000000+00:00</time></trkpt><trkpt lat="30.8743228" lon="35.6751261"><ele>1177.4</ele><time>2015-11-22T11:45:24.0000000+00:00</time></trkpt><trkpt lat="30.8743156" lon="35.6750559"><ele>1177.4</ele><time>2015-11-22T11:45:26.0000000+00:00</time></trkpt><trkpt lat="30.8742979" lon="35.6749969"><ele>1178.1</ele><time>2015-11-22T11:45:28.0000000+00:00</time></trkpt><trkpt lat="30.8742609" lon="35.6749562"><ele>1178.3</ele><time>2015-11-22T11:45:30.0000000+00:00</time></trkpt><trkpt lat="30.8742336" lon="35.6749048"><ele>1178.4</ele><time>2015-11-22T11:45:32.0000000+00:00</time></trkpt><trkpt lat="30.8742137" lon="35.6748486"><ele>1178.6</ele><time>2015-11-22T11:45:34.0000000+00:00</time></trkpt><trkpt lat="30.8741947" lon="35.6747894"><ele>1178.5</ele><time>2015-11-22T11:45:36.0000000+00:00</time></trkpt><trkpt lat="30.874174" lon="35.6747262"><ele>1178.4</ele><time>2015-11-22T11:45:38.0000000+00:00</time></trkpt><trkpt lat="30.8741516" lon="35.6746586"><ele>1177.7</ele><time>2015-11-22T11:45:40.0000000+00:00</time></trkpt><trkpt lat="30.8741229" lon="35.6745887"><ele>1177.5</ele><time>2015-11-22T11:45:42.0000000+00:00</time></trkpt><trkpt lat="30.87409" lon="35.6745117"><ele>1177.4</ele><time>2015-11-22T11:45:44.0000000+00:00</time></trkpt><trkpt lat="30.8740555" lon="35.6744234"><ele>1177.4</ele><time>2015-11-22T11:45:46.0000000+00:00</time></trkpt><trkpt lat="30.8740219" lon="35.6743298"><ele>1177.2</ele><time>2015-11-22T11:45:48.0000000+00:00</time></trkpt><trkpt lat="30.8739846" lon="35.6741944"><ele>1176.1</ele><time>2015-11-22T11:45:50.0000000+00:00</time></trkpt><trkpt lat="30.8739628" lon="35.6741402"><ele>1175.7</ele><time>2015-11-22T11:45:51.0000000+00:00</time></trkpt><trkpt lat="30.8739444" lon="35.6740891"><ele>1175.1</ele><time>2015-11-22T11:45:52.0000000+00:00</time></trkpt><trkpt lat="30.8739228" lon="35.6740271"><ele>1174.7</ele><time>2015-11-22T11:45:53.0000000+00:00</time></trkpt><trkpt lat="30.8739031" lon="35.6739627"><ele>1174.1</ele><time>2015-11-22T11:45:54.0000000+00:00</time></trkpt><trkpt lat="30.8738832" lon="35.6738951"><ele>1173.7</ele><time>2015-11-22T11:45:55.0000000+00:00</time></trkpt><trkpt lat="30.8738541" lon="35.6738288"><ele>1173.6</ele><time>2015-11-22T11:45:56.0000000+00:00</time></trkpt><trkpt lat="30.8738325" lon="35.6737529"><ele>1173.5</ele><time>2015-11-22T11:45:57.0000000+00:00</time></trkpt><trkpt lat="30.8738096" lon="35.6736795"><ele>1172.9</ele><time>2015-11-22T11:45:58.0000000+00:00</time></trkpt><trkpt lat="30.8737826" lon="35.6736034"><ele>1172.7</ele><time>2015-11-22T11:45:59.0000000+00:00</time></trkpt><trkpt lat="30.8737593" lon="35.6735273"><ele>1172.0</ele><time>2015-11-22T11:46:00.0000000+00:00</time></trkpt><trkpt lat="30.8737322" lon="35.6734527"><ele>1171.7</ele><time>2015-11-22T11:46:01.0000000+00:00</time></trkpt><trkpt lat="30.8737026" lon="35.673371"><ele>1171.6</ele><time>2015-11-22T11:46:02.0000000+00:00</time></trkpt><trkpt lat="30.8736724" lon="35.6732923"><ele>1171.0</ele><time>2015-11-22T11:46:03.0000000+00:00</time></trkpt><trkpt lat="30.8736397" lon="35.6732229"><ele>1170.7</ele><time>2015-11-22T11:46:04.0000000+00:00</time></trkpt><trkpt lat="30.8736074" lon="35.6731431"><ele>1170.0</ele><time>2015-11-22T11:46:05.0000000+00:00</time></trkpt><trkpt lat="30.8735843" lon="35.6730644"><ele>1169.2</ele><time>2015-11-22T11:46:06.0000000+00:00</time></trkpt><trkpt lat="30.8735542" lon="35.6729901"><ele>1169.3</ele><time>2015-11-22T11:46:07.0000000+00:00</time></trkpt><trkpt lat="30.8735266" lon="35.6729111"><ele>1169.4</ele><time>2015-11-22T11:46:08.0000000+00:00</time></trkpt><trkpt lat="30.873497" lon="35.6728299"><ele>1169.4</ele><time>2015-11-22T11:46:09.0000000+00:00</time></trkpt><trkpt lat="30.8734665" lon="35.6727543"><ele>1169.4</ele><time>2015-11-22T11:46:10.0000000+00:00</time></trkpt><trkpt lat="30.8734377" lon="35.6726783"><ele>1169.4</ele><time>2015-11-22T11:46:11.0000000+00:00</time></trkpt><trkpt lat="30.8734079" lon="35.6725958"><ele>1169.4</ele><time>2015-11-22T11:46:12.0000000+00:00</time></trkpt><trkpt lat="30.8733777" lon="35.6725182"><ele>1169.9</ele><time>2015-11-22T11:46:13.0000000+00:00</time></trkpt><trkpt lat="30.8733509" lon="35.6724414"><ele>1170.1</ele><time>2015-11-22T11:46:14.0000000+00:00</time></trkpt><trkpt lat="30.8733228" lon="35.6723592"><ele>1170.3</ele><time>2015-11-22T11:46:15.0000000+00:00</time></trkpt><trkpt lat="30.8732943" lon="35.6722784"><ele>1170.3</ele><time>2015-11-22T11:46:16.0000000+00:00</time></trkpt><trkpt lat="30.8732628" lon="35.6721997"><ele>1170.4</ele><time>2015-11-22T11:46:17.0000000+00:00</time></trkpt><trkpt lat="30.8732362" lon="35.672124"><ele>1170.4</ele><time>2015-11-22T11:46:18.0000000+00:00</time></trkpt><trkpt lat="30.8732125" lon="35.672047"><ele>1170.4</ele><time>2015-11-22T11:46:19.0000000+00:00</time></trkpt><trkpt lat="30.8731925" lon="35.6719734"><ele>1170.4</ele><time>2015-11-22T11:46:20.0000000+00:00</time></trkpt><trkpt lat="30.873166" lon="35.6719006"><ele>1170.4</ele><time>2015-11-22T11:46:21.0000000+00:00</time></trkpt><trkpt lat="30.8731408" lon="35.6718226"><ele>1170.4</ele><time>2015-11-22T11:46:22.0000000+00:00</time></trkpt><trkpt lat="30.8731161" lon="35.6717519"><ele>1170.4</ele><time>2015-11-22T11:46:23.0000000+00:00</time></trkpt><trkpt lat="30.8730857" lon="35.6716804"><ele>1170.4</ele><time>2015-11-22T11:46:24.0000000+00:00</time></trkpt><trkpt lat="30.8730544" lon="35.6716116"><ele>1170.4</ele><time>2015-11-22T11:46:25.0000000+00:00</time></trkpt><trkpt lat="30.873043" lon="35.6715374"><ele>1169.9</ele><time>2015-11-22T11:46:26.0000000+00:00</time></trkpt><trkpt lat="30.8730177" lon="35.6714719"><ele>1169.6</ele><time>2015-11-22T11:46:27.0000000+00:00</time></trkpt><trkpt lat="30.8729898" lon="35.6714166"><ele>1169.0</ele><time>2015-11-22T11:46:28.0000000+00:00</time></trkpt><trkpt lat="30.8729681" lon="35.671352"><ele>1169.2</ele><time>2015-11-22T11:46:29.0000000+00:00</time></trkpt><trkpt lat="30.8729456" lon="35.671288"><ele>1169.3</ele><time>2015-11-22T11:46:30.0000000+00:00</time></trkpt><trkpt lat="30.8729321" lon="35.6712048"><ele>1170.9</ele><time>2015-11-22T11:46:32.0000000+00:00</time></trkpt><trkpt lat="30.8728932" lon="35.6711588"><ele>1173.9</ele><time>2015-11-22T11:46:56.0000000+00:00</time></trkpt><trkpt lat="30.8728552" lon="35.6711095"><ele>1174.3</ele><time>2015-11-22T11:47:00.0000000+00:00</time></trkpt><trkpt lat="30.8728266" lon="35.6710528"><ele>1174.5</ele><time>2015-11-22T11:47:03.0000000+00:00</time></trkpt><trkpt lat="30.8728034" lon="35.6709835"><ele>1173.0</ele><time>2015-11-22T11:47:06.0000000+00:00</time></trkpt><trkpt lat="30.8727865" lon="35.6709321"><ele>1172.6</ele><time>2015-11-22T11:47:08.0000000+00:00</time></trkpt><trkpt lat="30.872768" lon="35.6708788"><ele>1172.4</ele><time>2015-11-22T11:47:10.0000000+00:00</time></trkpt><trkpt lat="30.8727443" lon="35.6708248"><ele>1172.4</ele><time>2015-11-22T11:47:12.0000000+00:00</time></trkpt><trkpt lat="30.8727208" lon="35.6707643"><ele>1171.7</ele><time>2015-11-22T11:47:14.0000000+00:00</time></trkpt><trkpt lat="30.8727015" lon="35.6706951"><ele>1171.5</ele><time>2015-11-22T11:47:16.0000000+00:00</time></trkpt><trkpt lat="30.8726829" lon="35.6706294"><ele>1171.9</ele><time>2015-11-22T11:47:18.0000000+00:00</time></trkpt><trkpt lat="30.8726647" lon="35.6705659"><ele>1172.3</ele><time>2015-11-22T11:47:20.0000000+00:00</time></trkpt><trkpt lat="30.872642" lon="35.6705093"><ele>1172.9</ele><time>2015-11-22T11:47:22.0000000+00:00</time></trkpt><trkpt lat="30.8726249" lon="35.6704548"><ele>1172.5</ele><time>2015-11-22T11:47:24.0000000+00:00</time></trkpt><trkpt lat="30.8726124" lon="35.6704002"><ele>1171.7</ele><time>2015-11-22T11:47:26.0000000+00:00</time></trkpt><trkpt lat="30.8725961" lon="35.6703504"><ele>1172.0</ele><time>2015-11-22T11:47:28.0000000+00:00</time></trkpt><trkpt lat="30.8725604" lon="35.6702876"><ele>1172.3</ele><time>2015-11-22T11:47:31.0000000+00:00</time></trkpt><trkpt lat="30.8725359" lon="35.6702424"><ele>1172.4</ele><time>2015-11-22T11:47:33.0000000+00:00</time></trkpt><trkpt lat="30.8725174" lon="35.6701862"><ele>1172.4</ele><time>2015-11-22T11:47:35.0000000+00:00</time></trkpt><trkpt lat="30.8724973" lon="35.6701245"><ele>1172.4</ele><time>2015-11-22T11:47:37.0000000+00:00</time></trkpt><trkpt lat="30.8724675" lon="35.6700499"><ele>1172.1</ele><time>2015-11-22T11:47:39.0000000+00:00</time></trkpt><trkpt lat="30.8724313" lon="35.6699729"><ele>1173.1</ele><time>2015-11-22T11:47:41.0000000+00:00</time></trkpt><trkpt lat="30.8723901" lon="35.6698971"><ele>1172.6</ele><time>2015-11-22T11:47:43.0000000+00:00</time></trkpt><trkpt lat="30.8723491" lon="35.6698198"><ele>1171.7</ele><time>2015-11-22T11:47:45.0000000+00:00</time></trkpt><trkpt lat="30.8723052" lon="35.6697422"><ele>1170.7</ele><time>2015-11-22T11:47:47.0000000+00:00</time></trkpt><trkpt lat="30.872258" lon="35.6696677"><ele>1171.0</ele><time>2015-11-22T11:47:49.0000000+00:00</time></trkpt><trkpt lat="30.8722115" lon="35.6695984"><ele>1170.5</ele><time>2015-11-22T11:47:51.0000000+00:00</time></trkpt><trkpt lat="30.8721579" lon="35.6695279"><ele>1167.4</ele><time>2015-11-22T11:47:53.0000000+00:00</time></trkpt><trkpt lat="30.8721059" lon="35.6694656"><ele>1165.4</ele><time>2015-11-22T11:47:55.0000000+00:00</time></trkpt><trkpt lat="30.8720499" lon="35.6694168"><ele>1164.7</ele><time>2015-11-22T11:47:57.0000000+00:00</time></trkpt><trkpt lat="30.8719972" lon="35.669372"><ele>1164.5</ele><time>2015-11-22T11:47:59.0000000+00:00</time></trkpt><trkpt lat="30.8719547" lon="35.6693338"><ele>1164.9</ele><time>2015-11-22T11:48:01.0000000+00:00</time></trkpt><trkpt lat="30.8719022" lon="35.6692983"><ele>1165.3</ele><time>2015-11-22T11:48:04.0000000+00:00</time></trkpt><trkpt lat="30.8718631" lon="35.6692663"><ele>1164.9</ele><time>2015-11-22T11:48:06.0000000+00:00</time></trkpt><trkpt lat="30.8718256" lon="35.6692306"><ele>1165.2</ele><time>2015-11-22T11:48:09.0000000+00:00</time></trkpt><trkpt lat="30.8718698" lon="35.6692403"><ele>1165.4</ele><time>2015-11-22T11:55:51.0000000+00:00</time></trkpt><trkpt lat="30.87182" lon="35.6692086"><ele>1162.3</ele><time>2015-11-22T12:13:58.0000000+00:00</time></trkpt><trkpt lat="30.871757" lon="35.6691768"><ele>1162.3</ele><time>2015-11-22T12:14:01.0000000+00:00</time></trkpt><trkpt lat="30.8717158" lon="35.6691514"><ele>1162.4</ele><time>2015-11-22T12:14:03.0000000+00:00</time></trkpt><trkpt lat="30.8716683" lon="35.6691322"><ele>1163.1</ele><time>2015-11-22T12:14:05.0000000+00:00</time></trkpt><trkpt lat="30.8716237" lon="35.669109"><ele>1163.8</ele><time>2015-11-22T12:14:07.0000000+00:00</time></trkpt><trkpt lat="30.8715781" lon="35.6690839"><ele>1164.3</ele><time>2015-11-22T12:14:09.0000000+00:00</time></trkpt><trkpt lat="30.8715285" lon="35.6690595"><ele>1163.9</ele><time>2015-11-22T12:14:11.0000000+00:00</time></trkpt><trkpt lat="30.8714812" lon="35.6690353"><ele>1163.5</ele><time>2015-11-22T12:14:13.0000000+00:00</time></trkpt><trkpt lat="30.8714359" lon="35.6690115"><ele>1162.9</ele><time>2015-11-22T12:14:15.0000000+00:00</time></trkpt><trkpt lat="30.8713906" lon="35.6689891"><ele>1163.0</ele><time>2015-11-22T12:14:17.0000000+00:00</time></trkpt><trkpt lat="30.8713449" lon="35.6689654"><ele>1163.8</ele><time>2015-11-22T12:14:19.0000000+00:00</time></trkpt><trkpt lat="30.8712972" lon="35.6689377"><ele>1164.0</ele><time>2015-11-22T12:14:21.0000000+00:00</time></trkpt><trkpt lat="30.8712468" lon="35.6689083"><ele>1164.3</ele><time>2015-11-22T12:14:23.0000000+00:00</time></trkpt><trkpt lat="30.8711931" lon="35.668879"><ele>1164.4</ele><time>2015-11-22T12:14:25.0000000+00:00</time></trkpt><trkpt lat="30.8711358" lon="35.6688492"><ele>1164.4</ele><time>2015-11-22T12:14:27.0000000+00:00</time></trkpt><trkpt lat="30.8710785" lon="35.6688218"><ele>1164.4</ele><time>2015-11-22T12:14:29.0000000+00:00</time></trkpt><trkpt lat="30.8710249" lon="35.6687898"><ele>1164.9</ele><time>2015-11-22T12:14:31.0000000+00:00</time></trkpt><trkpt lat="30.8709708" lon="35.668764"><ele>1166.0</ele><time>2015-11-22T12:14:33.0000000+00:00</time></trkpt><trkpt lat="30.8709137" lon="35.6687406"><ele>1166.8</ele><time>2015-11-22T12:14:35.0000000+00:00</time></trkpt><trkpt lat="30.8708541" lon="35.6687134"><ele>1166.5</ele><time>2015-11-22T12:14:37.0000000+00:00</time></trkpt><trkpt lat="30.8707946" lon="35.668685"><ele>1165.7</ele><time>2015-11-22T12:14:39.0000000+00:00</time></trkpt><trkpt lat="30.8707357" lon="35.6686538"><ele>1166.0</ele><time>2015-11-22T12:14:41.0000000+00:00</time></trkpt><trkpt lat="30.8706773" lon="35.6686182"><ele>1166.3</ele><time>2015-11-22T12:14:43.0000000+00:00</time></trkpt><trkpt lat="30.8706213" lon="35.6685837"><ele>1166.4</ele><time>2015-11-22T12:14:45.0000000+00:00</time></trkpt><trkpt lat="30.8705637" lon="35.6685534"><ele>1166.4</ele><time>2015-11-22T12:14:47.0000000+00:00</time></trkpt><trkpt lat="30.8705058" lon="35.668527"><ele>1166.9</ele><time>2015-11-22T12:14:49.0000000+00:00</time></trkpt><trkpt lat="30.8704495" lon="35.6684954"><ele>1166.8</ele><time>2015-11-22T12:14:51.0000000+00:00</time></trkpt><trkpt lat="30.8703928" lon="35.6684645"><ele>1167.0</ele><time>2015-11-22T12:14:53.0000000+00:00</time></trkpt><trkpt lat="30.8703366" lon="35.668433"><ele>1166.5</ele><time>2015-11-22T12:14:55.0000000+00:00</time></trkpt><trkpt lat="30.8702776" lon="35.6684"><ele>1166.7</ele><time>2015-11-22T12:14:57.0000000+00:00</time></trkpt><trkpt lat="30.8702155" lon="35.668364"><ele>1167.2</ele><time>2015-11-22T12:14:59.0000000+00:00</time></trkpt><trkpt lat="30.8701534" lon="35.6683261"><ele>1167.1</ele><time>2015-11-22T12:15:01.0000000+00:00</time></trkpt><trkpt lat="30.870086" lon="35.6682941"><ele>1167.8</ele><time>2015-11-22T12:15:03.0000000+00:00</time></trkpt><trkpt lat="30.8700221" lon="35.6682642"><ele>1168.3</ele><time>2015-11-22T12:15:05.0000000+00:00</time></trkpt><trkpt lat="30.8699618" lon="35.668232"><ele>1168.6</ele><time>2015-11-22T12:15:07.0000000+00:00</time></trkpt><trkpt lat="30.8699035" lon="35.6682031"><ele>1168.5</ele><time>2015-11-22T12:15:09.0000000+00:00</time></trkpt><trkpt lat="30.8698488" lon="35.6681744"><ele>1168.4</ele><time>2015-11-22T12:15:11.0000000+00:00</time></trkpt><trkpt lat="30.8697984" lon="35.6681467"><ele>1168.4</ele><time>2015-11-22T12:15:13.0000000+00:00</time></trkpt><trkpt lat="30.8697496" lon="35.6681211"><ele>1168.6</ele><time>2015-11-22T12:15:15.0000000+00:00</time></trkpt><trkpt lat="30.8697036" lon="35.6680908"><ele>1168.0</ele><time>2015-11-22T12:15:17.0000000+00:00</time></trkpt><trkpt lat="30.8696551" lon="35.6680608"><ele>1166.8</ele><time>2015-11-22T12:15:19.0000000+00:00</time></trkpt><trkpt lat="30.8696059" lon="35.6680289"><ele>1167.0</ele><time>2015-11-22T12:15:21.0000000+00:00</time></trkpt><trkpt lat="30.8695545" lon="35.6680027"><ele>1167.3</ele><time>2015-11-22T12:15:23.0000000+00:00</time></trkpt><trkpt lat="30.8695007" lon="35.6679755"><ele>1167.4</ele><time>2015-11-22T12:15:25.0000000+00:00</time></trkpt><trkpt lat="30.8694491" lon="35.6679456"><ele>1168.1</ele><time>2015-11-22T12:15:27.0000000+00:00</time></trkpt><trkpt lat="30.8693953" lon="35.6679188"><ele>1168.8</ele><time>2015-11-22T12:15:29.0000000+00:00</time></trkpt><trkpt lat="30.8693409" lon="35.6678944"><ele>1169.8</ele><time>2015-11-22T12:15:31.0000000+00:00</time></trkpt><trkpt lat="30.8692858" lon="35.6678682"><ele>1171.0</ele><time>2015-11-22T12:15:33.0000000+00:00</time></trkpt><trkpt lat="30.8692315" lon="35.6678404"><ele>1171.8</ele><time>2015-11-22T12:15:35.0000000+00:00</time></trkpt><trkpt lat="30.8691802" lon="35.6678076"><ele>1171.7</ele><time>2015-11-22T12:15:37.0000000+00:00</time></trkpt><trkpt lat="30.8691328" lon="35.66777"><ele>1172.0</ele><time>2015-11-22T12:15:39.0000000+00:00</time></trkpt><trkpt lat="30.869084" lon="35.6677397"><ele>1172.3</ele><time>2015-11-22T12:15:41.0000000+00:00</time></trkpt><trkpt lat="30.8690282" lon="35.6677213"><ele>1172.4</ele><time>2015-11-22T12:15:43.0000000+00:00</time></trkpt><trkpt lat="30.8689716" lon="35.6676962"><ele>1172.4</ele><time>2015-11-22T12:15:45.0000000+00:00</time></trkpt><trkpt lat="30.8689152" lon="35.6676589"><ele>1172.9</ele><time>2015-11-22T12:15:47.0000000+00:00</time></trkpt><trkpt lat="30.8688584" lon="35.6676233"><ele>1173.3</ele><time>2015-11-22T12:15:49.0000000+00:00</time></trkpt><trkpt lat="30.8688008" lon="35.6675903"><ele>1173.4</ele><time>2015-11-22T12:15:51.0000000+00:00</time></trkpt><trkpt lat="30.8687428" lon="35.6675609"><ele>1174.1</ele><time>2015-11-22T12:15:53.0000000+00:00</time></trkpt><trkpt lat="30.8686831" lon="35.667533"><ele>1173.6</ele><time>2015-11-22T12:15:55.0000000+00:00</time></trkpt><trkpt lat="30.8686222" lon="35.6675052"><ele>1173.4</ele><time>2015-11-22T12:15:57.0000000+00:00</time></trkpt><trkpt lat="30.8685632" lon="35.6674737"><ele>1173.9</ele><time>2015-11-22T12:15:59.0000000+00:00</time></trkpt><trkpt lat="30.8685034" lon="35.6674414"><ele>1174.3</ele><time>2015-11-22T12:16:01.0000000+00:00</time></trkpt><trkpt lat="30.8684457" lon="35.6674044"><ele>1174.9</ele><time>2015-11-22T12:16:03.0000000+00:00</time></trkpt><trkpt lat="30.8683876" lon="35.6673704"><ele>1175.3</ele><time>2015-11-22T12:16:05.0000000+00:00</time></trkpt><trkpt lat="30.8683256" lon="35.6673399"><ele>1175.4</ele><time>2015-11-22T12:16:07.0000000+00:00</time></trkpt><trkpt lat="30.8682615" lon="35.6673091"><ele>1176.1</ele><time>2015-11-22T12:16:09.0000000+00:00</time></trkpt><trkpt lat="30.8681976" lon="35.6672795"><ele>1175.8</ele><time>2015-11-22T12:16:11.0000000+00:00</time></trkpt><trkpt lat="30.8681361" lon="35.667248"><ele>1176.0</ele><time>2015-11-22T12:16:13.0000000+00:00</time></trkpt><trkpt lat="30.8680773" lon="35.6672152"><ele>1176.3</ele><time>2015-11-22T12:16:15.0000000+00:00</time></trkpt><trkpt lat="30.8680146" lon="35.6671812"><ele>1176.9</ele><time>2015-11-22T12:16:17.0000000+00:00</time></trkpt><trkpt lat="30.867952" lon="35.667146"><ele>1177.3</ele><time>2015-11-22T12:16:19.0000000+00:00</time></trkpt><trkpt lat="30.8678896" lon="35.6671126"><ele>1177.4</ele><time>2015-11-22T12:16:21.0000000+00:00</time></trkpt><trkpt lat="30.867828" lon="35.6670791"><ele>1177.4</ele><time>2015-11-22T12:16:23.0000000+00:00</time></trkpt><trkpt lat="30.8677647" lon="35.6670456"><ele>1177.4</ele><time>2015-11-22T12:16:25.0000000+00:00</time></trkpt><trkpt lat="30.8676998" lon="35.6670103"><ele>1177.4</ele><time>2015-11-22T12:16:27.0000000+00:00</time></trkpt><trkpt lat="30.8676315" lon="35.6669728"><ele>1177.4</ele><time>2015-11-22T12:16:29.0000000+00:00</time></trkpt><trkpt lat="30.8675622" lon="35.6669373"><ele>1177.4</ele><time>2015-11-22T12:16:31.0000000+00:00</time></trkpt><trkpt lat="30.8674891" lon="35.6669008"><ele>1176.1</ele><time>2015-11-22T12:16:33.0000000+00:00</time></trkpt><trkpt lat="30.8674162" lon="35.6668603"><ele>1176.3</ele><time>2015-11-22T12:16:35.0000000+00:00</time></trkpt><trkpt lat="30.8673427" lon="35.6668188"><ele>1176.1</ele><time>2015-11-22T12:16:37.0000000+00:00</time></trkpt><trkpt lat="30.8672702" lon="35.6667794"><ele>1176.3</ele><time>2015-11-22T12:16:39.0000000+00:00</time></trkpt><trkpt lat="30.8671989" lon="35.6667414"><ele>1175.6</ele><time>2015-11-22T12:16:41.0000000+00:00</time></trkpt><trkpt lat="30.8671266" lon="35.6667022"><ele>1175.5</ele><time>2015-11-22T12:16:43.0000000+00:00</time></trkpt><trkpt lat="30.8670568" lon="35.6666629"><ele>1175.4</ele><time>2015-11-22T12:16:45.0000000+00:00</time></trkpt><trkpt lat="30.8669859" lon="35.666629"><ele>1175.9</ele><time>2015-11-22T12:16:47.0000000+00:00</time></trkpt><trkpt lat="30.8669162" lon="35.6665929"><ele>1176.3</ele><time>2015-11-22T12:16:49.0000000+00:00</time></trkpt><trkpt lat="30.8668489" lon="35.6665552"><ele>1176.4</ele><time>2015-11-22T12:16:51.0000000+00:00</time></trkpt><trkpt lat="30.8667806" lon="35.6665172"><ele>1175.9</ele><time>2015-11-22T12:16:53.0000000+00:00</time></trkpt><trkpt lat="30.8667144" lon="35.6664803"><ele>1175.5</ele><time>2015-11-22T12:16:55.0000000+00:00</time></trkpt><trkpt lat="30.8666507" lon="35.6664472"><ele>1175.9</ele><time>2015-11-22T12:16:57.0000000+00:00</time></trkpt><trkpt lat="30.8665844" lon="35.6664158"><ele>1176.3</ele><time>2015-11-22T12:16:59.0000000+00:00</time></trkpt><trkpt lat="30.8665016" lon="35.6663711"><ele>1174.1</ele><time>2015-11-22T12:17:01.0000000+00:00</time></trkpt><trkpt lat="30.8664541" lon="35.6663458"><ele>1174.3</ele><time>2015-11-22T12:17:02.0000000+00:00</time></trkpt><trkpt lat="30.8664088" lon="35.6663228"><ele>1174.8</ele><time>2015-11-22T12:17:03.0000000+00:00</time></trkpt><trkpt lat="30.8663259" lon="35.6662805"><ele>1175.8</ele><time>2015-11-22T12:17:05.0000000+00:00</time></trkpt><trkpt lat="30.8662502" lon="35.6662419"><ele>1176.7</ele><time>2015-11-22T12:17:07.0000000+00:00</time></trkpt><trkpt lat="30.8661792" lon="35.6661927"><ele>1177.2</ele><time>2015-11-22T12:17:09.0000000+00:00</time></trkpt><trkpt lat="30.8660999" lon="35.6661492"><ele>1177.8</ele><time>2015-11-22T12:17:11.0000000+00:00</time></trkpt><trkpt lat="30.8660194" lon="35.6661035"><ele>1178.3</ele><time>2015-11-22T12:17:13.0000000+00:00</time></trkpt><trkpt lat="30.8659743" lon="35.6660782"><ele>1178.3</ele><time>2015-11-22T12:17:14.0000000+00:00</time></trkpt><trkpt lat="30.8659338" lon="35.6660504"><ele>1178.4</ele><time>2015-11-22T12:17:15.0000000+00:00</time></trkpt><trkpt lat="30.8658913" lon="35.6660248"><ele>1178.4</ele><time>2015-11-22T12:17:16.0000000+00:00</time></trkpt><trkpt lat="30.8658491" lon="35.6660011"><ele>1178.4</ele><time>2015-11-22T12:17:17.0000000+00:00</time></trkpt><trkpt lat="30.8658057" lon="35.6659753"><ele>1178.4</ele><time>2015-11-22T12:17:18.0000000+00:00</time></trkpt><trkpt lat="30.865724" lon="35.6659265"><ele>1178.4</ele><time>2015-11-22T12:17:20.0000000+00:00</time></trkpt><trkpt lat="30.8656836" lon="35.6658966"><ele>1178.4</ele><time>2015-11-22T12:17:21.0000000+00:00</time></trkpt><trkpt lat="30.8656416" lon="35.6658696"><ele>1178.4</ele><time>2015-11-22T12:17:22.0000000+00:00</time></trkpt><trkpt lat="30.8655965" lon="35.6658423"><ele>1177.9</ele><time>2015-11-22T12:17:23.0000000+00:00</time></trkpt><trkpt lat="30.8655151" lon="35.6657814"><ele>1177.6</ele><time>2015-11-22T12:17:25.0000000+00:00</time></trkpt><trkpt lat="30.8654706" lon="35.6657473"><ele>1177.5</ele><time>2015-11-22T12:17:26.0000000+00:00</time></trkpt><trkpt lat="30.8654331" lon="35.6657154"><ele>1177.5</ele><time>2015-11-22T12:17:27.0000000+00:00</time></trkpt><trkpt lat="30.8653982" lon="35.6656818"><ele>1177.9</ele><time>2015-11-22T12:17:28.0000000+00:00</time></trkpt><trkpt lat="30.865362" lon="35.6656493"><ele>1178.2</ele><time>2015-11-22T12:17:29.0000000+00:00</time></trkpt><trkpt lat="30.8653257" lon="35.665618"><ele>1178.3</ele><time>2015-11-22T12:17:30.0000000+00:00</time></trkpt><trkpt lat="30.8652852" lon="35.6655814"><ele>1177.8</ele><time>2015-11-22T12:17:31.0000000+00:00</time></trkpt><trkpt lat="30.8652468" lon="35.665547"><ele>1178.1</ele><time>2015-11-22T12:17:32.0000000+00:00</time></trkpt><trkpt lat="30.8652115" lon="35.6655037"><ele>1177.8</ele><time>2015-11-22T12:17:33.0000000+00:00</time></trkpt><trkpt lat="30.8651733" lon="35.6654657"><ele>1177.6</ele><time>2015-11-22T12:17:34.0000000+00:00</time></trkpt><trkpt lat="30.8651346" lon="35.6654259"><ele>1178.0</ele><time>2015-11-22T12:17:35.0000000+00:00</time></trkpt><trkpt lat="30.8650958" lon="35.6653861"><ele>1178.2</ele><time>2015-11-22T12:17:36.0000000+00:00</time></trkpt><trkpt lat="30.8650571" lon="35.6653405"><ele>1178.3</ele><time>2015-11-22T12:17:37.0000000+00:00</time></trkpt><trkpt lat="30.865019" lon="35.6652975"><ele>1178.3</ele><time>2015-11-22T12:17:38.0000000+00:00</time></trkpt><trkpt lat="30.8649841" lon="35.6652521"><ele>1178.4</ele><time>2015-11-22T12:17:39.0000000+00:00</time></trkpt><trkpt lat="30.8649486" lon="35.6652099"><ele>1178.4</ele><time>2015-11-22T12:17:40.0000000+00:00</time></trkpt><trkpt lat="30.8649169" lon="35.6651709"><ele>1178.4</ele><time>2015-11-22T12:17:41.0000000+00:00</time></trkpt><trkpt lat="30.8648829" lon="35.6651312"><ele>1178.4</ele><time>2015-11-22T12:17:42.0000000+00:00</time></trkpt><trkpt lat="30.8648492" lon="35.6650889"><ele>1178.9</ele><time>2015-11-22T12:17:43.0000000+00:00</time></trkpt><trkpt lat="30.8648131" lon="35.6650441"><ele>1179.1</ele><time>2015-11-22T12:17:44.0000000+00:00</time></trkpt><trkpt lat="30.8647807" lon="35.6649967"><ele>1179.3</ele><time>2015-11-22T12:17:45.0000000+00:00</time></trkpt><trkpt lat="30.8647466" lon="35.6649513"><ele>1179.3</ele><time>2015-11-22T12:17:46.0000000+00:00</time></trkpt><trkpt lat="30.8647151" lon="35.6649098"><ele>1178.9</ele><time>2015-11-22T12:17:47.0000000+00:00</time></trkpt><trkpt lat="30.8646844" lon="35.6648662"><ele>1178.6</ele><time>2015-11-22T12:17:48.0000000+00:00</time></trkpt><trkpt lat="30.8646516" lon="35.6648278"><ele>1178.5</ele><time>2015-11-22T12:17:49.0000000+00:00</time></trkpt><trkpt lat="30.8646208" lon="35.6647885"><ele>1179.0</ele><time>2015-11-22T12:17:50.0000000+00:00</time></trkpt><trkpt lat="30.8645626" lon="35.664719"><ele>1178.5</ele><time>2015-11-22T12:17:52.0000000+00:00</time></trkpt><trkpt lat="30.8645352" lon="35.664676"><ele>1178.5</ele><time>2015-11-22T12:17:53.0000000+00:00</time></trkpt><trkpt lat="30.8645046" lon="35.6646342"><ele>1178.4</ele><time>2015-11-22T12:17:54.0000000+00:00</time></trkpt><trkpt lat="30.8644684" lon="35.6645886"><ele>1178.9</ele><time>2015-11-22T12:17:55.0000000+00:00</time></trkpt><trkpt lat="30.8644369" lon="35.6645453"><ele>1179.2</ele><time>2015-11-22T12:17:56.0000000+00:00</time></trkpt><trkpt lat="30.8643988" lon="35.6644986"><ele>1179.3</ele><time>2015-11-22T12:17:57.0000000+00:00</time></trkpt><trkpt lat="30.8643638" lon="35.6644556"><ele>1179.3</ele><time>2015-11-22T12:17:58.0000000+00:00</time></trkpt><trkpt lat="30.8643302" lon="35.6644126"><ele>1179.4</ele><time>2015-11-22T12:17:59.0000000+00:00</time></trkpt><trkpt lat="30.8642944" lon="35.6643731"><ele>1179.4</ele><time>2015-11-22T12:18:00.0000000+00:00</time></trkpt><trkpt lat="30.8642032" lon="35.6642435"><ele>1179.6</ele><time>2015-11-22T12:18:03.0000000+00:00</time></trkpt><trkpt lat="30.8641704" lon="35.6642029"><ele>1179.5</ele><time>2015-11-22T12:18:04.0000000+00:00</time></trkpt><trkpt lat="30.8641175" lon="35.6641286"><ele>1180.2</ele><time>2015-11-22T12:18:06.0000000+00:00</time></trkpt><trkpt lat="30.8640584" lon="35.6640654"><ele>1179.6</ele><time>2015-11-22T12:18:08.0000000+00:00</time></trkpt><trkpt lat="30.8640199" lon="35.6640178"><ele>1179.5</ele><time>2015-11-22T12:18:09.0000000+00:00</time></trkpt><trkpt lat="30.863989" lon="35.6639762"><ele>1179.9</ele><time>2015-11-22T12:18:10.0000000+00:00</time></trkpt><trkpt lat="30.8639274" lon="35.6639004"><ele>1180.3</ele><time>2015-11-22T12:18:12.0000000+00:00</time></trkpt><trkpt lat="30.8638761" lon="35.6638197"><ele>1180.4</ele><time>2015-11-22T12:18:14.0000000+00:00</time></trkpt><trkpt lat="30.8638421" lon="35.6637848"><ele>1180.9</ele><time>2015-11-22T12:18:15.0000000+00:00</time></trkpt><trkpt lat="30.8637852" lon="35.6637196"><ele>1181.3</ele><time>2015-11-22T12:18:17.0000000+00:00</time></trkpt><trkpt lat="30.8637389" lon="35.6636429"><ele>1182.1</ele><time>2015-11-22T12:18:19.0000000+00:00</time></trkpt><trkpt lat="30.8636828" lon="35.6635839"><ele>1182.8</ele><time>2015-11-22T12:18:21.0000000+00:00</time></trkpt><trkpt lat="30.8636278" lon="35.6635143"><ele>1183.3</ele><time>2015-11-22T12:18:23.0000000+00:00</time></trkpt><trkpt lat="30.8635753" lon="35.6634489"><ele>1183.9</ele><time>2015-11-22T12:18:25.0000000+00:00</time></trkpt><trkpt lat="30.863524" lon="35.6633816"><ele>1184.8</ele><time>2015-11-22T12:18:27.0000000+00:00</time></trkpt><trkpt lat="30.8634725" lon="35.6633144"><ele>1185.2</ele><time>2015-11-22T12:18:29.0000000+00:00</time></trkpt><trkpt lat="30.8634194" lon="35.6632495"><ele>1184.6</ele><time>2015-11-22T12:18:31.0000000+00:00</time></trkpt><trkpt lat="30.8633675" lon="35.6631863"><ele>1184.5</ele><time>2015-11-22T12:18:33.0000000+00:00</time></trkpt><trkpt lat="30.8633177" lon="35.6631175"><ele>1185.2</ele><time>2015-11-22T12:18:35.0000000+00:00</time></trkpt><trkpt lat="30.8632686" lon="35.6630462"><ele>1185.3</ele><time>2015-11-22T12:18:37.0000000+00:00</time></trkpt><trkpt lat="30.8632173" lon="35.6629764"><ele>1185.9</ele><time>2015-11-22T12:18:39.0000000+00:00</time></trkpt><trkpt lat="30.8631666" lon="35.6629092"><ele>1187.0</ele><time>2015-11-22T12:18:41.0000000+00:00</time></trkpt><trkpt lat="30.8631158" lon="35.6628429"><ele>1187.3</ele><time>2015-11-22T12:18:43.0000000+00:00</time></trkpt><trkpt lat="30.8630673" lon="35.6627778"><ele>1187.4</ele><time>2015-11-22T12:18:45.0000000+00:00</time></trkpt><trkpt lat="30.8630258" lon="35.6627167"><ele>1187.4</ele><time>2015-11-22T12:18:47.0000000+00:00</time></trkpt><trkpt lat="30.8629824" lon="35.6626581"><ele>1187.4</ele><time>2015-11-22T12:18:49.0000000+00:00</time></trkpt><trkpt lat="30.8629387" lon="35.6626006"><ele>1187.6</ele><time>2015-11-22T12:18:51.0000000+00:00</time></trkpt><trkpt lat="30.8628985" lon="35.6625421"><ele>1187.5</ele><time>2015-11-22T12:18:53.0000000+00:00</time></trkpt><trkpt lat="30.8628546" lon="35.6624859"><ele>1188.2</ele><time>2015-11-22T12:18:55.0000000+00:00</time></trkpt><trkpt lat="30.862811" lon="35.6624281"><ele>1188.3</ele><time>2015-11-22T12:18:57.0000000+00:00</time></trkpt><trkpt lat="30.86277" lon="35.6623697"><ele>1188.9</ele><time>2015-11-22T12:18:59.0000000+00:00</time></trkpt><trkpt lat="30.8627287" lon="35.6623098"><ele>1189.3</ele><time>2015-11-22T12:19:01.0000000+00:00</time></trkpt><trkpt lat="30.8626866" lon="35.6622515"><ele>1189.4</ele><time>2015-11-22T12:19:03.0000000+00:00</time></trkpt><trkpt lat="30.8626455" lon="35.6621947"><ele>1189.4</ele><time>2015-11-22T12:19:05.0000000+00:00</time></trkpt><trkpt lat="30.8626064" lon="35.6621384"><ele>1189.4</ele><time>2015-11-22T12:19:07.0000000+00:00</time></trkpt><trkpt lat="30.8625667" lon="35.6620848"><ele>1189.9</ele><time>2015-11-22T12:19:09.0000000+00:00</time></trkpt><trkpt lat="30.8625277" lon="35.6620328"><ele>1190.3</ele><time>2015-11-22T12:19:11.0000000+00:00</time></trkpt><trkpt lat="30.8624888" lon="35.6619834"><ele>1190.4</ele><time>2015-11-22T12:19:13.0000000+00:00</time></trkpt><trkpt lat="30.8624529" lon="35.6619404"><ele>1191.1</ele><time>2015-11-22T12:19:15.0000000+00:00</time></trkpt><trkpt lat="30.862415" lon="35.6618957"><ele>1191.8</ele><time>2015-11-22T12:19:17.0000000+00:00</time></trkpt><trkpt lat="30.8623782" lon="35.6618485"><ele>1192.2</ele><time>2015-11-22T12:19:19.0000000+00:00</time></trkpt><trkpt lat="30.8623416" lon="35.6618019"><ele>1192.4</ele><time>2015-11-22T12:19:21.0000000+00:00</time></trkpt><trkpt lat="30.8623054" lon="35.6617532"><ele>1192.4</ele><time>2015-11-22T12:19:23.0000000+00:00</time></trkpt><trkpt lat="30.8622717" lon="35.6617036"><ele>1192.9</ele><time>2015-11-22T12:19:25.0000000+00:00</time></trkpt><trkpt lat="30.8622394" lon="35.6616601"><ele>1193.3</ele><time>2015-11-22T12:19:27.0000000+00:00</time></trkpt><trkpt lat="30.862205" lon="35.6616177"><ele>1193.4</ele><time>2015-11-22T12:19:29.0000000+00:00</time></trkpt><trkpt lat="30.8621736" lon="35.6615726"><ele>1193.9</ele><time>2015-11-22T12:19:31.0000000+00:00</time></trkpt><trkpt lat="30.8621416" lon="35.6615315"><ele>1194.8</ele><time>2015-11-22T12:19:33.0000000+00:00</time></trkpt><trkpt lat="30.8621106" lon="35.6614919"><ele>1195.2</ele><time>2015-11-22T12:19:35.0000000+00:00</time></trkpt><trkpt lat="30.8620858" lon="35.6614476"><ele>1195.4</ele><time>2015-11-22T12:19:37.0000000+00:00</time></trkpt><trkpt lat="30.8620503" lon="35.6613811"><ele>1195.4</ele><time>2015-11-22T12:19:40.0000000+00:00</time></trkpt><trkpt lat="30.8620173" lon="35.6613435"><ele>1196.1</ele><time>2015-11-22T12:19:42.0000000+00:00</time></trkpt><trkpt lat="30.8619708" lon="35.6612977"><ele>1196.9</ele><time>2015-11-22T12:19:45.0000000+00:00</time></trkpt><trkpt lat="30.8619374" lon="35.6612626"><ele>1197.3</ele><time>2015-11-22T12:19:47.0000000+00:00</time></trkpt><trkpt lat="30.8618961" lon="35.6612042"><ele>1198.1</ele><time>2015-11-22T12:19:50.0000000+00:00</time></trkpt><trkpt lat="30.8618545" lon="35.6611486"><ele>1199.1</ele><time>2015-11-22T12:19:53.0000000+00:00</time></trkpt><trkpt lat="30.8618117" lon="35.6610941"><ele>1198.9</ele><time>2015-11-22T12:19:56.0000000+00:00</time></trkpt><trkpt lat="30.8617711" lon="35.6610338"><ele>1198.0</ele><time>2015-11-22T12:19:59.0000000+00:00</time></trkpt><trkpt lat="30.8617299" lon="35.6609734"><ele>1198.2</ele><time>2015-11-22T12:20:02.0000000+00:00</time></trkpt><trkpt lat="30.8616989" lon="35.6609352"><ele>1197.6</ele><time>2015-11-22T12:20:04.0000000+00:00</time></trkpt><trkpt lat="30.8616685" lon="35.6608924"><ele>1198.0</ele><time>2015-11-22T12:20:06.0000000+00:00</time></trkpt><trkpt lat="30.8616378" lon="35.6608461"><ele>1198.3</ele><time>2015-11-22T12:20:08.0000000+00:00</time></trkpt><trkpt lat="30.8616039" lon="35.6607839"><ele>1198.9</ele><time>2015-11-22T12:20:10.0000000+00:00</time></trkpt><trkpt lat="30.8615704" lon="35.6607356"><ele>1199.3</ele><time>2015-11-22T12:20:12.0000000+00:00</time></trkpt><trkpt lat="30.8615371" lon="35.6606849"><ele>1199.4</ele><time>2015-11-22T12:20:14.0000000+00:00</time></trkpt><trkpt lat="30.861502" lon="35.6606361"><ele>1200.1</ele><time>2015-11-22T12:20:16.0000000+00:00</time></trkpt><trkpt lat="30.8614667" lon="35.6605794"><ele>1199.6</ele><time>2015-11-22T12:20:18.0000000+00:00</time></trkpt><trkpt lat="30.861429" lon="35.6605228"><ele>1199.4</ele><time>2015-11-22T12:20:20.0000000+00:00</time></trkpt><trkpt lat="30.8613883" lon="35.6604715"><ele>1199.4</ele><time>2015-11-22T12:20:22.0000000+00:00</time></trkpt><trkpt lat="30.8613486" lon="35.6604208"><ele>1199.4</ele><time>2015-11-22T12:20:24.0000000+00:00</time></trkpt><trkpt lat="30.8613068" lon="35.6603691"><ele>1199.9</ele><time>2015-11-22T12:20:26.0000000+00:00</time></trkpt><trkpt lat="30.8612582" lon="35.6603069"><ele>1199.5</ele><time>2015-11-22T12:20:28.0000000+00:00</time></trkpt><trkpt lat="30.8612122" lon="35.6602434"><ele>1199.4</ele><time>2015-11-22T12:20:30.0000000+00:00</time></trkpt><trkpt lat="30.8611603" lon="35.6601706"><ele>1199.4</ele><time>2015-11-22T12:20:32.0000000+00:00</time></trkpt><trkpt lat="30.8611259" lon="35.6601205"><ele>1199.4</ele><time>2015-11-22T12:20:33.0000000+00:00</time></trkpt><trkpt lat="30.8610664" lon="35.6600369"><ele>1198.9</ele><time>2015-11-22T12:20:35.0000000+00:00</time></trkpt><trkpt lat="30.8609995" lon="35.6599317"><ele>1198.0</ele><time>2015-11-22T12:20:37.0000000+00:00</time></trkpt><trkpt lat="30.8609665" lon="35.6598873"><ele>1197.7</ele><time>2015-11-22T12:20:38.0000000+00:00</time></trkpt><trkpt lat="30.8609235" lon="35.6598458"><ele>1197.6</ele><time>2015-11-22T12:20:39.0000000+00:00</time></trkpt><trkpt lat="30.8608879" lon="35.659801"><ele>1197.5</ele><time>2015-11-22T12:20:40.0000000+00:00</time></trkpt><trkpt lat="30.8608595" lon="35.659753"><ele>1196.9</ele><time>2015-11-22T12:20:41.0000000+00:00</time></trkpt><trkpt lat="30.8608233" lon="35.6597022"><ele>1196.7</ele><time>2015-11-22T12:20:42.0000000+00:00</time></trkpt><trkpt lat="30.8607885" lon="35.6596537"><ele>1196.5</ele><time>2015-11-22T12:20:43.0000000+00:00</time></trkpt><trkpt lat="30.8607493" lon="35.6596007"><ele>1196.5</ele><time>2015-11-22T12:20:44.0000000+00:00</time></trkpt><trkpt lat="30.8607099" lon="35.6595414"><ele>1195.9</ele><time>2015-11-22T12:20:45.0000000+00:00</time></trkpt><trkpt lat="30.8606698" lon="35.6594869"><ele>1195.7</ele><time>2015-11-22T12:20:46.0000000+00:00</time></trkpt><trkpt lat="30.860629" lon="35.6594271"><ele>1195.5</ele><time>2015-11-22T12:20:47.0000000+00:00</time></trkpt><trkpt lat="30.8605858" lon="35.6593706"><ele>1195.0</ele><time>2015-11-22T12:20:48.0000000+00:00</time></trkpt><trkpt lat="30.8605375" lon="35.659311"><ele>1195.2</ele><time>2015-11-22T12:20:49.0000000+00:00</time></trkpt><trkpt lat="30.8604907" lon="35.6592506"><ele>1195.3</ele><time>2015-11-22T12:20:50.0000000+00:00</time></trkpt><trkpt lat="30.8604471" lon="35.659185"><ele>1194.8</ele><time>2015-11-22T12:20:51.0000000+00:00</time></trkpt><trkpt lat="30.8604004" lon="35.6591203"><ele>1194.6</ele><time>2015-11-22T12:20:52.0000000+00:00</time></trkpt><trkpt lat="30.8603547" lon="35.6590536"><ele>1194.5</ele><time>2015-11-22T12:20:53.0000000+00:00</time></trkpt><trkpt lat="30.8603075" lon="35.6589877"><ele>1194.5</ele><time>2015-11-22T12:20:54.0000000+00:00</time></trkpt><trkpt lat="30.8602597" lon="35.6589238"><ele>1194.4</ele><time>2015-11-22T12:20:55.0000000+00:00</time></trkpt><trkpt lat="30.8602131" lon="35.6588613"><ele>1194.4</ele><time>2015-11-22T12:20:56.0000000+00:00</time></trkpt><trkpt lat="30.8601738" lon="35.6588063"><ele>1194.4</ele><time>2015-11-22T12:20:57.0000000+00:00</time></trkpt><trkpt lat="30.8601341" lon="35.6587493"><ele>1194.9</ele><time>2015-11-22T12:20:58.0000000+00:00</time></trkpt><trkpt lat="30.8600928" lon="35.6586921"><ele>1195.2</ele><time>2015-11-22T12:20:59.0000000+00:00</time></trkpt><trkpt lat="30.8600536" lon="35.6586312"><ele>1194.8</ele><time>2015-11-22T12:21:00.0000000+00:00</time></trkpt><trkpt lat="30.8600099" lon="35.6585751"><ele>1195.1</ele><time>2015-11-22T12:21:01.0000000+00:00</time></trkpt><trkpt lat="30.8599677" lon="35.6585208"><ele>1195.2</ele><time>2015-11-22T12:21:02.0000000+00:00</time></trkpt><trkpt lat="30.8599283" lon="35.6584646"><ele>1195.3</ele><time>2015-11-22T12:21:03.0000000+00:00</time></trkpt><trkpt lat="30.8598873" lon="35.6584086"><ele>1195.4</ele><time>2015-11-22T12:21:04.0000000+00:00</time></trkpt><trkpt lat="30.8598438" lon="35.6583539"><ele>1195.4</ele><time>2015-11-22T12:21:05.0000000+00:00</time></trkpt><trkpt lat="30.8598028" lon="35.6582993"><ele>1195.9</ele><time>2015-11-22T12:21:06.0000000+00:00</time></trkpt><trkpt lat="30.8597644" lon="35.6582388"><ele>1195.6</ele><time>2015-11-22T12:21:07.0000000+00:00</time></trkpt><trkpt lat="30.8597226" lon="35.6581854"><ele>1196.0</ele><time>2015-11-22T12:21:08.0000000+00:00</time></trkpt><trkpt lat="30.8596812" lon="35.6581292"><ele>1196.2</ele><time>2015-11-22T12:21:09.0000000+00:00</time></trkpt><trkpt lat="30.8596422" lon="35.6580737"><ele>1196.3</ele><time>2015-11-22T12:21:10.0000000+00:00</time></trkpt><trkpt lat="30.8596022" lon="35.6580243"><ele>1196.4</ele><time>2015-11-22T12:21:11.0000000+00:00</time></trkpt><trkpt lat="30.8595657" lon="35.6579744"><ele>1196.4</ele><time>2015-11-22T12:21:12.0000000+00:00</time></trkpt><trkpt lat="30.8595278" lon="35.6579322"><ele>1196.9</ele><time>2015-11-22T12:21:13.0000000+00:00</time></trkpt><trkpt lat="30.8594905" lon="35.6578898"><ele>1197.1</ele><time>2015-11-22T12:21:14.0000000+00:00</time></trkpt><trkpt lat="30.8594574" lon="35.6578448"><ele>1197.3</ele><time>2015-11-22T12:21:15.0000000+00:00</time></trkpt><trkpt lat="30.8594231" lon="35.6578047"><ele>1197.3</ele><time>2015-11-22T12:21:16.0000000+00:00</time></trkpt><trkpt lat="30.8593808" lon="35.6577711"><ele>1197.4</ele><time>2015-11-22T12:21:17.0000000+00:00</time></trkpt><trkpt lat="30.8593424" lon="35.6577306"><ele>1197.4</ele><time>2015-11-22T12:21:18.0000000+00:00</time></trkpt><trkpt lat="30.8593004" lon="35.6576938"><ele>1197.9</ele><time>2015-11-22T12:21:19.0000000+00:00</time></trkpt><trkpt lat="30.8592579" lon="35.6576535"><ele>1198.1</ele><time>2015-11-22T12:21:20.0000000+00:00</time></trkpt><trkpt lat="30.8592108" lon="35.657618"><ele>1198.8</ele><time>2015-11-22T12:21:21.0000000+00:00</time></trkpt><trkpt lat="30.8591647" lon="35.6575808"><ele>1199.1</ele><time>2015-11-22T12:21:22.0000000+00:00</time></trkpt><trkpt lat="30.8591174" lon="35.657549"><ele>1199.2</ele><time>2015-11-22T12:21:23.0000000+00:00</time></trkpt><trkpt lat="30.8590737" lon="35.6575137"><ele>1199.3</ele><time>2015-11-22T12:21:24.0000000+00:00</time></trkpt><trkpt lat="30.8590304" lon="35.6574964"><ele>1200.4</ele><time>2015-11-22T12:21:25.0000000+00:00</time></trkpt><trkpt lat="30.8589873" lon="35.6574741"><ele>1200.9</ele><time>2015-11-22T12:21:26.0000000+00:00</time></trkpt><trkpt lat="30.8589086" lon="35.6574269"><ele>1201.3</ele><time>2015-11-22T12:21:28.0000000+00:00</time></trkpt><trkpt lat="30.8588702" lon="35.6573996"><ele>1200.8</ele><time>2015-11-22T12:21:29.0000000+00:00</time></trkpt><trkpt lat="30.8588243" lon="35.6573718"><ele>1200.6</ele><time>2015-11-22T12:21:30.0000000+00:00</time></trkpt><trkpt lat="30.8587811" lon="35.6573482"><ele>1200.5</ele><time>2015-11-22T12:21:31.0000000+00:00</time></trkpt><trkpt lat="30.8587349" lon="35.6573224"><ele>1200.5</ele><time>2015-11-22T12:21:32.0000000+00:00</time></trkpt><trkpt lat="30.8586869" lon="35.6573041"><ele>1199.9</ele><time>2015-11-22T12:21:33.0000000+00:00</time></trkpt><trkpt lat="30.858638" lon="35.6572812"><ele>1199.7</ele><time>2015-11-22T12:21:34.0000000+00:00</time></trkpt><trkpt lat="30.858585" lon="35.6572523"><ele>1200.0</ele><time>2015-11-22T12:21:35.0000000+00:00</time></trkpt><trkpt lat="30.8585338" lon="35.6572277"><ele>1200.2</ele><time>2015-11-22T12:21:36.0000000+00:00</time></trkpt><trkpt lat="30.8584797" lon="35.6571988"><ele>1200.3</ele><time>2015-11-22T12:21:37.0000000+00:00</time></trkpt><trkpt lat="30.8584275" lon="35.6571734"><ele>1200.4</ele><time>2015-11-22T12:21:38.0000000+00:00</time></trkpt><trkpt lat="30.8583811" lon="35.6571493"><ele>1200.4</ele><time>2015-11-22T12:21:39.0000000+00:00</time></trkpt><trkpt lat="30.8583286" lon="35.6571243"><ele>1200.4</ele><time>2015-11-22T12:21:40.0000000+00:00</time></trkpt><trkpt lat="30.8582768" lon="35.6571098"><ele>1199.9</ele><time>2015-11-22T12:21:41.0000000+00:00</time></trkpt><trkpt lat="30.8582309" lon="35.6570873"><ele>1199.6</ele><time>2015-11-22T12:21:42.0000000+00:00</time></trkpt><trkpt lat="30.8581887" lon="35.6570683"><ele>1199.0</ele><time>2015-11-22T12:21:43.0000000+00:00</time></trkpt><trkpt lat="30.8580959" lon="35.6570234"><ele>1199.2</ele><time>2015-11-22T12:21:45.0000000+00:00</time></trkpt><trkpt lat="30.8580443" lon="35.6569995"><ele>1199.8</ele><time>2015-11-22T12:21:46.0000000+00:00</time></trkpt><trkpt lat="30.8579991" lon="35.6569802"><ele>1200.1</ele><time>2015-11-22T12:21:47.0000000+00:00</time></trkpt><trkpt lat="30.8579537" lon="35.6569623"><ele>1200.3</ele><time>2015-11-22T12:21:48.0000000+00:00</time></trkpt><trkpt lat="30.8578681" lon="35.6569236"><ele>1200.9</ele><time>2015-11-22T12:21:50.0000000+00:00</time></trkpt><trkpt lat="30.8577899" lon="35.6568858"><ele>1200.5</ele><time>2015-11-22T12:21:52.0000000+00:00</time></trkpt><trkpt lat="30.857711" lon="35.6568524"><ele>1200.4</ele><time>2015-11-22T12:21:54.0000000+00:00</time></trkpt><trkpt lat="30.8576329" lon="35.6568097"><ele>1200.4</ele><time>2015-11-22T12:21:56.0000000+00:00</time></trkpt><trkpt lat="30.8575843" lon="35.6567896"><ele>1200.4</ele><time>2015-11-22T12:21:57.0000000+00:00</time></trkpt><trkpt lat="30.8575052" lon="35.656752"><ele>1200.4</ele><time>2015-11-22T12:21:59.0000000+00:00</time></trkpt><trkpt lat="30.8574254" lon="35.656715"><ele>1200.4</ele><time>2015-11-22T12:22:01.0000000+00:00</time></trkpt><trkpt lat="30.8573456" lon="35.656683"><ele>1200.4</ele><time>2015-11-22T12:22:03.0000000+00:00</time></trkpt><trkpt lat="30.8572682" lon="35.6566516"><ele>1200.4</ele><time>2015-11-22T12:22:05.0000000+00:00</time></trkpt><trkpt lat="30.8572004" lon="35.656619"><ele>1200.6</ele><time>2015-11-22T12:22:07.0000000+00:00</time></trkpt><trkpt lat="30.8571342" lon="35.6565924"><ele>1200.5</ele><time>2015-11-22T12:22:09.0000000+00:00</time></trkpt><trkpt lat="30.8570684" lon="35.6565684"><ele>1200.9</ele><time>2015-11-22T12:22:11.0000000+00:00</time></trkpt><trkpt lat="30.857005" lon="35.6565431"><ele>1201.3</ele><time>2015-11-22T12:22:13.0000000+00:00</time></trkpt><trkpt lat="30.8569432" lon="35.6565195"><ele>1201.4</ele><time>2015-11-22T12:22:15.0000000+00:00</time></trkpt><trkpt lat="30.8568883" lon="35.6564971"><ele>1200.9</ele><time>2015-11-22T12:22:17.0000000+00:00</time></trkpt><trkpt lat="30.8568268" lon="35.6564692"><ele>1200.8</ele><time>2015-11-22T12:22:19.0000000+00:00</time></trkpt><trkpt lat="30.8567606" lon="35.6564394"><ele>1200.5</ele><time>2015-11-22T12:22:21.0000000+00:00</time></trkpt><trkpt lat="30.8566869" lon="35.6564082"><ele>1200.4</ele><time>2015-11-22T12:22:23.0000000+00:00</time></trkpt><trkpt lat="30.8566114" lon="35.6563738"><ele>1200.4</ele><time>2015-11-22T12:22:25.0000000+00:00</time></trkpt><trkpt lat="30.8565354" lon="35.6563378"><ele>1199.7</ele><time>2015-11-22T12:22:27.0000000+00:00</time></trkpt><trkpt lat="30.8564574" lon="35.6563056"><ele>1199.5</ele><time>2015-11-22T12:22:29.0000000+00:00</time></trkpt><trkpt lat="30.8563783" lon="35.6562716"><ele>1198.7</ele><time>2015-11-22T12:22:31.0000000+00:00</time></trkpt><trkpt lat="30.856299" lon="35.656237"><ele>1198.5</ele><time>2015-11-22T12:22:33.0000000+00:00</time></trkpt><trkpt lat="30.8562404" lon="35.6562117"><ele>1198.4</ele><time>2015-11-22T12:22:34.0000000+00:00</time></trkpt><trkpt lat="30.8561898" lon="35.656192"><ele>1198.4</ele><time>2015-11-22T12:22:35.0000000+00:00</time></trkpt><trkpt lat="30.8561448" lon="35.6561736"><ele>1198.4</ele><time>2015-11-22T12:22:36.0000000+00:00</time></trkpt><trkpt lat="30.8560925" lon="35.65615"><ele>1198.4</ele><time>2015-11-22T12:22:37.0000000+00:00</time></trkpt><trkpt lat="30.8560423" lon="35.6561373"><ele>1197.9</ele><time>2015-11-22T12:22:38.0000000+00:00</time></trkpt><trkpt lat="30.855998" lon="35.6561189"><ele>1197.7</ele><time>2015-11-22T12:22:39.0000000+00:00</time></trkpt><trkpt lat="30.8559526" lon="35.6560909"><ele>1197.0</ele><time>2015-11-22T12:22:40.0000000+00:00</time></trkpt><trkpt lat="30.8558983" lon="35.6560684"><ele>1196.7</ele><time>2015-11-22T12:22:41.0000000+00:00</time></trkpt><trkpt lat="30.8558539" lon="35.6560482"><ele>1196.6</ele><time>2015-11-22T12:22:42.0000000+00:00</time></trkpt><trkpt lat="30.8558095" lon="35.6560274"><ele>1196.5</ele><time>2015-11-22T12:22:43.0000000+00:00</time></trkpt><trkpt lat="30.8557584" lon="35.656007"><ele>1196.4</ele><time>2015-11-22T12:22:44.0000000+00:00</time></trkpt><trkpt lat="30.8557023" lon="35.6559839"><ele>1196.9</ele><time>2015-11-22T12:22:45.0000000+00:00</time></trkpt><trkpt lat="30.8556416" lon="35.6559516"><ele>1196.7</ele><time>2015-11-22T12:22:46.0000000+00:00</time></trkpt><trkpt lat="30.8555892" lon="35.6559418"><ele>1196.5</ele><time>2015-11-22T12:22:47.0000000+00:00</time></trkpt><trkpt lat="30.8555338" lon="35.655915"><ele>1197.0</ele><time>2015-11-22T12:22:48.0000000+00:00</time></trkpt><trkpt lat="30.8554787" lon="35.6558884"><ele>1197.2</ele><time>2015-11-22T12:22:49.0000000+00:00</time></trkpt><trkpt lat="30.855419" lon="35.6558655"><ele>1197.3</ele><time>2015-11-22T12:22:50.0000000+00:00</time></trkpt><trkpt lat="30.8553646" lon="35.6558495"><ele>1196.8</ele><time>2015-11-22T12:22:51.0000000+00:00</time></trkpt><trkpt lat="30.8553117" lon="35.6558269"><ele>1196.6</ele><time>2015-11-22T12:22:52.0000000+00:00</time></trkpt><trkpt lat="30.8552616" lon="35.655797"><ele>1196.0</ele><time>2015-11-22T12:22:53.0000000+00:00</time></trkpt><trkpt lat="30.8551959" lon="35.6557767"><ele>1196.2</ele><time>2015-11-22T12:22:54.0000000+00:00</time></trkpt><trkpt lat="30.8551381" lon="35.6557566"><ele>1196.3</ele><time>2015-11-22T12:22:55.0000000+00:00</time></trkpt><trkpt lat="30.8550886" lon="35.6557279"><ele>1195.4</ele><time>2015-11-22T12:22:56.0000000+00:00</time></trkpt><trkpt lat="30.8550338" lon="35.6557034"><ele>1195.4</ele><time>2015-11-22T12:22:57.0000000+00:00</time></trkpt><trkpt lat="30.8549698" lon="35.6556623"><ele>1195.9</ele><time>2015-11-22T12:22:58.0000000+00:00</time></trkpt><trkpt lat="30.8549172" lon="35.655636"><ele>1196.1</ele><time>2015-11-22T12:22:59.0000000+00:00</time></trkpt><trkpt lat="30.8548743" lon="35.6556082"><ele>1196.3</ele><time>2015-11-22T12:23:00.0000000+00:00</time></trkpt><trkpt lat="30.85482" lon="35.6555867"><ele>1196.3</ele><time>2015-11-22T12:23:01.0000000+00:00</time></trkpt><trkpt lat="30.8547676" lon="35.6555675"><ele>1195.9</ele><time>2015-11-22T12:23:02.0000000+00:00</time></trkpt><trkpt lat="30.8547154" lon="35.6555365"><ele>1196.1</ele><time>2015-11-22T12:23:03.0000000+00:00</time></trkpt><trkpt lat="30.8546614" lon="35.6555194"><ele>1195.8</ele><time>2015-11-22T12:23:04.0000000+00:00</time></trkpt><trkpt lat="30.8546012" lon="35.6555001"><ele>1195.6</ele><time>2015-11-22T12:23:05.0000000+00:00</time></trkpt><trkpt lat="30.8545461" lon="35.6554781"><ele>1195.5</ele><time>2015-11-22T12:23:06.0000000+00:00</time></trkpt><trkpt lat="30.854489" lon="35.6554463"><ele>1195.9</ele><time>2015-11-22T12:23:07.0000000+00:00</time></trkpt><trkpt lat="30.8544325" lon="35.6554181"><ele>1196.2</ele><time>2015-11-22T12:23:08.0000000+00:00</time></trkpt><trkpt lat="30.8543762" lon="35.6553872"><ele>1196.8</ele><time>2015-11-22T12:23:09.0000000+00:00</time></trkpt><trkpt lat="30.8543252" lon="35.6553619"><ele>1196.6</ele><time>2015-11-22T12:23:10.0000000+00:00</time></trkpt><trkpt lat="30.8542761" lon="35.6553164"><ele>1196.5</ele><time>2015-11-22T12:23:11.0000000+00:00</time></trkpt><trkpt lat="30.8542243" lon="35.6552786"><ele>1195.9</ele><time>2015-11-22T12:23:12.0000000+00:00</time></trkpt><trkpt lat="30.8541764" lon="35.6552425"><ele>1195.2</ele><time>2015-11-22T12:23:13.0000000+00:00</time></trkpt><trkpt lat="30.8541283" lon="35.655198"><ele>1194.8</ele><time>2015-11-22T12:23:14.0000000+00:00</time></trkpt><trkpt lat="30.8540695" lon="35.6551584"><ele>1195.6</ele><time>2015-11-22T12:23:15.0000000+00:00</time></trkpt><trkpt lat="30.8540203" lon="35.6551215"><ele>1195.5</ele><time>2015-11-22T12:23:16.0000000+00:00</time></trkpt><trkpt lat="30.8539626" lon="35.6550733"><ele>1194.9</ele><time>2015-11-22T12:23:17.0000000+00:00</time></trkpt><trkpt lat="30.8539145" lon="35.6550271"><ele>1195.2</ele><time>2015-11-22T12:23:18.0000000+00:00</time></trkpt><trkpt lat="30.8538618" lon="35.6549754"><ele>1194.8</ele><time>2015-11-22T12:23:19.0000000+00:00</time></trkpt><trkpt lat="30.8538081" lon="35.6549307"><ele>1195.1</ele><time>2015-11-22T12:23:20.0000000+00:00</time></trkpt><trkpt lat="30.8537588" lon="35.6548875"><ele>1195.2</ele><time>2015-11-22T12:23:21.0000000+00:00</time></trkpt><trkpt lat="30.853712" lon="35.654845"><ele>1195.3</ele><time>2015-11-22T12:23:22.0000000+00:00</time></trkpt><trkpt lat="30.8536634" lon="35.6547868"><ele>1195.4</ele><time>2015-11-22T12:23:23.0000000+00:00</time></trkpt><trkpt lat="30.8536154" lon="35.6547453"><ele>1194.9</ele><time>2015-11-22T12:23:24.0000000+00:00</time></trkpt><trkpt lat="30.8535636" lon="35.6546988"><ele>1195.1</ele><time>2015-11-22T12:23:25.0000000+00:00</time></trkpt><trkpt lat="30.853513" lon="35.6546457"><ele>1195.3</ele><time>2015-11-22T12:23:26.0000000+00:00</time></trkpt><trkpt lat="30.853464" lon="35.6545978"><ele>1195.3</ele><time>2015-11-22T12:23:27.0000000+00:00</time></trkpt><trkpt lat="30.8534302" lon="35.6545578"><ele>1195.4</ele><time>2015-11-22T12:23:28.0000000+00:00</time></trkpt><trkpt lat="30.8533994" lon="35.6545176"><ele>1195.4</ele><time>2015-11-22T12:23:29.0000000+00:00</time></trkpt><trkpt lat="30.8533386" lon="35.6544543"><ele>1196.1</ele><time>2015-11-22T12:23:31.0000000+00:00</time></trkpt><trkpt lat="30.8532801" lon="35.654382"><ele>1196.3</ele><time>2015-11-22T12:23:33.0000000+00:00</time></trkpt><trkpt lat="30.8532188" lon="35.6543116"><ele>1197.4</ele><time>2015-11-22T12:23:35.0000000+00:00</time></trkpt><trkpt lat="30.853183" lon="35.6542798"><ele>1197.4</ele><time>2015-11-22T12:23:36.0000000+00:00</time></trkpt><trkpt lat="30.8531146" lon="35.6542192"><ele>1198.6</ele><time>2015-11-22T12:23:38.0000000+00:00</time></trkpt><trkpt lat="30.853075" lon="35.6541854"><ele>1198.5</ele><time>2015-11-22T12:23:39.0000000+00:00</time></trkpt><trkpt lat="30.853034" lon="35.6541587"><ele>1198.5</ele><time>2015-11-22T12:23:40.0000000+00:00</time></trkpt><trkpt lat="30.8529778" lon="35.6540806"><ele>1198.4</ele><time>2015-11-22T12:23:42.0000000+00:00</time></trkpt><trkpt lat="30.8529395" lon="35.654048"><ele>1198.4</ele><time>2015-11-22T12:23:43.0000000+00:00</time></trkpt><trkpt lat="30.8528721" lon="35.6539938"><ele>1199.7</ele><time>2015-11-22T12:23:45.0000000+00:00</time></trkpt><trkpt lat="30.8528082" lon="35.6539353"><ele>1200.2</ele><time>2015-11-22T12:23:47.0000000+00:00</time></trkpt><trkpt lat="30.8527526" lon="35.6538757"><ele>1200.9</ele><time>2015-11-22T12:23:49.0000000+00:00</time></trkpt><trkpt lat="30.8526996" lon="35.6538157"><ele>1200.8</ele><time>2015-11-22T12:23:51.0000000+00:00</time></trkpt><trkpt lat="30.8526271" lon="35.6537804"><ele>1199.7</ele><time>2015-11-22T12:23:53.0000000+00:00</time></trkpt><trkpt lat="30.8525596" lon="35.6537249"><ele>1198.7</ele><time>2015-11-22T12:23:55.0000000+00:00</time></trkpt><trkpt lat="30.8524995" lon="35.6536735"><ele>1199.2</ele><time>2015-11-22T12:23:57.0000000+00:00</time></trkpt><trkpt lat="30.8524404" lon="35.6536222"><ele>1199.4</ele><time>2015-11-22T12:23:59.0000000+00:00</time></trkpt><trkpt lat="30.8523867" lon="35.6535646"><ele>1200.1</ele><time>2015-11-22T12:24:01.0000000+00:00</time></trkpt><trkpt lat="30.8523425" lon="35.6535034"><ele>1200.1</ele><time>2015-11-22T12:24:03.0000000+00:00</time></trkpt><trkpt lat="30.852297" lon="35.6534474"><ele>1201.1</ele><time>2015-11-22T12:24:05.0000000+00:00</time></trkpt><trkpt lat="30.8522481" lon="35.6533909"><ele>1201.3</ele><time>2015-11-22T12:24:07.0000000+00:00</time></trkpt><trkpt lat="30.8521992" lon="35.6533379"><ele>1201.9</ele><time>2015-11-22T12:24:09.0000000+00:00</time></trkpt><trkpt lat="30.8521487" lon="35.6532854"><ele>1203.0</ele><time>2015-11-22T12:24:11.0000000+00:00</time></trkpt><trkpt lat="30.8520901" lon="35.6532405"><ele>1204.1</ele><time>2015-11-22T12:24:13.0000000+00:00</time></trkpt><trkpt lat="30.8520323" lon="35.6531903"><ele>1204.3</ele><time>2015-11-22T12:24:15.0000000+00:00</time></trkpt><trkpt lat="30.8519796" lon="35.6531338"><ele>1204.4</ele><time>2015-11-22T12:24:17.0000000+00:00</time></trkpt><trkpt lat="30.8519276" lon="35.6530799"><ele>1204.9</ele><time>2015-11-22T12:24:19.0000000+00:00</time></trkpt><trkpt lat="30.8518791" lon="35.6530236"><ele>1205.8</ele><time>2015-11-22T12:24:21.0000000+00:00</time></trkpt><trkpt lat="30.8518299" lon="35.6529645"><ele>1206.2</ele><time>2015-11-22T12:24:23.0000000+00:00</time></trkpt><trkpt lat="30.8517763" lon="35.6529132"><ele>1206.6</ele><time>2015-11-22T12:24:25.0000000+00:00</time></trkpt><trkpt lat="30.8517206" lon="35.6528738"><ele>1207.0</ele><time>2015-11-22T12:24:27.0000000+00:00</time></trkpt><trkpt lat="30.8516726" lon="35.6528291"><ele>1207.3</ele><time>2015-11-22T12:24:29.0000000+00:00</time></trkpt><trkpt lat="30.8516307" lon="35.6527795"><ele>1207.4</ele><time>2015-11-22T12:24:31.0000000+00:00</time></trkpt><trkpt lat="30.8515956" lon="35.6527318"><ele>1206.1</ele><time>2015-11-22T12:24:33.0000000+00:00</time></trkpt><trkpt lat="30.8515671" lon="35.6526855"><ele>1204.6</ele><time>2015-11-22T12:24:36.0000000+00:00</time></trkpt><trkpt lat="30.8515181" lon="35.652671"><ele>1206.1</ele><time>2015-11-22T12:24:39.0000000+00:00</time></trkpt><trkpt lat="30.8514666" lon="35.652682"><ele>1207.1</ele><time>2015-11-22T12:24:41.0000000+00:00</time></trkpt><trkpt lat="30.8514129" lon="35.6527186"><ele>1208.1</ele><time>2015-11-22T12:24:43.0000000+00:00</time></trkpt><trkpt lat="30.8513638" lon="35.6527645"><ele>1208.3</ele><time>2015-11-22T12:24:45.0000000+00:00</time></trkpt><trkpt lat="30.8513137" lon="35.6528145"><ele>1208.4</ele><time>2015-11-22T12:24:47.0000000+00:00</time></trkpt><trkpt lat="30.8512595" lon="35.65286"><ele>1205.4</ele><time>2015-11-22T12:24:49.0000000+00:00</time></trkpt><trkpt lat="30.8512088" lon="35.652905"><ele>1204.6</ele><time>2015-11-22T12:24:51.0000000+00:00</time></trkpt><trkpt lat="30.8511625" lon="35.6529521"><ele>1204.5</ele><time>2015-11-22T12:24:53.0000000+00:00</time></trkpt><trkpt lat="30.8511181" lon="35.652996"><ele>1204.4</ele><time>2015-11-22T12:24:55.0000000+00:00</time></trkpt><trkpt lat="30.8510717" lon="35.6530382"><ele>1204.4</ele><time>2015-11-22T12:24:57.0000000+00:00</time></trkpt><trkpt lat="30.8510281" lon="35.6530757"><ele>1204.4</ele><time>2015-11-22T12:24:59.0000000+00:00</time></trkpt><trkpt lat="30.8509878" lon="35.6531073"><ele>1204.9</ele><time>2015-11-22T12:25:01.0000000+00:00</time></trkpt><trkpt lat="30.8509474" lon="35.653139"><ele>1205.0</ele><time>2015-11-22T12:25:03.0000000+00:00</time></trkpt><trkpt lat="30.8508986" lon="35.6531701"><ele>1204.1</ele><time>2015-11-22T12:25:05.0000000+00:00</time></trkpt><trkpt lat="30.8508489" lon="35.6532017"><ele>1204.1</ele><time>2015-11-22T12:25:07.0000000+00:00</time></trkpt><trkpt lat="30.8507995" lon="35.6532373"><ele>1204.3</ele><time>2015-11-22T12:25:09.0000000+00:00</time></trkpt><trkpt lat="30.850746" lon="35.653272"><ele>1204.4</ele><time>2015-11-22T12:25:11.0000000+00:00</time></trkpt><trkpt lat="30.8506885" lon="35.6533103"><ele>1204.4</ele><time>2015-11-22T12:25:13.0000000+00:00</time></trkpt><trkpt lat="30.8506281" lon="35.6533476"><ele>1204.4</ele><time>2015-11-22T12:25:15.0000000+00:00</time></trkpt><trkpt lat="30.8505659" lon="35.6533768"><ele>1204.1</ele><time>2015-11-22T12:25:17.0000000+00:00</time></trkpt><trkpt lat="30.8505066" lon="35.6534077"><ele>1204.3</ele><time>2015-11-22T12:25:19.0000000+00:00</time></trkpt><trkpt lat="30.8504531" lon="35.6534339"><ele>1204.4</ele><time>2015-11-22T12:25:21.0000000+00:00</time></trkpt><trkpt lat="30.8504171" lon="35.6534853"><ele>1202.5</ele><time>2015-11-22T12:25:51.0000000+00:00</time></trkpt><trkpt lat="30.8503576" lon="35.6535284"><ele>1202.7</ele><time>2015-11-22T12:25:54.0000000+00:00</time></trkpt><trkpt lat="30.8503053" lon="35.6535631"><ele>1203.7</ele><time>2015-11-22T12:25:56.0000000+00:00</time></trkpt><trkpt lat="30.8502482" lon="35.6536039"><ele>1204.2</ele><time>2015-11-22T12:25:58.0000000+00:00</time></trkpt><trkpt lat="30.8501892" lon="35.6536427"><ele>1205.1</ele><time>2015-11-22T12:26:00.0000000+00:00</time></trkpt><trkpt lat="30.8501357" lon="35.653678"><ele>1205.3</ele><time>2015-11-22T12:26:02.0000000+00:00</time></trkpt><trkpt lat="30.8500907" lon="35.6537123"><ele>1205.4</ele><time>2015-11-22T12:26:04.0000000+00:00</time></trkpt><trkpt lat="30.8500475" lon="35.6537434"><ele>1204.9</ele><time>2015-11-22T12:26:06.0000000+00:00</time></trkpt><trkpt lat="30.8500041" lon="35.6537734"><ele>1205.3</ele><time>2015-11-22T12:26:08.0000000+00:00</time></trkpt><trkpt lat="30.8499595" lon="35.6538055"><ele>1205.4</ele><time>2015-11-22T12:26:10.0000000+00:00</time></trkpt><trkpt lat="30.8499142" lon="35.6538454"><ele>1206.6</ele><time>2015-11-22T12:26:12.0000000+00:00</time></trkpt><trkpt lat="30.8498636" lon="35.6538919"><ele>1206.7</ele><time>2015-11-22T12:26:14.0000000+00:00</time></trkpt><trkpt lat="30.8498097" lon="35.6539378"><ele>1206.5</ele><time>2015-11-22T12:26:16.0000000+00:00</time></trkpt><trkpt lat="30.8497525" lon="35.6539842"><ele>1206.9</ele><time>2015-11-22T12:26:18.0000000+00:00</time></trkpt><trkpt lat="30.8496969" lon="35.6540304"><ele>1207.3</ele><time>2015-11-22T12:26:20.0000000+00:00</time></trkpt><trkpt lat="30.8496418" lon="35.6540772"><ele>1206.6</ele><time>2015-11-22T12:26:22.0000000+00:00</time></trkpt><trkpt lat="30.8495901" lon="35.6541277"><ele>1206.5</ele><time>2015-11-22T12:26:24.0000000+00:00</time></trkpt><trkpt lat="30.8495372" lon="35.6541779"><ele>1207.7</ele><time>2015-11-22T12:26:26.0000000+00:00</time></trkpt><trkpt lat="30.8494852" lon="35.6542282"><ele>1208.5</ele><time>2015-11-22T12:26:28.0000000+00:00</time></trkpt><trkpt lat="30.8494346" lon="35.6542804"><ele>1209.2</ele><time>2015-11-22T12:26:30.0000000+00:00</time></trkpt><trkpt lat="30.8493844" lon="35.6543376"><ele>1208.6</ele><time>2015-11-22T12:26:32.0000000+00:00</time></trkpt><trkpt lat="30.8493353" lon="35.6543939"><ele>1208.9</ele><time>2015-11-22T12:26:34.0000000+00:00</time></trkpt><trkpt lat="30.8492865" lon="35.6544494"><ele>1209.3</ele><time>2015-11-22T12:26:36.0000000+00:00</time></trkpt><trkpt lat="30.8492404" lon="35.654507"><ele>1209.4</ele><time>2015-11-22T12:26:38.0000000+00:00</time></trkpt><trkpt lat="30.8491855" lon="35.6545544"><ele>1209.1</ele><time>2015-11-22T12:26:40.0000000+00:00</time></trkpt><trkpt lat="30.8491291" lon="35.6545912"><ele>1209.3</ele><time>2015-11-22T12:26:42.0000000+00:00</time></trkpt><trkpt lat="30.8490746" lon="35.6546194"><ele>1208.6</ele><time>2015-11-22T12:26:44.0000000+00:00</time></trkpt><trkpt lat="30.8490214" lon="35.6546396"><ele>1209.2</ele><time>2015-11-22T12:26:46.0000000+00:00</time></trkpt><trkpt lat="30.8489686" lon="35.6546531"><ele>1209.4</ele><time>2015-11-22T12:26:48.0000000+00:00</time></trkpt><trkpt lat="30.8489178" lon="35.654666"><ele>1210.1</ele><time>2015-11-22T12:26:50.0000000+00:00</time></trkpt><trkpt lat="30.8488644" lon="35.654682"><ele>1210.3</ele><time>2015-11-22T12:26:52.0000000+00:00</time></trkpt><trkpt lat="30.8488075" lon="35.654695"><ele>1209.9</ele><time>2015-11-22T12:26:54.0000000+00:00</time></trkpt><trkpt lat="30.8487467" lon="35.6547018"><ele>1209.5</ele><time>2015-11-22T12:26:56.0000000+00:00</time></trkpt><trkpt lat="30.8486829" lon="35.6547029"><ele>1208.9</ele><time>2015-11-22T12:26:58.0000000+00:00</time></trkpt><trkpt lat="30.8486188" lon="35.6546953"><ele>1208.8</ele><time>2015-11-22T12:27:00.0000000+00:00</time></trkpt><trkpt lat="30.8485542" lon="35.6546822"><ele>1208.7</ele><time>2015-11-22T12:27:02.0000000+00:00</time></trkpt><trkpt lat="30.8484894" lon="35.6546697"><ele>1208.5</ele><time>2015-11-22T12:27:04.0000000+00:00</time></trkpt><trkpt lat="30.8484217" lon="35.6546603"><ele>1208.4</ele><time>2015-11-22T12:27:06.0000000+00:00</time></trkpt><trkpt lat="30.8483494" lon="35.6546522"><ele>1208.4</ele><time>2015-11-22T12:27:08.0000000+00:00</time></trkpt><trkpt lat="30.8482659" lon="35.65464"><ele>1207.9</ele><time>2015-11-22T12:27:10.0000000+00:00</time></trkpt><trkpt lat="30.848221" lon="35.6546335"><ele>1207.6</ele><time>2015-11-22T12:27:11.0000000+00:00</time></trkpt><trkpt lat="30.8481752" lon="35.6546267"><ele>1207.5</ele><time>2015-11-22T12:27:12.0000000+00:00</time></trkpt><trkpt lat="30.8481051" lon="35.6546152"><ele>1207.5</ele><time>2015-11-22T12:27:13.0000000+00:00</time></trkpt><trkpt lat="30.8480547" lon="35.6545985"><ele>1207.4</ele><time>2015-11-22T12:27:14.0000000+00:00</time></trkpt><trkpt lat="30.8480065" lon="35.6545855"><ele>1207.4</ele><time>2015-11-22T12:27:15.0000000+00:00</time></trkpt><trkpt lat="30.8479595" lon="35.654575"><ele>1207.4</ele><time>2015-11-22T12:27:16.0000000+00:00</time></trkpt><trkpt lat="30.8479026" lon="35.6545485"><ele>1206.9</ele><time>2015-11-22T12:27:17.0000000+00:00</time></trkpt><trkpt lat="30.8478569" lon="35.6545256"><ele>1206.7</ele><time>2015-11-22T12:27:18.0000000+00:00</time></trkpt><trkpt lat="30.8478068" lon="35.6545"><ele>1206.5</ele><time>2015-11-22T12:27:19.0000000+00:00</time></trkpt><trkpt lat="30.8477585" lon="35.6544764"><ele>1206.5</ele><time>2015-11-22T12:27:20.0000000+00:00</time></trkpt><trkpt lat="30.8477071" lon="35.6544524"><ele>1206.4</ele><time>2015-11-22T12:27:21.0000000+00:00</time></trkpt><trkpt lat="30.8476598" lon="35.6544283"><ele>1206.4</ele><time>2015-11-22T12:27:22.0000000+00:00</time></trkpt><trkpt lat="30.8476112" lon="35.6544041"><ele>1206.4</ele><time>2015-11-22T12:27:23.0000000+00:00</time></trkpt><trkpt lat="30.8475524" lon="35.6543827"><ele>1206.4</ele><time>2015-11-22T12:27:24.0000000+00:00</time></trkpt><trkpt lat="30.8474902" lon="35.6543584"><ele>1205.9</ele><time>2015-11-22T12:27:25.0000000+00:00</time></trkpt><trkpt lat="30.8474293" lon="35.6543323"><ele>1205.7</ele><time>2015-11-22T12:27:26.0000000+00:00</time></trkpt><trkpt lat="30.8473768" lon="35.6543039"><ele>1205.5</ele><time>2015-11-22T12:27:27.0000000+00:00</time></trkpt><trkpt lat="30.8473251" lon="35.6542767"><ele>1205.5</ele><time>2015-11-22T12:27:28.0000000+00:00</time></trkpt><trkpt lat="30.8472688" lon="35.6542524"><ele>1205.9</ele><time>2015-11-22T12:27:29.0000000+00:00</time></trkpt><trkpt lat="30.8472177" lon="35.6542259"><ele>1206.2</ele><time>2015-11-22T12:27:30.0000000+00:00</time></trkpt><trkpt lat="30.8471658" lon="35.6541953"><ele>1206.3</ele><time>2015-11-22T12:27:31.0000000+00:00</time></trkpt><trkpt lat="30.8471074" lon="35.6541637"><ele>1206.3</ele><time>2015-11-22T12:27:32.0000000+00:00</time></trkpt><trkpt lat="30.8470461" lon="35.6541365"><ele>1205.9</ele><time>2015-11-22T12:27:33.0000000+00:00</time></trkpt><trkpt lat="30.8469819" lon="35.6540981"><ele>1205.6</ele><time>2015-11-22T12:27:34.0000000+00:00</time></trkpt><trkpt lat="30.8469254" lon="35.6540759"><ele>1205.0</ele><time>2015-11-22T12:27:35.0000000+00:00</time></trkpt><trkpt lat="30.8468708" lon="35.6540621"><ele>1204.7</ele><time>2015-11-22T12:27:36.0000000+00:00</time></trkpt><trkpt lat="30.8468176" lon="35.6540429"><ele>1204.6</ele><time>2015-11-22T12:27:37.0000000+00:00</time></trkpt><trkpt lat="30.8467611" lon="35.6540227"><ele>1204.0</ele><time>2015-11-22T12:27:38.0000000+00:00</time></trkpt><trkpt lat="30.8467027" lon="35.6540021"><ele>1204.2</ele><time>2015-11-22T12:27:39.0000000+00:00</time></trkpt><trkpt lat="30.84665" lon="35.653976"><ele>1204.3</ele><time>2015-11-22T12:27:40.0000000+00:00</time></trkpt><trkpt lat="30.8465826" lon="35.6539518"><ele>1204.8</ele><time>2015-11-22T12:27:41.0000000+00:00</time></trkpt><trkpt lat="30.8465225" lon="35.6539322"><ele>1205.1</ele><time>2015-11-22T12:27:42.0000000+00:00</time></trkpt><trkpt lat="30.8464689" lon="35.6539085"><ele>1205.3</ele><time>2015-11-22T12:27:43.0000000+00:00</time></trkpt><trkpt lat="30.846408" lon="35.6538753"><ele>1205.8</ele><time>2015-11-22T12:27:44.0000000+00:00</time></trkpt><trkpt lat="30.8463488" lon="35.6538392"><ele>1206.1</ele><time>2015-11-22T12:27:45.0000000+00:00</time></trkpt><trkpt lat="30.8462854" lon="35.6537988"><ele>1205.8</ele><time>2015-11-22T12:27:46.0000000+00:00</time></trkpt><trkpt lat="30.8462304" lon="35.6537567"><ele>1205.6</ele><time>2015-11-22T12:27:47.0000000+00:00</time></trkpt><trkpt lat="30.8461703" lon="35.6537148"><ele>1206.0</ele><time>2015-11-22T12:27:48.0000000+00:00</time></trkpt><trkpt lat="30.8460969" lon="35.653681"><ele>1206.2</ele><time>2015-11-22T12:27:49.0000000+00:00</time></trkpt><trkpt lat="30.8460299" lon="35.6536567"><ele>1206.3</ele><time>2015-11-22T12:27:50.0000000+00:00</time></trkpt><trkpt lat="30.8459708" lon="35.6536421"><ele>1206.3</ele><time>2015-11-22T12:27:51.0000000+00:00</time></trkpt><trkpt lat="30.8459055" lon="35.6536356"><ele>1205.9</ele><time>2015-11-22T12:27:52.0000000+00:00</time></trkpt><trkpt lat="30.8458492" lon="35.6536431"><ele>1205.6</ele><time>2015-11-22T12:27:53.0000000+00:00</time></trkpt><trkpt lat="30.8457876" lon="35.6536496"><ele>1205.5</ele><time>2015-11-22T12:27:54.0000000+00:00</time></trkpt><trkpt lat="30.8457307" lon="35.6536585"><ele>1205.5</ele><time>2015-11-22T12:27:55.0000000+00:00</time></trkpt><trkpt lat="30.8456625" lon="35.6536567"><ele>1205.9</ele><time>2015-11-22T12:27:56.0000000+00:00</time></trkpt><trkpt lat="30.8456029" lon="35.6536545"><ele>1206.7</ele><time>2015-11-22T12:27:57.0000000+00:00</time></trkpt><trkpt lat="30.8455383" lon="35.6536492"><ele>1207.0</ele><time>2015-11-22T12:27:58.0000000+00:00</time></trkpt><trkpt lat="30.845471" lon="35.6536479"><ele>1207.2</ele><time>2015-11-22T12:27:59.0000000+00:00</time></trkpt><trkpt lat="30.8454108" lon="35.6536449"><ele>1206.8</ele><time>2015-11-22T12:28:00.0000000+00:00</time></trkpt><trkpt lat="30.8453548" lon="35.6536386"><ele>1206.6</ele><time>2015-11-22T12:28:01.0000000+00:00</time></trkpt><trkpt lat="30.8453013" lon="35.65363"><ele>1207.0</ele><time>2015-11-22T12:28:02.0000000+00:00</time></trkpt><trkpt lat="30.8452451" lon="35.6536182"><ele>1207.2</ele><time>2015-11-22T12:28:03.0000000+00:00</time></trkpt><trkpt lat="30.8451887" lon="35.6536034"><ele>1207.3</ele><time>2015-11-22T12:28:04.0000000+00:00</time></trkpt><trkpt lat="30.845139" lon="35.6535946"><ele>1207.3</ele><time>2015-11-22T12:28:05.0000000+00:00</time></trkpt><trkpt lat="30.8450817" lon="35.6535796"><ele>1207.4</ele><time>2015-11-22T12:28:06.0000000+00:00</time></trkpt><trkpt lat="30.8450166" lon="35.6535571"><ele>1207.4</ele><time>2015-11-22T12:28:07.0000000+00:00</time></trkpt><trkpt lat="30.8449566" lon="35.6535398"><ele>1206.9</ele><time>2015-11-22T12:28:08.0000000+00:00</time></trkpt><trkpt lat="30.8448908" lon="35.6535205"><ele>1207.1</ele><time>2015-11-22T12:28:09.0000000+00:00</time></trkpt><trkpt lat="30.8448186" lon="35.6535131"><ele>1207.3</ele><time>2015-11-22T12:28:10.0000000+00:00</time></trkpt><trkpt lat="30.8447535" lon="35.6534968"><ele>1207.8</ele><time>2015-11-22T12:28:11.0000000+00:00</time></trkpt><trkpt lat="30.844689" lon="35.6534899"><ele>1207.6</ele><time>2015-11-22T12:28:12.0000000+00:00</time></trkpt><trkpt lat="30.8446277" lon="35.6534878"><ele>1207.5</ele><time>2015-11-22T12:28:13.0000000+00:00</time></trkpt><trkpt lat="30.8445636" lon="35.6534797"><ele>1207.5</ele><time>2015-11-22T12:28:14.0000000+00:00</time></trkpt><trkpt lat="30.8444981" lon="35.6534762"><ele>1207.4</ele><time>2015-11-22T12:28:15.0000000+00:00</time></trkpt><trkpt lat="30.8444313" lon="35.6534818"><ele>1207.4</ele><time>2015-11-22T12:28:16.0000000+00:00</time></trkpt><trkpt lat="30.8443614" lon="35.6534795"><ele>1207.4</ele><time>2015-11-22T12:28:17.0000000+00:00</time></trkpt><trkpt lat="30.8442919" lon="35.6534903"><ele>1207.4</ele><time>2015-11-22T12:28:18.0000000+00:00</time></trkpt><trkpt lat="30.8442212" lon="35.6534872"><ele>1207.4</ele><time>2015-11-22T12:28:19.0000000+00:00</time></trkpt><trkpt lat="30.8441455" lon="35.6534915"><ele>1207.4</ele><time>2015-11-22T12:28:20.0000000+00:00</time></trkpt><trkpt lat="30.844079" lon="35.6534866"><ele>1207.4</ele><time>2015-11-22T12:28:21.0000000+00:00</time></trkpt><trkpt lat="30.8440099" lon="35.6534885"><ele>1206.9</ele><time>2015-11-22T12:28:22.0000000+00:00</time></trkpt><trkpt lat="30.8439399" lon="35.6534893"><ele>1206.1</ele><time>2015-11-22T12:28:23.0000000+00:00</time></trkpt><trkpt lat="30.8438514" lon="35.6534975"><ele>1205.3</ele><time>2015-11-22T12:28:24.0000000+00:00</time></trkpt><trkpt lat="30.8437833" lon="35.6535022"><ele>1204.8</ele><time>2015-11-22T12:28:25.0000000+00:00</time></trkpt><trkpt lat="30.843723" lon="35.6535067"><ele>1204.1</ele><time>2015-11-22T12:28:26.0000000+00:00</time></trkpt><trkpt lat="30.8436634" lon="35.6535201"><ele>1203.8</ele><time>2015-11-22T12:28:27.0000000+00:00</time></trkpt><trkpt lat="30.8435989" lon="35.6535286"><ele>1204.1</ele><time>2015-11-22T12:28:28.0000000+00:00</time></trkpt><trkpt lat="30.8435385" lon="35.6535389"><ele>1204.2</ele><time>2015-11-22T12:28:29.0000000+00:00</time></trkpt><trkpt lat="30.8434761" lon="35.653549"><ele>1204.3</ele><time>2015-11-22T12:28:30.0000000+00:00</time></trkpt><trkpt lat="30.8434118" lon="35.6535536"><ele>1204.4</ele><time>2015-11-22T12:28:31.0000000+00:00</time></trkpt><trkpt lat="30.8433489" lon="35.6535611"><ele>1204.9</ele><time>2015-11-22T12:28:32.0000000+00:00</time></trkpt><trkpt lat="30.8432903" lon="35.653577"><ele>1204.1</ele><time>2015-11-22T12:28:33.0000000+00:00</time></trkpt><trkpt lat="30.8432299" lon="35.6535766"><ele>1203.8</ele><time>2015-11-22T12:28:34.0000000+00:00</time></trkpt><trkpt lat="30.8431651" lon="35.6535816"><ele>1203.6</ele><time>2015-11-22T12:28:35.0000000+00:00</time></trkpt><trkpt lat="30.8430956" lon="35.6535801"><ele>1203.0</ele><time>2015-11-22T12:28:36.0000000+00:00</time></trkpt><trkpt lat="30.8430243" lon="35.6535776"><ele>1202.2</ele><time>2015-11-22T12:28:37.0000000+00:00</time></trkpt><trkpt lat="30.842967" lon="35.6535863"><ele>1202.3</ele><time>2015-11-22T12:28:38.0000000+00:00</time></trkpt><trkpt lat="30.8429072" lon="35.6535914"><ele>1202.3</ele><time>2015-11-22T12:28:39.0000000+00:00</time></trkpt><trkpt lat="30.842855" lon="35.6536076"><ele>1201.9</ele><time>2015-11-22T12:28:40.0000000+00:00</time></trkpt><trkpt lat="30.8427931" lon="35.6536077"><ele>1202.1</ele><time>2015-11-22T12:28:41.0000000+00:00</time></trkpt><trkpt lat="30.8427303" lon="35.6536096"><ele>1202.3</ele><time>2015-11-22T12:28:42.0000000+00:00</time></trkpt><trkpt lat="30.8426667" lon="35.6536142"><ele>1202.8</ele><time>2015-11-22T12:28:43.0000000+00:00</time></trkpt><trkpt lat="30.8426004" lon="35.6536232"><ele>1203.1</ele><time>2015-11-22T12:28:44.0000000+00:00</time></trkpt><trkpt lat="30.8425375" lon="35.6536357"><ele>1203.3</ele><time>2015-11-22T12:28:45.0000000+00:00</time></trkpt><trkpt lat="30.8424716" lon="35.6536442"><ele>1203.3</ele><time>2015-11-22T12:28:46.0000000+00:00</time></trkpt><trkpt lat="30.8424019" lon="35.653649"><ele>1202.9</ele><time>2015-11-22T12:28:47.0000000+00:00</time></trkpt><trkpt lat="30.8423311" lon="35.6536628"><ele>1202.6</ele><time>2015-11-22T12:28:48.0000000+00:00</time></trkpt><trkpt lat="30.8422755" lon="35.6536793"><ele>1202.5</ele><time>2015-11-22T12:28:49.0000000+00:00</time></trkpt><trkpt lat="30.8422153" lon="35.6536903"><ele>1203.0</ele><time>2015-11-22T12:28:50.0000000+00:00</time></trkpt><trkpt lat="30.8421465" lon="35.6537001"><ele>1203.2</ele><time>2015-11-22T12:28:51.0000000+00:00</time></trkpt><trkpt lat="30.8420787" lon="35.6537046"><ele>1203.3</ele><time>2015-11-22T12:28:52.0000000+00:00</time></trkpt><trkpt lat="30.8420138" lon="35.6537132"><ele>1203.3</ele><time>2015-11-22T12:28:53.0000000+00:00</time></trkpt><trkpt lat="30.8419481" lon="35.6537273"><ele>1203.4</ele><time>2015-11-22T12:28:54.0000000+00:00</time></trkpt><trkpt lat="30.8418813" lon="35.653748"><ele>1203.4</ele><time>2015-11-22T12:28:55.0000000+00:00</time></trkpt><trkpt lat="30.8418209" lon="35.6537608"><ele>1203.9</ele><time>2015-11-22T12:28:56.0000000+00:00</time></trkpt><trkpt lat="30.8417704" lon="35.6537828"><ele>1204.6</ele><time>2015-11-22T12:28:57.0000000+00:00</time></trkpt><trkpt lat="30.8417247" lon="35.6538004"><ele>1205.0</ele><time>2015-11-22T12:28:58.0000000+00:00</time></trkpt><trkpt lat="30.8416512" lon="35.6538261"><ele>1206.1</ele><time>2015-11-22T12:29:00.0000000+00:00</time></trkpt><trkpt lat="30.8415944" lon="35.6538493"><ele>1207.6</ele><time>2015-11-22T12:29:02.0000000+00:00</time></trkpt><trkpt lat="30.8415326" lon="35.653875"><ele>1208.2</ele><time>2015-11-22T12:29:04.0000000+00:00</time></trkpt><trkpt lat="30.8414782" lon="35.6538756"><ele>1208.8</ele><time>2015-11-22T12:29:06.0000000+00:00</time></trkpt><trkpt lat="30.8414259" lon="35.6538687"><ele>1209.3</ele><time>2015-11-22T12:29:08.0000000+00:00</time></trkpt><trkpt lat="30.841372" lon="35.6538536"><ele>1208.1</ele><time>2015-11-22T12:29:10.0000000+00:00</time></trkpt><trkpt lat="30.8413066" lon="35.6538364"><ele>1207.1</ele><time>2015-11-22T12:29:12.0000000+00:00</time></trkpt><trkpt lat="30.8412364" lon="35.6538046"><ele>1206.1</ele><time>2015-11-22T12:29:14.0000000+00:00</time></trkpt><trkpt lat="30.8411625" lon="35.6537764"><ele>1206.3</ele><time>2015-11-22T12:29:16.0000000+00:00</time></trkpt><trkpt lat="30.8410909" lon="35.6537527"><ele>1206.9</ele><time>2015-11-22T12:29:18.0000000+00:00</time></trkpt><trkpt lat="30.8410237" lon="35.6537213"><ele>1207.3</ele><time>2015-11-22T12:29:20.0000000+00:00</time></trkpt><trkpt lat="30.8409599" lon="35.6536996"><ele>1207.4</ele><time>2015-11-22T12:29:22.0000000+00:00</time></trkpt><trkpt lat="30.8409081" lon="35.6536919"><ele>1206.6</ele><time>2015-11-22T12:29:24.0000000+00:00</time></trkpt><trkpt lat="30.8408462" lon="35.653681"><ele>1205.3</ele><time>2015-11-22T12:29:27.0000000+00:00</time></trkpt><trkpt lat="30.8407881" lon="35.6536674"><ele>1204.6</ele><time>2015-11-22T12:29:30.0000000+00:00</time></trkpt><trkpt lat="30.8407321" lon="35.6536759"><ele>1206.0</ele><time>2015-11-22T12:29:32.0000000+00:00</time></trkpt><trkpt lat="30.8406699" lon="35.653697"><ele>1206.3</ele><time>2015-11-22T12:29:34.0000000+00:00</time></trkpt><trkpt lat="30.8406101" lon="35.6537269"><ele>1206.4</ele><time>2015-11-22T12:29:36.0000000+00:00</time></trkpt><trkpt lat="30.8405709" lon="35.6537997"><ele>1206.4</ele><time>2015-11-22T12:29:38.0000000+00:00</time></trkpt><trkpt lat="30.8405878" lon="35.6538773"><ele>1205.9</ele><time>2015-11-22T12:29:39.0000000+00:00</time></trkpt><trkpt lat="30.8406356" lon="35.6539565"><ele>1205.1</ele><time>2015-11-22T12:29:40.0000000+00:00</time></trkpt><trkpt lat="30.8406476" lon="35.654023"><ele>1204.8</ele><time>2015-11-22T12:29:41.0000000+00:00</time></trkpt><trkpt lat="30.8406478" lon="35.6540905"><ele>1204.1</ele><time>2015-11-22T12:29:42.0000000+00:00</time></trkpt><trkpt lat="30.8406473" lon="35.6541651"><ele>1203.7</ele><time>2015-11-22T12:29:43.0000000+00:00</time></trkpt><trkpt lat="30.8406485" lon="35.6542437"><ele>1203.6</ele><time>2015-11-22T12:29:44.0000000+00:00</time></trkpt><trkpt lat="30.8406509" lon="35.6543204"><ele>1203.0</ele><time>2015-11-22T12:29:45.0000000+00:00</time></trkpt><trkpt lat="30.8406431" lon="35.654404"><ele>1202.2</ele><time>2015-11-22T12:29:46.0000000+00:00</time></trkpt><trkpt lat="30.8406418" lon="35.6544898"><ele>1201.8</ele><time>2015-11-22T12:29:47.0000000+00:00</time></trkpt><trkpt lat="30.8406381" lon="35.6545791"><ele>1201.1</ele><time>2015-11-22T12:29:48.0000000+00:00</time></trkpt><trkpt lat="30.8406263" lon="35.6546749"><ele>1200.7</ele><time>2015-11-22T12:29:49.0000000+00:00</time></trkpt><trkpt lat="30.8406169" lon="35.6547758"><ele>1200.1</ele><time>2015-11-22T12:29:50.0000000+00:00</time></trkpt><trkpt lat="30.8406116" lon="35.6548732"><ele>1199.2</ele><time>2015-11-22T12:29:51.0000000+00:00</time></trkpt><trkpt lat="30.8406108" lon="35.6549777"><ele>1198.8</ele><time>2015-11-22T12:29:52.0000000+00:00</time></trkpt><trkpt lat="30.8406008" lon="35.6550948"><ele>1198.1</ele><time>2015-11-22T12:29:53.0000000+00:00</time></trkpt><trkpt lat="30.8405911" lon="35.6552073"><ele>1197.3</ele><time>2015-11-22T12:29:54.0000000+00:00</time></trkpt><trkpt lat="30.8405823" lon="35.65532"><ele>1196.8</ele><time>2015-11-22T12:29:55.0000000+00:00</time></trkpt><trkpt lat="30.8405663" lon="35.6554374"><ele>1196.1</ele><time>2015-11-22T12:29:56.0000000+00:00</time></trkpt><trkpt lat="30.8405626" lon="35.6555499"><ele>1195.8</ele><time>2015-11-22T12:29:57.0000000+00:00</time></trkpt><trkpt lat="30.840554" lon="35.6556842"><ele>1195.1</ele><time>2015-11-22T12:29:58.0000000+00:00</time></trkpt><trkpt lat="30.8405518" lon="35.6558032"><ele>1194.7</ele><time>2015-11-22T12:29:59.0000000+00:00</time></trkpt><trkpt lat="30.8405432" lon="35.6559222"><ele>1194.6</ele><time>2015-11-22T12:30:00.0000000+00:00</time></trkpt><trkpt lat="30.8405342" lon="35.6560573"><ele>1194.0</ele><time>2015-11-22T12:30:01.0000000+00:00</time></trkpt><trkpt lat="30.8405252" lon="35.6561846"><ele>1193.7</ele><time>2015-11-22T12:30:02.0000000+00:00</time></trkpt><trkpt lat="30.8405037" lon="35.6563073"><ele>1193.0</ele><time>2015-11-22T12:30:03.0000000+00:00</time></trkpt><trkpt lat="30.8404744" lon="35.6564256"><ele>1192.7</ele><time>2015-11-22T12:30:04.0000000+00:00</time></trkpt><trkpt lat="30.8404374" lon="35.6565319"><ele>1192.6</ele><time>2015-11-22T12:30:05.0000000+00:00</time></trkpt><trkpt lat="30.8403931" lon="35.6566421"><ele>1192.0</ele><time>2015-11-22T12:30:06.0000000+00:00</time></trkpt><trkpt lat="30.8403374" lon="35.6567403"><ele>1191.7</ele><time>2015-11-22T12:30:07.0000000+00:00</time></trkpt><trkpt lat="30.8402797" lon="35.6568369"><ele>1191.0</ele><time>2015-11-22T12:30:08.0000000+00:00</time></trkpt><trkpt lat="30.8402132" lon="35.6569166"><ele>1191.2</ele><time>2015-11-22T12:30:09.0000000+00:00</time></trkpt><trkpt lat="30.8401306" lon="35.656997"><ele>1191.3</ele><time>2015-11-22T12:30:10.0000000+00:00</time></trkpt><trkpt lat="30.8400506" lon="35.6570594"><ele>1191.4</ele><time>2015-11-22T12:30:11.0000000+00:00</time></trkpt><trkpt lat="30.8399674" lon="35.6571066"><ele>1191.4</ele><time>2015-11-22T12:30:12.0000000+00:00</time></trkpt><trkpt lat="30.8398859" lon="35.6571505"><ele>1191.9</ele><time>2015-11-22T12:30:13.0000000+00:00</time></trkpt><trkpt lat="30.8398047" lon="35.6571853"><ele>1191.6</ele><time>2015-11-22T12:30:14.0000000+00:00</time></trkpt><trkpt lat="30.8397133" lon="35.6572121"><ele>1191.5</ele><time>2015-11-22T12:30:15.0000000+00:00</time></trkpt><trkpt lat="30.8396373" lon="35.6572318"><ele>1192.0</ele><time>2015-11-22T12:30:16.0000000+00:00</time></trkpt><trkpt lat="30.8395527" lon="35.6572509"><ele>1192.7</ele><time>2015-11-22T12:30:17.0000000+00:00</time></trkpt><trkpt lat="30.8394718" lon="35.6572774"><ele>1192.5</ele><time>2015-11-22T12:30:18.0000000+00:00</time></trkpt><trkpt lat="30.8393973" lon="35.6573106"><ele>1193.0</ele><time>2015-11-22T12:30:19.0000000+00:00</time></trkpt><trkpt lat="30.8393258" lon="35.6573321"><ele>1193.2</ele><time>2015-11-22T12:30:20.0000000+00:00</time></trkpt><trkpt lat="30.8392501" lon="35.6573583"><ele>1193.3</ele><time>2015-11-22T12:30:21.0000000+00:00</time></trkpt><trkpt lat="30.839182" lon="35.6573855"><ele>1193.8</ele><time>2015-11-22T12:30:22.0000000+00:00</time></trkpt><trkpt lat="30.8391114" lon="35.6574085"><ele>1194.1</ele><time>2015-11-22T12:30:23.0000000+00:00</time></trkpt><trkpt lat="30.8390535" lon="35.6574269"><ele>1194.3</ele><time>2015-11-22T12:30:24.0000000+00:00</time></trkpt><trkpt lat="30.8389912" lon="35.6574495"><ele>1194.8</ele><time>2015-11-22T12:30:25.0000000+00:00</time></trkpt><trkpt lat="30.8389301" lon="35.6574726"><ele>1195.1</ele><time>2015-11-22T12:30:26.0000000+00:00</time></trkpt><trkpt lat="30.8388701" lon="35.6574959"><ele>1195.3</ele><time>2015-11-22T12:30:27.0000000+00:00</time></trkpt><trkpt lat="30.8387995" lon="35.6575183"><ele>1195.3</ele><time>2015-11-22T12:30:28.0000000+00:00</time></trkpt><trkpt lat="30.8387309" lon="35.657544"><ele>1195.4</ele><time>2015-11-22T12:30:29.0000000+00:00</time></trkpt><trkpt lat="30.8386713" lon="35.6575602"><ele>1194.4</ele><time>2015-11-22T12:30:30.0000000+00:00</time></trkpt><trkpt lat="30.8386137" lon="35.6575824"><ele>1193.9</ele><time>2015-11-22T12:30:31.0000000+00:00</time></trkpt><trkpt lat="30.8385578" lon="35.6576077"><ele>1194.6</ele><time>2015-11-22T12:30:32.0000000+00:00</time></trkpt><trkpt lat="30.8385087" lon="35.6576304"><ele>1195.5</ele><time>2015-11-22T12:30:33.0000000+00:00</time></trkpt><trkpt lat="30.8384614" lon="35.657651"><ele>1196.0</ele><time>2015-11-22T12:30:34.0000000+00:00</time></trkpt><trkpt lat="30.838416" lon="35.6576734"><ele>1196.2</ele><time>2015-11-22T12:30:35.0000000+00:00</time></trkpt><trkpt lat="30.838336" lon="35.6577043"><ele>1196.3</ele><time>2015-11-22T12:30:37.0000000+00:00</time></trkpt><trkpt lat="30.8382597" lon="35.6577474"><ele>1196.4</ele><time>2015-11-22T12:30:39.0000000+00:00</time></trkpt><trkpt lat="30.8381891" lon="35.6577899"><ele>1197.9</ele><time>2015-11-22T12:30:41.0000000+00:00</time></trkpt><trkpt lat="30.8381475" lon="35.6578109"><ele>1198.1</ele><time>2015-11-22T12:30:42.0000000+00:00</time></trkpt><trkpt lat="30.8381031" lon="35.6578346"><ele>1198.3</ele><time>2015-11-22T12:30:43.0000000+00:00</time></trkpt><trkpt lat="30.8380524" lon="35.6578648"><ele>1197.8</ele><time>2015-11-22T12:30:44.0000000+00:00</time></trkpt><trkpt lat="30.838011" lon="35.6578888"><ele>1197.6</ele><time>2015-11-22T12:30:45.0000000+00:00</time></trkpt><trkpt lat="30.8379296" lon="35.6579471"><ele>1197.5</ele><time>2015-11-22T12:30:47.0000000+00:00</time></trkpt><trkpt lat="30.8378909" lon="35.6579792"><ele>1197.9</ele><time>2015-11-22T12:30:48.0000000+00:00</time></trkpt><trkpt lat="30.8378428" lon="35.6580207"><ele>1197.7</ele><time>2015-11-22T12:30:49.0000000+00:00</time></trkpt><trkpt lat="30.8377852" lon="35.6580573"><ele>1197.5</ele><time>2015-11-22T12:30:50.0000000+00:00</time></trkpt><trkpt lat="30.8377207" lon="35.6581106"><ele>1196.7</ele><time>2015-11-22T12:30:52.0000000+00:00</time></trkpt><trkpt lat="30.8376678" lon="35.6581464"><ele>1196.5</ele><time>2015-11-22T12:30:53.0000000+00:00</time></trkpt><trkpt lat="30.8376274" lon="35.6581898"><ele>1196.5</ele><time>2015-11-22T12:30:54.0000000+00:00</time></trkpt><trkpt lat="30.8375853" lon="35.6582252"><ele>1196.4</ele><time>2015-11-22T12:30:55.0000000+00:00</time></trkpt><trkpt lat="30.8375394" lon="35.6582573"><ele>1196.4</ele><time>2015-11-22T12:30:56.0000000+00:00</time></trkpt><trkpt lat="30.837501" lon="35.6582933"><ele>1196.4</ele><time>2015-11-22T12:30:57.0000000+00:00</time></trkpt><trkpt lat="30.8374518" lon="35.6583394"><ele>1196.9</ele><time>2015-11-22T12:30:58.0000000+00:00</time></trkpt><trkpt lat="30.8374063" lon="35.6583812"><ele>1197.2</ele><time>2015-11-22T12:30:59.0000000+00:00</time></trkpt><trkpt lat="30.8373655" lon="35.6584289"><ele>1197.3</ele><time>2015-11-22T12:31:00.0000000+00:00</time></trkpt><trkpt lat="30.8373307" lon="35.6584752"><ele>1197.3</ele><time>2015-11-22T12:31:01.0000000+00:00</time></trkpt><trkpt lat="30.8372973" lon="35.6585149"><ele>1196.4</ele><time>2015-11-22T12:31:02.0000000+00:00</time></trkpt><trkpt lat="30.8372586" lon="35.6585564"><ele>1196.4</ele><time>2015-11-22T12:31:03.0000000+00:00</time></trkpt><trkpt lat="30.8372249" lon="35.658604"><ele>1196.4</ele><time>2015-11-22T12:31:04.0000000+00:00</time></trkpt><trkpt lat="30.8371557" lon="35.6586761"><ele>1196.4</ele><time>2015-11-22T12:31:06.0000000+00:00</time></trkpt><trkpt lat="30.8371224" lon="35.6587132"><ele>1196.4</ele><time>2015-11-22T12:31:07.0000000+00:00</time></trkpt><trkpt lat="30.8370594" lon="35.658774"><ele>1195.9</ele><time>2015-11-22T12:31:09.0000000+00:00</time></trkpt><trkpt lat="30.8370302" lon="35.6588142"><ele>1195.6</ele><time>2015-11-22T12:31:10.0000000+00:00</time></trkpt><trkpt lat="30.8369811" lon="35.6588833"><ele>1195.5</ele><time>2015-11-22T12:31:12.0000000+00:00</time></trkpt><trkpt lat="30.8369451" lon="35.6589394"><ele>1194.9</ele><time>2015-11-22T12:31:14.0000000+00:00</time></trkpt><trkpt lat="30.836897" lon="35.6590125"><ele>1195.3</ele><time>2015-11-22T12:31:16.0000000+00:00</time></trkpt><trkpt lat="30.8368672" lon="35.6590587"><ele>1194.8</ele><time>2015-11-22T12:31:17.0000000+00:00</time></trkpt><trkpt lat="30.8368301" lon="35.6591024"><ele>1195.1</ele><time>2015-11-22T12:31:18.0000000+00:00</time></trkpt><trkpt lat="30.8367618" lon="35.6591646"><ele>1195.8</ele><time>2015-11-22T12:31:20.0000000+00:00</time></trkpt><trkpt lat="30.8367247" lon="35.6591995"><ele>1195.6</ele><time>2015-11-22T12:31:21.0000000+00:00</time></trkpt><trkpt lat="30.8366717" lon="35.6592859"><ele>1195.7</ele><time>2015-11-22T12:31:23.0000000+00:00</time></trkpt><trkpt lat="30.836642" lon="35.6593273"><ele>1195.6</ele><time>2015-11-22T12:31:24.0000000+00:00</time></trkpt><trkpt lat="30.8365839" lon="35.6594078"><ele>1195.9</ele><time>2015-11-22T12:31:26.0000000+00:00</time></trkpt><trkpt lat="30.8365381" lon="35.6594884"><ele>1197.5</ele><time>2015-11-22T12:31:28.0000000+00:00</time></trkpt><trkpt lat="30.8365052" lon="35.6595344"><ele>1198.0</ele><time>2015-11-22T12:31:29.0000000+00:00</time></trkpt><trkpt lat="30.836451" lon="35.6596164"><ele>1198.3</ele><time>2015-11-22T12:31:31.0000000+00:00</time></trkpt><trkpt lat="30.8364258" lon="35.6596721"><ele>1198.3</ele><time>2015-11-22T12:31:32.0000000+00:00</time></trkpt><trkpt lat="30.8363625" lon="35.6597526"><ele>1198.9</ele><time>2015-11-22T12:31:34.0000000+00:00</time></trkpt><trkpt lat="30.8363177" lon="35.6598359"><ele>1200.5</ele><time>2015-11-22T12:31:36.0000000+00:00</time></trkpt><trkpt lat="30.836273" lon="35.6599193"><ele>1200.4</ele><time>2015-11-22T12:31:38.0000000+00:00</time></trkpt><trkpt lat="30.8362189" lon="35.6599961"><ele>1201.2</ele><time>2015-11-22T12:31:40.0000000+00:00</time></trkpt><trkpt lat="30.8361656" lon="35.6600682"><ele>1202.1</ele><time>2015-11-22T12:31:42.0000000+00:00</time></trkpt><trkpt lat="30.836137" lon="35.6601096"><ele>1202.7</ele><time>2015-11-22T12:31:43.0000000+00:00</time></trkpt><trkpt lat="30.8361098" lon="35.6601558"><ele>1203.1</ele><time>2015-11-22T12:31:44.0000000+00:00</time></trkpt><trkpt lat="30.8360675" lon="35.6602248"><ele>1204.1</ele><time>2015-11-22T12:31:46.0000000+00:00</time></trkpt><trkpt lat="30.8360368" lon="35.6602666"><ele>1204.2</ele><time>2015-11-22T12:31:47.0000000+00:00</time></trkpt><trkpt lat="30.8360037" lon="35.6603108"><ele>1204.3</ele><time>2015-11-22T12:31:48.0000000+00:00</time></trkpt><trkpt lat="30.835963" lon="35.6603794"><ele>1204.1</ele><time>2015-11-22T12:31:50.0000000+00:00</time></trkpt><trkpt lat="30.8359368" lon="35.6604611"><ele>1204.3</ele><time>2015-11-22T12:31:52.0000000+00:00</time></trkpt><trkpt lat="30.8358938" lon="35.6605312"><ele>1205.1</ele><time>2015-11-22T12:31:54.0000000+00:00</time></trkpt><trkpt lat="30.8358384" lon="35.6605887"><ele>1204.8</ele><time>2015-11-22T12:31:56.0000000+00:00</time></trkpt><trkpt lat="30.8357892" lon="35.6606476"><ele>1205.0</ele><time>2015-11-22T12:31:58.0000000+00:00</time></trkpt><trkpt lat="30.8357373" lon="35.660723"><ele>1205.3</ele><time>2015-11-22T12:32:00.0000000+00:00</time></trkpt><trkpt lat="30.8357078" lon="35.6607631"><ele>1205.4</ele><time>2015-11-22T12:32:01.0000000+00:00</time></trkpt><trkpt lat="30.8356684" lon="35.6608124"><ele>1205.9</ele><time>2015-11-22T12:32:02.0000000+00:00</time></trkpt><trkpt lat="30.835618" lon="35.6608817"><ele>1205.5</ele><time>2015-11-22T12:32:04.0000000+00:00</time></trkpt><trkpt lat="30.8355764" lon="35.6609496"><ele>1206.2</ele><time>2015-11-22T12:32:06.0000000+00:00</time></trkpt><trkpt lat="30.8355434" lon="35.6610038"><ele>1206.3</ele><time>2015-11-22T12:32:08.0000000+00:00</time></trkpt><trkpt lat="30.8355054" lon="35.6610626"><ele>1206.9</ele><time>2015-11-22T12:32:10.0000000+00:00</time></trkpt><trkpt lat="30.8354577" lon="35.6611261"><ele>1207.3</ele><time>2015-11-22T12:32:12.0000000+00:00</time></trkpt><trkpt lat="30.8354131" lon="35.6611866"><ele>1207.4</ele><time>2015-11-22T12:32:14.0000000+00:00</time></trkpt><trkpt lat="30.8353707" lon="35.6612472"><ele>1207.4</ele><time>2015-11-22T12:32:16.0000000+00:00</time></trkpt><trkpt lat="30.8353288" lon="35.6613101"><ele>1207.4</ele><time>2015-11-22T12:32:18.0000000+00:00</time></trkpt><trkpt lat="30.8352855" lon="35.661375"><ele>1207.9</ele><time>2015-11-22T12:32:20.0000000+00:00</time></trkpt><trkpt lat="30.8352445" lon="35.6614431"><ele>1207.5</ele><time>2015-11-22T12:32:22.0000000+00:00</time></trkpt><trkpt lat="30.8351996" lon="35.6615136"><ele>1207.4</ele><time>2015-11-22T12:32:24.0000000+00:00</time></trkpt><trkpt lat="30.835155" lon="35.6615856"><ele>1207.4</ele><time>2015-11-22T12:32:26.0000000+00:00</time></trkpt><trkpt lat="30.8351088" lon="35.6616555"><ele>1208.2</ele><time>2015-11-22T12:32:28.0000000+00:00</time></trkpt><trkpt lat="30.8350612" lon="35.6617242"><ele>1208.8</ele><time>2015-11-22T12:32:30.0000000+00:00</time></trkpt><trkpt lat="30.8350123" lon="35.6617896"><ele>1209.3</ele><time>2015-11-22T12:32:32.0000000+00:00</time></trkpt><trkpt lat="30.8349688" lon="35.6618545"><ele>1209.4</ele><time>2015-11-22T12:32:34.0000000+00:00</time></trkpt><trkpt lat="30.8349288" lon="35.6619196"><ele>1209.4</ele><time>2015-11-22T12:32:36.0000000+00:00</time></trkpt><trkpt lat="30.8348879" lon="35.6619822"><ele>1208.9</ele><time>2015-11-22T12:32:38.0000000+00:00</time></trkpt><trkpt lat="30.8348476" lon="35.6620458"><ele>1208.5</ele><time>2015-11-22T12:32:40.0000000+00:00</time></trkpt><trkpt lat="30.8348041" lon="35.6621096"><ele>1208.4</ele><time>2015-11-22T12:32:42.0000000+00:00</time></trkpt><trkpt lat="30.8347637" lon="35.6621677"><ele>1208.4</ele><time>2015-11-22T12:32:44.0000000+00:00</time></trkpt><trkpt lat="30.8347274" lon="35.6622265"><ele>1208.4</ele><time>2015-11-22T12:32:46.0000000+00:00</time></trkpt><trkpt lat="30.8346898" lon="35.6622838"><ele>1208.4</ele><time>2015-11-22T12:32:48.0000000+00:00</time></trkpt><trkpt lat="30.8346514" lon="35.6623426"><ele>1208.4</ele><time>2015-11-22T12:32:50.0000000+00:00</time></trkpt><trkpt lat="30.8346126" lon="35.6624058"><ele>1207.9</ele><time>2015-11-22T12:32:52.0000000+00:00</time></trkpt><trkpt lat="30.8345758" lon="35.6624695"><ele>1208.3</ele><time>2015-11-22T12:32:54.0000000+00:00</time></trkpt><trkpt lat="30.8345335" lon="35.6625329"><ele>1209.6</ele><time>2015-11-22T12:32:56.0000000+00:00</time></trkpt><trkpt lat="30.8344833" lon="35.6625972"><ele>1210.7</ele><time>2015-11-22T12:32:58.0000000+00:00</time></trkpt><trkpt lat="30.8344376" lon="35.66266"><ele>1212.5</ele><time>2015-11-22T12:33:00.0000000+00:00</time></trkpt><trkpt lat="30.8343895" lon="35.6627198"><ele>1213.7</ele><time>2015-11-22T12:33:02.0000000+00:00</time></trkpt><trkpt lat="30.8343453" lon="35.6627818"><ele>1214.0</ele><time>2015-11-22T12:33:04.0000000+00:00</time></trkpt><trkpt lat="30.8343077" lon="35.6628488"><ele>1214.3</ele><time>2015-11-22T12:33:06.0000000+00:00</time></trkpt><trkpt lat="30.8342643" lon="35.6629115"><ele>1215.1</ele><time>2015-11-22T12:33:08.0000000+00:00</time></trkpt><trkpt lat="30.83422" lon="35.6629723"><ele>1215.1</ele><time>2015-11-22T12:33:10.0000000+00:00</time></trkpt><trkpt lat="30.8341823" lon="35.6630378"><ele>1215.3</ele><time>2015-11-22T12:33:12.0000000+00:00</time></trkpt><trkpt lat="30.8341495" lon="35.6631028"><ele>1216.1</ele><time>2015-11-22T12:33:14.0000000+00:00</time></trkpt><trkpt lat="30.8341072" lon="35.6631608"><ele>1216.3</ele><time>2015-11-22T12:33:16.0000000+00:00</time></trkpt><trkpt lat="30.8340646" lon="35.663219"><ele>1216.4</ele><time>2015-11-22T12:33:18.0000000+00:00</time></trkpt><trkpt lat="30.8340244" lon="35.6632833"><ele>1216.4</ele><time>2015-11-22T12:33:20.0000000+00:00</time></trkpt><trkpt lat="30.8339805" lon="35.6633472"><ele>1216.4</ele><time>2015-11-22T12:33:22.0000000+00:00</time></trkpt><trkpt lat="30.8339344" lon="35.663412"><ele>1215.6</ele><time>2015-11-22T12:33:24.0000000+00:00</time></trkpt><trkpt lat="30.8338882" lon="35.6634813"><ele>1215.5</ele><time>2015-11-22T12:33:26.0000000+00:00</time></trkpt><trkpt lat="30.8338428" lon="35.6635463"><ele>1215.4</ele><time>2015-11-22T12:33:28.0000000+00:00</time></trkpt><trkpt lat="30.8338013" lon="35.663607"><ele>1215.9</ele><time>2015-11-22T12:33:30.0000000+00:00</time></trkpt><trkpt lat="30.8337629" lon="35.6636651"><ele>1216.3</ele><time>2015-11-22T12:33:32.0000000+00:00</time></trkpt><trkpt lat="30.8337229" lon="35.6637232"><ele>1216.4</ele><time>2015-11-22T12:33:34.0000000+00:00</time></trkpt><trkpt lat="30.8336829" lon="35.663784"><ele>1216.4</ele><time>2015-11-22T12:33:36.0000000+00:00</time></trkpt><trkpt lat="30.8336381" lon="35.6638469"><ele>1216.9</ele><time>2015-11-22T12:33:38.0000000+00:00</time></trkpt><trkpt lat="30.8335912" lon="35.6639148"><ele>1217.3</ele><time>2015-11-22T12:33:40.0000000+00:00</time></trkpt><trkpt lat="30.8335465" lon="35.6639806"><ele>1217.4</ele><time>2015-11-22T12:33:42.0000000+00:00</time></trkpt><trkpt lat="30.8335062" lon="35.6640434"><ele>1217.9</ele><time>2015-11-22T12:33:44.0000000+00:00</time></trkpt><trkpt lat="30.8334651" lon="35.6641003"><ele>1218.3</ele><time>2015-11-22T12:33:46.0000000+00:00</time></trkpt><trkpt lat="30.833423" lon="35.6641562"><ele>1218.4</ele><time>2015-11-22T12:33:48.0000000+00:00</time></trkpt><trkpt lat="30.833383" lon="35.6642065"><ele>1218.4</ele><time>2015-11-22T12:33:50.0000000+00:00</time></trkpt><trkpt lat="30.833343" lon="35.664255"><ele>1218.9</ele><time>2015-11-22T12:33:52.0000000+00:00</time></trkpt><trkpt lat="30.8333115" lon="35.664293"><ele>1219.3</ele><time>2015-11-22T12:33:54.0000000+00:00</time></trkpt><trkpt lat="30.8332699" lon="35.6643532"><ele>1220.3</ele><time>2015-11-22T12:33:57.0000000+00:00</time></trkpt><trkpt lat="30.8332334" lon="35.6644142"><ele>1220.4</ele><time>2015-11-22T12:34:00.0000000+00:00</time></trkpt><trkpt lat="30.8331962" lon="35.6644766"><ele>1221.3</ele><time>2015-11-22T12:34:03.0000000+00:00</time></trkpt><trkpt lat="30.8331757" lon="35.6645259"><ele>1222.1</ele><time>2015-11-22T12:34:05.0000000+00:00</time></trkpt><trkpt lat="30.8331421" lon="35.6645852"><ele>1222.3</ele><time>2015-11-22T12:34:07.0000000+00:00</time></trkpt><trkpt lat="30.8331043" lon="35.6646484"><ele>1222.9</ele><time>2015-11-22T12:34:09.0000000+00:00</time></trkpt><trkpt lat="30.833066" lon="35.6647106"><ele>1223.3</ele><time>2015-11-22T12:34:11.0000000+00:00</time></trkpt><trkpt lat="30.8330304" lon="35.6647726"><ele>1223.4</ele><time>2015-11-22T12:34:13.0000000+00:00</time></trkpt><trkpt lat="30.8329936" lon="35.6648344"><ele>1224.1</ele><time>2015-11-22T12:34:15.0000000+00:00</time></trkpt><trkpt lat="30.8329555" lon="35.6648937"><ele>1224.3</ele><time>2015-11-22T12:34:17.0000000+00:00</time></trkpt><trkpt lat="30.8329185" lon="35.6649509"><ele>1224.4</ele><time>2015-11-22T12:34:19.0000000+00:00</time></trkpt><trkpt lat="30.8328811" lon="35.6650082"><ele>1225.1</ele><time>2015-11-22T12:34:21.0000000+00:00</time></trkpt><trkpt lat="30.832848" lon="35.6650725"><ele>1225.3</ele><time>2015-11-22T12:34:23.0000000+00:00</time></trkpt><trkpt lat="30.8328075" lon="35.6651455"><ele>1225.4</ele><time>2015-11-22T12:34:25.0000000+00:00</time></trkpt><trkpt lat="30.8327676" lon="35.665219"><ele>1226.1</ele><time>2015-11-22T12:34:27.0000000+00:00</time></trkpt><trkpt lat="30.8327286" lon="35.6652997"><ele>1226.3</ele><time>2015-11-22T12:34:29.0000000+00:00</time></trkpt><trkpt lat="30.8326877" lon="35.6653773"><ele>1226.4</ele><time>2015-11-22T12:34:31.0000000+00:00</time></trkpt><trkpt lat="30.8326512" lon="35.6654515"><ele>1226.4</ele><time>2015-11-22T12:34:33.0000000+00:00</time></trkpt><trkpt lat="30.8326199" lon="35.6655123"><ele>1226.4</ele><time>2015-11-22T12:34:35.0000000+00:00</time></trkpt><trkpt lat="30.8325944" lon="35.66557"><ele>1226.4</ele><time>2015-11-22T12:34:37.0000000+00:00</time></trkpt><trkpt lat="30.832574" lon="35.6656228"><ele>1226.4</ele><time>2015-11-22T12:34:39.0000000+00:00</time></trkpt><trkpt lat="30.832537" lon="35.6656854"><ele>1226.4</ele><time>2015-11-22T12:34:42.0000000+00:00</time></trkpt><trkpt lat="30.8325275" lon="35.6657535"><ele>1227.3</ele><time>2015-11-22T12:34:45.0000000+00:00</time></trkpt><trkpt lat="30.8325056" lon="35.6658137"><ele>1227.4</ele><time>2015-11-22T12:34:48.0000000+00:00</time></trkpt><trkpt lat="30.8324723" lon="35.6658755"><ele>1227.4</ele><time>2015-11-22T12:34:51.0000000+00:00</time></trkpt><trkpt lat="30.8324454" lon="35.6659404"><ele>1227.4</ele><time>2015-11-22T12:34:54.0000000+00:00</time></trkpt><trkpt lat="30.832409" lon="35.6659955"><ele>1227.4</ele><time>2015-11-22T12:34:57.0000000+00:00</time></trkpt><trkpt lat="30.8323734" lon="35.6660549"><ele>1227.4</ele><time>2015-11-22T12:35:00.0000000+00:00</time></trkpt><trkpt lat="30.8323493" lon="35.6661281"><ele>1227.4</ele><time>2015-11-22T12:35:03.0000000+00:00</time></trkpt><trkpt lat="30.83233" lon="35.6661787"><ele>1226.6</ele><time>2015-11-22T12:35:05.0000000+00:00</time></trkpt><trkpt lat="30.8323059" lon="35.6662282"><ele>1227.2</ele><time>2015-11-22T12:35:07.0000000+00:00</time></trkpt><trkpt lat="30.8322877" lon="35.6662824"><ele>1226.6</ele><time>2015-11-22T12:35:09.0000000+00:00</time></trkpt><trkpt lat="30.8322722" lon="35.66634"><ele>1226.4</ele><time>2015-11-22T12:35:11.0000000+00:00</time></trkpt><trkpt lat="30.8322485" lon="35.6663983"><ele>1226.4</ele><time>2015-11-22T12:35:13.0000000+00:00</time></trkpt><trkpt lat="30.832224" lon="35.6664535"><ele>1226.4</ele><time>2015-11-22T12:35:15.0000000+00:00</time></trkpt><trkpt lat="30.8322064" lon="35.6665152"><ele>1226.4</ele><time>2015-11-22T12:35:17.0000000+00:00</time></trkpt><trkpt lat="30.8321852" lon="35.666576"><ele>1226.4</ele><time>2015-11-22T12:35:19.0000000+00:00</time></trkpt><trkpt lat="30.8321646" lon="35.6666626"><ele>1226.4</ele><time>2015-11-22T12:35:21.0000000+00:00</time></trkpt><trkpt lat="30.8321479" lon="35.6667555"><ele>1225.6</ele><time>2015-11-22T12:35:23.0000000+00:00</time></trkpt><trkpt lat="30.8321146" lon="35.6668444"><ele>1225.5</ele><time>2015-11-22T12:35:25.0000000+00:00</time></trkpt><trkpt lat="30.8320865" lon="35.6669397"><ele>1224.9</ele><time>2015-11-22T12:35:27.0000000+00:00</time></trkpt><trkpt lat="30.8320558" lon="35.667053"><ele>1224.5</ele><time>2015-11-22T12:35:29.0000000+00:00</time></trkpt><trkpt lat="30.8320418" lon="35.6671054"><ele>1224.5</ele><time>2015-11-22T12:35:30.0000000+00:00</time></trkpt><trkpt lat="30.8320253" lon="35.6671587"><ele>1223.9</ele><time>2015-11-22T12:35:31.0000000+00:00</time></trkpt><trkpt lat="30.8320118" lon="35.6672143"><ele>1223.7</ele><time>2015-11-22T12:35:32.0000000+00:00</time></trkpt><trkpt lat="30.8319958" lon="35.6672726"><ele>1223.5</ele><time>2015-11-22T12:35:33.0000000+00:00</time></trkpt><trkpt lat="30.8319839" lon="35.6673266"><ele>1223.5</ele><time>2015-11-22T12:35:34.0000000+00:00</time></trkpt><trkpt lat="30.831967" lon="35.6673772"><ele>1222.9</ele><time>2015-11-22T12:35:35.0000000+00:00</time></trkpt><trkpt lat="30.8319322" lon="35.6674443"><ele>1222.5</ele><time>2015-11-22T12:35:37.0000000+00:00</time></trkpt><trkpt lat="30.8319224" lon="35.6674969"><ele>1218.6</ele><time>2015-11-22T12:38:57.0000000+00:00</time></trkpt><trkpt lat="30.8319058" lon="35.6675575"><ele>1216.4</ele><time>2015-11-22T12:40:07.0000000+00:00</time></trkpt><trkpt lat="30.8318989" lon="35.6676236"><ele>1216.4</ele><time>2015-11-22T12:40:09.0000000+00:00</time></trkpt><trkpt lat="30.8318804" lon="35.6677113"><ele>1215.6</ele><time>2015-11-22T12:40:11.0000000+00:00</time></trkpt><trkpt lat="30.8318583" lon="35.6678107"><ele>1214.2</ele><time>2015-11-22T12:40:13.0000000+00:00</time></trkpt><trkpt lat="30.8318474" lon="35.6678632"><ele>1213.3</ele><time>2015-11-22T12:40:14.0000000+00:00</time></trkpt><trkpt lat="30.8318354" lon="35.6679577"><ele>1212.4</ele><time>2015-11-22T12:40:15.0000000+00:00</time></trkpt><trkpt lat="30.8318188" lon="35.668016"><ele>1211.9</ele><time>2015-11-22T12:40:16.0000000+00:00</time></trkpt><trkpt lat="30.8318094" lon="35.668075"><ele>1212.1</ele><time>2015-11-22T12:40:17.0000000+00:00</time></trkpt><trkpt lat="30.8318026" lon="35.6681358"><ele>1212.3</ele><time>2015-11-22T12:40:18.0000000+00:00</time></trkpt><trkpt lat="30.8317861" lon="35.6681987"><ele>1212.3</ele><time>2015-11-22T12:40:19.0000000+00:00</time></trkpt><trkpt lat="30.8317725" lon="35.668272"><ele>1212.4</ele><time>2015-11-22T12:40:20.0000000+00:00</time></trkpt><trkpt lat="30.8317602" lon="35.6683508"><ele>1212.4</ele><time>2015-11-22T12:40:21.0000000+00:00</time></trkpt><trkpt lat="30.8317411" lon="35.6684339"><ele>1211.9</ele><time>2015-11-22T12:40:22.0000000+00:00</time></trkpt><trkpt lat="30.8317248" lon="35.6685269"><ele>1211.6</ele><time>2015-11-22T12:40:23.0000000+00:00</time></trkpt><trkpt lat="30.8317066" lon="35.6686188"><ele>1211.5</ele><time>2015-11-22T12:40:24.0000000+00:00</time></trkpt><trkpt lat="30.8316835" lon="35.6687101"><ele>1211.5</ele><time>2015-11-22T12:40:25.0000000+00:00</time></trkpt><trkpt lat="30.8316534" lon="35.6687995"><ele>1210.9</ele><time>2015-11-22T12:40:26.0000000+00:00</time></trkpt><trkpt lat="30.8316327" lon="35.6688953"><ele>1210.7</ele><time>2015-11-22T12:40:27.0000000+00:00</time></trkpt><trkpt lat="30.831601" lon="35.6689962"><ele>1210.0</ele><time>2015-11-22T12:40:28.0000000+00:00</time></trkpt><trkpt lat="30.8315784" lon="35.6690983"><ele>1209.7</ele><time>2015-11-22T12:40:29.0000000+00:00</time></trkpt><trkpt lat="30.8315553" lon="35.6692034"><ele>1209.1</ele><time>2015-11-22T12:40:30.0000000+00:00</time></trkpt><trkpt lat="30.8315306" lon="35.6693156"><ele>1208.7</ele><time>2015-11-22T12:40:31.0000000+00:00</time></trkpt><trkpt lat="30.8315159" lon="35.6694324"><ele>1208.6</ele><time>2015-11-22T12:40:32.0000000+00:00</time></trkpt><trkpt lat="30.8314911" lon="35.6695495"><ele>1208.5</ele><time>2015-11-22T12:40:33.0000000+00:00</time></trkpt><trkpt lat="30.831476" lon="35.669667"><ele>1207.9</ele><time>2015-11-22T12:40:34.0000000+00:00</time></trkpt><trkpt lat="30.8314676" lon="35.6697748"><ele>1206.7</ele><time>2015-11-22T12:40:35.0000000+00:00</time></trkpt><trkpt lat="30.8314411" lon="35.6699015"><ele>1205.5</ele><time>2015-11-22T12:40:36.0000000+00:00</time></trkpt><trkpt lat="30.8314096" lon="35.6700325"><ele>1204.5</ele><time>2015-11-22T12:40:37.0000000+00:00</time></trkpt><trkpt lat="30.8313896" lon="35.6701571"><ele>1203.9</ele><time>2015-11-22T12:40:38.0000000+00:00</time></trkpt><trkpt lat="30.8313602" lon="35.6702795"><ele>1203.7</ele><time>2015-11-22T12:40:39.0000000+00:00</time></trkpt><trkpt lat="30.8313335" lon="35.6704041"><ele>1203.5</ele><time>2015-11-22T12:40:40.0000000+00:00</time></trkpt><trkpt lat="30.8313135" lon="35.6705325"><ele>1202.5</ele><time>2015-11-22T12:40:41.0000000+00:00</time></trkpt><trkpt lat="30.8312854" lon="35.6706575"><ele>1201.4</ele><time>2015-11-22T12:40:42.0000000+00:00</time></trkpt><trkpt lat="30.8312654" lon="35.6707824"><ele>1200.9</ele><time>2015-11-22T12:40:43.0000000+00:00</time></trkpt><trkpt lat="30.8312361" lon="35.6709074"><ele>1200.2</ele><time>2015-11-22T12:40:44.0000000+00:00</time></trkpt><trkpt lat="30.8312067" lon="35.6710359"><ele>1199.8</ele><time>2015-11-22T12:40:45.0000000+00:00</time></trkpt><trkpt lat="30.8311762" lon="35.6711688"><ele>1199.1</ele><time>2015-11-22T12:40:46.0000000+00:00</time></trkpt><trkpt lat="30.8311514" lon="35.671299"><ele>1198.7</ele><time>2015-11-22T12:40:47.0000000+00:00</time></trkpt><trkpt lat="30.8311239" lon="35.6714272"><ele>1198.6</ele><time>2015-11-22T12:40:48.0000000+00:00</time></trkpt><trkpt lat="30.8311005" lon="35.6715621"><ele>1198.0</ele><time>2015-11-22T12:40:49.0000000+00:00</time></trkpt><trkpt lat="30.8310682" lon="35.671691"><ele>1197.2</ele><time>2015-11-22T12:40:50.0000000+00:00</time></trkpt><trkpt lat="30.8310466" lon="35.671824"><ele>1196.8</ele><time>2015-11-22T12:40:51.0000000+00:00</time></trkpt><trkpt lat="30.8310167" lon="35.6719482"><ele>1196.6</ele><time>2015-11-22T12:40:52.0000000+00:00</time></trkpt><trkpt lat="30.8309899" lon="35.6720809"><ele>1196.0</ele><time>2015-11-22T12:40:53.0000000+00:00</time></trkpt><trkpt lat="30.830963" lon="35.6722082"><ele>1195.7</ele><time>2015-11-22T12:40:54.0000000+00:00</time></trkpt><trkpt lat="30.8309437" lon="35.6723332"><ele>1195.0</ele><time>2015-11-22T12:40:55.0000000+00:00</time></trkpt><trkpt lat="30.8309179" lon="35.6724701"><ele>1194.2</ele><time>2015-11-22T12:40:56.0000000+00:00</time></trkpt><trkpt lat="30.8308974" lon="35.6725876"><ele>1193.8</ele><time>2015-11-22T12:40:57.0000000+00:00</time></trkpt><trkpt lat="30.8308753" lon="35.6727124"><ele>1193.6</ele><time>2015-11-22T12:40:58.0000000+00:00</time></trkpt><trkpt lat="30.8308536" lon="35.6728344"><ele>1193.5</ele><time>2015-11-22T12:40:59.0000000+00:00</time></trkpt><trkpt lat="30.830826" lon="35.6729554"><ele>1193.5</ele><time>2015-11-22T12:41:00.0000000+00:00</time></trkpt><trkpt lat="30.8308044" lon="35.6730653"><ele>1192.4</ele><time>2015-11-22T12:41:01.0000000+00:00</time></trkpt><trkpt lat="30.8307812" lon="35.6731836"><ele>1191.4</ele><time>2015-11-22T12:41:02.0000000+00:00</time></trkpt><trkpt lat="30.8307583" lon="35.6732974"><ele>1190.4</ele><time>2015-11-22T12:41:03.0000000+00:00</time></trkpt><trkpt lat="30.8307342" lon="35.6734104"><ele>1188.4</ele><time>2015-11-22T12:41:04.0000000+00:00</time></trkpt><trkpt lat="30.8307069" lon="35.6735356"><ele>1187.4</ele><time>2015-11-22T12:41:05.0000000+00:00</time></trkpt><trkpt lat="30.8306796" lon="35.6736499"><ele>1186.9</ele><time>2015-11-22T12:41:06.0000000+00:00</time></trkpt><trkpt lat="30.8306586" lon="35.6737667"><ele>1186.6</ele><time>2015-11-22T12:41:07.0000000+00:00</time></trkpt><trkpt lat="30.8306316" lon="35.6738797"><ele>1186.5</ele><time>2015-11-22T12:41:08.0000000+00:00</time></trkpt><trkpt lat="30.8306134" lon="35.6739969"><ele>1186.5</ele><time>2015-11-22T12:41:09.0000000+00:00</time></trkpt><trkpt lat="30.8305823" lon="35.6741154"><ele>1186.4</ele><time>2015-11-22T12:41:10.0000000+00:00</time></trkpt><trkpt lat="30.830558" lon="35.6742319"><ele>1185.9</ele><time>2015-11-22T12:41:11.0000000+00:00</time></trkpt><trkpt lat="30.8305327" lon="35.674347"><ele>1185.7</ele><time>2015-11-22T12:41:12.0000000+00:00</time></trkpt><trkpt lat="30.8305108" lon="35.6744608"><ele>1186.0</ele><time>2015-11-22T12:41:13.0000000+00:00</time></trkpt><trkpt lat="30.8304844" lon="35.6745808"><ele>1185.7</ele><time>2015-11-22T12:41:14.0000000+00:00</time></trkpt><trkpt lat="30.8304675" lon="35.6746968"><ele>1186.1</ele><time>2015-11-22T12:41:15.0000000+00:00</time></trkpt><trkpt lat="30.8304331" lon="35.6748103"><ele>1185.7</ele><time>2015-11-22T12:41:16.0000000+00:00</time></trkpt><trkpt lat="30.8304114" lon="35.6749255"><ele>1185.1</ele><time>2015-11-22T12:41:17.0000000+00:00</time></trkpt><trkpt lat="30.8303931" lon="35.6750473"><ele>1184.2</ele><time>2015-11-22T12:41:18.0000000+00:00</time></trkpt><trkpt lat="30.8303644" lon="35.6751494"><ele>1183.3</ele><time>2015-11-22T12:41:19.0000000+00:00</time></trkpt><trkpt lat="30.8303503" lon="35.6752659"><ele>1182.9</ele><time>2015-11-22T12:41:20.0000000+00:00</time></trkpt><trkpt lat="30.8303184" lon="35.6753707"><ele>1182.1</ele><time>2015-11-22T12:41:21.0000000+00:00</time></trkpt><trkpt lat="30.8302993" lon="35.6754754"><ele>1181.3</ele><time>2015-11-22T12:41:22.0000000+00:00</time></trkpt><trkpt lat="30.8302785" lon="35.6755859"><ele>1180.8</ele><time>2015-11-22T12:41:23.0000000+00:00</time></trkpt><trkpt lat="30.8302649" lon="35.6756927"><ele>1181.6</ele><time>2015-11-22T12:41:24.0000000+00:00</time></trkpt><trkpt lat="30.830243" lon="35.675803"><ele>1181.0</ele><time>2015-11-22T12:41:25.0000000+00:00</time></trkpt><trkpt lat="30.8302203" lon="35.6759116"><ele>1180.2</ele><time>2015-11-22T12:41:26.0000000+00:00</time></trkpt><trkpt lat="30.830198" lon="35.6760188"><ele>1179.3</ele><time>2015-11-22T12:41:27.0000000+00:00</time></trkpt><trkpt lat="30.8301732" lon="35.676127"><ele>1178.8</ele><time>2015-11-22T12:41:28.0000000+00:00</time></trkpt><trkpt lat="30.8301536" lon="35.676244"><ele>1179.6</ele><time>2015-11-22T12:41:29.0000000+00:00</time></trkpt><trkpt lat="30.8301341" lon="35.6763466"><ele>1179.0</ele><time>2015-11-22T12:41:30.0000000+00:00</time></trkpt><trkpt lat="30.8301075" lon="35.676446"><ele>1178.2</ele><time>2015-11-22T12:41:31.0000000+00:00</time></trkpt><trkpt lat="30.8300879" lon="35.6765443"><ele>1177.8</ele><time>2015-11-22T12:41:32.0000000+00:00</time></trkpt><trkpt lat="30.8300675" lon="35.6766529"><ele>1177.6</ele><time>2015-11-22T12:41:33.0000000+00:00</time></trkpt><trkpt lat="30.8300573" lon="35.6767612"><ele>1176.5</ele><time>2015-11-22T12:41:34.0000000+00:00</time></trkpt><trkpt lat="30.8300327" lon="35.6768647"><ele>1175.9</ele><time>2015-11-22T12:41:35.0000000+00:00</time></trkpt><trkpt lat="30.8300118" lon="35.6769664"><ele>1175.7</ele><time>2015-11-22T12:41:36.0000000+00:00</time></trkpt><trkpt lat="30.8299957" lon="35.6770677"><ele>1175.0</ele><time>2015-11-22T12:41:37.0000000+00:00</time></trkpt><trkpt lat="30.8299703" lon="35.6771769"><ele>1174.7</ele><time>2015-11-22T12:41:38.0000000+00:00</time></trkpt><trkpt lat="30.829959" lon="35.6772774"><ele>1174.6</ele><time>2015-11-22T12:41:39.0000000+00:00</time></trkpt><trkpt lat="30.8299323" lon="35.6773761"><ele>1174.0</ele><time>2015-11-22T12:41:40.0000000+00:00</time></trkpt><trkpt lat="30.8299076" lon="35.677483"><ele>1173.2</ele><time>2015-11-22T12:41:41.0000000+00:00</time></trkpt><trkpt lat="30.8298869" lon="35.6775864"><ele>1172.3</ele><time>2015-11-22T12:41:42.0000000+00:00</time></trkpt><trkpt lat="30.8298663" lon="35.6776947"><ele>1172.3</ele><time>2015-11-22T12:41:43.0000000+00:00</time></trkpt><trkpt lat="30.8298427" lon="35.6777957"><ele>1183.9</ele><time>2015-11-22T12:41:44.0000000+00:00</time></trkpt><trkpt lat="30.8298218" lon="35.6778997"><ele>1184.6</ele><time>2015-11-22T12:41:45.0000000+00:00</time></trkpt><trkpt lat="30.8298026" lon="35.6780021"><ele>1182.5</ele><time>2015-11-22T12:41:46.0000000+00:00</time></trkpt><trkpt lat="30.8297821" lon="35.6781068"><ele>1180.0</ele><time>2015-11-22T12:41:47.0000000+00:00</time></trkpt><trkpt lat="30.829762" lon="35.6782068"><ele>1178.7</ele><time>2015-11-22T12:41:48.0000000+00:00</time></trkpt><trkpt lat="30.8297361" lon="35.6783002"><ele>1176.5</ele><time>2015-11-22T12:41:49.0000000+00:00</time></trkpt><trkpt lat="30.829717" lon="35.6783954"><ele>1175.5</ele><time>2015-11-22T12:41:50.0000000+00:00</time></trkpt><trkpt lat="30.8296959" lon="35.6785055"><ele>1173.9</ele><time>2015-11-22T12:41:51.0000000+00:00</time></trkpt><trkpt lat="30.8296788" lon="35.6786064"><ele>1173.2</ele><time>2015-11-22T12:41:52.0000000+00:00</time></trkpt><trkpt lat="30.8296604" lon="35.6787169"><ele>1172.8</ele><time>2015-11-22T12:41:53.0000000+00:00</time></trkpt><trkpt lat="30.8296386" lon="35.6788162"><ele>1172.6</ele><time>2015-11-22T12:41:54.0000000+00:00</time></trkpt><trkpt lat="30.8296185" lon="35.6789087"><ele>1172.0</ele><time>2015-11-22T12:41:55.0000000+00:00</time></trkpt><trkpt lat="30.8295952" lon="35.6790112"><ele>1171.7</ele><time>2015-11-22T12:41:56.0000000+00:00</time></trkpt><trkpt lat="30.8295687" lon="35.679112"><ele>1171.5</ele><time>2015-11-22T12:41:57.0000000+00:00</time></trkpt><trkpt lat="30.8295563" lon="35.6792052"><ele>1171.0</ele><time>2015-11-22T12:41:58.0000000+00:00</time></trkpt><trkpt lat="30.8295294" lon="35.6793006"><ele>1170.7</ele><time>2015-11-22T12:41:59.0000000+00:00</time></trkpt><trkpt lat="30.829509" lon="35.6794032"><ele>1170.5</ele><time>2015-11-22T12:42:00.0000000+00:00</time></trkpt><trkpt lat="30.8294785" lon="35.6795061"><ele>1170.5</ele><time>2015-11-22T12:42:01.0000000+00:00</time></trkpt><trkpt lat="30.8294614" lon="35.6796015"><ele>1170.9</ele><time>2015-11-22T12:42:02.0000000+00:00</time></trkpt><trkpt lat="30.8294453" lon="35.6796991"><ele>1171.7</ele><time>2015-11-22T12:42:03.0000000+00:00</time></trkpt><trkpt lat="30.8294332" lon="35.67979"><ele>1172.0</ele><time>2015-11-22T12:42:04.0000000+00:00</time></trkpt><trkpt lat="30.8294212" lon="35.6798823"><ele>1172.2</ele><time>2015-11-22T12:42:05.0000000+00:00</time></trkpt><trkpt lat="30.8294044" lon="35.6799855"><ele>1172.3</ele><time>2015-11-22T12:42:06.0000000+00:00</time></trkpt><trkpt lat="30.8293853" lon="35.6800876"><ele>1172.4</ele><time>2015-11-22T12:42:07.0000000+00:00</time></trkpt><trkpt lat="30.8293646" lon="35.680189"><ele>1172.4</ele><time>2015-11-22T12:42:08.0000000+00:00</time></trkpt><trkpt lat="30.8293431" lon="35.6802926"><ele>1172.9</ele><time>2015-11-22T12:42:09.0000000+00:00</time></trkpt><trkpt lat="30.8293152" lon="35.6803784"><ele>1173.1</ele><time>2015-11-22T12:42:10.0000000+00:00</time></trkpt><trkpt lat="30.8292916" lon="35.6804824"><ele>1173.3</ele><time>2015-11-22T12:42:11.0000000+00:00</time></trkpt><trkpt lat="30.8292701" lon="35.6805895"><ele>1172.8</ele><time>2015-11-22T12:42:12.0000000+00:00</time></trkpt><trkpt lat="30.829247" lon="35.6806871"><ele>1172.1</ele><time>2015-11-22T12:42:13.0000000+00:00</time></trkpt><trkpt lat="30.8292358" lon="35.6807671"><ele>1171.8</ele><time>2015-11-22T12:42:14.0000000+00:00</time></trkpt><trkpt lat="30.8292119" lon="35.6808582"><ele>1171.6</ele><time>2015-11-22T12:42:15.0000000+00:00</time></trkpt><trkpt lat="30.8291906" lon="35.6809457"><ele>1171.0</ele><time>2015-11-22T12:42:16.0000000+00:00</time></trkpt><trkpt lat="30.8291757" lon="35.6810296"><ele>1170.7</ele><time>2015-11-22T12:42:17.0000000+00:00</time></trkpt><trkpt lat="30.8291587" lon="35.6811128"><ele>1170.5</ele><time>2015-11-22T12:42:18.0000000+00:00</time></trkpt><trkpt lat="30.8291438" lon="35.6811941"><ele>1170.5</ele><time>2015-11-22T12:42:19.0000000+00:00</time></trkpt><trkpt lat="30.8291257" lon="35.6812626"><ele>1170.4</ele><time>2015-11-22T12:42:20.0000000+00:00</time></trkpt><trkpt lat="30.829107" lon="35.6813422"><ele>1170.9</ele><time>2015-11-22T12:42:21.0000000+00:00</time></trkpt><trkpt lat="30.8290922" lon="35.6814182"><ele>1171.2</ele><time>2015-11-22T12:42:22.0000000+00:00</time></trkpt><trkpt lat="30.8290788" lon="35.6814864"><ele>1171.3</ele><time>2015-11-22T12:42:23.0000000+00:00</time></trkpt><trkpt lat="30.8290706" lon="35.6815512"><ele>1171.3</ele><time>2015-11-22T12:42:24.0000000+00:00</time></trkpt><trkpt lat="30.8290645" lon="35.6816187"><ele>1171.4</ele><time>2015-11-22T12:42:25.0000000+00:00</time></trkpt><trkpt lat="30.8290532" lon="35.6816826"><ele>1171.4</ele><time>2015-11-22T12:42:26.0000000+00:00</time></trkpt><trkpt lat="30.8290313" lon="35.6817476"><ele>1171.9</ele><time>2015-11-22T12:42:27.0000000+00:00</time></trkpt><trkpt lat="30.8290119" lon="35.6818602"><ele>1172.3</ele><time>2015-11-22T12:42:29.0000000+00:00</time></trkpt><trkpt lat="30.8289932" lon="35.6819139"><ele>1172.3</ele><time>2015-11-22T12:42:30.0000000+00:00</time></trkpt><trkpt lat="30.8289667" lon="35.6820059"><ele>1172.4</ele><time>2015-11-22T12:42:32.0000000+00:00</time></trkpt><trkpt lat="30.8289512" lon="35.6820925"><ele>1172.1</ele><time>2015-11-22T12:42:34.0000000+00:00</time></trkpt><trkpt lat="30.8289262" lon="35.6821769"><ele>1172.3</ele><time>2015-11-22T12:42:36.0000000+00:00</time></trkpt><trkpt lat="30.8289119" lon="35.6822671"><ele>1172.4</ele><time>2015-11-22T12:42:38.0000000+00:00</time></trkpt><trkpt lat="30.8288984" lon="35.6823216"><ele>1172.4</ele><time>2015-11-22T12:42:40.0000000+00:00</time></trkpt><trkpt lat="30.8288877" lon="35.6823774"><ele>1172.9</ele><time>2015-11-22T12:42:42.0000000+00:00</time></trkpt><trkpt lat="30.828882" lon="35.6824324"><ele>1173.3</ele><time>2015-11-22T12:42:44.0000000+00:00</time></trkpt><trkpt lat="30.8288705" lon="35.6824882"><ele>1173.4</ele><time>2015-11-22T12:42:46.0000000+00:00</time></trkpt><trkpt lat="30.8288588" lon="35.6825445"><ele>1174.1</ele><time>2015-11-22T12:42:48.0000000+00:00</time></trkpt><trkpt lat="30.8288492" lon="35.6826029"><ele>1174.3</ele><time>2015-11-22T12:42:50.0000000+00:00</time></trkpt><trkpt lat="30.8288397" lon="35.6826601"><ele>1175.1</ele><time>2015-11-22T12:42:52.0000000+00:00</time></trkpt><trkpt lat="30.8288256" lon="35.6827176"><ele>1175.3</ele><time>2015-11-22T12:42:54.0000000+00:00</time></trkpt><trkpt lat="30.8288124" lon="35.6827776"><ele>1175.1</ele><time>2015-11-22T12:42:56.0000000+00:00</time></trkpt><trkpt lat="30.8287985" lon="35.6828394"><ele>1173.8</ele><time>2015-11-22T12:42:58.0000000+00:00</time></trkpt><trkpt lat="30.8287898" lon="35.6829031"><ele>1173.0</ele><time>2015-11-22T12:43:00.0000000+00:00</time></trkpt><trkpt lat="30.828772" lon="35.6829692"><ele>1173.1</ele><time>2015-11-22T12:43:02.0000000+00:00</time></trkpt><trkpt lat="30.8287569" lon="35.6830317"><ele>1173.3</ele><time>2015-11-22T12:43:04.0000000+00:00</time></trkpt><trkpt lat="30.8287373" lon="35.6830966"><ele>1173.6</ele><time>2015-11-22T12:43:06.0000000+00:00</time></trkpt><trkpt lat="30.828728" lon="35.683158"><ele>1174.7</ele><time>2015-11-22T12:43:08.0000000+00:00</time></trkpt><trkpt lat="30.828719" lon="35.6832194"><ele>1175.7</ele><time>2015-11-22T12:43:10.0000000+00:00</time></trkpt><trkpt lat="30.8287092" lon="35.6833139"><ele>1177.0</ele><time>2015-11-22T12:43:13.0000000+00:00</time></trkpt><trkpt lat="30.8286975" lon="35.68338"><ele>1177.3</ele><time>2015-11-22T12:43:15.0000000+00:00</time></trkpt><trkpt lat="30.8286889" lon="35.6834391"><ele>1178.1</ele><time>2015-11-22T12:43:17.0000000+00:00</time></trkpt><trkpt lat="30.8286793" lon="35.6835128"><ele>1179.7</ele><time>2015-11-22T12:43:20.0000000+00:00</time></trkpt><trkpt lat="30.8286691" lon="35.68357"><ele>1180.2</ele><time>2015-11-22T12:43:22.0000000+00:00</time></trkpt><trkpt lat="30.8286572" lon="35.6836289"><ele>1180.4</ele><time>2015-11-22T12:43:24.0000000+00:00</time></trkpt><trkpt lat="30.8286485" lon="35.6836915"><ele>1179.6</ele><time>2015-11-22T12:43:26.0000000+00:00</time></trkpt><trkpt lat="30.8286372" lon="35.6837553"><ele>1180.2</ele><time>2015-11-22T12:43:28.0000000+00:00</time></trkpt><trkpt lat="30.8286268" lon="35.683815"><ele>1181.1</ele><time>2015-11-22T12:43:30.0000000+00:00</time></trkpt><trkpt lat="30.8286163" lon="35.6838665"><ele>1181.3</ele><time>2015-11-22T12:43:32.0000000+00:00</time></trkpt><trkpt lat="30.8285987" lon="35.6839438"><ele>1181.4</ele><time>2015-11-22T12:43:35.0000000+00:00</time></trkpt><trkpt lat="30.8285879" lon="35.6840007"><ele>1181.4</ele><time>2015-11-22T12:43:37.0000000+00:00</time></trkpt><trkpt lat="30.828577" lon="35.6840624"><ele>1181.4</ele><time>2015-11-22T12:43:39.0000000+00:00</time></trkpt><trkpt lat="30.8285648" lon="35.684127"><ele>1181.4</ele><time>2015-11-22T12:43:41.0000000+00:00</time></trkpt><trkpt lat="30.8285526" lon="35.6841989"><ele>1181.4</ele><time>2015-11-22T12:43:43.0000000+00:00</time></trkpt><trkpt lat="30.828539" lon="35.6842732"><ele>1181.4</ele><time>2015-11-22T12:43:45.0000000+00:00</time></trkpt><trkpt lat="30.8285235" lon="35.6843472"><ele>1181.4</ele><time>2015-11-22T12:43:47.0000000+00:00</time></trkpt><trkpt lat="30.8285076" lon="35.6844203"><ele>1180.6</ele><time>2015-11-22T12:43:49.0000000+00:00</time></trkpt><trkpt lat="30.8284913" lon="35.6844923"><ele>1180.5</ele><time>2015-11-22T12:43:51.0000000+00:00</time></trkpt><trkpt lat="30.8284759" lon="35.6845658"><ele>1181.2</ele><time>2015-11-22T12:43:53.0000000+00:00</time></trkpt><trkpt lat="30.828462" lon="35.6846368"><ele>1181.3</ele><time>2015-11-22T12:43:55.0000000+00:00</time></trkpt><trkpt lat="30.8284518" lon="35.6846947"><ele>1181.4</ele><time>2015-11-22T12:43:57.0000000+00:00</time></trkpt><trkpt lat="30.8284427" lon="35.6847493"><ele>1181.4</ele><time>2015-11-22T12:43:59.0000000+00:00</time></trkpt><trkpt lat="30.8284287" lon="35.6848122"><ele>1181.9</ele><time>2015-11-22T12:44:01.0000000+00:00</time></trkpt><trkpt lat="30.8284126" lon="35.684882"><ele>1182.3</ele><time>2015-11-22T12:44:03.0000000+00:00</time></trkpt><trkpt lat="30.8283998" lon="35.6849522"><ele>1181.9</ele><time>2015-11-22T12:44:05.0000000+00:00</time></trkpt><trkpt lat="30.828386" lon="35.6850199"><ele>1181.5</ele><time>2015-11-22T12:44:07.0000000+00:00</time></trkpt><trkpt lat="30.8283685" lon="35.6850894"><ele>1180.7</ele><time>2015-11-22T12:44:09.0000000+00:00</time></trkpt><trkpt lat="30.8283464" lon="35.6851644"><ele>1180.2</ele><time>2015-11-22T12:44:11.0000000+00:00</time></trkpt><trkpt lat="30.8283227" lon="35.6852476"><ele>1180.4</ele><time>2015-11-22T12:44:13.0000000+00:00</time></trkpt><trkpt lat="30.8283055" lon="35.6853186"><ele>1179.9</ele><time>2015-11-22T12:44:15.0000000+00:00</time></trkpt><trkpt lat="30.8282874" lon="35.6853861"><ele>1179.8</ele><time>2015-11-22T12:44:17.0000000+00:00</time></trkpt><trkpt lat="30.8282618" lon="35.6854552"><ele>1179.5</ele><time>2015-11-22T12:44:19.0000000+00:00</time></trkpt><trkpt lat="30.8282443" lon="35.6855249"><ele>1180.2</ele><time>2015-11-22T12:44:21.0000000+00:00</time></trkpt><trkpt lat="30.8282358" lon="35.6855932"><ele>1181.3</ele><time>2015-11-22T12:44:23.0000000+00:00</time></trkpt><trkpt lat="30.8282308" lon="35.6856536"><ele>1182.1</ele><time>2015-11-22T12:44:25.0000000+00:00</time></trkpt><trkpt lat="30.8282213" lon="35.685713"><ele>1181.1</ele><time>2015-11-22T12:44:27.0000000+00:00</time></trkpt><trkpt lat="30.828211" lon="35.6857747"><ele>1181.3</ele><time>2015-11-22T12:44:29.0000000+00:00</time></trkpt><trkpt lat="30.8281945" lon="35.6858293"><ele>1182.1</ele><time>2015-11-22T12:44:31.0000000+00:00</time></trkpt><trkpt lat="30.8281804" lon="35.6858828"><ele>1182.1</ele><time>2015-11-22T12:44:33.0000000+00:00</time></trkpt><trkpt lat="30.8281519" lon="35.6859304"><ele>1179.5</ele><time>2015-11-22T12:45:26.0000000+00:00</time></trkpt><trkpt lat="30.8281942" lon="35.6859533"><ele>1180.4</ele><time>2015-11-22T12:45:31.0000000+00:00</time></trkpt><trkpt lat="30.8282431" lon="35.6859027"><ele>1180.4</ele><time>2015-11-22T12:45:34.0000000+00:00</time></trkpt><trkpt lat="30.8282612" lon="35.6858234"><ele>1180.4</ele><time>2015-11-22T12:45:36.0000000+00:00</time></trkpt><trkpt lat="30.8282778" lon="35.685739"><ele>1181.1</ele><time>2015-11-22T12:45:38.0000000+00:00</time></trkpt><trkpt lat="30.8282876" lon="35.6856554"><ele>1181.3</ele><time>2015-11-22T12:45:40.0000000+00:00</time></trkpt><trkpt lat="30.828305" lon="35.6855719"><ele>1181.4</ele><time>2015-11-22T12:45:42.0000000+00:00</time></trkpt><trkpt lat="30.8283208" lon="35.6854863"><ele>1181.4</ele><time>2015-11-22T12:45:44.0000000+00:00</time></trkpt><trkpt lat="30.8283369" lon="35.6853994"><ele>1181.4</ele><time>2015-11-22T12:45:46.0000000+00:00</time></trkpt><trkpt lat="30.828353" lon="35.6853131"><ele>1181.4</ele><time>2015-11-22T12:45:48.0000000+00:00</time></trkpt><trkpt lat="30.828373" lon="35.6852239"><ele>1180.9</ele><time>2015-11-22T12:45:50.0000000+00:00</time></trkpt><trkpt lat="30.8283922" lon="35.685133"><ele>1180.5</ele><time>2015-11-22T12:45:52.0000000+00:00</time></trkpt><trkpt lat="30.8284178" lon="35.6850392"><ele>1180.4</ele><time>2015-11-22T12:45:54.0000000+00:00</time></trkpt><trkpt lat="30.8284465" lon="35.6849414"><ele>1180.4</ele><time>2015-11-22T12:45:56.0000000+00:00</time></trkpt><trkpt lat="30.8284587" lon="35.6848876"><ele>1180.4</ele><time>2015-11-22T12:45:57.0000000+00:00</time></trkpt><trkpt lat="30.8284874" lon="35.6848002"><ele>1180.4</ele><time>2015-11-22T12:45:58.0000000+00:00</time></trkpt><trkpt lat="30.8285091" lon="35.6846996"><ele>1180.4</ele><time>2015-11-22T12:46:00.0000000+00:00</time></trkpt><trkpt lat="30.8285143" lon="35.6846425"><ele>1180.4</ele><time>2015-11-22T12:46:01.0000000+00:00</time></trkpt><trkpt lat="30.8285371" lon="35.6845746"><ele>1180.4</ele><time>2015-11-22T12:46:02.0000000+00:00</time></trkpt><trkpt lat="30.8285499" lon="35.6844634"><ele>1180.1</ele><time>2015-11-22T12:46:04.0000000+00:00</time></trkpt><trkpt lat="30.8285626" lon="35.6844095"><ele>1180.3</ele><time>2015-11-22T12:46:05.0000000+00:00</time></trkpt><trkpt lat="30.8285841" lon="35.6843362"><ele>1180.4</ele><time>2015-11-22T12:46:07.0000000+00:00</time></trkpt><trkpt lat="30.8286091" lon="35.684265"><ele>1180.4</ele><time>2015-11-22T12:46:09.0000000+00:00</time></trkpt><trkpt lat="30.828607" lon="35.6841982"><ele>1180.4</ele><time>2015-11-22T12:46:11.0000000+00:00</time></trkpt><trkpt lat="30.828612" lon="35.6841288"><ele>1180.4</ele><time>2015-11-22T12:46:13.0000000+00:00</time></trkpt><trkpt lat="30.8286199" lon="35.6840575"><ele>1180.4</ele><time>2015-11-22T12:46:15.0000000+00:00</time></trkpt><trkpt lat="30.8286237" lon="35.6839777"><ele>1180.4</ele><time>2015-11-22T12:46:17.0000000+00:00</time></trkpt><trkpt lat="30.8286258" lon="35.6838904"><ele>1180.4</ele><time>2015-11-22T12:46:19.0000000+00:00</time></trkpt><trkpt lat="30.828629" lon="35.6837955"><ele>1180.4</ele><time>2015-11-22T12:46:21.0000000+00:00</time></trkpt><trkpt lat="30.8286092" lon="35.6837152"><ele>1179.9</ele><time>2015-11-22T12:46:23.0000000+00:00</time></trkpt><trkpt lat="30.8285462" lon="35.6836825"><ele>1180.0</ele><time>2015-11-22T12:46:25.0000000+00:00</time></trkpt><trkpt lat="30.8284889" lon="35.6837251"><ele>1180.3</ele><time>2015-11-22T12:46:27.0000000+00:00</time></trkpt><trkpt lat="30.8284671" lon="35.6837954"><ele>1180.4</ele><time>2015-11-22T12:46:29.0000000+00:00</time></trkpt><trkpt lat="30.8284615" lon="35.6838527"><ele>1180.4</ele><time>2015-11-22T12:46:31.0000000+00:00</time></trkpt><trkpt lat="30.8284614" lon="35.683928"><ele>1180.4</ele><time>2015-11-22T12:46:34.0000000+00:00</time></trkpt><trkpt lat="30.8284553" lon="35.6839967"><ele>1180.4</ele><time>2015-11-22T12:46:37.0000000+00:00</time></trkpt><trkpt lat="30.8284375" lon="35.6840616"><ele>1179.9</ele><time>2015-11-22T12:46:40.0000000+00:00</time></trkpt><trkpt lat="30.828424" lon="35.6841304"><ele>1180.0</ele><time>2015-11-22T12:46:43.0000000+00:00</time></trkpt><trkpt lat="30.8284156" lon="35.6841995"><ele>1180.3</ele><time>2015-11-22T12:46:46.0000000+00:00</time></trkpt><trkpt lat="30.8284044" lon="35.6842651"><ele>1180.9</ele><time>2015-11-22T12:46:49.0000000+00:00</time></trkpt><trkpt lat="30.8283864" lon="35.6843283"><ele>1181.3</ele><time>2015-11-22T12:46:52.0000000+00:00</time></trkpt><trkpt lat="30.8283774" lon="35.6843878"><ele>1181.4</ele><time>2015-11-22T12:46:55.0000000+00:00</time></trkpt><trkpt lat="30.8283658" lon="35.684455"><ele>1181.9</ele><time>2015-11-22T12:46:58.0000000+00:00</time></trkpt><trkpt lat="30.8283546" lon="35.6845168"><ele>1182.3</ele><time>2015-11-22T12:47:01.0000000+00:00</time></trkpt><trkpt lat="30.8283456" lon="35.6845687"><ele>1183.1</ele><time>2015-11-22T12:47:04.0000000+00:00</time></trkpt><trkpt lat="30.8283334" lon="35.6846261"><ele>1183.4</ele><time>2015-11-22T12:47:08.0000000+00:00</time></trkpt><trkpt lat="30.8283197" lon="35.6846826"><ele>1183.4</ele><time>2015-11-22T12:47:12.0000000+00:00</time></trkpt><trkpt lat="30.8283033" lon="35.6847437"><ele>1183.4</ele><time>2015-11-22T12:47:16.0000000+00:00</time></trkpt><trkpt lat="30.8282872" lon="35.6848057"><ele>1184.8</ele><time>2015-11-22T12:47:20.0000000+00:00</time></trkpt><trkpt lat="30.8282767" lon="35.6848609"><ele>1185.3</ele><time>2015-11-22T12:47:23.0000000+00:00</time></trkpt><trkpt lat="30.8282612" lon="35.6849167"><ele>1184.5</ele><time>2015-11-22T12:47:26.0000000+00:00</time></trkpt><trkpt lat="30.8282454" lon="35.6849707"><ele>1184.3</ele><time>2015-11-22T12:47:29.0000000+00:00</time></trkpt><trkpt lat="30.8282374" lon="35.6850271"><ele>1183.9</ele><time>2015-11-22T12:47:32.0000000+00:00</time></trkpt><trkpt lat="30.8282206" lon="35.6850801"><ele>1183.5</ele><time>2015-11-22T12:47:35.0000000+00:00</time></trkpt><trkpt lat="30.8282123" lon="35.6851321"><ele>1184.2</ele><time>2015-11-22T12:47:38.0000000+00:00</time></trkpt><trkpt lat="30.8282017" lon="35.6851976"><ele>1185.1</ele><time>2015-11-22T12:47:42.0000000+00:00</time></trkpt><trkpt lat="30.8281835" lon="35.6852642"><ele>1186.3</ele><time>2015-11-22T12:47:46.0000000+00:00</time></trkpt><trkpt lat="30.8281702" lon="35.6853233"><ele>1186.5</ele><time>2015-11-22T12:47:49.0000000+00:00</time></trkpt><trkpt lat="30.8281603" lon="35.6853822"><ele>1186.7</ele><time>2015-11-22T12:47:52.0000000+00:00</time></trkpt><trkpt lat="30.8281433" lon="35.6854339"><ele>1187.3</ele><time>2015-11-22T12:47:55.0000000+00:00</time></trkpt><trkpt lat="30.8281292" lon="35.6854896"><ele>1187.1</ele><time>2015-11-22T12:47:58.0000000+00:00</time></trkpt><trkpt lat="30.8281134" lon="35.6855504"><ele>1187.4</ele><time>2015-11-22T12:48:01.0000000+00:00</time></trkpt><trkpt lat="30.8281036" lon="35.6856078"><ele>1188.1</ele><time>2015-11-22T12:48:04.0000000+00:00</time></trkpt><trkpt lat="30.8280886" lon="35.685666"><ele>1188.4</ele><time>2015-11-22T12:48:07.0000000+00:00</time></trkpt><trkpt lat="30.8280777" lon="35.6857278"><ele>1187.6</ele><time>2015-11-22T12:48:10.0000000+00:00</time></trkpt><trkpt lat="30.8280699" lon="35.6857896"><ele>1188.3</ele><time>2015-11-22T12:48:13.0000000+00:00</time></trkpt><trkpt lat="30.8280647" lon="35.6858509"><ele>1188.9</ele><time>2015-11-22T12:48:16.0000000+00:00</time></trkpt><trkpt lat="30.8280553" lon="35.6859153"><ele>1189.3</ele><time>2015-11-22T12:48:19.0000000+00:00</time></trkpt><trkpt lat="30.8280411" lon="35.6859802"><ele>1189.4</ele><time>2015-11-22T12:48:22.0000000+00:00</time></trkpt><trkpt lat="30.8280352" lon="35.6860459"><ele>1188.9</ele><time>2015-11-22T12:48:25.0000000+00:00</time></trkpt><trkpt lat="30.8280292" lon="35.6861104"><ele>1189.3</ele><time>2015-11-22T12:48:28.0000000+00:00</time></trkpt><trkpt lat="30.8280215" lon="35.6861822"><ele>1188.5</ele><time>2015-11-22T12:48:31.0000000+00:00</time></trkpt><trkpt lat="30.8280127" lon="35.6862568"><ele>1188.4</ele><time>2015-11-22T12:48:34.0000000+00:00</time></trkpt><trkpt lat="30.8280083" lon="35.6863208"><ele>1188.2</ele><time>2015-11-22T12:48:37.0000000+00:00</time></trkpt><trkpt lat="30.8280087" lon="35.6863821"><ele>1187.6</ele><time>2015-11-22T12:48:40.0000000+00:00</time></trkpt><trkpt lat="30.828002" lon="35.686448"><ele>1186.7</ele><time>2015-11-22T12:48:43.0000000+00:00</time></trkpt><trkpt lat="30.8279956" lon="35.6865206"><ele>1186.4</ele><time>2015-11-22T12:48:46.0000000+00:00</time></trkpt><trkpt lat="30.8279959" lon="35.6865944"><ele>1187.3</ele><time>2015-11-22T12:48:49.0000000+00:00</time></trkpt><trkpt lat="30.8279956" lon="35.6866692"><ele>1187.9</ele><time>2015-11-22T12:48:52.0000000+00:00</time></trkpt><trkpt lat="30.8279982" lon="35.68675"><ele>1187.6</ele><time>2015-11-22T12:48:55.0000000+00:00</time></trkpt><trkpt lat="30.8280043" lon="35.6868078"><ele>1187.4</ele><time>2015-11-22T12:48:57.0000000+00:00</time></trkpt><trkpt lat="30.8280062" lon="35.6868662"><ele>1188.2</ele><time>2015-11-22T12:48:59.0000000+00:00</time></trkpt><trkpt lat="30.8280084" lon="35.6869284"><ele>1188.1</ele><time>2015-11-22T12:49:01.0000000+00:00</time></trkpt><trkpt lat="30.8280109" lon="35.6869935"><ele>1187.8</ele><time>2015-11-22T12:49:03.0000000+00:00</time></trkpt><trkpt lat="30.8280146" lon="35.6870591"><ele>1188.0</ele><time>2015-11-22T12:49:05.0000000+00:00</time></trkpt><trkpt lat="30.82802" lon="35.6871277"><ele>1188.1</ele><time>2015-11-22T12:49:07.0000000+00:00</time></trkpt><trkpt lat="30.828023" lon="35.6871975"><ele>1187.8</ele><time>2015-11-22T12:49:09.0000000+00:00</time></trkpt><trkpt lat="30.8280251" lon="35.6872656"><ele>1187.5</ele><time>2015-11-22T12:49:11.0000000+00:00</time></trkpt><trkpt lat="30.8280278" lon="35.6873339"><ele>1187.4</ele><time>2015-11-22T12:49:13.0000000+00:00</time></trkpt><trkpt lat="30.828028" lon="35.687408"><ele>1187.4</ele><time>2015-11-22T12:49:15.0000000+00:00</time></trkpt><trkpt lat="30.8280192" lon="35.6875083"><ele>1187.4</ele><time>2015-11-22T12:49:17.0000000+00:00</time></trkpt><trkpt lat="30.8280108" lon="35.6876061"><ele>1186.9</ele><time>2015-11-22T12:49:18.0000000+00:00</time></trkpt><trkpt lat="30.8279998" lon="35.6876622"><ele>1186.6</ele><time>2015-11-22T12:49:19.0000000+00:00</time></trkpt><trkpt lat="30.8279812" lon="35.6877139"><ele>1186.5</ele><time>2015-11-22T12:49:20.0000000+00:00</time></trkpt><trkpt lat="30.8279568" lon="35.6877644"><ele>1186.5</ele><time>2015-11-22T12:49:21.0000000+00:00</time></trkpt><trkpt lat="30.8279232" lon="35.6878118"><ele>1186.4</ele><time>2015-11-22T12:49:22.0000000+00:00</time></trkpt><trkpt lat="30.8278473" lon="35.6878693"><ele>1185.9</ele><time>2015-11-22T12:49:24.0000000+00:00</time></trkpt><trkpt lat="30.8277804" lon="35.6878805"><ele>1186.3</ele><time>2015-11-22T12:49:26.0000000+00:00</time></trkpt><trkpt lat="30.8277158" lon="35.6878726"><ele>1186.4</ele><time>2015-11-22T12:49:28.0000000+00:00</time></trkpt><trkpt lat="30.8276616" lon="35.6878458"><ele>1186.6</ele><time>2015-11-22T12:49:30.0000000+00:00</time></trkpt><trkpt lat="30.827612" lon="35.6877949"><ele>1186.5</ele><time>2015-11-22T12:49:32.0000000+00:00</time></trkpt><trkpt lat="30.8275626" lon="35.6877498"><ele>1187.2</ele><time>2015-11-22T12:49:34.0000000+00:00</time></trkpt><trkpt lat="30.8275093" lon="35.6877039"><ele>1187.3</ele><time>2015-11-22T12:49:36.0000000+00:00</time></trkpt><trkpt lat="30.8274513" lon="35.6876576"><ele>1187.6</ele><time>2015-11-22T12:49:38.0000000+00:00</time></trkpt><trkpt lat="30.82739" lon="35.6876074"><ele>1187.5</ele><time>2015-11-22T12:49:40.0000000+00:00</time></trkpt><trkpt lat="30.8273289" lon="35.687556"><ele>1188.2</ele><time>2015-11-22T12:49:42.0000000+00:00</time></trkpt><trkpt lat="30.8272674" lon="35.6875043"><ele>1188.3</ele><time>2015-11-22T12:49:44.0000000+00:00</time></trkpt><trkpt lat="30.8272062" lon="35.6874543"><ele>1188.4</ele><time>2015-11-22T12:49:46.0000000+00:00</time></trkpt><trkpt lat="30.8271452" lon="35.6874087"><ele>1188.4</ele><time>2015-11-22T12:49:48.0000000+00:00</time></trkpt><trkpt lat="30.8270914" lon="35.687369"><ele>1187.9</ele><time>2015-11-22T12:49:50.0000000+00:00</time></trkpt><trkpt lat="30.8270634" lon="35.6873193"><ele>1189.1</ele><time>2015-11-22T12:50:51.0000000+00:00</time></trkpt><trkpt lat="30.8270324" lon="35.6872744"><ele>1190.0</ele><time>2015-11-22T12:51:16.0000000+00:00</time></trkpt><trkpt lat="30.8269786" lon="35.6872362"><ele>1190.6</ele><time>2015-11-22T12:51:19.0000000+00:00</time></trkpt><trkpt lat="30.8269307" lon="35.6872008"><ele>1190.4</ele><time>2015-11-22T12:51:21.0000000+00:00</time></trkpt><trkpt lat="30.8268777" lon="35.6871658"><ele>1190.4</ele><time>2015-11-22T12:51:23.0000000+00:00</time></trkpt><trkpt lat="30.8268228" lon="35.6871274"><ele>1189.7</ele><time>2015-11-22T12:51:25.0000000+00:00</time></trkpt><trkpt lat="30.8267672" lon="35.6870803"><ele>1189.5</ele><time>2015-11-22T12:51:27.0000000+00:00</time></trkpt><trkpt lat="30.8267051" lon="35.6870305"><ele>1189.4</ele><time>2015-11-22T12:51:29.0000000+00:00</time></trkpt><trkpt lat="30.826642" lon="35.686977"><ele>1188.7</ele><time>2015-11-22T12:51:31.0000000+00:00</time></trkpt><trkpt lat="30.8265697" lon="35.6869176"><ele>1189.0</ele><time>2015-11-22T12:51:33.0000000+00:00</time></trkpt><trkpt lat="30.8265347" lon="35.6868845"><ele>1188.7</ele><time>2015-11-22T12:51:34.0000000+00:00</time></trkpt><trkpt lat="30.8264999" lon="35.6868511"><ele>1189.0</ele><time>2015-11-22T12:51:35.0000000+00:00</time></trkpt><trkpt lat="30.8264642" lon="35.6868189"><ele>1189.2</ele><time>2015-11-22T12:51:36.0000000+00:00</time></trkpt><trkpt lat="30.8264274" lon="35.6867864"><ele>1188.8</ele><time>2015-11-22T12:51:37.0000000+00:00</time></trkpt><trkpt lat="30.8263728" lon="35.686735"><ele>1188.6</ele><time>2015-11-22T12:51:38.0000000+00:00</time></trkpt><trkpt lat="30.826334" lon="35.6866984"><ele>1189.0</ele><time>2015-11-22T12:51:39.0000000+00:00</time></trkpt><trkpt lat="30.826296" lon="35.6866661"><ele>1189.2</ele><time>2015-11-22T12:51:40.0000000+00:00</time></trkpt><trkpt lat="30.8262498" lon="35.6866253"><ele>1188.8</ele><time>2015-11-22T12:51:41.0000000+00:00</time></trkpt><trkpt lat="30.8262104" lon="35.6865915"><ele>1188.6</ele><time>2015-11-22T12:51:42.0000000+00:00</time></trkpt><trkpt lat="30.8261725" lon="35.6865534"><ele>1189.0</ele><time>2015-11-22T12:51:43.0000000+00:00</time></trkpt><trkpt lat="30.8261336" lon="35.6865138"><ele>1189.2</ele><time>2015-11-22T12:51:44.0000000+00:00</time></trkpt><trkpt lat="30.8261115" lon="35.6864652"><ele>1188.8</ele><time>2015-11-22T12:51:45.0000000+00:00</time></trkpt><trkpt lat="30.8260726" lon="35.6864269"><ele>1188.6</ele><time>2015-11-22T12:51:46.0000000+00:00</time></trkpt><trkpt lat="30.8259929" lon="35.6863587"><ele>1187.7</ele><time>2015-11-22T12:51:48.0000000+00:00</time></trkpt><trkpt lat="30.8259498" lon="35.6863371"><ele>1187.0</ele><time>2015-11-22T12:51:49.0000000+00:00</time></trkpt><trkpt lat="30.825903" lon="35.6863168"><ele>1186.7</ele><time>2015-11-22T12:51:50.0000000+00:00</time></trkpt><trkpt lat="30.8258551" lon="35.6862875"><ele>1186.6</ele><time>2015-11-22T12:51:51.0000000+00:00</time></trkpt><trkpt lat="30.825814" lon="35.6862526"><ele>1186.5</ele><time>2015-11-22T12:51:52.0000000+00:00</time></trkpt><trkpt lat="30.8257636" lon="35.6862239"><ele>1186.4</ele><time>2015-11-22T12:51:53.0000000+00:00</time></trkpt><trkpt lat="30.8257119" lon="35.6861912"><ele>1186.4</ele><time>2015-11-22T12:51:54.0000000+00:00</time></trkpt><trkpt lat="30.8256544" lon="35.6861678"><ele>1185.9</ele><time>2015-11-22T12:51:55.0000000+00:00</time></trkpt><trkpt lat="30.8255985" lon="35.6861243"><ele>1185.7</ele><time>2015-11-22T12:51:56.0000000+00:00</time></trkpt><trkpt lat="30.8255421" lon="35.6860883"><ele>1186.0</ele><time>2015-11-22T12:51:57.0000000+00:00</time></trkpt><trkpt lat="30.8254954" lon="35.6860564"><ele>1185.7</ele><time>2015-11-22T12:51:58.0000000+00:00</time></trkpt><trkpt lat="30.8254536" lon="35.6860155"><ele>1185.6</ele><time>2015-11-22T12:51:59.0000000+00:00</time></trkpt><trkpt lat="30.8254094" lon="35.685982"><ele>1185.0</ele><time>2015-11-22T12:52:00.0000000+00:00</time></trkpt><trkpt lat="30.8253629" lon="35.6859521"><ele>1184.7</ele><time>2015-11-22T12:52:01.0000000+00:00</time></trkpt><trkpt lat="30.8253218" lon="35.6859219"><ele>1184.5</ele><time>2015-11-22T12:52:02.0000000+00:00</time></trkpt><trkpt lat="30.8252852" lon="35.6858907"><ele>1185.0</ele><time>2015-11-22T12:52:03.0000000+00:00</time></trkpt><trkpt lat="30.8252442" lon="35.6858553"><ele>1184.7</ele><time>2015-11-22T12:52:04.0000000+00:00</time></trkpt><trkpt lat="30.8251803" lon="35.6858125"><ele>1184.5</ele><time>2015-11-22T12:52:06.0000000+00:00</time></trkpt><trkpt lat="30.8251145" lon="35.6857555"><ele>1183.9</ele><time>2015-11-22T12:52:08.0000000+00:00</time></trkpt><trkpt lat="30.8250481" lon="35.6856852"><ele>1183.8</ele><time>2015-11-22T12:52:10.0000000+00:00</time></trkpt><trkpt lat="30.8249806" lon="35.6856204"><ele>1184.2</ele><time>2015-11-22T12:52:12.0000000+00:00</time></trkpt><trkpt lat="30.8249452" lon="35.6855757"><ele>1184.3</ele><time>2015-11-22T12:52:13.0000000+00:00</time></trkpt><trkpt lat="30.8249105" lon="35.6855332"><ele>1183.9</ele><time>2015-11-22T12:52:14.0000000+00:00</time></trkpt><trkpt lat="30.8248778" lon="35.6854856"><ele>1183.6</ele><time>2015-11-22T12:52:15.0000000+00:00</time></trkpt><trkpt lat="30.8248438" lon="35.6854394"><ele>1183.0</ele><time>2015-11-22T12:52:16.0000000+00:00</time></trkpt><trkpt lat="30.824811" lon="35.6853904"><ele>1182.7</ele><time>2015-11-22T12:52:17.0000000+00:00</time></trkpt><trkpt lat="30.8247756" lon="35.6853325"><ele>1182.6</ele><time>2015-11-22T12:52:18.0000000+00:00</time></trkpt><trkpt lat="30.8247384" lon="35.6852773"><ele>1182.5</ele><time>2015-11-22T12:52:19.0000000+00:00</time></trkpt><trkpt lat="30.8246966" lon="35.6852205"><ele>1181.9</ele><time>2015-11-22T12:52:20.0000000+00:00</time></trkpt><trkpt lat="30.8246496" lon="35.6851799"><ele>1181.2</ele><time>2015-11-22T12:52:21.0000000+00:00</time></trkpt><trkpt lat="30.8246038" lon="35.6851397"><ele>1180.8</ele><time>2015-11-22T12:52:22.0000000+00:00</time></trkpt><trkpt lat="30.8245618" lon="35.6851104"><ele>1180.1</ele><time>2015-11-22T12:52:23.0000000+00:00</time></trkpt><trkpt lat="30.8245131" lon="35.6850888"><ele>1179.2</ele><time>2015-11-22T12:52:24.0000000+00:00</time></trkpt><trkpt lat="30.8244552" lon="35.6850656"><ele>1178.3</ele><time>2015-11-22T12:52:25.0000000+00:00</time></trkpt><trkpt lat="30.8243874" lon="35.6850454"><ele>1178.4</ele><time>2015-11-22T12:52:26.0000000+00:00</time></trkpt><trkpt lat="30.824323" lon="35.6850226"><ele>1177.9</ele><time>2015-11-22T12:52:27.0000000+00:00</time></trkpt><trkpt lat="30.8242477" lon="35.6850065"><ele>1177.6</ele><time>2015-11-22T12:52:28.0000000+00:00</time></trkpt><trkpt lat="30.8241796" lon="35.6849827"><ele>1177.5</ele><time>2015-11-22T12:52:29.0000000+00:00</time></trkpt><trkpt lat="30.8241055" lon="35.6849464"><ele>1177.0</ele><time>2015-11-22T12:52:30.0000000+00:00</time></trkpt><trkpt lat="30.8240246" lon="35.6849038"><ele>1177.2</ele><time>2015-11-22T12:52:31.0000000+00:00</time></trkpt><trkpt lat="30.8239508" lon="35.6848614"><ele>1176.8</ele><time>2015-11-22T12:52:32.0000000+00:00</time></trkpt><trkpt lat="30.8238702" lon="35.6848129"><ele>1176.6</ele><time>2015-11-22T12:52:33.0000000+00:00</time></trkpt><trkpt lat="30.8237892" lon="35.6847646"><ele>1176.0</ele><time>2015-11-22T12:52:34.0000000+00:00</time></trkpt><trkpt lat="30.8237162" lon="35.6847149"><ele>1175.7</ele><time>2015-11-22T12:52:35.0000000+00:00</time></trkpt><trkpt lat="30.8236425" lon="35.6846557"><ele>1176.0</ele><time>2015-11-22T12:52:36.0000000+00:00</time></trkpt><trkpt lat="30.8235821" lon="35.6845925"><ele>1176.7</ele><time>2015-11-22T12:52:37.0000000+00:00</time></trkpt><trkpt lat="30.8235269" lon="35.6845249"><ele>1177.1</ele><time>2015-11-22T12:52:38.0000000+00:00</time></trkpt><trkpt lat="30.823474" lon="35.6844652"><ele>1176.7</ele><time>2015-11-22T12:52:39.0000000+00:00</time></trkpt><trkpt lat="30.8234181" lon="35.6844175"><ele>1176.1</ele><time>2015-11-22T12:52:40.0000000+00:00</time></trkpt><trkpt lat="30.823372" lon="35.684357"><ele>1176.2</ele><time>2015-11-22T12:52:41.0000000+00:00</time></trkpt><trkpt lat="30.8233299" lon="35.6842988"><ele>1176.3</ele><time>2015-11-22T12:52:42.0000000+00:00</time></trkpt><trkpt lat="30.8232992" lon="35.6842462"><ele>1176.9</ele><time>2015-11-22T12:52:43.0000000+00:00</time></trkpt><trkpt lat="30.8232724" lon="35.6842017"><ele>1176.6</ele><time>2015-11-22T12:52:44.0000000+00:00</time></trkpt><trkpt lat="30.8232432" lon="35.6841516"><ele>1176.5</ele><time>2015-11-22T12:52:45.0000000+00:00</time></trkpt><trkpt lat="30.8231948" lon="35.6840856"><ele>1176.2</ele><time>2015-11-22T12:52:47.0000000+00:00</time></trkpt><trkpt lat="30.8231629" lon="35.6840347"><ele>1176.3</ele><time>2015-11-22T12:52:48.0000000+00:00</time></trkpt><trkpt lat="30.8231258" lon="35.6839934"><ele>1176.3</ele><time>2015-11-22T12:52:49.0000000+00:00</time></trkpt><trkpt lat="30.8230943" lon="35.6839484"><ele>1176.4</ele><time>2015-11-22T12:52:50.0000000+00:00</time></trkpt><trkpt lat="30.8230656" lon="35.6839008"><ele>1176.4</ele><time>2015-11-22T12:52:51.0000000+00:00</time></trkpt><trkpt lat="30.8230312" lon="35.6838566"><ele>1176.4</ele><time>2015-11-22T12:52:52.0000000+00:00</time></trkpt><trkpt lat="30.8229991" lon="35.6838163"><ele>1176.4</ele><time>2015-11-22T12:52:53.0000000+00:00</time></trkpt><trkpt lat="30.8229552" lon="35.6837383"><ele>1176.9</ele><time>2015-11-22T12:52:55.0000000+00:00</time></trkpt><trkpt lat="30.8229009" lon="35.6836519"><ele>1177.0</ele><time>2015-11-22T12:52:57.0000000+00:00</time></trkpt><trkpt lat="30.8228754" lon="35.6836056"><ele>1176.7</ele><time>2015-11-22T12:52:58.0000000+00:00</time></trkpt><trkpt lat="30.8228391" lon="35.6835665"><ele>1176.6</ele><time>2015-11-22T12:52:59.0000000+00:00</time></trkpt><trkpt lat="30.8227803" lon="35.6835027"><ele>1175.7</ele><time>2015-11-22T12:53:01.0000000+00:00</time></trkpt><trkpt lat="30.8227454" lon="35.6834683"><ele>1176.0</ele><time>2015-11-22T12:53:02.0000000+00:00</time></trkpt><trkpt lat="30.8226908" lon="35.6834086"><ele>1175.8</ele><time>2015-11-22T12:53:04.0000000+00:00</time></trkpt><trkpt lat="30.822645" lon="35.6833575"><ele>1176.3</ele><time>2015-11-22T12:53:07.0000000+00:00</time></trkpt><trkpt lat="30.8226" lon="35.6833414"><ele>1177.3</ele><time>2015-11-22T12:53:11.0000000+00:00</time></trkpt><trkpt lat="30.8226429" lon="35.6833254"><ele>1175.6</ele><time>2015-11-22T12:53:43.0000000+00:00</time></trkpt><trkpt lat="30.82261" lon="35.6832793"><ele>1176.8</ele><time>2015-11-22T12:54:01.0000000+00:00</time></trkpt><trkpt lat="30.822575" lon="35.6832234"><ele>1177.5</ele><time>2015-11-22T12:54:05.0000000+00:00</time></trkpt><trkpt lat="30.8225251" lon="35.6831784"><ele>1178.2</ele><time>2015-11-22T12:54:08.0000000+00:00</time></trkpt><trkpt lat="30.8224832" lon="35.6831431"><ele>1178.8</ele><time>2015-11-22T12:54:10.0000000+00:00</time></trkpt><trkpt lat="30.8224407" lon="35.6831003"><ele>1178.8</ele><time>2015-11-22T12:54:12.0000000+00:00</time></trkpt><trkpt lat="30.8224022" lon="35.6830532"><ele>1179.2</ele><time>2015-11-22T12:54:14.0000000+00:00</time></trkpt><trkpt lat="30.8223632" lon="35.6830024"><ele>1179.4</ele><time>2015-11-22T12:54:16.0000000+00:00</time></trkpt><trkpt lat="30.8223232" lon="35.6829431"><ele>1179.4</ele><time>2015-11-22T12:54:18.0000000+00:00</time></trkpt><trkpt lat="30.8222818" lon="35.6828807"><ele>1179.4</ele><time>2015-11-22T12:54:20.0000000+00:00</time></trkpt><trkpt lat="30.822237" lon="35.6828224"><ele>1179.4</ele><time>2015-11-22T12:54:22.0000000+00:00</time></trkpt><trkpt lat="30.8221928" lon="35.6827589"><ele>1178.6</ele><time>2015-11-22T12:54:24.0000000+00:00</time></trkpt><trkpt lat="30.8221467" lon="35.6826958"><ele>1178.2</ele><time>2015-11-22T12:54:26.0000000+00:00</time></trkpt><trkpt lat="30.8221006" lon="35.6826273"><ele>1178.4</ele><time>2015-11-22T12:54:28.0000000+00:00</time></trkpt><trkpt lat="30.8220542" lon="35.6825572"><ele>1178.4</ele><time>2015-11-22T12:54:30.0000000+00:00</time></trkpt><trkpt lat="30.8220155" lon="35.6824829"><ele>1178.4</ele><time>2015-11-22T12:54:32.0000000+00:00</time></trkpt><trkpt lat="30.8219745" lon="35.6824075"><ele>1177.6</ele><time>2015-11-22T12:54:34.0000000+00:00</time></trkpt><trkpt lat="30.8219273" lon="35.6823305"><ele>1177.5</ele><time>2015-11-22T12:54:36.0000000+00:00</time></trkpt><trkpt lat="30.8218721" lon="35.6822461"><ele>1176.9</ele><time>2015-11-22T12:54:38.0000000+00:00</time></trkpt><trkpt lat="30.8218436" lon="35.6822017"><ele>1176.7</ele><time>2015-11-22T12:54:39.0000000+00:00</time></trkpt><trkpt lat="30.8218141" lon="35.682156"><ele>1176.5</ele><time>2015-11-22T12:54:40.0000000+00:00</time></trkpt><trkpt lat="30.8217742" lon="35.6820785"><ele>1177.0</ele><time>2015-11-22T12:54:41.0000000+00:00</time></trkpt><trkpt lat="30.8217251" lon="35.6819948"><ele>1177.5</ele><time>2015-11-22T12:54:43.0000000+00:00</time></trkpt><trkpt lat="30.8216835" lon="35.6819036"><ele>1177.4</ele><time>2015-11-22T12:54:45.0000000+00:00</time></trkpt><trkpt lat="30.8216496" lon="35.6818493"><ele>1177.9</ele><time>2015-11-22T12:54:46.0000000+00:00</time></trkpt><trkpt lat="30.8216251" lon="35.6818015"><ele>1178.2</ele><time>2015-11-22T12:54:47.0000000+00:00</time></trkpt><trkpt lat="30.821599" lon="35.6817559"><ele>1178.3</ele><time>2015-11-22T12:54:48.0000000+00:00</time></trkpt><trkpt lat="30.821572" lon="35.6817114"><ele>1178.8</ele><time>2015-11-22T12:54:49.0000000+00:00</time></trkpt><trkpt lat="30.821523" lon="35.681613"><ele>1179.8</ele><time>2015-11-22T12:54:51.0000000+00:00</time></trkpt><trkpt lat="30.8214736" lon="35.6815356"><ele>1179.5</ele><time>2015-11-22T12:54:53.0000000+00:00</time></trkpt><trkpt lat="30.8214441" lon="35.6814899"><ele>1179.4</ele><time>2015-11-22T12:54:54.0000000+00:00</time></trkpt><trkpt lat="30.8214121" lon="35.6814504"><ele>1179.4</ele><time>2015-11-22T12:54:55.0000000+00:00</time></trkpt><trkpt lat="30.8213753" lon="35.6814171"><ele>1179.4</ele><time>2015-11-22T12:54:56.0000000+00:00</time></trkpt><trkpt lat="30.8213146" lon="35.6813651"><ele>1179.4</ele><time>2015-11-22T12:54:58.0000000+00:00</time></trkpt><trkpt lat="30.8212594" lon="35.6813054"><ele>1179.4</ele><time>2015-11-22T12:55:00.0000000+00:00</time></trkpt><trkpt lat="30.8212081" lon="35.6812324"><ele>1179.1</ele><time>2015-11-22T12:55:02.0000000+00:00</time></trkpt><trkpt lat="30.8211486" lon="35.6811622"><ele>1178.6</ele><time>2015-11-22T12:55:04.0000000+00:00</time></trkpt><trkpt lat="30.8211144" lon="35.6811265"><ele>1178.5</ele><time>2015-11-22T12:55:05.0000000+00:00</time></trkpt><trkpt lat="30.8210506" lon="35.6810681"><ele>1179.2</ele><time>2015-11-22T12:55:07.0000000+00:00</time></trkpt><trkpt lat="30.8210082" lon="35.6810395"><ele>1178.8</ele><time>2015-11-22T12:55:08.0000000+00:00</time></trkpt><trkpt lat="30.8209455" lon="35.6809696"><ele>1178.0</ele><time>2015-11-22T12:55:10.0000000+00:00</time></trkpt><trkpt lat="30.8209108" lon="35.6809307"><ele>1177.7</ele><time>2015-11-22T12:55:11.0000000+00:00</time></trkpt><trkpt lat="30.8208768" lon="35.6808918"><ele>1177.5</ele><time>2015-11-22T12:55:12.0000000+00:00</time></trkpt><trkpt lat="30.8208341" lon="35.6808578"><ele>1177.5</ele><time>2015-11-22T12:55:13.0000000+00:00</time></trkpt><trkpt lat="30.8207958" lon="35.6808216"><ele>1177.4</ele><time>2015-11-22T12:55:14.0000000+00:00</time></trkpt><trkpt lat="30.8207618" lon="35.6807797"><ele>1177.9</ele><time>2015-11-22T12:55:15.0000000+00:00</time></trkpt><trkpt lat="30.8207285" lon="35.6807355"><ele>1178.2</ele><time>2015-11-22T12:55:16.0000000+00:00</time></trkpt><trkpt lat="30.8206595" lon="35.6806582"><ele>1177.6</ele><time>2015-11-22T12:55:18.0000000+00:00</time></trkpt><trkpt lat="30.8206285" lon="35.6806202"><ele>1177.5</ele><time>2015-11-22T12:55:19.0000000+00:00</time></trkpt><trkpt lat="30.8205936" lon="35.6805722"><ele>1177.9</ele><time>2015-11-22T12:55:20.0000000+00:00</time></trkpt><trkpt lat="30.820519" lon="35.6805044"><ele>1178.3</ele><time>2015-11-22T12:55:22.0000000+00:00</time></trkpt><trkpt lat="30.8204493" lon="35.6804342"><ele>1179.1</ele><time>2015-11-22T12:55:24.0000000+00:00</time></trkpt><trkpt lat="30.8204031" lon="35.6803673"><ele>1178.6</ele><time>2015-11-22T12:55:26.0000000+00:00</time></trkpt><trkpt lat="30.8203641" lon="35.680331"><ele>1178.5</ele><time>2015-11-22T12:55:27.0000000+00:00</time></trkpt><trkpt lat="30.8203275" lon="35.6802955"><ele>1178.4</ele><time>2015-11-22T12:55:28.0000000+00:00</time></trkpt><trkpt lat="30.8202918" lon="35.6802616"><ele>1178.4</ele><time>2015-11-22T12:55:29.0000000+00:00</time></trkpt><trkpt lat="30.8202233" lon="35.6802035"><ele>1178.4</ele><time>2015-11-22T12:55:31.0000000+00:00</time></trkpt><trkpt lat="30.8201543" lon="35.6801584"><ele>1178.4</ele><time>2015-11-22T12:55:33.0000000+00:00</time></trkpt><trkpt lat="30.8200854" lon="35.6801064"><ele>1178.6</ele><time>2015-11-22T12:55:35.0000000+00:00</time></trkpt><trkpt lat="30.8200137" lon="35.6800537"><ele>1178.5</ele><time>2015-11-22T12:55:37.0000000+00:00</time></trkpt><trkpt lat="30.8199396" lon="35.6799996"><ele>1179.2</ele><time>2015-11-22T12:55:39.0000000+00:00</time></trkpt><trkpt lat="30.8199062" lon="35.6799644"><ele>1179.3</ele><time>2015-11-22T12:55:40.0000000+00:00</time></trkpt><trkpt lat="30.8198669" lon="35.6799287"><ele>1179.3</ele><time>2015-11-22T12:55:41.0000000+00:00</time></trkpt><trkpt lat="30.8198197" lon="35.679895"><ele>1178.9</ele><time>2015-11-22T12:55:42.0000000+00:00</time></trkpt><trkpt lat="30.8197529" lon="35.6798335"><ele>1177.8</ele><time>2015-11-22T12:55:44.0000000+00:00</time></trkpt><trkpt lat="30.8197147" lon="35.67979"><ele>1177.6</ele><time>2015-11-22T12:55:45.0000000+00:00</time></trkpt><trkpt lat="30.8196769" lon="35.6797615"><ele>1178.0</ele><time>2015-11-22T12:55:46.0000000+00:00</time></trkpt><trkpt lat="30.8196466" lon="35.6797212"><ele>1178.2</ele><time>2015-11-22T12:55:47.0000000+00:00</time></trkpt><trkpt lat="30.819591" lon="35.6796647"><ele>1179.1</ele><time>2015-11-22T12:55:49.0000000+00:00</time></trkpt><trkpt lat="30.8195375" lon="35.6795924"><ele>1179.1</ele><time>2015-11-22T12:55:51.0000000+00:00</time></trkpt><trkpt lat="30.8194734" lon="35.6795229"><ele>1180.1</ele><time>2015-11-22T12:55:53.0000000+00:00</time></trkpt><trkpt lat="30.8194358" lon="35.6794459"><ele>1180.1</ele><time>2015-11-22T12:55:55.0000000+00:00</time></trkpt><trkpt lat="30.8193716" lon="35.6793727"><ele>1180.3</ele><time>2015-11-22T12:55:57.0000000+00:00</time></trkpt><trkpt lat="30.8193179" lon="35.6793012"><ele>1180.4</ele><time>2015-11-22T12:55:59.0000000+00:00</time></trkpt><trkpt lat="30.8192658" lon="35.6792318"><ele>1180.4</ele><time>2015-11-22T12:56:01.0000000+00:00</time></trkpt><trkpt lat="30.8192056" lon="35.6791598"><ele>1181.1</ele><time>2015-11-22T12:56:03.0000000+00:00</time></trkpt><trkpt lat="30.8191405" lon="35.6790998"><ele>1181.3</ele><time>2015-11-22T12:56:05.0000000+00:00</time></trkpt><trkpt lat="30.8190823" lon="35.6790285"><ele>1181.4</ele><time>2015-11-22T12:56:07.0000000+00:00</time></trkpt><trkpt lat="30.8190175" lon="35.6789654"><ele>1181.9</ele><time>2015-11-22T12:56:09.0000000+00:00</time></trkpt><trkpt lat="30.8189585" lon="35.6788907"><ele>1182.3</ele><time>2015-11-22T12:56:11.0000000+00:00</time></trkpt><trkpt lat="30.8188999" lon="35.6788269"><ele>1182.4</ele><time>2015-11-22T12:56:13.0000000+00:00</time></trkpt><trkpt lat="30.8188397" lon="35.67876"><ele>1182.4</ele><time>2015-11-22T12:56:15.0000000+00:00</time></trkpt><trkpt lat="30.8187796" lon="35.6786992"><ele>1181.9</ele><time>2015-11-22T12:56:17.0000000+00:00</time></trkpt><trkpt lat="30.8187145" lon="35.6786357"><ele>1181.5</ele><time>2015-11-22T12:56:19.0000000+00:00</time></trkpt><trkpt lat="30.818646" lon="35.6785809"><ele>1180.9</ele><time>2015-11-22T12:56:21.0000000+00:00</time></trkpt><trkpt lat="30.8185792" lon="35.6785233"><ele>1181.3</ele><time>2015-11-22T12:56:23.0000000+00:00</time></trkpt><trkpt lat="30.8185237" lon="35.678459"><ele>1181.4</ele><time>2015-11-22T12:56:25.0000000+00:00</time></trkpt><trkpt lat="30.8184707" lon="35.6783999"><ele>1181.4</ele><time>2015-11-22T12:56:27.0000000+00:00</time></trkpt><trkpt lat="30.8184156" lon="35.6783412"><ele>1181.4</ele><time>2015-11-22T12:56:29.0000000+00:00</time></trkpt><trkpt lat="30.8183637" lon="35.6782783"><ele>1181.4</ele><time>2015-11-22T12:56:31.0000000+00:00</time></trkpt><trkpt lat="30.818316" lon="35.67821"><ele>1181.4</ele><time>2015-11-22T12:56:33.0000000+00:00</time></trkpt><trkpt lat="30.8182687" lon="35.6781421"><ele>1181.9</ele><time>2015-11-22T12:56:35.0000000+00:00</time></trkpt><trkpt lat="30.8182192" lon="35.6780804"><ele>1181.8</ele><time>2015-11-22T12:56:37.0000000+00:00</time></trkpt><trkpt lat="30.8181697" lon="35.678019"><ele>1182.2</ele><time>2015-11-22T12:56:39.0000000+00:00</time></trkpt><trkpt lat="30.818122" lon="35.6779628"><ele>1182.4</ele><time>2015-11-22T12:56:41.0000000+00:00</time></trkpt><trkpt lat="30.8180749" lon="35.6779128"><ele>1182.4</ele><time>2015-11-22T12:56:43.0000000+00:00</time></trkpt><trkpt lat="30.8180248" lon="35.6778747"><ele>1182.4</ele><time>2015-11-22T12:56:45.0000000+00:00</time></trkpt><trkpt lat="30.8179751" lon="35.6778435"><ele>1182.4</ele><time>2015-11-22T12:56:47.0000000+00:00</time></trkpt><trkpt lat="30.8179352" lon="35.6778184"><ele>1182.6</ele><time>2015-11-22T12:56:49.0000000+00:00</time></trkpt><trkpt lat="30.817883" lon="35.6777845"><ele>1182.8</ele><time>2015-11-22T12:56:52.0000000+00:00</time></trkpt><trkpt lat="30.8178301" lon="35.6777575"><ele>1182.9</ele><time>2015-11-22T12:56:55.0000000+00:00</time></trkpt><trkpt lat="30.8177872" lon="35.6777411"><ele>1183.3</ele><time>2015-11-22T12:56:57.0000000+00:00</time></trkpt><trkpt lat="30.8177367" lon="35.677728"><ele>1183.4</ele><time>2015-11-22T12:56:59.0000000+00:00</time></trkpt><trkpt lat="30.8176809" lon="35.6777148"><ele>1183.4</ele><time>2015-11-22T12:57:01.0000000+00:00</time></trkpt><trkpt lat="30.8176253" lon="35.6777006"><ele>1183.4</ele><time>2015-11-22T12:57:03.0000000+00:00</time></trkpt><trkpt lat="30.8175692" lon="35.6776853"><ele>1183.4</ele><time>2015-11-22T12:57:05.0000000+00:00</time></trkpt><trkpt lat="30.8175116" lon="35.677668"><ele>1183.9</ele><time>2015-11-22T12:57:07.0000000+00:00</time></trkpt><trkpt lat="30.8174533" lon="35.6776382"><ele>1184.3</ele><time>2015-11-22T12:57:09.0000000+00:00</time></trkpt><trkpt lat="30.8173938" lon="35.6775989"><ele>1184.4</ele><time>2015-11-22T12:57:11.0000000+00:00</time></trkpt><trkpt lat="30.8173248" lon="35.677555"><ele>1184.4</ele><time>2015-11-22T12:57:13.0000000+00:00</time></trkpt><trkpt lat="30.8172572" lon="35.6774992"><ele>1183.9</ele><time>2015-11-22T12:57:15.0000000+00:00</time></trkpt><trkpt lat="30.8171903" lon="35.6774355"><ele>1183.5</ele><time>2015-11-22T12:57:17.0000000+00:00</time></trkpt><trkpt lat="30.8171254" lon="35.6773647"><ele>1183.2</ele><time>2015-11-22T12:57:19.0000000+00:00</time></trkpt><trkpt lat="30.8170645" lon="35.6772906"><ele>1183.3</ele><time>2015-11-22T12:57:21.0000000+00:00</time></trkpt><trkpt lat="30.8170031" lon="35.6772186"><ele>1183.4</ele><time>2015-11-22T12:57:23.0000000+00:00</time></trkpt><trkpt lat="30.8169436" lon="35.6771449"><ele>1183.4</ele><time>2015-11-22T12:57:25.0000000+00:00</time></trkpt><trkpt lat="30.8168882" lon="35.6770688"><ele>1183.4</ele><time>2015-11-22T12:57:27.0000000+00:00</time></trkpt><trkpt lat="30.8168332" lon="35.6769882"><ele>1183.9</ele><time>2015-11-22T12:57:29.0000000+00:00</time></trkpt><trkpt lat="30.816774" lon="35.6769127"><ele>1183.5</ele><time>2015-11-22T12:57:31.0000000+00:00</time></trkpt><trkpt lat="30.8167123" lon="35.6768417"><ele>1183.4</ele><time>2015-11-22T12:57:33.0000000+00:00</time></trkpt><trkpt lat="30.8166542" lon="35.6767679"><ele>1183.4</ele><time>2015-11-22T12:57:35.0000000+00:00</time></trkpt><trkpt lat="30.8165992" lon="35.6766937"><ele>1182.7</ele><time>2015-11-22T12:57:37.0000000+00:00</time></trkpt><trkpt lat="30.8165479" lon="35.6766242"><ele>1183.0</ele><time>2015-11-22T12:57:39.0000000+00:00</time></trkpt><trkpt lat="30.8164996" lon="35.676566"><ele>1183.3</ele><time>2015-11-22T12:57:41.0000000+00:00</time></trkpt><trkpt lat="30.8164559" lon="35.6765224"><ele>1182.6</ele><time>2015-11-22T12:57:43.0000000+00:00</time></trkpt><trkpt lat="30.8164064" lon="35.6764763"><ele>1183.2</ele><time>2015-11-22T12:57:45.0000000+00:00</time></trkpt><trkpt lat="30.8163574" lon="35.6764225"><ele>1183.4</ele><time>2015-11-22T12:57:47.0000000+00:00</time></trkpt><trkpt lat="30.8163062" lon="35.6763601"><ele>1183.4</ele><time>2015-11-22T12:57:49.0000000+00:00</time></trkpt><trkpt lat="30.8162487" lon="35.676301"><ele>1182.6</ele><time>2015-11-22T12:57:51.0000000+00:00</time></trkpt><trkpt lat="30.8161869" lon="35.6762388"><ele>1182.5</ele><time>2015-11-22T12:57:53.0000000+00:00</time></trkpt><trkpt lat="30.8161209" lon="35.6761783"><ele>1182.4</ele><time>2015-11-22T12:57:55.0000000+00:00</time></trkpt><trkpt lat="30.8160557" lon="35.6761164"><ele>1182.4</ele><time>2015-11-22T12:57:57.0000000+00:00</time></trkpt><trkpt lat="30.8159933" lon="35.6760501"><ele>1183.2</ele><time>2015-11-22T12:57:59.0000000+00:00</time></trkpt><trkpt lat="30.8159308" lon="35.6759885"><ele>1183.3</ele><time>2015-11-22T12:58:01.0000000+00:00</time></trkpt><trkpt lat="30.815868" lon="35.6759376"><ele>1183.4</ele><time>2015-11-22T12:58:03.0000000+00:00</time></trkpt><trkpt lat="30.8158089" lon="35.6758961"><ele>1183.4</ele><time>2015-11-22T12:58:05.0000000+00:00</time></trkpt><trkpt lat="30.8157584" lon="35.6758637"><ele>1183.4</ele><time>2015-11-22T12:58:07.0000000+00:00</time></trkpt><trkpt lat="30.8157119" lon="35.6758249"><ele>1183.9</ele><time>2015-11-22T12:58:09.0000000+00:00</time></trkpt><trkpt lat="30.8156595" lon="35.6757894"><ele>1184.3</ele><time>2015-11-22T12:58:11.0000000+00:00</time></trkpt><trkpt lat="30.8156067" lon="35.6757497"><ele>1185.1</ele><time>2015-11-22T12:58:13.0000000+00:00</time></trkpt><trkpt lat="30.8155619" lon="35.6757013"><ele>1185.3</ele><time>2015-11-22T12:58:15.0000000+00:00</time></trkpt><trkpt lat="30.815532" lon="35.6756422"><ele>1186.1</ele><time>2015-11-22T12:58:17.0000000+00:00</time></trkpt><trkpt lat="30.8155081" lon="35.6755897"><ele>1186.3</ele><time>2015-11-22T12:58:19.0000000+00:00</time></trkpt><trkpt lat="30.8154752" lon="35.6755319"><ele>1186.4</ele><time>2015-11-22T12:58:22.0000000+00:00</time></trkpt><trkpt lat="30.8154503" lon="35.6754804"><ele>1185.1</ele><time>2015-11-22T12:58:53.0000000+00:00</time></trkpt><trkpt lat="30.8153966" lon="35.6754394"><ele>1185.4</ele><time>2015-11-22T12:58:56.0000000+00:00</time></trkpt><trkpt lat="30.8153432" lon="35.6754026"><ele>1186.1</ele><time>2015-11-22T12:58:58.0000000+00:00</time></trkpt><trkpt lat="30.8152882" lon="35.6753621"><ele>1186.3</ele><time>2015-11-22T12:59:00.0000000+00:00</time></trkpt><trkpt lat="30.8152307" lon="35.6753223"><ele>1187.1</ele><time>2015-11-22T12:59:02.0000000+00:00</time></trkpt><trkpt lat="30.8151732" lon="35.675285"><ele>1186.6</ele><time>2015-11-22T12:59:04.0000000+00:00</time></trkpt><trkpt lat="30.8151116" lon="35.6752544"><ele>1187.2</ele><time>2015-11-22T12:59:06.0000000+00:00</time></trkpt><trkpt lat="30.8150444" lon="35.6752308"><ele>1187.8</ele><time>2015-11-22T12:59:08.0000000+00:00</time></trkpt><trkpt lat="30.8149792" lon="35.6752122"><ele>1189.0</ele><time>2015-11-22T12:59:10.0000000+00:00</time></trkpt><trkpt lat="30.8149156" lon="35.6752017"><ele>1189.3</ele><time>2015-11-22T12:59:12.0000000+00:00</time></trkpt><trkpt lat="30.8148569" lon="35.6751894"><ele>1189.4</ele><time>2015-11-22T12:59:14.0000000+00:00</time></trkpt><trkpt lat="30.8148042" lon="35.6751668"><ele>1189.1</ele><time>2015-11-22T12:59:16.0000000+00:00</time></trkpt><trkpt lat="30.8147503" lon="35.675145"><ele>1189.3</ele><time>2015-11-22T12:59:18.0000000+00:00</time></trkpt><trkpt lat="30.8146952" lon="35.6751209"><ele>1188.9</ele><time>2015-11-22T12:59:20.0000000+00:00</time></trkpt><trkpt lat="30.8146369" lon="35.6750932"><ele>1188.5</ele><time>2015-11-22T12:59:22.0000000+00:00</time></trkpt><trkpt lat="30.8145776" lon="35.6750611"><ele>1187.2</ele><time>2015-11-22T12:59:24.0000000+00:00</time></trkpt><trkpt lat="30.8145152" lon="35.675031"><ele>1186.6</ele><time>2015-11-22T12:59:26.0000000+00:00</time></trkpt><trkpt lat="30.8144472" lon="35.6750027"><ele>1185.7</ele><time>2015-11-22T12:59:28.0000000+00:00</time></trkpt><trkpt lat="30.8143774" lon="35.6749782"><ele>1186.2</ele><time>2015-11-22T12:59:30.0000000+00:00</time></trkpt><trkpt lat="30.8143082" lon="35.6749552"><ele>1186.9</ele><time>2015-11-22T12:59:32.0000000+00:00</time></trkpt><trkpt lat="30.8142393" lon="35.6749294"><ele>1187.3</ele><time>2015-11-22T12:59:34.0000000+00:00</time></trkpt><trkpt lat="30.8141695" lon="35.6749066"><ele>1187.6</ele><time>2015-11-22T12:59:36.0000000+00:00</time></trkpt><trkpt lat="30.8140988" lon="35.6748858"><ele>1187.5</ele><time>2015-11-22T12:59:38.0000000+00:00</time></trkpt><trkpt lat="30.8140262" lon="35.6748707"><ele>1187.2</ele><time>2015-11-22T12:59:40.0000000+00:00</time></trkpt><trkpt lat="30.8139543" lon="35.6748625"><ele>1188.1</ele><time>2015-11-22T12:59:42.0000000+00:00</time></trkpt><trkpt lat="30.8138813" lon="35.6748554"><ele>1187.6</ele><time>2015-11-22T12:59:44.0000000+00:00</time></trkpt><trkpt lat="30.8138076" lon="35.6748488"><ele>1187.4</ele><time>2015-11-22T12:59:46.0000000+00:00</time></trkpt><trkpt lat="30.813734" lon="35.6748529"><ele>1187.4</ele><time>2015-11-22T12:59:48.0000000+00:00</time></trkpt><trkpt lat="30.8136534" lon="35.6748667"><ele>1186.2</ele><time>2015-11-22T12:59:50.0000000+00:00</time></trkpt><trkpt lat="30.8135756" lon="35.6748836"><ele>1186.3</ele><time>2015-11-22T12:59:52.0000000+00:00</time></trkpt><trkpt lat="30.8135037" lon="35.6749063"><ele>1185.9</ele><time>2015-11-22T12:59:54.0000000+00:00</time></trkpt><trkpt lat="30.8134372" lon="35.6749276"><ele>1185.5</ele><time>2015-11-22T12:59:56.0000000+00:00</time></trkpt><trkpt lat="30.813366" lon="35.6749467"><ele>1184.9</ele><time>2015-11-22T12:59:58.0000000+00:00</time></trkpt><trkpt lat="30.8133002" lon="35.6749626"><ele>1184.5</ele><time>2015-11-22T13:00:00.0000000+00:00</time></trkpt><trkpt lat="30.8132374" lon="35.6749726"><ele>1184.4</ele><time>2015-11-22T13:00:02.0000000+00:00</time></trkpt><trkpt lat="30.8131724" lon="35.6749838"><ele>1184.9</ele><time>2015-11-22T13:00:04.0000000+00:00</time></trkpt><trkpt lat="30.8131062" lon="35.674991"><ele>1185.3</ele><time>2015-11-22T13:00:06.0000000+00:00</time></trkpt><trkpt lat="30.8130393" lon="35.6749968"><ele>1185.9</ele><time>2015-11-22T13:00:08.0000000+00:00</time></trkpt><trkpt lat="30.8129739" lon="35.6750037"><ele>1186.3</ele><time>2015-11-22T13:00:10.0000000+00:00</time></trkpt><trkpt lat="30.8129079" lon="35.6750137"><ele>1187.1</ele><time>2015-11-22T13:00:12.0000000+00:00</time></trkpt><trkpt lat="30.8128435" lon="35.6750227"><ele>1187.8</ele><time>2015-11-22T13:00:14.0000000+00:00</time></trkpt><trkpt lat="30.8127776" lon="35.6750334"><ele>1188.3</ele><time>2015-11-22T13:00:16.0000000+00:00</time></trkpt><trkpt lat="30.8127093" lon="35.6750524"><ele>1187.1</ele><time>2015-11-22T13:00:18.0000000+00:00</time></trkpt><trkpt lat="30.8126447" lon="35.6750704"><ele>1187.1</ele><time>2015-11-22T13:00:20.0000000+00:00</time></trkpt><trkpt lat="30.812583" lon="35.6750845"><ele>1187.3</ele><time>2015-11-22T13:00:22.0000000+00:00</time></trkpt><trkpt lat="30.8125268" lon="35.6750945"><ele>1188.1</ele><time>2015-11-22T13:00:24.0000000+00:00</time></trkpt><trkpt lat="30.8124777" lon="35.6751154"><ele>1188.3</ele><time>2015-11-22T13:00:26.0000000+00:00</time></trkpt><trkpt lat="30.8124295" lon="35.6751393"><ele>1188.4</ele><time>2015-11-22T13:00:28.0000000+00:00</time></trkpt><trkpt lat="30.8123781" lon="35.675144"><ele>1188.9</ele><time>2015-11-22T13:00:30.0000000+00:00</time></trkpt><trkpt lat="30.8123284" lon="35.6751221"><ele>1188.5</ele><time>2015-11-22T13:00:32.0000000+00:00</time></trkpt><trkpt lat="30.8122829" lon="35.6750694"><ele>1187.7</ele><time>2015-11-22T13:00:34.0000000+00:00</time></trkpt><trkpt lat="30.8122433" lon="35.6749935"><ele>1188.2</ele><time>2015-11-22T13:00:36.0000000+00:00</time></trkpt><trkpt lat="30.8121987" lon="35.6749248"><ele>1188.4</ele><time>2015-11-22T13:00:38.0000000+00:00</time></trkpt><trkpt lat="30.8121487" lon="35.6748935"><ele>1188.4</ele><time>2015-11-22T13:00:40.0000000+00:00</time></trkpt><trkpt lat="30.8120879" lon="35.6749042"><ele>1187.9</ele><time>2015-11-22T13:00:43.0000000+00:00</time></trkpt><trkpt lat="30.8120336" lon="35.6749305"><ele>1187.7</ele><time>2015-11-22T13:00:46.0000000+00:00</time></trkpt><trkpt lat="30.8119738" lon="35.6749533"><ele>1186.7</ele><time>2015-11-22T13:00:49.0000000+00:00</time></trkpt><trkpt lat="30.8119141" lon="35.6749778"><ele>1186.9</ele><time>2015-11-22T13:00:52.0000000+00:00</time></trkpt><trkpt lat="30.8118564" lon="35.6750084"><ele>1187.3</ele><time>2015-11-22T13:00:55.0000000+00:00</time></trkpt><trkpt lat="30.8118131" lon="35.6750293"><ele>1187.4</ele><time>2015-11-22T13:00:57.0000000+00:00</time></trkpt><trkpt lat="30.8117711" lon="35.6750479"><ele>1187.4</ele><time>2015-11-22T13:00:59.0000000+00:00</time></trkpt><trkpt lat="30.8117091" lon="35.6750658"><ele>1188.3</ele><time>2015-11-22T13:01:02.0000000+00:00</time></trkpt><trkpt lat="30.8116532" lon="35.6750995"><ele>1188.4</ele><time>2015-11-22T13:01:05.0000000+00:00</time></trkpt><trkpt lat="30.8115977" lon="35.6751322"><ele>1188.6</ele><time>2015-11-22T13:01:08.0000000+00:00</time></trkpt><trkpt lat="30.8115382" lon="35.6751703"><ele>1189.2</ele><time>2015-11-22T13:01:11.0000000+00:00</time></trkpt><trkpt lat="30.8114944" lon="35.6751918"><ele>1189.8</ele><time>2015-11-22T13:01:13.0000000+00:00</time></trkpt><trkpt lat="30.8114501" lon="35.6752113"><ele>1190.3</ele><time>2015-11-22T13:01:15.0000000+00:00</time></trkpt><trkpt lat="30.8114049" lon="35.6752274"><ele>1190.4</ele><time>2015-11-22T13:01:17.0000000+00:00</time></trkpt><trkpt lat="30.8113604" lon="35.6752448"><ele>1191.6</ele><time>2015-11-22T13:01:19.0000000+00:00</time></trkpt><trkpt lat="30.8113186" lon="35.6752708"><ele>1191.5</ele><time>2015-11-22T13:01:21.0000000+00:00</time></trkpt><trkpt lat="30.8112732" lon="35.6752928"><ele>1190.7</ele><time>2015-11-22T13:01:23.0000000+00:00</time></trkpt><trkpt lat="30.8112258" lon="35.6753141"><ele>1191.0</ele><time>2015-11-22T13:01:25.0000000+00:00</time></trkpt><trkpt lat="30.8111764" lon="35.675334"><ele>1191.3</ele><time>2015-11-22T13:01:27.0000000+00:00</time></trkpt><trkpt lat="30.8111306" lon="35.675359"><ele>1192.1</ele><time>2015-11-22T13:01:29.0000000+00:00</time></trkpt><trkpt lat="30.8110854" lon="35.675389"><ele>1192.3</ele><time>2015-11-22T13:01:31.0000000+00:00</time></trkpt><trkpt lat="30.8110429" lon="35.6754169"><ele>1193.1</ele><time>2015-11-22T13:01:33.0000000+00:00</time></trkpt><trkpt lat="30.8110023" lon="35.6754456"><ele>1193.3</ele><time>2015-11-22T13:01:35.0000000+00:00</time></trkpt><trkpt lat="30.8109501" lon="35.6754627"><ele>1192.5</ele><time>2015-11-22T13:01:38.0000000+00:00</time></trkpt><trkpt lat="30.8109017" lon="35.6754266"><ele>1191.7</ele><time>2015-11-22T13:01:42.0000000+00:00</time></trkpt><trkpt lat="30.8108591" lon="35.6753913"><ele>1191.8</ele><time>2015-11-22T13:01:45.0000000+00:00</time></trkpt><trkpt lat="30.810824" lon="35.6753497"><ele>1191.8</ele><time>2015-11-22T13:01:48.0000000+00:00</time></trkpt><trkpt lat="30.8108101" lon="35.6752864"><ele>1190.8</ele><time>2015-11-22T13:01:51.0000000+00:00</time></trkpt><trkpt lat="30.8107982" lon="35.6752232"><ele>1192.1</ele><time>2015-11-22T13:01:54.0000000+00:00</time></trkpt><trkpt lat="30.8108039" lon="35.6751633"><ele>1192.9</ele><time>2015-11-22T13:01:57.0000000+00:00</time></trkpt><trkpt lat="30.8108255" lon="35.6751088"><ele>1192.6</ele><time>2015-11-22T13:02:00.0000000+00:00</time></trkpt><trkpt lat="30.810869" lon="35.6750671"><ele>1192.9</ele><time>2015-11-22T13:02:03.0000000+00:00</time></trkpt><trkpt lat="30.8109188" lon="35.6750207"><ele>1193.5</ele><time>2015-11-22T13:02:06.0000000+00:00</time></trkpt><trkpt lat="30.8109596" lon="35.6749709"><ele>1194.7</ele><time>2015-11-22T13:02:08.0000000+00:00</time></trkpt><trkpt lat="30.8110043" lon="35.6749111"><ele>1194.0</ele><time>2015-11-22T13:02:10.0000000+00:00</time></trkpt><trkpt lat="30.8110493" lon="35.6748414"><ele>1194.0</ele><time>2015-11-22T13:02:12.0000000+00:00</time></trkpt><trkpt lat="30.811099" lon="35.674765"><ele>1193.8</ele><time>2015-11-22T13:02:14.0000000+00:00</time></trkpt><trkpt lat="30.8111293" lon="35.6747241"><ele>1193.6</ele><time>2015-11-22T13:02:15.0000000+00:00</time></trkpt><trkpt lat="30.811185" lon="35.6746588"><ele>1194.0</ele><time>2015-11-22T13:02:16.0000000+00:00</time></trkpt><trkpt lat="30.8112182" lon="35.6746128"><ele>1194.2</ele><time>2015-11-22T13:02:17.0000000+00:00</time></trkpt><trkpt lat="30.8112543" lon="35.6745608"><ele>1194.3</ele><time>2015-11-22T13:02:18.0000000+00:00</time></trkpt><trkpt lat="30.8112883" lon="35.6745071"><ele>1194.3</ele><time>2015-11-22T13:02:19.0000000+00:00</time></trkpt><trkpt lat="30.811328" lon="35.6744464"><ele>1194.4</ele><time>2015-11-22T13:02:20.0000000+00:00</time></trkpt><trkpt lat="30.8113713" lon="35.6743914"><ele>1194.9</ele><time>2015-11-22T13:02:21.0000000+00:00</time></trkpt><trkpt lat="30.8114177" lon="35.6743283"><ele>1195.1</ele><time>2015-11-22T13:02:22.0000000+00:00</time></trkpt><trkpt lat="30.8114674" lon="35.6742597"><ele>1194.8</ele><time>2015-11-22T13:02:23.0000000+00:00</time></trkpt><trkpt lat="30.8115122" lon="35.6742003"><ele>1194.6</ele><time>2015-11-22T13:02:24.0000000+00:00</time></trkpt><trkpt lat="30.8115588" lon="35.6741388"><ele>1194.0</ele><time>2015-11-22T13:02:25.0000000+00:00</time></trkpt><trkpt lat="30.8116071" lon="35.6740737"><ele>1193.2</ele><time>2015-11-22T13:02:26.0000000+00:00</time></trkpt><trkpt lat="30.8116571" lon="35.6740228"><ele>1192.3</ele><time>2015-11-22T13:02:27.0000000+00:00</time></trkpt><trkpt lat="30.8117097" lon="35.6739632"><ele>1192.3</ele><time>2015-11-22T13:02:28.0000000+00:00</time></trkpt><trkpt lat="30.8117601" lon="35.6738916"><ele>1192.4</ele><time>2015-11-22T13:02:29.0000000+00:00</time></trkpt><trkpt lat="30.8118083" lon="35.6738257"><ele>1192.9</ele><time>2015-11-22T13:02:30.0000000+00:00</time></trkpt><trkpt lat="30.8118539" lon="35.6737744"><ele>1192.6</ele><time>2015-11-22T13:02:31.0000000+00:00</time></trkpt><trkpt lat="30.8118998" lon="35.673715"><ele>1192.5</ele><time>2015-11-22T13:02:32.0000000+00:00</time></trkpt><trkpt lat="30.8119426" lon="35.6736572"><ele>1193.5</ele><time>2015-11-22T13:02:33.0000000+00:00</time></trkpt><trkpt lat="30.8119852" lon="35.673608"><ele>1194.9</ele><time>2015-11-22T13:02:34.0000000+00:00</time></trkpt><trkpt lat="30.8120264" lon="35.6735694"><ele>1194.7</ele><time>2015-11-22T13:02:35.0000000+00:00</time></trkpt><trkpt lat="30.8120592" lon="35.6735252"><ele>1193.0</ele><time>2015-11-22T13:02:36.0000000+00:00</time></trkpt><trkpt lat="30.8121018" lon="35.6734547"><ele>1193.1</ele><time>2015-11-22T13:02:38.0000000+00:00</time></trkpt><trkpt lat="30.8121272" lon="35.6733977"><ele>1193.8</ele><time>2015-11-22T13:02:40.0000000+00:00</time></trkpt><trkpt lat="30.8121518" lon="35.6733533"><ele>1192.3</ele><time>2015-11-22T13:02:42.0000000+00:00</time></trkpt><trkpt lat="30.812179" lon="35.6733081"><ele>1192.1</ele><time>2015-11-22T13:02:45.0000000+00:00</time></trkpt><trkpt lat="30.8122076" lon="35.6732627"><ele>1191.1</ele><time>2015-11-22T13:02:48.0000000+00:00</time></trkpt><trkpt lat="30.812234" lon="35.6732154"><ele>1190.4</ele><time>2015-11-22T13:02:51.0000000+00:00</time></trkpt><trkpt lat="30.8122545" lon="35.6731681"><ele>1191.5</ele><time>2015-11-22T13:02:54.0000000+00:00</time></trkpt><trkpt lat="30.8122845" lon="35.6731072"><ele>1192.7</ele><time>2015-11-22T13:02:58.0000000+00:00</time></trkpt><trkpt lat="30.8123091" lon="35.6730596"><ele>1194.2</ele><time>2015-11-22T13:03:01.0000000+00:00</time></trkpt><trkpt lat="30.8123296" lon="35.6729988"><ele>1192.8</ele><time>2015-11-22T13:03:05.0000000+00:00</time></trkpt><trkpt lat="30.8123422" lon="35.6729348"><ele>1194.0</ele><time>2015-11-22T13:03:09.0000000+00:00</time></trkpt><trkpt lat="30.8123487" lon="35.6728827"><ele>1195.6</ele><time>2015-11-22T13:03:12.0000000+00:00</time></trkpt><trkpt lat="30.8123603" lon="35.672828"><ele>1196.2</ele><time>2015-11-22T13:03:15.0000000+00:00</time></trkpt><trkpt lat="30.8123756" lon="35.6727744"><ele>1196.7</ele><time>2015-11-22T13:03:18.0000000+00:00</time></trkpt><trkpt lat="30.8123908" lon="35.6727204"><ele>1197.4</ele><time>2015-11-22T13:03:21.0000000+00:00</time></trkpt><trkpt lat="30.8124029" lon="35.6726636"><ele>1197.7</ele><time>2015-11-22T13:03:24.0000000+00:00</time></trkpt><trkpt lat="30.8124098" lon="35.6726066"><ele>1200.2</ele><time>2015-11-22T13:03:27.0000000+00:00</time></trkpt><trkpt lat="30.8124106" lon="35.6725484"><ele>1200.6</ele><time>2015-11-22T13:03:30.0000000+00:00</time></trkpt><trkpt lat="30.8124062" lon="35.6724874"><ele>1200.4</ele><time>2015-11-22T13:03:33.0000000+00:00</time></trkpt><trkpt lat="30.8123955" lon="35.6724266"><ele>1200.9</ele><time>2015-11-22T13:03:36.0000000+00:00</time></trkpt><trkpt lat="30.8123754" lon="35.6723682"><ele>1200.2</ele><time>2015-11-22T13:03:39.0000000+00:00</time></trkpt><trkpt lat="30.8123579" lon="35.6723089"><ele>1200.6</ele><time>2015-11-22T13:03:42.0000000+00:00</time></trkpt><trkpt lat="30.8123359" lon="35.6722601"><ele>1199.4</ele><time>2015-11-22T13:03:45.0000000+00:00</time></trkpt><trkpt lat="30.8123088" lon="35.6722103"><ele>1200.2</ele><time>2015-11-22T13:03:48.0000000+00:00</time></trkpt><trkpt lat="30.8122871" lon="35.6721567"><ele>1200.1</ele><time>2015-11-22T13:03:51.0000000+00:00</time></trkpt><trkpt lat="30.812261" lon="35.6721012"><ele>1200.4</ele><time>2015-11-22T13:03:54.0000000+00:00</time></trkpt><trkpt lat="30.8122261" lon="35.6720546"><ele>1198.5</ele><time>2015-11-22T13:03:57.0000000+00:00</time></trkpt><trkpt lat="30.8121985" lon="35.6720036"><ele>1198.2</ele><time>2015-11-22T13:04:00.0000000+00:00</time></trkpt><trkpt lat="30.8121741" lon="35.6719482"><ele>1198.5</ele><time>2015-11-22T13:04:03.0000000+00:00</time></trkpt><trkpt lat="30.8121444" lon="35.6718928"><ele>1200.9</ele><time>2015-11-22T13:04:06.0000000+00:00</time></trkpt><trkpt lat="30.8121119" lon="35.6718459"><ele>1200.6</ele><time>2015-11-22T13:04:09.0000000+00:00</time></trkpt><trkpt lat="30.8120778" lon="35.6717985"><ele>1201.0</ele><time>2015-11-22T13:04:12.0000000+00:00</time></trkpt><trkpt lat="30.812047" lon="35.6717485"><ele>1200.9</ele><time>2015-11-22T13:04:15.0000000+00:00</time></trkpt><trkpt lat="30.8120155" lon="35.6717059"><ele>1201.0</ele><time>2015-11-22T13:04:18.0000000+00:00</time></trkpt><trkpt lat="30.8119876" lon="35.6716646"><ele>1199.0</ele><time>2015-11-22T13:04:21.0000000+00:00</time></trkpt><trkpt lat="30.811965" lon="35.6716165"><ele>1201.3</ele><time>2015-11-22T13:04:24.0000000+00:00</time></trkpt><trkpt lat="30.811938" lon="35.6715648"><ele>1202.6</ele><time>2015-11-22T13:04:27.0000000+00:00</time></trkpt><trkpt lat="30.8119045" lon="35.6715276"><ele>1204.4</ele><time>2015-11-22T13:04:30.0000000+00:00</time></trkpt><trkpt lat="30.8118691" lon="35.6714941"><ele>1204.7</ele><time>2015-11-22T13:04:33.0000000+00:00</time></trkpt><trkpt lat="30.8118418" lon="35.6714356"><ele>1213.4</ele><time>2015-11-22T13:04:37.0000000+00:00</time></trkpt><trkpt lat="30.8118138" lon="35.6713772"><ele>1219.5</ele><time>2015-11-22T13:04:41.0000000+00:00</time></trkpt><trkpt lat="30.8117852" lon="35.6713216"><ele>1220.8</ele><time>2015-11-22T13:04:45.0000000+00:00</time></trkpt><trkpt lat="30.8117597" lon="35.6712744"><ele>1222.2</ele><time>2015-11-22T13:04:48.0000000+00:00</time></trkpt><trkpt lat="30.8117296" lon="35.6712308"><ele>1221.9</ele><time>2015-11-22T13:04:51.0000000+00:00</time></trkpt><trkpt lat="30.8116878" lon="35.6711982"><ele>1222.3</ele><time>2015-11-22T13:04:54.0000000+00:00</time></trkpt><trkpt lat="30.8116534" lon="35.6711585"><ele>1222.4</ele><time>2015-11-22T13:04:57.0000000+00:00</time></trkpt><trkpt lat="30.811609" lon="35.6711452"><ele>1221.1</ele><time>2015-11-22T13:05:00.0000000+00:00</time></trkpt><trkpt lat="30.8115618" lon="35.6711574"><ele>1220.5</ele><time>2015-11-22T13:05:03.0000000+00:00</time></trkpt><trkpt lat="30.8115179" lon="35.6711718"><ele>1219.0</ele><time>2015-11-22T13:05:06.0000000+00:00</time></trkpt><trkpt lat="30.8114707" lon="35.671187"><ele>1218.5</ele><time>2015-11-22T13:05:09.0000000+00:00</time></trkpt><trkpt lat="30.8114363" lon="35.6712226"><ele>1217.9</ele><time>2015-11-22T13:05:11.0000000+00:00</time></trkpt><trkpt lat="30.8114221" lon="35.6712748"><ele>1215.4</ele><time>2015-11-22T13:06:00.0000000+00:00</time></trkpt><trkpt lat="30.8113982" lon="35.6713424"><ele>1218.8</ele><time>2015-11-22T13:16:18.0000000+00:00</time></trkpt><trkpt lat="30.8113548" lon="35.6714021"><ele>1218.5</ele><time>2015-11-22T13:16:20.0000000+00:00</time></trkpt><trkpt lat="30.8113011" lon="35.6714783"><ele>1217.9</ele><time>2015-11-22T13:16:22.0000000+00:00</time></trkpt><trkpt lat="30.8112458" lon="35.6715511"><ele>1217.7</ele><time>2015-11-22T13:16:23.0000000+00:00</time></trkpt><trkpt lat="30.811201" lon="35.6716069"><ele>1217.5</ele><time>2015-11-22T13:16:24.0000000+00:00</time></trkpt><trkpt lat="30.8111587" lon="35.6716649"><ele>1217.5</ele><time>2015-11-22T13:16:25.0000000+00:00</time></trkpt><trkpt lat="30.8111164" lon="35.6717217"><ele>1217.4</ele><time>2015-11-22T13:16:26.0000000+00:00</time></trkpt><trkpt lat="30.8110837" lon="35.671785"><ele>1217.4</ele><time>2015-11-22T13:16:27.0000000+00:00</time></trkpt><trkpt lat="30.8110406" lon="35.6718436"><ele>1216.9</ele><time>2015-11-22T13:16:28.0000000+00:00</time></trkpt><trkpt lat="30.8109879" lon="35.6719077"><ele>1216.7</ele><time>2015-11-22T13:16:29.0000000+00:00</time></trkpt><trkpt lat="30.8109417" lon="35.671973"><ele>1217.0</ele><time>2015-11-22T13:16:30.0000000+00:00</time></trkpt><trkpt lat="30.8108893" lon="35.6720373"><ele>1217.2</ele><time>2015-11-22T13:16:31.0000000+00:00</time></trkpt><trkpt lat="30.8108425" lon="35.672105"><ele>1217.3</ele><time>2015-11-22T13:16:32.0000000+00:00</time></trkpt><trkpt lat="30.8107913" lon="35.672172"><ele>1217.4</ele><time>2015-11-22T13:16:33.0000000+00:00</time></trkpt><trkpt lat="30.810737" lon="35.6722446"><ele>1217.4</ele><time>2015-11-22T13:16:34.0000000+00:00</time></trkpt><trkpt lat="30.8106878" lon="35.6723127"><ele>1217.9</ele><time>2015-11-22T13:16:35.0000000+00:00</time></trkpt><trkpt lat="30.810641" lon="35.6723819"><ele>1217.6</ele><time>2015-11-22T13:16:36.0000000+00:00</time></trkpt><trkpt lat="30.8105954" lon="35.6724474"><ele>1218.0</ele><time>2015-11-22T13:16:37.0000000+00:00</time></trkpt><trkpt lat="30.8105565" lon="35.672517"><ele>1217.7</ele><time>2015-11-22T13:16:38.0000000+00:00</time></trkpt><trkpt lat="30.8105195" lon="35.6725818"><ele>1217.6</ele><time>2015-11-22T13:16:39.0000000+00:00</time></trkpt><trkpt lat="30.8105" lon="35.6726594"><ele>1216.5</ele><time>2015-11-22T13:16:40.0000000+00:00</time></trkpt><trkpt lat="30.8104591" lon="35.6727188"><ele>1215.9</ele><time>2015-11-22T13:16:41.0000000+00:00</time></trkpt><trkpt lat="30.8104156" lon="35.6727763"><ele>1215.7</ele><time>2015-11-22T13:16:42.0000000+00:00</time></trkpt><trkpt lat="30.8103678" lon="35.6728295"><ele>1215.5</ele><time>2015-11-22T13:16:43.0000000+00:00</time></trkpt><trkpt lat="30.8103256" lon="35.6728942"><ele>1215.5</ele><time>2015-11-22T13:16:44.0000000+00:00</time></trkpt><trkpt lat="30.8102763" lon="35.6729607"><ele>1215.4</ele><time>2015-11-22T13:16:45.0000000+00:00</time></trkpt><trkpt lat="30.8102275" lon="35.6730318"><ele>1215.4</ele><time>2015-11-22T13:16:46.0000000+00:00</time></trkpt><trkpt lat="30.81018" lon="35.6731072"><ele>1215.4</ele><time>2015-11-22T13:16:47.0000000+00:00</time></trkpt><trkpt lat="30.8101374" lon="35.6731805"><ele>1215.4</ele><time>2015-11-22T13:16:48.0000000+00:00</time></trkpt><trkpt lat="30.8100906" lon="35.673256"><ele>1215.4</ele><time>2015-11-22T13:16:49.0000000+00:00</time></trkpt><trkpt lat="30.8100445" lon="35.6733297"><ele>1215.4</ele><time>2015-11-22T13:16:50.0000000+00:00</time></trkpt><trkpt lat="30.8100016" lon="35.6734029"><ele>1215.4</ele><time>2015-11-22T13:16:51.0000000+00:00</time></trkpt><trkpt lat="30.8099526" lon="35.6734758"><ele>1215.4</ele><time>2015-11-22T13:16:52.0000000+00:00</time></trkpt><trkpt lat="30.8099077" lon="35.6735332"><ele>1215.4</ele><time>2015-11-22T13:16:53.0000000+00:00</time></trkpt><trkpt lat="30.8098667" lon="35.6735984"><ele>1215.4</ele><time>2015-11-22T13:16:54.0000000+00:00</time></trkpt><trkpt lat="30.8098209" lon="35.6736623"><ele>1215.9</ele><time>2015-11-22T13:16:55.0000000+00:00</time></trkpt><trkpt lat="30.8097731" lon="35.6737192"><ele>1216.1</ele><time>2015-11-22T13:16:56.0000000+00:00</time></trkpt><trkpt lat="30.8097372" lon="35.6737807"><ele>1216.8</ele><time>2015-11-22T13:16:57.0000000+00:00</time></trkpt><trkpt lat="30.8096932" lon="35.6738428"><ele>1217.1</ele><time>2015-11-22T13:16:58.0000000+00:00</time></trkpt><trkpt lat="30.8096584" lon="35.6739065"><ele>1217.7</ele><time>2015-11-22T13:16:59.0000000+00:00</time></trkpt><trkpt lat="30.8096184" lon="35.6739639"><ele>1218.6</ele><time>2015-11-22T13:17:00.0000000+00:00</time></trkpt><trkpt lat="30.8095817" lon="35.6740196"><ele>1218.5</ele><time>2015-11-22T13:17:01.0000000+00:00</time></trkpt><trkpt lat="30.8095355" lon="35.6740783"><ele>1217.9</ele><time>2015-11-22T13:17:02.0000000+00:00</time></trkpt><trkpt lat="30.8094998" lon="35.6741264"><ele>1217.7</ele><time>2015-11-22T13:17:03.0000000+00:00</time></trkpt><trkpt lat="30.8094731" lon="35.6741804"><ele>1218.0</ele><time>2015-11-22T13:17:04.0000000+00:00</time></trkpt><trkpt lat="30.8094475" lon="35.6742248"><ele>1218.2</ele><time>2015-11-22T13:17:05.0000000+00:00</time></trkpt><trkpt lat="30.809412" lon="35.674273"><ele>1218.3</ele><time>2015-11-22T13:17:06.0000000+00:00</time></trkpt><trkpt lat="30.8093744" lon="35.6743281"><ele>1218.4</ele><time>2015-11-22T13:17:07.0000000+00:00</time></trkpt><trkpt lat="30.8093357" lon="35.6743834"><ele>1217.9</ele><time>2015-11-22T13:17:08.0000000+00:00</time></trkpt><trkpt lat="30.809301" lon="35.6744294"><ele>1218.1</ele><time>2015-11-22T13:17:09.0000000+00:00</time></trkpt><trkpt lat="30.8092705" lon="35.674471"><ele>1218.8</ele><time>2015-11-22T13:17:10.0000000+00:00</time></trkpt><trkpt lat="30.8092338" lon="35.6745199"><ele>1218.6</ele><time>2015-11-22T13:17:11.0000000+00:00</time></trkpt><trkpt lat="30.8092015" lon="35.6745665"><ele>1218.5</ele><time>2015-11-22T13:17:12.0000000+00:00</time></trkpt><trkpt lat="30.8091685" lon="35.6746188"><ele>1217.9</ele><time>2015-11-22T13:17:13.0000000+00:00</time></trkpt><trkpt lat="30.8091354" lon="35.6746695"><ele>1217.7</ele><time>2015-11-22T13:17:14.0000000+00:00</time></trkpt><trkpt lat="30.8091001" lon="35.6747122"><ele>1217.5</ele><time>2015-11-22T13:17:15.0000000+00:00</time></trkpt><trkpt lat="30.8090717" lon="35.674757"><ele>1217.0</ele><time>2015-11-22T13:17:16.0000000+00:00</time></trkpt><trkpt lat="30.8090366" lon="35.674807"><ele>1216.7</ele><time>2015-11-22T13:17:17.0000000+00:00</time></trkpt><trkpt lat="30.8089963" lon="35.6748548"><ele>1216.5</ele><time>2015-11-22T13:17:18.0000000+00:00</time></trkpt><trkpt lat="30.8089578" lon="35.6748962"><ele>1217.0</ele><time>2015-11-22T13:17:19.0000000+00:00</time></trkpt><trkpt lat="30.808924" lon="35.6749316"><ele>1217.2</ele><time>2015-11-22T13:17:20.0000000+00:00</time></trkpt><trkpt lat="30.8088934" lon="35.6749762"><ele>1216.8</ele><time>2015-11-22T13:17:21.0000000+00:00</time></trkpt><trkpt lat="30.8088578" lon="35.6750207"><ele>1216.6</ele><time>2015-11-22T13:17:22.0000000+00:00</time></trkpt><trkpt lat="30.808818" lon="35.6750626"><ele>1216.5</ele><time>2015-11-22T13:17:23.0000000+00:00</time></trkpt><trkpt lat="30.8087787" lon="35.6751024"><ele>1216.4</ele><time>2015-11-22T13:17:24.0000000+00:00</time></trkpt><trkpt lat="30.8087432" lon="35.6751377"><ele>1216.4</ele><time>2015-11-22T13:17:25.0000000+00:00</time></trkpt><trkpt lat="30.808701" lon="35.6751887"><ele>1215.9</ele><time>2015-11-22T13:17:26.0000000+00:00</time></trkpt><trkpt lat="30.8086653" lon="35.6752365"><ele>1215.7</ele><time>2015-11-22T13:17:27.0000000+00:00</time></trkpt><trkpt lat="30.8086229" lon="35.6752827"><ele>1216.0</ele><time>2015-11-22T13:17:28.0000000+00:00</time></trkpt><trkpt lat="30.8085737" lon="35.6753342"><ele>1216.2</ele><time>2015-11-22T13:17:29.0000000+00:00</time></trkpt><trkpt lat="30.8085327" lon="35.6753825"><ele>1216.3</ele><time>2015-11-22T13:17:30.0000000+00:00</time></trkpt><trkpt lat="30.8085002" lon="35.6754277"><ele>1216.4</ele><time>2015-11-22T13:17:31.0000000+00:00</time></trkpt><trkpt lat="30.8084671" lon="35.6754709"><ele>1216.4</ele><time>2015-11-22T13:17:32.0000000+00:00</time></trkpt><trkpt lat="30.8084247" lon="35.6755063"><ele>1216.9</ele><time>2015-11-22T13:17:33.0000000+00:00</time></trkpt><trkpt lat="30.8083702" lon="35.6755542"><ele>1217.1</ele><time>2015-11-22T13:17:34.0000000+00:00</time></trkpt><trkpt lat="30.8083318" lon="35.6755955"><ele>1216.8</ele><time>2015-11-22T13:17:35.0000000+00:00</time></trkpt><trkpt lat="30.8082839" lon="35.6756482"><ele>1216.6</ele><time>2015-11-22T13:17:36.0000000+00:00</time></trkpt><trkpt lat="30.8082368" lon="35.675693"><ele>1217.0</ele><time>2015-11-22T13:17:37.0000000+00:00</time></trkpt><trkpt lat="30.8081866" lon="35.6757428"><ele>1217.2</ele><time>2015-11-22T13:17:38.0000000+00:00</time></trkpt><trkpt lat="30.8081319" lon="35.6757925"><ele>1216.8</ele><time>2015-11-22T13:17:39.0000000+00:00</time></trkpt><trkpt lat="30.8080755" lon="35.6758457"><ele>1216.6</ele><time>2015-11-22T13:17:40.0000000+00:00</time></trkpt><trkpt lat="30.80802" lon="35.6758958"><ele>1216.5</ele><time>2015-11-22T13:17:41.0000000+00:00</time></trkpt><trkpt lat="30.8079697" lon="35.6759511"><ele>1216.4</ele><time>2015-11-22T13:17:42.0000000+00:00</time></trkpt><trkpt lat="30.8079061" lon="35.6760235"><ele>1215.4</ele><time>2015-11-22T13:17:43.0000000+00:00</time></trkpt><trkpt lat="30.8078394" lon="35.6760865"><ele>1214.9</ele><time>2015-11-22T13:17:44.0000000+00:00</time></trkpt><trkpt lat="30.807772" lon="35.6761498"><ele>1214.2</ele><time>2015-11-22T13:17:45.0000000+00:00</time></trkpt><trkpt lat="30.8077126" lon="35.6762119"><ele>1213.8</ele><time>2015-11-22T13:17:46.0000000+00:00</time></trkpt><trkpt lat="30.8076486" lon="35.6762757"><ele>1213.6</ele><time>2015-11-22T13:17:47.0000000+00:00</time></trkpt><trkpt lat="30.8075974" lon="35.6763295"><ele>1213.0</ele><time>2015-11-22T13:17:48.0000000+00:00</time></trkpt><trkpt lat="30.807535" lon="35.6763918"><ele>1212.7</ele><time>2015-11-22T13:17:49.0000000+00:00</time></trkpt><trkpt lat="30.8074666" lon="35.6764557"><ele>1212.0</ele><time>2015-11-22T13:17:50.0000000+00:00</time></trkpt><trkpt lat="30.8074051" lon="35.6765233"><ele>1211.7</ele><time>2015-11-22T13:17:51.0000000+00:00</time></trkpt><trkpt lat="30.8073455" lon="35.6765888"><ele>1211.1</ele><time>2015-11-22T13:17:52.0000000+00:00</time></trkpt><trkpt lat="30.8072821" lon="35.6766586"><ele>1210.7</ele><time>2015-11-22T13:17:53.0000000+00:00</time></trkpt><trkpt lat="30.8072212" lon="35.6767178"><ele>1210.6</ele><time>2015-11-22T13:17:54.0000000+00:00</time></trkpt><trkpt lat="30.80716" lon="35.676787"><ele>1210.5</ele><time>2015-11-22T13:17:55.0000000+00:00</time></trkpt><trkpt lat="30.807105" lon="35.6768538"><ele>1210.9</ele><time>2015-11-22T13:17:56.0000000+00:00</time></trkpt><trkpt lat="30.8070451" lon="35.6769189"><ele>1211.2</ele><time>2015-11-22T13:17:57.0000000+00:00</time></trkpt><trkpt lat="30.8069855" lon="35.6769832"><ele>1211.3</ele><time>2015-11-22T13:17:58.0000000+00:00</time></trkpt><trkpt lat="30.806922" lon="35.6770498"><ele>1211.3</ele><time>2015-11-22T13:17:59.0000000+00:00</time></trkpt><trkpt lat="30.8068667" lon="35.677116"><ele>1210.9</ele><time>2015-11-22T13:18:00.0000000+00:00</time></trkpt><trkpt lat="30.8068018" lon="35.6771886"><ele>1210.6</ele><time>2015-11-22T13:18:01.0000000+00:00</time></trkpt><trkpt lat="30.8067433" lon="35.6772616"><ele>1210.0</ele><time>2015-11-22T13:18:02.0000000+00:00</time></trkpt><trkpt lat="30.8066782" lon="35.6773411"><ele>1209.7</ele><time>2015-11-22T13:18:03.0000000+00:00</time></trkpt><trkpt lat="30.8066012" lon="35.6774165"><ele>1209.1</ele><time>2015-11-22T13:18:04.0000000+00:00</time></trkpt><trkpt lat="30.8065352" lon="35.6774918"><ele>1208.2</ele><time>2015-11-22T13:18:05.0000000+00:00</time></trkpt><trkpt lat="30.806477" lon="35.6775676"><ele>1207.8</ele><time>2015-11-22T13:18:06.0000000+00:00</time></trkpt><trkpt lat="30.8064185" lon="35.6776465"><ele>1207.1</ele><time>2015-11-22T13:18:07.0000000+00:00</time></trkpt><trkpt lat="30.806354" lon="35.6777235"><ele>1206.8</ele><time>2015-11-22T13:18:08.0000000+00:00</time></trkpt><trkpt lat="30.8062834" lon="35.6778005"><ele>1206.6</ele><time>2015-11-22T13:18:09.0000000+00:00</time></trkpt><trkpt lat="30.8062152" lon="35.6778775"><ele>1206.5</ele><time>2015-11-22T13:18:10.0000000+00:00</time></trkpt><trkpt lat="30.8061636" lon="35.6779484"><ele>1205.9</ele><time>2015-11-22T13:18:11.0000000+00:00</time></trkpt><trkpt lat="30.8061048" lon="35.6780253"><ele>1205.7</ele><time>2015-11-22T13:18:12.0000000+00:00</time></trkpt><trkpt lat="30.8060316" lon="35.6781114"><ele>1206.0</ele><time>2015-11-22T13:18:13.0000000+00:00</time></trkpt><trkpt lat="30.8059648" lon="35.6781924"><ele>1206.2</ele><time>2015-11-22T13:18:14.0000000+00:00</time></trkpt><trkpt lat="30.8059089" lon="35.6782734"><ele>1206.3</ele><time>2015-11-22T13:18:15.0000000+00:00</time></trkpt><trkpt lat="30.8058532" lon="35.6783612"><ele>1206.9</ele><time>2015-11-22T13:18:16.0000000+00:00</time></trkpt><trkpt lat="30.8057916" lon="35.6784407"><ele>1206.6</ele><time>2015-11-22T13:18:17.0000000+00:00</time></trkpt><trkpt lat="30.8057273" lon="35.6785214"><ele>1206.0</ele><time>2015-11-22T13:18:18.0000000+00:00</time></trkpt><trkpt lat="30.8056782" lon="35.6785978"><ele>1205.7</ele><time>2015-11-22T13:18:19.0000000+00:00</time></trkpt><trkpt lat="30.8056341" lon="35.6786636"><ele>1206.6</ele><time>2015-11-22T13:18:20.0000000+00:00</time></trkpt><trkpt lat="30.8055859" lon="35.6787361"><ele>1207.0</ele><time>2015-11-22T13:18:21.0000000+00:00</time></trkpt><trkpt lat="30.805544" lon="35.6788066"><ele>1206.7</ele><time>2015-11-22T13:18:22.0000000+00:00</time></trkpt><trkpt lat="30.8054957" lon="35.678876"><ele>1206.5</ele><time>2015-11-22T13:18:23.0000000+00:00</time></trkpt><trkpt lat="30.8054541" lon="35.6789414"><ele>1206.5</ele><time>2015-11-22T13:18:24.0000000+00:00</time></trkpt><trkpt lat="30.8054002" lon="35.6790087"><ele>1206.4</ele><time>2015-11-22T13:18:25.0000000+00:00</time></trkpt><trkpt lat="30.8053538" lon="35.6790778"><ele>1205.9</ele><time>2015-11-22T13:18:26.0000000+00:00</time></trkpt><trkpt lat="30.8053057" lon="35.6791456"><ele>1205.7</ele><time>2015-11-22T13:18:27.0000000+00:00</time></trkpt><trkpt lat="30.8052727" lon="35.6792087"><ele>1206.0</ele><time>2015-11-22T13:18:28.0000000+00:00</time></trkpt><trkpt lat="30.805221" lon="35.6792749"><ele>1206.7</ele><time>2015-11-22T13:18:29.0000000+00:00</time></trkpt><trkpt lat="30.805189" lon="35.6793322"><ele>1207.6</ele><time>2015-11-22T13:18:30.0000000+00:00</time></trkpt><trkpt lat="30.8051466" lon="35.6793929"><ele>1208.5</ele><time>2015-11-22T13:18:31.0000000+00:00</time></trkpt><trkpt lat="30.8051012" lon="35.6794643"><ele>1207.9</ele><time>2015-11-22T13:18:32.0000000+00:00</time></trkpt><trkpt lat="30.8050687" lon="35.6795155"><ele>1207.7</ele><time>2015-11-22T13:18:33.0000000+00:00</time></trkpt><trkpt lat="30.8050261" lon="35.6795727"><ele>1208.0</ele><time>2015-11-22T13:18:34.0000000+00:00</time></trkpt><trkpt lat="30.8049946" lon="35.6796258"><ele>1208.2</ele><time>2015-11-22T13:18:35.0000000+00:00</time></trkpt><trkpt lat="30.8049586" lon="35.6796696"><ele>1207.8</ele><time>2015-11-22T13:18:36.0000000+00:00</time></trkpt><trkpt lat="30.8049312" lon="35.6797159"><ele>1208.1</ele><time>2015-11-22T13:18:37.0000000+00:00</time></trkpt><trkpt lat="30.8049062" lon="35.6797659"><ele>1208.3</ele><time>2015-11-22T13:18:38.0000000+00:00</time></trkpt><trkpt lat="30.8048666" lon="35.679849"><ele>1207.1</ele><time>2015-11-22T13:18:40.0000000+00:00</time></trkpt><trkpt lat="30.8048365" lon="35.6798923"><ele>1207.3</ele><time>2015-11-22T13:18:41.0000000+00:00</time></trkpt><trkpt lat="30.8047927" lon="35.6799714"><ele>1207.4</ele><time>2015-11-22T13:18:43.0000000+00:00</time></trkpt><trkpt lat="30.8047477" lon="35.6800408"><ele>1207.1</ele><time>2015-11-22T13:18:45.0000000+00:00</time></trkpt><trkpt lat="30.8047152" lon="35.6801122"><ele>1208.1</ele><time>2015-11-22T13:18:47.0000000+00:00</time></trkpt><trkpt lat="30.8046808" lon="35.6801765"><ele>1209.1</ele><time>2015-11-22T13:18:49.0000000+00:00</time></trkpt><trkpt lat="30.8046292" lon="35.6802475"><ele>1208.6</ele><time>2015-11-22T13:18:51.0000000+00:00</time></trkpt><trkpt lat="30.8045908" lon="35.6803117"><ele>1208.4</ele><time>2015-11-22T13:18:53.0000000+00:00</time></trkpt><trkpt lat="30.8045503" lon="35.6803752"><ele>1208.9</ele><time>2015-11-22T13:18:55.0000000+00:00</time></trkpt><trkpt lat="30.8045082" lon="35.680437"><ele>1210.0</ele><time>2015-11-22T13:18:57.0000000+00:00</time></trkpt><trkpt lat="30.8044713" lon="35.680501"><ele>1209.3</ele><time>2015-11-22T13:18:59.0000000+00:00</time></trkpt><trkpt lat="30.8044322" lon="35.6805609"><ele>1209.1</ele><time>2015-11-22T13:19:01.0000000+00:00</time></trkpt><trkpt lat="30.8043926" lon="35.6806233"><ele>1209.6</ele><time>2015-11-22T13:19:03.0000000+00:00</time></trkpt><trkpt lat="30.8043553" lon="35.6806901"><ele>1206.4</ele><time>2015-11-22T13:19:05.0000000+00:00</time></trkpt><trkpt lat="30.8043179" lon="35.680756"><ele>1205.9</ele><time>2015-11-22T13:19:07.0000000+00:00</time></trkpt><trkpt lat="30.8042834" lon="35.6808163"><ele>1206.5</ele><time>2015-11-22T13:19:09.0000000+00:00</time></trkpt><trkpt lat="30.8042483" lon="35.6808737"><ele>1206.9</ele><time>2015-11-22T13:19:11.0000000+00:00</time></trkpt><trkpt lat="30.8042114" lon="35.680931"><ele>1208.5</ele><time>2015-11-22T13:19:13.0000000+00:00</time></trkpt><trkpt lat="30.8041772" lon="35.6809877"><ele>1209.7</ele><time>2015-11-22T13:19:15.0000000+00:00</time></trkpt><trkpt lat="30.8041431" lon="35.6810427"><ele>1211.0</ele><time>2015-11-22T13:19:17.0000000+00:00</time></trkpt><trkpt lat="30.8041109" lon="35.681096"><ele>1212.0</ele><time>2015-11-22T13:19:19.0000000+00:00</time></trkpt><trkpt lat="30.804082" lon="35.6811461"><ele>1211.3</ele><time>2015-11-22T13:19:21.0000000+00:00</time></trkpt><trkpt lat="30.8040509" lon="35.6811965"><ele>1211.9</ele><time>2015-11-22T13:19:23.0000000+00:00</time></trkpt><trkpt lat="30.8040201" lon="35.6812495"><ele>1213.5</ele><time>2015-11-22T13:19:25.0000000+00:00</time></trkpt><trkpt lat="30.8039849" lon="35.681302"><ele>1214.4</ele><time>2015-11-22T13:19:27.0000000+00:00</time></trkpt><trkpt lat="30.80395" lon="35.6813561"><ele>1214.9</ele><time>2015-11-22T13:19:29.0000000+00:00</time></trkpt><trkpt lat="30.8039184" lon="35.6814115"><ele>1215.3</ele><time>2015-11-22T13:19:31.0000000+00:00</time></trkpt><trkpt lat="30.8038859" lon="35.6814671"><ele>1216.1</ele><time>2015-11-22T13:19:33.0000000+00:00</time></trkpt><trkpt lat="30.8038538" lon="35.6815207"><ele>1216.6</ele><time>2015-11-22T13:19:35.0000000+00:00</time></trkpt><trkpt lat="30.8038196" lon="35.6815773"><ele>1216.9</ele><time>2015-11-22T13:19:37.0000000+00:00</time></trkpt><trkpt lat="30.8037863" lon="35.6816362"><ele>1217.3</ele><time>2015-11-22T13:19:39.0000000+00:00</time></trkpt><trkpt lat="30.8037536" lon="35.6816916"><ele>1218.1</ele><time>2015-11-22T13:19:41.0000000+00:00</time></trkpt><trkpt lat="30.8037211" lon="35.6817462"><ele>1218.8</ele><time>2015-11-22T13:19:43.0000000+00:00</time></trkpt><trkpt lat="30.8036894" lon="35.6818028"><ele>1218.5</ele><time>2015-11-22T13:19:45.0000000+00:00</time></trkpt><trkpt lat="30.8036622" lon="35.6818596"><ele>1218.7</ele><time>2015-11-22T13:19:47.0000000+00:00</time></trkpt><trkpt lat="30.8036312" lon="35.6819168"><ele>1218.5</ele><time>2015-11-22T13:19:49.0000000+00:00</time></trkpt><trkpt lat="30.8035955" lon="35.6819764"><ele>1217.9</ele><time>2015-11-22T13:19:51.0000000+00:00</time></trkpt><trkpt lat="30.8035612" lon="35.6820338"><ele>1218.0</ele><time>2015-11-22T13:19:53.0000000+00:00</time></trkpt><trkpt lat="30.8035274" lon="35.6820917"><ele>1218.8</ele><time>2015-11-22T13:19:55.0000000+00:00</time></trkpt><trkpt lat="30.8034946" lon="35.6821494"><ele>1219.3</ele><time>2015-11-22T13:19:57.0000000+00:00</time></trkpt><trkpt lat="30.8034632" lon="35.6822092"><ele>1218.6</ele><time>2015-11-22T13:19:59.0000000+00:00</time></trkpt><trkpt lat="30.8034218" lon="35.682273"><ele>1218.5</ele><time>2015-11-22T13:20:01.0000000+00:00</time></trkpt><trkpt lat="30.803378" lon="35.682349"><ele>1217.9</ele><time>2015-11-22T13:20:03.0000000+00:00</time></trkpt><trkpt lat="30.8033368" lon="35.6824334"><ele>1217.8</ele><time>2015-11-22T13:20:05.0000000+00:00</time></trkpt><trkpt lat="30.8032961" lon="35.6825206"><ele>1217.0</ele><time>2015-11-22T13:20:07.0000000+00:00</time></trkpt><trkpt lat="30.8032522" lon="35.6826074"><ele>1216.5</ele><time>2015-11-22T13:20:09.0000000+00:00</time></trkpt><trkpt lat="30.8032254" lon="35.6826639"><ele>1216.5</ele><time>2015-11-22T13:20:10.0000000+00:00</time></trkpt><trkpt lat="30.8031865" lon="35.682747"><ele>1217.2</ele><time>2015-11-22T13:20:12.0000000+00:00</time></trkpt><trkpt lat="30.8031587" lon="35.6827974"><ele>1217.3</ele><time>2015-11-22T13:20:13.0000000+00:00</time></trkpt><trkpt lat="30.8031297" lon="35.6828432"><ele>1217.8</ele><time>2015-11-22T13:20:14.0000000+00:00</time></trkpt><trkpt lat="30.8031067" lon="35.6828905"><ele>1218.1</ele><time>2015-11-22T13:20:15.0000000+00:00</time></trkpt><trkpt lat="30.8030759" lon="35.6829445"><ele>1218.3</ele><time>2015-11-22T13:20:16.0000000+00:00</time></trkpt><trkpt lat="30.8030429" lon="35.6829981"><ele>1217.8</ele><time>2015-11-22T13:20:17.0000000+00:00</time></trkpt><trkpt lat="30.8030173" lon="35.6830475"><ele>1218.1</ele><time>2015-11-22T13:20:18.0000000+00:00</time></trkpt><trkpt lat="30.8029879" lon="35.6830966"><ele>1218.3</ele><time>2015-11-22T13:20:19.0000000+00:00</time></trkpt><trkpt lat="30.8029635" lon="35.6831466"><ele>1218.3</ele><time>2015-11-22T13:20:20.0000000+00:00</time></trkpt><trkpt lat="30.8029408" lon="35.6831941"><ele>1218.4</ele><time>2015-11-22T13:20:21.0000000+00:00</time></trkpt><trkpt lat="30.8029204" lon="35.6832414"><ele>1218.9</ele><time>2015-11-22T13:20:22.0000000+00:00</time></trkpt><trkpt lat="30.8028929" lon="35.6832872"><ele>1219.6</ele><time>2015-11-22T13:20:23.0000000+00:00</time></trkpt><trkpt lat="30.8028705" lon="35.6833381"><ele>1220.0</ele><time>2015-11-22T13:20:24.0000000+00:00</time></trkpt><trkpt lat="30.8028451" lon="35.6833908"><ele>1220.7</ele><time>2015-11-22T13:20:25.0000000+00:00</time></trkpt><trkpt lat="30.8028146" lon="35.6834418"><ele>1221.1</ele><time>2015-11-22T13:20:26.0000000+00:00</time></trkpt><trkpt lat="30.8027928" lon="35.683496"><ele>1220.7</ele><time>2015-11-22T13:20:27.0000000+00:00</time></trkpt><trkpt lat="30.8027707" lon="35.6835434"><ele>1221.1</ele><time>2015-11-22T13:20:28.0000000+00:00</time></trkpt><trkpt lat="30.802746" lon="35.6835912"><ele>1221.2</ele><time>2015-11-22T13:20:29.0000000+00:00</time></trkpt><trkpt lat="30.8027192" lon="35.6836412"><ele>1221.8</ele><time>2015-11-22T13:20:30.0000000+00:00</time></trkpt><trkpt lat="30.8026964" lon="35.6836902"><ele>1222.1</ele><time>2015-11-22T13:20:31.0000000+00:00</time></trkpt><trkpt lat="30.8026688" lon="35.6837437"><ele>1222.3</ele><time>2015-11-22T13:20:32.0000000+00:00</time></trkpt><trkpt lat="30.8026458" lon="35.6837942"><ele>1221.8</ele><time>2015-11-22T13:20:33.0000000+00:00</time></trkpt><trkpt lat="30.8026159" lon="35.6838399"><ele>1222.1</ele><time>2015-11-22T13:20:34.0000000+00:00</time></trkpt><trkpt lat="30.8025814" lon="35.6839255"><ele>1221.6</ele><time>2015-11-22T13:20:36.0000000+00:00</time></trkpt><trkpt lat="30.8025525" lon="35.6839794"><ele>1221.0</ele><time>2015-11-22T13:20:37.0000000+00:00</time></trkpt><trkpt lat="30.8025184" lon="35.6840375"><ele>1220.7</ele><time>2015-11-22T13:20:38.0000000+00:00</time></trkpt><trkpt lat="30.8024964" lon="35.6840928"><ele>1220.5</ele><time>2015-11-22T13:20:39.0000000+00:00</time></trkpt><trkpt lat="30.8024767" lon="35.6841414"><ele>1220.0</ele><time>2015-11-22T13:20:40.0000000+00:00</time></trkpt><trkpt lat="30.8024479" lon="35.6841872"><ele>1220.2</ele><time>2015-11-22T13:20:41.0000000+00:00</time></trkpt><trkpt lat="30.8024156" lon="35.6842801"><ele>1220.8</ele><time>2015-11-22T13:20:43.0000000+00:00</time></trkpt><trkpt lat="30.8023834" lon="35.6843305"><ele>1221.1</ele><time>2015-11-22T13:20:44.0000000+00:00</time></trkpt><trkpt lat="30.8023595" lon="35.6843814"><ele>1221.3</ele><time>2015-11-22T13:20:45.0000000+00:00</time></trkpt><trkpt lat="30.8023296" lon="35.684429"><ele>1221.8</ele><time>2015-11-22T13:20:46.0000000+00:00</time></trkpt><trkpt lat="30.8023032" lon="35.684472"><ele>1221.6</ele><time>2015-11-22T13:20:47.0000000+00:00</time></trkpt><trkpt lat="30.8022793" lon="35.6845228"><ele>1221.5</ele><time>2015-11-22T13:20:48.0000000+00:00</time></trkpt><trkpt lat="30.8022555" lon="35.6845787"><ele>1221.5</ele><time>2015-11-22T13:20:49.0000000+00:00</time></trkpt><trkpt lat="30.8022311" lon="35.6846384"><ele>1220.9</ele><time>2015-11-22T13:20:50.0000000+00:00</time></trkpt><trkpt lat="30.8022041" lon="35.684685"><ele>1221.2</ele><time>2015-11-22T13:20:51.0000000+00:00</time></trkpt><trkpt lat="30.8021813" lon="35.6847418"><ele>1220.8</ele><time>2015-11-22T13:20:52.0000000+00:00</time></trkpt><trkpt lat="30.802157" lon="35.6847969"><ele>1220.1</ele><time>2015-11-22T13:20:53.0000000+00:00</time></trkpt><trkpt lat="30.8021273" lon="35.6848468"><ele>1219.7</ele><time>2015-11-22T13:20:54.0000000+00:00</time></trkpt><trkpt lat="30.8021098" lon="35.6849082"><ele>1219.6</ele><time>2015-11-22T13:20:55.0000000+00:00</time></trkpt><trkpt lat="30.8020834" lon="35.6849584"><ele>1219.5</ele><time>2015-11-22T13:20:56.0000000+00:00</time></trkpt><trkpt lat="30.802051" lon="35.6850071"><ele>1219.4</ele><time>2015-11-22T13:20:57.0000000+00:00</time></trkpt><trkpt lat="30.8020258" lon="35.685054"><ele>1218.9</ele><time>2015-11-22T13:20:58.0000000+00:00</time></trkpt><trkpt lat="30.8020023" lon="35.6851012"><ele>1219.2</ele><time>2015-11-22T13:20:59.0000000+00:00</time></trkpt><trkpt lat="30.8019737" lon="35.6851516"><ele>1219.3</ele><time>2015-11-22T13:21:00.0000000+00:00</time></trkpt><trkpt lat="30.8019487" lon="35.6852088"><ele>1219.3</ele><time>2015-11-22T13:21:01.0000000+00:00</time></trkpt><trkpt lat="30.8019221" lon="35.6852568"><ele>1219.4</ele><time>2015-11-22T13:21:02.0000000+00:00</time></trkpt><trkpt lat="30.8018923" lon="35.6853035"><ele>1219.9</ele><time>2015-11-22T13:21:03.0000000+00:00</time></trkpt><trkpt lat="30.8018534" lon="35.6853602"><ele>1220.1</ele><time>2015-11-22T13:21:04.0000000+00:00</time></trkpt><trkpt lat="30.8018242" lon="35.6854031"><ele>1220.8</ele><time>2015-11-22T13:21:05.0000000+00:00</time></trkpt><trkpt lat="30.8017971" lon="35.685456"><ele>1220.6</ele><time>2015-11-22T13:21:06.0000000+00:00</time></trkpt><trkpt lat="30.8017632" lon="35.6855088"><ele>1221.0</ele><time>2015-11-22T13:21:07.0000000+00:00</time></trkpt><trkpt lat="30.8017395" lon="35.6855634"><ele>1220.7</ele><time>2015-11-22T13:21:08.0000000+00:00</time></trkpt><trkpt lat="30.8017112" lon="35.68561"><ele>1221.0</ele><time>2015-11-22T13:21:09.0000000+00:00</time></trkpt><trkpt lat="30.8016902" lon="35.6856639"><ele>1221.2</ele><time>2015-11-22T13:21:10.0000000+00:00</time></trkpt><trkpt lat="30.8016673" lon="35.6857158"><ele>1221.3</ele><time>2015-11-22T13:21:11.0000000+00:00</time></trkpt><trkpt lat="30.8016357" lon="35.6857613"><ele>1221.4</ele><time>2015-11-22T13:21:12.0000000+00:00</time></trkpt><trkpt lat="30.8016164" lon="35.6858132"><ele>1221.4</ele><time>2015-11-22T13:21:13.0000000+00:00</time></trkpt><trkpt lat="30.8015858" lon="35.6858645"><ele>1221.9</ele><time>2015-11-22T13:21:14.0000000+00:00</time></trkpt><trkpt lat="30.8015598" lon="35.6859148"><ele>1222.1</ele><time>2015-11-22T13:21:15.0000000+00:00</time></trkpt><trkpt lat="30.8015338" lon="35.6859623"><ele>1222.3</ele><time>2015-11-22T13:21:16.0000000+00:00</time></trkpt><trkpt lat="30.801508" lon="35.6860089"><ele>1222.8</ele><time>2015-11-22T13:21:17.0000000+00:00</time></trkpt><trkpt lat="30.8014886" lon="35.6860638"><ele>1223.6</ele><time>2015-11-22T13:21:18.0000000+00:00</time></trkpt><trkpt lat="30.8014537" lon="35.686116"><ele>1224.0</ele><time>2015-11-22T13:21:19.0000000+00:00</time></trkpt><trkpt lat="30.8014305" lon="35.6861736"><ele>1224.2</ele><time>2015-11-22T13:21:20.0000000+00:00</time></trkpt><trkpt lat="30.8013962" lon="35.6862312"><ele>1224.8</ele><time>2015-11-22T13:21:21.0000000+00:00</time></trkpt><trkpt lat="30.801351" lon="35.6863294"><ele>1225.0</ele><time>2015-11-22T13:21:23.0000000+00:00</time></trkpt><trkpt lat="30.8013042" lon="35.6864324"><ele>1224.5</ele><time>2015-11-22T13:21:25.0000000+00:00</time></trkpt><trkpt lat="30.8012594" lon="35.6865143"><ele>1224.4</ele><time>2015-11-22T13:21:27.0000000+00:00</time></trkpt><trkpt lat="30.8012152" lon="35.6865958"><ele>1224.9</ele><time>2015-11-22T13:21:29.0000000+00:00</time></trkpt><trkpt lat="30.8011766" lon="35.686684"><ele>1225.3</ele><time>2015-11-22T13:21:31.0000000+00:00</time></trkpt><trkpt lat="30.8011516" lon="35.6867489"><ele>1224.6</ele><time>2015-11-22T13:21:33.0000000+00:00</time></trkpt><trkpt lat="30.801112" lon="35.6868109"><ele>1224.5</ele><time>2015-11-22T13:21:35.0000000+00:00</time></trkpt><trkpt lat="30.8010781" lon="35.6868853"><ele>1223.9</ele><time>2015-11-22T13:21:37.0000000+00:00</time></trkpt><trkpt lat="30.8010658" lon="35.686938"><ele>1223.5</ele><time>2015-11-22T13:21:39.0000000+00:00</time></trkpt><trkpt lat="30.8010303" lon="35.6870014"><ele>1223.4</ele><time>2015-11-22T13:21:42.0000000+00:00</time></trkpt><trkpt lat="30.8009922" lon="35.6870649"><ele>1224.2</ele><time>2015-11-22T13:21:45.0000000+00:00</time></trkpt><trkpt lat="30.8009668" lon="35.6871089"><ele>1224.8</ele><time>2015-11-22T13:21:47.0000000+00:00</time></trkpt><trkpt lat="30.8009404" lon="35.6871555"><ele>1225.3</ele><time>2015-11-22T13:21:49.0000000+00:00</time></trkpt><trkpt lat="30.8009158" lon="35.6872032"><ele>1226.1</ele><time>2015-11-22T13:21:51.0000000+00:00</time></trkpt><trkpt lat="30.8008923" lon="35.6872495"><ele>1227.1</ele><time>2015-11-22T13:21:53.0000000+00:00</time></trkpt><trkpt lat="30.8008597" lon="35.6873096"><ele>1228.2</ele><time>2015-11-22T13:21:56.0000000+00:00</time></trkpt><trkpt lat="30.8008367" lon="35.6873636"><ele>1229.1</ele><time>2015-11-22T13:21:59.0000000+00:00</time></trkpt><trkpt lat="30.8008223" lon="35.6874161"><ele>1229.1</ele><time>2015-11-22T13:22:02.0000000+00:00</time></trkpt><trkpt lat="30.8007896" lon="35.687469"><ele>1229.3</ele><time>2015-11-22T13:22:06.0000000+00:00</time></trkpt><trkpt lat="30.8007686" lon="35.6875338"><ele>1229.4</ele><time>2015-11-22T13:22:10.0000000+00:00</time></trkpt><trkpt lat="30.8007399" lon="35.687594"><ele>1229.4</ele><time>2015-11-22T13:22:14.0000000+00:00</time></trkpt><trkpt lat="30.8007166" lon="35.6876567"><ele>1226.1</ele><time>2015-11-22T13:22:18.0000000+00:00</time></trkpt><trkpt lat="30.8006997" lon="35.6877056"><ele>1222.9</ele><time>2015-11-22T13:22:21.0000000+00:00</time></trkpt><trkpt lat="30.8006736" lon="35.6877518"><ele>1224.1</ele><time>2015-11-22T13:22:24.0000000+00:00</time></trkpt><trkpt lat="30.8006432" lon="35.6878003"><ele>1225.2</ele><time>2015-11-22T13:22:27.0000000+00:00</time></trkpt><trkpt lat="30.8006213" lon="35.6878548"><ele>1225.6</ele><time>2015-11-22T13:22:30.0000000+00:00</time></trkpt><trkpt lat="30.8006033" lon="35.6879111"><ele>1224.9</ele><time>2015-11-22T13:22:33.0000000+00:00</time></trkpt><trkpt lat="30.8005812" lon="35.687963"><ele>1225.3</ele><time>2015-11-22T13:22:36.0000000+00:00</time></trkpt><trkpt lat="30.8005658" lon="35.6880148"><ele>1225.4</ele><time>2015-11-22T13:22:39.0000000+00:00</time></trkpt><trkpt lat="30.8005453" lon="35.6880681"><ele>1225.9</ele><time>2015-11-22T13:22:42.0000000+00:00</time></trkpt><trkpt lat="30.8005198" lon="35.6881205"><ele>1226.3</ele><time>2015-11-22T13:22:45.0000000+00:00</time></trkpt><trkpt lat="30.8004948" lon="35.6881747"><ele>1226.4</ele><time>2015-11-22T13:22:48.0000000+00:00</time></trkpt><trkpt lat="30.8004746" lon="35.6882272"><ele>1226.4</ele><time>2015-11-22T13:22:51.0000000+00:00</time></trkpt><trkpt lat="30.8004606" lon="35.6882863"><ele>1226.0</ele><time>2015-11-22T13:22:55.0000000+00:00</time></trkpt><trkpt lat="30.8004367" lon="35.6883471"><ele>1226.3</ele><time>2015-11-22T13:22:59.0000000+00:00</time></trkpt><trkpt lat="30.8004186" lon="35.6883989"><ele>1226.1</ele><time>2015-11-22T13:23:02.0000000+00:00</time></trkpt><trkpt lat="30.8003973" lon="35.6884487"><ele>1226.2</ele><time>2015-11-22T13:23:05.0000000+00:00</time></trkpt><trkpt lat="30.8003747" lon="35.6884969"><ele>1226.1</ele><time>2015-11-22T13:23:08.0000000+00:00</time></trkpt><trkpt lat="30.8003546" lon="35.6885468"><ele>1226.4</ele><time>2015-11-22T13:23:11.0000000+00:00</time></trkpt><trkpt lat="30.8003318" lon="35.6885946"><ele>1226.4</ele><time>2015-11-22T13:23:14.0000000+00:00</time></trkpt><trkpt lat="30.8003055" lon="35.6886434"><ele>1226.6</ele><time>2015-11-22T13:23:17.0000000+00:00</time></trkpt><trkpt lat="30.800283" lon="35.6886958"><ele>1227.1</ele><time>2015-11-22T13:23:20.0000000+00:00</time></trkpt><trkpt lat="30.8002638" lon="35.6887497"><ele>1228.0</ele><time>2015-11-22T13:23:23.0000000+00:00</time></trkpt><trkpt lat="30.8002493" lon="35.6888015"><ele>1227.5</ele><time>2015-11-22T13:23:26.0000000+00:00</time></trkpt><trkpt lat="30.8002315" lon="35.6888536"><ele>1228.3</ele><time>2015-11-22T13:23:29.0000000+00:00</time></trkpt><trkpt lat="30.800212" lon="35.6889076"><ele>1228.4</ele><time>2015-11-22T13:23:32.0000000+00:00</time></trkpt><trkpt lat="30.8001955" lon="35.6889642"><ele>1228.4</ele><time>2015-11-22T13:23:35.0000000+00:00</time></trkpt><trkpt lat="30.8001818" lon="35.6890159"><ele>1228.3</ele><time>2015-11-22T13:23:38.0000000+00:00</time></trkpt><trkpt lat="30.8001696" lon="35.6890709"><ele>1228.4</ele><time>2015-11-22T13:23:41.0000000+00:00</time></trkpt><trkpt lat="30.8001554" lon="35.6891293"><ele>1228.4</ele><time>2015-11-22T13:23:44.0000000+00:00</time></trkpt><trkpt lat="30.8001407" lon="35.6891891"><ele>1229.1</ele><time>2015-11-22T13:23:47.0000000+00:00</time></trkpt><trkpt lat="30.8001258" lon="35.6892458"><ele>1228.5</ele><time>2015-11-22T13:23:50.0000000+00:00</time></trkpt><trkpt lat="30.8001154" lon="35.6892992"><ele>1228.4</ele><time>2015-11-22T13:23:53.0000000+00:00</time></trkpt><trkpt lat="30.8000976" lon="35.6893556"><ele>1228.4</ele><time>2015-11-22T13:23:57.0000000+00:00</time></trkpt><trkpt lat="30.8000757" lon="35.6894195"><ele>1229.1</ele><time>2015-11-22T13:24:01.0000000+00:00</time></trkpt><trkpt lat="30.8000532" lon="35.6894665"><ele>1229.9</ele><time>2015-11-22T13:24:04.0000000+00:00</time></trkpt><trkpt lat="30.8000304" lon="35.6895139"><ele>1230.3</ele><time>2015-11-22T13:24:07.0000000+00:00</time></trkpt><trkpt lat="30.8000114" lon="35.6895755"><ele>1228.6</ele><time>2015-11-22T13:24:11.0000000+00:00</time></trkpt><trkpt lat="30.8000019" lon="35.6896338"><ele>1227.1</ele><time>2015-11-22T13:24:15.0000000+00:00</time></trkpt><trkpt lat="30.79997" lon="35.6896948"><ele>1227.7</ele><time>2015-11-22T13:24:19.0000000+00:00</time></trkpt><trkpt lat="30.7999534" lon="35.6897452"><ele>1227.2</ele><time>2015-11-22T13:24:22.0000000+00:00</time></trkpt><trkpt lat="30.7999389" lon="35.6897978"><ele>1227.0</ele><time>2015-11-22T13:24:25.0000000+00:00</time></trkpt><trkpt lat="30.7999168" lon="35.68985"><ele>1228.6</ele><time>2015-11-22T13:24:28.0000000+00:00</time></trkpt><trkpt lat="30.7999038" lon="35.6899024"><ele>1230.2</ele><time>2015-11-22T13:24:31.0000000+00:00</time></trkpt><trkpt lat="30.7998951" lon="35.6899539"><ele>1231.5</ele><time>2015-11-22T13:24:34.0000000+00:00</time></trkpt><trkpt lat="30.7998772" lon="35.6900045"><ele>1232.3</ele><time>2015-11-22T13:24:37.0000000+00:00</time></trkpt><trkpt lat="30.7998581" lon="35.6900579"><ele>1233.3</ele><time>2015-11-22T13:24:40.0000000+00:00</time></trkpt><trkpt lat="30.7998468" lon="35.6901147"><ele>1233.3</ele><time>2015-11-22T13:24:43.0000000+00:00</time></trkpt><trkpt lat="30.7998384" lon="35.6901786"><ele>1230.3</ele><time>2015-11-22T13:24:47.0000000+00:00</time></trkpt><trkpt lat="30.7998331" lon="35.6902336"><ele>1228.8</ele><time>2015-11-22T13:24:50.0000000+00:00</time></trkpt><trkpt lat="30.799821" lon="35.6902892"><ele>1230.1</ele><time>2015-11-22T13:24:53.0000000+00:00</time></trkpt><trkpt lat="30.79981" lon="35.6903464"><ele>1230.6</ele><time>2015-11-22T13:24:56.0000000+00:00</time></trkpt><trkpt lat="30.7997965" lon="35.6904011"><ele>1230.4</ele><time>2015-11-22T13:24:59.0000000+00:00</time></trkpt><trkpt lat="30.7997784" lon="35.6904529"><ele>1229.8</ele><time>2015-11-22T13:25:02.0000000+00:00</time></trkpt><trkpt lat="30.799771" lon="35.69051"><ele>1230.3</ele><time>2015-11-22T13:25:05.0000000+00:00</time></trkpt><trkpt lat="30.7997561" lon="35.6905655"><ele>1233.4</ele><time>2015-11-22T13:25:08.0000000+00:00</time></trkpt><trkpt lat="30.7997326" lon="35.690618"><ele>1234.6</ele><time>2015-11-22T13:25:11.0000000+00:00</time></trkpt><trkpt lat="30.7997148" lon="35.6906699"><ele>1232.8</ele><time>2015-11-22T13:25:14.0000000+00:00</time></trkpt><trkpt lat="30.7996994" lon="35.6907192"><ele>1229.9</ele><time>2015-11-22T13:25:17.0000000+00:00</time></trkpt><trkpt lat="30.799693" lon="35.6907728"><ele>1230.0</ele><time>2015-11-22T13:25:20.0000000+00:00</time></trkpt><trkpt lat="30.7996748" lon="35.6908323"><ele>1229.7</ele><time>2015-11-22T13:25:24.0000000+00:00</time></trkpt><trkpt lat="30.7996528" lon="35.6908943"><ele>1239.0</ele><time>2015-11-22T13:25:28.0000000+00:00</time></trkpt><trkpt lat="30.7996434" lon="35.6909459"><ele>1247.8</ele><time>2015-11-22T13:25:31.0000000+00:00</time></trkpt><trkpt lat="30.7996346" lon="35.6909985"><ele>1251.7</ele><time>2015-11-22T13:25:34.0000000+00:00</time></trkpt><trkpt lat="30.7996216" lon="35.6910546"><ele>1252.8</ele><time>2015-11-22T13:25:37.0000000+00:00</time></trkpt><trkpt lat="30.7996016" lon="35.6911095"><ele>1253.3</ele><time>2015-11-22T13:25:40.0000000+00:00</time></trkpt><trkpt lat="30.7995859" lon="35.6911683"><ele>1253.9</ele><time>2015-11-22T13:25:43.0000000+00:00</time></trkpt><trkpt lat="30.7995709" lon="35.6912287"><ele>1252.6</ele><time>2015-11-22T13:25:46.0000000+00:00</time></trkpt><trkpt lat="30.7995537" lon="35.6912876"><ele>1253.3</ele><time>2015-11-22T13:25:49.0000000+00:00</time></trkpt><trkpt lat="30.7995381" lon="35.6913426"><ele>1253.4</ele><time>2015-11-22T13:25:52.0000000+00:00</time></trkpt><trkpt lat="30.799526" lon="35.6913967"><ele>1254.1</ele><time>2015-11-22T13:25:55.0000000+00:00</time></trkpt><trkpt lat="30.7995054" lon="35.6914628"><ele>1256.5</ele><time>2015-11-22T13:25:59.0000000+00:00</time></trkpt><trkpt lat="30.7994892" lon="35.691516"><ele>1257.3</ele><time>2015-11-22T13:26:02.0000000+00:00</time></trkpt><trkpt lat="30.7994737" lon="35.6915734"><ele>1256.5</ele><time>2015-11-22T13:26:06.0000000+00:00</time></trkpt><trkpt lat="30.7994627" lon="35.6916353"><ele>1257.2</ele><time>2015-11-22T13:26:10.0000000+00:00</time></trkpt><trkpt lat="30.7994404" lon="35.6916963"><ele>1258.3</ele><time>2015-11-22T13:26:14.0000000+00:00</time></trkpt><trkpt lat="30.7994256" lon="35.6917621"><ele>1258.6</ele><time>2015-11-22T13:26:18.0000000+00:00</time></trkpt><trkpt lat="30.7994158" lon="35.6918294"><ele>1259.2</ele><time>2015-11-22T13:26:22.0000000+00:00</time></trkpt><trkpt lat="30.7993936" lon="35.6918847"><ele>1259.4</ele><time>2015-11-22T13:26:26.0000000+00:00</time></trkpt><trkpt lat="30.7993756" lon="35.6919495"><ele>1259.9</ele><time>2015-11-22T13:26:30.0000000+00:00</time></trkpt><trkpt lat="30.7993664" lon="35.6920032"><ele>1260.2</ele><time>2015-11-22T13:26:33.0000000+00:00</time></trkpt><trkpt lat="30.7993445" lon="35.6920543"><ele>1261.6</ele><time>2015-11-22T13:26:36.0000000+00:00</time></trkpt><trkpt lat="30.7993234" lon="35.6921071"><ele>1261.6</ele><time>2015-11-22T13:26:39.0000000+00:00</time></trkpt><trkpt lat="30.7993093" lon="35.692159"><ele>1261.9</ele><time>2015-11-22T13:26:42.0000000+00:00</time></trkpt><trkpt lat="30.799287" lon="35.6922103"><ele>1263.1</ele><time>2015-11-22T13:26:45.0000000+00:00</time></trkpt><trkpt lat="30.7992656" lon="35.6922594"><ele>1263.0</ele><time>2015-11-22T13:26:48.0000000+00:00</time></trkpt><trkpt lat="30.7992511" lon="35.6923094"><ele>1263.3</ele><time>2015-11-22T13:26:51.0000000+00:00</time></trkpt><trkpt lat="30.7992307" lon="35.6923611"><ele>1265.9</ele><time>2015-11-22T13:26:54.0000000+00:00</time></trkpt><trkpt lat="30.7992159" lon="35.692411"><ele>1266.8</ele><time>2015-11-22T13:26:57.0000000+00:00</time></trkpt><trkpt lat="30.7991968" lon="35.6924751"><ele>1266.5</ele><time>2015-11-22T13:27:01.0000000+00:00</time></trkpt><trkpt lat="30.7991863" lon="35.6925386"><ele>1264.3</ele><time>2015-11-22T13:27:05.0000000+00:00</time></trkpt><trkpt lat="30.7991732" lon="35.6926049"><ele>1264.9</ele><time>2015-11-22T13:27:09.0000000+00:00</time></trkpt><trkpt lat="30.7991549" lon="35.6926532"><ele>1265.3</ele><time>2015-11-22T13:27:12.0000000+00:00</time></trkpt><trkpt lat="30.7991316" lon="35.6927073"><ele>1267.0</ele><time>2015-11-22T13:27:15.0000000+00:00</time></trkpt><trkpt lat="30.7991113" lon="35.6927598"><ele>1267.2</ele><time>2015-11-22T13:27:18.0000000+00:00</time></trkpt><trkpt lat="30.7990884" lon="35.6928121"><ele>1268.8</ele><time>2015-11-22T13:27:21.0000000+00:00</time></trkpt><trkpt lat="30.7990698" lon="35.6928655"><ele>1270.2</ele><time>2015-11-22T13:27:24.0000000+00:00</time></trkpt><trkpt lat="30.7990548" lon="35.6929207"><ele>1271.6</ele><time>2015-11-22T13:27:27.0000000+00:00</time></trkpt><trkpt lat="30.7990405" lon="35.6929781"><ele>1272.8</ele><time>2015-11-22T13:27:30.0000000+00:00</time></trkpt><trkpt lat="30.7990211" lon="35.6930349"><ele>1272.6</ele><time>2015-11-22T13:27:33.0000000+00:00</time></trkpt><trkpt lat="30.7990072" lon="35.6930907"><ele>1272.9</ele><time>2015-11-22T13:27:36.0000000+00:00</time></trkpt><trkpt lat="30.7989897" lon="35.6931422"><ele>1273.3</ele><time>2015-11-22T13:27:39.0000000+00:00</time></trkpt><trkpt lat="30.7989766" lon="35.693204"><ele>1273.4</ele><time>2015-11-22T13:27:43.0000000+00:00</time></trkpt><trkpt lat="30.7989636" lon="35.6932596"><ele>1274.1</ele><time>2015-11-22T13:27:47.0000000+00:00</time></trkpt><trkpt lat="30.7989547" lon="35.6933197"><ele>1273.9</ele><time>2015-11-22T13:27:51.0000000+00:00</time></trkpt><trkpt lat="30.7989331" lon="35.6933827"><ele>1273.9</ele><time>2015-11-22T13:27:55.0000000+00:00</time></trkpt><trkpt lat="30.7989218" lon="35.6934452"><ele>1273.5</ele><time>2015-11-22T13:27:59.0000000+00:00</time></trkpt><trkpt lat="30.7989114" lon="35.6935112"><ele>1273.5</ele><time>2015-11-22T13:28:03.0000000+00:00</time></trkpt><trkpt lat="30.7988948" lon="35.6935638"><ele>1274.3</ele><time>2015-11-22T13:28:06.0000000+00:00</time></trkpt><trkpt lat="30.7988759" lon="35.693618"><ele>1275.3</ele><time>2015-11-22T13:28:09.0000000+00:00</time></trkpt><trkpt lat="30.7988507" lon="35.6936684"><ele>1275.9</ele><time>2015-11-22T13:28:12.0000000+00:00</time></trkpt><trkpt lat="30.7988212" lon="35.6937158"><ele>1276.3</ele><time>2015-11-22T13:28:15.0000000+00:00</time></trkpt><trkpt lat="30.7987942" lon="35.6937631"><ele>1277.3</ele><time>2015-11-22T13:28:18.0000000+00:00</time></trkpt><trkpt lat="30.7987694" lon="35.6938275"><ele>1278.8</ele><time>2015-11-22T13:28:22.0000000+00:00</time></trkpt><trkpt lat="30.7987498" lon="35.6938863"><ele>1279.4</ele><time>2015-11-22T13:28:26.0000000+00:00</time></trkpt><trkpt lat="30.7987268" lon="35.6939422"><ele>1264.0</ele><time>2015-11-22T13:28:30.0000000+00:00</time></trkpt><trkpt lat="30.7987066" lon="35.694009"><ele>1272.0</ele><time>2015-11-22T13:28:34.0000000+00:00</time></trkpt><trkpt lat="30.7986931" lon="35.6940769"><ele>1280.1</ele><time>2015-11-22T13:28:38.0000000+00:00</time></trkpt><trkpt lat="30.7986742" lon="35.6941435"><ele>1282.2</ele><time>2015-11-22T13:28:42.0000000+00:00</time></trkpt><trkpt lat="30.798657" lon="35.6941987"><ele>1283.0</ele><time>2015-11-22T13:28:45.0000000+00:00</time></trkpt><trkpt lat="30.7986415" lon="35.6942519"><ele>1283.3</ele><time>2015-11-22T13:28:48.0000000+00:00</time></trkpt><trkpt lat="30.7986264" lon="35.6943029"><ele>1284.1</ele><time>2015-11-22T13:28:51.0000000+00:00</time></trkpt><trkpt lat="30.7986151" lon="35.6943595"><ele>1284.9</ele><time>2015-11-22T13:28:54.0000000+00:00</time></trkpt><trkpt lat="30.7986012" lon="35.6944138"><ele>1285.3</ele><time>2015-11-22T13:28:57.0000000+00:00</time></trkpt><trkpt lat="30.7985914" lon="35.6944761"><ele>1285.4</ele><time>2015-11-22T13:29:00.0000000+00:00</time></trkpt><trkpt lat="30.7985751" lon="35.6945419"><ele>1285.4</ele><time>2015-11-22T13:29:03.0000000+00:00</time></trkpt><trkpt lat="30.7985565" lon="35.6946057"><ele>1286.3</ele><time>2015-11-22T13:29:06.0000000+00:00</time></trkpt><trkpt lat="30.798537" lon="35.6946653"><ele>1286.4</ele><time>2015-11-22T13:29:08.0000000+00:00</time></trkpt><trkpt lat="30.7985206" lon="35.6947229"><ele>1286.4</ele><time>2015-11-22T13:29:10.0000000+00:00</time></trkpt><trkpt lat="30.7985066" lon="35.6947808"><ele>1286.4</ele><time>2015-11-22T13:29:12.0000000+00:00</time></trkpt><trkpt lat="30.7984929" lon="35.6948461"><ele>1287.1</ele><time>2015-11-22T13:29:15.0000000+00:00</time></trkpt><trkpt lat="30.7984828" lon="35.694905"><ele>1287.4</ele><time>2015-11-22T13:29:18.0000000+00:00</time></trkpt><trkpt lat="30.7984684" lon="35.6949738"><ele>1287.4</ele><time>2015-11-22T13:29:21.0000000+00:00</time></trkpt><trkpt lat="30.7984543" lon="35.6950486"><ele>1288.3</ele><time>2015-11-22T13:29:25.0000000+00:00</time></trkpt><trkpt lat="30.7984315" lon="35.6951153"><ele>1288.4</ele><time>2015-11-22T13:29:29.0000000+00:00</time></trkpt><trkpt lat="30.7984205" lon="35.6951808"><ele>1289.1</ele><time>2015-11-22T13:29:32.0000000+00:00</time></trkpt><trkpt lat="30.7984106" lon="35.6952472"><ele>1289.3</ele><time>2015-11-22T13:29:34.0000000+00:00</time></trkpt><trkpt lat="30.7983874" lon="35.695301"><ele>1289.4</ele><time>2015-11-22T13:29:36.0000000+00:00</time></trkpt><trkpt lat="30.798377" lon="35.6953771"><ele>1290.1</ele><time>2015-11-22T13:29:39.0000000+00:00</time></trkpt><trkpt lat="30.7983642" lon="35.6954496"><ele>1290.4</ele><time>2015-11-22T13:29:42.0000000+00:00</time></trkpt><trkpt lat="30.7983484" lon="35.6955229"><ele>1290.4</ele><time>2015-11-22T13:29:45.0000000+00:00</time></trkpt><trkpt lat="30.7983345" lon="35.695596"><ele>1290.4</ele><time>2015-11-22T13:29:48.0000000+00:00</time></trkpt><trkpt lat="30.798319" lon="35.6956661"><ele>1291.1</ele><time>2015-11-22T13:29:51.0000000+00:00</time></trkpt><trkpt lat="30.798309" lon="35.6957373"><ele>1291.4</ele><time>2015-11-22T13:29:54.0000000+00:00</time></trkpt><trkpt lat="30.7982952" lon="35.6958017"><ele>1291.4</ele><time>2015-11-22T13:29:57.0000000+00:00</time></trkpt><trkpt lat="30.7982771" lon="35.6958645"><ele>1291.4</ele><time>2015-11-22T13:30:00.0000000+00:00</time></trkpt><trkpt lat="30.7982688" lon="35.6959194"><ele>1291.4</ele><time>2015-11-22T13:30:02.0000000+00:00</time></trkpt><trkpt lat="30.7982629" lon="35.6959752"><ele>1291.4</ele><time>2015-11-22T13:30:04.0000000+00:00</time></trkpt><trkpt lat="30.7982558" lon="35.6960508"><ele>1291.4</ele><time>2015-11-22T13:30:07.0000000+00:00</time></trkpt><trkpt lat="30.7982425" lon="35.6961039"><ele>1292.1</ele><time>2015-11-22T13:30:09.0000000+00:00</time></trkpt><trkpt lat="30.7982278" lon="35.696167"><ele>1292.3</ele><time>2015-11-22T13:30:11.0000000+00:00</time></trkpt><trkpt lat="30.7982118" lon="35.6962354"><ele>1292.4</ele><time>2015-11-22T13:30:13.0000000+00:00</time></trkpt><trkpt lat="30.7982009" lon="35.6963051"><ele>1292.4</ele><time>2015-11-22T13:30:15.0000000+00:00</time></trkpt><trkpt lat="30.7981914" lon="35.6963676"><ele>1291.9</ele><time>2015-11-22T13:30:17.0000000+00:00</time></trkpt><trkpt lat="30.7981758" lon="35.6964262"><ele>1291.5</ele><time>2015-11-22T13:30:19.0000000+00:00</time></trkpt><trkpt lat="30.7981647" lon="35.696485"><ele>1290.9</ele><time>2015-11-22T13:30:21.0000000+00:00</time></trkpt><trkpt lat="30.7981546" lon="35.696542"><ele>1291.3</ele><time>2015-11-22T13:30:23.0000000+00:00</time></trkpt><trkpt lat="30.7981405" lon="35.6965979"><ele>1291.4</ele><time>2015-11-22T13:30:25.0000000+00:00</time></trkpt><trkpt lat="30.7981253" lon="35.696652"><ele>1291.4</ele><time>2015-11-22T13:30:27.0000000+00:00</time></trkpt><trkpt lat="30.798112" lon="35.6967032"><ele>1291.4</ele><time>2015-11-22T13:30:29.0000000+00:00</time></trkpt><trkpt lat="30.7980979" lon="35.6967763"><ele>1292.3</ele><time>2015-11-22T13:30:32.0000000+00:00</time></trkpt><trkpt lat="30.7980747" lon="35.6968437"><ele>1292.4</ele><time>2015-11-22T13:30:35.0000000+00:00</time></trkpt><trkpt lat="30.7980504" lon="35.6969102"><ele>1292.9</ele><time>2015-11-22T13:30:38.0000000+00:00</time></trkpt><trkpt lat="30.798028" lon="35.6969721"><ele>1292.0</ele><time>2015-11-22T13:30:41.0000000+00:00</time></trkpt><trkpt lat="30.7980398" lon="35.6970307"><ele>1291.2</ele><time>2015-11-22T13:36:47.0000000+00:00</time></trkpt><trkpt lat="30.7980324" lon="35.6970963"><ele>1292.3</ele><time>2015-11-22T13:36:51.0000000+00:00</time></trkpt><trkpt lat="30.7980208" lon="35.6971686"><ele>1291.6</ele><time>2015-11-22T13:36:54.0000000+00:00</time></trkpt><trkpt lat="30.7980071" lon="35.6972448"><ele>1292.3</ele><time>2015-11-22T13:36:57.0000000+00:00</time></trkpt><trkpt lat="30.7979959" lon="35.6972994"><ele>1292.4</ele><time>2015-11-22T13:36:59.0000000+00:00</time></trkpt><trkpt lat="30.7979854" lon="35.6973604"><ele>1292.4</ele><time>2015-11-22T13:37:01.0000000+00:00</time></trkpt><trkpt lat="30.7979724" lon="35.6974326"><ele>1291.9</ele><time>2015-11-22T13:37:03.0000000+00:00</time></trkpt><trkpt lat="30.7979541" lon="35.6975122"><ele>1291.8</ele><time>2015-11-22T13:37:05.0000000+00:00</time></trkpt><trkpt lat="30.7979365" lon="35.6975985"><ele>1291.5</ele><time>2015-11-22T13:37:07.0000000+00:00</time></trkpt><trkpt lat="30.7979196" lon="35.6976919"><ele>1291.4</ele><time>2015-11-22T13:37:09.0000000+00:00</time></trkpt><trkpt lat="30.7979031" lon="35.6977885"><ele>1291.4</ele><time>2015-11-22T13:37:11.0000000+00:00</time></trkpt><trkpt lat="30.7978843" lon="35.697888"><ele>1290.2</ele><time>2015-11-22T13:37:13.0000000+00:00</time></trkpt><trkpt lat="30.7978674" lon="35.6979869"><ele>1290.3</ele><time>2015-11-22T13:37:15.0000000+00:00</time></trkpt><trkpt lat="30.79785" lon="35.6980867"><ele>1289.9</ele><time>2015-11-22T13:37:17.0000000+00:00</time></trkpt><trkpt lat="30.7978411" lon="35.6981388"><ele>1289.6</ele><time>2015-11-22T13:37:18.0000000+00:00</time></trkpt><trkpt lat="30.7978314" lon="35.6981912"><ele>1289.5</ele><time>2015-11-22T13:37:19.0000000+00:00</time></trkpt><trkpt lat="30.7978206" lon="35.6982432"><ele>1289.5</ele><time>2015-11-22T13:37:20.0000000+00:00</time></trkpt><trkpt lat="30.7978078" lon="35.6983238"><ele>1289.4</ele><time>2015-11-22T13:37:21.0000000+00:00</time></trkpt><trkpt lat="30.7977937" lon="35.6983747"><ele>1289.4</ele><time>2015-11-22T13:37:22.0000000+00:00</time></trkpt><trkpt lat="30.7977838" lon="35.6984313"><ele>1288.9</ele><time>2015-11-22T13:37:23.0000000+00:00</time></trkpt><trkpt lat="30.7977748" lon="35.6984907"><ele>1288.7</ele><time>2015-11-22T13:37:24.0000000+00:00</time></trkpt><trkpt lat="30.7977676" lon="35.698551"><ele>1288.5</ele><time>2015-11-22T13:37:25.0000000+00:00</time></trkpt><trkpt lat="30.7977496" lon="35.6986574"><ele>1288.4</ele><time>2015-11-22T13:37:27.0000000+00:00</time></trkpt><trkpt lat="30.7977392" lon="35.6987275"><ele>1287.9</ele><time>2015-11-22T13:37:28.0000000+00:00</time></trkpt><trkpt lat="30.7977288" lon="35.6987814"><ele>1287.7</ele><time>2015-11-22T13:37:29.0000000+00:00</time></trkpt><trkpt lat="30.7977166" lon="35.6988417"><ele>1287.0</ele><time>2015-11-22T13:37:30.0000000+00:00</time></trkpt><trkpt lat="30.797705" lon="35.698898"><ele>1287.2</ele><time>2015-11-22T13:37:31.0000000+00:00</time></trkpt><trkpt lat="30.7976989" lon="35.6989537"><ele>1287.3</ele><time>2015-11-22T13:37:32.0000000+00:00</time></trkpt><trkpt lat="30.7976887" lon="35.6990108"><ele>1287.4</ele><time>2015-11-22T13:37:33.0000000+00:00</time></trkpt><trkpt lat="30.7976748" lon="35.6990735"><ele>1287.4</ele><time>2015-11-22T13:37:34.0000000+00:00</time></trkpt><trkpt lat="30.7976681" lon="35.6991403"><ele>1287.4</ele><time>2015-11-22T13:37:35.0000000+00:00</time></trkpt><trkpt lat="30.797655" lon="35.6992099"><ele>1287.4</ele><time>2015-11-22T13:37:36.0000000+00:00</time></trkpt><trkpt lat="30.7976388" lon="35.6992742"><ele>1286.9</ele><time>2015-11-22T13:37:37.0000000+00:00</time></trkpt><trkpt lat="30.7976214" lon="35.6993303"><ele>1286.6</ele><time>2015-11-22T13:37:38.0000000+00:00</time></trkpt><trkpt lat="30.7976097" lon="35.6993957"><ele>1286.0</ele><time>2015-11-22T13:37:39.0000000+00:00</time></trkpt><trkpt lat="30.7975966" lon="35.6994654"><ele>1285.7</ele><time>2015-11-22T13:37:40.0000000+00:00</time></trkpt><trkpt lat="30.797582" lon="35.6995341"><ele>1285.1</ele><time>2015-11-22T13:37:41.0000000+00:00</time></trkpt><trkpt lat="30.7975639" lon="35.6996048"><ele>1284.7</ele><time>2015-11-22T13:37:42.0000000+00:00</time></trkpt><trkpt lat="30.7975469" lon="35.6996775"><ele>1285.1</ele><time>2015-11-22T13:37:43.0000000+00:00</time></trkpt><trkpt lat="30.7975375" lon="35.6997547"><ele>1285.2</ele><time>2015-11-22T13:37:44.0000000+00:00</time></trkpt><trkpt lat="30.797524" lon="35.6998266"><ele>1285.3</ele><time>2015-11-22T13:37:45.0000000+00:00</time></trkpt><trkpt lat="30.7975179" lon="35.6998946"><ele>1284.9</ele><time>2015-11-22T13:37:46.0000000+00:00</time></trkpt><trkpt lat="30.7975092" lon="35.6999693"><ele>1284.1</ele><time>2015-11-22T13:37:47.0000000+00:00</time></trkpt><trkpt lat="30.7974911" lon="35.700049"><ele>1284.3</ele><time>2015-11-22T13:37:48.0000000+00:00</time></trkpt><trkpt lat="30.7974746" lon="35.7001233"><ele>1284.3</ele><time>2015-11-22T13:37:49.0000000+00:00</time></trkpt><trkpt lat="30.7974586" lon="35.7002038"><ele>1284.4</ele><time>2015-11-22T13:37:50.0000000+00:00</time></trkpt><trkpt lat="30.7974478" lon="35.7002789"><ele>1284.4</ele><time>2015-11-22T13:37:51.0000000+00:00</time></trkpt><trkpt lat="30.7974372" lon="35.7003576"><ele>1284.4</ele><time>2015-11-22T13:37:52.0000000+00:00</time></trkpt><trkpt lat="30.7974209" lon="35.7004319"><ele>1284.9</ele><time>2015-11-22T13:37:53.0000000+00:00</time></trkpt><trkpt lat="30.7974036" lon="35.700507"><ele>1285.6</ele><time>2015-11-22T13:37:54.0000000+00:00</time></trkpt><trkpt lat="30.7973878" lon="35.7005766"><ele>1286.0</ele><time>2015-11-22T13:37:55.0000000+00:00</time></trkpt><trkpt lat="30.7973808" lon="35.7006515"><ele>1286.2</ele><time>2015-11-22T13:37:56.0000000+00:00</time></trkpt><trkpt lat="30.7973727" lon="35.700726"><ele>1286.3</ele><time>2015-11-22T13:37:57.0000000+00:00</time></trkpt><trkpt lat="30.7973654" lon="35.7008003"><ele>1286.4</ele><time>2015-11-22T13:37:58.0000000+00:00</time></trkpt><trkpt lat="30.7973659" lon="35.7008775"><ele>1286.4</ele><time>2015-11-22T13:37:59.0000000+00:00</time></trkpt><trkpt lat="30.7973536" lon="35.7009511"><ele>1286.4</ele><time>2015-11-22T13:38:00.0000000+00:00</time></trkpt><trkpt lat="30.7973452" lon="35.7010248"><ele>1285.9</ele><time>2015-11-22T13:38:01.0000000+00:00</time></trkpt><trkpt lat="30.7973403" lon="35.7010989"><ele>1285.6</ele><time>2015-11-22T13:38:02.0000000+00:00</time></trkpt><trkpt lat="30.7973352" lon="35.7011794"><ele>1285.5</ele><time>2015-11-22T13:38:03.0000000+00:00</time></trkpt><trkpt lat="30.797334" lon="35.7012516"><ele>1285.5</ele><time>2015-11-22T13:38:04.0000000+00:00</time></trkpt><trkpt lat="30.7973258" lon="35.701332"><ele>1285.4</ele><time>2015-11-22T13:38:05.0000000+00:00</time></trkpt><trkpt lat="30.7973203" lon="35.7014213"><ele>1284.9</ele><time>2015-11-22T13:38:06.0000000+00:00</time></trkpt><trkpt lat="30.7973251" lon="35.7014981"><ele>1285.2</ele><time>2015-11-22T13:38:07.0000000+00:00</time></trkpt><trkpt lat="30.7973267" lon="35.7015784"><ele>1285.3</ele><time>2015-11-22T13:38:08.0000000+00:00</time></trkpt><trkpt lat="30.7973314" lon="35.7016578"><ele>1285.3</ele><time>2015-11-22T13:38:09.0000000+00:00</time></trkpt><trkpt lat="30.7973331" lon="35.7017376"><ele>1285.4</ele><time>2015-11-22T13:38:10.0000000+00:00</time></trkpt><trkpt lat="30.797337" lon="35.7018188"><ele>1285.4</ele><time>2015-11-22T13:38:11.0000000+00:00</time></trkpt><trkpt lat="30.7973426" lon="35.7019036"><ele>1285.4</ele><time>2015-11-22T13:38:12.0000000+00:00</time></trkpt><trkpt lat="30.7973404" lon="35.7019892"><ele>1284.9</ele><time>2015-11-22T13:38:13.0000000+00:00</time></trkpt><trkpt lat="30.7973467" lon="35.7020751"><ele>1284.6</ele><time>2015-11-22T13:38:14.0000000+00:00</time></trkpt><trkpt lat="30.7973448" lon="35.7021574"><ele>1285.0</ele><time>2015-11-22T13:38:15.0000000+00:00</time></trkpt><trkpt lat="30.7973389" lon="35.7022411"><ele>1285.2</ele><time>2015-11-22T13:38:16.0000000+00:00</time></trkpt><trkpt lat="30.7973446" lon="35.7023208"><ele>1284.8</ele><time>2015-11-22T13:38:17.0000000+00:00</time></trkpt><trkpt lat="30.7973532" lon="35.7024002"><ele>1284.1</ele><time>2015-11-22T13:38:18.0000000+00:00</time></trkpt><trkpt lat="30.7973406" lon="35.70248"><ele>1283.8</ele><time>2015-11-22T13:38:19.0000000+00:00</time></trkpt><trkpt lat="30.7973333" lon="35.7025649"><ele>1284.1</ele><time>2015-11-22T13:38:20.0000000+00:00</time></trkpt><trkpt lat="30.7973223" lon="35.7026366"><ele>1284.2</ele><time>2015-11-22T13:38:21.0000000+00:00</time></trkpt><trkpt lat="30.7973118" lon="35.7027059"><ele>1284.3</ele><time>2015-11-22T13:38:22.0000000+00:00</time></trkpt><trkpt lat="30.7972991" lon="35.702778"><ele>1284.9</ele><time>2015-11-22T13:38:23.0000000+00:00</time></trkpt><trkpt lat="30.7972825" lon="35.7028489"><ele>1285.1</ele><time>2015-11-22T13:38:24.0000000+00:00</time></trkpt><trkpt lat="30.7972681" lon="35.7029156"><ele>1285.3</ele><time>2015-11-22T13:38:25.0000000+00:00</time></trkpt><trkpt lat="30.7972456" lon="35.7029892"><ele>1285.3</ele><time>2015-11-22T13:38:26.0000000+00:00</time></trkpt><trkpt lat="30.7972276" lon="35.7030608"><ele>1285.4</ele><time>2015-11-22T13:38:27.0000000+00:00</time></trkpt><trkpt lat="30.7972137" lon="35.7031258"><ele>1285.4</ele><time>2015-11-22T13:38:28.0000000+00:00</time></trkpt><trkpt lat="30.7971893" lon="35.7031912"><ele>1285.4</ele><time>2015-11-22T13:38:29.0000000+00:00</time></trkpt><trkpt lat="30.7971602" lon="35.7032596"><ele>1284.9</ele><time>2015-11-22T13:38:30.0000000+00:00</time></trkpt><trkpt lat="30.797136" lon="35.7033347"><ele>1284.6</ele><time>2015-11-22T13:38:31.0000000+00:00</time></trkpt><trkpt lat="30.7971189" lon="35.703396"><ele>1284.5</ele><time>2015-11-22T13:38:32.0000000+00:00</time></trkpt><trkpt lat="30.7970994" lon="35.7034598"><ele>1284.5</ele><time>2015-11-22T13:38:33.0000000+00:00</time></trkpt><trkpt lat="30.7970762" lon="35.7035176"><ele>1284.4</ele><time>2015-11-22T13:38:34.0000000+00:00</time></trkpt><trkpt lat="30.7970564" lon="35.7035774"><ele>1284.9</ele><time>2015-11-22T13:38:35.0000000+00:00</time></trkpt><trkpt lat="30.7970371" lon="35.7036318"><ele>1284.7</ele><time>2015-11-22T13:38:36.0000000+00:00</time></trkpt><trkpt lat="30.7970208" lon="35.7036965"><ele>1284.5</ele><time>2015-11-22T13:38:37.0000000+00:00</time></trkpt><trkpt lat="30.7970079" lon="35.7037523"><ele>1285.0</ele><time>2015-11-22T13:38:38.0000000+00:00</time></trkpt><trkpt lat="30.796993" lon="35.7038542"><ele>1284.5</ele><time>2015-11-22T13:38:40.0000000+00:00</time></trkpt><trkpt lat="30.7969826" lon="35.7039356"><ele>1284.4</ele><time>2015-11-22T13:38:42.0000000+00:00</time></trkpt><trkpt lat="30.7969827" lon="35.7040175"><ele>1283.7</ele><time>2015-11-22T13:38:44.0000000+00:00</time></trkpt><trkpt lat="30.7969918" lon="35.7040958"><ele>1283.0</ele><time>2015-11-22T13:38:46.0000000+00:00</time></trkpt><trkpt lat="30.7969855" lon="35.7041575"><ele>1281.8</ele><time>2015-11-22T13:38:48.0000000+00:00</time></trkpt><trkpt lat="30.7969782" lon="35.7042269"><ele>1280.1</ele><time>2015-11-22T13:38:51.0000000+00:00</time></trkpt><trkpt lat="30.7969714" lon="35.7042948"><ele>1279.9</ele><time>2015-11-22T13:38:54.0000000+00:00</time></trkpt><trkpt lat="30.7969504" lon="35.7043411"><ele>1279.9</ele><time>2015-11-22T13:39:21.0000000+00:00</time></trkpt><trkpt lat="30.7969487" lon="35.7044096"><ele>1280.3</ele><time>2015-11-22T13:39:23.0000000+00:00</time></trkpt><trkpt lat="30.7969489" lon="35.7044928"><ele>1280.4</ele><time>2015-11-22T13:39:25.0000000+00:00</time></trkpt><trkpt lat="30.796951" lon="35.7045936"><ele>1279.6</ele><time>2015-11-22T13:39:27.0000000+00:00</time></trkpt><trkpt lat="30.7969625" lon="35.7046932"><ele>1279.0</ele><time>2015-11-22T13:39:28.0000000+00:00</time></trkpt><trkpt lat="30.7969648" lon="35.704759"><ele>1278.2</ele><time>2015-11-22T13:39:29.0000000+00:00</time></trkpt><trkpt lat="30.7969668" lon="35.7048278"><ele>1277.8</ele><time>2015-11-22T13:39:30.0000000+00:00</time></trkpt><trkpt lat="30.796967" lon="35.7048987"><ele>1277.1</ele><time>2015-11-22T13:39:31.0000000+00:00</time></trkpt><trkpt lat="30.7969712" lon="35.7049802"><ele>1276.3</ele><time>2015-11-22T13:39:32.0000000+00:00</time></trkpt><trkpt lat="30.7969725" lon="35.7050669"><ele>1275.8</ele><time>2015-11-22T13:39:33.0000000+00:00</time></trkpt><trkpt lat="30.7969737" lon="35.7051529"><ele>1275.1</ele><time>2015-11-22T13:39:34.0000000+00:00</time></trkpt><trkpt lat="30.796976" lon="35.7052464"><ele>1274.8</ele><time>2015-11-22T13:39:35.0000000+00:00</time></trkpt><trkpt lat="30.7969727" lon="35.7053511"><ele>1274.1</ele><time>2015-11-22T13:39:36.0000000+00:00</time></trkpt><trkpt lat="30.7969586" lon="35.7054506"><ele>1273.7</ele><time>2015-11-22T13:39:37.0000000+00:00</time></trkpt><trkpt lat="30.7969509" lon="35.705557"><ele>1273.1</ele><time>2015-11-22T13:39:38.0000000+00:00</time></trkpt><trkpt lat="30.7969385" lon="35.7056582"><ele>1271.7</ele><time>2015-11-22T13:39:39.0000000+00:00</time></trkpt><trkpt lat="30.796922" lon="35.7057688"><ele>1271.1</ele><time>2015-11-22T13:39:40.0000000+00:00</time></trkpt><trkpt lat="30.796912" lon="35.7058952"><ele>1270.2</ele><time>2015-11-22T13:39:41.0000000+00:00</time></trkpt><trkpt lat="30.796904" lon="35.7060067"><ele>1269.8</ele><time>2015-11-22T13:39:42.0000000+00:00</time></trkpt><trkpt lat="30.7968848" lon="35.7061218"><ele>1269.1</ele><time>2015-11-22T13:39:43.0000000+00:00</time></trkpt><trkpt lat="30.7968729" lon="35.7062341"><ele>1268.8</ele><time>2015-11-22T13:39:44.0000000+00:00</time></trkpt><trkpt lat="30.7968607" lon="35.7063479"><ele>1268.6</ele><time>2015-11-22T13:39:45.0000000+00:00</time></trkpt><trkpt lat="30.7968482" lon="35.7064677"><ele>1267.5</ele><time>2015-11-22T13:39:46.0000000+00:00</time></trkpt><trkpt lat="30.7968384" lon="35.7065885"><ele>1266.9</ele><time>2015-11-22T13:39:47.0000000+00:00</time></trkpt><trkpt lat="30.796823" lon="35.7067044"><ele>1266.2</ele><time>2015-11-22T13:39:48.0000000+00:00</time></trkpt><trkpt lat="30.7968047" lon="35.7068322"><ele>1265.8</ele><time>2015-11-22T13:39:49.0000000+00:00</time></trkpt><trkpt lat="30.7967857" lon="35.7069578"><ele>1264.6</ele><time>2015-11-22T13:39:50.0000000+00:00</time></trkpt><trkpt lat="30.7967743" lon="35.7070669"><ele>1263.5</ele><time>2015-11-22T13:39:51.0000000+00:00</time></trkpt><trkpt lat="30.7967578" lon="35.7071948"><ele>1262.9</ele><time>2015-11-22T13:39:52.0000000+00:00</time></trkpt><trkpt lat="30.796741" lon="35.7073264"><ele>1262.2</ele><time>2015-11-22T13:39:53.0000000+00:00</time></trkpt><trkpt lat="30.7967259" lon="35.7074491"><ele>1261.3</ele><time>2015-11-22T13:39:54.0000000+00:00</time></trkpt><trkpt lat="30.7967177" lon="35.7075758"><ele>1259.8</ele><time>2015-11-22T13:39:55.0000000+00:00</time></trkpt><trkpt lat="30.7966952" lon="35.7077064"><ele>1259.1</ele><time>2015-11-22T13:39:56.0000000+00:00</time></trkpt><trkpt lat="30.7966817" lon="35.7078319"><ele>1258.3</ele><time>2015-11-22T13:39:57.0000000+00:00</time></trkpt><trkpt lat="30.7966609" lon="35.7079663"><ele>1257.3</ele><time>2015-11-22T13:39:58.0000000+00:00</time></trkpt><trkpt lat="30.7966441" lon="35.7080993"><ele>1256.4</ele><time>2015-11-22T13:39:59.0000000+00:00</time></trkpt><trkpt lat="30.7966232" lon="35.7082322"><ele>1255.9</ele><time>2015-11-22T13:40:00.0000000+00:00</time></trkpt><trkpt lat="30.7966012" lon="35.7083703"><ele>1255.1</ele><time>2015-11-22T13:40:01.0000000+00:00</time></trkpt><trkpt lat="30.796586" lon="35.7085075"><ele>1254.8</ele><time>2015-11-22T13:40:02.0000000+00:00</time></trkpt><trkpt lat="30.7965824" lon="35.7086554"><ele>1254.1</ele><time>2015-11-22T13:40:03.0000000+00:00</time></trkpt><trkpt lat="30.7965668" lon="35.7087989"><ele>1253.7</ele><time>2015-11-22T13:40:04.0000000+00:00</time></trkpt><trkpt lat="30.7965441" lon="35.7089357"><ele>1253.6</ele><time>2015-11-22T13:40:05.0000000+00:00</time></trkpt><trkpt lat="30.7965256" lon="35.7090706"><ele>1253.5</ele><time>2015-11-22T13:40:06.0000000+00:00</time></trkpt><trkpt lat="30.7965067" lon="35.7092036"><ele>1253.4</ele><time>2015-11-22T13:40:07.0000000+00:00</time></trkpt><trkpt lat="30.796483" lon="35.7093361"><ele>1253.9</ele><time>2015-11-22T13:40:08.0000000+00:00</time></trkpt><trkpt lat="30.7964598" lon="35.7094648"><ele>1254.2</ele><time>2015-11-22T13:40:09.0000000+00:00</time></trkpt><trkpt lat="30.7964366" lon="35.7095884"><ele>1254.3</ele><time>2015-11-22T13:40:10.0000000+00:00</time></trkpt><trkpt lat="30.7964231" lon="35.7096991"><ele>1254.3</ele><time>2015-11-22T13:40:11.0000000+00:00</time></trkpt><trkpt lat="30.7964153" lon="35.7098104"><ele>1255.4</ele><time>2015-11-22T13:40:12.0000000+00:00</time></trkpt><trkpt lat="30.7964056" lon="35.7099057"><ele>1255.9</ele><time>2015-11-22T13:40:13.0000000+00:00</time></trkpt><trkpt lat="30.7963925" lon="35.7099993"><ele>1256.6</ele><time>2015-11-22T13:40:14.0000000+00:00</time></trkpt><trkpt lat="30.7963847" lon="35.710089"><ele>1257.0</ele><time>2015-11-22T13:40:15.0000000+00:00</time></trkpt><trkpt lat="30.7963712" lon="35.7101752"><ele>1257.2</ele><time>2015-11-22T13:40:16.0000000+00:00</time></trkpt><trkpt lat="30.7963613" lon="35.7102587"><ele>1257.8</ele><time>2015-11-22T13:40:17.0000000+00:00</time></trkpt><trkpt lat="30.7963485" lon="35.7103284"><ele>1258.6</ele><time>2015-11-22T13:40:18.0000000+00:00</time></trkpt><trkpt lat="30.7963385" lon="35.7104029"><ele>1259.0</ele><time>2015-11-22T13:40:19.0000000+00:00</time></trkpt><trkpt lat="30.796333" lon="35.710459"><ele>1259.2</ele><time>2015-11-22T13:40:20.0000000+00:00</time></trkpt><trkpt lat="30.796328" lon="35.7105166"><ele>1259.3</ele><time>2015-11-22T13:40:21.0000000+00:00</time></trkpt><trkpt lat="30.7963258" lon="35.7105706"><ele>1259.8</ele><time>2015-11-22T13:40:22.0000000+00:00</time></trkpt><trkpt lat="30.7963172" lon="35.7106722"><ele>1260.3</ele><time>2015-11-22T13:40:24.0000000+00:00</time></trkpt><trkpt lat="30.7963016" lon="35.7107715"><ele>1261.6</ele><time>2015-11-22T13:40:26.0000000+00:00</time></trkpt><trkpt lat="30.7962939" lon="35.7108692"><ele>1262.7</ele><time>2015-11-22T13:40:28.0000000+00:00</time></trkpt><trkpt lat="30.7962793" lon="35.7109625"><ele>1262.5</ele><time>2015-11-22T13:40:30.0000000+00:00</time></trkpt><trkpt lat="30.7962624" lon="35.7110115"><ele>1262.4</ele><time>2015-11-22T13:40:31.0000000+00:00</time></trkpt><trkpt lat="30.7962449" lon="35.7110922"><ele>1262.4</ele><time>2015-11-22T13:40:33.0000000+00:00</time></trkpt><trkpt lat="30.796232" lon="35.7111713"><ele>1263.2</ele><time>2015-11-22T13:40:35.0000000+00:00</time></trkpt><trkpt lat="30.7962158" lon="35.7112477"><ele>1262.8</ele><time>2015-11-22T13:40:37.0000000+00:00</time></trkpt><trkpt lat="30.7961994" lon="35.7113227"><ele>1262.0</ele><time>2015-11-22T13:40:39.0000000+00:00</time></trkpt><trkpt lat="30.7961823" lon="35.7113976"><ele>1261.1</ele><time>2015-11-22T13:40:41.0000000+00:00</time></trkpt><trkpt lat="30.7961616" lon="35.7114699"><ele>1259.8</ele><time>2015-11-22T13:40:43.0000000+00:00</time></trkpt><trkpt lat="30.7961401" lon="35.7115428"><ele>1259.5</ele><time>2015-11-22T13:40:45.0000000+00:00</time></trkpt><trkpt lat="30.7961172" lon="35.7116212"><ele>1259.4</ele><time>2015-11-22T13:40:47.0000000+00:00</time></trkpt><trkpt lat="30.7960922" lon="35.7116999"><ele>1259.4</ele><time>2015-11-22T13:40:49.0000000+00:00</time></trkpt><trkpt lat="30.7960664" lon="35.711772"><ele>1259.9</ele><time>2015-11-22T13:40:51.0000000+00:00</time></trkpt><trkpt lat="30.7960454" lon="35.7118439"><ele>1259.8</ele><time>2015-11-22T13:40:53.0000000+00:00</time></trkpt><trkpt lat="30.7960282" lon="35.7119011"><ele>1260.0</ele><time>2015-11-22T13:40:55.0000000+00:00</time></trkpt><trkpt lat="30.7960024" lon="35.7119618"><ele>1260.3</ele><time>2015-11-22T13:40:58.0000000+00:00</time></trkpt><trkpt lat="30.7959794" lon="35.7120228"><ele>1260.3</ele><time>2015-11-22T13:41:01.0000000+00:00</time></trkpt><trkpt lat="30.7959651" lon="35.7120817"><ele>1258.4</ele><time>2015-11-22T13:41:03.0000000+00:00</time></trkpt><trkpt lat="30.7959466" lon="35.7121322"><ele>1256.9</ele><time>2015-11-22T13:41:05.0000000+00:00</time></trkpt><trkpt lat="30.7959295" lon="35.7121888"><ele>1252.0</ele><time>2015-11-22T13:41:32.0000000+00:00</time></trkpt><trkpt lat="30.7959187" lon="35.7122454"><ele>1252.9</ele><time>2015-11-22T13:41:35.0000000+00:00</time></trkpt><trkpt lat="30.7958954" lon="35.7123228"><ele>1252.6</ele><time>2015-11-22T13:41:38.0000000+00:00</time></trkpt><trkpt lat="30.7958709" lon="35.7124124"><ele>1251.9</ele><time>2015-11-22T13:41:40.0000000+00:00</time></trkpt><trkpt lat="30.7958615" lon="35.7124644"><ele>1252.2</ele><time>2015-11-22T13:41:41.0000000+00:00</time></trkpt><trkpt lat="30.7958523" lon="35.7125581"><ele>1251.8</ele><time>2015-11-22T13:41:42.0000000+00:00</time></trkpt><trkpt lat="30.7958408" lon="35.7126153"><ele>1252.1</ele><time>2015-11-22T13:41:43.0000000+00:00</time></trkpt><trkpt lat="30.7958329" lon="35.7126788"><ele>1251.7</ele><time>2015-11-22T13:41:44.0000000+00:00</time></trkpt><trkpt lat="30.7958313" lon="35.7127402"><ele>1251.1</ele><time>2015-11-22T13:41:45.0000000+00:00</time></trkpt><trkpt lat="30.7958224" lon="35.7128209"><ele>1250.2</ele><time>2015-11-22T13:41:46.0000000+00:00</time></trkpt><trkpt lat="30.7958133" lon="35.7128929"><ele>1249.8</ele><time>2015-11-22T13:41:47.0000000+00:00</time></trkpt><trkpt lat="30.7958156" lon="35.7129697"><ele>1249.6</ele><time>2015-11-22T13:41:48.0000000+00:00</time></trkpt><trkpt lat="30.7958305" lon="35.7130403"><ele>1248.5</ele><time>2015-11-22T13:41:49.0000000+00:00</time></trkpt><trkpt lat="30.7958331" lon="35.7131171"><ele>1248.0</ele><time>2015-11-22T13:41:50.0000000+00:00</time></trkpt><trkpt lat="30.7958417" lon="35.713198"><ele>1247.7</ele><time>2015-11-22T13:41:51.0000000+00:00</time></trkpt><trkpt lat="30.7958573" lon="35.7132812"><ele>1247.0</ele><time>2015-11-22T13:41:52.0000000+00:00</time></trkpt><trkpt lat="30.7958748" lon="35.7133744"><ele>1247.2</ele><time>2015-11-22T13:41:53.0000000+00:00</time></trkpt><trkpt lat="30.7959018" lon="35.7134665"><ele>1247.3</ele><time>2015-11-22T13:41:54.0000000+00:00</time></trkpt><trkpt lat="30.7959331" lon="35.7135631"><ele>1246.9</ele><time>2015-11-22T13:41:55.0000000+00:00</time></trkpt><trkpt lat="30.7959628" lon="35.7136504"><ele>1246.6</ele><time>2015-11-22T13:41:56.0000000+00:00</time></trkpt><trkpt lat="30.7959991" lon="35.7137528"><ele>1246.0</ele><time>2015-11-22T13:41:57.0000000+00:00</time></trkpt><trkpt lat="30.7960474" lon="35.7138364"><ele>1245.7</ele><time>2015-11-22T13:41:58.0000000+00:00</time></trkpt><trkpt lat="30.7961025" lon="35.7139137"><ele>1245.1</ele><time>2015-11-22T13:41:59.0000000+00:00</time></trkpt><trkpt lat="30.7961565" lon="35.7140002"><ele>1244.7</ele><time>2015-11-22T13:42:00.0000000+00:00</time></trkpt><trkpt lat="30.7962197" lon="35.7140781"><ele>1244.1</ele><time>2015-11-22T13:42:01.0000000+00:00</time></trkpt><trkpt lat="30.796289" lon="35.7141629"><ele>1243.7</ele><time>2015-11-22T13:42:02.0000000+00:00</time></trkpt><trkpt lat="30.7963584" lon="35.7142371"><ele>1243.1</ele><time>2015-11-22T13:42:03.0000000+00:00</time></trkpt><trkpt lat="30.7964308" lon="35.7143117"><ele>1242.2</ele><time>2015-11-22T13:42:04.0000000+00:00</time></trkpt><trkpt lat="30.796506" lon="35.7143843"><ele>1241.8</ele><time>2015-11-22T13:42:05.0000000+00:00</time></trkpt><trkpt lat="30.7965892" lon="35.7144666"><ele>1241.6</ele><time>2015-11-22T13:42:06.0000000+00:00</time></trkpt><trkpt lat="30.7966643" lon="35.7145531"><ele>1242.0</ele><time>2015-11-22T13:42:07.0000000+00:00</time></trkpt><trkpt lat="30.7967386" lon="35.7146348"><ele>1241.7</ele><time>2015-11-22T13:42:08.0000000+00:00</time></trkpt><trkpt lat="30.7968165" lon="35.7147245"><ele>1241.1</ele><time>2015-11-22T13:42:09.0000000+00:00</time></trkpt><trkpt lat="30.796896" lon="35.7148109"><ele>1240.2</ele><time>2015-11-22T13:42:10.0000000+00:00</time></trkpt><trkpt lat="30.7969734" lon="35.7148932"><ele>1238.8</ele><time>2015-11-22T13:42:11.0000000+00:00</time></trkpt><trkpt lat="30.7970549" lon="35.7149663"><ele>1237.1</ele><time>2015-11-22T13:42:12.0000000+00:00</time></trkpt><trkpt lat="30.7971317" lon="35.7150509"><ele>1236.3</ele><time>2015-11-22T13:42:13.0000000+00:00</time></trkpt><trkpt lat="30.7971969" lon="35.7151426"><ele>1235.3</ele><time>2015-11-22T13:42:14.0000000+00:00</time></trkpt><trkpt lat="30.7972573" lon="35.7152346"><ele>1234.4</ele><time>2015-11-22T13:42:15.0000000+00:00</time></trkpt><trkpt lat="30.7973099" lon="35.7153486"><ele>1232.9</ele><time>2015-11-22T13:42:16.0000000+00:00</time></trkpt><trkpt lat="30.7973576" lon="35.7154628"><ele>1232.1</ele><time>2015-11-22T13:42:17.0000000+00:00</time></trkpt><trkpt lat="30.7973934" lon="35.715571"><ele>1231.3</ele><time>2015-11-22T13:42:18.0000000+00:00</time></trkpt><trkpt lat="30.7974278" lon="35.7156859"><ele>1230.8</ele><time>2015-11-22T13:42:19.0000000+00:00</time></trkpt><trkpt lat="30.7974414" lon="35.7158072"><ele>1231.1</ele><time>2015-11-22T13:42:20.0000000+00:00</time></trkpt><trkpt lat="30.7974446" lon="35.7159226"><ele>1230.8</ele><time>2015-11-22T13:42:21.0000000+00:00</time></trkpt><trkpt lat="30.7974418" lon="35.7160386"><ele>1230.6</ele><time>2015-11-22T13:42:22.0000000+00:00</time></trkpt><trkpt lat="30.7974333" lon="35.7161615"><ele>1230.0</ele><time>2015-11-22T13:42:23.0000000+00:00</time></trkpt><trkpt lat="30.7974106" lon="35.7162817"><ele>1228.7</ele><time>2015-11-22T13:42:24.0000000+00:00</time></trkpt><trkpt lat="30.797382" lon="35.7163952"><ele>1227.5</ele><time>2015-11-22T13:42:25.0000000+00:00</time></trkpt><trkpt lat="30.7973578" lon="35.716524"><ele>1226.5</ele><time>2015-11-22T13:42:26.0000000+00:00</time></trkpt><trkpt lat="30.7973282" lon="35.7166581"><ele>1225.9</ele><time>2015-11-22T13:42:27.0000000+00:00</time></trkpt><trkpt lat="30.7973042" lon="35.7167897"><ele>1224.7</ele><time>2015-11-22T13:42:28.0000000+00:00</time></trkpt><trkpt lat="30.7972726" lon="35.7169245"><ele>1224.0</ele><time>2015-11-22T13:42:29.0000000+00:00</time></trkpt><trkpt lat="30.7972381" lon="35.7170611"><ele>1223.7</ele><time>2015-11-22T13:42:30.0000000+00:00</time></trkpt><trkpt lat="30.7972175" lon="35.7171954"><ele>1223.1</ele><time>2015-11-22T13:42:31.0000000+00:00</time></trkpt><trkpt lat="30.7971925" lon="35.7173309"><ele>1222.2</ele><time>2015-11-22T13:42:32.0000000+00:00</time></trkpt><trkpt lat="30.7971561" lon="35.7174731"><ele>1220.8</ele><time>2015-11-22T13:42:33.0000000+00:00</time></trkpt><trkpt lat="30.7971296" lon="35.7176183"><ele>1219.6</ele><time>2015-11-22T13:42:34.0000000+00:00</time></trkpt><trkpt lat="30.797108" lon="35.7177461"><ele>1218.0</ele><time>2015-11-22T13:42:35.0000000+00:00</time></trkpt><trkpt lat="30.7970798" lon="35.7178976"><ele>1215.7</ele><time>2015-11-22T13:42:36.0000000+00:00</time></trkpt><trkpt lat="30.7970474" lon="35.7180407"><ele>1214.0</ele><time>2015-11-22T13:42:37.0000000+00:00</time></trkpt><trkpt lat="30.7970136" lon="35.718192"><ele>1212.2</ele><time>2015-11-22T13:42:38.0000000+00:00</time></trkpt><trkpt lat="30.7969729" lon="35.7183388"><ele>1210.8</ele><time>2015-11-22T13:42:39.0000000+00:00</time></trkpt><trkpt lat="30.7969304" lon="35.7184921"><ele>1209.1</ele><time>2015-11-22T13:42:40.0000000+00:00</time></trkpt><trkpt lat="30.7968846" lon="35.7186426"><ele>1207.8</ele><time>2015-11-22T13:42:41.0000000+00:00</time></trkpt><trkpt lat="30.7968396" lon="35.7188009"><ele>1206.6</ele><time>2015-11-22T13:42:42.0000000+00:00</time></trkpt><trkpt lat="30.796789" lon="35.7189587"><ele>1205.5</ele><time>2015-11-22T13:42:43.0000000+00:00</time></trkpt><trkpt lat="30.7967348" lon="35.7191212"><ele>1204.4</ele><time>2015-11-22T13:42:44.0000000+00:00</time></trkpt><trkpt lat="30.7966829" lon="35.7192849"><ele>1202.9</ele><time>2015-11-22T13:42:45.0000000+00:00</time></trkpt><trkpt lat="30.7966167" lon="35.7194572"><ele>1201.7</ele><time>2015-11-22T13:42:46.0000000+00:00</time></trkpt><trkpt lat="30.7965565" lon="35.7196304"><ele>1200.5</ele><time>2015-11-22T13:42:47.0000000+00:00</time></trkpt><trkpt lat="30.7964928" lon="35.7197987"><ele>1199.5</ele><time>2015-11-22T13:42:48.0000000+00:00</time></trkpt><trkpt lat="30.7964275" lon="35.7199728"><ele>1197.9</ele><time>2015-11-22T13:42:49.0000000+00:00</time></trkpt><trkpt lat="30.7963576" lon="35.7201462"><ele>1196.7</ele><time>2015-11-22T13:42:50.0000000+00:00</time></trkpt><trkpt lat="30.7962837" lon="35.7203146"><ele>1195.5</ele><time>2015-11-22T13:42:51.0000000+00:00</time></trkpt><trkpt lat="30.7962065" lon="35.7204841"><ele>1194.5</ele><time>2015-11-22T13:42:52.0000000+00:00</time></trkpt><trkpt lat="30.7961245" lon="35.7206533"><ele>1192.9</ele><time>2015-11-22T13:42:53.0000000+00:00</time></trkpt><trkpt lat="30.7960428" lon="35.720821"><ele>1191.7</ele><time>2015-11-22T13:42:54.0000000+00:00</time></trkpt><trkpt lat="30.7959559" lon="35.7209856"><ele>1190.5</ele><time>2015-11-22T13:42:55.0000000+00:00</time></trkpt><trkpt lat="30.7958684" lon="35.7211552"><ele>1189.0</ele><time>2015-11-22T13:42:56.0000000+00:00</time></trkpt><trkpt lat="30.7957723" lon="35.7213074"><ele>1187.7</ele><time>2015-11-22T13:42:57.0000000+00:00</time></trkpt><trkpt lat="30.7956771" lon="35.7214601"><ele>1187.0</ele><time>2015-11-22T13:42:58.0000000+00:00</time></trkpt><trkpt lat="30.7955728" lon="35.721593"><ele>1185.7</ele><time>2015-11-22T13:42:59.0000000+00:00</time></trkpt><trkpt lat="30.7954597" lon="35.7217155"><ele>1184.1</ele><time>2015-11-22T13:43:00.0000000+00:00</time></trkpt><trkpt lat="30.7953506" lon="35.7218426"><ele>1182.7</ele><time>2015-11-22T13:43:01.0000000+00:00</time></trkpt><trkpt lat="30.7952377" lon="35.7219607"><ele>1181.6</ele><time>2015-11-22T13:43:02.0000000+00:00</time></trkpt><trkpt lat="30.7951313" lon="35.722068"><ele>1180.5</ele><time>2015-11-22T13:43:03.0000000+00:00</time></trkpt><trkpt lat="30.795026" lon="35.7221886"><ele>1179.4</ele><time>2015-11-22T13:43:04.0000000+00:00</time></trkpt><trkpt lat="30.7949126" lon="35.7223107"><ele>1178.4</ele><time>2015-11-22T13:43:05.0000000+00:00</time></trkpt><trkpt lat="30.7948061" lon="35.7224186"><ele>1177.9</ele><time>2015-11-22T13:43:06.0000000+00:00</time></trkpt><trkpt lat="30.7947022" lon="35.7225283"><ele>1177.7</ele><time>2015-11-22T13:43:07.0000000+00:00</time></trkpt><trkpt lat="30.794605" lon="35.7226383"><ele>1177.0</ele><time>2015-11-22T13:43:08.0000000+00:00</time></trkpt><trkpt lat="30.7945077" lon="35.7227508"><ele>1176.7</ele><time>2015-11-22T13:43:09.0000000+00:00</time></trkpt><trkpt lat="30.7944167" lon="35.7228571"><ele>1176.1</ele><time>2015-11-22T13:43:10.0000000+00:00</time></trkpt><trkpt lat="30.7943248" lon="35.7229494"><ele>1175.7</ele><time>2015-11-22T13:43:11.0000000+00:00</time></trkpt><trkpt lat="30.7942298" lon="35.7230502"><ele>1175.1</ele><time>2015-11-22T13:43:12.0000000+00:00</time></trkpt><trkpt lat="30.7941366" lon="35.7231472"><ele>1174.2</ele><time>2015-11-22T13:43:13.0000000+00:00</time></trkpt><trkpt lat="30.7940354" lon="35.7232557"><ele>1173.8</ele><time>2015-11-22T13:43:14.0000000+00:00</time></trkpt><trkpt lat="30.7939409" lon="35.7233628"><ele>1173.1</ele><time>2015-11-22T13:43:15.0000000+00:00</time></trkpt><trkpt lat="30.7938451" lon="35.7234678"><ele>1172.8</ele><time>2015-11-22T13:43:16.0000000+00:00</time></trkpt><trkpt lat="30.7937413" lon="35.7235791"><ele>1172.1</ele><time>2015-11-22T13:43:17.0000000+00:00</time></trkpt><trkpt lat="30.7936438" lon="35.7236839"><ele>1171.2</ele><time>2015-11-22T13:43:18.0000000+00:00</time></trkpt><trkpt lat="30.7935449" lon="35.7237882"><ele>1170.3</ele><time>2015-11-22T13:43:19.0000000+00:00</time></trkpt><trkpt lat="30.7934461" lon="35.7238993"><ele>1169.9</ele><time>2015-11-22T13:43:20.0000000+00:00</time></trkpt><trkpt lat="30.7933523" lon="35.7240036"><ele>1169.6</ele><time>2015-11-22T13:43:21.0000000+00:00</time></trkpt><trkpt lat="30.7932559" lon="35.7240989"><ele>1169.0</ele><time>2015-11-22T13:43:22.0000000+00:00</time></trkpt><trkpt lat="30.7931634" lon="35.7241984"><ele>1169.2</ele><time>2015-11-22T13:43:23.0000000+00:00</time></trkpt><trkpt lat="30.7930798" lon="35.7242907"><ele>1169.3</ele><time>2015-11-22T13:43:24.0000000+00:00</time></trkpt><trkpt lat="30.7930035" lon="35.7243762"><ele>1169.9</ele><time>2015-11-22T13:43:25.0000000+00:00</time></trkpt><trkpt lat="30.7929313" lon="35.7244661"><ele>1170.6</ele><time>2015-11-22T13:43:26.0000000+00:00</time></trkpt><trkpt lat="30.792862" lon="35.724541"><ele>1171.5</ele><time>2015-11-22T13:43:27.0000000+00:00</time></trkpt><trkpt lat="30.7928036" lon="35.7246024"><ele>1172.5</ele><time>2015-11-22T13:43:28.0000000+00:00</time></trkpt><trkpt lat="30.792752" lon="35.7246591"><ele>1173.4</ele><time>2015-11-22T13:43:29.0000000+00:00</time></trkpt><trkpt lat="30.7927032" lon="35.724709"><ele>1173.9</ele><time>2015-11-22T13:43:30.0000000+00:00</time></trkpt><trkpt lat="30.7926567" lon="35.7247591"><ele>1174.7</ele><time>2015-11-22T13:43:31.0000000+00:00</time></trkpt><trkpt lat="30.792613" lon="35.7248057"><ele>1175.0</ele><time>2015-11-22T13:43:32.0000000+00:00</time></trkpt><trkpt lat="30.7925742" lon="35.7248434"><ele>1175.2</ele><time>2015-11-22T13:43:33.0000000+00:00</time></trkpt><trkpt lat="30.792538" lon="35.7248804"><ele>1175.8</ele><time>2015-11-22T13:43:34.0000000+00:00</time></trkpt><trkpt lat="30.7924676" lon="35.7249485"><ele>1176.3</ele><time>2015-11-22T13:43:36.0000000+00:00</time></trkpt><trkpt lat="30.7924205" lon="35.7249964"><ele>1176.4</ele><time>2015-11-22T13:43:38.0000000+00:00</time></trkpt><trkpt lat="30.7923787" lon="35.7250445"><ele>1177.6</ele><time>2015-11-22T13:43:40.0000000+00:00</time></trkpt><trkpt lat="30.7923418" lon="35.7250962"><ele>1177.5</ele><time>2015-11-22T13:43:42.0000000+00:00</time></trkpt><trkpt lat="30.792297" lon="35.7251232"><ele>1177.7</ele><time>2015-11-22T13:43:44.0000000+00:00</time></trkpt><trkpt lat="30.7922598" lon="35.7251602"><ele>1178.2</ele><time>2015-11-22T13:43:46.0000000+00:00</time></trkpt><trkpt lat="30.7922254" lon="35.7251945"><ele>1178.4</ele><time>2015-11-22T13:43:48.0000000+00:00</time></trkpt><trkpt lat="30.7921868" lon="35.7252251"><ele>1177.9</ele><time>2015-11-22T13:43:50.0000000+00:00</time></trkpt><trkpt lat="30.7921503" lon="35.7252591"><ele>1178.0</ele><time>2015-11-22T13:43:52.0000000+00:00</time></trkpt><trkpt lat="30.7921087" lon="35.7252914"><ele>1178.8</ele><time>2015-11-22T13:43:54.0000000+00:00</time></trkpt><trkpt lat="30.7920692" lon="35.7253317"><ele>1178.5</ele><time>2015-11-22T13:43:56.0000000+00:00</time></trkpt><trkpt lat="30.7920289" lon="35.7253664"><ele>1178.7</ele><time>2015-11-22T13:43:58.0000000+00:00</time></trkpt><trkpt lat="30.7919902" lon="35.7253991"><ele>1177.7</ele><time>2015-11-22T13:44:00.0000000+00:00</time></trkpt><trkpt lat="30.791937" lon="35.7254454"><ele>1177.4</ele><time>2015-11-22T13:44:03.0000000+00:00</time></trkpt><trkpt lat="30.7918993" lon="35.7254745"><ele>1176.2</ele><time>2015-11-22T13:44:05.0000000+00:00</time></trkpt><trkpt lat="30.7918647" lon="35.7255089"><ele>1176.1</ele><time>2015-11-22T13:44:07.0000000+00:00</time></trkpt><trkpt lat="30.7918277" lon="35.7255488"><ele>1175.3</ele><time>2015-11-22T13:44:09.0000000+00:00</time></trkpt><trkpt lat="30.7917822" lon="35.7255855"><ele>1174.9</ele><time>2015-11-22T13:44:11.0000000+00:00</time></trkpt><trkpt lat="30.7917298" lon="35.725627"><ele>1174.5</ele><time>2015-11-22T13:44:13.0000000+00:00</time></trkpt><trkpt lat="30.7916721" lon="35.7256745"><ele>1174.4</ele><time>2015-11-22T13:44:15.0000000+00:00</time></trkpt><trkpt lat="30.7916144" lon="35.7257209"><ele>1174.4</ele><time>2015-11-22T13:44:17.0000000+00:00</time></trkpt><trkpt lat="30.7915592" lon="35.7257648"><ele>1174.9</ele><time>2015-11-22T13:44:19.0000000+00:00</time></trkpt><trkpt lat="30.7915041" lon="35.7258127"><ele>1174.5</ele><time>2015-11-22T13:44:21.0000000+00:00</time></trkpt><trkpt lat="30.7914472" lon="35.7258662"><ele>1174.4</ele><time>2015-11-22T13:44:23.0000000+00:00</time></trkpt><trkpt lat="30.7913865" lon="35.7259212"><ele>1172.9</ele><time>2015-11-22T13:44:25.0000000+00:00</time></trkpt><trkpt lat="30.7913232" lon="35.7259797"><ele>1171.3</ele><time>2015-11-22T13:44:27.0000000+00:00</time></trkpt><trkpt lat="30.7912864" lon="35.7260106"><ele>1171.3</ele><time>2015-11-22T13:44:28.0000000+00:00</time></trkpt><trkpt lat="30.7912506" lon="35.7260433"><ele>1171.4</ele><time>2015-11-22T13:44:29.0000000+00:00</time></trkpt><trkpt lat="30.7911993" lon="35.7260951"><ele>1171.4</ele><time>2015-11-22T13:44:30.0000000+00:00</time></trkpt><trkpt lat="30.7911332" lon="35.7261586"><ele>1171.4</ele><time>2015-11-22T13:44:32.0000000+00:00</time></trkpt><trkpt lat="30.7910907" lon="35.7261935"><ele>1171.9</ele><time>2015-11-22T13:44:33.0000000+00:00</time></trkpt><trkpt lat="30.7910475" lon="35.7262269"><ele>1172.6</ele><time>2015-11-22T13:44:34.0000000+00:00</time></trkpt><trkpt lat="30.7910026" lon="35.726256"><ele>1173.0</ele><time>2015-11-22T13:44:35.0000000+00:00</time></trkpt><trkpt lat="30.7909638" lon="35.7262896"><ele>1173.2</ele><time>2015-11-22T13:44:36.0000000+00:00</time></trkpt><trkpt lat="30.7909199" lon="35.7263194"><ele>1173.3</ele><time>2015-11-22T13:44:37.0000000+00:00</time></trkpt><trkpt lat="30.7908841" lon="35.7263596"><ele>1173.4</ele><time>2015-11-22T13:44:38.0000000+00:00</time></trkpt><trkpt lat="30.7908564" lon="35.7264013"><ele>1173.4</ele><time>2015-11-22T13:44:39.0000000+00:00</time></trkpt><trkpt lat="30.7908148" lon="35.7264355"><ele>1173.4</ele><time>2015-11-22T13:44:40.0000000+00:00</time></trkpt><trkpt lat="30.7907718" lon="35.7264707"><ele>1173.4</ele><time>2015-11-22T13:44:41.0000000+00:00</time></trkpt><trkpt lat="30.7907248" lon="35.7265007"><ele>1173.4</ele><time>2015-11-22T13:44:42.0000000+00:00</time></trkpt><trkpt lat="30.790686" lon="35.7265312"><ele>1172.9</ele><time>2015-11-22T13:44:43.0000000+00:00</time></trkpt><trkpt lat="30.7906484" lon="35.7265626"><ele>1173.1</ele><time>2015-11-22T13:44:44.0000000+00:00</time></trkpt><trkpt lat="30.7906052" lon="35.7265937"><ele>1173.3</ele><time>2015-11-22T13:44:45.0000000+00:00</time></trkpt><trkpt lat="30.7905649" lon="35.7266261"><ele>1173.3</ele><time>2015-11-22T13:44:46.0000000+00:00</time></trkpt><trkpt lat="30.7904912" lon="35.7266891"><ele>1173.4</ele><time>2015-11-22T13:44:48.0000000+00:00</time></trkpt><trkpt lat="30.7904532" lon="35.7267262"><ele>1173.4</ele><time>2015-11-22T13:44:49.0000000+00:00</time></trkpt><trkpt lat="30.7903793" lon="35.7267898"><ele>1173.4</ele><time>2015-11-22T13:44:51.0000000+00:00</time></trkpt><trkpt lat="30.7903228" lon="35.7268563"><ele>1173.4</ele><time>2015-11-22T13:44:53.0000000+00:00</time></trkpt><trkpt lat="30.7902548" lon="35.7269229"><ele>1175.4</ele><time>2015-11-22T13:44:55.0000000+00:00</time></trkpt><trkpt lat="30.7902109" lon="35.7269525"><ele>1175.4</ele><time>2015-11-22T13:44:56.0000000+00:00</time></trkpt><trkpt lat="30.7901756" lon="35.726986"><ele>1175.4</ele><time>2015-11-22T13:44:57.0000000+00:00</time></trkpt><trkpt lat="30.7901132" lon="35.727049"><ele>1175.6</ele><time>2015-11-22T13:44:59.0000000+00:00</time></trkpt><trkpt lat="30.7900726" lon="35.7270808"><ele>1175.0</ele><time>2015-11-22T13:45:00.0000000+00:00</time></trkpt><trkpt lat="30.7900343" lon="35.7271155"><ele>1175.2</ele><time>2015-11-22T13:45:01.0000000+00:00</time></trkpt><trkpt lat="30.7899938" lon="35.7271584"><ele>1175.3</ele><time>2015-11-22T13:45:02.0000000+00:00</time></trkpt><trkpt lat="30.7899526" lon="35.7271916"><ele>1174.9</ele><time>2015-11-22T13:45:03.0000000+00:00</time></trkpt><trkpt lat="30.7899149" lon="35.7272241"><ele>1175.1</ele><time>2015-11-22T13:45:04.0000000+00:00</time></trkpt><trkpt lat="30.7898742" lon="35.7272568"><ele>1175.3</ele><time>2015-11-22T13:45:05.0000000+00:00</time></trkpt><trkpt lat="30.7898097" lon="35.7273192"><ele>1176.1</ele><time>2015-11-22T13:45:07.0000000+00:00</time></trkpt><trkpt lat="30.7897475" lon="35.7273702"><ele>1175.8</ele><time>2015-11-22T13:45:09.0000000+00:00</time></trkpt><trkpt lat="30.7897144" lon="35.727406"><ele>1175.6</ele><time>2015-11-22T13:45:10.0000000+00:00</time></trkpt><trkpt lat="30.7896388" lon="35.7274722"><ele>1174.7</ele><time>2015-11-22T13:45:12.0000000+00:00</time></trkpt><trkpt lat="30.7895722" lon="35.7275346"><ele>1174.5</ele><time>2015-11-22T13:45:14.0000000+00:00</time></trkpt><trkpt lat="30.789496" lon="35.7275958"><ele>1173.7</ele><time>2015-11-22T13:45:16.0000000+00:00</time></trkpt><trkpt lat="30.7894526" lon="35.7276285"><ele>1173.5</ele><time>2015-11-22T13:45:17.0000000+00:00</time></trkpt><trkpt lat="30.789408" lon="35.7276648"><ele>1173.5</ele><time>2015-11-22T13:45:18.0000000+00:00</time></trkpt><trkpt lat="30.7893668" lon="35.7277039"><ele>1173.9</ele><time>2015-11-22T13:45:19.0000000+00:00</time></trkpt><trkpt lat="30.7893292" lon="35.7277438"><ele>1174.7</ele><time>2015-11-22T13:45:20.0000000+00:00</time></trkpt><trkpt lat="30.7892924" lon="35.727776"><ele>1174.5</ele><time>2015-11-22T13:45:21.0000000+00:00</time></trkpt><trkpt lat="30.7892492" lon="35.7278078"><ele>1174.5</ele><time>2015-11-22T13:45:22.0000000+00:00</time></trkpt><trkpt lat="30.7892051" lon="35.7278355"><ele>1174.4</ele><time>2015-11-22T13:45:23.0000000+00:00</time></trkpt><trkpt lat="30.7891229" lon="35.7279054"><ele>1174.9</ele><time>2015-11-22T13:45:25.0000000+00:00</time></trkpt><trkpt lat="30.7890876" lon="35.7279487"><ele>1174.7</ele><time>2015-11-22T13:45:26.0000000+00:00</time></trkpt><trkpt lat="30.7890413" lon="35.7279908"><ele>1175.0</ele><time>2015-11-22T13:45:27.0000000+00:00</time></trkpt><trkpt lat="30.7889979" lon="35.7280286"><ele>1175.2</ele><time>2015-11-22T13:45:28.0000000+00:00</time></trkpt><trkpt lat="30.7889572" lon="35.7280627"><ele>1175.3</ele><time>2015-11-22T13:45:29.0000000+00:00</time></trkpt><trkpt lat="30.7889138" lon="35.7281017"><ele>1174.9</ele><time>2015-11-22T13:45:30.0000000+00:00</time></trkpt><trkpt lat="30.7888693" lon="35.7281345"><ele>1174.1</ele><time>2015-11-22T13:45:31.0000000+00:00</time></trkpt><trkpt lat="30.7887913" lon="35.7282178"><ele>1173.1</ele><time>2015-11-22T13:45:33.0000000+00:00</time></trkpt><trkpt lat="30.7887454" lon="35.7282549"><ele>1172.7</ele><time>2015-11-22T13:45:34.0000000+00:00</time></trkpt><trkpt lat="30.7886647" lon="35.7283282"><ele>1171.0</ele><time>2015-11-22T13:45:36.0000000+00:00</time></trkpt><trkpt lat="30.788613" lon="35.728366"><ele>1170.7</ele><time>2015-11-22T13:45:37.0000000+00:00</time></trkpt><trkpt lat="30.7885661" lon="35.7284087"><ele>1171.0</ele><time>2015-11-22T13:45:38.0000000+00:00</time></trkpt><trkpt lat="30.7885199" lon="35.7284451"><ele>1171.7</ele><time>2015-11-22T13:45:39.0000000+00:00</time></trkpt><trkpt lat="30.7884738" lon="35.7284824"><ele>1172.1</ele><time>2015-11-22T13:45:40.0000000+00:00</time></trkpt><trkpt lat="30.7884312" lon="35.7285215"><ele>1172.2</ele><time>2015-11-22T13:45:41.0000000+00:00</time></trkpt><trkpt lat="30.78839" lon="35.7285627"><ele>1172.3</ele><time>2015-11-22T13:45:42.0000000+00:00</time></trkpt><trkpt lat="30.7883464" lon="35.7286041"><ele>1171.9</ele><time>2015-11-22T13:45:43.0000000+00:00</time></trkpt><trkpt lat="30.7883058" lon="35.728636"><ele>1171.6</ele><time>2015-11-22T13:45:44.0000000+00:00</time></trkpt><trkpt lat="30.7882547" lon="35.7286811"><ele>1171.5</ele><time>2015-11-22T13:45:45.0000000+00:00</time></trkpt><trkpt lat="30.7882093" lon="35.728721"><ele>1171.5</ele><time>2015-11-22T13:45:46.0000000+00:00</time></trkpt><trkpt lat="30.7881602" lon="35.72876"><ele>1171.4</ele><time>2015-11-22T13:45:47.0000000+00:00</time></trkpt><trkpt lat="30.788115" lon="35.728801"><ele>1171.4</ele><time>2015-11-22T13:45:48.0000000+00:00</time></trkpt><trkpt lat="30.7880656" lon="35.7288356"><ele>1171.9</ele><time>2015-11-22T13:45:49.0000000+00:00</time></trkpt><trkpt lat="30.7880254" lon="35.7288733"><ele>1172.2</ele><time>2015-11-22T13:45:50.0000000+00:00</time></trkpt><trkpt lat="30.7879876" lon="35.7289123"><ele>1172.3</ele><time>2015-11-22T13:45:51.0000000+00:00</time></trkpt><trkpt lat="30.7879444" lon="35.7289478"><ele>1172.8</ele><time>2015-11-22T13:45:52.0000000+00:00</time></trkpt><trkpt lat="30.7878956" lon="35.7289875"><ele>1173.1</ele><time>2015-11-22T13:45:53.0000000+00:00</time></trkpt><trkpt lat="30.7878508" lon="35.7290376"><ele>1173.3</ele><time>2015-11-22T13:45:54.0000000+00:00</time></trkpt><trkpt lat="30.7877992" lon="35.7290826"><ele>1173.3</ele><time>2015-11-22T13:45:55.0000000+00:00</time></trkpt><trkpt lat="30.7877504" lon="35.7291282"><ele>1173.4</ele><time>2015-11-22T13:45:56.0000000+00:00</time></trkpt><trkpt lat="30.7877002" lon="35.7291708"><ele>1172.9</ele><time>2015-11-22T13:45:57.0000000+00:00</time></trkpt><trkpt lat="30.7876516" lon="35.7292117"><ele>1173.1</ele><time>2015-11-22T13:45:58.0000000+00:00</time></trkpt><trkpt lat="30.7876138" lon="35.7292508"><ele>1173.3</ele><time>2015-11-22T13:45:59.0000000+00:00</time></trkpt><trkpt lat="30.7875665" lon="35.7293007"><ele>1173.3</ele><time>2015-11-22T13:46:00.0000000+00:00</time></trkpt><trkpt lat="30.787521" lon="35.7293377"><ele>1173.4</ele><time>2015-11-22T13:46:01.0000000+00:00</time></trkpt><trkpt lat="30.787481" lon="35.729375"><ele>1172.4</ele><time>2015-11-22T13:46:02.0000000+00:00</time></trkpt><trkpt lat="30.7874374" lon="35.7294214"><ele>1171.9</ele><time>2015-11-22T13:46:03.0000000+00:00</time></trkpt><trkpt lat="30.7874027" lon="35.7294611"><ele>1171.6</ele><time>2015-11-22T13:46:04.0000000+00:00</time></trkpt><trkpt lat="30.7873648" lon="35.7294977"><ele>1171.0</ele><time>2015-11-22T13:46:05.0000000+00:00</time></trkpt><trkpt lat="30.7873185" lon="35.7295386"><ele>1171.2</ele><time>2015-11-22T13:46:06.0000000+00:00</time></trkpt><trkpt lat="30.7872724" lon="35.7295777"><ele>1171.3</ele><time>2015-11-22T13:46:07.0000000+00:00</time></trkpt><trkpt lat="30.7872292" lon="35.7296112"><ele>1171.4</ele><time>2015-11-22T13:46:08.0000000+00:00</time></trkpt><trkpt lat="30.7871828" lon="35.7296465"><ele>1171.9</ele><time>2015-11-22T13:46:09.0000000+00:00</time></trkpt><trkpt lat="30.787143" lon="35.7296838"><ele>1172.1</ele><time>2015-11-22T13:46:10.0000000+00:00</time></trkpt><trkpt lat="30.7871055" lon="35.7297159"><ele>1172.3</ele><time>2015-11-22T13:46:11.0000000+00:00</time></trkpt><trkpt lat="30.7870276" lon="35.729774"><ele>1172.1</ele><time>2015-11-22T13:46:13.0000000+00:00</time></trkpt><trkpt lat="30.7869895" lon="35.729802"><ele>1171.8</ele><time>2015-11-22T13:46:14.0000000+00:00</time></trkpt><trkpt lat="30.7869515" lon="35.7298344"><ele>1171.6</ele><time>2015-11-22T13:46:15.0000000+00:00</time></trkpt><trkpt lat="30.7869104" lon="35.7298666"><ele>1171.5</ele><time>2015-11-22T13:46:16.0000000+00:00</time></trkpt><trkpt lat="30.7868712" lon="35.7298998"><ele>1171.4</ele><time>2015-11-22T13:46:17.0000000+00:00</time></trkpt><trkpt lat="30.7868319" lon="35.7299366"><ele>1171.4</ele><time>2015-11-22T13:46:18.0000000+00:00</time></trkpt><trkpt lat="30.7867971" lon="35.729972"><ele>1171.9</ele><time>2015-11-22T13:46:19.0000000+00:00</time></trkpt><trkpt lat="30.7867556" lon="35.7300003"><ele>1172.7</ele><time>2015-11-22T13:46:20.0000000+00:00</time></trkpt><trkpt lat="30.7867188" lon="35.7300314"><ele>1173.5</ele><time>2015-11-22T13:46:21.0000000+00:00</time></trkpt><trkpt lat="30.7866802" lon="35.7300619"><ele>1174.0</ele><time>2015-11-22T13:46:22.0000000+00:00</time></trkpt><trkpt lat="30.786617" lon="35.7301191"><ele>1174.3</ele><time>2015-11-22T13:46:24.0000000+00:00</time></trkpt><trkpt lat="30.7865512" lon="35.7301847"><ele>1174.4</ele><time>2015-11-22T13:46:26.0000000+00:00</time></trkpt><trkpt lat="30.7864831" lon="35.7302283"><ele>1173.9</ele><time>2015-11-22T13:46:28.0000000+00:00</time></trkpt><trkpt lat="30.7864146" lon="35.7302853"><ele>1174.3</ele><time>2015-11-22T13:46:30.0000000+00:00</time></trkpt><trkpt lat="30.7863635" lon="35.7303327"><ele>1174.4</ele><time>2015-11-22T13:46:32.0000000+00:00</time></trkpt><trkpt lat="30.7863172" lon="35.7303759"><ele>1174.6</ele><time>2015-11-22T13:46:34.0000000+00:00</time></trkpt><trkpt lat="30.7862664" lon="35.7304164"><ele>1174.5</ele><time>2015-11-22T13:46:36.0000000+00:00</time></trkpt><trkpt lat="30.7862132" lon="35.7304597"><ele>1175.2</ele><time>2015-11-22T13:46:38.0000000+00:00</time></trkpt><trkpt lat="30.7861592" lon="35.7305066"><ele>1175.3</ele><time>2015-11-22T13:46:40.0000000+00:00</time></trkpt><trkpt lat="30.7861063" lon="35.7305522"><ele>1175.4</ele><time>2015-11-22T13:46:42.0000000+00:00</time></trkpt><trkpt lat="30.7860552" lon="35.7306016"><ele>1175.9</ele><time>2015-11-22T13:46:44.0000000+00:00</time></trkpt><trkpt lat="30.7860028" lon="35.7306518"><ele>1176.3</ele><time>2015-11-22T13:46:46.0000000+00:00</time></trkpt><trkpt lat="30.7859427" lon="35.7307063"><ele>1176.4</ele><time>2015-11-22T13:46:48.0000000+00:00</time></trkpt><trkpt lat="30.7858825" lon="35.7307608"><ele>1177.1</ele><time>2015-11-22T13:46:50.0000000+00:00</time></trkpt><trkpt lat="30.7858219" lon="35.7308158"><ele>1177.3</ele><time>2015-11-22T13:46:52.0000000+00:00</time></trkpt><trkpt lat="30.7857603" lon="35.7308711"><ele>1177.4</ele><time>2015-11-22T13:46:54.0000000+00:00</time></trkpt><trkpt lat="30.7856968" lon="35.730927"><ele>1178.1</ele><time>2015-11-22T13:46:56.0000000+00:00</time></trkpt><trkpt lat="30.7856334" lon="35.730983"><ele>1178.3</ele><time>2015-11-22T13:46:58.0000000+00:00</time></trkpt><trkpt lat="30.7855685" lon="35.731039"><ele>1178.4</ele><time>2015-11-22T13:47:00.0000000+00:00</time></trkpt><trkpt lat="30.785503" lon="35.7310931"><ele>1178.4</ele><time>2015-11-22T13:47:02.0000000+00:00</time></trkpt><trkpt lat="30.7854441" lon="35.7311447"><ele>1178.9</ele><time>2015-11-22T13:47:04.0000000+00:00</time></trkpt><trkpt lat="30.7853873" lon="35.7311969"><ele>1179.3</ele><time>2015-11-22T13:47:06.0000000+00:00</time></trkpt><trkpt lat="30.7853266" lon="35.7312506"><ele>1179.4</ele><time>2015-11-22T13:47:08.0000000+00:00</time></trkpt><trkpt lat="30.7852645" lon="35.7313058"><ele>1179.4</ele><time>2015-11-22T13:47:10.0000000+00:00</time></trkpt><trkpt lat="30.7852009" lon="35.7313645"><ele>1180.1</ele><time>2015-11-22T13:47:12.0000000+00:00</time></trkpt><trkpt lat="30.7851327" lon="35.731423"><ele>1180.3</ele><time>2015-11-22T13:47:14.0000000+00:00</time></trkpt><trkpt lat="30.7850647" lon="35.7314812"><ele>1180.4</ele><time>2015-11-22T13:47:16.0000000+00:00</time></trkpt><trkpt lat="30.7849996" lon="35.7315343"><ele>1180.4</ele><time>2015-11-22T13:47:18.0000000+00:00</time></trkpt><trkpt lat="30.784937" lon="35.7315892"><ele>1180.9</ele><time>2015-11-22T13:47:20.0000000+00:00</time></trkpt><trkpt lat="30.7848744" lon="35.7316481"><ele>1181.3</ele><time>2015-11-22T13:47:22.0000000+00:00</time></trkpt><trkpt lat="30.7848092" lon="35.7317069"><ele>1181.4</ele><time>2015-11-22T13:47:24.0000000+00:00</time></trkpt><trkpt lat="30.7847462" lon="35.7317644"><ele>1181.4</ele><time>2015-11-22T13:47:26.0000000+00:00</time></trkpt><trkpt lat="30.7846934" lon="35.7318174"><ele>1181.4</ele><time>2015-11-22T13:47:28.0000000+00:00</time></trkpt><trkpt lat="30.7846376" lon="35.7318735"><ele>1181.4</ele><time>2015-11-22T13:47:30.0000000+00:00</time></trkpt><trkpt lat="30.7845782" lon="35.731932"><ele>1182.1</ele><time>2015-11-22T13:47:32.0000000+00:00</time></trkpt><trkpt lat="30.784516" lon="35.7319961"><ele>1181.8</ele><time>2015-11-22T13:47:34.0000000+00:00</time></trkpt><trkpt lat="30.7844514" lon="35.7320661"><ele>1182.0</ele><time>2015-11-22T13:47:36.0000000+00:00</time></trkpt><trkpt lat="30.7843904" lon="35.7321329"><ele>1182.3</ele><time>2015-11-22T13:47:38.0000000+00:00</time></trkpt><trkpt lat="30.7843384" lon="35.7322031"><ele>1182.4</ele><time>2015-11-22T13:47:40.0000000+00:00</time></trkpt><trkpt lat="30.7842918" lon="35.7322654"><ele>1182.4</ele><time>2015-11-22T13:47:42.0000000+00:00</time></trkpt><trkpt lat="30.7842458" lon="35.7323256"><ele>1182.4</ele><time>2015-11-22T13:47:44.0000000+00:00</time></trkpt><trkpt lat="30.7842041" lon="35.7323881"><ele>1182.4</ele><time>2015-11-22T13:47:46.0000000+00:00</time></trkpt><trkpt lat="30.784162" lon="35.7324542"><ele>1181.9</ele><time>2015-11-22T13:47:48.0000000+00:00</time></trkpt><trkpt lat="30.7841074" lon="35.7325382"><ele>1182.0</ele><time>2015-11-22T13:47:50.0000000+00:00</time></trkpt><trkpt lat="30.7840542" lon="35.7326209"><ele>1181.6</ele><time>2015-11-22T13:47:52.0000000+00:00</time></trkpt><trkpt lat="30.784003" lon="35.7327066"><ele>1181.4</ele><time>2015-11-22T13:47:54.0000000+00:00</time></trkpt><trkpt lat="30.7839766" lon="35.7327493"><ele>1181.4</ele><time>2015-11-22T13:47:55.0000000+00:00</time></trkpt><trkpt lat="30.7839495" lon="35.7327968"><ele>1181.4</ele><time>2015-11-22T13:47:56.0000000+00:00</time></trkpt><trkpt lat="30.7839208" lon="35.7328454"><ele>1181.4</ele><time>2015-11-22T13:47:57.0000000+00:00</time></trkpt><trkpt lat="30.7838931" lon="35.7328931"><ele>1181.4</ele><time>2015-11-22T13:47:58.0000000+00:00</time></trkpt><trkpt lat="30.7838623" lon="35.7329419"><ele>1181.4</ele><time>2015-11-22T13:47:59.0000000+00:00</time></trkpt><trkpt lat="30.7838321" lon="35.7329926"><ele>1180.9</ele><time>2015-11-22T13:48:00.0000000+00:00</time></trkpt><trkpt lat="30.7837976" lon="35.7330429"><ele>1180.6</ele><time>2015-11-22T13:48:01.0000000+00:00</time></trkpt><trkpt lat="30.7837665" lon="35.733097"><ele>1180.5</ele><time>2015-11-22T13:48:02.0000000+00:00</time></trkpt><trkpt lat="30.7837361" lon="35.7331516"><ele>1180.5</ele><time>2015-11-22T13:48:03.0000000+00:00</time></trkpt><trkpt lat="30.783707" lon="35.7332024"><ele>1180.4</ele><time>2015-11-22T13:48:04.0000000+00:00</time></trkpt><trkpt lat="30.7836768" lon="35.7332534"><ele>1180.4</ele><time>2015-11-22T13:48:05.0000000+00:00</time></trkpt><trkpt lat="30.783645" lon="35.7333082"><ele>1180.4</ele><time>2015-11-22T13:48:06.0000000+00:00</time></trkpt><trkpt lat="30.783613" lon="35.7333604"><ele>1179.9</ele><time>2015-11-22T13:48:07.0000000+00:00</time></trkpt><trkpt lat="30.7835845" lon="35.7334157"><ele>1179.7</ele><time>2015-11-22T13:48:08.0000000+00:00</time></trkpt><trkpt lat="30.7835542" lon="35.7334687"><ele>1179.0</ele><time>2015-11-22T13:48:09.0000000+00:00</time></trkpt><trkpt lat="30.7835228" lon="35.7335222"><ele>1178.7</ele><time>2015-11-22T13:48:10.0000000+00:00</time></trkpt><trkpt lat="30.7834865" lon="35.7335783"><ele>1178.6</ele><time>2015-11-22T13:48:11.0000000+00:00</time></trkpt><trkpt lat="30.7834564" lon="35.7336306"><ele>1178.5</ele><time>2015-11-22T13:48:12.0000000+00:00</time></trkpt><trkpt lat="30.7834273" lon="35.7336822"><ele>1177.9</ele><time>2015-11-22T13:48:13.0000000+00:00</time></trkpt><trkpt lat="30.7833953" lon="35.7337345"><ele>1177.7</ele><time>2015-11-22T13:48:14.0000000+00:00</time></trkpt><trkpt lat="30.7833654" lon="35.7337894"><ele>1177.5</ele><time>2015-11-22T13:48:15.0000000+00:00</time></trkpt><trkpt lat="30.7833342" lon="35.7338424"><ele>1177.5</ele><time>2015-11-22T13:48:16.0000000+00:00</time></trkpt><trkpt lat="30.7832987" lon="35.7338928"><ele>1177.4</ele><time>2015-11-22T13:48:17.0000000+00:00</time></trkpt><trkpt lat="30.7832658" lon="35.7339519"><ele>1177.4</ele><time>2015-11-22T13:48:18.0000000+00:00</time></trkpt><trkpt lat="30.7832346" lon="35.7340127"><ele>1176.9</ele><time>2015-11-22T13:48:19.0000000+00:00</time></trkpt><trkpt lat="30.7832024" lon="35.7340742"><ele>1176.7</ele><time>2015-11-22T13:48:20.0000000+00:00</time></trkpt><trkpt lat="30.783169" lon="35.7341309"><ele>1176.5</ele><time>2015-11-22T13:48:21.0000000+00:00</time></trkpt><trkpt lat="30.7831356" lon="35.7341841"><ele>1176.5</ele><time>2015-11-22T13:48:22.0000000+00:00</time></trkpt><trkpt lat="30.7831012" lon="35.7342392"><ele>1176.4</ele><time>2015-11-22T13:48:23.0000000+00:00</time></trkpt><trkpt lat="30.7830708" lon="35.7342913"><ele>1176.4</ele><time>2015-11-22T13:48:24.0000000+00:00</time></trkpt><trkpt lat="30.783041" lon="35.7343419"><ele>1176.4</ele><time>2015-11-22T13:48:25.0000000+00:00</time></trkpt><trkpt lat="30.7830131" lon="35.7343907"><ele>1176.4</ele><time>2015-11-22T13:48:26.0000000+00:00</time></trkpt><trkpt lat="30.7829823" lon="35.7344387"><ele>1176.4</ele><time>2015-11-22T13:48:27.0000000+00:00</time></trkpt><trkpt lat="30.7829532" lon="35.7344853"><ele>1176.4</ele><time>2015-11-22T13:48:28.0000000+00:00</time></trkpt><trkpt lat="30.7829196" lon="35.7345389"><ele>1176.4</ele><time>2015-11-22T13:48:29.0000000+00:00</time></trkpt><trkpt lat="30.7828906" lon="35.7345888"><ele>1176.4</ele><time>2015-11-22T13:48:30.0000000+00:00</time></trkpt><trkpt lat="30.782857" lon="35.7346409"><ele>1176.4</ele><time>2015-11-22T13:48:31.0000000+00:00</time></trkpt><trkpt lat="30.782825" lon="35.7346917"><ele>1176.4</ele><time>2015-11-22T13:48:32.0000000+00:00</time></trkpt><trkpt lat="30.7827879" lon="35.7347435"><ele>1176.4</ele><time>2015-11-22T13:48:33.0000000+00:00</time></trkpt><trkpt lat="30.7827563" lon="35.7347973"><ele>1176.4</ele><time>2015-11-22T13:48:34.0000000+00:00</time></trkpt><trkpt lat="30.7827257" lon="35.7348557"><ele>1176.4</ele><time>2015-11-22T13:48:35.0000000+00:00</time></trkpt><trkpt lat="30.7826955" lon="35.7349101"><ele>1176.4</ele><time>2015-11-22T13:48:36.0000000+00:00</time></trkpt><trkpt lat="30.7826633" lon="35.7349633"><ele>1176.9</ele><time>2015-11-22T13:48:37.0000000+00:00</time></trkpt><trkpt lat="30.7826293" lon="35.735005"><ele>1177.1</ele><time>2015-11-22T13:48:38.0000000+00:00</time></trkpt><trkpt lat="30.7825984" lon="35.7350545"><ele>1177.3</ele><time>2015-11-22T13:48:39.0000000+00:00</time></trkpt><trkpt lat="30.7825715" lon="35.7351002"><ele>1177.3</ele><time>2015-11-22T13:48:40.0000000+00:00</time></trkpt><trkpt lat="30.7825425" lon="35.7351477"><ele>1177.4</ele><time>2015-11-22T13:48:41.0000000+00:00</time></trkpt><trkpt lat="30.7825118" lon="35.7351964"><ele>1177.4</ele><time>2015-11-22T13:48:42.0000000+00:00</time></trkpt><trkpt lat="30.7824804" lon="35.7352439"><ele>1177.4</ele><time>2015-11-22T13:48:43.0000000+00:00</time></trkpt><trkpt lat="30.7824508" lon="35.7352925"><ele>1177.9</ele><time>2015-11-22T13:48:44.0000000+00:00</time></trkpt><trkpt lat="30.7824195" lon="35.7353461"><ele>1177.6</ele><time>2015-11-22T13:48:45.0000000+00:00</time></trkpt><trkpt lat="30.7823891" lon="35.735397"><ele>1177.5</ele><time>2015-11-22T13:48:46.0000000+00:00</time></trkpt><trkpt lat="30.7823609" lon="35.7354473"><ele>1177.5</ele><time>2015-11-22T13:48:47.0000000+00:00</time></trkpt><trkpt lat="30.7823296" lon="35.7354981"><ele>1177.4</ele><time>2015-11-22T13:48:48.0000000+00:00</time></trkpt><trkpt lat="30.7822987" lon="35.7355511"><ele>1177.4</ele><time>2015-11-22T13:48:49.0000000+00:00</time></trkpt><trkpt lat="30.7822679" lon="35.7356041"><ele>1177.4</ele><time>2015-11-22T13:48:50.0000000+00:00</time></trkpt><trkpt lat="30.7822348" lon="35.7356593"><ele>1177.4</ele><time>2015-11-22T13:48:51.0000000+00:00</time></trkpt><trkpt lat="30.7822016" lon="35.7357139"><ele>1177.4</ele><time>2015-11-22T13:48:52.0000000+00:00</time></trkpt><trkpt lat="30.782168" lon="35.735768"><ele>1177.4</ele><time>2015-11-22T13:48:53.0000000+00:00</time></trkpt><trkpt lat="30.7821368" lon="35.735822"><ele>1177.4</ele><time>2015-11-22T13:48:54.0000000+00:00</time></trkpt><trkpt lat="30.7821045" lon="35.735876"><ele>1177.4</ele><time>2015-11-22T13:48:55.0000000+00:00</time></trkpt><trkpt lat="30.7820751" lon="35.7359298"><ele>1177.4</ele><time>2015-11-22T13:48:56.0000000+00:00</time></trkpt><trkpt lat="30.782048" lon="35.7359728"><ele>1177.4</ele><time>2015-11-22T13:48:57.0000000+00:00</time></trkpt><trkpt lat="30.7820204" lon="35.7360194"><ele>1177.4</ele><time>2015-11-22T13:48:58.0000000+00:00</time></trkpt><trkpt lat="30.7819946" lon="35.7360628"><ele>1177.4</ele><time>2015-11-22T13:48:59.0000000+00:00</time></trkpt><trkpt lat="30.7819445" lon="35.7361438"><ele>1177.4</ele><time>2015-11-22T13:49:01.0000000+00:00</time></trkpt><trkpt lat="30.7818942" lon="35.7362167"><ele>1177.9</ele><time>2015-11-22T13:49:03.0000000+00:00</time></trkpt><trkpt lat="30.7818518" lon="35.7362793"><ele>1177.5</ele><time>2015-11-22T13:49:05.0000000+00:00</time></trkpt><trkpt lat="30.7818229" lon="35.7363475"><ele>1177.9</ele><time>2015-11-22T13:49:07.0000000+00:00</time></trkpt><trkpt lat="30.7817867" lon="35.7364292"><ele>1178.3</ele><time>2015-11-22T13:49:09.0000000+00:00</time></trkpt><trkpt lat="30.7817441" lon="35.7365083"><ele>1177.6</ele><time>2015-11-22T13:49:11.0000000+00:00</time></trkpt><trkpt lat="30.7817027" lon="35.7365914"><ele>1177.5</ele><time>2015-11-22T13:49:13.0000000+00:00</time></trkpt><trkpt lat="30.7816579" lon="35.7366763"><ele>1177.4</ele><time>2015-11-22T13:49:15.0000000+00:00</time></trkpt><trkpt lat="30.7816109" lon="35.7367545"><ele>1177.4</ele><time>2015-11-22T13:49:17.0000000+00:00</time></trkpt><trkpt lat="30.7815663" lon="35.7368308"><ele>1178.1</ele><time>2015-11-22T13:49:19.0000000+00:00</time></trkpt><trkpt lat="30.7815195" lon="35.7369093"><ele>1178.8</ele><time>2015-11-22T13:49:21.0000000+00:00</time></trkpt><trkpt lat="30.7814873" lon="35.7369468"><ele>1179.1</ele><time>2015-11-22T13:49:22.0000000+00:00</time></trkpt><trkpt lat="30.7814559" lon="35.7369859"><ele>1179.3</ele><time>2015-11-22T13:49:23.0000000+00:00</time></trkpt><trkpt lat="30.7814162" lon="35.7370525"><ele>1179.9</ele><time>2015-11-22T13:49:25.0000000+00:00</time></trkpt><trkpt lat="30.7813797" lon="35.7371161"><ele>1180.8</ele><time>2015-11-22T13:49:27.0000000+00:00</time></trkpt><trkpt lat="30.7813282" lon="35.7371463"><ele>1181.7</ele><time>2015-11-22T13:49:29.0000000+00:00</time></trkpt><trkpt lat="30.7812801" lon="35.7371516"><ele>1181.0</ele><time>2015-11-22T13:49:31.0000000+00:00</time></trkpt><trkpt lat="30.7812252" lon="35.7371386"><ele>1179.9</ele><time>2015-11-22T13:49:35.0000000+00:00</time></trkpt><trkpt lat="30.7811784" lon="35.7371272"><ele>1180.2</ele><time>2015-11-22T13:49:38.0000000+00:00</time></trkpt><trkpt lat="30.7811305" lon="35.737102"><ele>1180.9</ele><time>2015-11-22T13:49:41.0000000+00:00</time></trkpt><trkpt lat="30.7810828" lon="35.7370625"><ele>1179.7</ele><time>2015-11-22T13:49:44.0000000+00:00</time></trkpt><trkpt lat="30.7810255" lon="35.7370367"><ele>1179.4</ele><time>2015-11-22T13:49:47.0000000+00:00</time></trkpt><trkpt lat="30.7809827" lon="35.7370147"><ele>1180.2</ele><time>2015-11-22T13:49:49.0000000+00:00</time></trkpt><trkpt lat="30.7809366" lon="35.7369954"><ele>1179.8</ele><time>2015-11-22T13:49:51.0000000+00:00</time></trkpt><trkpt lat="30.7808887" lon="35.736975"><ele>1179.5</ele><time>2015-11-22T13:49:53.0000000+00:00</time></trkpt><trkpt lat="30.7808342" lon="35.7369548"><ele>1179.9</ele><time>2015-11-22T13:49:55.0000000+00:00</time></trkpt><trkpt lat="30.7807721" lon="35.7369326"><ele>1180.3</ele><time>2015-11-22T13:49:57.0000000+00:00</time></trkpt><trkpt lat="30.780712" lon="35.7369079"><ele>1180.9</ele><time>2015-11-22T13:49:59.0000000+00:00</time></trkpt><trkpt lat="30.7806568" lon="35.7368832"><ele>1180.0</ele><time>2015-11-22T13:50:01.0000000+00:00</time></trkpt><trkpt lat="30.780604" lon="35.7368566"><ele>1179.1</ele><time>2015-11-22T13:50:03.0000000+00:00</time></trkpt><trkpt lat="30.7805521" lon="35.7368282"><ele>1179.3</ele><time>2015-11-22T13:50:05.0000000+00:00</time></trkpt><trkpt lat="30.7805032" lon="35.7368016"><ele>1179.9</ele><time>2015-11-22T13:50:07.0000000+00:00</time></trkpt><trkpt lat="30.7804508" lon="35.7367815"><ele>1180.8</ele><time>2015-11-22T13:50:09.0000000+00:00</time></trkpt><trkpt lat="30.780398" lon="35.7367601"><ele>1181.7</ele><time>2015-11-22T13:50:11.0000000+00:00</time></trkpt><trkpt lat="30.780346" lon="35.7367358"><ele>1182.2</ele><time>2015-11-22T13:50:13.0000000+00:00</time></trkpt><trkpt lat="30.7802899" lon="35.7367174"><ele>1183.1</ele><time>2015-11-22T13:50:15.0000000+00:00</time></trkpt><trkpt lat="30.7802319" lon="35.7366962"><ele>1184.1</ele><time>2015-11-22T13:50:17.0000000+00:00</time></trkpt><trkpt lat="30.780175" lon="35.7366712"><ele>1184.3</ele><time>2015-11-22T13:50:19.0000000+00:00</time></trkpt><trkpt lat="30.7801191" lon="35.7366442"><ele>1185.1</ele><time>2015-11-22T13:50:21.0000000+00:00</time></trkpt><trkpt lat="30.7800637" lon="35.7366177"><ele>1185.8</ele><time>2015-11-22T13:50:23.0000000+00:00</time></trkpt><trkpt lat="30.7800074" lon="35.7365907"><ele>1186.3</ele><time>2015-11-22T13:50:25.0000000+00:00</time></trkpt><trkpt lat="30.7799501" lon="35.7365643"><ele>1185.6</ele><time>2015-11-22T13:50:27.0000000+00:00</time></trkpt><trkpt lat="30.7798918" lon="35.7365415"><ele>1186.2</ele><time>2015-11-22T13:50:29.0000000+00:00</time></trkpt><trkpt lat="30.7798333" lon="35.736518"><ele>1186.1</ele><time>2015-11-22T13:50:31.0000000+00:00</time></trkpt><trkpt lat="30.7797707" lon="35.7364906"><ele>1187.1</ele><time>2015-11-22T13:50:33.0000000+00:00</time></trkpt><trkpt lat="30.7797082" lon="35.7364595"><ele>1187.6</ele><time>2015-11-22T13:50:35.0000000+00:00</time></trkpt><trkpt lat="30.7796492" lon="35.736423"><ele>1187.7</ele><time>2015-11-22T13:50:37.0000000+00:00</time></trkpt><trkpt lat="30.7795899" lon="35.7363902"><ele>1188.2</ele><time>2015-11-22T13:50:39.0000000+00:00</time></trkpt><trkpt lat="30.7795317" lon="35.7363589"><ele>1188.4</ele><time>2015-11-22T13:50:41.0000000+00:00</time></trkpt><trkpt lat="30.7794731" lon="35.7363251"><ele>1187.6</ele><time>2015-11-22T13:50:43.0000000+00:00</time></trkpt><trkpt lat="30.7794146" lon="35.7362945"><ele>1188.0</ele><time>2015-11-22T13:50:45.0000000+00:00</time></trkpt><trkpt lat="30.7793564" lon="35.736263"><ele>1188.3</ele><time>2015-11-22T13:50:47.0000000+00:00</time></trkpt><trkpt lat="30.7792997" lon="35.7362267"><ele>1188.9</ele><time>2015-11-22T13:50:49.0000000+00:00</time></trkpt><trkpt lat="30.7792436" lon="35.7361884"><ele>1188.5</ele><time>2015-11-22T13:50:51.0000000+00:00</time></trkpt><trkpt lat="30.7791905" lon="35.7361461"><ele>1188.2</ele><time>2015-11-22T13:50:53.0000000+00:00</time></trkpt><trkpt lat="30.7791372" lon="35.7361032"><ele>1187.6</ele><time>2015-11-22T13:50:55.0000000+00:00</time></trkpt><trkpt lat="30.7790849" lon="35.7360618"><ele>1188.2</ele><time>2015-11-22T13:50:57.0000000+00:00</time></trkpt><trkpt lat="30.7790378" lon="35.7360223"><ele>1188.3</ele><time>2015-11-22T13:50:59.0000000+00:00</time></trkpt><trkpt lat="30.778994" lon="35.7359873"><ele>1188.9</ele><time>2015-11-22T13:51:01.0000000+00:00</time></trkpt><trkpt lat="30.7789524" lon="35.7359542"><ele>1189.3</ele><time>2015-11-22T13:51:03.0000000+00:00</time></trkpt><trkpt lat="30.7789126" lon="35.7359223"><ele>1190.1</ele><time>2015-11-22T13:51:05.0000000+00:00</time></trkpt><trkpt lat="30.7788704" lon="35.7358925"><ele>1190.6</ele><time>2015-11-22T13:51:07.0000000+00:00</time></trkpt><trkpt lat="30.7788262" lon="35.7358588"><ele>1190.4</ele><time>2015-11-22T13:51:09.0000000+00:00</time></trkpt><trkpt lat="30.7787826" lon="35.7358193"><ele>1190.4</ele><time>2015-11-22T13:51:11.0000000+00:00</time></trkpt><trkpt lat="30.7787357" lon="35.7357803"><ele>1190.9</ele><time>2015-11-22T13:51:13.0000000+00:00</time></trkpt><trkpt lat="30.7786846" lon="35.7357429"><ele>1190.5</ele><time>2015-11-22T13:51:15.0000000+00:00</time></trkpt><trkpt lat="30.7786314" lon="35.7357008"><ele>1190.9</ele><time>2015-11-22T13:51:17.0000000+00:00</time></trkpt><trkpt lat="30.778576" lon="35.7356596"><ele>1191.5</ele><time>2015-11-22T13:51:19.0000000+00:00</time></trkpt><trkpt lat="30.7785172" lon="35.735622"><ele>1190.9</ele><time>2015-11-22T13:51:21.0000000+00:00</time></trkpt><trkpt lat="30.7784639" lon="35.7355799"><ele>1190.5</ele><time>2015-11-22T13:51:23.0000000+00:00</time></trkpt><trkpt lat="30.7784114" lon="35.7355374"><ele>1190.2</ele><time>2015-11-22T13:51:25.0000000+00:00</time></trkpt><trkpt lat="30.778358" lon="35.7354966"><ele>1189.6</ele><time>2015-11-22T13:51:27.0000000+00:00</time></trkpt><trkpt lat="30.7783017" lon="35.7354531"><ele>1190.2</ele><time>2015-11-22T13:51:29.0000000+00:00</time></trkpt><trkpt lat="30.7782437" lon="35.7354056"><ele>1189.8</ele><time>2015-11-22T13:51:31.0000000+00:00</time></trkpt><trkpt lat="30.7781837" lon="35.7353575"><ele>1189.0</ele><time>2015-11-22T13:51:33.0000000+00:00</time></trkpt><trkpt lat="30.778122" lon="35.7353119"><ele>1189.3</ele><time>2015-11-22T13:51:35.0000000+00:00</time></trkpt><trkpt lat="30.7780591" lon="35.7352624"><ele>1188.1</ele><time>2015-11-22T13:51:37.0000000+00:00</time></trkpt><trkpt lat="30.7779922" lon="35.7352076"><ele>1187.6</ele><time>2015-11-22T13:51:39.0000000+00:00</time></trkpt><trkpt lat="30.7779547" lon="35.735178"><ele>1188.0</ele><time>2015-11-22T13:51:40.0000000+00:00</time></trkpt><trkpt lat="30.7779163" lon="35.7351484"><ele>1188.2</ele><time>2015-11-22T13:51:41.0000000+00:00</time></trkpt><trkpt lat="30.7778766" lon="35.7351197"><ele>1188.8</ele><time>2015-11-22T13:51:42.0000000+00:00</time></trkpt><trkpt lat="30.7778367" lon="35.7350903"><ele>1189.1</ele><time>2015-11-22T13:51:43.0000000+00:00</time></trkpt><trkpt lat="30.7777963" lon="35.7350614"><ele>1189.2</ele><time>2015-11-22T13:51:44.0000000+00:00</time></trkpt><trkpt lat="30.7777388" lon="35.735019"><ele>1189.3</ele><time>2015-11-22T13:51:45.0000000+00:00</time></trkpt><trkpt lat="30.777705" lon="35.7349796"><ele>1188.9</ele><time>2015-11-22T13:51:46.0000000+00:00</time></trkpt><trkpt lat="30.7776364" lon="35.7349242"><ele>1188.5</ele><time>2015-11-22T13:51:48.0000000+00:00</time></trkpt><trkpt lat="30.7775981" lon="35.7348937"><ele>1188.5</ele><time>2015-11-22T13:51:49.0000000+00:00</time></trkpt><trkpt lat="30.7775598" lon="35.7348648"><ele>1188.9</ele><time>2015-11-22T13:51:50.0000000+00:00</time></trkpt><trkpt lat="30.7774889" lon="35.7347986"><ele>1189.3</ele><time>2015-11-22T13:51:52.0000000+00:00</time></trkpt><trkpt lat="30.7774526" lon="35.7347662"><ele>1189.8</ele><time>2015-11-22T13:51:53.0000000+00:00</time></trkpt><trkpt lat="30.7773828" lon="35.7347067"><ele>1191.5</ele><time>2015-11-22T13:51:55.0000000+00:00</time></trkpt><trkpt lat="30.7773134" lon="35.7346542"><ele>1192.2</ele><time>2015-11-22T13:51:57.0000000+00:00</time></trkpt><trkpt lat="30.7772583" lon="35.7345999"><ele>1192.1</ele><time>2015-11-22T13:51:59.0000000+00:00</time></trkpt><trkpt lat="30.7772082" lon="35.7345524"><ele>1192.1</ele><time>2015-11-22T13:52:01.0000000+00:00</time></trkpt><trkpt lat="30.7771608" lon="35.7345137"><ele>1191.6</ele><time>2015-11-22T13:52:03.0000000+00:00</time></trkpt><trkpt lat="30.7771222" lon="35.7344727"><ele>1191.4</ele><time>2015-11-22T13:52:05.0000000+00:00</time></trkpt><trkpt lat="30.7770841" lon="35.7344312"><ele>1190.7</ele><time>2015-11-22T13:52:07.0000000+00:00</time></trkpt><trkpt lat="30.7770401" lon="35.7343899"><ele>1191.0</ele><time>2015-11-22T13:52:09.0000000+00:00</time></trkpt><trkpt lat="30.7769909" lon="35.734345"><ele>1191.3</ele><time>2015-11-22T13:52:11.0000000+00:00</time></trkpt><trkpt lat="30.7769397" lon="35.7342947"><ele>1192.1</ele><time>2015-11-22T13:52:13.0000000+00:00</time></trkpt><trkpt lat="30.776886" lon="35.7342428"><ele>1192.8</ele><time>2015-11-22T13:52:15.0000000+00:00</time></trkpt><trkpt lat="30.7768318" lon="35.7341881"><ele>1192.8</ele><time>2015-11-22T13:52:17.0000000+00:00</time></trkpt><trkpt lat="30.776775" lon="35.7341342"><ele>1193.2</ele><time>2015-11-22T13:52:19.0000000+00:00</time></trkpt><trkpt lat="30.7767139" lon="35.7340828"><ele>1194.1</ele><time>2015-11-22T13:52:21.0000000+00:00</time></trkpt><trkpt lat="30.776654" lon="35.7340316"><ele>1195.1</ele><time>2015-11-22T13:52:23.0000000+00:00</time></trkpt><trkpt lat="30.776591" lon="35.7339864"><ele>1195.6</ele><time>2015-11-22T13:52:25.0000000+00:00</time></trkpt><trkpt lat="30.776521" lon="35.7339497"><ele>1195.7</ele><time>2015-11-22T13:52:27.0000000+00:00</time></trkpt><trkpt lat="30.7764472" lon="35.7339147"><ele>1195.0</ele><time>2015-11-22T13:52:29.0000000+00:00</time></trkpt><trkpt lat="30.776343" lon="35.7338633"><ele>1194.5</ele><time>2015-11-22T13:52:31.0000000+00:00</time></trkpt><trkpt lat="30.7762926" lon="35.7338406"><ele>1194.5</ele><time>2015-11-22T13:52:32.0000000+00:00</time></trkpt><trkpt lat="30.7762476" lon="35.7338193"><ele>1194.4</ele><time>2015-11-22T13:52:33.0000000+00:00</time></trkpt><trkpt lat="30.7762047" lon="35.7337935"><ele>1194.4</ele><time>2015-11-22T13:52:34.0000000+00:00</time></trkpt><trkpt lat="30.7761616" lon="35.7337732"><ele>1194.4</ele><time>2015-11-22T13:52:35.0000000+00:00</time></trkpt><trkpt lat="30.7761185" lon="35.733749"><ele>1194.4</ele><time>2015-11-22T13:52:36.0000000+00:00</time></trkpt><trkpt lat="30.7760414" lon="35.7337076"><ele>1194.4</ele><time>2015-11-22T13:52:38.0000000+00:00</time></trkpt><trkpt lat="30.7759612" lon="35.7336728"><ele>1193.9</ele><time>2015-11-22T13:52:40.0000000+00:00</time></trkpt><trkpt lat="30.7758818" lon="35.7336399"><ele>1193.0</ele><time>2015-11-22T13:52:42.0000000+00:00</time></trkpt><trkpt lat="30.7758042" lon="35.7336034"><ele>1192.8</ele><time>2015-11-22T13:52:44.0000000+00:00</time></trkpt><trkpt lat="30.7757223" lon="35.7335665"><ele>1193.3</ele><time>2015-11-22T13:52:46.0000000+00:00</time></trkpt><trkpt lat="30.7756431" lon="35.7335266"><ele>1192.9</ele><time>2015-11-22T13:52:48.0000000+00:00</time></trkpt><trkpt lat="30.7755648" lon="35.7334874"><ele>1192.5</ele><time>2015-11-22T13:52:50.0000000+00:00</time></trkpt><trkpt lat="30.7754907" lon="35.7334516"><ele>1192.4</ele><time>2015-11-22T13:52:52.0000000+00:00</time></trkpt><trkpt lat="30.7754248" lon="35.7334197"><ele>1192.4</ele><time>2015-11-22T13:52:54.0000000+00:00</time></trkpt><trkpt lat="30.7753615" lon="35.7333928"><ele>1192.7</ele><time>2015-11-22T13:52:56.0000000+00:00</time></trkpt><trkpt lat="30.7753011" lon="35.7333622"><ele>1192.7</ele><time>2015-11-22T13:52:58.0000000+00:00</time></trkpt><trkpt lat="30.77524" lon="35.7333275"><ele>1192.5</ele><time>2015-11-22T13:53:00.0000000+00:00</time></trkpt><trkpt lat="30.7751744" lon="35.7332918"><ele>1192.2</ele><time>2015-11-22T13:53:02.0000000+00:00</time></trkpt><trkpt lat="30.7751037" lon="35.7332555"><ele>1192.3</ele><time>2015-11-22T13:53:04.0000000+00:00</time></trkpt><trkpt lat="30.7750305" lon="35.7332136"><ele>1193.1</ele><time>2015-11-22T13:53:06.0000000+00:00</time></trkpt><trkpt lat="30.774955" lon="35.7331683"><ele>1193.8</ele><time>2015-11-22T13:53:08.0000000+00:00</time></trkpt><trkpt lat="30.7748754" lon="35.7331329"><ele>1194.0</ele><time>2015-11-22T13:53:10.0000000+00:00</time></trkpt><trkpt lat="30.7747945" lon="35.7330985"><ele>1194.3</ele><time>2015-11-22T13:53:12.0000000+00:00</time></trkpt><trkpt lat="30.7747149" lon="35.7330612"><ele>1194.6</ele><time>2015-11-22T13:53:14.0000000+00:00</time></trkpt><trkpt lat="30.7746357" lon="35.7330233"><ele>1194.7</ele><time>2015-11-22T13:53:16.0000000+00:00</time></trkpt><trkpt lat="30.7745394" lon="35.7329747"><ele>1195.2</ele><time>2015-11-22T13:53:18.0000000+00:00</time></trkpt><trkpt lat="30.7744636" lon="35.7329261"><ele>1195.4</ele><time>2015-11-22T13:53:20.0000000+00:00</time></trkpt><trkpt lat="30.7744173" lon="35.7329102"><ele>1195.9</ele><time>2015-11-22T13:53:21.0000000+00:00</time></trkpt><trkpt lat="30.774336" lon="35.7328746"><ele>1196.3</ele><time>2015-11-22T13:53:23.0000000+00:00</time></trkpt><trkpt lat="30.7742901" lon="35.7328576"><ele>1195.8</ele><time>2015-11-22T13:53:24.0000000+00:00</time></trkpt><trkpt lat="30.774218" lon="35.7328196"><ele>1195.3</ele><time>2015-11-22T13:53:26.0000000+00:00</time></trkpt><trkpt lat="30.7741402" lon="35.7327869"><ele>1195.6</ele><time>2015-11-22T13:53:28.0000000+00:00</time></trkpt><trkpt lat="30.7740694" lon="35.732741"><ele>1195.5</ele><time>2015-11-22T13:53:30.0000000+00:00</time></trkpt><trkpt lat="30.7739968" lon="35.7327025"><ele>1195.4</ele><time>2015-11-22T13:53:32.0000000+00:00</time></trkpt><trkpt lat="30.7739333" lon="35.7326735"><ele>1195.2</ele><time>2015-11-22T13:53:34.0000000+00:00</time></trkpt><trkpt lat="30.7738738" lon="35.7326411"><ele>1195.8</ele><time>2015-11-22T13:53:36.0000000+00:00</time></trkpt><trkpt lat="30.7738127" lon="35.7326103"><ele>1197.0</ele><time>2015-11-22T13:53:38.0000000+00:00</time></trkpt><trkpt lat="30.7737515" lon="35.7325768"><ele>1196.8</ele><time>2015-11-22T13:53:40.0000000+00:00</time></trkpt><trkpt lat="30.7736916" lon="35.7325441"><ele>1196.5</ele><time>2015-11-22T13:53:42.0000000+00:00</time></trkpt><trkpt lat="30.773628" lon="35.7325149"><ele>1197.7</ele><time>2015-11-22T13:53:44.0000000+00:00</time></trkpt><trkpt lat="30.7735646" lon="35.7324829"><ele>1198.2</ele><time>2015-11-22T13:53:46.0000000+00:00</time></trkpt><trkpt lat="30.7735015" lon="35.7324535"><ele>1198.9</ele><time>2015-11-22T13:53:48.0000000+00:00</time></trkpt><trkpt lat="30.7734387" lon="35.7324236"><ele>1200.0</ele><time>2015-11-22T13:53:50.0000000+00:00</time></trkpt><trkpt lat="30.7733741" lon="35.7323924"><ele>1201.1</ele><time>2015-11-22T13:53:52.0000000+00:00</time></trkpt><trkpt lat="30.7733069" lon="35.7323686"><ele>1202.1</ele><time>2015-11-22T13:53:54.0000000+00:00</time></trkpt><trkpt lat="30.77324" lon="35.7323473"><ele>1201.8</ele><time>2015-11-22T13:53:56.0000000+00:00</time></trkpt><trkpt lat="30.7731713" lon="35.7323253"><ele>1202.3</ele><time>2015-11-22T13:53:58.0000000+00:00</time></trkpt><trkpt lat="30.7731022" lon="35.7323073"><ele>1202.4</ele><time>2015-11-22T13:54:00.0000000+00:00</time></trkpt><trkpt lat="30.7730351" lon="35.7322891"><ele>1203.1</ele><time>2015-11-22T13:54:02.0000000+00:00</time></trkpt><trkpt lat="30.772968" lon="35.7322674"><ele>1203.3</ele><time>2015-11-22T13:54:04.0000000+00:00</time></trkpt><trkpt lat="30.7729021" lon="35.7322469"><ele>1203.9</ele><time>2015-11-22T13:54:06.0000000+00:00</time></trkpt><trkpt lat="30.772837" lon="35.7322295"><ele>1204.3</ele><time>2015-11-22T13:54:08.0000000+00:00</time></trkpt><trkpt lat="30.7727742" lon="35.732206"><ele>1203.9</ele><time>2015-11-22T13:54:10.0000000+00:00</time></trkpt><trkpt lat="30.7727126" lon="35.7321824"><ele>1204.3</ele><time>2015-11-22T13:54:12.0000000+00:00</time></trkpt><trkpt lat="30.7726524" lon="35.7321584"><ele>1204.4</ele><time>2015-11-22T13:54:14.0000000+00:00</time></trkpt><trkpt lat="30.7725921" lon="35.7321331"><ele>1205.1</ele><time>2015-11-22T13:54:16.0000000+00:00</time></trkpt><trkpt lat="30.7725351" lon="35.7321113"><ele>1204.6</ele><time>2015-11-22T13:54:18.0000000+00:00</time></trkpt><trkpt lat="30.7724828" lon="35.7320895"><ele>1204.4</ele><time>2015-11-22T13:54:20.0000000+00:00</time></trkpt><trkpt lat="30.7724354" lon="35.7320617"><ele>1204.4</ele><time>2015-11-22T13:54:22.0000000+00:00</time></trkpt><trkpt lat="30.7723872" lon="35.7320332"><ele>1204.4</ele><time>2015-11-22T13:54:24.0000000+00:00</time></trkpt><trkpt lat="30.7723361" lon="35.732003"><ele>1204.9</ele><time>2015-11-22T13:54:26.0000000+00:00</time></trkpt><trkpt lat="30.7722776" lon="35.7319701"><ele>1205.3</ele><time>2015-11-22T13:54:28.0000000+00:00</time></trkpt><trkpt lat="30.7722144" lon="35.7319364"><ele>1204.6</ele><time>2015-11-22T13:54:30.0000000+00:00</time></trkpt><trkpt lat="30.7721483" lon="35.731898"><ele>1204.7</ele><time>2015-11-22T13:54:32.0000000+00:00</time></trkpt><trkpt lat="30.7720811" lon="35.7318541"><ele>1204.5</ele><time>2015-11-22T13:54:34.0000000+00:00</time></trkpt><trkpt lat="30.7720012" lon="35.7318077"><ele>1205.2</ele><time>2015-11-22T13:54:36.0000000+00:00</time></trkpt><trkpt lat="30.7719363" lon="35.7317679"><ele>1204.8</ele><time>2015-11-22T13:54:37.0000000+00:00</time></trkpt><trkpt lat="30.7718885" lon="35.7317416"><ele>1204.1</ele><time>2015-11-22T13:54:38.0000000+00:00</time></trkpt><trkpt lat="30.7718399" lon="35.7317045"><ele>1203.2</ele><time>2015-11-22T13:54:39.0000000+00:00</time></trkpt><trkpt lat="30.771794" lon="35.7316755"><ele>1202.3</ele><time>2015-11-22T13:54:40.0000000+00:00</time></trkpt><trkpt lat="30.771745" lon="35.7316427"><ele>1201.9</ele><time>2015-11-22T13:54:41.0000000+00:00</time></trkpt><trkpt lat="30.7716959" lon="35.7316055"><ele>1201.1</ele><time>2015-11-22T13:54:42.0000000+00:00</time></trkpt><trkpt lat="30.7716457" lon="35.7315703"><ele>1200.8</ele><time>2015-11-22T13:54:43.0000000+00:00</time></trkpt><trkpt lat="30.7715953" lon="35.7315342"><ele>1200.6</ele><time>2015-11-22T13:54:44.0000000+00:00</time></trkpt><trkpt lat="30.7715422" lon="35.7314938"><ele>1200.0</ele><time>2015-11-22T13:54:45.0000000+00:00</time></trkpt><trkpt lat="30.7714902" lon="35.7314453"><ele>1199.7</ele><time>2015-11-22T13:54:46.0000000+00:00</time></trkpt><trkpt lat="30.7714392" lon="35.7314013"><ele>1199.5</ele><time>2015-11-22T13:54:47.0000000+00:00</time></trkpt><trkpt lat="30.7713871" lon="35.7313571"><ele>1199.5</ele><time>2015-11-22T13:54:48.0000000+00:00</time></trkpt><trkpt lat="30.7713319" lon="35.7313051"><ele>1199.4</ele><time>2015-11-22T13:54:49.0000000+00:00</time></trkpt><trkpt lat="30.7712731" lon="35.7312559"><ele>1199.9</ele><time>2015-11-22T13:54:50.0000000+00:00</time></trkpt><trkpt lat="30.7712194" lon="35.7312108"><ele>1200.2</ele><time>2015-11-22T13:54:51.0000000+00:00</time></trkpt><trkpt lat="30.7711627" lon="35.7311682"><ele>1199.8</ele><time>2015-11-22T13:54:52.0000000+00:00</time></trkpt><trkpt lat="30.7710968" lon="35.7311231"><ele>1199.6</ele><time>2015-11-22T13:54:53.0000000+00:00</time></trkpt><trkpt lat="30.771036" lon="35.731073"><ele>1199.5</ele><time>2015-11-22T13:54:54.0000000+00:00</time></trkpt><trkpt lat="30.7709779" lon="35.7310266"><ele>1194.4</ele><time>2015-11-22T13:54:55.0000000+00:00</time></trkpt><trkpt lat="30.7709187" lon="35.7309854"><ele>1191.9</ele><time>2015-11-22T13:54:56.0000000+00:00</time></trkpt><trkpt lat="30.7708617" lon="35.7309337"><ele>1190.7</ele><time>2015-11-22T13:54:57.0000000+00:00</time></trkpt><trkpt lat="30.7707953" lon="35.7308879"><ele>1190.0</ele><time>2015-11-22T13:54:58.0000000+00:00</time></trkpt><trkpt lat="30.7707292" lon="35.7308386"><ele>1189.7</ele><time>2015-11-22T13:54:59.0000000+00:00</time></trkpt><trkpt lat="30.7706615" lon="35.73079"><ele>1189.6</ele><time>2015-11-22T13:55:00.0000000+00:00</time></trkpt><trkpt lat="30.770604" lon="35.730733"><ele>1190.0</ele><time>2015-11-22T13:55:01.0000000+00:00</time></trkpt><trkpt lat="30.7705424" lon="35.7306803"><ele>1190.2</ele><time>2015-11-22T13:55:02.0000000+00:00</time></trkpt><trkpt lat="30.7704779" lon="35.7306166"><ele>1190.3</ele><time>2015-11-22T13:55:03.0000000+00:00</time></trkpt><trkpt lat="30.7704186" lon="35.7305563"><ele>1190.3</ele><time>2015-11-22T13:55:04.0000000+00:00</time></trkpt><trkpt lat="30.7703507" lon="35.7305026"><ele>1189.4</ele><time>2015-11-22T13:55:05.0000000+00:00</time></trkpt><trkpt lat="30.7702898" lon="35.7304648"><ele>1188.4</ele><time>2015-11-22T13:55:06.0000000+00:00</time></trkpt><trkpt lat="30.7702364" lon="35.7304176"><ele>1187.9</ele><time>2015-11-22T13:55:07.0000000+00:00</time></trkpt><trkpt lat="30.7701673" lon="35.7303774"><ele>1187.6</ele><time>2015-11-22T13:55:08.0000000+00:00</time></trkpt><trkpt lat="30.770102" lon="35.7303497"><ele>1187.0</ele><time>2015-11-22T13:55:09.0000000+00:00</time></trkpt><trkpt lat="30.7700351" lon="35.7303215"><ele>1186.7</ele><time>2015-11-22T13:55:10.0000000+00:00</time></trkpt><trkpt lat="30.7699716" lon="35.7302999"><ele>1186.6</ele><time>2015-11-22T13:55:11.0000000+00:00</time></trkpt><trkpt lat="30.7699004" lon="35.7302766"><ele>1186.5</ele><time>2015-11-22T13:55:12.0000000+00:00</time></trkpt><trkpt lat="30.7698358" lon="35.7302517"><ele>1186.4</ele><time>2015-11-22T13:55:13.0000000+00:00</time></trkpt><trkpt lat="30.7697648" lon="35.7302234"><ele>1185.9</ele><time>2015-11-22T13:55:14.0000000+00:00</time></trkpt><trkpt lat="30.7696921" lon="35.7301969"><ele>1186.2</ele><time>2015-11-22T13:55:15.0000000+00:00</time></trkpt><trkpt lat="30.769627" lon="35.7301652"><ele>1186.8</ele><time>2015-11-22T13:55:16.0000000+00:00</time></trkpt><trkpt lat="30.7695541" lon="35.730131"><ele>1187.1</ele><time>2015-11-22T13:55:17.0000000+00:00</time></trkpt><trkpt lat="30.7694832" lon="35.730108"><ele>1187.7</ele><time>2015-11-22T13:55:18.0000000+00:00</time></trkpt><trkpt lat="30.7694203" lon="35.7300761"><ele>1187.6</ele><time>2015-11-22T13:55:19.0000000+00:00</time></trkpt><trkpt lat="30.7693558" lon="35.7300454"><ele>1187.5</ele><time>2015-11-22T13:55:20.0000000+00:00</time></trkpt><trkpt lat="30.7692888" lon="35.730016"><ele>1187.4</ele><time>2015-11-22T13:55:21.0000000+00:00</time></trkpt><trkpt lat="30.7692204" lon="35.7299883"><ele>1187.4</ele><time>2015-11-22T13:55:22.0000000+00:00</time></trkpt><trkpt lat="30.769158" lon="35.7299603"><ele>1187.4</ele><time>2015-11-22T13:55:23.0000000+00:00</time></trkpt><trkpt lat="30.7690995" lon="35.7299432"><ele>1187.4</ele><time>2015-11-22T13:55:24.0000000+00:00</time></trkpt><trkpt lat="30.7690415" lon="35.7299161"><ele>1187.4</ele><time>2015-11-22T13:55:25.0000000+00:00</time></trkpt><trkpt lat="30.7689824" lon="35.7298869"><ele>1187.9</ele><time>2015-11-22T13:55:26.0000000+00:00</time></trkpt><trkpt lat="30.7689198" lon="35.7298706"><ele>1188.1</ele><time>2015-11-22T13:55:27.0000000+00:00</time></trkpt><trkpt lat="30.7688585" lon="35.729843"><ele>1188.3</ele><time>2015-11-22T13:55:28.0000000+00:00</time></trkpt><trkpt lat="30.768794" lon="35.7298143"><ele>1188.3</ele><time>2015-11-22T13:55:29.0000000+00:00</time></trkpt><trkpt lat="30.768731" lon="35.7297859"><ele>1188.4</ele><time>2015-11-22T13:55:30.0000000+00:00</time></trkpt><trkpt lat="30.7686766" lon="35.7297605"><ele>1188.4</ele><time>2015-11-22T13:55:31.0000000+00:00</time></trkpt><trkpt lat="30.7686192" lon="35.729735"><ele>1188.4</ele><time>2015-11-22T13:55:32.0000000+00:00</time></trkpt><trkpt lat="30.7685662" lon="35.7297191"><ele>1187.9</ele><time>2015-11-22T13:55:33.0000000+00:00</time></trkpt><trkpt lat="30.7685112" lon="35.7296942"><ele>1187.6</ele><time>2015-11-22T13:55:34.0000000+00:00</time></trkpt><trkpt lat="30.768455" lon="35.7296644"><ele>1188.0</ele><time>2015-11-22T13:55:35.0000000+00:00</time></trkpt><trkpt lat="30.7683995" lon="35.729634"><ele>1188.2</ele><time>2015-11-22T13:55:36.0000000+00:00</time></trkpt><trkpt lat="30.768344" lon="35.7296096"><ele>1188.3</ele><time>2015-11-22T13:55:37.0000000+00:00</time></trkpt><trkpt lat="30.7682898" lon="35.7295809"><ele>1188.4</ele><time>2015-11-22T13:55:38.0000000+00:00</time></trkpt><trkpt lat="30.7682352" lon="35.7295594"><ele>1188.4</ele><time>2015-11-22T13:55:39.0000000+00:00</time></trkpt><trkpt lat="30.7681757" lon="35.7295298"><ele>1188.4</ele><time>2015-11-22T13:55:40.0000000+00:00</time></trkpt><trkpt lat="30.7681144" lon="35.7295056"><ele>1188.4</ele><time>2015-11-22T13:55:41.0000000+00:00</time></trkpt><trkpt lat="30.7680506" lon="35.7294742"><ele>1188.4</ele><time>2015-11-22T13:55:42.0000000+00:00</time></trkpt><trkpt lat="30.7679892" lon="35.7294464"><ele>1188.4</ele><time>2015-11-22T13:55:43.0000000+00:00</time></trkpt><trkpt lat="30.7679299" lon="35.7294202"><ele>1187.9</ele><time>2015-11-22T13:55:44.0000000+00:00</time></trkpt><trkpt lat="30.7678697" lon="35.729395"><ele>1188.1</ele><time>2015-11-22T13:55:45.0000000+00:00</time></trkpt><trkpt lat="30.7678117" lon="35.7293646"><ele>1188.3</ele><time>2015-11-22T13:55:46.0000000+00:00</time></trkpt><trkpt lat="30.7677509" lon="35.7293364"><ele>1188.3</ele><time>2015-11-22T13:55:47.0000000+00:00</time></trkpt><trkpt lat="30.7676977" lon="35.7293028"><ele>1188.9</ele><time>2015-11-22T13:55:48.0000000+00:00</time></trkpt><trkpt lat="30.7676507" lon="35.7292762"><ele>1189.1</ele><time>2015-11-22T13:55:49.0000000+00:00</time></trkpt><trkpt lat="30.7676027" lon="35.7292409"><ele>1189.3</ele><time>2015-11-22T13:55:50.0000000+00:00</time></trkpt><trkpt lat="30.7675533" lon="35.729209"><ele>1189.3</ele><time>2015-11-22T13:55:51.0000000+00:00</time></trkpt><trkpt lat="30.7675094" lon="35.729176"><ele>1189.4</ele><time>2015-11-22T13:55:52.0000000+00:00</time></trkpt><trkpt lat="30.7674662" lon="35.7291444"><ele>1189.4</ele><time>2015-11-22T13:55:53.0000000+00:00</time></trkpt><trkpt lat="30.7674153" lon="35.7291199"><ele>1189.4</ele><time>2015-11-22T13:55:54.0000000+00:00</time></trkpt><trkpt lat="30.7673746" lon="35.7290869"><ele>1188.9</ele><time>2015-11-22T13:55:55.0000000+00:00</time></trkpt><trkpt lat="30.7673241" lon="35.7290488"><ele>1188.6</ele><time>2015-11-22T13:55:56.0000000+00:00</time></trkpt><trkpt lat="30.7672744" lon="35.7290048"><ele>1188.5</ele><time>2015-11-22T13:55:57.0000000+00:00</time></trkpt><trkpt lat="30.7672288" lon="35.7289658"><ele>1188.5</ele><time>2015-11-22T13:55:58.0000000+00:00</time></trkpt><trkpt lat="30.7671746" lon="35.7289305"><ele>1188.4</ele><time>2015-11-22T13:55:59.0000000+00:00</time></trkpt><trkpt lat="30.7671226" lon="35.7288925"><ele>1188.4</ele><time>2015-11-22T13:56:00.0000000+00:00</time></trkpt><trkpt lat="30.7670736" lon="35.7288567"><ele>1188.4</ele><time>2015-11-22T13:56:01.0000000+00:00</time></trkpt><trkpt lat="30.7670248" lon="35.7288198"><ele>1188.9</ele><time>2015-11-22T13:56:02.0000000+00:00</time></trkpt><trkpt lat="30.7669792" lon="35.7287718"><ele>1189.2</ele><time>2015-11-22T13:56:03.0000000+00:00</time></trkpt><trkpt lat="30.7669264" lon="35.7287338"><ele>1189.3</ele><time>2015-11-22T13:56:04.0000000+00:00</time></trkpt><trkpt lat="30.7668738" lon="35.7287046"><ele>1189.3</ele><time>2015-11-22T13:56:05.0000000+00:00</time></trkpt><trkpt lat="30.7668225" lon="35.7286685"><ele>1189.4</ele><time>2015-11-22T13:56:06.0000000+00:00</time></trkpt><trkpt lat="30.7667684" lon="35.7286357"><ele>1189.4</ele><time>2015-11-22T13:56:07.0000000+00:00</time></trkpt><trkpt lat="30.7667191" lon="35.7286002"><ele>1189.4</ele><time>2015-11-22T13:56:08.0000000+00:00</time></trkpt><trkpt lat="30.7666694" lon="35.7285587"><ele>1189.4</ele><time>2015-11-22T13:56:09.0000000+00:00</time></trkpt><trkpt lat="30.7665824" lon="35.7284951"><ele>1189.1</ele><time>2015-11-22T13:56:11.0000000+00:00</time></trkpt><trkpt lat="30.7665274" lon="35.7284594"><ele>1189.3</ele><time>2015-11-22T13:56:12.0000000+00:00</time></trkpt><trkpt lat="30.7664754" lon="35.7284278"><ele>1189.3</ele><time>2015-11-22T13:56:13.0000000+00:00</time></trkpt><trkpt lat="30.7664223" lon="35.7283841"><ele>1189.4</ele><time>2015-11-22T13:56:14.0000000+00:00</time></trkpt><trkpt lat="30.7663645" lon="35.7283468"><ele>1189.4</ele><time>2015-11-22T13:56:15.0000000+00:00</time></trkpt><trkpt lat="30.7663098" lon="35.7283058"><ele>1189.4</ele><time>2015-11-22T13:56:16.0000000+00:00</time></trkpt><trkpt lat="30.7662538" lon="35.7282589"><ele>1189.4</ele><time>2015-11-22T13:56:17.0000000+00:00</time></trkpt><trkpt lat="30.7661973" lon="35.7282253"><ele>1189.4</ele><time>2015-11-22T13:56:18.0000000+00:00</time></trkpt><trkpt lat="30.7661401" lon="35.7281844"><ele>1189.4</ele><time>2015-11-22T13:56:19.0000000+00:00</time></trkpt><trkpt lat="30.7660829" lon="35.7281455"><ele>1189.9</ele><time>2015-11-22T13:56:20.0000000+00:00</time></trkpt><trkpt lat="30.7660308" lon="35.7281085"><ele>1190.1</ele><time>2015-11-22T13:56:21.0000000+00:00</time></trkpt><trkpt lat="30.765992" lon="35.7280799"><ele>1189.8</ele><time>2015-11-22T13:56:22.0000000+00:00</time></trkpt><trkpt lat="30.7659483" lon="35.7280451"><ele>1189.6</ele><time>2015-11-22T13:56:23.0000000+00:00</time></trkpt><trkpt lat="30.7659056" lon="35.7280108"><ele>1189.5</ele><time>2015-11-22T13:56:24.0000000+00:00</time></trkpt><trkpt lat="30.7658573" lon="35.7279895"><ele>1187.9</ele><time>2015-11-22T13:56:25.0000000+00:00</time></trkpt><trkpt lat="30.7658109" lon="35.7279532"><ele>1187.2</ele><time>2015-11-22T13:56:26.0000000+00:00</time></trkpt><trkpt lat="30.7657568" lon="35.7279198"><ele>1186.3</ele><time>2015-11-22T13:56:27.0000000+00:00</time></trkpt><trkpt lat="30.7657054" lon="35.7278794"><ele>1186.3</ele><time>2015-11-22T13:56:28.0000000+00:00</time></trkpt><trkpt lat="30.765657" lon="35.7278433"><ele>1186.9</ele><time>2015-11-22T13:56:29.0000000+00:00</time></trkpt><trkpt lat="30.7656051" lon="35.7278124"><ele>1187.6</ele><time>2015-11-22T13:56:30.0000000+00:00</time></trkpt><trkpt lat="30.7655497" lon="35.7277762"><ele>1188.0</ele><time>2015-11-22T13:56:31.0000000+00:00</time></trkpt><trkpt lat="30.7655046" lon="35.7277383"><ele>1188.2</ele><time>2015-11-22T13:56:32.0000000+00:00</time></trkpt><trkpt lat="30.7654608" lon="35.7276941"><ele>1188.3</ele><time>2015-11-22T13:56:33.0000000+00:00</time></trkpt><trkpt lat="30.7654166" lon="35.7276544"><ele>1188.4</ele><time>2015-11-22T13:56:34.0000000+00:00</time></trkpt><trkpt lat="30.765371" lon="35.7276165"><ele>1188.4</ele><time>2015-11-22T13:56:35.0000000+00:00</time></trkpt><trkpt lat="30.7653279" lon="35.7275744"><ele>1188.4</ele><time>2015-11-22T13:56:36.0000000+00:00</time></trkpt><trkpt lat="30.7652792" lon="35.727532"><ele>1188.4</ele><time>2015-11-22T13:56:37.0000000+00:00</time></trkpt><trkpt lat="30.7652427" lon="35.7275005"><ele>1188.9</ele><time>2015-11-22T13:56:38.0000000+00:00</time></trkpt><trkpt lat="30.765164" lon="35.7274348"><ele>1189.3</ele><time>2015-11-22T13:56:40.0000000+00:00</time></trkpt><trkpt lat="30.7651177" lon="35.727393"><ele>1189.3</ele><time>2015-11-22T13:56:41.0000000+00:00</time></trkpt><trkpt lat="30.7650725" lon="35.7273533"><ele>1189.4</ele><time>2015-11-22T13:56:42.0000000+00:00</time></trkpt><trkpt lat="30.765032" lon="35.7273097"><ele>1189.4</ele><time>2015-11-22T13:56:43.0000000+00:00</time></trkpt><trkpt lat="30.7649869" lon="35.727265"><ele>1189.9</ele><time>2015-11-22T13:56:44.0000000+00:00</time></trkpt><trkpt lat="30.7649482" lon="35.7272235"><ele>1190.1</ele><time>2015-11-22T13:56:45.0000000+00:00</time></trkpt><trkpt lat="30.7649094" lon="35.7271732"><ele>1189.8</ele><time>2015-11-22T13:56:46.0000000+00:00</time></trkpt><trkpt lat="30.7648625" lon="35.7271304"><ele>1190.1</ele><time>2015-11-22T13:56:47.0000000+00:00</time></trkpt><trkpt lat="30.7648182" lon="35.7270818"><ele>1190.2</ele><time>2015-11-22T13:56:48.0000000+00:00</time></trkpt><trkpt lat="30.7647624" lon="35.727045"><ele>1190.3</ele><time>2015-11-22T13:56:49.0000000+00:00</time></trkpt><trkpt lat="30.7647107" lon="35.7270048"><ele>1189.9</ele><time>2015-11-22T13:56:50.0000000+00:00</time></trkpt><trkpt lat="30.7646623" lon="35.7269634"><ele>1189.6</ele><time>2015-11-22T13:56:51.0000000+00:00</time></trkpt><trkpt lat="30.7646198" lon="35.7269195"><ele>1189.0</ele><time>2015-11-22T13:56:52.0000000+00:00</time></trkpt><trkpt lat="30.7645948" lon="35.7268702"><ele>1187.7</ele><time>2015-11-22T13:56:53.0000000+00:00</time></trkpt><trkpt lat="30.7645484" lon="35.7268363"><ele>1187.1</ele><time>2015-11-22T13:56:54.0000000+00:00</time></trkpt><trkpt lat="30.7644993" lon="35.7267917"><ele>1186.7</ele><time>2015-11-22T13:56:55.0000000+00:00</time></trkpt><trkpt lat="30.7644457" lon="35.7267485"><ele>1187.1</ele><time>2015-11-22T13:56:56.0000000+00:00</time></trkpt><trkpt lat="30.7643974" lon="35.7267071"><ele>1187.7</ele><time>2015-11-22T13:56:57.0000000+00:00</time></trkpt><trkpt lat="30.7643551" lon="35.7266519"><ele>1188.1</ele><time>2015-11-22T13:56:58.0000000+00:00</time></trkpt><trkpt lat="30.7643124" lon="35.7265988"><ele>1188.2</ele><time>2015-11-22T13:56:59.0000000+00:00</time></trkpt><trkpt lat="30.7642641" lon="35.7265527"><ele>1188.8</ele><time>2015-11-22T13:57:00.0000000+00:00</time></trkpt><trkpt lat="30.7642124" lon="35.7265017"><ele>1192.6</ele><time>2015-11-22T13:57:01.0000000+00:00</time></trkpt><trkpt lat="30.7641547" lon="35.7264514"><ele>1196.5</ele><time>2015-11-22T13:57:02.0000000+00:00</time></trkpt><trkpt lat="30.7641014" lon="35.7264044"><ele>1199.0</ele><time>2015-11-22T13:57:03.0000000+00:00</time></trkpt><trkpt lat="30.7640498" lon="35.7263549"><ele>1200.7</ele><time>2015-11-22T13:57:04.0000000+00:00</time></trkpt><trkpt lat="30.7639958" lon="35.7263042"><ele>1202.0</ele><time>2015-11-22T13:57:05.0000000+00:00</time></trkpt><trkpt lat="30.763947" lon="35.7262569"><ele>1202.7</ele><time>2015-11-22T13:57:06.0000000+00:00</time></trkpt><trkpt lat="30.7638917" lon="35.7262157"><ele>1203.1</ele><time>2015-11-22T13:57:07.0000000+00:00</time></trkpt><trkpt lat="30.7638407" lon="35.7261712"><ele>1203.2</ele><time>2015-11-22T13:57:08.0000000+00:00</time></trkpt><trkpt lat="30.7637905" lon="35.726128"><ele>1203.3</ele><time>2015-11-22T13:57:09.0000000+00:00</time></trkpt><trkpt lat="30.7636897" lon="35.7260551"><ele>1203.4</ele><time>2015-11-22T13:57:11.0000000+00:00</time></trkpt><trkpt lat="30.763639" lon="35.7260282"><ele>1203.4</ele><time>2015-11-22T13:57:12.0000000+00:00</time></trkpt><trkpt lat="30.7635905" lon="35.7260046"><ele>1203.4</ele><time>2015-11-22T13:57:13.0000000+00:00</time></trkpt><trkpt lat="30.7635424" lon="35.725984"><ele>1203.9</ele><time>2015-11-22T13:57:14.0000000+00:00</time></trkpt><trkpt lat="30.7634978" lon="35.7259557"><ele>1204.1</ele><time>2015-11-22T13:57:15.0000000+00:00</time></trkpt><trkpt lat="30.7634222" lon="35.7259135"><ele>1204.3</ele><time>2015-11-22T13:57:17.0000000+00:00</time></trkpt><trkpt lat="30.7633373" lon="35.7258725"><ele>1204.9</ele><time>2015-11-22T13:57:19.0000000+00:00</time></trkpt><trkpt lat="30.7632581" lon="35.7258236"><ele>1205.3</ele><time>2015-11-22T13:57:21.0000000+00:00</time></trkpt><trkpt lat="30.7632164" lon="35.7258017"><ele>1205.3</ele><time>2015-11-22T13:57:22.0000000+00:00</time></trkpt><trkpt lat="30.7631699" lon="35.7257796"><ele>1204.9</ele><time>2015-11-22T13:57:23.0000000+00:00</time></trkpt><trkpt lat="30.7631238" lon="35.7257541"><ele>1205.1</ele><time>2015-11-22T13:57:24.0000000+00:00</time></trkpt><trkpt lat="30.7630807" lon="35.7257291"><ele>1205.3</ele><time>2015-11-22T13:57:25.0000000+00:00</time></trkpt><trkpt lat="30.7630372" lon="35.7257104"><ele>1205.3</ele><time>2015-11-22T13:57:26.0000000+00:00</time></trkpt><trkpt lat="30.7629914" lon="35.7256832"><ele>1205.4</ele><time>2015-11-22T13:57:27.0000000+00:00</time></trkpt><trkpt lat="30.7629472" lon="35.7256593"><ele>1205.4</ele><time>2015-11-22T13:57:28.0000000+00:00</time></trkpt><trkpt lat="30.7629037" lon="35.7256235"><ele>1205.4</ele><time>2015-11-22T13:57:29.0000000+00:00</time></trkpt><trkpt lat="30.7628145" lon="35.7255734"><ele>1205.9</ele><time>2015-11-22T13:57:31.0000000+00:00</time></trkpt><trkpt lat="30.7627704" lon="35.7255469"><ele>1206.1</ele><time>2015-11-22T13:57:32.0000000+00:00</time></trkpt><trkpt lat="30.7627265" lon="35.7255263"><ele>1206.3</ele><time>2015-11-22T13:57:33.0000000+00:00</time></trkpt><trkpt lat="30.762648" lon="35.7254788"><ele>1207.1</ele><time>2015-11-22T13:57:35.0000000+00:00</time></trkpt><trkpt lat="30.7625756" lon="35.7254368"><ele>1208.1</ele><time>2015-11-22T13:57:37.0000000+00:00</time></trkpt><trkpt lat="30.7624996" lon="35.7253926"><ele>1208.3</ele><time>2015-11-22T13:57:39.0000000+00:00</time></trkpt><trkpt lat="30.7624251" lon="35.725359"><ele>1208.4</ele><time>2015-11-22T13:57:41.0000000+00:00</time></trkpt><trkpt lat="30.7623461" lon="35.725318"><ele>1208.4</ele><time>2015-11-22T13:57:43.0000000+00:00</time></trkpt><trkpt lat="30.7623055" lon="35.7252953"><ele>1208.9</ele><time>2015-11-22T13:57:44.0000000+00:00</time></trkpt><trkpt lat="30.7622646" lon="35.7252717"><ele>1209.1</ele><time>2015-11-22T13:57:45.0000000+00:00</time></trkpt><trkpt lat="30.7622167" lon="35.7252436"><ele>1209.3</ele><time>2015-11-22T13:57:46.0000000+00:00</time></trkpt><trkpt lat="30.7621772" lon="35.7252183"><ele>1209.3</ele><time>2015-11-22T13:57:47.0000000+00:00</time></trkpt><trkpt lat="30.7621098" lon="35.725182"><ele>1209.4</ele><time>2015-11-22T13:57:49.0000000+00:00</time></trkpt><trkpt lat="30.7620417" lon="35.7251505"><ele>1208.9</ele><time>2015-11-22T13:57:51.0000000+00:00</time></trkpt><trkpt lat="30.7619773" lon="35.7251299"><ele>1209.0</ele><time>2015-11-22T13:57:53.0000000+00:00</time></trkpt><trkpt lat="30.7619101" lon="35.7251089"><ele>1209.3</ele><time>2015-11-22T13:57:55.0000000+00:00</time></trkpt><trkpt lat="30.7618493" lon="35.7250955"><ele>1209.4</ele><time>2015-11-22T13:57:57.0000000+00:00</time></trkpt><trkpt lat="30.7617897" lon="35.7250885"><ele>1209.9</ele><time>2015-11-22T13:57:59.0000000+00:00</time></trkpt><trkpt lat="30.7617274" lon="35.7250864"><ele>1210.3</ele><time>2015-11-22T13:58:01.0000000+00:00</time></trkpt><trkpt lat="30.7616659" lon="35.725094"><ele>1210.9</ele><time>2015-11-22T13:58:03.0000000+00:00</time></trkpt><trkpt lat="30.761608" lon="35.725105"><ele>1210.5</ele><time>2015-11-22T13:58:05.0000000+00:00</time></trkpt><trkpt lat="30.7615574" lon="35.7251112"><ele>1210.4</ele><time>2015-11-22T13:58:07.0000000+00:00</time></trkpt><trkpt lat="30.7614923" lon="35.725119"><ele>1210.4</ele><time>2015-11-22T13:58:10.0000000+00:00</time></trkpt><trkpt lat="30.7614308" lon="35.7251284"><ele>1210.6</ele><time>2015-11-22T13:58:13.0000000+00:00</time></trkpt><trkpt lat="30.7613633" lon="35.725124"><ele>1210.4</ele><time>2015-11-22T13:58:16.0000000+00:00</time></trkpt><trkpt lat="30.7613136" lon="35.7251217"><ele>1211.2</ele><time>2015-11-22T13:58:18.0000000+00:00</time></trkpt><trkpt lat="30.7612586" lon="35.725128"><ele>1211.3</ele><time>2015-11-22T13:58:20.0000000+00:00</time></trkpt><trkpt lat="30.7611999" lon="35.7251385"><ele>1212.1</ele><time>2015-11-22T13:58:22.0000000+00:00</time></trkpt><trkpt lat="30.7611416" lon="35.7251474"><ele>1212.3</ele><time>2015-11-22T13:58:24.0000000+00:00</time></trkpt><trkpt lat="30.7610891" lon="35.7251535"><ele>1212.9</ele><time>2015-11-22T13:58:26.0000000+00:00</time></trkpt><trkpt lat="30.7610379" lon="35.7251554"><ele>1214.0</ele><time>2015-11-22T13:58:28.0000000+00:00</time></trkpt><trkpt lat="30.7609872" lon="35.7251578"><ele>1214.3</ele><time>2015-11-22T13:58:30.0000000+00:00</time></trkpt><trkpt lat="30.7609358" lon="35.7251602"><ele>1214.4</ele><time>2015-11-22T13:58:32.0000000+00:00</time></trkpt><trkpt lat="30.7608884" lon="35.7251621"><ele>1214.6</ele><time>2015-11-22T13:58:34.0000000+00:00</time></trkpt><trkpt lat="30.7608418" lon="35.7251681"><ele>1214.5</ele><time>2015-11-22T13:58:36.0000000+00:00</time></trkpt><trkpt lat="30.7607924" lon="35.7251773"><ele>1214.4</ele><time>2015-11-22T13:58:38.0000000+00:00</time></trkpt><trkpt lat="30.7607409" lon="35.725183"><ele>1214.4</ele><time>2015-11-22T13:58:40.0000000+00:00</time></trkpt><trkpt lat="30.7606875" lon="35.7251879"><ele>1215.1</ele><time>2015-11-22T13:58:42.0000000+00:00</time></trkpt><trkpt lat="30.760633" lon="35.7251959"><ele>1215.8</ele><time>2015-11-22T13:58:44.0000000+00:00</time></trkpt><trkpt lat="30.7605742" lon="35.7252044"><ele>1216.3</ele><time>2015-11-22T13:58:46.0000000+00:00</time></trkpt><trkpt lat="30.7605128" lon="35.72521"><ele>1217.1</ele><time>2015-11-22T13:58:48.0000000+00:00</time></trkpt><trkpt lat="30.7604482" lon="35.7252161"><ele>1216.1</ele><time>2015-11-22T13:58:50.0000000+00:00</time></trkpt><trkpt lat="30.7603808" lon="35.7252216"><ele>1214.8</ele><time>2015-11-22T13:58:52.0000000+00:00</time></trkpt><trkpt lat="30.7603124" lon="35.7252262"><ele>1214.5</ele><time>2015-11-22T13:58:54.0000000+00:00</time></trkpt><trkpt lat="30.7602492" lon="35.7252257"><ele>1214.4</ele><time>2015-11-22T13:58:56.0000000+00:00</time></trkpt><trkpt lat="30.7601884" lon="35.7252282"><ele>1214.4</ele><time>2015-11-22T13:58:58.0000000+00:00</time></trkpt><trkpt lat="30.7601271" lon="35.7252329"><ele>1214.4</ele><time>2015-11-22T13:59:00.0000000+00:00</time></trkpt><trkpt lat="30.7600639" lon="35.725235"><ele>1214.4</ele><time>2015-11-22T13:59:02.0000000+00:00</time></trkpt><trkpt lat="30.7599999" lon="35.72524"><ele>1214.4</ele><time>2015-11-22T13:59:04.0000000+00:00</time></trkpt><trkpt lat="30.7599364" lon="35.7252442"><ele>1214.4</ele><time>2015-11-22T13:59:06.0000000+00:00</time></trkpt><trkpt lat="30.7598715" lon="35.7252484"><ele>1214.4</ele><time>2015-11-22T13:59:08.0000000+00:00</time></trkpt><trkpt lat="30.7598063" lon="35.7252548"><ele>1214.4</ele><time>2015-11-22T13:59:10.0000000+00:00</time></trkpt><trkpt lat="30.7597421" lon="35.7252578"><ele>1214.4</ele><time>2015-11-22T13:59:12.0000000+00:00</time></trkpt><trkpt lat="30.7596748" lon="35.72526"><ele>1214.4</ele><time>2015-11-22T13:59:14.0000000+00:00</time></trkpt><trkpt lat="30.7596059" lon="35.7252608"><ele>1214.4</ele><time>2015-11-22T13:59:16.0000000+00:00</time></trkpt><trkpt lat="30.7595355" lon="35.7252646"><ele>1214.4</ele><time>2015-11-22T13:59:18.0000000+00:00</time></trkpt><trkpt lat="30.7594665" lon="35.7252712"><ele>1214.4</ele><time>2015-11-22T13:59:20.0000000+00:00</time></trkpt><trkpt lat="30.7593986" lon="35.7252788"><ele>1214.4</ele><time>2015-11-22T13:59:22.0000000+00:00</time></trkpt><trkpt lat="30.7593308" lon="35.7252871"><ele>1214.4</ele><time>2015-11-22T13:59:24.0000000+00:00</time></trkpt><trkpt lat="30.759262" lon="35.7252923"><ele>1214.9</ele><time>2015-11-22T13:59:26.0000000+00:00</time></trkpt><trkpt lat="30.7591932" lon="35.7253021"><ele>1215.3</ele><time>2015-11-22T13:59:28.0000000+00:00</time></trkpt><trkpt lat="30.7591241" lon="35.7253141"><ele>1215.4</ele><time>2015-11-22T13:59:30.0000000+00:00</time></trkpt><trkpt lat="30.7590539" lon="35.725328"><ele>1215.4</ele><time>2015-11-22T13:59:32.0000000+00:00</time></trkpt><trkpt lat="30.7589853" lon="35.7253431"><ele>1215.4</ele><time>2015-11-22T13:59:34.0000000+00:00</time></trkpt><trkpt lat="30.7589162" lon="35.7253596"><ele>1215.4</ele><time>2015-11-22T13:59:36.0000000+00:00</time></trkpt><trkpt lat="30.758847" lon="35.7253764"><ele>1216.1</ele><time>2015-11-22T13:59:38.0000000+00:00</time></trkpt><trkpt lat="30.7587784" lon="35.7253972"><ele>1216.3</ele><time>2015-11-22T13:59:40.0000000+00:00</time></trkpt><trkpt lat="30.7587095" lon="35.7254261"><ele>1216.9</ele><time>2015-11-22T13:59:42.0000000+00:00</time></trkpt><trkpt lat="30.7586423" lon="35.7254552"><ele>1217.3</ele><time>2015-11-22T13:59:44.0000000+00:00</time></trkpt><trkpt lat="30.7585774" lon="35.7254869"><ele>1217.4</ele><time>2015-11-22T13:59:46.0000000+00:00</time></trkpt><trkpt lat="30.7585118" lon="35.7255229"><ele>1217.4</ele><time>2015-11-22T13:59:48.0000000+00:00</time></trkpt><trkpt lat="30.7584512" lon="35.7255579"><ele>1217.4</ele><time>2015-11-22T13:59:50.0000000+00:00</time></trkpt><trkpt lat="30.7583938" lon="35.7255932"><ele>1217.9</ele><time>2015-11-22T13:59:52.0000000+00:00</time></trkpt><trkpt lat="30.7583422" lon="35.7256329"><ele>1217.8</ele><time>2015-11-22T13:59:54.0000000+00:00</time></trkpt><trkpt lat="30.7582936" lon="35.72568"><ele>1217.5</ele><time>2015-11-22T13:59:56.0000000+00:00</time></trkpt><trkpt lat="30.7582411" lon="35.7257268"><ele>1217.4</ele><time>2015-11-22T13:59:58.0000000+00:00</time></trkpt><trkpt lat="30.7581896" lon="35.7257747"><ele>1218.2</ele><time>2015-11-22T14:00:00.0000000+00:00</time></trkpt><trkpt lat="30.7581378" lon="35.7258255"><ele>1218.3</ele><time>2015-11-22T14:00:02.0000000+00:00</time></trkpt><trkpt lat="30.7580868" lon="35.7258775"><ele>1218.4</ele><time>2015-11-22T14:00:04.0000000+00:00</time></trkpt><trkpt lat="30.7580426" lon="35.7259311"><ele>1218.1</ele><time>2015-11-22T14:00:06.0000000+00:00</time></trkpt><trkpt lat="30.7580018" lon="35.7259866"><ele>1217.6</ele><time>2015-11-22T14:00:08.0000000+00:00</time></trkpt><trkpt lat="30.7579602" lon="35.726047"><ele>1217.9</ele><time>2015-11-22T14:00:10.0000000+00:00</time></trkpt><trkpt lat="30.7579178" lon="35.72611"><ele>1217.8</ele><time>2015-11-22T14:00:12.0000000+00:00</time></trkpt><trkpt lat="30.757875" lon="35.7261742"><ele>1218.2</ele><time>2015-11-22T14:00:14.0000000+00:00</time></trkpt><trkpt lat="30.7578314" lon="35.7262344"><ele>1217.9</ele><time>2015-11-22T14:00:16.0000000+00:00</time></trkpt><trkpt lat="30.757784" lon="35.7262914"><ele>1217.5</ele><time>2015-11-22T14:00:18.0000000+00:00</time></trkpt><trkpt lat="30.757735" lon="35.7263447"><ele>1217.4</ele><time>2015-11-22T14:00:20.0000000+00:00</time></trkpt><trkpt lat="30.757688" lon="35.7263996"><ele>1217.9</ele><time>2015-11-22T14:00:22.0000000+00:00</time></trkpt><trkpt lat="30.7576394" lon="35.7264564"><ele>1218.3</ele><time>2015-11-22T14:00:24.0000000+00:00</time></trkpt><trkpt lat="30.7575936" lon="35.7265154"><ele>1218.4</ele><time>2015-11-22T14:00:26.0000000+00:00</time></trkpt><trkpt lat="30.757551" lon="35.7265778"><ele>1218.9</ele><time>2015-11-22T14:00:28.0000000+00:00</time></trkpt><trkpt lat="30.7575085" lon="35.7266442"><ele>1218.8</ele><time>2015-11-22T14:00:30.0000000+00:00</time></trkpt><trkpt lat="30.7574616" lon="35.7267065"><ele>1218.5</ele><time>2015-11-22T14:00:32.0000000+00:00</time></trkpt><trkpt lat="30.7574146" lon="35.72676"><ele>1218.7</ele><time>2015-11-22T14:00:34.0000000+00:00</time></trkpt><trkpt lat="30.7573789" lon="35.7268096"><ele>1218.5</ele><time>2015-11-22T14:00:36.0000000+00:00</time></trkpt><trkpt lat="30.757336" lon="35.7268661"><ele>1218.9</ele><time>2015-11-22T14:00:39.0000000+00:00</time></trkpt><trkpt lat="30.7573013" lon="35.7269072"><ele>1219.3</ele><time>2015-11-22T14:00:41.0000000+00:00</time></trkpt><trkpt lat="30.7572648" lon="35.7269574"><ele>1219.4</ele><time>2015-11-22T14:00:43.0000000+00:00</time></trkpt><trkpt lat="30.7572185" lon="35.7270144"><ele>1217.9</ele><time>2015-11-22T14:00:45.0000000+00:00</time></trkpt><trkpt lat="30.7571612" lon="35.7270782"><ele>1218.8</ele><time>2015-11-22T14:00:47.0000000+00:00</time></trkpt><trkpt lat="30.7570961" lon="35.7271402"><ele>1218.5</ele><time>2015-11-22T14:00:49.0000000+00:00</time></trkpt><trkpt lat="30.7570334" lon="35.7271991"><ele>1218.4</ele><time>2015-11-22T14:00:51.0000000+00:00</time></trkpt><trkpt lat="30.7569695" lon="35.7272486"><ele>1218.4</ele><time>2015-11-22T14:00:53.0000000+00:00</time></trkpt><trkpt lat="30.7569062" lon="35.7272844"><ele>1219.2</ele><time>2015-11-22T14:00:55.0000000+00:00</time></trkpt><trkpt lat="30.7568398" lon="35.7273108"><ele>1219.3</ele><time>2015-11-22T14:00:57.0000000+00:00</time></trkpt><trkpt lat="30.7567695" lon="35.7273293"><ele>1219.4</ele><time>2015-11-22T14:00:59.0000000+00:00</time></trkpt><trkpt lat="30.7566964" lon="35.7273422"><ele>1221.4</ele><time>2015-11-22T14:01:01.0000000+00:00</time></trkpt><trkpt lat="30.7566243" lon="35.7273491"><ele>1224.1</ele><time>2015-11-22T14:01:03.0000000+00:00</time></trkpt><trkpt lat="30.7565553" lon="35.7273537"><ele>1225.6</ele><time>2015-11-22T14:01:05.0000000+00:00</time></trkpt><trkpt lat="30.7564881" lon="35.7273501"><ele>1226.9</ele><time>2015-11-22T14:01:07.0000000+00:00</time></trkpt><trkpt lat="30.7564257" lon="35.727341"><ele>1227.3</ele><time>2015-11-22T14:01:09.0000000+00:00</time></trkpt><trkpt lat="30.756363" lon="35.7273343"><ele>1228.1</ele><time>2015-11-22T14:01:11.0000000+00:00</time></trkpt><trkpt lat="30.7562964" lon="35.7273266"><ele>1228.3</ele><time>2015-11-22T14:01:13.0000000+00:00</time></trkpt><trkpt lat="30.756227" lon="35.727313"><ele>1228.4</ele><time>2015-11-22T14:01:15.0000000+00:00</time></trkpt><trkpt lat="30.7561553" lon="35.727298"><ele>1228.9</ele><time>2015-11-22T14:01:17.0000000+00:00</time></trkpt><trkpt lat="30.7560847" lon="35.7272864"><ele>1229.3</ele><time>2015-11-22T14:01:19.0000000+00:00</time></trkpt><trkpt lat="30.7560181" lon="35.7272748"><ele>1229.4</ele><time>2015-11-22T14:01:21.0000000+00:00</time></trkpt><trkpt lat="30.7559516" lon="35.7272656"><ele>1229.4</ele><time>2015-11-22T14:01:23.0000000+00:00</time></trkpt><trkpt lat="30.7558855" lon="35.727256"><ele>1229.1</ele><time>2015-11-22T14:01:25.0000000+00:00</time></trkpt><trkpt lat="30.7558193" lon="35.7272476"><ele>1229.3</ele><time>2015-11-22T14:01:27.0000000+00:00</time></trkpt><trkpt lat="30.7557507" lon="35.7272331"><ele>1229.4</ele><time>2015-11-22T14:01:29.0000000+00:00</time></trkpt><trkpt lat="30.7556799" lon="35.7272203"><ele>1229.4</ele><time>2015-11-22T14:01:31.0000000+00:00</time></trkpt><trkpt lat="30.7556063" lon="35.7272157"><ele>1229.4</ele><time>2015-11-22T14:01:33.0000000+00:00</time></trkpt><trkpt lat="30.7555342" lon="35.7272047"><ele>1229.9</ele><time>2015-11-22T14:01:35.0000000+00:00</time></trkpt><trkpt lat="30.7554658" lon="35.7271936"><ele>1230.3</ele><time>2015-11-22T14:01:37.0000000+00:00</time></trkpt><trkpt lat="30.7553999" lon="35.7271856"><ele>1231.1</ele><time>2015-11-22T14:01:39.0000000+00:00</time></trkpt><trkpt lat="30.7553355" lon="35.7271767"><ele>1230.6</ele><time>2015-11-22T14:01:41.0000000+00:00</time></trkpt><trkpt lat="30.7552687" lon="35.7271659"><ele>1230.9</ele><time>2015-11-22T14:01:43.0000000+00:00</time></trkpt><trkpt lat="30.755198" lon="35.7271528"><ele>1231.3</ele><time>2015-11-22T14:01:45.0000000+00:00</time></trkpt><trkpt lat="30.755127" lon="35.7271441"><ele>1231.4</ele><time>2015-11-22T14:01:47.0000000+00:00</time></trkpt><trkpt lat="30.7550631" lon="35.7271347"><ele>1230.9</ele><time>2015-11-22T14:01:49.0000000+00:00</time></trkpt><trkpt lat="30.7550163" lon="35.7271277"><ele>1231.3</ele><time>2015-11-22T14:01:51.0000000+00:00</time></trkpt><trkpt lat="30.7549524" lon="35.7271207"><ele>1229.5</ele><time>2015-11-22T14:01:54.0000000+00:00</time></trkpt><trkpt lat="30.7549019" lon="35.7271112"><ele>1228.7</ele><time>2015-11-22T14:01:56.0000000+00:00</time></trkpt><trkpt lat="30.7548514" lon="35.7270952"><ele>1228.0</ele><time>2015-11-22T14:01:58.0000000+00:00</time></trkpt><trkpt lat="30.7547987" lon="35.7270775"><ele>1227.5</ele><time>2015-11-22T14:02:00.0000000+00:00</time></trkpt><trkpt lat="30.7547487" lon="35.7270602"><ele>1227.9</ele><time>2015-11-22T14:02:02.0000000+00:00</time></trkpt><trkpt lat="30.7547036" lon="35.7270451"><ele>1228.8</ele><time>2015-11-22T14:02:04.0000000+00:00</time></trkpt><trkpt lat="30.7546401" lon="35.7270275"><ele>1228.4</ele><time>2015-11-22T14:02:07.0000000+00:00</time></trkpt><trkpt lat="30.7545953" lon="35.7270117"><ele>1228.4</ele><time>2015-11-22T14:02:09.0000000+00:00</time></trkpt><trkpt lat="30.7545467" lon="35.7269882"><ele>1228.9</ele><time>2015-11-22T14:02:11.0000000+00:00</time></trkpt><trkpt lat="30.7544953" lon="35.7269643"><ele>1230.0</ele><time>2015-11-22T14:02:13.0000000+00:00</time></trkpt><trkpt lat="30.7544451" lon="35.7269392"><ele>1231.1</ele><time>2015-11-22T14:02:15.0000000+00:00</time></trkpt><trkpt lat="30.7543947" lon="35.7269154"><ele>1232.1</ele><time>2015-11-22T14:02:17.0000000+00:00</time></trkpt><trkpt lat="30.7543436" lon="35.7268905"><ele>1232.3</ele><time>2015-11-22T14:02:19.0000000+00:00</time></trkpt><trkpt lat="30.7542893" lon="35.7268633"><ele>1232.4</ele><time>2015-11-22T14:02:21.0000000+00:00</time></trkpt><trkpt lat="30.754235" lon="35.7268327"><ele>1232.6</ele><time>2015-11-22T14:02:23.0000000+00:00</time></trkpt><trkpt lat="30.7541818" lon="35.7268038"><ele>1232.5</ele><time>2015-11-22T14:02:25.0000000+00:00</time></trkpt><trkpt lat="30.7541293" lon="35.726774"><ele>1233.2</ele><time>2015-11-22T14:02:27.0000000+00:00</time></trkpt><trkpt lat="30.754075" lon="35.7267465"><ele>1233.8</ele><time>2015-11-22T14:02:29.0000000+00:00</time></trkpt><trkpt lat="30.7540205" lon="35.7267168"><ele>1234.3</ele><time>2015-11-22T14:02:31.0000000+00:00</time></trkpt><trkpt lat="30.7539671" lon="35.7266816"><ele>1234.4</ele><time>2015-11-22T14:02:33.0000000+00:00</time></trkpt><trkpt lat="30.7539128" lon="35.7266492"><ele>1234.4</ele><time>2015-11-22T14:02:35.0000000+00:00</time></trkpt><trkpt lat="30.7538565" lon="35.726619"><ele>1234.4</ele><time>2015-11-22T14:02:37.0000000+00:00</time></trkpt><trkpt lat="30.753804" lon="35.7265885"><ele>1234.9</ele><time>2015-11-22T14:02:39.0000000+00:00</time></trkpt><trkpt lat="30.7537541" lon="35.7265577"><ele>1235.3</ele><time>2015-11-22T14:02:41.0000000+00:00</time></trkpt><trkpt lat="30.7537039" lon="35.7265309"><ele>1236.1</ele><time>2015-11-22T14:02:43.0000000+00:00</time></trkpt><trkpt lat="30.7536523" lon="35.7265062"><ele>1236.8</ele><time>2015-11-22T14:02:45.0000000+00:00</time></trkpt><trkpt lat="30.7536004" lon="35.7264803"><ele>1237.3</ele><time>2015-11-22T14:02:47.0000000+00:00</time></trkpt><trkpt lat="30.7535447" lon="35.7264521"><ele>1237.4</ele><time>2015-11-22T14:02:49.0000000+00:00</time></trkpt><trkpt lat="30.7534855" lon="35.7264216"><ele>1238.1</ele><time>2015-11-22T14:02:51.0000000+00:00</time></trkpt><trkpt lat="30.7534257" lon="35.7263915"><ele>1237.8</ele><time>2015-11-22T14:02:53.0000000+00:00</time></trkpt><trkpt lat="30.7533632" lon="35.7263591"><ele>1238.0</ele><time>2015-11-22T14:02:55.0000000+00:00</time></trkpt><trkpt lat="30.7532961" lon="35.726324"><ele>1238.3</ele><time>2015-11-22T14:02:57.0000000+00:00</time></trkpt><trkpt lat="30.7532302" lon="35.7262883"><ele>1239.1</ele><time>2015-11-22T14:02:59.0000000+00:00</time></trkpt><trkpt lat="30.7531669" lon="35.7262529"><ele>1240.1</ele><time>2015-11-22T14:03:01.0000000+00:00</time></trkpt><trkpt lat="30.753108" lon="35.7262264"><ele>1241.1</ele><time>2015-11-22T14:03:03.0000000+00:00</time></trkpt><trkpt lat="30.7530593" lon="35.7261994"><ele>1240.1</ele><time>2015-11-22T14:03:05.0000000+00:00</time></trkpt><trkpt lat="30.753014" lon="35.7261691"><ele>1239.6</ele><time>2015-11-22T14:03:07.0000000+00:00</time></trkpt><trkpt lat="30.7529662" lon="35.7261374"><ele>1239.4</ele><time>2015-11-22T14:03:09.0000000+00:00</time></trkpt><trkpt lat="30.7529154" lon="35.7261073"><ele>1239.4</ele><time>2015-11-22T14:03:11.0000000+00:00</time></trkpt><trkpt lat="30.7528635" lon="35.7260755"><ele>1239.9</ele><time>2015-11-22T14:03:13.0000000+00:00</time></trkpt><trkpt lat="30.7528088" lon="35.7260437"><ele>1240.3</ele><time>2015-11-22T14:03:15.0000000+00:00</time></trkpt><trkpt lat="30.7527546" lon="35.726017"><ele>1240.4</ele><time>2015-11-22T14:03:17.0000000+00:00</time></trkpt><trkpt lat="30.7527038" lon="35.7259906"><ele>1239.6</ele><time>2015-11-22T14:03:19.0000000+00:00</time></trkpt><trkpt lat="30.7526556" lon="35.7259645"><ele>1239.5</ele><time>2015-11-22T14:03:21.0000000+00:00</time></trkpt><trkpt lat="30.752603" lon="35.7259396"><ele>1239.9</ele><time>2015-11-22T14:03:23.0000000+00:00</time></trkpt><trkpt lat="30.7525499" lon="35.7259124"><ele>1240.3</ele><time>2015-11-22T14:03:25.0000000+00:00</time></trkpt><trkpt lat="30.7524962" lon="35.7258824"><ele>1240.9</ele><time>2015-11-22T14:03:27.0000000+00:00</time></trkpt><trkpt lat="30.752439" lon="35.7258499"><ele>1241.8</ele><time>2015-11-22T14:03:29.0000000+00:00</time></trkpt><trkpt lat="30.7523846" lon="35.7258159"><ele>1241.7</ele><time>2015-11-22T14:03:31.0000000+00:00</time></trkpt><trkpt lat="30.7523355" lon="35.7257817"><ele>1242.0</ele><time>2015-11-22T14:03:33.0000000+00:00</time></trkpt><trkpt lat="30.7522842" lon="35.7257486"><ele>1242.3</ele><time>2015-11-22T14:03:35.0000000+00:00</time></trkpt><trkpt lat="30.7522317" lon="35.7257124"><ele>1241.9</ele><time>2015-11-22T14:03:37.0000000+00:00</time></trkpt><trkpt lat="30.7521786" lon="35.7256809"><ele>1242.8</ele><time>2015-11-22T14:03:39.0000000+00:00</time></trkpt><trkpt lat="30.752127" lon="35.7256544"><ele>1242.5</ele><time>2015-11-22T14:03:41.0000000+00:00</time></trkpt><trkpt lat="30.7520742" lon="35.7256231"><ele>1242.9</ele><time>2015-11-22T14:03:43.0000000+00:00</time></trkpt><trkpt lat="30.7520252" lon="35.7255889"><ele>1242.0</ele><time>2015-11-22T14:03:45.0000000+00:00</time></trkpt><trkpt lat="30.7519769" lon="35.725552"><ele>1240.6</ele><time>2015-11-22T14:03:47.0000000+00:00</time></trkpt><trkpt lat="30.7519249" lon="35.7255196"><ele>1240.4</ele><time>2015-11-22T14:03:49.0000000+00:00</time></trkpt><trkpt lat="30.75187" lon="35.7254893"><ele>1240.4</ele><time>2015-11-22T14:03:51.0000000+00:00</time></trkpt><trkpt lat="30.7518136" lon="35.7254563"><ele>1240.4</ele><time>2015-11-22T14:03:53.0000000+00:00</time></trkpt><trkpt lat="30.7517582" lon="35.7254205"><ele>1240.4</ele><time>2015-11-22T14:03:55.0000000+00:00</time></trkpt><trkpt lat="30.7517002" lon="35.7253845"><ele>1240.1</ele><time>2015-11-22T14:03:57.0000000+00:00</time></trkpt><trkpt lat="30.7516396" lon="35.7253461"><ele>1240.3</ele><time>2015-11-22T14:03:59.0000000+00:00</time></trkpt><trkpt lat="30.7515786" lon="35.7253064"><ele>1240.4</ele><time>2015-11-22T14:04:01.0000000+00:00</time></trkpt><trkpt lat="30.751513" lon="35.7252661"><ele>1241.1</ele><time>2015-11-22T14:04:03.0000000+00:00</time></trkpt><trkpt lat="30.7514454" lon="35.7252226"><ele>1241.3</ele><time>2015-11-22T14:04:05.0000000+00:00</time></trkpt><trkpt lat="30.7513832" lon="35.7251773"><ele>1242.1</ele><time>2015-11-22T14:04:07.0000000+00:00</time></trkpt><trkpt lat="30.7513232" lon="35.7251409"><ele>1242.3</ele><time>2015-11-22T14:04:09.0000000+00:00</time></trkpt><trkpt lat="30.7512695" lon="35.725112"><ele>1242.4</ele><time>2015-11-22T14:04:11.0000000+00:00</time></trkpt><trkpt lat="30.7512279" lon="35.7250851"><ele>1241.6</ele><time>2015-11-22T14:04:13.0000000+00:00</time></trkpt><trkpt lat="30.7511808" lon="35.7250474"><ele>1240.7</ele><time>2015-11-22T14:04:16.0000000+00:00</time></trkpt><trkpt lat="30.751126" lon="35.7250035"><ele>1239.6</ele><time>2015-11-22T14:04:19.0000000+00:00</time></trkpt><trkpt lat="30.7510832" lon="35.7249755"><ele>1239.9</ele><time>2015-11-22T14:04:21.0000000+00:00</time></trkpt><trkpt lat="30.751037" lon="35.7249445"><ele>1240.3</ele><time>2015-11-22T14:04:23.0000000+00:00</time></trkpt><trkpt lat="30.7509891" lon="35.7249122"><ele>1241.1</ele><time>2015-11-22T14:04:25.0000000+00:00</time></trkpt><trkpt lat="30.7509386" lon="35.7248854"><ele>1241.3</ele><time>2015-11-22T14:04:27.0000000+00:00</time></trkpt><trkpt lat="30.7508854" lon="35.7248527"><ele>1242.1</ele><time>2015-11-22T14:04:29.0000000+00:00</time></trkpt><trkpt lat="30.7508294" lon="35.7248143"><ele>1243.1</ele><time>2015-11-22T14:04:31.0000000+00:00</time></trkpt><trkpt lat="30.7507745" lon="35.724774"><ele>1243.3</ele><time>2015-11-22T14:04:33.0000000+00:00</time></trkpt><trkpt lat="30.7507183" lon="35.7247315"><ele>1243.4</ele><time>2015-11-22T14:04:35.0000000+00:00</time></trkpt><trkpt lat="30.7506627" lon="35.7246876"><ele>1243.9</ele><time>2015-11-22T14:04:37.0000000+00:00</time></trkpt><trkpt lat="30.7506075" lon="35.7246395"><ele>1245.0</ele><time>2015-11-22T14:04:39.0000000+00:00</time></trkpt><trkpt lat="30.7505496" lon="35.7245933"><ele>1244.1</ele><time>2015-11-22T14:04:41.0000000+00:00</time></trkpt><trkpt lat="30.7504919" lon="35.7245429"><ele>1243.8</ele><time>2015-11-22T14:04:43.0000000+00:00</time></trkpt><trkpt lat="30.7504333" lon="35.7244878"><ele>1243.5</ele><time>2015-11-22T14:04:45.0000000+00:00</time></trkpt><trkpt lat="30.7503769" lon="35.7244297"><ele>1243.4</ele><time>2015-11-22T14:04:47.0000000+00:00</time></trkpt><trkpt lat="30.7503216" lon="35.7243675"><ele>1244.2</ele><time>2015-11-22T14:04:49.0000000+00:00</time></trkpt><trkpt lat="30.75027" lon="35.7243069"><ele>1243.6</ele><time>2015-11-22T14:04:51.0000000+00:00</time></trkpt><trkpt lat="30.750216" lon="35.7242498"><ele>1243.7</ele><time>2015-11-22T14:04:53.0000000+00:00</time></trkpt><trkpt lat="30.750162" lon="35.7241898"><ele>1244.2</ele><time>2015-11-22T14:04:55.0000000+00:00</time></trkpt><trkpt lat="30.7501057" lon="35.7241304"><ele>1244.4</ele><time>2015-11-22T14:04:57.0000000+00:00</time></trkpt><trkpt lat="30.7500488" lon="35.7240707"><ele>1245.1</ele><time>2015-11-22T14:04:59.0000000+00:00</time></trkpt><trkpt lat="30.7499927" lon="35.7240133"><ele>1245.1</ele><time>2015-11-22T14:05:01.0000000+00:00</time></trkpt><trkpt lat="30.7499395" lon="35.7239596"><ele>1244.6</ele><time>2015-11-22T14:05:03.0000000+00:00</time></trkpt><trkpt lat="30.749884" lon="35.723905"><ele>1244.7</ele><time>2015-11-22T14:05:05.0000000+00:00</time></trkpt><trkpt lat="30.7498279" lon="35.7238526"><ele>1244.5</ele><time>2015-11-22T14:05:07.0000000+00:00</time></trkpt><trkpt lat="30.7497722" lon="35.7238023"><ele>1244.4</ele><time>2015-11-22T14:05:09.0000000+00:00</time></trkpt><trkpt lat="30.7497167" lon="35.7237473"><ele>1245.2</ele><time>2015-11-22T14:05:11.0000000+00:00</time></trkpt><trkpt lat="30.7496614" lon="35.7236904"><ele>1244.1</ele><time>2015-11-22T14:05:13.0000000+00:00</time></trkpt><trkpt lat="30.7496042" lon="35.7236308"><ele>1243.6</ele><time>2015-11-22T14:05:15.0000000+00:00</time></trkpt><trkpt lat="30.7495462" lon="35.7235714"><ele>1243.4</ele><time>2015-11-22T14:05:17.0000000+00:00</time></trkpt><trkpt lat="30.7494865" lon="35.7235127"><ele>1243.9</ele><time>2015-11-22T14:05:19.0000000+00:00</time></trkpt><trkpt lat="30.7494222" lon="35.723457"><ele>1244.3</ele><time>2015-11-22T14:05:21.0000000+00:00</time></trkpt><trkpt lat="30.7493594" lon="35.723399"><ele>1244.4</ele><time>2015-11-22T14:05:23.0000000+00:00</time></trkpt><trkpt lat="30.7492942" lon="35.7233409"><ele>1245.1</ele><time>2015-11-22T14:05:25.0000000+00:00</time></trkpt><trkpt lat="30.7492255" lon="35.7232883"><ele>1245.8</ele><time>2015-11-22T14:05:27.0000000+00:00</time></trkpt><trkpt lat="30.7491531" lon="35.7232438"><ele>1245.0</ele><time>2015-11-22T14:05:29.0000000+00:00</time></trkpt><trkpt lat="30.7490741" lon="35.7232043"><ele>1245.3</ele><time>2015-11-22T14:05:31.0000000+00:00</time></trkpt><trkpt lat="30.7489926" lon="35.723173"><ele>1245.4</ele><time>2015-11-22T14:05:33.0000000+00:00</time></trkpt><trkpt lat="30.7489086" lon="35.7231497"><ele>1245.4</ele><time>2015-11-22T14:05:35.0000000+00:00</time></trkpt><trkpt lat="30.7488266" lon="35.7231356"><ele>1244.9</ele><time>2015-11-22T14:05:37.0000000+00:00</time></trkpt><trkpt lat="30.7487435" lon="35.723131"><ele>1244.5</ele><time>2015-11-22T14:05:39.0000000+00:00</time></trkpt><trkpt lat="30.7486629" lon="35.723131"><ele>1244.4</ele><time>2015-11-22T14:05:41.0000000+00:00</time></trkpt><trkpt lat="30.7485851" lon="35.7231305"><ele>1243.7</ele><time>2015-11-22T14:05:43.0000000+00:00</time></trkpt><trkpt lat="30.7485094" lon="35.7231282"><ele>1243.5</ele><time>2015-11-22T14:05:45.0000000+00:00</time></trkpt><trkpt lat="30.7484336" lon="35.723126"><ele>1243.4</ele><time>2015-11-22T14:05:47.0000000+00:00</time></trkpt><trkpt lat="30.7483563" lon="35.72312"><ele>1243.9</ele><time>2015-11-22T14:05:49.0000000+00:00</time></trkpt><trkpt lat="30.7482767" lon="35.7231177"><ele>1245.0</ele><time>2015-11-22T14:05:51.0000000+00:00</time></trkpt><trkpt lat="30.7481961" lon="35.7231164"><ele>1245.3</ele><time>2015-11-22T14:05:53.0000000+00:00</time></trkpt><trkpt lat="30.7481146" lon="35.7231145"><ele>1245.4</ele><time>2015-11-22T14:05:55.0000000+00:00</time></trkpt><trkpt lat="30.748031" lon="35.7231134"><ele>1245.9</ele><time>2015-11-22T14:05:57.0000000+00:00</time></trkpt><trkpt lat="30.7479492" lon="35.7231182"><ele>1247.0</ele><time>2015-11-22T14:05:59.0000000+00:00</time></trkpt><trkpt lat="30.747869" lon="35.7231199"><ele>1247.1</ele><time>2015-11-22T14:06:01.0000000+00:00</time></trkpt><trkpt lat="30.7477879" lon="35.7231198"><ele>1246.6</ele><time>2015-11-22T14:06:03.0000000+00:00</time></trkpt><trkpt lat="30.7477096" lon="35.7231202"><ele>1246.4</ele><time>2015-11-22T14:06:05.0000000+00:00</time></trkpt><trkpt lat="30.7476338" lon="35.7231226"><ele>1246.9</ele><time>2015-11-22T14:06:07.0000000+00:00</time></trkpt><trkpt lat="30.7475635" lon="35.7231251"><ele>1246.5</ele><time>2015-11-22T14:06:09.0000000+00:00</time></trkpt><trkpt lat="30.7474959" lon="35.723128"><ele>1246.2</ele><time>2015-11-22T14:06:11.0000000+00:00</time></trkpt><trkpt lat="30.7474284" lon="35.7231252"><ele>1247.1</ele><time>2015-11-22T14:06:13.0000000+00:00</time></trkpt><trkpt lat="30.7473599" lon="35.7231186"><ele>1247.3</ele><time>2015-11-22T14:06:15.0000000+00:00</time></trkpt><trkpt lat="30.7472918" lon="35.7231146"><ele>1247.9</ele><time>2015-11-22T14:06:17.0000000+00:00</time></trkpt><trkpt lat="30.747222" lon="35.7231103"><ele>1247.5</ele><time>2015-11-22T14:06:19.0000000+00:00</time></trkpt><trkpt lat="30.7471495" lon="35.7231043"><ele>1247.4</ele><time>2015-11-22T14:06:21.0000000+00:00</time></trkpt><trkpt lat="30.747076" lon="35.7231"><ele>1247.4</ele><time>2015-11-22T14:06:23.0000000+00:00</time></trkpt><trkpt lat="30.7470015" lon="35.7230973"><ele>1247.4</ele><time>2015-11-22T14:06:25.0000000+00:00</time></trkpt><trkpt lat="30.7469224" lon="35.7230919"><ele>1246.6</ele><time>2015-11-22T14:06:27.0000000+00:00</time></trkpt><trkpt lat="30.7468468" lon="35.7230838"><ele>1247.0</ele><time>2015-11-22T14:06:29.0000000+00:00</time></trkpt><trkpt lat="30.7467826" lon="35.7230718"><ele>1246.8</ele><time>2015-11-22T14:06:31.0000000+00:00</time></trkpt><trkpt lat="30.7467318" lon="35.7230659"><ele>1246.5</ele><time>2015-11-22T14:06:33.0000000+00:00</time></trkpt><trkpt lat="30.7466644" lon="35.7230582"><ele>1247.2</ele><time>2015-11-22T14:06:36.0000000+00:00</time></trkpt><trkpt lat="30.746615" lon="35.7230516"><ele>1247.6</ele><time>2015-11-22T14:06:38.0000000+00:00</time></trkpt><trkpt lat="30.7465637" lon="35.7230472"><ele>1247.9</ele><time>2015-11-22T14:06:40.0000000+00:00</time></trkpt><trkpt lat="30.7465081" lon="35.723042"><ele>1248.3</ele><time>2015-11-22T14:06:42.0000000+00:00</time></trkpt><trkpt lat="30.7464472" lon="35.7230368"><ele>1248.4</ele><time>2015-11-22T14:06:44.0000000+00:00</time></trkpt><trkpt lat="30.746384" lon="35.7230337"><ele>1249.1</ele><time>2015-11-22T14:06:46.0000000+00:00</time></trkpt><trkpt lat="30.7463198" lon="35.7230315"><ele>1249.3</ele><time>2015-11-22T14:06:48.0000000+00:00</time></trkpt><trkpt lat="30.7462556" lon="35.723026"><ele>1249.9</ele><time>2015-11-22T14:06:50.0000000+00:00</time></trkpt><trkpt lat="30.7461903" lon="35.723022"><ele>1250.0</ele><time>2015-11-22T14:06:52.0000000+00:00</time></trkpt><trkpt lat="30.7461232" lon="35.7230177"><ele>1250.3</ele><time>2015-11-22T14:06:54.0000000+00:00</time></trkpt><trkpt lat="30.7460558" lon="35.7230157"><ele>1250.4</ele><time>2015-11-22T14:06:56.0000000+00:00</time></trkpt><trkpt lat="30.7459888" lon="35.7230174"><ele>1251.1</ele><time>2015-11-22T14:06:58.0000000+00:00</time></trkpt><trkpt lat="30.7459237" lon="35.7230216"><ele>1251.3</ele><time>2015-11-22T14:07:00.0000000+00:00</time></trkpt><trkpt lat="30.745867" lon="35.7230331"><ele>1251.6</ele><time>2015-11-22T14:07:02.0000000+00:00</time></trkpt><trkpt lat="30.7458142" lon="35.7230461"><ele>1252.0</ele><time>2015-11-22T14:07:04.0000000+00:00</time></trkpt><trkpt lat="30.7457606" lon="35.7230546"><ele>1251.8</ele><time>2015-11-22T14:07:06.0000000+00:00</time></trkpt><trkpt lat="30.7457079" lon="35.7230627"><ele>1252.0</ele><time>2015-11-22T14:07:08.0000000+00:00</time></trkpt><trkpt lat="30.7456539" lon="35.723078"><ele>1252.8</ele><time>2015-11-22T14:07:10.0000000+00:00</time></trkpt><trkpt lat="30.7455974" lon="35.723105"><ele>1253.2</ele><time>2015-11-22T14:07:12.0000000+00:00</time></trkpt><trkpt lat="30.7455362" lon="35.7231388"><ele>1252.9</ele><time>2015-11-22T14:07:14.0000000+00:00</time></trkpt><trkpt lat="30.7454806" lon="35.7231794"><ele>1253.3</ele><time>2015-11-22T14:07:16.0000000+00:00</time></trkpt><trkpt lat="30.7454278" lon="35.7232257"><ele>1252.6</ele><time>2015-11-22T14:07:18.0000000+00:00</time></trkpt><trkpt lat="30.7453729" lon="35.7232694"><ele>1253.0</ele><time>2015-11-22T14:07:20.0000000+00:00</time></trkpt><trkpt lat="30.7453178" lon="35.7233108"><ele>1253.3</ele><time>2015-11-22T14:07:22.0000000+00:00</time></trkpt><trkpt lat="30.745271" lon="35.7233515"><ele>1254.1</ele><time>2015-11-22T14:07:24.0000000+00:00</time></trkpt><trkpt lat="30.7452344" lon="35.7233864"><ele>1254.3</ele><time>2015-11-22T14:07:26.0000000+00:00</time></trkpt><trkpt lat="30.7451834" lon="35.7234309"><ele>1253.9</ele><time>2015-11-22T14:07:29.0000000+00:00</time></trkpt><trkpt lat="30.7451429" lon="35.7234659"><ele>1254.3</ele><time>2015-11-22T14:07:31.0000000+00:00</time></trkpt><trkpt lat="30.7450966" lon="35.7235043"><ele>1254.4</ele><time>2015-11-22T14:07:33.0000000+00:00</time></trkpt><trkpt lat="30.7450456" lon="35.7235381"><ele>1255.1</ele><time>2015-11-22T14:07:35.0000000+00:00</time></trkpt><trkpt lat="30.7449912" lon="35.7235746"><ele>1254.6</ele><time>2015-11-22T14:07:37.0000000+00:00</time></trkpt><trkpt lat="30.7449344" lon="35.7236099"><ele>1254.9</ele><time>2015-11-22T14:07:39.0000000+00:00</time></trkpt><trkpt lat="30.744872" lon="35.7236405"><ele>1255.8</ele><time>2015-11-22T14:07:41.0000000+00:00</time></trkpt><trkpt lat="30.7448105" lon="35.7236688"><ele>1256.2</ele><time>2015-11-22T14:07:43.0000000+00:00</time></trkpt><trkpt lat="30.7447521" lon="35.7236945"><ele>1255.9</ele><time>2015-11-22T14:07:45.0000000+00:00</time></trkpt><trkpt lat="30.7446952" lon="35.7237155"><ele>1254.8</ele><time>2015-11-22T14:07:47.0000000+00:00</time></trkpt><trkpt lat="30.7446313" lon="35.7237295"><ele>1255.2</ele><time>2015-11-22T14:07:49.0000000+00:00</time></trkpt><trkpt lat="30.7445638" lon="35.7237418"><ele>1255.4</ele><time>2015-11-22T14:07:51.0000000+00:00</time></trkpt><trkpt lat="30.7444984" lon="35.7237531"><ele>1256.1</ele><time>2015-11-22T14:07:53.0000000+00:00</time></trkpt><trkpt lat="30.7444383" lon="35.7237627"><ele>1256.3</ele><time>2015-11-22T14:07:55.0000000+00:00</time></trkpt><trkpt lat="30.744382" lon="35.7237696"><ele>1256.9</ele><time>2015-11-22T14:07:57.0000000+00:00</time></trkpt><trkpt lat="30.7443263" lon="35.7237746"><ele>1256.8</ele><time>2015-11-22T14:07:59.0000000+00:00</time></trkpt><trkpt lat="30.7442671" lon="35.7237826"><ele>1257.2</ele><time>2015-11-22T14:08:01.0000000+00:00</time></trkpt><trkpt lat="30.7442045" lon="35.7237915"><ele>1257.4</ele><time>2015-11-22T14:08:03.0000000+00:00</time></trkpt><trkpt lat="30.744142" lon="35.7237976"><ele>1258.1</ele><time>2015-11-22T14:08:05.0000000+00:00</time></trkpt><trkpt lat="30.7440827" lon="35.7237987"><ele>1257.8</ele><time>2015-11-22T14:08:07.0000000+00:00</time></trkpt><trkpt lat="30.7440281" lon="35.7238007"><ele>1258.3</ele><time>2015-11-22T14:08:09.0000000+00:00</time></trkpt><trkpt lat="30.743981" lon="35.7238012"><ele>1258.4</ele><time>2015-11-22T14:08:11.0000000+00:00</time></trkpt><trkpt lat="30.7439324" lon="35.7238"><ele>1259.1</ele><time>2015-11-22T14:08:13.0000000+00:00</time></trkpt><trkpt lat="30.7438813" lon="35.7238025"><ele>1259.3</ele><time>2015-11-22T14:08:15.0000000+00:00</time></trkpt><trkpt lat="30.7438255" lon="35.7238053"><ele>1258.6</ele><time>2015-11-22T14:08:17.0000000+00:00</time></trkpt><trkpt lat="30.7437682" lon="35.7238063"><ele>1258.5</ele><time>2015-11-22T14:08:19.0000000+00:00</time></trkpt><trkpt lat="30.7437117" lon="35.7238072"><ele>1259.2</ele><time>2015-11-22T14:08:21.0000000+00:00</time></trkpt><trkpt lat="30.7436597" lon="35.7238042"><ele>1259.3</ele><time>2015-11-22T14:08:23.0000000+00:00</time></trkpt><trkpt lat="30.7436094" lon="35.7238017"><ele>1259.1</ele><time>2015-11-22T14:08:25.0000000+00:00</time></trkpt><trkpt lat="30.7435564" lon="35.7237999"><ele>1259.8</ele><time>2015-11-22T14:08:27.0000000+00:00</time></trkpt><trkpt lat="30.7435006" lon="35.7237981"><ele>1260.3</ele><time>2015-11-22T14:08:29.0000000+00:00</time></trkpt><trkpt lat="30.7434413" lon="35.7237966"><ele>1260.4</ele><time>2015-11-22T14:08:31.0000000+00:00</time></trkpt><trkpt lat="30.7433813" lon="35.7237942"><ele>1260.4</ele><time>2015-11-22T14:08:33.0000000+00:00</time></trkpt><trkpt lat="30.7433257" lon="35.7237959"><ele>1260.4</ele><time>2015-11-22T14:08:35.0000000+00:00</time></trkpt><trkpt lat="30.7432728" lon="35.7238024"><ele>1260.1</ele><time>2015-11-22T14:08:37.0000000+00:00</time></trkpt><trkpt lat="30.743221" lon="35.7238048"><ele>1260.3</ele><time>2015-11-22T14:08:39.0000000+00:00</time></trkpt><trkpt lat="30.7431661" lon="35.7238021"><ele>1260.4</ele><time>2015-11-22T14:08:41.0000000+00:00</time></trkpt><trkpt lat="30.743106" lon="35.7238028"><ele>1260.4</ele><time>2015-11-22T14:08:43.0000000+00:00</time></trkpt><trkpt lat="30.7430413" lon="35.7238029"><ele>1260.9</ele><time>2015-11-22T14:08:45.0000000+00:00</time></trkpt><trkpt lat="30.7429734" lon="35.7238003"><ele>1262.0</ele><time>2015-11-22T14:08:47.0000000+00:00</time></trkpt><trkpt lat="30.7429055" lon="35.723798"><ele>1262.3</ele><time>2015-11-22T14:08:49.0000000+00:00</time></trkpt><trkpt lat="30.7428443" lon="35.7238003"><ele>1262.4</ele><time>2015-11-22T14:08:51.0000000+00:00</time></trkpt><trkpt lat="30.7427835" lon="35.7238049"><ele>1262.9</ele><time>2015-11-22T14:08:53.0000000+00:00</time></trkpt><trkpt lat="30.7427206" lon="35.7238036"><ele>1263.3</ele><time>2015-11-22T14:08:55.0000000+00:00</time></trkpt><trkpt lat="30.742656" lon="35.7237985"><ele>1263.4</ele><time>2015-11-22T14:08:57.0000000+00:00</time></trkpt><trkpt lat="30.7425916" lon="35.7237962"><ele>1262.9</ele><time>2015-11-22T14:08:59.0000000+00:00</time></trkpt><trkpt lat="30.7425317" lon="35.7237954"><ele>1263.3</ele><time>2015-11-22T14:09:01.0000000+00:00</time></trkpt><trkpt lat="30.7424753" lon="35.7237876"><ele>1263.4</ele><time>2015-11-22T14:09:03.0000000+00:00</time></trkpt><trkpt lat="30.7424303" lon="35.7237787"><ele>1262.1</ele><time>2015-11-22T14:09:05.0000000+00:00</time></trkpt><trkpt lat="30.7423772" lon="35.7237755"><ele>1262.9</ele><time>2015-11-22T14:09:08.0000000+00:00</time></trkpt><trkpt lat="30.7423104" lon="35.7237671"><ele>1262.6</ele><time>2015-11-22T14:09:11.0000000+00:00</time></trkpt><trkpt lat="30.7422566" lon="35.7237565"><ele>1261.9</ele><time>2015-11-22T14:09:13.0000000+00:00</time></trkpt><trkpt lat="30.7421998" lon="35.7237441"><ele>1261.5</ele><time>2015-11-22T14:09:15.0000000+00:00</time></trkpt><trkpt lat="30.7421471" lon="35.7237286"><ele>1261.4</ele><time>2015-11-22T14:09:17.0000000+00:00</time></trkpt><trkpt lat="30.7420978" lon="35.7237169"><ele>1262.2</ele><time>2015-11-22T14:09:19.0000000+00:00</time></trkpt><trkpt lat="30.7420472" lon="35.7237115"><ele>1262.6</ele><time>2015-11-22T14:09:21.0000000+00:00</time></trkpt><trkpt lat="30.7419947" lon="35.7237056"><ele>1262.9</ele><time>2015-11-22T14:09:23.0000000+00:00</time></trkpt><trkpt lat="30.7419422" lon="35.7236934"><ele>1263.3</ele><time>2015-11-22T14:09:25.0000000+00:00</time></trkpt><trkpt lat="30.7418884" lon="35.723682"><ele>1263.4</ele><time>2015-11-22T14:09:27.0000000+00:00</time></trkpt><trkpt lat="30.7418344" lon="35.723672"><ele>1263.1</ele><time>2015-11-22T14:09:29.0000000+00:00</time></trkpt><trkpt lat="30.7417774" lon="35.7236605"><ele>1263.3</ele><time>2015-11-22T14:09:31.0000000+00:00</time></trkpt><trkpt lat="30.7417182" lon="35.7236448"><ele>1263.4</ele><time>2015-11-22T14:09:33.0000000+00:00</time></trkpt><trkpt lat="30.7416568" lon="35.7236274"><ele>1263.9</ele><time>2015-11-22T14:09:35.0000000+00:00</time></trkpt><trkpt lat="30.7415922" lon="35.7236077"><ele>1264.3</ele><time>2015-11-22T14:09:37.0000000+00:00</time></trkpt><trkpt lat="30.7415273" lon="35.7235894"><ele>1264.9</ele><time>2015-11-22T14:09:39.0000000+00:00</time></trkpt><trkpt lat="30.7414631" lon="35.7235735"><ele>1264.8</ele><time>2015-11-22T14:09:41.0000000+00:00</time></trkpt><trkpt lat="30.7414026" lon="35.7235587"><ele>1265.0</ele><time>2015-11-22T14:09:43.0000000+00:00</time></trkpt><trkpt lat="30.7413444" lon="35.7235422"><ele>1265.0</ele><time>2015-11-22T14:09:45.0000000+00:00</time></trkpt><trkpt lat="30.7412844" lon="35.7235231"><ele>1265.3</ele><time>2015-11-22T14:09:47.0000000+00:00</time></trkpt><trkpt lat="30.7412235" lon="35.7235065"><ele>1264.9</ele><time>2015-11-22T14:09:49.0000000+00:00</time></trkpt><trkpt lat="30.7411606" lon="35.723493"><ele>1264.5</ele><time>2015-11-22T14:09:51.0000000+00:00</time></trkpt><trkpt lat="30.7410938" lon="35.7234762"><ele>1264.9</ele><time>2015-11-22T14:09:53.0000000+00:00</time></trkpt><trkpt lat="30.7410245" lon="35.7234603"><ele>1265.3</ele><time>2015-11-22T14:09:55.0000000+00:00</time></trkpt><trkpt lat="30.7409514" lon="35.7234412"><ele>1265.4</ele><time>2015-11-22T14:09:57.0000000+00:00</time></trkpt><trkpt lat="30.7408803" lon="35.7234187"><ele>1266.1</ele><time>2015-11-22T14:09:59.0000000+00:00</time></trkpt><trkpt lat="30.7408113" lon="35.7233981"><ele>1265.8</ele><time>2015-11-22T14:10:01.0000000+00:00</time></trkpt><trkpt lat="30.7407429" lon="35.7233804"><ele>1265.8</ele><time>2015-11-22T14:10:03.0000000+00:00</time></trkpt><trkpt lat="30.7406746" lon="35.7233593"><ele>1266.2</ele><time>2015-11-22T14:10:05.0000000+00:00</time></trkpt><trkpt lat="30.7406086" lon="35.7233381"><ele>1266.4</ele><time>2015-11-22T14:10:07.0000000+00:00</time></trkpt><trkpt lat="30.7405428" lon="35.7233198"><ele>1265.6</ele><time>2015-11-22T14:10:09.0000000+00:00</time></trkpt><trkpt lat="30.7404801" lon="35.723299"><ele>1265.5</ele><time>2015-11-22T14:10:11.0000000+00:00</time></trkpt><trkpt lat="30.7404166" lon="35.7232788"><ele>1265.4</ele><time>2015-11-22T14:10:13.0000000+00:00</time></trkpt><trkpt lat="30.7403488" lon="35.7232651"><ele>1265.9</ele><time>2015-11-22T14:10:15.0000000+00:00</time></trkpt><trkpt lat="30.7402799" lon="35.7232472"><ele>1266.3</ele><time>2015-11-22T14:10:17.0000000+00:00</time></trkpt><trkpt lat="30.7402103" lon="35.723224"><ele>1266.4</ele><time>2015-11-22T14:10:19.0000000+00:00</time></trkpt><trkpt lat="30.7401396" lon="35.7231985"><ele>1266.4</ele><time>2015-11-22T14:10:21.0000000+00:00</time></trkpt><trkpt lat="30.7400675" lon="35.7231733"><ele>1266.4</ele><time>2015-11-22T14:10:23.0000000+00:00</time></trkpt><trkpt lat="30.7399947" lon="35.7231508"><ele>1267.1</ele><time>2015-11-22T14:10:25.0000000+00:00</time></trkpt><trkpt lat="30.7399236" lon="35.7231332"><ele>1267.3</ele><time>2015-11-22T14:10:27.0000000+00:00</time></trkpt><trkpt lat="30.7398557" lon="35.7231143"><ele>1267.1</ele><time>2015-11-22T14:10:29.0000000+00:00</time></trkpt><trkpt lat="30.7397872" lon="35.7230967"><ele>1267.3</ele><time>2015-11-22T14:10:31.0000000+00:00</time></trkpt><trkpt lat="30.7397186" lon="35.7230821"><ele>1267.4</ele><time>2015-11-22T14:10:33.0000000+00:00</time></trkpt><trkpt lat="30.7396504" lon="35.7230646"><ele>1267.4</ele><time>2015-11-22T14:10:35.0000000+00:00</time></trkpt><trkpt lat="30.7395822" lon="35.7230459"><ele>1267.4</ele><time>2015-11-22T14:10:37.0000000+00:00</time></trkpt><trkpt lat="30.7395148" lon="35.7230271"><ele>1267.4</ele><time>2015-11-22T14:10:39.0000000+00:00</time></trkpt><trkpt lat="30.7394479" lon="35.7230079"><ele>1267.4</ele><time>2015-11-22T14:10:41.0000000+00:00</time></trkpt><trkpt lat="30.7393794" lon="35.7229896"><ele>1267.4</ele><time>2015-11-22T14:10:43.0000000+00:00</time></trkpt><trkpt lat="30.7393098" lon="35.7229711"><ele>1266.9</ele><time>2015-11-22T14:10:45.0000000+00:00</time></trkpt><trkpt lat="30.7392404" lon="35.7229507"><ele>1266.5</ele><time>2015-11-22T14:10:47.0000000+00:00</time></trkpt><trkpt lat="30.7391714" lon="35.7229317"><ele>1267.2</ele><time>2015-11-22T14:10:49.0000000+00:00</time></trkpt><trkpt lat="30.7391036" lon="35.7229158"><ele>1267.3</ele><time>2015-11-22T14:10:51.0000000+00:00</time></trkpt><trkpt lat="30.7390374" lon="35.7228976"><ele>1268.1</ele><time>2015-11-22T14:10:53.0000000+00:00</time></trkpt><trkpt lat="30.7389722" lon="35.7228789"><ele>1268.3</ele><time>2015-11-22T14:10:55.0000000+00:00</time></trkpt><trkpt lat="30.7389056" lon="35.7228626"><ele>1268.4</ele><time>2015-11-22T14:10:57.0000000+00:00</time></trkpt><trkpt lat="30.7388378" lon="35.7228442"><ele>1269.1</ele><time>2015-11-22T14:10:59.0000000+00:00</time></trkpt><trkpt lat="30.7387709" lon="35.7228251"><ele>1269.8</ele><time>2015-11-22T14:11:01.0000000+00:00</time></trkpt><trkpt lat="30.7387058" lon="35.7228057"><ele>1270.3</ele><time>2015-11-22T14:11:03.0000000+00:00</time></trkpt><trkpt lat="30.7386418" lon="35.7227875"><ele>1270.6</ele><time>2015-11-22T14:11:05.0000000+00:00</time></trkpt><trkpt lat="30.7385791" lon="35.7227683"><ele>1270.5</ele><time>2015-11-22T14:11:07.0000000+00:00</time></trkpt><trkpt lat="30.7385157" lon="35.7227513"><ele>1270.4</ele><time>2015-11-22T14:11:09.0000000+00:00</time></trkpt><trkpt lat="30.7384535" lon="35.7227343"><ele>1269.9</ele><time>2015-11-22T14:11:11.0000000+00:00</time></trkpt><trkpt lat="30.7383912" lon="35.7227154"><ele>1269.5</ele><time>2015-11-22T14:11:13.0000000+00:00</time></trkpt><trkpt lat="30.7383262" lon="35.7226976"><ele>1269.9</ele><time>2015-11-22T14:11:15.0000000+00:00</time></trkpt><trkpt lat="30.7382605" lon="35.722677"><ele>1270.3</ele><time>2015-11-22T14:11:17.0000000+00:00</time></trkpt><trkpt lat="30.738196" lon="35.7226589"><ele>1269.9</ele><time>2015-11-22T14:11:19.0000000+00:00</time></trkpt><trkpt lat="30.7381289" lon="35.7226452"><ele>1269.5</ele><time>2015-11-22T14:11:21.0000000+00:00</time></trkpt><trkpt lat="30.7380629" lon="35.7226244"><ele>1268.9</ele><time>2015-11-22T14:11:23.0000000+00:00</time></trkpt><trkpt lat="30.7379954" lon="35.7226019"><ele>1268.5</ele><time>2015-11-22T14:11:25.0000000+00:00</time></trkpt><trkpt lat="30.7379262" lon="35.7225804"><ele>1268.9</ele><time>2015-11-22T14:11:27.0000000+00:00</time></trkpt><trkpt lat="30.7378559" lon="35.7225623"><ele>1269.3</ele><time>2015-11-22T14:11:29.0000000+00:00</time></trkpt><trkpt lat="30.7377845" lon="35.7225527"><ele>1269.4</ele><time>2015-11-22T14:11:31.0000000+00:00</time></trkpt><trkpt lat="30.737716" lon="35.722545"><ele>1268.9</ele><time>2015-11-22T14:11:33.0000000+00:00</time></trkpt><trkpt lat="30.7376512" lon="35.7225336"><ele>1269.0</ele><time>2015-11-22T14:11:35.0000000+00:00</time></trkpt><trkpt lat="30.737587" lon="35.7225253"><ele>1269.3</ele><time>2015-11-22T14:11:37.0000000+00:00</time></trkpt><trkpt lat="30.7375192" lon="35.7225246"><ele>1269.9</ele><time>2015-11-22T14:11:39.0000000+00:00</time></trkpt><trkpt lat="30.7374484" lon="35.722528"><ele>1270.0</ele><time>2015-11-22T14:11:41.0000000+00:00</time></trkpt><trkpt lat="30.7373752" lon="35.7225353"><ele>1270.8</ele><time>2015-11-22T14:11:43.0000000+00:00</time></trkpt><trkpt lat="30.7373009" lon="35.7225478"><ele>1271.3</ele><time>2015-11-22T14:11:45.0000000+00:00</time></trkpt><trkpt lat="30.7372255" lon="35.7225628"><ele>1271.9</ele><time>2015-11-22T14:11:47.0000000+00:00</time></trkpt><trkpt lat="30.7371512" lon="35.7225753"><ele>1272.3</ele><time>2015-11-22T14:11:49.0000000+00:00</time></trkpt><trkpt lat="30.73708" lon="35.7225893"><ele>1272.4</ele><time>2015-11-22T14:11:51.0000000+00:00</time></trkpt><trkpt lat="30.7370116" lon="35.7225995"><ele>1272.4</ele><time>2015-11-22T14:11:53.0000000+00:00</time></trkpt><trkpt lat="30.7369425" lon="35.7226063"><ele>1272.9</ele><time>2015-11-22T14:11:55.0000000+00:00</time></trkpt><trkpt lat="30.7368714" lon="35.7226144"><ele>1273.3</ele><time>2015-11-22T14:11:57.0000000+00:00</time></trkpt><trkpt lat="30.7368001" lon="35.7226254"><ele>1273.4</ele><time>2015-11-22T14:11:59.0000000+00:00</time></trkpt><trkpt lat="30.7367295" lon="35.722638"><ele>1273.4</ele><time>2015-11-22T14:12:01.0000000+00:00</time></trkpt><trkpt lat="30.7366583" lon="35.7226499"><ele>1272.6</ele><time>2015-11-22T14:12:03.0000000+00:00</time></trkpt><trkpt lat="30.7365893" lon="35.7226655"><ele>1273.0</ele><time>2015-11-22T14:12:05.0000000+00:00</time></trkpt><trkpt lat="30.7365245" lon="35.7226785"><ele>1273.3</ele><time>2015-11-22T14:12:07.0000000+00:00</time></trkpt><trkpt lat="30.7364603" lon="35.7226918"><ele>1272.9</ele><time>2015-11-22T14:12:09.0000000+00:00</time></trkpt><trkpt lat="30.7363934" lon="35.7227049"><ele>1272.5</ele><time>2015-11-22T14:12:11.0000000+00:00</time></trkpt><trkpt lat="30.736327" lon="35.7227182"><ele>1272.9</ele><time>2015-11-22T14:12:13.0000000+00:00</time></trkpt><trkpt lat="30.7362653" lon="35.7227291"><ele>1273.0</ele><time>2015-11-22T14:12:15.0000000+00:00</time></trkpt><trkpt lat="30.7362088" lon="35.7227411"><ele>1272.6</ele><time>2015-11-22T14:12:17.0000000+00:00</time></trkpt><trkpt lat="30.7361533" lon="35.722749"><ele>1272.4</ele><time>2015-11-22T14:12:19.0000000+00:00</time></trkpt><trkpt lat="30.736093" lon="35.722754"><ele>1272.4</ele><time>2015-11-22T14:12:21.0000000+00:00</time></trkpt><trkpt lat="30.7360282" lon="35.7227613"><ele>1273.2</ele><time>2015-11-22T14:12:23.0000000+00:00</time></trkpt><trkpt lat="30.7359621" lon="35.722768"><ele>1274.1</ele><time>2015-11-22T14:12:25.0000000+00:00</time></trkpt><trkpt lat="30.7358966" lon="35.7227733"><ele>1274.8</ele><time>2015-11-22T14:12:27.0000000+00:00</time></trkpt><trkpt lat="30.7358315" lon="35.7227777"><ele>1275.8</ele><time>2015-11-22T14:12:29.0000000+00:00</time></trkpt><trkpt lat="30.7357639" lon="35.7227836"><ele>1276.0</ele><time>2015-11-22T14:12:31.0000000+00:00</time></trkpt><trkpt lat="30.735693" lon="35.722792"><ele>1275.5</ele><time>2015-11-22T14:12:33.0000000+00:00</time></trkpt><trkpt lat="30.7356224" lon="35.7228006"><ele>1276.2</ele><time>2015-11-22T14:12:35.0000000+00:00</time></trkpt><trkpt lat="30.7355508" lon="35.7228103"><ele>1275.6</ele><time>2015-11-22T14:12:37.0000000+00:00</time></trkpt><trkpt lat="30.7354802" lon="35.7228248"><ele>1275.4</ele><time>2015-11-22T14:12:39.0000000+00:00</time></trkpt><trkpt lat="30.7354136" lon="35.7228486"><ele>1276.2</ele><time>2015-11-22T14:12:41.0000000+00:00</time></trkpt><trkpt lat="30.7353513" lon="35.722865"><ele>1276.3</ele><time>2015-11-22T14:12:43.0000000+00:00</time></trkpt><trkpt lat="30.7352987" lon="35.722876"><ele>1276.9</ele><time>2015-11-22T14:12:45.0000000+00:00</time></trkpt><trkpt lat="30.7352498" lon="35.722893"><ele>1277.3</ele><time>2015-11-22T14:12:47.0000000+00:00</time></trkpt><trkpt lat="30.7351986" lon="35.7229021"><ele>1277.4</ele><time>2015-11-22T14:12:49.0000000+00:00</time></trkpt><trkpt lat="30.7351417" lon="35.7229014"><ele>1278.1</ele><time>2015-11-22T14:12:51.0000000+00:00</time></trkpt><trkpt lat="30.735082" lon="35.7229134"><ele>1278.8</ele><time>2015-11-22T14:12:53.0000000+00:00</time></trkpt><trkpt lat="30.735022" lon="35.7229246"><ele>1280.0</ele><time>2015-11-22T14:12:55.0000000+00:00</time></trkpt><trkpt lat="30.7349585" lon="35.7229352"><ele>1280.3</ele><time>2015-11-22T14:12:57.0000000+00:00</time></trkpt><trkpt lat="30.7348895" lon="35.7229453"><ele>1279.6</ele><time>2015-11-22T14:12:59.0000000+00:00</time></trkpt><trkpt lat="30.7348202" lon="35.7229539"><ele>1279.5</ele><time>2015-11-22T14:13:01.0000000+00:00</time></trkpt><trkpt lat="30.7347512" lon="35.7229648"><ele>1279.4</ele><time>2015-11-22T14:13:03.0000000+00:00</time></trkpt><trkpt lat="30.7346813" lon="35.7229766"><ele>1279.4</ele><time>2015-11-22T14:13:05.0000000+00:00</time></trkpt><trkpt lat="30.7346092" lon="35.7229858"><ele>1279.4</ele><time>2015-11-22T14:13:07.0000000+00:00</time></trkpt><trkpt lat="30.7345346" lon="35.7229967"><ele>1280.1</ele><time>2015-11-22T14:13:09.0000000+00:00</time></trkpt><trkpt lat="30.7344613" lon="35.7230066"><ele>1280.3</ele><time>2015-11-22T14:13:11.0000000+00:00</time></trkpt><trkpt lat="30.7343898" lon="35.7230187"><ele>1279.9</ele><time>2015-11-22T14:13:13.0000000+00:00</time></trkpt><trkpt lat="30.7343189" lon="35.723025"><ele>1280.3</ele><time>2015-11-22T14:13:15.0000000+00:00</time></trkpt><trkpt lat="30.7342505" lon="35.7230272"><ele>1279.9</ele><time>2015-11-22T14:13:17.0000000+00:00</time></trkpt><trkpt lat="30.7341859" lon="35.723032"><ele>1279.5</ele><time>2015-11-22T14:13:19.0000000+00:00</time></trkpt><trkpt lat="30.7341233" lon="35.7230359"><ele>1279.2</ele><time>2015-11-22T14:13:21.0000000+00:00</time></trkpt><trkpt lat="30.7340589" lon="35.7230384"><ele>1279.3</ele><time>2015-11-22T14:13:23.0000000+00:00</time></trkpt><trkpt lat="30.7339938" lon="35.7230324"><ele>1279.9</ele><time>2015-11-22T14:13:25.0000000+00:00</time></trkpt><trkpt lat="30.7339258" lon="35.7230197"><ele>1280.3</ele><time>2015-11-22T14:13:27.0000000+00:00</time></trkpt><trkpt lat="30.7338586" lon="35.7230051"><ele>1280.4</ele><time>2015-11-22T14:13:29.0000000+00:00</time></trkpt><trkpt lat="30.7337942" lon="35.7229898"><ele>1280.4</ele><time>2015-11-22T14:13:31.0000000+00:00</time></trkpt><trkpt lat="30.733728" lon="35.7229729"><ele>1281.1</ele><time>2015-11-22T14:13:33.0000000+00:00</time></trkpt><trkpt lat="30.7336592" lon="35.7229558"><ele>1282.1</ele><time>2015-11-22T14:13:35.0000000+00:00</time></trkpt><trkpt lat="30.7335895" lon="35.7229368"><ele>1282.3</ele><time>2015-11-22T14:13:37.0000000+00:00</time></trkpt><trkpt lat="30.7335189" lon="35.7229211"><ele>1282.4</ele><time>2015-11-22T14:13:39.0000000+00:00</time></trkpt><trkpt lat="30.733448" lon="35.7229052"><ele>1282.4</ele><time>2015-11-22T14:13:41.0000000+00:00</time></trkpt><trkpt lat="30.7333751" lon="35.7228871"><ele>1282.4</ele><time>2015-11-22T14:13:43.0000000+00:00</time></trkpt><trkpt lat="30.7333011" lon="35.722869"><ele>1283.1</ele><time>2015-11-22T14:13:45.0000000+00:00</time></trkpt><trkpt lat="30.7332281" lon="35.7228519"><ele>1282.8</ele><time>2015-11-22T14:13:47.0000000+00:00</time></trkpt><trkpt lat="30.7331566" lon="35.7228342"><ele>1283.0</ele><time>2015-11-22T14:13:49.0000000+00:00</time></trkpt><trkpt lat="30.7330846" lon="35.7228168"><ele>1283.3</ele><time>2015-11-22T14:13:51.0000000+00:00</time></trkpt><trkpt lat="30.7330098" lon="35.7228016"><ele>1283.4</ele><time>2015-11-22T14:13:53.0000000+00:00</time></trkpt><trkpt lat="30.7329335" lon="35.7227893"><ele>1283.4</ele><time>2015-11-22T14:13:55.0000000+00:00</time></trkpt><trkpt lat="30.7328566" lon="35.7227851"><ele>1284.1</ele><time>2015-11-22T14:13:57.0000000+00:00</time></trkpt><trkpt lat="30.7327841" lon="35.7227819"><ele>1284.3</ele><time>2015-11-22T14:13:59.0000000+00:00</time></trkpt><trkpt lat="30.7327134" lon="35.7227768"><ele>1284.4</ele><time>2015-11-22T14:14:01.0000000+00:00</time></trkpt><trkpt lat="30.7326454" lon="35.7227766"><ele>1283.6</ele><time>2015-11-22T14:14:03.0000000+00:00</time></trkpt><trkpt lat="30.7325779" lon="35.7227814"><ele>1283.0</ele><time>2015-11-22T14:14:05.0000000+00:00</time></trkpt><trkpt lat="30.7325103" lon="35.7227877"><ele>1283.3</ele><time>2015-11-22T14:14:07.0000000+00:00</time></trkpt><trkpt lat="30.7324446" lon="35.7227953"><ele>1282.9</ele><time>2015-11-22T14:14:09.0000000+00:00</time></trkpt><trkpt lat="30.732379" lon="35.7228049"><ele>1282.0</ele><time>2015-11-22T14:14:11.0000000+00:00</time></trkpt><trkpt lat="30.7323132" lon="35.7228068"><ele>1282.3</ele><time>2015-11-22T14:14:13.0000000+00:00</time></trkpt><trkpt lat="30.7322492" lon="35.7228179"><ele>1282.6</ele><time>2015-11-22T14:14:15.0000000+00:00</time></trkpt><trkpt lat="30.7321864" lon="35.7228377"><ele>1283.2</ele><time>2015-11-22T14:14:17.0000000+00:00</time></trkpt><trkpt lat="30.7321229" lon="35.7228536"><ele>1282.6</ele><time>2015-11-22T14:14:19.0000000+00:00</time></trkpt><trkpt lat="30.7320594" lon="35.7228639"><ele>1282.9</ele><time>2015-11-22T14:14:21.0000000+00:00</time></trkpt><trkpt lat="30.7319928" lon="35.7228771"><ele>1283.3</ele><time>2015-11-22T14:14:23.0000000+00:00</time></trkpt><trkpt lat="30.7319261" lon="35.7228979"><ele>1283.9</ele><time>2015-11-22T14:14:25.0000000+00:00</time></trkpt><trkpt lat="30.7318594" lon="35.7229141"><ele>1284.5</ele><time>2015-11-22T14:14:27.0000000+00:00</time></trkpt><trkpt lat="30.7317942" lon="35.7229236"><ele>1284.7</ele><time>2015-11-22T14:14:29.0000000+00:00</time></trkpt><trkpt lat="30.7317335" lon="35.7229386"><ele>1285.2</ele><time>2015-11-22T14:14:31.0000000+00:00</time></trkpt><trkpt lat="30.7316758" lon="35.7229522"><ele>1285.9</ele><time>2015-11-22T14:14:33.0000000+00:00</time></trkpt><trkpt lat="30.7316173" lon="35.7229659"><ele>1286.3</ele><time>2015-11-22T14:14:35.0000000+00:00</time></trkpt><trkpt lat="30.7315621" lon="35.7229861"><ele>1286.4</ele><time>2015-11-22T14:14:37.0000000+00:00</time></trkpt><trkpt lat="30.7315053" lon="35.723004"><ele>1286.9</ele><time>2015-11-22T14:14:39.0000000+00:00</time></trkpt><trkpt lat="30.731447" lon="35.7230193"><ele>1287.8</ele><time>2015-11-22T14:14:41.0000000+00:00</time></trkpt><trkpt lat="30.731389" lon="35.7230346"><ele>1288.2</ele><time>2015-11-22T14:14:43.0000000+00:00</time></trkpt><trkpt lat="30.7313344" lon="35.7230575"><ele>1288.9</ele><time>2015-11-22T14:14:45.0000000+00:00</time></trkpt><trkpt lat="30.7312809" lon="35.7230846"><ele>1289.3</ele><time>2015-11-22T14:14:47.0000000+00:00</time></trkpt><trkpt lat="30.7312245" lon="35.723105"><ele>1289.4</ele><time>2015-11-22T14:14:49.0000000+00:00</time></trkpt><trkpt lat="30.7311652" lon="35.7231244"><ele>1290.1</ele><time>2015-11-22T14:14:51.0000000+00:00</time></trkpt><trkpt lat="30.7311044" lon="35.7231434"><ele>1290.3</ele><time>2015-11-22T14:14:53.0000000+00:00</time></trkpt><trkpt lat="30.7310436" lon="35.7231585"><ele>1289.9</ele><time>2015-11-22T14:14:55.0000000+00:00</time></trkpt><trkpt lat="30.7309828" lon="35.7231773"><ele>1290.3</ele><time>2015-11-22T14:14:57.0000000+00:00</time></trkpt><trkpt lat="30.7309238" lon="35.7231983"><ele>1290.4</ele><time>2015-11-22T14:14:59.0000000+00:00</time></trkpt><trkpt lat="30.7308647" lon="35.7232099"><ele>1291.1</ele><time>2015-11-22T14:15:01.0000000+00:00</time></trkpt><trkpt lat="30.7308046" lon="35.7232192"><ele>1291.8</ele><time>2015-11-22T14:15:03.0000000+00:00</time></trkpt><trkpt lat="30.7307446" lon="35.7232357"><ele>1291.5</ele><time>2015-11-22T14:15:05.0000000+00:00</time></trkpt><trkpt lat="30.7306871" lon="35.7232555"><ele>1291.4</ele><time>2015-11-22T14:15:07.0000000+00:00</time></trkpt><trkpt lat="30.730631" lon="35.7232737"><ele>1291.4</ele><time>2015-11-22T14:15:09.0000000+00:00</time></trkpt><trkpt lat="30.7305737" lon="35.7232848"><ele>1291.4</ele><time>2015-11-22T14:15:11.0000000+00:00</time></trkpt><trkpt lat="30.7305156" lon="35.7232975"><ele>1292.1</ele><time>2015-11-22T14:15:13.0000000+00:00</time></trkpt><trkpt lat="30.7304588" lon="35.7233154"><ele>1292.3</ele><time>2015-11-22T14:15:15.0000000+00:00</time></trkpt><trkpt lat="30.7304009" lon="35.7233275"><ele>1292.4</ele><time>2015-11-22T14:15:17.0000000+00:00</time></trkpt><trkpt lat="30.7303426" lon="35.7233395"><ele>1292.9</ele><time>2015-11-22T14:15:19.0000000+00:00</time></trkpt><trkpt lat="30.7302838" lon="35.7233526"><ele>1293.3</ele><time>2015-11-22T14:15:21.0000000+00:00</time></trkpt><trkpt lat="30.7302255" lon="35.7233654"><ele>1293.9</ele><time>2015-11-22T14:15:23.0000000+00:00</time></trkpt><trkpt lat="30.7301685" lon="35.7233799"><ele>1294.3</ele><time>2015-11-22T14:15:25.0000000+00:00</time></trkpt><trkpt lat="30.7301136" lon="35.7233944"><ele>1294.9</ele><time>2015-11-22T14:15:27.0000000+00:00</time></trkpt><trkpt lat="30.7300582" lon="35.723411"><ele>1295.3</ele><time>2015-11-22T14:15:29.0000000+00:00</time></trkpt><trkpt lat="30.730003" lon="35.7234251"><ele>1294.9</ele><time>2015-11-22T14:15:31.0000000+00:00</time></trkpt><trkpt lat="30.7299508" lon="35.7234446"><ele>1295.3</ele><time>2015-11-22T14:15:33.0000000+00:00</time></trkpt><trkpt lat="30.7298988" lon="35.7234601"><ele>1295.9</ele><time>2015-11-22T14:15:35.0000000+00:00</time></trkpt><trkpt lat="30.7298465" lon="35.7234727"><ele>1297.0</ele><time>2015-11-22T14:15:37.0000000+00:00</time></trkpt><trkpt lat="30.7297967" lon="35.7234876"><ele>1296.3</ele><time>2015-11-22T14:15:39.0000000+00:00</time></trkpt><trkpt lat="30.7297486" lon="35.7235069"><ele>1296.4</ele><time>2015-11-22T14:15:41.0000000+00:00</time></trkpt><trkpt lat="30.7296967" lon="35.7235151"><ele>1295.9</ele><time>2015-11-22T14:15:43.0000000+00:00</time></trkpt><trkpt lat="30.7296413" lon="35.7235209"><ele>1295.5</ele><time>2015-11-22T14:15:45.0000000+00:00</time></trkpt><trkpt lat="30.7295854" lon="35.7235265"><ele>1295.9</ele><time>2015-11-22T14:15:47.0000000+00:00</time></trkpt><trkpt lat="30.7295286" lon="35.723525"><ele>1296.3</ele><time>2015-11-22T14:15:49.0000000+00:00</time></trkpt><trkpt lat="30.7294744" lon="35.723532"><ele>1296.1</ele><time>2015-11-22T14:15:51.0000000+00:00</time></trkpt><trkpt lat="30.7294204" lon="35.7235346"><ele>1296.8</ele><time>2015-11-22T14:15:53.0000000+00:00</time></trkpt><trkpt lat="30.7293658" lon="35.7235269"><ele>1297.3</ele><time>2015-11-22T14:15:55.0000000+00:00</time></trkpt><trkpt lat="30.729311" lon="35.7235158"><ele>1297.9</ele><time>2015-11-22T14:15:57.0000000+00:00</time></trkpt><trkpt lat="30.729256" lon="35.7235086"><ele>1298.0</ele><time>2015-11-22T14:15:59.0000000+00:00</time></trkpt><trkpt lat="30.7292029" lon="35.7234993"><ele>1299.1</ele><time>2015-11-22T14:16:01.0000000+00:00</time></trkpt><trkpt lat="30.7291497" lon="35.7234972"><ele>1299.3</ele><time>2015-11-22T14:16:03.0000000+00:00</time></trkpt><trkpt lat="30.7290948" lon="35.7234904"><ele>1300.1</ele><time>2015-11-22T14:16:05.0000000+00:00</time></trkpt><trkpt lat="30.7290377" lon="35.723477"><ele>1301.1</ele><time>2015-11-22T14:16:07.0000000+00:00</time></trkpt><trkpt lat="30.7289777" lon="35.723466"><ele>1301.3</ele><time>2015-11-22T14:16:09.0000000+00:00</time></trkpt><trkpt lat="30.7289178" lon="35.7234598"><ele>1301.4</ele><time>2015-11-22T14:16:11.0000000+00:00</time></trkpt><trkpt lat="30.7288615" lon="35.7234553"><ele>1300.6</ele><time>2015-11-22T14:16:13.0000000+00:00</time></trkpt><trkpt lat="30.7288065" lon="35.7234415"><ele>1300.5</ele><time>2015-11-22T14:16:15.0000000+00:00</time></trkpt><trkpt lat="30.7287503" lon="35.7234283"><ele>1299.7</ele><time>2015-11-22T14:16:17.0000000+00:00</time></trkpt><trkpt lat="30.7286896" lon="35.7234152"><ele>1300.0</ele><time>2015-11-22T14:16:19.0000000+00:00</time></trkpt><trkpt lat="30.7286309" lon="35.7233996"><ele>1299.8</ele><time>2015-11-22T14:16:21.0000000+00:00</time></trkpt><trkpt lat="30.7285727" lon="35.7233831"><ele>1300.2</ele><time>2015-11-22T14:16:23.0000000+00:00</time></trkpt><trkpt lat="30.7285145" lon="35.7233693"><ele>1300.4</ele><time>2015-11-22T14:16:25.0000000+00:00</time></trkpt><trkpt lat="30.728462" lon="35.7233542"><ele>1300.4</ele><time>2015-11-22T14:16:27.0000000+00:00</time></trkpt><trkpt lat="30.7284111" lon="35.7233437"><ele>1300.4</ele><time>2015-11-22T14:16:29.0000000+00:00</time></trkpt><trkpt lat="30.7283645" lon="35.7233368"><ele>1299.9</ele><time>2015-11-22T14:16:31.0000000+00:00</time></trkpt><trkpt lat="30.7283204" lon="35.7233237"><ele>1300.3</ele><time>2015-11-22T14:16:33.0000000+00:00</time></trkpt><trkpt lat="30.7282715" lon="35.7233125"><ele>1301.1</ele><time>2015-11-22T14:16:35.0000000+00:00</time></trkpt><trkpt lat="30.7282226" lon="35.7233003"><ele>1301.3</ele><time>2015-11-22T14:16:37.0000000+00:00</time></trkpt><trkpt lat="30.728176" lon="35.7232899"><ele>1300.6</ele><time>2015-11-22T14:16:39.0000000+00:00</time></trkpt><trkpt lat="30.7281298" lon="35.7232852"><ele>1299.7</ele><time>2015-11-22T14:16:41.0000000+00:00</time></trkpt><trkpt lat="30.7280836" lon="35.7232829"><ele>1300.2</ele><time>2015-11-22T14:16:43.0000000+00:00</time></trkpt><trkpt lat="30.7280391" lon="35.7232741"><ele>1300.9</ele><time>2015-11-22T14:16:45.0000000+00:00</time></trkpt><trkpt lat="30.7279824" lon="35.7232432"><ele>1301.8</ele><time>2015-11-22T14:16:48.0000000+00:00</time></trkpt><trkpt lat="30.7279266" lon="35.7232295"><ele>1302.2</ele><time>2015-11-22T14:16:51.0000000+00:00</time></trkpt><trkpt lat="30.7278867" lon="35.7232014"><ele>1301.9</ele><time>2015-11-22T14:16:56.0000000+00:00</time></trkpt><trkpt lat="30.7278345" lon="35.7232052"><ele>1301.4</ele><time>2015-11-22T14:34:29.0000000+00:00</time></trkpt><trkpt lat="30.7277731" lon="35.7231942"><ele>1302.3</ele><time>2015-11-22T14:34:33.0000000+00:00</time></trkpt><trkpt lat="30.7277218" lon="35.7231797"><ele>1302.4</ele><time>2015-11-22T14:34:36.0000000+00:00</time></trkpt><trkpt lat="30.7276683" lon="35.7231689"><ele>1303.1</ele><time>2015-11-22T14:34:39.0000000+00:00</time></trkpt><trkpt lat="30.7276138" lon="35.7231503"><ele>1302.6</ele><time>2015-11-22T14:34:42.0000000+00:00</time></trkpt><trkpt lat="30.7275644" lon="35.7231182"><ele>1303.3</ele><time>2015-11-22T14:34:45.0000000+00:00</time></trkpt><trkpt lat="30.7275046" lon="35.7230779"><ele>1302.6</ele><time>2015-11-22T14:34:48.0000000+00:00</time></trkpt><trkpt lat="30.7274593" lon="35.7230496"><ele>1302.2</ele><time>2015-11-22T14:34:50.0000000+00:00</time></trkpt><trkpt lat="30.727417" lon="35.7230195"><ele>1302.4</ele><time>2015-11-22T14:34:52.0000000+00:00</time></trkpt><trkpt lat="30.7273772" lon="35.722989"><ele>1302.9</ele><time>2015-11-22T14:34:54.0000000+00:00</time></trkpt><trkpt lat="30.7273261" lon="35.7229449"><ele>1302.5</ele><time>2015-11-22T14:34:57.0000000+00:00</time></trkpt><trkpt lat="30.7272806" lon="35.7229042"><ele>1301.9</ele><time>2015-11-22T14:35:00.0000000+00:00</time></trkpt><trkpt lat="30.7272324" lon="35.722861"><ele>1302.3</ele><time>2015-11-22T14:35:03.0000000+00:00</time></trkpt><trkpt lat="30.7271892" lon="35.7228284"><ele>1302.3</ele><time>2015-11-22T14:35:06.0000000+00:00</time></trkpt><trkpt lat="30.72715" lon="35.7227976"><ele>1302.9</ele><time>2015-11-22T14:35:09.0000000+00:00</time></trkpt><trkpt lat="30.7271072" lon="35.7227486"><ele>1303.4</ele><time>2015-11-22T14:35:13.0000000+00:00</time></trkpt><trkpt lat="30.727061" lon="35.7227109"><ele>1302.9</ele><time>2015-11-22T14:35:16.0000000+00:00</time></trkpt><trkpt lat="30.7270228" lon="35.7226786"><ele>1302.5</ele><time>2015-11-22T14:35:18.0000000+00:00</time></trkpt><trkpt lat="30.7269816" lon="35.7226437"><ele>1302.4</ele><time>2015-11-22T14:35:20.0000000+00:00</time></trkpt><trkpt lat="30.7269437" lon="35.7226045"><ele>1302.2</ele><time>2015-11-22T14:35:22.0000000+00:00</time></trkpt><trkpt lat="30.7269083" lon="35.7225619"><ele>1301.6</ele><time>2015-11-22T14:35:24.0000000+00:00</time></trkpt><trkpt lat="30.7268719" lon="35.7225212"><ele>1300.9</ele><time>2015-11-22T14:35:26.0000000+00:00</time></trkpt><trkpt lat="30.726835" lon="35.7224813"><ele>1300.5</ele><time>2015-11-22T14:35:28.0000000+00:00</time></trkpt><trkpt lat="30.7267982" lon="35.7224363"><ele>1301.2</ele><time>2015-11-22T14:35:30.0000000+00:00</time></trkpt><trkpt lat="30.7267581" lon="35.7223884"><ele>1301.3</ele><time>2015-11-22T14:35:32.0000000+00:00</time></trkpt><trkpt lat="30.7267156" lon="35.7223305"><ele>1301.1</ele><time>2015-11-22T14:35:34.0000000+00:00</time></trkpt><trkpt lat="30.7266668" lon="35.7222643"><ele>1301.3</ele><time>2015-11-22T14:35:36.0000000+00:00</time></trkpt><trkpt lat="30.7266171" lon="35.7221983"><ele>1301.9</ele><time>2015-11-22T14:35:38.0000000+00:00</time></trkpt><trkpt lat="30.7265689" lon="35.7221362"><ele>1302.3</ele><time>2015-11-22T14:35:40.0000000+00:00</time></trkpt><trkpt lat="30.7265249" lon="35.7220732"><ele>1302.1</ele><time>2015-11-22T14:35:42.0000000+00:00</time></trkpt><trkpt lat="30.7264849" lon="35.7220126"><ele>1301.8</ele><time>2015-11-22T14:35:44.0000000+00:00</time></trkpt><trkpt lat="30.7264472" lon="35.7219517"><ele>1300.8</ele><time>2015-11-22T14:35:46.0000000+00:00</time></trkpt><trkpt lat="30.7264054" lon="35.7218904"><ele>1300.5</ele><time>2015-11-22T14:35:48.0000000+00:00</time></trkpt><trkpt lat="30.7263577" lon="35.7218304"><ele>1300.4</ele><time>2015-11-22T14:35:50.0000000+00:00</time></trkpt><trkpt lat="30.7263072" lon="35.7217694"><ele>1301.7</ele><time>2015-11-22T14:35:52.0000000+00:00</time></trkpt><trkpt lat="30.7262532" lon="35.7217043"><ele>1303.5</ele><time>2015-11-22T14:35:54.0000000+00:00</time></trkpt><trkpt lat="30.7261986" lon="35.7216367"><ele>1303.7</ele><time>2015-11-22T14:35:56.0000000+00:00</time></trkpt><trkpt lat="30.7261428" lon="35.7215651"><ele>1303.5</ele><time>2015-11-22T14:35:58.0000000+00:00</time></trkpt><trkpt lat="30.7260835" lon="35.7214912"><ele>1302.7</ele><time>2015-11-22T14:36:00.0000000+00:00</time></trkpt><trkpt lat="30.7260228" lon="35.7214185"><ele>1302.5</ele><time>2015-11-22T14:36:02.0000000+00:00</time></trkpt><trkpt lat="30.7259592" lon="35.7213521"><ele>1302.9</ele><time>2015-11-22T14:36:04.0000000+00:00</time></trkpt><trkpt lat="30.7258961" lon="35.721289"><ele>1303.3</ele><time>2015-11-22T14:36:06.0000000+00:00</time></trkpt><trkpt lat="30.7258337" lon="35.7212313"><ele>1304.1</ele><time>2015-11-22T14:36:08.0000000+00:00</time></trkpt><trkpt lat="30.7257686" lon="35.7211759"><ele>1304.8</ele><time>2015-11-22T14:36:10.0000000+00:00</time></trkpt><trkpt lat="30.7257004" lon="35.7211253"><ele>1305.3</ele><time>2015-11-22T14:36:12.0000000+00:00</time></trkpt><trkpt lat="30.7256305" lon="35.7210755"><ele>1305.4</ele><time>2015-11-22T14:36:14.0000000+00:00</time></trkpt><trkpt lat="30.7255584" lon="35.7210271"><ele>1306.1</ele><time>2015-11-22T14:36:16.0000000+00:00</time></trkpt><trkpt lat="30.7254848" lon="35.7209822"><ele>1307.1</ele><time>2015-11-22T14:36:18.0000000+00:00</time></trkpt><trkpt lat="30.7254097" lon="35.7209457"><ele>1306.6</ele><time>2015-11-22T14:36:20.0000000+00:00</time></trkpt><trkpt lat="30.725337" lon="35.7209144"><ele>1306.2</ele><time>2015-11-22T14:36:22.0000000+00:00</time></trkpt><trkpt lat="30.7252639" lon="35.7208893"><ele>1306.3</ele><time>2015-11-22T14:36:24.0000000+00:00</time></trkpt><trkpt lat="30.7251908" lon="35.7208642"><ele>1306.4</ele><time>2015-11-22T14:36:26.0000000+00:00</time></trkpt><trkpt lat="30.7251163" lon="35.7208414"><ele>1307.1</ele><time>2015-11-22T14:36:28.0000000+00:00</time></trkpt><trkpt lat="30.7250406" lon="35.720818"><ele>1307.3</ele><time>2015-11-22T14:36:30.0000000+00:00</time></trkpt><trkpt lat="30.7249623" lon="35.7207982"><ele>1307.1</ele><time>2015-11-22T14:36:32.0000000+00:00</time></trkpt><trkpt lat="30.7248819" lon="35.7207798"><ele>1307.8</ele><time>2015-11-22T14:36:34.0000000+00:00</time></trkpt><trkpt lat="30.7248" lon="35.720762"><ele>1307.5</ele><time>2015-11-22T14:36:36.0000000+00:00</time></trkpt><trkpt lat="30.7247171" lon="35.7207461"><ele>1307.9</ele><time>2015-11-22T14:36:38.0000000+00:00</time></trkpt><trkpt lat="30.724633" lon="35.7207283"><ele>1308.8</ele><time>2015-11-22T14:36:40.0000000+00:00</time></trkpt><trkpt lat="30.72455" lon="35.7207076"><ele>1309.2</ele><time>2015-11-22T14:36:42.0000000+00:00</time></trkpt><trkpt lat="30.7244718" lon="35.7206888"><ele>1309.4</ele><time>2015-11-22T14:36:44.0000000+00:00</time></trkpt><trkpt lat="30.7243959" lon="35.7206709"><ele>1309.1</ele><time>2015-11-22T14:36:46.0000000+00:00</time></trkpt><trkpt lat="30.7243194" lon="35.7206462"><ele>1309.3</ele><time>2015-11-22T14:36:48.0000000+00:00</time></trkpt><trkpt lat="30.7242434" lon="35.7206249"><ele>1308.4</ele><time>2015-11-22T14:36:50.0000000+00:00</time></trkpt><trkpt lat="30.7241707" lon="35.7206016"><ele>1308.9</ele><time>2015-11-22T14:36:52.0000000+00:00</time></trkpt><trkpt lat="30.7240954" lon="35.720579"><ele>1310.5</ele><time>2015-11-22T14:36:54.0000000+00:00</time></trkpt><trkpt lat="30.7240168" lon="35.7205598"><ele>1310.4</ele><time>2015-11-22T14:36:56.0000000+00:00</time></trkpt><trkpt lat="30.7239358" lon="35.7205408"><ele>1310.9</ele><time>2015-11-22T14:36:58.0000000+00:00</time></trkpt><trkpt lat="30.7238542" lon="35.7205186"><ele>1311.0</ele><time>2015-11-22T14:37:00.0000000+00:00</time></trkpt><trkpt lat="30.7237713" lon="35.7204982"><ele>1312.1</ele><time>2015-11-22T14:37:02.0000000+00:00</time></trkpt><trkpt lat="30.7236891" lon="35.72048"><ele>1313.1</ele><time>2015-11-22T14:37:04.0000000+00:00</time></trkpt><trkpt lat="30.7236049" lon="35.7204621"><ele>1313.8</ele><time>2015-11-22T14:37:06.0000000+00:00</time></trkpt><trkpt lat="30.723547" lon="35.7204469"><ele>1314.1</ele><time>2015-11-22T14:37:07.0000000+00:00</time></trkpt><trkpt lat="30.7234993" lon="35.7204338"><ele>1314.3</ele><time>2015-11-22T14:37:08.0000000+00:00</time></trkpt><trkpt lat="30.7234486" lon="35.7204188"><ele>1314.3</ele><time>2015-11-22T14:37:09.0000000+00:00</time></trkpt><trkpt lat="30.7233699" lon="35.7203946"><ele>1314.9</ele><time>2015-11-22T14:37:11.0000000+00:00</time></trkpt><trkpt lat="30.7232816" lon="35.7203726"><ele>1315.0</ele><time>2015-11-22T14:37:13.0000000+00:00</time></trkpt><trkpt lat="30.7232362" lon="35.7203631"><ele>1315.2</ele><time>2015-11-22T14:37:14.0000000+00:00</time></trkpt><trkpt lat="30.7231898" lon="35.7203536"><ele>1315.3</ele><time>2015-11-22T14:37:15.0000000+00:00</time></trkpt><trkpt lat="30.7231073" lon="35.7203448"><ele>1315.4</ele><time>2015-11-22T14:37:17.0000000+00:00</time></trkpt><trkpt lat="30.7230243" lon="35.7203245"><ele>1315.4</ele><time>2015-11-22T14:37:19.0000000+00:00</time></trkpt><trkpt lat="30.7229335" lon="35.7203001"><ele>1314.9</ele><time>2015-11-22T14:37:21.0000000+00:00</time></trkpt><trkpt lat="30.7228493" lon="35.720278"><ele>1314.5</ele><time>2015-11-22T14:37:23.0000000+00:00</time></trkpt><trkpt lat="30.7227728" lon="35.7202489"><ele>1314.9</ele><time>2015-11-22T14:37:25.0000000+00:00</time></trkpt><trkpt lat="30.7226952" lon="35.7202132"><ele>1315.3</ele><time>2015-11-22T14:37:27.0000000+00:00</time></trkpt><trkpt lat="30.7226161" lon="35.7201736"><ele>1315.4</ele><time>2015-11-22T14:37:29.0000000+00:00</time></trkpt><trkpt lat="30.722566" lon="35.7201387"><ele>1315.4</ele><time>2015-11-22T14:37:30.0000000+00:00</time></trkpt><trkpt lat="30.7224894" lon="35.7201018"><ele>1314.9</ele><time>2015-11-22T14:37:32.0000000+00:00</time></trkpt><trkpt lat="30.722412" lon="35.7200571"><ele>1314.5</ele><time>2015-11-22T14:37:34.0000000+00:00</time></trkpt><trkpt lat="30.7223379" lon="35.7200146"><ele>1314.9</ele><time>2015-11-22T14:37:36.0000000+00:00</time></trkpt><trkpt lat="30.7222697" lon="35.7199746"><ele>1315.3</ele><time>2015-11-22T14:37:38.0000000+00:00</time></trkpt><trkpt lat="30.722201" lon="35.7199319"><ele>1315.1</ele><time>2015-11-22T14:37:40.0000000+00:00</time></trkpt><trkpt lat="30.7221272" lon="35.719886"><ele>1314.6</ele><time>2015-11-22T14:37:42.0000000+00:00</time></trkpt><trkpt lat="30.7220484" lon="35.7198424"><ele>1314.4</ele><time>2015-11-22T14:37:44.0000000+00:00</time></trkpt><trkpt lat="30.7219673" lon="35.7197878"><ele>1314.4</ele><time>2015-11-22T14:37:46.0000000+00:00</time></trkpt><trkpt lat="30.7218884" lon="35.7197604"><ele>1314.4</ele><time>2015-11-22T14:37:48.0000000+00:00</time></trkpt><trkpt lat="30.7218022" lon="35.7197192"><ele>1314.4</ele><time>2015-11-22T14:37:50.0000000+00:00</time></trkpt><trkpt lat="30.7217576" lon="35.7196945"><ele>1314.4</ele><time>2015-11-22T14:37:51.0000000+00:00</time></trkpt><trkpt lat="30.7217108" lon="35.7196687"><ele>1314.9</ele><time>2015-11-22T14:37:52.0000000+00:00</time></trkpt><trkpt lat="30.721623" lon="35.7196263"><ele>1315.8</ele><time>2015-11-22T14:37:54.0000000+00:00</time></trkpt><trkpt lat="30.7215326" lon="35.7195876"><ele>1315.7</ele><time>2015-11-22T14:37:56.0000000+00:00</time></trkpt><trkpt lat="30.7214512" lon="35.71957"><ele>1316.7</ele><time>2015-11-22T14:37:58.0000000+00:00</time></trkpt><trkpt lat="30.7214038" lon="35.7195533"><ele>1317.1</ele><time>2015-11-22T14:37:59.0000000+00:00</time></trkpt><trkpt lat="30.7213564" lon="35.7195473"><ele>1317.2</ele><time>2015-11-22T14:38:00.0000000+00:00</time></trkpt><trkpt lat="30.7212743" lon="35.7195272"><ele>1317.1</ele><time>2015-11-22T14:38:02.0000000+00:00</time></trkpt><trkpt lat="30.7211893" lon="35.7195086"><ele>1317.3</ele><time>2015-11-22T14:38:04.0000000+00:00</time></trkpt><trkpt lat="30.7211099" lon="35.7194806"><ele>1317.4</ele><time>2015-11-22T14:38:06.0000000+00:00</time></trkpt><trkpt lat="30.7210245" lon="35.7194499"><ele>1317.4</ele><time>2015-11-22T14:38:08.0000000+00:00</time></trkpt><trkpt lat="30.7209397" lon="35.7194351"><ele>1317.4</ele><time>2015-11-22T14:38:10.0000000+00:00</time></trkpt><trkpt lat="30.7208789" lon="35.7194311"><ele>1316.9</ele><time>2015-11-22T14:38:12.0000000+00:00</time></trkpt><trkpt lat="30.7208043" lon="35.7194091"><ele>1316.0</ele><time>2015-11-22T14:38:14.0000000+00:00</time></trkpt><trkpt lat="30.7207246" lon="35.7193894"><ele>1315.6</ele><time>2015-11-22T14:38:16.0000000+00:00</time></trkpt><trkpt lat="30.7206423" lon="35.7193702"><ele>1315.9</ele><time>2015-11-22T14:38:18.0000000+00:00</time></trkpt><trkpt lat="30.7205595" lon="35.7193508"><ele>1315.5</ele><time>2015-11-22T14:38:20.0000000+00:00</time></trkpt><trkpt lat="30.720475" lon="35.7193304"><ele>1316.7</ele><time>2015-11-22T14:38:22.0000000+00:00</time></trkpt><trkpt lat="30.7203916" lon="35.7193066"><ele>1317.7</ele><time>2015-11-22T14:38:24.0000000+00:00</time></trkpt><trkpt lat="30.7203089" lon="35.7192893"><ele>1317.7</ele><time>2015-11-22T14:38:26.0000000+00:00</time></trkpt><trkpt lat="30.7202274" lon="35.7192726"><ele>1318.2</ele><time>2015-11-22T14:38:28.0000000+00:00</time></trkpt><trkpt lat="30.7201532" lon="35.7192535"><ele>1318.4</ele><time>2015-11-22T14:38:30.0000000+00:00</time></trkpt><trkpt lat="30.7200798" lon="35.7192318"><ele>1318.4</ele><time>2015-11-22T14:38:32.0000000+00:00</time></trkpt><trkpt lat="30.7200071" lon="35.7192095"><ele>1319.1</ele><time>2015-11-22T14:38:34.0000000+00:00</time></trkpt><trkpt lat="30.7199379" lon="35.7191887"><ele>1319.3</ele><time>2015-11-22T14:38:36.0000000+00:00</time></trkpt><trkpt lat="30.7198699" lon="35.7191661"><ele>1319.4</ele><time>2015-11-22T14:38:38.0000000+00:00</time></trkpt><trkpt lat="30.7198034" lon="35.719146"><ele>1319.9</ele><time>2015-11-22T14:38:40.0000000+00:00</time></trkpt><trkpt lat="30.7197345" lon="35.7191243"><ele>1319.5</ele><time>2015-11-22T14:38:42.0000000+00:00</time></trkpt><trkpt lat="30.719664" lon="35.7191016"><ele>1319.9</ele><time>2015-11-22T14:38:44.0000000+00:00</time></trkpt><trkpt lat="30.7195938" lon="35.719076"><ele>1320.8</ele><time>2015-11-22T14:38:46.0000000+00:00</time></trkpt><trkpt lat="30.7195265" lon="35.7190407"><ele>1321.2</ele><time>2015-11-22T14:38:48.0000000+00:00</time></trkpt><trkpt lat="30.7194609" lon="35.7189968"><ele>1321.9</ele><time>2015-11-22T14:38:50.0000000+00:00</time></trkpt><trkpt lat="30.7193972" lon="35.7189528"><ele>1322.3</ele><time>2015-11-22T14:38:52.0000000+00:00</time></trkpt><trkpt lat="30.7193363" lon="35.7189059"><ele>1322.4</ele><time>2015-11-22T14:38:54.0000000+00:00</time></trkpt><trkpt lat="30.7192744" lon="35.7188602"><ele>1322.4</ele><time>2015-11-22T14:38:56.0000000+00:00</time></trkpt><trkpt lat="30.719209" lon="35.7188164"><ele>1323.1</ele><time>2015-11-22T14:38:58.0000000+00:00</time></trkpt><trkpt lat="30.7191458" lon="35.7187715"><ele>1322.8</ele><time>2015-11-22T14:39:00.0000000+00:00</time></trkpt><trkpt lat="30.7190798" lon="35.7187284"><ele>1322.8</ele><time>2015-11-22T14:39:02.0000000+00:00</time></trkpt><trkpt lat="30.7190128" lon="35.7186862"><ele>1323.2</ele><time>2015-11-22T14:39:04.0000000+00:00</time></trkpt><trkpt lat="30.7189413" lon="35.7186428"><ele>1323.9</ele><time>2015-11-22T14:39:06.0000000+00:00</time></trkpt><trkpt lat="30.7188725" lon="35.7185999"><ele>1324.0</ele><time>2015-11-22T14:39:08.0000000+00:00</time></trkpt><trkpt lat="30.7188052" lon="35.7185608"><ele>1322.8</ele><time>2015-11-22T14:39:10.0000000+00:00</time></trkpt><trkpt lat="30.7187372" lon="35.7185198"><ele>1323.2</ele><time>2015-11-22T14:39:12.0000000+00:00</time></trkpt><trkpt lat="30.7186686" lon="35.7184776"><ele>1323.9</ele><time>2015-11-22T14:39:14.0000000+00:00</time></trkpt><trkpt lat="30.718601" lon="35.7184392"><ele>1324.3</ele><time>2015-11-22T14:39:16.0000000+00:00</time></trkpt><trkpt lat="30.7185331" lon="35.7184004"><ele>1325.1</ele><time>2015-11-22T14:39:18.0000000+00:00</time></trkpt><trkpt lat="30.7184703" lon="35.718366"><ele>1325.3</ele><time>2015-11-22T14:39:20.0000000+00:00</time></trkpt><trkpt lat="30.7184165" lon="35.7183329"><ele>1326.6</ele><time>2015-11-22T14:39:22.0000000+00:00</time></trkpt><trkpt lat="30.7183679" lon="35.7182929"><ele>1327.8</ele><time>2015-11-22T14:39:25.0000000+00:00</time></trkpt><trkpt lat="30.7183311" lon="35.7182586"><ele>1327.6</ele><time>2015-11-22T14:39:28.0000000+00:00</time></trkpt><trkpt lat="30.7182829" lon="35.7182292"><ele>1327.9</ele><time>2015-11-22T14:39:31.0000000+00:00</time></trkpt><trkpt lat="30.7182309" lon="35.7181937"><ele>1326.6</ele><time>2015-11-22T14:39:34.0000000+00:00</time></trkpt><trkpt lat="30.7181762" lon="35.7181489"><ele>1326.0</ele><time>2015-11-22T14:39:37.0000000+00:00</time></trkpt><trkpt lat="30.7181327" lon="35.7181164"><ele>1325.6</ele><time>2015-11-22T14:39:39.0000000+00:00</time></trkpt><trkpt lat="30.7180806" lon="35.7180793"><ele>1325.7</ele><time>2015-11-22T14:39:41.0000000+00:00</time></trkpt><trkpt lat="30.7180214" lon="35.718035"><ele>1325.0</ele><time>2015-11-22T14:39:43.0000000+00:00</time></trkpt><trkpt lat="30.7179598" lon="35.7179901"><ele>1325.0</ele><time>2015-11-22T14:39:45.0000000+00:00</time></trkpt><trkpt lat="30.7178957" lon="35.7179425"><ele>1325.8</ele><time>2015-11-22T14:39:47.0000000+00:00</time></trkpt><trkpt lat="30.7178293" lon="35.7178962"><ele>1327.0</ele><time>2015-11-22T14:39:49.0000000+00:00</time></trkpt><trkpt lat="30.7177594" lon="35.7178536"><ele>1326.8</ele><time>2015-11-22T14:39:51.0000000+00:00</time></trkpt><trkpt lat="30.7176876" lon="35.7178081"><ele>1327.2</ele><time>2015-11-22T14:39:53.0000000+00:00</time></trkpt><trkpt lat="30.7176156" lon="35.7177578"><ele>1326.9</ele><time>2015-11-22T14:39:55.0000000+00:00</time></trkpt><trkpt lat="30.7175484" lon="35.7177034"><ele>1327.0</ele><time>2015-11-22T14:39:57.0000000+00:00</time></trkpt><trkpt lat="30.7174845" lon="35.7176483"><ele>1327.1</ele><time>2015-11-22T14:39:59.0000000+00:00</time></trkpt><trkpt lat="30.7174211" lon="35.7175875"><ele>1327.3</ele><time>2015-11-22T14:40:01.0000000+00:00</time></trkpt><trkpt lat="30.7173581" lon="35.7175251"><ele>1327.4</ele><time>2015-11-22T14:40:03.0000000+00:00</time></trkpt><trkpt lat="30.7172999" lon="35.7174608"><ele>1327.4</ele><time>2015-11-22T14:40:05.0000000+00:00</time></trkpt><trkpt lat="30.7172457" lon="35.7173962"><ele>1327.4</ele><time>2015-11-22T14:40:07.0000000+00:00</time></trkpt><trkpt lat="30.7171933" lon="35.7173349"><ele>1327.9</ele><time>2015-11-22T14:40:09.0000000+00:00</time></trkpt><trkpt lat="30.7171462" lon="35.7172786"><ele>1328.0</ele><time>2015-11-22T14:40:11.0000000+00:00</time></trkpt><trkpt lat="30.7171005" lon="35.7172271"><ele>1328.1</ele><time>2015-11-22T14:40:13.0000000+00:00</time></trkpt><trkpt lat="30.7170593" lon="35.7171782"><ele>1327.8</ele><time>2015-11-22T14:40:15.0000000+00:00</time></trkpt><trkpt lat="30.7170205" lon="35.7171276"><ele>1328.3</ele><time>2015-11-22T14:40:17.0000000+00:00</time></trkpt><trkpt lat="30.7169822" lon="35.7170841"><ele>1328.4</ele><time>2015-11-22T14:40:19.0000000+00:00</time></trkpt><trkpt lat="30.7169444" lon="35.7170418"><ele>1328.4</ele><time>2015-11-22T14:40:21.0000000+00:00</time></trkpt><trkpt lat="30.7169051" lon="35.717001"><ele>1328.4</ele><time>2015-11-22T14:40:23.0000000+00:00</time></trkpt><trkpt lat="30.7168663" lon="35.7169589"><ele>1328.4</ele><time>2015-11-22T14:40:25.0000000+00:00</time></trkpt><trkpt lat="30.7168293" lon="35.7169143"><ele>1327.9</ele><time>2015-11-22T14:40:27.0000000+00:00</time></trkpt><trkpt lat="30.7167933" lon="35.7168635"><ele>1327.8</ele><time>2015-11-22T14:40:29.0000000+00:00</time></trkpt><trkpt lat="30.7167573" lon="35.7168082"><ele>1326.7</ele><time>2015-11-22T14:40:31.0000000+00:00</time></trkpt><trkpt lat="30.7167143" lon="35.7167568"><ele>1327.0</ele><time>2015-11-22T14:40:33.0000000+00:00</time></trkpt><trkpt lat="30.7166718" lon="35.7167068"><ele>1327.3</ele><time>2015-11-22T14:40:35.0000000+00:00</time></trkpt><trkpt lat="30.7166313" lon="35.7166572"><ele>1328.1</ele><time>2015-11-22T14:40:37.0000000+00:00</time></trkpt><trkpt lat="30.7165911" lon="35.7166117"><ele>1329.1</ele><time>2015-11-22T14:40:39.0000000+00:00</time></trkpt><trkpt lat="30.7165514" lon="35.716565"><ele>1329.3</ele><time>2015-11-22T14:40:41.0000000+00:00</time></trkpt><trkpt lat="30.7165127" lon="35.7165205"><ele>1328.6</ele><time>2015-11-22T14:40:43.0000000+00:00</time></trkpt><trkpt lat="30.7164761" lon="35.716474"><ele>1329.0</ele><time>2015-11-22T14:40:45.0000000+00:00</time></trkpt><trkpt lat="30.7164361" lon="35.7164304"><ele>1329.8</ele><time>2015-11-22T14:40:47.0000000+00:00</time></trkpt><trkpt lat="30.7163986" lon="35.7163856"><ele>1330.2</ele><time>2015-11-22T14:40:49.0000000+00:00</time></trkpt><trkpt lat="30.7163617" lon="35.716338"><ele>1330.9</ele><time>2015-11-22T14:40:51.0000000+00:00</time></trkpt><trkpt lat="30.7163246" lon="35.7162921"><ele>1332.5</ele><time>2015-11-22T14:40:53.0000000+00:00</time></trkpt><trkpt lat="30.716291" lon="35.7162471"><ele>1333.2</ele><time>2015-11-22T14:40:55.0000000+00:00</time></trkpt><trkpt lat="30.7162585" lon="35.7162018"><ele>1334.1</ele><time>2015-11-22T14:40:57.0000000+00:00</time></trkpt><trkpt lat="30.7162246" lon="35.7161576"><ele>1334.3</ele><time>2015-11-22T14:40:59.0000000+00:00</time></trkpt><trkpt lat="30.7161914" lon="35.7161143"><ele>1335.1</ele><time>2015-11-22T14:41:01.0000000+00:00</time></trkpt><trkpt lat="30.716158" lon="35.7160707"><ele>1336.6</ele><time>2015-11-22T14:41:03.0000000+00:00</time></trkpt><trkpt lat="30.7161264" lon="35.7160273"><ele>1336.7</ele><time>2015-11-22T14:41:05.0000000+00:00</time></trkpt><trkpt lat="30.7160943" lon="35.7159838"><ele>1336.0</ele><time>2015-11-22T14:41:07.0000000+00:00</time></trkpt><trkpt lat="30.7160611" lon="35.715945"><ele>1335.5</ele><time>2015-11-22T14:41:09.0000000+00:00</time></trkpt><trkpt lat="30.7160285" lon="35.7159018"><ele>1336.2</ele><time>2015-11-22T14:41:12.0000000+00:00</time></trkpt><trkpt lat="30.7159895" lon="35.7158508"><ele>1336.9</ele><time>2015-11-22T14:41:16.0000000+00:00</time></trkpt><trkpt lat="30.7159562" lon="35.7158116"><ele>1338.1</ele><time>2015-11-22T14:41:19.0000000+00:00</time></trkpt><trkpt lat="30.7159226" lon="35.7157689"><ele>1338.9</ele><time>2015-11-22T14:41:22.0000000+00:00</time></trkpt><trkpt lat="30.7158864" lon="35.7157282"><ele>1339.3</ele><time>2015-11-22T14:41:25.0000000+00:00</time></trkpt><trkpt lat="30.7158504" lon="35.7156884"><ele>1339.9</ele><time>2015-11-22T14:41:28.0000000+00:00</time></trkpt><trkpt lat="30.7158192" lon="35.7156418"><ele>1340.1</ele><time>2015-11-22T14:41:31.0000000+00:00</time></trkpt><trkpt lat="30.7157794" lon="35.7156023"><ele>1341.1</ele><time>2015-11-22T14:41:34.0000000+00:00</time></trkpt><trkpt lat="30.7157429" lon="35.7155639"><ele>1342.7</ele><time>2015-11-22T14:41:37.0000000+00:00</time></trkpt><trkpt lat="30.7157099" lon="35.7155227"><ele>1343.3</ele><time>2015-11-22T14:41:40.0000000+00:00</time></trkpt><trkpt lat="30.715679" lon="35.7154815"><ele>1343.4</ele><time>2015-11-22T14:41:43.0000000+00:00</time></trkpt><trkpt lat="30.7156458" lon="35.715437"><ele>1344.3</ele><time>2015-11-22T14:41:46.0000000+00:00</time></trkpt><trkpt lat="30.7156099" lon="35.7153973"><ele>1346.0</ele><time>2015-11-22T14:41:49.0000000+00:00</time></trkpt><trkpt lat="30.7155754" lon="35.71536"><ele>1347.7</ele><time>2015-11-22T14:41:52.0000000+00:00</time></trkpt><trkpt lat="30.7155484" lon="35.7153177"><ele>1346.7</ele><time>2015-11-22T14:41:55.0000000+00:00</time></trkpt><trkpt lat="30.7155063" lon="35.7152668"><ele>1347.9</ele><time>2015-11-22T14:41:59.0000000+00:00</time></trkpt><trkpt lat="30.715467" lon="35.7152223"><ele>1348.2</ele><time>2015-11-22T14:42:03.0000000+00:00</time></trkpt><trkpt lat="30.7154242" lon="35.7151786"><ele>1349.8</ele><time>2015-11-22T14:42:07.0000000+00:00</time></trkpt><trkpt lat="30.7153911" lon="35.715123"><ele>1351.2</ele><time>2015-11-22T14:42:11.0000000+00:00</time></trkpt><trkpt lat="30.715364" lon="35.7150692"><ele>1350.8</ele><time>2015-11-22T14:42:15.0000000+00:00</time></trkpt><trkpt lat="30.7153307" lon="35.7150187"><ele>1351.8</ele><time>2015-11-22T14:42:19.0000000+00:00</time></trkpt><trkpt lat="30.7152915" lon="35.7149777"><ele>1353.3</ele><time>2015-11-22T14:42:23.0000000+00:00</time></trkpt><trkpt lat="30.7152574" lon="35.7149312"><ele>1354.0</ele><time>2015-11-22T14:42:27.0000000+00:00</time></trkpt><trkpt lat="30.7152204" lon="35.7148836"><ele>1353.4</ele><time>2015-11-22T14:42:31.0000000+00:00</time></trkpt><trkpt lat="30.7151786" lon="35.7148394"><ele>1354.8</ele><time>2015-11-22T14:42:35.0000000+00:00</time></trkpt><trkpt lat="30.7151398" lon="35.7147901"><ele>1355.6</ele><time>2015-11-22T14:42:39.0000000+00:00</time></trkpt><trkpt lat="30.7151007" lon="35.7147407"><ele>1357.1</ele><time>2015-11-22T14:42:43.0000000+00:00</time></trkpt><trkpt lat="30.7150628" lon="35.7146953"><ele>1359.7</ele><time>2015-11-22T14:42:47.0000000+00:00</time></trkpt><trkpt lat="30.7150343" lon="35.714652"><ele>1359.9</ele><time>2015-11-22T14:42:51.0000000+00:00</time></trkpt><trkpt lat="30.7150021" lon="35.7146132"><ele>1361.2</ele><time>2015-11-22T14:42:55.0000000+00:00</time></trkpt><trkpt lat="30.7149588" lon="35.7145825"><ele>1362.8</ele><time>2015-11-22T14:43:04.0000000+00:00</time></trkpt><trkpt lat="30.7149276" lon="35.7145435"><ele>1363.4</ele><time>2015-11-22T14:43:08.0000000+00:00</time></trkpt><trkpt lat="30.7148947" lon="35.7145018"><ele>1362.6</ele><time>2015-11-22T14:43:13.0000000+00:00</time></trkpt><trkpt lat="30.7148575" lon="35.7144631"><ele>1362.6</ele><time>2015-11-22T14:43:19.0000000+00:00</time></trkpt><trkpt lat="30.7148228" lon="35.7144173"><ele>1363.8</ele><time>2015-11-22T14:43:24.0000000+00:00</time></trkpt><trkpt lat="30.7147928" lon="35.7143655"><ele>1363.8</ele><time>2015-11-22T14:43:29.0000000+00:00</time></trkpt><trkpt lat="30.7147665" lon="35.7143228"><ele>1361.5</ele><time>2015-11-22T14:43:35.0000000+00:00</time></trkpt><trkpt lat="30.7147376" lon="35.7142783"><ele>1362.4</ele><time>2015-11-22T14:43:41.0000000+00:00</time></trkpt><trkpt lat="30.7147129" lon="35.7142342"><ele>1360.7</ele><time>2015-11-22T14:43:46.0000000+00:00</time></trkpt><trkpt lat="30.714681" lon="35.7141906"><ele>1360.5</ele><time>2015-11-22T14:43:52.0000000+00:00</time></trkpt><trkpt lat="30.7146475" lon="35.7141495"><ele>1361.7</ele><time>2015-11-22T14:43:58.0000000+00:00</time></trkpt><trkpt lat="30.7146174" lon="35.7141032"><ele>1363.3</ele><time>2015-11-22T14:44:04.0000000+00:00</time></trkpt><trkpt lat="30.7145849" lon="35.7140549"><ele>1364.7</ele><time>2015-11-22T14:44:09.0000000+00:00</time></trkpt><trkpt lat="30.7145482" lon="35.7140104"><ele>1366.0</ele><time>2015-11-22T14:44:14.0000000+00:00</time></trkpt><trkpt lat="30.7145091" lon="35.7139709"><ele>1368.2</ele><time>2015-11-22T14:44:19.0000000+00:00</time></trkpt><trkpt lat="30.714468" lon="35.7139327"><ele>1369.1</ele><time>2015-11-22T14:44:25.0000000+00:00</time></trkpt><trkpt lat="30.7144334" lon="35.7138914"><ele>1370.9</ele><time>2015-11-22T14:44:31.0000000+00:00</time></trkpt><trkpt lat="30.7143944" lon="35.7138543"><ele>1371.3</ele><time>2015-11-22T14:44:36.0000000+00:00</time></trkpt><trkpt lat="30.7143535" lon="35.7138156"><ele>1372.6</ele><time>2015-11-22T14:44:41.0000000+00:00</time></trkpt><trkpt lat="30.7143162" lon="35.7137826"><ele>1372.8</ele><time>2015-11-22T14:44:46.0000000+00:00</time></trkpt><trkpt lat="30.7142753" lon="35.7137482"><ele>1373.3</ele><time>2015-11-22T14:44:51.0000000+00:00</time></trkpt><trkpt lat="30.7142392" lon="35.7137134"><ele>1374.9</ele><time>2015-11-22T14:44:56.0000000+00:00</time></trkpt><trkpt lat="30.7142017" lon="35.7136741"><ele>1375.3</ele><time>2015-11-22T14:45:01.0000000+00:00</time></trkpt><trkpt lat="30.7141669" lon="35.7136389"><ele>1377.0</ele><time>2015-11-22T14:45:06.0000000+00:00</time></trkpt><trkpt lat="30.7141302" lon="35.7136044"><ele>1377.9</ele><time>2015-11-22T14:45:12.0000000+00:00</time></trkpt><trkpt lat="30.7140909" lon="35.7135745"><ele>1378.0</ele><time>2015-11-22T14:45:19.0000000+00:00</time></trkpt><trkpt lat="30.7140483" lon="35.7135464"><ele>1377.0</ele><time>2015-11-22T14:45:26.0000000+00:00</time></trkpt><trkpt lat="30.7140039" lon="35.7135276"><ele>1376.7</ele><time>2015-11-22T14:45:32.0000000+00:00</time></trkpt><trkpt lat="30.7139606" lon="35.7135052"><ele>1377.5</ele><time>2015-11-22T14:45:38.0000000+00:00</time></trkpt><trkpt lat="30.7139141" lon="35.7134758"><ele>1377.5</ele><time>2015-11-22T14:45:44.0000000+00:00</time></trkpt><trkpt lat="30.7138691" lon="35.7134513"><ele>1376.0</ele><time>2015-11-22T14:45:51.0000000+00:00</time></trkpt><trkpt lat="30.7138225" lon="35.7134246"><ele>1377.1</ele><time>2015-11-22T14:45:57.0000000+00:00</time></trkpt><trkpt lat="30.7137762" lon="35.7133996"><ele>1378.9</ele><time>2015-11-22T14:46:02.0000000+00:00</time></trkpt><trkpt lat="30.7137321" lon="35.713373"><ele>1379.4</ele><time>2015-11-22T14:46:07.0000000+00:00</time></trkpt><trkpt lat="30.7136896" lon="35.7133519"><ele>1380.1</ele><time>2015-11-22T14:46:12.0000000+00:00</time></trkpt><trkpt lat="30.7136471" lon="35.7133346"><ele>1381.4</ele><time>2015-11-22T14:46:17.0000000+00:00</time></trkpt><trkpt lat="30.7136039" lon="35.7133122"><ele>1382.6</ele><time>2015-11-22T14:46:22.0000000+00:00</time></trkpt><trkpt lat="30.7135566" lon="35.7132859"><ele>1384.4</ele><time>2015-11-22T14:46:28.0000000+00:00</time></trkpt><trkpt lat="30.7135151" lon="35.7132655"><ele>1384.9</ele><time>2015-11-22T14:46:33.0000000+00:00</time></trkpt><trkpt lat="30.7134722" lon="35.7132489"><ele>1384.9</ele><time>2015-11-22T14:46:39.0000000+00:00</time></trkpt><trkpt lat="30.7134245" lon="35.7132234"><ele>1385.4</ele><time>2015-11-22T14:46:45.0000000+00:00</time></trkpt><trkpt lat="30.713379" lon="35.7132015"><ele>1384.6</ele><time>2015-11-22T14:46:51.0000000+00:00</time></trkpt><trkpt lat="30.7133364" lon="35.7131736"><ele>1384.4</ele><time>2015-11-22T14:46:57.0000000+00:00</time></trkpt><trkpt lat="30.7132934" lon="35.7131472"><ele>1386.2</ele><time>2015-11-22T14:47:02.0000000+00:00</time></trkpt><trkpt lat="30.713251" lon="35.7131252"><ele>1386.4</ele><time>2015-11-22T14:47:07.0000000+00:00</time></trkpt><trkpt lat="30.713204" lon="35.7130952"><ele>1387.4</ele><time>2015-11-22T14:47:13.0000000+00:00</time></trkpt><trkpt lat="30.7131604" lon="35.7130621"><ele>1387.4</ele><time>2015-11-22T14:47:19.0000000+00:00</time></trkpt><trkpt lat="30.7131213" lon="35.7130307"><ele>1387.5</ele><time>2015-11-22T14:47:24.0000000+00:00</time></trkpt><trkpt lat="30.7130822" lon="35.7129966"><ele>1388.3</ele><time>2015-11-22T14:47:29.0000000+00:00</time></trkpt><trkpt lat="30.7130412" lon="35.7129675"><ele>1389.1</ele><time>2015-11-22T14:47:34.0000000+00:00</time></trkpt><trkpt lat="30.7129992" lon="35.7129351"><ele>1389.4</ele><time>2015-11-22T14:47:39.0000000+00:00</time></trkpt><trkpt lat="30.7129598" lon="35.7128964"><ele>1388.4</ele><time>2015-11-22T14:47:44.0000000+00:00</time></trkpt><trkpt lat="30.7129257" lon="35.7128562"><ele>1387.9</ele><time>2015-11-22T14:47:49.0000000+00:00</time></trkpt><trkpt lat="30.7128879" lon="35.7128036"><ele>1388.4</ele><time>2015-11-22T14:47:55.0000000+00:00</time></trkpt><trkpt lat="30.7128583" lon="35.7127556"><ele>1388.4</ele><time>2015-11-22T14:48:00.0000000+00:00</time></trkpt><trkpt lat="30.712828" lon="35.7127111"><ele>1389.3</ele><time>2015-11-22T14:48:05.0000000+00:00</time></trkpt><trkpt lat="30.7127947" lon="35.7126622"><ele>1389.9</ele><time>2015-11-22T14:48:11.0000000+00:00</time></trkpt><trkpt lat="30.7127649" lon="35.7126134"><ele>1390.4</ele><time>2015-11-22T14:48:16.0000000+00:00</time></trkpt><trkpt lat="30.7127361" lon="35.7125656"><ele>1391.1</ele><time>2015-11-22T14:48:21.0000000+00:00</time></trkpt><trkpt lat="30.7127118" lon="35.7125173"><ele>1392.1</ele><time>2015-11-22T14:48:26.0000000+00:00</time></trkpt><trkpt lat="30.7126882" lon="35.7124666"><ele>1393.4</ele><time>2015-11-22T14:48:31.0000000+00:00</time></trkpt><trkpt lat="30.7126595" lon="35.7124182"><ele>1394.2</ele><time>2015-11-22T14:48:36.0000000+00:00</time></trkpt><trkpt lat="30.7126344" lon="35.7123652"><ele>1394.4</ele><time>2015-11-22T14:48:41.0000000+00:00</time></trkpt><trkpt lat="30.7126079" lon="35.7123112"><ele>1394.9</ele><time>2015-11-22T14:48:46.0000000+00:00</time></trkpt><trkpt lat="30.7125806" lon="35.7122565"><ele>1395.4</ele><time>2015-11-22T14:48:51.0000000+00:00</time></trkpt><trkpt lat="30.712555" lon="35.7122015"><ele>1396.4</ele><time>2015-11-22T14:48:56.0000000+00:00</time></trkpt><trkpt lat="30.7125292" lon="35.7121489"><ele>1396.4</ele><time>2015-11-22T14:49:01.0000000+00:00</time></trkpt><trkpt lat="30.7125053" lon="35.7120965"><ele>1397.3</ele><time>2015-11-22T14:49:06.0000000+00:00</time></trkpt><trkpt lat="30.7124792" lon="35.7120404"><ele>1398.3</ele><time>2015-11-22T14:49:11.0000000+00:00</time></trkpt><trkpt lat="30.712456" lon="35.7119844"><ele>1398.4</ele><time>2015-11-22T14:49:16.0000000+00:00</time></trkpt><trkpt lat="30.7124286" lon="35.7119313"><ele>1399.1</ele><time>2015-11-22T14:49:21.0000000+00:00</time></trkpt><trkpt lat="30.7124078" lon="35.7118747"><ele>1399.4</ele><time>2015-11-22T14:49:26.0000000+00:00</time></trkpt><trkpt lat="30.7123814" lon="35.7118238"><ele>1400.3</ele><time>2015-11-22T14:49:31.0000000+00:00</time></trkpt><trkpt lat="30.712358" lon="35.7117725"><ele>1400.5</ele><time>2015-11-22T14:49:36.0000000+00:00</time></trkpt><trkpt lat="30.7123343" lon="35.7117228"><ele>1401.0</ele><time>2015-11-22T14:49:41.0000000+00:00</time></trkpt><trkpt lat="30.7123141" lon="35.7116732"><ele>1401.4</ele><time>2015-11-22T14:49:46.0000000+00:00</time></trkpt><trkpt lat="30.7122932" lon="35.7116218"><ele>1402.4</ele><time>2015-11-22T14:49:51.0000000+00:00</time></trkpt><trkpt lat="30.7122673" lon="35.7115674"><ele>1402.4</ele><time>2015-11-22T14:49:57.0000000+00:00</time></trkpt><trkpt lat="30.7122508" lon="35.7115156"><ele>1403.3</ele><time>2015-11-22T14:50:02.0000000+00:00</time></trkpt><trkpt lat="30.7122308" lon="35.711461"><ele>1403.4</ele><time>2015-11-22T14:50:07.0000000+00:00</time></trkpt><trkpt lat="30.7122018" lon="35.7114108"><ele>1403.4</ele><time>2015-11-22T14:50:12.0000000+00:00</time></trkpt><trkpt lat="30.7121749" lon="35.7113602"><ele>1403.9</ele><time>2015-11-22T14:50:17.0000000+00:00</time></trkpt><trkpt lat="30.7121458" lon="35.7113103"><ele>1406.0</ele><time>2015-11-22T14:50:22.0000000+00:00</time></trkpt><trkpt lat="30.7121223" lon="35.7112609"><ele>1407.8</ele><time>2015-11-22T14:50:27.0000000+00:00</time></trkpt><trkpt lat="30.7120949" lon="35.7112135"><ele>1408.4</ele><time>2015-11-22T14:50:32.0000000+00:00</time></trkpt><trkpt lat="30.7120744" lon="35.7111619"><ele>1409.3</ele><time>2015-11-22T14:50:37.0000000+00:00</time></trkpt><trkpt lat="30.7120593" lon="35.711104"><ele>1409.5</ele><time>2015-11-22T14:50:43.0000000+00:00</time></trkpt><trkpt lat="30.7120407" lon="35.7110543"><ele>1411.7</ele><time>2015-11-22T14:50:48.0000000+00:00</time></trkpt><trkpt lat="30.7120168" lon="35.7110071"><ele>1412.5</ele><time>2015-11-22T14:51:03.0000000+00:00</time></trkpt><trkpt lat="30.7119991" lon="35.7109579"><ele>1413.6</ele><time>2015-11-22T14:51:09.0000000+00:00</time></trkpt><trkpt lat="30.711981" lon="35.710901"><ele>1414.4</ele><time>2015-11-22T14:51:15.0000000+00:00</time></trkpt><trkpt lat="30.7119599" lon="35.7108528"><ele>1416.7</ele><time>2015-11-22T14:51:20.0000000+00:00</time></trkpt><trkpt lat="30.7119528" lon="35.7107988"><ele>1417.9</ele><time>2015-11-22T14:51:25.0000000+00:00</time></trkpt><trkpt lat="30.7119493" lon="35.710741"><ele>1417.8</ele><time>2015-11-22T14:51:30.0000000+00:00</time></trkpt><trkpt lat="30.7119278" lon="35.7106931"><ele>1416.5</ele><time>2015-11-22T14:51:37.0000000+00:00</time></trkpt><trkpt lat="30.7119148" lon="35.7106392"><ele>1416.4</ele><time>2015-11-22T14:51:44.0000000+00:00</time></trkpt><trkpt lat="30.7119153" lon="35.7105846"><ele>1418.3</ele><time>2015-11-22T14:51:50.0000000+00:00</time></trkpt><trkpt lat="30.7119132" lon="35.7105269"><ele>1418.9</ele><time>2015-11-22T14:51:56.0000000+00:00</time></trkpt><trkpt lat="30.711912" lon="35.7104683"><ele>1419.0</ele><time>2015-11-22T14:52:01.0000000+00:00</time></trkpt><trkpt lat="30.7119125" lon="35.7104105"><ele>1420.4</ele><time>2015-11-22T14:52:06.0000000+00:00</time></trkpt><trkpt lat="30.7119133" lon="35.7103571"><ele>1420.6</ele><time>2015-11-22T14:52:11.0000000+00:00</time></trkpt><trkpt lat="30.7119213" lon="35.7103047"><ele>1421.4</ele><time>2015-11-22T14:52:17.0000000+00:00</time></trkpt><trkpt lat="30.7119325" lon="35.7102476"><ele>1423.3</ele><time>2015-11-22T14:52:24.0000000+00:00</time></trkpt><trkpt lat="30.7119335" lon="35.7101939"><ele>1423.4</ele><time>2015-11-22T14:52:30.0000000+00:00</time></trkpt><trkpt lat="30.7119372" lon="35.7101373"><ele>1419.0</ele><time>2015-11-22T14:53:00.0000000+00:00</time></trkpt><trkpt lat="30.7119401" lon="35.7100811"><ele>1420.1</ele><time>2015-11-22T14:53:04.0000000+00:00</time></trkpt><trkpt lat="30.7119511" lon="35.710021"><ele>1420.3</ele><time>2015-11-22T14:53:09.0000000+00:00</time></trkpt><trkpt lat="30.7119525" lon="35.7099667"><ele>1419.9</ele><time>2015-11-22T14:53:14.0000000+00:00</time></trkpt><trkpt lat="30.7119612" lon="35.7099139"><ele>1423.3</ele><time>2015-11-22T14:53:19.0000000+00:00</time></trkpt><trkpt lat="30.7119647" lon="35.7098608"><ele>1424.9</ele><time>2015-11-22T14:53:24.0000000+00:00</time></trkpt><trkpt lat="30.7119681" lon="35.7098014"><ele>1424.6</ele><time>2015-11-22T14:53:30.0000000+00:00</time></trkpt><trkpt lat="30.7119737" lon="35.7097482"><ele>1424.9</ele><time>2015-11-22T14:53:35.0000000+00:00</time></trkpt><trkpt lat="30.7119832" lon="35.7096888"><ele>1426.8</ele><time>2015-11-22T14:53:40.0000000+00:00</time></trkpt><trkpt lat="30.7119969" lon="35.709635"><ele>1426.8</ele><time>2015-11-22T14:53:45.0000000+00:00</time></trkpt><trkpt lat="30.7120059" lon="35.7095836"><ele>1426.4</ele><time>2015-11-22T14:53:50.0000000+00:00</time></trkpt><trkpt lat="30.7120119" lon="35.7095267"><ele>1409.2</ele><time>2015-11-22T14:53:55.0000000+00:00</time></trkpt><trkpt lat="30.7120264" lon="35.7094683"><ele>1411.6</ele><time>2015-11-22T14:54:00.0000000+00:00</time></trkpt><trkpt lat="30.7120358" lon="35.7094092"><ele>1413.2</ele><time>2015-11-22T14:54:05.0000000+00:00</time></trkpt><trkpt lat="30.7120522" lon="35.7093605"><ele>1414.7</ele><time>2015-11-22T14:54:10.0000000+00:00</time></trkpt><trkpt lat="30.7120795" lon="35.7093123"><ele>1412.3</ele><time>2015-11-22T14:54:17.0000000+00:00</time></trkpt><trkpt lat="30.7120913" lon="35.7092581"><ele>1413.0</ele><time>2015-11-22T14:54:23.0000000+00:00</time></trkpt><trkpt lat="30.7120912" lon="35.7091998"><ele>1413.8</ele><time>2015-11-22T14:54:29.0000000+00:00</time></trkpt><trkpt lat="30.7120894" lon="35.7091466"><ele>1413.4</ele><time>2015-11-22T14:54:35.0000000+00:00</time></trkpt><trkpt lat="30.7120837" lon="35.7090866"><ele>1417.0</ele><time>2015-11-22T14:54:41.0000000+00:00</time></trkpt><trkpt lat="30.7120978" lon="35.7090265"><ele>1412.2</ele><time>2015-11-22T14:54:47.0000000+00:00</time></trkpt><trkpt lat="30.7120993" lon="35.708969"><ele>1411.2</ele><time>2015-11-22T14:54:53.0000000+00:00</time></trkpt><trkpt lat="30.7120946" lon="35.7089139"><ele>1412.9</ele><time>2015-11-22T14:54:58.0000000+00:00</time></trkpt><trkpt lat="30.7120704" lon="35.7088674"><ele>1417.6</ele><time>2015-11-22T14:55:03.0000000+00:00</time></trkpt><trkpt lat="30.7120529" lon="35.7088162"><ele>1419.5</ele><time>2015-11-22T14:55:08.0000000+00:00</time></trkpt><trkpt lat="30.7120292" lon="35.7087695"><ele>1415.9</ele><time>2015-11-22T14:55:13.0000000+00:00</time></trkpt><trkpt lat="30.7119933" lon="35.7087355"><ele>1416.4</ele><time>2015-11-22T14:55:18.0000000+00:00</time></trkpt><trkpt lat="30.7119595" lon="35.7086916"><ele>1411.7</ele><time>2015-11-22T14:55:23.0000000+00:00</time></trkpt><trkpt lat="30.7119306" lon="35.7086476"><ele>1410.2</ele><time>2015-11-22T14:55:28.0000000+00:00</time></trkpt><trkpt lat="30.7118939" lon="35.7086007"><ele>1412.0</ele><time>2015-11-22T14:55:34.0000000+00:00</time></trkpt><trkpt lat="30.711853" lon="35.708577"><ele>1428.5</ele><time>2015-11-22T14:55:39.0000000+00:00</time></trkpt><trkpt lat="30.7118161" lon="35.7085448"><ele>1434.7</ele><time>2015-11-22T14:55:44.0000000+00:00</time></trkpt><trkpt lat="30.7117644" lon="35.7085311"><ele>1436.1</ele><time>2015-11-22T14:55:50.0000000+00:00</time></trkpt><trkpt lat="30.7117145" lon="35.7085256"><ele>1434.6</ele><time>2015-11-22T14:55:56.0000000+00:00</time></trkpt><trkpt lat="30.7116677" lon="35.7084969"><ele>1435.8</ele><time>2015-11-22T14:56:02.0000000+00:00</time></trkpt><trkpt lat="30.7116237" lon="35.7084738"><ele>1437.1</ele><time>2015-11-22T14:56:07.0000000+00:00</time></trkpt><trkpt lat="30.7115749" lon="35.7084515"><ele>1438.4</ele><time>2015-11-22T14:56:12.0000000+00:00</time></trkpt><trkpt lat="30.7115241" lon="35.7084316"><ele>1440.7</ele><time>2015-11-22T14:56:17.0000000+00:00</time></trkpt><trkpt lat="30.7114761" lon="35.7084061"><ele>1442.5</ele><time>2015-11-22T14:56:22.0000000+00:00</time></trkpt><trkpt lat="30.7114326" lon="35.7083829"><ele>1442.1</ele><time>2015-11-22T14:56:27.0000000+00:00</time></trkpt><trkpt lat="30.7113901" lon="35.708356"><ele>1444.1</ele><time>2015-11-22T14:56:32.0000000+00:00</time></trkpt><trkpt lat="30.7113446" lon="35.7083448"><ele>1445.3</ele><time>2015-11-22T14:56:38.0000000+00:00</time></trkpt><trkpt lat="30.7113005" lon="35.7083166"><ele>1444.5</ele><time>2015-11-22T14:56:45.0000000+00:00</time></trkpt><trkpt lat="30.7112547" lon="35.7082843"><ele>1445.3</ele><time>2015-11-22T14:56:50.0000000+00:00</time></trkpt><trkpt lat="30.7112077" lon="35.7082803"><ele>1433.2</ele><time>2015-11-22T15:02:30.0000000+00:00</time></trkpt><trkpt lat="30.7111626" lon="35.7082809"><ele>1433.1</ele><time>2015-11-22T15:03:05.0000000+00:00</time></trkpt><trkpt lat="30.7111224" lon="35.708245"><ele>1430.0</ele><time>2015-11-22T15:03:12.0000000+00:00</time></trkpt><trkpt lat="30.7110652" lon="35.7082164"><ele>1429.9</ele><time>2015-11-22T15:03:16.0000000+00:00</time></trkpt><trkpt lat="30.7110153" lon="35.7081913"><ele>1430.8</ele><time>2015-11-22T15:03:19.0000000+00:00</time></trkpt><trkpt lat="30.7109612" lon="35.7081646"><ele>1433.5</ele><time>2015-11-22T15:03:22.0000000+00:00</time></trkpt><trkpt lat="30.7109104" lon="35.7081254"><ele>1433.9</ele><time>2015-11-22T15:03:25.0000000+00:00</time></trkpt><trkpt lat="30.7108539" lon="35.7081002"><ele>1433.3</ele><time>2015-11-22T15:03:28.0000000+00:00</time></trkpt><trkpt lat="30.7107959" lon="35.7080739"><ele>1434.3</ele><time>2015-11-22T15:03:31.0000000+00:00</time></trkpt><trkpt lat="30.7107392" lon="35.708047"><ele>1435.0</ele><time>2015-11-22T15:03:34.0000000+00:00</time></trkpt><trkpt lat="30.7106896" lon="35.7080218"><ele>1434.6</ele><time>2015-11-22T15:03:37.0000000+00:00</time></trkpt><trkpt lat="30.7106391" lon="35.7080001"><ele>1436.5</ele><time>2015-11-22T15:03:40.0000000+00:00</time></trkpt><trkpt lat="30.7105943" lon="35.7079685"><ele>1435.3</ele><time>2015-11-22T15:03:43.0000000+00:00</time></trkpt><trkpt lat="30.7105532" lon="35.7079378"><ele>1432.9</ele><time>2015-11-22T15:03:46.0000000+00:00</time></trkpt><trkpt lat="30.7105053" lon="35.707901"><ele>1435.7</ele><time>2015-11-22T15:03:50.0000000+00:00</time></trkpt><trkpt lat="30.7104522" lon="35.7078724"><ele>1437.9</ele><time>2015-11-22T15:03:54.0000000+00:00</time></trkpt><trkpt lat="30.7104123" lon="35.7078468"><ele>1438.9</ele><time>2015-11-22T15:03:57.0000000+00:00</time></trkpt><trkpt lat="30.7103719" lon="35.7078232"><ele>1437.7</ele><time>2015-11-22T15:04:00.0000000+00:00</time></trkpt><trkpt lat="30.7103182" lon="35.7077906"><ele>1439.9</ele><time>2015-11-22T15:04:04.0000000+00:00</time></trkpt><trkpt lat="30.7102766" lon="35.7077566"><ele>1435.4</ele><time>2015-11-22T15:04:07.0000000+00:00</time></trkpt><trkpt lat="30.7102337" lon="35.7077266"><ele>1436.6</ele><time>2015-11-22T15:04:10.0000000+00:00</time></trkpt><trkpt lat="30.710196" lon="35.7076971"><ele>1434.4</ele><time>2015-11-22T15:04:13.0000000+00:00</time></trkpt><trkpt lat="30.7101588" lon="35.7076664"><ele>1435.1</ele><time>2015-11-22T15:04:16.0000000+00:00</time></trkpt><trkpt lat="30.7101255" lon="35.7076288"><ele>1438.4</ele><time>2015-11-22T15:04:19.0000000+00:00</time></trkpt><trkpt lat="30.710097" lon="35.707581"><ele>1440.4</ele><time>2015-11-22T15:04:22.0000000+00:00</time></trkpt><trkpt lat="30.7100658" lon="35.7075316"><ele>1439.7</ele><time>2015-11-22T15:04:25.0000000+00:00</time></trkpt><trkpt lat="30.7100402" lon="35.7074836"><ele>1439.1</ele><time>2015-11-22T15:04:28.0000000+00:00</time></trkpt><trkpt lat="30.7100251" lon="35.7074291"><ele>1441.9</ele><time>2015-11-22T15:04:31.0000000+00:00</time></trkpt><trkpt lat="30.7100098" lon="35.7073706"><ele>1440.5</ele><time>2015-11-22T15:04:34.0000000+00:00</time></trkpt><trkpt lat="30.7099956" lon="35.707313"><ele>1439.7</ele><time>2015-11-22T15:04:37.0000000+00:00</time></trkpt><trkpt lat="30.7099839" lon="35.7072541"><ele>1441.3</ele><time>2015-11-22T15:04:40.0000000+00:00</time></trkpt><trkpt lat="30.7099727" lon="35.707194"><ele>1444.5</ele><time>2015-11-22T15:04:43.0000000+00:00</time></trkpt><trkpt lat="30.7099671" lon="35.7071302"><ele>1446.6</ele><time>2015-11-22T15:04:46.0000000+00:00</time></trkpt><trkpt lat="30.7099602" lon="35.7070659"><ele>1447.1</ele><time>2015-11-22T15:04:49.0000000+00:00</time></trkpt><trkpt lat="30.7099493" lon="35.7070022"><ele>1446.9</ele><time>2015-11-22T15:04:52.0000000+00:00</time></trkpt><trkpt lat="30.7099447" lon="35.7069344"><ele>1448.0</ele><time>2015-11-22T15:04:55.0000000+00:00</time></trkpt><trkpt lat="30.7099444" lon="35.7068666"><ele>1447.7</ele><time>2015-11-22T15:04:58.0000000+00:00</time></trkpt><trkpt lat="30.7099455" lon="35.7068004"><ele>1445.5</ele><time>2015-11-22T15:05:01.0000000+00:00</time></trkpt><trkpt lat="30.7099529" lon="35.7067317"><ele>1444.2</ele><time>2015-11-22T15:05:04.0000000+00:00</time></trkpt><trkpt lat="30.7099572" lon="35.7066631"><ele>1446.6</ele><time>2015-11-22T15:05:07.0000000+00:00</time></trkpt><trkpt lat="30.7099596" lon="35.7065954"><ele>1448.5</ele><time>2015-11-22T15:05:10.0000000+00:00</time></trkpt><trkpt lat="30.709957" lon="35.7065316"><ele>1449.1</ele><time>2015-11-22T15:05:13.0000000+00:00</time></trkpt><trkpt lat="30.7099575" lon="35.7064653"><ele>1449.7</ele><time>2015-11-22T15:05:16.0000000+00:00</time></trkpt><trkpt lat="30.7099567" lon="35.7064007"><ele>1449.8</ele><time>2015-11-22T15:05:19.0000000+00:00</time></trkpt><trkpt lat="30.7099588" lon="35.7063375"><ele>1449.8</ele><time>2015-11-22T15:05:22.0000000+00:00</time></trkpt><trkpt lat="30.7099567" lon="35.7062758"><ele>1449.1</ele><time>2015-11-22T15:05:25.0000000+00:00</time></trkpt><trkpt lat="30.7099495" lon="35.7062162"><ele>1449.9</ele><time>2015-11-22T15:05:28.0000000+00:00</time></trkpt><trkpt lat="30.709946" lon="35.7061547"><ele>1443.2</ele><time>2015-11-22T15:05:31.0000000+00:00</time></trkpt><trkpt lat="30.7099449" lon="35.7060936"><ele>1439.6</ele><time>2015-11-22T15:05:34.0000000+00:00</time></trkpt><trkpt lat="30.7099508" lon="35.70603"><ele>1443.4</ele><time>2015-11-22T15:05:37.0000000+00:00</time></trkpt><trkpt lat="30.7099559" lon="35.7059626"><ele>1447.2</ele><time>2015-11-22T15:05:40.0000000+00:00</time></trkpt><trkpt lat="30.709959" lon="35.7058889"><ele>1449.7</ele><time>2015-11-22T15:05:43.0000000+00:00</time></trkpt><trkpt lat="30.7099556" lon="35.7058147"><ele>1449.1</ele><time>2015-11-22T15:05:46.0000000+00:00</time></trkpt><trkpt lat="30.7099607" lon="35.7057411"><ele>1450.1</ele><time>2015-11-22T15:05:49.0000000+00:00</time></trkpt><trkpt lat="30.7099689" lon="35.7056667"><ele>1450.9</ele><time>2015-11-22T15:05:52.0000000+00:00</time></trkpt><trkpt lat="30.7099818" lon="35.7056046"><ele>1449.3</ele><time>2015-11-22T15:05:55.0000000+00:00</time></trkpt><trkpt lat="30.7099998" lon="35.7055509"><ele>1447.3</ele><time>2015-11-22T15:05:58.0000000+00:00</time></trkpt><trkpt lat="30.7100152" lon="35.7054904"><ele>1444.7</ele><time>2015-11-22T15:06:02.0000000+00:00</time></trkpt><trkpt lat="30.709991" lon="35.7054456"><ele>1465.7</ele><time>2015-11-22T15:07:33.0000000+00:00</time></trkpt><trkpt lat="30.7099736" lon="35.7053974"><ele>1466.8</ele><time>2015-11-22T15:07:56.0000000+00:00</time></trkpt><trkpt lat="30.7099715" lon="35.7053362"><ele>1467.9</ele><time>2015-11-22T15:07:58.0000000+00:00</time></trkpt><trkpt lat="30.7099709" lon="35.7052588"><ele>1468.1</ele><time>2015-11-22T15:08:00.0000000+00:00</time></trkpt><trkpt lat="30.7099713" lon="35.7051794"><ele>1468.2</ele><time>2015-11-22T15:08:02.0000000+00:00</time></trkpt><trkpt lat="30.7099732" lon="35.7051006"><ele>1467.7</ele><time>2015-11-22T15:08:04.0000000+00:00</time></trkpt><trkpt lat="30.7099797" lon="35.7050225"><ele>1468.1</ele><time>2015-11-22T15:08:06.0000000+00:00</time></trkpt><trkpt lat="30.7099827" lon="35.704944"><ele>1468.9</ele><time>2015-11-22T15:08:08.0000000+00:00</time></trkpt><trkpt lat="30.7099845" lon="35.7048599"><ele>1468.4</ele><time>2015-11-22T15:08:10.0000000+00:00</time></trkpt><trkpt lat="30.7099877" lon="35.7047631"><ele>1467.5</ele><time>2015-11-22T15:08:12.0000000+00:00</time></trkpt><trkpt lat="30.7099866" lon="35.7046585"><ele>1467.3</ele><time>2015-11-22T15:08:14.0000000+00:00</time></trkpt><trkpt lat="30.7099823" lon="35.7045817"><ele>1467.2</ele><time>2015-11-22T15:08:15.0000000+00:00</time></trkpt><trkpt lat="30.7099816" lon="35.7045246"><ele>1467.2</ele><time>2015-11-22T15:08:16.0000000+00:00</time></trkpt><trkpt lat="30.7099789" lon="35.7044577"><ele>1467.2</ele><time>2015-11-22T15:08:17.0000000+00:00</time></trkpt><trkpt lat="30.7099759" lon="35.7043984"><ele>1467.2</ele><time>2015-11-22T15:08:18.0000000+00:00</time></trkpt><trkpt lat="30.709977" lon="35.7043284"><ele>1467.2</ele><time>2015-11-22T15:08:19.0000000+00:00</time></trkpt><trkpt lat="30.7099763" lon="35.7042565"><ele>1466.7</ele><time>2015-11-22T15:08:20.0000000+00:00</time></trkpt><trkpt lat="30.7099783" lon="35.7041894"><ele>1466.5</ele><time>2015-11-22T15:08:21.0000000+00:00</time></trkpt><trkpt lat="30.7099721" lon="35.7041144"><ele>1466.3</ele><time>2015-11-22T15:08:22.0000000+00:00</time></trkpt><trkpt lat="30.7099779" lon="35.704027"><ele>1465.8</ele><time>2015-11-22T15:08:23.0000000+00:00</time></trkpt><trkpt lat="30.7099778" lon="35.7039533"><ele>1465.5</ele><time>2015-11-22T15:08:24.0000000+00:00</time></trkpt><trkpt lat="30.7099718" lon="35.7038708"><ele>1465.3</ele><time>2015-11-22T15:08:25.0000000+00:00</time></trkpt><trkpt lat="30.7099738" lon="35.7037917"><ele>1465.8</ele><time>2015-11-22T15:08:26.0000000+00:00</time></trkpt><trkpt lat="30.7099709" lon="35.7037115"><ele>1466.0</ele><time>2015-11-22T15:08:27.0000000+00:00</time></trkpt><trkpt lat="30.7099716" lon="35.7036344"><ele>1467.1</ele><time>2015-11-22T15:08:28.0000000+00:00</time></trkpt><trkpt lat="30.7099685" lon="35.7035511"><ele>1467.6</ele><time>2015-11-22T15:08:29.0000000+00:00</time></trkpt><trkpt lat="30.7099673" lon="35.7034722"><ele>1467.4</ele><time>2015-11-22T15:08:30.0000000+00:00</time></trkpt><trkpt lat="30.7099637" lon="35.7033989"><ele>1467.3</ele><time>2015-11-22T15:08:31.0000000+00:00</time></trkpt><trkpt lat="30.709963" lon="35.7033222"><ele>1467.3</ele><time>2015-11-22T15:08:32.0000000+00:00</time></trkpt><trkpt lat="30.7099614" lon="35.7032431"><ele>1467.2</ele><time>2015-11-22T15:08:33.0000000+00:00</time></trkpt><trkpt lat="30.7099688" lon="35.7031774"><ele>1467.2</ele><time>2015-11-22T15:08:34.0000000+00:00</time></trkpt><trkpt lat="30.709965" lon="35.7031028"><ele>1467.7</ele><time>2015-11-22T15:08:35.0000000+00:00</time></trkpt><trkpt lat="30.7099702" lon="35.7030215"><ele>1468.5</ele><time>2015-11-22T15:08:36.0000000+00:00</time></trkpt><trkpt lat="30.7099647" lon="35.7029483"><ele>1468.3</ele><time>2015-11-22T15:08:37.0000000+00:00</time></trkpt><trkpt lat="30.7099619" lon="35.7028672"><ele>1468.3</ele><time>2015-11-22T15:08:38.0000000+00:00</time></trkpt><trkpt lat="30.7099602" lon="35.7027948"><ele>1468.7</ele><time>2015-11-22T15:08:39.0000000+00:00</time></trkpt><trkpt lat="30.7099624" lon="35.7027165"><ele>1468.5</ele><time>2015-11-22T15:08:40.0000000+00:00</time></trkpt><trkpt lat="30.7099632" lon="35.7026428"><ele>1468.3</ele><time>2015-11-22T15:08:41.0000000+00:00</time></trkpt><trkpt lat="30.7099604" lon="35.702569"><ele>1468.3</ele><time>2015-11-22T15:08:42.0000000+00:00</time></trkpt><trkpt lat="30.7099635" lon="35.7024915"><ele>1467.7</ele><time>2015-11-22T15:08:43.0000000+00:00</time></trkpt><trkpt lat="30.7099578" lon="35.7024154"><ele>1468.0</ele><time>2015-11-22T15:08:44.0000000+00:00</time></trkpt><trkpt lat="30.709954" lon="35.7023375"><ele>1467.6</ele><time>2015-11-22T15:08:45.0000000+00:00</time></trkpt><trkpt lat="30.7099584" lon="35.7022595"><ele>1467.4</ele><time>2015-11-22T15:08:46.0000000+00:00</time></trkpt><trkpt lat="30.709961" lon="35.7021874"><ele>1466.8</ele><time>2015-11-22T15:08:47.0000000+00:00</time></trkpt><trkpt lat="30.7099556" lon="35.7021244"><ele>1466.5</ele><time>2015-11-22T15:08:48.0000000+00:00</time></trkpt><trkpt lat="30.7099574" lon="35.7020458"><ele>1466.3</ele><time>2015-11-22T15:08:49.0000000+00:00</time></trkpt><trkpt lat="30.7099552" lon="35.7019744"><ele>1465.8</ele><time>2015-11-22T15:08:50.0000000+00:00</time></trkpt><trkpt lat="30.7099515" lon="35.7019044"><ele>1465.5</ele><time>2015-11-22T15:08:51.0000000+00:00</time></trkpt><trkpt lat="30.7099496" lon="35.7018309"><ele>1465.3</ele><time>2015-11-22T15:08:52.0000000+00:00</time></trkpt><trkpt lat="30.7099524" lon="35.7017542"><ele>1465.3</ele><time>2015-11-22T15:08:53.0000000+00:00</time></trkpt><trkpt lat="30.7099459" lon="35.7016752"><ele>1465.7</ele><time>2015-11-22T15:08:54.0000000+00:00</time></trkpt><trkpt lat="30.7099408" lon="35.7016003"><ele>1466.0</ele><time>2015-11-22T15:08:55.0000000+00:00</time></trkpt><trkpt lat="30.7099453" lon="35.7015064"><ele>1466.1</ele><time>2015-11-22T15:08:56.0000000+00:00</time></trkpt><trkpt lat="30.709939" lon="35.7014303"><ele>1466.1</ele><time>2015-11-22T15:08:57.0000000+00:00</time></trkpt><trkpt lat="30.7099399" lon="35.7013628"><ele>1465.7</ele><time>2015-11-22T15:08:58.0000000+00:00</time></trkpt><trkpt lat="30.7099352" lon="35.7012854"><ele>1465.4</ele><time>2015-11-22T15:08:59.0000000+00:00</time></trkpt><trkpt lat="30.7099377" lon="35.701191"><ele>1465.3</ele><time>2015-11-22T15:09:00.0000000+00:00</time></trkpt><trkpt lat="30.709934" lon="35.7011048"><ele>1465.3</ele><time>2015-11-22T15:09:01.0000000+00:00</time></trkpt><trkpt lat="30.7099326" lon="35.7010067"><ele>1465.2</ele><time>2015-11-22T15:09:02.0000000+00:00</time></trkpt><trkpt lat="30.7099297" lon="35.7009183"><ele>1465.2</ele><time>2015-11-22T15:09:03.0000000+00:00</time></trkpt><trkpt lat="30.7099275" lon="35.7008281"><ele>1465.2</ele><time>2015-11-22T15:09:04.0000000+00:00</time></trkpt><trkpt lat="30.7099234" lon="35.7007523"><ele>1464.7</ele><time>2015-11-22T15:09:05.0000000+00:00</time></trkpt><trkpt lat="30.7099268" lon="35.7006633"><ele>1465.0</ele><time>2015-11-22T15:09:06.0000000+00:00</time></trkpt><trkpt lat="30.7099249" lon="35.7005778"><ele>1465.1</ele><time>2015-11-22T15:09:07.0000000+00:00</time></trkpt><trkpt lat="30.709925" lon="35.7004891"><ele>1464.6</ele><time>2015-11-22T15:09:08.0000000+00:00</time></trkpt><trkpt lat="30.7099253" lon="35.7004107"><ele>1464.9</ele><time>2015-11-22T15:09:09.0000000+00:00</time></trkpt><trkpt lat="30.7099248" lon="35.7003264"><ele>1465.1</ele><time>2015-11-22T15:09:10.0000000+00:00</time></trkpt><trkpt lat="30.7099179" lon="35.7002529"><ele>1464.6</ele><time>2015-11-22T15:09:11.0000000+00:00</time></trkpt><trkpt lat="30.709914" lon="35.7001745"><ele>1464.4</ele><time>2015-11-22T15:09:12.0000000+00:00</time></trkpt><trkpt lat="30.709907" lon="35.7001148"><ele>1464.3</ele><time>2015-11-22T15:09:13.0000000+00:00</time></trkpt><trkpt lat="30.7099073" lon="35.7000525"><ele>1464.3</ele><time>2015-11-22T15:09:14.0000000+00:00</time></trkpt><trkpt lat="30.7099036" lon="35.6999916"><ele>1463.7</ele><time>2015-11-22T15:09:15.0000000+00:00</time></trkpt><trkpt lat="30.7099051" lon="35.6999256"><ele>1463.5</ele><time>2015-11-22T15:09:16.0000000+00:00</time></trkpt><trkpt lat="30.7098979" lon="35.6998603"><ele>1463.3</ele><time>2015-11-22T15:09:17.0000000+00:00</time></trkpt><trkpt lat="30.7098934" lon="35.6997948"><ele>1463.8</ele><time>2015-11-22T15:09:18.0000000+00:00</time></trkpt><trkpt lat="30.7098916" lon="35.6997396"><ele>1464.5</ele><time>2015-11-22T15:09:19.0000000+00:00</time></trkpt><trkpt lat="30.709887" lon="35.6996362"><ele>1465.5</ele><time>2015-11-22T15:09:21.0000000+00:00</time></trkpt><trkpt lat="30.7098842" lon="35.6995382"><ele>1466.3</ele><time>2015-11-22T15:09:23.0000000+00:00</time></trkpt><trkpt lat="30.7098731" lon="35.6994876"><ele>1466.2</ele><time>2015-11-22T15:09:24.0000000+00:00</time></trkpt><trkpt lat="30.709852" lon="35.6993942"><ele>1466.2</ele><time>2015-11-22T15:09:26.0000000+00:00</time></trkpt><trkpt lat="30.709838" lon="35.6993072"><ele>1466.0</ele><time>2015-11-22T15:09:28.0000000+00:00</time></trkpt><trkpt lat="30.7098182" lon="35.6992332"><ele>1466.9</ele><time>2015-11-22T15:09:30.0000000+00:00</time></trkpt><trkpt lat="30.7098086" lon="35.6991627"><ele>1466.6</ele><time>2015-11-22T15:09:32.0000000+00:00</time></trkpt><trkpt lat="30.7098031" lon="35.6990906"><ele>1465.1</ele><time>2015-11-22T15:09:34.0000000+00:00</time></trkpt><trkpt lat="30.7097943" lon="35.6990147"><ele>1465.2</ele><time>2015-11-22T15:09:36.0000000+00:00</time></trkpt><trkpt lat="30.7097833" lon="35.6989388"><ele>1466.2</ele><time>2015-11-22T15:09:38.0000000+00:00</time></trkpt><trkpt lat="30.7097716" lon="35.6988664"><ele>1468.7</ele><time>2015-11-22T15:09:40.0000000+00:00</time></trkpt><trkpt lat="30.7097569" lon="35.6987942"><ele>1469.8</ele><time>2015-11-22T15:09:42.0000000+00:00</time></trkpt><trkpt lat="30.7097383" lon="35.6987348"><ele>1470.1</ele><time>2015-11-22T15:09:44.0000000+00:00</time></trkpt><trkpt lat="30.7097228" lon="35.6986818"><ele>1471.2</ele><time>2015-11-22T15:09:46.0000000+00:00</time></trkpt><trkpt lat="30.7097085" lon="35.698629"><ele>1471.7</ele><time>2015-11-22T15:09:48.0000000+00:00</time></trkpt><trkpt lat="30.7096988" lon="35.6985722"><ele>1471.3</ele><time>2015-11-22T15:09:50.0000000+00:00</time></trkpt><trkpt lat="30.7096923" lon="35.6985101"><ele>1471.7</ele><time>2015-11-22T15:09:52.0000000+00:00</time></trkpt><trkpt lat="30.7096833" lon="35.6984454"><ele>1472.1</ele><time>2015-11-22T15:09:54.0000000+00:00</time></trkpt><trkpt lat="30.709672" lon="35.6983745"><ele>1472.2</ele><time>2015-11-22T15:09:56.0000000+00:00</time></trkpt><trkpt lat="30.709662" lon="35.6982944"><ele>1472.2</ele><time>2015-11-22T15:09:58.0000000+00:00</time></trkpt><trkpt lat="30.7096478" lon="35.6982079"><ele>1472.2</ele><time>2015-11-22T15:10:00.0000000+00:00</time></trkpt><trkpt lat="30.7096307" lon="35.6981178"><ele>1472.2</ele><time>2015-11-22T15:10:02.0000000+00:00</time></trkpt><trkpt lat="30.7096156" lon="35.6980273"><ele>1471.7</ele><time>2015-11-22T15:10:04.0000000+00:00</time></trkpt><trkpt lat="30.7095986" lon="35.6979357"><ele>1471.3</ele><time>2015-11-22T15:10:06.0000000+00:00</time></trkpt><trkpt lat="30.7095776" lon="35.6978341"><ele>1471.2</ele><time>2015-11-22T15:10:08.0000000+00:00</time></trkpt><trkpt lat="30.709566" lon="35.697781"><ele>1471.2</ele><time>2015-11-22T15:10:09.0000000+00:00</time></trkpt><trkpt lat="30.7095551" lon="35.6977285"><ele>1471.2</ele><time>2015-11-22T15:10:10.0000000+00:00</time></trkpt><trkpt lat="30.7095435" lon="35.6976532"><ele>1471.7</ele><time>2015-11-22T15:10:11.0000000+00:00</time></trkpt><trkpt lat="30.7095262" lon="35.6975893"><ele>1472.0</ele><time>2015-11-22T15:10:12.0000000+00:00</time></trkpt><trkpt lat="30.7095116" lon="35.6975298"><ele>1472.1</ele><time>2015-11-22T15:10:13.0000000+00:00</time></trkpt><trkpt lat="30.7094747" lon="35.6974185"><ele>1472.2</ele><time>2015-11-22T15:10:15.0000000+00:00</time></trkpt><trkpt lat="30.70946" lon="35.6973571"><ele>1472.2</ele><time>2015-11-22T15:10:16.0000000+00:00</time></trkpt><trkpt lat="30.7094395" lon="35.6972916"><ele>1471.7</ele><time>2015-11-22T15:10:17.0000000+00:00</time></trkpt><trkpt lat="30.7094256" lon="35.6972301"><ele>1471.9</ele><time>2015-11-22T15:10:18.0000000+00:00</time></trkpt><trkpt lat="30.7094122" lon="35.6971665"><ele>1472.1</ele><time>2015-11-22T15:10:19.0000000+00:00</time></trkpt><trkpt lat="30.7093929" lon="35.6970977"><ele>1472.1</ele><time>2015-11-22T15:10:20.0000000+00:00</time></trkpt><trkpt lat="30.7093713" lon="35.6970311"><ele>1472.2</ele><time>2015-11-22T15:10:21.0000000+00:00</time></trkpt><trkpt lat="30.7093515" lon="35.6969578"><ele>1471.7</ele><time>2015-11-22T15:10:22.0000000+00:00</time></trkpt><trkpt lat="30.7093346" lon="35.696881"><ele>1471.4</ele><time>2015-11-22T15:10:23.0000000+00:00</time></trkpt><trkpt lat="30.7093183" lon="35.6968008"><ele>1471.3</ele><time>2015-11-22T15:10:24.0000000+00:00</time></trkpt><trkpt lat="30.7093025" lon="35.6967155"><ele>1470.8</ele><time>2015-11-22T15:10:25.0000000+00:00</time></trkpt><trkpt lat="30.7092829" lon="35.6966346"><ele>1470.5</ele><time>2015-11-22T15:10:26.0000000+00:00</time></trkpt><trkpt lat="30.7092563" lon="35.6965502"><ele>1469.8</ele><time>2015-11-22T15:10:27.0000000+00:00</time></trkpt><trkpt lat="30.7092346" lon="35.6964629"><ele>1469.5</ele><time>2015-11-22T15:10:28.0000000+00:00</time></trkpt><trkpt lat="30.7092054" lon="35.6963741"><ele>1469.4</ele><time>2015-11-22T15:10:29.0000000+00:00</time></trkpt><trkpt lat="30.7091828" lon="35.6962852"><ele>1469.3</ele><time>2015-11-22T15:10:30.0000000+00:00</time></trkpt><trkpt lat="30.7091588" lon="35.6961935"><ele>1469.2</ele><time>2015-11-22T15:10:31.0000000+00:00</time></trkpt><trkpt lat="30.7091348" lon="35.6960974"><ele>1469.2</ele><time>2015-11-22T15:10:32.0000000+00:00</time></trkpt><trkpt lat="30.7091131" lon="35.696005"><ele>1469.2</ele><time>2015-11-22T15:10:33.0000000+00:00</time></trkpt><trkpt lat="30.7090893" lon="35.6959102"><ele>1468.7</ele><time>2015-11-22T15:10:34.0000000+00:00</time></trkpt><trkpt lat="30.7090667" lon="35.6958137"><ele>1468.5</ele><time>2015-11-22T15:10:35.0000000+00:00</time></trkpt><trkpt lat="30.7090445" lon="35.695713"><ele>1468.8</ele><time>2015-11-22T15:10:36.0000000+00:00</time></trkpt><trkpt lat="30.7090213" lon="35.6956121"><ele>1469.0</ele><time>2015-11-22T15:10:37.0000000+00:00</time></trkpt><trkpt lat="30.7089987" lon="35.695501"><ele>1468.6</ele><time>2015-11-22T15:10:38.0000000+00:00</time></trkpt><trkpt lat="30.7089767" lon="35.6953935"><ele>1468.4</ele><time>2015-11-22T15:10:39.0000000+00:00</time></trkpt><trkpt lat="30.7089614" lon="35.6952782"><ele>1467.8</ele><time>2015-11-22T15:10:40.0000000+00:00</time></trkpt><trkpt lat="30.7089447" lon="35.6951614"><ele>1467.5</ele><time>2015-11-22T15:10:41.0000000+00:00</time></trkpt><trkpt lat="30.7089315" lon="35.6950424"><ele>1466.9</ele><time>2015-11-22T15:10:42.0000000+00:00</time></trkpt><trkpt lat="30.7089281" lon="35.6949265"><ele>1467.0</ele><time>2015-11-22T15:10:43.0000000+00:00</time></trkpt><trkpt lat="30.7089348" lon="35.694815"><ele>1467.1</ele><time>2015-11-22T15:10:44.0000000+00:00</time></trkpt><trkpt lat="30.7089411" lon="35.6947077"><ele>1467.2</ele><time>2015-11-22T15:10:45.0000000+00:00</time></trkpt><trkpt lat="30.7089446" lon="35.6946051"><ele>1467.7</ele><time>2015-11-22T15:10:46.0000000+00:00</time></trkpt><trkpt lat="30.7089558" lon="35.6945022"><ele>1467.9</ele><time>2015-11-22T15:10:47.0000000+00:00</time></trkpt><trkpt lat="30.7089582" lon="35.6944065"><ele>1468.1</ele><time>2015-11-22T15:10:48.0000000+00:00</time></trkpt><trkpt lat="30.7089698" lon="35.6943278"><ele>1468.6</ele><time>2015-11-22T15:10:49.0000000+00:00</time></trkpt><trkpt lat="30.7089802" lon="35.694252"><ele>1468.9</ele><time>2015-11-22T15:10:50.0000000+00:00</time></trkpt><trkpt lat="30.7089926" lon="35.6941802"><ele>1469.6</ele><time>2015-11-22T15:10:51.0000000+00:00</time></trkpt><trkpt lat="30.7089987" lon="35.6941162"><ele>1469.9</ele><time>2015-11-22T15:10:52.0000000+00:00</time></trkpt><trkpt lat="30.7090096" lon="35.694054"><ele>1470.5</ele><time>2015-11-22T15:10:53.0000000+00:00</time></trkpt><trkpt lat="30.7090268" lon="35.6939679"><ele>1471.5</ele><time>2015-11-22T15:10:55.0000000+00:00</time></trkpt><trkpt lat="30.7090402" lon="35.6938757"><ele>1472.8</ele><time>2015-11-22T15:10:57.0000000+00:00</time></trkpt><trkpt lat="30.7090665" lon="35.6937941"><ele>1473.8</ele><time>2015-11-22T15:10:59.0000000+00:00</time></trkpt><trkpt lat="30.7090794" lon="35.6937423"><ele>1474.0</ele><time>2015-11-22T15:11:00.0000000+00:00</time></trkpt><trkpt lat="30.709091" lon="35.6936474"><ele>1474.4</ele><time>2015-11-22T15:11:02.0000000+00:00</time></trkpt><trkpt lat="30.7091085" lon="35.693569"><ele>1475.3</ele><time>2015-11-22T15:11:04.0000000+00:00</time></trkpt><trkpt lat="30.7091227" lon="35.6934823"><ele>1475.2</ele><time>2015-11-22T15:11:06.0000000+00:00</time></trkpt><trkpt lat="30.7091315" lon="35.6933916"><ele>1475.5</ele><time>2015-11-22T15:11:08.0000000+00:00</time></trkpt><trkpt lat="30.7091376" lon="35.6932933"><ele>1475.3</ele><time>2015-11-22T15:11:10.0000000+00:00</time></trkpt><trkpt lat="30.7091436" lon="35.6931976"><ele>1475.2</ele><time>2015-11-22T15:11:12.0000000+00:00</time></trkpt><trkpt lat="30.70915" lon="35.6931046"><ele>1475.2</ele><time>2015-11-22T15:11:14.0000000+00:00</time></trkpt><trkpt lat="30.7091535" lon="35.6930131"><ele>1475.2</ele><time>2015-11-22T15:11:16.0000000+00:00</time></trkpt><trkpt lat="30.7091551" lon="35.6929218"><ele>1474.7</ele><time>2015-11-22T15:11:18.0000000+00:00</time></trkpt><trkpt lat="30.7091586" lon="35.6928272"><ele>1474.6</ele><time>2015-11-22T15:11:20.0000000+00:00</time></trkpt><trkpt lat="30.709155" lon="35.6927621"><ele>1474.4</ele><time>2015-11-22T15:11:21.0000000+00:00</time></trkpt><trkpt lat="30.7091513" lon="35.6926984"><ele>1473.8</ele><time>2015-11-22T15:11:22.0000000+00:00</time></trkpt><trkpt lat="30.7091519" lon="35.6926341"><ele>1473.5</ele><time>2015-11-22T15:11:23.0000000+00:00</time></trkpt><trkpt lat="30.7091468" lon="35.6925657"><ele>1473.3</ele><time>2015-11-22T15:11:24.0000000+00:00</time></trkpt><trkpt lat="30.7091474" lon="35.6924971"><ele>1473.3</ele><time>2015-11-22T15:11:25.0000000+00:00</time></trkpt><trkpt lat="30.7091431" lon="35.6924041"><ele>1472.7</ele><time>2015-11-22T15:11:26.0000000+00:00</time></trkpt><trkpt lat="30.709145" lon="35.6923212"><ele>1472.0</ele><time>2015-11-22T15:11:27.0000000+00:00</time></trkpt><trkpt lat="30.7091432" lon="35.6922282"><ele>1471.6</ele><time>2015-11-22T15:11:28.0000000+00:00</time></trkpt><trkpt lat="30.7091396" lon="35.6921326"><ele>1471.4</ele><time>2015-11-22T15:11:29.0000000+00:00</time></trkpt><trkpt lat="30.7091354" lon="35.6920318"><ele>1470.8</ele><time>2015-11-22T15:11:30.0000000+00:00</time></trkpt><trkpt lat="30.7091356" lon="35.6919242"><ele>1470.5</ele><time>2015-11-22T15:11:31.0000000+00:00</time></trkpt><trkpt lat="30.7091335" lon="35.6918161"><ele>1469.8</ele><time>2015-11-22T15:11:32.0000000+00:00</time></trkpt><trkpt lat="30.7091295" lon="35.691701"><ele>1469.5</ele><time>2015-11-22T15:11:33.0000000+00:00</time></trkpt><trkpt lat="30.7091283" lon="35.6915788"><ele>1468.9</ele><time>2015-11-22T15:11:34.0000000+00:00</time></trkpt><trkpt lat="30.7091229" lon="35.6914563"><ele>1469.0</ele><time>2015-11-22T15:11:35.0000000+00:00</time></trkpt><trkpt lat="30.7091169" lon="35.6913278"><ele>1469.1</ele><time>2015-11-22T15:11:36.0000000+00:00</time></trkpt><trkpt lat="30.7091159" lon="35.6912023"><ele>1469.2</ele><time>2015-11-22T15:11:37.0000000+00:00</time></trkpt><trkpt lat="30.7091114" lon="35.6910765"><ele>1469.2</ele><time>2015-11-22T15:11:38.0000000+00:00</time></trkpt><trkpt lat="30.709112" lon="35.6909469"><ele>1469.2</ele><time>2015-11-22T15:11:39.0000000+00:00</time></trkpt><trkpt lat="30.7091069" lon="35.6908328"><ele>1469.7</ele><time>2015-11-22T15:11:40.0000000+00:00</time></trkpt><trkpt lat="30.7091046" lon="35.6907216"><ele>1469.9</ele><time>2015-11-22T15:11:41.0000000+00:00</time></trkpt><trkpt lat="30.7090985" lon="35.6906157"><ele>1470.6</ele><time>2015-11-22T15:11:42.0000000+00:00</time></trkpt><trkpt lat="30.7091006" lon="35.6905167"><ele>1470.9</ele><time>2015-11-22T15:11:43.0000000+00:00</time></trkpt><trkpt lat="30.7091019" lon="35.6904205"><ele>1471.5</ele><time>2015-11-22T15:11:44.0000000+00:00</time></trkpt><trkpt lat="30.709104" lon="35.690329"><ele>1471.9</ele><time>2015-11-22T15:11:45.0000000+00:00</time></trkpt><trkpt lat="30.7091081" lon="35.6902424"><ele>1472.5</ele><time>2015-11-22T15:11:46.0000000+00:00</time></trkpt><trkpt lat="30.7091115" lon="35.6901606"><ele>1472.9</ele><time>2015-11-22T15:11:47.0000000+00:00</time></trkpt><trkpt lat="30.7091093" lon="35.6900868"><ele>1473.5</ele><time>2015-11-22T15:11:48.0000000+00:00</time></trkpt><trkpt lat="30.7091056" lon="35.6900216"><ele>1474.4</ele><time>2015-11-22T15:11:49.0000000+00:00</time></trkpt><trkpt lat="30.7091036" lon="35.6899534"><ele>1474.8</ele><time>2015-11-22T15:11:50.0000000+00:00</time></trkpt><trkpt lat="30.7091052" lon="35.6898934"><ele>1475.0</ele><time>2015-11-22T15:11:51.0000000+00:00</time></trkpt><trkpt lat="30.709106" lon="35.6898372"><ele>1475.1</ele><time>2015-11-22T15:11:52.0000000+00:00</time></trkpt><trkpt lat="30.7091095" lon="35.6897341"><ele>1475.9</ele><time>2015-11-22T15:11:54.0000000+00:00</time></trkpt><trkpt lat="30.7091174" lon="35.6896509"><ele>1476.9</ele><time>2015-11-22T15:11:56.0000000+00:00</time></trkpt><trkpt lat="30.7091256" lon="35.6895842"><ele>1477.9</ele><time>2015-11-22T15:11:58.0000000+00:00</time></trkpt><trkpt lat="30.709136" lon="35.6895206"><ele>1478.1</ele><time>2015-11-22T15:12:00.0000000+00:00</time></trkpt><trkpt lat="30.7091447" lon="35.6894652"><ele>1478.7</ele><time>2015-11-22T15:12:02.0000000+00:00</time></trkpt><trkpt lat="30.7091553" lon="35.6894084"><ele>1479.1</ele><time>2015-11-22T15:12:04.0000000+00:00</time></trkpt><trkpt lat="30.7091633" lon="35.6893341"><ele>1479.2</ele><time>2015-11-22T15:12:07.0000000+00:00</time></trkpt><trkpt lat="30.7091702" lon="35.6892583"><ele>1479.2</ele><time>2015-11-22T15:12:10.0000000+00:00</time></trkpt><trkpt lat="30.709177" lon="35.689185"><ele>1480.1</ele><time>2015-11-22T15:12:13.0000000+00:00</time></trkpt><trkpt lat="30.7091883" lon="35.6891115"><ele>1480.9</ele><time>2015-11-22T15:12:16.0000000+00:00</time></trkpt><trkpt lat="30.7091989" lon="35.6890425"><ele>1481.7</ele><time>2015-11-22T15:12:19.0000000+00:00</time></trkpt><trkpt lat="30.7092056" lon="35.6889839"><ele>1481.3</ele><time>2015-11-22T15:12:22.0000000+00:00</time></trkpt><trkpt lat="30.7092119" lon="35.688926"><ele>1481.5</ele><time>2015-11-22T15:12:25.0000000+00:00</time></trkpt><trkpt lat="30.7092155" lon="35.6888677"><ele>1481.7</ele><time>2015-11-22T15:12:28.0000000+00:00</time></trkpt><trkpt lat="30.7092181" lon="35.6888069"><ele>1482.9</ele><time>2015-11-22T15:12:31.0000000+00:00</time></trkpt><trkpt lat="30.7092237" lon="35.6887488"><ele>1483.9</ele><time>2015-11-22T15:12:34.0000000+00:00</time></trkpt><trkpt lat="30.709232" lon="35.6886918"><ele>1483.4</ele><time>2015-11-22T15:12:37.0000000+00:00</time></trkpt><trkpt lat="30.7092413" lon="35.6886354"><ele>1484.0</ele><time>2015-11-22T15:12:40.0000000+00:00</time></trkpt><trkpt lat="30.7092447" lon="35.6885755"><ele>1484.9</ele><time>2015-11-22T15:12:43.0000000+00:00</time></trkpt><trkpt lat="30.7092507" lon="35.6885163"><ele>1485.2</ele><time>2015-11-22T15:12:46.0000000+00:00</time></trkpt><trkpt lat="30.7092652" lon="35.6884584"><ele>1484.7</ele><time>2015-11-22T15:12:49.0000000+00:00</time></trkpt><trkpt lat="30.7092765" lon="35.6884022"><ele>1485.0</ele><time>2015-11-22T15:12:52.0000000+00:00</time></trkpt><trkpt lat="30.7092808" lon="35.6883448"><ele>1484.7</ele><time>2015-11-22T15:12:55.0000000+00:00</time></trkpt><trkpt lat="30.7092863" lon="35.6882865"><ele>1485.1</ele><time>2015-11-22T15:12:58.0000000+00:00</time></trkpt><trkpt lat="30.7092896" lon="35.6882259"><ele>1486.1</ele><time>2015-11-22T15:13:01.0000000+00:00</time></trkpt><trkpt lat="30.7092945" lon="35.6881666"><ele>1486.7</ele><time>2015-11-22T15:13:04.0000000+00:00</time></trkpt><trkpt lat="30.7093066" lon="35.6881066"><ele>1487.1</ele><time>2015-11-22T15:13:07.0000000+00:00</time></trkpt><trkpt lat="30.7093185" lon="35.6880472"><ele>1487.2</ele><time>2015-11-22T15:13:10.0000000+00:00</time></trkpt><trkpt lat="30.7093328" lon="35.6879884"><ele>1486.6</ele><time>2015-11-22T15:13:13.0000000+00:00</time></trkpt><trkpt lat="30.7093389" lon="35.6879289"><ele>1484.9</ele><time>2015-11-22T15:13:16.0000000+00:00</time></trkpt><trkpt lat="30.7093456" lon="35.687871"><ele>1484.3</ele><time>2015-11-22T15:13:19.0000000+00:00</time></trkpt><trkpt lat="30.7093526" lon="35.6878147"><ele>1484.3</ele><time>2015-11-22T15:13:22.0000000+00:00</time></trkpt><trkpt lat="30.7093669" lon="35.687763"><ele>1485.0</ele><time>2015-11-22T15:13:25.0000000+00:00</time></trkpt><trkpt lat="30.7093799" lon="35.6877089"><ele>1486.8</ele><time>2015-11-22T15:13:28.0000000+00:00</time></trkpt><trkpt lat="30.7093907" lon="35.6876464"><ele>1486.9</ele><time>2015-11-22T15:13:31.0000000+00:00</time></trkpt><trkpt lat="30.7094034" lon="35.6875835"><ele>1486.4</ele><time>2015-11-22T15:13:34.0000000+00:00</time></trkpt><trkpt lat="30.7094063" lon="35.6875239"><ele>1492.1</ele><time>2015-11-22T15:13:37.0000000+00:00</time></trkpt><trkpt lat="30.7094047" lon="35.6874664"><ele>1494.7</ele><time>2015-11-22T15:13:40.0000000+00:00</time></trkpt><trkpt lat="30.7094142" lon="35.6873998"><ele>1496.1</ele><time>2015-11-22T15:13:44.0000000+00:00</time></trkpt><trkpt lat="30.7094194" lon="35.6873428"><ele>1497.1</ele><time>2015-11-22T15:13:47.0000000+00:00</time></trkpt><trkpt lat="30.7094261" lon="35.6872854"><ele>1497.9</ele><time>2015-11-22T15:13:50.0000000+00:00</time></trkpt><trkpt lat="30.7094327" lon="35.687226"><ele>1498.2</ele><time>2015-11-22T15:13:53.0000000+00:00</time></trkpt><trkpt lat="30.7094387" lon="35.6871641"><ele>1499.1</ele><time>2015-11-22T15:13:56.0000000+00:00</time></trkpt><trkpt lat="30.7094443" lon="35.6871011"><ele>1499.9</ele><time>2015-11-22T15:13:59.0000000+00:00</time></trkpt><trkpt lat="30.7094522" lon="35.6870363"><ele>1500.9</ele><time>2015-11-22T15:14:02.0000000+00:00</time></trkpt><trkpt lat="30.7094574" lon="35.6869786"><ele>1501.2</ele><time>2015-11-22T15:14:05.0000000+00:00</time></trkpt><trkpt lat="30.7094659" lon="35.6869222"><ele>1501.7</ele><time>2015-11-22T15:14:08.0000000+00:00</time></trkpt><trkpt lat="30.7094796" lon="35.6868628"><ele>1502.1</ele><time>2015-11-22T15:14:11.0000000+00:00</time></trkpt><trkpt lat="30.7094961" lon="35.6868077"><ele>1502.1</ele><time>2015-11-22T15:14:14.0000000+00:00</time></trkpt><trkpt lat="30.7095154" lon="35.6867417"><ele>1502.2</ele><time>2015-11-22T15:14:18.0000000+00:00</time></trkpt><trkpt lat="30.7095214" lon="35.6866794"><ele>1502.2</ele><time>2015-11-22T15:14:21.0000000+00:00</time></trkpt><trkpt lat="30.7095327" lon="35.686628"><ele>1502.7</ele><time>2015-11-22T15:14:23.0000000+00:00</time></trkpt><trkpt lat="30.7095454" lon="35.6865763"><ele>1503.1</ele><time>2015-11-22T15:14:26.0000000+00:00</time></trkpt><trkpt lat="30.7095683" lon="35.6865103"><ele>1503.7</ele><time>2015-11-22T15:14:30.0000000+00:00</time></trkpt><trkpt lat="30.7095853" lon="35.6864568"><ele>1504.1</ele><time>2015-11-22T15:14:33.0000000+00:00</time></trkpt><trkpt lat="30.7096073" lon="35.6863984"><ele>1504.2</ele><time>2015-11-22T15:14:36.0000000+00:00</time></trkpt><trkpt lat="30.709638" lon="35.6863339"><ele>1504.2</ele><time>2015-11-22T15:14:39.0000000+00:00</time></trkpt><trkpt lat="30.7096626" lon="35.6862703"><ele>1504.2</ele><time>2015-11-22T15:14:42.0000000+00:00</time></trkpt><trkpt lat="30.7096857" lon="35.6862051"><ele>1504.2</ele><time>2015-11-22T15:14:45.0000000+00:00</time></trkpt><trkpt lat="30.7097063" lon="35.6861398"><ele>1504.2</ele><time>2015-11-22T15:14:48.0000000+00:00</time></trkpt><trkpt lat="30.7097256" lon="35.6860816"><ele>1504.2</ele><time>2015-11-22T15:14:51.0000000+00:00</time></trkpt><trkpt lat="30.7097528" lon="35.6860188"><ele>1504.2</ele><time>2015-11-22T15:14:54.0000000+00:00</time></trkpt><trkpt lat="30.709772" lon="35.68597"><ele>1504.2</ele><time>2015-11-22T15:14:56.0000000+00:00</time></trkpt><trkpt lat="30.7097884" lon="35.6859211"><ele>1504.7</ele><time>2015-11-22T15:14:58.0000000+00:00</time></trkpt><trkpt lat="30.7098058" lon="35.685852"><ele>1505.9</ele><time>2015-11-22T15:15:01.0000000+00:00</time></trkpt><trkpt lat="30.7098291" lon="35.685793"><ele>1505.8</ele><time>2015-11-22T15:15:04.0000000+00:00</time></trkpt><trkpt lat="30.709842" lon="35.6857392"><ele>1507.8</ele><time>2015-11-22T15:15:07.0000000+00:00</time></trkpt><trkpt lat="30.7098623" lon="35.6856915"><ele>1509.4</ele><time>2015-11-22T15:15:10.0000000+00:00</time></trkpt><trkpt lat="30.7098738" lon="35.6856399"><ele>1510.1</ele><time>2015-11-22T15:15:13.0000000+00:00</time></trkpt><trkpt lat="30.7098951" lon="35.6855839"><ele>1510.1</ele><time>2015-11-22T15:15:16.0000000+00:00</time></trkpt><trkpt lat="30.7099158" lon="35.6855239"><ele>1510.2</ele><time>2015-11-22T15:15:19.0000000+00:00</time></trkpt><trkpt lat="30.7099337" lon="35.6854524"><ele>1509.4</ele><time>2015-11-22T15:15:22.0000000+00:00</time></trkpt><trkpt lat="30.7099493" lon="35.6854016"><ele>1508.8</ele><time>2015-11-22T15:15:24.0000000+00:00</time></trkpt><trkpt lat="30.7099681" lon="35.6853474"><ele>1508.8</ele><time>2015-11-22T15:15:26.0000000+00:00</time></trkpt><trkpt lat="30.7099847" lon="35.6852891"><ele>1508.4</ele><time>2015-11-22T15:15:28.0000000+00:00</time></trkpt><trkpt lat="30.7099993" lon="35.685225"><ele>1508.2</ele><time>2015-11-22T15:15:30.0000000+00:00</time></trkpt><trkpt lat="30.7100146" lon="35.685155"><ele>1507.5</ele><time>2015-11-22T15:15:32.0000000+00:00</time></trkpt><trkpt lat="30.7100358" lon="35.6850737"><ele>1507.3</ele><time>2015-11-22T15:15:34.0000000+00:00</time></trkpt><trkpt lat="30.7100569" lon="35.6849892"><ele>1508.0</ele><time>2015-11-22T15:15:36.0000000+00:00</time></trkpt><trkpt lat="30.7100735" lon="35.6849042"><ele>1508.1</ele><time>2015-11-22T15:15:38.0000000+00:00</time></trkpt><trkpt lat="30.7100878" lon="35.6848189"><ele>1508.2</ele><time>2015-11-22T15:15:40.0000000+00:00</time></trkpt><trkpt lat="30.7100984" lon="35.6847311"><ele>1507.7</ele><time>2015-11-22T15:15:42.0000000+00:00</time></trkpt><trkpt lat="30.7101078" lon="35.6846368"><ele>1506.8</ele><time>2015-11-22T15:15:44.0000000+00:00</time></trkpt><trkpt lat="30.7101081" lon="35.684552"><ele>1507.0</ele><time>2015-11-22T15:15:45.0000000+00:00</time></trkpt><trkpt lat="30.7101132" lon="35.6844939"><ele>1507.1</ele><time>2015-11-22T15:15:46.0000000+00:00</time></trkpt><trkpt lat="30.7101169" lon="35.6844374"><ele>1506.7</ele><time>2015-11-22T15:15:47.0000000+00:00</time></trkpt><trkpt lat="30.7101282" lon="35.6843744"><ele>1505.9</ele><time>2015-11-22T15:15:48.0000000+00:00</time></trkpt><trkpt lat="30.7101314" lon="35.6843071"><ele>1505.1</ele><time>2015-11-22T15:15:49.0000000+00:00</time></trkpt><trkpt lat="30.7101466" lon="35.6842386"><ele>1504.6</ele><time>2015-11-22T15:15:50.0000000+00:00</time></trkpt><trkpt lat="30.710151" lon="35.6841765"><ele>1503.9</ele><time>2015-11-22T15:15:51.0000000+00:00</time></trkpt><trkpt lat="30.7101644" lon="35.6840965"><ele>1503.1</ele><time>2015-11-22T15:15:52.0000000+00:00</time></trkpt><trkpt lat="30.7101637" lon="35.6840147"><ele>1502.1</ele><time>2015-11-22T15:15:53.0000000+00:00</time></trkpt><trkpt lat="30.7101654" lon="35.6839282"><ele>1501.7</ele><time>2015-11-22T15:15:54.0000000+00:00</time></trkpt><trkpt lat="30.7101738" lon="35.683836"><ele>1501.4</ele><time>2015-11-22T15:15:55.0000000+00:00</time></trkpt><trkpt lat="30.710187" lon="35.6837433"><ele>1501.3</ele><time>2015-11-22T15:15:56.0000000+00:00</time></trkpt><trkpt lat="30.7101968" lon="35.6836536"><ele>1500.8</ele><time>2015-11-22T15:15:57.0000000+00:00</time></trkpt><trkpt lat="30.7102064" lon="35.6835566"><ele>1500.5</ele><time>2015-11-22T15:15:58.0000000+00:00</time></trkpt><trkpt lat="30.7102224" lon="35.6834552"><ele>1500.8</ele><time>2015-11-22T15:15:59.0000000+00:00</time></trkpt><trkpt lat="30.7102553" lon="35.6833536"><ele>1500.5</ele><time>2015-11-22T15:16:00.0000000+00:00</time></trkpt><trkpt lat="30.7102747" lon="35.6832508"><ele>1499.9</ele><time>2015-11-22T15:16:01.0000000+00:00</time></trkpt><trkpt lat="30.7103046" lon="35.6831414"><ele>1499.5</ele><time>2015-11-22T15:16:02.0000000+00:00</time></trkpt><trkpt lat="30.7103347" lon="35.6830318"><ele>1498.4</ele><time>2015-11-22T15:16:03.0000000+00:00</time></trkpt><trkpt lat="30.7103749" lon="35.6829217"><ele>1497.8</ele><time>2015-11-22T15:16:04.0000000+00:00</time></trkpt><trkpt lat="30.7104069" lon="35.6828132"><ele>1497.0</ele><time>2015-11-22T15:16:05.0000000+00:00</time></trkpt><trkpt lat="30.7104504" lon="35.682702"><ele>1495.6</ele><time>2015-11-22T15:16:06.0000000+00:00</time></trkpt><trkpt lat="30.7105094" lon="35.6825792"><ele>1494.9</ele><time>2015-11-22T15:16:07.0000000+00:00</time></trkpt><trkpt lat="30.7105486" lon="35.6824601"><ele>1493.5</ele><time>2015-11-22T15:16:08.0000000+00:00</time></trkpt><trkpt lat="30.7106011" lon="35.6823362"><ele>1492.4</ele><time>2015-11-22T15:16:09.0000000+00:00</time></trkpt><trkpt lat="30.7106515" lon="35.682207"><ele>1490.8</ele><time>2015-11-22T15:16:10.0000000+00:00</time></trkpt><trkpt lat="30.7107023" lon="35.682071"><ele>1489.5</ele><time>2015-11-22T15:16:11.0000000+00:00</time></trkpt><trkpt lat="30.7107636" lon="35.6819398"><ele>1488.3</ele><time>2015-11-22T15:16:12.0000000+00:00</time></trkpt><trkpt lat="30.7108271" lon="35.6818049"><ele>1486.8</ele><time>2015-11-22T15:16:13.0000000+00:00</time></trkpt><trkpt lat="30.7108868" lon="35.6816663"><ele>1485.0</ele><time>2015-11-22T15:16:14.0000000+00:00</time></trkpt><trkpt lat="30.7109466" lon="35.6815228"><ele>1483.6</ele><time>2015-11-22T15:16:15.0000000+00:00</time></trkpt><trkpt lat="30.7110106" lon="35.6813765"><ele>1481.9</ele><time>2015-11-22T15:16:16.0000000+00:00</time></trkpt><trkpt lat="30.7110728" lon="35.6812208"><ele>1480.5</ele><time>2015-11-22T15:16:17.0000000+00:00</time></trkpt><trkpt lat="30.7111342" lon="35.6810688"><ele>1478.9</ele><time>2015-11-22T15:16:18.0000000+00:00</time></trkpt><trkpt lat="30.7111996" lon="35.6809088"><ele>1477.0</ele><time>2015-11-22T15:16:19.0000000+00:00</time></trkpt><trkpt lat="30.7112671" lon="35.6807483"><ele>1475.1</ele><time>2015-11-22T15:16:20.0000000+00:00</time></trkpt><trkpt lat="30.7113358" lon="35.6805873"><ele>1473.2</ele><time>2015-11-22T15:16:21.0000000+00:00</time></trkpt><trkpt lat="30.7114056" lon="35.6804222"><ele>1471.2</ele><time>2015-11-22T15:16:22.0000000+00:00</time></trkpt><trkpt lat="30.7114646" lon="35.6802536"><ele>1470.2</ele><time>2015-11-22T15:16:23.0000000+00:00</time></trkpt><trkpt lat="30.7115273" lon="35.6800816"><ele>1469.7</ele><time>2015-11-22T15:16:24.0000000+00:00</time></trkpt><trkpt lat="30.7115779" lon="35.6799038"><ele>1469.4</ele><time>2015-11-22T15:16:25.0000000+00:00</time></trkpt><trkpt lat="30.7116216" lon="35.6797297"><ele>1469.3</ele><time>2015-11-22T15:16:26.0000000+00:00</time></trkpt><trkpt lat="30.711645" lon="35.6795538"><ele>1469.3</ele><time>2015-11-22T15:16:27.0000000+00:00</time></trkpt><trkpt lat="30.7116593" lon="35.6793836"><ele>1468.7</ele><time>2015-11-22T15:16:28.0000000+00:00</time></trkpt><trkpt lat="30.7116654" lon="35.679212"><ele>1469.0</ele><time>2015-11-22T15:16:29.0000000+00:00</time></trkpt><trkpt lat="30.7116628" lon="35.6790516"><ele>1469.1</ele><time>2015-11-22T15:16:30.0000000+00:00</time></trkpt><trkpt lat="30.7116599" lon="35.6788911"><ele>1469.1</ele><time>2015-11-22T15:16:31.0000000+00:00</time></trkpt><trkpt lat="30.7116571" lon="35.6787457"><ele>1469.2</ele><time>2015-11-22T15:16:32.0000000+00:00</time></trkpt><trkpt lat="30.7116569" lon="35.6785906"><ele>1469.2</ele><time>2015-11-22T15:16:33.0000000+00:00</time></trkpt><trkpt lat="30.7116687" lon="35.6784457"><ele>1469.7</ele><time>2015-11-22T15:16:34.0000000+00:00</time></trkpt><trkpt lat="30.7116687" lon="35.6783018"><ele>1470.4</ele><time>2015-11-22T15:16:35.0000000+00:00</time></trkpt><trkpt lat="30.7116746" lon="35.6781622"><ele>1470.8</ele><time>2015-11-22T15:16:36.0000000+00:00</time></trkpt><trkpt lat="30.7116698" lon="35.6780336"><ele>1471.0</ele><time>2015-11-22T15:16:37.0000000+00:00</time></trkpt><trkpt lat="30.7116752" lon="35.6779128"><ele>1471.1</ele><time>2015-11-22T15:16:38.0000000+00:00</time></trkpt><trkpt lat="30.7116838" lon="35.6777877"><ele>1471.2</ele><time>2015-11-22T15:16:39.0000000+00:00</time></trkpt><trkpt lat="30.7116868" lon="35.6776849"><ele>1471.2</ele><time>2015-11-22T15:16:40.0000000+00:00</time></trkpt><trkpt lat="30.7116956" lon="35.6775887"><ele>1471.7</ele><time>2015-11-22T15:16:41.0000000+00:00</time></trkpt><trkpt lat="30.7117008" lon="35.6775029"><ele>1471.9</ele><time>2015-11-22T15:16:42.0000000+00:00</time></trkpt><trkpt lat="30.7117078" lon="35.677421"><ele>1472.6</ele><time>2015-11-22T15:16:43.0000000+00:00</time></trkpt><trkpt lat="30.7117176" lon="35.6773482"><ele>1473.4</ele><time>2015-11-22T15:16:44.0000000+00:00</time></trkpt><trkpt lat="30.7117292" lon="35.6772792"><ele>1473.3</ele><time>2015-11-22T15:16:45.0000000+00:00</time></trkpt><trkpt lat="30.711773" lon="35.6771858"><ele>1474.0</ele><time>2015-11-22T15:16:47.0000000+00:00</time></trkpt><trkpt lat="30.7117729" lon="35.6771198"><ele>1474.1</ele><time>2015-11-22T15:16:49.0000000+00:00</time></trkpt><trkpt lat="30.7117347" lon="35.6770878"><ele>1474.2</ele><time>2015-11-22T15:16:52.0000000+00:00</time></trkpt><trkpt lat="30.7116881" lon="35.6770971"><ele>1473.4</ele><time>2015-11-22T15:16:54.0000000+00:00</time></trkpt><trkpt lat="30.711621" lon="35.6771093"><ele>1473.2</ele><time>2015-11-22T15:16:57.0000000+00:00</time></trkpt><trkpt lat="30.7115688" lon="35.6771139"><ele>1473.2</ele><time>2015-11-22T15:16:59.0000000+00:00</time></trkpt><trkpt lat="30.7115241" lon="35.67712"><ele>1473.2</ele><time>2015-11-22T15:17:01.0000000+00:00</time></trkpt><trkpt lat="30.711468" lon="35.6771179"><ele>1473.2</ele><time>2015-11-22T15:17:04.0000000+00:00</time></trkpt><trkpt lat="30.7114228" lon="35.6771164"><ele>1473.2</ele><time>2015-11-22T15:17:07.0000000+00:00</time></trkpt><trkpt lat="30.7113763" lon="35.6771101"><ele>1473.3</ele><time>2015-11-22T15:17:10.0000000+00:00</time></trkpt><trkpt lat="30.71132" lon="35.6771103"><ele>1473.7</ele><time>2015-11-22T15:17:13.0000000+00:00</time></trkpt><trkpt lat="30.7112749" lon="35.6771129"><ele>1474.1</ele><time>2015-11-22T15:17:15.0000000+00:00</time></trkpt><trkpt lat="30.7112274" lon="35.6771166"><ele>1474.2</ele><time>2015-11-22T15:17:17.0000000+00:00</time></trkpt><trkpt lat="30.711175" lon="35.6771189"><ele>1473.4</ele><time>2015-11-22T15:17:19.0000000+00:00</time></trkpt><trkpt lat="30.7111203" lon="35.6771228"><ele>1473.8</ele><time>2015-11-22T15:17:21.0000000+00:00</time></trkpt><trkpt lat="30.7110602" lon="35.6771217"><ele>1473.3</ele><time>2015-11-22T15:17:23.0000000+00:00</time></trkpt><trkpt lat="30.7109969" lon="35.6771165"><ele>1472.5</ele><time>2015-11-22T15:17:25.0000000+00:00</time></trkpt><trkpt lat="30.7109236" lon="35.6771148"><ele>1473.0</ele><time>2015-11-22T15:17:27.0000000+00:00</time></trkpt><trkpt lat="30.7108488" lon="35.6771135"><ele>1473.2</ele><time>2015-11-22T15:17:29.0000000+00:00</time></trkpt><trkpt lat="30.7107716" lon="35.6771043"><ele>1473.2</ele><time>2015-11-22T15:17:31.0000000+00:00</time></trkpt><trkpt lat="30.710694" lon="35.677087"><ele>1473.7</ele><time>2015-11-22T15:17:33.0000000+00:00</time></trkpt><trkpt lat="30.7106244" lon="35.6770763"><ele>1474.1</ele><time>2015-11-22T15:17:35.0000000+00:00</time></trkpt><trkpt lat="30.7105708" lon="35.6770699"><ele>1474.2</ele><time>2015-11-22T15:17:37.0000000+00:00</time></trkpt><trkpt lat="30.7105051" lon="35.6770666"><ele>1473.9</ele><time>2015-11-22T15:17:40.0000000+00:00</time></trkpt><trkpt lat="30.7104556" lon="35.677068"><ele>1474.1</ele><time>2015-11-22T15:17:42.0000000+00:00</time></trkpt><trkpt lat="30.7103999" lon="35.6770733"><ele>1474.2</ele><time>2015-11-22T15:17:44.0000000+00:00</time></trkpt><trkpt lat="30.7103415" lon="35.6770794"><ele>1474.7</ele><time>2015-11-22T15:17:46.0000000+00:00</time></trkpt><trkpt lat="30.7102881" lon="35.6770897"><ele>1475.6</ele><time>2015-11-22T15:17:48.0000000+00:00</time></trkpt><trkpt lat="30.7102392" lon="35.6771047"><ele>1475.3</ele><time>2015-11-22T15:17:50.0000000+00:00</time></trkpt><trkpt lat="30.7101878" lon="35.6771203"><ele>1475.2</ele><time>2015-11-22T15:17:52.0000000+00:00</time></trkpt><trkpt lat="30.710132" lon="35.6771335"><ele>1475.2</ele><time>2015-11-22T15:17:54.0000000+00:00</time></trkpt><trkpt lat="30.7100769" lon="35.6771482"><ele>1475.7</ele><time>2015-11-22T15:17:56.0000000+00:00</time></trkpt><trkpt lat="30.7100222" lon="35.6771644"><ele>1476.1</ele><time>2015-11-22T15:17:58.0000000+00:00</time></trkpt><trkpt lat="30.7099667" lon="35.67718"><ele>1476.2</ele><time>2015-11-22T15:18:00.0000000+00:00</time></trkpt><trkpt lat="30.7099097" lon="35.6771955"><ele>1476.2</ele><time>2015-11-22T15:18:02.0000000+00:00</time></trkpt><trkpt lat="30.7098508" lon="35.6772072"><ele>1476.2</ele><time>2015-11-22T15:18:04.0000000+00:00</time></trkpt><trkpt lat="30.7097906" lon="35.6772169"><ele>1476.7</ele><time>2015-11-22T15:18:06.0000000+00:00</time></trkpt><trkpt lat="30.7097323" lon="35.6772218"><ele>1477.1</ele><time>2015-11-22T15:18:08.0000000+00:00</time></trkpt><trkpt lat="30.709675" lon="35.6772244"><ele>1477.2</ele><time>2015-11-22T15:18:10.0000000+00:00</time></trkpt><trkpt lat="30.7096202" lon="35.6772238"><ele>1477.7</ele><time>2015-11-22T15:18:12.0000000+00:00</time></trkpt><trkpt lat="30.709567" lon="35.677221"><ele>1478.1</ele><time>2015-11-22T15:18:14.0000000+00:00</time></trkpt><trkpt lat="30.7095153" lon="35.6772181"><ele>1478.2</ele><time>2015-11-22T15:18:16.0000000+00:00</time></trkpt><trkpt lat="30.7094621" lon="35.6772166"><ele>1478.2</ele><time>2015-11-22T15:18:18.0000000+00:00</time></trkpt><trkpt lat="30.7094093" lon="35.6772186"><ele>1478.2</ele><time>2015-11-22T15:18:20.0000000+00:00</time></trkpt><trkpt lat="30.7093569" lon="35.6772199"><ele>1478.2</ele><time>2015-11-22T15:18:22.0000000+00:00</time></trkpt><trkpt lat="30.7093064" lon="35.6772136"><ele>1478.2</ele><time>2015-11-22T15:18:24.0000000+00:00</time></trkpt><trkpt lat="30.7092596" lon="35.6772076"><ele>1478.2</ele><time>2015-11-22T15:18:26.0000000+00:00</time></trkpt><trkpt lat="30.7091968" lon="35.6772018"><ele>1478.2</ele><time>2015-11-22T15:18:29.0000000+00:00</time></trkpt><trkpt lat="30.7091324" lon="35.6772"><ele>1478.7</ele><time>2015-11-22T15:18:32.0000000+00:00</time></trkpt><trkpt lat="30.70907" lon="35.6771976"><ele>1479.9</ele><time>2015-11-22T15:18:35.0000000+00:00</time></trkpt><trkpt lat="30.7090078" lon="35.677193"><ele>1479.5</ele><time>2015-11-22T15:18:38.0000000+00:00</time></trkpt><trkpt lat="30.7089463" lon="35.6771928"><ele>1479.5</ele><time>2015-11-22T15:18:41.0000000+00:00</time></trkpt><trkpt lat="30.7088889" lon="35.6771977"><ele>1480.1</ele><time>2015-11-22T15:18:44.0000000+00:00</time></trkpt><trkpt lat="30.7088357" lon="35.6772092"><ele>1480.7</ele><time>2015-11-22T15:18:47.0000000+00:00</time></trkpt><trkpt lat="30.7087795" lon="35.6772211"><ele>1480.6</ele><time>2015-11-22T15:18:50.0000000+00:00</time></trkpt><trkpt lat="30.7087256" lon="35.6772364"><ele>1480.3</ele><time>2015-11-22T15:18:53.0000000+00:00</time></trkpt><trkpt lat="30.7086646" lon="35.6772502"><ele>1480.2</ele><time>2015-11-22T15:18:56.0000000+00:00</time></trkpt><trkpt lat="30.7086176" lon="35.6772566"><ele>1480.5</ele><time>2015-11-22T15:18:58.0000000+00:00</time></trkpt><trkpt lat="30.7085713" lon="35.6772661"><ele>1480.3</ele><time>2015-11-22T15:19:00.0000000+00:00</time></trkpt><trkpt lat="30.7085234" lon="35.6772705"><ele>1480.7</ele><time>2015-11-22T15:19:02.0000000+00:00</time></trkpt><trkpt lat="30.7084733" lon="35.6772753"><ele>1480.6</ele><time>2015-11-22T15:19:04.0000000+00:00</time></trkpt><trkpt lat="30.7084205" lon="35.6772786"><ele>1480.3</ele><time>2015-11-22T15:19:06.0000000+00:00</time></trkpt><trkpt lat="30.7083672" lon="35.6772777"><ele>1480.2</ele><time>2015-11-22T15:19:08.0000000+00:00</time></trkpt><trkpt lat="30.7083141" lon="35.6772747"><ele>1480.2</ele><time>2015-11-22T15:19:10.0000000+00:00</time></trkpt><trkpt lat="30.708257" lon="35.6772719"><ele>1480.2</ele><time>2015-11-22T15:19:12.0000000+00:00</time></trkpt><trkpt lat="30.7081998" lon="35.6772694"><ele>1480.2</ele><time>2015-11-22T15:19:14.0000000+00:00</time></trkpt><trkpt lat="30.7081439" lon="35.6772727"><ele>1479.7</ele><time>2015-11-22T15:19:16.0000000+00:00</time></trkpt><trkpt lat="30.7080809" lon="35.6772829"><ele>1479.3</ele><time>2015-11-22T15:19:18.0000000+00:00</time></trkpt><trkpt lat="30.7080033" lon="35.677295"><ele>1479.2</ele><time>2015-11-22T15:19:20.0000000+00:00</time></trkpt><trkpt lat="30.7079189" lon="35.6773026"><ele>1479.2</ele><time>2015-11-22T15:19:22.0000000+00:00</time></trkpt><trkpt lat="30.7078318" lon="35.677312"><ele>1479.2</ele><time>2015-11-22T15:19:24.0000000+00:00</time></trkpt><trkpt lat="30.7077428" lon="35.6773201"><ele>1480.0</ele><time>2015-11-22T15:19:26.0000000+00:00</time></trkpt><trkpt lat="30.7076545" lon="35.6773288"><ele>1480.1</ele><time>2015-11-22T15:19:28.0000000+00:00</time></trkpt><trkpt lat="30.7075659" lon="35.6773376"><ele>1480.2</ele><time>2015-11-22T15:19:30.0000000+00:00</time></trkpt><trkpt lat="30.7074782" lon="35.6773456"><ele>1480.2</ele><time>2015-11-22T15:19:32.0000000+00:00</time></trkpt><trkpt lat="30.707393" lon="35.6773541"><ele>1480.5</ele><time>2015-11-22T15:19:34.0000000+00:00</time></trkpt><trkpt lat="30.7073086" lon="35.6773643"><ele>1480.8</ele><time>2015-11-22T15:19:36.0000000+00:00</time></trkpt><trkpt lat="30.7072248" lon="35.6773769"><ele>1481.6</ele><time>2015-11-22T15:19:38.0000000+00:00</time></trkpt><trkpt lat="30.7071416" lon="35.6773906"><ele>1482.0</ele><time>2015-11-22T15:19:40.0000000+00:00</time></trkpt><trkpt lat="30.7070612" lon="35.6774019"><ele>1482.7</ele><time>2015-11-22T15:19:42.0000000+00:00</time></trkpt><trkpt lat="30.7069802" lon="35.6774119"><ele>1483.1</ele><time>2015-11-22T15:19:44.0000000+00:00</time></trkpt><trkpt lat="30.7068983" lon="35.6774282"><ele>1481.9</ele><time>2015-11-22T15:19:46.0000000+00:00</time></trkpt><trkpt lat="30.7068189" lon="35.6774388"><ele>1482.1</ele><time>2015-11-22T15:19:48.0000000+00:00</time></trkpt><trkpt lat="30.7067394" lon="35.6774501"><ele>1481.7</ele><time>2015-11-22T15:19:50.0000000+00:00</time></trkpt><trkpt lat="30.7066601" lon="35.6774596"><ele>1481.3</ele><time>2015-11-22T15:19:52.0000000+00:00</time></trkpt><trkpt lat="30.7065841" lon="35.677464"><ele>1482.0</ele><time>2015-11-22T15:19:54.0000000+00:00</time></trkpt><trkpt lat="30.706512" lon="35.6774666"><ele>1481.6</ele><time>2015-11-22T15:19:56.0000000+00:00</time></trkpt><trkpt lat="30.7064429" lon="35.6774754"><ele>1482.1</ele><time>2015-11-22T15:19:58.0000000+00:00</time></trkpt><trkpt lat="30.7063762" lon="35.6774809"><ele>1482.2</ele><time>2015-11-22T15:20:00.0000000+00:00</time></trkpt><trkpt lat="30.7063112" lon="35.6774829"><ele>1482.2</ele><time>2015-11-22T15:20:02.0000000+00:00</time></trkpt><trkpt lat="30.7062483" lon="35.6774899"><ele>1482.7</ele><time>2015-11-22T15:20:04.0000000+00:00</time></trkpt><trkpt lat="30.7061851" lon="35.6774932"><ele>1483.1</ele><time>2015-11-22T15:20:06.0000000+00:00</time></trkpt><trkpt lat="30.7061235" lon="35.6774998"><ele>1483.2</ele><time>2015-11-22T15:20:08.0000000+00:00</time></trkpt><trkpt lat="30.7060714" lon="35.6775083"><ele>1483.2</ele><time>2015-11-22T15:20:10.0000000+00:00</time></trkpt><trkpt lat="30.7060254" lon="35.677515"><ele>1483.2</ele><time>2015-11-22T15:20:12.0000000+00:00</time></trkpt><trkpt lat="30.705973" lon="35.6775234"><ele>1483.2</ele><time>2015-11-22T15:20:14.0000000+00:00</time></trkpt><trkpt lat="30.7059169" lon="35.6775349"><ele>1483.2</ele><time>2015-11-22T15:20:16.0000000+00:00</time></trkpt><trkpt lat="30.7058598" lon="35.6775528"><ele>1483.0</ele><time>2015-11-22T15:20:18.0000000+00:00</time></trkpt><trkpt lat="30.7058008" lon="35.677569"><ele>1483.9</ele><time>2015-11-22T15:20:20.0000000+00:00</time></trkpt><trkpt lat="30.7057414" lon="35.6775826"><ele>1484.1</ele><time>2015-11-22T15:20:22.0000000+00:00</time></trkpt><trkpt lat="30.7056796" lon="35.6775951"><ele>1484.7</ele><time>2015-11-22T15:20:24.0000000+00:00</time></trkpt><trkpt lat="30.7056168" lon="35.6776062"><ele>1484.8</ele><time>2015-11-22T15:20:26.0000000+00:00</time></trkpt><trkpt lat="30.7055559" lon="35.6776188"><ele>1484.6</ele><time>2015-11-22T15:20:28.0000000+00:00</time></trkpt><trkpt lat="30.7054952" lon="35.6776339"><ele>1485.1</ele><time>2015-11-22T15:20:30.0000000+00:00</time></trkpt><trkpt lat="30.7054358" lon="35.6776478"><ele>1485.7</ele><time>2015-11-22T15:20:32.0000000+00:00</time></trkpt><trkpt lat="30.7053763" lon="35.6776581"><ele>1484.8</ele><time>2015-11-22T15:20:34.0000000+00:00</time></trkpt><trkpt lat="30.7053166" lon="35.6776736"><ele>1483.9</ele><time>2015-11-22T15:20:36.0000000+00:00</time></trkpt><trkpt lat="30.7052551" lon="35.6776889"><ele>1483.4</ele><time>2015-11-22T15:20:38.0000000+00:00</time></trkpt><trkpt lat="30.7051928" lon="35.6777023"><ele>1483.7</ele><time>2015-11-22T15:20:40.0000000+00:00</time></trkpt><trkpt lat="30.7051329" lon="35.6777185"><ele>1483.6</ele><time>2015-11-22T15:20:42.0000000+00:00</time></trkpt><trkpt lat="30.7050752" lon="35.6777331"><ele>1484.0</ele><time>2015-11-22T15:20:44.0000000+00:00</time></trkpt><trkpt lat="30.705023" lon="35.6777507"><ele>1484.2</ele><time>2015-11-22T15:20:46.0000000+00:00</time></trkpt><trkpt lat="30.7049748" lon="35.6777705"><ele>1484.4</ele><time>2015-11-22T15:20:48.0000000+00:00</time></trkpt><trkpt lat="30.7049273" lon="35.6777857"><ele>1484.3</ele><time>2015-11-22T15:20:50.0000000+00:00</time></trkpt><trkpt lat="30.7048795" lon="35.6777977"><ele>1484.2</ele><time>2015-11-22T15:20:52.0000000+00:00</time></trkpt><trkpt lat="30.7048318" lon="35.6778126"><ele>1485.0</ele><time>2015-11-22T15:20:54.0000000+00:00</time></trkpt><trkpt lat="30.7047854" lon="35.6778296"><ele>1485.1</ele><time>2015-11-22T15:20:56.0000000+00:00</time></trkpt><trkpt lat="30.7047416" lon="35.6778488"><ele>1483.9</ele><time>2015-11-22T15:20:58.0000000+00:00</time></trkpt><trkpt lat="30.7046794" lon="35.6778696"><ele>1482.9</ele><time>2015-11-22T15:21:01.0000000+00:00</time></trkpt><trkpt lat="30.7046283" lon="35.6778795"><ele>1483.1</ele><time>2015-11-22T15:21:05.0000000+00:00</time></trkpt><trkpt lat="30.7045777" lon="35.677887"><ele>1483.9</ele><time>2015-11-22T15:21:09.0000000+00:00</time></trkpt><trkpt lat="30.704523" lon="35.6778955"><ele>1485.6</ele><time>2015-11-22T15:21:13.0000000+00:00</time></trkpt><trkpt lat="30.704465" lon="35.6779056"><ele>1484.5</ele><time>2015-11-22T15:21:17.0000000+00:00</time></trkpt><trkpt lat="30.7044195" lon="35.6779142"><ele>1484.9</ele><time>2015-11-22T15:21:20.0000000+00:00</time></trkpt><trkpt lat="30.7043668" lon="35.677915"><ele>1485.9</ele><time>2015-11-22T15:21:23.0000000+00:00</time></trkpt><trkpt lat="30.7043134" lon="35.6779206"><ele>1486.2</ele><time>2015-11-22T15:21:26.0000000+00:00</time></trkpt><trkpt lat="30.7042596" lon="35.6779263"><ele>1493.6</ele><time>2015-11-22T15:21:29.0000000+00:00</time></trkpt><trkpt lat="30.7042103" lon="35.6779341"><ele>1499.4</ele><time>2015-11-22T15:21:32.0000000+00:00</time></trkpt><trkpt lat="30.7041619" lon="35.6779411"><ele>1501.7</ele><time>2015-11-22T15:21:35.0000000+00:00</time></trkpt><trkpt lat="30.7041024" lon="35.6779544"><ele>1502.2</ele><time>2015-11-22T15:21:39.0000000+00:00</time></trkpt><trkpt lat="30.7040552" lon="35.6779661"><ele>1503.4</ele><time>2015-11-22T15:21:42.0000000+00:00</time></trkpt><trkpt lat="30.704004" lon="35.6779827"><ele>1504.6</ele><time>2015-11-22T15:21:45.0000000+00:00</time></trkpt><trkpt lat="30.7039487" lon="35.6779959"><ele>1505.1</ele><time>2015-11-22T15:21:48.0000000+00:00</time></trkpt><trkpt lat="30.7038939" lon="35.6780053"><ele>1504.6</ele><time>2015-11-22T15:21:51.0000000+00:00</time></trkpt><trkpt lat="30.7038401" lon="35.6780136"><ele>1504.9</ele><time>2015-11-22T15:21:54.0000000+00:00</time></trkpt><trkpt lat="30.703787" lon="35.6780255"><ele>1505.2</ele><time>2015-11-22T15:21:57.0000000+00:00</time></trkpt><trkpt lat="30.7037391" lon="35.6780393"><ele>1504.9</ele><time>2015-11-22T15:22:00.0000000+00:00</time></trkpt><trkpt lat="30.70369" lon="35.678048"><ele>1505.7</ele><time>2015-11-22T15:22:03.0000000+00:00</time></trkpt><trkpt lat="30.70364" lon="35.6780639"><ele>1506.1</ele><time>2015-11-22T15:22:06.0000000+00:00</time></trkpt><trkpt lat="30.7035858" lon="35.6780767"><ele>1506.2</ele><time>2015-11-22T15:22:10.0000000+00:00</time></trkpt><trkpt lat="30.7035444" lon="35.6781"><ele>1507.0</ele><time>2015-11-22T15:22:13.0000000+00:00</time></trkpt><trkpt lat="30.7034966" lon="35.6781151"><ele>1507.2</ele><time>2015-11-22T15:22:16.0000000+00:00</time></trkpt><trkpt lat="30.7034436" lon="35.6781237"><ele>1507.7</ele><time>2015-11-22T15:22:19.0000000+00:00</time></trkpt><trkpt lat="30.7033935" lon="35.6781358"><ele>1508.1</ele><time>2015-11-22T15:22:22.0000000+00:00</time></trkpt><trkpt lat="30.7033426" lon="35.6781432"><ele>1508.2</ele><time>2015-11-22T15:22:25.0000000+00:00</time></trkpt><trkpt lat="30.703292" lon="35.6781518"><ele>1508.2</ele><time>2015-11-22T15:22:28.0000000+00:00</time></trkpt><trkpt lat="30.7032423" lon="35.678161"><ele>1509.0</ele><time>2015-11-22T15:22:31.0000000+00:00</time></trkpt><trkpt lat="30.7031919" lon="35.6781665"><ele>1509.2</ele><time>2015-11-22T15:22:34.0000000+00:00</time></trkpt><trkpt lat="30.7031376" lon="35.6781663"><ele>1509.2</ele><time>2015-11-22T15:22:37.0000000+00:00</time></trkpt><trkpt lat="30.7030922" lon="35.6781673"><ele>1509.2</ele><time>2015-11-22T15:22:39.0000000+00:00</time></trkpt><trkpt lat="30.7030372" lon="35.6781671"><ele>1509.2</ele><time>2015-11-22T15:22:42.0000000+00:00</time></trkpt><trkpt lat="30.702984" lon="35.6781653"><ele>1509.7</ele><time>2015-11-22T15:22:45.0000000+00:00</time></trkpt><trkpt lat="30.7029384" lon="35.6781612"><ele>1510.1</ele><time>2015-11-22T15:22:47.0000000+00:00</time></trkpt><trkpt lat="30.702877" lon="35.6781566"><ele>1510.2</ele><time>2015-11-22T15:22:50.0000000+00:00</time></trkpt><trkpt lat="30.702821" lon="35.6781533"><ele>1510.2</ele><time>2015-11-22T15:22:53.0000000+00:00</time></trkpt><trkpt lat="30.7027664" lon="35.6781428"><ele>1510.2</ele><time>2015-11-22T15:22:56.0000000+00:00</time></trkpt><trkpt lat="30.7027032" lon="35.6781408"><ele>1509.5</ele><time>2015-11-22T15:22:59.0000000+00:00</time></trkpt><trkpt lat="30.7026509" lon="35.6781373"><ele>1509.3</ele><time>2015-11-22T15:23:01.0000000+00:00</time></trkpt><trkpt lat="30.7025977" lon="35.6781314"><ele>1509.2</ele><time>2015-11-22T15:23:03.0000000+00:00</time></trkpt><trkpt lat="30.7025418" lon="35.6781325"><ele>1509.2</ele><time>2015-11-22T15:23:05.0000000+00:00</time></trkpt><trkpt lat="30.7024831" lon="35.6781348"><ele>1509.2</ele><time>2015-11-22T15:23:07.0000000+00:00</time></trkpt><trkpt lat="30.7024228" lon="35.6781388"><ele>1509.2</ele><time>2015-11-22T15:23:09.0000000+00:00</time></trkpt><trkpt lat="30.7023635" lon="35.6781499"><ele>1509.2</ele><time>2015-11-22T15:23:11.0000000+00:00</time></trkpt><trkpt lat="30.7023072" lon="35.6781598"><ele>1509.5</ele><time>2015-11-22T15:23:13.0000000+00:00</time></trkpt><trkpt lat="30.7022584" lon="35.6781578"><ele>1510.2</ele><time>2015-11-22T15:26:38.0000000+00:00</time></trkpt><trkpt lat="30.7022042" lon="35.6781708"><ele>1509.4</ele><time>2015-11-22T15:26:42.0000000+00:00</time></trkpt><trkpt lat="30.7021574" lon="35.6781768"><ele>1510.1</ele><time>2015-11-22T15:26:45.0000000+00:00</time></trkpt><trkpt lat="30.7021043" lon="35.6781807"><ele>1510.1</ele><time>2015-11-22T15:26:48.0000000+00:00</time></trkpt><trkpt lat="30.7020542" lon="35.6781795"><ele>1510.2</ele><time>2015-11-22T15:26:51.0000000+00:00</time></trkpt><trkpt lat="30.7020045" lon="35.6781748"><ele>1511.1</ele><time>2015-11-22T15:26:54.0000000+00:00</time></trkpt><trkpt lat="30.7019512" lon="35.6781707"><ele>1511.2</ele><time>2015-11-22T15:26:57.0000000+00:00</time></trkpt><trkpt lat="30.7018976" lon="35.6781635"><ele>1511.7</ele><time>2015-11-22T15:27:00.0000000+00:00</time></trkpt><trkpt lat="30.7018431" lon="35.6781555"><ele>1513.5</ele><time>2015-11-22T15:27:03.0000000+00:00</time></trkpt><trkpt lat="30.7017873" lon="35.6781564"><ele>1513.9</ele><time>2015-11-22T15:27:06.0000000+00:00</time></trkpt><trkpt lat="30.7017309" lon="35.6781619"><ele>1514.7</ele><time>2015-11-22T15:27:09.0000000+00:00</time></trkpt><trkpt lat="30.7016714" lon="35.678162"><ele>1515.1</ele><time>2015-11-22T15:27:12.0000000+00:00</time></trkpt><trkpt lat="30.7016104" lon="35.6781682"><ele>1515.9</ele><time>2015-11-22T15:27:15.0000000+00:00</time></trkpt><trkpt lat="30.7015492" lon="35.6781724"><ele>1513.9</ele><time>2015-11-22T15:27:18.0000000+00:00</time></trkpt><trkpt lat="30.7014882" lon="35.6781713"><ele>1514.9</ele><time>2015-11-22T15:27:21.0000000+00:00</time></trkpt><trkpt lat="30.7014304" lon="35.6781658"><ele>1515.7</ele><time>2015-11-22T15:27:24.0000000+00:00</time></trkpt><trkpt lat="30.7013704" lon="35.6781478"><ele>1514.5</ele><time>2015-11-22T15:27:27.0000000+00:00</time></trkpt><trkpt lat="30.7013099" lon="35.6781243"><ele>1514.2</ele><time>2015-11-22T15:27:30.0000000+00:00</time></trkpt><trkpt lat="30.7012498" lon="35.678102"><ele>1514.2</ele><time>2015-11-22T15:27:33.0000000+00:00</time></trkpt><trkpt lat="30.70119" lon="35.6780757"><ele>1515.7</ele><time>2015-11-22T15:27:36.0000000+00:00</time></trkpt><trkpt lat="30.7011325" lon="35.6780479"><ele>1517.0</ele><time>2015-11-22T15:27:39.0000000+00:00</time></trkpt><trkpt lat="30.7010757" lon="35.6780179"><ele>1516.8</ele><time>2015-11-22T15:27:42.0000000+00:00</time></trkpt><trkpt lat="30.7010347" lon="35.6779964"><ele>1517.1</ele><time>2015-11-22T15:27:44.0000000+00:00</time></trkpt><trkpt lat="30.7009917" lon="35.6779759"><ele>1517.2</ele><time>2015-11-22T15:27:46.0000000+00:00</time></trkpt><trkpt lat="30.7009465" lon="35.6779575"><ele>1517.2</ele><time>2015-11-22T15:27:48.0000000+00:00</time></trkpt><trkpt lat="30.7008991" lon="35.6779386"><ele>1517.2</ele><time>2015-11-22T15:27:50.0000000+00:00</time></trkpt><trkpt lat="30.7008408" lon="35.6779088"><ele>1516.1</ele><time>2015-11-22T15:27:53.0000000+00:00</time></trkpt><trkpt lat="30.7007782" lon="35.677882"><ele>1516.1</ele><time>2015-11-22T15:27:56.0000000+00:00</time></trkpt><trkpt lat="30.7007333" lon="35.6778588"><ele>1516.7</ele><time>2015-11-22T15:27:58.0000000+00:00</time></trkpt><trkpt lat="30.7006899" lon="35.6778305"><ele>1517.6</ele><time>2015-11-22T15:28:00.0000000+00:00</time></trkpt><trkpt lat="30.7006427" lon="35.6778046"><ele>1517.3</ele><time>2015-11-22T15:28:02.0000000+00:00</time></trkpt><trkpt lat="30.700597" lon="35.6777795"><ele>1517.2</ele><time>2015-11-22T15:28:04.0000000+00:00</time></trkpt><trkpt lat="30.7005522" lon="35.6777542"><ele>1518.0</ele><time>2015-11-22T15:28:06.0000000+00:00</time></trkpt><trkpt lat="30.7005073" lon="35.6777296"><ele>1518.1</ele><time>2015-11-22T15:28:08.0000000+00:00</time></trkpt><trkpt lat="30.7004613" lon="35.6777077"><ele>1518.2</ele><time>2015-11-22T15:28:10.0000000+00:00</time></trkpt><trkpt lat="30.7004181" lon="35.6776827"><ele>1517.7</ele><time>2015-11-22T15:28:12.0000000+00:00</time></trkpt><trkpt lat="30.7003772" lon="35.6776482"><ele>1518.1</ele><time>2015-11-22T15:28:14.0000000+00:00</time></trkpt><trkpt lat="30.7003369" lon="35.6776105"><ele>1518.7</ele><time>2015-11-22T15:28:16.0000000+00:00</time></trkpt><trkpt lat="30.7002991" lon="35.6775693"><ele>1519.1</ele><time>2015-11-22T15:28:18.0000000+00:00</time></trkpt><trkpt lat="30.7002608" lon="35.6775319"><ele>1519.2</ele><time>2015-11-22T15:28:20.0000000+00:00</time></trkpt><trkpt lat="30.7002222" lon="35.6774966"><ele>1519.2</ele><time>2015-11-22T15:28:22.0000000+00:00</time></trkpt><trkpt lat="30.7001868" lon="35.6774574"><ele>1518.7</ele><time>2015-11-22T15:28:24.0000000+00:00</time></trkpt><trkpt lat="30.7001516" lon="35.6774173"><ele>1518.3</ele><time>2015-11-22T15:28:26.0000000+00:00</time></trkpt><trkpt lat="30.7001204" lon="35.6773762"><ele>1518.7</ele><time>2015-11-22T15:28:28.0000000+00:00</time></trkpt><trkpt lat="30.700094" lon="35.6773335"><ele>1519.6</ele><time>2015-11-22T15:28:30.0000000+00:00</time></trkpt><trkpt lat="30.7000539" lon="35.6772752"><ele>1520.1</ele><time>2015-11-22T15:28:33.0000000+00:00</time></trkpt><trkpt lat="30.7000116" lon="35.6772256"><ele>1522.3</ele><time>2015-11-22T15:28:36.0000000+00:00</time></trkpt><trkpt lat="30.6999705" lon="35.677176"><ele>1524.0</ele><time>2015-11-22T15:28:39.0000000+00:00</time></trkpt><trkpt lat="30.6999308" lon="35.6771258"><ele>1525.0</ele><time>2015-11-22T15:28:42.0000000+00:00</time></trkpt><trkpt lat="30.6998895" lon="35.6770798"><ele>1526.1</ele><time>2015-11-22T15:28:45.0000000+00:00</time></trkpt><trkpt lat="30.6998439" lon="35.6770444"><ele>1526.9</ele><time>2015-11-22T15:28:48.0000000+00:00</time></trkpt><trkpt lat="30.6997963" lon="35.6770036"><ele>1528.5</ele><time>2015-11-22T15:28:51.0000000+00:00</time></trkpt><trkpt lat="30.6997517" lon="35.676968"><ele>1529.1</ele><time>2015-11-22T15:28:54.0000000+00:00</time></trkpt><trkpt lat="30.6997109" lon="35.6769369"><ele>1527.9</ele><time>2015-11-22T15:28:57.0000000+00:00</time></trkpt><trkpt lat="30.6996716" lon="35.6769073"><ele>1528.0</ele><time>2015-11-22T15:29:00.0000000+00:00</time></trkpt><trkpt lat="30.6996395" lon="35.6768664"><ele>1526.4</ele><time>2015-11-22T15:29:04.0000000+00:00</time></trkpt><trkpt lat="30.6996028" lon="35.6768251"><ele>1526.5</ele><time>2015-11-22T15:29:07.0000000+00:00</time></trkpt><trkpt lat="30.6995435" lon="35.6767722"><ele>1527.1</ele><time>2015-11-22T15:29:10.0000000+00:00</time></trkpt><trkpt lat="30.6994842" lon="35.6767263"><ele>1527.2</ele><time>2015-11-22T15:29:12.0000000+00:00</time></trkpt><trkpt lat="30.699423" lon="35.6766752"><ele>1526.7</ele><time>2015-11-22T15:29:14.0000000+00:00</time></trkpt><trkpt lat="30.6993655" lon="35.6766232"><ele>1525.8</ele><time>2015-11-22T15:29:16.0000000+00:00</time></trkpt><trkpt lat="30.6993102" lon="35.6765685"><ele>1524.9</ele><time>2015-11-22T15:29:18.0000000+00:00</time></trkpt><trkpt lat="30.6992466" lon="35.6765182"><ele>1524.9</ele><time>2015-11-22T15:29:20.0000000+00:00</time></trkpt><trkpt lat="30.6991786" lon="35.6764791"><ele>1524.4</ele><time>2015-11-22T15:29:22.0000000+00:00</time></trkpt><trkpt lat="30.6991179" lon="35.6764372"><ele>1524.2</ele><time>2015-11-22T15:29:24.0000000+00:00</time></trkpt><trkpt lat="30.6990682" lon="35.67639"><ele>1523.7</ele><time>2015-11-22T15:29:26.0000000+00:00</time></trkpt><trkpt lat="30.6990135" lon="35.6763458"><ele>1523.3</ele><time>2015-11-22T15:29:28.0000000+00:00</time></trkpt><trkpt lat="30.6989267" lon="35.6763058"><ele>1522.5</ele><time>2015-11-22T15:29:30.0000000+00:00</time></trkpt><trkpt lat="30.6988486" lon="35.6762725"><ele>1520.3</ele><time>2015-11-22T15:29:32.0000000+00:00</time></trkpt><trkpt lat="30.6988053" lon="35.676254"><ele>1519.7</ele><time>2015-11-22T15:29:33.0000000+00:00</time></trkpt><trkpt lat="30.6987318" lon="35.6762206"><ele>1518.1</ele><time>2015-11-22T15:29:35.0000000+00:00</time></trkpt><trkpt lat="30.6986875" lon="35.6761961"><ele>1517.1</ele><time>2015-11-22T15:29:36.0000000+00:00</time></trkpt><trkpt lat="30.6986423" lon="35.6761694"><ele>1516.7</ele><time>2015-11-22T15:29:37.0000000+00:00</time></trkpt><trkpt lat="30.6985966" lon="35.6761473"><ele>1515.9</ele><time>2015-11-22T15:29:38.0000000+00:00</time></trkpt><trkpt lat="30.6985441" lon="35.676119"><ele>1515.1</ele><time>2015-11-22T15:29:39.0000000+00:00</time></trkpt><trkpt lat="30.6984918" lon="35.6760991"><ele>1514.6</ele><time>2015-11-22T15:29:40.0000000+00:00</time></trkpt><trkpt lat="30.698436" lon="35.67607"><ele>1513.4</ele><time>2015-11-22T15:29:41.0000000+00:00</time></trkpt><trkpt lat="30.698381" lon="35.6760504"><ele>1512.3</ele><time>2015-11-22T15:29:42.0000000+00:00</time></trkpt><trkpt lat="30.6983252" lon="35.6760254"><ele>1511.3</ele><time>2015-11-22T15:29:43.0000000+00:00</time></trkpt><trkpt lat="30.6982711" lon="35.6760053"><ele>1510.2</ele><time>2015-11-22T15:29:44.0000000+00:00</time></trkpt><trkpt lat="30.6982121" lon="35.6759959"><ele>1509.2</ele><time>2015-11-22T15:29:45.0000000+00:00</time></trkpt><trkpt lat="30.6981516" lon="35.6759768"><ele>1508.2</ele><time>2015-11-22T15:29:46.0000000+00:00</time></trkpt><trkpt lat="30.6980871" lon="35.6759665"><ele>1507.2</ele><time>2015-11-22T15:29:47.0000000+00:00</time></trkpt><trkpt lat="30.698023" lon="35.675959"><ele>1505.7</ele><time>2015-11-22T15:29:48.0000000+00:00</time></trkpt><trkpt lat="30.6979706" lon="35.675959"><ele>1504.0</ele><time>2015-11-22T15:29:49.0000000+00:00</time></trkpt><trkpt lat="30.6979181" lon="35.6759586"><ele>1502.6</ele><time>2015-11-22T15:29:50.0000000+00:00</time></trkpt><trkpt lat="30.6978701" lon="35.6759482"><ele>1501.9</ele><time>2015-11-22T15:29:51.0000000+00:00</time></trkpt><trkpt lat="30.6978242" lon="35.6759345"><ele>1501.0</ele><time>2015-11-22T15:29:52.0000000+00:00</time></trkpt><trkpt lat="30.6977328" lon="35.6759226"><ele>1499.2</ele><time>2015-11-22T15:29:54.0000000+00:00</time></trkpt><trkpt lat="30.6976772" lon="35.6759151"><ele>1498.2</ele><time>2015-11-22T15:29:55.0000000+00:00</time></trkpt><trkpt lat="30.6975921" lon="35.6759061"><ele>1496.9</ele><time>2015-11-22T15:29:57.0000000+00:00</time></trkpt><trkpt lat="30.6975476" lon="35.6758928"><ele>1495.6</ele><time>2015-11-22T15:29:58.0000000+00:00</time></trkpt><trkpt lat="30.6975026" lon="35.6758755"><ele>1494.4</ele><time>2015-11-22T15:29:59.0000000+00:00</time></trkpt><trkpt lat="30.6974624" lon="35.6758511"><ele>1493.3</ele><time>2015-11-22T15:30:00.0000000+00:00</time></trkpt><trkpt lat="30.697414" lon="35.6758348"><ele>1492.7</ele><time>2015-11-22T15:30:01.0000000+00:00</time></trkpt><trkpt lat="30.6973639" lon="35.6758218"><ele>1492.0</ele><time>2015-11-22T15:30:02.0000000+00:00</time></trkpt><trkpt lat="30.6973047" lon="35.6758026"><ele>1491.6</ele><time>2015-11-22T15:30:03.0000000+00:00</time></trkpt><trkpt lat="30.6972408" lon="35.6757846"><ele>1490.9</ele><time>2015-11-22T15:30:04.0000000+00:00</time></trkpt><trkpt lat="30.6971715" lon="35.6757668"><ele>1490.0</ele><time>2015-11-22T15:30:05.0000000+00:00</time></trkpt><trkpt lat="30.6970984" lon="35.6757427"><ele>1489.6</ele><time>2015-11-22T15:30:06.0000000+00:00</time></trkpt><trkpt lat="30.697023" lon="35.6757253"><ele>1490.4</ele><time>2015-11-22T15:30:07.0000000+00:00</time></trkpt><trkpt lat="30.6969557" lon="35.6757119"><ele>1490.3</ele><time>2015-11-22T15:30:08.0000000+00:00</time></trkpt><trkpt lat="30.6968816" lon="35.6756969"><ele>1490.3</ele><time>2015-11-22T15:30:09.0000000+00:00</time></trkpt><trkpt lat="30.6968085" lon="35.6756907"><ele>1490.2</ele><time>2015-11-22T15:30:10.0000000+00:00</time></trkpt><trkpt lat="30.6967393" lon="35.6756728"><ele>1490.7</ele><time>2015-11-22T15:30:11.0000000+00:00</time></trkpt><trkpt lat="30.6966669" lon="35.6756587"><ele>1491.0</ele><time>2015-11-22T15:30:12.0000000+00:00</time></trkpt><trkpt lat="30.6965948" lon="35.6756452"><ele>1491.1</ele><time>2015-11-22T15:30:13.0000000+00:00</time></trkpt><trkpt lat="30.696523" lon="35.6756362"><ele>1491.6</ele><time>2015-11-22T15:30:14.0000000+00:00</time></trkpt><trkpt lat="30.696452" lon="35.6756347"><ele>1491.9</ele><time>2015-11-22T15:30:15.0000000+00:00</time></trkpt><trkpt lat="30.6963895" lon="35.6756438"><ele>1492.6</ele><time>2015-11-22T15:30:16.0000000+00:00</time></trkpt><trkpt lat="30.6963212" lon="35.6756482"><ele>1492.9</ele><time>2015-11-22T15:30:17.0000000+00:00</time></trkpt><trkpt lat="30.6962595" lon="35.6756609"><ele>1493.5</ele><time>2015-11-22T15:30:18.0000000+00:00</time></trkpt><trkpt lat="30.6962012" lon="35.6756648"><ele>1493.9</ele><time>2015-11-22T15:30:19.0000000+00:00</time></trkpt><trkpt lat="30.6961445" lon="35.6756789"><ele>1494.5</ele><time>2015-11-22T15:30:20.0000000+00:00</time></trkpt><trkpt lat="30.6960981" lon="35.6756935"><ele>1495.9</ele><time>2015-11-22T15:30:21.0000000+00:00</time></trkpt><trkpt lat="30.6960265" lon="35.6757204"><ele>1496.9</ele><time>2015-11-22T15:30:23.0000000+00:00</time></trkpt><trkpt lat="30.69597" lon="35.6757498"><ele>1497.1</ele><time>2015-11-22T15:30:25.0000000+00:00</time></trkpt><trkpt lat="30.6959243" lon="35.6757575"><ele>1497.2</ele><time>2015-11-22T15:30:27.0000000+00:00</time></trkpt><trkpt lat="30.695875" lon="35.6757716"><ele>1497.3</ele><time>2015-11-22T15:30:30.0000000+00:00</time></trkpt><trkpt lat="30.6958181" lon="35.6757957"><ele>1497.2</ele><time>2015-11-22T15:30:33.0000000+00:00</time></trkpt><trkpt lat="30.6957714" lon="35.6758136"><ele>1494.8</ele><time>2015-11-22T15:30:36.0000000+00:00</time></trkpt><trkpt lat="30.6957186" lon="35.6758452"><ele>1494.7</ele><time>2015-11-22T15:30:40.0000000+00:00</time></trkpt><trkpt lat="30.695677" lon="35.6758738"><ele>1495.6</ele><time>2015-11-22T15:30:43.0000000+00:00</time></trkpt><trkpt lat="30.695627" lon="35.6759074"><ele>1495.7</ele><time>2015-11-22T15:30:47.0000000+00:00</time></trkpt><trkpt lat="30.6955793" lon="35.6759399"><ele>1497.8</ele><time>2015-11-22T15:30:51.0000000+00:00</time></trkpt><trkpt lat="30.6955407" lon="35.6759856"><ele>1498.9</ele><time>2015-11-22T15:30:55.0000000+00:00</time></trkpt><trkpt lat="30.6954928" lon="35.6760154"><ele>1501.4</ele><time>2015-11-22T15:30:59.0000000+00:00</time></trkpt><trkpt lat="30.6954536" lon="35.6760514"><ele>1501.2</ele><time>2015-11-22T15:31:03.0000000+00:00</time></trkpt><trkpt lat="30.6954123" lon="35.6760879"><ele>1501.2</ele><time>2015-11-22T15:31:07.0000000+00:00</time></trkpt><trkpt lat="30.6953655" lon="35.6761279"><ele>1503.0</ele><time>2015-11-22T15:31:11.0000000+00:00</time></trkpt><trkpt lat="30.6953247" lon="35.6761738"><ele>1503.4</ele><time>2015-11-22T15:31:15.0000000+00:00</time></trkpt><trkpt lat="30.6952859" lon="35.6762261"><ele>1505.1</ele><time>2015-11-22T15:31:19.0000000+00:00</time></trkpt><trkpt lat="30.6952354" lon="35.6762645"><ele>1505.8</ele><time>2015-11-22T15:31:23.0000000+00:00</time></trkpt><trkpt lat="30.6951895" lon="35.6763068"><ele>1505.3</ele><time>2015-11-22T15:31:27.0000000+00:00</time></trkpt><trkpt lat="30.6951519" lon="35.6763423"><ele>1505.1</ele><time>2015-11-22T15:31:30.0000000+00:00</time></trkpt><trkpt lat="30.6951098" lon="35.6763813"><ele>1505.9</ele><time>2015-11-22T15:31:33.0000000+00:00</time></trkpt><trkpt lat="30.6950716" lon="35.676424"><ele>1505.8</ele><time>2015-11-22T15:31:36.0000000+00:00</time></trkpt><trkpt lat="30.6950333" lon="35.6764594"><ele>1504.8</ele><time>2015-11-22T15:31:39.0000000+00:00</time></trkpt><trkpt lat="30.6949936" lon="35.6764986"><ele>1505.1</ele><time>2015-11-22T15:31:42.0000000+00:00</time></trkpt><trkpt lat="30.6949504" lon="35.6765389"><ele>1505.6</ele><time>2015-11-22T15:31:45.0000000+00:00</time></trkpt><trkpt lat="30.6949098" lon="35.676579"><ele>1505.4</ele><time>2015-11-22T15:31:48.0000000+00:00</time></trkpt><trkpt lat="30.6948735" lon="35.6766152"><ele>1502.7</ele><time>2015-11-22T15:31:51.0000000+00:00</time></trkpt><trkpt lat="30.6948368" lon="35.6766529"><ele>1502.8</ele><time>2015-11-22T15:31:54.0000000+00:00</time></trkpt><trkpt lat="30.69479" lon="35.6766851"><ele>1503.9</ele><time>2015-11-22T15:31:57.0000000+00:00</time></trkpt><trkpt lat="30.6947396" lon="35.6767126"><ele>1504.2</ele><time>2015-11-22T15:32:00.0000000+00:00</time></trkpt><trkpt lat="30.6946926" lon="35.6767499"><ele>1503.8</ele><time>2015-11-22T15:32:03.0000000+00:00</time></trkpt><trkpt lat="30.6946371" lon="35.676781"><ele>1504.9</ele><time>2015-11-22T15:32:06.0000000+00:00</time></trkpt><trkpt lat="30.6945815" lon="35.6768129"><ele>1505.5</ele><time>2015-11-22T15:32:09.0000000+00:00</time></trkpt><trkpt lat="30.694529" lon="35.6768512"><ele>1505.1</ele><time>2015-11-22T15:32:12.0000000+00:00</time></trkpt><trkpt lat="30.6944754" lon="35.6768792"><ele>1505.7</ele><time>2015-11-22T15:32:15.0000000+00:00</time></trkpt><trkpt lat="30.6944181" lon="35.6769012"><ele>1506.9</ele><time>2015-11-22T15:32:18.0000000+00:00</time></trkpt><trkpt lat="30.6943665" lon="35.6769228"><ele>1507.9</ele><time>2015-11-22T15:32:21.0000000+00:00</time></trkpt><trkpt lat="30.6943219" lon="35.6769458"><ele>1509.4</ele><time>2015-11-22T15:32:24.0000000+00:00</time></trkpt><trkpt lat="30.6942773" lon="35.6769715"><ele>1510.1</ele><time>2015-11-22T15:32:27.0000000+00:00</time></trkpt><trkpt lat="30.6942346" lon="35.676999"><ele>1510.2</ele><time>2015-11-22T15:32:30.0000000+00:00</time></trkpt><trkpt lat="30.6941914" lon="35.6770244"><ele>1510.9</ele><time>2015-11-22T15:32:33.0000000+00:00</time></trkpt><trkpt lat="30.6941488" lon="35.6770562"><ele>1512.0</ele><time>2015-11-22T15:32:36.0000000+00:00</time></trkpt><trkpt lat="30.6941057" lon="35.677093"><ele>1512.7</ele><time>2015-11-22T15:32:39.0000000+00:00</time></trkpt><trkpt lat="30.694068" lon="35.6771329"><ele>1513.6</ele><time>2015-11-22T15:32:42.0000000+00:00</time></trkpt><trkpt lat="30.6940248" lon="35.6771556"><ele>1513.9</ele><time>2015-11-22T15:32:45.0000000+00:00</time></trkpt><trkpt lat="30.6939809" lon="35.6771792"><ele>1514.7</ele><time>2015-11-22T15:32:48.0000000+00:00</time></trkpt><trkpt lat="30.6939438" lon="35.6772169"><ele>1514.6</ele><time>2015-11-22T15:32:51.0000000+00:00</time></trkpt><trkpt lat="30.693905" lon="35.6772536"><ele>1514.3</ele><time>2015-11-22T15:32:54.0000000+00:00</time></trkpt><trkpt lat="30.6938644" lon="35.6772899"><ele>1514.3</ele><time>2015-11-22T15:32:57.0000000+00:00</time></trkpt><trkpt lat="30.6938257" lon="35.6773222"><ele>1514.0</ele><time>2015-11-22T15:33:00.0000000+00:00</time></trkpt><trkpt lat="30.693789" lon="35.6773635"><ele>1514.7</ele><time>2015-11-22T15:33:03.0000000+00:00</time></trkpt><trkpt lat="30.6937499" lon="35.677403"><ele>1515.6</ele><time>2015-11-22T15:33:06.0000000+00:00</time></trkpt><trkpt lat="30.6937085" lon="35.6774452"><ele>1516.9</ele><time>2015-11-22T15:33:09.0000000+00:00</time></trkpt><trkpt lat="30.6936664" lon="35.6774841"><ele>1516.7</ele><time>2015-11-22T15:33:12.0000000+00:00</time></trkpt><trkpt lat="30.6936236" lon="35.6775193"><ele>1517.6</ele><time>2015-11-22T15:33:15.0000000+00:00</time></trkpt><trkpt lat="30.6935823" lon="35.6775584"><ele>1518.5</ele><time>2015-11-22T15:33:18.0000000+00:00</time></trkpt><trkpt lat="30.6935444" lon="35.6775981"><ele>1518.4</ele><time>2015-11-22T15:33:21.0000000+00:00</time></trkpt><trkpt lat="30.6935045" lon="35.6776315"><ele>1519.6</ele><time>2015-11-22T15:33:24.0000000+00:00</time></trkpt><trkpt lat="30.6934656" lon="35.677665"><ele>1519.8</ele><time>2015-11-22T15:33:27.0000000+00:00</time></trkpt><trkpt lat="30.6934212" lon="35.6776995"><ele>1521.0</ele><time>2015-11-22T15:33:31.0000000+00:00</time></trkpt><trkpt lat="30.6933752" lon="35.6777352"><ele>1519.7</ele><time>2015-11-22T15:33:36.0000000+00:00</time></trkpt><trkpt lat="30.6933399" lon="35.6777685"><ele>1519.5</ele><time>2015-11-22T15:33:40.0000000+00:00</time></trkpt><trkpt lat="30.6933067" lon="35.6778061"><ele>1519.8</ele><time>2015-11-22T15:33:44.0000000+00:00</time></trkpt><trkpt lat="30.6932579" lon="35.6778361"><ele>1519.7</ele><time>2015-11-22T15:33:48.0000000+00:00</time></trkpt><trkpt lat="30.6932101" lon="35.6778776"><ele>1521.0</ele><time>2015-11-22T15:33:52.0000000+00:00</time></trkpt><trkpt lat="30.6931702" lon="35.67791"><ele>1522.4</ele><time>2015-11-22T15:33:55.0000000+00:00</time></trkpt><trkpt lat="30.6931284" lon="35.6779412"><ele>1523.7</ele><time>2015-11-22T15:33:58.0000000+00:00</time></trkpt><trkpt lat="30.693091" lon="35.677972"><ele>1523.3</ele><time>2015-11-22T15:34:01.0000000+00:00</time></trkpt><trkpt lat="30.6930482" lon="35.6780208"><ele>1524.0</ele><time>2015-11-22T15:34:05.0000000+00:00</time></trkpt><trkpt lat="30.6930018" lon="35.6780583"><ele>1523.7</ele><time>2015-11-22T15:34:09.0000000+00:00</time></trkpt><trkpt lat="30.6929559" lon="35.6780929"><ele>1521.9</ele><time>2015-11-22T15:34:13.0000000+00:00</time></trkpt><trkpt lat="30.6929263" lon="35.6781328"><ele>1522.2</ele><time>2015-11-22T15:34:16.0000000+00:00</time></trkpt><trkpt lat="30.6928937" lon="35.6781717"><ele>1524.8</ele><time>2015-11-22T15:34:19.0000000+00:00</time></trkpt><trkpt lat="30.6928546" lon="35.678209"><ele>1527.4</ele><time>2015-11-22T15:34:22.0000000+00:00</time></trkpt><trkpt lat="30.692821" lon="35.6782508"><ele>1527.7</ele><time>2015-11-22T15:34:25.0000000+00:00</time></trkpt><trkpt lat="30.6927875" lon="35.6782863"><ele>1528.3</ele><time>2015-11-22T15:34:28.0000000+00:00</time></trkpt><trkpt lat="30.692737" lon="35.6783224"><ele>1529.2</ele><time>2015-11-22T15:34:32.0000000+00:00</time></trkpt><trkpt lat="30.6927022" lon="35.6783759"><ele>1528.8</ele><time>2015-11-22T15:34:36.0000000+00:00</time></trkpt><trkpt lat="30.6926587" lon="35.678422"><ele>1528.9</ele><time>2015-11-22T15:34:40.0000000+00:00</time></trkpt><trkpt lat="30.6926238" lon="35.6784573"><ele>1529.3</ele><time>2015-11-22T15:34:43.0000000+00:00</time></trkpt><trkpt lat="30.6925851" lon="35.6784861"><ele>1530.8</ele><time>2015-11-22T15:34:46.0000000+00:00</time></trkpt><trkpt lat="30.6925366" lon="35.678527"><ele>1531.2</ele><time>2015-11-22T15:34:50.0000000+00:00</time></trkpt><trkpt lat="30.6924997" lon="35.6785645"><ele>1530.9</ele><time>2015-11-22T15:34:53.0000000+00:00</time></trkpt><trkpt lat="30.6924543" lon="35.6786028"><ele>1530.3</ele><time>2015-11-22T15:34:57.0000000+00:00</time></trkpt><trkpt lat="30.6924157" lon="35.6786315"><ele>1532.6</ele><time>2015-11-22T15:35:00.0000000+00:00</time></trkpt><trkpt lat="30.6923796" lon="35.6786642"><ele>1535.5</ele><time>2015-11-22T15:35:03.0000000+00:00</time></trkpt><trkpt lat="30.6923447" lon="35.6787099"><ele>1536.1</ele><time>2015-11-22T15:35:06.0000000+00:00</time></trkpt><trkpt lat="30.6923102" lon="35.6787498"><ele>1536.9</ele><time>2015-11-22T15:35:09.0000000+00:00</time></trkpt><trkpt lat="30.6922785" lon="35.6787915"><ele>1536.3</ele><time>2015-11-22T15:35:12.0000000+00:00</time></trkpt><trkpt lat="30.6922374" lon="35.678838"><ele>1534.8</ele><time>2015-11-22T15:35:16.0000000+00:00</time></trkpt><trkpt lat="30.6921926" lon="35.6788835"><ele>1536.9</ele><time>2015-11-22T15:35:20.0000000+00:00</time></trkpt><trkpt lat="30.6921568" lon="35.6789402"><ele>1537.7</ele><time>2015-11-22T15:35:24.0000000+00:00</time></trkpt><trkpt lat="30.6921245" lon="35.678981"><ele>1539.4</ele><time>2015-11-22T15:35:27.0000000+00:00</time></trkpt><trkpt lat="30.6920917" lon="35.6790378"><ele>1539.2</ele><time>2015-11-22T15:35:31.0000000+00:00</time></trkpt><trkpt lat="30.6920639" lon="35.6790795"><ele>1538.3</ele><time>2015-11-22T15:35:34.0000000+00:00</time></trkpt><trkpt lat="30.6920318" lon="35.6791161"><ele>1537.3</ele><time>2015-11-22T15:35:37.0000000+00:00</time></trkpt><trkpt lat="30.6919849" lon="35.6791573"><ele>1538.9</ele><time>2015-11-22T15:35:41.0000000+00:00</time></trkpt><trkpt lat="30.6919512" lon="35.6791945"><ele>1539.3</ele><time>2015-11-22T15:35:44.0000000+00:00</time></trkpt><trkpt lat="30.6919184" lon="35.6792342"><ele>1540.6</ele><time>2015-11-22T15:35:47.0000000+00:00</time></trkpt><trkpt lat="30.6918845" lon="35.6792776"><ele>1540.0</ele><time>2015-11-22T15:35:50.0000000+00:00</time></trkpt><trkpt lat="30.6918444" lon="35.6793278"><ele>1540.7</ele><time>2015-11-22T15:35:53.0000000+00:00</time></trkpt><trkpt lat="30.6918054" lon="35.6793717"><ele>1541.3</ele><time>2015-11-22T15:35:56.0000000+00:00</time></trkpt><trkpt lat="30.691773" lon="35.6794125"><ele>1540.0</ele><time>2015-11-22T15:35:59.0000000+00:00</time></trkpt><trkpt lat="30.6917356" lon="35.6794522"><ele>1538.0</ele><time>2015-11-22T15:36:02.0000000+00:00</time></trkpt><trkpt lat="30.6916997" lon="35.6794973"><ele>1536.8</ele><time>2015-11-22T15:36:05.0000000+00:00</time></trkpt><trkpt lat="30.6916654" lon="35.6795433"><ele>1535.9</ele><time>2015-11-22T15:36:08.0000000+00:00</time></trkpt><trkpt lat="30.691634" lon="35.6795878"><ele>1535.8</ele><time>2015-11-22T15:36:11.0000000+00:00</time></trkpt><trkpt lat="30.6916002" lon="35.6796297"><ele>1537.4</ele><time>2015-11-22T15:36:14.0000000+00:00</time></trkpt><trkpt lat="30.6915632" lon="35.679668"><ele>1538.1</ele><time>2015-11-22T15:36:17.0000000+00:00</time></trkpt><trkpt lat="30.691525" lon="35.6797088"><ele>1538.7</ele><time>2015-11-22T15:36:20.0000000+00:00</time></trkpt><trkpt lat="30.691489" lon="35.6797554"><ele>1539.1</ele><time>2015-11-22T15:36:23.0000000+00:00</time></trkpt><trkpt lat="30.691448" lon="35.6798061"><ele>1539.1</ele><time>2015-11-22T15:36:26.0000000+00:00</time></trkpt><trkpt lat="30.6914057" lon="35.6798592"><ele>1538.9</ele><time>2015-11-22T15:36:29.0000000+00:00</time></trkpt><trkpt lat="30.6913667" lon="35.6799133"><ele>1539.7</ele><time>2015-11-22T15:36:32.0000000+00:00</time></trkpt><trkpt lat="30.6913285" lon="35.6799691"><ele>1540.4</ele><time>2015-11-22T15:36:35.0000000+00:00</time></trkpt><trkpt lat="30.6912917" lon="35.6800269"><ele>1540.3</ele><time>2015-11-22T15:36:38.0000000+00:00</time></trkpt><trkpt lat="30.691261" lon="35.6800753"><ele>1539.3</ele><time>2015-11-22T15:36:41.0000000+00:00</time></trkpt><trkpt lat="30.6912359" lon="35.6801197"><ele>1536.5</ele><time>2015-11-22T15:38:38.0000000+00:00</time></trkpt><trkpt lat="30.6912037" lon="35.680178"><ele>1539.3</ele><time>2015-11-22T15:38:53.0000000+00:00</time></trkpt><trkpt lat="30.6911612" lon="35.680236"><ele>1539.7</ele><time>2015-11-22T15:38:56.0000000+00:00</time></trkpt><trkpt lat="30.6911174" lon="35.6802885"><ele>1539.6</ele><time>2015-11-22T15:38:58.0000000+00:00</time></trkpt><trkpt lat="30.6910688" lon="35.6803418"><ele>1538.0</ele><time>2015-11-22T15:39:00.0000000+00:00</time></trkpt><trkpt lat="30.6910111" lon="35.6804011"><ele>1536.9</ele><time>2015-11-22T15:39:02.0000000+00:00</time></trkpt><trkpt lat="30.6909566" lon="35.6804621"><ele>1536.6</ele><time>2015-11-22T15:39:03.0000000+00:00</time></trkpt><trkpt lat="30.6909208" lon="35.6805063"><ele>1535.9</ele><time>2015-11-22T15:39:04.0000000+00:00</time></trkpt><trkpt lat="30.6908826" lon="35.6805497"><ele>1535.0</ele><time>2015-11-22T15:39:05.0000000+00:00</time></trkpt><trkpt lat="30.6908444" lon="35.6806"><ele>1534.1</ele><time>2015-11-22T15:39:06.0000000+00:00</time></trkpt><trkpt lat="30.6908015" lon="35.680652"><ele>1533.7</ele><time>2015-11-22T15:39:07.0000000+00:00</time></trkpt><trkpt lat="30.6907646" lon="35.6807166"><ele>1532.9</ele><time>2015-11-22T15:39:08.0000000+00:00</time></trkpt><trkpt lat="30.6907295" lon="35.6807768"><ele>1532.1</ele><time>2015-11-22T15:39:09.0000000+00:00</time></trkpt><trkpt lat="30.6906883" lon="35.6808344"><ele>1531.1</ele><time>2015-11-22T15:39:10.0000000+00:00</time></trkpt><trkpt lat="30.6906388" lon="35.6809054"><ele>1530.2</ele><time>2015-11-22T15:39:11.0000000+00:00</time></trkpt><trkpt lat="30.6905754" lon="35.6809787"><ele>1529.2</ele><time>2015-11-22T15:39:12.0000000+00:00</time></trkpt><trkpt lat="30.6905162" lon="35.6810528"><ele>1528.7</ele><time>2015-11-22T15:39:13.0000000+00:00</time></trkpt><trkpt lat="30.6904498" lon="35.6811253"><ele>1527.4</ele><time>2015-11-22T15:39:14.0000000+00:00</time></trkpt><trkpt lat="30.690383" lon="35.6812058"><ele>1526.3</ele><time>2015-11-22T15:39:15.0000000+00:00</time></trkpt><trkpt lat="30.6903161" lon="35.681279"><ele>1524.8</ele><time>2015-11-22T15:39:16.0000000+00:00</time></trkpt><trkpt lat="30.6902473" lon="35.6813491"><ele>1523.0</ele><time>2015-11-22T15:39:17.0000000+00:00</time></trkpt><trkpt lat="30.6901746" lon="35.6814131"><ele>1522.1</ele><time>2015-11-22T15:39:18.0000000+00:00</time></trkpt><trkpt lat="30.6900968" lon="35.6814817"><ele>1521.6</ele><time>2015-11-22T15:39:19.0000000+00:00</time></trkpt><trkpt lat="30.6900196" lon="35.6815339"><ele>1520.9</ele><time>2015-11-22T15:39:20.0000000+00:00</time></trkpt><trkpt lat="30.6899501" lon="35.6815689"><ele>1520.1</ele><time>2015-11-22T15:39:21.0000000+00:00</time></trkpt><trkpt lat="30.6898748" lon="35.6815938"><ele>1519.6</ele><time>2015-11-22T15:39:22.0000000+00:00</time></trkpt><trkpt lat="30.6898018" lon="35.6816198"><ele>1518.9</ele><time>2015-11-22T15:39:23.0000000+00:00</time></trkpt><trkpt lat="30.6897216" lon="35.6816429"><ele>1518.6</ele><time>2015-11-22T15:39:24.0000000+00:00</time></trkpt><trkpt lat="30.6896558" lon="35.6816774"><ele>1517.9</ele><time>2015-11-22T15:39:25.0000000+00:00</time></trkpt><trkpt lat="30.6895899" lon="35.681728"><ele>1517.5</ele><time>2015-11-22T15:39:26.0000000+00:00</time></trkpt><trkpt lat="30.6895254" lon="35.6817804"><ele>1517.9</ele><time>2015-11-22T15:39:27.0000000+00:00</time></trkpt><trkpt lat="30.6894686" lon="35.6818311"><ele>1517.5</ele><time>2015-11-22T15:39:28.0000000+00:00</time></trkpt><trkpt lat="30.6894095" lon="35.6818676"><ele>1516.9</ele><time>2015-11-22T15:39:29.0000000+00:00</time></trkpt><trkpt lat="30.6893418" lon="35.6818917"><ele>1516.5</ele><time>2015-11-22T15:39:30.0000000+00:00</time></trkpt><trkpt lat="30.6892615" lon="35.6819115"><ele>1516.4</ele><time>2015-11-22T15:39:31.0000000+00:00</time></trkpt><trkpt lat="30.6891821" lon="35.6819347"><ele>1515.8</ele><time>2015-11-22T15:39:32.0000000+00:00</time></trkpt><trkpt lat="30.6891013" lon="35.6819551"><ele>1515.0</ele><time>2015-11-22T15:39:33.0000000+00:00</time></trkpt><trkpt lat="30.6890364" lon="35.6819901"><ele>1514.1</ele><time>2015-11-22T15:39:34.0000000+00:00</time></trkpt><trkpt lat="30.6889724" lon="35.6820194"><ele>1513.1</ele><time>2015-11-22T15:39:35.0000000+00:00</time></trkpt><trkpt lat="30.6889133" lon="35.6820472"><ele>1512.2</ele><time>2015-11-22T15:39:36.0000000+00:00</time></trkpt><trkpt lat="30.6888635" lon="35.6820687"><ele>1511.7</ele><time>2015-11-22T15:39:37.0000000+00:00</time></trkpt><trkpt lat="30.6888228" lon="35.6821"><ele>1511.4</ele><time>2015-11-22T15:39:38.0000000+00:00</time></trkpt><trkpt lat="30.6887805" lon="35.6821227"><ele>1511.3</ele><time>2015-11-22T15:39:39.0000000+00:00</time></trkpt><trkpt lat="30.6887384" lon="35.6821518"><ele>1510.8</ele><time>2015-11-22T15:39:40.0000000+00:00</time></trkpt><trkpt lat="30.6886966" lon="35.6821848"><ele>1510.5</ele><time>2015-11-22T15:39:41.0000000+00:00</time></trkpt><trkpt lat="30.6886245" lon="35.6822526"><ele>1508.8</ele><time>2015-11-22T15:39:43.0000000+00:00</time></trkpt><trkpt lat="30.6885695" lon="35.6822884"><ele>1508.5</ele><time>2015-11-22T15:39:44.0000000+00:00</time></trkpt><trkpt lat="30.688529" lon="35.682329"><ele>1507.8</ele><time>2015-11-22T15:39:45.0000000+00:00</time></trkpt><trkpt lat="30.6884792" lon="35.6823834"><ele>1507.5</ele><time>2015-11-22T15:39:46.0000000+00:00</time></trkpt><trkpt lat="30.6884226" lon="35.6824364"><ele>1507.4</ele><time>2015-11-22T15:39:47.0000000+00:00</time></trkpt><trkpt lat="30.6883786" lon="35.6825006"><ele>1507.3</ele><time>2015-11-22T15:39:48.0000000+00:00</time></trkpt><trkpt lat="30.6883204" lon="35.6825642"><ele>1507.7</ele><time>2015-11-22T15:39:49.0000000+00:00</time></trkpt><trkpt lat="30.6882609" lon="35.682624"><ele>1508.0</ele><time>2015-11-22T15:39:50.0000000+00:00</time></trkpt><trkpt lat="30.6882115" lon="35.682679"><ele>1507.1</ele><time>2015-11-22T15:39:51.0000000+00:00</time></trkpt><trkpt lat="30.688146" lon="35.6827484"><ele>1507.1</ele><time>2015-11-22T15:39:52.0000000+00:00</time></trkpt><trkpt lat="30.6880902" lon="35.6828235"><ele>1506.7</ele><time>2015-11-22T15:39:53.0000000+00:00</time></trkpt><trkpt lat="30.6880377" lon="35.6828991"><ele>1505.4</ele><time>2015-11-22T15:39:54.0000000+00:00</time></trkpt><trkpt lat="30.687995" lon="35.6829546"><ele>1505.3</ele><time>2015-11-22T15:39:55.0000000+00:00</time></trkpt><trkpt lat="30.6879639" lon="35.6830051"><ele>1504.8</ele><time>2015-11-22T15:39:56.0000000+00:00</time></trkpt><trkpt lat="30.6879283" lon="35.6830406"><ele>1504.1</ele><time>2015-11-22T15:39:59.0000000+00:00</time></trkpt><trkpt lat="30.6878875" lon="35.6830977"><ele>1503.2</ele><time>2015-11-22T15:40:12.0000000+00:00</time></trkpt><trkpt lat="30.6878303" lon="35.6831564"><ele>1503.0</ele><time>2015-11-22T15:40:14.0000000+00:00</time></trkpt><trkpt lat="30.6877953" lon="35.6831907"><ele>1502.6</ele><time>2015-11-22T15:40:15.0000000+00:00</time></trkpt><trkpt lat="30.6877571" lon="35.6832244"><ele>1501.9</ele><time>2015-11-22T15:40:16.0000000+00:00</time></trkpt><trkpt lat="30.6877141" lon="35.683265"><ele>1501.5</ele><time>2015-11-22T15:40:17.0000000+00:00</time></trkpt><trkpt lat="30.687661" lon="35.6833072"><ele>1501.4</ele><time>2015-11-22T15:40:18.0000000+00:00</time></trkpt><trkpt lat="30.6876017" lon="35.6833531"><ele>1500.8</ele><time>2015-11-22T15:40:19.0000000+00:00</time></trkpt><trkpt lat="30.6875401" lon="35.6833984"><ele>1500.5</ele><time>2015-11-22T15:40:20.0000000+00:00</time></trkpt><trkpt lat="30.6874696" lon="35.6834358"><ele>1499.8</ele><time>2015-11-22T15:40:21.0000000+00:00</time></trkpt><trkpt lat="30.6874055" lon="35.6834867"><ele>1499.0</ele><time>2015-11-22T15:40:22.0000000+00:00</time></trkpt><trkpt lat="30.6873244" lon="35.6835281"><ele>1498.1</ele><time>2015-11-22T15:40:23.0000000+00:00</time></trkpt><trkpt lat="30.6872505" lon="35.6835908"><ele>1496.7</ele><time>2015-11-22T15:40:24.0000000+00:00</time></trkpt><trkpt lat="30.6871658" lon="35.6836503"><ele>1494.9</ele><time>2015-11-22T15:40:25.0000000+00:00</time></trkpt><trkpt lat="30.687076" lon="35.6837088"><ele>1493.6</ele><time>2015-11-22T15:40:26.0000000+00:00</time></trkpt><trkpt lat="30.6869841" lon="35.6837742"><ele>1491.9</ele><time>2015-11-22T15:40:27.0000000+00:00</time></trkpt><trkpt lat="30.6868928" lon="35.6838438"><ele>1490.5</ele><time>2015-11-22T15:40:28.0000000+00:00</time></trkpt><trkpt lat="30.6868018" lon="35.6839167"><ele>1488.9</ele><time>2015-11-22T15:40:29.0000000+00:00</time></trkpt><trkpt lat="30.6867037" lon="35.683993"><ele>1488.0</ele><time>2015-11-22T15:40:30.0000000+00:00</time></trkpt><trkpt lat="30.6866024" lon="35.6840534"><ele>1487.1</ele><time>2015-11-22T15:40:31.0000000+00:00</time></trkpt><trkpt lat="30.686515" lon="35.684106"><ele>1485.7</ele><time>2015-11-22T15:40:32.0000000+00:00</time></trkpt><trkpt lat="30.686416" lon="35.6841382"><ele>1484.4</ele><time>2015-11-22T15:40:33.0000000+00:00</time></trkpt><trkpt lat="30.6863152" lon="35.6841439"><ele>1482.8</ele><time>2015-11-22T15:40:34.0000000+00:00</time></trkpt><trkpt lat="30.6862151" lon="35.6841464"><ele>1482.0</ele><time>2015-11-22T15:40:35.0000000+00:00</time></trkpt><trkpt lat="30.6861059" lon="35.6841292"><ele>1480.6</ele><time>2015-11-22T15:40:36.0000000+00:00</time></trkpt><trkpt lat="30.6859936" lon="35.6841123"><ele>1479.4</ele><time>2015-11-22T15:40:37.0000000+00:00</time></trkpt><trkpt lat="30.6858846" lon="35.6841073"><ele>1478.8</ele><time>2015-11-22T15:40:38.0000000+00:00</time></trkpt><trkpt lat="30.6857598" lon="35.6841004"><ele>1478.0</ele><time>2015-11-22T15:40:39.0000000+00:00</time></trkpt><trkpt lat="30.6856374" lon="35.6840858"><ele>1476.6</ele><time>2015-11-22T15:40:40.0000000+00:00</time></trkpt><trkpt lat="30.6855235" lon="35.6840613"><ele>1475.9</ele><time>2015-11-22T15:40:41.0000000+00:00</time></trkpt><trkpt lat="30.6854258" lon="35.6840206"><ele>1475.1</ele><time>2015-11-22T15:40:42.0000000+00:00</time></trkpt><trkpt lat="30.6853406" lon="35.6839725"><ele>1474.1</ele><time>2015-11-22T15:40:43.0000000+00:00</time></trkpt><trkpt lat="30.6852662" lon="35.6838978"><ele>1473.2</ele><time>2015-11-22T15:40:44.0000000+00:00</time></trkpt><trkpt lat="30.685208" lon="35.683812"><ele>1472.2</ele><time>2015-11-22T15:40:45.0000000+00:00</time></trkpt><trkpt lat="30.6851542" lon="35.6837281"><ele>1471.7</ele><time>2015-11-22T15:40:46.0000000+00:00</time></trkpt><trkpt lat="30.6850887" lon="35.6836376"><ele>1470.4</ele><time>2015-11-22T15:40:47.0000000+00:00</time></trkpt><trkpt lat="30.6850308" lon="35.6835368"><ele>1469.8</ele><time>2015-11-22T15:40:48.0000000+00:00</time></trkpt><trkpt lat="30.6849682" lon="35.6834432"><ele>1469.0</ele><time>2015-11-22T15:40:49.0000000+00:00</time></trkpt><trkpt lat="30.6849016" lon="35.6833357"><ele>1468.1</ele><time>2015-11-22T15:40:50.0000000+00:00</time></trkpt><trkpt lat="30.684837" lon="35.6832354"><ele>1467.7</ele><time>2015-11-22T15:40:51.0000000+00:00</time></trkpt><trkpt lat="30.6847804" lon="35.683127"><ele>1467.4</ele><time>2015-11-22T15:40:52.0000000+00:00</time></trkpt><trkpt lat="30.6847143" lon="35.6830195"><ele>1467.3</ele><time>2015-11-22T15:40:53.0000000+00:00</time></trkpt><trkpt lat="30.6846538" lon="35.6829107"><ele>1466.8</ele><time>2015-11-22T15:40:54.0000000+00:00</time></trkpt><trkpt lat="30.6845947" lon="35.6828035"><ele>1466.0</ele><time>2015-11-22T15:40:55.0000000+00:00</time></trkpt><trkpt lat="30.6845334" lon="35.6826942"><ele>1465.6</ele><time>2015-11-22T15:40:56.0000000+00:00</time></trkpt><trkpt lat="30.6844729" lon="35.6825807"><ele>1465.4</ele><time>2015-11-22T15:40:57.0000000+00:00</time></trkpt><trkpt lat="30.6844155" lon="35.6824698"><ele>1464.8</ele><time>2015-11-22T15:40:58.0000000+00:00</time></trkpt><trkpt lat="30.6843594" lon="35.6823502"><ele>1464.5</ele><time>2015-11-22T15:40:59.0000000+00:00</time></trkpt><trkpt lat="30.6843119" lon="35.6822364"><ele>1464.4</ele><time>2015-11-22T15:41:00.0000000+00:00</time></trkpt><trkpt lat="30.6842636" lon="35.6821223"><ele>1464.3</ele><time>2015-11-22T15:41:01.0000000+00:00</time></trkpt><trkpt lat="30.6842115" lon="35.6820019"><ele>1464.2</ele><time>2015-11-22T15:41:02.0000000+00:00</time></trkpt><trkpt lat="30.6841666" lon="35.681878"><ele>1463.7</ele><time>2015-11-22T15:41:03.0000000+00:00</time></trkpt><trkpt lat="30.6841117" lon="35.6817617"><ele>1463.0</ele><time>2015-11-22T15:41:04.0000000+00:00</time></trkpt><trkpt lat="30.684057" lon="35.6816432"><ele>1461.6</ele><time>2015-11-22T15:41:05.0000000+00:00</time></trkpt><trkpt lat="30.6840052" lon="35.6815277"><ele>1460.9</ele><time>2015-11-22T15:41:06.0000000+00:00</time></trkpt><trkpt lat="30.6839565" lon="35.6814048"><ele>1460.5</ele><time>2015-11-22T15:41:07.0000000+00:00</time></trkpt><trkpt lat="30.6839076" lon="35.6812842"><ele>1460.4</ele><time>2015-11-22T15:41:08.0000000+00:00</time></trkpt><trkpt lat="30.6838682" lon="35.6811644"><ele>1460.3</ele><time>2015-11-22T15:41:09.0000000+00:00</time></trkpt><trkpt lat="30.6838308" lon="35.6810498"><ele>1459.7</ele><time>2015-11-22T15:41:10.0000000+00:00</time></trkpt><trkpt lat="30.6838104" lon="35.6809203"><ele>1459.0</ele><time>2015-11-22T15:41:11.0000000+00:00</time></trkpt><trkpt lat="30.6837786" lon="35.6807995"><ele>1458.1</ele><time>2015-11-22T15:41:12.0000000+00:00</time></trkpt><trkpt lat="30.6837431" lon="35.6806854"><ele>1457.1</ele><time>2015-11-22T15:41:13.0000000+00:00</time></trkpt><trkpt lat="30.6837141" lon="35.680562"><ele>1456.7</ele><time>2015-11-22T15:41:14.0000000+00:00</time></trkpt><trkpt lat="30.6836815" lon="35.6804438"><ele>1456.9</ele><time>2015-11-22T15:41:15.0000000+00:00</time></trkpt><trkpt lat="30.683653" lon="35.680318"><ele>1456.6</ele><time>2015-11-22T15:41:16.0000000+00:00</time></trkpt><trkpt lat="30.6836281" lon="35.6802035"><ele>1456.4</ele><time>2015-11-22T15:41:17.0000000+00:00</time></trkpt><trkpt lat="30.6835973" lon="35.6800789"><ele>1456.3</ele><time>2015-11-22T15:41:18.0000000+00:00</time></trkpt><trkpt lat="30.6835634" lon="35.6799554"><ele>1455.7</ele><time>2015-11-22T15:41:19.0000000+00:00</time></trkpt><trkpt lat="30.6835436" lon="35.6798389"><ele>1455.5</ele><time>2015-11-22T15:41:20.0000000+00:00</time></trkpt><trkpt lat="30.6835078" lon="35.6797238"><ele>1455.3</ele><time>2015-11-22T15:41:21.0000000+00:00</time></trkpt><trkpt lat="30.6834641" lon="35.679599"><ele>1454.8</ele><time>2015-11-22T15:41:22.0000000+00:00</time></trkpt><trkpt lat="30.6834367" lon="35.6794707"><ele>1455.0</ele><time>2015-11-22T15:41:23.0000000+00:00</time></trkpt><trkpt lat="30.6834129" lon="35.67935"><ele>1455.6</ele><time>2015-11-22T15:41:24.0000000+00:00</time></trkpt><trkpt lat="30.6833772" lon="35.6792507"><ele>1455.9</ele><time>2015-11-22T15:41:25.0000000+00:00</time></trkpt><trkpt lat="30.6833397" lon="35.6791396"><ele>1456.0</ele><time>2015-11-22T15:41:26.0000000+00:00</time></trkpt><trkpt lat="30.6833012" lon="35.6790219"><ele>1456.1</ele><time>2015-11-22T15:41:27.0000000+00:00</time></trkpt><trkpt lat="30.6832645" lon="35.6789109"><ele>1456.2</ele><time>2015-11-22T15:41:28.0000000+00:00</time></trkpt><trkpt lat="30.683225" lon="35.6788109"><ele>1456.2</ele><time>2015-11-22T15:41:29.0000000+00:00</time></trkpt><trkpt lat="30.6831832" lon="35.6787058"><ele>1456.2</ele><time>2015-11-22T15:41:30.0000000+00:00</time></trkpt><trkpt lat="30.6831264" lon="35.6786082"><ele>1455.7</ele><time>2015-11-22T15:41:31.0000000+00:00</time></trkpt><trkpt lat="30.6830699" lon="35.6785223"><ele>1455.4</ele><time>2015-11-22T15:41:32.0000000+00:00</time></trkpt><trkpt lat="30.6830155" lon="35.6784378"><ele>1455.3</ele><time>2015-11-22T15:41:33.0000000+00:00</time></trkpt><trkpt lat="30.6829494" lon="35.6783507"><ele>1455.3</ele><time>2015-11-22T15:41:34.0000000+00:00</time></trkpt><trkpt lat="30.6828954" lon="35.6782699"><ele>1454.7</ele><time>2015-11-22T15:41:35.0000000+00:00</time></trkpt><trkpt lat="30.6828388" lon="35.6781792"><ele>1454.5</ele><time>2015-11-22T15:41:36.0000000+00:00</time></trkpt><trkpt lat="30.6827737" lon="35.6780909"><ele>1454.3</ele><time>2015-11-22T15:41:37.0000000+00:00</time></trkpt><trkpt lat="30.6827075" lon="35.678015"><ele>1454.3</ele><time>2015-11-22T15:41:38.0000000+00:00</time></trkpt><trkpt lat="30.6826423" lon="35.6779393"><ele>1454.2</ele><time>2015-11-22T15:41:39.0000000+00:00</time></trkpt><trkpt lat="30.6825729" lon="35.6778627"><ele>1454.2</ele><time>2015-11-22T15:41:40.0000000+00:00</time></trkpt><trkpt lat="30.6825062" lon="35.6777808"><ele>1454.2</ele><time>2015-11-22T15:41:41.0000000+00:00</time></trkpt><trkpt lat="30.6824356" lon="35.6776985"><ele>1454.2</ele><time>2015-11-22T15:41:42.0000000+00:00</time></trkpt><trkpt lat="30.6823633" lon="35.677615"><ele>1453.7</ele><time>2015-11-22T15:41:43.0000000+00:00</time></trkpt><trkpt lat="30.6822973" lon="35.6775328"><ele>1454.0</ele><time>2015-11-22T15:41:44.0000000+00:00</time></trkpt><trkpt lat="30.6822344" lon="35.6774543"><ele>1453.6</ele><time>2015-11-22T15:41:45.0000000+00:00</time></trkpt><trkpt lat="30.6821609" lon="35.6773718"><ele>1453.4</ele><time>2015-11-22T15:41:46.0000000+00:00</time></trkpt><trkpt lat="30.6820908" lon="35.6772917"><ele>1453.3</ele><time>2015-11-22T15:41:47.0000000+00:00</time></trkpt><trkpt lat="30.682021" lon="35.6772115"><ele>1453.2</ele><time>2015-11-22T15:41:48.0000000+00:00</time></trkpt><trkpt lat="30.6819513" lon="35.6771338"><ele>1453.2</ele><time>2015-11-22T15:41:49.0000000+00:00</time></trkpt><trkpt lat="30.6818906" lon="35.6770495"><ele>1453.2</ele><time>2015-11-22T15:41:50.0000000+00:00</time></trkpt><trkpt lat="30.6818251" lon="35.6769717"><ele>1453.2</ele><time>2015-11-22T15:41:51.0000000+00:00</time></trkpt><trkpt lat="30.6817681" lon="35.6768947"><ele>1452.2</ele><time>2015-11-22T15:41:52.0000000+00:00</time></trkpt><trkpt lat="30.6816941" lon="35.6768359"><ele>1451.2</ele><time>2015-11-22T15:41:53.0000000+00:00</time></trkpt><trkpt lat="30.6816274" lon="35.6767668"><ele>1450.2</ele><time>2015-11-22T15:41:54.0000000+00:00</time></trkpt><trkpt lat="30.6815435" lon="35.6766929"><ele>1449.7</ele><time>2015-11-22T15:41:55.0000000+00:00</time></trkpt><trkpt lat="30.6814738" lon="35.6766254"><ele>1449.5</ele><time>2015-11-22T15:41:56.0000000+00:00</time></trkpt><trkpt lat="30.6813978" lon="35.6765535"><ele>1449.3</ele><time>2015-11-22T15:41:57.0000000+00:00</time></trkpt><trkpt lat="30.6813262" lon="35.676496"><ele>1450.3</ele><time>2015-11-22T15:41:58.0000000+00:00</time></trkpt><trkpt lat="30.6812503" lon="35.676428"><ele>1450.2</ele><time>2015-11-22T15:41:59.0000000+00:00</time></trkpt><trkpt lat="30.6811742" lon="35.6763499"><ele>1450.2</ele><time>2015-11-22T15:42:00.0000000+00:00</time></trkpt><trkpt lat="30.6811063" lon="35.6762905"><ele>1450.2</ele><time>2015-11-22T15:42:01.0000000+00:00</time></trkpt><trkpt lat="30.6810407" lon="35.6762257"><ele>1449.7</ele><time>2015-11-22T15:42:02.0000000+00:00</time></trkpt><trkpt lat="30.6809711" lon="35.6761728"><ele>1449.5</ele><time>2015-11-22T15:42:03.0000000+00:00</time></trkpt><trkpt lat="30.6808929" lon="35.6761021"><ele>1448.8</ele><time>2015-11-22T15:42:04.0000000+00:00</time></trkpt><trkpt lat="30.6808189" lon="35.6760479"><ele>1448.5</ele><time>2015-11-22T15:42:05.0000000+00:00</time></trkpt><trkpt lat="30.680749" lon="35.675995"><ele>1448.4</ele><time>2015-11-22T15:42:06.0000000+00:00</time></trkpt><trkpt lat="30.6806881" lon="35.6759333"><ele>1447.8</ele><time>2015-11-22T15:42:07.0000000+00:00</time></trkpt><trkpt lat="30.6806191" lon="35.6758828"><ele>1447.5</ele><time>2015-11-22T15:42:08.0000000+00:00</time></trkpt><trkpt lat="30.6805449" lon="35.6758216"><ele>1447.8</ele><time>2015-11-22T15:42:09.0000000+00:00</time></trkpt><trkpt lat="30.6804753" lon="35.6757709"><ele>1448.0</ele><time>2015-11-22T15:42:10.0000000+00:00</time></trkpt><trkpt lat="30.6804028" lon="35.6757078"><ele>1448.1</ele><time>2015-11-22T15:42:11.0000000+00:00</time></trkpt><trkpt lat="30.680335" lon="35.6756496"><ele>1447.7</ele><time>2015-11-22T15:42:12.0000000+00:00</time></trkpt><trkpt lat="30.6802615" lon="35.6755959"><ele>1447.4</ele><time>2015-11-22T15:42:13.0000000+00:00</time></trkpt><trkpt lat="30.6801939" lon="35.6755434"><ele>1447.3</ele><time>2015-11-22T15:42:14.0000000+00:00</time></trkpt><trkpt lat="30.6801159" lon="35.6754866"><ele>1447.3</ele><time>2015-11-22T15:42:15.0000000+00:00</time></trkpt><trkpt lat="30.6800372" lon="35.6754371"><ele>1447.2</ele><time>2015-11-22T15:42:16.0000000+00:00</time></trkpt><trkpt lat="30.6799628" lon="35.6753764"><ele>1447.7</ele><time>2015-11-22T15:42:17.0000000+00:00</time></trkpt><trkpt lat="30.6798824" lon="35.6753188"><ele>1447.5</ele><time>2015-11-22T15:42:18.0000000+00:00</time></trkpt><trkpt lat="30.6797984" lon="35.6752532"><ele>1446.8</ele><time>2015-11-22T15:42:19.0000000+00:00</time></trkpt><trkpt lat="30.6797272" lon="35.6751898"><ele>1446.5</ele><time>2015-11-22T15:42:20.0000000+00:00</time></trkpt><trkpt lat="30.6796573" lon="35.6751148"><ele>1446.4</ele><time>2015-11-22T15:42:21.0000000+00:00</time></trkpt><trkpt lat="30.6795731" lon="35.6750389"><ele>1446.3</ele><time>2015-11-22T15:42:22.0000000+00:00</time></trkpt><trkpt lat="30.6795016" lon="35.6749712"><ele>1445.7</ele><time>2015-11-22T15:42:23.0000000+00:00</time></trkpt><trkpt lat="30.6794206" lon="35.6748964"><ele>1445.0</ele><time>2015-11-22T15:42:24.0000000+00:00</time></trkpt><trkpt lat="30.6793389" lon="35.6748273"><ele>1444.6</ele><time>2015-11-22T15:42:25.0000000+00:00</time></trkpt><trkpt lat="30.6792595" lon="35.6747576"><ele>1443.9</ele><time>2015-11-22T15:42:26.0000000+00:00</time></trkpt><trkpt lat="30.6791783" lon="35.6746846"><ele>1444.0</ele><time>2015-11-22T15:42:27.0000000+00:00</time></trkpt><trkpt lat="30.6790906" lon="35.6746136"><ele>1443.6</ele><time>2015-11-22T15:42:28.0000000+00:00</time></trkpt><trkpt lat="30.6790046" lon="35.6745402"><ele>1443.4</ele><time>2015-11-22T15:42:29.0000000+00:00</time></trkpt><trkpt lat="30.6789353" lon="35.6744594"><ele>1443.3</ele><time>2015-11-22T15:42:30.0000000+00:00</time></trkpt><trkpt lat="30.6788485" lon="35.6743869"><ele>1443.3</ele><time>2015-11-22T15:42:31.0000000+00:00</time></trkpt><trkpt lat="30.6787658" lon="35.6743162"><ele>1443.2</ele><time>2015-11-22T15:42:32.0000000+00:00</time></trkpt><trkpt lat="30.6786792" lon="35.6742536"><ele>1442.7</ele><time>2015-11-22T15:42:33.0000000+00:00</time></trkpt><trkpt lat="30.6785876" lon="35.6741825"><ele>1442.5</ele><time>2015-11-22T15:42:34.0000000+00:00</time></trkpt><trkpt lat="30.678495" lon="35.6741142"><ele>1442.3</ele><time>2015-11-22T15:42:35.0000000+00:00</time></trkpt><trkpt lat="30.6784053" lon="35.6740432"><ele>1442.8</ele><time>2015-11-22T15:42:36.0000000+00:00</time></trkpt><trkpt lat="30.6783118" lon="35.6739832"><ele>1443.0</ele><time>2015-11-22T15:42:37.0000000+00:00</time></trkpt><trkpt lat="30.6782226" lon="35.6739275"><ele>1443.6</ele><time>2015-11-22T15:42:38.0000000+00:00</time></trkpt><trkpt lat="30.6781301" lon="35.6738692"><ele>1443.4</ele><time>2015-11-22T15:42:39.0000000+00:00</time></trkpt><trkpt lat="30.6780438" lon="35.6738144"><ele>1443.3</ele><time>2015-11-22T15:42:40.0000000+00:00</time></trkpt><trkpt lat="30.6779572" lon="35.6737532"><ele>1443.2</ele><time>2015-11-22T15:42:41.0000000+00:00</time></trkpt><trkpt lat="30.6778672" lon="35.6737019"><ele>1443.2</ele><time>2015-11-22T15:42:42.0000000+00:00</time></trkpt><trkpt lat="30.6777892" lon="35.6736437"><ele>1443.7</ele><time>2015-11-22T15:42:43.0000000+00:00</time></trkpt><trkpt lat="30.6777114" lon="35.6735953"><ele>1443.5</ele><time>2015-11-22T15:42:44.0000000+00:00</time></trkpt><trkpt lat="30.6776206" lon="35.6735474"><ele>1443.3</ele><time>2015-11-22T15:42:45.0000000+00:00</time></trkpt><trkpt lat="30.6775309" lon="35.6734973"><ele>1443.3</ele><time>2015-11-22T15:42:46.0000000+00:00</time></trkpt><trkpt lat="30.6774423" lon="35.6734534"><ele>1443.2</ele><time>2015-11-22T15:42:47.0000000+00:00</time></trkpt><trkpt lat="30.6773568" lon="35.6734006"><ele>1443.2</ele><time>2015-11-22T15:42:48.0000000+00:00</time></trkpt><trkpt lat="30.6772803" lon="35.6733522"><ele>1442.7</ele><time>2015-11-22T15:42:49.0000000+00:00</time></trkpt><trkpt lat="30.6771932" lon="35.6733059"><ele>1442.0</ele><time>2015-11-22T15:42:50.0000000+00:00</time></trkpt><trkpt lat="30.6771153" lon="35.6732494"><ele>1441.1</ele><time>2015-11-22T15:42:51.0000000+00:00</time></trkpt><trkpt lat="30.6770276" lon="35.6732004"><ele>1440.6</ele><time>2015-11-22T15:42:52.0000000+00:00</time></trkpt><trkpt lat="30.6769392" lon="35.6731549"><ele>1440.9</ele><time>2015-11-22T15:42:53.0000000+00:00</time></trkpt><trkpt lat="30.6768492" lon="35.6730939"><ele>1441.1</ele><time>2015-11-22T15:42:54.0000000+00:00</time></trkpt><trkpt lat="30.6767644" lon="35.6730318"><ele>1441.1</ele><time>2015-11-22T15:42:55.0000000+00:00</time></trkpt><trkpt lat="30.6766762" lon="35.6729856"><ele>1441.7</ele><time>2015-11-22T15:42:56.0000000+00:00</time></trkpt><trkpt lat="30.6765887" lon="35.6729349"><ele>1441.9</ele><time>2015-11-22T15:42:57.0000000+00:00</time></trkpt><trkpt lat="30.6765069" lon="35.6728805"><ele>1442.6</ele><time>2015-11-22T15:42:58.0000000+00:00</time></trkpt><trkpt lat="30.6764142" lon="35.6728277"><ele>1442.4</ele><time>2015-11-22T15:42:59.0000000+00:00</time></trkpt><trkpt lat="30.6763209" lon="35.6727755"><ele>1442.3</ele><time>2015-11-22T15:43:00.0000000+00:00</time></trkpt><trkpt lat="30.676228" lon="35.6727229"><ele>1441.7</ele><time>2015-11-22T15:43:01.0000000+00:00</time></trkpt><trkpt lat="30.6761398" lon="35.6726702"><ele>1441.5</ele><time>2015-11-22T15:43:02.0000000+00:00</time></trkpt><trkpt lat="30.6760534" lon="35.672619"><ele>1441.3</ele><time>2015-11-22T15:43:03.0000000+00:00</time></trkpt><trkpt lat="30.6759655" lon="35.6725701"><ele>1440.8</ele><time>2015-11-22T15:43:04.0000000+00:00</time></trkpt><trkpt lat="30.6758778" lon="35.6725186"><ele>1440.5</ele><time>2015-11-22T15:43:05.0000000+00:00</time></trkpt><trkpt lat="30.6757946" lon="35.6724683"><ele>1440.3</ele><time>2015-11-22T15:43:06.0000000+00:00</time></trkpt><trkpt lat="30.675717" lon="35.6724223"><ele>1439.8</ele><time>2015-11-22T15:43:07.0000000+00:00</time></trkpt><trkpt lat="30.6756332" lon="35.6723535"><ele>1439.5</ele><time>2015-11-22T15:43:08.0000000+00:00</time></trkpt><trkpt lat="30.6755496" lon="35.6722836"><ele>1439.8</ele><time>2015-11-22T15:43:09.0000000+00:00</time></trkpt><trkpt lat="30.6754697" lon="35.6722153"><ele>1440.0</ele><time>2015-11-22T15:43:10.0000000+00:00</time></trkpt><trkpt lat="30.6753937" lon="35.6721501"><ele>1440.1</ele><time>2015-11-22T15:43:11.0000000+00:00</time></trkpt><trkpt lat="30.6753135" lon="35.672085"><ele>1440.2</ele><time>2015-11-22T15:43:12.0000000+00:00</time></trkpt><trkpt lat="30.6752268" lon="35.6720146"><ele>1440.7</ele><time>2015-11-22T15:43:13.0000000+00:00</time></trkpt><trkpt lat="30.6751445" lon="35.671951"><ele>1441.4</ele><time>2015-11-22T15:43:14.0000000+00:00</time></trkpt><trkpt lat="30.6750678" lon="35.6718906"><ele>1441.8</ele><time>2015-11-22T15:43:15.0000000+00:00</time></trkpt><trkpt lat="30.6749851" lon="35.6718356"><ele>1442.0</ele><time>2015-11-22T15:43:16.0000000+00:00</time></trkpt><trkpt lat="30.6749055" lon="35.6717776"><ele>1442.6</ele><time>2015-11-22T15:43:17.0000000+00:00</time></trkpt><trkpt lat="30.6748246" lon="35.6717211"><ele>1442.4</ele><time>2015-11-22T15:43:18.0000000+00:00</time></trkpt><trkpt lat="30.674745" lon="35.6716658"><ele>1442.3</ele><time>2015-11-22T15:43:19.0000000+00:00</time></trkpt><trkpt lat="30.6746634" lon="35.6716136"><ele>1442.3</ele><time>2015-11-22T15:43:20.0000000+00:00</time></trkpt><trkpt lat="30.6745933" lon="35.671568"><ele>1441.7</ele><time>2015-11-22T15:43:21.0000000+00:00</time></trkpt><trkpt lat="30.6745214" lon="35.6715125"><ele>1441.5</ele><time>2015-11-22T15:43:22.0000000+00:00</time></trkpt><trkpt lat="30.6744479" lon="35.6714676"><ele>1440.8</ele><time>2015-11-22T15:43:23.0000000+00:00</time></trkpt><trkpt lat="30.6743764" lon="35.671417"><ele>1440.5</ele><time>2015-11-22T15:43:24.0000000+00:00</time></trkpt><trkpt lat="30.6743105" lon="35.6713589"><ele>1439.9</ele><time>2015-11-22T15:43:25.0000000+00:00</time></trkpt><trkpt lat="30.674237" lon="35.6713064"><ele>1439.0</ele><time>2015-11-22T15:43:26.0000000+00:00</time></trkpt><trkpt lat="30.6741692" lon="35.6712482"><ele>1438.6</ele><time>2015-11-22T15:43:27.0000000+00:00</time></trkpt><trkpt lat="30.6741138" lon="35.6711988"><ele>1438.4</ele><time>2015-11-22T15:43:28.0000000+00:00</time></trkpt><trkpt lat="30.6740455" lon="35.6711479"><ele>1438.8</ele><time>2015-11-22T15:43:29.0000000+00:00</time></trkpt><trkpt lat="30.6739751" lon="35.671093"><ele>1438.5</ele><time>2015-11-22T15:43:30.0000000+00:00</time></trkpt><trkpt lat="30.6739125" lon="35.6710337"><ele>1438.4</ele><time>2015-11-22T15:43:31.0000000+00:00</time></trkpt><trkpt lat="30.6738426" lon="35.6709735"><ele>1437.8</ele><time>2015-11-22T15:43:32.0000000+00:00</time></trkpt><trkpt lat="30.6737813" lon="35.6709109"><ele>1437.5</ele><time>2015-11-22T15:43:33.0000000+00:00</time></trkpt><trkpt lat="30.6737246" lon="35.6708633"><ele>1437.3</ele><time>2015-11-22T15:43:34.0000000+00:00</time></trkpt><trkpt lat="30.6736692" lon="35.6708076"><ele>1437.3</ele><time>2015-11-22T15:43:35.0000000+00:00</time></trkpt><trkpt lat="30.6736082" lon="35.6707469"><ele>1437.2</ele><time>2015-11-22T15:43:36.0000000+00:00</time></trkpt><trkpt lat="30.6735463" lon="35.6706938"><ele>1436.7</ele><time>2015-11-22T15:43:37.0000000+00:00</time></trkpt><trkpt lat="30.6734805" lon="35.6706318"><ele>1437.0</ele><time>2015-11-22T15:43:38.0000000+00:00</time></trkpt><trkpt lat="30.6734148" lon="35.6705627"><ele>1437.1</ele><time>2015-11-22T15:43:39.0000000+00:00</time></trkpt><trkpt lat="30.673352" lon="35.6704963"><ele>1437.6</ele><time>2015-11-22T15:43:40.0000000+00:00</time></trkpt><trkpt lat="30.6732866" lon="35.6704337"><ele>1438.4</ele><time>2015-11-22T15:43:41.0000000+00:00</time></trkpt><trkpt lat="30.6732206" lon="35.6703684"><ele>1438.3</ele><time>2015-11-22T15:43:42.0000000+00:00</time></trkpt><trkpt lat="30.6731504" lon="35.670301"><ele>1438.3</ele><time>2015-11-22T15:43:43.0000000+00:00</time></trkpt><trkpt lat="30.6730825" lon="35.6702353"><ele>1439.2</ele><time>2015-11-22T15:43:44.0000000+00:00</time></trkpt><trkpt lat="30.6730199" lon="35.6701626"><ele>1440.2</ele><time>2015-11-22T15:43:45.0000000+00:00</time></trkpt><trkpt lat="30.6729544" lon="35.6700985"><ele>1440.2</ele><time>2015-11-22T15:43:46.0000000+00:00</time></trkpt><trkpt lat="30.6728923" lon="35.670036"><ele>1440.7</ele><time>2015-11-22T15:43:47.0000000+00:00</time></trkpt><trkpt lat="30.672822" lon="35.6699722"><ele>1441.5</ele><time>2015-11-22T15:43:48.0000000+00:00</time></trkpt><trkpt lat="30.6727655" lon="35.6699188"><ele>1442.3</ele><time>2015-11-22T15:43:49.0000000+00:00</time></trkpt><trkpt lat="30.6726952" lon="35.6698657"><ele>1442.8</ele><time>2015-11-22T15:43:50.0000000+00:00</time></trkpt><trkpt lat="30.6726298" lon="35.6698134"><ele>1443.5</ele><time>2015-11-22T15:43:51.0000000+00:00</time></trkpt><trkpt lat="30.6725647" lon="35.6697623"><ele>1443.3</ele><time>2015-11-22T15:43:52.0000000+00:00</time></trkpt><trkpt lat="30.6724978" lon="35.6697104"><ele>1443.8</ele><time>2015-11-22T15:43:53.0000000+00:00</time></trkpt><trkpt lat="30.6724421" lon="35.6696509"><ele>1443.5</ele><time>2015-11-22T15:43:54.0000000+00:00</time></trkpt><trkpt lat="30.6723865" lon="35.6695839"><ele>1443.3</ele><time>2015-11-22T15:43:55.0000000+00:00</time></trkpt><trkpt lat="30.6723236" lon="35.6695257"><ele>1443.8</ele><time>2015-11-22T15:43:56.0000000+00:00</time></trkpt><trkpt lat="30.6722626" lon="35.6694726"><ele>1443.5</ele><time>2015-11-22T15:43:57.0000000+00:00</time></trkpt><trkpt lat="30.6722026" lon="35.6694146"><ele>1443.3</ele><time>2015-11-22T15:43:58.0000000+00:00</time></trkpt><trkpt lat="30.6721373" lon="35.6693602"><ele>1442.8</ele><time>2015-11-22T15:43:59.0000000+00:00</time></trkpt><trkpt lat="30.6720757" lon="35.6692986"><ele>1443.0</ele><time>2015-11-22T15:44:00.0000000+00:00</time></trkpt><trkpt lat="30.6720175" lon="35.6692361"><ele>1442.6</ele><time>2015-11-22T15:44:01.0000000+00:00</time></trkpt><trkpt lat="30.6719702" lon="35.6691745"><ele>1441.9</ele><time>2015-11-22T15:44:02.0000000+00:00</time></trkpt><trkpt lat="30.6719117" lon="35.6691152"><ele>1441.5</ele><time>2015-11-22T15:44:03.0000000+00:00</time></trkpt><trkpt lat="30.6718475" lon="35.6690523"><ele>1441.4</ele><time>2015-11-22T15:44:04.0000000+00:00</time></trkpt><trkpt lat="30.6717888" lon="35.6689805"><ele>1440.8</ele><time>2015-11-22T15:44:05.0000000+00:00</time></trkpt><trkpt lat="30.6717289" lon="35.6689181"><ele>1440.0</ele><time>2015-11-22T15:44:06.0000000+00:00</time></trkpt><trkpt lat="30.6716702" lon="35.6688658"><ele>1438.6</ele><time>2015-11-22T15:44:07.0000000+00:00</time></trkpt><trkpt lat="30.6716142" lon="35.6688107"><ele>1437.4</ele><time>2015-11-22T15:44:08.0000000+00:00</time></trkpt><trkpt lat="30.6715513" lon="35.6687486"><ele>1436.3</ele><time>2015-11-22T15:44:09.0000000+00:00</time></trkpt><trkpt lat="30.6714858" lon="35.6686803"><ele>1435.8</ele><time>2015-11-22T15:44:10.0000000+00:00</time></trkpt><trkpt lat="30.6714257" lon="35.6686196"><ele>1435.5</ele><time>2015-11-22T15:44:11.0000000+00:00</time></trkpt><trkpt lat="30.6713606" lon="35.6685534"><ele>1435.8</ele><time>2015-11-22T15:44:12.0000000+00:00</time></trkpt><trkpt lat="30.6712884" lon="35.668481"><ele>1436.0</ele><time>2015-11-22T15:44:13.0000000+00:00</time></trkpt><trkpt lat="30.6712185" lon="35.6684077"><ele>1436.6</ele><time>2015-11-22T15:44:14.0000000+00:00</time></trkpt><trkpt lat="30.671153" lon="35.6683374"><ele>1436.4</ele><time>2015-11-22T15:44:15.0000000+00:00</time></trkpt><trkpt lat="30.671087" lon="35.6682773"><ele>1436.3</ele><time>2015-11-22T15:44:16.0000000+00:00</time></trkpt><trkpt lat="30.6710224" lon="35.6682067"><ele>1435.8</ele><time>2015-11-22T15:44:17.0000000+00:00</time></trkpt><trkpt lat="30.6709507" lon="35.6681333"><ele>1435.5</ele><time>2015-11-22T15:44:18.0000000+00:00</time></trkpt><trkpt lat="30.6708888" lon="35.6680616"><ele>1435.3</ele><time>2015-11-22T15:44:19.0000000+00:00</time></trkpt><trkpt lat="30.6708238" lon="35.6679922"><ele>1435.3</ele><time>2015-11-22T15:44:20.0000000+00:00</time></trkpt><trkpt lat="30.6707549" lon="35.6679249"><ele>1435.2</ele><time>2015-11-22T15:44:21.0000000+00:00</time></trkpt><trkpt lat="30.6706859" lon="35.6678602"><ele>1435.2</ele><time>2015-11-22T15:44:22.0000000+00:00</time></trkpt><trkpt lat="30.6706236" lon="35.6677972"><ele>1434.7</ele><time>2015-11-22T15:44:23.0000000+00:00</time></trkpt><trkpt lat="30.6705773" lon="35.6677421"><ele>1434.5</ele><time>2015-11-22T15:44:24.0000000+00:00</time></trkpt><trkpt lat="30.6705218" lon="35.6676803"><ele>1434.3</ele><time>2015-11-22T15:44:25.0000000+00:00</time></trkpt><trkpt lat="30.6704713" lon="35.6676158"><ele>1435.3</ele><time>2015-11-22T15:44:26.0000000+00:00</time></trkpt><trkpt lat="30.6704218" lon="35.667557"><ele>1435.7</ele><time>2015-11-22T15:44:27.0000000+00:00</time></trkpt><trkpt lat="30.6703732" lon="35.6674992"><ele>1436.0</ele><time>2015-11-22T15:44:28.0000000+00:00</time></trkpt><trkpt lat="30.6703298" lon="35.6674422"><ele>1436.6</ele><time>2015-11-22T15:44:29.0000000+00:00</time></trkpt><trkpt lat="30.6702923" lon="35.6673962"><ele>1436.4</ele><time>2015-11-22T15:44:30.0000000+00:00</time></trkpt><trkpt lat="30.6702247" lon="35.6673305"><ele>1436.7</ele><time>2015-11-22T15:44:32.0000000+00:00</time></trkpt><trkpt lat="30.6701624" lon="35.6672748"><ele>1437.6</ele><time>2015-11-22T15:44:34.0000000+00:00</time></trkpt><trkpt lat="30.6701275" lon="35.6672406"><ele>1438.4</ele><time>2015-11-22T15:44:35.0000000+00:00</time></trkpt><trkpt lat="30.6700916" lon="35.6671986"><ele>1440.2</ele><time>2015-11-22T15:44:37.0000000+00:00</time></trkpt><trkpt lat="30.670061" lon="35.6671516"><ele>1441.1</ele><time>2015-11-22T15:44:40.0000000+00:00</time></trkpt><trkpt lat="30.6700218" lon="35.6671016"><ele>1442.2</ele><time>2015-11-22T15:44:43.0000000+00:00</time></trkpt><trkpt lat="30.6699809" lon="35.6670569"><ele>1443.1</ele><time>2015-11-22T15:44:47.0000000+00:00</time></trkpt><trkpt lat="30.6699341" lon="35.6670208"><ele>1442.8</ele><time>2015-11-22T15:44:51.0000000+00:00</time></trkpt><trkpt lat="30.6698938" lon="35.6669824"><ele>1444.4</ele><time>2015-11-22T15:44:55.0000000+00:00</time></trkpt><trkpt lat="30.6698608" lon="35.666943"><ele>1445.9</ele><time>2015-11-22T15:44:58.0000000+00:00</time></trkpt><trkpt lat="30.6698195" lon="35.6669007"><ele>1446.9</ele><time>2015-11-22T15:45:02.0000000+00:00</time></trkpt><trkpt lat="30.6697811" lon="35.666855"><ele>1447.2</ele><time>2015-11-22T15:45:06.0000000+00:00</time></trkpt><trkpt lat="30.6697525" lon="35.6668121"><ele>1447.9</ele><time>2015-11-22T15:45:09.0000000+00:00</time></trkpt><trkpt lat="30.6697204" lon="35.6667697"><ele>1448.9</ele><time>2015-11-22T15:45:12.0000000+00:00</time></trkpt><trkpt lat="30.6696774" lon="35.6667236"><ele>1449.8</ele><time>2015-11-22T15:45:16.0000000+00:00</time></trkpt><trkpt lat="30.6696378" lon="35.6666786"><ele>1451.1</ele><time>2015-11-22T15:45:20.0000000+00:00</time></trkpt><trkpt lat="30.6695931" lon="35.6666391"><ele>1452.4</ele><time>2015-11-22T15:45:24.0000000+00:00</time></trkpt><trkpt lat="30.6695554" lon="35.6666078"><ele>1453.6</ele><time>2015-11-22T15:45:27.0000000+00:00</time></trkpt><trkpt lat="30.669519" lon="35.6665756"><ele>1454.1</ele><time>2015-11-22T15:45:30.0000000+00:00</time></trkpt><trkpt lat="30.6694715" lon="35.6665365"><ele>1455.6</ele><time>2015-11-22T15:45:34.0000000+00:00</time></trkpt><trkpt lat="30.6694292" lon="35.6664993"><ele>1457.0</ele><time>2015-11-22T15:45:38.0000000+00:00</time></trkpt><trkpt lat="30.6693785" lon="35.6664622"><ele>1458.1</ele><time>2015-11-22T15:45:42.0000000+00:00</time></trkpt><trkpt lat="30.6693363" lon="35.6664342"><ele>1458.2</ele><time>2015-11-22T15:45:45.0000000+00:00</time></trkpt><trkpt lat="30.66929" lon="35.666411"><ele>1458.2</ele><time>2015-11-22T15:45:48.0000000+00:00</time></trkpt><trkpt lat="30.6692447" lon="35.6663906"><ele>1458.7</ele><time>2015-11-22T15:45:51.0000000+00:00</time></trkpt><trkpt lat="30.6692" lon="35.6663712"><ele>1459.1</ele><time>2015-11-22T15:45:54.0000000+00:00</time></trkpt><trkpt lat="30.669153" lon="35.6663427"><ele>1458.7</ele><time>2015-11-22T15:45:57.0000000+00:00</time></trkpt><trkpt lat="30.6691014" lon="35.6663059"><ele>1459.9</ele><time>2015-11-22T15:46:00.0000000+00:00</time></trkpt><trkpt lat="30.6690459" lon="35.6662685"><ele>1460.2</ele><time>2015-11-22T15:46:03.0000000+00:00</time></trkpt><trkpt lat="30.6689933" lon="35.6662245"><ele>1461.1</ele><time>2015-11-22T15:46:06.0000000+00:00</time></trkpt><trkpt lat="30.6689581" lon="35.6661895"><ele>1462.2</ele><time>2015-11-22T15:46:08.0000000+00:00</time></trkpt><trkpt lat="30.6689146" lon="35.6661404"><ele>1462.3</ele><time>2015-11-22T15:46:11.0000000+00:00</time></trkpt><trkpt lat="30.6688695" lon="35.6660893"><ele>1463.0</ele><time>2015-11-22T15:46:14.0000000+00:00</time></trkpt><trkpt lat="30.6688383" lon="35.66605"><ele>1463.1</ele><time>2015-11-22T15:46:16.0000000+00:00</time></trkpt><trkpt lat="30.6688064" lon="35.6660077"><ele>1462.9</ele><time>2015-11-22T15:46:18.0000000+00:00</time></trkpt><trkpt lat="30.6687782" lon="35.6659647"><ele>1462.6</ele><time>2015-11-22T15:46:20.0000000+00:00</time></trkpt><trkpt lat="30.6687407" lon="35.6659044"><ele>1462.9</ele><time>2015-11-22T15:46:23.0000000+00:00</time></trkpt><trkpt lat="30.6687002" lon="35.6658555"><ele>1462.8</ele><time>2015-11-22T15:46:26.0000000+00:00</time></trkpt><trkpt lat="30.6686656" lon="35.6658218"><ele>1463.6</ele><time>2015-11-22T15:46:28.0000000+00:00</time></trkpt><trkpt lat="30.6686266" lon="35.6657824"><ele>1464.1</ele><time>2015-11-22T15:46:30.0000000+00:00</time></trkpt><trkpt lat="30.6685769" lon="35.6657398"><ele>1464.2</ele><time>2015-11-22T15:46:32.0000000+00:00</time></trkpt><trkpt lat="30.6685306" lon="35.6657004"><ele>1464.2</ele><time>2015-11-22T15:46:34.0000000+00:00</time></trkpt><trkpt lat="30.6684907" lon="35.6656646"><ele>1464.2</ele><time>2015-11-22T15:46:36.0000000+00:00</time></trkpt><trkpt lat="30.6684449" lon="35.6656309"><ele>1464.2</ele><time>2015-11-22T15:46:38.0000000+00:00</time></trkpt><trkpt lat="30.6683934" lon="35.6655977"><ele>1464.2</ele><time>2015-11-22T15:46:40.0000000+00:00</time></trkpt><trkpt lat="30.668341" lon="35.6655697"><ele>1464.2</ele><time>2015-11-22T15:46:42.0000000+00:00</time></trkpt><trkpt lat="30.6682944" lon="35.6655442"><ele>1464.2</ele><time>2015-11-22T15:46:44.0000000+00:00</time></trkpt><trkpt lat="30.6682504" lon="35.6655276"><ele>1465.0</ele><time>2015-11-22T15:46:46.0000000+00:00</time></trkpt><trkpt lat="30.668206" lon="35.6655159"><ele>1464.6</ele><time>2015-11-22T15:46:48.0000000+00:00</time></trkpt><trkpt lat="30.66816" lon="35.6655052"><ele>1464.1</ele><time>2015-11-22T15:46:50.0000000+00:00</time></trkpt><trkpt lat="30.6681086" lon="35.6654979"><ele>1464.2</ele><time>2015-11-22T15:46:52.0000000+00:00</time></trkpt><trkpt lat="30.6680499" lon="35.6654931"><ele>1464.7</ele><time>2015-11-22T15:46:54.0000000+00:00</time></trkpt><trkpt lat="30.6679885" lon="35.6654851"><ele>1465.1</ele><time>2015-11-22T15:46:56.0000000+00:00</time></trkpt><trkpt lat="30.6679279" lon="35.6654765"><ele>1465.4</ele><time>2015-11-22T15:46:58.0000000+00:00</time></trkpt><trkpt lat="30.6678702" lon="35.6654752"><ele>1465.3</ele><time>2015-11-22T15:47:00.0000000+00:00</time></trkpt><trkpt lat="30.6678153" lon="35.6654792"><ele>1466.0</ele><time>2015-11-22T15:47:02.0000000+00:00</time></trkpt><trkpt lat="30.6677607" lon="35.6654785"><ele>1466.6</ele><time>2015-11-22T15:47:04.0000000+00:00</time></trkpt><trkpt lat="30.6677058" lon="35.6654731"><ele>1467.1</ele><time>2015-11-22T15:47:06.0000000+00:00</time></trkpt><trkpt lat="30.667654" lon="35.6654677"><ele>1467.2</ele><time>2015-11-22T15:47:08.0000000+00:00</time></trkpt><trkpt lat="30.667604" lon="35.6654626"><ele>1467.2</ele><time>2015-11-22T15:47:10.0000000+00:00</time></trkpt><trkpt lat="30.6675554" lon="35.6654507"><ele>1467.2</ele><time>2015-11-22T15:47:12.0000000+00:00</time></trkpt><trkpt lat="30.6675137" lon="35.6654232"><ele>1467.2</ele><time>2015-11-22T15:47:14.0000000+00:00</time></trkpt><trkpt lat="30.6674779" lon="35.665382"><ele>1467.2</ele><time>2015-11-22T15:47:16.0000000+00:00</time></trkpt><trkpt lat="30.6674505" lon="35.6653303"><ele>1466.5</ele><time>2015-11-22T15:47:18.0000000+00:00</time></trkpt><trkpt lat="30.6674385" lon="35.6652679"><ele>1466.3</ele><time>2015-11-22T15:47:20.0000000+00:00</time></trkpt><trkpt lat="30.6674389" lon="35.665198"><ele>1465.0</ele><time>2015-11-22T15:47:22.0000000+00:00</time></trkpt><trkpt lat="30.6674495" lon="35.6651248"><ele>1463.9</ele><time>2015-11-22T15:47:24.0000000+00:00</time></trkpt><trkpt lat="30.6674632" lon="35.6650475"><ele>1464.1</ele><time>2015-11-22T15:47:26.0000000+00:00</time></trkpt><trkpt lat="30.6674751" lon="35.6649639"><ele>1463.7</ele><time>2015-11-22T15:47:28.0000000+00:00</time></trkpt><trkpt lat="30.6674906" lon="35.6648715"><ele>1464.1</ele><time>2015-11-22T15:47:30.0000000+00:00</time></trkpt><trkpt lat="30.6675094" lon="35.6647776"><ele>1464.2</ele><time>2015-11-22T15:47:32.0000000+00:00</time></trkpt><trkpt lat="30.6675304" lon="35.664682"><ele>1464.2</ele><time>2015-11-22T15:47:34.0000000+00:00</time></trkpt><trkpt lat="30.6675513" lon="35.664587"><ele>1464.2</ele><time>2015-11-22T15:47:36.0000000+00:00</time></trkpt><trkpt lat="30.6675739" lon="35.664499"><ele>1464.7</ele><time>2015-11-22T15:47:38.0000000+00:00</time></trkpt><trkpt lat="30.6676033" lon="35.6643844"><ele>1464.3</ele><time>2015-11-22T15:47:41.0000000+00:00</time></trkpt><trkpt lat="30.6676212" lon="35.6643176"><ele>1464.2</ele><time>2015-11-22T15:47:43.0000000+00:00</time></trkpt><trkpt lat="30.6676374" lon="35.6642534"><ele>1463.5</ele><time>2015-11-22T15:47:45.0000000+00:00</time></trkpt><trkpt lat="30.667658" lon="35.6641938"><ele>1462.8</ele><time>2015-11-22T15:47:47.0000000+00:00</time></trkpt><trkpt lat="30.6676885" lon="35.6641384"><ele>1462.3</ele><time>2015-11-22T15:47:49.0000000+00:00</time></trkpt><trkpt lat="30.6677292" lon="35.6640837"><ele>1462.5</ele><time>2015-11-22T15:47:51.0000000+00:00</time></trkpt><trkpt lat="30.6677793" lon="35.6640301"><ele>1463.0</ele><time>2015-11-22T15:47:53.0000000+00:00</time></trkpt><trkpt lat="30.6678374" lon="35.6639804"><ele>1462.9</ele><time>2015-11-22T15:47:55.0000000+00:00</time></trkpt><trkpt lat="30.6678888" lon="35.6639442"><ele>1463.1</ele><time>2015-11-22T15:47:57.0000000+00:00</time></trkpt><trkpt lat="30.6679374" lon="35.6639102"><ele>1461.3</ele><time>2015-11-22T15:56:40.0000000+00:00</time></trkpt><trkpt lat="30.667986" lon="35.6638751"><ele>1463.3</ele><time>2015-11-22T15:56:43.0000000+00:00</time></trkpt><trkpt lat="30.6680258" lon="35.6638488"><ele>1464.0</ele><time>2015-11-22T15:56:45.0000000+00:00</time></trkpt><trkpt lat="30.66808" lon="35.6638134"><ele>1463.3</ele><time>2015-11-22T15:56:48.0000000+00:00</time></trkpt><trkpt lat="30.6681184" lon="35.6637735"><ele>1462.5</ele><time>2015-11-22T15:56:51.0000000+00:00</time></trkpt><trkpt lat="30.6681601" lon="35.6637416"><ele>1462.2</ele><time>2015-11-22T15:56:54.0000000+00:00</time></trkpt><trkpt lat="30.6682057" lon="35.6637162"><ele>1461.7</ele><time>2015-11-22T15:56:57.0000000+00:00</time></trkpt><trkpt lat="30.6682575" lon="35.6636868"><ele>1462.1</ele><time>2015-11-22T15:57:01.0000000+00:00</time></trkpt><trkpt lat="30.6683078" lon="35.6636383"><ele>1463.1</ele><time>2015-11-22T15:57:04.0000000+00:00</time></trkpt><trkpt lat="30.6683582" lon="35.6635884"><ele>1463.2</ele><time>2015-11-22T15:57:06.0000000+00:00</time></trkpt><trkpt lat="30.6684063" lon="35.6635461"><ele>1463.2</ele><time>2015-11-22T15:57:08.0000000+00:00</time></trkpt><trkpt lat="30.6684452" lon="35.66351"><ele>1463.9</ele><time>2015-11-22T15:57:10.0000000+00:00</time></trkpt><trkpt lat="30.6684812" lon="35.6634701"><ele>1464.2</ele><time>2015-11-22T15:57:13.0000000+00:00</time></trkpt><trkpt lat="30.6685199" lon="35.6634272"><ele>1464.9</ele><time>2015-11-22T15:57:16.0000000+00:00</time></trkpt><trkpt lat="30.6685596" lon="35.6633909"><ele>1465.4</ele><time>2015-11-22T15:57:19.0000000+00:00</time></trkpt><trkpt lat="30.6685966" lon="35.6633543"><ele>1466.7</ele><time>2015-11-22T15:57:23.0000000+00:00</time></trkpt><trkpt lat="30.6686422" lon="35.6633146"><ele>1466.7</ele><time>2015-11-22T15:57:27.0000000+00:00</time></trkpt><trkpt lat="30.6686793" lon="35.6632674"><ele>1466.3</ele><time>2015-11-22T15:57:30.0000000+00:00</time></trkpt><trkpt lat="30.6687258" lon="35.6632152"><ele>1466.2</ele><time>2015-11-22T15:57:33.0000000+00:00</time></trkpt><trkpt lat="30.6687642" lon="35.6631798"><ele>1466.2</ele><time>2015-11-22T15:57:35.0000000+00:00</time></trkpt><trkpt lat="30.6688109" lon="35.6631397"><ele>1467.0</ele><time>2015-11-22T15:57:37.0000000+00:00</time></trkpt><trkpt lat="30.6688698" lon="35.6630942"><ele>1467.9</ele><time>2015-11-22T15:57:39.0000000+00:00</time></trkpt><trkpt lat="30.6689312" lon="35.6630481"><ele>1468.1</ele><time>2015-11-22T15:57:41.0000000+00:00</time></trkpt><trkpt lat="30.6689944" lon="35.662999"><ele>1467.7</ele><time>2015-11-22T15:57:43.0000000+00:00</time></trkpt><trkpt lat="30.66906" lon="35.6629492"><ele>1467.8</ele><time>2015-11-22T15:57:45.0000000+00:00</time></trkpt><trkpt lat="30.6691231" lon="35.6628988"><ele>1468.1</ele><time>2015-11-22T15:57:47.0000000+00:00</time></trkpt><trkpt lat="30.6691833" lon="35.662851"><ele>1468.2</ele><time>2015-11-22T15:57:49.0000000+00:00</time></trkpt><trkpt lat="30.6692418" lon="35.6628055"><ele>1468.2</ele><time>2015-11-22T15:57:51.0000000+00:00</time></trkpt><trkpt lat="30.669298" lon="35.6627613"><ele>1468.7</ele><time>2015-11-22T15:57:53.0000000+00:00</time></trkpt><trkpt lat="30.6693505" lon="35.6627146"><ele>1469.6</ele><time>2015-11-22T15:57:55.0000000+00:00</time></trkpt><trkpt lat="30.6693866" lon="35.6626556"><ele>1470.0</ele><time>2015-11-22T15:57:57.0000000+00:00</time></trkpt><trkpt lat="30.6694028" lon="35.6625873"><ele>1470.2</ele><time>2015-11-22T15:57:59.0000000+00:00</time></trkpt><trkpt lat="30.6694043" lon="35.662518"><ele>1470.2</ele><time>2015-11-22T15:58:01.0000000+00:00</time></trkpt><trkpt lat="30.6693717" lon="35.6624646"><ele>1469.7</ele><time>2015-11-22T15:58:03.0000000+00:00</time></trkpt><trkpt lat="30.6693086" lon="35.6624509"><ele>1469.3</ele><time>2015-11-22T15:58:05.0000000+00:00</time></trkpt><trkpt lat="30.6692036" lon="35.6625059"><ele>1468.0</ele><time>2015-11-22T15:58:08.0000000+00:00</time></trkpt><trkpt lat="30.6691674" lon="35.6625378"><ele>1467.6</ele><time>2015-11-22T15:58:09.0000000+00:00</time></trkpt><trkpt lat="30.6691296" lon="35.6625726"><ele>1467.4</ele><time>2015-11-22T15:58:10.0000000+00:00</time></trkpt><trkpt lat="30.66909" lon="35.6626067"><ele>1467.3</ele><time>2015-11-22T15:58:11.0000000+00:00</time></trkpt><trkpt lat="30.6690285" lon="35.6626606"><ele>1466.7</ele><time>2015-11-22T15:58:12.0000000+00:00</time></trkpt><trkpt lat="30.6689863" lon="35.6626912"><ele>1466.0</ele><time>2015-11-22T15:58:13.0000000+00:00</time></trkpt><trkpt lat="30.6689395" lon="35.6627182"><ele>1465.6</ele><time>2015-11-22T15:58:14.0000000+00:00</time></trkpt><trkpt lat="30.6688847" lon="35.6627452"><ele>1465.4</ele><time>2015-11-22T15:58:15.0000000+00:00</time></trkpt><trkpt lat="30.6688353" lon="35.6627899"><ele>1464.8</ele><time>2015-11-22T15:58:16.0000000+00:00</time></trkpt><trkpt lat="30.668785" lon="35.6628263"><ele>1464.5</ele><time>2015-11-22T15:58:17.0000000+00:00</time></trkpt><trkpt lat="30.668727" lon="35.6628665"><ele>1464.4</ele><time>2015-11-22T15:58:18.0000000+00:00</time></trkpt><trkpt lat="30.6686692" lon="35.6629016"><ele>1463.8</ele><time>2015-11-22T15:58:19.0000000+00:00</time></trkpt><trkpt lat="30.6686189" lon="35.6629324"><ele>1463.5</ele><time>2015-11-22T15:58:20.0000000+00:00</time></trkpt><trkpt lat="30.6685571" lon="35.6629696"><ele>1462.8</ele><time>2015-11-22T15:58:21.0000000+00:00</time></trkpt><trkpt lat="30.6684882" lon="35.6630104"><ele>1462.5</ele><time>2015-11-22T15:58:22.0000000+00:00</time></trkpt><trkpt lat="30.6684219" lon="35.6630463"><ele>1461.9</ele><time>2015-11-22T15:58:23.0000000+00:00</time></trkpt><trkpt lat="30.668345" lon="35.6630807"><ele>1461.5</ele><time>2015-11-22T15:58:24.0000000+00:00</time></trkpt><trkpt lat="30.6682747" lon="35.6631148"><ele>1461.9</ele><time>2015-11-22T15:58:25.0000000+00:00</time></trkpt><trkpt lat="30.6681924" lon="35.6631544"><ele>1462.0</ele><time>2015-11-22T15:58:26.0000000+00:00</time></trkpt><trkpt lat="30.6681264" lon="35.6631905"><ele>1461.6</ele><time>2015-11-22T15:58:27.0000000+00:00</time></trkpt><trkpt lat="30.6680527" lon="35.6632195"><ele>1461.4</ele><time>2015-11-22T15:58:28.0000000+00:00</time></trkpt><trkpt lat="30.66798" lon="35.6632511"><ele>1461.3</ele><time>2015-11-22T15:58:29.0000000+00:00</time></trkpt><trkpt lat="30.6678952" lon="35.6632834"><ele>1460.8</ele><time>2015-11-22T15:58:30.0000000+00:00</time></trkpt><trkpt lat="30.6678146" lon="35.6633172"><ele>1460.5</ele><time>2015-11-22T15:58:31.0000000+00:00</time></trkpt><trkpt lat="30.6677267" lon="35.6633431"><ele>1460.3</ele><time>2015-11-22T15:58:32.0000000+00:00</time></trkpt><trkpt lat="30.6676382" lon="35.66337"><ele>1460.3</ele><time>2015-11-22T15:58:33.0000000+00:00</time></trkpt><trkpt lat="30.6675501" lon="35.6633895"><ele>1459.7</ele><time>2015-11-22T15:58:34.0000000+00:00</time></trkpt><trkpt lat="30.6674632" lon="35.6634191"><ele>1459.0</ele><time>2015-11-22T15:58:35.0000000+00:00</time></trkpt><trkpt lat="30.6673752" lon="35.6634482"><ele>1458.1</ele><time>2015-11-22T15:58:36.0000000+00:00</time></trkpt><trkpt lat="30.6672881" lon="35.6634694"><ele>1458.1</ele><time>2015-11-22T15:58:37.0000000+00:00</time></trkpt><trkpt lat="30.6672103" lon="35.6634864"><ele>1458.2</ele><time>2015-11-22T15:58:38.0000000+00:00</time></trkpt><trkpt lat="30.6671285" lon="35.6635123"><ele>1457.7</ele><time>2015-11-22T15:58:39.0000000+00:00</time></trkpt><trkpt lat="30.6670414" lon="35.6635302"><ele>1456.9</ele><time>2015-11-22T15:58:40.0000000+00:00</time></trkpt><trkpt lat="30.6669532" lon="35.6635542"><ele>1456.6</ele><time>2015-11-22T15:58:41.0000000+00:00</time></trkpt><trkpt lat="30.6668601" lon="35.6635753"><ele>1456.4</ele><time>2015-11-22T15:58:42.0000000+00:00</time></trkpt><trkpt lat="30.6667729" lon="35.6635904"><ele>1455.3</ele><time>2015-11-22T15:58:43.0000000+00:00</time></trkpt><trkpt lat="30.6666938" lon="35.6636101"><ele>1453.7</ele><time>2015-11-22T15:58:44.0000000+00:00</time></trkpt><trkpt lat="30.6665971" lon="35.6636288"><ele>1452.0</ele><time>2015-11-22T15:58:45.0000000+00:00</time></trkpt><trkpt lat="30.6664991" lon="35.6636436"><ele>1450.6</ele><time>2015-11-22T15:58:46.0000000+00:00</time></trkpt><trkpt lat="30.6663948" lon="35.6636575"><ele>1449.4</ele><time>2015-11-22T15:58:47.0000000+00:00</time></trkpt><trkpt lat="30.6662955" lon="35.6636637"><ele>1448.3</ele><time>2015-11-22T15:58:48.0000000+00:00</time></trkpt><trkpt lat="30.6661879" lon="35.6636856"><ele>1447.7</ele><time>2015-11-22T15:58:49.0000000+00:00</time></trkpt><trkpt lat="30.6660791" lon="35.6636985"><ele>1447.0</ele><time>2015-11-22T15:58:50.0000000+00:00</time></trkpt><trkpt lat="30.6659628" lon="35.6637151"><ele>1446.1</ele><time>2015-11-22T15:58:51.0000000+00:00</time></trkpt><trkpt lat="30.6658537" lon="35.6637251"><ele>1445.1</ele><time>2015-11-22T15:58:52.0000000+00:00</time></trkpt><trkpt lat="30.6657468" lon="35.6637457"><ele>1444.2</ele><time>2015-11-22T15:58:53.0000000+00:00</time></trkpt><trkpt lat="30.6656288" lon="35.663757"><ele>1443.7</ele><time>2015-11-22T15:58:54.0000000+00:00</time></trkpt><trkpt lat="30.6655173" lon="35.6637695"><ele>1442.4</ele><time>2015-11-22T15:58:55.0000000+00:00</time></trkpt><trkpt lat="30.6654026" lon="35.6637844"><ele>1441.3</ele><time>2015-11-22T15:58:56.0000000+00:00</time></trkpt><trkpt lat="30.665289" lon="35.663804"><ele>1440.3</ele><time>2015-11-22T15:58:57.0000000+00:00</time></trkpt><trkpt lat="30.6651751" lon="35.663817"><ele>1439.7</ele><time>2015-11-22T15:58:58.0000000+00:00</time></trkpt><trkpt lat="30.6650574" lon="35.6638249"><ele>1439.0</ele><time>2015-11-22T15:58:59.0000000+00:00</time></trkpt><trkpt lat="30.6649454" lon="35.6638301"><ele>1438.1</ele><time>2015-11-22T15:59:00.0000000+00:00</time></trkpt><trkpt lat="30.6648362" lon="35.6638443"><ele>1437.6</ele><time>2015-11-22T15:59:01.0000000+00:00</time></trkpt><trkpt lat="30.6647304" lon="35.6638613"><ele>1436.9</ele><time>2015-11-22T15:59:02.0000000+00:00</time></trkpt><trkpt lat="30.6646143" lon="35.6638618"><ele>1436.1</ele><time>2015-11-22T15:59:03.0000000+00:00</time></trkpt><trkpt lat="30.6645075" lon="35.663875"><ele>1435.1</ele><time>2015-11-22T15:59:04.0000000+00:00</time></trkpt><trkpt lat="30.6643972" lon="35.663887"><ele>1434.2</ele><time>2015-11-22T15:59:05.0000000+00:00</time></trkpt><trkpt lat="30.6642821" lon="35.6638886"><ele>1433.2</ele><time>2015-11-22T15:59:06.0000000+00:00</time></trkpt><trkpt lat="30.6641683" lon="35.6638926"><ele>1432.7</ele><time>2015-11-22T15:59:07.0000000+00:00</time></trkpt><trkpt lat="30.6640606" lon="35.6638965"><ele>1432.9</ele><time>2015-11-22T15:59:08.0000000+00:00</time></trkpt><trkpt lat="30.6639527" lon="35.6639047"><ele>1432.1</ele><time>2015-11-22T15:59:09.0000000+00:00</time></trkpt><trkpt lat="30.663834" lon="35.6639036"><ele>1431.6</ele><time>2015-11-22T15:59:10.0000000+00:00</time></trkpt><trkpt lat="30.6637148" lon="35.6639004"><ele>1431.4</ele><time>2015-11-22T15:59:11.0000000+00:00</time></trkpt><trkpt lat="30.6635986" lon="35.6638987"><ele>1430.8</ele><time>2015-11-22T15:59:12.0000000+00:00</time></trkpt><trkpt lat="30.6634788" lon="35.6638912"><ele>1430.5</ele><time>2015-11-22T15:59:13.0000000+00:00</time></trkpt><trkpt lat="30.6633576" lon="35.6638901"><ele>1429.4</ele><time>2015-11-22T15:59:14.0000000+00:00</time></trkpt><trkpt lat="30.6632396" lon="35.6638764"><ele>1428.3</ele><time>2015-11-22T15:59:15.0000000+00:00</time></trkpt><trkpt lat="30.6631196" lon="35.6638674"><ele>1427.2</ele><time>2015-11-22T15:59:16.0000000+00:00</time></trkpt><trkpt lat="30.6629937" lon="35.6638558"><ele>1426.7</ele><time>2015-11-22T15:59:17.0000000+00:00</time></trkpt><trkpt lat="30.6628782" lon="35.6638456"><ele>1426.0</ele><time>2015-11-22T15:59:18.0000000+00:00</time></trkpt><trkpt lat="30.6627547" lon="35.6638411"><ele>1425.1</ele><time>2015-11-22T15:59:19.0000000+00:00</time></trkpt><trkpt lat="30.6626326" lon="35.6638225"><ele>1425.1</ele><time>2015-11-22T15:59:20.0000000+00:00</time></trkpt><trkpt lat="30.6625116" lon="35.6638026"><ele>1425.2</ele><time>2015-11-22T15:59:21.0000000+00:00</time></trkpt><trkpt lat="30.6623969" lon="35.6637861"><ele>1425.2</ele><time>2015-11-22T15:59:22.0000000+00:00</time></trkpt><trkpt lat="30.6622797" lon="35.6637638"><ele>1425.2</ele><time>2015-11-22T15:59:23.0000000+00:00</time></trkpt><trkpt lat="30.6621555" lon="35.6637415"><ele>1424.7</ele><time>2015-11-22T15:59:24.0000000+00:00</time></trkpt><trkpt lat="30.6620367" lon="35.6637152"><ele>1423.9</ele><time>2015-11-22T15:59:25.0000000+00:00</time></trkpt><trkpt lat="30.6619324" lon="35.6636812"><ele>1422.6</ele><time>2015-11-22T15:59:26.0000000+00:00</time></trkpt><trkpt lat="30.6618135" lon="35.6636597"><ele>1422.4</ele><time>2015-11-22T15:59:27.0000000+00:00</time></trkpt><trkpt lat="30.6616953" lon="35.6636301"><ele>1421.8</ele><time>2015-11-22T15:59:28.0000000+00:00</time></trkpt><trkpt lat="30.6615718" lon="35.6636087"><ele>1421.0</ele><time>2015-11-22T15:59:29.0000000+00:00</time></trkpt><trkpt lat="30.6614606" lon="35.6635716"><ele>1420.1</ele><time>2015-11-22T15:59:30.0000000+00:00</time></trkpt><trkpt lat="30.6613476" lon="35.6635358"><ele>1419.2</ele><time>2015-11-22T15:59:31.0000000+00:00</time></trkpt><trkpt lat="30.6612366" lon="35.6635089"><ele>1419.2</ele><time>2015-11-22T15:59:32.0000000+00:00</time></trkpt><trkpt lat="30.6611284" lon="35.6634732"><ele>1418.7</ele><time>2015-11-22T15:59:33.0000000+00:00</time></trkpt><trkpt lat="30.6610201" lon="35.663448"><ele>1418.4</ele><time>2015-11-22T15:59:34.0000000+00:00</time></trkpt><trkpt lat="30.6609066" lon="35.6634192"><ele>1418.3</ele><time>2015-11-22T15:59:35.0000000+00:00</time></trkpt><trkpt lat="30.6607982" lon="35.6633815"><ele>1418.3</ele><time>2015-11-22T15:59:36.0000000+00:00</time></trkpt><trkpt lat="30.6606934" lon="35.6633489"><ele>1417.7</ele><time>2015-11-22T15:59:37.0000000+00:00</time></trkpt><trkpt lat="30.6605919" lon="35.6633106"><ele>1417.0</ele><time>2015-11-22T15:59:38.0000000+00:00</time></trkpt><trkpt lat="30.660489" lon="35.6632788"><ele>1416.1</ele><time>2015-11-22T15:59:39.0000000+00:00</time></trkpt><trkpt lat="30.6603889" lon="35.6632436"><ele>1416.1</ele><time>2015-11-22T15:59:40.0000000+00:00</time></trkpt><trkpt lat="30.6602884" lon="35.6632044"><ele>1415.7</ele><time>2015-11-22T15:59:41.0000000+00:00</time></trkpt><trkpt lat="30.6601835" lon="35.663161"><ele>1415.4</ele><time>2015-11-22T15:59:42.0000000+00:00</time></trkpt><trkpt lat="30.6600813" lon="35.6631161"><ele>1415.3</ele><time>2015-11-22T15:59:43.0000000+00:00</time></trkpt><trkpt lat="30.6599744" lon="35.66307"><ele>1415.3</ele><time>2015-11-22T15:59:44.0000000+00:00</time></trkpt><trkpt lat="30.6598738" lon="35.6630239"><ele>1414.7</ele><time>2015-11-22T15:59:45.0000000+00:00</time></trkpt><trkpt lat="30.6597844" lon="35.6629687"><ele>1414.5</ele><time>2015-11-22T15:59:46.0000000+00:00</time></trkpt><trkpt lat="30.6596866" lon="35.6629198"><ele>1413.8</ele><time>2015-11-22T15:59:47.0000000+00:00</time></trkpt><trkpt lat="30.659578" lon="35.6628635"><ele>1413.5</ele><time>2015-11-22T15:59:48.0000000+00:00</time></trkpt><trkpt lat="30.6594768" lon="35.6628168"><ele>1412.9</ele><time>2015-11-22T15:59:49.0000000+00:00</time></trkpt><trkpt lat="30.6593757" lon="35.662765"><ele>1412.5</ele><time>2015-11-22T15:59:50.0000000+00:00</time></trkpt><trkpt lat="30.6592823" lon="35.6627141"><ele>1411.9</ele><time>2015-11-22T15:59:51.0000000+00:00</time></trkpt><trkpt lat="30.659187" lon="35.6626556"><ele>1411.0</ele><time>2015-11-22T15:59:52.0000000+00:00</time></trkpt><trkpt lat="30.6590849" lon="35.6625982"><ele>1411.1</ele><time>2015-11-22T15:59:53.0000000+00:00</time></trkpt><trkpt lat="30.6589897" lon="35.6625474"><ele>1411.2</ele><time>2015-11-22T15:59:54.0000000+00:00</time></trkpt><trkpt lat="30.6588936" lon="35.6624903"><ele>1411.2</ele><time>2015-11-22T15:59:55.0000000+00:00</time></trkpt><trkpt lat="30.6588039" lon="35.6624436"><ele>1410.7</ele><time>2015-11-22T15:59:56.0000000+00:00</time></trkpt><trkpt lat="30.6587065" lon="35.6623893"><ele>1410.4</ele><time>2015-11-22T15:59:57.0000000+00:00</time></trkpt><trkpt lat="30.6586029" lon="35.6623459"><ele>1409.3</ele><time>2015-11-22T15:59:58.0000000+00:00</time></trkpt><trkpt lat="30.6585086" lon="35.6622825"><ele>1408.3</ele><time>2015-11-22T15:59:59.0000000+00:00</time></trkpt><trkpt lat="30.6584145" lon="35.6622314"><ele>1407.7</ele><time>2015-11-22T16:00:00.0000000+00:00</time></trkpt><trkpt lat="30.6583247" lon="35.6621859"><ele>1407.5</ele><time>2015-11-22T16:00:01.0000000+00:00</time></trkpt><trkpt lat="30.6582284" lon="35.6621329"><ele>1407.3</ele><time>2015-11-22T16:00:02.0000000+00:00</time></trkpt><trkpt lat="30.6581407" lon="35.6620759"><ele>1406.8</ele><time>2015-11-22T16:00:03.0000000+00:00</time></trkpt><trkpt lat="30.6580454" lon="35.662026"><ele>1406.5</ele><time>2015-11-22T16:00:04.0000000+00:00</time></trkpt><trkpt lat="30.6579577" lon="35.6619794"><ele>1405.3</ele><time>2015-11-22T16:00:05.0000000+00:00</time></trkpt><trkpt lat="30.6578712" lon="35.6619398"><ele>1404.8</ele><time>2015-11-22T16:00:06.0000000+00:00</time></trkpt><trkpt lat="30.6577875" lon="35.6618975"><ele>1404.0</ele><time>2015-11-22T16:00:07.0000000+00:00</time></trkpt><trkpt lat="30.6577029" lon="35.6618543"><ele>1403.6</ele><time>2015-11-22T16:00:08.0000000+00:00</time></trkpt><trkpt lat="30.6576157" lon="35.6618058"><ele>1403.4</ele><time>2015-11-22T16:00:09.0000000+00:00</time></trkpt><trkpt lat="30.6575258" lon="35.661763"><ele>1402.8</ele><time>2015-11-22T16:00:10.0000000+00:00</time></trkpt><trkpt lat="30.6574403" lon="35.6617162"><ele>1402.5</ele><time>2015-11-22T16:00:11.0000000+00:00</time></trkpt><trkpt lat="30.6573511" lon="35.6616773"><ele>1402.9</ele><time>2015-11-22T16:00:12.0000000+00:00</time></trkpt><trkpt lat="30.6572719" lon="35.6616396"><ele>1403.0</ele><time>2015-11-22T16:00:13.0000000+00:00</time></trkpt><trkpt lat="30.6571895" lon="35.6615868"><ele>1403.6</ele><time>2015-11-22T16:00:14.0000000+00:00</time></trkpt><trkpt lat="30.6571029" lon="35.6615339"><ele>1403.9</ele><time>2015-11-22T16:00:15.0000000+00:00</time></trkpt><trkpt lat="30.6570247" lon="35.6614851"><ele>1404.1</ele><time>2015-11-22T16:00:16.0000000+00:00</time></trkpt><trkpt lat="30.6569386" lon="35.6614444"><ele>1404.1</ele><time>2015-11-22T16:00:17.0000000+00:00</time></trkpt><trkpt lat="30.6568524" lon="35.6614042"><ele>1404.7</ele><time>2015-11-22T16:00:18.0000000+00:00</time></trkpt><trkpt lat="30.6567748" lon="35.6613635"><ele>1404.4</ele><time>2015-11-22T16:00:19.0000000+00:00</time></trkpt><trkpt lat="30.6566852" lon="35.661328"><ele>1404.8</ele><time>2015-11-22T16:00:20.0000000+00:00</time></trkpt><trkpt lat="30.6566126" lon="35.6612883"><ele>1404.5</ele><time>2015-11-22T16:00:21.0000000+00:00</time></trkpt><trkpt lat="30.6565329" lon="35.661256"><ele>1404.4</ele><time>2015-11-22T16:00:22.0000000+00:00</time></trkpt><trkpt lat="30.656457" lon="35.6612266"><ele>1404.8</ele><time>2015-11-22T16:00:23.0000000+00:00</time></trkpt><trkpt lat="30.6563793" lon="35.6611907"><ele>1405.0</ele><time>2015-11-22T16:00:24.0000000+00:00</time></trkpt><trkpt lat="30.6562946" lon="35.6611552"><ele>1405.6</ele><time>2015-11-22T16:00:25.0000000+00:00</time></trkpt><trkpt lat="30.6562255" lon="35.6611262"><ele>1405.4</ele><time>2015-11-22T16:00:26.0000000+00:00</time></trkpt><trkpt lat="30.6561548" lon="35.6610995"><ele>1405.8</ele><time>2015-11-22T16:00:27.0000000+00:00</time></trkpt><trkpt lat="30.656086" lon="35.6610605"><ele>1405.5</ele><time>2015-11-22T16:00:28.0000000+00:00</time></trkpt><trkpt lat="30.6560119" lon="35.6610289"><ele>1405.4</ele><time>2015-11-22T16:00:29.0000000+00:00</time></trkpt><trkpt lat="30.6559504" lon="35.6610022"><ele>1404.8</ele><time>2015-11-22T16:00:30.0000000+00:00</time></trkpt><trkpt lat="30.6558969" lon="35.6609805"><ele>1404.5</ele><time>2015-11-22T16:00:31.0000000+00:00</time></trkpt><trkpt lat="30.6558537" lon="35.6609623"><ele>1404.3</ele><time>2015-11-22T16:00:32.0000000+00:00</time></trkpt><trkpt lat="30.6557852" lon="35.6609478"><ele>1403.7</ele><time>2015-11-22T16:00:34.0000000+00:00</time></trkpt><trkpt lat="30.6557596" lon="35.6609047"><ele>1403.3</ele><time>2015-11-22T16:00:36.0000000+00:00</time></trkpt><trkpt lat="30.655773" lon="35.66082"><ele>1405.3</ele><time>2015-11-22T16:00:39.0000000+00:00</time></trkpt><trkpt lat="30.6557868" lon="35.6607524"><ele>1406.0</ele><time>2015-11-22T16:00:41.0000000+00:00</time></trkpt><trkpt lat="30.6557941" lon="35.6606767"><ele>1406.6</ele><time>2015-11-22T16:00:43.0000000+00:00</time></trkpt><trkpt lat="30.6557882" lon="35.6605975"><ele>1406.6</ele><time>2015-11-22T16:00:45.0000000+00:00</time></trkpt><trkpt lat="30.6557722" lon="35.6605197"><ele>1407.0</ele><time>2015-11-22T16:00:47.0000000+00:00</time></trkpt><trkpt lat="30.6557524" lon="35.6604379"><ele>1407.2</ele><time>2015-11-22T16:00:49.0000000+00:00</time></trkpt><trkpt lat="30.6557283" lon="35.660358"><ele>1407.9</ele><time>2015-11-22T16:00:51.0000000+00:00</time></trkpt><trkpt lat="30.6557047" lon="35.6602804"><ele>1407.1</ele><time>2015-11-22T16:00:53.0000000+00:00</time></trkpt><trkpt lat="30.6556841" lon="35.6602023"><ele>1407.2</ele><time>2015-11-22T16:00:55.0000000+00:00</time></trkpt><trkpt lat="30.6556618" lon="35.6601262"><ele>1406.9</ele><time>2015-11-22T16:00:57.0000000+00:00</time></trkpt><trkpt lat="30.6556368" lon="35.6600487"><ele>1406.6</ele><time>2015-11-22T16:00:59.0000000+00:00</time></trkpt><trkpt lat="30.6556114" lon="35.6599707"><ele>1407.1</ele><time>2015-11-22T16:01:01.0000000+00:00</time></trkpt><trkpt lat="30.6555826" lon="35.6598858"><ele>1407.2</ele><time>2015-11-22T16:01:03.0000000+00:00</time></trkpt><trkpt lat="30.6555441" lon="35.6597623"><ele>1407.2</ele><time>2015-11-22T16:01:05.0000000+00:00</time></trkpt><trkpt lat="30.6555381" lon="35.6597022"><ele>1407.2</ele><time>2015-11-22T16:01:06.0000000+00:00</time></trkpt><trkpt lat="30.6555319" lon="35.6596472"><ele>1407.2</ele><time>2015-11-22T16:01:07.0000000+00:00</time></trkpt><trkpt lat="30.6555267" lon="35.6595915"><ele>1406.7</ele><time>2015-11-22T16:01:08.0000000+00:00</time></trkpt><trkpt lat="30.6555061" lon="35.6595023"><ele>1406.6</ele><time>2015-11-22T16:01:10.0000000+00:00</time></trkpt><trkpt lat="30.6554961" lon="35.6594487"><ele>1406.9</ele><time>2015-11-22T16:01:11.0000000+00:00</time></trkpt><trkpt lat="30.6554806" lon="35.6593986"><ele>1406.5</ele><time>2015-11-22T16:01:12.0000000+00:00</time></trkpt><trkpt lat="30.6554734" lon="35.6593387"><ele>1406.4</ele><time>2015-11-22T16:01:13.0000000+00:00</time></trkpt><trkpt lat="30.6554703" lon="35.6592841"><ele>1405.8</ele><time>2015-11-22T16:01:14.0000000+00:00</time></trkpt><trkpt lat="30.6554662" lon="35.6592312"><ele>1405.5</ele><time>2015-11-22T16:01:15.0000000+00:00</time></trkpt><trkpt lat="30.6554402" lon="35.6591276"><ele>1406.0</ele><time>2015-11-22T16:01:17.0000000+00:00</time></trkpt><trkpt lat="30.6554235" lon="35.6590275"><ele>1406.7</ele><time>2015-11-22T16:01:19.0000000+00:00</time></trkpt><trkpt lat="30.6553917" lon="35.6589351"><ele>1407.6</ele><time>2015-11-22T16:01:21.0000000+00:00</time></trkpt><trkpt lat="30.6553569" lon="35.6588591"><ele>1408.0</ele><time>2015-11-22T16:01:23.0000000+00:00</time></trkpt><trkpt lat="30.6553346" lon="35.6587893"><ele>1408.7</ele><time>2015-11-22T16:01:25.0000000+00:00</time></trkpt><trkpt lat="30.6553027" lon="35.6587093"><ele>1409.6</ele><time>2015-11-22T16:01:27.0000000+00:00</time></trkpt><trkpt lat="30.6552626" lon="35.6586358"><ele>1411.3</ele><time>2015-11-22T16:01:29.0000000+00:00</time></trkpt><trkpt lat="30.6552251" lon="35.6585524"><ele>1412.0</ele><time>2015-11-22T16:01:31.0000000+00:00</time></trkpt><trkpt lat="30.6551821" lon="35.6584765"><ele>1411.4</ele><time>2015-11-22T16:01:33.0000000+00:00</time></trkpt><trkpt lat="30.6551436" lon="35.6583976"><ele>1411.5</ele><time>2015-11-22T16:01:35.0000000+00:00</time></trkpt><trkpt lat="30.6551129" lon="35.6583177"><ele>1412.0</ele><time>2015-11-22T16:01:37.0000000+00:00</time></trkpt><trkpt lat="30.655093" lon="35.6582384"><ele>1412.2</ele><time>2015-11-22T16:01:39.0000000+00:00</time></trkpt><trkpt lat="30.655082" lon="35.6581636"><ele>1412.2</ele><time>2015-11-22T16:01:41.0000000+00:00</time></trkpt><trkpt lat="30.6550789" lon="35.6581071"><ele>1412.4</ele><time>2015-11-22T16:01:43.0000000+00:00</time></trkpt><trkpt lat="30.6550778" lon="35.6580374"><ele>1413.1</ele><time>2015-11-22T16:01:46.0000000+00:00</time></trkpt><trkpt lat="30.655077" lon="35.6579648"><ele>1413.2</ele><time>2015-11-22T16:01:49.0000000+00:00</time></trkpt><trkpt lat="30.6550766" lon="35.6578908"><ele>1413.9</ele><time>2015-11-22T16:01:52.0000000+00:00</time></trkpt><trkpt lat="30.6550776" lon="35.6578145"><ele>1413.3</ele><time>2015-11-22T16:01:55.0000000+00:00</time></trkpt><trkpt lat="30.6550868" lon="35.6577388"><ele>1414.0</ele><time>2015-11-22T16:01:58.0000000+00:00</time></trkpt><trkpt lat="30.6551" lon="35.6576871"><ele>1414.1</ele><time>2015-11-22T16:02:00.0000000+00:00</time></trkpt><trkpt lat="30.6551092" lon="35.6576329"><ele>1414.7</ele><time>2015-11-22T16:02:02.0000000+00:00</time></trkpt><trkpt lat="30.6551184" lon="35.6575793"><ele>1415.1</ele><time>2015-11-22T16:02:04.0000000+00:00</time></trkpt><trkpt lat="30.6551296" lon="35.6575246"><ele>1414.9</ele><time>2015-11-22T16:02:06.0000000+00:00</time></trkpt><trkpt lat="30.655141" lon="35.6574713"><ele>1415.1</ele><time>2015-11-22T16:02:08.0000000+00:00</time></trkpt><trkpt lat="30.6551545" lon="35.6574204"><ele>1415.7</ele><time>2015-11-22T16:02:10.0000000+00:00</time></trkpt><trkpt lat="30.6551718" lon="35.657366"><ele>1416.1</ele><time>2015-11-22T16:02:12.0000000+00:00</time></trkpt><trkpt lat="30.6551891" lon="35.657309"><ele>1416.2</ele><time>2015-11-22T16:02:14.0000000+00:00</time></trkpt><trkpt lat="30.6552022" lon="35.657249"><ele>1416.7</ele><time>2015-11-22T16:02:16.0000000+00:00</time></trkpt><trkpt lat="30.6552147" lon="35.6571885"><ele>1417.6</ele><time>2015-11-22T16:02:18.0000000+00:00</time></trkpt><trkpt lat="30.6552232" lon="35.6571294"><ele>1417.3</ele><time>2015-11-22T16:02:20.0000000+00:00</time></trkpt><trkpt lat="30.6552308" lon="35.6570744"><ele>1418.0</ele><time>2015-11-22T16:02:22.0000000+00:00</time></trkpt><trkpt lat="30.6552444" lon="35.6570023"><ele>1419.5</ele><time>2015-11-22T16:02:25.0000000+00:00</time></trkpt><trkpt lat="30.655254" lon="35.656927"><ele>1420.1</ele><time>2015-11-22T16:02:28.0000000+00:00</time></trkpt><trkpt lat="30.6552601" lon="35.6568519"><ele>1418.6</ele><time>2015-11-22T16:02:31.0000000+00:00</time></trkpt><trkpt lat="30.6552665" lon="35.6567787"><ele>1419.1</ele><time>2015-11-22T16:02:34.0000000+00:00</time></trkpt><trkpt lat="30.6552731" lon="35.656704"><ele>1419.2</ele><time>2015-11-22T16:02:37.0000000+00:00</time></trkpt><trkpt lat="30.6552746" lon="35.6566517"><ele>1419.7</ele><time>2015-11-22T16:02:39.0000000+00:00</time></trkpt><trkpt lat="30.6552794" lon="35.6565757"><ele>1420.9</ele><time>2015-11-22T16:02:42.0000000+00:00</time></trkpt><trkpt lat="30.6552866" lon="35.6565033"><ele>1421.2</ele><time>2015-11-22T16:02:45.0000000+00:00</time></trkpt><trkpt lat="30.655289" lon="35.6564371"><ele>1420.9</ele><time>2015-11-22T16:02:48.0000000+00:00</time></trkpt><trkpt lat="30.6552926" lon="35.6563691"><ele>1421.2</ele><time>2015-11-22T16:02:51.0000000+00:00</time></trkpt><trkpt lat="30.655291" lon="35.6562985"><ele>1421.2</ele><time>2015-11-22T16:02:54.0000000+00:00</time></trkpt><trkpt lat="30.6552936" lon="35.6562242"><ele>1421.2</ele><time>2015-11-22T16:02:57.0000000+00:00</time></trkpt><trkpt lat="30.6553048" lon="35.6561571"><ele>1420.5</ele><time>2015-11-22T16:03:00.0000000+00:00</time></trkpt><trkpt lat="30.6553226" lon="35.656089"><ele>1421.1</ele><time>2015-11-22T16:03:03.0000000+00:00</time></trkpt><trkpt lat="30.6553467" lon="35.6560185"><ele>1421.2</ele><time>2015-11-22T16:03:06.0000000+00:00</time></trkpt><trkpt lat="30.655378" lon="35.6559549"><ele>1422.1</ele><time>2015-11-22T16:03:09.0000000+00:00</time></trkpt><trkpt lat="30.6554096" lon="35.6558872"><ele>1422.2</ele><time>2015-11-22T16:03:12.0000000+00:00</time></trkpt><trkpt lat="30.6554293" lon="35.6558364"><ele>1422.2</ele><time>2015-11-22T16:03:14.0000000+00:00</time></trkpt><trkpt lat="30.6554518" lon="35.6557832"><ele>1422.7</ele><time>2015-11-22T16:03:16.0000000+00:00</time></trkpt><trkpt lat="30.6554699" lon="35.6557285"><ele>1423.8</ele><time>2015-11-22T16:03:18.0000000+00:00</time></trkpt><trkpt lat="30.6554841" lon="35.6556765"><ele>1424.1</ele><time>2015-11-22T16:03:20.0000000+00:00</time></trkpt><trkpt lat="30.6554885" lon="35.6556225"><ele>1424.9</ele><time>2015-11-22T16:03:22.0000000+00:00</time></trkpt><trkpt lat="30.6554855" lon="35.6555664"><ele>1425.4</ele><time>2015-11-22T16:03:24.0000000+00:00</time></trkpt><trkpt lat="30.6554736" lon="35.6554913"><ele>1425.7</ele><time>2015-11-22T16:03:27.0000000+00:00</time></trkpt><trkpt lat="30.6554548" lon="35.6554181"><ele>1425.6</ele><time>2015-11-22T16:03:30.0000000+00:00</time></trkpt><trkpt lat="30.6554334" lon="35.6553459"><ele>1426.1</ele><time>2015-11-22T16:03:33.0000000+00:00</time></trkpt><trkpt lat="30.6554136" lon="35.655274"><ele>1426.2</ele><time>2015-11-22T16:03:36.0000000+00:00</time></trkpt><trkpt lat="30.6554067" lon="35.6551999"><ele>1426.2</ele><time>2015-11-22T16:03:39.0000000+00:00</time></trkpt><trkpt lat="30.6553957" lon="35.6551257"><ele>1425.7</ele><time>2015-11-22T16:03:42.0000000+00:00</time></trkpt><trkpt lat="30.6553891" lon="35.6550493"><ele>1424.5</ele><time>2015-11-22T16:03:45.0000000+00:00</time></trkpt><trkpt lat="30.6553892" lon="35.6549966"><ele>1424.3</ele><time>2015-11-22T16:03:47.0000000+00:00</time></trkpt><trkpt lat="30.6553924" lon="35.6549394"><ele>1424.2</ele><time>2015-11-22T16:03:49.0000000+00:00</time></trkpt><trkpt lat="30.6553997" lon="35.654877"><ele>1424.2</ele><time>2015-11-22T16:03:51.0000000+00:00</time></trkpt><trkpt lat="30.6554143" lon="35.6548066"><ele>1424.2</ele><time>2015-11-22T16:03:53.0000000+00:00</time></trkpt><trkpt lat="30.6554311" lon="35.6547372"><ele>1424.2</ele><time>2015-11-22T16:03:55.0000000+00:00</time></trkpt><trkpt lat="30.6554486" lon="35.6546733"><ele>1424.2</ele><time>2015-11-22T16:03:57.0000000+00:00</time></trkpt><trkpt lat="30.655469" lon="35.6546116"><ele>1424.0</ele><time>2015-11-22T16:03:59.0000000+00:00</time></trkpt><trkpt lat="30.6554952" lon="35.6545511"><ele>1424.1</ele><time>2015-11-22T16:04:01.0000000+00:00</time></trkpt><trkpt lat="30.6555212" lon="35.6544918"><ele>1424.7</ele><time>2015-11-22T16:04:03.0000000+00:00</time></trkpt><trkpt lat="30.6555451" lon="35.6544343"><ele>1425.1</ele><time>2015-11-22T16:04:05.0000000+00:00</time></trkpt><trkpt lat="30.6555667" lon="35.6543763"><ele>1424.7</ele><time>2015-11-22T16:04:07.0000000+00:00</time></trkpt><trkpt lat="30.6555887" lon="35.6543175"><ele>1424.3</ele><time>2015-11-22T16:04:09.0000000+00:00</time></trkpt><trkpt lat="30.65561" lon="35.6542604"><ele>1425.0</ele><time>2015-11-22T16:04:11.0000000+00:00</time></trkpt><trkpt lat="30.6556308" lon="35.6542045"><ele>1425.1</ele><time>2015-11-22T16:04:13.0000000+00:00</time></trkpt><trkpt lat="30.6556492" lon="35.65415"><ele>1425.2</ele><time>2015-11-22T16:04:15.0000000+00:00</time></trkpt><trkpt lat="30.6556622" lon="35.654091"><ele>1424.4</ele><time>2015-11-22T16:04:17.0000000+00:00</time></trkpt><trkpt lat="30.6556734" lon="35.6540303"><ele>1425.0</ele><time>2015-11-22T16:04:19.0000000+00:00</time></trkpt><trkpt lat="30.6556861" lon="35.6539661"><ele>1425.2</ele><time>2015-11-22T16:04:21.0000000+00:00</time></trkpt><trkpt lat="30.6556984" lon="35.653896"><ele>1424.7</ele><time>2015-11-22T16:04:23.0000000+00:00</time></trkpt><trkpt lat="30.6557152" lon="35.6538212"><ele>1424.3</ele><time>2015-11-22T16:04:25.0000000+00:00</time></trkpt><trkpt lat="30.6557355" lon="35.6537449"><ele>1424.2</ele><time>2015-11-22T16:04:27.0000000+00:00</time></trkpt><trkpt lat="30.6557542" lon="35.6536656"><ele>1423.5</ele><time>2015-11-22T16:04:29.0000000+00:00</time></trkpt><trkpt lat="30.6557729" lon="35.6535685"><ele>1422.5</ele><time>2015-11-22T16:04:31.0000000+00:00</time></trkpt><trkpt lat="30.6557816" lon="35.6535161"><ele>1422.9</ele><time>2015-11-22T16:04:32.0000000+00:00</time></trkpt><trkpt lat="30.6557906" lon="35.6534633"><ele>1423.0</ele><time>2015-11-22T16:04:33.0000000+00:00</time></trkpt><trkpt lat="30.6558006" lon="35.6534107"><ele>1423.1</ele><time>2015-11-22T16:04:34.0000000+00:00</time></trkpt><trkpt lat="30.6558201" lon="35.6533366"><ele>1423.2</ele><time>2015-11-22T16:04:35.0000000+00:00</time></trkpt><trkpt lat="30.6558343" lon="35.6532852"><ele>1423.2</ele><time>2015-11-22T16:04:36.0000000+00:00</time></trkpt><trkpt lat="30.6558596" lon="35.6531965"><ele>1423.7</ele><time>2015-11-22T16:04:38.0000000+00:00</time></trkpt><trkpt lat="30.6558963" lon="35.6531006"><ele>1424.1</ele><time>2015-11-22T16:04:40.0000000+00:00</time></trkpt><trkpt lat="30.6559173" lon="35.6530487"><ele>1424.1</ele><time>2015-11-22T16:04:41.0000000+00:00</time></trkpt><trkpt lat="30.655962" lon="35.6529617"><ele>1424.2</ele><time>2015-11-22T16:04:43.0000000+00:00</time></trkpt><trkpt lat="30.6559865" lon="35.6529171"><ele>1423.7</ele><time>2015-11-22T16:04:44.0000000+00:00</time></trkpt><trkpt lat="30.6560265" lon="35.652833"><ele>1423.3</ele><time>2015-11-22T16:04:46.0000000+00:00</time></trkpt><trkpt lat="30.6560593" lon="35.6527545"><ele>1422.5</ele><time>2015-11-22T16:04:48.0000000+00:00</time></trkpt><trkpt lat="30.6560887" lon="35.6526926"><ele>1422.3</ele><time>2015-11-22T16:04:50.0000000+00:00</time></trkpt><trkpt lat="30.6561102" lon="35.6526392"><ele>1421.5</ele><time>2015-11-22T16:04:52.0000000+00:00</time></trkpt><trkpt lat="30.6561239" lon="35.6525646"><ele>1420.4</ele><time>2015-11-22T16:04:55.0000000+00:00</time></trkpt><trkpt lat="30.6561382" lon="35.6524931"><ele>1419.5</ele><time>2015-11-22T16:04:58.0000000+00:00</time></trkpt><trkpt lat="30.6561475" lon="35.652424"><ele>1419.2</ele><time>2015-11-22T16:05:01.0000000+00:00</time></trkpt><trkpt lat="30.6561525" lon="35.652357"><ele>1420.0</ele><time>2015-11-22T16:05:04.0000000+00:00</time></trkpt><trkpt lat="30.6561586" lon="35.6522919"><ele>1421.0</ele><time>2015-11-22T16:05:07.0000000+00:00</time></trkpt><trkpt lat="30.6561635" lon="35.6522132"><ele>1421.2</ele><time>2015-11-22T16:05:10.0000000+00:00</time></trkpt><trkpt lat="30.6561702" lon="35.6521585"><ele>1421.4</ele><time>2015-11-22T16:05:12.0000000+00:00</time></trkpt><trkpt lat="30.6561769" lon="35.6521018"><ele>1422.0</ele><time>2015-11-22T16:05:14.0000000+00:00</time></trkpt><trkpt lat="30.6561756" lon="35.6520451"><ele>1422.2</ele><time>2015-11-22T16:05:16.0000000+00:00</time></trkpt><trkpt lat="30.6561727" lon="35.65199"><ele>1422.7</ele><time>2015-11-22T16:05:18.0000000+00:00</time></trkpt><trkpt lat="30.6561692" lon="35.6519356"><ele>1424.3</ele><time>2015-11-22T16:05:20.0000000+00:00</time></trkpt><trkpt lat="30.6561616" lon="35.6518765"><ele>1425.5</ele><time>2015-11-22T16:05:22.0000000+00:00</time></trkpt><trkpt lat="30.6561511" lon="35.6518138"><ele>1425.8</ele><time>2015-11-22T16:05:24.0000000+00:00</time></trkpt><trkpt lat="30.6561405" lon="35.6517483"><ele>1426.1</ele><time>2015-11-22T16:05:26.0000000+00:00</time></trkpt><trkpt lat="30.6561332" lon="35.6516808"><ele>1425.7</ele><time>2015-11-22T16:05:28.0000000+00:00</time></trkpt><trkpt lat="30.6561356" lon="35.6516095"><ele>1425.3</ele><time>2015-11-22T16:05:30.0000000+00:00</time></trkpt><trkpt lat="30.6561361" lon="35.6515362"><ele>1425.2</ele><time>2015-11-22T16:05:32.0000000+00:00</time></trkpt><trkpt lat="30.6561374" lon="35.6514535"><ele>1425.2</ele><time>2015-11-22T16:05:34.0000000+00:00</time></trkpt><trkpt lat="30.6561399" lon="35.6513708"><ele>1425.2</ele><time>2015-11-22T16:05:36.0000000+00:00</time></trkpt><trkpt lat="30.6561428" lon="35.6512902"><ele>1425.2</ele><time>2015-11-22T16:05:38.0000000+00:00</time></trkpt><trkpt lat="30.6561456" lon="35.6512108"><ele>1424.7</ele><time>2015-11-22T16:05:40.0000000+00:00</time></trkpt><trkpt lat="30.6561508" lon="35.6511364"><ele>1424.8</ele><time>2015-11-22T16:05:42.0000000+00:00</time></trkpt><trkpt lat="30.6561559" lon="35.6510621"><ele>1424.9</ele><time>2015-11-22T16:05:44.0000000+00:00</time></trkpt><trkpt lat="30.6561658" lon="35.65099"><ele>1425.6</ele><time>2015-11-22T16:05:46.0000000+00:00</time></trkpt><trkpt lat="30.6561784" lon="35.6509153"><ele>1425.3</ele><time>2015-11-22T16:05:48.0000000+00:00</time></trkpt><trkpt lat="30.656188" lon="35.6508366"><ele>1426.0</ele><time>2015-11-22T16:05:50.0000000+00:00</time></trkpt><trkpt lat="30.656197" lon="35.6507533"><ele>1426.1</ele><time>2015-11-22T16:05:52.0000000+00:00</time></trkpt><trkpt lat="30.6562119" lon="35.6506664"><ele>1425.7</ele><time>2015-11-22T16:05:54.0000000+00:00</time></trkpt><trkpt lat="30.6562252" lon="35.6505763"><ele>1425.3</ele><time>2015-11-22T16:05:56.0000000+00:00</time></trkpt><trkpt lat="30.656239" lon="35.650479"><ele>1425.2</ele><time>2015-11-22T16:05:58.0000000+00:00</time></trkpt><trkpt lat="30.6562521" lon="35.6503973"><ele>1425.2</ele><time>2015-11-22T16:05:59.0000000+00:00</time></trkpt><trkpt lat="30.6562656" lon="35.6503442"><ele>1425.2</ele><time>2015-11-22T16:06:00.0000000+00:00</time></trkpt><trkpt lat="30.6562754" lon="35.6502515"><ele>1424.2</ele><time>2015-11-22T16:06:02.0000000+00:00</time></trkpt><trkpt lat="30.6562817" lon="35.6501838"><ele>1423.5</ele><time>2015-11-22T16:06:04.0000000+00:00</time></trkpt><trkpt lat="30.6562881" lon="35.6501271"><ele>1419.0</ele><time>2015-11-22T16:07:02.0000000+00:00</time></trkpt><trkpt lat="30.6562947" lon="35.650072"><ele>1419.1</ele><time>2015-11-22T16:07:05.0000000+00:00</time></trkpt><trkpt lat="30.6563021" lon="35.6500146"><ele>1419.7</ele><time>2015-11-22T16:07:07.0000000+00:00</time></trkpt><trkpt lat="30.6563137" lon="35.6499564"><ele>1420.1</ele><time>2015-11-22T16:07:09.0000000+00:00</time></trkpt><trkpt lat="30.6563222" lon="35.6499036"><ele>1420.2</ele><time>2015-11-22T16:07:11.0000000+00:00</time></trkpt><trkpt lat="30.6563175" lon="35.6498365"><ele>1421.0</ele><time>2015-11-22T16:07:17.0000000+00:00</time></trkpt><trkpt lat="30.6563265" lon="35.649782"><ele>1420.4</ele><time>2015-11-22T16:07:19.0000000+00:00</time></trkpt><trkpt lat="30.6563406" lon="35.6497152"><ele>1420.2</ele><time>2015-11-22T16:07:21.0000000+00:00</time></trkpt><trkpt lat="30.6563557" lon="35.6496492"><ele>1420.2</ele><time>2015-11-22T16:07:23.0000000+00:00</time></trkpt><trkpt lat="30.6563697" lon="35.6495886"><ele>1420.7</ele><time>2015-11-22T16:07:25.0000000+00:00</time></trkpt><trkpt lat="30.6563857" lon="35.6495342"><ele>1421.1</ele><time>2015-11-22T16:07:27.0000000+00:00</time></trkpt><trkpt lat="30.6564023" lon="35.6494716"><ele>1419.7</ele><time>2015-11-22T16:07:47.0000000+00:00</time></trkpt><trkpt lat="30.6564121" lon="35.6493867"><ele>1419.3</ele><time>2015-11-22T16:07:50.0000000+00:00</time></trkpt><trkpt lat="30.656425" lon="35.6493042"><ele>1418.7</ele><time>2015-11-22T16:07:52.0000000+00:00</time></trkpt><trkpt lat="30.6564296" lon="35.6492033"><ele>1418.6</ele><time>2015-11-22T16:07:54.0000000+00:00</time></trkpt><trkpt lat="30.6564288" lon="35.6491476"><ele>1418.9</ele><time>2015-11-22T16:07:55.0000000+00:00</time></trkpt><trkpt lat="30.6564266" lon="35.6490512"><ele>1418.5</ele><time>2015-11-22T16:07:56.0000000+00:00</time></trkpt><trkpt lat="30.6564268" lon="35.6489849"><ele>1418.4</ele><time>2015-11-22T16:07:57.0000000+00:00</time></trkpt><trkpt lat="30.656428" lon="35.6489236"><ele>1417.8</ele><time>2015-11-22T16:07:58.0000000+00:00</time></trkpt><trkpt lat="30.6564247" lon="35.648857"><ele>1417.5</ele><time>2015-11-22T16:07:59.0000000+00:00</time></trkpt><trkpt lat="30.6564293" lon="35.6487951"><ele>1416.8</ele><time>2015-11-22T16:08:00.0000000+00:00</time></trkpt><trkpt lat="30.6564341" lon="35.6487383"><ele>1416.5</ele><time>2015-11-22T16:08:01.0000000+00:00</time></trkpt><trkpt lat="30.6564392" lon="35.6486814"><ele>1416.4</ele><time>2015-11-22T16:08:02.0000000+00:00</time></trkpt><trkpt lat="30.6564463" lon="35.6486101"><ele>1416.3</ele><time>2015-11-22T16:08:03.0000000+00:00</time></trkpt><trkpt lat="30.6564556" lon="35.6485398"><ele>1415.7</ele><time>2015-11-22T16:08:04.0000000+00:00</time></trkpt><trkpt lat="30.6564654" lon="35.6484754"><ele>1416.0</ele><time>2015-11-22T16:08:05.0000000+00:00</time></trkpt><trkpt lat="30.6564789" lon="35.648412"><ele>1416.1</ele><time>2015-11-22T16:08:06.0000000+00:00</time></trkpt><trkpt lat="30.6564927" lon="35.6483464"><ele>1415.6</ele><time>2015-11-22T16:08:07.0000000+00:00</time></trkpt><trkpt lat="30.656504" lon="35.648285"><ele>1415.4</ele><time>2015-11-22T16:08:08.0000000+00:00</time></trkpt><trkpt lat="30.6565113" lon="35.6482196"><ele>1415.3</ele><time>2015-11-22T16:08:09.0000000+00:00</time></trkpt><trkpt lat="30.6565206" lon="35.6481506"><ele>1415.3</ele><time>2015-11-22T16:08:10.0000000+00:00</time></trkpt><trkpt lat="30.6565296" lon="35.6480922"><ele>1415.2</ele><time>2015-11-22T16:08:11.0000000+00:00</time></trkpt><trkpt lat="30.656531" lon="35.6480373"><ele>1415.2</ele><time>2015-11-22T16:08:12.0000000+00:00</time></trkpt><trkpt lat="30.6565348" lon="35.6479784"><ele>1415.2</ele><time>2015-11-22T16:08:13.0000000+00:00</time></trkpt><trkpt lat="30.6565524" lon="35.6478802"><ele>1414.5</ele><time>2015-11-22T16:08:15.0000000+00:00</time></trkpt><trkpt lat="30.656553" lon="35.6477949"><ele>1414.3</ele><time>2015-11-22T16:08:17.0000000+00:00</time></trkpt><trkpt lat="30.6565613" lon="35.6477056"><ele>1413.5</ele><time>2015-11-22T16:08:19.0000000+00:00</time></trkpt><trkpt lat="30.6565759" lon="35.647631"><ele>1413.3</ele><time>2015-11-22T16:08:21.0000000+00:00</time></trkpt><trkpt lat="30.6565907" lon="35.6475557"><ele>1413.2</ele><time>2015-11-22T16:08:23.0000000+00:00</time></trkpt><trkpt lat="30.6566049" lon="35.6474867"><ele>1414.0</ele><time>2015-11-22T16:08:25.0000000+00:00</time></trkpt><trkpt lat="30.6566159" lon="35.6474137"><ele>1414.1</ele><time>2015-11-22T16:08:27.0000000+00:00</time></trkpt><trkpt lat="30.6566261" lon="35.6473359"><ele>1414.2</ele><time>2015-11-22T16:08:29.0000000+00:00</time></trkpt><trkpt lat="30.6566436" lon="35.6472576"><ele>1414.2</ele><time>2015-11-22T16:08:31.0000000+00:00</time></trkpt><trkpt lat="30.656658" lon="35.6471772"><ele>1415.0</ele><time>2015-11-22T16:08:33.0000000+00:00</time></trkpt><trkpt lat="30.6566724" lon="35.6470957"><ele>1414.4</ele><time>2015-11-22T16:08:35.0000000+00:00</time></trkpt><trkpt lat="30.6566873" lon="35.6470151"><ele>1414.5</ele><time>2015-11-22T16:08:37.0000000+00:00</time></trkpt><trkpt lat="30.6567053" lon="35.6469387"><ele>1414.8</ele><time>2015-11-22T16:08:39.0000000+00:00</time></trkpt><trkpt lat="30.656723" lon="35.6468656"><ele>1415.1</ele><time>2015-11-22T16:08:41.0000000+00:00</time></trkpt><trkpt lat="30.6567369" lon="35.646794"><ele>1415.7</ele><time>2015-11-22T16:08:43.0000000+00:00</time></trkpt><trkpt lat="30.6567486" lon="35.646728"><ele>1416.1</ele><time>2015-11-22T16:08:45.0000000+00:00</time></trkpt><trkpt lat="30.6567587" lon="35.6466658"><ele>1416.9</ele><time>2015-11-22T16:08:47.0000000+00:00</time></trkpt><trkpt lat="30.6567699" lon="35.6466059"><ele>1417.6</ele><time>2015-11-22T16:08:49.0000000+00:00</time></trkpt><trkpt lat="30.6567766" lon="35.6465466"><ele>1418.6</ele><time>2015-11-22T16:08:51.0000000+00:00</time></trkpt><trkpt lat="30.6567816" lon="35.6464892"><ele>1420.3</ele><time>2015-11-22T16:08:53.0000000+00:00</time></trkpt><trkpt lat="30.6567865" lon="35.6464338"><ele>1421.7</ele><time>2015-11-22T16:08:55.0000000+00:00</time></trkpt><trkpt lat="30.6567912" lon="35.6463774"><ele>1422.6</ele><time>2015-11-22T16:08:57.0000000+00:00</time></trkpt><trkpt lat="30.6568009" lon="35.6463219"><ele>1423.8</ele><time>2015-11-22T16:08:59.0000000+00:00</time></trkpt><trkpt lat="30.6568107" lon="35.6462665"><ele>1424.1</ele><time>2015-11-22T16:09:01.0000000+00:00</time></trkpt><trkpt lat="30.6568178" lon="35.6462112"><ele>1424.2</ele><time>2015-11-22T16:09:03.0000000+00:00</time></trkpt><trkpt lat="30.6568338" lon="35.6461435"><ele>1424.2</ele><time>2015-11-22T16:09:06.0000000+00:00</time></trkpt><trkpt lat="30.6568422" lon="35.6460906"><ele>1425.1</ele><time>2015-11-22T16:09:11.0000000+00:00</time></trkpt><trkpt lat="30.6568556" lon="35.6460353"><ele>1425.7</ele><time>2015-11-22T16:09:22.0000000+00:00</time></trkpt><trkpt lat="30.6568678" lon="35.6459806"><ele>1426.7</ele><time>2015-11-22T16:09:26.0000000+00:00</time></trkpt><trkpt lat="30.6568701" lon="35.6459252"><ele>1426.4</ele><time>2015-11-22T16:09:29.0000000+00:00</time></trkpt><trkpt lat="30.6568797" lon="35.6458562"><ele>1425.3</ele><time>2015-11-22T16:09:32.0000000+00:00</time></trkpt><trkpt lat="30.656888" lon="35.6457921"><ele>1425.2</ele><time>2015-11-22T16:09:34.0000000+00:00</time></trkpt><trkpt lat="30.6568959" lon="35.6457198"><ele>1425.2</ele><time>2015-11-22T16:09:36.0000000+00:00</time></trkpt><trkpt lat="30.6569064" lon="35.6456386"><ele>1424.5</ele><time>2015-11-22T16:09:38.0000000+00:00</time></trkpt><trkpt lat="30.6569194" lon="35.6455414"><ele>1423.5</ele><time>2015-11-22T16:09:40.0000000+00:00</time></trkpt><trkpt lat="30.6569255" lon="35.6454892"><ele>1423.4</ele><time>2015-11-22T16:09:41.0000000+00:00</time></trkpt><trkpt lat="30.656931" lon="35.6454059"><ele>1422.8</ele><time>2015-11-22T16:09:42.0000000+00:00</time></trkpt><trkpt lat="30.6569424" lon="35.6453476"><ele>1422.5</ele><time>2015-11-22T16:09:43.0000000+00:00</time></trkpt><trkpt lat="30.6569504" lon="35.6452878"><ele>1421.8</ele><time>2015-11-22T16:09:44.0000000+00:00</time></trkpt><trkpt lat="30.6569647" lon="35.6452242"><ele>1421.5</ele><time>2015-11-22T16:09:45.0000000+00:00</time></trkpt><trkpt lat="30.6569741" lon="35.6451674"><ele>1421.4</ele><time>2015-11-22T16:09:46.0000000+00:00</time></trkpt><trkpt lat="30.6569932" lon="35.6450898"><ele>1421.2</ele><time>2015-11-22T16:09:48.0000000+00:00</time></trkpt><trkpt lat="30.657007" lon="35.645035"><ele>1420.7</ele><time>2015-11-22T16:09:50.0000000+00:00</time></trkpt><trkpt lat="30.6570199" lon="35.6449685"><ele>1420.6</ele><time>2015-11-22T16:09:52.0000000+00:00</time></trkpt><trkpt lat="30.6570363" lon="35.6448704"><ele>1420.3</ele><time>2015-11-22T16:09:54.0000000+00:00</time></trkpt><trkpt lat="30.6570511" lon="35.6447615"><ele>1419.7</ele><time>2015-11-22T16:09:56.0000000+00:00</time></trkpt><trkpt lat="30.6570621" lon="35.6447056"><ele>1419.3</ele><time>2015-11-22T16:09:58.0000000+00:00</time></trkpt><trkpt lat="30.6570655" lon="35.644631"><ele>1418.0</ele><time>2015-11-22T16:10:03.0000000+00:00</time></trkpt><trkpt lat="30.6570783" lon="35.6445557"><ele>1417.4</ele><time>2015-11-22T16:10:05.0000000+00:00</time></trkpt><trkpt lat="30.6570886" lon="35.6444668"><ele>1417.2</ele><time>2015-11-22T16:10:07.0000000+00:00</time></trkpt><trkpt lat="30.6571131" lon="35.6443622"><ele>1416.5</ele><time>2015-11-22T16:10:09.0000000+00:00</time></trkpt><trkpt lat="30.6571274" lon="35.6443092"><ele>1416.3</ele><time>2015-11-22T16:10:10.0000000+00:00</time></trkpt><trkpt lat="30.657144" lon="35.644254"><ele>1416.3</ele><time>2015-11-22T16:10:11.0000000+00:00</time></trkpt><trkpt lat="30.6571675" lon="35.6441998"><ele>1416.2</ele><time>2015-11-22T16:10:12.0000000+00:00</time></trkpt><trkpt lat="30.6571896" lon="35.6441537"><ele>1415.7</ele><time>2015-11-22T16:10:13.0000000+00:00</time></trkpt><trkpt lat="30.6572098" lon="35.644106"><ele>1415.0</ele><time>2015-11-22T16:10:14.0000000+00:00</time></trkpt><trkpt lat="30.6572327" lon="35.6440607"><ele>1414.6</ele><time>2015-11-22T16:10:15.0000000+00:00</time></trkpt><trkpt lat="30.6572622" lon="35.6440162"><ele>1414.4</ele><time>2015-11-22T16:10:16.0000000+00:00</time></trkpt><trkpt lat="30.6573101" lon="35.6439532"><ele>1415.0</ele><time>2015-11-22T16:10:18.0000000+00:00</time></trkpt><trkpt lat="30.6573546" lon="35.6438747"><ele>1414.4</ele><time>2015-11-22T16:10:20.0000000+00:00</time></trkpt><trkpt lat="30.657394" lon="35.6437995"><ele>1413.8</ele><time>2015-11-22T16:10:22.0000000+00:00</time></trkpt><trkpt lat="30.6574356" lon="35.6437121"><ele>1412.6</ele><time>2015-11-22T16:10:24.0000000+00:00</time></trkpt><trkpt lat="30.6574732" lon="35.6436275"><ele>1411.8</ele><time>2015-11-22T16:10:26.0000000+00:00</time></trkpt><trkpt lat="30.6575131" lon="35.6435518"><ele>1411.4</ele><time>2015-11-22T16:10:28.0000000+00:00</time></trkpt><trkpt lat="30.6575443" lon="35.6435029"><ele>1410.8</ele><time>2015-11-22T16:10:29.0000000+00:00</time></trkpt><trkpt lat="30.6575765" lon="35.6434514"><ele>1410.5</ele><time>2015-11-22T16:10:30.0000000+00:00</time></trkpt><trkpt lat="30.6576077" lon="35.6433977"><ele>1409.8</ele><time>2015-11-22T16:10:31.0000000+00:00</time></trkpt><trkpt lat="30.6576476" lon="35.6433333"><ele>1409.0</ele><time>2015-11-22T16:10:32.0000000+00:00</time></trkpt><trkpt lat="30.6576891" lon="35.6432658"><ele>1408.1</ele><time>2015-11-22T16:10:33.0000000+00:00</time></trkpt><trkpt lat="30.6577302" lon="35.643201"><ele>1407.2</ele><time>2015-11-22T16:10:34.0000000+00:00</time></trkpt><trkpt lat="30.6577689" lon="35.6431461"><ele>1407.2</ele><time>2015-11-22T16:10:35.0000000+00:00</time></trkpt><trkpt lat="30.6578144" lon="35.643054"><ele>1406.7</ele><time>2015-11-22T16:10:37.0000000+00:00</time></trkpt><trkpt lat="30.6578344" lon="35.643006"><ele>1406.4</ele><time>2015-11-22T16:10:38.0000000+00:00</time></trkpt><trkpt lat="30.65787" lon="35.6429216"><ele>1406.8</ele><time>2015-11-22T16:10:40.0000000+00:00</time></trkpt><trkpt lat="30.6579005" lon="35.6428361"><ele>1407.6</ele><time>2015-11-22T16:10:42.0000000+00:00</time></trkpt><trkpt lat="30.6579083" lon="35.6427619"><ele>1408.0</ele><time>2015-11-22T16:10:44.0000000+00:00</time></trkpt><trkpt lat="30.6579345" lon="35.6426731"><ele>1408.2</ele><time>2015-11-22T16:10:46.0000000+00:00</time></trkpt><trkpt lat="30.6579534" lon="35.6426244"><ele>1408.7</ele><time>2015-11-22T16:10:47.0000000+00:00</time></trkpt><trkpt lat="30.6579784" lon="35.6425342"><ele>1409.1</ele><time>2015-11-22T16:10:49.0000000+00:00</time></trkpt><trkpt lat="30.6580015" lon="35.6424487"><ele>1408.7</ele><time>2015-11-22T16:10:51.0000000+00:00</time></trkpt><trkpt lat="30.6580179" lon="35.6423653"><ele>1408.3</ele><time>2015-11-22T16:10:53.0000000+00:00</time></trkpt><trkpt lat="30.6580304" lon="35.6422843"><ele>1408.2</ele><time>2015-11-22T16:10:55.0000000+00:00</time></trkpt><trkpt lat="30.6580395" lon="35.6422109"><ele>1408.2</ele><time>2015-11-22T16:10:57.0000000+00:00</time></trkpt><trkpt lat="30.6580312" lon="35.6421504"><ele>1409.5</ele><time>2015-11-22T16:10:59.0000000+00:00</time></trkpt><trkpt lat="30.6579932" lon="35.6420892"><ele>1410.1</ele><time>2015-11-22T16:11:02.0000000+00:00</time></trkpt><trkpt lat="30.6579552" lon="35.6420525"><ele>1410.2</ele><time>2015-11-22T16:11:04.0000000+00:00</time></trkpt><trkpt lat="30.6579215" lon="35.6420101"><ele>1410.9</ele><time>2015-11-22T16:11:06.0000000+00:00</time></trkpt><trkpt lat="30.6578874" lon="35.6419668"><ele>1412.4</ele><time>2015-11-22T16:11:08.0000000+00:00</time></trkpt><trkpt lat="30.6578485" lon="35.6419234"><ele>1413.0</ele><time>2015-11-22T16:11:10.0000000+00:00</time></trkpt><trkpt lat="30.6578099" lon="35.6418754"><ele>1413.2</ele><time>2015-11-22T16:11:12.0000000+00:00</time></trkpt><trkpt lat="30.6577683" lon="35.6418158"><ele>1412.7</ele><time>2015-11-22T16:11:14.0000000+00:00</time></trkpt><trkpt lat="30.6577219" lon="35.6417496"><ele>1412.3</ele><time>2015-11-22T16:11:16.0000000+00:00</time></trkpt><trkpt lat="30.657684" lon="35.6416884"><ele>1412.5</ele><time>2015-11-22T16:11:18.0000000+00:00</time></trkpt><trkpt lat="30.6576572" lon="35.6416417"><ele>1413.0</ele><time>2015-11-22T16:11:21.0000000+00:00</time></trkpt><trkpt lat="30.6576173" lon="35.6416065"><ele>1413.1</ele><time>2015-11-22T16:11:46.0000000+00:00</time></trkpt><trkpt lat="30.657595" lon="35.6415508"><ele>1413.6</ele><time>2015-11-22T16:11:50.0000000+00:00</time></trkpt><trkpt lat="30.657586" lon="35.6414861"><ele>1413.9</ele><time>2015-11-22T16:11:54.0000000+00:00</time></trkpt><trkpt lat="30.6575516" lon="35.6414523"><ele>1412.2</ele><time>2015-11-22T16:16:43.0000000+00:00</time></trkpt><trkpt lat="30.6575063" lon="35.6414144"><ele>1412.2</ele><time>2015-11-22T16:16:49.0000000+00:00</time></trkpt><trkpt lat="30.6574618" lon="35.6413698"><ele>1412.2</ele><time>2015-11-22T16:16:52.0000000+00:00</time></trkpt><trkpt lat="30.6574196" lon="35.6413301"><ele>1412.2</ele><time>2015-11-22T16:16:55.0000000+00:00</time></trkpt><trkpt lat="30.6573849" lon="35.6412819"><ele>1413.5</ele><time>2015-11-22T16:16:58.0000000+00:00</time></trkpt><trkpt lat="30.6573508" lon="35.6412381"><ele>1415.7</ele><time>2015-11-22T16:17:01.0000000+00:00</time></trkpt><trkpt lat="30.6573165" lon="35.6411914"><ele>1416.5</ele><time>2015-11-22T16:17:04.0000000+00:00</time></trkpt><trkpt lat="30.6572746" lon="35.6411424"><ele>1416.7</ele><time>2015-11-22T16:17:07.0000000+00:00</time></trkpt><trkpt lat="30.6572402" lon="35.6410943"><ele>1416.3</ele><time>2015-11-22T16:17:10.0000000+00:00</time></trkpt><trkpt lat="30.6572084" lon="35.6410438"><ele>1417.6</ele><time>2015-11-22T16:17:13.0000000+00:00</time></trkpt><trkpt lat="30.6571717" lon="35.6409925"><ele>1416.4</ele><time>2015-11-22T16:17:16.0000000+00:00</time></trkpt><trkpt lat="30.6571365" lon="35.6409442"><ele>1414.5</ele><time>2015-11-22T16:17:19.0000000+00:00</time></trkpt><trkpt lat="30.6571004" lon="35.640889"><ele>1413.5</ele><time>2015-11-22T16:17:22.0000000+00:00</time></trkpt><trkpt lat="30.6570632" lon="35.6408363"><ele>1413.7</ele><time>2015-11-22T16:17:25.0000000+00:00</time></trkpt><trkpt lat="30.6570222" lon="35.6407797"><ele>1415.8</ele><time>2015-11-22T16:17:28.0000000+00:00</time></trkpt><trkpt lat="30.6569842" lon="35.6407223"><ele>1416.6</ele><time>2015-11-22T16:17:31.0000000+00:00</time></trkpt><trkpt lat="30.6569437" lon="35.6406719"><ele>1417.1</ele><time>2015-11-22T16:17:34.0000000+00:00</time></trkpt><trkpt lat="30.6569019" lon="35.6406236"><ele>1417.9</ele><time>2015-11-22T16:17:37.0000000+00:00</time></trkpt><trkpt lat="30.656859" lon="35.640577"><ele>1419.0</ele><time>2015-11-22T16:17:40.0000000+00:00</time></trkpt><trkpt lat="30.6568189" lon="35.6405284"><ele>1418.7</ele><time>2015-11-22T16:17:43.0000000+00:00</time></trkpt><trkpt lat="30.6567779" lon="35.6404783"><ele>1419.1</ele><time>2015-11-22T16:17:46.0000000+00:00</time></trkpt><trkpt lat="30.6567342" lon="35.6404325"><ele>1419.2</ele><time>2015-11-22T16:17:49.0000000+00:00</time></trkpt><trkpt lat="30.6566924" lon="35.6403922"><ele>1419.9</ele><time>2015-11-22T16:17:52.0000000+00:00</time></trkpt><trkpt lat="30.6566508" lon="35.6403569"><ele>1419.4</ele><time>2015-11-22T16:17:55.0000000+00:00</time></trkpt><trkpt lat="30.6566215" lon="35.6403083"><ele>1421.0</ele><time>2015-11-22T16:17:58.0000000+00:00</time></trkpt><trkpt lat="30.6565887" lon="35.6402586"><ele>1422.5</ele><time>2015-11-22T16:18:01.0000000+00:00</time></trkpt><trkpt lat="30.6565474" lon="35.6402137"><ele>1423.6</ele><time>2015-11-22T16:18:04.0000000+00:00</time></trkpt><trkpt lat="30.6565087" lon="35.6401605"><ele>1424.9</ele><time>2015-11-22T16:18:07.0000000+00:00</time></trkpt><trkpt lat="30.6564711" lon="35.6401071"><ele>1425.2</ele><time>2015-11-22T16:18:10.0000000+00:00</time></trkpt><trkpt lat="30.6564286" lon="35.6400557"><ele>1424.3</ele><time>2015-11-22T16:18:13.0000000+00:00</time></trkpt><trkpt lat="30.6563863" lon="35.6400019"><ele>1425.1</ele><time>2015-11-22T16:18:16.0000000+00:00</time></trkpt><trkpt lat="30.6563443" lon="35.639947"><ele>1425.4</ele><time>2015-11-22T16:18:19.0000000+00:00</time></trkpt><trkpt lat="30.6563167" lon="35.6399056"><ele>1425.5</ele><time>2015-11-22T16:18:21.0000000+00:00</time></trkpt><trkpt lat="30.6562877" lon="35.6398623"><ele>1426.0</ele><time>2015-11-22T16:18:23.0000000+00:00</time></trkpt><trkpt lat="30.6562614" lon="35.6398169"><ele>1427.7</ele><time>2015-11-22T16:18:25.0000000+00:00</time></trkpt><trkpt lat="30.6562329" lon="35.6397744"><ele>1428.8</ele><time>2015-11-22T16:18:27.0000000+00:00</time></trkpt><trkpt lat="30.6562045" lon="35.6397326"><ele>1429.1</ele><time>2015-11-22T16:18:29.0000000+00:00</time></trkpt><trkpt lat="30.6561583" lon="35.6396756"><ele>1430.1</ele><time>2015-11-22T16:18:32.0000000+00:00</time></trkpt><trkpt lat="30.656116" lon="35.639619"><ele>1430.7</ele><time>2015-11-22T16:18:35.0000000+00:00</time></trkpt><trkpt lat="30.6560664" lon="35.6395732"><ele>1430.4</ele><time>2015-11-22T16:18:38.0000000+00:00</time></trkpt><trkpt lat="30.6560299" lon="35.6395261"><ele>1430.7</ele><time>2015-11-22T16:18:41.0000000+00:00</time></trkpt><trkpt lat="30.6559897" lon="35.6394867"><ele>1432.0</ele><time>2015-11-22T16:18:44.0000000+00:00</time></trkpt><trkpt lat="30.6559482" lon="35.6394535"><ele>1432.6</ele><time>2015-11-22T16:18:47.0000000+00:00</time></trkpt><trkpt lat="30.6559037" lon="35.6394144"><ele>1432.4</ele><time>2015-11-22T16:18:50.0000000+00:00</time></trkpt><trkpt lat="30.6558612" lon="35.6393842"><ele>1433.6</ele><time>2015-11-22T16:18:53.0000000+00:00</time></trkpt><trkpt lat="30.6558168" lon="35.6393402"><ele>1436.3</ele><time>2015-11-22T16:18:57.0000000+00:00</time></trkpt><trkpt lat="30.6557812" lon="35.6393023"><ele>1437.6</ele><time>2015-11-22T16:19:00.0000000+00:00</time></trkpt><trkpt lat="30.6557335" lon="35.6392728"><ele>1438.4</ele><time>2015-11-22T16:19:03.0000000+00:00</time></trkpt><trkpt lat="30.6556832" lon="35.6392408"><ele>1440.2</ele><time>2015-11-22T16:19:06.0000000+00:00</time></trkpt><trkpt lat="30.6556303" lon="35.6392021"><ele>1443.0</ele><time>2015-11-22T16:19:09.0000000+00:00</time></trkpt><trkpt lat="30.6555784" lon="35.6391657"><ele>1443.8</ele><time>2015-11-22T16:19:12.0000000+00:00</time></trkpt><trkpt lat="30.6555277" lon="35.6391288"><ele>1444.0</ele><time>2015-11-22T16:19:15.0000000+00:00</time></trkpt><trkpt lat="30.6554758" lon="35.6390875"><ele>1445.3</ele><time>2015-11-22T16:19:18.0000000+00:00</time></trkpt><trkpt lat="30.6554225" lon="35.6390512"><ele>1446.8</ele><time>2015-11-22T16:19:21.0000000+00:00</time></trkpt><trkpt lat="30.6553722" lon="35.6390156"><ele>1447.0</ele><time>2015-11-22T16:19:24.0000000+00:00</time></trkpt><trkpt lat="30.6553276" lon="35.6389799"><ele>1447.2</ele><time>2015-11-22T16:19:27.0000000+00:00</time></trkpt><trkpt lat="30.6552866" lon="35.6389284"><ele>1447.3</ele><time>2015-11-22T16:19:31.0000000+00:00</time></trkpt><trkpt lat="30.6552563" lon="35.6388841"><ele>1447.6</ele><time>2015-11-22T16:19:34.0000000+00:00</time></trkpt><trkpt lat="30.6552225" lon="35.6388418"><ele>1447.2</ele><time>2015-11-22T16:19:37.0000000+00:00</time></trkpt><trkpt lat="30.6551807" lon="35.6387998"><ele>1447.3</ele><time>2015-11-22T16:19:40.0000000+00:00</time></trkpt><trkpt lat="30.655135" lon="35.6387598"><ele>1447.2</ele><time>2015-11-22T16:19:43.0000000+00:00</time></trkpt><trkpt lat="30.6550912" lon="35.638724"><ele>1446.5</ele><time>2015-11-22T16:19:46.0000000+00:00</time></trkpt><trkpt lat="30.6550491" lon="35.6386872"><ele>1445.7</ele><time>2015-11-22T16:19:49.0000000+00:00</time></trkpt><trkpt lat="30.6550078" lon="35.6386515"><ele>1444.4</ele><time>2015-11-22T16:19:52.0000000+00:00</time></trkpt><trkpt lat="30.6549654" lon="35.6386062"><ele>1443.3</ele><time>2015-11-22T16:19:55.0000000+00:00</time></trkpt><trkpt lat="30.654919" lon="35.6385588"><ele>1444.0</ele><time>2015-11-22T16:19:58.0000000+00:00</time></trkpt><trkpt lat="30.6548707" lon="35.6385142"><ele>1444.5</ele><time>2015-11-22T16:20:01.0000000+00:00</time></trkpt><trkpt lat="30.6548121" lon="35.6384524"><ele>1445.9</ele><time>2015-11-22T16:20:05.0000000+00:00</time></trkpt><trkpt lat="30.6547616" lon="35.6384073"><ele>1446.4</ele><time>2015-11-22T16:20:08.0000000+00:00</time></trkpt><trkpt lat="30.6547125" lon="35.6383654"><ele>1446.2</ele><time>2015-11-22T16:20:11.0000000+00:00</time></trkpt><trkpt lat="30.6546638" lon="35.6383205"><ele>1447.3</ele><time>2015-11-22T16:20:14.0000000+00:00</time></trkpt><trkpt lat="30.6546277" lon="35.6382726"><ele>1447.8</ele><time>2015-11-22T16:20:17.0000000+00:00</time></trkpt><trkpt lat="30.6545984" lon="35.6382268"><ele>1448.9</ele><time>2015-11-22T16:20:20.0000000+00:00</time></trkpt><trkpt lat="30.6545975" lon="35.638161"><ele>1448.6</ele><time>2015-11-22T16:20:24.0000000+00:00</time></trkpt><trkpt lat="30.6546027" lon="35.6381008"><ele>1448.8</ele><time>2015-11-22T16:20:28.0000000+00:00</time></trkpt><trkpt lat="30.6545976" lon="35.6380461"><ele>1446.5</ele><time>2015-11-22T16:20:59.0000000+00:00</time></trkpt><trkpt lat="30.6545937" lon="35.6379902"><ele>1446.1</ele><time>2015-11-22T16:21:02.0000000+00:00</time></trkpt><trkpt lat="30.6545915" lon="35.6379251"><ele>1447.6</ele><time>2015-11-22T16:21:05.0000000+00:00</time></trkpt><trkpt lat="30.654591" lon="35.6378575"><ele>1448.6</ele><time>2015-11-22T16:21:08.0000000+00:00</time></trkpt><trkpt lat="30.6545997" lon="35.6377878"><ele>1449.1</ele><time>2015-11-22T16:21:11.0000000+00:00</time></trkpt><trkpt lat="30.6545972" lon="35.6377136"><ele>1449.2</ele><time>2015-11-22T16:21:14.0000000+00:00</time></trkpt><trkpt lat="30.654599" lon="35.6376384"><ele>1450.1</ele><time>2015-11-22T16:21:17.0000000+00:00</time></trkpt><trkpt lat="30.6546038" lon="35.6375673"><ele>1449.6</ele><time>2015-11-22T16:21:20.0000000+00:00</time></trkpt><trkpt lat="30.65461" lon="35.6374975"><ele>1449.4</ele><time>2015-11-22T16:21:23.0000000+00:00</time></trkpt><trkpt lat="30.6546151" lon="35.6374319"><ele>1449.0</ele><time>2015-11-22T16:21:26.0000000+00:00</time></trkpt><trkpt lat="30.6546267" lon="35.6373674"><ele>1449.2</ele><time>2015-11-22T16:21:29.0000000+00:00</time></trkpt><trkpt lat="30.6546455" lon="35.6373075"><ele>1449.7</ele><time>2015-11-22T16:21:32.0000000+00:00</time></trkpt><trkpt lat="30.654668" lon="35.637252"><ele>1450.1</ele><time>2015-11-22T16:21:35.0000000+00:00</time></trkpt><trkpt lat="30.6546978" lon="35.6371976"><ele>1450.2</ele><time>2015-11-22T16:21:38.0000000+00:00</time></trkpt><trkpt lat="30.6547317" lon="35.6371463"><ele>1450.2</ele><time>2015-11-22T16:21:41.0000000+00:00</time></trkpt><trkpt lat="30.6547743" lon="35.6370931"><ele>1450.1</ele><time>2015-11-22T16:21:44.0000000+00:00</time></trkpt><trkpt lat="30.6548131" lon="35.6370374"><ele>1450.2</ele><time>2015-11-22T16:21:47.0000000+00:00</time></trkpt><trkpt lat="30.6548568" lon="35.6369858"><ele>1449.3</ele><time>2015-11-22T16:21:50.0000000+00:00</time></trkpt><trkpt lat="30.6549004" lon="35.6369336"><ele>1449.6</ele><time>2015-11-22T16:21:53.0000000+00:00</time></trkpt><trkpt lat="30.6549347" lon="35.6368808"><ele>1449.7</ele><time>2015-11-22T16:21:56.0000000+00:00</time></trkpt><trkpt lat="30.65497" lon="35.6368374"><ele>1450.6</ele><time>2015-11-22T16:21:59.0000000+00:00</time></trkpt><trkpt lat="30.6549759" lon="35.6367807"><ele>1451.5</ele><time>2015-11-22T16:22:02.0000000+00:00</time></trkpt><trkpt lat="30.6549947" lon="35.6367326"><ele>1451.4</ele><time>2015-11-22T16:22:05.0000000+00:00</time></trkpt><trkpt lat="30.6550162" lon="35.6366856"><ele>1451.3</ele><time>2015-11-22T16:22:08.0000000+00:00</time></trkpt><trkpt lat="30.6550398" lon="35.6366278"><ele>1450.4</ele><time>2015-11-22T16:22:12.0000000+00:00</time></trkpt><trkpt lat="30.6550584" lon="35.6365687"><ele>1450.8</ele><time>2015-11-22T16:22:16.0000000+00:00</time></trkpt><trkpt lat="30.6550635" lon="35.6365052"><ele>1453.3</ele><time>2015-11-22T16:22:20.0000000+00:00</time></trkpt><trkpt lat="30.6550725" lon="35.636452"><ele>1454.8</ele><time>2015-11-22T16:22:23.0000000+00:00</time></trkpt><trkpt lat="30.6550831" lon="35.6364006"><ele>1455.9</ele><time>2015-11-22T16:22:26.0000000+00:00</time></trkpt><trkpt lat="30.6550899" lon="35.6363347"><ele>1456.6</ele><time>2015-11-22T16:22:30.0000000+00:00</time></trkpt><trkpt lat="30.6550956" lon="35.6362719"><ele>1457.8</ele><time>2015-11-22T16:22:34.0000000+00:00</time></trkpt><trkpt lat="30.6550962" lon="35.6362033"><ele>1458.7</ele><time>2015-11-22T16:22:38.0000000+00:00</time></trkpt><trkpt lat="30.6551097" lon="35.6361374"><ele>1459.9</ele><time>2015-11-22T16:22:42.0000000+00:00</time></trkpt><trkpt lat="30.6551194" lon="35.636075"><ele>1460.2</ele><time>2015-11-22T16:22:46.0000000+00:00</time></trkpt><trkpt lat="30.6551282" lon="35.6360101"><ele>1459.3</ele><time>2015-11-22T16:22:50.0000000+00:00</time></trkpt><trkpt lat="30.6551411" lon="35.6359524"><ele>1461.2</ele><time>2015-11-22T16:22:54.0000000+00:00</time></trkpt><trkpt lat="30.6551582" lon="35.6358933"><ele>1461.2</ele><time>2015-11-22T16:22:58.0000000+00:00</time></trkpt><trkpt lat="30.6551822" lon="35.6358389"><ele>1462.1</ele><time>2015-11-22T16:23:02.0000000+00:00</time></trkpt><trkpt lat="30.6551933" lon="35.635788"><ele>1465.1</ele><time>2015-11-22T16:23:06.0000000+00:00</time></trkpt><trkpt lat="30.6552088" lon="35.6357389"><ele>1465.4</ele><time>2015-11-22T16:23:10.0000000+00:00</time></trkpt><trkpt lat="30.6551758" lon="35.6356954"><ele>1466.0</ele><time>2015-11-22T16:23:15.0000000+00:00</time></trkpt><trkpt lat="30.6551206" lon="35.6356821"><ele>1467.4</ele><time>2015-11-22T16:23:19.0000000+00:00</time></trkpt><trkpt lat="30.6550695" lon="35.6356665"><ele>1468.1</ele><time>2015-11-22T16:23:23.0000000+00:00</time></trkpt><trkpt lat="30.6550256" lon="35.6356547"><ele>1466.8</ele><time>2015-11-22T16:23:26.0000000+00:00</time></trkpt><trkpt lat="30.6549725" lon="35.6356343"><ele>1466.4</ele><time>2015-11-22T16:23:29.0000000+00:00</time></trkpt><trkpt lat="30.6549153" lon="35.6356081"><ele>1465.4</ele><time>2015-11-22T16:23:32.0000000+00:00</time></trkpt><trkpt lat="30.6548548" lon="35.6355799"><ele>1464.5</ele><time>2015-11-22T16:23:35.0000000+00:00</time></trkpt><trkpt lat="30.6547724" lon="35.6355578"><ele>1464.9</ele><time>2015-11-22T16:23:38.0000000+00:00</time></trkpt><trkpt lat="30.6547006" lon="35.6355402"><ele>1465.1</ele><time>2015-11-22T16:23:40.0000000+00:00</time></trkpt><trkpt lat="30.6546242" lon="35.6355167"><ele>1465.4</ele><time>2015-11-22T16:23:42.0000000+00:00</time></trkpt><trkpt lat="30.6545442" lon="35.6354933"><ele>1465.3</ele><time>2015-11-22T16:23:44.0000000+00:00</time></trkpt><trkpt lat="30.6544588" lon="35.6354754"><ele>1465.2</ele><time>2015-11-22T16:23:46.0000000+00:00</time></trkpt><trkpt lat="30.6543794" lon="35.6354598"><ele>1464.0</ele><time>2015-11-22T16:23:48.0000000+00:00</time></trkpt><trkpt lat="30.654304" lon="35.6354413"><ele>1462.6</ele><time>2015-11-22T16:23:50.0000000+00:00</time></trkpt><trkpt lat="30.6542343" lon="35.6354245"><ele>1462.6</ele><time>2015-11-22T16:23:52.0000000+00:00</time></trkpt><trkpt lat="30.6541803" lon="35.6354024"><ele>1461.5</ele><time>2015-11-22T16:23:54.0000000+00:00</time></trkpt><trkpt lat="30.6541401" lon="35.6353459"><ele>1460.7</ele><time>2015-11-22T16:23:57.0000000+00:00</time></trkpt><trkpt lat="30.6541659" lon="35.63528"><ele>1459.8</ele><time>2015-11-22T16:24:00.0000000+00:00</time></trkpt><trkpt lat="30.6542019" lon="35.6352478"><ele>1457.6</ele><time>2015-11-22T16:24:02.0000000+00:00</time></trkpt><trkpt lat="30.6542535" lon="35.635195"><ele>1456.6</ele><time>2015-11-22T16:24:05.0000000+00:00</time></trkpt><trkpt lat="30.6542857" lon="35.6351532"><ele>1457.1</ele><time>2015-11-22T16:24:07.0000000+00:00</time></trkpt><trkpt lat="30.6543261" lon="35.6350941"><ele>1456.9</ele><time>2015-11-22T16:24:10.0000000+00:00</time></trkpt><trkpt lat="30.6543682" lon="35.6350406"><ele>1457.5</ele><time>2015-11-22T16:24:13.0000000+00:00</time></trkpt><trkpt lat="30.6544113" lon="35.6349855"><ele>1457.2</ele><time>2015-11-22T16:24:16.0000000+00:00</time></trkpt><trkpt lat="30.6544524" lon="35.6349298"><ele>1458.1</ele><time>2015-11-22T16:24:19.0000000+00:00</time></trkpt><trkpt lat="30.6544943" lon="35.6348846"><ele>1459.4</ele><time>2015-11-22T16:24:22.0000000+00:00</time></trkpt><trkpt lat="30.6545238" lon="35.6348344"><ele>1460.1</ele><time>2015-11-22T16:24:25.0000000+00:00</time></trkpt><trkpt lat="30.6545577" lon="35.6347912"><ele>1461.2</ele><time>2015-11-22T16:24:28.0000000+00:00</time></trkpt><trkpt lat="30.6545792" lon="35.6347275"><ele>1462.1</ele><time>2015-11-22T16:24:32.0000000+00:00</time></trkpt><trkpt lat="30.6546008" lon="35.6346746"><ele>1462.8</ele><time>2015-11-22T16:25:11.0000000+00:00</time></trkpt><trkpt lat="30.654645" lon="35.6346253"><ele>1463.7</ele><time>2015-11-22T16:25:15.0000000+00:00</time></trkpt><trkpt lat="30.6546912" lon="35.6346106"><ele>1463.2</ele><time>2015-11-22T16:25:21.0000000+00:00</time></trkpt><trkpt lat="30.6547167" lon="35.6345632"><ele>1464.1</ele><time>2015-11-22T16:25:28.0000000+00:00</time></trkpt><trkpt lat="30.6547359" lon="35.6345089"><ele>1464.2</ele><time>2015-11-22T16:25:31.0000000+00:00</time></trkpt><trkpt lat="30.6547571" lon="35.6344548"><ele>1464.6</ele><time>2015-11-22T16:25:35.0000000+00:00</time></trkpt><trkpt lat="30.6547928" lon="35.6343986"><ele>1463.3</ele><time>2015-11-22T16:25:39.0000000+00:00</time></trkpt><trkpt lat="30.6548254" lon="35.6343539"><ele>1464.0</ele><time>2015-11-22T16:25:42.0000000+00:00</time></trkpt><trkpt lat="30.6548553" lon="35.6343029"><ele>1464.7</ele><time>2015-11-22T16:25:45.0000000+00:00</time></trkpt><trkpt lat="30.6548848" lon="35.6342523"><ele>1464.3</ele><time>2015-11-22T16:25:48.0000000+00:00</time></trkpt><trkpt lat="30.6549196" lon="35.6342014"><ele>1463.7</ele><time>2015-11-22T16:25:51.0000000+00:00</time></trkpt><trkpt lat="30.6549586" lon="35.6341497"><ele>1461.4</ele><time>2015-11-22T16:25:54.0000000+00:00</time></trkpt><trkpt lat="30.6549855" lon="35.6341007"><ele>1460.3</ele><time>2015-11-22T16:25:57.0000000+00:00</time></trkpt><trkpt lat="30.6550166" lon="35.6340479"><ele>1460.7</ele><time>2015-11-22T16:26:00.0000000+00:00</time></trkpt><trkpt lat="30.6550364" lon="35.6339956"><ele>1461.5</ele><time>2015-11-22T16:26:03.0000000+00:00</time></trkpt><trkpt lat="30.6550623" lon="35.6339458"><ele>1462.4</ele><time>2015-11-22T16:26:06.0000000+00:00</time></trkpt><trkpt lat="30.6550854" lon="35.6338938"><ele>1463.6</ele><time>2015-11-22T16:26:09.0000000+00:00</time></trkpt><trkpt lat="30.6551203" lon="35.6338413"><ele>1463.3</ele><time>2015-11-22T16:26:13.0000000+00:00</time></trkpt><trkpt lat="30.6551461" lon="35.6337848"><ele>1463.2</ele><time>2015-11-22T16:26:17.0000000+00:00</time></trkpt><trkpt lat="30.6551738" lon="35.6337327"><ele>1464.0</ele><time>2015-11-22T16:26:21.0000000+00:00</time></trkpt><trkpt lat="30.6552027" lon="35.6336756"><ele>1464.2</ele><time>2015-11-22T16:26:25.0000000+00:00</time></trkpt><trkpt lat="30.6552317" lon="35.6336342"><ele>1465.1</ele><time>2015-11-22T16:26:28.0000000+00:00</time></trkpt><trkpt lat="30.6552534" lon="35.6335864"><ele>1465.9</ele><time>2015-11-22T16:26:31.0000000+00:00</time></trkpt><trkpt lat="30.6552756" lon="35.633537"><ele>1466.7</ele><time>2015-11-22T16:26:34.0000000+00:00</time></trkpt><trkpt lat="30.6553118" lon="35.6334841"><ele>1467.1</ele><time>2015-11-22T16:26:38.0000000+00:00</time></trkpt><trkpt lat="30.6553373" lon="35.6334405"><ele>1467.7</ele><time>2015-11-22T16:26:41.0000000+00:00</time></trkpt><trkpt lat="30.6553671" lon="35.6333994"><ele>1468.5</ele><time>2015-11-22T16:26:44.0000000+00:00</time></trkpt><trkpt lat="30.6554004" lon="35.6333468"><ele>1469.7</ele><time>2015-11-22T16:26:48.0000000+00:00</time></trkpt><trkpt lat="30.6554243" lon="35.6332908"><ele>1469.0</ele><time>2015-11-22T16:26:52.0000000+00:00</time></trkpt><trkpt lat="30.655444" lon="35.6332418"><ele>1470.0</ele><time>2015-11-22T16:26:55.0000000+00:00</time></trkpt><trkpt lat="30.6554402" lon="35.6331768"><ele>1470.6</ele><time>2015-11-22T16:26:58.0000000+00:00</time></trkpt><trkpt lat="30.655444" lon="35.6330855"><ele>1470.2</ele><time>2015-11-22T16:27:01.0000000+00:00</time></trkpt><trkpt lat="30.655458" lon="35.6330126"><ele>1471.0</ele><time>2015-11-22T16:27:03.0000000+00:00</time></trkpt><trkpt lat="30.6554557" lon="35.6329509"><ele>1469.9</ele><time>2015-11-22T16:27:05.0000000+00:00</time></trkpt><trkpt lat="30.6554367" lon="35.6328989"><ele>1469.6</ele><time>2015-11-22T16:27:07.0000000+00:00</time></trkpt><trkpt lat="30.6554121" lon="35.6328519"><ele>1470.1</ele><time>2015-11-22T16:27:09.0000000+00:00</time></trkpt><trkpt lat="30.6553821" lon="35.6328123"><ele>1470.2</ele><time>2015-11-22T16:27:11.0000000+00:00</time></trkpt><trkpt lat="30.6553453" lon="35.6327532"><ele>1470.2</ele><time>2015-11-22T16:27:14.0000000+00:00</time></trkpt><trkpt lat="30.6553151" lon="35.6327014"><ele>1469.7</ele><time>2015-11-22T16:27:17.0000000+00:00</time></trkpt><trkpt lat="30.6552896" lon="35.6326559"><ele>1470.1</ele><time>2015-11-22T16:27:20.0000000+00:00</time></trkpt><trkpt lat="30.655256" lon="35.6326105"><ele>1470.8</ele><time>2015-11-22T16:27:23.0000000+00:00</time></trkpt><trkpt lat="30.6552174" lon="35.632571"><ele>1470.9</ele><time>2015-11-22T16:27:25.0000000+00:00</time></trkpt><trkpt lat="30.655158" lon="35.6325185"><ele>1470.6</ele><time>2015-11-22T16:27:27.0000000+00:00</time></trkpt><trkpt lat="30.6550822" lon="35.6324593"><ele>1470.3</ele><time>2015-11-22T16:27:29.0000000+00:00</time></trkpt><trkpt lat="30.6550421" lon="35.6324276"><ele>1470.3</ele><time>2015-11-22T16:27:30.0000000+00:00</time></trkpt><trkpt lat="30.6549939" lon="35.6323648"><ele>1470.7</ele><time>2015-11-22T16:27:32.0000000+00:00</time></trkpt><trkpt lat="30.6549716" lon="35.6323086"><ele>1471.6</ele><time>2015-11-22T16:27:34.0000000+00:00</time></trkpt><trkpt lat="30.65498" lon="35.6322517"><ele>1471.8</ele><time>2015-11-22T16:27:36.0000000+00:00</time></trkpt><trkpt lat="30.6549825" lon="35.6321851"><ele>1472.2</ele><time>2015-11-22T16:27:40.0000000+00:00</time></trkpt><trkpt lat="30.6550028" lon="35.6321241"><ele>1472.6</ele><time>2015-11-22T16:27:44.0000000+00:00</time></trkpt><trkpt lat="30.655026" lon="35.6320702"><ele>1472.2</ele><time>2015-11-22T16:27:48.0000000+00:00</time></trkpt><trkpt lat="30.6550546" lon="35.6320248"><ele>1472.7</ele><time>2015-11-22T16:27:52.0000000+00:00</time></trkpt><trkpt lat="30.6550713" lon="35.6319664"><ele>1473.2</ele><time>2015-11-22T16:27:56.0000000+00:00</time></trkpt><trkpt lat="30.6550854" lon="35.6319033"><ele>1473.2</ele><time>2015-11-22T16:28:00.0000000+00:00</time></trkpt><trkpt lat="30.6551033" lon="35.6318396"><ele>1474.1</ele><time>2015-11-22T16:28:04.0000000+00:00</time></trkpt><trkpt lat="30.6551185" lon="35.6317774"><ele>1474.2</ele><time>2015-11-22T16:28:08.0000000+00:00</time></trkpt><trkpt lat="30.6551357" lon="35.6317166"><ele>1475.1</ele><time>2015-11-22T16:28:12.0000000+00:00</time></trkpt><trkpt lat="30.6551536" lon="35.6316537"><ele>1476.1</ele><time>2015-11-22T16:28:16.0000000+00:00</time></trkpt><trkpt lat="30.6551714" lon="35.6315892"><ele>1476.9</ele><time>2015-11-22T16:28:20.0000000+00:00</time></trkpt><trkpt lat="30.6551892" lon="35.6315268"><ele>1478.1</ele><time>2015-11-22T16:28:24.0000000+00:00</time></trkpt><trkpt lat="30.655211" lon="35.6314677"><ele>1479.1</ele><time>2015-11-22T16:28:28.0000000+00:00</time></trkpt><trkpt lat="30.6552318" lon="35.6314048"><ele>1479.9</ele><time>2015-11-22T16:28:32.0000000+00:00</time></trkpt><trkpt lat="30.6552568" lon="35.6313493"><ele>1480.0</ele><time>2015-11-22T16:28:36.0000000+00:00</time></trkpt><trkpt lat="30.6552759" lon="35.631296"><ele>1479.3</ele><time>2015-11-22T16:28:40.0000000+00:00</time></trkpt><trkpt lat="30.6552913" lon="35.63124"><ele>1479.3</ele><time>2015-11-22T16:28:44.0000000+00:00</time></trkpt><trkpt lat="30.6553113" lon="35.6311825"><ele>1480.1</ele><time>2015-11-22T16:28:48.0000000+00:00</time></trkpt><trkpt lat="30.6553311" lon="35.6311195"><ele>1480.2</ele><time>2015-11-22T16:28:52.0000000+00:00</time></trkpt><trkpt lat="30.6553456" lon="35.6310573"><ele>1481.0</ele><time>2015-11-22T16:28:56.0000000+00:00</time></trkpt><trkpt lat="30.655353" lon="35.6309991"><ele>1481.2</ele><time>2015-11-22T16:29:00.0000000+00:00</time></trkpt><trkpt lat="30.6553674" lon="35.6309432"><ele>1482.0</ele><time>2015-11-22T16:29:04.0000000+00:00</time></trkpt><trkpt lat="30.6553815" lon="35.630887"><ele>1483.1</ele><time>2015-11-22T16:29:08.0000000+00:00</time></trkpt><trkpt lat="30.6553939" lon="35.630828"><ele>1483.7</ele><time>2015-11-22T16:29:12.0000000+00:00</time></trkpt><trkpt lat="30.6554118" lon="35.6307671"><ele>1484.7</ele><time>2015-11-22T16:29:16.0000000+00:00</time></trkpt><trkpt lat="30.6554268" lon="35.6307067"><ele>1485.2</ele><time>2015-11-22T16:29:20.0000000+00:00</time></trkpt><trkpt lat="30.6554456" lon="35.630646"><ele>1485.9</ele><time>2015-11-22T16:29:24.0000000+00:00</time></trkpt><trkpt lat="30.655461" lon="35.630583"><ele>1487.1</ele><time>2015-11-22T16:29:28.0000000+00:00</time></trkpt><trkpt lat="30.6554843" lon="35.6305227"><ele>1487.2</ele><time>2015-11-22T16:29:32.0000000+00:00</time></trkpt><trkpt lat="30.6555007" lon="35.6304724"><ele>1488.1</ele><time>2015-11-22T16:29:35.0000000+00:00</time></trkpt><trkpt lat="30.6555124" lon="35.6304083"><ele>1488.8</ele><time>2015-11-22T16:29:39.0000000+00:00</time></trkpt><trkpt lat="30.6555244" lon="35.6303441"><ele>1489.2</ele><time>2015-11-22T16:29:43.0000000+00:00</time></trkpt><trkpt lat="30.6555458" lon="35.6302814"><ele>1489.9</ele><time>2015-11-22T16:29:47.0000000+00:00</time></trkpt><trkpt lat="30.6555626" lon="35.6302185"><ele>1490.2</ele><time>2015-11-22T16:29:51.0000000+00:00</time></trkpt><trkpt lat="30.6555694" lon="35.6301594"><ele>1491.1</ele><time>2015-11-22T16:29:55.0000000+00:00</time></trkpt><trkpt lat="30.65557" lon="35.6300977"><ele>1491.1</ele><time>2015-11-22T16:29:59.0000000+00:00</time></trkpt><trkpt lat="30.6555902" lon="35.6300371"><ele>1491.9</ele><time>2015-11-22T16:30:03.0000000+00:00</time></trkpt><trkpt lat="30.6556124" lon="35.6299765"><ele>1492.4</ele><time>2015-11-22T16:30:07.0000000+00:00</time></trkpt><trkpt lat="30.6556269" lon="35.6299263"><ele>1493.0</ele><time>2015-11-22T16:30:10.0000000+00:00</time></trkpt><trkpt lat="30.655639" lon="35.6298738"><ele>1494.0</ele><time>2015-11-22T16:30:13.0000000+00:00</time></trkpt><trkpt lat="30.6556536" lon="35.6298182"><ele>1495.7</ele><time>2015-11-22T16:30:16.0000000+00:00</time></trkpt><trkpt lat="30.6556667" lon="35.6297635"><ele>1496.1</ele><time>2015-11-22T16:30:19.0000000+00:00</time></trkpt><trkpt lat="30.6556801" lon="35.629703"><ele>1496.9</ele><time>2015-11-22T16:30:23.0000000+00:00</time></trkpt><trkpt lat="30.6556901" lon="35.6296407"><ele>1497.9</ele><time>2015-11-22T16:30:27.0000000+00:00</time></trkpt><trkpt lat="30.6557041" lon="35.6295758"><ele>1497.9</ele><time>2015-11-22T16:30:31.0000000+00:00</time></trkpt><trkpt lat="30.6557162" lon="35.629524"><ele>1497.7</ele><time>2015-11-22T16:30:34.0000000+00:00</time></trkpt><trkpt lat="30.6557272" lon="35.6294686"><ele>1497.5</ele><time>2015-11-22T16:30:37.0000000+00:00</time></trkpt><trkpt lat="30.6557397" lon="35.6294119"><ele>1497.2</ele><time>2015-11-22T16:30:40.0000000+00:00</time></trkpt><trkpt lat="30.6557543" lon="35.6293504"><ele>1496.0</ele><time>2015-11-22T16:30:43.0000000+00:00</time></trkpt><trkpt lat="30.6557774" lon="35.6292856"><ele>1495.3</ele><time>2015-11-22T16:30:46.0000000+00:00</time></trkpt><trkpt lat="30.655804" lon="35.6292264"><ele>1495.3</ele><time>2015-11-22T16:30:49.0000000+00:00</time></trkpt><trkpt lat="30.6558265" lon="35.6291729"><ele>1496.8</ele><time>2015-11-22T16:30:52.0000000+00:00</time></trkpt><trkpt lat="30.655846" lon="35.6291207"><ele>1495.5</ele><time>2015-11-22T16:30:55.0000000+00:00</time></trkpt><trkpt lat="30.6558732" lon="35.6290672"><ele>1495.2</ele><time>2015-11-22T16:30:58.0000000+00:00</time></trkpt><trkpt lat="30.655902" lon="35.6290166"><ele>1494.5</ele><time>2015-11-22T16:31:01.0000000+00:00</time></trkpt><trkpt lat="30.6559262" lon="35.6289654"><ele>1493.5</ele><time>2015-11-22T16:31:04.0000000+00:00</time></trkpt><trkpt lat="30.6559485" lon="35.6289088"><ele>1494.5</ele><time>2015-11-22T16:31:07.0000000+00:00</time></trkpt><trkpt lat="30.6559764" lon="35.6288488"><ele>1495.6</ele><time>2015-11-22T16:31:10.0000000+00:00</time></trkpt><trkpt lat="30.6559993" lon="35.6287862"><ele>1495.6</ele><time>2015-11-22T16:31:13.0000000+00:00</time></trkpt><trkpt lat="30.6560218" lon="35.6287261"><ele>1494.8</ele><time>2015-11-22T16:31:16.0000000+00:00</time></trkpt><trkpt lat="30.6560484" lon="35.6286673"><ele>1494.3</ele><time>2015-11-22T16:31:19.0000000+00:00</time></trkpt><trkpt lat="30.6560744" lon="35.628608"><ele>1494.7</ele><time>2015-11-22T16:31:22.0000000+00:00</time></trkpt><trkpt lat="30.656107" lon="35.6285468"><ele>1495.1</ele><time>2015-11-22T16:31:25.0000000+00:00</time></trkpt><trkpt lat="30.6561327" lon="35.6285022"><ele>1496.4</ele><time>2015-11-22T16:31:27.0000000+00:00</time></trkpt><trkpt lat="30.6561726" lon="35.6284474"><ele>1495.7</ele><time>2015-11-22T16:31:30.0000000+00:00</time></trkpt><trkpt lat="30.6561981" lon="35.6284037"><ele>1495.3</ele><time>2015-11-22T16:31:33.0000000+00:00</time></trkpt><trkpt lat="30.6562258" lon="35.6283609"><ele>1496.1</ele><time>2015-11-22T16:31:36.0000000+00:00</time></trkpt><trkpt lat="30.6562797" lon="35.6283499"><ele>1497.1</ele><time>2015-11-22T16:31:40.0000000+00:00</time></trkpt><trkpt lat="30.6563185" lon="35.6283898"><ele>1498.1</ele><time>2015-11-22T16:31:43.0000000+00:00</time></trkpt><trkpt lat="30.6562995" lon="35.6283379"><ele>1499.2</ele><time>2015-11-22T16:34:57.0000000+00:00</time></trkpt><trkpt lat="30.6562695" lon="35.6282917"><ele>1501.5</ele><time>2015-11-22T16:35:20.0000000+00:00</time></trkpt><trkpt lat="30.6562852" lon="35.6282399"><ele>1501.3</ele><time>2015-11-22T16:35:26.0000000+00:00</time></trkpt><trkpt lat="30.6563126" lon="35.6281906"><ele>1501.5</ele><time>2015-11-22T16:35:30.0000000+00:00</time></trkpt><trkpt lat="30.6563382" lon="35.6281318"><ele>1501.2</ele><time>2015-11-22T16:35:33.0000000+00:00</time></trkpt><trkpt lat="30.6563675" lon="35.6280743"><ele>1501.2</ele><time>2015-11-22T16:35:36.0000000+00:00</time></trkpt><trkpt lat="30.6563948" lon="35.6280192"><ele>1500.5</ele><time>2015-11-22T16:35:39.0000000+00:00</time></trkpt><trkpt lat="30.6564267" lon="35.627967"><ele>1500.7</ele><time>2015-11-22T16:35:42.0000000+00:00</time></trkpt><trkpt lat="30.6564568" lon="35.6279166"><ele>1500.3</ele><time>2015-11-22T16:35:45.0000000+00:00</time></trkpt><trkpt lat="30.6564955" lon="35.6278674"><ele>1499.0</ele><time>2015-11-22T16:35:48.0000000+00:00</time></trkpt><trkpt lat="30.6565328" lon="35.6278099"><ele>1499.3</ele><time>2015-11-22T16:35:51.0000000+00:00</time></trkpt><trkpt lat="30.6565718" lon="35.6277475"><ele>1500.2</ele><time>2015-11-22T16:35:54.0000000+00:00</time></trkpt><trkpt lat="30.6565984" lon="35.6277048"><ele>1501.0</ele><time>2015-11-22T16:35:56.0000000+00:00</time></trkpt><trkpt lat="30.6566409" lon="35.6276447"><ele>1501.9</ele><time>2015-11-22T16:35:59.0000000+00:00</time></trkpt><trkpt lat="30.6566671" lon="35.6275904"><ele>1502.9</ele><time>2015-11-22T16:36:02.0000000+00:00</time></trkpt><trkpt lat="30.6566863" lon="35.6275411"><ele>1504.0</ele><time>2015-11-22T16:36:05.0000000+00:00</time></trkpt><trkpt lat="30.6567152" lon="35.6274884"><ele>1503.9</ele><time>2015-11-22T16:36:09.0000000+00:00</time></trkpt><trkpt lat="30.6567481" lon="35.6274368"><ele>1504.1</ele><time>2015-11-22T16:36:13.0000000+00:00</time></trkpt><trkpt lat="30.656778" lon="35.6273771"><ele>1504.7</ele><time>2015-11-22T16:36:17.0000000+00:00</time></trkpt><trkpt lat="30.6567965" lon="35.6273287"><ele>1505.1</ele><time>2015-11-22T16:36:20.0000000+00:00</time></trkpt><trkpt lat="30.6568152" lon="35.6272797"><ele>1506.4</ele><time>2015-11-22T16:36:23.0000000+00:00</time></trkpt><trkpt lat="30.6568474" lon="35.6272412"><ele>1507.2</ele><time>2015-11-22T16:36:26.0000000+00:00</time></trkpt><trkpt lat="30.6568848" lon="35.6272039"><ele>1509.0</ele><time>2015-11-22T16:36:29.0000000+00:00</time></trkpt><trkpt lat="30.6569143" lon="35.6271622"><ele>1507.9</ele><time>2015-11-22T16:36:32.0000000+00:00</time></trkpt><trkpt lat="30.6569502" lon="35.6271098"><ele>1507.7</ele><time>2015-11-22T16:36:36.0000000+00:00</time></trkpt><trkpt lat="30.6569751" lon="35.6270477"><ele>1509.0</ele><time>2015-11-22T16:36:40.0000000+00:00</time></trkpt><trkpt lat="30.656995" lon="35.626992"><ele>1509.3</ele><time>2015-11-22T16:36:44.0000000+00:00</time></trkpt><trkpt lat="30.6570173" lon="35.6269307"><ele>1510.0</ele><time>2015-11-22T16:36:48.0000000+00:00</time></trkpt><trkpt lat="30.657048" lon="35.6268685"><ele>1510.7</ele><time>2015-11-22T16:36:52.0000000+00:00</time></trkpt><trkpt lat="30.657074" lon="35.6268241"><ele>1511.5</ele><time>2015-11-22T16:36:55.0000000+00:00</time></trkpt><trkpt lat="30.6570966" lon="35.6267745"><ele>1512.5</ele><time>2015-11-22T16:36:58.0000000+00:00</time></trkpt><trkpt lat="30.6571228" lon="35.6267213"><ele>1515.2</ele><time>2015-11-22T16:37:01.0000000+00:00</time></trkpt><trkpt lat="30.6571517" lon="35.626672"><ele>1515.1</ele><time>2015-11-22T16:37:04.0000000+00:00</time></trkpt><trkpt lat="30.6571825" lon="35.626621"><ele>1514.3</ele><time>2015-11-22T16:37:07.0000000+00:00</time></trkpt><trkpt lat="30.6572107" lon="35.626569"><ele>1515.0</ele><time>2015-11-22T16:37:10.0000000+00:00</time></trkpt><trkpt lat="30.6572341" lon="35.6265222"><ele>1515.2</ele><time>2015-11-22T16:37:13.0000000+00:00</time></trkpt><trkpt lat="30.657263" lon="35.6264759"><ele>1516.1</ele><time>2015-11-22T16:37:16.0000000+00:00</time></trkpt><trkpt lat="30.6572884" lon="35.6264312"><ele>1517.1</ele><time>2015-11-22T16:37:19.0000000+00:00</time></trkpt><trkpt lat="30.6573188" lon="35.6263861"><ele>1517.7</ele><time>2015-11-22T16:37:22.0000000+00:00</time></trkpt><trkpt lat="30.6573493" lon="35.6263373"><ele>1518.1</ele><time>2015-11-22T16:37:25.0000000+00:00</time></trkpt><trkpt lat="30.6573781" lon="35.6262771"><ele>1518.2</ele><time>2015-11-22T16:37:29.0000000+00:00</time></trkpt><trkpt lat="30.6574047" lon="35.6262317"><ele>1517.8</ele><time>2015-11-22T16:37:32.0000000+00:00</time></trkpt><trkpt lat="30.6574367" lon="35.6261876"><ele>1518.2</ele><time>2015-11-22T16:37:35.0000000+00:00</time></trkpt><trkpt lat="30.6574628" lon="35.6261433"><ele>1503.7</ele><time>2015-11-22T16:37:38.0000000+00:00</time></trkpt><trkpt lat="30.6574889" lon="35.6260965"><ele>1501.5</ele><time>2015-11-22T16:37:41.0000000+00:00</time></trkpt><trkpt lat="30.6575098" lon="35.6260337"><ele>1502.5</ele><time>2015-11-22T16:37:45.0000000+00:00</time></trkpt><trkpt lat="30.6575298" lon="35.6259707"><ele>1504.8</ele><time>2015-11-22T16:37:49.0000000+00:00</time></trkpt><trkpt lat="30.6575593" lon="35.6259256"><ele>1505.9</ele><time>2015-11-22T16:37:52.0000000+00:00</time></trkpt><trkpt lat="30.6575908" lon="35.625881"><ele>1503.7</ele><time>2015-11-22T16:37:55.0000000+00:00</time></trkpt><trkpt lat="30.6576254" lon="35.6258392"><ele>1503.0</ele><time>2015-11-22T16:37:58.0000000+00:00</time></trkpt><trkpt lat="30.6576547" lon="35.6257929"><ele>1503.3</ele><time>2015-11-22T16:38:01.0000000+00:00</time></trkpt><trkpt lat="30.6576929" lon="35.6257479"><ele>1503.6</ele><time>2015-11-22T16:38:04.0000000+00:00</time></trkpt><trkpt lat="30.6577255" lon="35.6257029"><ele>1504.5</ele><time>2015-11-22T16:38:07.0000000+00:00</time></trkpt><trkpt lat="30.6577604" lon="35.6256532"><ele>1503.3</ele><time>2015-11-22T16:38:11.0000000+00:00</time></trkpt><trkpt lat="30.6577872" lon="35.6256002"><ele>1502.2</ele><time>2015-11-22T16:38:15.0000000+00:00</time></trkpt><trkpt lat="30.6578085" lon="35.6255438"><ele>1501.3</ele><time>2015-11-22T16:38:19.0000000+00:00</time></trkpt><trkpt lat="30.6578393" lon="35.6254936"><ele>1501.7</ele><time>2015-11-22T16:38:23.0000000+00:00</time></trkpt><trkpt lat="30.6578746" lon="35.625439"><ele>1503.6</ele><time>2015-11-22T16:38:27.0000000+00:00</time></trkpt><trkpt lat="30.6579026" lon="35.6253773"><ele>1507.5</ele><time>2015-11-22T16:38:31.0000000+00:00</time></trkpt><trkpt lat="30.6579399" lon="35.6253249"><ele>1505.0</ele><time>2015-11-22T16:38:35.0000000+00:00</time></trkpt><trkpt lat="30.6579643" lon="35.625266"><ele>1504.6</ele><time>2015-11-22T16:38:39.0000000+00:00</time></trkpt><trkpt lat="30.6579917" lon="35.625206"><ele>1504.0</ele><time>2015-11-22T16:38:43.0000000+00:00</time></trkpt><trkpt lat="30.658025" lon="35.6251513"><ele>1505.8</ele><time>2015-11-22T16:38:47.0000000+00:00</time></trkpt><trkpt lat="30.6580535" lon="35.6250988"><ele>1505.4</ele><time>2015-11-22T16:38:51.0000000+00:00</time></trkpt><trkpt lat="30.6580778" lon="35.625041"><ele>1505.0</ele><time>2015-11-22T16:38:55.0000000+00:00</time></trkpt><trkpt lat="30.6581041" lon="35.6249803"><ele>1504.7</ele><time>2015-11-22T16:38:59.0000000+00:00</time></trkpt><trkpt lat="30.6581302" lon="35.62492"><ele>1506.0</ele><time>2015-11-22T16:39:03.0000000+00:00</time></trkpt><trkpt lat="30.6581596" lon="35.6248659"><ele>1507.9</ele><time>2015-11-22T16:39:07.0000000+00:00</time></trkpt><trkpt lat="30.6581884" lon="35.6248125"><ele>1513.5</ele><time>2015-11-22T16:39:11.0000000+00:00</time></trkpt><trkpt lat="30.65822" lon="35.6247671"><ele>1525.8</ele><time>2015-11-22T16:39:15.0000000+00:00</time></trkpt><trkpt lat="30.6582489" lon="35.6247168"><ele>1530.6</ele><time>2015-11-22T16:39:19.0000000+00:00</time></trkpt><trkpt lat="30.658277" lon="35.6246704"><ele>1531.9</ele><time>2015-11-22T16:39:23.0000000+00:00</time></trkpt><trkpt lat="30.6583075" lon="35.6246258"><ele>1532.9</ele><time>2015-11-22T16:39:27.0000000+00:00</time></trkpt><trkpt lat="30.6583387" lon="35.6245776"><ele>1533.7</ele><time>2015-11-22T16:39:31.0000000+00:00</time></trkpt><trkpt lat="30.6583732" lon="35.6245319"><ele>1534.2</ele><time>2015-11-22T16:39:35.0000000+00:00</time></trkpt><trkpt lat="30.6584028" lon="35.6244838"><ele>1534.2</ele><time>2015-11-22T16:39:39.0000000+00:00</time></trkpt><trkpt lat="30.6584331" lon="35.6244314"><ele>1535.6</ele><time>2015-11-22T16:39:43.0000000+00:00</time></trkpt><trkpt lat="30.6584684" lon="35.6243811"><ele>1536.9</ele><time>2015-11-22T16:39:47.0000000+00:00</time></trkpt><trkpt lat="30.6585016" lon="35.6243321"><ele>1538.6</ele><time>2015-11-22T16:39:51.0000000+00:00</time></trkpt><trkpt lat="30.6585354" lon="35.6242818"><ele>1539.2</ele><time>2015-11-22T16:39:55.0000000+00:00</time></trkpt><trkpt lat="30.6585705" lon="35.6242275"><ele>1540.1</ele><time>2015-11-22T16:39:59.0000000+00:00</time></trkpt><trkpt lat="30.658608" lon="35.6241749"><ele>1540.2</ele><time>2015-11-22T16:40:03.0000000+00:00</time></trkpt><trkpt lat="30.6586442" lon="35.6241206"><ele>1541.1</ele><time>2015-11-22T16:40:07.0000000+00:00</time></trkpt><trkpt lat="30.6586804" lon="35.6240656"><ele>1542.1</ele><time>2015-11-22T16:40:11.0000000+00:00</time></trkpt><trkpt lat="30.6587139" lon="35.6240108"><ele>1542.2</ele><time>2015-11-22T16:40:15.0000000+00:00</time></trkpt><trkpt lat="30.6587457" lon="35.6239528"><ele>1542.2</ele><time>2015-11-22T16:40:19.0000000+00:00</time></trkpt><trkpt lat="30.6587802" lon="35.6239011"><ele>1543.1</ele><time>2015-11-22T16:40:23.0000000+00:00</time></trkpt><trkpt lat="30.6588157" lon="35.6238554"><ele>1542.7</ele><time>2015-11-22T16:40:27.0000000+00:00</time></trkpt><trkpt lat="30.6588492" lon="35.6238079"><ele>1543.6</ele><time>2015-11-22T16:40:31.0000000+00:00</time></trkpt><trkpt lat="30.6588767" lon="35.6237564"><ele>1544.0</ele><time>2015-11-22T16:40:35.0000000+00:00</time></trkpt><trkpt lat="30.6589076" lon="35.6237071"><ele>1544.7</ele><time>2015-11-22T16:40:39.0000000+00:00</time></trkpt><trkpt lat="30.6589398" lon="35.6236525"><ele>1544.3</ele><time>2015-11-22T16:40:43.0000000+00:00</time></trkpt><trkpt lat="30.658974" lon="35.6236034"><ele>1545.0</ele><time>2015-11-22T16:40:47.0000000+00:00</time></trkpt><trkpt lat="30.6590055" lon="35.6235569"><ele>1545.7</ele><time>2015-11-22T16:40:51.0000000+00:00</time></trkpt><trkpt lat="30.6590327" lon="35.623506"><ele>1546.1</ele><time>2015-11-22T16:40:55.0000000+00:00</time></trkpt><trkpt lat="30.6590626" lon="35.6234554"><ele>1546.2</ele><time>2015-11-22T16:40:59.0000000+00:00</time></trkpt><trkpt lat="30.6590958" lon="35.6234088"><ele>1547.1</ele><time>2015-11-22T16:41:03.0000000+00:00</time></trkpt><trkpt lat="30.6591358" lon="35.62336"><ele>1547.2</ele><time>2015-11-22T16:41:07.0000000+00:00</time></trkpt><trkpt lat="30.6591682" lon="35.6233077"><ele>1546.5</ele><time>2015-11-22T16:41:11.0000000+00:00</time></trkpt><trkpt lat="30.659206" lon="35.6232601"><ele>1546.2</ele><time>2015-11-22T16:41:15.0000000+00:00</time></trkpt><trkpt lat="30.659227" lon="35.6232003"><ele>1547.1</ele><time>2015-11-22T16:41:19.0000000+00:00</time></trkpt><trkpt lat="30.659245" lon="35.623139"><ele>1547.7</ele><time>2015-11-22T16:41:23.0000000+00:00</time></trkpt><trkpt lat="30.6592592" lon="35.6230791"><ele>1548.2</ele><time>2015-11-22T16:41:27.0000000+00:00</time></trkpt><trkpt lat="30.6592664" lon="35.623023"><ele>1548.2</ele><time>2015-11-22T16:41:31.0000000+00:00</time></trkpt><trkpt lat="30.6592616" lon="35.6229582"><ele>1548.7</ele><time>2015-11-22T16:41:36.0000000+00:00</time></trkpt><trkpt lat="30.6592659" lon="35.6228946"><ele>1548.4</ele><time>2015-11-22T16:42:19.0000000+00:00</time></trkpt><trkpt lat="30.6592633" lon="35.6228325"><ele>1548.2</ele><time>2015-11-22T16:42:21.0000000+00:00</time></trkpt><trkpt lat="30.6592592" lon="35.6227536"><ele>1548.2</ele><time>2015-11-22T16:42:23.0000000+00:00</time></trkpt><trkpt lat="30.659259" lon="35.6226669"><ele>1548.2</ele><time>2015-11-22T16:42:25.0000000+00:00</time></trkpt><trkpt lat="30.6592628" lon="35.6225724"><ele>1548.2</ele><time>2015-11-22T16:42:27.0000000+00:00</time></trkpt><trkpt lat="30.6592689" lon="35.6224758"><ele>1548.2</ele><time>2015-11-22T16:42:29.0000000+00:00</time></trkpt><trkpt lat="30.6592822" lon="35.6223766"><ele>1548.2</ele><time>2015-11-22T16:42:31.0000000+00:00</time></trkpt><trkpt lat="30.6592971" lon="35.6222967"><ele>1547.7</ele><time>2015-11-22T16:42:32.0000000+00:00</time></trkpt><trkpt lat="30.6593131" lon="35.6221862"><ele>1547.3</ele><time>2015-11-22T16:42:34.0000000+00:00</time></trkpt><trkpt lat="30.6593365" lon="35.6221181"><ele>1546.8</ele><time>2015-11-22T16:42:35.0000000+00:00</time></trkpt><trkpt lat="30.6593608" lon="35.6220462"><ele>1546.5</ele><time>2015-11-22T16:42:36.0000000+00:00</time></trkpt><trkpt lat="30.6593877" lon="35.621974"><ele>1546.3</ele><time>2015-11-22T16:42:37.0000000+00:00</time></trkpt><trkpt lat="30.6594167" lon="35.6218993"><ele>1546.3</ele><time>2015-11-22T16:42:38.0000000+00:00</time></trkpt><trkpt lat="30.6594488" lon="35.6218101"><ele>1546.2</ele><time>2015-11-22T16:42:39.0000000+00:00</time></trkpt><trkpt lat="30.6594892" lon="35.6217223"><ele>1545.7</ele><time>2015-11-22T16:42:40.0000000+00:00</time></trkpt><trkpt lat="30.6595322" lon="35.6216464"><ele>1545.5</ele><time>2015-11-22T16:42:41.0000000+00:00</time></trkpt><trkpt lat="30.6595661" lon="35.6215587"><ele>1545.3</ele><time>2015-11-22T16:42:42.0000000+00:00</time></trkpt><trkpt lat="30.6595988" lon="35.6214735"><ele>1543.8</ele><time>2015-11-22T16:42:43.0000000+00:00</time></trkpt><trkpt lat="30.6596368" lon="35.6214015"><ele>1544.0</ele><time>2015-11-22T16:42:44.0000000+00:00</time></trkpt><trkpt lat="30.6596716" lon="35.6213245"><ele>1543.6</ele><time>2015-11-22T16:42:45.0000000+00:00</time></trkpt><trkpt lat="30.6597035" lon="35.6212592"><ele>1543.9</ele><time>2015-11-22T16:42:46.0000000+00:00</time></trkpt><trkpt lat="30.6597447" lon="35.6211847"><ele>1544.0</ele><time>2015-11-22T16:42:47.0000000+00:00</time></trkpt><trkpt lat="30.6597744" lon="35.6211153"><ele>1544.1</ele><time>2015-11-22T16:42:48.0000000+00:00</time></trkpt><trkpt lat="30.6598056" lon="35.6210423"><ele>1543.7</ele><time>2015-11-22T16:42:49.0000000+00:00</time></trkpt><trkpt lat="30.6598383" lon="35.6209879"><ele>1542.9</ele><time>2015-11-22T16:42:50.0000000+00:00</time></trkpt><trkpt lat="30.659863" lon="35.620935"><ele>1542.6</ele><time>2015-11-22T16:42:51.0000000+00:00</time></trkpt><trkpt lat="30.6598934" lon="35.6208705"><ele>1541.4</ele><time>2015-11-22T16:42:52.0000000+00:00</time></trkpt><trkpt lat="30.6599249" lon="35.6208019"><ele>1540.8</ele><time>2015-11-22T16:42:53.0000000+00:00</time></trkpt><trkpt lat="30.6599638" lon="35.6207384"><ele>1540.5</ele><time>2015-11-22T16:42:54.0000000+00:00</time></trkpt><trkpt lat="30.659997" lon="35.6206655"><ele>1539.8</ele><time>2015-11-22T16:42:55.0000000+00:00</time></trkpt><trkpt lat="30.6600264" lon="35.6205918"><ele>1539.0</ele><time>2015-11-22T16:42:56.0000000+00:00</time></trkpt><trkpt lat="30.6600462" lon="35.6205242"><ele>1539.1</ele><time>2015-11-22T16:42:57.0000000+00:00</time></trkpt><trkpt lat="30.6600851" lon="35.620442"><ele>1538.7</ele><time>2015-11-22T16:42:58.0000000+00:00</time></trkpt><trkpt lat="30.6601136" lon="35.6203489"><ele>1537.9</ele><time>2015-11-22T16:42:59.0000000+00:00</time></trkpt><trkpt lat="30.6601367" lon="35.6202645"><ele>1537.1</ele><time>2015-11-22T16:43:00.0000000+00:00</time></trkpt><trkpt lat="30.6601709" lon="35.6201776"><ele>1537.1</ele><time>2015-11-22T16:43:01.0000000+00:00</time></trkpt><trkpt lat="30.6601981" lon="35.6200819"><ele>1536.2</ele><time>2015-11-22T16:43:02.0000000+00:00</time></trkpt><trkpt lat="30.6602208" lon="35.6199838"><ele>1536.2</ele><time>2015-11-22T16:43:03.0000000+00:00</time></trkpt><trkpt lat="30.660237" lon="35.6198948"><ele>1535.2</ele><time>2015-11-22T16:43:04.0000000+00:00</time></trkpt><trkpt lat="30.6602434" lon="35.6198"><ele>1535.2</ele><time>2015-11-22T16:43:05.0000000+00:00</time></trkpt><trkpt lat="30.6602533" lon="35.6197082"><ele>1535.2</ele><time>2015-11-22T16:43:06.0000000+00:00</time></trkpt><trkpt lat="30.6602728" lon="35.6196141"><ele>1534.2</ele><time>2015-11-22T16:43:07.0000000+00:00</time></trkpt><trkpt lat="30.6602857" lon="35.619522"><ele>1533.2</ele><time>2015-11-22T16:43:08.0000000+00:00</time></trkpt><trkpt lat="30.660303" lon="35.6194286"><ele>1532.2</ele><time>2015-11-22T16:43:09.0000000+00:00</time></trkpt><trkpt lat="30.6603165" lon="35.6193367"><ele>1531.2</ele><time>2015-11-22T16:43:10.0000000+00:00</time></trkpt><trkpt lat="30.6603396" lon="35.6192441"><ele>1531.2</ele><time>2015-11-22T16:43:11.0000000+00:00</time></trkpt><trkpt lat="30.6603614" lon="35.6191546"><ele>1530.7</ele><time>2015-11-22T16:43:12.0000000+00:00</time></trkpt><trkpt lat="30.6603812" lon="35.6190581"><ele>1530.0</ele><time>2015-11-22T16:43:13.0000000+00:00</time></trkpt><trkpt lat="30.6604027" lon="35.6189569"><ele>1530.6</ele><time>2015-11-22T16:43:14.0000000+00:00</time></trkpt><trkpt lat="30.6604273" lon="35.6188529"><ele>1530.9</ele><time>2015-11-22T16:43:15.0000000+00:00</time></trkpt><trkpt lat="30.6604439" lon="35.6187565"><ele>1531.0</ele><time>2015-11-22T16:43:16.0000000+00:00</time></trkpt><trkpt lat="30.6604736" lon="35.6186497"><ele>1534.1</ele><time>2015-11-22T16:43:17.0000000+00:00</time></trkpt><trkpt lat="30.6604896" lon="35.6185642"><ele>1535.7</ele><time>2015-11-22T16:43:18.0000000+00:00</time></trkpt><trkpt lat="30.660519" lon="35.6184638"><ele>1535.9</ele><time>2015-11-22T16:43:19.0000000+00:00</time></trkpt><trkpt lat="30.6605464" lon="35.6183716"><ele>1535.6</ele><time>2015-11-22T16:43:20.0000000+00:00</time></trkpt><trkpt lat="30.6605801" lon="35.618277"><ele>1534.4</ele><time>2015-11-22T16:43:21.0000000+00:00</time></trkpt><trkpt lat="30.6606127" lon="35.6181916"><ele>1533.3</ele><time>2015-11-22T16:43:22.0000000+00:00</time></trkpt><trkpt lat="30.6606544" lon="35.6180965"><ele>1532.7</ele><time>2015-11-22T16:43:23.0000000+00:00</time></trkpt><trkpt lat="30.660704" lon="35.617993"><ele>1532.5</ele><time>2015-11-22T16:43:24.0000000+00:00</time></trkpt><trkpt lat="30.660747" lon="35.6178999"><ele>1531.8</ele><time>2015-11-22T16:43:25.0000000+00:00</time></trkpt><trkpt lat="30.660797" lon="35.6178028"><ele>1532.0</ele><time>2015-11-22T16:43:26.0000000+00:00</time></trkpt><trkpt lat="30.6608435" lon="35.6177152"><ele>1532.1</ele><time>2015-11-22T16:43:27.0000000+00:00</time></trkpt><trkpt lat="30.6608822" lon="35.6176304"><ele>1531.2</ele><time>2015-11-22T16:43:28.0000000+00:00</time></trkpt><trkpt lat="30.6609295" lon="35.6175524"><ele>1530.2</ele><time>2015-11-22T16:43:29.0000000+00:00</time></trkpt><trkpt lat="30.6609706" lon="35.6174962"><ele>1528.2</ele><time>2015-11-22T16:43:30.0000000+00:00</time></trkpt><trkpt lat="30.661009" lon="35.6174444"><ele>1526.2</ele><time>2015-11-22T16:43:31.0000000+00:00</time></trkpt><trkpt lat="30.6610472" lon="35.6174036"><ele>1524.2</ele><time>2015-11-22T16:43:32.0000000+00:00</time></trkpt><trkpt lat="30.6611002" lon="35.61735"><ele>1523.5</ele><time>2015-11-22T16:43:34.0000000+00:00</time></trkpt><trkpt lat="30.6611624" lon="35.6173076"><ele>1524.0</ele><time>2015-11-22T16:43:36.0000000+00:00</time></trkpt><trkpt lat="30.6612269" lon="35.6172804"><ele>1522.4</ele><time>2015-11-22T16:43:38.0000000+00:00</time></trkpt><trkpt lat="30.6612995" lon="35.6172616"><ele>1519.3</ele><time>2015-11-22T16:43:40.0000000+00:00</time></trkpt><trkpt lat="30.6613463" lon="35.6172572"><ele>1519.7</ele><time>2015-11-22T16:43:41.0000000+00:00</time></trkpt><trkpt lat="30.661391" lon="35.6172484"><ele>1521.0</ele><time>2015-11-22T16:43:42.0000000+00:00</time></trkpt><trkpt lat="30.661437" lon="35.6172473"><ele>1520.6</ele><time>2015-11-22T16:43:43.0000000+00:00</time></trkpt><trkpt lat="30.6615272" lon="35.6172636"><ele>1519.5</ele><time>2015-11-22T16:43:45.0000000+00:00</time></trkpt><trkpt lat="30.6615787" lon="35.617273"><ele>1519.9</ele><time>2015-11-22T16:43:46.0000000+00:00</time></trkpt><trkpt lat="30.6616228" lon="35.6172866"><ele>1519.5</ele><time>2015-11-22T16:43:47.0000000+00:00</time></trkpt><trkpt lat="30.6616712" lon="35.617305"><ele>1519.4</ele><time>2015-11-22T16:43:48.0000000+00:00</time></trkpt><trkpt lat="30.6617202" lon="35.6173256"><ele>1519.3</ele><time>2015-11-22T16:43:49.0000000+00:00</time></trkpt><trkpt lat="30.6617643" lon="35.6173495"><ele>1519.2</ele><time>2015-11-22T16:43:50.0000000+00:00</time></trkpt><trkpt lat="30.6618197" lon="35.6173632"><ele>1525.2</ele><time>2015-11-22T16:43:51.0000000+00:00</time></trkpt><trkpt lat="30.6618686" lon="35.6173904"><ele>1527.7</ele><time>2015-11-22T16:43:52.0000000+00:00</time></trkpt><trkpt lat="30.661918" lon="35.617409"><ele>1527.0</ele><time>2015-11-22T16:43:53.0000000+00:00</time></trkpt><trkpt lat="30.6619658" lon="35.617432"><ele>1525.1</ele><time>2015-11-22T16:43:54.0000000+00:00</time></trkpt><trkpt lat="30.6620171" lon="35.6174549"><ele>1524.6</ele><time>2015-11-22T16:43:55.0000000+00:00</time></trkpt><trkpt lat="30.6620789" lon="35.6174739"><ele>1523.4</ele><time>2015-11-22T16:43:56.0000000+00:00</time></trkpt><trkpt lat="30.6621357" lon="35.617491"><ele>1522.3</ele><time>2015-11-22T16:43:57.0000000+00:00</time></trkpt><trkpt lat="30.6621952" lon="35.6175017"><ele>1520.3</ele><time>2015-11-22T16:43:58.0000000+00:00</time></trkpt><trkpt lat="30.6622487" lon="35.6175165"><ele>1519.2</ele><time>2015-11-22T16:43:59.0000000+00:00</time></trkpt><trkpt lat="30.6623088" lon="35.617518"><ele>1518.2</ele><time>2015-11-22T16:44:00.0000000+00:00</time></trkpt><trkpt lat="30.6623738" lon="35.6175165"><ele>1518.2</ele><time>2015-11-22T16:44:01.0000000+00:00</time></trkpt><trkpt lat="30.6624298" lon="35.6175209"><ele>1518.7</ele><time>2015-11-22T16:44:02.0000000+00:00</time></trkpt><trkpt lat="30.6625001" lon="35.6175139"><ele>1519.0</ele><time>2015-11-22T16:44:03.0000000+00:00</time></trkpt><trkpt lat="30.6625613" lon="35.6175085"><ele>1518.6</ele><time>2015-11-22T16:44:04.0000000+00:00</time></trkpt><trkpt lat="30.6626231" lon="35.6174958"><ele>1517.9</ele><time>2015-11-22T16:44:05.0000000+00:00</time></trkpt><trkpt lat="30.6626949" lon="35.6174766"><ele>1516.0</ele><time>2015-11-22T16:44:06.0000000+00:00</time></trkpt><trkpt lat="30.6627682" lon="35.6174554"><ele>1514.6</ele><time>2015-11-22T16:44:07.0000000+00:00</time></trkpt><trkpt lat="30.6628414" lon="35.6174255"><ele>1512.9</ele><time>2015-11-22T16:44:08.0000000+00:00</time></trkpt><trkpt lat="30.6629167" lon="35.6173977"><ele>1512.1</ele><time>2015-11-22T16:44:09.0000000+00:00</time></trkpt><trkpt lat="30.6629837" lon="35.6173582"><ele>1512.1</ele><time>2015-11-22T16:44:10.0000000+00:00</time></trkpt><trkpt lat="30.6630598" lon="35.6173131"><ele>1512.7</ele><time>2015-11-22T16:44:11.0000000+00:00</time></trkpt><trkpt lat="30.6631313" lon="35.6172703"><ele>1514.9</ele><time>2015-11-22T16:44:12.0000000+00:00</time></trkpt><trkpt lat="30.6632026" lon="35.61721"><ele>1520.1</ele><time>2015-11-22T16:44:13.0000000+00:00</time></trkpt><trkpt lat="30.6632692" lon="35.6171439"><ele>1524.6</ele><time>2015-11-22T16:44:14.0000000+00:00</time></trkpt><trkpt lat="30.6633271" lon="35.6170944"><ele>1526.4</ele><time>2015-11-22T16:44:15.0000000+00:00</time></trkpt><trkpt lat="30.6633899" lon="35.6170408"><ele>1527.8</ele><time>2015-11-22T16:44:16.0000000+00:00</time></trkpt><trkpt lat="30.6634494" lon="35.6169909"><ele>1528.0</ele><time>2015-11-22T16:44:17.0000000+00:00</time></trkpt><trkpt lat="30.6635051" lon="35.6169466"><ele>1528.6</ele><time>2015-11-22T16:44:18.0000000+00:00</time></trkpt><trkpt lat="30.663561" lon="35.6169062"><ele>1530.9</ele><time>2015-11-22T16:44:19.0000000+00:00</time></trkpt><trkpt lat="30.6636152" lon="35.6168711"><ele>1530.1</ele><time>2015-11-22T16:44:20.0000000+00:00</time></trkpt><trkpt lat="30.6636619" lon="35.6168549"><ele>1529.1</ele><time>2015-11-22T16:44:21.0000000+00:00</time></trkpt><trkpt lat="30.6637136" lon="35.6168434"><ele>1527.7</ele><time>2015-11-22T16:44:22.0000000+00:00</time></trkpt><trkpt lat="30.6638139" lon="35.6168048"><ele>1529.6</ele><time>2015-11-22T16:44:24.0000000+00:00</time></trkpt><trkpt lat="30.6638748" lon="35.6167812"><ele>1529.4</ele><time>2015-11-22T16:44:25.0000000+00:00</time></trkpt><trkpt lat="30.6639379" lon="35.6167599"><ele>1527.8</ele><time>2015-11-22T16:44:26.0000000+00:00</time></trkpt><trkpt lat="30.664003" lon="35.6167426"><ele>1526.0</ele><time>2015-11-22T16:44:27.0000000+00:00</time></trkpt><trkpt lat="30.6640657" lon="35.6167076"><ele>1515.6</ele><time>2015-11-22T16:44:28.0000000+00:00</time></trkpt><trkpt lat="30.6641271" lon="35.6166798"><ele>1503.4</ele><time>2015-11-22T16:44:29.0000000+00:00</time></trkpt><trkpt lat="30.6641875" lon="35.6166496"><ele>1492.8</ele><time>2015-11-22T16:44:30.0000000+00:00</time></trkpt><trkpt lat="30.6642485" lon="35.6166267"><ele>1485.5</ele><time>2015-11-22T16:44:31.0000000+00:00</time></trkpt><trkpt lat="30.6643211" lon="35.6166084"><ele>1478.9</ele><time>2015-11-22T16:44:32.0000000+00:00</time></trkpt><trkpt lat="30.6643707" lon="35.6165934"><ele>1473.0</ele><time>2015-11-22T16:44:33.0000000+00:00</time></trkpt><trkpt lat="30.6644187" lon="35.6165819"><ele>1468.6</ele><time>2015-11-22T16:44:34.0000000+00:00</time></trkpt><trkpt lat="30.6644775" lon="35.616568"><ele>1465.4</ele><time>2015-11-22T16:44:35.0000000+00:00</time></trkpt><trkpt lat="30.664529" lon="35.6165561"><ele>1463.3</ele><time>2015-11-22T16:44:36.0000000+00:00</time></trkpt><trkpt lat="30.6645798" lon="35.6165479"><ele>1461.8</ele><time>2015-11-22T16:44:37.0000000+00:00</time></trkpt><trkpt lat="30.6646311" lon="35.6165459"><ele>1460.5</ele><time>2015-11-22T16:44:38.0000000+00:00</time></trkpt><trkpt lat="30.6646878" lon="35.6165439"><ele>1458.8</ele><time>2015-11-22T16:44:39.0000000+00:00</time></trkpt><trkpt lat="30.6647386" lon="35.61655"><ele>1458.0</ele><time>2015-11-22T16:44:40.0000000+00:00</time></trkpt><trkpt lat="30.6647921" lon="35.6165549"><ele>1456.6</ele><time>2015-11-22T16:44:41.0000000+00:00</time></trkpt><trkpt lat="30.6648432" lon="35.6165619"><ele>1455.4</ele><time>2015-11-22T16:44:42.0000000+00:00</time></trkpt><trkpt lat="30.664892" lon="35.6165686"><ele>1454.3</ele><time>2015-11-22T16:44:43.0000000+00:00</time></trkpt><trkpt lat="30.664944" lon="35.6165751"><ele>1453.3</ele><time>2015-11-22T16:44:44.0000000+00:00</time></trkpt><trkpt lat="30.6649925" lon="35.6165776"><ele>1452.2</ele><time>2015-11-22T16:44:45.0000000+00:00</time></trkpt><trkpt lat="30.6650404" lon="35.616589"><ele>1451.2</ele><time>2015-11-22T16:44:46.0000000+00:00</time></trkpt><trkpt lat="30.6650907" lon="35.6165911"><ele>1450.2</ele><time>2015-11-22T16:44:47.0000000+00:00</time></trkpt><trkpt lat="30.6651396" lon="35.6165924"><ele>1449.2</ele><time>2015-11-22T16:44:48.0000000+00:00</time></trkpt><trkpt lat="30.665228" lon="35.6165823"><ele>1447.2</ele><time>2015-11-22T16:44:50.0000000+00:00</time></trkpt><trkpt lat="30.6652766" lon="35.6165765"><ele>1446.2</ele><time>2015-11-22T16:44:51.0000000+00:00</time></trkpt><trkpt lat="30.665326" lon="35.6165661"><ele>1445.2</ele><time>2015-11-22T16:44:52.0000000+00:00</time></trkpt><trkpt lat="30.6653744" lon="35.6165538"><ele>1444.2</ele><time>2015-11-22T16:44:53.0000000+00:00</time></trkpt><trkpt lat="30.665422" lon="35.6165378"><ele>1443.7</ele><time>2015-11-22T16:44:54.0000000+00:00</time></trkpt><trkpt lat="30.6654665" lon="35.6165217"><ele>1442.5</ele><time>2015-11-22T16:44:55.0000000+00:00</time></trkpt><trkpt lat="30.6655177" lon="35.6164914"><ele>1441.3</ele><time>2015-11-22T16:44:56.0000000+00:00</time></trkpt><trkpt lat="30.6655679" lon="35.6164638"><ele>1440.3</ele><time>2015-11-22T16:44:57.0000000+00:00</time></trkpt><trkpt lat="30.6656225" lon="35.6164272"><ele>1439.2</ele><time>2015-11-22T16:44:58.0000000+00:00</time></trkpt><trkpt lat="30.6656742" lon="35.6163831"><ele>1438.2</ele><time>2015-11-22T16:44:59.0000000+00:00</time></trkpt><trkpt lat="30.665724" lon="35.6163378"><ele>1437.2</ele><time>2015-11-22T16:45:00.0000000+00:00</time></trkpt><trkpt lat="30.6657727" lon="35.6162926"><ele>1435.7</ele><time>2015-11-22T16:45:01.0000000+00:00</time></trkpt><trkpt lat="30.6658223" lon="35.6162382"><ele>1434.5</ele><time>2015-11-22T16:45:02.0000000+00:00</time></trkpt><trkpt lat="30.6658688" lon="35.6161872"><ele>1432.8</ele><time>2015-11-22T16:45:03.0000000+00:00</time></trkpt><trkpt lat="30.6659152" lon="35.6161264"><ele>1431.5</ele><time>2015-11-22T16:45:04.0000000+00:00</time></trkpt><trkpt lat="30.6659648" lon="35.6160624"><ele>1429.9</ele><time>2015-11-22T16:45:05.0000000+00:00</time></trkpt><trkpt lat="30.666012" lon="35.6159961"><ele>1428.5</ele><time>2015-11-22T16:45:06.0000000+00:00</time></trkpt><trkpt lat="30.6660567" lon="35.6159372"><ele>1427.9</ele><time>2015-11-22T16:45:07.0000000+00:00</time></trkpt><trkpt lat="30.6661018" lon="35.6158737"><ele>1426.5</ele><time>2015-11-22T16:45:08.0000000+00:00</time></trkpt><trkpt lat="30.6661473" lon="35.6158125"><ele>1425.4</ele><time>2015-11-22T16:45:09.0000000+00:00</time></trkpt><trkpt lat="30.6661938" lon="35.6157465"><ele>1424.3</ele><time>2015-11-22T16:45:10.0000000+00:00</time></trkpt><trkpt lat="30.6662465" lon="35.6156781"><ele>1422.7</ele><time>2015-11-22T16:45:11.0000000+00:00</time></trkpt><trkpt lat="30.6662964" lon="35.6156036"><ele>1421.5</ele><time>2015-11-22T16:45:12.0000000+00:00</time></trkpt><trkpt lat="30.6663485" lon="35.6155274"><ele>1420.3</ele><time>2015-11-22T16:45:13.0000000+00:00</time></trkpt><trkpt lat="30.6663982" lon="35.6154568"><ele>1418.8</ele><time>2015-11-22T16:45:14.0000000+00:00</time></trkpt><trkpt lat="30.6664487" lon="35.6153775"><ele>1417.5</ele><time>2015-11-22T16:45:15.0000000+00:00</time></trkpt><trkpt lat="30.6664982" lon="35.6152934"><ele>1416.3</ele><time>2015-11-22T16:45:16.0000000+00:00</time></trkpt><trkpt lat="30.6665438" lon="35.6152089"><ele>1415.3</ele><time>2015-11-22T16:45:17.0000000+00:00</time></trkpt><trkpt lat="30.6665835" lon="35.6151259"><ele>1414.7</ele><time>2015-11-22T16:45:18.0000000+00:00</time></trkpt><trkpt lat="30.6666178" lon="35.6150403"><ele>1414.5</ele><time>2015-11-22T16:45:19.0000000+00:00</time></trkpt><trkpt lat="30.6666569" lon="35.6149609"><ele>1413.8</ele><time>2015-11-22T16:45:20.0000000+00:00</time></trkpt><trkpt lat="30.6666964" lon="35.6148845"><ele>1413.0</ele><time>2015-11-22T16:45:21.0000000+00:00</time></trkpt><trkpt lat="30.6667373" lon="35.6148122"><ele>1412.6</ele><time>2015-11-22T16:45:22.0000000+00:00</time></trkpt><trkpt lat="30.6667789" lon="35.614744"><ele>1411.9</ele><time>2015-11-22T16:45:23.0000000+00:00</time></trkpt><trkpt lat="30.6668202" lon="35.6146777"><ele>1411.1</ele><time>2015-11-22T16:45:24.0000000+00:00</time></trkpt><trkpt lat="30.6668661" lon="35.6146162"><ele>1410.1</ele><time>2015-11-22T16:45:25.0000000+00:00</time></trkpt><trkpt lat="30.6669145" lon="35.6145581"><ele>1409.2</ele><time>2015-11-22T16:45:26.0000000+00:00</time></trkpt><trkpt lat="30.6669665" lon="35.6145078"><ele>1408.7</ele><time>2015-11-22T16:45:27.0000000+00:00</time></trkpt><trkpt lat="30.6670173" lon="35.6144612"><ele>1408.4</ele><time>2015-11-22T16:45:28.0000000+00:00</time></trkpt><trkpt lat="30.6670657" lon="35.6144195"><ele>1407.8</ele><time>2015-11-22T16:45:29.0000000+00:00</time></trkpt><trkpt lat="30.6671135" lon="35.6143853"><ele>1407.5</ele><time>2015-11-22T16:45:30.0000000+00:00</time></trkpt><trkpt lat="30.6671617" lon="35.6143592"><ele>1406.9</ele><time>2015-11-22T16:45:31.0000000+00:00</time></trkpt><trkpt lat="30.6672116" lon="35.6143345"><ele>1406.0</ele><time>2015-11-22T16:45:32.0000000+00:00</time></trkpt><trkpt lat="30.6672664" lon="35.6143099"><ele>1405.1</ele><time>2015-11-22T16:45:33.0000000+00:00</time></trkpt><trkpt lat="30.6673202" lon="35.6142913"><ele>1404.2</ele><time>2015-11-22T16:45:34.0000000+00:00</time></trkpt><trkpt lat="30.6673706" lon="35.6142736"><ele>1403.2</ele><time>2015-11-22T16:45:35.0000000+00:00</time></trkpt><trkpt lat="30.6674254" lon="35.6142566"><ele>1401.7</ele><time>2015-11-22T16:45:36.0000000+00:00</time></trkpt><trkpt lat="30.6674808" lon="35.6142315"><ele>1400.4</ele><time>2015-11-22T16:45:37.0000000+00:00</time></trkpt><trkpt lat="30.6675406" lon="35.6142028"><ele>1399.3</ele><time>2015-11-22T16:45:38.0000000+00:00</time></trkpt><trkpt lat="30.6676006" lon="35.6141734"><ele>1398.3</ele><time>2015-11-22T16:45:39.0000000+00:00</time></trkpt><trkpt lat="30.6676606" lon="35.614144"><ele>1396.7</ele><time>2015-11-22T16:45:40.0000000+00:00</time></trkpt><trkpt lat="30.6677228" lon="35.6141156"><ele>1395.0</ele><time>2015-11-22T16:45:41.0000000+00:00</time></trkpt><trkpt lat="30.6677807" lon="35.6140822"><ele>1393.1</ele><time>2015-11-22T16:45:42.0000000+00:00</time></trkpt><trkpt lat="30.6678418" lon="35.6140468"><ele>1391.1</ele><time>2015-11-22T16:45:43.0000000+00:00</time></trkpt><trkpt lat="30.6679103" lon="35.6140098"><ele>1389.7</ele><time>2015-11-22T16:45:44.0000000+00:00</time></trkpt><trkpt lat="30.6679779" lon="35.6139692"><ele>1388.4</ele><time>2015-11-22T16:45:45.0000000+00:00</time></trkpt><trkpt lat="30.6680549" lon="35.6139275"><ele>1386.8</ele><time>2015-11-22T16:45:46.0000000+00:00</time></trkpt><trkpt lat="30.6681236" lon="35.6138854"><ele>1385.0</ele><time>2015-11-22T16:45:47.0000000+00:00</time></trkpt><trkpt lat="30.6681972" lon="35.6138386"><ele>1383.6</ele><time>2015-11-22T16:45:48.0000000+00:00</time></trkpt><trkpt lat="30.6682727" lon="35.6137956"><ele>1381.9</ele><time>2015-11-22T16:45:49.0000000+00:00</time></trkpt><trkpt lat="30.6683435" lon="35.6137452"><ele>1380.6</ele><time>2015-11-22T16:45:50.0000000+00:00</time></trkpt><trkpt lat="30.6684098" lon="35.6136846"><ele>1378.9</ele><time>2015-11-22T16:45:51.0000000+00:00</time></trkpt><trkpt lat="30.6684742" lon="35.6136161"><ele>1377.0</ele><time>2015-11-22T16:45:52.0000000+00:00</time></trkpt><trkpt lat="30.6685385" lon="35.6135416"><ele>1375.1</ele><time>2015-11-22T16:45:53.0000000+00:00</time></trkpt><trkpt lat="30.6686052" lon="35.6134602"><ele>1373.2</ele><time>2015-11-22T16:45:54.0000000+00:00</time></trkpt><trkpt lat="30.6686725" lon="35.6133757"><ele>1370.7</ele><time>2015-11-22T16:45:55.0000000+00:00</time></trkpt><trkpt lat="30.6687404" lon="35.61329"><ele>1368.9</ele><time>2015-11-22T16:45:56.0000000+00:00</time></trkpt><trkpt lat="30.6688124" lon="35.6132095"><ele>1367.1</ele><time>2015-11-22T16:45:57.0000000+00:00</time></trkpt><trkpt lat="30.6688905" lon="35.6131295"><ele>1365.1</ele><time>2015-11-22T16:45:58.0000000+00:00</time></trkpt><trkpt lat="30.6689672" lon="35.6130453"><ele>1363.2</ele><time>2015-11-22T16:45:59.0000000+00:00</time></trkpt><trkpt lat="30.6690493" lon="35.6129662"><ele>1360.7</ele><time>2015-11-22T16:46:00.0000000+00:00</time></trkpt><trkpt lat="30.6691346" lon="35.6128849"><ele>1358.9</ele><time>2015-11-22T16:46:01.0000000+00:00</time></trkpt><trkpt lat="30.6692213" lon="35.6127988"><ele>1357.6</ele><time>2015-11-22T16:46:02.0000000+00:00</time></trkpt><trkpt lat="30.6693096" lon="35.6127135"><ele>1356.4</ele><time>2015-11-22T16:46:03.0000000+00:00</time></trkpt><trkpt lat="30.6693883" lon="35.6126272"><ele>1355.8</ele><time>2015-11-22T16:46:04.0000000+00:00</time></trkpt><trkpt lat="30.6694545" lon="35.6125456"><ele>1355.0</ele><time>2015-11-22T16:46:05.0000000+00:00</time></trkpt><trkpt lat="30.6695251" lon="35.6124642"><ele>1354.6</ele><time>2015-11-22T16:46:06.0000000+00:00</time></trkpt><trkpt lat="30.6695935" lon="35.612386"><ele>1353.9</ele><time>2015-11-22T16:46:07.0000000+00:00</time></trkpt><trkpt lat="30.6696665" lon="35.6122974"><ele>1353.6</ele><time>2015-11-22T16:46:08.0000000+00:00</time></trkpt><trkpt lat="30.6697364" lon="35.6122164"><ele>1352.9</ele><time>2015-11-22T16:46:09.0000000+00:00</time></trkpt><trkpt lat="30.6697923" lon="35.6121458"><ele>1352.0</ele><time>2015-11-22T16:46:10.0000000+00:00</time></trkpt><trkpt lat="30.6698492" lon="35.6120797"><ele>1351.6</ele><time>2015-11-22T16:46:11.0000000+00:00</time></trkpt><trkpt lat="30.6699086" lon="35.612012"><ele>1350.9</ele><time>2015-11-22T16:46:12.0000000+00:00</time></trkpt><trkpt lat="30.6699668" lon="35.6119437"><ele>1350.6</ele><time>2015-11-22T16:46:13.0000000+00:00</time></trkpt><trkpt lat="30.6700259" lon="35.6118872"><ele>1350.4</ele><time>2015-11-22T16:46:14.0000000+00:00</time></trkpt><trkpt lat="30.6700845" lon="35.6118403"><ele>1350.3</ele><time>2015-11-22T16:46:15.0000000+00:00</time></trkpt><trkpt lat="30.6701452" lon="35.6117918"><ele>1349.7</ele><time>2015-11-22T16:46:16.0000000+00:00</time></trkpt><trkpt lat="30.6702003" lon="35.6117489"><ele>1349.5</ele><time>2015-11-22T16:46:17.0000000+00:00</time></trkpt><trkpt lat="30.6702543" lon="35.6117009"><ele>1349.3</ele><time>2015-11-22T16:46:18.0000000+00:00</time></trkpt><trkpt lat="30.6703084" lon="35.6116434"><ele>1349.3</ele><time>2015-11-22T16:46:19.0000000+00:00</time></trkpt><trkpt lat="30.6703669" lon="35.6115884"><ele>1348.7</ele><time>2015-11-22T16:46:20.0000000+00:00</time></trkpt><trkpt lat="30.6704207" lon="35.6115272"><ele>1348.5</ele><time>2015-11-22T16:46:21.0000000+00:00</time></trkpt><trkpt lat="30.670474" lon="35.6114653"><ele>1347.3</ele><time>2015-11-22T16:46:22.0000000+00:00</time></trkpt><trkpt lat="30.6705221" lon="35.6114053"><ele>1346.3</ele><time>2015-11-22T16:46:23.0000000+00:00</time></trkpt><trkpt lat="30.6705752" lon="35.6113361"><ele>1345.2</ele><time>2015-11-22T16:46:24.0000000+00:00</time></trkpt><trkpt lat="30.670631" lon="35.6112627"><ele>1343.7</ele><time>2015-11-22T16:46:25.0000000+00:00</time></trkpt><trkpt lat="30.6706763" lon="35.6111869"><ele>1342.5</ele><time>2015-11-22T16:46:26.0000000+00:00</time></trkpt><trkpt lat="30.6707123" lon="35.6111045"><ele>1341.3</ele><time>2015-11-22T16:46:27.0000000+00:00</time></trkpt><trkpt lat="30.6707418" lon="35.6110284"><ele>1340.8</ele><time>2015-11-22T16:46:28.0000000+00:00</time></trkpt><trkpt lat="30.6707781" lon="35.6109449"><ele>1340.0</ele><time>2015-11-22T16:46:29.0000000+00:00</time></trkpt><trkpt lat="30.6708103" lon="35.6108712"><ele>1339.6</ele><time>2015-11-22T16:46:30.0000000+00:00</time></trkpt><trkpt lat="30.670847" lon="35.610795"><ele>1339.4</ele><time>2015-11-22T16:46:31.0000000+00:00</time></trkpt><trkpt lat="30.6708758" lon="35.6107354"><ele>1338.3</ele><time>2015-11-22T16:46:32.0000000+00:00</time></trkpt><trkpt lat="30.6709096" lon="35.6106707"><ele>1337.7</ele><time>2015-11-22T16:46:33.0000000+00:00</time></trkpt><trkpt lat="30.6709484" lon="35.6106257"><ele>1337.0</ele><time>2015-11-22T16:46:34.0000000+00:00</time></trkpt><trkpt lat="30.6709938" lon="35.6105876"><ele>1336.1</ele><time>2015-11-22T16:46:35.0000000+00:00</time></trkpt><trkpt lat="30.6710326" lon="35.6105488"><ele>1335.1</ele><time>2015-11-22T16:46:36.0000000+00:00</time></trkpt><trkpt lat="30.6710989" lon="35.6104825"><ele>1333.9</ele><time>2015-11-22T16:46:38.0000000+00:00</time></trkpt><trkpt lat="30.6711411" lon="35.6104532"><ele>1333.6</ele><time>2015-11-22T16:46:39.0000000+00:00</time></trkpt><trkpt lat="30.6712086" lon="35.6104131"><ele>1332.5</ele><time>2015-11-22T16:46:41.0000000+00:00</time></trkpt><trkpt lat="30.6712656" lon="35.6104015"><ele>1331.7</ele><time>2015-11-22T16:46:44.0000000+00:00</time></trkpt><trkpt lat="30.6713128" lon="35.6103896"><ele>1330.8</ele><time>2015-11-22T16:46:46.0000000+00:00</time></trkpt><trkpt lat="30.6713647" lon="35.6103663"><ele>1329.9</ele><time>2015-11-22T16:46:48.0000000+00:00</time></trkpt><trkpt lat="30.6714325" lon="35.6103382"><ele>1329.1</ele><time>2015-11-22T16:46:50.0000000+00:00</time></trkpt><trkpt lat="30.6715156" lon="35.6103104"><ele>1327.2</ele><time>2015-11-22T16:46:52.0000000+00:00</time></trkpt><trkpt lat="30.6715961" lon="35.610287"><ele>1336.2</ele><time>2015-11-22T16:46:54.0000000+00:00</time></trkpt><trkpt lat="30.671666" lon="35.6102729"><ele>1337.9</ele><time>2015-11-22T16:46:56.0000000+00:00</time></trkpt><trkpt lat="30.6717277" lon="35.6102659"><ele>1337.4</ele><time>2015-11-22T16:46:58.0000000+00:00</time></trkpt><trkpt lat="30.6717871" lon="35.6102621"><ele>1339.7</ele><time>2015-11-22T16:47:00.0000000+00:00</time></trkpt><trkpt lat="30.6718522" lon="35.6102795"><ele>1342.1</ele><time>2015-11-22T16:47:02.0000000+00:00</time></trkpt><trkpt lat="30.6719221" lon="35.6103185"><ele>1343.2</ele><time>2015-11-22T16:47:04.0000000+00:00</time></trkpt><trkpt lat="30.6719835" lon="35.6103692"><ele>1343.2</ele><time>2015-11-22T16:47:06.0000000+00:00</time></trkpt><trkpt lat="30.6720375" lon="35.6104354"><ele>1342.9</ele><time>2015-11-22T16:47:08.0000000+00:00</time></trkpt><trkpt lat="30.6720794" lon="35.610511"><ele>1344.4</ele><time>2015-11-22T16:47:10.0000000+00:00</time></trkpt><trkpt lat="30.6721143" lon="35.6105824"><ele>1343.2</ele><time>2015-11-22T16:47:12.0000000+00:00</time></trkpt><trkpt lat="30.6721449" lon="35.6106447"><ele>1343.0</ele><time>2015-11-22T16:47:14.0000000+00:00</time></trkpt><trkpt lat="30.6721642" lon="35.6106999"><ele>1342.9</ele><time>2015-11-22T16:47:16.0000000+00:00</time></trkpt><trkpt lat="30.6721873" lon="35.6107534"><ele>1341.6</ele><time>2015-11-22T16:47:49.0000000+00:00</time></trkpt><trkpt lat="30.6722138" lon="35.610822"><ele>1340.6</ele><time>2015-11-22T16:47:52.0000000+00:00</time></trkpt><trkpt lat="30.6722338" lon="35.6108873"><ele>1339.3</ele><time>2015-11-22T16:47:54.0000000+00:00</time></trkpt><trkpt lat="30.6722496" lon="35.6109633"><ele>1340.0</ele><time>2015-11-22T16:47:56.0000000+00:00</time></trkpt><trkpt lat="30.6722704" lon="35.6110425"><ele>1338.1</ele><time>2015-11-22T16:47:58.0000000+00:00</time></trkpt><trkpt lat="30.6723019" lon="35.6111114"><ele>1336.7</ele><time>2015-11-22T16:48:00.0000000+00:00</time></trkpt><trkpt lat="30.6723198" lon="35.6111848"><ele>1334.3</ele><time>2015-11-22T16:48:02.0000000+00:00</time></trkpt><trkpt lat="30.6723244" lon="35.6112656"><ele>1334.7</ele><time>2015-11-22T16:48:04.0000000+00:00</time></trkpt><trkpt lat="30.6723421" lon="35.611392"><ele>1340.1</ele><time>2015-11-22T16:48:06.0000000+00:00</time></trkpt><trkpt lat="30.6723603" lon="35.6114444"><ele>1342.6</ele><time>2015-11-22T16:48:07.0000000+00:00</time></trkpt><trkpt lat="30.6723701" lon="35.6115079"><ele>1344.9</ele><time>2015-11-22T16:48:08.0000000+00:00</time></trkpt><trkpt lat="30.6723698" lon="35.611565"><ele>1346.1</ele><time>2015-11-22T16:48:09.0000000+00:00</time></trkpt><trkpt lat="30.6723879" lon="35.6116198"><ele>1346.6</ele><time>2015-11-22T16:48:10.0000000+00:00</time></trkpt><trkpt lat="30.6723869" lon="35.6116889"><ele>1346.9</ele><time>2015-11-22T16:48:11.0000000+00:00</time></trkpt><trkpt lat="30.6723887" lon="35.6117452"><ele>1347.1</ele><time>2015-11-22T16:48:12.0000000+00:00</time></trkpt><trkpt lat="30.6723888" lon="35.6118081"><ele>1346.6</ele><time>2015-11-22T16:48:13.0000000+00:00</time></trkpt><trkpt lat="30.6724371" lon="35.6118732"><ele>1346.1</ele><time>2015-11-22T16:48:15.0000000+00:00</time></trkpt><trkpt lat="30.672501" lon="35.6119477"><ele>1344.9</ele><time>2015-11-22T16:48:17.0000000+00:00</time></trkpt><trkpt lat="30.672536" lon="35.6119853"><ele>1344.6</ele><time>2015-11-22T16:48:18.0000000+00:00</time></trkpt><trkpt lat="30.6725792" lon="35.6120204"><ele>1344.4</ele><time>2015-11-22T16:48:19.0000000+00:00</time></trkpt><trkpt lat="30.6726209" lon="35.6120604"><ele>1344.3</ele><time>2015-11-22T16:48:20.0000000+00:00</time></trkpt><trkpt lat="30.6726558" lon="35.6120977"><ele>1344.2</ele><time>2015-11-22T16:48:21.0000000+00:00</time></trkpt><trkpt lat="30.6726912" lon="35.6121375"><ele>1344.2</ele><time>2015-11-22T16:48:22.0000000+00:00</time></trkpt><trkpt lat="30.6727272" lon="35.6121806"><ele>1343.7</ele><time>2015-11-22T16:48:23.0000000+00:00</time></trkpt><trkpt lat="30.6727656" lon="35.6122214"><ele>1343.0</ele><time>2015-11-22T16:48:24.0000000+00:00</time></trkpt><trkpt lat="30.6728153" lon="35.6122548"><ele>1341.6</ele><time>2015-11-22T16:48:25.0000000+00:00</time></trkpt><trkpt lat="30.6728692" lon="35.6122884"><ele>1341.9</ele><time>2015-11-22T16:48:26.0000000+00:00</time></trkpt><trkpt lat="30.6729167" lon="35.6123286"><ele>1342.0</ele><time>2015-11-22T16:48:27.0000000+00:00</time></trkpt><trkpt lat="30.6729686" lon="35.6123712"><ele>1341.6</ele><time>2015-11-22T16:48:28.0000000+00:00</time></trkpt><trkpt lat="30.6730249" lon="35.6124062"><ele>1340.4</ele><time>2015-11-22T16:48:29.0000000+00:00</time></trkpt><trkpt lat="30.673089" lon="35.6124436"><ele>1339.3</ele><time>2015-11-22T16:48:30.0000000+00:00</time></trkpt><trkpt lat="30.6731439" lon="35.6124854"><ele>1337.8</ele><time>2015-11-22T16:48:31.0000000+00:00</time></trkpt><trkpt lat="30.6732037" lon="35.6125218"><ele>1336.5</ele><time>2015-11-22T16:48:32.0000000+00:00</time></trkpt><trkpt lat="30.6732554" lon="35.6125695"><ele>1335.8</ele><time>2015-11-22T16:48:33.0000000+00:00</time></trkpt><trkpt lat="30.6733184" lon="35.6126098"><ele>1335.0</ele><time>2015-11-22T16:48:34.0000000+00:00</time></trkpt><trkpt lat="30.6733682" lon="35.6126429"><ele>1334.6</ele><time>2015-11-22T16:48:35.0000000+00:00</time></trkpt><trkpt lat="30.6734218" lon="35.6126861"><ele>1334.4</ele><time>2015-11-22T16:48:36.0000000+00:00</time></trkpt><trkpt lat="30.6734749" lon="35.6127191"><ele>1333.8</ele><time>2015-11-22T16:48:37.0000000+00:00</time></trkpt><trkpt lat="30.6735302" lon="35.6127436"><ele>1331.0</ele><time>2015-11-22T16:48:38.0000000+00:00</time></trkpt><trkpt lat="30.6735925" lon="35.6127586"><ele>1330.6</ele><time>2015-11-22T16:48:39.0000000+00:00</time></trkpt><trkpt lat="30.6736624" lon="35.6127702"><ele>1330.4</ele><time>2015-11-22T16:48:40.0000000+00:00</time></trkpt><trkpt lat="30.6737198" lon="35.6127834"><ele>1323.8</ele><time>2015-11-22T16:48:41.0000000+00:00</time></trkpt><trkpt lat="30.6737864" lon="35.6127967"><ele>1320.0</ele><time>2015-11-22T16:48:42.0000000+00:00</time></trkpt><trkpt lat="30.673847" lon="35.6128151"><ele>1312.6</ele><time>2015-11-22T16:48:43.0000000+00:00</time></trkpt><trkpt lat="30.6739247" lon="35.612821"><ele>1306.9</ele><time>2015-11-22T16:48:44.0000000+00:00</time></trkpt><trkpt lat="30.6739895" lon="35.6128206"><ele>1303.1</ele><time>2015-11-22T16:48:45.0000000+00:00</time></trkpt><trkpt lat="30.6740632" lon="35.612828"><ele>1301.1</ele><time>2015-11-22T16:48:46.0000000+00:00</time></trkpt><trkpt lat="30.6741323" lon="35.6128289"><ele>1298.7</ele><time>2015-11-22T16:48:47.0000000+00:00</time></trkpt><trkpt lat="30.6742139" lon="35.6128311"><ele>1296.9</ele><time>2015-11-22T16:48:48.0000000+00:00</time></trkpt><trkpt lat="30.6742918" lon="35.6128264"><ele>1295.1</ele><time>2015-11-22T16:48:49.0000000+00:00</time></trkpt><trkpt lat="30.6743491" lon="35.612834"><ele>1294.6</ele><time>2015-11-22T16:48:50.0000000+00:00</time></trkpt><trkpt lat="30.6743992" lon="35.6128457"><ele>1293.9</ele><time>2015-11-22T16:48:51.0000000+00:00</time></trkpt><trkpt lat="30.6744526" lon="35.6128591"><ele>1293.1</ele><time>2015-11-22T16:48:52.0000000+00:00</time></trkpt><trkpt lat="30.6745287" lon="35.6128702"><ele>1291.2</ele><time>2015-11-22T16:48:54.0000000+00:00</time></trkpt><trkpt lat="30.6745946" lon="35.612871"><ele>1289.7</ele><time>2015-11-22T16:48:56.0000000+00:00</time></trkpt><trkpt lat="30.6746579" lon="35.6128588"><ele>1287.6</ele><time>2015-11-22T16:48:58.0000000+00:00</time></trkpt><trkpt lat="30.6747051" lon="35.6128131"><ele>1285.5</ele><time>2015-11-22T16:49:00.0000000+00:00</time></trkpt><trkpt lat="30.6746784" lon="35.6127643"><ele>1284.0</ele><time>2015-11-22T16:49:02.0000000+00:00</time></trkpt><trkpt lat="30.674632" lon="35.612727"><ele>1283.4</ele><time>2015-11-22T16:49:04.0000000+00:00</time></trkpt><trkpt lat="30.6745867" lon="35.6127082"><ele>1282.3</ele><time>2015-11-22T16:49:05.0000000+00:00</time></trkpt><trkpt lat="30.6745134" lon="35.6126757"><ele>1281.3</ele><time>2015-11-22T16:49:06.0000000+00:00</time></trkpt><trkpt lat="30.6744452" lon="35.6126407"><ele>1281.2</ele><time>2015-11-22T16:49:07.0000000+00:00</time></trkpt><trkpt lat="30.6743871" lon="35.6125971"><ele>1280.2</ele><time>2015-11-22T16:49:08.0000000+00:00</time></trkpt><trkpt lat="30.6743266" lon="35.6125539"><ele>1279.7</ele><time>2015-11-22T16:49:09.0000000+00:00</time></trkpt><trkpt lat="30.6742639" lon="35.6125119"><ele>1279.0</ele><time>2015-11-22T16:49:10.0000000+00:00</time></trkpt><trkpt lat="30.6742041" lon="35.6124818"><ele>1278.6</ele><time>2015-11-22T16:49:11.0000000+00:00</time></trkpt><trkpt lat="30.674161" lon="35.6124464"><ele>1277.9</ele><time>2015-11-22T16:49:12.0000000+00:00</time></trkpt><trkpt lat="30.6740903" lon="35.6123752"><ele>1277.4</ele><time>2015-11-22T16:49:14.0000000+00:00</time></trkpt><trkpt lat="30.6740662" lon="35.6123201"><ele>1276.3</ele><time>2015-11-22T16:49:15.0000000+00:00</time></trkpt><trkpt lat="30.674054" lon="35.6122545"><ele>1275.7</ele><time>2015-11-22T16:49:16.0000000+00:00</time></trkpt><trkpt lat="30.6740439" lon="35.6121891"><ele>1275.5</ele><time>2015-11-22T16:49:17.0000000+00:00</time></trkpt><trkpt lat="30.6740337" lon="35.6121226"><ele>1274.8</ele><time>2015-11-22T16:49:18.0000000+00:00</time></trkpt><trkpt lat="30.6740174" lon="35.6120647"><ele>1274.0</ele><time>2015-11-22T16:49:19.0000000+00:00</time></trkpt><trkpt lat="30.6739961" lon="35.6120001"><ele>1273.6</ele><time>2015-11-22T16:49:20.0000000+00:00</time></trkpt><trkpt lat="30.6739756" lon="35.6119459"><ele>1272.9</ele><time>2015-11-22T16:49:21.0000000+00:00</time></trkpt><trkpt lat="30.6739472" lon="35.6118905"><ele>1273.1</ele><time>2015-11-22T16:49:22.0000000+00:00</time></trkpt><trkpt lat="30.6739106" lon="35.611841"><ele>1273.1</ele><time>2015-11-22T16:49:23.0000000+00:00</time></trkpt><trkpt lat="30.6738916" lon="35.6117898"><ele>1273.2</ele><time>2015-11-22T16:49:24.0000000+00:00</time></trkpt><trkpt lat="30.6738491" lon="35.6117168"><ele>1272.4</ele><time>2015-11-22T16:49:26.0000000+00:00</time></trkpt><trkpt lat="30.6738753" lon="35.6116251"><ele>1270.3</ele><time>2015-11-22T16:49:28.0000000+00:00</time></trkpt><trkpt lat="30.6739024" lon="35.6115754"><ele>1269.5</ele><time>2015-11-22T16:49:30.0000000+00:00</time></trkpt><trkpt lat="30.6739332" lon="35.6115279"><ele>1268.3</ele><time>2015-11-22T16:49:32.0000000+00:00</time></trkpt><trkpt lat="30.6739927" lon="35.6114613"><ele>1267.5</ele><time>2015-11-22T16:49:34.0000000+00:00</time></trkpt><trkpt lat="30.6740444" lon="35.6113946"><ele>1266.0</ele><time>2015-11-22T16:49:36.0000000+00:00</time></trkpt><trkpt lat="30.6740876" lon="35.6113197"><ele>1264.2</ele><time>2015-11-22T16:49:38.0000000+00:00</time></trkpt><trkpt lat="30.674136" lon="35.6112367"><ele>1262.2</ele><time>2015-11-22T16:49:40.0000000+00:00</time></trkpt><trkpt lat="30.6741973" lon="35.6111657"><ele>1260.2</ele><time>2015-11-22T16:49:41.0000000+00:00</time></trkpt><trkpt lat="30.6742421" lon="35.6111201"><ele>1258.2</ele><time>2015-11-22T16:49:42.0000000+00:00</time></trkpt><trkpt lat="30.6742784" lon="35.6110791"><ele>1256.7</ele><time>2015-11-22T16:49:43.0000000+00:00</time></trkpt><trkpt lat="30.6743269" lon="35.6110292"><ele>1255.5</ele><time>2015-11-22T16:49:44.0000000+00:00</time></trkpt><trkpt lat="30.67437" lon="35.6109886"><ele>1253.8</ele><time>2015-11-22T16:49:45.0000000+00:00</time></trkpt><trkpt lat="30.6744143" lon="35.6109415"><ele>1252.5</ele><time>2015-11-22T16:49:46.0000000+00:00</time></trkpt><trkpt lat="30.6744511" lon="35.6108985"><ele>1251.9</ele><time>2015-11-22T16:49:47.0000000+00:00</time></trkpt><trkpt lat="30.6744916" lon="35.6108631"><ele>1251.0</ele><time>2015-11-22T16:49:48.0000000+00:00</time></trkpt><trkpt lat="30.6745544" lon="35.6108077"><ele>1249.9</ele><time>2015-11-22T16:49:50.0000000+00:00</time></trkpt><trkpt lat="30.6746246" lon="35.6107563"><ele>1248.6</ele><time>2015-11-22T16:49:52.0000000+00:00</time></trkpt><trkpt lat="30.6746856" lon="35.6107059"><ele>1247.6</ele><time>2015-11-22T16:49:54.0000000+00:00</time></trkpt><trkpt lat="30.6747271" lon="35.610682"><ele>1244.2</ele><time>2015-11-22T16:50:11.0000000+00:00</time></trkpt><trkpt lat="30.6746794" lon="35.610665"><ele>1241.2</ele><time>2015-11-22T16:51:41.0000000+00:00</time></trkpt><trkpt lat="30.6746577" lon="35.6106172"><ele>1243.0</ele><time>2015-11-22T16:51:45.0000000+00:00</time></trkpt><trkpt lat="30.6746333" lon="35.6105705"><ele>1243.2</ele><time>2015-11-22T16:51:49.0000000+00:00</time></trkpt><trkpt lat="30.6746322" lon="35.610508"><ele>1244.1</ele><time>2015-11-22T16:51:54.0000000+00:00</time></trkpt><trkpt lat="30.6746308" lon="35.6104515"><ele>1245.1</ele><time>2015-11-22T16:52:00.0000000+00:00</time></trkpt></trkseg><trkseg><trkpt lat="30.67467663" lon="35.61055603"><ele>1195.1</ele><time>2015-11-23T06:35:41.0000000+00:00</time></trkpt><trkpt lat="30.67467805" lon="35.61056181"><ele>1195.1</ele><time>2015-11-23T06:35:42.0000000+00:00</time></trkpt><trkpt lat="30.674699" lon="35.61060355"><ele>1198.4</ele><time>2015-11-23T06:35:55.0000000+00:00</time></trkpt><trkpt lat="30.67469859" lon="35.61060196"><ele>1203.2</ele><time>2015-11-23T06:35:57.0000000+00:00</time></trkpt><trkpt lat="30.67470244" lon="35.61062635"><ele>1205.2</ele><time>2015-11-23T06:36:01.0000000+00:00</time></trkpt><trkpt lat="30.6747073" lon="35.61064605"><ele>1209.0</ele><time>2015-11-23T06:36:04.0000000+00:00</time></trkpt><trkpt lat="30.67471661" lon="35.61064839"><ele>1212.4</ele><time>2015-11-23T06:36:07.0000000+00:00</time></trkpt><trkpt lat="30.67472323" lon="35.61064831"><ele>1215.2</ele><time>2015-11-23T06:36:09.0000000+00:00</time></trkpt><trkpt lat="30.67472859" lon="35.61064747"><ele>1218.6</ele><time>2015-11-23T06:36:15.0000000+00:00</time></trkpt><trkpt lat="30.67473538" lon="35.61063825"><ele>1220.1</ele><time>2015-11-23T06:36:18.0000000+00:00</time></trkpt><trkpt lat="30.67474485" lon="35.61063314"><ele>1223.9</ele><time>2015-11-23T06:36:21.0000000+00:00</time></trkpt><trkpt lat="30.67475122" lon="35.61063255"><ele>1224.4</ele><time>2015-11-23T06:36:22.0000000+00:00</time></trkpt><trkpt lat="30.6747731" lon="35.61063062"><ele>1225.3</ele><time>2015-11-23T06:36:24.0000000+00:00</time></trkpt><trkpt lat="30.67481996" lon="35.61060632"><ele>1227.3</ele><time>2015-11-23T06:36:28.0000000+00:00</time></trkpt><trkpt lat="30.67489187" lon="35.61054278"><ele>1229.7</ele><time>2015-11-23T06:36:34.0000000+00:00</time></trkpt><trkpt lat="30.67496354" lon="35.61045611"><ele>1232.1</ele><time>2015-11-23T06:36:44.0000000+00:00</time></trkpt><trkpt lat="30.67498265" lon="35.61043315"><ele>1233.5</ele><time>2015-11-23T06:36:47.0000000+00:00</time></trkpt><trkpt lat="30.67503713" lon="35.61035134"><ele>1235.4</ele><time>2015-11-23T06:36:59.0000000+00:00</time></trkpt><trkpt lat="30.67507653" lon="35.61033147"><ele>1235.4</ele><time>2015-11-23T06:37:11.0000000+00:00</time></trkpt><trkpt lat="30.67508809" lon="35.61031706"><ele>1237.8</ele><time>2015-11-23T06:37:21.0000000+00:00</time></trkpt><trkpt lat="30.67512757" lon="35.6102417"><ele>1235.9</ele><time>2015-11-23T06:37:33.0000000+00:00</time></trkpt><trkpt lat="30.67513268" lon="35.61023491"><ele>1235.9</ele><time>2015-11-23T06:37:34.0000000+00:00</time></trkpt><trkpt lat="30.67518784" lon="35.61016853"><ele>1235.4</ele><time>2015-11-23T06:37:45.0000000+00:00</time></trkpt><trkpt lat="30.67526218" lon="35.61009988"><ele>1236.4</ele><time>2015-11-23T06:37:58.0000000+00:00</time></trkpt><trkpt lat="30.67533402" lon="35.61000383"><ele>1236.4</ele><time>2015-11-23T06:38:11.0000000+00:00</time></trkpt><trkpt lat="30.67533653" lon="35.60996845"><ele>1236.9</ele><time>2015-11-23T06:38:18.0000000+00:00</time></trkpt><trkpt lat="30.67527627" lon="35.61002805"><ele>1235.9</ele><time>2015-11-23T06:38:32.0000000+00:00</time></trkpt><trkpt lat="30.67529177" lon="35.61000056"><ele>1237.4</ele><time>2015-11-23T06:38:43.0000000+00:00</time></trkpt><trkpt lat="30.67539311" lon="35.60997575"><ele>1236.4</ele><time>2015-11-23T06:39:01.0000000+00:00</time></trkpt><trkpt lat="30.67539328" lon="35.61001103"><ele>1235.4</ele><time>2015-11-23T06:39:06.0000000+00:00</time></trkpt><trkpt lat="30.67539604" lon="35.61004515"><ele>1235.4</ele><time>2015-11-23T06:39:28.0000000+00:00</time></trkpt><trkpt lat="30.67539403" lon="35.61014062"><ele>1234.0</ele><time>2015-11-23T06:39:42.0000000+00:00</time></trkpt><trkpt lat="30.67539931" lon="35.61012997"><ele>1235.0</ele><time>2015-11-23T06:39:45.0000000+00:00</time></trkpt><trkpt lat="30.67541096" lon="35.61010047"><ele>1234.0</ele><time>2015-11-23T06:39:50.0000000+00:00</time></trkpt><trkpt lat="30.67541532" lon="35.61007222"><ele>1233.0</ele><time>2015-11-23T06:39:55.0000000+00:00</time></trkpt><trkpt lat="30.67541013" lon="35.6100837"><ele>1234.5</ele><time>2015-11-23T06:40:00.0000000+00:00</time></trkpt><trkpt lat="30.67540761" lon="35.61010608"><ele>1235.0</ele><time>2015-11-23T06:40:04.0000000+00:00</time></trkpt><trkpt lat="30.67540208" lon="35.6101397"><ele>1235.4</ele><time>2015-11-23T06:40:07.0000000+00:00</time></trkpt><trkpt lat="30.67540417" lon="35.61016141"><ele>1235.0</ele><time>2015-11-23T06:40:09.0000000+00:00</time></trkpt><trkpt lat="30.67539982" lon="35.61023223"><ele>1234.0</ele><time>2015-11-23T06:40:25.0000000+00:00</time></trkpt><trkpt lat="30.67541197" lon="35.61037355"><ele>1232.1</ele><time>2015-11-23T06:40:38.0000000+00:00</time></trkpt><trkpt lat="30.67546595" lon="35.61052736"><ele>1231.1</ele><time>2015-11-23T06:40:52.0000000+00:00</time></trkpt><trkpt lat="30.6755056" lon="35.61061176"><ele>1230.6</ele><time>2015-11-23T06:41:07.0000000+00:00</time></trkpt><trkpt lat="30.67551146" lon="35.61061529"><ele>1230.6</ele><time>2015-11-23T06:41:27.0000000+00:00</time></trkpt><trkpt lat="30.67550375" lon="35.61061579"><ele>1230.1</ele><time>2015-11-23T06:41:46.0000000+00:00</time></trkpt><trkpt lat="30.67549411" lon="35.61061436"><ele>1230.6</ele><time>2015-11-23T06:41:51.0000000+00:00</time></trkpt><trkpt lat="30.67549076" lon="35.610623"><ele>1230.6</ele><time>2015-11-23T06:42:01.0000000+00:00</time></trkpt><trkpt lat="30.67549109" lon="35.61060263"><ele>1229.7</ele><time>2015-11-23T06:42:14.0000000+00:00</time></trkpt><trkpt lat="30.67548598" lon="35.61060917"><ele>1230.1</ele><time>2015-11-23T06:42:17.0000000+00:00</time></trkpt><trkpt lat="30.67550099" lon="35.6106318"><ele>1230.1</ele><time>2015-11-23T06:42:20.0000000+00:00</time></trkpt><trkpt lat="30.67552957" lon="35.61065686"><ele>1230.1</ele><time>2015-11-23T06:42:23.0000000+00:00</time></trkpt><trkpt lat="30.6756796" lon="35.61080472"><ele>1228.7</ele><time>2015-11-23T06:42:42.0000000+00:00</time></trkpt><trkpt lat="30.67578387" lon="35.61089004"><ele>1225.8</ele><time>2015-11-23T06:42:55.0000000+00:00</time></trkpt><trkpt lat="30.67589083" lon="35.61090262"><ele>1222.5</ele><time>2015-11-23T06:43:10.0000000+00:00</time></trkpt><trkpt lat="30.67594707" lon="35.61090119"><ele>1221.0</ele><time>2015-11-23T06:43:26.0000000+00:00</time></trkpt><trkpt lat="30.67595495" lon="35.61090069"><ele>1221.5</ele><time>2015-11-23T06:43:43.0000000+00:00</time></trkpt><trkpt lat="30.67597565" lon="35.61090672"><ele>1221.0</ele><time>2015-11-23T06:43:45.0000000+00:00</time></trkpt><trkpt lat="30.67610909" lon="35.61091871"><ele>1218.6</ele><time>2015-11-23T06:43:59.0000000+00:00</time></trkpt><trkpt lat="30.67614824" lon="35.61095358"><ele>1218.1</ele><time>2015-11-23T06:44:14.0000000+00:00</time></trkpt><trkpt lat="30.67623784" lon="35.61100907"><ele>1217.2</ele><time>2015-11-23T06:44:25.0000000+00:00</time></trkpt><trkpt lat="30.67633792" lon="35.61107285"><ele>1215.7</ele><time>2015-11-23T06:44:40.0000000+00:00</time></trkpt><trkpt lat="30.67642668" lon="35.61111418"><ele>1214.8</ele><time>2015-11-23T06:44:55.0000000+00:00</time></trkpt><trkpt lat="30.67648209" lon="35.61114754"><ele>1213.8</ele><time>2015-11-23T06:45:01.0000000+00:00</time></trkpt><trkpt lat="30.67656641" lon="35.61117008"><ele>1213.8</ele><time>2015-11-23T06:45:10.0000000+00:00</time></trkpt><trkpt lat="30.67658099" lon="35.61118601"><ele>1213.3</ele><time>2015-11-23T06:45:12.0000000+00:00</time></trkpt><trkpt lat="30.67664369" lon="35.61129497"><ele>1212.4</ele><time>2015-11-23T06:45:25.0000000+00:00</time></trkpt><trkpt lat="30.67668325" lon="35.6113425"><ele>1211.9</ele><time>2015-11-23T06:45:31.0000000+00:00</time></trkpt><trkpt lat="30.67670136" lon="35.61135155"><ele>1210.9</ele><time>2015-11-23T06:45:33.0000000+00:00</time></trkpt><trkpt lat="30.67678576" lon="35.61140159"><ele>1211.4</ele><time>2015-11-23T06:45:44.0000000+00:00</time></trkpt><trkpt lat="30.67680236" lon="35.61140738"><ele>1211.4</ele><time>2015-11-23T06:45:46.0000000+00:00</time></trkpt><trkpt lat="30.67694686" lon="35.61145104"><ele>1210.9</ele><time>2015-11-23T06:46:03.0000000+00:00</time></trkpt><trkpt lat="30.67707972" lon="35.61148013"><ele>1211.4</ele><time>2015-11-23T06:46:18.0000000+00:00</time></trkpt><trkpt lat="30.67722816" lon="35.61157987"><ele>1212.8</ele><time>2015-11-23T06:46:36.0000000+00:00</time></trkpt><trkpt lat="30.67726328" lon="35.61159915"><ele>1212.8</ele><time>2015-11-23T06:46:45.0000000+00:00</time></trkpt><trkpt lat="30.67730594" lon="35.61162648"><ele>1214.3</ele><time>2015-11-23T06:46:50.0000000+00:00</time></trkpt><trkpt lat="30.6773243" lon="35.61163159"><ele>1213.8</ele><time>2015-11-23T06:46:52.0000000+00:00</time></trkpt><trkpt lat="30.6774212" lon="35.61170644"><ele>1213.8</ele><time>2015-11-23T06:47:04.0000000+00:00</time></trkpt><trkpt lat="30.677517" lon="35.61183393"><ele>1213.8</ele><time>2015-11-23T06:47:20.0000000+00:00</time></trkpt><trkpt lat="30.67752404" lon="35.61184022"><ele>1213.8</ele><time>2015-11-23T06:47:21.0000000+00:00</time></trkpt><trkpt lat="30.67759856" lon="35.61193518"><ele>1213.8</ele><time>2015-11-23T06:47:33.0000000+00:00</time></trkpt><trkpt lat="30.67761892" lon="35.61195404"><ele>1212.8</ele><time>2015-11-23T06:47:39.0000000+00:00</time></trkpt><trkpt lat="30.67767642" lon="35.61198606"><ele>1212.8</ele><time>2015-11-23T06:47:46.0000000+00:00</time></trkpt><trkpt lat="30.67770258" lon="35.61198682"><ele>1213.8</ele><time>2015-11-23T06:47:48.0000000+00:00</time></trkpt><trkpt lat="30.67780919" lon="35.61204214"><ele>1212.8</ele><time>2015-11-23T06:48:02.0000000+00:00</time></trkpt><trkpt lat="30.67793626" lon="35.61203174"><ele>1213.8</ele><time>2015-11-23T06:48:15.0000000+00:00</time></trkpt><trkpt lat="30.67801078" lon="35.61202688"><ele>1213.8</ele><time>2015-11-23T06:48:28.0000000+00:00</time></trkpt><trkpt lat="30.6780723" lon="35.61207902"><ele>1214.3</ele><time>2015-11-23T06:48:41.0000000+00:00</time></trkpt><trkpt lat="30.67814145" lon="35.61220491"><ele>1216.2</ele><time>2015-11-23T06:48:55.0000000+00:00</time></trkpt><trkpt lat="30.67822075" lon="35.61227239"><ele>1215.7</ele><time>2015-11-23T06:49:05.0000000+00:00</time></trkpt><trkpt lat="30.67824765" lon="35.6122941"><ele>1215.7</ele><time>2015-11-23T06:49:08.0000000+00:00</time></trkpt><trkpt lat="30.67833315" lon="35.61231421"><ele>1215.2</ele><time>2015-11-23T06:49:25.0000000+00:00</time></trkpt><trkpt lat="30.67835201" lon="35.61230524"><ele>1215.7</ele><time>2015-11-23T06:49:45.0000000+00:00</time></trkpt><trkpt lat="30.67836198" lon="35.61234137"><ele>1215.7</ele><time>2015-11-23T06:50:05.0000000+00:00</time></trkpt><trkpt lat="30.67836952" lon="35.61239661"><ele>1218.1</ele><time>2015-11-23T06:50:17.0000000+00:00</time></trkpt><trkpt lat="30.6783997" lon="35.61238923"><ele>1218.6</ele><time>2015-11-23T06:50:22.0000000+00:00</time></trkpt><trkpt lat="30.67845653" lon="35.61239242"><ele>1218.6</ele><time>2015-11-23T06:50:37.0000000+00:00</time></trkpt><trkpt lat="30.67847086" lon="35.61240206"><ele>1217.2</ele><time>2015-11-23T06:50:43.0000000+00:00</time></trkpt><trkpt lat="30.6784784" lon="35.61240088"><ele>1219.1</ele><time>2015-11-23T06:51:01.0000000+00:00</time></trkpt><trkpt lat="30.67852861" lon="35.61238479"><ele>1216.2</ele><time>2015-11-23T06:51:18.0000000+00:00</time></trkpt><trkpt lat="30.67858636" lon="35.61240021"><ele>1216.2</ele><time>2015-11-23T06:51:31.0000000+00:00</time></trkpt><trkpt lat="30.67860296" lon="35.61241077"><ele>1216.2</ele><time>2015-11-23T06:51:33.0000000+00:00</time></trkpt><trkpt lat="30.67863548" lon="35.61243919"><ele>1216.2</ele><time>2015-11-23T06:51:40.0000000+00:00</time></trkpt><trkpt lat="30.67869759" lon="35.61248831"><ele>1216.2</ele><time>2015-11-23T06:51:53.0000000+00:00</time></trkpt><trkpt lat="30.67870321" lon="35.61250473"><ele>1216.2</ele><time>2015-11-23T06:51:55.0000000+00:00</time></trkpt><trkpt lat="30.67872835" lon="35.61252728"><ele>1216.2</ele><time>2015-11-23T06:51:58.0000000+00:00</time></trkpt><trkpt lat="30.67875526" lon="35.61258277"><ele>1216.7</ele><time>2015-11-23T06:52:04.0000000+00:00</time></trkpt><trkpt lat="30.67877077" lon="35.61259937"><ele>1216.2</ele><time>2015-11-23T06:52:06.0000000+00:00</time></trkpt><trkpt lat="30.67887755" lon="35.6127183"><ele>1217.2</ele><time>2015-11-23T06:52:20.0000000+00:00</time></trkpt><trkpt lat="30.67897839" lon="35.61278779"><ele>1218.6</ele><time>2015-11-23T06:52:35.0000000+00:00</time></trkpt><trkpt lat="30.67899356" lon="35.61280657"><ele>1219.1</ele><time>2015-11-23T06:52:45.0000000+00:00</time></trkpt><trkpt lat="30.67902549" lon="35.61280103"><ele>1219.6</ele><time>2015-11-23T06:53:02.0000000+00:00</time></trkpt><trkpt lat="30.67908601" lon="35.61279374"><ele>1219.6</ele><time>2015-11-23T06:53:17.0000000+00:00</time></trkpt><trkpt lat="30.67909297" lon="35.61279173"><ele>1220.1</ele><time>2015-11-23T06:53:34.0000000+00:00</time></trkpt><trkpt lat="30.67914611" lon="35.61277798"><ele>1220.5</ele><time>2015-11-23T06:53:49.0000000+00:00</time></trkpt><trkpt lat="30.67916513" lon="35.61278159"><ele>1220.1</ele><time>2015-11-23T06:54:07.0000000+00:00</time></trkpt><trkpt lat="30.67920855" lon="35.61276566"><ele>1220.5</ele><time>2015-11-23T06:54:20.0000000+00:00</time></trkpt><trkpt lat="30.67927879" lon="35.61280523"><ele>1222.0</ele><time>2015-11-23T06:54:33.0000000+00:00</time></trkpt><trkpt lat="30.67932364" lon="35.6128152"><ele>1222.5</ele><time>2015-11-23T06:54:46.0000000+00:00</time></trkpt><trkpt lat="30.67935691" lon="35.6128701"><ele>1222.9</ele><time>2015-11-23T06:54:59.0000000+00:00</time></trkpt><trkpt lat="30.67933286" lon="35.61287915"><ele>1222.9</ele><time>2015-11-23T06:55:11.0000000+00:00</time></trkpt><trkpt lat="30.67931844" lon="35.61291528"><ele>1223.4</ele><time>2015-11-23T06:55:23.0000000+00:00</time></trkpt><trkpt lat="30.67929514" lon="35.61292081"><ele>1222.5</ele><time>2015-11-23T06:55:38.0000000+00:00</time></trkpt><trkpt lat="30.67929832" lon="35.61293414"><ele>1223.9</ele><time>2015-11-23T06:56:07.0000000+00:00</time></trkpt><trkpt lat="30.67929723" lon="35.61292165"><ele>1223.4</ele><time>2015-11-23T06:56:24.0000000+00:00</time></trkpt><trkpt lat="30.67931911" lon="35.61287899"><ele>1222.9</ele><time>2015-11-23T06:56:39.0000000+00:00</time></trkpt><trkpt lat="30.67936278" lon="35.6128551"><ele>1222.9</ele><time>2015-11-23T06:56:52.0000000+00:00</time></trkpt><trkpt lat="30.67943067" lon="35.61290815"><ele>1225.3</ele><time>2015-11-23T06:57:04.0000000+00:00</time></trkpt><trkpt lat="30.6795067" lon="35.6128965"><ele>1226.3</ele><time>2015-11-23T06:57:18.0000000+00:00</time></trkpt><trkpt lat="30.67955313" lon="35.61287815"><ele>1226.8</ele><time>2015-11-23T06:57:33.0000000+00:00</time></trkpt><trkpt lat="30.67961725" lon="35.61288636"><ele>1228.2</ele><time>2015-11-23T06:57:44.0000000+00:00</time></trkpt><trkpt lat="30.67965003" lon="35.61289801"><ele>1229.7</ele><time>2015-11-23T06:57:50.0000000+00:00</time></trkpt><trkpt lat="30.67966604" lon="35.61294713"><ele>1231.1</ele><time>2015-11-23T06:58:01.0000000+00:00</time></trkpt><trkpt lat="30.67965221" lon="35.61293925"><ele>1231.1</ele><time>2015-11-23T06:58:17.0000000+00:00</time></trkpt><trkpt lat="30.67965237" lon="35.61295493"><ele>1231.1</ele><time>2015-11-23T06:58:35.0000000+00:00</time></trkpt><trkpt lat="30.67965556" lon="35.61296876"><ele>1231.6</ele><time>2015-11-23T06:59:06.0000000+00:00</time></trkpt><trkpt lat="30.67964567" lon="35.61297404"><ele>1231.6</ele><time>2015-11-23T06:59:28.0000000+00:00</time></trkpt><trkpt lat="30.6796222" lon="35.61298627"><ele>1231.6</ele><time>2015-11-23T06:59:35.0000000+00:00</time></trkpt><trkpt lat="30.67965103" lon="35.61296255"><ele>1231.6</ele><time>2015-11-23T06:59:39.0000000+00:00</time></trkpt><trkpt lat="30.67967811" lon="35.61295711"><ele>1231.1</ele><time>2015-11-23T06:59:42.0000000+00:00</time></trkpt><trkpt lat="30.67970929" lon="35.61293833"><ele>1232.6</ele><time>2015-11-23T06:59:54.0000000+00:00</time></trkpt><trkpt lat="30.67974768" lon="35.6130167"><ele>1235.9</ele><time>2015-11-23T07:00:06.0000000+00:00</time></trkpt><trkpt lat="30.6797895" lon="35.61306615"><ele>1238.8</ele><time>2015-11-23T07:00:20.0000000+00:00</time></trkpt><trkpt lat="30.67983015" lon="35.6130778"><ele>1240.7</ele><time>2015-11-23T07:00:32.0000000+00:00</time></trkpt><trkpt lat="30.67984088" lon="35.61309549"><ele>1241.7</ele><time>2015-11-23T07:00:51.0000000+00:00</time></trkpt><trkpt lat="30.67984482" lon="35.61310396"><ele>1239.8</ele><time>2015-11-23T07:00:55.0000000+00:00</time></trkpt><trkpt lat="30.67982563" lon="35.61311636"><ele>1240.7</ele><time>2015-11-23T07:01:14.0000000+00:00</time></trkpt><trkpt lat="30.67983636" lon="35.61309901"><ele>1241.7</ele><time>2015-11-23T07:01:41.0000000+00:00</time></trkpt><trkpt lat="30.67982722" lon="35.61311427"><ele>1241.7</ele><time>2015-11-23T07:02:09.0000000+00:00</time></trkpt><trkpt lat="30.67980618" lon="35.6130996"><ele>1242.2</ele><time>2015-11-23T07:02:26.0000000+00:00</time></trkpt><trkpt lat="30.67980526" lon="35.61310052"><ele>1240.7</ele><time>2015-11-23T07:02:28.0000000+00:00</time></trkpt><trkpt lat="30.67981163" lon="35.61311016"><ele>1241.2</ele><time>2015-11-23T07:02:57.0000000+00:00</time></trkpt><trkpt lat="30.6798434" lon="35.61315576"><ele>1244.1</ele><time>2015-11-23T07:03:09.0000000+00:00</time></trkpt><trkpt lat="30.6798693" lon="35.61319264"><ele>1246.0</ele><time>2015-11-23T07:03:23.0000000+00:00</time></trkpt><trkpt lat="30.67987927" lon="35.61325667"><ele>1249.4</ele><time>2015-11-23T07:03:38.0000000+00:00</time></trkpt><trkpt lat="30.67986226" lon="35.61329808"><ele>1251.3</ele><time>2015-11-23T07:03:51.0000000+00:00</time></trkpt><trkpt lat="30.67984491" lon="35.61333748"><ele>1253.2</ele><time>2015-11-23T07:04:02.0000000+00:00</time></trkpt><trkpt lat="30.67982831" lon="35.61336455"><ele>1253.7</ele><time>2015-11-23T07:04:12.0000000+00:00</time></trkpt><trkpt lat="30.67983845" lon="35.61339347"><ele>1256.1</ele><time>2015-11-23T07:04:21.0000000+00:00</time></trkpt><trkpt lat="30.67990023" lon="35.61340118"><ele>1258.0</ele><time>2015-11-23T07:04:36.0000000+00:00</time></trkpt><trkpt lat="30.67991875" lon="35.61348022"><ele>1260.4</ele><time>2015-11-23T07:04:49.0000000+00:00</time></trkpt><trkpt lat="30.67992462" lon="35.61354074"><ele>1262.8</ele><time>2015-11-23T07:05:00.0000000+00:00</time></trkpt><trkpt lat="30.67994163" lon="35.61359287"><ele>1265.7</ele><time>2015-11-23T07:05:11.0000000+00:00</time></trkpt><trkpt lat="30.67999025" lon="35.61362003"><ele>1267.6</ele><time>2015-11-23T07:05:22.0000000+00:00</time></trkpt><trkpt lat="30.6799677" lon="35.61365364"><ele>1270.0</ele><time>2015-11-23T07:05:30.0000000+00:00</time></trkpt><trkpt lat="30.67995228" lon="35.61367267"><ele>1269.1</ele><time>2015-11-23T07:05:45.0000000+00:00</time></trkpt><trkpt lat="30.67994767" lon="35.61370645"><ele>1269.1</ele><time>2015-11-23T07:06:21.0000000+00:00</time></trkpt><trkpt lat="30.67996351" lon="35.61369387"><ele>1268.1</ele><time>2015-11-23T07:06:45.0000000+00:00</time></trkpt><trkpt lat="30.67994373" lon="35.6137098"><ele>1269.1</ele><time>2015-11-23T07:06:57.0000000+00:00</time></trkpt><trkpt lat="30.67992378" lon="35.61368767"><ele>1268.6</ele><time>2015-11-23T07:07:31.0000000+00:00</time></trkpt><trkpt lat="30.67992982" lon="35.61368625"><ele>1269.1</ele><time>2015-11-23T07:08:04.0000000+00:00</time></trkpt><trkpt lat="30.67990341" lon="35.61370544"><ele>1269.1</ele><time>2015-11-23T07:08:31.0000000+00:00</time></trkpt><trkpt lat="30.67990794" lon="35.61369387"><ele>1268.6</ele><time>2015-11-23T07:09:03.0000000+00:00</time></trkpt><trkpt lat="30.67992361" lon="35.61370653"><ele>1268.6</ele><time>2015-11-23T07:09:26.0000000+00:00</time></trkpt><trkpt lat="30.67992956" lon="35.61369522"><ele>1268.6</ele><time>2015-11-23T07:09:54.0000000+00:00</time></trkpt><trkpt lat="30.6799242" lon="35.61367275"><ele>1269.1</ele><time>2015-11-23T07:10:33.0000000+00:00</time></trkpt><trkpt lat="30.67992638" lon="35.61368767"><ele>1269.1</ele><time>2015-11-23T07:11:00.0000000+00:00</time></trkpt><trkpt lat="30.67990744" lon="35.61367535"><ele>1269.1</ele><time>2015-11-23T07:11:29.0000000+00:00</time></trkpt><trkpt lat="30.67987273" lon="35.61367996"><ele>1268.6</ele><time>2015-11-23T07:11:40.0000000+00:00</time></trkpt><trkpt lat="30.67978933" lon="35.61368742"><ele>1269.1</ele><time>2015-11-23T07:11:52.0000000+00:00</time></trkpt><trkpt lat="30.679717" lon="35.61366596"><ele>1272.0</ele><time>2015-11-23T07:12:05.0000000+00:00</time></trkpt><trkpt lat="30.67968355" lon="35.6136891"><ele>1273.9</ele><time>2015-11-23T07:12:19.0000000+00:00</time></trkpt><trkpt lat="30.6796849" lon="35.61370645"><ele>1274.9</ele><time>2015-11-23T07:12:32.0000000+00:00</time></trkpt><trkpt lat="30.67968423" lon="35.61373394"><ele>1276.3</ele><time>2015-11-23T07:12:43.0000000+00:00</time></trkpt><trkpt lat="30.67964617" lon="35.61376328"><ele>1277.7</ele><time>2015-11-23T07:12:55.0000000+00:00</time></trkpt><trkpt lat="30.67964232" lon="35.61378239"><ele>1278.7</ele><time>2015-11-23T07:13:08.0000000+00:00</time></trkpt><trkpt lat="30.67964039" lon="35.61381055"><ele>1279.2</ele><time>2015-11-23T07:13:20.0000000+00:00</time></trkpt><trkpt lat="30.6796595" lon="35.61383813"><ele>1280.1</ele><time>2015-11-23T07:13:34.0000000+00:00</time></trkpt><trkpt lat="30.67971759" lon="35.61385565"><ele>1282.1</ele><time>2015-11-23T07:13:48.0000000+00:00</time></trkpt><trkpt lat="30.67976201" lon="35.61390518"><ele>1284.0</ele><time>2015-11-23T07:14:01.0000000+00:00</time></trkpt><trkpt lat="30.6798004" lon="35.61393511"><ele>1287.3</ele><time>2015-11-23T07:14:14.0000000+00:00</time></trkpt><trkpt lat="30.67984348" lon="35.61395438"><ele>1287.8</ele><time>2015-11-23T07:14:30.0000000+00:00</time></trkpt><trkpt lat="30.67984122" lon="35.61398087"><ele>1287.8</ele><time>2015-11-23T07:14:44.0000000+00:00</time></trkpt><trkpt lat="30.67986662" lon="35.61401222"><ele>1288.3</ele><time>2015-11-23T07:14:54.0000000+00:00</time></trkpt><trkpt lat="30.67981398" lon="35.61402504"><ele>1289.3</ele><time>2015-11-23T07:15:07.0000000+00:00</time></trkpt><trkpt lat="30.67974323" lon="35.61405597"><ele>1290.2</ele><time>2015-11-23T07:15:18.0000000+00:00</time></trkpt><trkpt lat="30.67970811" lon="35.61407986"><ele>1291.2</ele><time>2015-11-23T07:15:32.0000000+00:00</time></trkpt><trkpt lat="30.67969554" lon="35.61407123"><ele>1291.2</ele><time>2015-11-23T07:15:45.0000000+00:00</time></trkpt><trkpt lat="30.67965975" lon="35.61404516"><ele>1289.8</ele><time>2015-11-23T07:16:02.0000000+00:00</time></trkpt><trkpt lat="30.67958339" lon="35.61400023"><ele>1288.8</ele><time>2015-11-23T07:16:18.0000000+00:00</time></trkpt><trkpt lat="30.67955062" lon="35.61403225"><ele>1288.8</ele><time>2015-11-23T07:16:25.0000000+00:00</time></trkpt><trkpt lat="30.67946982" lon="35.61403778"><ele>1288.8</ele><time>2015-11-23T07:16:37.0000000+00:00</time></trkpt><trkpt lat="30.67940938" lon="35.61405413"><ele>1289.3</ele><time>2015-11-23T07:16:53.0000000+00:00</time></trkpt><trkpt lat="30.67939404" lon="35.61406058"><ele>1288.8</ele><time>2015-11-23T07:17:11.0000000+00:00</time></trkpt><trkpt lat="30.67934752" lon="35.61407986"><ele>1289.8</ele><time>2015-11-23T07:17:26.0000000+00:00</time></trkpt><trkpt lat="30.67931425" lon="35.61409621"><ele>1293.1</ele><time>2015-11-23T07:17:37.0000000+00:00</time></trkpt><trkpt lat="30.67929958" lon="35.61408347"><ele>1293.1</ele><time>2015-11-23T07:17:48.0000000+00:00</time></trkpt><trkpt lat="30.67929388" lon="35.61409604"><ele>1293.6</ele><time>2015-11-23T07:17:58.0000000+00:00</time></trkpt><trkpt lat="30.67927586" lon="35.61410861"><ele>1294.1</ele><time>2015-11-23T07:18:18.0000000+00:00</time></trkpt><trkpt lat="30.67927971" lon="35.61411247"><ele>1293.6</ele><time>2015-11-23T07:18:26.0000000+00:00</time></trkpt><trkpt lat="30.67922808" lon="35.61410224"><ele>1294.1</ele><time>2015-11-23T07:18:41.0000000+00:00</time></trkpt><trkpt lat="30.67922263" lon="35.61410442"><ele>1294.1</ele><time>2015-11-23T07:18:42.0000000+00:00</time></trkpt><trkpt lat="30.67920788" lon="35.61409"><ele>1294.1</ele><time>2015-11-23T07:18:57.0000000+00:00</time></trkpt><trkpt lat="30.6791767" lon="35.6140895"><ele>1294.1</ele><time>2015-11-23T07:19:08.0000000+00:00</time></trkpt><trkpt lat="30.67913546" lon="35.61408539"><ele>1294.1</ele><time>2015-11-23T07:19:19.0000000+00:00</time></trkpt><trkpt lat="30.67910604" lon="35.61408757"><ele>1294.1</ele><time>2015-11-23T07:19:34.0000000+00:00</time></trkpt><trkpt lat="30.67910336" lon="35.61409025"><ele>1294.1</ele><time>2015-11-23T07:19:39.0000000+00:00</time></trkpt><trkpt lat="30.67908358" lon="35.61407148"><ele>1294.1</ele><time>2015-11-23T07:19:51.0000000+00:00</time></trkpt><trkpt lat="30.67906145" lon="35.61407944"><ele>1295.0</ele><time>2015-11-23T07:20:07.0000000+00:00</time></trkpt><trkpt lat="30.67907226" lon="35.61407165"><ele>1294.1</ele><time>2015-11-23T07:20:23.0000000+00:00</time></trkpt><trkpt lat="30.67906539" lon="35.61409352"><ele>1294.6</ele><time>2015-11-23T07:20:52.0000000+00:00</time></trkpt><trkpt lat="30.6790731" lon="35.61408347"><ele>1294.6</ele><time>2015-11-23T07:21:22.0000000+00:00</time></trkpt><trkpt lat="30.67905173" lon="35.61409545"><ele>1294.6</ele><time>2015-11-23T07:21:51.0000000+00:00</time></trkpt><trkpt lat="30.67903111" lon="35.61411322"><ele>1294.6</ele><time>2015-11-23T07:22:29.0000000+00:00</time></trkpt><trkpt lat="30.67903278" lon="35.61412345"><ele>1295.0</ele><time>2015-11-23T07:23:08.0000000+00:00</time></trkpt><trkpt lat="30.67904469" lon="35.61412546"><ele>1294.6</ele><time>2015-11-23T07:23:53.0000000+00:00</time></trkpt><trkpt lat="30.67906899" lon="35.61408363"><ele>1294.1</ele><time>2015-11-23T07:24:29.0000000+00:00</time></trkpt><trkpt lat="30.67905257" lon="35.61410911"><ele>1295.0</ele><time>2015-11-23T07:24:55.0000000+00:00</time></trkpt><trkpt lat="30.67905156" lon="35.61409034"><ele>1295.0</ele><time>2015-11-23T07:25:32.0000000+00:00</time></trkpt><trkpt lat="30.67906841" lon="35.61410568"><ele>1295.5</ele><time>2015-11-23T07:25:52.0000000+00:00</time></trkpt><trkpt lat="30.67907075" lon="35.61411356"><ele>1295.5</ele><time>2015-11-23T07:26:19.0000000+00:00</time></trkpt><trkpt lat="30.67906011" lon="35.61410333"><ele>1295.0</ele><time>2015-11-23T07:26:51.0000000+00:00</time></trkpt><trkpt lat="30.67905642" lon="35.61409084"><ele>1295.5</ele><time>2015-11-23T07:27:32.0000000+00:00</time></trkpt><trkpt lat="30.67906698" lon="35.61408221"><ele>1294.6</ele><time>2015-11-23T07:28:22.0000000+00:00</time></trkpt><trkpt lat="30.67904997" lon="35.61410191"><ele>1295.0</ele><time>2015-11-23T07:29:03.0000000+00:00</time></trkpt><trkpt lat="30.67905927" lon="35.61410065"><ele>1295.0</ele><time>2015-11-23T07:29:47.0000000+00:00</time></trkpt><trkpt lat="30.67907335" lon="35.61410459"><ele>1296.0</ele><time>2015-11-23T07:30:22.0000000+00:00</time></trkpt><trkpt lat="30.67907679" lon="35.61409059"><ele>1295.5</ele><time>2015-11-23T07:31:02.0000000+00:00</time></trkpt><trkpt lat="30.67906925" lon="35.61410258"><ele>1296.0</ele><time>2015-11-23T07:31:42.0000000+00:00</time></trkpt><trkpt lat="30.67907905" lon="35.61409503"><ele>1296.0</ele><time>2015-11-23T07:32:21.0000000+00:00</time></trkpt><trkpt lat="30.67907712" lon="35.61411448"><ele>1295.5</ele><time>2015-11-23T07:32:48.0000000+00:00</time></trkpt><trkpt lat="30.67907687" lon="35.61411071"><ele>1296.5</ele><time>2015-11-23T07:33:18.0000000+00:00</time></trkpt><trkpt lat="30.67905927" lon="35.61411154"><ele>1297.0</ele><time>2015-11-23T07:33:44.0000000+00:00</time></trkpt><trkpt lat="30.67899917" lon="35.61400912"><ele>1293.6</ele><time>2015-11-23T07:33:59.0000000+00:00</time></trkpt><trkpt lat="30.67893773" lon="35.61395497"><ele>1292.2</ele><time>2015-11-23T07:34:11.0000000+00:00</time></trkpt><trkpt lat="30.6788892" lon="35.61391683"><ele>1290.7</ele><time>2015-11-23T07:34:22.0000000+00:00</time></trkpt><trkpt lat="30.67879784" lon="35.61387182"><ele>1288.3</ele><time>2015-11-23T07:34:36.0000000+00:00</time></trkpt><trkpt lat="30.67873959" lon="35.61386403"><ele>1287.8</ele><time>2015-11-23T07:34:47.0000000+00:00</time></trkpt><trkpt lat="30.67872249" lon="35.61386352"><ele>1288.3</ele><time>2015-11-23T07:34:49.0000000+00:00</time></trkpt><trkpt lat="30.67870237" lon="35.61385833"><ele>1287.8</ele><time>2015-11-23T07:34:51.0000000+00:00</time></trkpt><trkpt lat="30.67854169" lon="35.61384047"><ele>1289.3</ele><time>2015-11-23T07:35:08.0000000+00:00</time></trkpt><trkpt lat="30.67844999" lon="35.61382916"><ele>1288.8</ele><time>2015-11-23T07:35:18.0000000+00:00</time></trkpt><trkpt lat="30.67838042" lon="35.61382329"><ele>1289.3</ele><time>2015-11-23T07:35:25.0000000+00:00</time></trkpt><trkpt lat="30.67833357" lon="35.61382882"><ele>1289.3</ele><time>2015-11-23T07:35:29.0000000+00:00</time></trkpt><trkpt lat="30.67821538" lon="35.61380896"><ele>1290.2</ele><time>2015-11-23T07:35:43.0000000+00:00</time></trkpt><trkpt lat="30.67812645" lon="35.61379655"><ele>1290.7</ele><time>2015-11-23T07:35:53.0000000+00:00</time></trkpt><trkpt lat="30.67793258" lon="35.61376914"><ele>1290.2</ele><time>2015-11-23T07:36:11.0000000+00:00</time></trkpt><trkpt lat="30.67776452" lon="35.61374903"><ele>1291.2</ele><time>2015-11-23T07:36:26.0000000+00:00</time></trkpt><trkpt lat="30.67760224" lon="35.61372003"><ele>1291.7</ele><time>2015-11-23T07:36:41.0000000+00:00</time></trkpt><trkpt lat="30.67740602" lon="35.61367393"><ele>1292.2</ele><time>2015-11-23T07:36:58.0000000+00:00</time></trkpt><trkpt lat="30.67717812" lon="35.6136269"><ele>1293.6</ele><time>2015-11-23T07:37:17.0000000+00:00</time></trkpt><trkpt lat="30.67698793" lon="35.61356882"><ele>1293.6</ele><time>2015-11-23T07:37:34.0000000+00:00</time></trkpt><trkpt lat="30.67683036" lon="35.61350226"><ele>1293.1</ele><time>2015-11-23T07:37:48.0000000+00:00</time></trkpt><trkpt lat="30.67679004" lon="35.61349338"><ele>1293.1</ele><time>2015-11-23T07:37:52.0000000+00:00</time></trkpt><trkpt lat="30.67677076" lon="35.61348265"><ele>1293.6</ele><time>2015-11-23T07:37:54.0000000+00:00</time></trkpt><trkpt lat="30.67667118" lon="35.61345692"><ele>1293.6</ele><time>2015-11-23T07:38:04.0000000+00:00</time></trkpt><trkpt lat="30.67653422" lon="35.6133902"><ele>1293.1</ele><time>2015-11-23T07:38:18.0000000+00:00</time></trkpt><trkpt lat="30.67650824" lon="35.61337117"><ele>1293.1</ele><time>2015-11-23T07:38:21.0000000+00:00</time></trkpt><trkpt lat="30.67648041" lon="35.61336086"><ele>1292.6</ele><time>2015-11-23T07:38:24.0000000+00:00</time></trkpt><trkpt lat="30.67642082" lon="35.61333605"><ele>1292.6</ele><time>2015-11-23T07:38:30.0000000+00:00</time></trkpt><trkpt lat="30.67639517" lon="35.61332256"><ele>1294.1</ele><time>2015-11-23T07:38:33.0000000+00:00</time></trkpt><trkpt lat="30.67633398" lon="35.61330236"><ele>1292.2</ele><time>2015-11-23T07:38:48.0000000+00:00</time></trkpt><trkpt lat="30.67627832" lon="35.61328157"><ele>1292.6</ele><time>2015-11-23T07:39:02.0000000+00:00</time></trkpt><trkpt lat="30.67617187" lon="35.61324175"><ele>1293.1</ele><time>2015-11-23T07:39:15.0000000+00:00</time></trkpt><trkpt lat="30.67610641" lon="35.61320756"><ele>1292.2</ele><time>2015-11-23T07:39:25.0000000+00:00</time></trkpt><trkpt lat="30.67609082" lon="35.61320018"><ele>1292.6</ele><time>2015-11-23T07:39:27.0000000+00:00</time></trkpt><trkpt lat="30.67590675" lon="35.61315886"><ele>1293.1</ele><time>2015-11-23T07:39:45.0000000+00:00</time></trkpt><trkpt lat="30.67588756" lon="35.61315056"><ele>1292.2</ele><time>2015-11-23T07:39:47.0000000+00:00</time></trkpt><trkpt lat="30.67576879" lon="35.61312005"><ele>1292.2</ele><time>2015-11-23T07:39:59.0000000+00:00</time></trkpt><trkpt lat="30.67553761" lon="35.61305962"><ele>1290.2</ele><time>2015-11-23T07:40:18.0000000+00:00</time></trkpt><trkpt lat="30.67533284" lon="35.61300254"><ele>1291.7</ele><time>2015-11-23T07:40:35.0000000+00:00</time></trkpt><trkpt lat="30.67509899" lon="35.61293774"><ele>1290.7</ele><time>2015-11-23T07:40:55.0000000+00:00</time></trkpt><trkpt lat="30.67491123" lon="35.61289608"><ele>1290.2</ele><time>2015-11-23T07:41:12.0000000+00:00</time></trkpt><trkpt lat="30.67486756" lon="35.61287798"><ele>1288.8</ele><time>2015-11-23T07:41:19.0000000+00:00</time></trkpt><trkpt lat="30.67482901" lon="35.61288242"><ele>1288.8</ele><time>2015-11-23T07:41:30.0000000+00:00</time></trkpt><trkpt lat="30.67479489" lon="35.6128618"><ele>1287.8</ele><time>2015-11-23T07:41:44.0000000+00:00</time></trkpt><trkpt lat="30.67471585" lon="35.61278536"><ele>1285.4</ele><time>2015-11-23T07:41:58.0000000+00:00</time></trkpt><trkpt lat="30.67466145" lon="35.61274144"><ele>1285.4</ele><time>2015-11-23T07:42:09.0000000+00:00</time></trkpt><trkpt lat="30.67448191" lon="35.61264136"><ele>1282.5</ele><time>2015-11-23T07:42:27.0000000+00:00</time></trkpt><trkpt lat="30.67431285" lon="35.61253994"><ele>1283.0</ele><time>2015-11-23T07:42:43.0000000+00:00</time></trkpt><trkpt lat="30.67429315" lon="35.61252787"><ele>1282.1</ele><time>2015-11-23T07:42:45.0000000+00:00</time></trkpt><trkpt lat="30.67411386" lon="35.61237263"><ele>1279.7</ele><time>2015-11-23T07:43:03.0000000+00:00</time></trkpt><trkpt lat="30.67407506" lon="35.6123184"><ele>1279.2</ele><time>2015-11-23T07:43:08.0000000+00:00</time></trkpt><trkpt lat="30.67400197" lon="35.61207164"><ele>1275.8</ele><time>2015-11-23T07:43:26.0000000+00:00</time></trkpt><trkpt lat="30.67393726" lon="35.61192521"><ele>1272.9</ele><time>2015-11-23T07:43:39.0000000+00:00</time></trkpt><trkpt lat="30.67385302" lon="35.61176587"><ele>1271.5</ele><time>2015-11-23T07:43:58.0000000+00:00</time></trkpt><trkpt lat="30.67384883" lon="35.6117305"><ele>1271.5</ele><time>2015-11-23T07:44:02.0000000+00:00</time></trkpt><trkpt lat="30.6739246" lon="35.61157619"><ele>1268.1</ele><time>2015-11-23T07:44:21.0000000+00:00</time></trkpt><trkpt lat="30.67398327" lon="35.6114575"><ele>1266.2</ele><time>2015-11-23T07:44:34.0000000+00:00</time></trkpt><trkpt lat="30.67405444" lon="35.61138659"><ele>1265.7</ele><time>2015-11-23T07:44:49.0000000+00:00</time></trkpt><trkpt lat="30.67408185" lon="35.61129749"><ele>1262.4</ele><time>2015-11-23T07:45:02.0000000+00:00</time></trkpt><trkpt lat="30.67414756" lon="35.61120009"><ele>1260.4</ele><time>2015-11-23T07:45:15.0000000+00:00</time></trkpt><trkpt lat="30.67423934" lon="35.61108895"><ele>1257.5</ele><time>2015-11-23T07:45:29.0000000+00:00</time></trkpt><trkpt lat="30.67433716" lon="35.61098384"><ele>1257.1</ele><time>2015-11-23T07:45:43.0000000+00:00</time></trkpt><trkpt lat="30.67442777" lon="35.61089985"><ele>1255.6</ele><time>2015-11-23T07:45:58.0000000+00:00</time></trkpt><trkpt lat="30.67454" lon="35.61081058"><ele>1253.2</ele><time>2015-11-23T07:46:14.0000000+00:00</time></trkpt><trkpt lat="30.67460831" lon="35.61075878"><ele>1251.8</ele><time>2015-11-23T07:46:26.0000000+00:00</time></trkpt><trkpt lat="30.67464083" lon="35.61073372"><ele>1250.8</ele><time>2015-11-23T07:46:39.0000000+00:00</time></trkpt><trkpt lat="30.67466363" lon="35.61073137"><ele>1251.3</ele><time>2015-11-23T07:46:52.0000000+00:00</time></trkpt></trkseg><trkseg><trkpt lat="30.67467671" lon="35.61058695"><ele>1247.9</ele><time>2015-11-23T09:01:34.0000000+00:00</time></trkpt><trkpt lat="30.67469909" lon="35.61060741"><ele>1247.9</ele><time>2015-11-23T09:01:49.0000000+00:00</time></trkpt><trkpt lat="30.67470454" lon="35.61065929"><ele>1248.4</ele><time>2015-11-23T09:01:54.0000000+00:00</time></trkpt><trkpt lat="30.67469507" lon="35.61069919"><ele>1250.8</ele><time>2015-11-23T09:01:57.0000000+00:00</time></trkpt><trkpt lat="30.67458032" lon="35.61083095"><ele>1252.3</ele><time>2015-11-23T09:02:19.0000000+00:00</time></trkpt><trkpt lat="30.67446129" lon="35.61093975"><ele>1254.2</ele><time>2015-11-23T09:02:38.0000000+00:00</time></trkpt><trkpt lat="30.67437815" lon="35.6110353"><ele>1257.5</ele><time>2015-11-23T09:02:53.0000000+00:00</time></trkpt><trkpt lat="30.67428494" lon="35.61114628"><ele>1259.9</ele><time>2015-11-23T09:03:12.0000000+00:00</time></trkpt><trkpt lat="30.67420221" lon="35.61124175"><ele>1261.9</ele><time>2015-11-23T09:03:32.0000000+00:00</time></trkpt><trkpt lat="30.67413951" lon="35.61131869"><ele>1264.8</ele><time>2015-11-23T09:03:47.0000000+00:00</time></trkpt><trkpt lat="30.67405108" lon="35.61143252"><ele>1267.6</ele><time>2015-11-23T09:04:07.0000000+00:00</time></trkpt><trkpt lat="30.67401445" lon="35.61148373"><ele>1270.5</ele><time>2015-11-23T09:04:15.0000000+00:00</time></trkpt><trkpt lat="30.67400884" lon="35.61149295"><ele>1269.6</ele><time>2015-11-23T09:04:16.0000000+00:00</time></trkpt><trkpt lat="30.6738951" lon="35.6116595"><ele>1271.5</ele><time>2015-11-23T09:04:39.0000000+00:00</time></trkpt><trkpt lat="30.67391421" lon="35.61180962"><ele>1273.4</ele><time>2015-11-23T09:04:58.0000000+00:00</time></trkpt><trkpt lat="30.67398721" lon="35.61196117"><ele>1274.4</ele><time>2015-11-23T09:05:16.0000000+00:00</time></trkpt><trkpt lat="30.67401043" lon="35.61200651"><ele>1274.4</ele><time>2015-11-23T09:05:21.0000000+00:00</time></trkpt><trkpt lat="30.67407137" lon="35.61219024"><ele>1276.8</ele><time>2015-11-23T09:05:38.0000000+00:00</time></trkpt><trkpt lat="30.67419844" lon="35.61247632"><ele>1278.7</ele><time>2015-11-23T09:05:56.0000000+00:00</time></trkpt><trkpt lat="30.67440245" lon="35.61260724"><ele>1282.1</ele><time>2015-11-23T09:06:10.0000000+00:00</time></trkpt><trkpt lat="30.67450027" lon="35.61263943"><ele>1283.5</ele><time>2015-11-23T09:06:16.0000000+00:00</time></trkpt><trkpt lat="30.67460739" lon="35.61272308"><ele>1286.4</ele><time>2015-11-23T09:06:25.0000000+00:00</time></trkpt><trkpt lat="30.67470906" lon="35.61285418"><ele>1288.8</ele><time>2015-11-23T09:06:38.0000000+00:00</time></trkpt><trkpt lat="30.67463438" lon="35.61287991"><ele>1289.3</ele><time>2015-11-23T09:06:46.0000000+00:00</time></trkpt><trkpt lat="30.67435979" lon="35.61281671"><ele>1290.2</ele><time>2015-11-23T09:07:04.0000000+00:00</time></trkpt><trkpt lat="30.67412753" lon="35.61279374"><ele>1291.2</ele><time>2015-11-23T09:07:19.0000000+00:00</time></trkpt><trkpt lat="30.6740852" lon="35.61280531"><ele>1291.2</ele><time>2015-11-23T09:07:22.0000000+00:00</time></trkpt><trkpt lat="30.67396735" lon="35.61279047"><ele>1291.7</ele><time>2015-11-23T09:07:30.0000000+00:00</time></trkpt><trkpt lat="30.67370751" lon="35.61273884"><ele>1293.6</ele><time>2015-11-23T09:07:47.0000000+00:00</time></trkpt><trkpt lat="30.6734765" lon="35.6126277"><ele>1296.5</ele><time>2015-11-23T09:08:04.0000000+00:00</time></trkpt><trkpt lat="30.67340962" lon="35.61259333"><ele>1297.0</ele><time>2015-11-23T09:08:09.0000000+00:00</time></trkpt><trkpt lat="30.67332747" lon="35.61254329"><ele>1299.4</ele><time>2015-11-23T09:08:15.0000000+00:00</time></trkpt><trkpt lat="30.67314517" lon="35.61241924"><ele>1300.8</ele><time>2015-11-23T09:08:30.0000000+00:00</time></trkpt><trkpt lat="30.67296873" lon="35.61231287"><ele>1304.2</ele><time>2015-11-23T09:08:46.0000000+00:00</time></trkpt><trkpt lat="30.67292749" lon="35.61227909"><ele>1305.6</ele><time>2015-11-23T09:08:50.0000000+00:00</time></trkpt><trkpt lat="30.67275113" lon="35.61215529"><ele>1305.1</ele><time>2015-11-23T09:09:05.0000000+00:00</time></trkpt><trkpt lat="30.67272088" lon="35.61212411"><ele>1305.6</ele><time>2015-11-23T09:09:08.0000000+00:00</time></trkpt><trkpt lat="30.67254544" lon="35.61193518"><ele>1307.5</ele><time>2015-11-23T09:09:25.0000000+00:00</time></trkpt><trkpt lat="30.67244327" lon="35.61173854"><ele>1309.9</ele><time>2015-11-23T09:09:39.0000000+00:00</time></trkpt><trkpt lat="30.67242675" lon="35.61148717"><ele>1309.9</ele><time>2015-11-23T09:09:53.0000000+00:00</time></trkpt><trkpt lat="30.67242717" lon="35.611415"><ele>1311.4</ele><time>2015-11-23T09:09:57.0000000+00:00</time></trkpt><trkpt lat="30.672411" lon="35.61121836"><ele>1314.7</ele><time>2015-11-23T09:10:08.0000000+00:00</time></trkpt><trkpt lat="30.67239298" lon="35.61115114"><ele>1315.2</ele><time>2015-11-23T09:10:12.0000000+00:00</time></trkpt><trkpt lat="30.67231871" lon="35.61088577"><ele>1317.1</ele><time>2015-11-23T09:10:27.0000000+00:00</time></trkpt><trkpt lat="30.67216289" lon="35.61058092"><ele>1318.6</ele><time>2015-11-23T09:10:44.0000000+00:00</time></trkpt><trkpt lat="30.67207228" lon="35.61041865"><ele>1320.0</ele><time>2015-11-23T09:10:54.0000000+00:00</time></trkpt><trkpt lat="30.67207295" lon="35.61031672"><ele>1320.5</ele><time>2015-11-23T09:11:00.0000000+00:00</time></trkpt><trkpt lat="30.67208586" lon="35.61029141"><ele>1320.5</ele><time>2015-11-23T09:11:01.0000000+00:00</time></trkpt><trkpt lat="30.67242005" lon="35.60986745"><ele>1320.5</ele><time>2015-11-23T09:11:14.0000000+00:00</time></trkpt><trkpt lat="30.6726358" lon="35.60970115"><ele>1323.4</ele><time>2015-11-23T09:11:22.0000000+00:00</time></trkpt><trkpt lat="30.67264695" lon="35.60968171"><ele>1324.8</ele><time>2015-11-23T09:11:24.0000000+00:00</time></trkpt><trkpt lat="30.6726539" lon="35.60966587"><ele>1323.4</ele><time>2015-11-23T09:11:29.0000000+00:00</time></trkpt><trkpt lat="30.67265952" lon="35.60967609"><ele>1324.4</ele><time>2015-11-23T09:11:50.0000000+00:00</time></trkpt><trkpt lat="30.67262314" lon="35.60965589"><ele>1322.4</ele><time>2015-11-23T09:12:35.0000000+00:00</time></trkpt><trkpt lat="30.67262809" lon="35.60966285"><ele>1322.9</ele><time>2015-11-23T09:12:47.0000000+00:00</time></trkpt><trkpt lat="30.67261987" lon="35.60967282"><ele>1322.0</ele><time>2015-11-23T09:12:53.0000000+00:00</time></trkpt><trkpt lat="30.67260923" lon="35.60970359"><ele>1322.9</ele><time>2015-11-23T09:13:44.0000000+00:00</time></trkpt><trkpt lat="30.67262004" lon="35.60969118"><ele>1324.8</ele><time>2015-11-23T09:13:58.0000000+00:00</time></trkpt><trkpt lat="30.67261392" lon="35.60969336"><ele>1323.4</ele><time>2015-11-23T09:14:01.0000000+00:00</time></trkpt><trkpt lat="30.67262541" lon="35.60967878"><ele>1323.4</ele><time>2015-11-23T09:14:43.0000000+00:00</time></trkpt><trkpt lat="30.67264644" lon="35.60966838"><ele>1320.0</ele><time>2015-11-23T09:15:25.0000000+00:00</time></trkpt><trkpt lat="30.67263463" lon="35.6096771"><ele>1321.0</ele><time>2015-11-23T09:16:07.0000000+00:00</time></trkpt><trkpt lat="30.67262557" lon="35.60967341"><ele>1324.4</ele><time>2015-11-23T09:16:18.0000000+00:00</time></trkpt><trkpt lat="30.67264485" lon="35.60966637"><ele>1322.9</ele><time>2015-11-23T09:16:52.0000000+00:00</time></trkpt><trkpt lat="30.67262197" lon="35.60967886"><ele>1322.9</ele><time>2015-11-23T09:17:35.0000000+00:00</time></trkpt><trkpt lat="30.67262004" lon="35.60968397"><ele>1323.4</ele><time>2015-11-23T09:18:00.0000000+00:00</time></trkpt><trkpt lat="30.67262105" lon="35.60967274"><ele>1324.8</ele><time>2015-11-23T09:18:10.0000000+00:00</time></trkpt><trkpt lat="30.67262784" lon="35.60966226"><ele>1323.4</ele><time>2015-11-23T09:18:18.0000000+00:00</time></trkpt><trkpt lat="30.67263412" lon="35.60966754"><ele>1322.0</ele><time>2015-11-23T09:18:56.0000000+00:00</time></trkpt><trkpt lat="30.67263245" lon="35.60966503"><ele>1322.9</ele><time>2015-11-23T09:19:45.0000000+00:00</time></trkpt><trkpt lat="30.67266765" lon="35.60965296"><ele>1323.9</ele><time>2015-11-23T09:20:28.0000000+00:00</time></trkpt><trkpt lat="30.67264033" lon="35.60968179"><ele>1321.5</ele><time>2015-11-23T09:21:20.0000000+00:00</time></trkpt><trkpt lat="30.67264066" lon="35.60966511"><ele>1322.0</ele><time>2015-11-23T09:21:42.0000000+00:00</time></trkpt><trkpt lat="30.67266413" lon="35.6097056"><ele>1320.0</ele><time>2015-11-23T09:22:12.0000000+00:00</time></trkpt><trkpt lat="30.67264586" lon="35.60973326"><ele>1320.5</ele><time>2015-11-23T09:22:20.0000000+00:00</time></trkpt><trkpt lat="30.67260864" lon="35.60976452"><ele>1320.0</ele><time>2015-11-23T09:22:26.0000000+00:00</time></trkpt><trkpt lat="30.67234989" lon="35.60995379"><ele>1321.5</ele><time>2015-11-23T09:22:45.0000000+00:00</time></trkpt><trkpt lat="30.67227923" lon="35.61002109"><ele>1320.0</ele><time>2015-11-23T09:22:50.0000000+00:00</time></trkpt><trkpt lat="30.67223523" lon="35.61006409"><ele>1319.6</ele><time>2015-11-23T09:22:53.0000000+00:00</time></trkpt><trkpt lat="30.67218846" lon="35.61016409"><ele>1319.6</ele><time>2015-11-23T09:22:58.0000000+00:00</time></trkpt><trkpt lat="30.67210464" lon="35.61028361"><ele>1320.5</ele><time>2015-11-23T09:23:07.0000000+00:00</time></trkpt><trkpt lat="30.67208863" lon="35.61029744"><ele>1320.0</ele><time>2015-11-23T09:23:09.0000000+00:00</time></trkpt><trkpt lat="30.67201822" lon="35.61036081"><ele>1322.0</ele><time>2015-11-23T09:23:18.0000000+00:00</time></trkpt><trkpt lat="30.67189576" lon="35.61028613"><ele>1322.4</ele><time>2015-11-23T09:23:30.0000000+00:00</time></trkpt><trkpt lat="30.67181379" lon="35.61027959"><ele>1322.9</ele><time>2015-11-23T09:23:37.0000000+00:00</time></trkpt><trkpt lat="30.67164447" lon="35.61030113"><ele>1326.3</ele><time>2015-11-23T09:23:51.0000000+00:00</time></trkpt><trkpt lat="30.67160063" lon="35.61031111"><ele>1327.7</ele><time>2015-11-23T09:23:55.0000000+00:00</time></trkpt><trkpt lat="30.6715236" lon="35.61033826"><ele>1329.6</ele><time>2015-11-23T09:24:02.0000000+00:00</time></trkpt><trkpt lat="30.67147147" lon="35.6103505"><ele>1330.6</ele><time>2015-11-23T09:24:07.0000000+00:00</time></trkpt><trkpt lat="30.67130626" lon="35.61041663"><ele>1334.0</ele><time>2015-11-23T09:24:21.0000000+00:00</time></trkpt><trkpt lat="30.67109797" lon="35.61052635"><ele>1337.3</ele><time>2015-11-23T09:24:38.0000000+00:00</time></trkpt><trkpt lat="30.67106998" lon="35.61054815"><ele>1336.9</ele><time>2015-11-23T09:24:41.0000000+00:00</time></trkpt><trkpt lat="30.67102312" lon="35.61058939"><ele>1337.8</ele><time>2015-11-23T09:24:46.0000000+00:00</time></trkpt><trkpt lat="30.67091499" lon="35.61071076"><ele>1339.3</ele><time>2015-11-23T09:24:58.0000000+00:00</time></trkpt><trkpt lat="30.67079262" lon="35.61091913"><ele>1341.7</ele><time>2015-11-23T09:25:16.0000000+00:00</time></trkpt><trkpt lat="30.67069111" lon="35.61112382"><ele>1342.6</ele><time>2015-11-23T09:25:31.0000000+00:00</time></trkpt><trkpt lat="30.67064015" lon="35.61121409"><ele>1344.5</ele><time>2015-11-23T09:25:38.0000000+00:00</time></trkpt><trkpt lat="30.67062071" lon="35.61125541"><ele>1344.5</ele><time>2015-11-23T09:25:41.0000000+00:00</time></trkpt><trkpt lat="30.67051032" lon="35.61142556"><ele>1346.5</ele><time>2015-11-23T09:25:56.0000000+00:00</time></trkpt><trkpt lat="30.6704638" lon="35.61147393"><ele>1347.4</ele><time>2015-11-23T09:26:04.0000000+00:00</time></trkpt><trkpt lat="30.67045718" lon="35.61151324"><ele>1349.4</ele><time>2015-11-23T09:26:16.0000000+00:00</time></trkpt><trkpt lat="30.67034938" lon="35.61159303"><ele>1349.8</ele><time>2015-11-23T09:26:33.0000000+00:00</time></trkpt><trkpt lat="30.67027638" lon="35.61165364"><ele>1351.8</ele><time>2015-11-23T09:26:42.0000000+00:00</time></trkpt><trkpt lat="30.67013539" lon="35.61178649"><ele>1352.2</ele><time>2015-11-23T09:27:01.0000000+00:00</time></trkpt><trkpt lat="30.67004881" lon="35.61185581"><ele>1353.2</ele><time>2015-11-23T09:27:19.0000000+00:00</time></trkpt><trkpt lat="30.66994119" lon="35.61198925"><ele>1355.1</ele><time>2015-11-23T09:27:37.0000000+00:00</time></trkpt><trkpt lat="30.6697676" lon="35.61215311"><ele>1355.1</ele><time>2015-11-23T09:27:59.0000000+00:00</time></trkpt><trkpt lat="30.66960373" lon="35.61234087"><ele>1355.6</ele><time>2015-11-23T09:28:19.0000000+00:00</time></trkpt><trkpt lat="30.66947473" lon="35.61249384"><ele>1356.6</ele><time>2015-11-23T09:28:38.0000000+00:00</time></trkpt><trkpt lat="30.66934456" lon="35.61267866"><ele>1357.5</ele><time>2015-11-23T09:28:57.0000000+00:00</time></trkpt><trkpt lat="30.66923325" lon="35.61281838"><ele>1360.4</ele><time>2015-11-23T09:29:16.0000000+00:00</time></trkpt><trkpt lat="30.66909981" lon="35.61295266"><ele>1362.8</ele><time>2015-11-23T09:29:37.0000000+00:00</time></trkpt><trkpt lat="30.66899084" lon="35.61304377"><ele>1365.2</ele><time>2015-11-23T09:29:56.0000000+00:00</time></trkpt><trkpt lat="30.66890292" lon="35.61312541"><ele>1367.1</ele><time>2015-11-23T09:30:13.0000000+00:00</time></trkpt><trkpt lat="30.66881793" lon="35.61322935"><ele>1370.0</ele><time>2015-11-23T09:30:30.0000000+00:00</time></trkpt><trkpt lat="30.66871491" lon="35.61329062"><ele>1372.4</ele><time>2015-11-23T09:30:50.0000000+00:00</time></trkpt><trkpt lat="30.6686787" lon="35.6132747"><ele>1371.0</ele><time>2015-11-23T09:30:59.0000000+00:00</time></trkpt><trkpt lat="30.66865004" lon="35.61325315"><ele>1372.4</ele><time>2015-11-23T09:31:18.0000000+00:00</time></trkpt><trkpt lat="30.66862933" lon="35.61322088"><ele>1372.4</ele><time>2015-11-23T09:31:53.0000000+00:00</time></trkpt><trkpt lat="30.66859413" lon="35.6131897"><ele>1371.0</ele><time>2015-11-23T09:32:15.0000000+00:00</time></trkpt><trkpt lat="30.66859991" lon="35.6132317"><ele>1371.9</ele><time>2015-11-23T09:33:00.0000000+00:00</time></trkpt><trkpt lat="30.66865775" lon="35.6132695"><ele>1372.4</ele><time>2015-11-23T09:33:38.0000000+00:00</time></trkpt><trkpt lat="30.66865029" lon="35.6132788"><ele>1371.9</ele><time>2015-11-23T09:34:12.0000000+00:00</time></trkpt><trkpt lat="30.66863721" lon="35.61325885"><ele>1373.4</ele><time>2015-11-23T09:34:55.0000000+00:00</time></trkpt><trkpt lat="30.66862707" lon="35.61314134"><ele>1373.9</ele><time>2015-11-23T09:35:25.0000000+00:00</time></trkpt><trkpt lat="30.66864425" lon="35.61316196"><ele>1373.9</ele><time>2015-11-23T09:35:49.0000000+00:00</time></trkpt><trkpt lat="30.66864476" lon="35.61313665"><ele>1374.8</ele><time>2015-11-23T09:36:23.0000000+00:00</time></trkpt><trkpt lat="30.66864836" lon="35.61312927"><ele>1374.3</ele><time>2015-11-23T09:36:29.0000000+00:00</time></trkpt><trkpt lat="30.66861844" lon="35.61315098"><ele>1373.9</ele><time>2015-11-23T09:37:07.0000000+00:00</time></trkpt><trkpt lat="30.66868348" lon="35.61316875"><ele>1374.8</ele><time>2015-11-23T09:37:57.0000000+00:00</time></trkpt><trkpt lat="30.66868281" lon="35.61318819"><ele>1374.8</ele><time>2015-11-23T09:38:38.0000000+00:00</time></trkpt><trkpt lat="30.66872363" lon="35.61322818"><ele>1374.8</ele><time>2015-11-23T09:38:51.0000000+00:00</time></trkpt><trkpt lat="30.66868968" lon="35.61324988"><ele>1375.3</ele><time>2015-11-23T09:39:11.0000000+00:00</time></trkpt><trkpt lat="30.66867468" lon="35.61329557"><ele>1375.3</ele><time>2015-11-23T09:39:22.0000000+00:00</time></trkpt><trkpt lat="30.66863755" lon="35.61333689"><ele>1377.2</ele><time>2015-11-23T09:39:39.0000000+00:00</time></trkpt><trkpt lat="30.66854836" lon="35.61346396"><ele>1378.7</ele><time>2015-11-23T09:39:58.0000000+00:00</time></trkpt><trkpt lat="30.66846589" lon="35.61356102"><ele>1381.1</ele><time>2015-11-23T09:40:17.0000000+00:00</time></trkpt><trkpt lat="30.66840118" lon="35.61362883"><ele>1382.5</ele><time>2015-11-23T09:40:33.0000000+00:00</time></trkpt><trkpt lat="30.66831032" lon="35.6136984"><ele>1385.4</ele><time>2015-11-23T09:40:52.0000000+00:00</time></trkpt><trkpt lat="30.66821627" lon="35.61376839"><ele>1387.3</ele><time>2015-11-23T09:41:10.0000000+00:00</time></trkpt><trkpt lat="30.66816338" lon="35.61380133"><ele>1388.8</ele><time>2015-11-23T09:41:30.0000000+00:00</time></trkpt><trkpt lat="30.66808518" lon="35.61387308"><ele>1391.7</ele><time>2015-11-23T09:41:47.0000000+00:00</time></trkpt><trkpt lat="30.66799122" lon="35.61393276"><ele>1394.5</ele><time>2015-11-23T09:42:08.0000000+00:00</time></trkpt><trkpt lat="30.66791193" lon="35.61397827"><ele>1396.0</ele><time>2015-11-23T09:42:26.0000000+00:00</time></trkpt><trkpt lat="30.66782635" lon="35.6140175"><ele>1397.9</ele><time>2015-11-23T09:42:42.0000000+00:00</time></trkpt><trkpt lat="30.66773524" lon="35.61406922"><ele>1399.3</ele><time>2015-11-23T09:43:01.0000000+00:00</time></trkpt><trkpt lat="30.66770741" lon="35.61408347"><ele>1401.7</ele><time>2015-11-23T09:43:05.0000000+00:00</time></trkpt><trkpt lat="30.66769291" lon="35.6140895"><ele>1403.2</ele><time>2015-11-23T09:43:07.0000000+00:00</time></trkpt><trkpt lat="30.66760247" lon="35.61413627"><ele>1402.7</ele><time>2015-11-23T09:43:25.0000000+00:00</time></trkpt><trkpt lat="30.66752435" lon="35.61417642"><ele>1405.6</ele><time>2015-11-23T09:43:40.0000000+00:00</time></trkpt><trkpt lat="30.66741019" lon="35.61423602"><ele>1407.5</ele><time>2015-11-23T09:43:59.0000000+00:00</time></trkpt><trkpt lat="30.66730214" lon="35.61428178"><ele>1409.4</ele><time>2015-11-23T09:44:16.0000000+00:00</time></trkpt><trkpt lat="30.66720969" lon="35.61431045"><ele>1411.4</ele><time>2015-11-23T09:44:32.0000000+00:00</time></trkpt><trkpt lat="30.66707558" lon="35.61437105"><ele>1413.3</ele><time>2015-11-23T09:44:52.0000000+00:00</time></trkpt><trkpt lat="30.66696997" lon="35.61444246"><ele>1414.7</ele><time>2015-11-23T09:45:09.0000000+00:00</time></trkpt><trkpt lat="30.66688229" lon="35.61454254"><ele>1417.1</ele><time>2015-11-23T09:45:26.0000000+00:00</time></trkpt><trkpt lat="30.66679588" lon="35.61466978"><ele>1419.0</ele><time>2015-11-23T09:45:44.0000000+00:00</time></trkpt><trkpt lat="30.66669839" lon="35.61481579"><ele>1421.0</ele><time>2015-11-23T09:46:04.0000000+00:00</time></trkpt><trkpt lat="30.66666177" lon="35.61488335"><ele>1421.0</ele><time>2015-11-23T09:46:12.0000000+00:00</time></trkpt><trkpt lat="30.66656554" lon="35.61510623"><ele>1421.5</ele><time>2015-11-23T09:46:32.0000000+00:00</time></trkpt><trkpt lat="30.66645029" lon="35.61534972"><ele>1423.4</ele><time>2015-11-23T09:46:54.0000000+00:00</time></trkpt><trkpt lat="30.66632205" lon="35.61552054"><ele>1425.8</ele><time>2015-11-23T09:47:15.0000000+00:00</time></trkpt><trkpt lat="30.66623831" lon="35.61564543"><ele>1427.7</ele><time>2015-11-23T09:47:32.0000000+00:00</time></trkpt><trkpt lat="30.66613739" lon="35.61577602"><ele>1430.6</ele><time>2015-11-23T09:47:51.0000000+00:00</time></trkpt><trkpt lat="30.66606279" lon="35.6158777"><ele>1431.5</ele><time>2015-11-23T09:48:06.0000000+00:00</time></trkpt><trkpt lat="30.66597856" lon="35.6159901"><ele>1433.0</ele><time>2015-11-23T09:48:25.0000000+00:00</time></trkpt><trkpt lat="30.66590128" lon="35.61608967"><ele>1434.9</ele><time>2015-11-23T09:48:42.0000000+00:00</time></trkpt><trkpt lat="30.66582953" lon="35.61619814"><ele>1437.3</ele><time>2015-11-23T09:48:59.0000000+00:00</time></trkpt><trkpt lat="30.66575451" lon="35.6163035"><ele>1439.7</ele><time>2015-11-23T09:49:18.0000000+00:00</time></trkpt><trkpt lat="30.66568301" lon="35.61637441"><ele>1441.6</ele><time>2015-11-23T09:49:36.0000000+00:00</time></trkpt><trkpt lat="30.66561503" lon="35.61642705"><ele>1444.5</ele><time>2015-11-23T09:49:53.0000000+00:00</time></trkpt><trkpt lat="30.66554412" lon="35.6164703"><ele>1445.5</ele><time>2015-11-23T09:50:09.0000000+00:00</time></trkpt><trkpt lat="30.66546055" lon="35.61652151"><ele>1448.4</ele><time>2015-11-23T09:50:25.0000000+00:00</time></trkpt><trkpt lat="30.66532309" lon="35.61657641"><ele>1450.8</ele><time>2015-11-23T09:50:44.0000000+00:00</time></trkpt><trkpt lat="30.66521404" lon="35.61659602"><ele>1452.7</ele><time>2015-11-23T09:51:00.0000000+00:00</time></trkpt><trkpt lat="30.66511162" lon="35.6165853"><ele>1455.1</ele><time>2015-11-23T09:51:17.0000000+00:00</time></trkpt><trkpt lat="30.66499343" lon="35.61657432"><ele>1457.5</ele><time>2015-11-23T09:51:37.0000000+00:00</time></trkpt><trkpt lat="30.66486913" lon="35.61655118"><ele>1459.9</ele><time>2015-11-23T09:51:54.0000000+00:00</time></trkpt><trkpt lat="30.66476201" lon="35.6165293"><ele>1461.8</ele><time>2015-11-23T09:52:11.0000000+00:00</time></trkpt><trkpt lat="30.66463619" lon="35.61652453"><ele>1463.3</ele><time>2015-11-23T09:52:30.0000000+00:00</time></trkpt><trkpt lat="30.6644994" lon="35.61652629"><ele>1465.7</ele><time>2015-11-23T09:52:49.0000000+00:00</time></trkpt><trkpt lat="30.66439882" lon="35.6165459"><ele>1467.1</ele><time>2015-11-23T09:53:06.0000000+00:00</time></trkpt><trkpt lat="30.66424082" lon="35.61659385"><ele>1469.5</ele><time>2015-11-23T09:53:25.0000000+00:00</time></trkpt><trkpt lat="30.66412196" lon="35.61663567"><ele>1471.4</ele><time>2015-11-23T09:53:40.0000000+00:00</time></trkpt><trkpt lat="30.66396589" lon="35.61671505"><ele>1473.8</ele><time>2015-11-23T09:54:00.0000000+00:00</time></trkpt><trkpt lat="30.66383237" lon="35.61678562"><ele>1475.8</ele><time>2015-11-23T09:54:18.0000000+00:00</time></trkpt><trkpt lat="30.66369709" lon="35.61685109"><ele>1477.2</ele><time>2015-11-23T09:54:36.0000000+00:00</time></trkpt><trkpt lat="30.66354093" lon="35.61691848"><ele>1478.2</ele><time>2015-11-23T09:54:55.0000000+00:00</time></trkpt><trkpt lat="30.66340489" lon="35.61699852"><ele>1479.6</ele><time>2015-11-23T09:55:14.0000000+00:00</time></trkpt><trkpt lat="30.66334873" lon="35.6170116"><ele>1480.1</ele><time>2015-11-23T09:55:29.0000000+00:00</time></trkpt><trkpt lat="30.66335619" lon="35.61701386"><ele>1480.1</ele><time>2015-11-23T09:55:48.0000000+00:00</time></trkpt><trkpt lat="30.66333876" lon="35.61702719"><ele>1480.1</ele><time>2015-11-23T09:56:15.0000000+00:00</time></trkpt><trkpt lat="30.66333055" lon="35.61702769"><ele>1480.6</ele><time>2015-11-23T09:56:41.0000000+00:00</time></trkpt><trkpt lat="30.66333365" lon="35.61705527"><ele>1480.1</ele><time>2015-11-23T09:56:44.0000000+00:00</time></trkpt><trkpt lat="30.6632795" lon="35.61712165"><ele>1481.1</ele><time>2015-11-23T09:56:51.0000000+00:00</time></trkpt><trkpt lat="30.66325955" lon="35.61714177"><ele>1481.1</ele><time>2015-11-23T09:56:53.0000000+00:00</time></trkpt><trkpt lat="30.66315712" lon="35.61723112"><ele>1481.5</ele><time>2015-11-23T09:57:02.0000000+00:00</time></trkpt><trkpt lat="30.66306283" lon="35.61729281"><ele>1483.0</ele><time>2015-11-23T09:57:10.0000000+00:00</time></trkpt><trkpt lat="30.66289879" lon="35.61739851"><ele>1485.4</ele><time>2015-11-23T09:57:25.0000000+00:00</time></trkpt><trkpt lat="30.66284389" lon="35.61742374"><ele>1485.4</ele><time>2015-11-23T09:57:30.0000000+00:00</time></trkpt><trkpt lat="30.66277147" lon="35.61744737"><ele>1485.9</ele><time>2015-11-23T09:57:36.0000000+00:00</time></trkpt><trkpt lat="30.66268162" lon="35.61747135"><ele>1485.9</ele><time>2015-11-23T09:57:43.0000000+00:00</time></trkpt><trkpt lat="30.6626418" lon="35.61748107"><ele>1485.9</ele><time>2015-11-23T09:57:46.0000000+00:00</time></trkpt><trkpt lat="30.6624372" lon="35.61751066"><ele>1489.7</ele><time>2015-11-23T09:58:01.0000000+00:00</time></trkpt><trkpt lat="30.66219471" lon="35.61748794"><ele>1489.7</ele><time>2015-11-23T09:58:17.0000000+00:00</time></trkpt><trkpt lat="30.66190931" lon="35.61738786"><ele>1491.1</ele><time>2015-11-23T09:58:32.0000000+00:00</time></trkpt><trkpt lat="30.66164394" lon="35.61728401"><ele>1492.6</ele><time>2015-11-23T09:58:48.0000000+00:00</time></trkpt><trkpt lat="30.66132149" lon="35.61724411"><ele>1493.6</ele><time>2015-11-23T09:59:07.0000000+00:00</time></trkpt><trkpt lat="30.66107263" lon="35.61734771"><ele>1494.5</ele><time>2015-11-23T09:59:22.0000000+00:00</time></trkpt><trkpt lat="30.66106215" lon="35.61736247"><ele>1495.0</ele><time>2015-11-23T09:59:23.0000000+00:00</time></trkpt><trkpt lat="30.66097707" lon="35.61743178"><ele>1495.5</ele><time>2015-11-23T09:59:29.0000000+00:00</time></trkpt><trkpt lat="30.66087465" lon="35.61747302"><ele>1496.0</ele><time>2015-11-23T09:59:42.0000000+00:00</time></trkpt><trkpt lat="30.66086669" lon="35.6175177"><ele>1496.0</ele><time>2015-11-23T09:59:58.0000000+00:00</time></trkpt><trkpt lat="30.66085638" lon="35.61752264"><ele>1495.5</ele><time>2015-11-23T10:00:22.0000000+00:00</time></trkpt><trkpt lat="30.66088001" lon="35.61752658"><ele>1496.0</ele><time>2015-11-23T10:00:59.0000000+00:00</time></trkpt><trkpt lat="30.66086224" lon="35.6175322"><ele>1496.9</ele><time>2015-11-23T10:01:30.0000000+00:00</time></trkpt><trkpt lat="30.66085386" lon="35.61749465"><ele>1496.0</ele><time>2015-11-23T10:01:56.0000000+00:00</time></trkpt><trkpt lat="30.66084657" lon="35.61753455"><ele>1496.0</ele><time>2015-11-23T10:02:07.0000000+00:00</time></trkpt><trkpt lat="30.66080491" lon="35.61774552"><ele>1496.9</ele><time>2015-11-23T10:02:26.0000000+00:00</time></trkpt><trkpt lat="30.66074163" lon="35.61789438"><ele>1499.3</ele><time>2015-11-23T10:02:44.0000000+00:00</time></trkpt><trkpt lat="30.66067658" lon="35.61803092"><ele>1500.8</ele><time>2015-11-23T10:03:01.0000000+00:00</time></trkpt><trkpt lat="30.66061347" lon="35.61816428"><ele>1502.2</ele><time>2015-11-23T10:03:17.0000000+00:00</time></trkpt><trkpt lat="30.66054499" lon="35.61830979"><ele>1504.1</ele><time>2015-11-23T10:03:36.0000000+00:00</time></trkpt><trkpt lat="30.66048011" lon="35.61848002"><ele>1506.5</ele><time>2015-11-23T10:03:55.0000000+00:00</time></trkpt><trkpt lat="30.66046192" lon="35.61859955"><ele>1508.0</ele><time>2015-11-23T10:04:10.0000000+00:00</time></trkpt><trkpt lat="30.66040928" lon="35.61875856"><ele>1509.4</ele><time>2015-11-23T10:04:32.0000000+00:00</time></trkpt><trkpt lat="30.6603802" lon="35.61887196"><ele>1510.9</ele><time>2015-11-23T10:04:47.0000000+00:00</time></trkpt><trkpt lat="30.66035254" lon="35.61901311"><ele>1513.3</ele><time>2015-11-23T10:05:06.0000000+00:00</time></trkpt><trkpt lat="30.66032639" lon="35.61915787"><ele>1515.2</ele><time>2015-11-23T10:05:26.0000000+00:00</time></trkpt><trkpt lat="30.66032371" lon="35.61930313"><ele>1517.1</ele><time>2015-11-23T10:05:46.0000000+00:00</time></trkpt><trkpt lat="30.66028758" lon="35.61943405"><ele>1519.5</ele><time>2015-11-23T10:06:05.0000000+00:00</time></trkpt><trkpt lat="30.66026285" lon="35.61956414"><ele>1521.4</ele><time>2015-11-23T10:06:25.0000000+00:00</time></trkpt><trkpt lat="30.66022933" lon="35.61972675"><ele>1523.8</ele><time>2015-11-23T10:06:46.0000000+00:00</time></trkpt><trkpt lat="30.66020016" lon="35.6198643"><ele>1526.2</ele><time>2015-11-23T10:07:04.0000000+00:00</time></trkpt><trkpt lat="30.6601787" lon="35.6200057"><ele>1527.7</ele><time>2015-11-23T10:07:22.0000000+00:00</time></trkpt><trkpt lat="30.66015565" lon="35.62018532"><ele>1529.6</ele><time>2015-11-23T10:07:43.0000000+00:00</time></trkpt><trkpt lat="30.6600953" lon="35.62038372"><ele>1532.0</ele><time>2015-11-23T10:08:05.0000000+00:00</time></trkpt><trkpt lat="30.66005331" lon="35.62052814"><ele>1533.9</ele><time>2015-11-23T10:08:22.0000000+00:00</time></trkpt><trkpt lat="30.65998801" lon="35.62065932"><ele>1535.8</ele><time>2015-11-23T10:08:41.0000000+00:00</time></trkpt><trkpt lat="30.65991601" lon="35.6207998"><ele>1537.3</ele><time>2015-11-23T10:09:01.0000000+00:00</time></trkpt><trkpt lat="30.65983621" lon="35.62093684"><ele>1538.3</ele><time>2015-11-23T10:09:20.0000000+00:00</time></trkpt><trkpt lat="30.65974686" lon="35.62109744"><ele>1539.7</ele><time>2015-11-23T10:09:41.0000000+00:00</time></trkpt><trkpt lat="30.65969422" lon="35.62123013"><ele>1541.6</ele><time>2015-11-23T10:10:00.0000000+00:00</time></trkpt><trkpt lat="30.65963672" lon="35.621338"><ele>1542.6</ele><time>2015-11-23T10:10:15.0000000+00:00</time></trkpt><trkpt lat="30.65956565" lon="35.62150933"><ele>1545.0</ele><time>2015-11-23T10:10:33.0000000+00:00</time></trkpt><trkpt lat="30.65948702" lon="35.62168459"><ele>1546.9</ele><time>2015-11-23T10:10:53.0000000+00:00</time></trkpt><trkpt lat="30.65943296" lon="35.62182181"><ele>1547.9</ele><time>2015-11-23T10:11:10.0000000+00:00</time></trkpt><trkpt lat="30.65936733" lon="35.62198517"><ele>1550.3</ele><time>2015-11-23T10:11:32.0000000+00:00</time></trkpt><trkpt lat="30.6593245" lon="35.62210076"><ele>1551.7</ele><time>2015-11-23T10:11:48.0000000+00:00</time></trkpt><trkpt lat="30.65926784" lon="35.62228683"><ele>1553.2</ele><time>2015-11-23T10:12:08.0000000+00:00</time></trkpt><trkpt lat="30.65925828" lon="35.62234542"><ele>1553.2</ele><time>2015-11-23T10:12:14.0000000+00:00</time></trkpt><trkpt lat="30.65924915" lon="35.62250485"><ele>1554.1</ele><time>2015-11-23T10:12:32.0000000+00:00</time></trkpt><trkpt lat="30.65924512" lon="35.62269227"><ele>1554.6</ele><time>2015-11-23T10:12:50.0000000+00:00</time></trkpt><trkpt lat="30.65925778" lon="35.62290609"><ele>1555.6</ele><time>2015-11-23T10:13:11.0000000+00:00</time></trkpt><trkpt lat="30.65928385" lon="35.62306258"><ele>1556.5</ele><time>2015-11-23T10:13:30.0000000+00:00</time></trkpt><trkpt lat="30.6592789" lon="35.62312804"><ele>1556.5</ele><time>2015-11-23T10:13:41.0000000+00:00</time></trkpt><trkpt lat="30.65926968" lon="35.6231438"><ele>1555.6</ele><time>2015-11-23T10:13:42.0000000+00:00</time></trkpt><trkpt lat="30.65925686" lon="35.6231619"><ele>1556.0</ele><time>2015-11-23T10:13:43.0000000+00:00</time></trkpt><trkpt lat="30.65924034" lon="35.62318487"><ele>1555.6</ele><time>2015-11-23T10:13:44.0000000+00:00</time></trkpt><trkpt lat="30.65921704" lon="35.62321479"><ele>1555.1</ele><time>2015-11-23T10:13:45.0000000+00:00</time></trkpt><trkpt lat="30.65901185" lon="35.62350372"><ele>1551.2</ele><time>2015-11-23T10:13:51.0000000+00:00</time></trkpt><trkpt lat="30.65893692" lon="35.62361042"><ele>1550.7</ele><time>2015-11-23T10:13:53.0000000+00:00</time></trkpt><trkpt lat="30.65883961" lon="35.62375702"><ele>1549.3</ele><time>2015-11-23T10:13:56.0000000+00:00</time></trkpt><trkpt lat="30.65880834" lon="35.62380622"><ele>1549.3</ele><time>2015-11-23T10:13:57.0000000+00:00</time></trkpt><trkpt lat="30.65859963" lon="35.62413932"><ele>1545.9</ele><time>2015-11-23T10:14:03.0000000+00:00</time></trkpt><trkpt lat="30.6584216" lon="35.62441517"><ele>1542.6</ele><time>2015-11-23T10:14:07.0000000+00:00</time></trkpt><trkpt lat="30.65825597" lon="35.62466989"><ele>1538.7</ele><time>2015-11-23T10:14:10.0000000+00:00</time></trkpt><trkpt lat="30.65808096" lon="35.62497952"><ele>1534.9</ele><time>2015-11-23T10:14:13.0000000+00:00</time></trkpt><trkpt lat="30.65795666" lon="35.62520374"><ele>1531.5</ele><time>2015-11-23T10:14:15.0000000+00:00</time></trkpt><trkpt lat="30.65776999" lon="35.62554169"><ele>1526.2</ele><time>2015-11-23T10:14:18.0000000+00:00</time></trkpt><trkpt lat="30.65750219" lon="35.62600991"><ele>1521.9</ele><time>2015-11-23T10:14:22.0000000+00:00</time></trkpt><trkpt lat="30.65717932" lon="35.62659463"><ele>1519.5</ele><time>2015-11-23T10:14:27.0000000+00:00</time></trkpt><trkpt lat="30.65700053" lon="35.62691188"><ele>1516.6</ele><time>2015-11-23T10:14:30.0000000+00:00</time></trkpt><trkpt lat="30.65676902" lon="35.62731187"><ele>1513.3</ele><time>2015-11-23T10:14:34.0000000+00:00</time></trkpt><trkpt lat="30.65659267" lon="35.62763155"><ele>1509.9</ele><time>2015-11-23T10:14:37.0000000+00:00</time></trkpt><trkpt lat="30.65646761" lon="35.6278582"><ele>1508.0</ele><time>2015-11-23T10:14:39.0000000+00:00</time></trkpt><trkpt lat="30.65621205" lon="35.62829331"><ele>1503.6</ele><time>2015-11-23T10:14:43.0000000+00:00</time></trkpt><trkpt lat="30.6559041" lon="35.62886923"><ele>1501.2</ele><time>2015-11-23T10:14:51.0000000+00:00</time></trkpt><trkpt lat="30.65560444" lon="35.62934448"><ele>1500.8</ele><time>2015-11-23T10:15:01.0000000+00:00</time></trkpt><trkpt lat="30.65557779" lon="35.62938941"><ele>1500.3</ele><time>2015-11-23T10:15:02.0000000+00:00</time></trkpt><trkpt lat="30.65555256" lon="35.6294345"><ele>1500.3</ele><time>2015-11-23T10:15:03.0000000+00:00</time></trkpt><trkpt lat="30.65552599" lon="35.62947297"><ele>1499.8</ele><time>2015-11-23T10:15:04.0000000+00:00</time></trkpt><trkpt lat="30.65549556" lon="35.62951061"><ele>1499.8</ele><time>2015-11-23T10:15:05.0000000+00:00</time></trkpt><trkpt lat="30.65513891" lon="35.62998486"><ele>1496.9</ele><time>2015-11-23T10:15:16.0000000+00:00</time></trkpt><trkpt lat="30.6549126" lon="35.63033388"><ele>1494.5</ele><time>2015-11-23T10:15:26.0000000+00:00</time></trkpt><trkpt lat="30.65478687" lon="35.63051786"><ele>1493.1</ele><time>2015-11-23T10:15:33.0000000+00:00</time></trkpt><trkpt lat="30.65476122" lon="35.63055575"><ele>1492.6</ele><time>2015-11-23T10:15:34.0000000+00:00</time></trkpt><trkpt lat="30.65473524" lon="35.63059707"><ele>1492.1</ele><time>2015-11-23T10:15:35.0000000+00:00</time></trkpt><trkpt lat="30.6545474" lon="35.63085624"><ele>1489.7</ele><time>2015-11-23T10:15:41.0000000+00:00</time></trkpt><trkpt lat="30.65430181" lon="35.63123795"><ele>1487.3</ele><time>2015-11-23T10:15:50.0000000+00:00</time></trkpt><trkpt lat="30.65422495" lon="35.63137097"><ele>1487.3</ele><time>2015-11-23T10:15:53.0000000+00:00</time></trkpt><trkpt lat="30.65420265" lon="35.63141112"><ele>1487.3</ele><time>2015-11-23T10:15:54.0000000+00:00</time></trkpt><trkpt lat="30.65385799" lon="35.63196952"><ele>1488.3</ele><time>2015-11-23T10:16:09.0000000+00:00</time></trkpt><trkpt lat="30.65358415" lon="35.63239298"><ele>1489.7</ele><time>2015-11-23T10:16:26.0000000+00:00</time></trkpt><trkpt lat="30.65340411" lon="35.63271308"><ele>1487.3</ele><time>2015-11-23T10:16:40.0000000+00:00</time></trkpt><trkpt lat="30.65325231" lon="35.63299673"><ele>1485.4</ele><time>2015-11-23T10:16:50.0000000+00:00</time></trkpt><trkpt lat="30.65307629" lon="35.63331499"><ele>1482.0</ele><time>2015-11-23T10:16:57.0000000+00:00</time></trkpt><trkpt lat="30.65298971" lon="35.63346905"><ele>1479.1</ele><time>2015-11-23T10:16:59.0000000+00:00</time></trkpt><trkpt lat="30.65277656" lon="35.63384246"><ele>1474.3</ele><time>2015-11-23T10:17:03.0000000+00:00</time></trkpt><trkpt lat="30.65260867" lon="35.63413608"><ele>1471.0</ele><time>2015-11-23T10:17:06.0000000+00:00</time></trkpt><trkpt lat="30.65249727" lon="35.6343385"><ele>1467.6</ele><time>2015-11-23T10:17:08.0000000+00:00</time></trkpt><trkpt lat="30.6523764" lon="35.63455903"><ele>1463.7</ele><time>2015-11-23T10:17:10.0000000+00:00</time></trkpt><trkpt lat="30.65225218" lon="35.63478853"><ele>1459.4</ele><time>2015-11-23T10:17:12.0000000+00:00</time></trkpt><trkpt lat="30.65213014" lon="35.63501207"><ele>1456.1</ele><time>2015-11-23T10:17:14.0000000+00:00</time></trkpt><trkpt lat="30.6519439" lon="35.63533176"><ele>1451.7</ele><time>2015-11-23T10:17:17.0000000+00:00</time></trkpt><trkpt lat="30.65182596" lon="35.63553468"><ele>1448.8</ele><time>2015-11-23T10:17:19.0000000+00:00</time></trkpt><trkpt lat="30.65166042" lon="35.63580542"><ele>1445.5</ele><time>2015-11-23T10:17:22.0000000+00:00</time></trkpt><trkpt lat="30.65149513" lon="35.63607825"><ele>1442.1</ele><time>2015-11-23T10:17:26.0000000+00:00</time></trkpt><trkpt lat="30.65141249" lon="35.63619828"><ele>1439.7</ele><time>2015-11-23T10:17:29.0000000+00:00</time></trkpt><trkpt lat="30.65134325" lon="35.63627598"><ele>1438.8</ele><time>2015-11-23T10:17:32.0000000+00:00</time></trkpt><trkpt lat="30.65129438" lon="35.63630498"><ele>1437.8</ele><time>2015-11-23T10:17:41.0000000+00:00</time></trkpt><trkpt lat="30.65132909" lon="35.63629149"><ele>1438.3</ele><time>2015-11-23T10:18:08.0000000+00:00</time></trkpt><trkpt lat="30.65131794" lon="35.63630833"><ele>1438.3</ele><time>2015-11-23T10:19:00.0000000+00:00</time></trkpt><trkpt lat="30.65136035" lon="35.63628922"><ele>1438.3</ele><time>2015-11-23T10:19:39.0000000+00:00</time></trkpt><trkpt lat="30.65140075" lon="35.63626844"><ele>1438.3</ele><time>2015-11-23T10:20:18.0000000+00:00</time></trkpt><trkpt lat="30.65136429" lon="35.63626827"><ele>1438.8</ele><time>2015-11-23T10:21:00.0000000+00:00</time></trkpt><trkpt lat="30.65135624" lon="35.63627908"><ele>1438.8</ele><time>2015-11-23T10:21:57.0000000+00:00</time></trkpt><trkpt lat="30.65137871" lon="35.63626911"><ele>1439.7</ele><time>2015-11-23T10:22:35.0000000+00:00</time></trkpt><trkpt lat="30.65137091" lon="35.63626575"><ele>1439.7</ele><time>2015-11-23T10:23:21.0000000+00:00</time></trkpt><trkpt lat="30.65134174" lon="35.63628168"><ele>1439.7</ele><time>2015-11-23T10:24:03.0000000+00:00</time></trkpt><trkpt lat="30.65131391" lon="35.63630012"><ele>1439.7</ele><time>2015-11-23T10:24:39.0000000+00:00</time></trkpt><trkpt lat="30.65130377" lon="35.63630054"><ele>1439.7</ele><time>2015-11-23T10:25:11.0000000+00:00</time></trkpt><trkpt lat="30.65130285" lon="35.63628503"><ele>1439.7</ele><time>2015-11-23T10:25:52.0000000+00:00</time></trkpt><trkpt lat="30.65126899" lon="35.63633935"><ele>1439.2</ele><time>2015-11-23T10:26:16.0000000+00:00</time></trkpt><trkpt lat="30.65126815" lon="35.63635041"><ele>1439.2</ele><time>2015-11-23T10:26:17.0000000+00:00</time></trkpt><trkpt lat="30.65126329" lon="35.63636449"><ele>1439.2</ele><time>2015-11-23T10:26:18.0000000+00:00</time></trkpt><trkpt lat="30.65125658" lon="35.63637991"><ele>1439.2</ele><time>2015-11-23T10:26:19.0000000+00:00</time></trkpt><trkpt lat="30.65125273" lon="35.63639936"><ele>1439.2</ele><time>2015-11-23T10:26:20.0000000+00:00</time></trkpt><trkpt lat="30.6512508" lon="35.63642283"><ele>1439.2</ele><time>2015-11-23T10:26:21.0000000+00:00</time></trkpt><trkpt lat="30.65107545" lon="35.63675702"><ele>1438.3</ele><time>2015-11-23T10:26:32.0000000+00:00</time></trkpt><trkpt lat="30.65074386" lon="35.63722481"><ele>1440.2</ele><time>2015-11-23T10:26:46.0000000+00:00</time></trkpt><trkpt lat="30.65055192" lon="35.63751021"><ele>1442.6</ele><time>2015-11-23T10:27:01.0000000+00:00</time></trkpt><trkpt lat="30.65038855" lon="35.63774742"><ele>1445.0</ele><time>2015-11-23T10:27:18.0000000+00:00</time></trkpt><trkpt lat="30.65020507" lon="35.63795831"><ele>1447.4</ele><time>2015-11-23T10:27:35.0000000+00:00</time></trkpt><trkpt lat="30.6501443" lon="35.63801791"><ele>1447.4</ele><time>2015-11-23T10:27:40.0000000+00:00</time></trkpt><trkpt lat="30.65012888" lon="35.63802729"><ele>1447.4</ele><time>2015-11-23T10:27:41.0000000+00:00</time></trkpt><trkpt lat="30.6498558" lon="35.6382505"><ele>1446.9</ele><time>2015-11-23T10:27:56.0000000+00:00</time></trkpt><trkpt lat="30.64935741" lon="35.63858352"><ele>1443.6</ele><time>2015-11-23T10:28:08.0000000+00:00</time></trkpt><trkpt lat="30.6484447" lon="35.63920244"><ele>1441.2</ele><time>2015-11-23T10:28:23.0000000+00:00</time></trkpt><trkpt lat="30.64759361" lon="35.63971273"><ele>1438.3</ele><time>2015-11-23T10:28:40.0000000+00:00</time></trkpt><trkpt lat="30.64725858" lon="35.63994977"><ele>1437.3</ele><time>2015-11-23T10:28:46.0000000+00:00</time></trkpt><trkpt lat="30.64668191" lon="35.64033047"><ele>1435.4</ele><time>2015-11-23T10:28:57.0000000+00:00</time></trkpt><trkpt lat="30.64594824" lon="35.64074479"><ele>1432.5</ele><time>2015-11-23T10:29:09.0000000+00:00</time></trkpt><trkpt lat="30.64558631" lon="35.64085661"><ele>1429.1</ele><time>2015-11-23T10:29:14.0000000+00:00</time></trkpt><trkpt lat="30.64550308" lon="35.6408789"><ele>1429.1</ele><time>2015-11-23T10:29:15.0000000+00:00</time></trkpt><trkpt lat="30.64524542" lon="35.64093892"><ele>1427.2</ele><time>2015-11-23T10:29:18.0000000+00:00</time></trkpt><trkpt lat="30.64507945" lon="35.64099046"><ele>1426.3</ele><time>2015-11-23T10:29:20.0000000+00:00</time></trkpt><trkpt lat="30.64499949" lon="35.64102801"><ele>1425.8</ele><time>2015-11-23T10:29:21.0000000+00:00</time></trkpt><trkpt lat="30.64491961" lon="35.64107294"><ele>1425.3</ele><time>2015-11-23T10:29:22.0000000+00:00</time></trkpt><trkpt lat="30.64484065" lon="35.64112483"><ele>1424.3</ele><time>2015-11-23T10:29:23.0000000+00:00</time></trkpt><trkpt lat="30.64476128" lon="35.64118266"><ele>1422.9</ele><time>2015-11-23T10:29:24.0000000+00:00</time></trkpt><trkpt lat="30.64443078" lon="35.64143496"><ele>1420.0</ele><time>2015-11-23T10:29:28.0000000+00:00</time></trkpt><trkpt lat="30.64417304" lon="35.64163897"><ele>1417.1</ele><time>2015-11-23T10:29:31.0000000+00:00</time></trkpt><trkpt lat="30.64376827" lon="35.64194935"><ele>1414.7</ele><time>2015-11-23T10:29:36.0000000+00:00</time></trkpt><trkpt lat="30.64343794" lon="35.64218245"><ele>1414.7</ele><time>2015-11-23T10:29:41.0000000+00:00</time></trkpt><trkpt lat="30.64302027" lon="35.6423661"><ele>1411.4</ele><time>2015-11-23T10:29:51.0000000+00:00</time></trkpt><trkpt lat="30.6427083" lon="35.64251279"><ele>1409.9</ele><time>2015-11-23T10:29:57.0000000+00:00</time></trkpt><trkpt lat="30.64235911" lon="35.64261815"><ele>1406.6</ele><time>2015-11-23T10:30:02.0000000+00:00</time></trkpt><trkpt lat="30.6422799" lon="35.64264296"><ele>1406.6</ele><time>2015-11-23T10:30:03.0000000+00:00</time></trkpt><trkpt lat="30.64161647" lon="35.64284362"><ele>1403.7</ele><time>2015-11-23T10:30:11.0000000+00:00</time></trkpt><trkpt lat="30.64093385" lon="35.64306767"><ele>1400.3</ele><time>2015-11-23T10:30:20.0000000+00:00</time></trkpt><trkpt lat="30.64057251" lon="35.64317898"><ele>1399.3</ele><time>2015-11-23T10:30:25.0000000+00:00</time></trkpt><trkpt lat="30.6400188" lon="35.64327495"><ele>1396.9</ele><time>2015-11-23T10:30:32.0000000+00:00</time></trkpt><trkpt lat="30.63964538" lon="35.6432628"><ele>1393.6</ele><time>2015-11-23T10:30:36.0000000+00:00</time></trkpt><trkpt lat="30.6390211" lon="35.64326531"><ele>1390.2</ele><time>2015-11-23T10:30:42.0000000+00:00</time></trkpt><trkpt lat="30.63869974" lon="35.64327881"><ele>1387.3</ele><time>2015-11-23T10:30:45.0000000+00:00</time></trkpt><trkpt lat="30.63859471" lon="35.64328476"><ele>1387.3</ele><time>2015-11-23T10:30:46.0000000+00:00</time></trkpt><trkpt lat="30.63797043" lon="35.64328727"><ele>1384.0</ele><time>2015-11-23T10:30:52.0000000+00:00</time></trkpt><trkpt lat="30.63754446" lon="35.64328518"><ele>1381.1</ele><time>2015-11-23T10:30:56.0000000+00:00</time></trkpt><trkpt lat="30.63710575" lon="35.64328107"><ele>1377.7</ele><time>2015-11-23T10:31:00.0000000+00:00</time></trkpt><trkpt lat="30.63658012" lon="35.64328493"><ele>1374.3</ele><time>2015-11-23T10:31:05.0000000+00:00</time></trkpt><trkpt lat="30.6359555" lon="35.64328233"><ele>1371.5</ele><time>2015-11-23T10:31:11.0000000+00:00</time></trkpt><trkpt lat="30.6348242" lon="35.64325651"><ele>1370.5</ele><time>2015-11-23T10:31:24.0000000+00:00</time></trkpt><trkpt lat="30.63393982" lon="35.64313296"><ele>1367.1</ele><time>2015-11-23T10:31:36.0000000+00:00</time></trkpt><trkpt lat="30.63386321" lon="35.64312207"><ele>1366.7</ele><time>2015-11-23T10:31:37.0000000+00:00</time></trkpt><trkpt lat="30.6326382" lon="35.64295342"><ele>1363.8</ele><time>2015-11-23T10:31:54.0000000+00:00</time></trkpt><trkpt lat="30.63159834" lon="35.64279391"><ele>1361.4</ele><time>2015-11-23T10:32:08.0000000+00:00</time></trkpt><trkpt lat="30.63041917" lon="35.64263105"><ele>1361.4</ele><time>2015-11-23T10:32:26.0000000+00:00</time></trkpt><trkpt lat="30.63025614" lon="35.64261077"><ele>1361.4</ele><time>2015-11-23T10:32:29.0000000+00:00</time></trkpt><trkpt lat="30.6296037" lon="35.64255805"><ele>1362.3</ele><time>2015-11-23T10:32:43.0000000+00:00</time></trkpt><trkpt lat="30.62868646" lon="35.64254086"><ele>1361.4</ele><time>2015-11-23T10:33:01.0000000+00:00</time></trkpt><trkpt lat="30.62765691" lon="35.64252108"><ele>1359.9</ele><time>2015-11-23T10:33:20.0000000+00:00</time></trkpt><trkpt lat="30.62686432" lon="35.64251052"><ele>1359.0</ele><time>2015-11-23T10:33:37.0000000+00:00</time></trkpt><trkpt lat="30.62608179" lon="35.64249133"><ele>1356.1</ele><time>2015-11-23T10:33:52.0000000+00:00</time></trkpt><trkpt lat="30.62574928" lon="35.64249175"><ele>1353.2</ele><time>2015-11-23T10:33:57.0000000+00:00</time></trkpt><trkpt lat="30.6249167" lon="35.64248722"><ele>1349.8</ele><time>2015-11-23T10:34:08.0000000+00:00</time></trkpt><trkpt lat="30.62475569" lon="35.64248496"><ele>1348.9</ele><time>2015-11-23T10:34:10.0000000+00:00</time></trkpt><trkpt lat="30.62366428" lon="35.64250734"><ele>1346.0</ele><time>2015-11-23T10:34:25.0000000+00:00</time></trkpt><trkpt lat="30.62347007" lon="35.6424946"><ele>1345.5</ele><time>2015-11-23T10:34:28.0000000+00:00</time></trkpt><trkpt lat="30.62315751" lon="35.64248328"><ele>1345.0</ele><time>2015-11-23T10:34:33.0000000+00:00</time></trkpt><trkpt lat="30.62243734" lon="35.64248596"><ele>1344.1</ele><time>2015-11-23T10:34:46.0000000+00:00</time></trkpt><trkpt lat="30.62193551" lon="35.64249694"><ele>1343.6</ele><time>2015-11-23T10:34:55.0000000+00:00</time></trkpt><trkpt lat="30.62153175" lon="35.64252536"><ele>1340.7</ele><time>2015-11-23T10:35:02.0000000+00:00</time></trkpt><trkpt lat="30.62090563" lon="35.64255369"><ele>1337.3</ele><time>2015-11-23T10:35:12.0000000+00:00</time></trkpt><trkpt lat="30.62060748" lon="35.64257205"><ele>1335.4</ele><time>2015-11-23T10:35:16.0000000+00:00</time></trkpt><trkpt lat="30.62012041" lon="35.64259904"><ele>1331.6</ele><time>2015-11-23T10:35:22.0000000+00:00</time></trkpt><trkpt lat="30.6196651" lon="35.64263734"><ele>1328.2</ele><time>2015-11-23T10:35:27.0000000+00:00</time></trkpt><trkpt lat="30.6191181" lon="35.64268344"><ele>1325.3</ele><time>2015-11-23T10:35:33.0000000+00:00</time></trkpt><trkpt lat="30.61893865" lon="35.64269585"><ele>1324.4</ele><time>2015-11-23T10:35:35.0000000+00:00</time></trkpt><trkpt lat="30.61858233" lon="35.64272468"><ele>1321.5</ele><time>2015-11-23T10:35:39.0000000+00:00</time></trkpt><trkpt lat="30.61831637" lon="35.64273491"><ele>1320.0</ele><time>2015-11-23T10:35:42.0000000+00:00</time></trkpt><trkpt lat="30.61813977" lon="35.64274396"><ele>1318.6</ele><time>2015-11-23T10:35:44.0000000+00:00</time></trkpt><trkpt lat="30.61805025" lon="35.64274907"><ele>1318.1</ele><time>2015-11-23T10:35:45.0000000+00:00</time></trkpt><trkpt lat="30.61796123" lon="35.64275159"><ele>1317.1</ele><time>2015-11-23T10:35:46.0000000+00:00</time></trkpt><trkpt lat="30.61787079" lon="35.64275469"><ele>1316.7</ele><time>2015-11-23T10:35:47.0000000+00:00</time></trkpt><trkpt lat="30.6177801" lon="35.64275653"><ele>1315.7</ele><time>2015-11-23T10:35:48.0000000+00:00</time></trkpt><trkpt lat="30.61768857" lon="35.6427603"><ele>1315.7</ele><time>2015-11-23T10:35:49.0000000+00:00</time></trkpt><trkpt lat="30.61731415" lon="35.64278436"><ele>1311.9</ele><time>2015-11-23T10:35:53.0000000+00:00</time></trkpt><trkpt lat="30.61711692" lon="35.64280096"><ele>1311.4</ele><time>2015-11-23T10:35:55.0000000+00:00</time></trkpt><trkpt lat="30.61612207" lon="35.64287279"><ele>1308.0</ele><time>2015-11-23T10:36:06.0000000+00:00</time></trkpt><trkpt lat="30.61511071" lon="35.64294403"><ele>1305.1</ele><time>2015-11-23T10:36:18.0000000+00:00</time></trkpt><trkpt lat="30.61406876" lon="35.64312324"><ele>1303.7</ele><time>2015-11-23T10:36:30.0000000+00:00</time></trkpt><trkpt lat="30.61331204" lon="35.64349531"><ele>1305.1</ele><time>2015-11-23T10:36:44.0000000+00:00</time></trkpt><trkpt lat="30.61317936" lon="35.6435767"><ele>1305.1</ele><time>2015-11-23T10:36:47.0000000+00:00</time></trkpt><trkpt lat="30.6124736" lon="35.64388298"><ele>1306.6</ele><time>2015-11-23T10:37:04.0000000+00:00</time></trkpt><trkpt lat="30.61193565" lon="35.64389278"><ele>1309.0</ele><time>2015-11-23T10:37:19.0000000+00:00</time></trkpt><trkpt lat="30.61145998" lon="35.64386671"><ele>1310.9</ele><time>2015-11-23T10:37:33.0000000+00:00</time></trkpt><trkpt lat="30.61101171" lon="35.6438611"><ele>1313.8</ele><time>2015-11-23T10:37:49.0000000+00:00</time></trkpt><trkpt lat="30.61048885" lon="35.64396847"><ele>1314.3</ele><time>2015-11-23T10:38:07.0000000+00:00</time></trkpt><trkpt lat="30.60981805" lon="35.64414776"><ele>1314.3</ele><time>2015-11-23T10:38:24.0000000+00:00</time></trkpt><trkpt lat="30.60915579" lon="35.64432202"><ele>1315.2</ele><time>2015-11-23T10:38:41.0000000+00:00</time></trkpt><trkpt lat="30.60834048" lon="35.64452989"><ele>1316.7</ele><time>2015-11-23T10:39:03.0000000+00:00</time></trkpt><trkpt lat="30.60784905" lon="35.64465461"><ele>1316.2</ele><time>2015-11-23T10:39:15.0000000+00:00</time></trkpt><trkpt lat="30.6070283" lon="35.64468278"><ele>1313.8</ele><time>2015-11-23T10:39:30.0000000+00:00</time></trkpt><trkpt lat="30.60643528" lon="35.64466375"><ele>1310.4</ele><time>2015-11-23T10:39:38.0000000+00:00</time></trkpt><trkpt lat="30.60628817" lon="35.64464699"><ele>1309.9</ele><time>2015-11-23T10:39:40.0000000+00:00</time></trkpt><trkpt lat="30.60621466" lon="35.64464799"><ele>1310.4</ele><time>2015-11-23T10:39:41.0000000+00:00</time></trkpt><trkpt lat="30.60614258" lon="35.64465403"><ele>1309.9</ele><time>2015-11-23T10:39:42.0000000+00:00</time></trkpt><trkpt lat="30.606071" lon="35.64466107"><ele>1309.9</ele><time>2015-11-23T10:39:43.0000000+00:00</time></trkpt><trkpt lat="30.60600042" lon="35.64466199"><ele>1309.9</ele><time>2015-11-23T10:39:44.0000000+00:00</time></trkpt><trkpt lat="30.60592943" lon="35.64466123"><ele>1309.0</ele><time>2015-11-23T10:39:45.0000000+00:00</time></trkpt><trkpt lat="30.60531571" lon="35.64462134"><ele>1306.1</ele><time>2015-11-23T10:39:53.0000000+00:00</time></trkpt><trkpt lat="30.60507439" lon="35.64460466"><ele>1305.1</ele><time>2015-11-23T10:39:56.0000000+00:00</time></trkpt><trkpt lat="30.60434399" lon="35.64457356"><ele>1301.8</ele><time>2015-11-23T10:40:05.0000000+00:00</time></trkpt><trkpt lat="30.60321428" lon="35.6445003"><ele>1303.2</ele><time>2015-11-23T10:40:21.0000000+00:00</time></trkpt><trkpt lat="30.60246552" lon="35.64432051"><ele>1302.2</ele><time>2015-11-23T10:40:36.0000000+00:00</time></trkpt><trkpt lat="30.60160353" lon="35.64404273"><ele>1299.8</ele><time>2015-11-23T10:40:51.0000000+00:00</time></trkpt><trkpt lat="30.60057314" lon="35.64369153"><ele>1299.8</ele><time>2015-11-23T10:41:10.0000000+00:00</time></trkpt><trkpt lat="30.59977694" lon="35.64345893"><ele>1298.4</ele><time>2015-11-23T10:41:24.0000000+00:00</time></trkpt><trkpt lat="30.59871186" lon="35.64312668"><ele>1297.4</ele><time>2015-11-23T10:41:42.0000000+00:00</time></trkpt><trkpt lat="30.59757845" lon="35.64276835"><ele>1297.9</ele><time>2015-11-23T10:42:04.0000000+00:00</time></trkpt><trkpt lat="30.59657682" lon="35.64245319"><ele>1297.9</ele><time>2015-11-23T10:42:24.0000000+00:00</time></trkpt><trkpt lat="30.59585162" lon="35.64222545"><ele>1297.4</ele><time>2015-11-23T10:42:38.0000000+00:00</time></trkpt><trkpt lat="30.59474269" lon="35.64186813"><ele>1296.0</ele><time>2015-11-23T10:42:58.0000000+00:00</time></trkpt><trkpt lat="30.59389059" lon="35.64160637"><ele>1297.4</ele><time>2015-11-23T10:43:15.0000000+00:00</time></trkpt><trkpt lat="30.59348574" lon="35.64147754"><ele>1297.9</ele><time>2015-11-23T10:43:25.0000000+00:00</time></trkpt><trkpt lat="30.59344442" lon="35.64146857"><ele>1298.4</ele><time>2015-11-23T10:43:26.0000000+00:00</time></trkpt><trkpt lat="30.59340284" lon="35.64145574"><ele>1297.4</ele><time>2015-11-23T10:43:27.0000000+00:00</time></trkpt><trkpt lat="30.59267789" lon="35.64121309"><ele>1296.5</ele><time>2015-11-23T10:43:45.0000000+00:00</time></trkpt><trkpt lat="30.59194263" lon="35.64095828"><ele>1296.0</ele><time>2015-11-23T10:44:02.0000000+00:00</time></trkpt><trkpt lat="30.59105851" lon="35.6406282"><ele>1294.6</ele><time>2015-11-23T10:44:20.0000000+00:00</time></trkpt><trkpt lat="30.58990566" lon="35.64020466"><ele>1292.2</ele><time>2015-11-23T10:44:41.0000000+00:00</time></trkpt><trkpt lat="30.58890101" lon="35.63983611"><ele>1290.2</ele><time>2015-11-23T10:44:58.0000000+00:00</time></trkpt><trkpt lat="30.58761564" lon="35.63936957"><ele>1287.3</ele><time>2015-11-23T10:45:19.0000000+00:00</time></trkpt><trkpt lat="30.58658056" lon="35.63897545"><ele>1286.4</ele><time>2015-11-23T10:45:37.0000000+00:00</time></trkpt><trkpt lat="30.58566308" lon="35.63863439"><ele>1284.5</ele><time>2015-11-23T10:45:53.0000000+00:00</time></trkpt><trkpt lat="30.5852796" lon="35.63849182"><ele>1283.5</ele><time>2015-11-23T10:46:00.0000000+00:00</time></trkpt><trkpt lat="30.58492212" lon="35.63836299"><ele>1282.1</ele><time>2015-11-23T10:46:07.0000000+00:00</time></trkpt><trkpt lat="30.58402961" lon="35.63803182"><ele>1280.6</ele><time>2015-11-23T10:46:22.0000000+00:00</time></trkpt><trkpt lat="30.58308044" lon="35.63768397"><ele>1281.1</ele><time>2015-11-23T10:46:38.0000000+00:00</time></trkpt><trkpt lat="30.58226028" lon="35.63732497"><ele>1280.1</ele><time>2015-11-23T10:46:55.0000000+00:00</time></trkpt><trkpt lat="30.58138956" lon="35.63692298"><ele>1278.7</ele><time>2015-11-23T10:47:12.0000000+00:00</time></trkpt><trkpt lat="30.58059571" lon="35.63656013"><ele>1277.7</ele><time>2015-11-23T10:47:28.0000000+00:00</time></trkpt><trkpt lat="30.5798628" lon="35.63619887"><ele>1277.3</ele><time>2015-11-23T10:47:45.0000000+00:00</time></trkpt><trkpt lat="30.57896451" lon="35.63576854"><ele>1277.3</ele><time>2015-11-23T10:48:04.0000000+00:00</time></trkpt><trkpt lat="30.57878933" lon="35.6356843"><ele>1277.3</ele><time>2015-11-23T10:48:08.0000000+00:00</time></trkpt><trkpt lat="30.5787506" lon="35.63566167"><ele>1277.7</ele><time>2015-11-23T10:48:09.0000000+00:00</time></trkpt><trkpt lat="30.57813596" lon="35.63533469"><ele>1277.7</ele><time>2015-11-23T10:48:25.0000000+00:00</time></trkpt><trkpt lat="30.57774142" lon="35.63515373"><ele>1278.2</ele><time>2015-11-23T10:48:37.0000000+00:00</time></trkpt><trkpt lat="30.57737631" lon="35.63497595"><ele>1278.7</ele><time>2015-11-23T10:48:50.0000000+00:00</time></trkpt><trkpt lat="30.57686317" lon="35.63473212"><ele>1278.2</ele><time>2015-11-23T10:49:05.0000000+00:00</time></trkpt><trkpt lat="30.57614123" lon="35.63438687"><ele>1277.3</ele><time>2015-11-23T10:49:24.0000000+00:00</time></trkpt><trkpt lat="30.57539684" lon="35.6340422"><ele>1276.8</ele><time>2015-11-23T10:49:43.0000000+00:00</time></trkpt><trkpt lat="30.57452244" lon="35.63361322"><ele>1276.8</ele><time>2015-11-23T10:50:04.0000000+00:00</time></trkpt><trkpt lat="30.57366489" lon="35.63319379"><ele>1276.3</ele><time>2015-11-23T10:50:24.0000000+00:00</time></trkpt><trkpt lat="30.57301965" lon="35.63287125"><ele>1276.8</ele><time>2015-11-23T10:50:39.0000000+00:00</time></trkpt><trkpt lat="30.57294094" lon="35.63283831"><ele>1276.8</ele><time>2015-11-23T10:50:41.0000000+00:00</time></trkpt><trkpt lat="30.57231909" lon="35.63254762"><ele>1277.7</ele><time>2015-11-23T10:50:58.0000000+00:00</time></trkpt><trkpt lat="30.5720082" lon="35.63240823"><ele>1276.8</ele><time>2015-11-23T10:51:12.0000000+00:00</time></trkpt><trkpt lat="30.5714146" lon="35.63213959"><ele>1276.3</ele><time>2015-11-23T10:51:29.0000000+00:00</time></trkpt><trkpt lat="30.57067171" lon="35.6318329"><ele>1273.9</ele><time>2015-11-23T10:51:46.0000000+00:00</time></trkpt><trkpt lat="30.56993796" lon="35.63156753"><ele>1272.9</ele><time>2015-11-23T10:52:04.0000000+00:00</time></trkpt><trkpt lat="30.56981734" lon="35.63153652"><ele>1272.9</ele><time>2015-11-23T10:52:07.0000000+00:00</time></trkpt><trkpt lat="30.56977652" lon="35.63152235"><ele>1272.9</ele><time>2015-11-23T10:52:08.0000000+00:00</time></trkpt><trkpt lat="30.56948206" lon="35.63143501"><ele>1272.0</ele><time>2015-11-23T10:52:15.0000000+00:00</time></trkpt><trkpt lat="30.56943538" lon="35.63142219"><ele>1271.5</ele><time>2015-11-23T10:52:16.0000000+00:00</time></trkpt><trkpt lat="30.56875451" lon="35.6312258"><ele>1271.0</ele><time>2015-11-23T10:52:31.0000000+00:00</time></trkpt><trkpt lat="30.56787676" lon="35.63095079"><ele>1269.6</ele><time>2015-11-23T10:52:50.0000000+00:00</time></trkpt><trkpt lat="30.56693137" lon="35.63068517"><ele>1266.7</ele><time>2015-11-23T10:53:08.0000000+00:00</time></trkpt><trkpt lat="30.56593593" lon="35.63041401"><ele>1266.2</ele><time>2015-11-23T10:53:26.0000000+00:00</time></trkpt><trkpt lat="30.56513982" lon="35.63019415"><ele>1268.1</ele><time>2015-11-23T10:53:44.0000000+00:00</time></trkpt><trkpt lat="30.56453154" lon="35.63004429"><ele>1268.6</ele><time>2015-11-23T10:54:03.0000000+00:00</time></trkpt><trkpt lat="30.56402519" lon="35.62991244"><ele>1268.6</ele><time>2015-11-23T10:54:20.0000000+00:00</time></trkpt><trkpt lat="30.56351859" lon="35.62977003"><ele>1266.7</ele><time>2015-11-23T10:54:33.0000000+00:00</time></trkpt><trkpt lat="30.56347073" lon="35.62975553"><ele>1266.7</ele><time>2015-11-23T10:54:34.0000000+00:00</time></trkpt><trkpt lat="30.56255694" lon="35.62951555"><ele>1263.8</ele><time>2015-11-23T10:54:48.0000000+00:00</time></trkpt><trkpt lat="30.56175563" lon="35.62929603"><ele>1260.4</ele><time>2015-11-23T10:54:58.0000000+00:00</time></trkpt><trkpt lat="30.56075198" lon="35.62900669"><ele>1257.1</ele><time>2015-11-23T10:55:10.0000000+00:00</time></trkpt><trkpt lat="30.55969711" lon="35.62877359"><ele>1258.0</ele><time>2015-11-23T10:55:25.0000000+00:00</time></trkpt><trkpt lat="30.55900888" lon="35.62870209"><ele>1260.4</ele><time>2015-11-23T10:55:40.0000000+00:00</time></trkpt><trkpt lat="30.55835769" lon="35.62862095"><ele>1261.9</ele><time>2015-11-23T10:55:59.0000000+00:00</time></trkpt><trkpt lat="30.55789358" lon="35.62858826"><ele>1263.3</ele><time>2015-11-23T10:56:15.0000000+00:00</time></trkpt><trkpt lat="30.55748622" lon="35.62854082"><ele>1264.8</ele><time>2015-11-23T10:56:29.0000000+00:00</time></trkpt><trkpt lat="30.55677082" lon="35.62845902"><ele>1267.2</ele><time>2015-11-23T10:56:51.0000000+00:00</time></trkpt><trkpt lat="30.55618862" lon="35.62838375"><ele>1268.6</ele><time>2015-11-23T10:57:09.0000000+00:00</time></trkpt><trkpt lat="30.55609684" lon="35.62837612"><ele>1271.5</ele><time>2015-11-23T10:57:12.0000000+00:00</time></trkpt><trkpt lat="30.55606666" lon="35.62837159"><ele>1268.6</ele><time>2015-11-23T10:57:13.0000000+00:00</time></trkpt><trkpt lat="30.55576835" lon="35.62832583"><ele>1268.1</ele><time>2015-11-23T10:57:26.0000000+00:00</time></trkpt><trkpt lat="30.5557608" lon="35.62833496"><ele>1268.6</ele><time>2015-11-23T10:57:38.0000000+00:00</time></trkpt><trkpt lat="30.55573323" lon="35.62835181"><ele>1268.1</ele><time>2015-11-23T10:57:41.0000000+00:00</time></trkpt><trkpt lat="30.55571873" lon="35.62835114"><ele>1268.1</ele><time>2015-11-23T10:57:42.0000000+00:00</time></trkpt><trkpt lat="30.5557033" lon="35.62834611"><ele>1268.1</ele><time>2015-11-23T10:57:43.0000000+00:00</time></trkpt><trkpt lat="30.55568369" lon="35.62834108"><ele>1268.1</ele><time>2015-11-23T10:57:44.0000000+00:00</time></trkpt><trkpt lat="30.5556624" lon="35.6283384"><ele>1268.1</ele><time>2015-11-23T10:57:45.0000000+00:00</time></trkpt><trkpt lat="30.55541773" lon="35.62829196"><ele>1267.6</ele><time>2015-11-23T10:57:57.0000000+00:00</time></trkpt><trkpt lat="30.55541329" lon="35.62829817"><ele>1267.6</ele><time>2015-11-23T10:58:13.0000000+00:00</time></trkpt><trkpt lat="30.55542461" lon="35.62830043"><ele>1267.6</ele><time>2015-11-23T10:58:38.0000000+00:00</time></trkpt><trkpt lat="30.55541346" lon="35.62828702"><ele>1267.2</ele><time>2015-11-23T10:59:01.0000000+00:00</time></trkpt><trkpt lat="30.55540935" lon="35.62828107"><ele>1266.7</ele><time>2015-11-23T10:59:34.0000000+00:00</time></trkpt><trkpt lat="30.55541614" lon="35.62827688"><ele>1267.2</ele><time>2015-11-23T11:00:07.0000000+00:00</time></trkpt><trkpt lat="30.55542184" lon="35.62827034"><ele>1267.2</ele><time>2015-11-23T11:00:47.0000000+00:00</time></trkpt><trkpt lat="30.55542125" lon="35.6282628"><ele>1266.7</ele><time>2015-11-23T11:01:19.0000000+00:00</time></trkpt><trkpt lat="30.55541966" lon="35.62827461"><ele>1266.7</ele><time>2015-11-23T11:01:49.0000000+00:00</time></trkpt><trkpt lat="30.5554169" lon="35.62826967"><ele>1266.7</ele><time>2015-11-23T11:02:34.0000000+00:00</time></trkpt><trkpt lat="30.55541941" lon="35.6282638"><ele>1266.7</ele><time>2015-11-23T11:03:03.0000000+00:00</time></trkpt><trkpt lat="30.55541321" lon="35.62825953"><ele>1266.7</ele><time>2015-11-23T11:03:39.0000000+00:00</time></trkpt><trkpt lat="30.5554148" lon="35.62826917"><ele>1266.7</ele><time>2015-11-23T11:04:18.0000000+00:00</time></trkpt><trkpt lat="30.5554096" lon="35.62826657"><ele>1266.2</ele><time>2015-11-23T11:05:07.0000000+00:00</time></trkpt><trkpt lat="30.5554086" lon="35.62826883"><ele>1266.2</ele><time>2015-11-23T11:05:42.0000000+00:00</time></trkpt><trkpt lat="30.55541128" lon="35.62827369"><ele>1265.7</ele><time>2015-11-23T11:06:27.0000000+00:00</time></trkpt><trkpt lat="30.555407" lon="35.6282638"><ele>1265.7</ele><time>2015-11-23T11:07:07.0000000+00:00</time></trkpt><trkpt lat="30.55541078" lon="35.62826732"><ele>1265.2</ele><time>2015-11-23T11:07:53.0000000+00:00</time></trkpt><trkpt lat="30.55541145" lon="35.62826481"><ele>1265.2</ele><time>2015-11-23T11:08:46.0000000+00:00</time></trkpt><trkpt lat="30.55541673" lon="35.62831032"><ele>1264.8</ele><time>2015-11-23T11:09:29.0000000+00:00</time></trkpt><trkpt lat="30.55542209" lon="35.62831401"><ele>1264.8</ele><time>2015-11-23T11:10:26.0000000+00:00</time></trkpt><trkpt lat="30.55541891" lon="35.62831636"><ele>1264.8</ele><time>2015-11-23T11:11:10.0000000+00:00</time></trkpt><trkpt lat="30.55541145" lon="35.6283218"><ele>1264.3</ele><time>2015-11-23T11:11:58.0000000+00:00</time></trkpt><trkpt lat="30.55540801" lon="35.6283146"><ele>1264.8</ele><time>2015-11-23T11:12:39.0000000+00:00</time></trkpt><trkpt lat="30.55541346" lon="35.62831786"><ele>1264.8</ele><time>2015-11-23T11:13:29.0000000+00:00</time></trkpt><trkpt lat="30.5554143" lon="35.6283234"><ele>1264.8</ele><time>2015-11-23T11:14:06.0000000+00:00</time></trkpt><trkpt lat="30.55540826" lon="35.62832516"><ele>1265.2</ele><time>2015-11-23T11:14:43.0000000+00:00</time></trkpt><trkpt lat="30.55541245" lon="35.62831879"><ele>1265.2</ele><time>2015-11-23T11:15:18.0000000+00:00</time></trkpt><trkpt lat="30.55541723" lon="35.62831543"><ele>1264.8</ele><time>2015-11-23T11:16:08.0000000+00:00</time></trkpt><trkpt lat="30.55541337" lon="35.62832004"><ele>1264.8</ele><time>2015-11-23T11:16:48.0000000+00:00</time></trkpt><trkpt lat="30.55542335" lon="35.62831024"><ele>1264.8</ele><time>2015-11-23T11:17:35.0000000+00:00</time></trkpt><trkpt lat="30.55542318" lon="35.6283068"><ele>1264.8</ele><time>2015-11-23T11:18:15.0000000+00:00</time></trkpt><trkpt lat="30.55541773" lon="35.62831426"><ele>1264.3</ele><time>2015-11-23T11:18:57.0000000+00:00</time></trkpt><trkpt lat="30.55541731" lon="35.62831309"><ele>1264.3</ele><time>2015-11-23T11:19:45.0000000+00:00</time></trkpt><trkpt lat="30.55542125" lon="35.62831233"><ele>1263.8</ele><time>2015-11-23T11:20:21.0000000+00:00</time></trkpt><trkpt lat="30.55541405" lon="35.62831275"><ele>1263.8</ele><time>2015-11-23T11:20:52.0000000+00:00</time></trkpt><trkpt lat="30.55541648" lon="35.62831317"><ele>1264.3</ele><time>2015-11-23T11:21:29.0000000+00:00</time></trkpt><trkpt lat="30.55541321" lon="35.62830755"><ele>1264.3</ele><time>2015-11-23T11:21:49.0000000+00:00</time></trkpt><trkpt lat="30.55540524" lon="35.62832097"><ele>1263.8</ele><time>2015-11-23T11:22:20.0000000+00:00</time></trkpt><trkpt lat="30.55539259" lon="35.62832717"><ele>1263.8</ele><time>2015-11-23T11:22:22.0000000+00:00</time></trkpt><trkpt lat="30.55537951" lon="35.62833396"><ele>1264.3</ele><time>2015-11-23T11:22:23.0000000+00:00</time></trkpt><trkpt lat="30.55536551" lon="35.62833496"><ele>1263.8</ele><time>2015-11-23T11:22:24.0000000+00:00</time></trkpt><trkpt lat="30.5553511" lon="35.62833262"><ele>1263.8</ele><time>2015-11-23T11:22:25.0000000+00:00</time></trkpt><trkpt lat="30.55533618" lon="35.62833128"><ele>1263.8</ele><time>2015-11-23T11:22:26.0000000+00:00</time></trkpt><trkpt lat="30.55531925" lon="35.62833111"><ele>1263.8</ele><time>2015-11-23T11:22:27.0000000+00:00</time></trkpt><trkpt lat="30.555133" lon="35.62830504"><ele>1263.8</ele><time>2015-11-23T11:22:36.0000000+00:00</time></trkpt><trkpt lat="30.55512093" lon="35.62829833"><ele>1263.3</ele><time>2015-11-23T11:22:37.0000000+00:00</time></trkpt><trkpt lat="30.55509084" lon="35.62829037"><ele>1263.3</ele><time>2015-11-23T11:22:47.0000000+00:00</time></trkpt><trkpt lat="30.5550926" lon="35.62829037"><ele>1262.8</ele><time>2015-11-23T11:23:12.0000000+00:00</time></trkpt><trkpt lat="30.55508187" lon="35.62827713"><ele>1262.8</ele><time>2015-11-23T11:23:51.0000000+00:00</time></trkpt><trkpt lat="30.55506427" lon="35.62828576"><ele>1262.8</ele><time>2015-11-23T11:23:55.0000000+00:00</time></trkpt><trkpt lat="30.55481885" lon="35.62826355"><ele>1262.8</ele><time>2015-11-23T11:24:09.0000000+00:00</time></trkpt><trkpt lat="30.55435558" lon="35.62822893"><ele>1261.4</ele><time>2015-11-23T11:24:27.0000000+00:00</time></trkpt><trkpt lat="30.55403028" lon="35.62819264"><ele>1260.9</ele><time>2015-11-23T11:24:38.0000000+00:00</time></trkpt><trkpt lat="30.55358704" lon="35.62814956"><ele>1259.9</ele><time>2015-11-23T11:24:52.0000000+00:00</time></trkpt><trkpt lat="30.55300123" lon="35.62808577"><ele>1258.5</ele><time>2015-11-23T11:25:04.0000000+00:00</time></trkpt><trkpt lat="30.55195668" lon="35.62797186"><ele>1258.0</ele><time>2015-11-23T11:25:23.0000000+00:00</time></trkpt><trkpt lat="30.55159341" lon="35.62793515"><ele>1258.0</ele><time>2015-11-23T11:25:31.0000000+00:00</time></trkpt><trkpt lat="30.55154873" lon="35.62792928"><ele>1258.0</ele><time>2015-11-23T11:25:32.0000000+00:00</time></trkpt><trkpt lat="30.55094867" lon="35.62787404"><ele>1258.0</ele><time>2015-11-23T11:25:45.0000000+00:00</time></trkpt><trkpt lat="30.55029186" lon="35.62786541"><ele>1258.5</ele><time>2015-11-23T11:26:02.0000000+00:00</time></trkpt><trkpt lat="30.54982876" lon="35.62789525"><ele>1260.4</ele><time>2015-11-23T11:26:17.0000000+00:00</time></trkpt><trkpt lat="30.54920431" lon="35.62796507"><ele>1262.8</ele><time>2015-11-23T11:26:40.0000000+00:00</time></trkpt><trkpt lat="30.54865111" lon="35.62807194"><ele>1263.3</ele><time>2015-11-23T11:27:01.0000000+00:00</time></trkpt><trkpt lat="30.54815364" lon="35.62820555"><ele>1264.3</ele><time>2015-11-23T11:27:19.0000000+00:00</time></trkpt><trkpt lat="30.54761946" lon="35.62839313"><ele>1265.2</ele><time>2015-11-23T11:27:37.0000000+00:00</time></trkpt><trkpt lat="30.54706106" lon="35.62860805"><ele>1266.2</ele><time>2015-11-23T11:27:56.0000000+00:00</time></trkpt><trkpt lat="30.54636461" lon="35.62888985"><ele>1267.2</ele><time>2015-11-23T11:28:20.0000000+00:00</time></trkpt><trkpt lat="30.54580503" lon="35.629074"><ele>1267.2</ele><time>2015-11-23T11:28:37.0000000+00:00</time></trkpt><trkpt lat="30.54509894" lon="35.62916469"><ele>1267.2</ele><time>2015-11-23T11:28:57.0000000+00:00</time></trkpt><trkpt lat="30.54433694" lon="35.62909244"><ele>1266.2</ele><time>2015-11-23T11:29:14.0000000+00:00</time></trkpt><trkpt lat="30.54333203" lon="35.62894944"><ele>1265.7</ele><time>2015-11-23T11:29:35.0000000+00:00</time></trkpt><trkpt lat="30.54328359" lon="35.62894332"><ele>1265.2</ele><time>2015-11-23T11:29:36.0000000+00:00</time></trkpt><trkpt lat="30.54323548" lon="35.62893653"><ele>1265.7</ele><time>2015-11-23T11:29:37.0000000+00:00</time></trkpt><trkpt lat="30.54242545" lon="35.62879832"><ele>1265.2</ele><time>2015-11-23T11:29:56.0000000+00:00</time></trkpt><trkpt lat="30.5423858" lon="35.62879069"><ele>1265.2</ele><time>2015-11-23T11:29:57.0000000+00:00</time></trkpt><trkpt lat="30.54208514" lon="35.62875506"><ele>1264.8</ele><time>2015-11-23T11:30:04.0000000+00:00</time></trkpt><trkpt lat="30.5415451" lon="35.62865524"><ele>1264.8</ele><time>2015-11-23T11:30:21.0000000+00:00</time></trkpt><trkpt lat="30.54135927" lon="35.62855792"><ele>1265.2</ele><time>2015-11-23T11:30:35.0000000+00:00</time></trkpt><trkpt lat="30.5411172" lon="35.62842214"><ele>1264.8</ele><time>2015-11-23T11:30:49.0000000+00:00</time></trkpt><trkpt lat="30.54099659" lon="35.62833387"><ele>1265.2</ele><time>2015-11-23T11:31:02.0000000+00:00</time></trkpt><trkpt lat="30.54098669" lon="35.6283446"><ele>1265.2</ele><time>2015-11-23T11:31:18.0000000+00:00</time></trkpt><trkpt lat="30.54097429" lon="35.62833396"><ele>1264.8</ele><time>2015-11-23T11:31:19.0000000+00:00</time></trkpt><trkpt lat="30.54069802" lon="35.62804269"><ele>1264.8</ele><time>2015-11-23T11:31:30.0000000+00:00</time></trkpt><trkpt lat="30.54027926" lon="35.62742762"><ele>1265.2</ele><time>2015-11-23T11:31:48.0000000+00:00</time></trkpt><trkpt lat="30.54003795" lon="35.62705966"><ele>1265.7</ele><time>2015-11-23T11:32:03.0000000+00:00</time></trkpt><trkpt lat="30.53981566" lon="35.6266927"><ele>1266.2</ele><time>2015-11-23T11:32:18.0000000+00:00</time></trkpt><trkpt lat="30.53958708" lon="35.62637595"><ele>1266.7</ele><time>2015-11-23T11:32:33.0000000+00:00</time></trkpt><trkpt lat="30.53942565" lon="35.62617998"><ele>1266.7</ele><time>2015-11-23T11:32:47.0000000+00:00</time></trkpt><trkpt lat="30.53921107" lon="35.62595316"><ele>1267.2</ele><time>2015-11-23T11:33:02.0000000+00:00</time></trkpt><trkpt lat="30.53895811" lon="35.62566675"><ele>1267.2</ele><time>2015-11-23T11:33:14.0000000+00:00</time></trkpt><trkpt lat="30.53846341" lon="35.62512813"><ele>1266.7</ele><time>2015-11-23T11:33:30.0000000+00:00</time></trkpt><trkpt lat="30.53778498" lon="35.62439136"><ele>1267.6</ele><time>2015-11-23T11:33:51.0000000+00:00</time></trkpt><trkpt lat="30.5377522" lon="35.62435926"><ele>1267.6</ele><time>2015-11-23T11:33:52.0000000+00:00</time></trkpt><trkpt lat="30.53771901" lon="35.62432707"><ele>1267.6</ele><time>2015-11-23T11:33:53.0000000+00:00</time></trkpt><trkpt lat="30.53712733" lon="35.62368963"><ele>1269.1</ele><time>2015-11-23T11:34:13.0000000+00:00</time></trkpt><trkpt lat="30.53662115" lon="35.62315092"><ele>1270.5</ele><time>2015-11-23T11:34:32.0000000+00:00</time></trkpt><trkpt lat="30.53602251" lon="35.62250258"><ele>1272.9</ele><time>2015-11-23T11:34:55.0000000+00:00</time></trkpt><trkpt lat="30.53549613" lon="35.62192767"><ele>1274.4</ele><time>2015-11-23T11:35:15.0000000+00:00</time></trkpt><trkpt lat="30.53500989" lon="35.62140439"><ele>1275.8</ele><time>2015-11-23T11:35:33.0000000+00:00</time></trkpt><trkpt lat="30.53443951" lon="35.62080475"><ele>1276.8</ele><time>2015-11-23T11:35:54.0000000+00:00</time></trkpt><trkpt lat="30.53396459" lon="35.62029202"><ele>1277.7</ele><time>2015-11-23T11:36:12.0000000+00:00</time></trkpt><trkpt lat="30.53350501" lon="35.61979397"><ele>1278.2</ele><time>2015-11-23T11:36:29.0000000+00:00</time></trkpt><trkpt lat="30.53290034" lon="35.61915779"><ele>1279.2</ele><time>2015-11-23T11:36:50.0000000+00:00</time></trkpt><trkpt lat="30.53234998" lon="35.61856896"><ele>1280.1</ele><time>2015-11-23T11:37:08.0000000+00:00</time></trkpt><trkpt lat="30.53232056" lon="35.61853652"><ele>1280.1</ele><time>2015-11-23T11:37:09.0000000+00:00</time></trkpt><trkpt lat="30.53199534" lon="35.61817425"><ele>1280.6</ele><time>2015-11-23T11:37:23.0000000+00:00</time></trkpt><trkpt lat="30.53161799" lon="35.617569"><ele>1281.1</ele><time>2015-11-23T11:37:40.0000000+00:00</time></trkpt><trkpt lat="30.53137215" lon="35.61693692"><ele>1282.1</ele><time>2015-11-23T11:37:55.0000000+00:00</time></trkpt><trkpt lat="30.53135723" lon="35.61689224"><ele>1282.1</ele><time>2015-11-23T11:37:56.0000000+00:00</time></trkpt><trkpt lat="30.53118984" lon="35.61617433"><ele>1284.5</ele><time>2015-11-23T11:38:14.0000000+00:00</time></trkpt><trkpt lat="30.53101667" lon="35.61540881"><ele>1285.4</ele><time>2015-11-23T11:38:35.0000000+00:00</time></trkpt><trkpt lat="30.53090477" lon="35.61495141"><ele>1284.9</ele><time>2015-11-23T11:38:48.0000000+00:00</time></trkpt><trkpt lat="30.53080117" lon="35.61451874"><ele>1285.4</ele><time>2015-11-23T11:38:58.0000000+00:00</time></trkpt><trkpt lat="30.53061845" lon="35.61371818"><ele>1287.3</ele><time>2015-11-23T11:39:16.0000000+00:00</time></trkpt><trkpt lat="30.53047026" lon="35.61306255"><ele>1289.8</ele><time>2015-11-23T11:39:34.0000000+00:00</time></trkpt><trkpt lat="30.53032458" lon="35.61249543"><ele>1291.7</ele><time>2015-11-23T11:39:51.0000000+00:00</time></trkpt><trkpt lat="30.53019449" lon="35.6119786"><ele>1293.1</ele><time>2015-11-23T11:40:08.0000000+00:00</time></trkpt><trkpt lat="30.53018343" lon="35.61186746"><ele>1294.1</ele><time>2015-11-23T11:40:19.0000000+00:00</time></trkpt><trkpt lat="30.53019332" lon="35.61186318"><ele>1292.2</ele><time>2015-11-23T11:40:41.0000000+00:00</time></trkpt><trkpt lat="30.53020354" lon="35.61184592"><ele>1292.2</ele><time>2015-11-23T11:41:15.0000000+00:00</time></trkpt><trkpt lat="30.53020765" lon="35.6118434"><ele>1291.7</ele><time>2015-11-23T11:41:54.0000000+00:00</time></trkpt><trkpt lat="30.53021167" lon="35.61184583"><ele>1292.2</ele><time>2015-11-23T11:42:35.0000000+00:00</time></trkpt><trkpt lat="30.53020623" lon="35.61184005"><ele>1291.7</ele><time>2015-11-23T11:43:14.0000000+00:00</time></trkpt><trkpt lat="30.53020203" lon="35.61184089"><ele>1291.7</ele><time>2015-11-23T11:43:46.0000000+00:00</time></trkpt><trkpt lat="30.53018913" lon="35.61184332"><ele>1292.2</ele><time>2015-11-23T11:44:15.0000000+00:00</time></trkpt><trkpt lat="30.53019701" lon="35.61184072"><ele>1292.2</ele><time>2015-11-23T11:44:43.0000000+00:00</time></trkpt><trkpt lat="30.53017018" lon="35.61183686"><ele>1291.7</ele><time>2015-11-23T11:45:22.0000000+00:00</time></trkpt><trkpt lat="30.53015744" lon="35.61184969"><ele>1292.2</ele><time>2015-11-23T11:45:53.0000000+00:00</time></trkpt><trkpt lat="30.53014537" lon="35.61185589"><ele>1291.7</ele><time>2015-11-23T11:46:28.0000000+00:00</time></trkpt><trkpt lat="30.53015962" lon="35.61183787"><ele>1291.7</ele><time>2015-11-23T11:46:48.0000000+00:00</time></trkpt><trkpt lat="30.53014621" lon="35.61184634"><ele>1291.7</ele><time>2015-11-23T11:47:34.0000000+00:00</time></trkpt><trkpt lat="30.53014345" lon="35.61182396"><ele>1292.2</ele><time>2015-11-23T11:47:52.0000000+00:00</time></trkpt><trkpt lat="30.53011285" lon="35.61181038"><ele>1292.2</ele><time>2015-11-23T11:48:18.0000000+00:00</time></trkpt><trkpt lat="30.53010573" lon="35.61177517"><ele>1292.2</ele><time>2015-11-23T11:48:23.0000000+00:00</time></trkpt><trkpt lat="30.5301012" lon="35.61176034"><ele>1292.2</ele><time>2015-11-23T11:48:24.0000000+00:00</time></trkpt><trkpt lat="30.53009676" lon="35.61174634"><ele>1292.2</ele><time>2015-11-23T11:48:25.0000000+00:00</time></trkpt><trkpt lat="30.53009332" lon="35.61173351"><ele>1291.7</ele><time>2015-11-23T11:48:26.0000000+00:00</time></trkpt><trkpt lat="30.53009039" lon="35.61172002"><ele>1291.7</ele><time>2015-11-23T11:48:27.0000000+00:00</time></trkpt><trkpt lat="30.53008913" lon="35.61170485"><ele>1291.7</ele><time>2015-11-23T11:48:28.0000000+00:00</time></trkpt><trkpt lat="30.53008687" lon="35.61169152"><ele>1291.7</ele><time>2015-11-23T11:48:29.0000000+00:00</time></trkpt><trkpt lat="30.5300862" lon="35.61167819"><ele>1291.7</ele><time>2015-11-23T11:48:30.0000000+00:00</time></trkpt><trkpt lat="30.53008578" lon="35.61166428"><ele>1291.7</ele><time>2015-11-23T11:48:31.0000000+00:00</time></trkpt><trkpt lat="30.53008209" lon="35.6116507"><ele>1291.7</ele><time>2015-11-23T11:48:32.0000000+00:00</time></trkpt><trkpt lat="30.5300758" lon="35.61163813"><ele>1291.7</ele><time>2015-11-23T11:48:33.0000000+00:00</time></trkpt><trkpt lat="30.53006977" lon="35.61162706"><ele>1292.2</ele><time>2015-11-23T11:48:34.0000000+00:00</time></trkpt><trkpt lat="30.53006072" lon="35.61160192"><ele>1291.7</ele><time>2015-11-23T11:48:36.0000000+00:00</time></trkpt><trkpt lat="30.53006055" lon="35.61158692"><ele>1291.7</ele><time>2015-11-23T11:48:37.0000000+00:00</time></trkpt><trkpt lat="30.53005912" lon="35.61157141"><ele>1291.7</ele><time>2015-11-23T11:48:38.0000000+00:00</time></trkpt><trkpt lat="30.53005284" lon="35.61155599"><ele>1291.7</ele><time>2015-11-23T11:48:39.0000000+00:00</time></trkpt><trkpt lat="30.53004437" lon="35.61154157"><ele>1291.7</ele><time>2015-11-23T11:48:40.0000000+00:00</time></trkpt><trkpt lat="30.53003549" lon="35.61152891"><ele>1291.7</ele><time>2015-11-23T11:48:41.0000000+00:00</time></trkpt><trkpt lat="30.53002593" lon="35.61151919"><ele>1292.2</ele><time>2015-11-23T11:48:42.0000000+00:00</time></trkpt><trkpt lat="30.53001755" lon="35.61150821"><ele>1292.2</ele><time>2015-11-23T11:48:43.0000000+00:00</time></trkpt><trkpt lat="30.53001571" lon="35.61149505"><ele>1291.7</ele><time>2015-11-23T11:48:44.0000000+00:00</time></trkpt><trkpt lat="30.53002191" lon="35.61148139"><ele>1291.7</ele><time>2015-11-23T11:48:45.0000000+00:00</time></trkpt><trkpt lat="30.5300318" lon="35.61146856"><ele>1291.7</ele><time>2015-11-23T11:48:46.0000000+00:00</time></trkpt><trkpt lat="30.53003733" lon="35.61145306"><ele>1291.7</ele><time>2015-11-23T11:48:47.0000000+00:00</time></trkpt><trkpt lat="30.53003565" lon="35.61143587"><ele>1291.7</ele><time>2015-11-23T11:48:48.0000000+00:00</time></trkpt><trkpt lat="30.53003146" lon="35.61141903"><ele>1291.7</ele><time>2015-11-23T11:48:49.0000000+00:00</time></trkpt><trkpt lat="30.53002736" lon="35.6114026"><ele>1291.7</ele><time>2015-11-23T11:48:50.0000000+00:00</time></trkpt><trkpt lat="30.53002073" lon="35.61138583"><ele>1291.7</ele><time>2015-11-23T11:48:51.0000000+00:00</time></trkpt><trkpt lat="30.53001562" lon="35.61136773"><ele>1291.7</ele><time>2015-11-23T11:48:52.0000000+00:00</time></trkpt><trkpt lat="30.52990657" lon="35.61095953"><ele>1291.2</ele><time>2015-11-23T11:49:10.0000000+00:00</time></trkpt><trkpt lat="30.52980959" lon="35.61059894"><ele>1291.2</ele><time>2015-11-23T11:49:25.0000000+00:00</time></trkpt><trkpt lat="30.52970465" lon="35.61027146"><ele>1291.2</ele><time>2015-11-23T11:49:39.0000000+00:00</time></trkpt><trkpt lat="30.5296521" lon="35.61007046"><ele>1291.7</ele><time>2015-11-23T11:49:52.0000000+00:00</time></trkpt><trkpt lat="30.52964212" lon="35.61002025"><ele>1291.7</ele><time>2015-11-23T11:49:55.0000000+00:00</time></trkpt><trkpt lat="30.52963609" lon="35.61000927"><ele>1291.7</ele><time>2015-11-23T11:49:56.0000000+00:00</time></trkpt><trkpt lat="30.52963106" lon="35.60999611"><ele>1291.7</ele><time>2015-11-23T11:49:57.0000000+00:00</time></trkpt><trkpt lat="30.52962704" lon="35.60997851"><ele>1291.2</ele><time>2015-11-23T11:49:58.0000000+00:00</time></trkpt><trkpt lat="30.52962125" lon="35.60995772"><ele>1291.2</ele><time>2015-11-23T11:49:59.0000000+00:00</time></trkpt><trkpt lat="30.52959024" lon="35.60981171"><ele>1291.7</ele><time>2015-11-23T11:50:10.0000000+00:00</time></trkpt><trkpt lat="30.52957767" lon="35.60981297"><ele>1291.2</ele><time>2015-11-23T11:50:32.0000000+00:00</time></trkpt><trkpt lat="30.52957213" lon="35.60980392"><ele>1290.7</ele><time>2015-11-23T11:51:04.0000000+00:00</time></trkpt><trkpt lat="30.52956543" lon="35.60977517"><ele>1291.2</ele><time>2015-11-23T11:51:39.0000000+00:00</time></trkpt><trkpt lat="30.52950919" lon="35.60951223"><ele>1291.2</ele><time>2015-11-23T11:51:52.0000000+00:00</time></trkpt><trkpt lat="30.52946853" lon="35.60926203"><ele>1292.2</ele><time>2015-11-23T11:52:05.0000000+00:00</time></trkpt><trkpt lat="30.52940743" lon="35.60877663"><ele>1292.2</ele><time>2015-11-23T11:52:22.0000000+00:00</time></trkpt><trkpt lat="30.52933551" lon="35.60821865"><ele>1293.6</ele><time>2015-11-23T11:52:40.0000000+00:00</time></trkpt><trkpt lat="30.52925186" lon="35.60762638"><ele>1295.5</ele><time>2015-11-23T11:52:59.0000000+00:00</time></trkpt><trkpt lat="30.5291957" lon="35.60705264"><ele>1297.4</ele><time>2015-11-23T11:53:17.0000000+00:00</time></trkpt><trkpt lat="30.52916494" lon="35.60652995"><ele>1298.4</ele><time>2015-11-23T11:53:33.0000000+00:00</time></trkpt><trkpt lat="30.52915589" lon="35.60581304"><ele>1299.8</ele><time>2015-11-23T11:53:54.0000000+00:00</time></trkpt><trkpt lat="30.52916176" lon="35.60516487"><ele>1300.3</ele><time>2015-11-23T11:54:11.0000000+00:00</time></trkpt><trkpt lat="30.52925128" lon="35.60493428"><ele>1300.3</ele><time>2015-11-23T11:54:16.0000000+00:00</time></trkpt><trkpt lat="30.52979702" lon="35.60393818"><ele>1301.3</ele><time>2015-11-23T11:54:37.0000000+00:00</time></trkpt><trkpt lat="30.53029013" lon="35.6030621"><ele>1303.2</ele><time>2015-11-23T11:54:57.0000000+00:00</time></trkpt><trkpt lat="30.53063245" lon="35.60246347"><ele>1305.1</ele><time>2015-11-23T11:55:13.0000000+00:00</time></trkpt><trkpt lat="30.53099044" lon="35.60184488"><ele>1306.6</ele><time>2015-11-23T11:55:29.0000000+00:00</time></trkpt><trkpt lat="30.53134524" lon="35.60123124"><ele>1308.5</ele><time>2015-11-23T11:55:46.0000000+00:00</time></trkpt><trkpt lat="30.53169779" lon="35.60061836"><ele>1310.9</ele><time>2015-11-23T11:56:07.0000000+00:00</time></trkpt><trkpt lat="30.53194731" lon="35.60016138"><ele>1313.8</ele><time>2015-11-23T11:56:24.0000000+00:00</time></trkpt><trkpt lat="30.53200624" lon="35.59975293"><ele>1315.2</ele><time>2015-11-23T11:56:38.0000000+00:00</time></trkpt><trkpt lat="30.53186819" lon="35.59925211"><ele>1315.7</ele><time>2015-11-23T11:56:51.0000000+00:00</time></trkpt><trkpt lat="30.53164079" lon="35.59863302"><ele>1316.2</ele><time>2015-11-23T11:57:06.0000000+00:00</time></trkpt><trkpt lat="30.53157575" lon="35.59839439"><ele>1316.2</ele><time>2015-11-23T11:57:11.0000000+00:00</time></trkpt><trkpt lat="30.5315615" lon="35.59834778"><ele>1316.2</ele><time>2015-11-23T11:57:12.0000000+00:00</time></trkpt><trkpt lat="30.53154289" lon="35.59830302"><ele>1316.2</ele><time>2015-11-23T11:57:13.0000000+00:00</time></trkpt><trkpt lat="30.53152403" lon="35.59825642"><ele>1316.7</ele><time>2015-11-23T11:57:14.0000000+00:00</time></trkpt><trkpt lat="30.53150701" lon="35.59820755"><ele>1316.2</ele><time>2015-11-23T11:57:15.0000000+00:00</time></trkpt><trkpt lat="30.53141833" lon="35.59796557"><ele>1316.7</ele><time>2015-11-23T11:57:20.0000000+00:00</time></trkpt><trkpt lat="30.53116621" lon="35.59712268"><ele>1318.1</ele><time>2015-11-23T11:57:38.0000000+00:00</time></trkpt><trkpt lat="30.5309792" lon="35.5965559"><ele>1319.1</ele><time>2015-11-23T11:57:50.0000000+00:00</time></trkpt><trkpt lat="30.53096026" lon="35.5965103"><ele>1319.1</ele><time>2015-11-23T11:57:51.0000000+00:00</time></trkpt><trkpt lat="30.53078776" lon="35.59596464"><ele>1320.5</ele><time>2015-11-23T11:58:03.0000000+00:00</time></trkpt><trkpt lat="30.53077083" lon="35.59592181"><ele>1320.5</ele><time>2015-11-23T11:58:04.0000000+00:00</time></trkpt><trkpt lat="30.53059959" lon="35.59540733"><ele>1322.0</ele><time>2015-11-23T11:58:16.0000000+00:00</time></trkpt><trkpt lat="30.53049792" lon="35.59507859"><ele>1322.0</ele><time>2015-11-23T11:58:29.0000000+00:00</time></trkpt><trkpt lat="30.53040714" lon="35.59475354"><ele>1322.0</ele><time>2015-11-23T11:58:41.0000000+00:00</time></trkpt><trkpt lat="30.53030656" lon="35.5943963"><ele>1322.4</ele><time>2015-11-23T11:58:53.0000000+00:00</time></trkpt><trkpt lat="30.53022224" lon="35.59408098"><ele>1322.0</ele><time>2015-11-23T11:59:08.0000000+00:00</time></trkpt><trkpt lat="30.53012123" lon="35.59369616"><ele>1321.5</ele><time>2015-11-23T11:59:26.0000000+00:00</time></trkpt><trkpt lat="30.52997514" lon="35.59319945"><ele>1320.0</ele><time>2015-11-23T11:59:38.0000000+00:00</time></trkpt><trkpt lat="30.52996005" lon="35.59315084"><ele>1319.6</ele><time>2015-11-23T11:59:39.0000000+00:00</time></trkpt><trkpt lat="30.52975092" lon="35.59244106"><ele>1318.6</ele><time>2015-11-23T11:59:55.0000000+00:00</time></trkpt><trkpt lat="30.52969744" lon="35.59226185"><ele>1318.6</ele><time>2015-11-23T11:59:59.0000000+00:00</time></trkpt><trkpt lat="30.52966744" lon="35.59216605"><ele>1318.1</ele><time>2015-11-23T12:00:01.0000000+00:00</time></trkpt><trkpt lat="30.52946476" lon="35.591511"><ele>1317.6</ele><time>2015-11-23T12:00:15.0000000+00:00</time></trkpt><trkpt lat="30.52928891" lon="35.59114756"><ele>1318.1</ele><time>2015-11-23T12:00:28.0000000+00:00</time></trkpt><trkpt lat="30.52908012" lon="35.59085076"><ele>1317.6</ele><time>2015-11-23T12:00:37.0000000+00:00</time></trkpt><trkpt lat="30.52879186" lon="35.59048003"><ele>1319.1</ele><time>2015-11-23T12:00:50.0000000+00:00</time></trkpt><trkpt lat="30.52858986" lon="35.59018314"><ele>1321.5</ele><time>2015-11-23T12:01:05.0000000+00:00</time></trkpt><trkpt lat="30.52846782" lon="35.58995716"><ele>1323.4</ele><time>2015-11-23T12:01:18.0000000+00:00</time></trkpt><trkpt lat="30.52846447" lon="35.58993931"><ele>1323.4</ele><time>2015-11-23T12:01:19.0000000+00:00</time></trkpt><trkpt lat="30.5284612" lon="35.58991961"><ele>1323.4</ele><time>2015-11-23T12:01:20.0000000+00:00</time></trkpt><trkpt lat="30.52830169" lon="35.58952834"><ele>1325.3</ele><time>2015-11-23T12:01:36.0000000+00:00</time></trkpt><trkpt lat="30.52810438" lon="35.5890515"><ele>1326.8</ele><time>2015-11-23T12:01:52.0000000+00:00</time></trkpt><trkpt lat="30.52788687" lon="35.58851011"><ele>1328.7</ele><time>2015-11-23T12:02:11.0000000+00:00</time></trkpt><trkpt lat="30.52774647" lon="35.58817098"><ele>1329.6</ele><time>2015-11-23T12:02:26.0000000+00:00</time></trkpt><trkpt lat="30.52773708" lon="35.58813142"><ele>1329.2</ele><time>2015-11-23T12:02:40.0000000+00:00</time></trkpt><trkpt lat="30.52774237" lon="35.58811356"><ele>1328.7</ele><time>2015-11-23T12:02:56.0000000+00:00</time></trkpt><trkpt lat="30.52775444" lon="35.58812379"><ele>1327.7</ele><time>2015-11-23T12:03:24.0000000+00:00</time></trkpt><trkpt lat="30.5277629" lon="35.58811599"><ele>1327.7</ele><time>2015-11-23T12:03:58.0000000+00:00</time></trkpt><trkpt lat="30.52776273" lon="35.58811742"><ele>1328.2</ele><time>2015-11-23T12:04:25.0000000+00:00</time></trkpt><trkpt lat="30.527766" lon="35.58811373"><ele>1327.7</ele><time>2015-11-23T12:04:53.0000000+00:00</time></trkpt><trkpt lat="30.52776575" lon="35.58811289"><ele>1327.7</ele><time>2015-11-23T12:05:21.0000000+00:00</time></trkpt><trkpt lat="30.52776818" lon="35.58811474"><ele>1328.2</ele><time>2015-11-23T12:05:49.0000000+00:00</time></trkpt><trkpt lat="30.52776508" lon="35.58810996"><ele>1328.2</ele><time>2015-11-23T12:06:19.0000000+00:00</time></trkpt><trkpt lat="30.52776223" lon="35.58811566"><ele>1328.2</ele><time>2015-11-23T12:06:49.0000000+00:00</time></trkpt><trkpt lat="30.52775318" lon="35.58812027"><ele>1328.2</ele><time>2015-11-23T12:07:25.0000000+00:00</time></trkpt><trkpt lat="30.52775879" lon="35.58811449"><ele>1329.6</ele><time>2015-11-23T12:08:06.0000000+00:00</time></trkpt><trkpt lat="30.5276873" lon="35.58805179"><ele>1330.1</ele><time>2015-11-23T12:08:27.0000000+00:00</time></trkpt><trkpt lat="30.52764136" lon="35.58792925"><ele>1329.6</ele><time>2015-11-23T12:08:34.0000000+00:00</time></trkpt><trkpt lat="30.52763172" lon="35.58791055"><ele>1330.1</ele><time>2015-11-23T12:08:35.0000000+00:00</time></trkpt><trkpt lat="30.52748705" lon="35.58757687"><ele>1329.6</ele><time>2015-11-23T12:08:49.0000000+00:00</time></trkpt><trkpt lat="30.527277" lon="35.58707253"><ele>1327.7</ele><time>2015-11-23T12:09:04.0000000+00:00</time></trkpt><trkpt lat="30.52701809" lon="35.58648488"><ele>1327.2</ele><time>2015-11-23T12:09:20.0000000+00:00</time></trkpt><trkpt lat="30.52688791" lon="35.58618455"><ele>1327.7</ele><time>2015-11-23T12:09:31.0000000+00:00</time></trkpt><trkpt lat="30.52670695" lon="35.58582187"><ele>1326.8</ele><time>2015-11-23T12:09:45.0000000+00:00</time></trkpt><trkpt lat="30.52624402" lon="35.58516112"><ele>1324.4</ele><time>2015-11-23T12:09:58.0000000+00:00</time></trkpt><trkpt lat="30.52592777" lon="35.58477245"><ele>1326.8</ele><time>2015-11-23T12:10:09.0000000+00:00</time></trkpt><trkpt lat="30.52576834" lon="35.58449669"><ele>1327.2</ele><time>2015-11-23T12:10:24.0000000+00:00</time></trkpt><trkpt lat="30.52562493" lon="35.58415865"><ele>1325.8</ele><time>2015-11-23T12:10:35.0000000+00:00</time></trkpt><trkpt lat="30.52550498" lon="35.58389931"><ele>1325.3</ele><time>2015-11-23T12:10:41.0000000+00:00</time></trkpt><trkpt lat="30.52528236" lon="35.58343026"><ele>1326.8</ele><time>2015-11-23T12:10:54.0000000+00:00</time></trkpt><trkpt lat="30.52506007" lon="35.58271746"><ele>1325.8</ele><time>2015-11-23T12:11:12.0000000+00:00</time></trkpt><trkpt lat="30.52488171" lon="35.58193509"><ele>1323.9</ele><time>2015-11-23T12:11:25.0000000+00:00</time></trkpt><trkpt lat="30.52480836" lon="35.58173435"><ele>1323.4</ele><time>2015-11-23T12:11:28.0000000+00:00</time></trkpt><trkpt lat="30.52477735" lon="35.5816678"><ele>1323.4</ele><time>2015-11-23T12:11:29.0000000+00:00</time></trkpt><trkpt lat="30.52474064" lon="35.58160585"><ele>1323.4</ele><time>2015-11-23T12:11:30.0000000+00:00</time></trkpt><trkpt lat="30.52469864" lon="35.58154676"><ele>1323.4</ele><time>2015-11-23T12:11:31.0000000+00:00</time></trkpt><trkpt lat="30.52465204" lon="35.58149429"><ele>1323.4</ele><time>2015-11-23T12:11:32.0000000+00:00</time></trkpt><trkpt lat="30.52460049" lon="35.58145054"><ele>1323.4</ele><time>2015-11-23T12:11:33.0000000+00:00</time></trkpt><trkpt lat="30.52454635" lon="35.58141324"><ele>1323.9</ele><time>2015-11-23T12:11:34.0000000+00:00</time></trkpt><trkpt lat="30.52449035" lon="35.58138181"><ele>1323.9</ele><time>2015-11-23T12:11:35.0000000+00:00</time></trkpt><trkpt lat="30.52443545" lon="35.5813528"><ele>1323.9</ele><time>2015-11-23T12:11:36.0000000+00:00</time></trkpt><trkpt lat="30.52383204" lon="35.58102013"><ele>1323.4</ele><time>2015-11-23T12:11:50.0000000+00:00</time></trkpt><trkpt lat="30.52373473" lon="35.58093958"><ele>1323.4</ele><time>2015-11-23T12:11:53.0000000+00:00</time></trkpt><trkpt lat="30.52370648" lon="35.58090555"><ele>1323.4</ele><time>2015-11-23T12:11:54.0000000+00:00</time></trkpt><trkpt lat="30.52367957" lon="35.58086758"><ele>1323.4</ele><time>2015-11-23T12:11:55.0000000+00:00</time></trkpt><trkpt lat="30.52352702" lon="35.58060455"><ele>1322.9</ele><time>2015-11-23T12:12:01.0000000+00:00</time></trkpt><trkpt lat="30.5235038" lon="35.58055862"><ele>1322.9</ele><time>2015-11-23T12:12:02.0000000+00:00</time></trkpt><trkpt lat="30.52319082" lon="35.57980961"><ele>1321.0</ele><time>2015-11-23T12:12:17.0000000+00:00</time></trkpt><trkpt lat="30.52317783" lon="35.57974541"><ele>1321.0</ele><time>2015-11-23T12:12:18.0000000+00:00</time></trkpt><trkpt lat="30.52317037" lon="35.57967818"><ele>1320.5</ele><time>2015-11-23T12:12:19.0000000+00:00</time></trkpt><trkpt lat="30.52313609" lon="35.57870949"><ele>1320.0</ele><time>2015-11-23T12:12:35.0000000+00:00</time></trkpt><trkpt lat="30.52308094" lon="35.57775043"><ele>1317.6</ele><time>2015-11-23T12:12:47.0000000+00:00</time></trkpt><trkpt lat="30.52304934" lon="35.57736771"><ele>1317.1</ele><time>2015-11-23T12:12:53.0000000+00:00</time></trkpt><trkpt lat="30.52299771" lon="35.57642064"><ele>1316.2</ele><time>2015-11-23T12:13:09.0000000+00:00</time></trkpt><trkpt lat="30.52296954" lon="35.57559184"><ele>1317.6</ele><time>2015-11-23T12:13:25.0000000+00:00</time></trkpt><trkpt lat="30.52292923" lon="35.57495666"><ele>1319.6</ele><time>2015-11-23T12:13:41.0000000+00:00</time></trkpt><trkpt lat="30.52291875" lon="35.5745161"><ele>1321.0</ele><time>2015-11-23T12:13:54.0000000+00:00</time></trkpt><trkpt lat="30.52292034" lon="35.57448342"><ele>1321.0</ele><time>2015-11-23T12:13:55.0000000+00:00</time></trkpt><trkpt lat="30.52292026" lon="35.57445165"><ele>1321.0</ele><time>2015-11-23T12:13:56.0000000+00:00</time></trkpt><trkpt lat="30.52291959" lon="35.5744203"><ele>1321.0</ele><time>2015-11-23T12:13:57.0000000+00:00</time></trkpt><trkpt lat="30.52292059" lon="35.57438979"><ele>1321.0</ele><time>2015-11-23T12:13:58.0000000+00:00</time></trkpt><trkpt lat="30.52293174" lon="35.5742773"><ele>1322.0</ele><time>2015-11-23T12:14:02.0000000+00:00</time></trkpt><trkpt lat="30.52293551" lon="35.5742509"><ele>1322.0</ele><time>2015-11-23T12:14:03.0000000+00:00</time></trkpt><trkpt lat="30.52293719" lon="35.57422349"><ele>1322.0</ele><time>2015-11-23T12:14:04.0000000+00:00</time></trkpt><trkpt lat="30.52293501" lon="35.57419441"><ele>1322.0</ele><time>2015-11-23T12:14:05.0000000+00:00</time></trkpt><trkpt lat="30.52293224" lon="35.57416356"><ele>1322.0</ele><time>2015-11-23T12:14:06.0000000+00:00</time></trkpt><trkpt lat="30.52293157" lon="35.57413221"><ele>1322.0</ele><time>2015-11-23T12:14:07.0000000+00:00</time></trkpt><trkpt lat="30.52291933" lon="35.57374204"><ele>1323.4</ele><time>2015-11-23T12:14:21.0000000+00:00</time></trkpt><trkpt lat="30.52296569" lon="35.57354422"><ele>1325.3</ele><time>2015-11-23T12:14:31.0000000+00:00</time></trkpt><trkpt lat="30.52297566" lon="35.57352754"><ele>1325.3</ele><time>2015-11-23T12:14:32.0000000+00:00</time></trkpt><trkpt lat="30.52298404" lon="35.57350751"><ele>1325.3</ele><time>2015-11-23T12:14:33.0000000+00:00</time></trkpt><trkpt lat="30.52298488" lon="35.57348278"><ele>1325.3</ele><time>2015-11-23T12:14:34.0000000+00:00</time></trkpt><trkpt lat="30.52298287" lon="35.57345286"><ele>1325.8</ele><time>2015-11-23T12:14:35.0000000+00:00</time></trkpt><trkpt lat="30.52298153" lon="35.57342051"><ele>1325.8</ele><time>2015-11-23T12:14:36.0000000+00:00</time></trkpt><trkpt lat="30.52291464" lon="35.57301566"><ele>1327.7</ele><time>2015-11-23T12:14:51.0000000+00:00</time></trkpt><trkpt lat="30.52277877" lon="35.57272238"><ele>1328.7</ele><time>2015-11-23T12:15:05.0000000+00:00</time></trkpt><trkpt lat="30.52262253" lon="35.57230538"><ele>1331.1</ele><time>2015-11-23T12:15:21.0000000+00:00</time></trkpt><trkpt lat="30.52266494" lon="35.57202031"><ele>1332.0</ele><time>2015-11-23T12:15:32.0000000+00:00</time></trkpt><trkpt lat="30.52287441" lon="35.57166198"><ele>1333.5</ele><time>2015-11-23T12:15:48.0000000+00:00</time></trkpt><trkpt lat="30.52303366" lon="35.57137012"><ele>1334.5</ele><time>2015-11-23T12:16:02.0000000+00:00</time></trkpt><trkpt lat="30.52320264" lon="35.57111791"><ele>1335.9</ele><time>2015-11-23T12:16:16.0000000+00:00</time></trkpt><trkpt lat="30.52341932" lon="35.57082295"><ele>1337.8</ele><time>2015-11-23T12:16:33.0000000+00:00</time></trkpt><trkpt lat="30.52361009" lon="35.57057326"><ele>1339.3</ele><time>2015-11-23T12:16:48.0000000+00:00</time></trkpt><trkpt lat="30.52382232" lon="35.57028987"><ele>1341.2</ele><time>2015-11-23T12:17:05.0000000+00:00</time></trkpt><trkpt lat="30.52399968" lon="35.57007235"><ele>1343.1</ele><time>2015-11-23T12:17:18.0000000+00:00</time></trkpt><trkpt lat="30.52424259" lon="35.56975686"><ele>1345.5</ele><time>2015-11-23T12:17:36.0000000+00:00</time></trkpt><trkpt lat="30.52446035" lon="35.56946944"><ele>1347.9</ele><time>2015-11-23T12:17:52.0000000+00:00</time></trkpt><trkpt lat="30.52473167" lon="35.56915529"><ele>1350.3</ele><time>2015-11-23T12:18:09.0000000+00:00</time></trkpt><trkpt lat="30.52500425" lon="35.56880577"><ele>1352.7</ele><time>2015-11-23T12:18:25.0000000+00:00</time></trkpt><trkpt lat="30.52508882" lon="35.56855473"><ele>1352.2</ele><time>2015-11-23T12:18:38.0000000+00:00</time></trkpt><trkpt lat="30.5251537" lon="35.56808283"><ele>1350.3</ele><time>2015-11-23T12:18:50.0000000+00:00</time></trkpt><trkpt lat="30.52523693" lon="35.56761126"><ele>1346.9</ele><time>2015-11-23T12:18:57.0000000+00:00</time></trkpt><trkpt lat="30.52533844" lon="35.56716979"><ele>1342.6</ele><time>2015-11-23T12:19:01.0000000+00:00</time></trkpt><trkpt lat="30.52546148" lon="35.5667724"><ele>1338.3</ele><time>2015-11-23T12:19:04.0000000+00:00</time></trkpt><trkpt lat="30.52552435" lon="35.56664005"><ele>1337.3</ele><time>2015-11-23T12:19:05.0000000+00:00</time></trkpt><trkpt lat="30.52560322" lon="35.56651734"><ele>1335.9</ele><time>2015-11-23T12:19:06.0000000+00:00</time></trkpt><trkpt lat="30.52569182" lon="35.56640938"><ele>1334.9</ele><time>2015-11-23T12:19:07.0000000+00:00</time></trkpt><trkpt lat="30.525781" lon="35.56631659"><ele>1334.5</ele><time>2015-11-23T12:19:08.0000000+00:00</time></trkpt><trkpt lat="30.52594068" lon="35.56616379"><ele>1333.0</ele><time>2015-11-23T12:19:10.0000000+00:00</time></trkpt><trkpt lat="30.52622222" lon="35.56588191"><ele>1332.5</ele><time>2015-11-23T12:19:17.0000000+00:00</time></trkpt><trkpt lat="30.52650067" lon="35.56556356"><ele>1332.0</ele><time>2015-11-23T12:19:30.0000000+00:00</time></trkpt><trkpt lat="30.52669547" lon="35.56531495"><ele>1329.2</ele><time>2015-11-23T12:19:42.0000000+00:00</time></trkpt><trkpt lat="30.52676822" lon="35.56500072"><ele>1327.7</ele><time>2015-11-23T12:19:54.0000000+00:00</time></trkpt><trkpt lat="30.5267683" lon="35.56499435"><ele>1328.2</ele><time>2015-11-23T12:20:07.0000000+00:00</time></trkpt><trkpt lat="30.52677266" lon="35.56499636"><ele>1328.2</ele><time>2015-11-23T12:20:35.0000000+00:00</time></trkpt><trkpt lat="30.52671919" lon="35.56501371"><ele>1328.7</ele><time>2015-11-23T12:20:44.0000000+00:00</time></trkpt><trkpt lat="30.5267134" lon="35.56507423"><ele>1328.7</ele><time>2015-11-23T12:20:58.0000000+00:00</time></trkpt><trkpt lat="30.52667946" lon="35.56532208"><ele>1329.6</ele><time>2015-11-23T12:21:10.0000000+00:00</time></trkpt><trkpt lat="30.52652204" lon="35.56550154"><ele>1331.1</ele><time>2015-11-23T12:21:23.0000000+00:00</time></trkpt><trkpt lat="30.52642984" lon="35.56559986"><ele>1332.0</ele><time>2015-11-23T12:21:32.0000000+00:00</time></trkpt><trkpt lat="30.52639296" lon="35.56561595"><ele>1332.5</ele><time>2015-11-23T12:21:35.0000000+00:00</time></trkpt><trkpt lat="30.52633798" lon="35.56554043"><ele>1333.0</ele><time>2015-11-23T12:21:43.0000000+00:00</time></trkpt><trkpt lat="30.52627235" lon="35.56528771"><ele>1333.5</ele><time>2015-11-23T12:21:57.0000000+00:00</time></trkpt><trkpt lat="30.52624653" lon="35.56519216"><ele>1334.0</ele><time>2015-11-23T12:22:03.0000000+00:00</time></trkpt></trkseg><trkseg><trkpt lat="30.52614779" lon="35.56511865"><ele>1276.3</ele><time>2015-11-24T06:19:59.0000000+00:00</time></trkpt><trkpt lat="30.52615534" lon="35.56511882"><ele>1281.1</ele><time>2015-11-24T06:20:16.0000000+00:00</time></trkpt><trkpt lat="30.52615525" lon="35.56511706"><ele>1284.9</ele><time>2015-11-24T06:20:18.0000000+00:00</time></trkpt><trkpt lat="30.52615634" lon="35.5651189"><ele>1287.8</ele><time>2015-11-24T06:20:20.0000000+00:00</time></trkpt><trkpt lat="30.52615584" lon="35.56512376"><ele>1291.2</ele><time>2015-11-24T06:20:22.0000000+00:00</time></trkpt><trkpt lat="30.52615282" lon="35.56512795"><ele>1294.1</ele><time>2015-11-24T06:20:24.0000000+00:00</time></trkpt><trkpt lat="30.52615265" lon="35.56513047"><ele>1297.9</ele><time>2015-11-24T06:20:27.0000000+00:00</time></trkpt><trkpt lat="30.52615299" lon="35.56513407"><ele>1301.8</ele><time>2015-11-24T06:20:30.0000000+00:00</time></trkpt><trkpt lat="30.52615006" lon="35.56512946"><ele>1304.2</ele><time>2015-11-24T06:20:32.0000000+00:00</time></trkpt><trkpt lat="30.52614695" lon="35.56512427"><ele>1308.0</ele><time>2015-11-24T06:20:35.0000000+00:00</time></trkpt><trkpt lat="30.52614343" lon="35.56511848"><ele>1310.9</ele><time>2015-11-24T06:20:38.0000000+00:00</time></trkpt><trkpt lat="30.52613874" lon="35.56511496"><ele>1312.8</ele><time>2015-11-24T06:20:40.0000000+00:00</time></trkpt><trkpt lat="30.52614218" lon="35.56510817"><ele>1316.7</ele><time>2015-11-24T06:20:46.0000000+00:00</time></trkpt><trkpt lat="30.52614427" lon="35.56510516"><ele>1320.0</ele><time>2015-11-24T06:20:50.0000000+00:00</time></trkpt><trkpt lat="30.52613815" lon="35.56510557"><ele>1323.4</ele><time>2015-11-24T06:20:55.0000000+00:00</time></trkpt><trkpt lat="30.52613664" lon="35.56510633"><ele>1324.8</ele><time>2015-11-24T06:20:57.0000000+00:00</time></trkpt><trkpt lat="30.52613597" lon="35.56510717"><ele>1326.3</ele><time>2015-11-24T06:20:59.0000000+00:00</time></trkpt><trkpt lat="30.5261348" lon="35.56510759"><ele>1329.2</ele><time>2015-11-24T06:21:11.0000000+00:00</time></trkpt><trkpt lat="30.52612977" lon="35.56510323"><ele>1332.5</ele><time>2015-11-24T06:21:19.0000000+00:00</time></trkpt><trkpt lat="30.52612952" lon="35.56510465"><ele>1332.5</ele><time>2015-11-24T06:21:20.0000000+00:00</time></trkpt><trkpt lat="30.52614679" lon="35.56510096"><ele>1335.9</ele><time>2015-11-24T06:21:32.0000000+00:00</time></trkpt><trkpt lat="30.52615022" lon="35.5651008"><ele>1336.4</ele><time>2015-11-24T06:21:33.0000000+00:00</time></trkpt><trkpt lat="30.52615894" lon="35.5651065"><ele>1337.8</ele><time>2015-11-24T06:21:41.0000000+00:00</time></trkpt><trkpt lat="30.52616095" lon="35.56511085"><ele>1341.2</ele><time>2015-11-24T06:21:56.0000000+00:00</time></trkpt><trkpt lat="30.52615106" lon="35.56508504"><ele>1340.2</ele><time>2015-11-24T06:22:26.0000000+00:00</time></trkpt><trkpt lat="30.52619607" lon="35.56515159"><ele>1339.7</ele><time>2015-11-24T06:22:41.0000000+00:00</time></trkpt><trkpt lat="30.52619238" lon="35.56517221"><ele>1339.7</ele><time>2015-11-24T06:22:49.0000000+00:00</time></trkpt><trkpt lat="30.52619155" lon="35.56522359"><ele>1339.7</ele><time>2015-11-24T06:22:53.0000000+00:00</time></trkpt><trkpt lat="30.52621711" lon="35.56526433"><ele>1339.7</ele><time>2015-11-24T06:23:04.0000000+00:00</time></trkpt><trkpt lat="30.52622105" lon="35.56529962"><ele>1339.3</ele><time>2015-11-24T06:23:20.0000000+00:00</time></trkpt><trkpt lat="30.52625793" lon="35.56527615"><ele>1339.3</ele><time>2015-11-24T06:23:24.0000000+00:00</time></trkpt><trkpt lat="30.52627712" lon="35.565236"><ele>1339.3</ele><time>2015-11-24T06:23:37.0000000+00:00</time></trkpt><trkpt lat="30.5262348" lon="35.56517146"><ele>1339.3</ele><time>2015-11-24T06:23:50.0000000+00:00</time></trkpt><trkpt lat="30.5262275" lon="35.56516844"><ele>1339.3</ele><time>2015-11-24T06:23:51.0000000+00:00</time></trkpt><trkpt lat="30.52620227" lon="35.56515804"><ele>1339.3</ele><time>2015-11-24T06:23:54.0000000+00:00</time></trkpt><trkpt lat="30.5261716" lon="35.56516844"><ele>1339.7</ele><time>2015-11-24T06:23:58.0000000+00:00</time></trkpt><trkpt lat="30.52616933" lon="35.56518713"><ele>1339.7</ele><time>2015-11-24T06:24:00.0000000+00:00</time></trkpt><trkpt lat="30.52621124" lon="35.56514287"><ele>1339.3</ele><time>2015-11-24T06:24:11.0000000+00:00</time></trkpt><trkpt lat="30.52620697" lon="35.56511438"><ele>1339.7</ele><time>2015-11-24T06:24:25.0000000+00:00</time></trkpt><trkpt lat="30.52620638" lon="35.56510004"><ele>1339.7</ele><time>2015-11-24T06:24:37.0000000+00:00</time></trkpt><trkpt lat="30.52614318" lon="35.56556029"><ele>1338.3</ele><time>2015-11-24T06:52:24.0000000+00:00</time></trkpt><trkpt lat="30.52618358" lon="35.56558468"><ele>1336.9</ele><time>2015-11-24T06:52:26.0000000+00:00</time></trkpt><trkpt lat="30.52622885" lon="35.5659306"><ele>1335.9</ele><time>2015-11-24T06:52:38.0000000+00:00</time></trkpt><trkpt lat="30.52591654" lon="35.5661316"><ele>1335.9</ele><time>2015-11-24T06:52:51.0000000+00:00</time></trkpt><trkpt lat="30.5258727" lon="35.56613076"><ele>1337.3</ele><time>2015-11-24T06:53:00.0000000+00:00</time></trkpt><trkpt lat="30.52587119" lon="35.566113"><ele>1338.3</ele><time>2015-11-24T06:53:02.0000000+00:00</time></trkpt><trkpt lat="30.52587789" lon="35.56606991"><ele>1338.8</ele><time>2015-11-24T06:53:16.0000000+00:00</time></trkpt><trkpt lat="30.52588996" lon="35.56608911"><ele>1339.3</ele><time>2015-11-24T06:53:57.0000000+00:00</time></trkpt><trkpt lat="30.52589516" lon="35.5661026"><ele>1339.7</ele><time>2015-11-24T06:54:37.0000000+00:00</time></trkpt><trkpt lat="30.52589307" lon="35.56609715"><ele>1339.3</ele><time>2015-11-24T06:55:19.0000000+00:00</time></trkpt><trkpt lat="30.52586105" lon="35.56610503"><ele>1339.3</ele><time>2015-11-24T06:56:07.0000000+00:00</time></trkpt><trkpt lat="30.52588225" lon="35.56613361"><ele>1339.3</ele><time>2015-11-24T06:56:39.0000000+00:00</time></trkpt><trkpt lat="30.52592978" lon="35.56613504"><ele>1339.3</ele><time>2015-11-24T06:56:56.0000000+00:00</time></trkpt><trkpt lat="30.52591989" lon="35.56612364"><ele>1338.8</ele><time>2015-11-24T06:57:20.0000000+00:00</time></trkpt><trkpt lat="30.52592819" lon="35.5661223"><ele>1338.8</ele><time>2015-11-24T06:57:46.0000000+00:00</time></trkpt><trkpt lat="30.52596255" lon="35.56610956"><ele>1338.8</ele><time>2015-11-24T06:58:04.0000000+00:00</time></trkpt><trkpt lat="30.52603732" lon="35.56602096"><ele>1338.8</ele><time>2015-11-24T06:58:11.0000000+00:00</time></trkpt><trkpt lat="30.52623077" lon="35.56582105"><ele>1339.7</ele><time>2015-11-24T06:58:25.0000000+00:00</time></trkpt><trkpt lat="30.52651417" lon="35.56549131"><ele>1337.8</ele><time>2015-11-24T06:58:37.0000000+00:00</time></trkpt><trkpt lat="30.52662942" lon="35.56535058"><ele>1336.4</ele><time>2015-11-24T06:58:41.0000000+00:00</time></trkpt><trkpt lat="30.52669957" lon="35.56511429"><ele>1334.5</ele><time>2015-11-24T06:58:45.0000000+00:00</time></trkpt><trkpt lat="30.52679588" lon="35.56483123"><ele>1332.0</ele><time>2015-11-24T06:58:55.0000000+00:00</time></trkpt><trkpt lat="30.52689957" lon="35.5646491"><ele>1327.7</ele><time>2015-11-24T06:59:00.0000000+00:00</time></trkpt><trkpt lat="30.52701968" lon="35.56448397"><ele>1322.9</ele><time>2015-11-24T06:59:03.0000000+00:00</time></trkpt><trkpt lat="30.52711925" lon="35.56437735"><ele>1319.6</ele><time>2015-11-24T06:59:05.0000000+00:00</time></trkpt><trkpt lat="30.52723384" lon="35.56425842"><ele>1315.2</ele><time>2015-11-24T06:59:08.0000000+00:00</time></trkpt><trkpt lat="30.52726049" lon="35.56400805"><ele>1310.9</ele><time>2015-11-24T06:59:13.0000000+00:00</time></trkpt><trkpt lat="30.52730743" lon="35.56394896"><ele>1309.5</ele><time>2015-11-24T06:59:19.0000000+00:00</time></trkpt><trkpt lat="30.52730558" lon="35.56395063"><ele>1310.4</ele><time>2015-11-24T06:59:25.0000000+00:00</time></trkpt><trkpt lat="30.52730994" lon="35.56395256"><ele>1310.4</ele><time>2015-11-24T06:59:29.0000000+00:00</time></trkpt><trkpt lat="30.52739753" lon="35.56403009"><ele>1309.0</ele><time>2015-11-24T06:59:43.0000000+00:00</time></trkpt><trkpt lat="30.52746836" lon="35.5640834"><ele>1307.1</ele><time>2015-11-24T06:59:46.0000000+00:00</time></trkpt><trkpt lat="30.52767724" lon="35.56411986"><ele>1302.2</ele><time>2015-11-24T06:59:51.0000000+00:00</time></trkpt><trkpt lat="30.52781353" lon="35.56412539"><ele>1298.4</ele><time>2015-11-24T06:59:55.0000000+00:00</time></trkpt><trkpt lat="30.52790606" lon="35.56404543"><ele>1295.5</ele><time>2015-11-24T06:59:59.0000000+00:00</time></trkpt><trkpt lat="30.52795275" lon="35.56398131"><ele>1292.2</ele><time>2015-11-24T07:00:07.0000000+00:00</time></trkpt><trkpt lat="30.52796004" lon="35.56398483"><ele>1293.6</ele><time>2015-11-24T07:00:22.0000000+00:00</time></trkpt><trkpt lat="30.52813481" lon="35.56408851"><ele>1292.2</ele><time>2015-11-24T07:00:30.0000000+00:00</time></trkpt><trkpt lat="30.52817931" lon="35.56409773"><ele>1292.2</ele><time>2015-11-24T07:00:31.0000000+00:00</time></trkpt><trkpt lat="30.52827889" lon="35.56411022"><ele>1291.2</ele><time>2015-11-24T07:00:33.0000000+00:00</time></trkpt><trkpt lat="30.52832977" lon="35.56412623"><ele>1290.7</ele><time>2015-11-24T07:00:34.0000000+00:00</time></trkpt><trkpt lat="30.52843429" lon="35.56416915"><ele>1289.3</ele><time>2015-11-24T07:00:36.0000000+00:00</time></trkpt><trkpt lat="30.52848483" lon="35.56420511"><ele>1288.8</ele><time>2015-11-24T07:00:37.0000000+00:00</time></trkpt><trkpt lat="30.52853219" lon="35.56426009"><ele>1288.3</ele><time>2015-11-24T07:00:38.0000000+00:00</time></trkpt><trkpt lat="30.52857167" lon="35.56432757"><ele>1287.8</ele><time>2015-11-24T07:00:39.0000000+00:00</time></trkpt><trkpt lat="30.5286" lon="35.56440191"><ele>1287.3</ele><time>2015-11-24T07:00:40.0000000+00:00</time></trkpt><trkpt lat="30.52862372" lon="35.56447844"><ele>1287.3</ele><time>2015-11-24T07:00:41.0000000+00:00</time></trkpt><trkpt lat="30.52867888" lon="35.56462479"><ele>1286.4</ele><time>2015-11-24T07:00:43.0000000+00:00</time></trkpt><trkpt lat="30.52871458" lon="35.56469176"><ele>1285.9</ele><time>2015-11-24T07:00:44.0000000+00:00</time></trkpt><trkpt lat="30.52875934" lon="35.56475471"><ele>1284.9</ele><time>2015-11-24T07:00:45.0000000+00:00</time></trkpt><trkpt lat="30.52881047" lon="35.56481162"><ele>1284.5</ele><time>2015-11-24T07:00:46.0000000+00:00</time></trkpt><trkpt lat="30.52887057" lon="35.56486317"><ele>1283.0</ele><time>2015-11-24T07:00:47.0000000+00:00</time></trkpt><trkpt lat="30.52893419" lon="35.56491254"><ele>1282.1</ele><time>2015-11-24T07:00:48.0000000+00:00</time></trkpt><trkpt lat="30.52914952" lon="35.56507213"><ele>1278.7</ele><time>2015-11-24T07:00:52.0000000+00:00</time></trkpt><trkpt lat="30.52920945" lon="35.56510767"><ele>1277.3</ele><time>2015-11-24T07:00:55.0000000+00:00</time></trkpt><trkpt lat="30.52921901" lon="35.56508713"><ele>1277.3</ele><time>2015-11-24T07:01:07.0000000+00:00</time></trkpt><trkpt lat="30.52912898" lon="35.56506341"><ele>1278.2</ele><time>2015-11-24T07:01:26.0000000+00:00</time></trkpt><trkpt lat="30.52909839" lon="35.56506258"><ele>1278.2</ele><time>2015-11-24T07:01:45.0000000+00:00</time></trkpt><trkpt lat="30.52909068" lon="35.56506945"><ele>1278.7</ele><time>2015-11-24T07:02:11.0000000+00:00</time></trkpt><trkpt lat="30.52911339" lon="35.56505411"><ele>1278.2</ele><time>2015-11-24T07:02:36.0000000+00:00</time></trkpt><trkpt lat="30.5291237" lon="35.56504807"><ele>1277.7</ele><time>2015-11-24T07:02:38.0000000+00:00</time></trkpt><trkpt lat="30.52913594" lon="35.56504958"><ele>1277.7</ele><time>2015-11-24T07:02:39.0000000+00:00</time></trkpt><trkpt lat="30.52915296" lon="35.56505637"><ele>1277.7</ele><time>2015-11-24T07:02:40.0000000+00:00</time></trkpt><trkpt lat="30.52917324" lon="35.56506962"><ele>1277.7</ele><time>2015-11-24T07:02:41.0000000+00:00</time></trkpt><trkpt lat="30.52919772" lon="35.56508982"><ele>1277.3</ele><time>2015-11-24T07:02:42.0000000+00:00</time></trkpt><trkpt lat="30.52922546" lon="35.56511572"><ele>1277.3</ele><time>2015-11-24T07:02:43.0000000+00:00</time></trkpt><trkpt lat="30.5294993" lon="35.56532878"><ele>1275.3</ele><time>2015-11-24T07:02:51.0000000+00:00</time></trkpt><trkpt lat="30.52966442" lon="35.56549248"><ele>1274.4</ele><time>2015-11-24T07:02:55.0000000+00:00</time></trkpt><trkpt lat="30.5296992" lon="35.56554554"><ele>1273.9</ele><time>2015-11-24T07:02:56.0000000+00:00</time></trkpt><trkpt lat="30.52973114" lon="35.56560203"><ele>1274.4</ele><time>2015-11-24T07:02:57.0000000+00:00</time></trkpt><trkpt lat="30.52976115" lon="35.56566096"><ele>1274.4</ele><time>2015-11-24T07:02:58.0000000+00:00</time></trkpt><trkpt lat="30.52978504" lon="35.56572349"><ele>1274.4</ele><time>2015-11-24T07:02:59.0000000+00:00</time></trkpt><trkpt lat="30.5298028" lon="35.56578979"><ele>1274.4</ele><time>2015-11-24T07:03:00.0000000+00:00</time></trkpt><trkpt lat="30.52981596" lon="35.56585668"><ele>1274.4</ele><time>2015-11-24T07:03:01.0000000+00:00</time></trkpt><trkpt lat="30.52982653" lon="35.56592415"><ele>1274.4</ele><time>2015-11-24T07:03:02.0000000+00:00</time></trkpt><trkpt lat="30.52993407" lon="35.56670425"><ele>1274.9</ele><time>2015-11-24T07:03:14.0000000+00:00</time></trkpt><trkpt lat="30.53003381" lon="35.56749282"><ele>1276.8</ele><time>2015-11-24T07:03:29.0000000+00:00</time></trkpt><trkpt lat="30.5300411" lon="35.5679343"><ele>1280.1</ele><time>2015-11-24T07:03:43.0000000+00:00</time></trkpt><trkpt lat="30.52999483" lon="35.56823806"><ele>1282.5</ele><time>2015-11-24T07:03:57.0000000+00:00</time></trkpt><trkpt lat="30.52987849" lon="35.56857652"><ele>1284.5</ele><time>2015-11-24T07:04:15.0000000+00:00</time></trkpt><trkpt lat="30.52974363" lon="35.56888917"><ele>1283.5</ele><time>2015-11-24T07:04:30.0000000+00:00</time></trkpt><trkpt lat="30.52953576" lon="35.56913861"><ele>1283.0</ele><time>2015-11-24T07:04:43.0000000+00:00</time></trkpt><trkpt lat="30.52912094" lon="35.56940281"><ele>1279.7</ele><time>2015-11-24T07:04:53.0000000+00:00</time></trkpt><trkpt lat="30.52882832" lon="35.56957028"><ele>1277.3</ele><time>2015-11-24T07:04:58.0000000+00:00</time></trkpt><trkpt lat="30.52830043" lon="35.56994118"><ele>1276.3</ele><time>2015-11-24T07:05:10.0000000+00:00</time></trkpt><trkpt lat="30.52816506" lon="35.57004889"><ele>1276.8</ele><time>2015-11-24T07:05:20.0000000+00:00</time></trkpt><trkpt lat="30.52817378" lon="35.57005626"><ele>1275.8</ele><time>2015-11-24T07:05:44.0000000+00:00</time></trkpt><trkpt lat="30.52818619" lon="35.57004855"><ele>1275.8</ele><time>2015-11-24T07:06:27.0000000+00:00</time></trkpt><trkpt lat="30.52816699" lon="35.57007001"><ele>1276.3</ele><time>2015-11-24T07:06:40.0000000+00:00</time></trkpt><trkpt lat="30.52819951" lon="35.57013941"><ele>1275.3</ele><time>2015-11-24T07:06:44.0000000+00:00</time></trkpt><trkpt lat="30.52822667" lon="35.57015986"><ele>1274.9</ele><time>2015-11-24T07:06:45.0000000+00:00</time></trkpt><trkpt lat="30.52826338" lon="35.57018065"><ele>1273.9</ele><time>2015-11-24T07:06:46.0000000+00:00</time></trkpt><trkpt lat="30.52849791" lon="35.57030671"><ele>1270.5</ele><time>2015-11-24T07:06:50.0000000+00:00</time></trkpt><trkpt lat="30.52875389" lon="35.57045708"><ele>1267.2</ele><time>2015-11-24T07:06:53.0000000+00:00</time></trkpt><trkpt lat="30.52906" lon="35.57063906"><ele>1263.3</ele><time>2015-11-24T07:06:56.0000000+00:00</time></trkpt><trkpt lat="30.52936879" lon="35.57083008"><ele>1259.5</ele><time>2015-11-24T07:06:59.0000000+00:00</time></trkpt><trkpt lat="30.52961178" lon="35.57097249"><ele>1255.1</ele><time>2015-11-24T07:07:02.0000000+00:00</time></trkpt><trkpt lat="30.52979006" lon="35.5710952"><ele>1252.3</ele><time>2015-11-24T07:07:05.0000000+00:00</time></trkpt><trkpt lat="30.52983424" lon="35.57114926"><ele>1251.8</ele><time>2015-11-24T07:07:06.0000000+00:00</time></trkpt><trkpt lat="30.52986743" lon="35.5712169"><ele>1251.8</ele><time>2015-11-24T07:07:07.0000000+00:00</time></trkpt><trkpt lat="30.5298821" lon="35.57130014"><ele>1250.8</ele><time>2015-11-24T07:07:08.0000000+00:00</time></trkpt><trkpt lat="30.52987288" lon="35.57138848"><ele>1250.8</ele><time>2015-11-24T07:07:09.0000000+00:00</time></trkpt><trkpt lat="30.52984044" lon="35.5714718"><ele>1250.3</ele><time>2015-11-24T07:07:10.0000000+00:00</time></trkpt><trkpt lat="30.52979132" lon="35.57154447"><ele>1249.9</ele><time>2015-11-24T07:07:11.0000000+00:00</time></trkpt><trkpt lat="30.52973441" lon="35.57160909"><ele>1249.4</ele><time>2015-11-24T07:07:12.0000000+00:00</time></trkpt><trkpt lat="30.52967448" lon="35.57166969"><ele>1248.9</ele><time>2015-11-24T07:07:13.0000000+00:00</time></trkpt><trkpt lat="30.52951262" lon="35.57182032"><ele>1247.9</ele><time>2015-11-24T07:07:16.0000000+00:00</time></trkpt><trkpt lat="30.52925915" lon="35.57207781"><ele>1246.0</ele><time>2015-11-24T07:07:26.0000000+00:00</time></trkpt><trkpt lat="30.52922722" lon="35.57212777"><ele>1245.0</ele><time>2015-11-24T07:07:38.0000000+00:00</time></trkpt><trkpt lat="30.5292232" lon="35.5721172"><ele>1245.0</ele><time>2015-11-24T07:08:10.0000000+00:00</time></trkpt><trkpt lat="30.52923351" lon="35.57211519"><ele>1245.0</ele><time>2015-11-24T07:08:47.0000000+00:00</time></trkpt><trkpt lat="30.52924281" lon="35.5720996"><ele>1245.0</ele><time>2015-11-24T07:09:19.0000000+00:00</time></trkpt><trkpt lat="30.5292382" lon="35.57210136"><ele>1244.1</ele><time>2015-11-24T07:09:45.0000000+00:00</time></trkpt><trkpt lat="30.52923468" lon="35.57210488"><ele>1245.0</ele><time>2015-11-24T07:10:06.0000000+00:00</time></trkpt><trkpt lat="30.52921607" lon="35.57210916"><ele>1244.6</ele><time>2015-11-24T07:10:37.0000000+00:00</time></trkpt><trkpt lat="30.52922194" lon="35.57211787"><ele>1244.6</ele><time>2015-11-24T07:11:08.0000000+00:00</time></trkpt><trkpt lat="30.52921683" lon="35.57212475"><ele>1244.6</ele><time>2015-11-24T07:11:34.0000000+00:00</time></trkpt><trkpt lat="30.52921657" lon="35.57213045"><ele>1244.6</ele><time>2015-11-24T07:12:12.0000000+00:00</time></trkpt><trkpt lat="30.52920467" lon="35.57213472"><ele>1244.1</ele><time>2015-11-24T07:12:46.0000000+00:00</time></trkpt><trkpt lat="30.52916813" lon="35.57213833"><ele>1244.6</ele><time>2015-11-24T07:12:53.0000000+00:00</time></trkpt><trkpt lat="30.52915807" lon="35.57214327"><ele>1244.6</ele><time>2015-11-24T07:12:54.0000000+00:00</time></trkpt><trkpt lat="30.52914768" lon="35.57215174"><ele>1245.0</ele><time>2015-11-24T07:12:55.0000000+00:00</time></trkpt><trkpt lat="30.52913653" lon="35.57216506"><ele>1244.6</ele><time>2015-11-24T07:12:56.0000000+00:00</time></trkpt><trkpt lat="30.52912429" lon="35.57218057"><ele>1244.6</ele><time>2015-11-24T07:12:57.0000000+00:00</time></trkpt><trkpt lat="30.52911264" lon="35.57220429"><ele>1244.6</ele><time>2015-11-24T07:12:58.0000000+00:00</time></trkpt><trkpt lat="30.52909805" lon="35.57223137"><ele>1244.1</ele><time>2015-11-24T07:12:59.0000000+00:00</time></trkpt><trkpt lat="30.5290859" lon="35.57226548"><ele>1244.1</ele><time>2015-11-24T07:13:00.0000000+00:00</time></trkpt><trkpt lat="30.5290766" lon="35.5723058"><ele>1243.6</ele><time>2015-11-24T07:13:01.0000000+00:00</time></trkpt><trkpt lat="30.52907366" lon="35.57234972"><ele>1243.1</ele><time>2015-11-24T07:13:02.0000000+00:00</time></trkpt><trkpt lat="30.52907878" lon="35.57239573"><ele>1243.1</ele><time>2015-11-24T07:13:03.0000000+00:00</time></trkpt><trkpt lat="30.52909303" lon="35.57243555"><ele>1242.6</ele><time>2015-11-24T07:13:04.0000000+00:00</time></trkpt><trkpt lat="30.52911499" lon="35.57247771"><ele>1242.2</ele><time>2015-11-24T07:13:05.0000000+00:00</time></trkpt><trkpt lat="30.52914818" lon="35.57252004"><ele>1241.7</ele><time>2015-11-24T07:13:06.0000000+00:00</time></trkpt><trkpt lat="30.52919084" lon="35.57256002"><ele>1241.2</ele><time>2015-11-24T07:13:07.0000000+00:00</time></trkpt><trkpt lat="30.52953794" lon="35.57274501"><ele>1236.9</ele><time>2015-11-24T07:13:12.0000000+00:00</time></trkpt><trkpt lat="30.52978571" lon="35.57287468"><ele>1233.5</ele><time>2015-11-24T07:13:15.0000000+00:00</time></trkpt><trkpt lat="30.52990993" lon="35.57295799"><ele>1231.1</ele><time>2015-11-24T07:13:17.0000000+00:00</time></trkpt><trkpt lat="30.52995234" lon="35.57300242"><ele>1229.7</ele><time>2015-11-24T07:13:18.0000000+00:00</time></trkpt><trkpt lat="30.52998042" lon="35.5730564"><ele>1228.7</ele><time>2015-11-24T07:13:19.0000000+00:00</time></trkpt><trkpt lat="30.52998821" lon="35.57312454"><ele>1227.7</ele><time>2015-11-24T07:13:20.0000000+00:00</time></trkpt><trkpt lat="30.5299722" lon="35.57320291"><ele>1226.8</ele><time>2015-11-24T07:13:21.0000000+00:00</time></trkpt><trkpt lat="30.52992904" lon="35.57327852"><ele>1225.8</ele><time>2015-11-24T07:13:22.0000000+00:00</time></trkpt><trkpt lat="30.52987397" lon="35.57335194"><ele>1225.3</ele><time>2015-11-24T07:13:23.0000000+00:00</time></trkpt><trkpt lat="30.52981144" lon="35.57342252"><ele>1224.9</ele><time>2015-11-24T07:13:24.0000000+00:00</time></trkpt><trkpt lat="30.52947708" lon="35.57379367"><ele>1221.5</ele><time>2015-11-24T07:13:29.0000000+00:00</time></trkpt><trkpt lat="30.52932797" lon="35.57398528"><ele>1219.1</ele><time>2015-11-24T07:13:32.0000000+00:00</time></trkpt><trkpt lat="30.52930702" lon="35.57404538"><ele>1218.1</ele><time>2015-11-24T07:13:33.0000000+00:00</time></trkpt><trkpt lat="30.52930341" lon="35.57410464"><ele>1217.2</ele><time>2015-11-24T07:13:34.0000000+00:00</time></trkpt><trkpt lat="30.52931925" lon="35.57416759"><ele>1216.7</ele><time>2015-11-24T07:13:35.0000000+00:00</time></trkpt><trkpt lat="30.52935789" lon="35.57422517"><ele>1215.7</ele><time>2015-11-24T07:13:36.0000000+00:00</time></trkpt><trkpt lat="30.52941958" lon="35.57427487"><ele>1214.3</ele><time>2015-11-24T07:13:37.0000000+00:00</time></trkpt><trkpt lat="30.52949728" lon="35.57431301"><ele>1213.3</ele><time>2015-11-24T07:13:38.0000000+00:00</time></trkpt><trkpt lat="30.52958739" lon="35.57434956"><ele>1211.9</ele><time>2015-11-24T07:13:39.0000000+00:00</time></trkpt><trkpt lat="30.52990825" lon="35.57443782"><ele>1207.6</ele><time>2015-11-24T07:13:42.0000000+00:00</time></trkpt><trkpt lat="30.53027697" lon="35.5745275"><ele>1203.2</ele><time>2015-11-24T07:13:45.0000000+00:00</time></trkpt><trkpt lat="30.53066388" lon="35.57462876"><ele>1199.4</ele><time>2015-11-24T07:13:48.0000000+00:00</time></trkpt><trkpt lat="30.53100661" lon="35.57471735"><ele>1196.5</ele><time>2015-11-24T07:13:51.0000000+00:00</time></trkpt><trkpt lat="30.53109764" lon="35.57475851"><ele>1195.5</ele><time>2015-11-24T07:13:52.0000000+00:00</time></trkpt><trkpt lat="30.53117375" lon="35.5748176"><ele>1194.6</ele><time>2015-11-24T07:13:53.0000000+00:00</time></trkpt><trkpt lat="30.53123561" lon="35.57489874"><ele>1193.6</ele><time>2015-11-24T07:13:54.0000000+00:00</time></trkpt><trkpt lat="30.53128204" lon="35.5749989"><ele>1192.7</ele><time>2015-11-24T07:13:55.0000000+00:00</time></trkpt><trkpt lat="30.53131264" lon="35.57511449"><ele>1192.2</ele><time>2015-11-24T07:13:56.0000000+00:00</time></trkpt><trkpt lat="30.53132865" lon="35.57523938"><ele>1190.7</ele><time>2015-11-24T07:13:57.0000000+00:00</time></trkpt><trkpt lat="30.53134063" lon="35.57537232"><ele>1190.3</ele><time>2015-11-24T07:13:58.0000000+00:00</time></trkpt><trkpt lat="30.53137978" lon="35.57578915"><ele>1186.4</ele><time>2015-11-24T07:14:01.0000000+00:00</time></trkpt><trkpt lat="30.53139947" lon="35.57607489"><ele>1183.0</ele><time>2015-11-24T07:14:03.0000000+00:00</time></trkpt><trkpt lat="30.53142043" lon="35.57650547"><ele>1179.2</ele><time>2015-11-24T07:14:06.0000000+00:00</time></trkpt><trkpt lat="30.53143686" lon="35.57679196"><ele>1174.9</ele><time>2015-11-24T07:14:08.0000000+00:00</time></trkpt><trkpt lat="30.53145044" lon="35.57693118"><ele>1175.8</ele><time>2015-11-24T07:14:09.0000000+00:00</time></trkpt><trkpt lat="30.53150064" lon="35.5773315"><ele>1172.5</ele><time>2015-11-24T07:14:13.0000000+00:00</time></trkpt><trkpt lat="30.53161455" lon="35.57764884"><ele>1170.5</ele><time>2015-11-24T07:14:17.0000000+00:00</time></trkpt><trkpt lat="30.53165864" lon="35.57772822"><ele>1169.6</ele><time>2015-11-24T07:14:18.0000000+00:00</time></trkpt><trkpt lat="30.53171321" lon="35.5778081"><ele>1168.6</ele><time>2015-11-24T07:14:19.0000000+00:00</time></trkpt><trkpt lat="30.53177733" lon="35.57788705"><ele>1167.7</ele><time>2015-11-24T07:14:20.0000000+00:00</time></trkpt><trkpt lat="30.53185034" lon="35.57796534"><ele>1166.7</ele><time>2015-11-24T07:14:21.0000000+00:00</time></trkpt><trkpt lat="30.53193223" lon="35.57804053"><ele>1165.7</ele><time>2015-11-24T07:14:22.0000000+00:00</time></trkpt><trkpt lat="30.53202166" lon="35.5781127"><ele>1165.3</ele><time>2015-11-24T07:14:23.0000000+00:00</time></trkpt><trkpt lat="30.53230179" lon="35.57830204"><ele>1160.9</ele><time>2015-11-24T07:14:26.0000000+00:00</time></trkpt><trkpt lat="30.53237529" lon="35.57833473"><ele>1160.0</ele><time>2015-11-24T07:14:27.0000000+00:00</time></trkpt><trkpt lat="30.53244612" lon="35.57834622"><ele>1159.0</ele><time>2015-11-24T07:14:28.0000000+00:00</time></trkpt><trkpt lat="30.53252055" lon="35.57833297"><ele>1158.5</ele><time>2015-11-24T07:14:29.0000000+00:00</time></trkpt><trkpt lat="30.53259222" lon="35.57829408"><ele>1157.6</ele><time>2015-11-24T07:14:30.0000000+00:00</time></trkpt><trkpt lat="30.53265718" lon="35.57823532"><ele>1157.6</ele><time>2015-11-24T07:14:31.0000000+00:00</time></trkpt><trkpt lat="30.53271652" lon="35.57817145"><ele>1157.1</ele><time>2015-11-24T07:14:32.0000000+00:00</time></trkpt><trkpt lat="30.53276983" lon="35.5781075"><ele>1156.6</ele><time>2015-11-24T07:14:33.0000000+00:00</time></trkpt><trkpt lat="30.53280856" lon="35.57804078"><ele>1156.6</ele><time>2015-11-24T07:14:34.0000000+00:00</time></trkpt><trkpt lat="30.53283831" lon="35.57796962"><ele>1156.1</ele><time>2015-11-24T07:14:35.0000000+00:00</time></trkpt><trkpt lat="30.53286253" lon="35.57789468"><ele>1156.1</ele><time>2015-11-24T07:14:36.0000000+00:00</time></trkpt><trkpt lat="30.53288709" lon="35.57782025"><ele>1155.6</ele><time>2015-11-24T07:14:37.0000000+00:00</time></trkpt><trkpt lat="30.53296815" lon="35.57760056"><ele>1154.7</ele><time>2015-11-24T07:14:40.0000000+00:00</time></trkpt><trkpt lat="30.53301198" lon="35.5775361"><ele>1154.7</ele><time>2015-11-24T07:14:41.0000000+00:00</time></trkpt><trkpt lat="30.53307175" lon="35.57749118"><ele>1154.2</ele><time>2015-11-24T07:14:42.0000000+00:00</time></trkpt><trkpt lat="30.53314107" lon="35.57747391"><ele>1153.2</ele><time>2015-11-24T07:14:43.0000000+00:00</time></trkpt><trkpt lat="30.5332181" lon="35.57747626"><ele>1152.8</ele><time>2015-11-24T07:14:44.0000000+00:00</time></trkpt><trkpt lat="30.53329739" lon="35.5774864"><ele>1152.8</ele><time>2015-11-24T07:14:45.0000000+00:00</time></trkpt><trkpt lat="30.5337071" lon="35.57758363"><ele>1155.2</ele><time>2015-11-24T07:14:51.0000000+00:00</time></trkpt><trkpt lat="30.53374867" lon="35.57760567"><ele>1155.6</ele><time>2015-11-24T07:14:52.0000000+00:00</time></trkpt><trkpt lat="30.53378052" lon="35.57762663"><ele>1156.6</ele><time>2015-11-24T07:14:53.0000000+00:00</time></trkpt><trkpt lat="30.53380525" lon="35.57764582"><ele>1157.1</ele><time>2015-11-24T07:14:54.0000000+00:00</time></trkpt><trkpt lat="30.53394573" lon="35.57782067"><ele>1160.0</ele><time>2015-11-24T07:15:03.0000000+00:00</time></trkpt><trkpt lat="30.53411571" lon="35.57806584"><ele>1162.9</ele><time>2015-11-24T07:15:16.0000000+00:00</time></trkpt><trkpt lat="30.53425888" lon="35.57830129"><ele>1164.3</ele><time>2015-11-24T07:15:31.0000000+00:00</time></trkpt><trkpt lat="30.53436893" lon="35.57845577"><ele>1164.8</ele><time>2015-11-24T07:15:40.0000000+00:00</time></trkpt><trkpt lat="30.53438083" lon="35.57846767"><ele>1164.8</ele><time>2015-11-24T07:15:41.0000000+00:00</time></trkpt><trkpt lat="30.53439089" lon="35.5784815"><ele>1164.8</ele><time>2015-11-24T07:15:42.0000000+00:00</time></trkpt><trkpt lat="30.53440204" lon="35.57849692"><ele>1164.8</ele><time>2015-11-24T07:15:43.0000000+00:00</time></trkpt><trkpt lat="30.5344126" lon="35.57851704"><ele>1164.8</ele><time>2015-11-24T07:15:44.0000000+00:00</time></trkpt><trkpt lat="30.53442383" lon="35.57853933"><ele>1164.8</ele><time>2015-11-24T07:15:45.0000000+00:00</time></trkpt><trkpt lat="30.53443825" lon="35.57856113"><ele>1164.8</ele><time>2015-11-24T07:15:46.0000000+00:00</time></trkpt><trkpt lat="30.5346882" lon="35.57885005"><ele>1164.3</ele><time>2015-11-24T07:16:01.0000000+00:00</time></trkpt><trkpt lat="30.53502289" lon="35.579143"><ele>1164.3</ele><time>2015-11-24T07:16:15.0000000+00:00</time></trkpt><trkpt lat="30.53548196" lon="35.57929505"><ele>1163.8</ele><time>2015-11-24T07:16:32.0000000+00:00</time></trkpt><trkpt lat="30.53601933" lon="35.57939144"><ele>1165.3</ele><time>2015-11-24T07:16:50.0000000+00:00</time></trkpt><trkpt lat="30.53623625" lon="35.57967056"><ele>1167.2</ele><time>2015-11-24T07:17:03.0000000+00:00</time></trkpt><trkpt lat="30.53635779" lon="35.57995839"><ele>1169.6</ele><time>2015-11-24T07:17:18.0000000+00:00</time></trkpt><trkpt lat="30.53643809" lon="35.58019912"><ele>1173.0</ele><time>2015-11-24T07:17:32.0000000+00:00</time></trkpt><trkpt lat="30.53647413" lon="35.5803401"><ele>1174.4</ele><time>2015-11-24T07:17:41.0000000+00:00</time></trkpt><trkpt lat="30.53648125" lon="35.58035561"><ele>1174.9</ele><time>2015-11-24T07:17:42.0000000+00:00</time></trkpt><trkpt lat="30.53656197" lon="35.58052568"><ele>1178.2</ele><time>2015-11-24T07:17:54.0000000+00:00</time></trkpt><trkpt lat="30.53657211" lon="35.58053783"><ele>1178.2</ele><time>2015-11-24T07:17:55.0000000+00:00</time></trkpt><trkpt lat="30.53658259" lon="35.58054739"><ele>1178.7</ele><time>2015-11-24T07:17:56.0000000+00:00</time></trkpt><trkpt lat="30.5365929" lon="35.58055895"><ele>1178.7</ele><time>2015-11-24T07:17:57.0000000+00:00</time></trkpt><trkpt lat="30.53660254" lon="35.58057354"><ele>1179.7</ele><time>2015-11-24T07:17:58.0000000+00:00</time></trkpt><trkpt lat="30.53661226" lon="35.58058678"><ele>1179.7</ele><time>2015-11-24T07:17:59.0000000+00:00</time></trkpt><trkpt lat="30.53662039" lon="35.58060137"><ele>1180.2</ele><time>2015-11-24T07:18:00.0000000+00:00</time></trkpt><trkpt lat="30.53670706" lon="35.5807074"><ele>1183.0</ele><time>2015-11-24T07:18:09.0000000+00:00</time></trkpt><trkpt lat="30.53682667" lon="35.58081033"><ele>1184.0</ele><time>2015-11-24T07:18:19.0000000+00:00</time></trkpt><trkpt lat="30.53683665" lon="35.58082282"><ele>1184.0</ele><time>2015-11-24T07:18:20.0000000+00:00</time></trkpt><trkpt lat="30.53684754" lon="35.58083086"><ele>1185.0</ele><time>2015-11-24T07:18:21.0000000+00:00</time></trkpt><trkpt lat="30.53685953" lon="35.58083933"><ele>1185.0</ele><time>2015-11-24T07:18:22.0000000+00:00</time></trkpt><trkpt lat="30.5368726" lon="35.58084821"><ele>1185.4</ele><time>2015-11-24T07:18:23.0000000+00:00</time></trkpt><trkpt lat="30.53691695" lon="35.58088526"><ele>1186.4</ele><time>2015-11-24T07:18:27.0000000+00:00</time></trkpt><trkpt lat="30.53697051" lon="35.58092407"><ele>1187.4</ele><time>2015-11-24T07:18:32.0000000+00:00</time></trkpt><trkpt lat="30.536984" lon="35.58092809"><ele>1187.9</ele><time>2015-11-24T07:18:33.0000000+00:00</time></trkpt><trkpt lat="30.5369959" lon="35.58093186"><ele>1188.3</ele><time>2015-11-24T07:18:34.0000000+00:00</time></trkpt><trkpt lat="30.53700948" lon="35.58093488"><ele>1188.8</ele><time>2015-11-24T07:18:35.0000000+00:00</time></trkpt><trkpt lat="30.53702046" lon="35.58093991"><ele>1189.3</ele><time>2015-11-24T07:18:36.0000000+00:00</time></trkpt><trkpt lat="30.53703161" lon="35.58094184"><ele>1188.8</ele><time>2015-11-24T07:18:37.0000000+00:00</time></trkpt><trkpt lat="30.5370441" lon="35.58094536"><ele>1188.8</ele><time>2015-11-24T07:18:38.0000000+00:00</time></trkpt><trkpt lat="30.53713035" lon="35.5809607"><ele>1189.8</ele><time>2015-11-24T07:18:44.0000000+00:00</time></trkpt><trkpt lat="30.53714594" lon="35.58096916"><ele>1190.3</ele><time>2015-11-24T07:18:45.0000000+00:00</time></trkpt><trkpt lat="30.5371591" lon="35.58097101"><ele>1190.3</ele><time>2015-11-24T07:18:46.0000000+00:00</time></trkpt><trkpt lat="30.53735339" lon="35.58100672"><ele>1191.7</ele><time>2015-11-24T07:19:01.0000000+00:00</time></trkpt><trkpt lat="30.53740896" lon="35.58102365"><ele>1192.2</ele><time>2015-11-24T07:19:05.0000000+00:00</time></trkpt><trkpt lat="30.5377025" lon="35.58108282"><ele>1194.6</ele><time>2015-11-24T07:19:24.0000000+00:00</time></trkpt><trkpt lat="30.5379413" lon="35.58112037"><ele>1197.0</ele><time>2015-11-24T07:19:39.0000000+00:00</time></trkpt><trkpt lat="30.53819267" lon="35.58117645"><ele>1200.3</ele><time>2015-11-24T07:19:54.0000000+00:00</time></trkpt><trkpt lat="30.53845402" lon="35.58124183"><ele>1202.8</ele><time>2015-11-24T07:20:10.0000000+00:00</time></trkpt><trkpt lat="30.53867497" lon="35.58130511"><ele>1205.6</ele><time>2015-11-24T07:20:25.0000000+00:00</time></trkpt><trkpt lat="30.53870749" lon="35.58130838"><ele>1206.6</ele><time>2015-11-24T07:20:27.0000000+00:00</time></trkpt><trkpt lat="30.53872224" lon="35.58130528"><ele>1206.6</ele><time>2015-11-24T07:20:28.0000000+00:00</time></trkpt><trkpt lat="30.53873783" lon="35.58130167"><ele>1206.6</ele><time>2015-11-24T07:20:29.0000000+00:00</time></trkpt><trkpt lat="30.53875308" lon="35.58129631"><ele>1207.6</ele><time>2015-11-24T07:20:30.0000000+00:00</time></trkpt><trkpt lat="30.53876583" lon="35.58128692"><ele>1207.1</ele><time>2015-11-24T07:20:31.0000000+00:00</time></trkpt><trkpt lat="30.53877647" lon="35.58127569"><ele>1207.1</ele><time>2015-11-24T07:20:32.0000000+00:00</time></trkpt><trkpt lat="30.53878569" lon="35.58126002"><ele>1208.5</ele><time>2015-11-24T07:20:33.0000000+00:00</time></trkpt><trkpt lat="30.53879298" lon="35.58124208"><ele>1208.0</ele><time>2015-11-24T07:20:34.0000000+00:00</time></trkpt><trkpt lat="30.53879902" lon="35.58122649"><ele>1208.5</ele><time>2015-11-24T07:20:35.0000000+00:00</time></trkpt><trkpt lat="30.53881033" lon="35.58121165"><ele>1209.0</ele><time>2015-11-24T07:20:36.0000000+00:00</time></trkpt><trkpt lat="30.53882919" lon="35.58093094"><ele>1211.9</ele><time>2015-11-24T07:20:52.0000000+00:00</time></trkpt><trkpt lat="30.5388183" lon="35.58091292"><ele>1211.9</ele><time>2015-11-24T07:21:03.0000000+00:00</time></trkpt><trkpt lat="30.53881519" lon="35.58084838"><ele>1213.8</ele><time>2015-11-24T07:21:15.0000000+00:00</time></trkpt><trkpt lat="30.53878821" lon="35.58073414"><ele>1214.8</ele><time>2015-11-24T07:21:31.0000000+00:00</time></trkpt><trkpt lat="30.53874001" lon="35.58061805"><ele>1216.2</ele><time>2015-11-24T07:21:48.0000000+00:00</time></trkpt><trkpt lat="30.53865083" lon="35.58048922"><ele>1219.1</ele><time>2015-11-24T07:22:06.0000000+00:00</time></trkpt><trkpt lat="30.53854345" lon="35.58040699"><ele>1220.1</ele><time>2015-11-24T07:22:22.0000000+00:00</time></trkpt><trkpt lat="30.53841278" lon="35.58030917"><ele>1222.5</ele><time>2015-11-24T07:22:41.0000000+00:00</time></trkpt><trkpt lat="30.53840012" lon="35.5803028"><ele>1222.5</ele><time>2015-11-24T07:22:42.0000000+00:00</time></trkpt><trkpt lat="30.53835729" lon="35.58027724"><ele>1222.9</ele><time>2015-11-24T07:22:46.0000000+00:00</time></trkpt><trkpt lat="30.53834648" lon="35.58027674"><ele>1223.4</ele><time>2015-11-24T07:22:47.0000000+00:00</time></trkpt><trkpt lat="30.53832494" lon="35.58028202"><ele>1223.4</ele><time>2015-11-24T07:22:49.0000000+00:00</time></trkpt><trkpt lat="30.53831052" lon="35.58027087"><ele>1223.4</ele><time>2015-11-24T07:22:50.0000000+00:00</time></trkpt><trkpt lat="30.53830583" lon="35.58025796"><ele>1223.4</ele><time>2015-11-24T07:22:51.0000000+00:00</time></trkpt><trkpt lat="30.53830214" lon="35.58024505"><ele>1224.9</ele><time>2015-11-24T07:22:52.0000000+00:00</time></trkpt><trkpt lat="30.5382925" lon="35.58023474"><ele>1224.4</ele><time>2015-11-24T07:22:53.0000000+00:00</time></trkpt><trkpt lat="30.5382816" lon="35.58022418"><ele>1223.9</ele><time>2015-11-24T07:22:54.0000000+00:00</time></trkpt><trkpt lat="30.53827238" lon="35.58021119"><ele>1223.9</ele><time>2015-11-24T07:22:55.0000000+00:00</time></trkpt><trkpt lat="30.53826157" lon="35.58020172"><ele>1224.4</ele><time>2015-11-24T07:22:56.0000000+00:00</time></trkpt><trkpt lat="30.53825" lon="35.58019325"><ele>1224.9</ele><time>2015-11-24T07:22:57.0000000+00:00</time></trkpt><trkpt lat="30.53823835" lon="35.58018361"><ele>1224.9</ele><time>2015-11-24T07:22:58.0000000+00:00</time></trkpt><trkpt lat="30.53822729" lon="35.58017263"><ele>1224.9</ele><time>2015-11-24T07:22:59.0000000+00:00</time></trkpt><trkpt lat="30.53821522" lon="35.58016358"><ele>1225.3</ele><time>2015-11-24T07:23:00.0000000+00:00</time></trkpt><trkpt lat="30.53820499" lon="35.58015352"><ele>1225.3</ele><time>2015-11-24T07:23:01.0000000+00:00</time></trkpt><trkpt lat="30.53819393" lon="35.58014673"><ele>1225.8</ele><time>2015-11-24T07:23:02.0000000+00:00</time></trkpt><trkpt lat="30.53818286" lon="35.58013952"><ele>1226.3</ele><time>2015-11-24T07:23:03.0000000+00:00</time></trkpt><trkpt lat="30.53817239" lon="35.58013131"><ele>1226.3</ele><time>2015-11-24T07:23:04.0000000+00:00</time></trkpt><trkpt lat="30.53804331" lon="35.57995914"><ele>1228.7</ele><time>2015-11-24T07:23:19.0000000+00:00</time></trkpt><trkpt lat="30.53795337" lon="35.57976712"><ele>1231.6</ele><time>2015-11-24T07:23:34.0000000+00:00</time></trkpt><trkpt lat="30.53786251" lon="35.57953913"><ele>1234.5</ele><time>2015-11-24T07:23:50.0000000+00:00</time></trkpt><trkpt lat="30.53780769" lon="35.57932849"><ele>1236.9</ele><time>2015-11-24T07:24:05.0000000+00:00</time></trkpt><trkpt lat="30.53780937" lon="35.57922011"><ele>1237.8</ele><time>2015-11-24T07:24:12.0000000+00:00</time></trkpt><trkpt lat="30.53781607" lon="35.57919203"><ele>1239.3</ele><time>2015-11-24T07:24:14.0000000+00:00</time></trkpt><trkpt lat="30.5379278" lon="35.57898014"><ele>1241.2</ele><time>2015-11-24T07:24:30.0000000+00:00</time></trkpt><trkpt lat="30.53814565" lon="35.57884502"><ele>1244.1</ele><time>2015-11-24T07:24:46.0000000+00:00</time></trkpt><trkpt lat="30.53843927" lon="35.57869574"><ele>1244.6</ele><time>2015-11-24T07:25:04.0000000+00:00</time></trkpt><trkpt lat="30.53873414" lon="35.57852793"><ele>1246.5</ele><time>2015-11-24T07:25:22.0000000+00:00</time></trkpt><trkpt lat="30.53894076" lon="35.5783214"><ele>1248.4</ele><time>2015-11-24T07:25:37.0000000+00:00</time></trkpt><trkpt lat="30.53913413" lon="35.57800993"><ele>1249.9</ele><time>2015-11-24T07:25:55.0000000+00:00</time></trkpt><trkpt lat="30.53930034" lon="35.57769662"><ele>1252.3</ele><time>2015-11-24T07:26:12.0000000+00:00</time></trkpt><trkpt lat="30.53946756" lon="35.57740233"><ele>1254.7</ele><time>2015-11-24T07:26:31.0000000+00:00</time></trkpt><trkpt lat="30.53970569" lon="35.57712556"><ele>1256.6</ele><time>2015-11-24T07:26:49.0000000+00:00</time></trkpt><trkpt lat="30.54009788" lon="35.57695038"><ele>1259.9</ele><time>2015-11-24T07:27:07.0000000+00:00</time></trkpt><trkpt lat="30.54047054" lon="35.57676614"><ele>1261.4</ele><time>2015-11-24T07:27:23.0000000+00:00</time></trkpt><trkpt lat="30.54101863" lon="35.57630681"><ele>1260.4</ele><time>2015-11-24T07:27:39.0000000+00:00</time></trkpt><trkpt lat="30.54177258" lon="35.57571723"><ele>1260.4</ele><time>2015-11-24T07:27:55.0000000+00:00</time></trkpt><trkpt lat="30.54213166" lon="35.57554138"><ele>1261.9</ele><time>2015-11-24T07:28:03.0000000+00:00</time></trkpt><trkpt lat="30.54258998" lon="35.57536536"><ele>1264.8</ele><time>2015-11-24T07:28:16.0000000+00:00</time></trkpt><trkpt lat="30.54291897" lon="35.57524977"><ele>1268.1</ele><time>2015-11-24T07:28:29.0000000+00:00</time></trkpt><trkpt lat="30.54315694" lon="35.57517207"><ele>1271.0</ele><time>2015-11-24T07:28:40.0000000+00:00</time></trkpt><trkpt lat="30.54342801" lon="35.57507845"><ele>1274.4</ele><time>2015-11-24T07:28:54.0000000+00:00</time></trkpt><trkpt lat="30.54374107" lon="35.5749792"><ele>1276.8</ele><time>2015-11-24T07:29:12.0000000+00:00</time></trkpt><trkpt lat="30.54399136" lon="35.57488189"><ele>1279.2</ele><time>2015-11-24T07:29:27.0000000+00:00</time></trkpt><trkpt lat="30.54431112" lon="35.5747684"><ele>1281.6</ele><time>2015-11-24T07:29:44.0000000+00:00</time></trkpt><trkpt lat="30.54456971" lon="35.57465826"><ele>1284.5</ele><time>2015-11-24T07:29:57.0000000+00:00</time></trkpt><trkpt lat="30.54494874" lon="35.57438719"><ele>1285.9</ele><time>2015-11-24T07:30:14.0000000+00:00</time></trkpt><trkpt lat="30.54510179" lon="35.57419164"><ele>1286.9</ele><time>2015-11-24T07:30:26.0000000+00:00</time></trkpt><trkpt lat="30.54510011" lon="35.57419189"><ele>1286.9</ele><time>2015-11-24T07:30:27.0000000+00:00</time></trkpt><trkpt lat="30.54511528" lon="35.57421352"><ele>1284.0</ele><time>2015-11-24T07:30:46.0000000+00:00</time></trkpt><trkpt lat="30.5451209" lon="35.57421033"><ele>1283.0</ele><time>2015-11-24T07:31:34.0000000+00:00</time></trkpt><trkpt lat="30.54512115" lon="35.57421193"><ele>1283.5</ele><time>2015-11-24T07:32:12.0000000+00:00</time></trkpt><trkpt lat="30.54511319" lon="35.57420187"><ele>1285.4</ele><time>2015-11-24T07:32:29.0000000+00:00</time></trkpt><trkpt lat="30.54511135" lon="35.57416851"><ele>1284.5</ele><time>2015-11-24T07:32:35.0000000+00:00</time></trkpt><trkpt lat="30.54511034" lon="35.57414588"><ele>1285.4</ele><time>2015-11-24T07:32:37.0000000+00:00</time></trkpt><trkpt lat="30.5451142" lon="35.57413029"><ele>1285.4</ele><time>2015-11-24T07:32:38.0000000+00:00</time></trkpt><trkpt lat="30.54521453" lon="35.57392401"><ele>1282.1</ele><time>2015-11-24T07:32:45.0000000+00:00</time></trkpt><trkpt lat="30.54539633" lon="35.57351849"><ele>1278.7</ele><time>2015-11-24T07:32:52.0000000+00:00</time></trkpt><trkpt lat="30.54559221" lon="35.57311364"><ele>1275.8</ele><time>2015-11-24T07:32:57.0000000+00:00</time></trkpt><trkpt lat="30.54564326" lon="35.57303863"><ele>1274.9</ele><time>2015-11-24T07:32:58.0000000+00:00</time></trkpt><trkpt lat="30.54588659" lon="35.5727751"><ele>1272.4</ele><time>2015-11-24T07:33:02.0000000+00:00</time></trkpt><trkpt lat="30.54618113" lon="35.57258232"><ele>1272.4</ele><time>2015-11-24T07:33:06.0000000+00:00</time></trkpt><trkpt lat="30.54626335" lon="35.57255683"><ele>1272.4</ele><time>2015-11-24T07:33:07.0000000+00:00</time></trkpt><trkpt lat="30.54634667" lon="35.57254233"><ele>1272.4</ele><time>2015-11-24T07:33:08.0000000+00:00</time></trkpt><trkpt lat="30.54657466" lon="35.57251132"><ele>1275.8</ele><time>2015-11-24T07:33:11.0000000+00:00</time></trkpt><trkpt lat="30.54663886" lon="35.57248525"><ele>1276.3</ele><time>2015-11-24T07:33:12.0000000+00:00</time></trkpt><trkpt lat="30.54669502" lon="35.57244753"><ele>1276.3</ele><time>2015-11-24T07:33:13.0000000+00:00</time></trkpt><trkpt lat="30.54674171" lon="35.57239716"><ele>1276.8</ele><time>2015-11-24T07:33:14.0000000+00:00</time></trkpt><trkpt lat="30.54677574" lon="35.57233371"><ele>1276.8</ele><time>2015-11-24T07:33:15.0000000+00:00</time></trkpt><trkpt lat="30.54679669" lon="35.57226221"><ele>1276.8</ele><time>2015-11-24T07:33:16.0000000+00:00</time></trkpt><trkpt lat="30.54680717" lon="35.5721856"><ele>1275.8</ele><time>2015-11-24T07:33:17.0000000+00:00</time></trkpt><trkpt lat="30.54680742" lon="35.57210539"><ele>1275.3</ele><time>2015-11-24T07:33:18.0000000+00:00</time></trkpt><trkpt lat="30.54680055" lon="35.57202299"><ele>1274.4</ele><time>2015-11-24T07:33:19.0000000+00:00</time></trkpt><trkpt lat="30.54678949" lon="35.57194127"><ele>1273.9</ele><time>2015-11-24T07:33:20.0000000+00:00</time></trkpt><trkpt lat="30.54677373" lon="35.57185954"><ele>1272.9</ele><time>2015-11-24T07:33:21.0000000+00:00</time></trkpt><trkpt lat="30.54675931" lon="35.57177631"><ele>1272.4</ele><time>2015-11-24T07:33:22.0000000+00:00</time></trkpt><trkpt lat="30.54674841" lon="35.57169165"><ele>1272.0</ele><time>2015-11-24T07:33:23.0000000+00:00</time></trkpt><trkpt lat="30.54674121" lon="35.57152301"><ele>1272.0</ele><time>2015-11-24T07:33:25.0000000+00:00</time></trkpt><trkpt lat="30.54674833" lon="35.57144145"><ele>1271.0</ele><time>2015-11-24T07:33:26.0000000+00:00</time></trkpt><trkpt lat="30.54676308" lon="35.57136292"><ele>1271.5</ele><time>2015-11-24T07:33:27.0000000+00:00</time></trkpt><trkpt lat="30.54678245" lon="35.57128807"><ele>1271.0</ele><time>2015-11-24T07:33:28.0000000+00:00</time></trkpt><trkpt lat="30.54680717" lon="35.57121615"><ele>1271.0</ele><time>2015-11-24T07:33:29.0000000+00:00</time></trkpt><trkpt lat="30.5468402" lon="35.57114926"><ele>1270.5</ele><time>2015-11-24T07:33:30.0000000+00:00</time></trkpt><trkpt lat="30.54688051" lon="35.57108816"><ele>1270.5</ele><time>2015-11-24T07:33:31.0000000+00:00</time></trkpt><trkpt lat="30.5469272" lon="35.57103468"><ele>1270.5</ele><time>2015-11-24T07:33:32.0000000+00:00</time></trkpt><trkpt lat="30.54697908" lon="35.57098657"><ele>1270.5</ele><time>2015-11-24T07:33:33.0000000+00:00</time></trkpt><trkpt lat="30.54703692" lon="35.57094399"><ele>1270.5</ele><time>2015-11-24T07:33:34.0000000+00:00</time></trkpt><trkpt lat="30.54709836" lon="35.57090091"><ele>1270.0</ele><time>2015-11-24T07:33:35.0000000+00:00</time></trkpt><trkpt lat="30.54715888" lon="35.57084869"><ele>1269.6</ele><time>2015-11-24T07:33:36.0000000+00:00</time></trkpt><trkpt lat="30.54721428" lon="35.57078264"><ele>1269.1</ele><time>2015-11-24T07:33:37.0000000+00:00</time></trkpt><trkpt lat="30.54726725" lon="35.57070661"><ele>1268.6</ele><time>2015-11-24T07:33:38.0000000+00:00</time></trkpt><trkpt lat="30.54750362" lon="35.57034845"><ele>1264.8</ele><time>2015-11-24T07:33:42.0000000+00:00</time></trkpt><trkpt lat="30.54770764" lon="35.57003908"><ele>1261.4</ele><time>2015-11-24T07:33:45.0000000+00:00</time></trkpt><trkpt lat="30.54785407" lon="35.56986105"><ele>1259.9</ele><time>2015-11-24T07:33:47.0000000+00:00</time></trkpt><trkpt lat="30.54792213" lon="35.56980078"><ele>1259.5</ele><time>2015-11-24T07:33:48.0000000+00:00</time></trkpt><trkpt lat="30.54798173" lon="35.5697608"><ele>1258.5</ele><time>2015-11-24T07:33:49.0000000+00:00</time></trkpt><trkpt lat="30.54803093" lon="35.56972702"><ele>1258.0</ele><time>2015-11-24T07:33:50.0000000+00:00</time></trkpt><trkpt lat="30.5480715" lon="35.56969626"><ele>1257.5</ele><time>2015-11-24T07:33:51.0000000+00:00</time></trkpt><trkpt lat="30.54814559" lon="35.56964069"><ele>1257.1</ele><time>2015-11-24T07:33:53.0000000+00:00</time></trkpt><trkpt lat="30.54838917" lon="35.56939107"><ele>1254.7</ele><time>2015-11-24T07:33:59.0000000+00:00</time></trkpt><trkpt lat="30.54843544" lon="35.56931891"><ele>1253.7</ele><time>2015-11-24T07:34:00.0000000+00:00</time></trkpt><trkpt lat="30.5484802" lon="35.5692371"><ele>1252.7</ele><time>2015-11-24T07:34:01.0000000+00:00</time></trkpt><trkpt lat="30.5485232" lon="35.56914247"><ele>1251.3</ele><time>2015-11-24T07:34:02.0000000+00:00</time></trkpt><trkpt lat="30.54856645" lon="35.56903736"><ele>1249.9</ele><time>2015-11-24T07:34:03.0000000+00:00</time></trkpt><trkpt lat="30.54869637" lon="35.56866009"><ele>1245.5</ele><time>2015-11-24T07:34:06.0000000+00:00</time></trkpt><trkpt lat="30.54878488" lon="35.5683637"><ele>1240.7</ele><time>2015-11-24T07:34:08.0000000+00:00</time></trkpt><trkpt lat="30.54888404" lon="35.56808014"><ele>1236.9</ele><time>2015-11-24T07:34:10.0000000+00:00</time></trkpt><trkpt lat="30.54894405" lon="35.56795559"><ele>1236.4</ele><time>2015-11-24T07:34:11.0000000+00:00</time></trkpt><trkpt lat="30.54900415" lon="35.56785266"><ele>1235.9</ele><time>2015-11-24T07:34:12.0000000+00:00</time></trkpt><trkpt lat="30.54905939" lon="35.56775275"><ele>1235.0</ele><time>2015-11-24T07:34:13.0000000+00:00</time></trkpt><trkpt lat="30.54910675" lon="35.56763666"><ele>1234.0</ele><time>2015-11-24T07:34:14.0000000+00:00</time></trkpt><trkpt lat="30.54914681" lon="35.56750682"><ele>1232.1</ele><time>2015-11-24T07:34:15.0000000+00:00</time></trkpt><trkpt lat="30.54918135" lon="35.56736651"><ele>1230.6</ele><time>2015-11-24T07:34:16.0000000+00:00</time></trkpt><trkpt lat="30.54921119" lon="35.5672215"><ele>1228.7</ele><time>2015-11-24T07:34:17.0000000+00:00</time></trkpt><trkpt lat="30.54927112" lon="35.56669998"><ele>1225.8</ele><time>2015-11-24T07:34:21.0000000+00:00</time></trkpt><trkpt lat="30.54929148" lon="35.56660652"><ele>1225.3</ele><time>2015-11-24T07:34:22.0000000+00:00</time></trkpt><trkpt lat="30.54932367" lon="35.56653586"><ele>1225.8</ele><time>2015-11-24T07:34:23.0000000+00:00</time></trkpt><trkpt lat="30.54936617" lon="35.56648767"><ele>1225.3</ele><time>2015-11-24T07:34:24.0000000+00:00</time></trkpt><trkpt lat="30.54941403" lon="35.56645774"><ele>1224.9</ele><time>2015-11-24T07:34:25.0000000+00:00</time></trkpt><trkpt lat="30.54946767" lon="35.56644634"><ele>1223.9</ele><time>2015-11-24T07:34:26.0000000+00:00</time></trkpt><trkpt lat="30.54952945" lon="35.5664564"><ele>1222.9</ele><time>2015-11-24T07:34:27.0000000+00:00</time></trkpt><trkpt lat="30.54959835" lon="35.56648381"><ele>1222.5</ele><time>2015-11-24T07:34:28.0000000+00:00</time></trkpt><trkpt lat="30.54967345" lon="35.566517"><ele>1221.0</ele><time>2015-11-24T07:34:29.0000000+00:00</time></trkpt><trkpt lat="30.54991133" lon="35.56659445"><ele>1218.1</ele><time>2015-11-24T07:34:32.0000000+00:00</time></trkpt><trkpt lat="30.54998727" lon="35.56659579"><ele>1217.7</ele><time>2015-11-24T07:34:33.0000000+00:00</time></trkpt><trkpt lat="30.55006262" lon="35.56657584"><ele>1216.7</ele><time>2015-11-24T07:34:34.0000000+00:00</time></trkpt><trkpt lat="30.55013227" lon="35.56653268"><ele>1216.2</ele><time>2015-11-24T07:34:35.0000000+00:00</time></trkpt><trkpt lat="30.55019564" lon="35.56646504"><ele>1214.8</ele><time>2015-11-24T07:34:36.0000000+00:00</time></trkpt><trkpt lat="30.55025674" lon="35.56638306"><ele>1213.8</ele><time>2015-11-24T07:34:37.0000000+00:00</time></trkpt><trkpt lat="30.55032145" lon="35.56630838"><ele>1212.4</ele><time>2015-11-24T07:34:38.0000000+00:00</time></trkpt><trkpt lat="30.55039647" lon="35.56625691"><ele>1211.4</ele><time>2015-11-24T07:34:39.0000000+00:00</time></trkpt><trkpt lat="30.55048062" lon="35.56622908"><ele>1210.0</ele><time>2015-11-24T07:34:40.0000000+00:00</time></trkpt><trkpt lat="30.55075773" lon="35.56617762"><ele>1206.6</ele><time>2015-11-24T07:34:43.0000000+00:00</time></trkpt><trkpt lat="30.55086024" lon="35.56617728"><ele>1205.6</ele><time>2015-11-24T07:34:44.0000000+00:00</time></trkpt><trkpt lat="30.55095881" lon="35.56619338"><ele>1205.2</ele><time>2015-11-24T07:34:45.0000000+00:00</time></trkpt><trkpt lat="30.5510423" lon="35.56622297"><ele>1204.2</ele><time>2015-11-24T07:34:46.0000000+00:00</time></trkpt><trkpt lat="30.55110918" lon="35.56626286"><ele>1204.2</ele><time>2015-11-24T07:34:47.0000000+00:00</time></trkpt><trkpt lat="30.55116618" lon="35.56630301"><ele>1203.7</ele><time>2015-11-24T07:34:48.0000000+00:00</time></trkpt><trkpt lat="30.55122217" lon="35.56633738"><ele>1202.8</ele><time>2015-11-24T07:34:49.0000000+00:00</time></trkpt><trkpt lat="30.55128093" lon="35.56637334"><ele>1202.8</ele><time>2015-11-24T07:34:50.0000000+00:00</time></trkpt><trkpt lat="30.55155636" lon="35.56652463"><ele>1198.9</ele><time>2015-11-24T07:34:54.0000000+00:00</time></trkpt><trkpt lat="30.55169365" lon="35.56660485"><ele>1195.5</ele><time>2015-11-24T07:34:56.0000000+00:00</time></trkpt><trkpt lat="30.55179055" lon="35.56666729"><ele>1193.6</ele><time>2015-11-24T07:34:58.0000000+00:00</time></trkpt><trkpt lat="30.55184268" lon="35.56668649"><ele>1193.1</ele><time>2015-11-24T07:34:59.0000000+00:00</time></trkpt><trkpt lat="30.55189289" lon="35.5666833"><ele>1192.2</ele><time>2015-11-24T07:35:00.0000000+00:00</time></trkpt><trkpt lat="30.55193195" lon="35.56665346"><ele>1190.7</ele><time>2015-11-24T07:35:01.0000000+00:00</time></trkpt><trkpt lat="30.55195081" lon="35.56660024"><ele>1189.3</ele><time>2015-11-24T07:35:02.0000000+00:00</time></trkpt><trkpt lat="30.55195006" lon="35.5665336"><ele>1189.3</ele><time>2015-11-24T07:35:03.0000000+00:00</time></trkpt><trkpt lat="30.55193824" lon="35.56646059"><ele>1188.8</ele><time>2015-11-24T07:35:04.0000000+00:00</time></trkpt><trkpt lat="30.55191661" lon="35.56628834"><ele>1185.4</ele><time>2015-11-24T07:35:06.0000000+00:00</time></trkpt><trkpt lat="30.55188644" lon="35.56598869"><ele>1183.0</ele><time>2015-11-24T07:35:09.0000000+00:00</time></trkpt><trkpt lat="30.55189851" lon="35.56588291"><ele>1183.0</ele><time>2015-11-24T07:35:10.0000000+00:00</time></trkpt><trkpt lat="30.55192122" lon="35.56577579"><ele>1182.6</ele><time>2015-11-24T07:35:11.0000000+00:00</time></trkpt><trkpt lat="30.55195517" lon="35.56567035"><ele>1182.1</ele><time>2015-11-24T07:35:12.0000000+00:00</time></trkpt><trkpt lat="30.55200378" lon="35.56557018"><ele>1181.1</ele><time>2015-11-24T07:35:13.0000000+00:00</time></trkpt><trkpt lat="30.55206631" lon="35.5654753"><ele>1180.2</ele><time>2015-11-24T07:35:14.0000000+00:00</time></trkpt><trkpt lat="30.55214854" lon="35.56539626"><ele>1179.2</ele><time>2015-11-24T07:35:15.0000000+00:00</time></trkpt><trkpt lat="30.55224954" lon="35.56534966"><ele>1178.7</ele><time>2015-11-24T07:35:16.0000000+00:00</time></trkpt><trkpt lat="30.55235557" lon="35.56534052"><ele>1178.7</ele><time>2015-11-24T07:35:17.0000000+00:00</time></trkpt><trkpt lat="30.5524549" lon="35.56536458"><ele>1178.7</ele><time>2015-11-24T07:35:18.0000000+00:00</time></trkpt><trkpt lat="30.55254308" lon="35.5654121"><ele>1178.7</ele><time>2015-11-24T07:35:19.0000000+00:00</time></trkpt><trkpt lat="30.55262706" lon="35.56545996"><ele>1178.7</ele><time>2015-11-24T07:35:20.0000000+00:00</time></trkpt><trkpt lat="30.55270853" lon="35.56549768"><ele>1177.8</ele><time>2015-11-24T07:35:21.0000000+00:00</time></trkpt><trkpt lat="30.55278137" lon="35.5655219"><ele>1178.2</ele><time>2015-11-24T07:35:22.0000000+00:00</time></trkpt><trkpt lat="30.55284751" lon="35.56552945"><ele>1177.8</ele><time>2015-11-24T07:35:23.0000000+00:00</time></trkpt><trkpt lat="30.55291666" lon="35.56552107"><ele>1176.8</ele><time>2015-11-24T07:35:24.0000000+00:00</time></trkpt><trkpt lat="30.55299511" lon="35.56550103"><ele>1175.4</ele><time>2015-11-24T07:35:25.0000000+00:00</time></trkpt><trkpt lat="30.55308673" lon="35.56547329"><ele>1173.4</ele><time>2015-11-24T07:35:26.0000000+00:00</time></trkpt><trkpt lat="30.55319209" lon="35.56544781"><ele>1171.5</ele><time>2015-11-24T07:35:27.0000000+00:00</time></trkpt><trkpt lat="30.55331052" lon="35.56543054"><ele>1169.1</ele><time>2015-11-24T07:35:28.0000000+00:00</time></trkpt><trkpt lat="30.55343625" lon="35.56542635"><ele>1168.1</ele><time>2015-11-24T07:35:29.0000000+00:00</time></trkpt><trkpt lat="30.5535634" lon="35.56543557"><ele>1167.7</ele><time>2015-11-24T07:35:30.0000000+00:00</time></trkpt><trkpt lat="30.55368712" lon="35.56545502"><ele>1166.7</ele><time>2015-11-24T07:35:31.0000000+00:00</time></trkpt><trkpt lat="30.55379944" lon="35.56548083"><ele>1165.3</ele><time>2015-11-24T07:35:32.0000000+00:00</time></trkpt><trkpt lat="30.55399683" lon="35.56552911"><ele>1164.8</ele><time>2015-11-24T07:35:34.0000000+00:00</time></trkpt><trkpt lat="30.5544135" lon="35.56559508"><ele>1160.9</ele><time>2015-11-24T07:35:40.0000000+00:00</time></trkpt><trkpt lat="30.55459312" lon="35.56559541"><ele>1158.5</ele><time>2015-11-24T07:35:46.0000000+00:00</time></trkpt><trkpt lat="30.55458248" lon="35.56560748"><ele>1158.5</ele><time>2015-11-24T07:36:09.0000000+00:00</time></trkpt><trkpt lat="30.55459153" lon="35.56560983"><ele>1158.5</ele><time>2015-11-24T07:36:24.0000000+00:00</time></trkpt><trkpt lat="30.55460762" lon="35.56560597"><ele>1158.5</ele><time>2015-11-24T07:36:25.0000000+00:00</time></trkpt><trkpt lat="30.55463428" lon="35.56559835"><ele>1158.1</ele><time>2015-11-24T07:36:26.0000000+00:00</time></trkpt><trkpt lat="30.55467166" lon="35.56558175"><ele>1157.1</ele><time>2015-11-24T07:36:27.0000000+00:00</time></trkpt><trkpt lat="30.55471893" lon="35.56555443"><ele>1156.6</ele><time>2015-11-24T07:36:28.0000000+00:00</time></trkpt><trkpt lat="30.55476596" lon="35.56551461"><ele>1155.6</ele><time>2015-11-24T07:36:29.0000000+00:00</time></trkpt><trkpt lat="30.5548051" lon="35.56546357"><ele>1155.6</ele><time>2015-11-24T07:36:30.0000000+00:00</time></trkpt><trkpt lat="30.55483712" lon="35.56540472"><ele>1155.2</ele><time>2015-11-24T07:36:31.0000000+00:00</time></trkpt><trkpt lat="30.55486637" lon="35.56533993"><ele>1154.7</ele><time>2015-11-24T07:36:32.0000000+00:00</time></trkpt><trkpt lat="30.555018" lon="35.56500767"><ele>1151.8</ele><time>2015-11-24T07:36:36.0000000+00:00</time></trkpt><trkpt lat="30.55522746" lon="35.56456653"><ele>1148.9</ele><time>2015-11-24T07:36:40.0000000+00:00</time></trkpt><trkpt lat="30.55557129" lon="35.56388391"><ele>1152.3</ele><time>2015-11-24T07:36:48.0000000+00:00</time></trkpt><trkpt lat="30.55566181" lon="35.56370605"><ele>1155.6</ele><time>2015-11-24T07:36:53.0000000+00:00</time></trkpt><trkpt lat="30.55570641" lon="35.56361192"><ele>1155.2</ele><time>2015-11-24T07:36:57.0000000+00:00</time></trkpt><trkpt lat="30.55571998" lon="35.56359122"><ele>1155.2</ele><time>2015-11-24T07:36:58.0000000+00:00</time></trkpt><trkpt lat="30.55573356" lon="35.5635716"><ele>1155.6</ele><time>2015-11-24T07:36:59.0000000+00:00</time></trkpt><trkpt lat="30.55574563" lon="35.56355182"><ele>1155.2</ele><time>2015-11-24T07:37:00.0000000+00:00</time></trkpt><trkpt lat="30.555752" lon="35.56353196"><ele>1155.6</ele><time>2015-11-24T07:37:01.0000000+00:00</time></trkpt><trkpt lat="30.5557593" lon="35.56351343"><ele>1155.6</ele><time>2015-11-24T07:37:02.0000000+00:00</time></trkpt><trkpt lat="30.55576818" lon="35.56349524"><ele>1155.2</ele><time>2015-11-24T07:37:03.0000000+00:00</time></trkpt><trkpt lat="30.55577715" lon="35.56347638"><ele>1155.2</ele><time>2015-11-24T07:37:04.0000000+00:00</time></trkpt><trkpt lat="30.5557888" lon="35.56345794"><ele>1156.1</ele><time>2015-11-24T07:37:05.0000000+00:00</time></trkpt><trkpt lat="30.55579928" lon="35.56343883"><ele>1156.1</ele><time>2015-11-24T07:37:06.0000000+00:00</time></trkpt><trkpt lat="30.55580799" lon="35.56341738"><ele>1155.6</ele><time>2015-11-24T07:37:07.0000000+00:00</time></trkpt><trkpt lat="30.55581294" lon="35.56339717"><ele>1155.6</ele><time>2015-11-24T07:37:08.0000000+00:00</time></trkpt><trkpt lat="30.55596331" lon="35.56312988"><ele>1155.2</ele><time>2015-11-24T07:37:20.0000000+00:00</time></trkpt><trkpt lat="30.55629272" lon="35.56280122"><ele>1152.3</ele><time>2015-11-24T07:37:29.0000000+00:00</time></trkpt><trkpt lat="30.55636237" lon="35.56276375"><ele>1151.3</ele><time>2015-11-24T07:37:30.0000000+00:00</time></trkpt><trkpt lat="30.55643245" lon="35.56273886"><ele>1151.3</ele><time>2015-11-24T07:37:31.0000000+00:00</time></trkpt><trkpt lat="30.55650176" lon="35.56272444"><ele>1151.3</ele><time>2015-11-24T07:37:32.0000000+00:00</time></trkpt><trkpt lat="30.55656966" lon="35.56272252"><ele>1151.3</ele><time>2015-11-24T07:37:33.0000000+00:00</time></trkpt><trkpt lat="30.55663546" lon="35.56273283"><ele>1151.8</ele><time>2015-11-24T07:37:34.0000000+00:00</time></trkpt><trkpt lat="30.55669706" lon="35.56274674"><ele>1152.3</ele><time>2015-11-24T07:37:35.0000000+00:00</time></trkpt><trkpt lat="30.55744825" lon="35.56297665"><ele>1154.7</ele><time>2015-11-24T07:37:50.0000000+00:00</time></trkpt><trkpt lat="30.55760675" lon="35.56304522"><ele>1155.6</ele><time>2015-11-24T07:37:54.0000000+00:00</time></trkpt><trkpt lat="30.55777296" lon="35.56308822"><ele>1155.6</ele><time>2015-11-24T07:37:58.0000000+00:00</time></trkpt><trkpt lat="30.55863865" lon="35.5630241"><ele>1154.2</ele><time>2015-11-24T07:38:15.0000000+00:00</time></trkpt><trkpt lat="30.55873848" lon="35.56297783"><ele>1153.7</ele><time>2015-11-24T07:38:17.0000000+00:00</time></trkpt><trkpt lat="30.558786" lon="35.56294329"><ele>1153.7</ele><time>2015-11-24T07:38:18.0000000+00:00</time></trkpt><trkpt lat="30.5588316" lon="35.562907"><ele>1153.7</ele><time>2015-11-24T07:38:19.0000000+00:00</time></trkpt><trkpt lat="30.55887351" lon="35.56286425"><ele>1153.7</ele><time>2015-11-24T07:38:20.0000000+00:00</time></trkpt><trkpt lat="30.55891332" lon="35.56281388"><ele>1153.2</ele><time>2015-11-24T07:38:21.0000000+00:00</time></trkpt><trkpt lat="30.55895381" lon="35.56275898"><ele>1153.2</ele><time>2015-11-24T07:38:22.0000000+00:00</time></trkpt><trkpt lat="30.55899764" lon="35.56270382"><ele>1152.8</ele><time>2015-11-24T07:38:23.0000000+00:00</time></trkpt><trkpt lat="30.5593522" lon="35.56216562"><ele>1151.3</ele><time>2015-11-24T07:38:31.0000000+00:00</time></trkpt><trkpt lat="30.55939998" lon="35.56210619"><ele>1151.8</ele><time>2015-11-24T07:38:32.0000000+00:00</time></trkpt><trkpt lat="30.55945404" lon="35.56205247"><ele>1151.8</ele><time>2015-11-24T07:38:33.0000000+00:00</time></trkpt><trkpt lat="30.55994019" lon="35.56162155"><ele>1151.8</ele><time>2015-11-24T07:38:42.0000000+00:00</time></trkpt><trkpt lat="30.55999861" lon="35.56159238"><ele>1151.8</ele><time>2015-11-24T07:38:43.0000000+00:00</time></trkpt><trkpt lat="30.5605669" lon="35.56147495"><ele>1153.7</ele><time>2015-11-24T07:38:54.0000000+00:00</time></trkpt><trkpt lat="30.56079213" lon="35.56145752"><ele>1156.6</ele><time>2015-11-24T07:39:06.0000000+00:00</time></trkpt><trkpt lat="30.56090059" lon="35.56142516"><ele>1158.1</ele><time>2015-11-24T07:39:13.0000000+00:00</time></trkpt><trkpt lat="30.56091702" lon="35.56141913"><ele>1158.5</ele><time>2015-11-24T07:39:14.0000000+00:00</time></trkpt><trkpt lat="30.56111927" lon="35.56136993"><ele>1160.9</ele><time>2015-11-24T07:39:29.0000000+00:00</time></trkpt><trkpt lat="30.56135313" lon="35.56128577"><ele>1163.3</ele><time>2015-11-24T07:39:46.0000000+00:00</time></trkpt><trkpt lat="30.56141675" lon="35.56124697"><ele>1163.8</ele><time>2015-11-24T07:39:51.0000000+00:00</time></trkpt><trkpt lat="30.56142882" lon="35.56124219"><ele>1163.8</ele><time>2015-11-24T07:39:52.0000000+00:00</time></trkpt><trkpt lat="30.56146469" lon="35.56121352"><ele>1165.3</ele><time>2015-11-24T07:39:55.0000000+00:00</time></trkpt><trkpt lat="30.56154105" lon="35.56116683"><ele>1167.7</ele><time>2015-11-24T07:40:02.0000000+00:00</time></trkpt><trkpt lat="30.56155186" lon="35.56116139"><ele>1168.1</ele><time>2015-11-24T07:40:03.0000000+00:00</time></trkpt><trkpt lat="30.56169192" lon="35.56104471"><ele>1171.5</ele><time>2015-11-24T07:40:16.0000000+00:00</time></trkpt><trkpt lat="30.5618671" lon="35.56087716"><ele>1173.4</ele><time>2015-11-24T07:40:32.0000000+00:00</time></trkpt><trkpt lat="30.56188026" lon="35.5608645"><ele>1173.4</ele><time>2015-11-24T07:40:33.0000000+00:00</time></trkpt><trkpt lat="30.56189091" lon="35.56085209"><ele>1173.4</ele><time>2015-11-24T07:40:34.0000000+00:00</time></trkpt><trkpt lat="30.56193567" lon="35.56080909"><ele>1173.9</ele><time>2015-11-24T07:40:38.0000000+00:00</time></trkpt><trkpt lat="30.56194589" lon="35.56079744"><ele>1173.9</ele><time>2015-11-24T07:40:39.0000000+00:00</time></trkpt><trkpt lat="30.56214069" lon="35.56056744"><ele>1176.3</ele><time>2015-11-24T07:40:56.0000000+00:00</time></trkpt><trkpt lat="30.56231948" lon="35.5603615"><ele>1176.8</ele><time>2015-11-24T07:41:08.0000000+00:00</time></trkpt><trkpt lat="30.56260614" lon="35.56001675"><ele>1178.7</ele><time>2015-11-24T07:41:25.0000000+00:00</time></trkpt><trkpt lat="30.56290981" lon="35.55966413"><ele>1178.2</ele><time>2015-11-24T07:41:40.0000000+00:00</time></trkpt><trkpt lat="30.56330812" lon="35.55930362"><ele>1176.3</ele><time>2015-11-24T07:41:54.0000000+00:00</time></trkpt><trkpt lat="30.56370056" lon="35.55902459"><ele>1173.0</ele><time>2015-11-24T07:42:01.0000000+00:00</time></trkpt><trkpt lat="30.56401446" lon="35.55883356"><ele>1170.1</ele><time>2015-11-24T07:42:05.0000000+00:00</time></trkpt><trkpt lat="30.56410641" lon="35.55880079"><ele>1170.1</ele><time>2015-11-24T07:42:06.0000000+00:00</time></trkpt><trkpt lat="30.56420188" lon="35.55877791"><ele>1169.6</ele><time>2015-11-24T07:42:07.0000000+00:00</time></trkpt><trkpt lat="30.56429962" lon="35.55876265"><ele>1169.1</ele><time>2015-11-24T07:42:08.0000000+00:00</time></trkpt><trkpt lat="30.5643981" lon="35.5587562"><ele>1168.6</ele><time>2015-11-24T07:42:09.0000000+00:00</time></trkpt><trkpt lat="30.56449642" lon="35.55875888"><ele>1169.1</ele><time>2015-11-24T07:42:10.0000000+00:00</time></trkpt><trkpt lat="30.56459265" lon="35.55876802"><ele>1169.6</ele><time>2015-11-24T07:42:11.0000000+00:00</time></trkpt><trkpt lat="30.56468569" lon="35.55878419"><ele>1169.6</ele><time>2015-11-24T07:42:12.0000000+00:00</time></trkpt><trkpt lat="30.56556713" lon="35.55899198"><ele>1171.5</ele><time>2015-11-24T07:42:24.0000000+00:00</time></trkpt><trkpt lat="30.5663992" lon="35.55887681"><ele>1171.5</ele><time>2015-11-24T07:42:39.0000000+00:00</time></trkpt><trkpt lat="30.56718484" lon="35.55861027"><ele>1172.0</ele><time>2015-11-24T07:42:55.0000000+00:00</time></trkpt><trkpt lat="30.56743235" lon="35.55854908"><ele>1173.0</ele><time>2015-11-24T07:43:01.0000000+00:00</time></trkpt><trkpt lat="30.56763402" lon="35.55855009"><ele>1176.3</ele><time>2015-11-24T07:43:08.0000000+00:00</time></trkpt><trkpt lat="30.56768364" lon="35.55857012"><ele>1176.3</ele><time>2015-11-24T07:43:18.0000000+00:00</time></trkpt><trkpt lat="30.56768373" lon="35.55857431"><ele>1175.8</ele><time>2015-11-24T07:43:34.0000000+00:00</time></trkpt><trkpt lat="30.5676683" lon="35.558578"><ele>1172.5</ele><time>2015-11-24T07:43:45.0000000+00:00</time></trkpt><trkpt lat="30.567659" lon="35.55858077"><ele>1174.9</ele><time>2015-11-24T07:43:48.0000000+00:00</time></trkpt><trkpt lat="30.56763712" lon="35.55856501"><ele>1173.9</ele><time>2015-11-24T07:44:02.0000000+00:00</time></trkpt><trkpt lat="30.56763528" lon="35.55856048"><ele>1173.4</ele><time>2015-11-24T07:44:22.0000000+00:00</time></trkpt><trkpt lat="30.56762908" lon="35.55855755"><ele>1173.4</ele><time>2015-11-24T07:44:39.0000000+00:00</time></trkpt><trkpt lat="30.56763117" lon="35.55857255"><ele>1173.4</ele><time>2015-11-24T07:45:20.0000000+00:00</time></trkpt><trkpt lat="30.56763201" lon="35.55857666"><ele>1173.4</ele><time>2015-11-24T07:46:01.0000000+00:00</time></trkpt><trkpt lat="30.56763888" lon="35.55857733"><ele>1174.4</ele><time>2015-11-24T07:46:39.0000000+00:00</time></trkpt><trkpt lat="30.56764148" lon="35.55857096"><ele>1173.4</ele><time>2015-11-24T07:47:12.0000000+00:00</time></trkpt><trkpt lat="30.56764014" lon="35.5585692"><ele>1173.9</ele><time>2015-11-24T07:47:42.0000000+00:00</time></trkpt><trkpt lat="30.56764165" lon="35.55856953"><ele>1173.4</ele><time>2015-11-24T07:48:16.0000000+00:00</time></trkpt><trkpt lat="30.56763754" lon="35.55856987"><ele>1173.0</ele><time>2015-11-24T07:48:45.0000000+00:00</time></trkpt><trkpt lat="30.56763939" lon="35.55856811"><ele>1173.9</ele><time>2015-11-24T07:49:22.0000000+00:00</time></trkpt><trkpt lat="30.56764048" lon="35.55857825"><ele>1173.0</ele><time>2015-11-24T07:50:03.0000000+00:00</time></trkpt><trkpt lat="30.56763922" lon="35.55857121"><ele>1173.4</ele><time>2015-11-24T07:50:45.0000000+00:00</time></trkpt><trkpt lat="30.56764274" lon="35.55857817"><ele>1173.0</ele><time>2015-11-24T07:51:26.0000000+00:00</time></trkpt><trkpt lat="30.56763813" lon="35.55857188"><ele>1173.4</ele><time>2015-11-24T07:52:16.0000000+00:00</time></trkpt><trkpt lat="30.56763863" lon="35.55857331"><ele>1173.4</ele><time>2015-11-24T07:52:51.0000000+00:00</time></trkpt><trkpt lat="30.56762556" lon="35.55855939"><ele>1173.4</ele><time>2015-11-24T07:53:27.0000000+00:00</time></trkpt><trkpt lat="30.56763335" lon="35.55851832"><ele>1175.4</ele><time>2015-11-24T07:53:33.0000000+00:00</time></trkpt><trkpt lat="30.56763285" lon="35.55851547"><ele>1175.4</ele><time>2015-11-24T07:53:37.0000000+00:00</time></trkpt><trkpt lat="30.56763536" lon="35.55850047"><ele>1174.9</ele><time>2015-11-24T07:53:38.0000000+00:00</time></trkpt><trkpt lat="30.56763989" lon="35.55848085"><ele>1173.9</ele><time>2015-11-24T07:53:39.0000000+00:00</time></trkpt><trkpt lat="30.56764232" lon="35.55846241"><ele>1173.9</ele><time>2015-11-24T07:53:40.0000000+00:00</time></trkpt><trkpt lat="30.56765003" lon="35.55843961"><ele>1174.4</ele><time>2015-11-24T07:53:41.0000000+00:00</time></trkpt><trkpt lat="30.56766713" lon="35.55841397"><ele>1174.4</ele><time>2015-11-24T07:53:42.0000000+00:00</time></trkpt><trkpt lat="30.56773284" lon="35.55829436"><ele>1173.0</ele><time>2015-11-24T07:53:46.0000000+00:00</time></trkpt><trkpt lat="30.56776176" lon="35.55818556"><ele>1171.0</ele><time>2015-11-24T07:53:48.0000000+00:00</time></trkpt><trkpt lat="30.56781658" lon="35.55793326"><ele>1166.7</ele><time>2015-11-24T07:53:51.0000000+00:00</time></trkpt><trkpt lat="30.56786897" lon="35.55772338"><ele>1163.3</ele><time>2015-11-24T07:53:53.0000000+00:00</time></trkpt><trkpt lat="30.56791314" lon="35.55761509"><ele>1162.9</ele><time>2015-11-24T07:53:54.0000000+00:00</time></trkpt><trkpt lat="30.56796796" lon="35.55751467"><ele>1161.9</ele><time>2015-11-24T07:53:55.0000000+00:00</time></trkpt><trkpt lat="30.56802839" lon="35.55742557"><ele>1161.4</ele><time>2015-11-24T07:53:56.0000000+00:00</time></trkpt><trkpt lat="30.56809452" lon="35.55734569"><ele>1160.9</ele><time>2015-11-24T07:53:57.0000000+00:00</time></trkpt><trkpt lat="30.5681646" lon="35.55727051"><ele>1160.9</ele><time>2015-11-24T07:53:58.0000000+00:00</time></trkpt><trkpt lat="30.56858445" lon="35.55684043"><ele>1161.4</ele><time>2015-11-24T07:54:04.0000000+00:00</time></trkpt><trkpt lat="30.56866173" lon="35.55678679"><ele>1161.4</ele><time>2015-11-24T07:54:05.0000000+00:00</time></trkpt><trkpt lat="30.5687442" lon="35.55675108"><ele>1161.4</ele><time>2015-11-24T07:54:06.0000000+00:00</time></trkpt><trkpt lat="30.56883238" lon="35.55673884"><ele>1161.9</ele><time>2015-11-24T07:54:07.0000000+00:00</time></trkpt><trkpt lat="30.56892022" lon="35.55674681"><ele>1162.4</ele><time>2015-11-24T07:54:08.0000000+00:00</time></trkpt><trkpt lat="30.56900488" lon="35.55676701"><ele>1164.3</ele><time>2015-11-24T07:54:09.0000000+00:00</time></trkpt><trkpt lat="30.56908309" lon="35.55679031"><ele>1164.3</ele><time>2015-11-24T07:54:10.0000000+00:00</time></trkpt><trkpt lat="30.56925743" lon="35.55682702"><ele>1166.7</ele><time>2015-11-24T07:54:13.0000000+00:00</time></trkpt><trkpt lat="30.56929096" lon="35.55682258"><ele>1168.6</ele><time>2015-11-24T07:54:14.0000000+00:00</time></trkpt><trkpt lat="30.56931434" lon="35.5568157"><ele>1169.1</ele><time>2015-11-24T07:54:15.0000000+00:00</time></trkpt><trkpt lat="30.56933287" lon="35.55680908"><ele>1169.6</ele><time>2015-11-24T07:54:16.0000000+00:00</time></trkpt><trkpt lat="30.56935022" lon="35.55680347"><ele>1170.5</ele><time>2015-11-24T07:54:17.0000000+00:00</time></trkpt><trkpt lat="30.56951836" lon="35.55674806"><ele>1171.0</ele><time>2015-11-24T07:54:30.0000000+00:00</time></trkpt><trkpt lat="30.56953185" lon="35.55673993"><ele>1171.0</ele><time>2015-11-24T07:54:31.0000000+00:00</time></trkpt><trkpt lat="30.56954619" lon="35.55673499"><ele>1171.0</ele><time>2015-11-24T07:54:32.0000000+00:00</time></trkpt><trkpt lat="30.56956035" lon="35.55672929"><ele>1171.0</ele><time>2015-11-24T07:54:33.0000000+00:00</time></trkpt><trkpt lat="30.56957443" lon="35.55672619"><ele>1171.5</ele><time>2015-11-24T07:54:34.0000000+00:00</time></trkpt><trkpt lat="30.56958793" lon="35.55672199"><ele>1171.0</ele><time>2015-11-24T07:54:35.0000000+00:00</time></trkpt><trkpt lat="30.56960218" lon="35.55671378"><ele>1171.5</ele><time>2015-11-24T07:54:36.0000000+00:00</time></trkpt><trkpt lat="30.5696155" lon="35.55670263"><ele>1171.5</ele><time>2015-11-24T07:54:37.0000000+00:00</time></trkpt><trkpt lat="30.56962648" lon="35.556694"><ele>1172.0</ele><time>2015-11-24T07:54:38.0000000+00:00</time></trkpt><trkpt lat="30.56963813" lon="35.55668822"><ele>1172.5</ele><time>2015-11-24T07:54:39.0000000+00:00</time></trkpt><trkpt lat="30.56965155" lon="35.55668226"><ele>1173.0</ele><time>2015-11-24T07:54:40.0000000+00:00</time></trkpt><trkpt lat="30.56966496" lon="35.55667749"><ele>1172.5</ele><time>2015-11-24T07:54:41.0000000+00:00</time></trkpt><trkpt lat="30.56967803" lon="35.55667229"><ele>1172.5</ele><time>2015-11-24T07:54:42.0000000+00:00</time></trkpt><trkpt lat="30.56969119" lon="35.55666676"><ele>1172.5</ele><time>2015-11-24T07:54:43.0000000+00:00</time></trkpt><trkpt lat="30.56970293" lon="35.55666064"><ele>1173.0</ele><time>2015-11-24T07:54:44.0000000+00:00</time></trkpt><trkpt lat="30.56971659" lon="35.55665511"><ele>1173.4</ele><time>2015-11-24T07:54:45.0000000+00:00</time></trkpt><trkpt lat="30.56975464" lon="35.55663323"><ele>1173.9</ele><time>2015-11-24T07:54:48.0000000+00:00</time></trkpt><trkpt lat="30.56976437" lon="35.55662108"><ele>1173.9</ele><time>2015-11-24T07:54:49.0000000+00:00</time></trkpt><trkpt lat="30.56977551" lon="35.55661035"><ele>1173.4</ele><time>2015-11-24T07:54:50.0000000+00:00</time></trkpt><trkpt lat="30.56978926" lon="35.55660146"><ele>1173.4</ele><time>2015-11-24T07:54:51.0000000+00:00</time></trkpt><trkpt lat="30.56980351" lon="35.55659174"><ele>1174.4</ele><time>2015-11-24T07:54:52.0000000+00:00</time></trkpt><trkpt lat="30.56981734" lon="35.55658235"><ele>1174.9</ele><time>2015-11-24T07:54:53.0000000+00:00</time></trkpt><trkpt lat="30.569831" lon="35.55657565"><ele>1174.9</ele><time>2015-11-24T07:54:54.0000000+00:00</time></trkpt><trkpt lat="30.56998976" lon="35.55641999"><ele>1176.3</ele><time>2015-11-24T07:55:06.0000000+00:00</time></trkpt><trkpt lat="30.57016175" lon="35.55618924"><ele>1176.3</ele><time>2015-11-24T07:55:20.0000000+00:00</time></trkpt><trkpt lat="30.57040868" lon="35.55581046"><ele>1173.9</ele><time>2015-11-24T07:55:34.0000000+00:00</time></trkpt><trkpt lat="30.57046132" lon="35.55572807"><ele>1173.4</ele><time>2015-11-24T07:55:36.0000000+00:00</time></trkpt><trkpt lat="30.57083968" lon="35.55498878"><ele>1170.5</ele><time>2015-11-24T07:55:49.0000000+00:00</time></trkpt><trkpt lat="30.57087866" lon="35.55492542"><ele>1170.5</ele><time>2015-11-24T07:55:50.0000000+00:00</time></trkpt><trkpt lat="30.57099533" lon="35.55478225"><ele>1172.0</ele><time>2015-11-24T07:55:53.0000000+00:00</time></trkpt><trkpt lat="30.57103515" lon="35.55476004"><ele>1172.0</ele><time>2015-11-24T07:55:54.0000000+00:00</time></trkpt><trkpt lat="30.57128208" lon="35.55464194"><ele>1176.3</ele><time>2015-11-24T07:56:04.0000000+00:00</time></trkpt><trkpt lat="30.57131435" lon="35.55461939"><ele>1176.3</ele><time>2015-11-24T07:56:06.0000000+00:00</time></trkpt><trkpt lat="30.57132985" lon="35.55461093"><ele>1176.3</ele><time>2015-11-24T07:56:07.0000000+00:00</time></trkpt><trkpt lat="30.5713467" lon="35.5546028"><ele>1176.3</ele><time>2015-11-24T07:56:08.0000000+00:00</time></trkpt><trkpt lat="30.57136347" lon="35.55459333"><ele>1176.8</ele><time>2015-11-24T07:56:09.0000000+00:00</time></trkpt><trkpt lat="30.57137889" lon="35.55458268"><ele>1176.8</ele><time>2015-11-24T07:56:10.0000000+00:00</time></trkpt><trkpt lat="30.57142549" lon="35.55456407"><ele>1178.7</ele><time>2015-11-24T07:56:13.0000000+00:00</time></trkpt><trkpt lat="30.57164627" lon="35.55447221"><ele>1181.6</ele><time>2015-11-24T07:56:27.0000000+00:00</time></trkpt><trkpt lat="30.57184836" lon="35.55441337"><ele>1182.6</ele><time>2015-11-24T07:56:41.0000000+00:00</time></trkpt><trkpt lat="30.57210795" lon="35.55430759"><ele>1183.5</ele><time>2015-11-24T07:56:56.0000000+00:00</time></trkpt><trkpt lat="30.57221867" lon="35.55426635"><ele>1184.5</ele><time>2015-11-24T07:57:02.0000000+00:00</time></trkpt><trkpt lat="30.57254297" lon="35.55420164"><ele>1185.4</ele><time>2015-11-24T07:57:18.0000000+00:00</time></trkpt><trkpt lat="30.57282435" lon="35.55421472"><ele>1188.8</ele><time>2015-11-24T07:57:32.0000000+00:00</time></trkpt><trkpt lat="30.573139" lon="35.55424975"><ele>1191.7</ele><time>2015-11-24T07:57:49.0000000+00:00</time></trkpt><trkpt lat="30.57352667" lon="35.55425604"><ele>1193.1</ele><time>2015-11-24T07:58:07.0000000+00:00</time></trkpt><trkpt lat="30.57384543" lon="35.55411631"><ele>1196.5</ele><time>2015-11-24T07:58:23.0000000+00:00</time></trkpt><trkpt lat="30.57387896" lon="35.55409251"><ele>1196.5</ele><time>2015-11-24T07:58:25.0000000+00:00</time></trkpt><trkpt lat="30.57389187" lon="35.55407675"><ele>1197.0</ele><time>2015-11-24T07:58:26.0000000+00:00</time></trkpt><trkpt lat="30.57390125" lon="35.55406133"><ele>1197.0</ele><time>2015-11-24T07:58:27.0000000+00:00</time></trkpt><trkpt lat="30.57390913" lon="35.55404641"><ele>1197.0</ele><time>2015-11-24T07:58:28.0000000+00:00</time></trkpt><trkpt lat="30.57391936" lon="35.55403132"><ele>1197.5</ele><time>2015-11-24T07:58:29.0000000+00:00</time></trkpt><trkpt lat="30.57392699" lon="35.55401405"><ele>1198.4</ele><time>2015-11-24T07:58:30.0000000+00:00</time></trkpt><trkpt lat="30.5739316" lon="35.55399452"><ele>1198.9</ele><time>2015-11-24T07:58:31.0000000+00:00</time></trkpt><trkpt lat="30.57393311" lon="35.55397516"><ele>1199.4</ele><time>2015-11-24T07:58:32.0000000+00:00</time></trkpt><trkpt lat="30.57393453" lon="35.55395504"><ele>1199.4</ele><time>2015-11-24T07:58:33.0000000+00:00</time></trkpt><trkpt lat="30.57393679" lon="35.55393493"><ele>1199.9</ele><time>2015-11-24T07:58:34.0000000+00:00</time></trkpt><trkpt lat="30.57393386" lon="35.55385647"><ele>1202.8</ele><time>2015-11-24T07:58:38.0000000+00:00</time></trkpt><trkpt lat="30.57393319" lon="35.553631"><ele>1206.6</ele><time>2015-11-24T07:58:50.0000000+00:00</time></trkpt><trkpt lat="30.57394291" lon="35.55345942"><ele>1209.0</ele><time>2015-11-24T07:59:00.0000000+00:00</time></trkpt><trkpt lat="30.57397719" lon="35.55338264"><ele>1210.9</ele><time>2015-11-24T07:59:07.0000000+00:00</time></trkpt><trkpt lat="30.57400712" lon="35.55336119"><ele>1210.9</ele><time>2015-11-24T07:59:11.0000000+00:00</time></trkpt><trkpt lat="30.57428758" lon="35.55339991"><ele>1210.0</ele><time>2015-11-24T07:59:24.0000000+00:00</time></trkpt><trkpt lat="30.5746143" lon="35.55348759"><ele>1208.0</ele><time>2015-11-24T07:59:30.0000000+00:00</time></trkpt><trkpt lat="30.57467918" lon="35.55349111"><ele>1207.6</ele><time>2015-11-24T07:59:31.0000000+00:00</time></trkpt><trkpt lat="30.57474514" lon="35.55348323"><ele>1207.1</ele><time>2015-11-24T07:59:32.0000000+00:00</time></trkpt><trkpt lat="30.5748065" lon="35.55345708"><ele>1207.6</ele><time>2015-11-24T07:59:33.0000000+00:00</time></trkpt><trkpt lat="30.5748635" lon="35.55342481"><ele>1208.0</ele><time>2015-11-24T07:59:34.0000000+00:00</time></trkpt><trkpt lat="30.5749122" lon="35.55338549"><ele>1209.0</ele><time>2015-11-24T07:59:35.0000000+00:00</time></trkpt><trkpt lat="30.57495746" lon="35.5533425"><ele>1210.0</ele><time>2015-11-24T07:59:36.0000000+00:00</time></trkpt><trkpt lat="30.57499794" lon="35.55329463"><ele>1210.9</ele><time>2015-11-24T07:59:37.0000000+00:00</time></trkpt><trkpt lat="30.57503214" lon="35.55324183"><ele>1211.9</ele><time>2015-11-24T07:59:38.0000000+00:00</time></trkpt><trkpt lat="30.57505896" lon="35.55318441"><ele>1213.3</ele><time>2015-11-24T07:59:39.0000000+00:00</time></trkpt><trkpt lat="30.5750795" lon="35.553128"><ele>1213.8</ele><time>2015-11-24T07:59:40.0000000+00:00</time></trkpt><trkpt lat="30.57509333" lon="35.55307545"><ele>1214.3</ele><time>2015-11-24T07:59:41.0000000+00:00</time></trkpt><trkpt lat="30.57510372" lon="35.55302759"><ele>1214.8</ele><time>2015-11-24T07:59:42.0000000+00:00</time></trkpt><trkpt lat="30.57511831" lon="35.55295215"><ele>1216.2</ele><time>2015-11-24T07:59:44.0000000+00:00</time></trkpt><trkpt lat="30.57514949" lon="35.55266918"><ele>1219.1</ele><time>2015-11-24T07:59:57.0000000+00:00</time></trkpt><trkpt lat="30.57514521" lon="35.55241462"><ele>1219.6</ele><time>2015-11-24T08:00:10.0000000+00:00</time></trkpt><trkpt lat="30.57514287" lon="35.55231655"><ele>1220.5</ele><time>2015-11-24T08:00:15.0000000+00:00</time></trkpt><trkpt lat="30.575137" lon="35.55229744"><ele>1220.5</ele><time>2015-11-24T08:00:16.0000000+00:00</time></trkpt><trkpt lat="30.57511713" lon="35.55216894"><ele>1221.0</ele><time>2015-11-24T08:00:23.0000000+00:00</time></trkpt><trkpt lat="30.57511403" lon="35.55215193"><ele>1222.0</ele><time>2015-11-24T08:00:24.0000000+00:00</time></trkpt><trkpt lat="30.57510884" lon="35.55213458"><ele>1222.5</ele><time>2015-11-24T08:00:25.0000000+00:00</time></trkpt><trkpt lat="30.57510138" lon="35.55211656"><ele>1222.0</ele><time>2015-11-24T08:00:26.0000000+00:00</time></trkpt><trkpt lat="30.57509752" lon="35.55209929"><ele>1222.0</ele><time>2015-11-24T08:00:27.0000000+00:00</time></trkpt><trkpt lat="30.57509366" lon="35.55208303"><ele>1222.0</ele><time>2015-11-24T08:00:28.0000000+00:00</time></trkpt><trkpt lat="30.57508989" lon="35.5520692"><ele>1222.0</ele><time>2015-11-24T08:00:29.0000000+00:00</time></trkpt><trkpt lat="30.57503616" lon="35.55197306"><ele>1222.9</ele><time>2015-11-24T08:00:36.0000000+00:00</time></trkpt><trkpt lat="30.57502309" lon="35.55196007"><ele>1222.9</ele><time>2015-11-24T08:00:37.0000000+00:00</time></trkpt><trkpt lat="30.57500976" lon="35.55194573"><ele>1224.9</ele><time>2015-11-24T08:00:38.0000000+00:00</time></trkpt><trkpt lat="30.57499543" lon="35.55192981"><ele>1224.4</ele><time>2015-11-24T08:00:39.0000000+00:00</time></trkpt><trkpt lat="30.57497816" lon="35.55191346"><ele>1224.4</ele><time>2015-11-24T08:00:40.0000000+00:00</time></trkpt><trkpt lat="30.57495872" lon="35.55189989"><ele>1224.4</ele><time>2015-11-24T08:00:41.0000000+00:00</time></trkpt><trkpt lat="30.57493701" lon="35.55188932"><ele>1224.9</ele><time>2015-11-24T08:00:42.0000000+00:00</time></trkpt><trkpt lat="30.57491605" lon="35.55187901"><ele>1225.8</ele><time>2015-11-24T08:00:43.0000000+00:00</time></trkpt><trkpt lat="30.57489602" lon="35.55186829"><ele>1227.3</ele><time>2015-11-24T08:00:44.0000000+00:00</time></trkpt><trkpt lat="30.57487515" lon="35.55186317"><ele>1227.7</ele><time>2015-11-24T08:00:45.0000000+00:00</time></trkpt><trkpt lat="30.5748521" lon="35.55186275"><ele>1226.8</ele><time>2015-11-24T08:00:46.0000000+00:00</time></trkpt><trkpt lat="30.57483458" lon="35.55186653"><ele>1226.8</ele><time>2015-11-24T08:00:47.0000000+00:00</time></trkpt><trkpt lat="30.57480365" lon="35.55187549"><ele>1229.2</ele><time>2015-11-24T08:00:58.0000000+00:00</time></trkpt><trkpt lat="30.57476811" lon="35.55188078"><ele>1227.7</ele><time>2015-11-24T08:01:18.0000000+00:00</time></trkpt><trkpt lat="30.57477113" lon="35.551862"><ele>1226.8</ele><time>2015-11-24T08:01:53.0000000+00:00</time></trkpt><trkpt lat="30.57476149" lon="35.55186242"><ele>1225.8</ele><time>2015-11-24T08:02:28.0000000+00:00</time></trkpt><trkpt lat="30.57475537" lon="35.55186762"><ele>1226.3</ele><time>2015-11-24T08:03:06.0000000+00:00</time></trkpt><trkpt lat="30.57476484" lon="35.55188052"><ele>1224.9</ele><time>2015-11-24T08:03:52.0000000+00:00</time></trkpt><trkpt lat="30.57475696" lon="35.55189251"><ele>1225.8</ele><time>2015-11-24T08:04:10.0000000+00:00</time></trkpt><trkpt lat="30.57474741" lon="35.55190005"><ele>1225.8</ele><time>2015-11-24T08:04:11.0000000+00:00</time></trkpt><trkpt lat="30.57457306" lon="35.55206685"><ele>1227.3</ele><time>2015-11-24T08:04:29.0000000+00:00</time></trkpt><trkpt lat="30.57438657" lon="35.5522127"><ele>1230.1</ele><time>2015-11-24T08:04:49.0000000+00:00</time></trkpt><trkpt lat="30.57428054" lon="35.55224866"><ele>1231.6</ele><time>2015-11-24T08:05:00.0000000+00:00</time></trkpt><trkpt lat="30.57426989" lon="35.55224891"><ele>1232.1</ele><time>2015-11-24T08:05:01.0000000+00:00</time></trkpt><trkpt lat="30.57418892" lon="35.55222376"><ele>1235.4</ele><time>2015-11-24T08:05:11.0000000+00:00</time></trkpt><trkpt lat="30.5741828" lon="35.55221781"><ele>1235.4</ele><time>2015-11-24T08:05:12.0000000+00:00</time></trkpt><trkpt lat="30.57416445" lon="35.55218646"><ele>1234.5</ele><time>2015-11-24T08:05:17.0000000+00:00</time></trkpt><trkpt lat="30.57415958" lon="35.55217632"><ele>1234.0</ele><time>2015-11-24T08:05:18.0000000+00:00</time></trkpt><trkpt lat="30.57415145" lon="35.55214447"><ele>1236.4</ele><time>2015-11-24T08:05:23.0000000+00:00</time></trkpt><trkpt lat="30.57413955" lon="35.5520495"><ele>1237.8</ele><time>2015-11-24T08:05:33.0000000+00:00</time></trkpt><trkpt lat="30.57413436" lon="35.55202628"><ele>1239.3</ele><time>2015-11-24T08:05:36.0000000+00:00</time></trkpt><trkpt lat="30.57412941" lon="35.5519604"><ele>1242.2</ele><time>2015-11-24T08:05:45.0000000+00:00</time></trkpt><trkpt lat="30.57410477" lon="35.55183643"><ele>1245.0</ele><time>2015-11-24T08:06:02.0000000+00:00</time></trkpt><trkpt lat="30.57408666" lon="35.55181297"><ele>1246.0</ele><time>2015-11-24T08:06:06.0000000+00:00</time></trkpt><trkpt lat="30.57404224" lon="35.55174801"><ele>1247.9</ele><time>2015-11-24T08:06:14.0000000+00:00</time></trkpt><trkpt lat="30.57402581" lon="35.55172873"><ele>1248.9</ele><time>2015-11-24T08:06:17.0000000+00:00</time></trkpt><trkpt lat="30.57400351" lon="35.55171867"><ele>1245.5</ele><time>2015-11-24T08:06:20.0000000+00:00</time></trkpt><trkpt lat="30.57391685" lon="35.55168271"><ele>1245.0</ele><time>2015-11-24T08:06:33.0000000+00:00</time></trkpt><trkpt lat="30.57381475" lon="35.55162672"><ele>1246.0</ele><time>2015-11-24T08:06:48.0000000+00:00</time></trkpt><trkpt lat="30.57379112" lon="35.55160644"><ele>1248.4</ele><time>2015-11-24T08:06:52.0000000+00:00</time></trkpt><trkpt lat="30.57367092" lon="35.55153611"><ele>1250.3</ele><time>2015-11-24T08:07:09.0000000+00:00</time></trkpt><trkpt lat="30.57366447" lon="35.55153251"><ele>1250.3</ele><time>2015-11-24T08:07:10.0000000+00:00</time></trkpt><trkpt lat="30.57362298" lon="35.55151105"><ele>1248.9</ele><time>2015-11-24T08:07:15.0000000+00:00</time></trkpt><trkpt lat="30.57352851" lon="35.55147719"><ele>1252.3</ele><time>2015-11-24T08:07:25.0000000+00:00</time></trkpt><trkpt lat="30.57339046" lon="35.55142849"><ele>1252.7</ele><time>2015-11-24T08:07:34.0000000+00:00</time></trkpt><trkpt lat="30.5733628" lon="35.55143561"><ele>1251.8</ele><time>2015-11-24T08:07:36.0000000+00:00</time></trkpt><trkpt lat="30.57335241" lon="35.55142715"><ele>1254.7</ele><time>2015-11-24T08:07:37.0000000+00:00</time></trkpt><trkpt lat="30.57334361" lon="35.55141239"><ele>1255.1</ele><time>2015-11-24T08:07:38.0000000+00:00</time></trkpt><trkpt lat="30.57333045" lon="35.55140016"><ele>1255.6</ele><time>2015-11-24T08:07:39.0000000+00:00</time></trkpt><trkpt lat="30.57331645" lon="35.55139161"><ele>1254.7</ele><time>2015-11-24T08:07:40.0000000+00:00</time></trkpt><trkpt lat="30.57330279" lon="35.55138473"><ele>1255.1</ele><time>2015-11-24T08:07:41.0000000+00:00</time></trkpt><trkpt lat="30.57328753" lon="35.55137719"><ele>1256.1</ele><time>2015-11-24T08:07:42.0000000+00:00</time></trkpt><trkpt lat="30.57327228" lon="35.55137225"><ele>1255.6</ele><time>2015-11-24T08:07:43.0000000+00:00</time></trkpt><trkpt lat="30.57325778" lon="35.5513694"><ele>1255.6</ele><time>2015-11-24T08:07:44.0000000+00:00</time></trkpt><trkpt lat="30.57324294" lon="35.55136822"><ele>1256.6</ele><time>2015-11-24T08:07:45.0000000+00:00</time></trkpt><trkpt lat="30.57322836" lon="35.55136864"><ele>1256.1</ele><time>2015-11-24T08:07:46.0000000+00:00</time></trkpt><trkpt lat="30.57321352" lon="35.55137074"><ele>1255.1</ele><time>2015-11-24T08:07:47.0000000+00:00</time></trkpt><trkpt lat="30.57319986" lon="35.5513709"><ele>1256.1</ele><time>2015-11-24T08:07:48.0000000+00:00</time></trkpt><trkpt lat="30.57318678" lon="35.55136705"><ele>1257.1</ele><time>2015-11-24T08:07:49.0000000+00:00</time></trkpt><trkpt lat="30.57317195" lon="35.5513647"><ele>1257.5</ele><time>2015-11-24T08:07:50.0000000+00:00</time></trkpt><trkpt lat="30.57315711" lon="35.55136269"><ele>1256.1</ele><time>2015-11-24T08:07:51.0000000+00:00</time></trkpt><trkpt lat="30.57314361" lon="35.551358"><ele>1256.1</ele><time>2015-11-24T08:07:52.0000000+00:00</time></trkpt><trkpt lat="30.57311009" lon="35.5513585"><ele>1255.6</ele><time>2015-11-24T08:07:55.0000000+00:00</time></trkpt><trkpt lat="30.57309894" lon="35.5513538"><ele>1255.6</ele><time>2015-11-24T08:07:56.0000000+00:00</time></trkpt><trkpt lat="30.57308737" lon="35.5513497"><ele>1258.0</ele><time>2015-11-24T08:07:57.0000000+00:00</time></trkpt><trkpt lat="30.57307413" lon="35.55135012"><ele>1256.1</ele><time>2015-11-24T08:07:58.0000000+00:00</time></trkpt><trkpt lat="30.57306097" lon="35.55135112"><ele>1255.6</ele><time>2015-11-24T08:07:59.0000000+00:00</time></trkpt><trkpt lat="30.57299509" lon="35.55135624"><ele>1255.1</ele><time>2015-11-24T08:08:04.0000000+00:00</time></trkpt><trkpt lat="30.57298754" lon="35.55136487"><ele>1255.1</ele><time>2015-11-24T08:08:05.0000000+00:00</time></trkpt><trkpt lat="30.57296868" lon="35.5513761"><ele>1255.6</ele><time>2015-11-24T08:08:07.0000000+00:00</time></trkpt><trkpt lat="30.57295594" lon="35.55137451"><ele>1254.7</ele><time>2015-11-24T08:08:08.0000000+00:00</time></trkpt><trkpt lat="30.57294287" lon="35.55136688"><ele>1256.6</ele><time>2015-11-24T08:08:09.0000000+00:00</time></trkpt><trkpt lat="30.57293055" lon="35.55135858"><ele>1256.1</ele><time>2015-11-24T08:08:10.0000000+00:00</time></trkpt><trkpt lat="30.57291848" lon="35.55135238"><ele>1255.6</ele><time>2015-11-24T08:08:11.0000000+00:00</time></trkpt><trkpt lat="30.57290607" lon="35.55134752"><ele>1255.1</ele><time>2015-11-24T08:08:12.0000000+00:00</time></trkpt><trkpt lat="30.57289358" lon="35.55134291"><ele>1254.2</ele><time>2015-11-24T08:08:13.0000000+00:00</time></trkpt><trkpt lat="30.5728816" lon="35.55134115"><ele>1255.1</ele><time>2015-11-24T08:08:14.0000000+00:00</time></trkpt><trkpt lat="30.57286969" lon="35.55134031"><ele>1254.7</ele><time>2015-11-24T08:08:15.0000000+00:00</time></trkpt><trkpt lat="30.57285804" lon="35.55133847"><ele>1254.7</ele><time>2015-11-24T08:08:16.0000000+00:00</time></trkpt><trkpt lat="30.57284681" lon="35.55133528"><ele>1253.7</ele><time>2015-11-24T08:08:17.0000000+00:00</time></trkpt><trkpt lat="30.57283533" lon="35.55133377"><ele>1253.7</ele><time>2015-11-24T08:08:18.0000000+00:00</time></trkpt><trkpt lat="30.57282343" lon="35.55133218"><ele>1253.7</ele><time>2015-11-24T08:08:19.0000000+00:00</time></trkpt><trkpt lat="30.57281043" lon="35.55132807"><ele>1253.2</ele><time>2015-11-24T08:08:20.0000000+00:00</time></trkpt><trkpt lat="30.57279618" lon="35.55132388"><ele>1253.2</ele><time>2015-11-24T08:08:21.0000000+00:00</time></trkpt><trkpt lat="30.57278219" lon="35.55132221"><ele>1254.2</ele><time>2015-11-24T08:08:22.0000000+00:00</time></trkpt><trkpt lat="30.57276953" lon="35.55132346"><ele>1253.7</ele><time>2015-11-24T08:08:23.0000000+00:00</time></trkpt><trkpt lat="30.57274606" lon="35.55132338"><ele>1253.7</ele><time>2015-11-24T08:08:25.0000000+00:00</time></trkpt><trkpt lat="30.57273349" lon="35.55131877"><ele>1254.7</ele><time>2015-11-24T08:08:26.0000000+00:00</time></trkpt><trkpt lat="30.57271966" lon="35.55131424"><ele>1254.7</ele><time>2015-11-24T08:08:27.0000000+00:00</time></trkpt><trkpt lat="30.57270683" lon="35.55130997"><ele>1255.1</ele><time>2015-11-24T08:08:28.0000000+00:00</time></trkpt><trkpt lat="30.57269275" lon="35.55130821"><ele>1254.7</ele><time>2015-11-24T08:08:29.0000000+00:00</time></trkpt><trkpt lat="30.572678" lon="35.55130754"><ele>1254.2</ele><time>2015-11-24T08:08:30.0000000+00:00</time></trkpt><trkpt lat="30.57253425" lon="35.55127158"><ele>1257.1</ele><time>2015-11-24T08:08:40.0000000+00:00</time></trkpt><trkpt lat="30.57252134" lon="35.55126186"><ele>1255.6</ele><time>2015-11-24T08:08:41.0000000+00:00</time></trkpt><trkpt lat="30.57250693" lon="35.55125607"><ele>1256.1</ele><time>2015-11-24T08:08:42.0000000+00:00</time></trkpt><trkpt lat="30.57249226" lon="35.55125406"><ele>1256.1</ele><time>2015-11-24T08:08:43.0000000+00:00</time></trkpt><trkpt lat="30.57247792" lon="35.55125381"><ele>1255.1</ele><time>2015-11-24T08:08:44.0000000+00:00</time></trkpt><trkpt lat="30.57246518" lon="35.55125473"><ele>1255.6</ele><time>2015-11-24T08:08:45.0000000+00:00</time></trkpt><trkpt lat="30.57245186" lon="35.55125674"><ele>1255.6</ele><time>2015-11-24T08:08:46.0000000+00:00</time></trkpt><trkpt lat="30.57243811" lon="35.5512549"><ele>1255.1</ele><time>2015-11-24T08:08:47.0000000+00:00</time></trkpt><trkpt lat="30.57242445" lon="35.55124819"><ele>1254.7</ele><time>2015-11-24T08:08:48.0000000+00:00</time></trkpt><trkpt lat="30.57241028" lon="35.55124165"><ele>1254.2</ele><time>2015-11-24T08:08:49.0000000+00:00</time></trkpt><trkpt lat="30.57239486" lon="35.55123822"><ele>1255.1</ele><time>2015-11-24T08:08:50.0000000+00:00</time></trkpt><trkpt lat="30.57237952" lon="35.55123554"><ele>1253.7</ele><time>2015-11-24T08:08:51.0000000+00:00</time></trkpt><trkpt lat="30.57236393" lon="35.5512326"><ele>1254.2</ele><time>2015-11-24T08:08:52.0000000+00:00</time></trkpt><trkpt lat="30.57234884" lon="35.55122984"><ele>1255.1</ele><time>2015-11-24T08:08:53.0000000+00:00</time></trkpt><trkpt lat="30.57233417" lon="35.55122657"><ele>1254.7</ele><time>2015-11-24T08:08:54.0000000+00:00</time></trkpt><trkpt lat="30.57231842" lon="35.55122338"><ele>1254.2</ele><time>2015-11-24T08:08:55.0000000+00:00</time></trkpt><trkpt lat="30.57209169" lon="35.55119866"><ele>1255.6</ele><time>2015-11-24T08:09:10.0000000+00:00</time></trkpt><trkpt lat="30.57206084" lon="35.55119815"><ele>1256.1</ele><time>2015-11-24T08:09:12.0000000+00:00</time></trkpt><trkpt lat="30.57204517" lon="35.55120209"><ele>1256.1</ele><time>2015-11-24T08:09:13.0000000+00:00</time></trkpt><trkpt lat="30.57179237" lon="35.55124769"><ele>1255.6</ele><time>2015-11-24T08:09:29.0000000+00:00</time></trkpt><trkpt lat="30.57174375" lon="35.55125683"><ele>1255.1</ele><time>2015-11-24T08:09:32.0000000+00:00</time></trkpt><trkpt lat="30.57172833" lon="35.55125884"><ele>1255.1</ele><time>2015-11-24T08:09:33.0000000+00:00</time></trkpt><trkpt lat="30.57155156" lon="35.55130251"><ele>1257.5</ele><time>2015-11-24T08:09:44.0000000+00:00</time></trkpt><trkpt lat="30.57153404" lon="35.55130871"><ele>1257.5</ele><time>2015-11-24T08:09:45.0000000+00:00</time></trkpt><trkpt lat="30.5713037" lon="35.55130636"><ele>1257.5</ele><time>2015-11-24T08:09:59.0000000+00:00</time></trkpt><trkpt lat="30.57113003" lon="35.55119262"><ele>1259.9</ele><time>2015-11-24T08:10:11.0000000+00:00</time></trkpt><trkpt lat="30.57105375" lon="35.55108433"><ele>1263.3</ele><time>2015-11-24T08:10:18.0000000+00:00</time></trkpt><trkpt lat="30.57087472" lon="35.55083631"><ele>1264.8</ele><time>2015-11-24T08:10:32.0000000+00:00</time></trkpt><trkpt lat="30.57085837" lon="35.55082139"><ele>1264.8</ele><time>2015-11-24T08:10:33.0000000+00:00</time></trkpt><trkpt lat="30.57084203" lon="35.55080781"><ele>1264.8</ele><time>2015-11-24T08:10:34.0000000+00:00</time></trkpt><trkpt lat="30.57082451" lon="35.55079532"><ele>1265.7</ele><time>2015-11-24T08:10:35.0000000+00:00</time></trkpt><trkpt lat="30.57080741" lon="35.55078358"><ele>1265.7</ele><time>2015-11-24T08:10:36.0000000+00:00</time></trkpt><trkpt lat="30.5707904" lon="35.55077311"><ele>1264.8</ele><time>2015-11-24T08:10:37.0000000+00:00</time></trkpt><trkpt lat="30.57077296" lon="35.55076431"><ele>1264.8</ele><time>2015-11-24T08:10:38.0000000+00:00</time></trkpt><trkpt lat="30.5707567" lon="35.550754"><ele>1265.7</ele><time>2015-11-24T08:10:39.0000000+00:00</time></trkpt><trkpt lat="30.5707417" lon="35.55074427"><ele>1265.7</ele><time>2015-11-24T08:10:40.0000000+00:00</time></trkpt><trkpt lat="30.57072636" lon="35.55073489"><ele>1266.2</ele><time>2015-11-24T08:10:41.0000000+00:00</time></trkpt><trkpt lat="30.57071077" lon="35.55072617"><ele>1266.2</ele><time>2015-11-24T08:10:42.0000000+00:00</time></trkpt><trkpt lat="30.57059434" lon="35.55064285"><ele>1264.3</ele><time>2015-11-24T08:10:50.0000000+00:00</time></trkpt><trkpt lat="30.57039879" lon="35.55049642"><ele>1266.2</ele><time>2015-11-24T08:11:04.0000000+00:00</time></trkpt><trkpt lat="30.57027097" lon="35.55039047"><ele>1269.6</ele><time>2015-11-24T08:11:14.0000000+00:00</time></trkpt><trkpt lat="30.57011004" lon="35.5502655"><ele>1271.0</ele><time>2015-11-24T08:11:26.0000000+00:00</time></trkpt><trkpt lat="30.56986872" lon="35.55017279"><ele>1269.6</ele><time>2015-11-24T08:11:38.0000000+00:00</time></trkpt><trkpt lat="30.56984844" lon="35.5501712"><ele>1269.6</ele><time>2015-11-24T08:11:39.0000000+00:00</time></trkpt><trkpt lat="30.56982799" lon="35.55016827"><ele>1270.0</ele><time>2015-11-24T08:11:40.0000000+00:00</time></trkpt><trkpt lat="30.569557" lon="35.55029542"><ele>1271.5</ele><time>2015-11-24T08:11:56.0000000+00:00</time></trkpt><trkpt lat="30.56940336" lon="35.55037966"><ele>1273.4</ele><time>2015-11-24T08:12:07.0000000+00:00</time></trkpt><trkpt lat="30.56938894" lon="35.55038108"><ele>1272.9</ele><time>2015-11-24T08:12:08.0000000+00:00</time></trkpt><trkpt lat="30.56937494" lon="35.55038486"><ele>1273.4</ele><time>2015-11-24T08:12:09.0000000+00:00</time></trkpt><trkpt lat="30.56936187" lon="35.55039307"><ele>1273.9</ele><time>2015-11-24T08:12:10.0000000+00:00</time></trkpt><trkpt lat="30.5693498" lon="35.55040372"><ele>1273.9</ele><time>2015-11-24T08:12:11.0000000+00:00</time></trkpt><trkpt lat="30.56933748" lon="35.55041654"><ele>1273.9</ele><time>2015-11-24T08:12:12.0000000+00:00</time></trkpt><trkpt lat="30.56912835" lon="35.55054001"><ele>1275.3</ele><time>2015-11-24T08:12:27.0000000+00:00</time></trkpt><trkpt lat="30.56891369" lon="35.55066573"><ele>1277.3</ele><time>2015-11-24T08:12:43.0000000+00:00</time></trkpt><trkpt lat="30.56886616" lon="35.55072122"><ele>1278.2</ele><time>2015-11-24T08:12:47.0000000+00:00</time></trkpt><trkpt lat="30.56885133" lon="35.55072424"><ele>1277.7</ele><time>2015-11-24T08:12:48.0000000+00:00</time></trkpt><trkpt lat="30.56879885" lon="35.55072801"><ele>1278.2</ele><time>2015-11-24T08:12:52.0000000+00:00</time></trkpt><trkpt lat="30.56876248" lon="35.55076355"><ele>1278.7</ele><time>2015-11-24T08:12:55.0000000+00:00</time></trkpt><trkpt lat="30.56864647" lon="35.55080848"><ele>1279.7</ele><time>2015-11-24T08:13:03.0000000+00:00</time></trkpt><trkpt lat="30.56858637" lon="35.55081208"><ele>1281.1</ele><time>2015-11-24T08:13:07.0000000+00:00</time></trkpt><trkpt lat="30.56855117" lon="35.55080387"><ele>1281.6</ele><time>2015-11-24T08:13:10.0000000+00:00</time></trkpt><trkpt lat="30.56858914" lon="35.55065869"><ele>1284.9</ele><time>2015-11-24T08:13:20.0000000+00:00</time></trkpt><trkpt lat="30.56877564" lon="35.55042802"><ele>1286.4</ele><time>2015-11-24T08:13:37.0000000+00:00</time></trkpt><trkpt lat="30.56893858" lon="35.55023415"><ele>1289.3</ele><time>2015-11-24T08:13:52.0000000+00:00</time></trkpt><trkpt lat="30.56899407" lon="35.55016131"><ele>1291.7</ele><time>2015-11-24T08:13:57.0000000+00:00</time></trkpt><trkpt lat="30.56904922" lon="35.55008822"><ele>1294.1</ele><time>2015-11-24T08:14:02.0000000+00:00</time></trkpt><trkpt lat="30.56918442" lon="35.54986174"><ele>1295.5</ele><time>2015-11-24T08:14:17.0000000+00:00</time></trkpt><trkpt lat="30.5693151" lon="35.5495439"><ele>1298.4</ele><time>2015-11-24T08:14:36.0000000+00:00</time></trkpt><trkpt lat="30.56942113" lon="35.54930074"><ele>1299.8</ele><time>2015-11-24T08:14:51.0000000+00:00</time></trkpt><trkpt lat="30.56952087" lon="35.54908583"><ele>1302.7</ele><time>2015-11-24T08:15:05.0000000+00:00</time></trkpt><trkpt lat="30.56960704" lon="35.5488902"><ele>1306.1</ele><time>2015-11-24T08:15:17.0000000+00:00</time></trkpt><trkpt lat="30.56964509" lon="35.54876732"><ele>1309.0</ele><time>2015-11-24T08:15:24.0000000+00:00</time></trkpt><trkpt lat="30.56971835" lon="35.54861292"><ele>1312.8</ele><time>2015-11-24T08:15:33.0000000+00:00</time></trkpt><trkpt lat="30.56976152" lon="35.54853313"><ele>1314.3</ele><time>2015-11-24T08:15:38.0000000+00:00</time></trkpt><trkpt lat="30.56977577" lon="35.5485001"><ele>1315.2</ele><time>2015-11-24T08:15:40.0000000+00:00</time></trkpt><trkpt lat="30.56987132" lon="35.54831017"><ele>1316.2</ele><time>2015-11-24T08:15:53.0000000+00:00</time></trkpt><trkpt lat="30.56999814" lon="35.54807011"><ele>1318.6</ele><time>2015-11-24T08:16:10.0000000+00:00</time></trkpt><trkpt lat="30.5700973" lon="35.54788152"><ele>1321.0</ele><time>2015-11-24T08:16:24.0000000+00:00</time></trkpt><trkpt lat="30.57011783" lon="35.54784019"><ele>1322.9</ele><time>2015-11-24T08:16:27.0000000+00:00</time></trkpt><trkpt lat="30.57022579" lon="35.54765169"><ele>1323.9</ele><time>2015-11-24T08:16:41.0000000+00:00</time></trkpt><trkpt lat="30.57025412" lon="35.54757809"><ele>1325.3</ele><time>2015-11-24T08:16:46.0000000+00:00</time></trkpt><trkpt lat="30.5702791" lon="35.54754264"><ele>1325.3</ele><time>2015-11-24T08:16:49.0000000+00:00</time></trkpt><trkpt lat="30.57033291" lon="35.54745446"><ele>1327.7</ele><time>2015-11-24T08:16:56.0000000+00:00</time></trkpt><trkpt lat="30.57034196" lon="35.54742663"><ele>1328.7</ele><time>2015-11-24T08:16:58.0000000+00:00</time></trkpt><trkpt lat="30.57043366" lon="35.54722161"><ele>1330.1</ele><time>2015-11-24T08:17:11.0000000+00:00</time></trkpt><trkpt lat="30.57053869" lon="35.54694509"><ele>1333.0</ele><time>2015-11-24T08:17:28.0000000+00:00</time></trkpt><trkpt lat="30.57055696" lon="35.54689329"><ele>1334.9</ele><time>2015-11-24T08:17:31.0000000+00:00</time></trkpt><trkpt lat="30.57059644" lon="35.54661602"><ele>1336.4</ele><time>2015-11-24T08:17:47.0000000+00:00</time></trkpt><trkpt lat="30.57058948" lon="35.54651116"><ele>1338.3</ele><time>2015-11-24T08:17:53.0000000+00:00</time></trkpt><trkpt lat="30.57057431" lon="35.54637797"><ele>1339.7</ele><time>2015-11-24T08:18:00.0000000+00:00</time></trkpt><trkpt lat="30.57055478" lon="35.5462535"><ele>1342.6</ele><time>2015-11-24T08:18:07.0000000+00:00</time></trkpt><trkpt lat="30.57055193" lon="35.5462354"><ele>1343.1</ele><time>2015-11-24T08:18:08.0000000+00:00</time></trkpt><trkpt lat="30.57054305" lon="35.54620086"><ele>1345.0</ele><time>2015-11-24T08:18:10.0000000+00:00</time></trkpt><trkpt lat="30.57048806" lon="35.54607111"><ele>1346.0</ele><time>2015-11-24T08:18:19.0000000+00:00</time></trkpt><trkpt lat="30.57047524" lon="35.54587531"><ele>1348.4</ele><time>2015-11-24T08:18:33.0000000+00:00</time></trkpt><trkpt lat="30.57046602" lon="35.54574153"><ele>1347.9</ele><time>2015-11-24T08:18:41.0000000+00:00</time></trkpt><trkpt lat="30.57047247" lon="35.54569015"><ele>1348.4</ele><time>2015-11-24T08:18:44.0000000+00:00</time></trkpt><trkpt lat="30.57047993" lon="35.54562134"><ele>1348.9</ele><time>2015-11-24T08:18:48.0000000+00:00</time></trkpt><trkpt lat="30.57052419" lon="35.54536544"><ele>1351.3</ele><time>2015-11-24T08:19:02.0000000+00:00</time></trkpt><trkpt lat="30.5706298" lon="35.54504642"><ele>1352.2</ele><time>2015-11-24T08:19:15.0000000+00:00</time></trkpt><trkpt lat="30.57062334" lon="35.54497048"><ele>1350.8</ele><time>2015-11-24T08:19:18.0000000+00:00</time></trkpt><trkpt lat="30.57052687" lon="35.54478072"><ele>1350.3</ele><time>2015-11-24T08:19:31.0000000+00:00</time></trkpt><trkpt lat="30.5704925" lon="35.54474233"><ele>1349.8</ele><time>2015-11-24T08:19:34.0000000+00:00</time></trkpt><trkpt lat="30.57043718" lon="35.54467821"><ele>1350.8</ele><time>2015-11-24T08:19:40.0000000+00:00</time></trkpt><trkpt lat="30.57037516" lon="35.54462297"><ele>1353.7</ele><time>2015-11-24T08:19:52.0000000+00:00</time></trkpt><trkpt lat="30.57029838" lon="35.5445337"><ele>1354.2</ele><time>2015-11-24T08:20:09.0000000+00:00</time></trkpt><trkpt lat="30.57024892" lon="35.54445391"><ele>1354.6</ele><time>2015-11-24T08:20:21.0000000+00:00</time></trkpt><trkpt lat="30.57015387" lon="35.54437076"><ele>1355.6</ele><time>2015-11-24T08:20:36.0000000+00:00</time></trkpt><trkpt lat="30.57012169" lon="35.54432642"><ele>1356.6</ele><time>2015-11-24T08:20:42.0000000+00:00</time></trkpt><trkpt lat="30.57008372" lon="35.54430655"><ele>1358.5</ele><time>2015-11-24T08:20:56.0000000+00:00</time></trkpt><trkpt lat="30.57006964" lon="35.54429658"><ele>1355.1</ele><time>2015-11-24T08:21:21.0000000+00:00</time></trkpt><trkpt lat="30.57007039" lon="35.5442975"><ele>1355.1</ele><time>2015-11-24T08:21:22.0000000+00:00</time></trkpt><trkpt lat="30.57007014" lon="35.54429783"><ele>1356.6</ele><time>2015-11-24T08:21:25.0000000+00:00</time></trkpt><trkpt lat="30.5700672" lon="35.5443006"><ele>1356.1</ele><time>2015-11-24T08:21:33.0000000+00:00</time></trkpt><trkpt lat="30.57006829" lon="35.54430027"><ele>1356.1</ele><time>2015-11-24T08:21:46.0000000+00:00</time></trkpt><trkpt lat="30.57006947" lon="35.54429448"><ele>1355.6</ele><time>2015-11-24T08:22:24.0000000+00:00</time></trkpt><trkpt lat="30.57006989" lon="35.54429381"><ele>1358.5</ele><time>2015-11-24T08:22:28.0000000+00:00</time></trkpt><trkpt lat="30.57007215" lon="35.54429431"><ele>1355.1</ele><time>2015-11-24T08:23:00.0000000+00:00</time></trkpt><trkpt lat="30.57007223" lon="35.54429465"><ele>1354.6</ele><time>2015-11-24T08:23:02.0000000+00:00</time></trkpt><trkpt lat="30.57007534" lon="35.54429272"><ele>1357.5</ele><time>2015-11-24T08:23:05.0000000+00:00</time></trkpt><trkpt lat="30.57008623" lon="35.54429876"><ele>1356.6</ele><time>2015-11-24T08:23:24.0000000+00:00</time></trkpt><trkpt lat="30.57009025" lon="35.54429691"><ele>1357.5</ele><time>2015-11-24T08:24:04.0000000+00:00</time></trkpt><trkpt lat="30.5700869" lon="35.54430052"><ele>1358.0</ele><time>2015-11-24T08:24:21.0000000+00:00</time></trkpt><trkpt lat="30.57008648" lon="35.54429976"><ele>1357.5</ele><time>2015-11-24T08:24:40.0000000+00:00</time></trkpt><trkpt lat="30.57008464" lon="35.54429993"><ele>1356.6</ele><time>2015-11-24T08:24:42.0000000+00:00</time></trkpt><trkpt lat="30.57008456" lon="35.54429775"><ele>1355.6</ele><time>2015-11-24T08:24:52.0000000+00:00</time></trkpt><trkpt lat="30.57008439" lon="35.54429918"><ele>1358.0</ele><time>2015-11-24T08:24:56.0000000+00:00</time></trkpt><trkpt lat="30.57008841" lon="35.54430127"><ele>1357.0</ele><time>2015-11-24T08:25:11.0000000+00:00</time></trkpt><trkpt lat="30.57009009" lon="35.54430001"><ele>1356.6</ele><time>2015-11-24T08:25:49.0000000+00:00</time></trkpt><trkpt lat="30.57008766" lon="35.54430345"><ele>1357.0</ele><time>2015-11-24T08:26:21.0000000+00:00</time></trkpt><trkpt lat="30.5700895" lon="35.54430538"><ele>1357.0</ele><time>2015-11-24T08:26:27.0000000+00:00</time></trkpt><trkpt lat="30.57009067" lon="35.54430697"><ele>1356.6</ele><time>2015-11-24T08:27:01.0000000+00:00</time></trkpt><trkpt lat="30.57009118" lon="35.54430529"><ele>1358.0</ele><time>2015-11-24T08:27:21.0000000+00:00</time></trkpt><trkpt lat="30.57008782" lon="35.54430773"><ele>1354.6</ele><time>2015-11-24T08:27:42.0000000+00:00</time></trkpt><trkpt lat="30.57008531" lon="35.54430647"><ele>1357.0</ele><time>2015-11-24T08:27:45.0000000+00:00</time></trkpt><trkpt lat="30.57008665" lon="35.54430471"><ele>1355.6</ele><time>2015-11-24T08:27:48.0000000+00:00</time></trkpt><trkpt lat="30.57008682" lon="35.54430496"><ele>1357.0</ele><time>2015-11-24T08:27:53.0000000+00:00</time></trkpt><trkpt lat="30.57007483" lon="35.54430001"><ele>1355.6</ele><time>2015-11-24T08:28:31.0000000+00:00</time></trkpt><trkpt lat="30.57006662" lon="35.54428912"><ele>1355.6</ele><time>2015-11-24T08:28:55.0000000+00:00</time></trkpt><trkpt lat="30.57006394" lon="35.54428593"><ele>1355.6</ele><time>2015-11-24T08:29:25.0000000+00:00</time></trkpt><trkpt lat="30.57006167" lon="35.54428132"><ele>1356.6</ele><time>2015-11-24T08:30:17.0000000+00:00</time></trkpt><trkpt lat="30.57006276" lon="35.5442835"><ele>1356.6</ele><time>2015-11-24T08:30:25.0000000+00:00</time></trkpt><trkpt lat="30.57005488" lon="35.54428208"><ele>1356.1</ele><time>2015-11-24T08:31:14.0000000+00:00</time></trkpt><trkpt lat="30.57005421" lon="35.54428744"><ele>1355.6</ele><time>2015-11-24T08:31:35.0000000+00:00</time></trkpt><trkpt lat="30.57005103" lon="35.54428669"><ele>1354.6</ele><time>2015-11-24T08:32:27.0000000+00:00</time></trkpt><trkpt lat="30.57007902" lon="35.5442866"><ele>1355.1</ele><time>2015-11-24T08:33:04.0000000+00:00</time></trkpt><trkpt lat="30.57008212" lon="35.54428208"><ele>1354.2</ele><time>2015-11-24T08:33:41.0000000+00:00</time></trkpt><trkpt lat="30.57008238" lon="35.54428342"><ele>1355.6</ele><time>2015-11-24T08:33:45.0000000+00:00</time></trkpt><trkpt lat="30.57008682" lon="35.54427931"><ele>1355.6</ele><time>2015-11-24T08:34:07.0000000+00:00</time></trkpt><trkpt lat="30.57008858" lon="35.54428392"><ele>1354.2</ele><time>2015-11-24T08:34:13.0000000+00:00</time></trkpt><trkpt lat="30.57008506" lon="35.54428149"><ele>1355.6</ele><time>2015-11-24T08:34:22.0000000+00:00</time></trkpt><trkpt lat="30.57008489" lon="35.5442835"><ele>1355.1</ele><time>2015-11-24T08:34:40.0000000+00:00</time></trkpt><trkpt lat="30.570089" lon="35.54428308"><ele>1354.2</ele><time>2015-11-24T08:35:20.0000000+00:00</time></trkpt><trkpt lat="30.57008816" lon="35.54428434"><ele>1356.1</ele><time>2015-11-24T08:35:34.0000000+00:00</time></trkpt><trkpt lat="30.57008497" lon="35.54427864"><ele>1355.1</ele><time>2015-11-24T08:36:07.0000000+00:00</time></trkpt><trkpt lat="30.57008388" lon="35.54428174"><ele>1355.6</ele><time>2015-11-24T08:36:25.0000000+00:00</time></trkpt><trkpt lat="30.57007207" lon="35.54429222"><ele>1354.2</ele><time>2015-11-24T08:36:58.0000000+00:00</time></trkpt><trkpt lat="30.57006377" lon="35.54430136"><ele>1354.6</ele><time>2015-11-24T08:37:30.0000000+00:00</time></trkpt><trkpt lat="30.5700662" lon="35.54430588"><ele>1353.7</ele><time>2015-11-24T08:37:44.0000000+00:00</time></trkpt><trkpt lat="30.57007165" lon="35.54431007"><ele>1353.2</ele><time>2015-11-24T08:38:15.0000000+00:00</time></trkpt><trkpt lat="30.5700688" lon="35.54431049"><ele>1353.7</ele><time>2015-11-24T08:38:23.0000000+00:00</time></trkpt><trkpt lat="30.57006855" lon="35.54430999"><ele>1355.1</ele><time>2015-11-24T08:38:26.0000000+00:00</time></trkpt><trkpt lat="30.57006243" lon="35.54431259"><ele>1353.7</ele><time>2015-11-24T08:39:02.0000000+00:00</time></trkpt><trkpt lat="30.57005949" lon="35.5443099"><ele>1354.6</ele><time>2015-11-24T08:39:41.0000000+00:00</time></trkpt><trkpt lat="30.57006461" lon="35.54431066"><ele>1354.2</ele><time>2015-11-24T08:40:18.0000000+00:00</time></trkpt><trkpt lat="30.57005983" lon="35.5443094"><ele>1354.2</ele><time>2015-11-24T08:40:51.0000000+00:00</time></trkpt><trkpt lat="30.57005522" lon="35.54431845"><ele>1353.2</ele><time>2015-11-24T08:41:28.0000000+00:00</time></trkpt><trkpt lat="30.57005497" lon="35.5443177"><ele>1354.2</ele><time>2015-11-24T08:41:56.0000000+00:00</time></trkpt><trkpt lat="30.57005304" lon="35.54432818"><ele>1355.1</ele><time>2015-11-24T08:42:32.0000000+00:00</time></trkpt><trkpt lat="30.57005413" lon="35.54432684"><ele>1353.7</ele><time>2015-11-24T08:42:35.0000000+00:00</time></trkpt><trkpt lat="30.57006955" lon="35.54432248"><ele>1357.0</ele><time>2015-11-24T08:43:13.0000000+00:00</time></trkpt><trkpt lat="30.57007802" lon="35.54431921"><ele>1354.6</ele><time>2015-11-24T08:43:16.0000000+00:00</time></trkpt><trkpt lat="30.57011431" lon="35.544284"><ele>1354.6</ele><time>2015-11-24T08:43:25.0000000+00:00</time></trkpt><trkpt lat="30.57018883" lon="35.54426355"><ele>1352.7</ele><time>2015-11-24T08:43:40.0000000+00:00</time></trkpt><trkpt lat="30.57025739" lon="35.5442576"><ele>1351.8</ele><time>2015-11-24T08:43:48.0000000+00:00</time></trkpt><trkpt lat="30.57033584" lon="35.54425743"><ele>1351.3</ele><time>2015-11-24T08:44:02.0000000+00:00</time></trkpt><trkpt lat="30.57032201" lon="35.54412123"><ele>1350.8</ele><time>2015-11-24T08:44:16.0000000+00:00</time></trkpt><trkpt lat="30.57021397" lon="35.54375578"><ele>1349.8</ele><time>2015-11-24T08:44:31.0000000+00:00</time></trkpt><trkpt lat="30.57015756" lon="35.54347666"><ele>1347.4</ele><time>2015-11-24T08:44:35.0000000+00:00</time></trkpt><trkpt lat="30.57017969" lon="35.5427243"><ele>1348.9</ele><time>2015-11-24T08:44:48.0000000+00:00</time></trkpt><trkpt lat="30.57018958" lon="35.54205283"><ele>1350.3</ele><time>2015-11-24T08:45:02.0000000+00:00</time></trkpt><trkpt lat="30.57032201" lon="35.54148696"><ele>1353.2</ele><time>2015-11-24T08:45:18.0000000+00:00</time></trkpt><trkpt lat="30.57033241" lon="35.54095203"><ele>1355.1</ele><time>2015-11-24T08:45:33.0000000+00:00</time></trkpt><trkpt lat="30.57026217" lon="35.54072589"><ele>1352.2</ele><time>2015-11-24T08:45:37.0000000+00:00</time></trkpt><trkpt lat="30.5701931" lon="35.54043705"><ele>1350.3</ele><time>2015-11-24T08:45:41.0000000+00:00</time></trkpt><trkpt lat="30.57016754" lon="35.54003455"><ele>1350.3</ele><time>2015-11-24T08:45:46.0000000+00:00</time></trkpt><trkpt lat="30.57033065" lon="35.5396805"><ele>1352.2</ele><time>2015-11-24T08:45:52.0000000+00:00</time></trkpt><trkpt lat="30.57038907" lon="35.5395955"><ele>1352.7</ele><time>2015-11-24T08:45:54.0000000+00:00</time></trkpt><trkpt lat="30.57046216" lon="35.53946332"><ele>1353.7</ele><time>2015-11-24T08:45:57.0000000+00:00</time></trkpt><trkpt lat="30.57049577" lon="35.53915478"><ele>1354.6</ele><time>2015-11-24T08:46:04.0000000+00:00</time></trkpt><trkpt lat="30.5704806" lon="35.53906024"><ele>1353.2</ele><time>2015-11-24T08:46:06.0000000+00:00</time></trkpt><trkpt lat="30.57035688" lon="35.53851055"><ele>1356.1</ele><time>2015-11-24T08:46:21.0000000+00:00</time></trkpt><trkpt lat="30.57013258" lon="35.53802448"><ele>1357.0</ele><time>2015-11-24T08:46:36.0000000+00:00</time></trkpt><trkpt lat="30.56987895" lon="35.53766691"><ele>1356.1</ele><time>2015-11-24T08:46:47.0000000+00:00</time></trkpt><trkpt lat="30.56981809" lon="35.53742409"><ele>1354.6</ele><time>2015-11-24T08:46:52.0000000+00:00</time></trkpt><trkpt lat="30.56981625" lon="35.53695437"><ele>1358.5</ele><time>2015-11-24T08:47:00.0000000+00:00</time></trkpt><trkpt lat="30.5698129" lon="35.53690282"><ele>1358.0</ele><time>2015-11-24T08:47:01.0000000+00:00</time></trkpt><trkpt lat="30.56980762" lon="35.53674256"><ele>1356.1</ele><time>2015-11-24T08:47:04.0000000+00:00</time></trkpt><trkpt lat="30.56986587" lon="35.53592825"><ele>1356.6</ele><time>2015-11-24T08:47:21.0000000+00:00</time></trkpt><trkpt lat="30.56991507" lon="35.53583505"><ele>1360.4</ele><time>2015-11-24T08:47:25.0000000+00:00</time></trkpt><trkpt lat="30.57010643" lon="35.53537656"><ele>1361.8</ele><time>2015-11-24T08:47:43.0000000+00:00</time></trkpt><trkpt lat="30.57010551" lon="35.53516022"><ele>1361.4</ele><time>2015-11-24T08:47:50.0000000+00:00</time></trkpt><trkpt lat="30.57008171" lon="35.53475797"><ele>1359.9</ele><time>2015-11-24T08:48:00.0000000+00:00</time></trkpt><trkpt lat="30.57009151" lon="35.53431365"><ele>1363.3</ele><time>2015-11-24T08:48:14.0000000+00:00</time></trkpt><trkpt lat="30.57001205" lon="35.53402137"><ele>1361.8</ele><time>2015-11-24T08:48:22.0000000+00:00</time></trkpt><trkpt lat="30.56996528" lon="35.53394292"><ele>1361.4</ele><time>2015-11-24T08:48:24.0000000+00:00</time></trkpt><trkpt lat="30.56988842" lon="35.53381367"><ele>1361.4</ele><time>2015-11-24T08:48:27.0000000+00:00</time></trkpt><trkpt lat="30.56977157" lon="35.53340731"><ele>1361.8</ele><time>2015-11-24T08:48:37.0000000+00:00</time></trkpt><trkpt lat="30.569758" lon="35.53321637"><ele>1364.7</ele><time>2015-11-24T08:48:42.0000000+00:00</time></trkpt><trkpt lat="30.5697502" lon="35.53315552"><ele>1368.6</ele><time>2015-11-24T08:48:44.0000000+00:00</time></trkpt><trkpt lat="30.56974702" lon="35.53313272"><ele>1368.6</ele><time>2015-11-24T08:48:45.0000000+00:00</time></trkpt><trkpt lat="30.56969974" lon="35.53298193"><ele>1365.2</ele><time>2015-11-24T08:48:52.0000000+00:00</time></trkpt><trkpt lat="30.56958793" lon="35.53268203"><ele>1366.7</ele><time>2015-11-24T08:49:04.0000000+00:00</time></trkpt><trkpt lat="30.56950847" lon="35.53256225"><ele>1367.6</ele><time>2015-11-24T08:49:10.0000000+00:00</time></trkpt><trkpt lat="30.56948944" lon="35.53254339"><ele>1369.5</ele><time>2015-11-24T08:49:15.0000000+00:00</time></trkpt><trkpt lat="30.56948424" lon="35.53255135"><ele>1371.9</ele><time>2015-11-24T08:49:18.0000000+00:00</time></trkpt><trkpt lat="30.56948173" lon="35.53255412"><ele>1368.6</ele><time>2015-11-24T08:49:19.0000000+00:00</time></trkpt><trkpt lat="30.56948835" lon="35.53256736"><ele>1365.2</ele><time>2015-11-24T08:49:33.0000000+00:00</time></trkpt><trkpt lat="30.56949656" lon="35.53257348"><ele>1369.1</ele><time>2015-11-24T08:49:49.0000000+00:00</time></trkpt><trkpt lat="30.56949774" lon="35.53257164"><ele>1369.1</ele><time>2015-11-24T08:49:50.0000000+00:00</time></trkpt><trkpt lat="30.56949615" lon="35.53257382"><ele>1366.2</ele><time>2015-11-24T08:49:56.0000000+00:00</time></trkpt><trkpt lat="30.56948609" lon="35.53257264"><ele>1366.2</ele><time>2015-11-24T08:50:23.0000000+00:00</time></trkpt><trkpt lat="30.56948793" lon="35.53257013"><ele>1365.2</ele><time>2015-11-24T08:50:44.0000000+00:00</time></trkpt><trkpt lat="30.56950143" lon="35.53258195"><ele>1365.2</ele><time>2015-11-24T08:51:29.0000000+00:00</time></trkpt><trkpt lat="30.56948701" lon="35.53258044"><ele>1369.5</ele><time>2015-11-24T08:51:50.0000000+00:00</time></trkpt><trkpt lat="30.56948667" lon="35.53258186"><ele>1369.1</ele><time>2015-11-24T08:51:51.0000000+00:00</time></trkpt><trkpt lat="30.56948592" lon="35.53258211"><ele>1368.1</ele><time>2015-11-24T08:51:53.0000000+00:00</time></trkpt><trkpt lat="30.56948936" lon="35.53257365"><ele>1364.7</ele><time>2015-11-24T08:52:07.0000000+00:00</time></trkpt><trkpt lat="30.56949154" lon="35.53257097"><ele>1364.7</ele><time>2015-11-24T08:52:08.0000000+00:00</time></trkpt><trkpt lat="30.56948173" lon="35.53257876"><ele>1367.1</ele><time>2015-11-24T08:52:45.0000000+00:00</time></trkpt><trkpt lat="30.56948139" lon="35.53257683"><ele>1366.7</ele><time>2015-11-24T08:52:49.0000000+00:00</time></trkpt><trkpt lat="30.5694969" lon="35.53258086"><ele>1365.2</ele><time>2015-11-24T08:52:56.0000000+00:00</time></trkpt><trkpt lat="30.569515" lon="35.53258664"><ele>1365.7</ele><time>2015-11-24T08:53:12.0000000+00:00</time></trkpt><trkpt lat="30.56951039" lon="35.5325946"><ele>1362.8</ele><time>2015-11-24T08:53:27.0000000+00:00</time></trkpt><trkpt lat="30.5695171" lon="35.53258203"><ele>1364.7</ele><time>2015-11-24T08:53:40.0000000+00:00</time></trkpt><trkpt lat="30.56951785" lon="35.53257683"><ele>1363.3</ele><time>2015-11-24T08:53:42.0000000+00:00</time></trkpt><trkpt lat="30.56951802" lon="35.53257759"><ele>1365.7</ele><time>2015-11-24T08:53:55.0000000+00:00</time></trkpt><trkpt lat="30.56951693" lon="35.53258379"><ele>1369.1</ele><time>2015-11-24T08:54:00.0000000+00:00</time></trkpt><trkpt lat="30.56951383" lon="35.53259058"><ele>1366.7</ele><time>2015-11-24T08:54:03.0000000+00:00</time></trkpt><trkpt lat="30.56951333" lon="35.53256325"><ele>1367.6</ele><time>2015-11-24T08:54:35.0000000+00:00</time></trkpt><trkpt lat="30.56945449" lon="35.53254012"><ele>1365.7</ele><time>2015-11-24T08:54:46.0000000+00:00</time></trkpt><trkpt lat="30.56943035" lon="35.53251849"><ele>1367.6</ele><time>2015-11-24T08:54:49.0000000+00:00</time></trkpt><trkpt lat="30.56938425" lon="35.53247374"><ele>1364.3</ele><time>2015-11-24T08:54:54.0000000+00:00</time></trkpt><trkpt lat="30.56937494" lon="35.53246913"><ele>1364.7</ele><time>2015-11-24T08:54:55.0000000+00:00</time></trkpt><trkpt lat="30.56932398" lon="35.53243853"><ele>1363.8</ele><time>2015-11-24T08:55:01.0000000+00:00</time></trkpt><trkpt lat="30.56930487" lon="35.53244306"><ele>1362.3</ele><time>2015-11-24T08:55:04.0000000+00:00</time></trkpt><trkpt lat="30.56928475" lon="35.53244373"><ele>1364.3</ele><time>2015-11-24T08:55:06.0000000+00:00</time></trkpt><trkpt lat="30.56900941" lon="35.53239277"><ele>1360.4</ele><time>2015-11-24T08:55:16.0000000+00:00</time></trkpt><trkpt lat="30.56897102" lon="35.53239235"><ele>1360.4</ele><time>2015-11-24T08:55:17.0000000+00:00</time></trkpt><trkpt lat="30.5688851" lon="35.53239184"><ele>1359.0</ele><time>2015-11-24T08:55:19.0000000+00:00</time></trkpt><trkpt lat="30.56831991" lon="35.53222018"><ele>1359.9</ele><time>2015-11-24T08:55:34.0000000+00:00</time></trkpt><trkpt lat="30.56814582" lon="35.53211097"><ele>1362.8</ele><time>2015-11-24T08:55:41.0000000+00:00</time></trkpt><trkpt lat="30.56801003" lon="35.53201533"><ele>1359.4</ele><time>2015-11-24T08:55:46.0000000+00:00</time></trkpt><trkpt lat="30.56762145" lon="35.53184635"><ele>1362.8</ele><time>2015-11-24T08:56:00.0000000+00:00</time></trkpt><trkpt lat="30.56708836" lon="35.53162415"><ele>1363.8</ele><time>2015-11-24T08:56:17.0000000+00:00</time></trkpt><trkpt lat="30.56675049" lon="35.53139188"><ele>1364.3</ele><time>2015-11-24T08:56:32.0000000+00:00</time></trkpt><trkpt lat="30.56638822" lon="35.53108527"><ele>1363.3</ele><time>2015-11-24T08:56:42.0000000+00:00</time></trkpt><trkpt lat="30.56629778" lon="35.53100531"><ele>1366.2</ele><time>2015-11-24T08:56:45.0000000+00:00</time></trkpt><trkpt lat="30.56627967" lon="35.53098997"><ele>1366.7</ele><time>2015-11-24T08:56:46.0000000+00:00</time></trkpt><trkpt lat="30.56608714" lon="35.53088872"><ele>1370.0</ele><time>2015-11-24T08:56:58.0000000+00:00</time></trkpt><trkpt lat="30.56599578" lon="35.53087045"><ele>1367.6</ele><time>2015-11-24T08:57:08.0000000+00:00</time></trkpt><trkpt lat="30.5659931" lon="35.53088168"><ele>1366.2</ele><time>2015-11-24T08:57:37.0000000+00:00</time></trkpt><trkpt lat="30.56600123" lon="35.53087606"><ele>1366.2</ele><time>2015-11-24T08:58:29.0000000+00:00</time></trkpt><trkpt lat="30.56586108" lon="35.53085024"><ele>1365.2</ele><time>2015-11-24T08:58:35.0000000+00:00</time></trkpt><trkpt lat="30.56568246" lon="35.53080792"><ele>1364.3</ele><time>2015-11-24T08:58:39.0000000+00:00</time></trkpt><trkpt lat="30.56542589" lon="35.53067171"><ele>1364.7</ele><time>2015-11-24T08:58:47.0000000+00:00</time></trkpt><trkpt lat="30.565243" lon="35.53048404"><ele>1368.1</ele><time>2015-11-24T08:58:58.0000000+00:00</time></trkpt><trkpt lat="30.56521442" lon="35.53044029"><ele>1366.7</ele><time>2015-11-24T08:59:00.0000000+00:00</time></trkpt><trkpt lat="30.56517142" lon="35.5303687"><ele>1371.5</ele><time>2015-11-24T08:59:03.0000000+00:00</time></trkpt><trkpt lat="30.56516153" lon="35.53034322"><ele>1371.5</ele><time>2015-11-24T08:59:04.0000000+00:00</time></trkpt><trkpt lat="30.56514443" lon="35.53030073"><ele>1370.0</ele><time>2015-11-24T08:59:06.0000000+00:00</time></trkpt><trkpt lat="30.56505592" lon="35.53007836"><ele>1371.5</ele><time>2015-11-24T08:59:19.0000000+00:00</time></trkpt><trkpt lat="30.56503764" lon="35.53002597"><ele>1370.0</ele><time>2015-11-24T08:59:22.0000000+00:00</time></trkpt><trkpt lat="30.56501258" lon="35.52995682"><ele>1371.9</ele><time>2015-11-24T08:59:26.0000000+00:00</time></trkpt><trkpt lat="30.56497822" lon="35.52987392"><ele>1373.4</ele><time>2015-11-24T08:59:31.0000000+00:00</time></trkpt><trkpt lat="30.56492466" lon="35.52976328"><ele>1373.9</ele><time>2015-11-24T08:59:38.0000000+00:00</time></trkpt><trkpt lat="30.56488392" lon="35.52967913"><ele>1378.2</ele><time>2015-11-24T08:59:43.0000000+00:00</time></trkpt><trkpt lat="30.56468954" lon="35.52950579"><ele>1375.3</ele><time>2015-11-24T08:59:59.0000000+00:00</time></trkpt><trkpt lat="30.56445636" lon="35.52943228"><ele>1377.7</ele><time>2015-11-24T09:00:12.0000000+00:00</time></trkpt><trkpt lat="30.56438553" lon="35.52941426"><ele>1375.3</ele><time>2015-11-24T09:00:15.0000000+00:00</time></trkpt><trkpt lat="30.56415964" lon="35.52940093"><ele>1371.9</ele><time>2015-11-24T09:00:22.0000000+00:00</time></trkpt><trkpt lat="30.56384523" lon="35.52942532"><ele>1374.3</ele><time>2015-11-24T09:00:29.0000000+00:00</time></trkpt><trkpt lat="30.56363736" lon="35.529441"><ele>1373.4</ele><time>2015-11-24T09:00:33.0000000+00:00</time></trkpt><trkpt lat="30.56342128" lon="35.52951073"><ele>1371.0</ele><time>2015-11-24T09:00:38.0000000+00:00</time></trkpt><trkpt lat="30.56333" lon="35.52953462"><ele>1369.5</ele><time>2015-11-24T09:00:40.0000000+00:00</time></trkpt><trkpt lat="30.56324945" lon="35.52949422"><ele>1368.1</ele><time>2015-11-24T09:00:42.0000000+00:00</time></trkpt><trkpt lat="30.56322405" lon="35.52945022"><ele>1367.6</ele><time>2015-11-24T09:00:43.0000000+00:00</time></trkpt><trkpt lat="30.56311986" lon="35.52925123"><ele>1367.1</ele><time>2015-11-24T09:00:47.0000000+00:00</time></trkpt><trkpt lat="30.56305457" lon="35.52914411"><ele>1366.2</ele><time>2015-11-24T09:00:49.0000000+00:00</time></trkpt><trkpt lat="30.56286782" lon="35.52864723"><ele>1365.7</ele><time>2015-11-24T09:00:56.0000000+00:00</time></trkpt><trkpt lat="30.56278786" lon="35.52824909"><ele>1359.9</ele><time>2015-11-24T09:01:01.0000000+00:00</time></trkpt><trkpt lat="30.5626954" lon="35.52802236"><ele>1355.1</ele><time>2015-11-24T09:01:05.0000000+00:00</time></trkpt><trkpt lat="30.56266707" lon="35.52798129"><ele>1355.1</ele><time>2015-11-24T09:01:06.0000000+00:00</time></trkpt><trkpt lat="30.56263564" lon="35.52794726"><ele>1356.1</ele><time>2015-11-24T09:01:07.0000000+00:00</time></trkpt><trkpt lat="30.56223046" lon="35.527803"><ele>1352.2</ele><time>2015-11-24T09:01:18.0000000+00:00</time></trkpt><trkpt lat="30.56209224" lon="35.52774819"><ele>1351.3</ele><time>2015-11-24T09:01:20.0000000+00:00</time></trkpt><trkpt lat="30.56179334" lon="35.52757049"><ele>1352.2</ele><time>2015-11-24T09:01:25.0000000+00:00</time></trkpt><trkpt lat="30.56163082" lon="35.52742565"><ele>1351.3</ele><time>2015-11-24T09:01:29.0000000+00:00</time></trkpt><trkpt lat="30.56157684" lon="35.52735684"><ele>1352.2</ele><time>2015-11-24T09:01:31.0000000+00:00</time></trkpt><trkpt lat="30.56150123" lon="35.52725256"><ele>1353.7</ele><time>2015-11-24T09:01:36.0000000+00:00</time></trkpt><trkpt lat="30.56126688" lon="35.52702533"><ele>1353.2</ele><time>2015-11-24T09:01:48.0000000+00:00</time></trkpt><trkpt lat="30.56115674" lon="35.52696565"><ele>1351.3</ele><time>2015-11-24T09:01:54.0000000+00:00</time></trkpt><trkpt lat="30.56092154" lon="35.52691461"><ele>1351.8</ele><time>2015-11-24T09:02:03.0000000+00:00</time></trkpt><trkpt lat="30.56054285" lon="35.52681318"><ele>1351.8</ele><time>2015-11-24T09:02:18.0000000+00:00</time></trkpt><trkpt lat="30.56026591" lon="35.52674068"><ele>1353.2</ele><time>2015-11-24T09:02:32.0000000+00:00</time></trkpt><trkpt lat="30.5599935" lon="35.52666256"><ele>1351.8</ele><time>2015-11-24T09:02:45.0000000+00:00</time></trkpt><trkpt lat="30.55986894" lon="35.52663482"><ele>1350.3</ele><time>2015-11-24T09:02:49.0000000+00:00</time></trkpt><trkpt lat="30.55958044" lon="35.52659157"><ele>1353.7</ele><time>2015-11-24T09:03:01.0000000+00:00</time></trkpt><trkpt lat="30.55927877" lon="35.52648017"><ele>1355.1</ele><time>2015-11-24T09:03:16.0000000+00:00</time></trkpt><trkpt lat="30.55900225" lon="35.52636023"><ele>1355.6</ele><time>2015-11-24T09:03:30.0000000+00:00</time></trkpt><trkpt lat="30.558627" lon="35.5263733"><ele>1352.7</ele><time>2015-11-24T09:03:45.0000000+00:00</time></trkpt><trkpt lat="30.55823238" lon="35.5262873"><ele>1352.7</ele><time>2015-11-24T09:03:57.0000000+00:00</time></trkpt><trkpt lat="30.55814261" lon="35.52623324"><ele>1354.2</ele><time>2015-11-24T09:04:01.0000000+00:00</time></trkpt><trkpt lat="30.55765729" lon="35.52607616"><ele>1353.7</ele><time>2015-11-24T09:04:18.0000000+00:00</time></trkpt><trkpt lat="30.5573335" lon="35.52600718"><ele>1353.2</ele><time>2015-11-24T09:04:27.0000000+00:00</time></trkpt><trkpt lat="30.55712353" lon="35.52591071"><ele>1351.8</ele><time>2015-11-24T09:04:31.0000000+00:00</time></trkpt><trkpt lat="30.55692564" lon="35.52569998"><ele>1353.2</ele><time>2015-11-24T09:04:36.0000000+00:00</time></trkpt><trkpt lat="30.55683469" lon="35.52559379"><ele>1355.1</ele><time>2015-11-24T09:04:40.0000000+00:00</time></trkpt><trkpt lat="30.55664275" lon="35.52530813"><ele>1352.7</ele><time>2015-11-24T09:04:48.0000000+00:00</time></trkpt><trkpt lat="30.55620622" lon="35.52469407"><ele>1351.8</ele><time>2015-11-24T09:05:02.0000000+00:00</time></trkpt><trkpt lat="30.55617965" lon="35.52465887"><ele>1351.8</ele><time>2015-11-24T09:05:03.0000000+00:00</time></trkpt><trkpt lat="30.55597647" lon="35.5243712"><ele>1352.2</ele><time>2015-11-24T09:05:12.0000000+00:00</time></trkpt><trkpt lat="30.55554589" lon="35.52397323"><ele>1352.7</ele><time>2015-11-24T09:05:29.0000000+00:00</time></trkpt><trkpt lat="30.55535495" lon="35.52391556"><ele>1349.8</ele><time>2015-11-24T09:05:36.0000000+00:00</time></trkpt><trkpt lat="30.55532729" lon="35.52390777"><ele>1349.4</ele><time>2015-11-24T09:05:37.0000000+00:00</time></trkpt><trkpt lat="30.55527172" lon="35.52389251"><ele>1348.4</ele><time>2015-11-24T09:05:39.0000000+00:00</time></trkpt><trkpt lat="30.55496779" lon="35.52394574"><ele>1348.4</ele><time>2015-11-24T09:05:52.0000000+00:00</time></trkpt><trkpt lat="30.55493779" lon="35.52397247"><ele>1348.4</ele><time>2015-11-24T09:05:54.0000000+00:00</time></trkpt><trkpt lat="30.55488666" lon="35.52407381"><ele>1347.9</ele><time>2015-11-24T09:06:00.0000000+00:00</time></trkpt><trkpt lat="30.55482974" lon="35.52419367"><ele>1345.5</ele><time>2015-11-24T09:06:05.0000000+00:00</time></trkpt><trkpt lat="30.554787" lon="35.52427565"><ele>1344.1</ele><time>2015-11-24T09:06:07.0000000+00:00</time></trkpt><trkpt lat="30.55476177" lon="35.52431454"><ele>1343.1</ele><time>2015-11-24T09:06:08.0000000+00:00</time></trkpt><trkpt lat="30.55461994" lon="35.52428671"><ele>1341.7</ele><time>2015-11-24T09:06:12.0000000+00:00</time></trkpt><trkpt lat="30.55448852" lon="35.52413022"><ele>1341.2</ele><time>2015-11-24T09:06:16.0000000+00:00</time></trkpt><trkpt lat="30.55422985" lon="35.52384297"><ele>1337.3</ele><time>2015-11-24T09:06:22.0000000+00:00</time></trkpt><trkpt lat="30.55418953" lon="35.52377986"><ele>1335.9</ele><time>2015-11-24T09:06:23.0000000+00:00</time></trkpt><trkpt lat="30.55413689" lon="35.52358096"><ele>1334.5</ele><time>2015-11-24T09:06:26.0000000+00:00</time></trkpt><trkpt lat="30.55415207" lon="35.52350678"><ele>1333.0</ele><time>2015-11-24T09:06:27.0000000+00:00</time></trkpt><trkpt lat="30.55422164" lon="35.52313009"><ele>1330.6</ele><time>2015-11-24T09:06:33.0000000+00:00</time></trkpt><trkpt lat="30.55420387" lon="35.52292147"><ele>1328.2</ele><time>2015-11-24T09:06:37.0000000+00:00</time></trkpt><trkpt lat="30.55412985" lon="35.52273111"><ele>1324.8</ele><time>2015-11-24T09:06:40.0000000+00:00</time></trkpt><trkpt lat="30.55408694" lon="35.52267286"><ele>1323.4</ele><time>2015-11-24T09:06:41.0000000+00:00</time></trkpt><trkpt lat="30.55396004" lon="35.52246306"><ele>1322.0</ele><time>2015-11-24T09:06:44.0000000+00:00</time></trkpt><trkpt lat="30.55365896" lon="35.5216159"><ele>1320.0</ele><time>2015-11-24T09:06:55.0000000+00:00</time></trkpt><trkpt lat="30.55356986" lon="35.52136939"><ele>1323.4</ele><time>2015-11-24T09:07:00.0000000+00:00</time></trkpt><trkpt lat="30.55356064" lon="35.52135372"><ele>1323.9</ele><time>2015-11-24T09:07:01.0000000+00:00</time></trkpt><trkpt lat="30.55346986" lon="35.52109689"><ele>1326.8</ele><time>2015-11-24T09:07:16.0000000+00:00</time></trkpt><trkpt lat="30.55343625" lon="35.52099003"><ele>1330.1</ele><time>2015-11-24T09:07:24.0000000+00:00</time></trkpt><trkpt lat="30.5533464" lon="35.52078299"><ele>1331.6</ele><time>2015-11-24T09:07:40.0000000+00:00</time></trkpt><trkpt lat="30.55332016" lon="35.52069381"><ele>1334.0</ele><time>2015-11-24T09:07:46.0000000+00:00</time></trkpt><trkpt lat="30.55329401" lon="35.52064159"><ele>1334.5</ele><time>2015-11-24T09:07:50.0000000+00:00</time></trkpt><trkpt lat="30.55323374" lon="35.52047487"><ele>1337.3</ele><time>2015-11-24T09:08:01.0000000+00:00</time></trkpt><trkpt lat="30.55320223" lon="35.52036381"><ele>1339.3</ele><time>2015-11-24T09:08:08.0000000+00:00</time></trkpt><trkpt lat="30.55317616" lon="35.52027823"><ele>1339.7</ele><time>2015-11-24T09:08:13.0000000+00:00</time></trkpt><trkpt lat="30.55316753" lon="35.52026214"><ele>1339.3</ele><time>2015-11-24T09:08:14.0000000+00:00</time></trkpt><trkpt lat="30.55314724" lon="35.52015577"><ele>1338.8</ele><time>2015-11-24T09:08:20.0000000+00:00</time></trkpt><trkpt lat="30.55307742" lon="35.51987733"><ele>1342.1</ele><time>2015-11-24T09:08:37.0000000+00:00</time></trkpt><trkpt lat="30.553077" lon="35.51985906"><ele>1342.6</ele><time>2015-11-24T09:08:38.0000000+00:00</time></trkpt><trkpt lat="30.55303342" lon="35.51973106"><ele>1343.6</ele><time>2015-11-24T09:08:46.0000000+00:00</time></trkpt><trkpt lat="30.55297961" lon="35.51962889"><ele>1343.6</ele><time>2015-11-24T09:08:53.0000000+00:00</time></trkpt><trkpt lat="30.55295463" lon="35.51955127"><ele>1344.5</ele><time>2015-11-24T09:08:58.0000000+00:00</time></trkpt><trkpt lat="30.55291993" lon="35.51943443"><ele>1344.1</ele><time>2015-11-24T09:09:06.0000000+00:00</time></trkpt><trkpt lat="30.55289696" lon="35.51937173"><ele>1346.5</ele><time>2015-11-24T09:09:10.0000000+00:00</time></trkpt><trkpt lat="30.55289495" lon="35.51935346"><ele>1347.4</ele><time>2015-11-24T09:09:11.0000000+00:00</time></trkpt><trkpt lat="30.55286385" lon="35.5192377"><ele>1346.0</ele><time>2015-11-24T09:09:16.0000000+00:00</time></trkpt><trkpt lat="30.55281138" lon="35.51884795"><ele>1346.0</ele><time>2015-11-24T09:09:31.0000000+00:00</time></trkpt><trkpt lat="30.55278691" lon="35.51849364"><ele>1349.4</ele><time>2015-11-24T09:09:44.0000000+00:00</time></trkpt><trkpt lat="30.55267794" lon="35.51815325"><ele>1347.9</ele><time>2015-11-24T09:09:58.0000000+00:00</time></trkpt><trkpt lat="30.5526631" lon="35.51811344"><ele>1348.9</ele><time>2015-11-24T09:10:00.0000000+00:00</time></trkpt><trkpt lat="30.55260879" lon="35.51791378"><ele>1349.4</ele><time>2015-11-24T09:10:09.0000000+00:00</time></trkpt><trkpt lat="30.55256546" lon="35.51778453"><ele>1348.9</ele><time>2015-11-24T09:10:16.0000000+00:00</time></trkpt><trkpt lat="30.55254106" lon="35.51772913"><ele>1349.4</ele><time>2015-11-24T09:10:19.0000000+00:00</time></trkpt><trkpt lat="30.55241249" lon="35.51742897"><ele>1350.8</ele><time>2015-11-24T09:10:36.0000000+00:00</time></trkpt><trkpt lat="30.55238826" lon="35.51737416"><ele>1352.2</ele><time>2015-11-24T09:10:39.0000000+00:00</time></trkpt><trkpt lat="30.55237602" lon="35.51719705"><ele>1354.2</ele><time>2015-11-24T09:10:49.0000000+00:00</time></trkpt><trkpt lat="30.55237167" lon="35.5170015"><ele>1358.0</ele><time>2015-11-24T09:10:59.0000000+00:00</time></trkpt><trkpt lat="30.55236747" lon="35.51696026"><ele>1359.0</ele><time>2015-11-24T09:11:01.0000000+00:00</time></trkpt><trkpt lat="30.5523606" lon="35.51686026"><ele>1359.4</ele><time>2015-11-24T09:11:06.0000000+00:00</time></trkpt><trkpt lat="30.55236639" lon="35.51679958"><ele>1360.9</ele><time>2015-11-24T09:11:09.0000000+00:00</time></trkpt><trkpt lat="30.55237234" lon="35.51671366"><ele>1363.3</ele><time>2015-11-24T09:11:13.0000000+00:00</time></trkpt><trkpt lat="30.55238474" lon="35.51664124"><ele>1364.3</ele><time>2015-11-24T09:11:17.0000000+00:00</time></trkpt><trkpt lat="30.55239413" lon="35.51650537"><ele>1367.1</ele><time>2015-11-24T09:11:24.0000000+00:00</time></trkpt><trkpt lat="30.55239673" lon="35.51648811"><ele>1368.6</ele><time>2015-11-24T09:11:25.0000000+00:00</time></trkpt><trkpt lat="30.55239438" lon="35.51637101"><ele>1367.1</ele><time>2015-11-24T09:11:31.0000000+00:00</time></trkpt><trkpt lat="30.55232766" lon="35.51613062"><ele>1369.1</ele><time>2015-11-24T09:11:41.0000000+00:00</time></trkpt><trkpt lat="30.55222993" lon="35.5159183"><ele>1369.5</ele><time>2015-11-24T09:11:51.0000000+00:00</time></trkpt><trkpt lat="30.55208685" lon="35.51557993"><ele>1371.0</ele><time>2015-11-24T09:12:10.0000000+00:00</time></trkpt><trkpt lat="30.55200965" lon="35.51527583"><ele>1372.9</ele><time>2015-11-24T09:12:25.0000000+00:00</time></trkpt><trkpt lat="30.55200554" lon="35.51525773"><ele>1372.9</ele><time>2015-11-24T09:12:26.0000000+00:00</time></trkpt><trkpt lat="30.55198174" lon="35.51518271"><ele>1374.3</ele><time>2015-11-24T09:12:30.0000000+00:00</time></trkpt><trkpt lat="30.55192684" lon="35.51504524"><ele>1375.3</ele><time>2015-11-24T09:12:37.0000000+00:00</time></trkpt><trkpt lat="30.55176892" lon="35.51473981"><ele>1376.8</ele><time>2015-11-24T09:12:52.0000000+00:00</time></trkpt><trkpt lat="30.5516188" lon="35.51458349"><ele>1375.8</ele><time>2015-11-24T09:12:59.0000000+00:00</time></trkpt><trkpt lat="30.55161746" lon="35.51454258"><ele>1374.8</ele><time>2015-11-24T09:13:09.0000000+00:00</time></trkpt><trkpt lat="30.55160196" lon="35.51453537"><ele>1376.3</ele><time>2015-11-24T09:13:19.0000000+00:00</time></trkpt><trkpt lat="30.55159877" lon="35.51453319"><ele>1379.6</ele><time>2015-11-24T09:13:23.0000000+00:00</time></trkpt><trkpt lat="30.55159919" lon="35.5145378"><ele>1371.0</ele><time>2015-11-24T09:13:24.0000000+00:00</time></trkpt><trkpt lat="30.55159743" lon="35.51453923"><ele>1371.9</ele><time>2015-11-24T09:13:25.0000000+00:00</time></trkpt><trkpt lat="30.55159458" lon="35.5145451"><ele>1372.9</ele><time>2015-11-24T09:13:27.0000000+00:00</time></trkpt><trkpt lat="30.55158125" lon="35.51454652"><ele>1375.8</ele><time>2015-11-24T09:13:31.0000000+00:00</time></trkpt><trkpt lat="30.55157639" lon="35.51454091"><ele>1381.6</ele><time>2015-11-24T09:13:40.0000000+00:00</time></trkpt><trkpt lat="30.55157631" lon="35.51454116"><ele>1380.1</ele><time>2015-11-24T09:13:41.0000000+00:00</time></trkpt><trkpt lat="30.5515753" lon="35.5145394"><ele>1375.8</ele><time>2015-11-24T09:13:42.0000000+00:00</time></trkpt><trkpt lat="30.55157916" lon="35.5145487"><ele>1374.3</ele><time>2015-11-24T09:13:48.0000000+00:00</time></trkpt><trkpt lat="30.55156591" lon="35.51455884"><ele>1375.3</ele><time>2015-11-24T09:14:07.0000000+00:00</time></trkpt><trkpt lat="30.5515577" lon="35.51455205"><ele>1377.2</ele><time>2015-11-24T09:14:12.0000000+00:00</time></trkpt><trkpt lat="30.55153239" lon="35.51454459"><ele>1372.4</ele><time>2015-11-24T09:14:16.0000000+00:00</time></trkpt><trkpt lat="30.55152241" lon="35.51454979"><ele>1371.0</ele><time>2015-11-24T09:14:18.0000000+00:00</time></trkpt><trkpt lat="30.55143574" lon="35.51453562"><ele>1371.5</ele><time>2015-11-24T09:14:24.0000000+00:00</time></trkpt><trkpt lat="30.55127188" lon="35.51443161"><ele>1367.1</ele><time>2015-11-24T09:14:28.0000000+00:00</time></trkpt><trkpt lat="30.55116476" lon="35.51433479"><ele>1366.7</ele><time>2015-11-24T09:14:30.0000000+00:00</time></trkpt><trkpt lat="30.5511086" lon="35.5142778"><ele>1366.7</ele><time>2015-11-24T09:14:31.0000000+00:00</time></trkpt><trkpt lat="30.55096644" lon="35.51405953"><ele>1360.9</ele><time>2015-11-24T09:14:34.0000000+00:00</time></trkpt><trkpt lat="30.55093233" lon="35.5139618"><ele>1359.4</ele><time>2015-11-24T09:14:35.0000000+00:00</time></trkpt><trkpt lat="30.55077894" lon="35.51338278"><ele>1354.2</ele><time>2015-11-24T09:14:40.0000000+00:00</time></trkpt><trkpt lat="30.55071766" lon="35.51313484"><ele>1350.8</ele><time>2015-11-24T09:14:42.0000000+00:00</time></trkpt><trkpt lat="30.55065924" lon="35.51288607"><ele>1347.4</ele><time>2015-11-24T09:14:44.0000000+00:00</time></trkpt><trkpt lat="30.55061784" lon="35.51265783"><ele>1344.5</ele><time>2015-11-24T09:14:46.0000000+00:00</time></trkpt><trkpt lat="30.55058951" lon="35.51235122"><ele>1340.2</ele><time>2015-11-24T09:14:49.0000000+00:00</time></trkpt><trkpt lat="30.55058104" lon="35.51227444"><ele>1338.8</ele><time>2015-11-24T09:14:50.0000000+00:00</time></trkpt><trkpt lat="30.55048984" lon="35.51208752"><ele>1337.8</ele><time>2015-11-24T09:14:54.0000000+00:00</time></trkpt><trkpt lat="30.55044685" lon="35.51197001"><ele>1335.9</ele><time>2015-11-24T09:14:58.0000000+00:00</time></trkpt><trkpt lat="30.55042103" lon="35.51191586"><ele>1336.9</ele><time>2015-11-24T09:15:00.0000000+00:00</time></trkpt><trkpt lat="30.55025213" lon="35.51169743"><ele>1336.9</ele><time>2015-11-24T09:15:07.0000000+00:00</time></trkpt><trkpt lat="30.55013378" lon="35.51147019"><ele>1335.9</ele><time>2015-11-24T09:15:11.0000000+00:00</time></trkpt><trkpt lat="30.55008098" lon="35.51127154"><ele>1335.9</ele><time>2015-11-24T09:15:14.0000000+00:00</time></trkpt><trkpt lat="30.54986799" lon="35.51097625"><ele>1335.9</ele><time>2015-11-24T09:15:21.0000000+00:00</time></trkpt><trkpt lat="30.5496193" lon="35.51092202"><ele>1334.5</ele><time>2015-11-24T09:15:32.0000000+00:00</time></trkpt><trkpt lat="30.54962064" lon="35.51092462"><ele>1336.4</ele><time>2015-11-24T09:15:36.0000000+00:00</time></trkpt><trkpt lat="30.54960782" lon="35.51091607"><ele>1338.3</ele><time>2015-11-24T09:15:58.0000000+00:00</time></trkpt><trkpt lat="30.5496053" lon="35.51091515"><ele>1336.4</ele><time>2015-11-24T09:16:02.0000000+00:00</time></trkpt><trkpt lat="30.54960589" lon="35.51091598"><ele>1334.5</ele><time>2015-11-24T09:16:06.0000000+00:00</time></trkpt><trkpt lat="30.54960539" lon="35.51091347"><ele>1335.9</ele><time>2015-11-24T09:16:12.0000000+00:00</time></trkpt><trkpt lat="30.54960438" lon="35.51091372"><ele>1337.8</ele><time>2015-11-24T09:16:16.0000000+00:00</time></trkpt><trkpt lat="30.54960363" lon="35.51091548"><ele>1336.9</ele><time>2015-11-24T09:16:37.0000000+00:00</time></trkpt><trkpt lat="30.54960807" lon="35.51092009"><ele>1337.8</ele><time>2015-11-24T09:16:56.0000000+00:00</time></trkpt><trkpt lat="30.54956172" lon="35.51120139"><ele>1355.1</ele><time>2015-11-24T09:19:34.0000000+00:00</time></trkpt><trkpt lat="30.54955468" lon="35.51118789"><ele>1346.9</ele><time>2015-11-24T09:19:35.0000000+00:00</time></trkpt><trkpt lat="30.54955141" lon="35.51117708"><ele>1347.4</ele><time>2015-11-24T09:19:36.0000000+00:00</time></trkpt><trkpt lat="30.54954344" lon="35.51113567"><ele>1350.8</ele><time>2015-11-24T09:19:57.0000000+00:00</time></trkpt><trkpt lat="30.54967898" lon="35.51091054"><ele>1346.9</ele><time>2015-11-24T09:20:08.0000000+00:00</time></trkpt><trkpt lat="30.54967403" lon="35.51090215"><ele>1345.5</ele><time>2015-11-24T09:20:11.0000000+00:00</time></trkpt><trkpt lat="30.54966498" lon="35.51088933"><ele>1342.1</ele><time>2015-11-24T09:20:16.0000000+00:00</time></trkpt><trkpt lat="30.54966565" lon="35.51088405"><ele>1341.7</ele><time>2015-11-24T09:20:18.0000000+00:00</time></trkpt><trkpt lat="30.54965685" lon="35.51086737"><ele>1340.2</ele><time>2015-11-24T09:20:21.0000000+00:00</time></trkpt><trkpt lat="30.54963028" lon="35.51084583"><ele>1338.3</ele><time>2015-11-24T09:20:44.0000000+00:00</time></trkpt><trkpt lat="30.54961561" lon="35.51088505"><ele>1341.2</ele><time>2015-11-24T09:21:08.0000000+00:00</time></trkpt><trkpt lat="30.54961746" lon="35.51089084"><ele>1339.3</ele><time>2015-11-24T09:21:11.0000000+00:00</time></trkpt><trkpt lat="30.54961754" lon="35.51089796"><ele>1340.2</ele><time>2015-11-24T09:21:21.0000000+00:00</time></trkpt><trkpt lat="30.54962089" lon="35.51090408"><ele>1339.3</ele><time>2015-11-24T09:21:29.0000000+00:00</time></trkpt><trkpt lat="30.54961712" lon="35.51089318"><ele>1338.8</ele><time>2015-11-24T09:21:53.0000000+00:00</time></trkpt><trkpt lat="30.54960757" lon="35.51088883"><ele>1338.3</ele><time>2015-11-24T09:21:56.0000000+00:00</time></trkpt><trkpt lat="30.54952718" lon="35.51086972"><ele>1337.8</ele><time>2015-11-24T09:22:02.0000000+00:00</time></trkpt><trkpt lat="30.54941352" lon="35.51083988"><ele>1336.4</ele><time>2015-11-24T09:22:08.0000000+00:00</time></trkpt><trkpt lat="30.54937539" lon="35.51083015"><ele>1341.2</ele><time>2015-11-24T09:22:10.0000000+00:00</time></trkpt><trkpt lat="30.54904648" lon="35.51073569"><ele>1337.8</ele><time>2015-11-24T09:22:20.0000000+00:00</time></trkpt><trkpt lat="30.5489925" lon="35.51071675"><ele>1337.8</ele><time>2015-11-24T09:22:21.0000000+00:00</time></trkpt><trkpt lat="30.54861364" lon="35.51063226"><ele>1334.5</ele><time>2015-11-24T09:22:27.0000000+00:00</time></trkpt><trkpt lat="30.54854256" lon="35.51061507"><ele>1334.0</ele><time>2015-11-24T09:22:28.0000000+00:00</time></trkpt><trkpt lat="30.54832203" lon="35.51054735"><ele>1331.1</ele><time>2015-11-24T09:22:31.0000000+00:00</time></trkpt><trkpt lat="30.54772088" lon="35.51023504"><ele>1328.2</ele><time>2015-11-24T09:22:40.0000000+00:00</time></trkpt><trkpt lat="30.54748124" lon="35.50999959"><ele>1325.3</ele><time>2015-11-24T09:22:44.0000000+00:00</time></trkpt><trkpt lat="30.54736566" lon="35.50984511"><ele>1323.4</ele><time>2015-11-24T09:22:46.0000000+00:00</time></trkpt><trkpt lat="30.54708889" lon="35.50956734"><ele>1322.4</ele><time>2015-11-24T09:22:50.0000000+00:00</time></trkpt><trkpt lat="30.54691672" lon="35.50937296"><ele>1324.4</ele><time>2015-11-24T09:22:54.0000000+00:00</time></trkpt><trkpt lat="30.54675655" lon="35.50927221"><ele>1324.8</ele><time>2015-11-24T09:22:58.0000000+00:00</time></trkpt><trkpt lat="30.54633628" lon="35.50888924"><ele>1324.8</ele><time>2015-11-24T09:23:14.0000000+00:00</time></trkpt><trkpt lat="30.5462201" lon="35.50871406"><ele>1327.7</ele><time>2015-11-24T09:23:23.0000000+00:00</time></trkpt><trkpt lat="30.54594761" lon="35.5086035"><ele>1329.2</ele><time>2015-11-24T09:23:35.0000000+00:00</time></trkpt><trkpt lat="30.54590628" lon="35.50859797"><ele>1328.7</ele><time>2015-11-24T09:23:36.0000000+00:00</time></trkpt><trkpt lat="30.54559029" lon="35.50858422"><ele>1326.3</ele><time>2015-11-24T09:23:42.0000000+00:00</time></trkpt><trkpt lat="30.54541041" lon="35.50843067"><ele>1326.3</ele><time>2015-11-24T09:23:47.0000000+00:00</time></trkpt><trkpt lat="30.54516692" lon="35.50816865"><ele>1328.7</ele><time>2015-11-24T09:23:55.0000000+00:00</time></trkpt><trkpt lat="30.5449888" lon="35.50797821"><ele>1329.6</ele><time>2015-11-24T09:24:00.0000000+00:00</time></trkpt><trkpt lat="30.54478747" lon="35.50780001"><ele>1328.7</ele><time>2015-11-24T09:24:05.0000000+00:00</time></trkpt><trkpt lat="30.54471698" lon="35.50771611"><ele>1333.0</ele><time>2015-11-24T09:24:11.0000000+00:00</time></trkpt><trkpt lat="30.54471136" lon="35.50770613"><ele>1329.2</ele><time>2015-11-24T09:24:16.0000000+00:00</time></trkpt><trkpt lat="30.54471111" lon="35.50770597"><ele>1326.3</ele><time>2015-11-24T09:24:18.0000000+00:00</time></trkpt><trkpt lat="30.54462654" lon="35.50767596"><ele>1325.3</ele><time>2015-11-24T09:24:23.0000000+00:00</time></trkpt><trkpt lat="30.54452939" lon="35.50759155"><ele>1323.9</ele><time>2015-11-24T09:24:27.0000000+00:00</time></trkpt><trkpt lat="30.54432864" lon="35.50745401"><ele>1321.0</ele><time>2015-11-24T09:24:33.0000000+00:00</time></trkpt><trkpt lat="30.54414583" lon="35.50739282"><ele>1318.1</ele><time>2015-11-24T09:24:42.0000000+00:00</time></trkpt><trkpt lat="30.54407761" lon="35.50738703"><ele>1317.6</ele><time>2015-11-24T09:24:46.0000000+00:00</time></trkpt><trkpt lat="30.54384694" lon="35.50741721"><ele>1318.1</ele><time>2015-11-24T09:24:59.0000000+00:00</time></trkpt><trkpt lat="30.54382766" lon="35.50741939"><ele>1317.6</ele><time>2015-11-24T09:25:00.0000000+00:00</time></trkpt><trkpt lat="30.54348693" lon="35.50746063"><ele>1317.6</ele><time>2015-11-24T09:25:12.0000000+00:00</time></trkpt><trkpt lat="30.54330412" lon="35.50747764"><ele>1314.3</ele><time>2015-11-24T09:25:16.0000000+00:00</time></trkpt><trkpt lat="30.54325073" lon="35.50747957"><ele>1313.8</ele><time>2015-11-24T09:25:17.0000000+00:00</time></trkpt><trkpt lat="30.54293029" lon="35.50751042"><ele>1312.3</ele><time>2015-11-24T09:25:23.0000000+00:00</time></trkpt><trkpt lat="30.54254196" lon="35.50747655"><ele>1309.9</ele><time>2015-11-24T09:25:31.0000000+00:00</time></trkpt><trkpt lat="30.54222814" lon="35.50717841"><ele>1310.9</ele><time>2015-11-24T09:25:45.0000000+00:00</time></trkpt><trkpt lat="30.54211314" lon="35.50715025"><ele>1311.9</ele><time>2015-11-24T09:25:57.0000000+00:00</time></trkpt><trkpt lat="30.54210735" lon="35.50714723"><ele>1310.4</ele><time>2015-11-24T09:26:25.0000000+00:00</time></trkpt><trkpt lat="30.54210761" lon="35.50713549"><ele>1310.4</ele><time>2015-11-24T09:26:59.0000000+00:00</time></trkpt><trkpt lat="30.54211993" lon="35.5071505"><ele>1310.9</ele><time>2015-11-24T09:27:32.0000000+00:00</time></trkpt><trkpt lat="30.54185003" lon="35.50734177"><ele>1310.9</ele><time>2015-11-24T09:27:46.0000000+00:00</time></trkpt><trkpt lat="30.54152565" lon="35.50758527"><ele>1308.0</ele><time>2015-11-24T09:27:53.0000000+00:00</time></trkpt><trkpt lat="30.54124787" lon="35.50768459"><ele>1306.1</ele><time>2015-11-24T09:27:57.0000000+00:00</time></trkpt><trkpt lat="30.54117076" lon="35.50769725"><ele>1306.1</ele><time>2015-11-24T09:27:58.0000000+00:00</time></trkpt><trkpt lat="30.54035537" lon="35.50788333"><ele>1307.1</ele><time>2015-11-24T09:28:12.0000000+00:00</time></trkpt><trkpt lat="30.54030281" lon="35.50789833"><ele>1307.1</ele><time>2015-11-24T09:28:13.0000000+00:00</time></trkpt><trkpt lat="30.53968901" lon="35.50784955"><ele>1306.6</ele><time>2015-11-24T09:28:25.0000000+00:00</time></trkpt><trkpt lat="30.53944216" lon="35.50773664"><ele>1307.5</ele><time>2015-11-24T09:28:31.0000000+00:00</time></trkpt><trkpt lat="30.53909607" lon="35.50755844"><ele>1309.5</ele><time>2015-11-24T09:28:43.0000000+00:00</time></trkpt><trkpt lat="30.53888099" lon="35.50738435"><ele>1310.9</ele><time>2015-11-24T09:28:54.0000000+00:00</time></trkpt><trkpt lat="30.53861009" lon="35.50724873"><ele>1312.8</ele><time>2015-11-24T09:29:08.0000000+00:00</time></trkpt><trkpt lat="30.53840809" lon="35.50722434"><ele>1313.8</ele><time>2015-11-24T09:29:21.0000000+00:00</time></trkpt><trkpt lat="30.53823366" lon="35.50723641"><ele>1316.2</ele><time>2015-11-24T09:29:34.0000000+00:00</time></trkpt><trkpt lat="30.53820776" lon="35.5072422"><ele>1316.7</ele><time>2015-11-24T09:29:37.0000000+00:00</time></trkpt><trkpt lat="30.53802026" lon="35.50727069"><ele>1319.1</ele><time>2015-11-24T09:29:53.0000000+00:00</time></trkpt><trkpt lat="30.53772773" lon="35.50733381"><ele>1319.6</ele><time>2015-11-24T09:30:09.0000000+00:00</time></trkpt><trkpt lat="30.53763947" lon="35.50737069"><ele>1319.6</ele><time>2015-11-24T09:30:12.0000000+00:00</time></trkpt><trkpt lat="30.53749991" lon="35.50731981"><ele>1318.6</ele><time>2015-11-24T09:30:16.0000000+00:00</time></trkpt><trkpt lat="30.53725021" lon="35.50718587"><ele>1317.1</ele><time>2015-11-24T09:30:26.0000000+00:00</time></trkpt><trkpt lat="30.5372394" lon="35.5071681"><ele>1317.1</ele><time>2015-11-24T09:30:49.0000000+00:00</time></trkpt><trkpt lat="30.53707855" lon="35.50717556"><ele>1315.7</ele><time>2015-11-24T09:30:59.0000000+00:00</time></trkpt><trkpt lat="30.53680915" lon="35.50724194"><ele>1313.8</ele><time>2015-11-24T09:31:04.0000000+00:00</time></trkpt><trkpt lat="30.53644404" lon="35.5071997"><ele>1316.2</ele><time>2015-11-24T09:31:11.0000000+00:00</time></trkpt><trkpt lat="30.536064" lon="35.50719869"><ele>1316.7</ele><time>2015-11-24T09:31:23.0000000+00:00</time></trkpt><trkpt lat="30.53591045" lon="35.50724111"><ele>1315.2</ele><time>2015-11-24T09:31:27.0000000+00:00</time></trkpt><trkpt lat="30.53562647" lon="35.50736072"><ele>1312.3</ele><time>2015-11-24T09:31:34.0000000+00:00</time></trkpt><trkpt lat="30.53557919" lon="35.50739081"><ele>1311.9</ele><time>2015-11-24T09:31:35.0000000+00:00</time></trkpt><trkpt lat="30.53541684" lon="35.50742718"><ele>1309.9</ele><time>2015-11-24T09:31:38.0000000+00:00</time></trkpt><trkpt lat="30.53524031" lon="35.50734999"><ele>1311.4</ele><time>2015-11-24T09:31:42.0000000+00:00</time></trkpt><trkpt lat="30.53490705" lon="35.50740799"><ele>1310.4</ele><time>2015-11-24T09:31:55.0000000+00:00</time></trkpt><trkpt lat="30.53469909" lon="35.50747773"><ele>1310.4</ele><time>2015-11-24T09:32:00.0000000+00:00</time></trkpt><trkpt lat="30.53452509" lon="35.50751871"><ele>1309.5</ele><time>2015-11-24T09:32:04.0000000+00:00</time></trkpt><trkpt lat="30.53415167" lon="35.50746557"><ele>1309.5</ele><time>2015-11-24T09:32:14.0000000+00:00</time></trkpt><trkpt lat="30.53390357" lon="35.50742584"><ele>1309.5</ele><time>2015-11-24T09:32:20.0000000+00:00</time></trkpt><trkpt lat="30.53349495" lon="35.50718143"><ele>1308.5</ele><time>2015-11-24T09:32:31.0000000+00:00</time></trkpt><trkpt lat="30.53346444" lon="35.50716508"><ele>1308.0</ele><time>2015-11-24T09:32:32.0000000+00:00</time></trkpt><trkpt lat="30.53320963" lon="35.50706752"><ele>1306.1</ele><time>2015-11-24T09:32:37.0000000+00:00</time></trkpt><trkpt lat="30.53309035" lon="35.50702217"><ele>1305.1</ele><time>2015-11-24T09:32:39.0000000+00:00</time></trkpt><trkpt lat="30.53290118" lon="35.5069676"><ele>1307.1</ele><time>2015-11-24T09:32:43.0000000+00:00</time></trkpt><trkpt lat="30.53253547" lon="35.50650685"><ele>1305.1</ele><time>2015-11-24T09:32:55.0000000+00:00</time></trkpt><trkpt lat="30.53250454" lon="35.50644575"><ele>1304.7</ele><time>2015-11-24T09:32:56.0000000+00:00</time></trkpt><trkpt lat="30.53193281" lon="35.50574225"><ele>1301.3</ele><time>2015-11-24T09:33:08.0000000+00:00</time></trkpt><trkpt lat="30.5318013" lon="35.50553732"><ele>1298.9</ele><time>2015-11-24T09:33:13.0000000+00:00</time></trkpt><trkpt lat="30.53180524" lon="35.50554494"><ele>1300.3</ele><time>2015-11-24T09:33:16.0000000+00:00</time></trkpt><trkpt lat="30.53177834" lon="35.50551561"><ele>1301.3</ele><time>2015-11-24T09:33:28.0000000+00:00</time></trkpt><trkpt lat="30.53168069" lon="35.50538988"><ele>1298.4</ele><time>2015-11-24T09:33:33.0000000+00:00</time></trkpt><trkpt lat="30.53138883" lon="35.50515393"><ele>1300.8</ele><time>2015-11-24T09:33:47.0000000+00:00</time></trkpt><trkpt lat="30.53118238" lon="35.50506885"><ele>1299.4</ele><time>2015-11-24T09:33:54.0000000+00:00</time></trkpt><trkpt lat="30.53108037" lon="35.5049992"><ele>1301.3</ele><time>2015-11-24T09:33:59.0000000+00:00</time></trkpt><trkpt lat="30.53105892" lon="35.50498948"><ele>1299.8</ele><time>2015-11-24T09:34:01.0000000+00:00</time></trkpt><trkpt lat="30.5309663" lon="35.50496693"><ele>1300.3</ele><time>2015-11-24T09:34:06.0000000+00:00</time></trkpt><trkpt lat="30.53084317" lon="35.50491555"><ele>1299.8</ele><time>2015-11-24T09:34:11.0000000+00:00</time></trkpt><trkpt lat="30.53078935" lon="35.50489862"><ele>1297.9</ele><time>2015-11-24T09:34:13.0000000+00:00</time></trkpt><trkpt lat="30.53071031" lon="35.50487045"><ele>1296.5</ele><time>2015-11-24T09:34:17.0000000+00:00</time></trkpt><trkpt lat="30.53071006" lon="35.50487012"><ele>1293.1</ele><time>2015-11-24T09:34:19.0000000+00:00</time></trkpt><trkpt lat="30.53070839" lon="35.5048728"><ele>1293.6</ele><time>2015-11-24T09:34:20.0000000+00:00</time></trkpt><trkpt lat="30.5307083" lon="35.50487791"><ele>1295.0</ele><time>2015-11-24T09:34:23.0000000+00:00</time></trkpt><trkpt lat="30.53070604" lon="35.50487858"><ele>1297.0</ele><time>2015-11-24T09:34:27.0000000+00:00</time></trkpt><trkpt lat="30.53069447" lon="35.50487741"><ele>1296.0</ele><time>2015-11-24T09:34:39.0000000+00:00</time></trkpt><trkpt lat="30.53059129" lon="35.50484371"><ele>1293.6</ele><time>2015-11-24T09:34:44.0000000+00:00</time></trkpt><trkpt lat="30.53041837" lon="35.50480382"><ele>1291.7</ele><time>2015-11-24T09:34:50.0000000+00:00</time></trkpt><trkpt lat="30.53023037" lon="35.50481203"><ele>1288.3</ele><time>2015-11-24T09:34:55.0000000+00:00</time></trkpt><trkpt lat="30.53015107" lon="35.50480843"><ele>1284.9</ele><time>2015-11-24T09:34:57.0000000+00:00</time></trkpt><trkpt lat="30.53010799" lon="35.50480583"><ele>1284.9</ele><time>2015-11-24T09:34:58.0000000+00:00</time></trkpt><trkpt lat="30.53006222" lon="35.50480315"><ele>1284.5</ele><time>2015-11-24T09:34:59.0000000+00:00</time></trkpt><trkpt lat="30.52992661" lon="35.50482091"><ele>1282.1</ele><time>2015-11-24T09:35:02.0000000+00:00</time></trkpt><trkpt lat="30.52984203" lon="35.50483751"><ele>1280.6</ele><time>2015-11-24T09:35:04.0000000+00:00</time></trkpt><trkpt lat="30.52971186" lon="35.50487179"><ele>1278.7</ele><time>2015-11-24T09:35:07.0000000+00:00</time></trkpt><trkpt lat="30.52953081" lon="35.5049567"><ele>1274.4</ele><time>2015-11-24T09:35:11.0000000+00:00</time></trkpt><trkpt lat="30.5292843" lon="35.50495863"><ele>1273.4</ele><time>2015-11-24T09:35:17.0000000+00:00</time></trkpt><trkpt lat="30.52916762" lon="35.50495528"><ele>1272.0</ele><time>2015-11-24T09:35:20.0000000+00:00</time></trkpt><trkpt lat="30.52908146" lon="35.50497481"><ele>1270.5</ele><time>2015-11-24T09:35:22.0000000+00:00</time></trkpt><trkpt lat="30.52888901" lon="35.50505946"><ele>1268.6</ele><time>2015-11-24T09:35:26.0000000+00:00</time></trkpt><trkpt lat="30.52864091" lon="35.50506684"><ele>1268.1</ele><time>2015-11-24T09:35:31.0000000+00:00</time></trkpt><trkpt lat="30.52815191" lon="35.50510146"><ele>1267.2</ele><time>2015-11-24T09:35:45.0000000+00:00</time></trkpt><trkpt lat="30.5278691" lon="35.50521688"><ele>1263.8</ele><time>2015-11-24T09:35:52.0000000+00:00</time></trkpt><trkpt lat="30.52773071" lon="35.50516843"><ele>1263.3</ele><time>2015-11-24T09:35:56.0000000+00:00</time></trkpt><trkpt lat="30.5274314" lon="35.50488311"><ele>1264.3</ele><time>2015-11-24T09:36:09.0000000+00:00</time></trkpt><trkpt lat="30.52705178" lon="35.50490675"><ele>1264.3</ele><time>2015-11-24T09:36:21.0000000+00:00</time></trkpt><trkpt lat="30.52695874" lon="35.5049189"><ele>1264.3</ele><time>2015-11-24T09:36:24.0000000+00:00</time></trkpt><trkpt lat="30.52683393" lon="35.50489434"><ele>1263.3</ele><time>2015-11-24T09:36:27.0000000+00:00</time></trkpt><trkpt lat="30.52679001" lon="35.50487582"><ele>1262.8</ele><time>2015-11-24T09:36:28.0000000+00:00</time></trkpt><trkpt lat="30.52628584" lon="35.50470524"><ele>1265.2</ele><time>2015-11-24T09:36:43.0000000+00:00</time></trkpt><trkpt lat="30.52601762" lon="35.50457918"><ele>1267.6</ele><time>2015-11-24T09:36:57.0000000+00:00</time></trkpt><trkpt lat="30.5257028" lon="35.50449939"><ele>1268.6</ele><time>2015-11-24T09:37:12.0000000+00:00</time></trkpt><trkpt lat="30.5253526" lon="35.50444163"><ele>1269.6</ele><time>2015-11-24T09:37:27.0000000+00:00</time></trkpt><trkpt lat="30.52532863" lon="35.50442973"><ele>1270.0</ele><time>2015-11-24T09:37:28.0000000+00:00</time></trkpt><trkpt lat="30.5248771" lon="35.5042082"><ele>1270.0</ele><time>2015-11-24T09:37:45.0000000+00:00</time></trkpt><trkpt lat="30.52464332" lon="35.50408507"><ele>1272.0</ele><time>2015-11-24T09:37:54.0000000+00:00</time></trkpt><trkpt lat="30.52440402" lon="35.50395766"><ele>1272.0</ele><time>2015-11-24T09:38:05.0000000+00:00</time></trkpt><trkpt lat="30.52429154" lon="35.50391525"><ele>1275.3</ele><time>2015-11-24T09:38:10.0000000+00:00</time></trkpt><trkpt lat="30.52426522" lon="35.50390846"><ele>1275.3</ele><time>2015-11-24T09:38:11.0000000+00:00</time></trkpt><trkpt lat="30.52421208" lon="35.50389078"><ele>1272.9</ele><time>2015-11-24T09:38:13.0000000+00:00</time></trkpt><trkpt lat="30.52410328" lon="35.50385314"><ele>1276.8</ele><time>2015-11-24T09:38:17.0000000+00:00</time></trkpt><trkpt lat="30.52387579" lon="35.50376387"><ele>1274.4</ele><time>2015-11-24T09:38:28.0000000+00:00</time></trkpt><trkpt lat="30.52375317" lon="35.50371341"><ele>1275.3</ele><time>2015-11-24T09:38:38.0000000+00:00</time></trkpt><trkpt lat="30.52376406" lon="35.50373864"><ele>1272.9</ele><time>2015-11-24T09:38:59.0000000+00:00</time></trkpt><trkpt lat="30.52376624" lon="35.50375021"><ele>1273.4</ele><time>2015-11-24T09:39:20.0000000+00:00</time></trkpt><trkpt lat="30.5237644" lon="35.50375683"><ele>1272.0</ele><time>2015-11-24T09:39:42.0000000+00:00</time></trkpt><trkpt lat="30.52376901" lon="35.50375273"><ele>1271.5</ele><time>2015-11-24T09:39:44.0000000+00:00</time></trkpt><trkpt lat="30.52377873" lon="35.5037404"><ele>1271.5</ele><time>2015-11-24T09:40:12.0000000+00:00</time></trkpt><trkpt lat="30.52377848" lon="35.50372674"><ele>1270.5</ele><time>2015-11-24T09:40:26.0000000+00:00</time></trkpt><trkpt lat="30.52347036" lon="35.50372339"><ele>1270.5</ele><time>2015-11-24T09:40:38.0000000+00:00</time></trkpt><trkpt lat="30.52323684" lon="35.50370679"><ele>1272.0</ele><time>2015-11-24T09:40:45.0000000+00:00</time></trkpt><trkpt lat="30.52292076" lon="35.50364611"><ele>1272.0</ele><time>2015-11-24T09:40:56.0000000+00:00</time></trkpt><trkpt lat="30.52260241" lon="35.50367444"><ele>1268.6</ele><time>2015-11-24T09:41:07.0000000+00:00</time></trkpt><trkpt lat="30.52257366" lon="35.50368751"><ele>1268.6</ele><time>2015-11-24T09:41:08.0000000+00:00</time></trkpt><trkpt lat="30.52252304" lon="35.50370956"><ele>1267.2</ele><time>2015-11-24T09:41:10.0000000+00:00</time></trkpt><trkpt lat="30.52247208" lon="35.50374434"><ele>1265.2</ele><time>2015-11-24T09:41:13.0000000+00:00</time></trkpt><trkpt lat="30.52223654" lon="35.50403218"><ele>1265.7</ele><time>2015-11-24T09:41:23.0000000+00:00</time></trkpt><trkpt lat="30.52208659" lon="35.50427458"><ele>1262.8</ele><time>2015-11-24T09:41:31.0000000+00:00</time></trkpt><trkpt lat="30.52204845" lon="35.50432923"><ele>1261.4</ele><time>2015-11-24T09:41:33.0000000+00:00</time></trkpt><trkpt lat="30.52196514" lon="35.50442797"><ele>1261.9</ele><time>2015-11-24T09:41:39.0000000+00:00</time></trkpt><trkpt lat="30.52190697" lon="35.50442646"><ele>1261.9</ele><time>2015-11-24T09:41:43.0000000+00:00</time></trkpt><trkpt lat="30.52181309" lon="35.50433795"><ele>1261.9</ele><time>2015-11-24T09:41:51.0000000+00:00</time></trkpt><trkpt lat="30.52176154" lon="35.50430526"><ele>1263.3</ele><time>2015-11-24T09:41:55.0000000+00:00</time></trkpt><trkpt lat="30.52167722" lon="35.5042636"><ele>1266.2</ele><time>2015-11-24T09:42:01.0000000+00:00</time></trkpt><trkpt lat="30.52156281" lon="35.50423904"><ele>1262.8</ele><time>2015-11-24T09:42:10.0000000+00:00</time></trkpt><trkpt lat="30.52142987" lon="35.50425002"><ele>1266.7</ele><time>2015-11-24T09:42:20.0000000+00:00</time></trkpt><trkpt lat="30.52126491" lon="35.50425262"><ele>1270.0</ele><time>2015-11-24T09:42:32.0000000+00:00</time></trkpt><trkpt lat="30.521035" lon="35.50425807"><ele>1272.4</ele><time>2015-11-24T09:42:47.0000000+00:00</time></trkpt><trkpt lat="30.52066125" lon="35.50414776"><ele>1274.9</ele><time>2015-11-24T09:43:03.0000000+00:00</time></trkpt><trkpt lat="30.5205548" lon="35.50412589"><ele>1278.2</ele><time>2015-11-24T09:43:07.0000000+00:00</time></trkpt><trkpt lat="30.52008013" lon="35.50409261"><ele>1277.3</ele><time>2015-11-24T09:43:24.0000000+00:00</time></trkpt><trkpt lat="30.52002699" lon="35.504102"><ele>1276.3</ele><time>2015-11-24T09:43:26.0000000+00:00</time></trkpt><trkpt lat="30.51965944" lon="35.5040274"><ele>1279.2</ele><time>2015-11-24T09:43:39.0000000+00:00</time></trkpt><trkpt lat="30.51943917" lon="35.50392891"><ele>1277.7</ele><time>2015-11-24T09:43:50.0000000+00:00</time></trkpt><trkpt lat="30.51928394" lon="35.5039207"><ele>1276.3</ele><time>2015-11-24T09:43:55.0000000+00:00</time></trkpt><trkpt lat="30.51913013" lon="35.50395163"><ele>1274.9</ele><time>2015-11-24T09:43:58.0000000+00:00</time></trkpt><trkpt lat="30.5187604" lon="35.5038026"><ele>1275.3</ele><time>2015-11-24T09:44:06.0000000+00:00</time></trkpt><trkpt lat="30.51843183" lon="35.50372565"><ele>1275.8</ele><time>2015-11-24T09:44:16.0000000+00:00</time></trkpt><trkpt lat="30.51833703" lon="35.50372557"><ele>1274.4</ele><time>2015-11-24T09:44:18.0000000+00:00</time></trkpt><trkpt lat="30.51823729" lon="35.50369355"><ele>1273.9</ele><time>2015-11-24T09:44:20.0000000+00:00</time></trkpt><trkpt lat="30.51787804" lon="35.50334972"><ele>1273.9</ele><time>2015-11-24T09:44:31.0000000+00:00</time></trkpt><trkpt lat="30.51774678" lon="35.50313892"><ele>1274.4</ele><time>2015-11-24T09:44:40.0000000+00:00</time></trkpt><trkpt lat="30.51770646" lon="35.50298302"><ele>1275.3</ele><time>2015-11-24T09:44:47.0000000+00:00</time></trkpt><trkpt lat="30.51752868" lon="35.50271513"><ele>1278.7</ele><time>2015-11-24T09:45:01.0000000+00:00</time></trkpt><trkpt lat="30.51726499" lon="35.50239804"><ele>1279.7</ele><time>2015-11-24T09:45:17.0000000+00:00</time></trkpt><trkpt lat="30.5169992" lon="35.50218975"><ele>1279.7</ele><time>2015-11-24T09:45:30.0000000+00:00</time></trkpt><trkpt lat="30.51675897" lon="35.50197928"><ele>1279.2</ele><time>2015-11-24T09:45:43.0000000+00:00</time></trkpt><trkpt lat="30.51634784" lon="35.5017606"><ele>1276.3</ele><time>2015-11-24T09:45:55.0000000+00:00</time></trkpt><trkpt lat="30.51617676" lon="35.50167485"><ele>1274.4</ele><time>2015-11-24T09:45:59.0000000+00:00</time></trkpt><trkpt lat="30.51607434" lon="35.50163378"><ele>1273.4</ele><time>2015-11-24T09:46:01.0000000+00:00</time></trkpt><trkpt lat="30.51585775" lon="35.50155348"><ele>1271.5</ele><time>2015-11-24T09:46:05.0000000+00:00</time></trkpt><trkpt lat="30.5157508" lon="35.50150629"><ele>1271.0</ele><time>2015-11-24T09:46:07.0000000+00:00</time></trkpt><trkpt lat="30.51541854" lon="35.50132885"><ele>1272.4</ele><time>2015-11-24T09:46:18.0000000+00:00</time></trkpt><trkpt lat="30.51525668" lon="35.50130513"><ele>1275.3</ele><time>2015-11-24T09:46:26.0000000+00:00</time></trkpt><trkpt lat="30.51510606" lon="35.50126682"><ele>1277.3</ele><time>2015-11-24T09:46:36.0000000+00:00</time></trkpt><trkpt lat="30.51501621" lon="35.50127386"><ele>1276.3</ele><time>2015-11-24T09:46:43.0000000+00:00</time></trkpt><trkpt lat="30.51490489" lon="35.50125458"><ele>1272.9</ele><time>2015-11-24T09:46:50.0000000+00:00</time></trkpt><trkpt lat="30.51472192" lon="35.50124478"><ele>1272.9</ele><time>2015-11-24T09:47:00.0000000+00:00</time></trkpt><trkpt lat="30.51458093" lon="35.50124167"><ele>1275.3</ele><time>2015-11-24T09:47:07.0000000+00:00</time></trkpt><trkpt lat="30.51452293" lon="35.50124075"><ele>1275.8</ele><time>2015-11-24T09:47:09.0000000+00:00</time></trkpt><trkpt lat="30.51436334" lon="35.50123329"><ele>1272.0</ele><time>2015-11-24T09:47:14.0000000+00:00</time></trkpt><trkpt lat="30.51432587" lon="35.50123086"><ele>1272.0</ele><time>2015-11-24T09:47:15.0000000+00:00</time></trkpt><trkpt lat="30.51417818" lon="35.50121544"><ele>1270.5</ele><time>2015-11-24T09:47:18.0000000+00:00</time></trkpt><trkpt lat="30.51401122" lon="35.50120312"><ele>1271.5</ele><time>2015-11-24T09:47:21.0000000+00:00</time></trkpt><trkpt lat="30.51367049" lon="35.50126011"><ele>1271.0</ele><time>2015-11-24T09:47:32.0000000+00:00</time></trkpt><trkpt lat="30.51326548" lon="35.50144033"><ele>1269.6</ele><time>2015-11-24T09:47:46.0000000+00:00</time></trkpt><trkpt lat="30.51292341" lon="35.5014679"><ele>1269.1</ele><time>2015-11-24T09:47:58.0000000+00:00</time></trkpt><trkpt lat="30.51263239" lon="35.50139523"><ele>1265.7</ele><time>2015-11-24T09:48:06.0000000+00:00</time></trkpt><trkpt lat="30.51241522" lon="35.50135693"><ele>1262.8</ele><time>2015-11-24T09:48:11.0000000+00:00</time></trkpt><trkpt lat="30.51218329" lon="35.50132683"><ele>1259.5</ele><time>2015-11-24T09:48:17.0000000+00:00</time></trkpt><trkpt lat="30.51215161" lon="35.50131376"><ele>1259.5</ele><time>2015-11-24T09:48:18.0000000+00:00</time></trkpt><trkpt lat="30.51175615" lon="35.50106842"><ele>1260.4</ele><time>2015-11-24T09:48:29.0000000+00:00</time></trkpt><trkpt lat="30.51155113" lon="35.50100572"><ele>1263.3</ele><time>2015-11-24T09:48:37.0000000+00:00</time></trkpt><trkpt lat="30.51119682" lon="35.50096323"><ele>1261.4</ele><time>2015-11-24T09:48:52.0000000+00:00</time></trkpt><trkpt lat="30.51117545" lon="35.50096365"><ele>1261.4</ele><time>2015-11-24T09:48:53.0000000+00:00</time></trkpt><trkpt lat="30.51086783" lon="35.50090053"><ele>1263.8</ele><time>2015-11-24T09:49:07.0000000+00:00</time></trkpt><trkpt lat="30.51063113" lon="35.50087497"><ele>1263.8</ele><time>2015-11-24T09:49:21.0000000+00:00</time></trkpt><trkpt lat="30.51043424" lon="35.50087195"><ele>1267.2</ele><time>2015-11-24T09:49:31.0000000+00:00</time></trkpt><trkpt lat="30.51041395" lon="35.50087262"><ele>1266.7</ele><time>2015-11-24T09:49:32.0000000+00:00</time></trkpt><trkpt lat="30.51036593" lon="35.50086985"><ele>1262.4</ele><time>2015-11-24T09:49:34.0000000+00:00</time></trkpt><trkpt lat="30.510177" lon="35.50087329"><ele>1259.0</ele><time>2015-11-24T09:49:40.0000000+00:00</time></trkpt><trkpt lat="30.5100558" lon="35.50089584"><ele>1258.0</ele><time>2015-11-24T09:49:44.0000000+00:00</time></trkpt><trkpt lat="30.5098496" lon="35.50095141"><ele>1257.1</ele><time>2015-11-24T09:49:56.0000000+00:00</time></trkpt><trkpt lat="30.5096854" lon="35.50109457"><ele>1254.2</ele><time>2015-11-24T09:50:08.0000000+00:00</time></trkpt><trkpt lat="30.50959211" lon="35.50116003"><ele>1253.2</ele><time>2015-11-24T09:50:14.0000000+00:00</time></trkpt><trkpt lat="30.50936362" lon="35.50132952"><ele>1249.9</ele><time>2015-11-24T09:50:24.0000000+00:00</time></trkpt><trkpt lat="30.50915675" lon="35.50164518"><ele>1251.3</ele><time>2015-11-24T09:50:36.0000000+00:00</time></trkpt><trkpt lat="30.50897084" lon="35.50190309"><ele>1250.8</ele><time>2015-11-24T09:50:48.0000000+00:00</time></trkpt><trkpt lat="30.50886305" lon="35.50202421"><ele>1251.8</ele><time>2015-11-24T09:50:54.0000000+00:00</time></trkpt><trkpt lat="30.50876339" lon="35.50211658"><ele>1248.4</ele><time>2015-11-24T09:51:03.0000000+00:00</time></trkpt><trkpt lat="30.50868996" lon="35.50216729"><ele>1245.0</ele><time>2015-11-24T09:51:11.0000000+00:00</time></trkpt><trkpt lat="30.5086898" lon="35.50217433"><ele>1244.6</ele><time>2015-11-24T09:51:13.0000000+00:00</time></trkpt><trkpt lat="30.50848553" lon="35.50237868"><ele>1245.0</ele><time>2015-11-24T09:51:28.0000000+00:00</time></trkpt><trkpt lat="30.50835863" lon="35.50246367"><ele>1242.2</ele><time>2015-11-24T09:51:34.0000000+00:00</time></trkpt><trkpt lat="30.50823432" lon="35.50261438"><ele>1239.3</ele><time>2015-11-24T09:51:41.0000000+00:00</time></trkpt><trkpt lat="30.50819443" lon="35.5026816"><ele>1237.8</ele><time>2015-11-24T09:51:44.0000000+00:00</time></trkpt><trkpt lat="30.50813332" lon="35.50277028"><ele>1237.4</ele><time>2015-11-24T09:51:47.0000000+00:00</time></trkpt><trkpt lat="30.50788279" lon="35.50283826"><ele>1236.9</ele><time>2015-11-24T09:51:57.0000000+00:00</time></trkpt><trkpt lat="30.50786183" lon="35.50283424"><ele>1237.4</ele><time>2015-11-24T09:51:58.0000000+00:00</time></trkpt><trkpt lat="30.50763418" lon="35.50283449"><ele>1240.7</ele><time>2015-11-24T09:52:12.0000000+00:00</time></trkpt><trkpt lat="30.50760258" lon="35.50283105"><ele>1241.7</ele><time>2015-11-24T09:52:14.0000000+00:00</time></trkpt><trkpt lat="30.50738641" lon="35.50288143"><ele>1242.2</ele><time>2015-11-24T09:52:28.0000000+00:00</time></trkpt><trkpt lat="30.50717108" lon="35.50299861"><ele>1243.6</ele><time>2015-11-24T09:52:42.0000000+00:00</time></trkpt><trkpt lat="30.50694074" lon="35.50326138"><ele>1241.2</ele><time>2015-11-24T09:52:55.0000000+00:00</time></trkpt><trkpt lat="30.50678786" lon="35.50321863"><ele>1242.2</ele><time>2015-11-24T09:53:04.0000000+00:00</time></trkpt><trkpt lat="30.50656088" lon="35.50303255"><ele>1242.6</ele><time>2015-11-24T09:53:17.0000000+00:00</time></trkpt><trkpt lat="30.50630783" lon="35.50295418"><ele>1241.2</ele><time>2015-11-24T09:53:28.0000000+00:00</time></trkpt><trkpt lat="30.50592117" lon="35.502923"><ele>1241.2</ele><time>2015-11-24T09:53:40.0000000+00:00</time></trkpt><trkpt lat="30.50553024" lon="35.5029349"><ele>1240.2</ele><time>2015-11-24T09:53:52.0000000+00:00</time></trkpt><trkpt lat="30.50534634" lon="35.50284647"><ele>1242.6</ele><time>2015-11-24T09:54:03.0000000+00:00</time></trkpt><trkpt lat="30.50522028" lon="35.50283323"><ele>1241.7</ele><time>2015-11-24T09:54:10.0000000+00:00</time></trkpt><trkpt lat="30.50485608" lon="35.50271479"><ele>1239.8</ele><time>2015-11-24T09:54:26.0000000+00:00</time></trkpt><trkpt lat="30.50455249" lon="35.50250818"><ele>1242.6</ele><time>2015-11-24T09:54:42.0000000+00:00</time></trkpt><trkpt lat="30.50451142" lon="35.50249091"><ele>1244.1</ele><time>2015-11-24T09:54:44.0000000+00:00</time></trkpt><trkpt lat="30.50430682" lon="35.50243484"><ele>1243.6</ele><time>2015-11-24T09:54:56.0000000+00:00</time></trkpt><trkpt lat="30.50417044" lon="35.50243073"><ele>1247.0</ele><time>2015-11-24T09:55:03.0000000+00:00</time></trkpt><trkpt lat="30.50414857" lon="35.50243375"><ele>1247.0</ele><time>2015-11-24T09:55:04.0000000+00:00</time></trkpt><trkpt lat="30.50390725" lon="35.50248303"><ele>1247.5</ele><time>2015-11-24T09:55:15.0000000+00:00</time></trkpt><trkpt lat="30.50380684" lon="35.50251304"><ele>1248.4</ele><time>2015-11-24T09:55:19.0000000+00:00</time></trkpt><trkpt lat="30.50355454" lon="35.50258705"><ele>1247.0</ele><time>2015-11-24T09:55:27.0000000+00:00</time></trkpt><trkpt lat="30.50314701" lon="35.5026697"><ele>1246.0</ele><time>2015-11-24T09:55:40.0000000+00:00</time></trkpt><trkpt lat="30.50279162" lon="35.50264036"><ele>1248.4</ele><time>2015-11-24T09:55:54.0000000+00:00</time></trkpt><trkpt lat="30.50243857" lon="35.50268822"><ele>1250.3</ele><time>2015-11-24T09:56:09.0000000+00:00</time></trkpt><trkpt lat="30.50218485" lon="35.50282711"><ele>1246.5</ele><time>2015-11-24T09:56:19.0000000+00:00</time></trkpt><trkpt lat="30.50192401" lon="35.50289459"><ele>1244.6</ele><time>2015-11-24T09:56:29.0000000+00:00</time></trkpt><trkpt lat="30.50164657" lon="35.50275444"><ele>1245.0</ele><time>2015-11-24T09:56:42.0000000+00:00</time></trkpt><trkpt lat="30.50132931" lon="35.50272762"><ele>1245.5</ele><time>2015-11-24T09:56:54.0000000+00:00</time></trkpt><trkpt lat="30.50110409" lon="35.5028018"><ele>1249.4</ele><time>2015-11-24T09:57:04.0000000+00:00</time></trkpt><trkpt lat="30.50105564" lon="35.50278378"><ele>1250.8</ele><time>2015-11-24T09:57:07.0000000+00:00</time></trkpt><trkpt lat="30.50070561" lon="35.50259963"><ele>1252.3</ele><time>2015-11-24T09:57:25.0000000+00:00</time></trkpt><trkpt lat="30.50039205" lon="35.50254573"><ele>1252.7</ele><time>2015-11-24T09:57:38.0000000+00:00</time></trkpt><trkpt lat="30.50019952" lon="35.50253601"><ele>1249.4</ele><time>2015-11-24T09:57:45.0000000+00:00</time></trkpt><trkpt lat="30.50015911" lon="35.50253299"><ele>1249.4</ele><time>2015-11-24T09:57:46.0000000+00:00</time></trkpt><trkpt lat="30.49996893" lon="35.50250298"><ele>1247.5</ele><time>2015-11-24T09:57:50.0000000+00:00</time></trkpt><trkpt lat="30.49982753" lon="35.50236393"><ele>1246.5</ele><time>2015-11-24T09:57:54.0000000+00:00</time></trkpt><trkpt lat="30.49961044" lon="35.50206754"><ele>1248.9</ele><time>2015-11-24T09:58:04.0000000+00:00</time></trkpt><trkpt lat="30.49946677" lon="35.50195104"><ele>1252.3</ele><time>2015-11-24T09:58:12.0000000+00:00</time></trkpt><trkpt lat="30.4992672" lon="35.50182019"><ele>1250.8</ele><time>2015-11-24T09:58:24.0000000+00:00</time></trkpt><trkpt lat="30.49917349" lon="35.50174744"><ele>1251.8</ele><time>2015-11-24T09:58:30.0000000+00:00</time></trkpt><trkpt lat="30.49905857" lon="35.50167494"><ele>1252.7</ele><time>2015-11-24T09:58:36.0000000+00:00</time></trkpt><trkpt lat="30.49904097" lon="35.50165993"><ele>1252.3</ele><time>2015-11-24T09:58:37.0000000+00:00</time></trkpt><trkpt lat="30.49900476" lon="35.50164141"><ele>1250.8</ele><time>2015-11-24T09:58:39.0000000+00:00</time></trkpt><trkpt lat="30.49897173" lon="35.50162054"><ele>1247.9</ele><time>2015-11-24T09:58:41.0000000+00:00</time></trkpt><trkpt lat="30.49893544" lon="35.50160319"><ele>1244.6</ele><time>2015-11-24T09:58:43.0000000+00:00</time></trkpt><trkpt lat="30.49892069" lon="35.5015933"><ele>1244.6</ele><time>2015-11-24T09:58:44.0000000+00:00</time></trkpt><trkpt lat="30.49872916" lon="35.50151207"><ele>1246.5</ele><time>2015-11-24T09:58:53.0000000+00:00</time></trkpt><trkpt lat="30.49840554" lon="35.50139959"><ele>1248.4</ele><time>2015-11-24T09:59:06.0000000+00:00</time></trkpt><trkpt lat="30.49818233" lon="35.50132273"><ele>1247.5</ele><time>2015-11-24T09:59:13.0000000+00:00</time></trkpt><trkpt lat="30.4978732" lon="35.50122106"><ele>1250.3</ele><time>2015-11-24T09:59:26.0000000+00:00</time></trkpt><trkpt lat="30.49767321" lon="35.50113229"><ele>1251.3</ele><time>2015-11-24T09:59:35.0000000+00:00</time></trkpt><trkpt lat="30.49749057" lon="35.50105727"><ele>1254.7</ele><time>2015-11-24T09:59:44.0000000+00:00</time></trkpt><trkpt lat="30.49722562" lon="35.50096348"><ele>1252.7</ele><time>2015-11-24T09:59:58.0000000+00:00</time></trkpt><trkpt lat="30.49700308" lon="35.50085711"><ele>1256.6</ele><time>2015-11-24T10:00:11.0000000+00:00</time></trkpt><trkpt lat="30.49698749" lon="35.50085234"><ele>1256.6</ele><time>2015-11-24T10:00:12.0000000+00:00</time></trkpt><trkpt lat="30.49695346" lon="35.50084898"><ele>1255.1</ele><time>2015-11-24T10:00:14.0000000+00:00</time></trkpt><trkpt lat="30.49692244" lon="35.50083473"><ele>1253.7</ele><time>2015-11-24T10:00:16.0000000+00:00</time></trkpt><trkpt lat="30.49666897" lon="35.50073859"><ele>1255.6</ele><time>2015-11-24T10:00:31.0000000+00:00</time></trkpt><trkpt lat="30.49663042" lon="35.50072309"><ele>1256.6</ele><time>2015-11-24T10:00:33.0000000+00:00</time></trkpt><trkpt lat="30.49636773" lon="35.50063482"><ele>1255.1</ele><time>2015-11-24T10:00:45.0000000+00:00</time></trkpt><trkpt lat="30.49606673" lon="35.50047926"><ele>1258.5</ele><time>2015-11-24T10:01:00.0000000+00:00</time></trkpt><trkpt lat="30.49586674" lon="35.50030869"><ele>1258.0</ele><time>2015-11-24T10:01:11.0000000+00:00</time></trkpt><trkpt lat="30.4956499" lon="35.50008237"><ele>1258.5</ele><time>2015-11-24T10:01:25.0000000+00:00</time></trkpt><trkpt lat="30.49550632" lon="35.49997467"><ele>1259.5</ele><time>2015-11-24T10:01:33.0000000+00:00</time></trkpt><trkpt lat="30.49542326" lon="35.49992178"><ele>1259.9</ele><time>2015-11-24T10:01:40.0000000+00:00</time></trkpt><trkpt lat="30.49536601" lon="35.49992815"><ele>1259.5</ele><time>2015-11-24T10:01:44.0000000+00:00</time></trkpt><trkpt lat="30.49528386" lon="35.49992597"><ele>1261.4</ele><time>2015-11-24T10:01:55.0000000+00:00</time></trkpt><trkpt lat="30.49527867" lon="35.49992966"><ele>1259.9</ele><time>2015-11-24T10:01:57.0000000+00:00</time></trkpt><trkpt lat="30.49525972" lon="35.49994131"><ele>1259.0</ele><time>2015-11-24T10:01:59.0000000+00:00</time></trkpt><trkpt lat="30.49513601" lon="35.49997416"><ele>1258.5</ele><time>2015-11-24T10:02:07.0000000+00:00</time></trkpt><trkpt lat="30.4949454" lon="35.50003259"><ele>1258.0</ele><time>2015-11-24T10:02:16.0000000+00:00</time></trkpt><trkpt lat="30.49491397" lon="35.50005446"><ele>1256.1</ele><time>2015-11-24T10:02:18.0000000+00:00</time></trkpt><trkpt lat="30.49488363" lon="35.5000817"><ele>1256.1</ele><time>2015-11-24T10:02:20.0000000+00:00</time></trkpt><trkpt lat="30.49479419" lon="35.50018153"><ele>1256.1</ele><time>2015-11-24T10:02:26.0000000+00:00</time></trkpt><trkpt lat="30.49472814" lon="35.50028044"><ele>1254.2</ele><time>2015-11-24T10:02:29.0000000+00:00</time></trkpt><trkpt lat="30.49464818" lon="35.50039058"><ele>1251.3</ele><time>2015-11-24T10:02:35.0000000+00:00</time></trkpt><trkpt lat="30.49446177" lon="35.50062611"><ele>1248.9</ele><time>2015-11-24T10:02:47.0000000+00:00</time></trkpt><trkpt lat="30.49441751" lon="35.50068654"><ele>1247.5</ele><time>2015-11-24T10:02:50.0000000+00:00</time></trkpt><trkpt lat="30.49436412" lon="35.50075552"><ele>1244.6</ele><time>2015-11-24T10:02:53.0000000+00:00</time></trkpt><trkpt lat="30.49430109" lon="35.50084613"><ele>1243.1</ele><time>2015-11-24T10:02:57.0000000+00:00</time></trkpt><trkpt lat="30.49417293" lon="35.50105275"><ele>1239.3</ele><time>2015-11-24T10:03:05.0000000+00:00</time></trkpt><trkpt lat="30.49412297" lon="35.50110689"><ele>1236.4</ele><time>2015-11-24T10:03:10.0000000+00:00</time></trkpt><trkpt lat="30.49412473" lon="35.50110346"><ele>1236.4</ele><time>2015-11-24T10:03:11.0000000+00:00</time></trkpt><trkpt lat="30.49412046" lon="35.50110052"><ele>1237.8</ele><time>2015-11-24T10:03:39.0000000+00:00</time></trkpt><trkpt lat="30.49412255" lon="35.50110069"><ele>1237.8</ele><time>2015-11-24T10:04:05.0000000+00:00</time></trkpt><trkpt lat="30.49412356" lon="35.501096"><ele>1238.3</ele><time>2015-11-24T10:04:37.0000000+00:00</time></trkpt><trkpt lat="30.4941202" lon="35.50109834"><ele>1238.3</ele><time>2015-11-24T10:05:08.0000000+00:00</time></trkpt><trkpt lat="30.4941389" lon="35.50110815"><ele>1237.8</ele><time>2015-11-24T10:05:25.0000000+00:00</time></trkpt><trkpt lat="30.49412322" lon="35.50112416"><ele>1238.3</ele><time>2015-11-24T10:05:46.0000000+00:00</time></trkpt><trkpt lat="30.49412138" lon="35.50112726"><ele>1238.3</ele><time>2015-11-24T10:05:47.0000000+00:00</time></trkpt><trkpt lat="30.49397277" lon="35.50137319"><ele>1234.5</ele><time>2015-11-24T10:05:58.0000000+00:00</time></trkpt><trkpt lat="30.49392541" lon="35.50144359"><ele>1233.5</ele><time>2015-11-24T10:06:00.0000000+00:00</time></trkpt><trkpt lat="30.49384067" lon="35.50157963"><ele>1231.1</ele><time>2015-11-24T10:06:04.0000000+00:00</time></trkpt><trkpt lat="30.49371243" lon="35.50178993"><ele>1227.7</ele><time>2015-11-24T10:06:10.0000000+00:00</time></trkpt><trkpt lat="30.49360363" lon="35.50209822"><ele>1224.9</ele><time>2015-11-24T10:06:21.0000000+00:00</time></trkpt><trkpt lat="30.49353758" lon="35.50216603"><ele>1223.4</ele><time>2015-11-24T10:06:24.0000000+00:00</time></trkpt><trkpt lat="30.49346231" lon="35.50225488"><ele>1222.0</ele><time>2015-11-24T10:06:27.0000000+00:00</time></trkpt><trkpt lat="30.4933738" lon="35.50237742"><ele>1220.5</ele><time>2015-11-24T10:06:30.0000000+00:00</time></trkpt><trkpt lat="30.49312938" lon="35.50284639"><ele>1220.1</ele><time>2015-11-24T10:06:42.0000000+00:00</time></trkpt><trkpt lat="30.49296895" lon="35.50292912"><ele>1219.6</ele><time>2015-11-24T10:06:53.0000000+00:00</time></trkpt><trkpt lat="30.49296174" lon="35.50293096"><ele>1218.6</ele><time>2015-11-24T10:07:15.0000000+00:00</time></trkpt><trkpt lat="30.49279905" lon="35.50302727"><ele>1216.2</ele><time>2015-11-24T10:07:29.0000000+00:00</time></trkpt><trkpt lat="30.49276988" lon="35.50304387"><ele>1216.2</ele><time>2015-11-24T10:07:30.0000000+00:00</time></trkpt><trkpt lat="30.49261037" lon="35.50313934"><ele>1214.8</ele><time>2015-11-24T10:07:35.0000000+00:00</time></trkpt><trkpt lat="30.49229027" lon="35.50339147"><ele>1214.3</ele><time>2015-11-24T10:07:48.0000000+00:00</time></trkpt><trkpt lat="30.49211551" lon="35.5034576"><ele>1211.4</ele><time>2015-11-24T10:07:54.0000000+00:00</time></trkpt><trkpt lat="30.49196924" lon="35.50350202"><ele>1208.0</ele><time>2015-11-24T10:07:58.0000000+00:00</time></trkpt><trkpt lat="30.49180403" lon="35.50355877"><ele>1206.6</ele><time>2015-11-24T10:08:02.0000000+00:00</time></trkpt><trkpt lat="30.49131411" lon="35.50370587"><ele>1203.2</ele><time>2015-11-24T10:08:15.0000000+00:00</time></trkpt><trkpt lat="30.49117078" lon="35.50377896"><ele>1202.8</ele><time>2015-11-24T10:08:22.0000000+00:00</time></trkpt><trkpt lat="30.49112158" lon="35.50382137"><ele>1199.4</ele><time>2015-11-24T10:08:29.0000000+00:00</time></trkpt><trkpt lat="30.49111764" lon="35.50382397"><ele>1202.8</ele><time>2015-11-24T10:08:31.0000000+00:00</time></trkpt><trkpt lat="30.49111739" lon="35.50382079"><ele>1202.3</ele><time>2015-11-24T10:08:32.0000000+00:00</time></trkpt><trkpt lat="30.49111035" lon="35.50382271"><ele>1198.4</ele><time>2015-11-24T10:08:35.0000000+00:00</time></trkpt><trkpt lat="30.49110398" lon="35.50382615"><ele>1201.8</ele><time>2015-11-24T10:08:36.0000000+00:00</time></trkpt><trkpt lat="30.49094179" lon="35.50390452"><ele>1198.9</ele><time>2015-11-24T10:08:43.0000000+00:00</time></trkpt><trkpt lat="30.49090348" lon="35.50394828"><ele>1197.5</ele><time>2015-11-24T10:08:45.0000000+00:00</time></trkpt><trkpt lat="30.49065546" lon="35.50412907"><ele>1197.5</ele><time>2015-11-24T10:08:57.0000000+00:00</time></trkpt><trkpt lat="30.49046134" lon="35.50434256"><ele>1196.0</ele><time>2015-11-24T10:09:10.0000000+00:00</time></trkpt><trkpt lat="30.49041607" lon="35.5046169"><ele>1197.0</ele><time>2015-11-24T10:09:23.0000000+00:00</time></trkpt><trkpt lat="30.490418" lon="35.50468999"><ele>1198.9</ele><time>2015-11-24T10:09:27.0000000+00:00</time></trkpt><trkpt lat="30.49039847" lon="35.50475629"><ele>1199.4</ele><time>2015-11-24T10:09:31.0000000+00:00</time></trkpt><trkpt lat="30.49035179" lon="35.50491865"><ele>1200.3</ele><time>2015-11-24T10:09:44.0000000+00:00</time></trkpt><trkpt lat="30.49032312" lon="35.50502518"><ele>1202.3</ele><time>2015-11-24T10:09:58.0000000+00:00</time></trkpt><trkpt lat="30.49034097" lon="35.50509199"><ele>1202.8</ele><time>2015-11-24T10:10:11.0000000+00:00</time></trkpt><trkpt lat="30.49029772" lon="35.50508696"><ele>1202.3</ele><time>2015-11-24T10:10:47.0000000+00:00</time></trkpt><trkpt lat="30.49031214" lon="35.50509584"><ele>1202.8</ele><time>2015-11-24T10:11:27.0000000+00:00</time></trkpt><trkpt lat="30.49033049" lon="35.50508679"><ele>1201.8</ele><time>2015-11-24T10:12:14.0000000+00:00</time></trkpt><trkpt lat="30.4903087" lon="35.5050981"><ele>1201.3</ele><time>2015-11-24T10:12:35.0000000+00:00</time></trkpt><trkpt lat="30.49031666" lon="35.50510716"><ele>1198.9</ele><time>2015-11-24T10:13:09.0000000+00:00</time></trkpt><trkpt lat="30.49031423" lon="35.50510548"><ele>1200.3</ele><time>2015-11-24T10:13:11.0000000+00:00</time></trkpt><trkpt lat="30.4902947" lon="35.50510649"><ele>1201.8</ele><time>2015-11-24T10:13:42.0000000+00:00</time></trkpt><trkpt lat="30.49031683" lon="35.50509132"><ele>1200.8</ele><time>2015-11-24T10:14:07.0000000+00:00</time></trkpt><trkpt lat="30.49032865" lon="35.50510875"><ele>1200.3</ele><time>2015-11-24T10:14:46.0000000+00:00</time></trkpt><trkpt lat="30.49034659" lon="35.50510305"><ele>1199.9</ele><time>2015-11-24T10:15:13.0000000+00:00</time></trkpt><trkpt lat="30.49034751" lon="35.50510263"><ele>1199.9</ele><time>2015-11-24T10:15:18.0000000+00:00</time></trkpt><trkpt lat="30.49035195" lon="35.50509634"><ele>1200.3</ele><time>2015-11-24T10:15:32.0000000+00:00</time></trkpt><trkpt lat="30.49033578" lon="35.50508972"><ele>1197.0</ele><time>2015-11-24T10:15:57.0000000+00:00</time></trkpt><trkpt lat="30.49033762" lon="35.5050919"><ele>1198.4</ele><time>2015-11-24T10:16:00.0000000+00:00</time></trkpt><trkpt lat="30.49033318" lon="35.50510389"><ele>1197.9</ele><time>2015-11-24T10:16:10.0000000+00:00</time></trkpt><trkpt lat="30.49033108" lon="35.50510632"><ele>1199.9</ele><time>2015-11-24T10:16:12.0000000+00:00</time></trkpt><trkpt lat="30.49032471" lon="35.50509467"><ele>1200.8</ele><time>2015-11-24T10:16:24.0000000+00:00</time></trkpt><trkpt lat="30.49033519" lon="35.50510431"><ele>1197.5</ele><time>2015-11-24T10:16:40.0000000+00:00</time></trkpt><trkpt lat="30.49033645" lon="35.50510523"><ele>1197.5</ele><time>2015-11-24T10:16:41.0000000+00:00</time></trkpt><trkpt lat="30.49033418" lon="35.50510623"><ele>1200.3</ele><time>2015-11-24T10:16:47.0000000+00:00</time></trkpt><trkpt lat="30.49033267" lon="35.50509492"><ele>1201.3</ele><time>2015-11-24T10:17:26.0000000+00:00</time></trkpt><trkpt lat="30.49032765" lon="35.50511068"><ele>1200.8</ele><time>2015-11-24T10:18:02.0000000+00:00</time></trkpt><trkpt lat="30.49031314" lon="35.50510246"><ele>1200.3</ele><time>2015-11-24T10:18:36.0000000+00:00</time></trkpt><trkpt lat="30.49030191" lon="35.50510397"><ele>1197.0</ele><time>2015-11-24T10:19:07.0000000+00:00</time></trkpt><trkpt lat="30.49029529" lon="35.50510741"><ele>1200.3</ele><time>2015-11-24T10:19:12.0000000+00:00</time></trkpt><trkpt lat="30.4902875" lon="35.50509903"><ele>1197.9</ele><time>2015-11-24T10:19:35.0000000+00:00</time></trkpt><trkpt lat="30.49027727" lon="35.50510816"><ele>1199.4</ele><time>2015-11-24T10:19:46.0000000+00:00</time></trkpt><trkpt lat="30.4903056" lon="35.50510397"><ele>1198.4</ele><time>2015-11-24T10:20:07.0000000+00:00</time></trkpt><trkpt lat="30.49029722" lon="35.50510255"><ele>1197.9</ele><time>2015-11-24T10:20:25.0000000+00:00</time></trkpt><trkpt lat="30.49028615" lon="35.50510682"><ele>1197.9</ele><time>2015-11-24T10:20:35.0000000+00:00</time></trkpt><trkpt lat="30.49028657" lon="35.50510623"><ele>1198.9</ele><time>2015-11-24T10:20:38.0000000+00:00</time></trkpt><trkpt lat="30.49029244" lon="35.50510204"><ele>1199.9</ele><time>2015-11-24T10:20:47.0000000+00:00</time></trkpt><trkpt lat="30.49027928" lon="35.505095"><ele>1197.0</ele><time>2015-11-24T10:21:02.0000000+00:00</time></trkpt><trkpt lat="30.49026436" lon="35.50509165"><ele>1198.4</ele><time>2015-11-24T10:21:12.0000000+00:00</time></trkpt><trkpt lat="30.49028079" lon="35.50508134"><ele>1198.9</ele><time>2015-11-24T10:21:47.0000000+00:00</time></trkpt><trkpt lat="30.49027828" lon="35.50508972"><ele>1198.4</ele><time>2015-11-24T10:22:12.0000000+00:00</time></trkpt><trkpt lat="30.49026654" lon="35.50510037"><ele>1198.4</ele><time>2015-11-24T10:22:37.0000000+00:00</time></trkpt><trkpt lat="30.4902647" lon="35.50509383"><ele>1198.9</ele><time>2015-11-24T10:23:08.0000000+00:00</time></trkpt><trkpt lat="30.49026587" lon="35.50509282"><ele>1199.4</ele><time>2015-11-24T10:23:57.0000000+00:00</time></trkpt><trkpt lat="30.49027367" lon="35.50508989"><ele>1199.4</ele><time>2015-11-24T10:24:19.0000000+00:00</time></trkpt><trkpt lat="30.49027023" lon="35.50509634"><ele>1197.9</ele><time>2015-11-24T10:24:38.0000000+00:00</time></trkpt><trkpt lat="30.49026956" lon="35.50509475"><ele>1199.4</ele><time>2015-11-24T10:24:43.0000000+00:00</time></trkpt><trkpt lat="30.49026922" lon="35.50509668"><ele>1197.0</ele><time>2015-11-24T10:25:14.0000000+00:00</time></trkpt><trkpt lat="30.49024936" lon="35.50510657"><ele>1198.9</ele><time>2015-11-24T10:25:54.0000000+00:00</time></trkpt><trkpt lat="30.49025523" lon="35.5050924"><ele>1199.4</ele><time>2015-11-24T10:26:28.0000000+00:00</time></trkpt><trkpt lat="30.4902538" lon="35.5050966"><ele>1198.4</ele><time>2015-11-24T10:26:59.0000000+00:00</time></trkpt><trkpt lat="30.49025707" lon="35.50509685"><ele>1199.4</ele><time>2015-11-24T10:27:31.0000000+00:00</time></trkpt><trkpt lat="30.49027752" lon="35.50509006"><ele>1197.9</ele><time>2015-11-24T10:28:07.0000000+00:00</time></trkpt><trkpt lat="30.49026914" lon="35.50509081"><ele>1199.4</ele><time>2015-11-24T10:28:37.0000000+00:00</time></trkpt><trkpt lat="30.49027828" lon="35.50508964"><ele>1196.5</ele><time>2015-11-24T10:29:04.0000000+00:00</time></trkpt><trkpt lat="30.49026419" lon="35.50507975"><ele>1197.5</ele><time>2015-11-24T10:29:42.0000000+00:00</time></trkpt><trkpt lat="30.49027811" lon="35.50508738"><ele>1198.9</ele><time>2015-11-24T10:29:56.0000000+00:00</time></trkpt><trkpt lat="30.49029219" lon="35.50507707"><ele>1197.5</ele><time>2015-11-24T10:30:30.0000000+00:00</time></trkpt><trkpt lat="30.49027945" lon="35.50508738"><ele>1197.9</ele><time>2015-11-24T10:31:03.0000000+00:00</time></trkpt><trkpt lat="30.49025573" lon="35.50508771"><ele>1198.4</ele><time>2015-11-24T10:31:42.0000000+00:00</time></trkpt><trkpt lat="30.49026755" lon="35.50508017"><ele>1197.9</ele><time>2015-11-24T10:32:16.0000000+00:00</time></trkpt><trkpt lat="30.49025481" lon="35.50507237"><ele>1198.9</ele><time>2015-11-24T10:32:34.0000000+00:00</time></trkpt><trkpt lat="30.49028431" lon="35.5050764"><ele>1198.9</ele><time>2015-11-24T10:33:12.0000000+00:00</time></trkpt><trkpt lat="30.49026872" lon="35.50507531"><ele>1197.0</ele><time>2015-11-24T10:33:20.0000000+00:00</time></trkpt><trkpt lat="30.49027174" lon="35.5050743"><ele>1197.5</ele><time>2015-11-24T10:33:32.0000000+00:00</time></trkpt><trkpt lat="30.49030225" lon="35.50507028"><ele>1197.9</ele><time>2015-11-24T10:33:47.0000000+00:00</time></trkpt><trkpt lat="30.49033326" lon="35.50507891"><ele>1198.4</ele><time>2015-11-24T10:34:00.0000000+00:00</time></trkpt><trkpt lat="30.49034961" lon="35.5051261"><ele>1197.5</ele><time>2015-11-24T10:34:37.0000000+00:00</time></trkpt><trkpt lat="30.49035002" lon="35.50512107"><ele>1197.5</ele><time>2015-11-24T10:35:09.0000000+00:00</time></trkpt><trkpt lat="30.49034843" lon="35.50511227"><ele>1197.5</ele><time>2015-11-24T10:35:44.0000000+00:00</time></trkpt><trkpt lat="30.49035313" lon="35.50513457"><ele>1196.0</ele><time>2015-11-24T10:36:13.0000000+00:00</time></trkpt><trkpt lat="30.49033477" lon="35.50512794"><ele>1196.5</ele><time>2015-11-24T10:36:53.0000000+00:00</time></trkpt><trkpt lat="30.49033066" lon="35.50514848"><ele>1197.0</ele><time>2015-11-24T10:37:13.0000000+00:00</time></trkpt><trkpt lat="30.49037165" lon="35.50514814"><ele>1196.5</ele><time>2015-11-24T10:37:54.0000000+00:00</time></trkpt><trkpt lat="30.49037693" lon="35.50514965"><ele>1196.5</ele><time>2015-11-24T10:38:26.0000000+00:00</time></trkpt><trkpt lat="30.49033687" lon="35.50515326"><ele>1197.0</ele><time>2015-11-24T10:39:00.0000000+00:00</time></trkpt><trkpt lat="30.49035463" lon="35.50514731"><ele>1197.5</ele><time>2015-11-24T10:39:43.0000000+00:00</time></trkpt><trkpt lat="30.49033351" lon="35.50514974"><ele>1196.0</ele><time>2015-11-24T10:39:54.0000000+00:00</time></trkpt><trkpt lat="30.49038741" lon="35.50513934"><ele>1197.0</ele><time>2015-11-24T10:40:32.0000000+00:00</time></trkpt><trkpt lat="30.49036352" lon="35.50512476"><ele>1197.9</ele><time>2015-11-24T10:41:12.0000000+00:00</time></trkpt><trkpt lat="30.49035086" lon="35.50512233"><ele>1196.5</ele><time>2015-11-24T10:41:27.0000000+00:00</time></trkpt><trkpt lat="30.49036679" lon="35.50508779"><ele>1196.0</ele><time>2015-11-24T10:42:00.0000000+00:00</time></trkpt><trkpt lat="30.49040794" lon="35.50508327"><ele>1196.5</ele><time>2015-11-24T10:42:22.0000000+00:00</time></trkpt><trkpt lat="30.49040342" lon="35.50507925"><ele>1197.5</ele><time>2015-11-24T10:42:27.0000000+00:00</time></trkpt><trkpt lat="30.49041482" lon="35.50508503"><ele>1197.0</ele><time>2015-11-24T10:42:56.0000000+00:00</time></trkpt><trkpt lat="30.4903828" lon="35.50508503"><ele>1196.5</ele><time>2015-11-24T10:43:28.0000000+00:00</time></trkpt><trkpt lat="30.49037819" lon="35.50508117"><ele>1196.5</ele><time>2015-11-24T10:43:57.0000000+00:00</time></trkpt><trkpt lat="30.49038791" lon="35.505094"><ele>1196.0</ele><time>2015-11-24T10:44:18.0000000+00:00</time></trkpt><trkpt lat="30.4903569" lon="35.50510054"><ele>1197.5</ele><time>2015-11-24T10:44:48.0000000+00:00</time></trkpt><trkpt lat="30.49034013" lon="35.50510976"><ele>1198.9</ele><time>2015-11-24T10:45:36.0000000+00:00</time></trkpt><trkpt lat="30.49036545" lon="35.50507279"><ele>1197.5</ele><time>2015-11-24T10:46:27.0000000+00:00</time></trkpt><trkpt lat="30.49037291" lon="35.50507975"><ele>1197.5</ele><time>2015-11-24T10:47:07.0000000+00:00</time></trkpt><trkpt lat="30.4903657" lon="35.50507564"><ele>1197.9</ele><time>2015-11-24T10:47:43.0000000+00:00</time></trkpt><trkpt lat="30.49036369" lon="35.50508847"><ele>1197.5</ele><time>2015-11-24T10:48:33.0000000+00:00</time></trkpt><trkpt lat="30.49036126" lon="35.50509215"><ele>1197.5</ele><time>2015-11-24T10:49:13.0000000+00:00</time></trkpt><trkpt lat="30.49036352" lon="35.50508662"><ele>1197.0</ele><time>2015-11-24T10:49:57.0000000+00:00</time></trkpt><trkpt lat="30.49037852" lon="35.5050976"><ele>1196.0</ele><time>2015-11-24T10:50:33.0000000+00:00</time></trkpt><trkpt lat="30.49038213" lon="35.50509609"><ele>1197.5</ele><time>2015-11-24T10:50:35.0000000+00:00</time></trkpt><trkpt lat="30.49040861" lon="35.50509031"><ele>1197.5</ele><time>2015-11-24T10:51:07.0000000+00:00</time></trkpt><trkpt lat="30.49040166" lon="35.50510422"><ele>1197.9</ele><time>2015-11-24T10:51:49.0000000+00:00</time></trkpt><trkpt lat="30.49039654" lon="35.50509291"><ele>1197.5</ele><time>2015-11-24T10:52:27.0000000+00:00</time></trkpt><trkpt lat="30.49040241" lon="35.50508997"><ele>1197.9</ele><time>2015-11-24T10:52:59.0000000+00:00</time></trkpt><trkpt lat="30.49040216" lon="35.50509048"><ele>1196.0</ele><time>2015-11-24T10:53:03.0000000+00:00</time></trkpt><trkpt lat="30.49040275" lon="35.50508805"><ele>1197.5</ele><time>2015-11-24T10:53:05.0000000+00:00</time></trkpt><trkpt lat="30.49039084" lon="35.50506449"><ele>1197.0</ele><time>2015-11-24T10:53:48.0000000+00:00</time></trkpt><trkpt lat="30.49036168" lon="35.50503775"><ele>1197.9</ele><time>2015-11-24T10:54:23.0000000+00:00</time></trkpt><trkpt lat="30.49035489" lon="35.50505427"><ele>1198.4</ele><time>2015-11-24T10:55:07.0000000+00:00</time></trkpt><trkpt lat="30.49033636" lon="35.50504748"><ele>1196.0</ele><time>2015-11-24T10:55:13.0000000+00:00</time></trkpt><trkpt lat="30.49033334" lon="35.50504672"><ele>1197.5</ele><time>2015-11-24T10:55:15.0000000+00:00</time></trkpt><trkpt lat="30.49032454" lon="35.50506684"><ele>1198.4</ele><time>2015-11-24T10:55:57.0000000+00:00</time></trkpt><trkpt lat="30.49033578" lon="35.50503625"><ele>1198.4</ele><time>2015-11-24T10:56:45.0000000+00:00</time></trkpt><trkpt lat="30.490346" lon="35.50502988"><ele>1198.9</ele><time>2015-11-24T10:57:04.0000000+00:00</time></trkpt><trkpt lat="30.4903569" lon="35.5050458"><ele>1199.4</ele><time>2015-11-24T10:57:25.0000000+00:00</time></trkpt><trkpt lat="30.49034642" lon="35.50503759"><ele>1199.4</ele><time>2015-11-24T10:57:49.0000000+00:00</time></trkpt><trkpt lat="30.49038012" lon="35.50506776"><ele>1197.9</ele><time>2015-11-24T10:58:04.0000000+00:00</time></trkpt><trkpt lat="30.49036712" lon="35.50502853"><ele>1199.9</ele><time>2015-11-24T10:58:31.0000000+00:00</time></trkpt><trkpt lat="30.49035883" lon="35.50500859"><ele>1199.9</ele><time>2015-11-24T10:58:43.0000000+00:00</time></trkpt><trkpt lat="30.49036101" lon="35.50499777"><ele>1199.9</ele><time>2015-11-24T10:59:05.0000000+00:00</time></trkpt><trkpt lat="30.49036293" lon="35.50495838"><ele>1198.9</ele><time>2015-11-24T10:59:27.0000000+00:00</time></trkpt><trkpt lat="30.49046737" lon="35.50477029"><ele>1196.5</ele><time>2015-11-24T10:59:39.0000000+00:00</time></trkpt><trkpt lat="30.49052194" lon="35.50447516"><ele>1193.1</ele><time>2015-11-24T10:59:48.0000000+00:00</time></trkpt><trkpt lat="30.4905304" lon="35.50442889"><ele>1192.7</ele><time>2015-11-24T10:59:49.0000000+00:00</time></trkpt><trkpt lat="30.49059151" lon="35.50422488"><ele>1191.7</ele><time>2015-11-24T10:59:59.0000000+00:00</time></trkpt><trkpt lat="30.4906138" lon="35.50415439"><ele>1192.2</ele><time>2015-11-24T11:00:11.0000000+00:00</time></trkpt><trkpt lat="30.49058237" lon="35.50413595"><ele>1191.7</ele><time>2015-11-24T11:00:21.0000000+00:00</time></trkpt><trkpt lat="30.49053367" lon="35.50411055"><ele>1190.3</ele><time>2015-11-24T11:00:25.0000000+00:00</time></trkpt><trkpt lat="30.49034592" lon="35.50400804"><ele>1188.3</ele><time>2015-11-24T11:00:37.0000000+00:00</time></trkpt><trkpt lat="30.49013645" lon="35.50383193"><ele>1191.7</ele><time>2015-11-24T11:00:54.0000000+00:00</time></trkpt><trkpt lat="30.48998533" lon="35.50370931"><ele>1195.1</ele><time>2015-11-24T11:01:07.0000000+00:00</time></trkpt><trkpt lat="30.48985809" lon="35.50357503"><ele>1199.4</ele><time>2015-11-24T11:01:21.0000000+00:00</time></trkpt><trkpt lat="30.48984828" lon="35.50356614"><ele>1198.9</ele><time>2015-11-24T11:01:22.0000000+00:00</time></trkpt><trkpt lat="30.48978374" lon="35.50350739"><ele>1201.8</ele><time>2015-11-24T11:01:29.0000000+00:00</time></trkpt><trkpt lat="30.48968526" lon="35.50340923"><ele>1203.7</ele><time>2015-11-24T11:01:41.0000000+00:00</time></trkpt><trkpt lat="30.48968006" lon="35.5033975"><ele>1203.7</ele><time>2015-11-24T11:01:42.0000000+00:00</time></trkpt><trkpt lat="30.48963689" lon="35.50334981"><ele>1205.2</ele><time>2015-11-24T11:01:47.0000000+00:00</time></trkpt><trkpt lat="30.48957587" lon="35.50327982"><ele>1209.5</ele><time>2015-11-24T11:01:54.0000000+00:00</time></trkpt><trkpt lat="30.48956699" lon="35.5032732"><ele>1209.5</ele><time>2015-11-24T11:01:55.0000000+00:00</time></trkpt><trkpt lat="30.48953044" lon="35.50324855"><ele>1208.0</ele><time>2015-11-24T11:01:59.0000000+00:00</time></trkpt><trkpt lat="30.48945786" lon="35.5031815"><ele>1209.0</ele><time>2015-11-24T11:02:07.0000000+00:00</time></trkpt><trkpt lat="30.48944947" lon="35.50317203"><ele>1210.0</ele><time>2015-11-24T11:02:08.0000000+00:00</time></trkpt><trkpt lat="30.48938879" lon="35.5031364"><ele>1210.9</ele><time>2015-11-24T11:02:14.0000000+00:00</time></trkpt><trkpt lat="30.48924336" lon="35.50303607"><ele>1210.9</ele><time>2015-11-24T11:02:27.0000000+00:00</time></trkpt><trkpt lat="30.48920732" lon="35.50299835"><ele>1210.9</ele><time>2015-11-24T11:02:31.0000000+00:00</time></trkpt><trkpt lat="30.48908494" lon="35.50289618"><ele>1213.8</ele><time>2015-11-24T11:02:43.0000000+00:00</time></trkpt><trkpt lat="30.48903004" lon="35.50286123"><ele>1211.9</ele><time>2015-11-24T11:02:48.0000000+00:00</time></trkpt><trkpt lat="30.48886056" lon="35.50275687"><ele>1213.3</ele><time>2015-11-24T11:03:03.0000000+00:00</time></trkpt><trkpt lat="30.4887868" lon="35.50271362"><ele>1213.3</ele><time>2015-11-24T11:03:09.0000000+00:00</time></trkpt><trkpt lat="30.48857507" lon="35.50258814"><ele>1216.2</ele><time>2015-11-24T11:03:26.0000000+00:00</time></trkpt><trkpt lat="30.48855227" lon="35.50257213"><ele>1216.2</ele><time>2015-11-24T11:03:28.0000000+00:00</time></trkpt><trkpt lat="30.48847918" lon="35.502521"><ele>1216.7</ele><time>2015-11-24T11:03:35.0000000+00:00</time></trkpt><trkpt lat="30.4884506" lon="35.50249225"><ele>1218.1</ele><time>2015-11-24T11:03:38.0000000+00:00</time></trkpt><trkpt lat="30.48840391" lon="35.50243869"><ele>1218.1</ele><time>2015-11-24T11:03:43.0000000+00:00</time></trkpt><trkpt lat="30.48824776" lon="35.50229201"><ele>1221.0</ele><time>2015-11-24T11:03:58.0000000+00:00</time></trkpt><trkpt lat="30.48809353" lon="35.50212764"><ele>1222.5</ele><time>2015-11-24T11:04:15.0000000+00:00</time></trkpt><trkpt lat="30.48805699" lon="35.50208791"><ele>1222.9</ele><time>2015-11-24T11:04:19.0000000+00:00</time></trkpt><trkpt lat="30.48792908" lon="35.50195439"><ele>1225.3</ele><time>2015-11-24T11:04:34.0000000+00:00</time></trkpt><trkpt lat="30.48780662" lon="35.50181357"><ele>1227.7</ele><time>2015-11-24T11:04:47.0000000+00:00</time></trkpt><trkpt lat="30.48767486" lon="35.50167326"><ele>1230.6</ele><time>2015-11-24T11:05:01.0000000+00:00</time></trkpt><trkpt lat="30.48765684" lon="35.50163504"><ele>1230.6</ele><time>2015-11-24T11:05:04.0000000+00:00</time></trkpt><trkpt lat="30.48758215" lon="35.50153253"><ele>1231.1</ele><time>2015-11-24T11:05:13.0000000+00:00</time></trkpt><trkpt lat="30.48750227" lon="35.50143597"><ele>1232.6</ele><time>2015-11-24T11:05:21.0000000+00:00</time></trkpt><trkpt lat="30.48736925" lon="35.50129767"><ele>1234.5</ele><time>2015-11-24T11:05:35.0000000+00:00</time></trkpt><trkpt lat="30.48733925" lon="35.50126246"><ele>1234.5</ele><time>2015-11-24T11:05:39.0000000+00:00</time></trkpt><trkpt lat="30.48713917" lon="35.50111536"><ele>1237.4</ele><time>2015-11-24T11:05:58.0000000+00:00</time></trkpt><trkpt lat="30.48695175" lon="35.50099022"><ele>1239.3</ele><time>2015-11-24T11:06:13.0000000+00:00</time></trkpt><trkpt lat="30.48673407" lon="35.5008976"><ele>1241.2</ele><time>2015-11-24T11:06:29.0000000+00:00</time></trkpt><trkpt lat="30.48651748" lon="35.50082451"><ele>1241.2</ele><time>2015-11-24T11:06:45.0000000+00:00</time></trkpt><trkpt lat="30.48650659" lon="35.50081805"><ele>1241.2</ele><time>2015-11-24T11:06:46.0000000+00:00</time></trkpt><trkpt lat="30.48639142" lon="35.50081068"><ele>1242.2</ele><time>2015-11-24T11:06:55.0000000+00:00</time></trkpt><trkpt lat="30.48635395" lon="35.50080464"><ele>1243.1</ele><time>2015-11-24T11:06:58.0000000+00:00</time></trkpt><trkpt lat="30.48626452" lon="35.50078243"><ele>1243.6</ele><time>2015-11-24T11:07:05.0000000+00:00</time></trkpt><trkpt lat="30.48607416" lon="35.50068067"><ele>1247.0</ele><time>2015-11-24T11:07:20.0000000+00:00</time></trkpt><trkpt lat="30.48590527" lon="35.50057137"><ele>1250.3</ele><time>2015-11-24T11:07:33.0000000+00:00</time></trkpt><trkpt lat="30.48572606" lon="35.5004671"><ele>1252.7</ele><time>2015-11-24T11:07:48.0000000+00:00</time></trkpt><trkpt lat="30.48566043" lon="35.50041338"><ele>1253.7</ele><time>2015-11-24T11:07:54.0000000+00:00</time></trkpt><trkpt lat="30.48559195" lon="35.5003661"><ele>1255.1</ele><time>2015-11-24T11:08:00.0000000+00:00</time></trkpt><trkpt lat="30.48550227" lon="35.50029326"><ele>1255.6</ele><time>2015-11-24T11:08:08.0000000+00:00</time></trkpt><trkpt lat="30.48532809" lon="35.50013484"><ele>1257.5</ele><time>2015-11-24T11:08:24.0000000+00:00</time></trkpt><trkpt lat="30.48512533" lon="35.49996637"><ele>1260.4</ele><time>2015-11-24T11:08:40.0000000+00:00</time></trkpt><trkpt lat="30.48494671" lon="35.49983184"><ele>1261.9</ele><time>2015-11-24T11:08:55.0000000+00:00</time></trkpt><trkpt lat="30.48487379" lon="35.49978926"><ele>1263.3</ele><time>2015-11-24T11:09:01.0000000+00:00</time></trkpt><trkpt lat="30.48463776" lon="35.49966755"><ele>1264.8</ele><time>2015-11-24T11:09:18.0000000+00:00</time></trkpt><trkpt lat="30.48447255" lon="35.49958793"><ele>1267.6</ele><time>2015-11-24T11:09:31.0000000+00:00</time></trkpt><trkpt lat="30.48423928" lon="35.49949078"><ele>1270.0</ele><time>2015-11-24T11:09:49.0000000+00:00</time></trkpt><trkpt lat="30.48403686" lon="35.49940009"><ele>1272.9</ele><time>2015-11-24T11:10:05.0000000+00:00</time></trkpt><trkpt lat="30.48394742" lon="35.49936606"><ele>1272.9</ele><time>2015-11-24T11:10:12.0000000+00:00</time></trkpt><trkpt lat="30.48379823" lon="35.49933597"><ele>1274.4</ele><time>2015-11-24T11:10:22.0000000+00:00</time></trkpt><trkpt lat="30.48372086" lon="35.4993332"><ele>1275.8</ele><time>2015-11-24T11:10:27.0000000+00:00</time></trkpt><trkpt lat="30.48364735" lon="35.49933806"><ele>1273.9</ele><time>2015-11-24T11:10:31.0000000+00:00</time></trkpt><trkpt lat="30.48324469" lon="35.49942071"><ele>1274.4</ele><time>2015-11-24T11:10:44.0000000+00:00</time></trkpt><trkpt lat="30.48302701" lon="35.49932415"><ele>1276.8</ele><time>2015-11-24T11:10:55.0000000+00:00</time></trkpt><trkpt lat="30.48277739" lon="35.49922876"><ele>1278.7</ele><time>2015-11-24T11:11:13.0000000+00:00</time></trkpt><trkpt lat="30.4826841" lon="35.49918677"><ele>1279.2</ele><time>2015-11-24T11:11:20.0000000+00:00</time></trkpt><trkpt lat="30.48260766" lon="35.49915114"><ele>1281.6</ele><time>2015-11-24T11:11:26.0000000+00:00</time></trkpt><trkpt lat="30.48253482" lon="35.49911552"><ele>1282.1</ele><time>2015-11-24T11:11:32.0000000+00:00</time></trkpt><trkpt lat="30.48243055" lon="35.49909767"><ele>1280.6</ele><time>2015-11-24T11:11:39.0000000+00:00</time></trkpt><trkpt lat="30.48238797" lon="35.49909708"><ele>1282.1</ele><time>2015-11-24T11:11:42.0000000+00:00</time></trkpt><trkpt lat="30.4823153" lon="35.49908325"><ele>1281.1</ele><time>2015-11-24T11:11:46.0000000+00:00</time></trkpt><trkpt lat="30.482234" lon="35.4990752"><ele>1281.1</ele><time>2015-11-24T11:11:51.0000000+00:00</time></trkpt><trkpt lat="30.48229242" lon="35.49890866"><ele>1279.7</ele><time>2015-11-24T11:11:57.0000000+00:00</time></trkpt><trkpt lat="30.4823951" lon="35.4987235"><ele>1280.1</ele><time>2015-11-24T11:12:07.0000000+00:00</time></trkpt><trkpt lat="30.48242745" lon="35.49871562"><ele>1281.6</ele><time>2015-11-24T11:12:33.0000000+00:00</time></trkpt><trkpt lat="30.48242879" lon="35.49871017"><ele>1282.1</ele><time>2015-11-24T11:12:35.0000000+00:00</time></trkpt><trkpt lat="30.48242603" lon="35.49870841"><ele>1280.1</ele><time>2015-11-24T11:13:07.0000000+00:00</time></trkpt><trkpt lat="30.482421" lon="35.49870171"><ele>1279.7</ele><time>2015-11-24T11:13:36.0000000+00:00</time></trkpt><trkpt lat="30.48242116" lon="35.49870481"><ele>1278.2</ele><time>2015-11-24T11:14:07.0000000+00:00</time></trkpt><trkpt lat="30.4824251" lon="35.49871151"><ele>1277.7</ele><time>2015-11-24T11:14:37.0000000+00:00</time></trkpt><trkpt lat="30.48243709" lon="35.49871361"><ele>1278.7</ele><time>2015-11-24T11:15:09.0000000+00:00</time></trkpt><trkpt lat="30.48242452" lon="35.49874504"><ele>1279.2</ele><time>2015-11-24T11:15:14.0000000+00:00</time></trkpt><trkpt lat="30.48238445" lon="35.4987846"><ele>1278.7</ele><time>2015-11-24T11:15:18.0000000+00:00</time></trkpt><trkpt lat="30.48231496" lon="35.49889105"><ele>1278.7</ele><time>2015-11-24T11:15:25.0000000+00:00</time></trkpt><trkpt lat="30.48228781" lon="35.49896657"><ele>1280.1</ele><time>2015-11-24T11:15:31.0000000+00:00</time></trkpt><trkpt lat="30.48223676" lon="35.49902793"><ele>1280.6</ele><time>2015-11-24T11:15:38.0000000+00:00</time></trkpt><trkpt lat="30.48221011" lon="35.49904235"><ele>1281.6</ele><time>2015-11-24T11:15:40.0000000+00:00</time></trkpt><trkpt lat="30.48209578" lon="35.49905844"><ele>1282.1</ele><time>2015-11-24T11:15:46.0000000+00:00</time></trkpt><trkpt lat="30.48162195" lon="35.49915827"><ele>1281.6</ele><time>2015-11-24T11:16:01.0000000+00:00</time></trkpt><trkpt lat="30.48144266" lon="35.49925458"><ele>1280.1</ele><time>2015-11-24T11:16:07.0000000+00:00</time></trkpt><trkpt lat="30.48118525" lon="35.49946915"><ele>1280.1</ele><time>2015-11-24T11:16:16.0000000+00:00</time></trkpt><trkpt lat="30.48108207" lon="35.49963813"><ele>1278.7</ele><time>2015-11-24T11:16:20.0000000+00:00</time></trkpt><trkpt lat="30.48098492" lon="35.49979253"><ele>1276.8</ele><time>2015-11-24T11:16:23.0000000+00:00</time></trkpt><trkpt lat="30.48085375" lon="35.50004139"><ele>1275.3</ele><time>2015-11-24T11:16:27.0000000+00:00</time></trkpt><trkpt lat="30.48048344" lon="35.50024674"><ele>1275.3</ele><time>2015-11-24T11:16:35.0000000+00:00</time></trkpt><trkpt lat="30.47996946" lon="35.50047087"><ele>1278.7</ele><time>2015-11-24T11:16:49.0000000+00:00</time></trkpt><trkpt lat="30.4796812" lon="35.5007966"><ele>1278.7</ele><time>2015-11-24T11:17:03.0000000+00:00</time></trkpt><trkpt lat="30.47942983" lon="35.50119474"><ele>1278.7</ele><time>2015-11-24T11:17:15.0000000+00:00</time></trkpt><trkpt lat="30.47919111" lon="35.50145491"><ele>1280.6</ele><time>2015-11-24T11:17:28.0000000+00:00</time></trkpt><trkpt lat="30.47897637" lon="35.50173746"><ele>1282.1</ele><time>2015-11-24T11:17:45.0000000+00:00</time></trkpt><trkpt lat="30.47877001" lon="35.5019709"><ele>1284.5</ele><time>2015-11-24T11:18:00.0000000+00:00</time></trkpt><trkpt lat="30.47856021" lon="35.50210845"><ele>1286.9</ele><time>2015-11-24T11:18:13.0000000+00:00</time></trkpt><trkpt lat="30.47851469" lon="35.50214147"><ele>1287.8</ele><time>2015-11-24T11:18:16.0000000+00:00</time></trkpt><trkpt lat="30.4782567" lon="35.50227894"><ele>1291.2</ele><time>2015-11-24T11:18:32.0000000+00:00</time></trkpt><trkpt lat="30.47797448" lon="35.50241481"><ele>1294.1</ele><time>2015-11-24T11:18:49.0000000+00:00</time></trkpt><trkpt lat="30.4778345" lon="35.50247549"><ele>1297.4</ele><time>2015-11-24T11:18:57.0000000+00:00</time></trkpt><trkpt lat="30.47753384" lon="35.50257113"><ele>1299.4</ele><time>2015-11-24T11:19:13.0000000+00:00</time></trkpt><trkpt lat="30.47714182" lon="35.50282284"><ele>1296.5</ele><time>2015-11-24T11:19:25.0000000+00:00</time></trkpt><trkpt lat="30.47709715" lon="35.50285863"><ele>1296.0</ele><time>2015-11-24T11:19:26.0000000+00:00</time></trkpt><trkpt lat="30.47699941" lon="35.50292149"><ele>1295.0</ele><time>2015-11-24T11:19:28.0000000+00:00</time></trkpt><trkpt lat="30.47655886" lon="35.50309357"><ele>1290.2</ele><time>2015-11-24T11:19:35.0000000+00:00</time></trkpt><trkpt lat="30.4764079" lon="35.50317043"><ele>1287.8</ele><time>2015-11-24T11:19:37.0000000+00:00</time></trkpt><trkpt lat="30.47582167" lon="35.50322508"><ele>1286.4</ele><time>2015-11-24T11:19:44.0000000+00:00</time></trkpt><trkpt lat="30.47558153" lon="35.50303113"><ele>1284.0</ele><time>2015-11-24T11:19:49.0000000+00:00</time></trkpt><trkpt lat="30.47559922" lon="35.50291806"><ele>1284.0</ele><time>2015-11-24T11:19:51.0000000+00:00</time></trkpt><trkpt lat="30.47566418" lon="35.5026148"><ele>1287.8</ele><time>2015-11-24T11:20:01.0000000+00:00</time></trkpt><trkpt lat="30.47567155" lon="35.50255847"><ele>1287.8</ele><time>2015-11-24T11:20:13.0000000+00:00</time></trkpt><trkpt lat="30.47565906" lon="35.50255931"><ele>1291.2</ele><time>2015-11-24T11:20:28.0000000+00:00</time></trkpt><trkpt lat="30.47565219" lon="35.5025516"><ele>1288.8</ele><time>2015-11-24T11:21:07.0000000+00:00</time></trkpt><trkpt lat="30.47565529" lon="35.50254171"><ele>1289.3</ele><time>2015-11-24T11:21:20.0000000+00:00</time></trkpt><trkpt lat="30.4756625" lon="35.50255009"><ele>1289.8</ele><time>2015-11-24T11:22:08.0000000+00:00</time></trkpt><trkpt lat="30.47566845" lon="35.50253978"><ele>1289.8</ele><time>2015-11-24T11:22:23.0000000+00:00</time></trkpt><trkpt lat="30.47574188" lon="35.50228614"><ele>1288.3</ele><time>2015-11-24T11:22:35.0000000+00:00</time></trkpt><trkpt lat="30.47582838" lon="35.50184743"><ele>1288.8</ele><time>2015-11-24T11:22:48.0000000+00:00</time></trkpt><trkpt lat="30.47581128" lon="35.50146069"><ele>1292.2</ele><time>2015-11-24T11:23:01.0000000+00:00</time></trkpt><trkpt lat="30.47583735" lon="35.50104286"><ele>1292.6</ele><time>2015-11-24T11:23:16.0000000+00:00</time></trkpt><trkpt lat="30.47576384" lon="35.50062611"><ele>1295.0</ele><time>2015-11-24T11:23:32.0000000+00:00</time></trkpt><trkpt lat="30.47559377" lon="35.50026728"><ele>1297.0</ele><time>2015-11-24T11:23:49.0000000+00:00</time></trkpt><trkpt lat="30.47541674" lon="35.49996536"><ele>1299.8</ele><time>2015-11-24T11:24:04.0000000+00:00</time></trkpt><trkpt lat="30.475203" lon="35.49956253"><ele>1302.7</ele><time>2015-11-24T11:24:23.0000000+00:00</time></trkpt><trkpt lat="30.47497041" lon="35.49925701"><ele>1304.2</ele><time>2015-11-24T11:24:40.0000000+00:00</time></trkpt><trkpt lat="30.47476505" lon="35.49894478"><ele>1308.0</ele><time>2015-11-24T11:24:55.0000000+00:00</time></trkpt><trkpt lat="30.47475306" lon="35.49892651"><ele>1307.5</ele><time>2015-11-24T11:24:56.0000000+00:00</time></trkpt><trkpt lat="30.47469188" lon="35.49884453"><ele>1309.0</ele><time>2015-11-24T11:25:01.0000000+00:00</time></trkpt><trkpt lat="30.47457771" lon="35.49864991"><ele>1310.9</ele><time>2015-11-24T11:25:13.0000000+00:00</time></trkpt><trkpt lat="30.47448182" lon="35.49846207"><ele>1314.3</ele><time>2015-11-24T11:25:24.0000000+00:00</time></trkpt><trkpt lat="30.47433221" lon="35.49821505"><ele>1317.6</ele><time>2015-11-24T11:25:40.0000000+00:00</time></trkpt><trkpt lat="30.47432207" lon="35.49820273"><ele>1318.1</ele><time>2015-11-24T11:25:41.0000000+00:00</time></trkpt><trkpt lat="30.47419592" lon="35.4980159"><ele>1319.1</ele><time>2015-11-24T11:25:54.0000000+00:00</time></trkpt><trkpt lat="30.47402174" lon="35.49779562"><ele>1322.0</ele><time>2015-11-24T11:26:11.0000000+00:00</time></trkpt><trkpt lat="30.47394957" lon="35.49769219"><ele>1323.4</ele><time>2015-11-24T11:26:18.0000000+00:00</time></trkpt><trkpt lat="30.47385536" lon="35.49758716"><ele>1324.8</ele><time>2015-11-24T11:26:26.0000000+00:00</time></trkpt><trkpt lat="30.47383675" lon="35.49756101"><ele>1326.3</ele><time>2015-11-24T11:26:28.0000000+00:00</time></trkpt><trkpt lat="30.47368663" lon="35.49736027"><ele>1328.7</ele><time>2015-11-24T11:26:42.0000000+00:00</time></trkpt><trkpt lat="30.4735402" lon="35.4971482"><ele>1330.1</ele><time>2015-11-24T11:26:57.0000000+00:00</time></trkpt><trkpt lat="30.47347616" lon="35.49708031"><ele>1331.6</ele><time>2015-11-24T11:27:03.0000000+00:00</time></trkpt><trkpt lat="30.47343375" lon="35.4969944"><ele>1333.0</ele><time>2015-11-24T11:27:08.0000000+00:00</time></trkpt><trkpt lat="30.47339679" lon="35.49696598"><ele>1334.5</ele><time>2015-11-24T11:27:11.0000000+00:00</time></trkpt><trkpt lat="30.47329025" lon="35.49674721"><ele>1337.3</ele><time>2015-11-24T11:27:24.0000000+00:00</time></trkpt><trkpt lat="30.47320803" lon="35.4965857"><ele>1339.7</ele><time>2015-11-24T11:27:35.0000000+00:00</time></trkpt><trkpt lat="30.47313712" lon="35.49643004"><ele>1341.7</ele><time>2015-11-24T11:27:45.0000000+00:00</time></trkpt><trkpt lat="30.47301491" lon="35.49621262"><ele>1343.1</ele><time>2015-11-24T11:28:00.0000000+00:00</time></trkpt><trkpt lat="30.47299655" lon="35.49617817"><ele>1342.1</ele><time>2015-11-24T11:28:02.0000000+00:00</time></trkpt><trkpt lat="30.4729782" lon="35.49614531"><ele>1342.6</ele><time>2015-11-24T11:28:10.0000000+00:00</time></trkpt><trkpt lat="30.47294433" lon="35.49617733"><ele>1342.1</ele><time>2015-11-24T11:28:45.0000000+00:00</time></trkpt><trkpt lat="30.47294894" lon="35.49618051"><ele>1342.6</ele><time>2015-11-24T11:29:29.0000000+00:00</time></trkpt><trkpt lat="30.47294475" lon="35.49617381"><ele>1342.6</ele><time>2015-11-24T11:30:09.0000000+00:00</time></trkpt><trkpt lat="30.47294953" lon="35.49616224"><ele>1343.6</ele><time>2015-11-24T11:30:18.0000000+00:00</time></trkpt><trkpt lat="30.47294224" lon="35.49618135"><ele>1344.1</ele><time>2015-11-24T11:30:58.0000000+00:00</time></trkpt><trkpt lat="30.47294316" lon="35.49617607"><ele>1342.6</ele><time>2015-11-24T11:31:40.0000000+00:00</time></trkpt><trkpt lat="30.47294308" lon="35.49619996"><ele>1342.6</ele><time>2015-11-24T11:32:14.0000000+00:00</time></trkpt><trkpt lat="30.47267871" lon="35.49625"><ele>1341.2</ele><time>2015-11-24T11:32:28.0000000+00:00</time></trkpt><trkpt lat="30.47223749" lon="35.49629903"><ele>1339.7</ele><time>2015-11-24T11:32:43.0000000+00:00</time></trkpt><trkpt lat="30.47219734" lon="35.49629803"><ele>1340.2</ele><time>2015-11-24T11:32:44.0000000+00:00</time></trkpt><trkpt lat="30.47200346" lon="35.49625847"><ele>1342.1</ele><time>2015-11-24T11:32:49.0000000+00:00</time></trkpt><trkpt lat="30.4717163" lon="35.4961412"><ele>1345.0</ele><time>2015-11-24T11:33:01.0000000+00:00</time></trkpt><trkpt lat="30.47142712" lon="35.49599586"><ele>1346.0</ele><time>2015-11-24T11:33:16.0000000+00:00</time></trkpt><trkpt lat="30.47113954" lon="35.49587063"><ele>1347.9</ele><time>2015-11-24T11:33:32.0000000+00:00</time></trkpt><trkpt lat="30.47109294" lon="35.49585069"><ele>1348.4</ele><time>2015-11-24T11:33:35.0000000+00:00</time></trkpt><trkpt lat="30.47099923" lon="35.49580861"><ele>1349.8</ele><time>2015-11-24T11:33:41.0000000+00:00</time></trkpt><trkpt lat="30.4709201" lon="35.49579193"><ele>1350.3</ele><time>2015-11-24T11:33:46.0000000+00:00</time></trkpt><trkpt lat="30.47087124" lon="35.49577743"><ele>1351.3</ele><time>2015-11-24T11:33:49.0000000+00:00</time></trkpt><trkpt lat="30.47082145" lon="35.49575354"><ele>1352.2</ele><time>2015-11-24T11:33:52.0000000+00:00</time></trkpt><trkpt lat="30.47071651" lon="35.49573133"><ele>1354.2</ele><time>2015-11-24T11:33:58.0000000+00:00</time></trkpt><trkpt lat="30.47048114" lon="35.49573342"><ele>1357.0</ele><time>2015-11-24T11:34:12.0000000+00:00</time></trkpt><trkpt lat="30.47046815" lon="35.49573879"><ele>1357.0</ele><time>2015-11-24T11:34:13.0000000+00:00</time></trkpt><trkpt lat="30.47031753" lon="35.4958242"><ele>1358.0</ele><time>2015-11-24T11:34:24.0000000+00:00</time></trkpt><trkpt lat="30.4701804" lon="35.49593559"><ele>1359.4</ele><time>2015-11-24T11:34:34.0000000+00:00</time></trkpt><trkpt lat="30.46995342" lon="35.49613073"><ele>1360.4</ele><time>2015-11-24T11:34:52.0000000+00:00</time></trkpt><trkpt lat="30.46991922" lon="35.49615637"><ele>1362.8</ele><time>2015-11-24T11:34:55.0000000+00:00</time></trkpt><trkpt lat="30.46981478" lon="35.49620507"><ele>1362.8</ele><time>2015-11-24T11:35:03.0000000+00:00</time></trkpt><trkpt lat="30.46976558" lon="35.49623935"><ele>1363.8</ele><time>2015-11-24T11:35:07.0000000+00:00</time></trkpt><trkpt lat="30.46954086" lon="35.49631806"><ele>1365.2</ele><time>2015-11-24T11:35:23.0000000+00:00</time></trkpt><trkpt lat="30.46945352" lon="35.49634446"><ele>1369.5</ele><time>2015-11-24T11:35:29.0000000+00:00</time></trkpt><trkpt lat="30.46944262" lon="35.49634404"><ele>1369.5</ele><time>2015-11-24T11:35:30.0000000+00:00</time></trkpt><trkpt lat="30.4694262" lon="35.4963567"><ele>1368.6</ele><time>2015-11-24T11:35:33.0000000+00:00</time></trkpt><trkpt lat="30.46929846" lon="35.49641253"><ele>1368.1</ele><time>2015-11-24T11:35:44.0000000+00:00</time></trkpt><trkpt lat="30.46924314" lon="35.49639484"><ele>1370.5</ele><time>2015-11-24T11:35:48.0000000+00:00</time></trkpt><trkpt lat="30.46912487" lon="35.49641479"><ele>1371.5</ele><time>2015-11-24T11:35:57.0000000+00:00</time></trkpt><trkpt lat="30.46904365" lon="35.49641093"><ele>1373.9</ele><time>2015-11-24T11:36:03.0000000+00:00</time></trkpt><trkpt lat="30.46895958" lon="35.496452"><ele>1374.3</ele><time>2015-11-24T11:36:11.0000000+00:00</time></trkpt><trkpt lat="30.46890501" lon="35.49646248"><ele>1374.3</ele><time>2015-11-24T11:36:15.0000000+00:00</time></trkpt><trkpt lat="30.46864056" lon="35.49648453"><ele>1375.3</ele><time>2015-11-24T11:36:33.0000000+00:00</time></trkpt><trkpt lat="30.46838407" lon="35.49650355"><ele>1377.2</ele><time>2015-11-24T11:36:49.0000000+00:00</time></trkpt><trkpt lat="30.468199" lon="35.49654957"><ele>1379.2</ele><time>2015-11-24T11:37:01.0000000+00:00</time></trkpt><trkpt lat="30.46794612" lon="35.4966504"><ele>1379.2</ele><time>2015-11-24T11:37:18.0000000+00:00</time></trkpt><trkpt lat="30.46769835" lon="35.49674168"><ele>1380.1</ele><time>2015-11-24T11:37:32.0000000+00:00</time></trkpt><trkpt lat="30.46744086" lon="35.49687034"><ele>1380.6</ele><time>2015-11-24T11:37:45.0000000+00:00</time></trkpt><trkpt lat="30.46702252" lon="35.49703823"><ele>1383.5</ele><time>2015-11-24T11:38:04.0000000+00:00</time></trkpt><trkpt lat="30.46671809" lon="35.49714628"><ele>1384.4</ele><time>2015-11-24T11:38:21.0000000+00:00</time></trkpt><trkpt lat="30.46650745" lon="35.49722398"><ele>1385.9</ele><time>2015-11-24T11:38:32.0000000+00:00</time></trkpt><trkpt lat="30.46618433" lon="35.49736379"><ele>1388.8</ele><time>2015-11-24T11:38:48.0000000+00:00</time></trkpt><trkpt lat="30.46593036" lon="35.49746454"><ele>1390.7</ele><time>2015-11-24T11:39:03.0000000+00:00</time></trkpt><trkpt lat="30.46576113" lon="35.49752162"><ele>1393.1</ele><time>2015-11-24T11:39:13.0000000+00:00</time></trkpt><trkpt lat="30.46546323" lon="35.49760561"><ele>1395.0</ele><time>2015-11-24T11:39:31.0000000+00:00</time></trkpt><trkpt lat="30.4652676" lon="35.4976543"><ele>1398.9</ele><time>2015-11-24T11:39:44.0000000+00:00</time></trkpt><trkpt lat="30.46503467" lon="35.49770577"><ele>1399.8</ele><time>2015-11-24T11:39:59.0000000+00:00</time></trkpt><trkpt lat="30.4648392" lon="35.49776109"><ele>1401.3</ele><time>2015-11-24T11:40:12.0000000+00:00</time></trkpt><trkpt lat="30.46459948" lon="35.49783133"><ele>1402.2</ele><time>2015-11-24T11:40:25.0000000+00:00</time></trkpt><trkpt lat="30.46429563" lon="35.49794155"><ele>1403.2</ele><time>2015-11-24T11:40:40.0000000+00:00</time></trkpt><trkpt lat="30.46409782" lon="35.49807834"><ele>1403.7</ele><time>2015-11-24T11:40:52.0000000+00:00</time></trkpt><trkpt lat="30.46399179" lon="35.49824699"><ele>1404.6</ele><time>2015-11-24T11:41:03.0000000+00:00</time></trkpt><trkpt lat="30.46391878" lon="35.49835713"><ele>1404.6</ele><time>2015-11-24T11:41:10.0000000+00:00</time></trkpt><trkpt lat="30.46379272" lon="35.49858143"><ele>1405.6</ele><time>2015-11-24T11:41:24.0000000+00:00</time></trkpt><trkpt lat="30.46377788" lon="35.49861554"><ele>1406.6</ele><time>2015-11-24T11:41:26.0000000+00:00</time></trkpt><trkpt lat="30.46371913" lon="35.49878578"><ele>1407.5</ele><time>2015-11-24T11:41:38.0000000+00:00</time></trkpt><trkpt lat="30.46367571" lon="35.49888041"><ele>1407.0</ele><time>2015-11-24T11:41:51.0000000+00:00</time></trkpt><trkpt lat="30.46366137" lon="35.49894378"><ele>1407.5</ele><time>2015-11-24T11:41:58.0000000+00:00</time></trkpt><trkpt lat="30.46364243" lon="35.49897336"><ele>1409.4</ele><time>2015-11-24T11:42:01.0000000+00:00</time></trkpt><trkpt lat="30.46359583" lon="35.49913161"><ele>1410.9</ele><time>2015-11-24T11:42:17.0000000+00:00</time></trkpt><trkpt lat="30.46358929" lon="35.49918593"><ele>1411.4</ele><time>2015-11-24T11:42:22.0000000+00:00</time></trkpt><trkpt lat="30.46361544" lon="35.49936673"><ele>1414.7</ele><time>2015-11-24T11:42:40.0000000+00:00</time></trkpt><trkpt lat="30.46363506" lon="35.49949237"><ele>1416.2</ele><time>2015-11-24T11:42:58.0000000+00:00</time></trkpt><trkpt lat="30.46368199" lon="35.49958474"><ele>1417.6</ele><time>2015-11-24T11:43:14.0000000+00:00</time></trkpt><trkpt lat="30.46371443" lon="35.49961114"><ele>1420.5</ele><time>2015-11-24T11:43:22.0000000+00:00</time></trkpt><trkpt lat="30.46374469" lon="35.49961844"><ele>1421.0</ele><time>2015-11-24T11:43:40.0000000+00:00</time></trkpt><trkpt lat="30.46378115" lon="35.49965615"><ele>1418.6</ele><time>2015-11-24T11:44:18.0000000+00:00</time></trkpt><trkpt lat="30.46377839" lon="35.49966143"><ele>1420.0</ele><time>2015-11-24T11:44:21.0000000+00:00</time></trkpt><trkpt lat="30.46379565" lon="35.49966319"><ele>1421.0</ele><time>2015-11-24T11:44:23.0000000+00:00</time></trkpt><trkpt lat="30.46388375" lon="35.49968365"><ele>1421.5</ele><time>2015-11-24T11:44:36.0000000+00:00</time></trkpt><trkpt lat="30.4639166" lon="35.49970904"><ele>1424.3</ele><time>2015-11-24T11:44:41.0000000+00:00</time></trkpt><trkpt lat="30.46396765" lon="35.49971759"><ele>1425.8</ele><time>2015-11-24T11:44:47.0000000+00:00</time></trkpt><trkpt lat="30.46410662" lon="35.4997357"><ele>1426.7</ele><time>2015-11-24T11:45:05.0000000+00:00</time></trkpt><trkpt lat="30.4642373" lon="35.49978557"><ele>1428.2</ele><time>2015-11-24T11:45:24.0000000+00:00</time></trkpt><trkpt lat="30.46427149" lon="35.49991499"><ele>1430.1</ele><time>2015-11-24T11:45:43.0000000+00:00</time></trkpt><trkpt lat="30.46425699" lon="35.49998187"><ele>1431.1</ele><time>2015-11-24T11:45:51.0000000+00:00</time></trkpt><trkpt lat="30.46418114" lon="35.50009017"><ele>1432.5</ele><time>2015-11-24T11:46:08.0000000+00:00</time></trkpt><trkpt lat="30.46413654" lon="35.50022512"><ele>1434.4</ele><time>2015-11-24T11:46:25.0000000+00:00</time></trkpt><trkpt lat="30.46412548" lon="35.50026652"><ele>1435.9</ele><time>2015-11-24T11:46:31.0000000+00:00</time></trkpt><trkpt lat="30.46411861" lon="35.50032629"><ele>1436.8</ele><time>2015-11-24T11:46:40.0000000+00:00</time></trkpt><trkpt lat="30.46416068" lon="35.50041664"><ele>1439.2</ele><time>2015-11-24T11:46:54.0000000+00:00</time></trkpt><trkpt lat="30.4642155" lon="35.50048588"><ele>1440.2</ele><time>2015-11-24T11:47:06.0000000+00:00</time></trkpt><trkpt lat="30.46422296" lon="35.50050206"><ele>1441.6</ele><time>2015-11-24T11:47:08.0000000+00:00</time></trkpt><trkpt lat="30.46430837" lon="35.50063734"><ele>1441.2</ele><time>2015-11-24T11:47:26.0000000+00:00</time></trkpt><trkpt lat="30.4643937" lon="35.50080615"><ele>1442.6</ele><time>2015-11-24T11:47:47.0000000+00:00</time></trkpt><trkpt lat="30.46442178" lon="35.50086952"><ele>1441.6</ele><time>2015-11-24T11:48:01.0000000+00:00</time></trkpt><trkpt lat="30.46443176" lon="35.50085267"><ele>1442.1</ele><time>2015-11-24T11:48:10.0000000+00:00</time></trkpt><trkpt lat="30.46443025" lon="35.50085066"><ele>1438.8</ele><time>2015-11-24T11:48:12.0000000+00:00</time></trkpt><trkpt lat="30.46442765" lon="35.50084521"><ele>1442.1</ele><time>2015-11-24T11:48:15.0000000+00:00</time></trkpt><trkpt lat="30.46442455" lon="35.50084613"><ele>1443.1</ele><time>2015-11-24T11:48:43.0000000+00:00</time></trkpt><trkpt lat="30.46442731" lon="35.50085988"><ele>1442.1</ele><time>2015-11-24T11:48:51.0000000+00:00</time></trkpt><trkpt lat="30.46442379" lon="35.50086541"><ele>1443.6</ele><time>2015-11-24T11:48:54.0000000+00:00</time></trkpt><trkpt lat="30.46442471" lon="35.5009059"><ele>1444.0</ele><time>2015-11-24T11:49:01.0000000+00:00</time></trkpt><trkpt lat="30.46442991" lon="35.50100849"><ele>1444.5</ele><time>2015-11-24T11:49:08.0000000+00:00</time></trkpt><trkpt lat="30.46439764" lon="35.50118736"><ele>1444.5</ele><time>2015-11-24T11:49:19.0000000+00:00</time></trkpt><trkpt lat="30.46438616" lon="35.50125626"><ele>1445.0</ele><time>2015-11-24T11:49:23.0000000+00:00</time></trkpt><trkpt lat="30.46438037" lon="35.50133044"><ele>1445.0</ele><time>2015-11-24T11:49:27.0000000+00:00</time></trkpt><trkpt lat="30.46436177" lon="35.50142147"><ele>1446.0</ele><time>2015-11-24T11:49:32.0000000+00:00</time></trkpt><trkpt lat="30.46432363" lon="35.50154384"><ele>1446.0</ele><time>2015-11-24T11:49:40.0000000+00:00</time></trkpt><trkpt lat="30.46428281" lon="35.50163051"><ele>1446.0</ele><time>2015-11-24T11:49:46.0000000+00:00</time></trkpt><trkpt lat="30.46420134" lon="35.50183872"><ele>1446.4</ele><time>2015-11-24T11:49:58.0000000+00:00</time></trkpt><trkpt lat="30.46417326" lon="35.50186395"><ele>1446.9</ele><time>2015-11-24T11:50:00.0000000+00:00</time></trkpt><trkpt lat="30.46414736" lon="35.50194182"><ele>1446.9</ele><time>2015-11-24T11:50:05.0000000+00:00</time></trkpt><trkpt lat="30.46412615" lon="35.50198272"><ele>1446.9</ele><time>2015-11-24T11:50:08.0000000+00:00</time></trkpt><trkpt lat="30.46409095" lon="35.50214382"><ele>1448.8</ele><time>2015-11-24T11:50:19.0000000+00:00</time></trkpt><trkpt lat="30.4640306" lon="35.5022646"><ele>1450.3</ele><time>2015-11-24T11:50:29.0000000+00:00</time></trkpt><trkpt lat="30.46400688" lon="35.50234431"><ele>1452.2</ele><time>2015-11-24T11:50:35.0000000+00:00</time></trkpt><trkpt lat="30.46393245" lon="35.50253869"><ele>1454.6</ele><time>2015-11-24T11:50:50.0000000+00:00</time></trkpt><trkpt lat="30.46391359" lon="35.50261857"><ele>1455.1</ele><time>2015-11-24T11:50:56.0000000+00:00</time></trkpt><trkpt lat="30.46388802" lon="35.50269283"><ele>1457.0</ele><time>2015-11-24T11:51:03.0000000+00:00</time></trkpt><trkpt lat="30.46386765" lon="35.50270013"><ele>1457.5</ele><time>2015-11-24T11:51:05.0000000+00:00</time></trkpt><trkpt lat="30.46384754" lon="35.50276835"><ele>1460.4</ele><time>2015-11-24T11:51:12.0000000+00:00</time></trkpt><trkpt lat="30.46384896" lon="35.50277255"><ele>1457.0</ele><time>2015-11-24T11:51:16.0000000+00:00</time></trkpt><trkpt lat="30.46385039" lon="35.5027759"><ele>1456.5</ele><time>2015-11-24T11:51:17.0000000+00:00</time></trkpt><trkpt lat="30.46380554" lon="35.50285871"><ele>1458.5</ele><time>2015-11-24T11:51:33.0000000+00:00</time></trkpt><trkpt lat="30.46379666" lon="35.50290179"><ele>1461.8</ele><time>2015-11-24T11:51:42.0000000+00:00</time></trkpt><trkpt lat="30.4637379" lon="35.50303507"><ele>1461.8</ele><time>2015-11-24T11:52:00.0000000+00:00</time></trkpt><trkpt lat="30.46370504" lon="35.50312123"><ele>1463.7</ele><time>2015-11-24T11:52:13.0000000+00:00</time></trkpt><trkpt lat="30.46365224" lon="35.50325023"><ele>1465.7</ele><time>2015-11-24T11:52:32.0000000+00:00</time></trkpt><trkpt lat="30.46359734" lon="35.50334553"><ele>1468.1</ele><time>2015-11-24T11:52:47.0000000+00:00</time></trkpt><trkpt lat="30.46353246" lon="35.50343606"><ele>1469.0</ele><time>2015-11-24T11:53:03.0000000+00:00</time></trkpt><trkpt lat="30.46340179" lon="35.50351652"><ele>1471.9</ele><time>2015-11-24T11:53:21.0000000+00:00</time></trkpt><trkpt lat="30.46332878" lon="35.50356187"><ele>1472.4</ele><time>2015-11-24T11:53:31.0000000+00:00</time></trkpt><trkpt lat="30.46320288" lon="35.5035819"><ele>1471.0</ele><time>2015-11-24T11:53:47.0000000+00:00</time></trkpt><trkpt lat="30.46309384" lon="35.50358886"><ele>1474.3</ele><time>2015-11-24T11:54:02.0000000+00:00</time></trkpt><trkpt lat="30.46298789" lon="35.50356036"><ele>1476.2</ele><time>2015-11-24T11:54:18.0000000+00:00</time></trkpt><trkpt lat="30.46290273" lon="35.50351309"><ele>1476.2</ele><time>2015-11-24T11:54:33.0000000+00:00</time></trkpt><trkpt lat="30.46286954" lon="35.50350512"><ele>1478.2</ele><time>2015-11-24T11:54:38.0000000+00:00</time></trkpt><trkpt lat="30.46280139" lon="35.50348333"><ele>1479.1</ele><time>2015-11-24T11:54:55.0000000+00:00</time></trkpt><trkpt lat="30.46279728" lon="35.50348165"><ele>1478.7</ele><time>2015-11-24T11:55:00.0000000+00:00</time></trkpt><trkpt lat="30.46276216" lon="35.50346204"><ele>1479.1</ele><time>2015-11-24T11:55:13.0000000+00:00</time></trkpt><trkpt lat="30.46261305" lon="35.50338669"><ele>1482.0</ele><time>2015-11-24T11:55:29.0000000+00:00</time></trkpt><trkpt lat="30.46243058" lon="35.50330278"><ele>1482.0</ele><time>2015-11-24T11:55:43.0000000+00:00</time></trkpt><trkpt lat="30.46237065" lon="35.50326657"><ele>1481.5</ele><time>2015-11-24T11:55:47.0000000+00:00</time></trkpt><trkpt lat="30.46213754" lon="35.50315551"><ele>1483.9</ele><time>2015-11-24T11:56:00.0000000+00:00</time></trkpt><trkpt lat="30.46180705" lon="35.50300389"><ele>1485.4</ele><time>2015-11-24T11:56:17.0000000+00:00</time></trkpt><trkpt lat="30.46178903" lon="35.5030038"><ele>1485.4</ele><time>2015-11-24T11:56:18.0000000+00:00</time></trkpt><trkpt lat="30.46171577" lon="35.50297623"><ele>1484.4</ele><time>2015-11-24T11:56:22.0000000+00:00</time></trkpt><trkpt lat="30.46146926" lon="35.50299542"><ele>1486.3</ele><time>2015-11-24T11:56:36.0000000+00:00</time></trkpt><trkpt lat="30.46132651" lon="35.5030846"><ele>1487.3</ele><time>2015-11-24T11:56:45.0000000+00:00</time></trkpt><trkpt lat="30.46121612" lon="35.50326557"><ele>1490.2</ele><time>2015-11-24T11:56:56.0000000+00:00</time></trkpt><trkpt lat="30.46119902" lon="35.50329885"><ele>1490.7</ele><time>2015-11-24T11:56:58.0000000+00:00</time></trkpt><trkpt lat="30.46115963" lon="35.50340094"><ele>1493.1</ele><time>2015-11-24T11:57:10.0000000+00:00</time></trkpt><trkpt lat="30.46114488" lon="35.5035094"><ele>1495.0</ele><time>2015-11-24T11:57:25.0000000+00:00</time></trkpt><trkpt lat="30.46109945" lon="35.50368676"><ele>1497.4</ele><time>2015-11-24T11:57:46.0000000+00:00</time></trkpt><trkpt lat="30.46107279" lon="35.50377427"><ele>1500.8</ele><time>2015-11-24T11:58:00.0000000+00:00</time></trkpt><trkpt lat="30.46104052" lon="35.5038005"><ele>1499.3</ele><time>2015-11-24T11:58:06.0000000+00:00</time></trkpt><trkpt lat="30.46102309" lon="35.50398901"><ele>1500.8</ele><time>2015-11-24T11:58:25.0000000+00:00</time></trkpt><trkpt lat="30.46099425" lon="35.50415942"><ele>1503.2</ele><time>2015-11-24T11:58:46.0000000+00:00</time></trkpt><trkpt lat="30.460979" lon="35.5043071"><ele>1505.1</ele><time>2015-11-24T11:59:04.0000000+00:00</time></trkpt><trkpt lat="30.46095695" lon="35.50445764"><ele>1507.5</ele><time>2015-11-24T11:59:23.0000000+00:00</time></trkpt><trkpt lat="30.46092971" lon="35.50462285"><ele>1509.4</ele><time>2015-11-24T11:59:43.0000000+00:00</time></trkpt><trkpt lat="30.46091571" lon="35.50478244"><ele>1509.9</ele><time>2015-11-24T12:00:01.0000000+00:00</time></trkpt><trkpt lat="30.46090473" lon="35.50492493"><ele>1510.9</ele><time>2015-11-24T12:00:19.0000000+00:00</time></trkpt><trkpt lat="30.46090507" lon="35.50509668"><ele>1513.3</ele><time>2015-11-24T12:00:41.0000000+00:00</time></trkpt><trkpt lat="30.46089761" lon="35.505281"><ele>1515.7</ele><time>2015-11-24T12:01:03.0000000+00:00</time></trkpt><trkpt lat="30.46087389" lon="35.50535216"><ele>1517.6</ele><time>2015-11-24T12:01:13.0000000+00:00</time></trkpt><trkpt lat="30.46084606" lon="35.5054908"><ele>1518.5</ele><time>2015-11-24T12:01:28.0000000+00:00</time></trkpt><trkpt lat="30.4607759" lon="35.50562792"><ele>1521.9</ele><time>2015-11-24T12:01:47.0000000+00:00</time></trkpt><trkpt lat="30.46069468" lon="35.50571158"><ele>1521.9</ele><time>2015-11-24T12:02:02.0000000+00:00</time></trkpt><trkpt lat="30.46064691" lon="35.50573144"><ele>1521.4</ele><time>2015-11-24T12:02:12.0000000+00:00</time></trkpt><trkpt lat="30.4606086" lon="35.50574527"><ele>1524.8</ele><time>2015-11-24T12:02:16.0000000+00:00</time></trkpt><trkpt lat="30.46058103" lon="35.5057555"><ele>1521.4</ele><time>2015-11-24T12:02:22.0000000+00:00</time></trkpt><trkpt lat="30.46042646" lon="35.50582381"><ele>1520.9</ele><time>2015-11-24T12:02:34.0000000+00:00</time></trkpt><trkpt lat="30.46032093" lon="35.50586823"><ele>1520.0</ele><time>2015-11-24T12:02:39.0000000+00:00</time></trkpt><trkpt lat="30.46009077" lon="35.50600486"><ele>1520.9</ele><time>2015-11-24T12:02:50.0000000+00:00</time></trkpt><trkpt lat="30.45983747" lon="35.5061585"><ele>1521.4</ele><time>2015-11-24T12:03:04.0000000+00:00</time></trkpt><trkpt lat="30.45967352" lon="35.50639537"><ele>1525.3</ele><time>2015-11-24T12:03:17.0000000+00:00</time></trkpt><trkpt lat="30.45955349" lon="35.50672704"><ele>1528.2</ele><time>2015-11-24T12:03:32.0000000+00:00</time></trkpt><trkpt lat="30.45942491" lon="35.50693408"><ele>1530.6</ele><time>2015-11-24T12:03:44.0000000+00:00</time></trkpt><trkpt lat="30.45941125" lon="35.50693433"><ele>1531.5</ele><time>2015-11-24T12:03:45.0000000+00:00</time></trkpt><trkpt lat="30.45940043" lon="35.50692938"><ele>1533.0</ele><time>2015-11-24T12:03:46.0000000+00:00</time></trkpt><trkpt lat="30.45939121" lon="35.50692368"><ele>1533.9</ele><time>2015-11-24T12:03:47.0000000+00:00</time></trkpt><trkpt lat="30.45938032" lon="35.50691597"><ele>1533.0</ele><time>2015-11-24T12:03:48.0000000+00:00</time></trkpt><trkpt lat="30.45930563" lon="35.50686015"><ele>1534.4</ele><time>2015-11-24T12:03:53.0000000+00:00</time></trkpt><trkpt lat="30.4592333" lon="35.50681371"><ele>1532.5</ele><time>2015-11-24T12:03:57.0000000+00:00</time></trkpt><trkpt lat="30.45920078" lon="35.50680818"><ele>1532.0</ele><time>2015-11-24T12:03:59.0000000+00:00</time></trkpt><trkpt lat="30.45918636" lon="35.50680106"><ele>1532.0</ele><time>2015-11-24T12:04:00.0000000+00:00</time></trkpt><trkpt lat="30.45899534" lon="35.50658464"><ele>1532.0</ele><time>2015-11-24T12:04:13.0000000+00:00</time></trkpt><trkpt lat="30.45897262" lon="35.50657491"><ele>1532.5</ele><time>2015-11-24T12:04:24.0000000+00:00</time></trkpt><trkpt lat="30.45897204" lon="35.50657215"><ele>1535.4</ele><time>2015-11-24T12:04:33.0000000+00:00</time></trkpt><trkpt lat="30.45897111" lon="35.50657349"><ele>1534.9</ele><time>2015-11-24T12:04:34.0000000+00:00</time></trkpt><trkpt lat="30.45896851" lon="35.5065765"><ele>1531.5</ele><time>2015-11-24T12:04:37.0000000+00:00</time></trkpt><trkpt lat="30.45897011" lon="35.50657785"><ele>1532.0</ele><time>2015-11-24T12:04:38.0000000+00:00</time></trkpt><trkpt lat="30.45897279" lon="35.50657592"><ele>1532.5</ele><time>2015-11-24T12:05:07.0000000+00:00</time></trkpt><trkpt lat="30.458981" lon="35.50657458"><ele>1532.0</ele><time>2015-11-24T12:05:33.0000000+00:00</time></trkpt><trkpt lat="30.45898167" lon="35.50658464"><ele>1532.0</ele><time>2015-11-24T12:05:57.0000000+00:00</time></trkpt><trkpt lat="30.45890079" lon="35.50650911"><ele>1533.0</ele><time>2015-11-24T12:06:20.0000000+00:00</time></trkpt><trkpt lat="30.45866241" lon="35.50637031"><ele>1534.9</ele><time>2015-11-24T12:06:34.0000000+00:00</time></trkpt><trkpt lat="30.45836125" lon="35.50632522"><ele>1536.8</ele><time>2015-11-24T12:06:49.0000000+00:00</time></trkpt><trkpt lat="30.45821917" lon="35.50634298"><ele>1537.3</ele><time>2015-11-24T12:06:58.0000000+00:00</time></trkpt><trkpt lat="30.45815815" lon="35.50633905"><ele>1537.8</ele><time>2015-11-24T12:07:03.0000000+00:00</time></trkpt><trkpt lat="30.45801952" lon="35.50633234"><ele>1541.1</ele><time>2015-11-24T12:07:14.0000000+00:00</time></trkpt><trkpt lat="30.45789488" lon="35.50634692"><ele>1540.2</ele><time>2015-11-24T12:07:23.0000000+00:00</time></trkpt><trkpt lat="30.45769849" lon="35.50632446"><ele>1540.2</ele><time>2015-11-24T12:07:33.0000000+00:00</time></trkpt><trkpt lat="30.45732784" lon="35.50612522"><ele>1539.7</ele><time>2015-11-24T12:07:48.0000000+00:00</time></trkpt><trkpt lat="30.45695946" lon="35.5059"><ele>1541.6</ele><time>2015-11-24T12:08:04.0000000+00:00</time></trkpt><trkpt lat="30.45687329" lon="35.50588123"><ele>1542.1</ele><time>2015-11-24T12:08:15.0000000+00:00</time></trkpt><trkpt lat="30.45681017" lon="35.50586354"><ele>1542.1</ele><time>2015-11-24T12:08:35.0000000+00:00</time></trkpt><trkpt lat="30.45670465" lon="35.50585432"><ele>1543.5</ele><time>2015-11-24T12:08:44.0000000+00:00</time></trkpt><trkpt lat="30.45663038" lon="35.5058399"><ele>1544.0</ele><time>2015-11-24T12:08:50.0000000+00:00</time></trkpt><trkpt lat="30.45642771" lon="35.50584912"><ele>1546.4</ele><time>2015-11-24T12:09:07.0000000+00:00</time></trkpt><trkpt lat="30.45638999" lon="35.50584099"><ele>1546.9</ele><time>2015-11-24T12:09:10.0000000+00:00</time></trkpt><trkpt lat="30.45634062" lon="35.50583647"><ele>1547.9</ele><time>2015-11-24T12:09:14.0000000+00:00</time></trkpt><trkpt lat="30.45629519" lon="35.50581492"><ele>1547.9</ele><time>2015-11-24T12:09:18.0000000+00:00</time></trkpt><trkpt lat="30.45621137" lon="35.50580093"><ele>1548.3</ele><time>2015-11-24T12:09:27.0000000+00:00</time></trkpt><trkpt lat="30.45594919" lon="35.50582515"><ele>1550.3</ele><time>2015-11-24T12:09:44.0000000+00:00</time></trkpt><trkpt lat="30.4558564" lon="35.50583848"><ele>1551.2</ele><time>2015-11-24T12:09:50.0000000+00:00</time></trkpt><trkpt lat="30.45561265" lon="35.50586035"><ele>1554.1</ele><time>2015-11-24T12:10:06.0000000+00:00</time></trkpt><trkpt lat="30.45544216" lon="35.50585784"><ele>1556.5</ele><time>2015-11-24T12:10:18.0000000+00:00</time></trkpt><trkpt lat="30.45539808" lon="35.50586035"><ele>1557.5</ele><time>2015-11-24T12:10:21.0000000+00:00</time></trkpt><trkpt lat="30.4552933" lon="35.50578291"><ele>1560.4</ele><time>2015-11-24T12:10:30.0000000+00:00</time></trkpt><trkpt lat="30.45525223" lon="35.50573664"><ele>1561.8</ele><time>2015-11-24T12:10:34.0000000+00:00</time></trkpt><trkpt lat="30.4552296" lon="35.50571795"><ele>1562.8</ele><time>2015-11-24T12:10:36.0000000+00:00</time></trkpt><trkpt lat="30.45517202" lon="35.5057301"><ele>1562.3</ele><time>2015-11-24T12:10:41.0000000+00:00</time></trkpt><trkpt lat="30.45513757" lon="35.50573588"><ele>1562.3</ele><time>2015-11-24T12:10:44.0000000+00:00</time></trkpt><trkpt lat="30.45510303" lon="35.50573613"><ele>1563.7</ele><time>2015-11-24T12:10:47.0000000+00:00</time></trkpt><trkpt lat="30.45507772" lon="35.50573714"><ele>1564.2</ele><time>2015-11-24T12:10:49.0000000+00:00</time></trkpt><trkpt lat="30.45494034" lon="35.50575005"><ele>1566.6</ele><time>2015-11-24T12:10:59.0000000+00:00</time></trkpt><trkpt lat="30.4549012" lon="35.50574904"><ele>1570.9</ele><time>2015-11-24T12:11:02.0000000+00:00</time></trkpt><trkpt lat="30.45488996" lon="35.50574594"><ele>1570.0</ele><time>2015-11-24T12:11:03.0000000+00:00</time></trkpt><trkpt lat="30.45486541" lon="35.50574125"><ele>1568.5</ele><time>2015-11-24T12:11:05.0000000+00:00</time></trkpt><trkpt lat="30.45469475" lon="35.50573203"><ele>1570.9</ele><time>2015-11-24T12:11:21.0000000+00:00</time></trkpt><trkpt lat="30.45465829" lon="35.50573295"><ele>1570.5</ele><time>2015-11-24T12:11:24.0000000+00:00</time></trkpt><trkpt lat="30.45460138" lon="35.50574326"><ele>1572.4</ele><time>2015-11-24T12:11:29.0000000+00:00</time></trkpt><trkpt lat="30.45457816" lon="35.50575743"><ele>1570.5</ele><time>2015-11-24T12:11:31.0000000+00:00</time></trkpt><trkpt lat="30.45451622" lon="35.50577612"><ele>1572.4</ele><time>2015-11-24T12:11:36.0000000+00:00</time></trkpt><trkpt lat="30.45450708" lon="35.50578165"><ele>1570.9</ele><time>2015-11-24T12:11:37.0000000+00:00</time></trkpt><trkpt lat="30.45447204" lon="35.50578559"><ele>1572.9</ele><time>2015-11-24T12:11:40.0000000+00:00</time></trkpt><trkpt lat="30.45437967" lon="35.50581358"><ele>1571.4</ele><time>2015-11-24T12:11:48.0000000+00:00</time></trkpt><trkpt lat="30.4543676" lon="35.50581476"><ele>1574.3</ele><time>2015-11-24T12:11:49.0000000+00:00</time></trkpt><trkpt lat="30.45430457" lon="35.50584217"><ele>1576.2</ele><time>2015-11-24T12:11:54.0000000+00:00</time></trkpt><trkpt lat="30.45427716" lon="35.50585264"><ele>1573.3</ele><time>2015-11-24T12:11:56.0000000+00:00</time></trkpt><trkpt lat="30.45413509" lon="35.50591987"><ele>1577.7</ele><time>2015-11-24T12:12:06.0000000+00:00</time></trkpt><trkpt lat="30.45409276" lon="35.5059399"><ele>1574.3</ele><time>2015-11-24T12:12:09.0000000+00:00</time></trkpt><trkpt lat="30.45400886" lon="35.5059881"><ele>1575.3</ele><time>2015-11-24T12:12:15.0000000+00:00</time></trkpt><trkpt lat="30.45390652" lon="35.50602062"><ele>1573.8</ele><time>2015-11-24T12:12:20.0000000+00:00</time></trkpt><trkpt lat="30.45376495" lon="35.50603445"><ele>1573.3</ele><time>2015-11-24T12:12:25.0000000+00:00</time></trkpt><trkpt lat="30.45364156" lon="35.50605029"><ele>1573.8</ele><time>2015-11-24T12:12:29.0000000+00:00</time></trkpt><trkpt lat="30.45355682" lon="35.50606202"><ele>1571.4</ele><time>2015-11-24T12:12:32.0000000+00:00</time></trkpt><trkpt lat="30.45313362" lon="35.5060777"><ele>1570.0</ele><time>2015-11-24T12:12:48.0000000+00:00</time></trkpt><trkpt lat="30.45279122" lon="35.50605339"><ele>1571.4</ele><time>2015-11-24T12:13:03.0000000+00:00</time></trkpt><trkpt lat="30.45252107" lon="35.50600503"><ele>1572.9</ele><time>2015-11-24T12:13:17.0000000+00:00</time></trkpt><trkpt lat="30.45229191" lon="35.50593512"><ele>1573.3</ele><time>2015-11-24T12:13:31.0000000+00:00</time></trkpt><trkpt lat="30.45216224" lon="35.50591517"><ele>1574.8</ele><time>2015-11-24T12:13:40.0000000+00:00</time></trkpt><trkpt lat="30.45209393" lon="35.50591358"><ele>1574.8</ele><time>2015-11-24T12:13:45.0000000+00:00</time></trkpt><trkpt lat="30.45183803" lon="35.50592121"><ele>1576.2</ele><time>2015-11-24T12:14:01.0000000+00:00</time></trkpt><trkpt lat="30.45178841" lon="35.50593554"><ele>1577.2</ele><time>2015-11-24T12:14:04.0000000+00:00</time></trkpt><trkpt lat="30.45161851" lon="35.5060295"><ele>1577.2</ele><time>2015-11-24T12:14:17.0000000+00:00</time></trkpt><trkpt lat="30.45149563" lon="35.50612614"><ele>1578.1</ele><time>2015-11-24T12:14:30.0000000+00:00</time></trkpt><trkpt lat="30.4514352" lon="35.50617233"><ele>1578.6</ele><time>2015-11-24T12:14:36.0000000+00:00</time></trkpt><trkpt lat="30.45130645" lon="35.50625657"><ele>1580.1</ele><time>2015-11-24T12:14:47.0000000+00:00</time></trkpt><trkpt lat="30.45124241" lon="35.50629923"><ele>1580.1</ele><time>2015-11-24T12:14:52.0000000+00:00</time></trkpt><trkpt lat="30.45111534" lon="35.50638691"><ele>1580.5</ele><time>2015-11-24T12:15:02.0000000+00:00</time></trkpt><trkpt lat="30.45089171" lon="35.50645228"><ele>1581.5</ele><time>2015-11-24T12:15:16.0000000+00:00</time></trkpt><trkpt lat="30.45056432" lon="35.50655236"><ele>1582.5</ele><time>2015-11-24T12:15:34.0000000+00:00</time></trkpt><trkpt lat="30.45032023" lon="35.50661162"><ele>1583.4</ele><time>2015-11-24T12:15:47.0000000+00:00</time></trkpt><trkpt lat="30.45004221" lon="35.50667114"><ele>1585.8</ele><time>2015-11-24T12:16:02.0000000+00:00</time></trkpt><trkpt lat="30.44978069" lon="35.50671967"><ele>1587.8</ele><time>2015-11-24T12:16:16.0000000+00:00</time></trkpt><trkpt lat="30.44969981" lon="35.50677247"><ele>1588.2</ele><time>2015-11-24T12:16:23.0000000+00:00</time></trkpt><trkpt lat="30.44954424" lon="35.50682209"><ele>1589.2</ele><time>2015-11-24T12:16:34.0000000+00:00</time></trkpt><trkpt lat="30.44922841" lon="35.50685981"><ele>1589.7</ele><time>2015-11-24T12:16:51.0000000+00:00</time></trkpt><trkpt lat="30.44897511" lon="35.50684439"><ele>1592.1</ele><time>2015-11-24T12:17:06.0000000+00:00</time></trkpt><trkpt lat="30.44871887" lon="35.50676418"><ele>1592.6</ele><time>2015-11-24T12:17:20.0000000+00:00</time></trkpt><trkpt lat="30.44847638" lon="35.50669796"><ele>1590.6</ele><time>2015-11-24T12:17:33.0000000+00:00</time></trkpt><trkpt lat="30.44815376" lon="35.50662043"><ele>1589.2</ele><time>2015-11-24T12:17:48.0000000+00:00</time></trkpt><trkpt lat="30.44789962" lon="35.50659327"><ele>1589.7</ele><time>2015-11-24T12:18:02.0000000+00:00</time></trkpt><trkpt lat="30.44784539" lon="35.50658179"><ele>1591.1</ele><time>2015-11-24T12:18:05.0000000+00:00</time></trkpt><trkpt lat="30.44775755" lon="35.50654273"><ele>1592.1</ele><time>2015-11-24T12:18:10.0000000+00:00</time></trkpt><trkpt lat="30.44752479" lon="35.50650643"><ele>1591.6</ele><time>2015-11-24T12:18:23.0000000+00:00</time></trkpt><trkpt lat="30.44748941" lon="35.50650501"><ele>1592.1</ele><time>2015-11-24T12:18:25.0000000+00:00</time></trkpt><trkpt lat="30.44737617" lon="35.50651657"><ele>1592.6</ele><time>2015-11-24T12:18:33.0000000+00:00</time></trkpt><trkpt lat="30.44734483" lon="35.50651724"><ele>1592.1</ele><time>2015-11-24T12:18:35.0000000+00:00</time></trkpt><trkpt lat="30.44710502" lon="35.50650442"><ele>1593.5</ele><time>2015-11-24T12:18:50.0000000+00:00</time></trkpt><trkpt lat="30.44700846" lon="35.50650107"><ele>1594.0</ele><time>2015-11-24T12:18:56.0000000+00:00</time></trkpt><trkpt lat="30.44671602" lon="35.5064745"><ele>1594.5</ele><time>2015-11-24T12:19:12.0000000+00:00</time></trkpt><trkpt lat="30.44657612" lon="35.50643812"><ele>1595.0</ele><time>2015-11-24T12:19:20.0000000+00:00</time></trkpt><trkpt lat="30.44649591" lon="35.50642974"><ele>1595.5</ele><time>2015-11-24T12:19:25.0000000+00:00</time></trkpt><trkpt lat="30.44623313" lon="35.50631566"><ele>1595.0</ele><time>2015-11-24T12:19:40.0000000+00:00</time></trkpt><trkpt lat="30.44596676" lon="35.50619077"><ele>1595.5</ele><time>2015-11-24T12:19:55.0000000+00:00</time></trkpt><trkpt lat="30.44563316" lon="35.50609128"><ele>1596.4</ele><time>2015-11-24T12:20:14.0000000+00:00</time></trkpt><trkpt lat="30.44556677" lon="35.50609086"><ele>1595.9</ele><time>2015-11-24T12:20:18.0000000+00:00</time></trkpt><trkpt lat="30.44533216" lon="35.50608876"><ele>1597.9</ele><time>2015-11-24T12:20:34.0000000+00:00</time></trkpt><trkpt lat="30.44531523" lon="35.50608373"><ele>1597.4</ele><time>2015-11-24T12:20:48.0000000+00:00</time></trkpt><trkpt lat="30.44529629" lon="35.50608968"><ele>1597.4</ele><time>2015-11-24T12:20:50.0000000+00:00</time></trkpt><trkpt lat="30.44521901" lon="35.50610234"><ele>1597.4</ele><time>2015-11-24T12:20:56.0000000+00:00</time></trkpt><trkpt lat="30.44501114" lon="35.50612003"><ele>1598.8</ele><time>2015-11-24T12:21:10.0000000+00:00</time></trkpt><trkpt lat="30.44497518" lon="35.5061217"><ele>1600.3</ele><time>2015-11-24T12:21:12.0000000+00:00</time></trkpt><trkpt lat="30.44471534" lon="35.50614995"><ele>1602.2</ele><time>2015-11-24T12:21:27.0000000+00:00</time></trkpt><trkpt lat="30.44450722" lon="35.5061694"><ele>1603.6</ele><time>2015-11-24T12:21:40.0000000+00:00</time></trkpt><trkpt lat="30.44428694" lon="35.5062279"><ele>1605.1</ele><time>2015-11-24T12:21:54.0000000+00:00</time></trkpt><trkpt lat="30.44397631" lon="35.50625841"><ele>1605.1</ele><time>2015-11-24T12:22:09.0000000+00:00</time></trkpt><trkpt lat="30.4435982" lon="35.50614844"><ele>1606.0</ele><time>2015-11-24T12:22:26.0000000+00:00</time></trkpt><trkpt lat="30.44330441" lon="35.50605859"><ele>1605.1</ele><time>2015-11-24T12:22:40.0000000+00:00</time></trkpt><trkpt lat="30.44329343" lon="35.50605113"><ele>1604.6</ele><time>2015-11-24T12:22:41.0000000+00:00</time></trkpt><trkpt lat="30.44327223" lon="35.5060492"><ele>1603.6</ele><time>2015-11-24T12:22:55.0000000+00:00</time></trkpt><trkpt lat="30.44327139" lon="35.50604308"><ele>1605.5</ele><time>2015-11-24T12:23:03.0000000+00:00</time></trkpt><trkpt lat="30.44319319" lon="35.50601291"><ele>1605.5</ele><time>2015-11-24T12:23:16.0000000+00:00</time></trkpt><trkpt lat="30.44310115" lon="35.50597158"><ele>1607.5</ele><time>2015-11-24T12:23:26.0000000+00:00</time></trkpt><trkpt lat="30.44283209" lon="35.50567377"><ele>1604.6</ele><time>2015-11-24T12:23:42.0000000+00:00</time></trkpt><trkpt lat="30.44276412" lon="35.50557923"><ele>1604.6</ele><time>2015-11-24T12:23:52.0000000+00:00</time></trkpt><trkpt lat="30.44277107" lon="35.50557788"><ele>1605.1</ele><time>2015-11-24T12:24:16.0000000+00:00</time></trkpt><trkpt lat="30.44276504" lon="35.5055773"><ele>1603.6</ele><time>2015-11-24T12:24:44.0000000+00:00</time></trkpt><trkpt lat="30.44276739" lon="35.50557445"><ele>1605.5</ele><time>2015-11-24T12:25:05.0000000+00:00</time></trkpt><trkpt lat="30.44276739" lon="35.50557545"><ele>1606.5</ele><time>2015-11-24T12:25:07.0000000+00:00</time></trkpt><trkpt lat="30.44269044" lon="35.5054877"><ele>1606.0</ele><time>2015-11-24T12:25:19.0000000+00:00</time></trkpt><trkpt lat="30.44244099" lon="35.50518016"><ele>1603.6</ele><time>2015-11-24T12:25:32.0000000+00:00</time></trkpt><trkpt lat="30.44221443" lon="35.50500632"><ele>1607.0</ele><time>2015-11-24T12:25:42.0000000+00:00</time></trkpt><trkpt lat="30.4420996" lon="35.50494572"><ele>1610.8</ele><time>2015-11-24T12:25:47.0000000+00:00</time></trkpt><trkpt lat="30.44195602" lon="35.50490566"><ele>1608.4</ele><time>2015-11-24T12:25:53.0000000+00:00</time></trkpt><trkpt lat="30.44166299" lon="35.50483801"><ele>1607.9</ele><time>2015-11-24T12:26:07.0000000+00:00</time></trkpt><trkpt lat="30.44162091" lon="35.50480633"><ele>1608.4</ele><time>2015-11-24T12:26:10.0000000+00:00</time></trkpt><trkpt lat="30.44158034" lon="35.50477934"><ele>1609.9</ele><time>2015-11-24T12:26:21.0000000+00:00</time></trkpt><trkpt lat="30.44157355" lon="35.50476392"><ele>1608.4</ele><time>2015-11-24T12:26:24.0000000+00:00</time></trkpt><trkpt lat="30.44156819" lon="35.50473969"><ele>1607.0</ele><time>2015-11-24T12:26:32.0000000+00:00</time></trkpt><trkpt lat="30.44157213" lon="35.50473701"><ele>1605.5</ele><time>2015-11-24T12:26:35.0000000+00:00</time></trkpt><trkpt lat="30.44157933" lon="35.50472695"><ele>1605.5</ele><time>2015-11-24T12:27:21.0000000+00:00</time></trkpt><trkpt lat="30.44159275" lon="35.50471815"><ele>1607.0</ele><time>2015-11-24T12:28:26.0000000+00:00</time></trkpt><trkpt lat="30.44159417" lon="35.50471765"><ele>1606.0</ele><time>2015-11-24T12:28:30.0000000+00:00</time></trkpt><trkpt lat="30.44159241" lon="35.50471706"><ele>1606.5</ele><time>2015-11-24T12:29:22.0000000+00:00</time></trkpt><trkpt lat="30.441594" lon="35.50471027"><ele>1606.5</ele><time>2015-11-24T12:30:27.0000000+00:00</time></trkpt><trkpt lat="30.44159409" lon="35.50471698"><ele>1606.0</ele><time>2015-11-24T12:31:38.0000000+00:00</time></trkpt><trkpt lat="30.44159375" lon="35.50471799"><ele>1606.0</ele><time>2015-11-24T12:32:40.0000000+00:00</time></trkpt><trkpt lat="30.44158948" lon="35.50471799"><ele>1605.5</ele><time>2015-11-24T12:33:34.0000000+00:00</time></trkpt><trkpt lat="30.44159995" lon="35.50472192"><ele>1606.0</ele><time>2015-11-24T12:34:24.0000000+00:00</time></trkpt><trkpt lat="30.44159694" lon="35.50470659"><ele>1604.6</ele><time>2015-11-24T12:35:18.0000000+00:00</time></trkpt><trkpt lat="30.44159769" lon="35.50471648"><ele>1605.1</ele><time>2015-11-24T12:36:04.0000000+00:00</time></trkpt><trkpt lat="30.44159761" lon="35.50471555"><ele>1606.0</ele><time>2015-11-24T12:36:51.0000000+00:00</time></trkpt><trkpt lat="30.44161202" lon="35.50471254"><ele>1606.5</ele><time>2015-11-24T12:37:49.0000000+00:00</time></trkpt><trkpt lat="30.44159903" lon="35.50471178"><ele>1605.1</ele><time>2015-11-24T12:38:41.0000000+00:00</time></trkpt><trkpt lat="30.44159744" lon="35.50472092"><ele>1604.6</ele><time>2015-11-24T12:39:32.0000000+00:00</time></trkpt><trkpt lat="30.44160272" lon="35.50469988"><ele>1605.5</ele><time>2015-11-24T12:40:11.0000000+00:00</time></trkpt><trkpt lat="30.44160817" lon="35.50470139"><ele>1605.5</ele><time>2015-11-24T12:40:24.0000000+00:00</time></trkpt><trkpt lat="30.44160389" lon="35.50471078"><ele>1605.1</ele><time>2015-11-24T12:40:43.0000000+00:00</time></trkpt><trkpt lat="30.44160515" lon="35.50470918"><ele>1606.5</ele><time>2015-11-24T12:41:32.0000000+00:00</time></trkpt><trkpt lat="30.4415997" lon="35.50472109"><ele>1607.5</ele><time>2015-11-24T12:42:12.0000000+00:00</time></trkpt><trkpt lat="30.44159149" lon="35.50472109"><ele>1608.9</ele><time>2015-11-24T12:42:13.0000000+00:00</time></trkpt><trkpt lat="30.44156718" lon="35.50470315"><ele>1609.4</ele><time>2015-11-24T12:42:26.0000000+00:00</time></trkpt><trkpt lat="30.44153893" lon="35.50471706"><ele>1606.0</ele><time>2015-11-24T12:42:36.0000000+00:00</time></trkpt><trkpt lat="30.44149769" lon="35.50474179"><ele>1613.2</ele><time>2015-11-24T12:42:46.0000000+00:00</time></trkpt><trkpt lat="30.44149015" lon="35.50474321"><ele>1615.2</ele><time>2015-11-24T12:42:47.0000000+00:00</time></trkpt><trkpt lat="30.4414588" lon="35.50473592"><ele>1616.6</ele><time>2015-11-24T12:42:50.0000000+00:00</time></trkpt><trkpt lat="30.44144598" lon="35.50473416"><ele>1616.6</ele><time>2015-11-24T12:42:51.0000000+00:00</time></trkpt><trkpt lat="30.44136954" lon="35.50473919"><ele>1612.8</ele><time>2015-11-24T12:42:57.0000000+00:00</time></trkpt><trkpt lat="30.44116611" lon="35.50469343"><ele>1613.7</ele><time>2015-11-24T12:43:10.0000000+00:00</time></trkpt><trkpt lat="30.44095539" lon="35.50465294"><ele>1614.2</ele><time>2015-11-24T12:43:23.0000000+00:00</time></trkpt><trkpt lat="30.44076445" lon="35.50460734"><ele>1615.6</ele><time>2015-11-24T12:43:35.0000000+00:00</time></trkpt><trkpt lat="30.44073117" lon="35.50460617"><ele>1616.6</ele><time>2015-11-24T12:43:37.0000000+00:00</time></trkpt><trkpt lat="30.44058558" lon="35.50461237"><ele>1616.6</ele><time>2015-11-24T12:43:49.0000000+00:00</time></trkpt><trkpt lat="30.44057367" lon="35.50461254"><ele>1617.6</ele><time>2015-11-24T12:43:51.0000000+00:00</time></trkpt><trkpt lat="30.4405637" lon="35.5046133"><ele>1616.6</ele><time>2015-11-24T12:43:52.0000000+00:00</time></trkpt><trkpt lat="30.440515" lon="35.50461782"><ele>1617.6</ele><time>2015-11-24T12:43:56.0000000+00:00</time></trkpt><trkpt lat="30.44037058" lon="35.50460785"><ele>1618.5</ele><time>2015-11-24T12:44:06.0000000+00:00</time></trkpt><trkpt lat="30.44023672" lon="35.50461095"><ele>1619.5</ele><time>2015-11-24T12:44:17.0000000+00:00</time></trkpt><trkpt lat="30.44016338" lon="35.50459536"><ele>1621.4</ele><time>2015-11-24T12:44:23.0000000+00:00</time></trkpt><trkpt lat="30.44014301" lon="35.50458346"><ele>1622.4</ele><time>2015-11-24T12:44:25.0000000+00:00</time></trkpt><trkpt lat="30.43989474" lon="35.50451129"><ele>1624.3</ele><time>2015-11-24T12:44:43.0000000+00:00</time></trkpt><trkpt lat="30.43983162" lon="35.50449695"><ele>1623.8</ele><time>2015-11-24T12:44:48.0000000+00:00</time></trkpt><trkpt lat="30.43964664" lon="35.50442772"><ele>1626.2</ele><time>2015-11-24T12:45:03.0000000+00:00</time></trkpt><trkpt lat="30.43959358" lon="35.50442018"><ele>1627.2</ele><time>2015-11-24T12:45:07.0000000+00:00</time></trkpt><trkpt lat="30.43948847" lon="35.50438941"><ele>1627.2</ele><time>2015-11-24T12:45:14.0000000+00:00</time></trkpt><trkpt lat="30.43943172" lon="35.5043688"><ele>1626.7</ele><time>2015-11-24T12:45:18.0000000+00:00</time></trkpt><trkpt lat="30.4392692" lon="35.5043325"><ele>1628.1</ele><time>2015-11-24T12:45:28.0000000+00:00</time></trkpt><trkpt lat="30.43916007" lon="35.50430886"><ele>1629.6</ele><time>2015-11-24T12:45:35.0000000+00:00</time></trkpt><trkpt lat="30.43899888" lon="35.5042942"><ele>1629.6</ele><time>2015-11-24T12:45:45.0000000+00:00</time></trkpt><trkpt lat="30.43875899" lon="35.50426117"><ele>1632.0</ele><time>2015-11-24T12:46:00.0000000+00:00</time></trkpt><trkpt lat="30.43851944" lon="35.50424709"><ele>1632.0</ele><time>2015-11-24T12:46:14.0000000+00:00</time></trkpt><trkpt lat="30.4382622" lon="35.50421616"><ele>1632.9</ele><time>2015-11-24T12:46:28.0000000+00:00</time></trkpt><trkpt lat="30.43794176" lon="35.50413636"><ele>1633.9</ele><time>2015-11-24T12:46:43.0000000+00:00</time></trkpt><trkpt lat="30.43785266" lon="35.50411088"><ele>1636.8</ele><time>2015-11-24T12:46:47.0000000+00:00</time></trkpt><trkpt lat="30.43761201" lon="35.50405213"><ele>1635.3</ele><time>2015-11-24T12:46:57.0000000+00:00</time></trkpt><trkpt lat="30.43724212" lon="35.50400393"><ele>1633.9</ele><time>2015-11-24T12:47:12.0000000+00:00</time></trkpt><trkpt lat="30.43708789" lon="35.50398725"><ele>1633.9</ele><time>2015-11-24T12:47:21.0000000+00:00</time></trkpt><trkpt lat="30.43698672" lon="35.50391475"><ele>1634.4</ele><time>2015-11-24T12:47:28.0000000+00:00</time></trkpt><trkpt lat="30.43693274" lon="35.50386261"><ele>1634.9</ele><time>2015-11-24T12:47:33.0000000+00:00</time></trkpt><trkpt lat="30.43685286" lon="35.50376681"><ele>1637.7</ele><time>2015-11-24T12:47:40.0000000+00:00</time></trkpt><trkpt lat="30.43663703" lon="35.50363027"><ele>1638.7</ele><time>2015-11-24T12:47:54.0000000+00:00</time></trkpt><trkpt lat="30.43656268" lon="35.50357562"><ele>1640.2</ele><time>2015-11-24T12:48:00.0000000+00:00</time></trkpt><trkpt lat="30.43650376" lon="35.50345575"><ele>1641.1</ele><time>2015-11-24T12:48:07.0000000+00:00</time></trkpt><trkpt lat="30.43645372" lon="35.50338811"><ele>1639.7</ele><time>2015-11-24T12:48:12.0000000+00:00</time></trkpt><trkpt lat="30.43637602" lon="35.50316666"><ele>1641.1</ele><time>2015-11-24T12:48:26.0000000+00:00</time></trkpt><trkpt lat="30.43627091" lon="35.50292593"><ele>1641.6</ele><time>2015-11-24T12:48:40.0000000+00:00</time></trkpt><trkpt lat="30.43613043" lon="35.50269099"><ele>1643.5</ele><time>2015-11-24T12:48:53.0000000+00:00</time></trkpt><trkpt lat="30.43599254" lon="35.50244532"><ele>1645.0</ele><time>2015-11-24T12:49:06.0000000+00:00</time></trkpt><trkpt lat="30.43584703" lon="35.50226402"><ele>1646.9</ele><time>2015-11-24T12:49:22.0000000+00:00</time></trkpt><trkpt lat="30.4357747" lon="35.50219704"><ele>1648.8</ele><time>2015-11-24T12:49:29.0000000+00:00</time></trkpt><trkpt lat="30.43564914" lon="35.50198473"><ele>1649.8</ele><time>2015-11-24T12:49:45.0000000+00:00</time></trkpt><trkpt lat="30.43563589" lon="35.50195439"><ele>1650.2</ele><time>2015-11-24T12:49:47.0000000+00:00</time></trkpt><trkpt lat="30.43551855" lon="35.50181131"><ele>1652.6</ele><time>2015-11-24T12:50:03.0000000+00:00</time></trkpt><trkpt lat="30.43547739" lon="35.50173235"><ele>1654.1</ele><time>2015-11-24T12:50:17.0000000+00:00</time></trkpt><trkpt lat="30.43547203" lon="35.50172238"><ele>1653.1</ele><time>2015-11-24T12:50:19.0000000+00:00</time></trkpt><trkpt lat="30.43537287" lon="35.50136506"><ele>1652.2</ele><time>2015-11-24T12:50:33.0000000+00:00</time></trkpt><trkpt lat="30.43533163" lon="35.50131745"><ele>1652.2</ele><time>2015-11-24T12:50:35.0000000+00:00</time></trkpt><trkpt lat="30.4351857" lon="35.50127503"><ele>1652.6</ele><time>2015-11-24T12:50:47.0000000+00:00</time></trkpt><trkpt lat="30.43517841" lon="35.50130487"><ele>1653.6</ele><time>2015-11-24T12:50:49.0000000+00:00</time></trkpt><trkpt lat="30.43508101" lon="35.50154694"><ele>1654.6</ele><time>2015-11-24T12:51:03.0000000+00:00</time></trkpt><trkpt lat="30.43507204" lon="35.5015627"><ele>1654.6</ele><time>2015-11-24T12:51:04.0000000+00:00</time></trkpt><trkpt lat="30.43501195" lon="35.50166236"><ele>1656.0</ele><time>2015-11-24T12:51:10.0000000+00:00</time></trkpt><trkpt lat="30.43492" lon="35.50192966"><ele>1658.4</ele><time>2015-11-24T12:51:26.0000000+00:00</time></trkpt><trkpt lat="30.43485923" lon="35.50198548"><ele>1659.9</ele><time>2015-11-24T12:51:32.0000000+00:00</time></trkpt><trkpt lat="30.43465261" lon="35.50213158"><ele>1660.8</ele><time>2015-11-24T12:51:48.0000000+00:00</time></trkpt><trkpt lat="30.43454348" lon="35.50221012"><ele>1659.4</ele><time>2015-11-24T12:51:54.0000000+00:00</time></trkpt><trkpt lat="30.43419069" lon="35.50245747"><ele>1658.4</ele><time>2015-11-24T12:52:08.0000000+00:00</time></trkpt><trkpt lat="30.43392339" lon="35.5027184"><ele>1657.0</ele><time>2015-11-24T12:52:18.0000000+00:00</time></trkpt><trkpt lat="30.43386639" lon="35.50279082"><ele>1656.0</ele><time>2015-11-24T12:52:20.0000000+00:00</time></trkpt><trkpt lat="30.43377067" lon="35.5029712"><ele>1657.9</ele><time>2015-11-24T12:52:24.0000000+00:00</time></trkpt><trkpt lat="30.43365072" lon="35.50326373"><ele>1661.3</ele><time>2015-11-24T12:52:35.0000000+00:00</time></trkpt><trkpt lat="30.43353371" lon="35.50352775"><ele>1662.7</ele><time>2015-11-24T12:52:49.0000000+00:00</time></trkpt><trkpt lat="30.43350563" lon="35.50360395"><ele>1663.7</ele><time>2015-11-24T12:52:54.0000000+00:00</time></trkpt><trkpt lat="30.43341788" lon="35.50384434"><ele>1666.1</ele><time>2015-11-24T12:53:09.0000000+00:00</time></trkpt><trkpt lat="30.43333489" lon="35.50403226"><ele>1669.0</ele><time>2015-11-24T12:53:24.0000000+00:00</time></trkpt><trkpt lat="30.43311294" lon="35.50406445"><ele>1670.9</ele><time>2015-11-24T12:53:40.0000000+00:00</time></trkpt><trkpt lat="30.43308076" lon="35.50406219"><ele>1670.0</ele><time>2015-11-24T12:53:42.0000000+00:00</time></trkpt><trkpt lat="30.43270474" lon="35.50403863"><ele>1672.4</ele><time>2015-11-24T12:54:00.0000000+00:00</time></trkpt><trkpt lat="30.4325931" lon="35.50400309"><ele>1674.8</ele><time>2015-11-24T12:54:05.0000000+00:00</time></trkpt><trkpt lat="30.43231566" lon="35.5038642"><ele>1673.8</ele><time>2015-11-24T12:54:19.0000000+00:00</time></trkpt><trkpt lat="30.43204861" lon="35.50351636"><ele>1672.4</ele><time>2015-11-24T12:54:34.0000000+00:00</time></trkpt><trkpt lat="30.43197962" lon="35.50340957"><ele>1674.3</ele><time>2015-11-24T12:54:38.0000000+00:00</time></trkpt><trkpt lat="30.43164426" lon="35.50321343"><ele>1675.7</ele><time>2015-11-24T12:54:54.0000000+00:00</time></trkpt><trkpt lat="30.43146892" lon="35.50320681"><ele>1676.2</ele><time>2015-11-24T12:55:05.0000000+00:00</time></trkpt><trkpt lat="30.43139767" lon="35.50321167"><ele>1675.7</ele><time>2015-11-24T12:55:11.0000000+00:00</time></trkpt><trkpt lat="30.4312706" lon="35.50322869"><ele>1675.7</ele><time>2015-11-24T12:55:23.0000000+00:00</time></trkpt><trkpt lat="30.43125182" lon="35.5032126"><ele>1676.2</ele><time>2015-11-24T12:55:51.0000000+00:00</time></trkpt><trkpt lat="30.43125182" lon="35.50321553"><ele>1675.7</ele><time>2015-11-24T12:56:24.0000000+00:00</time></trkpt><trkpt lat="30.43126783" lon="35.50322659"><ele>1676.7</ele><time>2015-11-24T12:56:43.0000000+00:00</time></trkpt><trkpt lat="30.43124596" lon="35.50324101"><ele>1676.7</ele><time>2015-11-24T12:57:07.0000000+00:00</time></trkpt><trkpt lat="30.43123556" lon="35.50323984"><ele>1676.2</ele><time>2015-11-24T12:57:09.0000000+00:00</time></trkpt><trkpt lat="30.43116096" lon="35.50326305"><ele>1676.2</ele><time>2015-11-24T12:57:14.0000000+00:00</time></trkpt><trkpt lat="30.43076023" lon="35.50343857"><ele>1675.2</ele><time>2015-11-24T12:57:31.0000000+00:00</time></trkpt><trkpt lat="30.43035236" lon="35.50361308"><ele>1674.3</ele><time>2015-11-24T12:57:45.0000000+00:00</time></trkpt><trkpt lat="30.43010979" lon="35.50368022"><ele>1673.3</ele><time>2015-11-24T12:57:54.0000000+00:00</time></trkpt><trkpt lat="30.42960076" lon="35.50381349"><ele>1674.3</ele><time>2015-11-24T12:58:11.0000000+00:00</time></trkpt><trkpt lat="30.42924352" lon="35.50386823"><ele>1674.8</ele><time>2015-11-24T12:58:23.0000000+00:00</time></trkpt><trkpt lat="30.42884555" lon="35.50387309"><ele>1674.8</ele><time>2015-11-24T12:58:37.0000000+00:00</time></trkpt><trkpt lat="30.4284547" lon="35.50379673"><ele>1677.6</ele><time>2015-11-24T12:58:53.0000000+00:00</time></trkpt><trkpt lat="30.42824968" lon="35.50384677"><ele>1676.2</ele><time>2015-11-24T12:59:04.0000000+00:00</time></trkpt><trkpt lat="30.42793326" lon="35.50406051"><ele>1674.8</ele><time>2015-11-24T12:59:19.0000000+00:00</time></trkpt><trkpt lat="30.42758432" lon="35.50444792"><ele>1674.3</ele><time>2015-11-24T12:59:35.0000000+00:00</time></trkpt><trkpt lat="30.42728467" lon="35.50463551"><ele>1673.3</ele><time>2015-11-24T12:59:47.0000000+00:00</time></trkpt><trkpt lat="30.4268924" lon="35.50481362"><ele>1673.8</ele><time>2015-11-24T13:00:01.0000000+00:00</time></trkpt><trkpt lat="30.42675703" lon="35.50486567"><ele>1678.6</ele><time>2015-11-24T13:00:07.0000000+00:00</time></trkpt><trkpt lat="30.42671193" lon="35.5048795"><ele>1674.8</ele><time>2015-11-24T13:00:09.0000000+00:00</time></trkpt><trkpt lat="30.42639434" lon="35.50489828"><ele>1677.6</ele><time>2015-11-24T13:00:20.0000000+00:00</time></trkpt><trkpt lat="30.42610123" lon="35.50488856"><ele>1678.1</ele><time>2015-11-24T13:00:34.0000000+00:00</time></trkpt><trkpt lat="30.42590995" lon="35.50487808"><ele>1681.5</ele><time>2015-11-24T13:00:45.0000000+00:00</time></trkpt><trkpt lat="30.42589336" lon="35.50487909"><ele>1681.5</ele><time>2015-11-24T13:00:46.0000000+00:00</time></trkpt><trkpt lat="30.42577894" lon="35.5048728"><ele>1682.4</ele><time>2015-11-24T13:00:53.0000000+00:00</time></trkpt><trkpt lat="30.42570015" lon="35.5048609"><ele>1682.0</ele><time>2015-11-24T13:00:58.0000000+00:00</time></trkpt><trkpt lat="30.42568641" lon="35.50485863"><ele>1682.4</ele><time>2015-11-24T13:00:59.0000000+00:00</time></trkpt><trkpt lat="30.42559295" lon="35.50485327"><ele>1683.9</ele><time>2015-11-24T13:01:05.0000000+00:00</time></trkpt><trkpt lat="30.42552983" lon="35.50484539"><ele>1686.3</ele><time>2015-11-24T13:01:09.0000000+00:00</time></trkpt><trkpt lat="30.42547183" lon="35.5048324"><ele>1684.9</ele><time>2015-11-24T13:01:13.0000000+00:00</time></trkpt><trkpt lat="30.42541207" lon="35.50482376"><ele>1683.9</ele><time>2015-11-24T13:01:17.0000000+00:00</time></trkpt><trkpt lat="30.42522021" lon="35.50477549"><ele>1686.8</ele><time>2015-11-24T13:01:30.0000000+00:00</time></trkpt><trkpt lat="30.42509129" lon="35.50471463"><ele>1686.8</ele><time>2015-11-24T13:01:38.0000000+00:00</time></trkpt><trkpt lat="30.42486842" lon="35.50461598"><ele>1685.8</ele><time>2015-11-24T13:01:51.0000000+00:00</time></trkpt><trkpt lat="30.42481276" lon="35.5045936"><ele>1685.8</ele><time>2015-11-24T13:01:56.0000000+00:00</time></trkpt><trkpt lat="30.42455058" lon="35.50450726"><ele>1684.4</ele><time>2015-11-24T13:02:12.0000000+00:00</time></trkpt><trkpt lat="30.42453272" lon="35.50450123"><ele>1684.4</ele><time>2015-11-24T13:02:13.0000000+00:00</time></trkpt><trkpt lat="30.42447346" lon="35.50446804"><ele>1684.9</ele><time>2015-11-24T13:02:17.0000000+00:00</time></trkpt><trkpt lat="30.42417607" lon="35.50430811"><ele>1686.8</ele><time>2015-11-24T13:02:31.0000000+00:00</time></trkpt><trkpt lat="30.4241148" lon="35.50428238"><ele>1685.3</ele><time>2015-11-24T13:02:33.0000000+00:00</time></trkpt><trkpt lat="30.42400366" lon="35.50422974"><ele>1682.0</ele><time>2015-11-24T13:02:36.0000000+00:00</time></trkpt><trkpt lat="30.42391791" lon="35.50419127"><ele>1680.5</ele><time>2015-11-24T13:02:38.0000000+00:00</time></trkpt><trkpt lat="30.42350862" lon="35.50403109"><ele>1677.2</ele><time>2015-11-24T13:02:47.0000000+00:00</time></trkpt><trkpt lat="30.42342287" lon="35.50400309"><ele>1677.6</ele><time>2015-11-24T13:02:49.0000000+00:00</time></trkpt><trkpt lat="30.42313982" lon="35.50389061"><ele>1675.2</ele><time>2015-11-24T13:02:57.0000000+00:00</time></trkpt><trkpt lat="30.42277286" lon="35.50360076"><ele>1672.4</ele><time>2015-11-24T13:03:11.0000000+00:00</time></trkpt><trkpt lat="30.42257245" lon="35.50327789"><ele>1670.0</ele><time>2015-11-24T13:03:23.0000000+00:00</time></trkpt><trkpt lat="30.42247807" lon="35.50325702"><ele>1669.0</ele><time>2015-11-24T13:03:28.0000000+00:00</time></trkpt><trkpt lat="30.42224522" lon="35.5031784"><ele>1666.6</ele><time>2015-11-24T13:03:41.0000000+00:00</time></trkpt><trkpt lat="30.42188027" lon="35.50306583"><ele>1663.2</ele><time>2015-11-24T13:03:54.0000000+00:00</time></trkpt><trkpt lat="30.42158405" lon="35.50301353"><ele>1662.3</ele><time>2015-11-24T13:04:03.0000000+00:00</time></trkpt><trkpt lat="30.42142027" lon="35.50297078"><ele>1660.8</ele><time>2015-11-24T13:04:07.0000000+00:00</time></trkpt><trkpt lat="30.42129203" lon="35.50294915"><ele>1658.9</ele><time>2015-11-24T13:04:10.0000000+00:00</time></trkpt><trkpt lat="30.4211829" lon="35.5029463"><ele>1657.9</ele><time>2015-11-24T13:04:12.0000000+00:00</time></trkpt><trkpt lat="30.42087587" lon="35.50294412"><ele>1660.8</ele><time>2015-11-24T13:04:18.0000000+00:00</time></trkpt><trkpt lat="30.4206493" lon="35.50295477"><ele>1658.4</ele><time>2015-11-24T13:04:24.0000000+00:00</time></trkpt><trkpt lat="30.42037186" lon="35.50289727"><ele>1655.5</ele><time>2015-11-24T13:04:32.0000000+00:00</time></trkpt><trkpt lat="30.42022778" lon="35.50289869"><ele>1652.6</ele><time>2015-11-24T13:04:36.0000000+00:00</time></trkpt><trkpt lat="30.42005628" lon="35.50295007"><ele>1649.3</ele><time>2015-11-24T13:04:40.0000000+00:00</time></trkpt><trkpt lat="30.41972788" lon="35.50315116"><ele>1646.9</ele><time>2015-11-24T13:04:48.0000000+00:00</time></trkpt><trkpt lat="30.41953275" lon="35.50340479"><ele>1649.3</ele><time>2015-11-24T13:04:57.0000000+00:00</time></trkpt><trkpt lat="30.41948506" lon="35.50359523"><ele>1646.9</ele><time>2015-11-24T13:05:03.0000000+00:00</time></trkpt><trkpt lat="30.41935707" lon="35.50384836"><ele>1643.5</ele><time>2015-11-24T13:05:10.0000000+00:00</time></trkpt><trkpt lat="30.41913318" lon="35.50409756"><ele>1639.7</ele><time>2015-11-24T13:05:18.0000000+00:00</time></trkpt><trkpt lat="30.41910703" lon="35.50411843"><ele>1639.7</ele><time>2015-11-24T13:05:19.0000000+00:00</time></trkpt><trkpt lat="30.41893688" lon="35.50424994"><ele>1637.3</ele><time>2015-11-24T13:05:25.0000000+00:00</time></trkpt><trkpt lat="30.41884753" lon="35.50433158"><ele>1635.8</ele><time>2015-11-24T13:05:28.0000000+00:00</time></trkpt><trkpt lat="30.41863287" lon="35.50456912"><ele>1632.5</ele><time>2015-11-24T13:05:36.0000000+00:00</time></trkpt><trkpt lat="30.41847177" lon="35.50477247"><ele>1629.6</ele><time>2015-11-24T13:05:45.0000000+00:00</time></trkpt><trkpt lat="30.41829793" lon="35.50495603"><ele>1626.7</ele><time>2015-11-24T13:05:54.0000000+00:00</time></trkpt><trkpt lat="30.41825661" lon="35.50499082"><ele>1624.8</ele><time>2015-11-24T13:05:56.0000000+00:00</time></trkpt><trkpt lat="30.41814471" lon="35.50509115"><ele>1623.3</ele><time>2015-11-24T13:06:01.0000000+00:00</time></trkpt><trkpt lat="30.41805946" lon="35.50513574"><ele>1621.9</ele><time>2015-11-24T13:06:04.0000000+00:00</time></trkpt><trkpt lat="30.41778915" lon="35.50516482"><ele>1621.9</ele><time>2015-11-24T13:06:16.0000000+00:00</time></trkpt><trkpt lat="30.41762813" lon="35.50518234"><ele>1620.0</ele><time>2015-11-24T13:06:22.0000000+00:00</time></trkpt><trkpt lat="30.41742956" lon="35.50522132"><ele>1618.5</ele><time>2015-11-24T13:06:29.0000000+00:00</time></trkpt><trkpt lat="30.41717391" lon="35.50532299"><ele>1615.2</ele><time>2015-11-24T13:06:39.0000000+00:00</time></trkpt><trkpt lat="30.41713913" lon="35.50533556"><ele>1614.7</ele><time>2015-11-24T13:06:40.0000000+00:00</time></trkpt><trkpt lat="30.41686714" lon="35.50539449"><ele>1613.7</ele><time>2015-11-24T13:06:51.0000000+00:00</time></trkpt><trkpt lat="30.41673537" lon="35.50542693"><ele>1612.8</ele><time>2015-11-24T13:06:56.0000000+00:00</time></trkpt><trkpt lat="30.41654536" lon="35.50548686"><ele>1610.4</ele><time>2015-11-24T13:07:02.0000000+00:00</time></trkpt><trkpt lat="30.41632055" lon="35.50553966"><ele>1610.8</ele><time>2015-11-24T13:07:09.0000000+00:00</time></trkpt><trkpt lat="30.41627127" lon="35.50555835"><ele>1611.8</ele><time>2015-11-24T13:07:12.0000000+00:00</time></trkpt><trkpt lat="30.41624738" lon="35.50557118"><ele>1610.8</ele><time>2015-11-24T13:07:13.0000000+00:00</time></trkpt><trkpt lat="30.41621989" lon="35.50559012"><ele>1610.8</ele><time>2015-11-24T13:07:14.0000000+00:00</time></trkpt><trkpt lat="30.41619005" lon="35.50561636"><ele>1611.3</ele><time>2015-11-24T13:07:15.0000000+00:00</time></trkpt><trkpt lat="30.41615308" lon="35.50564569"><ele>1609.4</ele><time>2015-11-24T13:07:16.0000000+00:00</time></trkpt><trkpt lat="30.41611075" lon="35.50568048"><ele>1608.9</ele><time>2015-11-24T13:07:17.0000000+00:00</time></trkpt><trkpt lat="30.4160639" lon="35.50572247"><ele>1607.9</ele><time>2015-11-24T13:07:18.0000000+00:00</time></trkpt><trkpt lat="30.41600883" lon="35.50576824"><ele>1607.9</ele><time>2015-11-24T13:07:19.0000000+00:00</time></trkpt><trkpt lat="30.4158116" lon="35.50593202"><ele>1604.6</ele><time>2015-11-24T13:07:22.0000000+00:00</time></trkpt><trkpt lat="30.41573843" lon="35.50600125"><ele>1602.7</ele><time>2015-11-24T13:07:23.0000000+00:00</time></trkpt><trkpt lat="30.41567163" lon="35.50608583"><ele>1600.7</ele><time>2015-11-24T13:07:24.0000000+00:00</time></trkpt><trkpt lat="30.41562108" lon="35.50618147"><ele>1600.3</ele><time>2015-11-24T13:07:25.0000000+00:00</time></trkpt><trkpt lat="30.41558906" lon="35.50628255"><ele>1599.8</ele><time>2015-11-24T13:07:26.0000000+00:00</time></trkpt><trkpt lat="30.4155723" lon="35.50638515"><ele>1599.8</ele><time>2015-11-24T13:07:27.0000000+00:00</time></trkpt><trkpt lat="30.41556283" lon="35.5064807"><ele>1599.8</ele><time>2015-11-24T13:07:28.0000000+00:00</time></trkpt><trkpt lat="30.41554783" lon="35.50656972"><ele>1599.3</ele><time>2015-11-24T13:07:29.0000000+00:00</time></trkpt><trkpt lat="30.41553182" lon="35.50666141"><ele>1597.9</ele><time>2015-11-24T13:07:30.0000000+00:00</time></trkpt><trkpt lat="30.41549033" lon="35.50694774"><ele>1594.5</ele><time>2015-11-24T13:07:33.0000000+00:00</time></trkpt><trkpt lat="30.41539905" lon="35.50766003"><ele>1591.1</ele><time>2015-11-24T13:07:41.0000000+00:00</time></trkpt><trkpt lat="30.41535286" lon="35.50801434"><ele>1587.8</ele><time>2015-11-24T13:07:47.0000000+00:00</time></trkpt><trkpt lat="30.41532294" lon="35.50808759"><ele>1586.3</ele><time>2015-11-24T13:07:49.0000000+00:00</time></trkpt><trkpt lat="30.41530215" lon="35.50810168"><ele>1585.8</ele><time>2015-11-24T13:07:50.0000000+00:00</time></trkpt><trkpt lat="30.41527944" lon="35.50810805"><ele>1587.3</ele><time>2015-11-24T13:07:51.0000000+00:00</time></trkpt><trkpt lat="30.41526049" lon="35.50810897"><ele>1588.2</ele><time>2015-11-24T13:07:52.0000000+00:00</time></trkpt><trkpt lat="30.4152418" lon="35.50810344"><ele>1588.2</ele><time>2015-11-24T13:07:53.0000000+00:00</time></trkpt><trkpt lat="30.41522454" lon="35.50810067"><ele>1587.3</ele><time>2015-11-24T13:07:54.0000000+00:00</time></trkpt><trkpt lat="30.41520576" lon="35.50810017"><ele>1587.3</ele><time>2015-11-24T13:07:55.0000000+00:00</time></trkpt><trkpt lat="30.41518774" lon="35.50810184"><ele>1587.3</ele><time>2015-11-24T13:07:56.0000000+00:00</time></trkpt><trkpt lat="30.4151693" lon="35.50809983"><ele>1586.8</ele><time>2015-11-24T13:07:57.0000000+00:00</time></trkpt><trkpt lat="30.41515036" lon="35.5080969"><ele>1586.8</ele><time>2015-11-24T13:07:58.0000000+00:00</time></trkpt><trkpt lat="30.41481298" lon="35.50801911"><ele>1587.3</ele><time>2015-11-24T13:08:12.0000000+00:00</time></trkpt><trkpt lat="30.41443974" lon="35.50799321"><ele>1588.7</ele><time>2015-11-24T13:08:27.0000000+00:00</time></trkpt><trkpt lat="30.41392928" lon="35.50799958"><ele>1589.7</ele><time>2015-11-24T13:08:45.0000000+00:00</time></trkpt><trkpt lat="30.41354556" lon="35.50801191"><ele>1591.6</ele><time>2015-11-24T13:08:59.0000000+00:00</time></trkpt><trkpt lat="30.41320131" lon="35.50802532"><ele>1592.6</ele><time>2015-11-24T13:09:11.0000000+00:00</time></trkpt><trkpt lat="30.4126756" lon="35.50797754"><ele>1594.0</ele><time>2015-11-24T13:09:30.0000000+00:00</time></trkpt><trkpt lat="30.41222541" lon="35.507855"><ele>1595.0</ele><time>2015-11-24T13:09:46.0000000+00:00</time></trkpt><trkpt lat="30.41176708" lon="35.5076167"><ele>1598.3</ele><time>2015-11-24T13:10:03.0000000+00:00</time></trkpt><trkpt lat="30.41133181" lon="35.50739164"><ele>1599.3</ele><time>2015-11-24T13:10:19.0000000+00:00</time></trkpt><trkpt lat="30.41105219" lon="35.50723583"><ele>1599.3</ele><time>2015-11-24T13:10:32.0000000+00:00</time></trkpt><trkpt lat="30.4106683" lon="35.5070179"><ele>1602.2</ele><time>2015-11-24T13:10:49.0000000+00:00</time></trkpt><trkpt lat="30.41021249" lon="35.50670324"><ele>1604.6</ele><time>2015-11-24T13:11:10.0000000+00:00</time></trkpt><trkpt lat="30.41005131" lon="35.50658162"><ele>1605.5</ele><time>2015-11-24T13:11:18.0000000+00:00</time></trkpt><trkpt lat="30.4096701" lon="35.50626721"><ele>1608.4</ele><time>2015-11-24T13:11:36.0000000+00:00</time></trkpt><trkpt lat="30.40925587" lon="35.50595985"><ele>1610.4</ele><time>2015-11-24T13:11:55.0000000+00:00</time></trkpt><trkpt lat="30.40892017" lon="35.50569632"><ele>1612.8</ele><time>2015-11-24T13:12:12.0000000+00:00</time></trkpt><trkpt lat="30.40864541" lon="35.50547068"><ele>1613.7</ele><time>2015-11-24T13:12:27.0000000+00:00</time></trkpt><trkpt lat="30.40832531" lon="35.50521168"><ele>1617.1</ele><time>2015-11-24T13:12:43.0000000+00:00</time></trkpt><trkpt lat="30.40806161" lon="35.50501395"><ele>1617.6</ele><time>2015-11-24T13:12:58.0000000+00:00</time></trkpt><trkpt lat="30.40781946" lon="35.50482351"><ele>1618.0</ele><time>2015-11-24T13:13:12.0000000+00:00</time></trkpt><trkpt lat="30.40748837" lon="35.50459083"><ele>1620.4</ele><time>2015-11-24T13:13:29.0000000+00:00</time></trkpt><trkpt lat="30.4071417" lon="35.50440081"><ele>1621.4</ele><time>2015-11-24T13:13:46.0000000+00:00</time></trkpt><trkpt lat="30.40679041" lon="35.50425254"><ele>1623.3</ele><time>2015-11-24T13:14:02.0000000+00:00</time></trkpt><trkpt lat="30.40635313" lon="35.5041455"><ele>1626.2</ele><time>2015-11-24T13:14:20.0000000+00:00</time></trkpt><trkpt lat="30.40595231" lon="35.50405447"><ele>1627.2</ele><time>2015-11-24T13:14:36.0000000+00:00</time></trkpt><trkpt lat="30.40555283" lon="35.50396244"><ele>1629.1</ele><time>2015-11-24T13:14:51.0000000+00:00</time></trkpt><trkpt lat="30.40529399" lon="35.5039098"><ele>1631.0</ele><time>2015-11-24T13:15:03.0000000+00:00</time></trkpt><trkpt lat="30.40484665" lon="35.50381199"><ele>1632.0</ele><time>2015-11-24T13:15:20.0000000+00:00</time></trkpt><trkpt lat="30.40422823" lon="35.50369564"><ele>1634.4</ele><time>2015-11-24T13:15:41.0000000+00:00</time></trkpt><trkpt lat="30.40378215" lon="35.50362515"><ele>1637.3</ele><time>2015-11-24T13:15:57.0000000+00:00</time></trkpt><trkpt lat="30.40338937" lon="35.50357159"><ele>1636.3</ele><time>2015-11-24T13:16:11.0000000+00:00</time></trkpt><trkpt lat="30.4030629" lon="35.50353748"><ele>1635.8</ele><time>2015-11-24T13:16:24.0000000+00:00</time></trkpt><trkpt lat="30.40268546" lon="35.50351904"><ele>1635.3</ele><time>2015-11-24T13:16:38.0000000+00:00</time></trkpt><trkpt lat="30.4024428" lon="35.50350395"><ele>1635.3</ele><time>2015-11-24T13:16:44.0000000+00:00</time></trkpt><trkpt lat="30.40236251" lon="35.50349582"><ele>1636.3</ele><time>2015-11-24T13:16:46.0000000+00:00</time></trkpt><trkpt lat="30.40172188" lon="35.50345106"><ele>1632.9</ele><time>2015-11-24T13:16:59.0000000+00:00</time></trkpt><trkpt lat="30.40140278" lon="35.50342659"><ele>1631.0</ele><time>2015-11-24T13:17:04.0000000+00:00</time></trkpt><trkpt lat="30.4008857" lon="35.50339909"><ele>1627.2</ele><time>2015-11-24T13:17:11.0000000+00:00</time></trkpt><trkpt lat="30.4008028" lon="35.50339616"><ele>1627.2</ele><time>2015-11-24T13:17:12.0000000+00:00</time></trkpt><trkpt lat="30.40054455" lon="35.50338283"><ele>1625.3</ele><time>2015-11-24T13:17:15.0000000+00:00</time></trkpt><trkpt lat="30.40018857" lon="35.50336221"><ele>1622.8</ele><time>2015-11-24T13:17:19.0000000+00:00</time></trkpt><trkpt lat="30.39955842" lon="35.5033203"><ele>1619.5</ele><time>2015-11-24T13:17:26.0000000+00:00</time></trkpt><trkpt lat="30.39946731" lon="35.50331561"><ele>1619.0</ele><time>2015-11-24T13:17:27.0000000+00:00</time></trkpt><trkpt lat="30.39928442" lon="35.50330329"><ele>1617.1</ele><time>2015-11-24T13:17:29.0000000+00:00</time></trkpt><trkpt lat="30.39842217" lon="35.50325937"><ele>1613.7</ele><time>2015-11-24T13:17:38.0000000+00:00</time></trkpt><trkpt lat="30.3982252" lon="35.50324721"><ele>1611.8</ele><time>2015-11-24T13:17:40.0000000+00:00</time></trkpt><trkpt lat="30.39782002" lon="35.50322156"><ele>1608.9</ele><time>2015-11-24T13:17:44.0000000+00:00</time></trkpt><trkpt lat="30.39761282" lon="35.50320924"><ele>1608.4</ele><time>2015-11-24T13:17:46.0000000+00:00</time></trkpt><trkpt lat="30.3968628" lon="35.50318887"><ele>1605.1</ele><time>2015-11-24T13:17:53.0000000+00:00</time></trkpt><trkpt lat="30.39618747" lon="35.50336548"><ele>1601.2</ele><time>2015-11-24T13:18:00.0000000+00:00</time></trkpt><trkpt lat="30.39610583" lon="35.50340278"><ele>1600.7</ele><time>2015-11-24T13:18:01.0000000+00:00</time></trkpt><trkpt lat="30.39538566" lon="35.50390075"><ele>1597.4</ele><time>2015-11-24T13:18:12.0000000+00:00</time></trkpt><trkpt lat="30.39533344" lon="35.50393797"><ele>1597.4</ele><time>2015-11-24T13:18:13.0000000+00:00</time></trkpt><trkpt lat="30.39456432" lon="35.50450961"><ele>1595.5</ele><time>2015-11-24T13:18:28.0000000+00:00</time></trkpt><trkpt lat="30.39387893" lon="35.50501035"><ele>1593.0</ele><time>2015-11-24T13:18:43.0000000+00:00</time></trkpt><trkpt lat="30.39376837" lon="35.50510162"><ele>1593.0</ele><time>2015-11-24T13:18:46.0000000+00:00</time></trkpt><trkpt lat="30.39364273" lon="35.5052271"><ele>1593.5</ele><time>2015-11-24T13:18:50.0000000+00:00</time></trkpt><trkpt lat="30.39361004" lon="35.50525786"><ele>1593.0</ele><time>2015-11-24T13:18:51.0000000+00:00</time></trkpt><trkpt lat="30.39354483" lon="35.50532408"><ele>1593.0</ele><time>2015-11-24T13:18:53.0000000+00:00</time></trkpt><trkpt lat="30.39319539" lon="35.50583605"><ele>1592.6</ele><time>2015-11-24T13:19:08.0000000+00:00</time></trkpt><trkpt lat="30.3929705" lon="35.50640099"><ele>1590.6</ele><time>2015-11-24T13:19:23.0000000+00:00</time></trkpt><trkpt lat="30.39281426" lon="35.5069873"><ele>1589.2</ele><time>2015-11-24T13:19:37.0000000+00:00</time></trkpt><trkpt lat="30.39262567" lon="35.50776715"><ele>1586.8</ele><time>2015-11-24T13:19:54.0000000+00:00</time></trkpt><trkpt lat="30.39242961" lon="35.50853125"><ele>1584.4</ele><time>2015-11-24T13:20:12.0000000+00:00</time></trkpt><trkpt lat="30.39227488" lon="35.50915914"><ele>1582.0</ele><time>2015-11-24T13:20:28.0000000+00:00</time></trkpt><trkpt lat="30.39213122" lon="35.50976255"><ele>1581.0</ele><time>2015-11-24T13:20:44.0000000+00:00</time></trkpt><trkpt lat="30.39197464" lon="35.5103559"><ele>1579.1</ele><time>2015-11-24T13:21:01.0000000+00:00</time></trkpt><trkpt lat="30.39172252" lon="35.51097726"><ele>1577.2</ele><time>2015-11-24T13:21:18.0000000+00:00</time></trkpt><trkpt lat="30.39130066" lon="35.51165569"><ele>1575.3</ele><time>2015-11-24T13:21:36.0000000+00:00</time></trkpt><trkpt lat="30.39094577" lon="35.51220185"><ele>1570.9</ele><time>2015-11-24T13:21:52.0000000+00:00</time></trkpt><trkpt lat="30.39058006" lon="35.51275874"><ele>1569.5</ele><time>2015-11-24T13:22:09.0000000+00:00</time></trkpt><trkpt lat="30.39035392" lon="35.51310978"><ele>1567.6</ele><time>2015-11-24T13:22:19.0000000+00:00</time></trkpt><trkpt lat="30.38985671" lon="35.51364698"><ele>1564.7</ele><time>2015-11-24T13:22:37.0000000+00:00</time></trkpt><trkpt lat="30.38959452" lon="35.51386356"><ele>1563.7</ele><time>2015-11-24T13:22:46.0000000+00:00</time></trkpt><trkpt lat="30.38932563" lon="35.51406263"><ele>1563.2</ele><time>2015-11-24T13:22:54.0000000+00:00</time></trkpt><trkpt lat="30.38928732" lon="35.51408426"><ele>1563.2</ele><time>2015-11-24T13:22:55.0000000+00:00</time></trkpt><trkpt lat="30.38925136" lon="35.51410563"><ele>1562.8</ele><time>2015-11-24T13:22:56.0000000+00:00</time></trkpt><trkpt lat="30.3892165" lon="35.51413178"><ele>1563.2</ele><time>2015-11-24T13:22:57.0000000+00:00</time></trkpt><trkpt lat="30.38918255" lon="35.51416037"><ele>1563.2</ele><time>2015-11-24T13:22:58.0000000+00:00</time></trkpt><trkpt lat="30.38857972" lon="35.51460369"><ele>1561.3</ele><time>2015-11-24T13:23:14.0000000+00:00</time></trkpt><trkpt lat="30.38835526" lon="35.51476026"><ele>1560.4</ele><time>2015-11-24T13:23:20.0000000+00:00</time></trkpt><trkpt lat="30.38803356" lon="35.51497777"><ele>1559.4</ele><time>2015-11-24T13:23:29.0000000+00:00</time></trkpt><trkpt lat="30.3874625" lon="35.51532788"><ele>1557.5</ele><time>2015-11-24T13:23:44.0000000+00:00</time></trkpt><trkpt lat="30.38694726" lon="35.51548655"><ele>1554.1</ele><time>2015-11-24T13:23:55.0000000+00:00</time></trkpt><trkpt lat="30.38660897" lon="35.51549845"><ele>1553.2</ele><time>2015-11-24T13:24:01.0000000+00:00</time></trkpt><trkpt lat="30.3857287" lon="35.51525638"><ele>1550.3</ele><time>2015-11-24T13:24:13.0000000+00:00</time></trkpt><trkpt lat="30.38467074" lon="35.51507701"><ele>1549.8</ele><time>2015-11-24T13:24:26.0000000+00:00</time></trkpt><trkpt lat="30.38437226" lon="35.51514264"><ele>1550.3</ele><time>2015-11-24T13:24:32.0000000+00:00</time></trkpt><trkpt lat="30.3839131" lon="35.51527759"><ele>1550.7</ele><time>2015-11-24T13:24:46.0000000+00:00</time></trkpt><trkpt lat="30.38345771" lon="35.51542008"><ele>1551.7</ele><time>2015-11-24T13:25:03.0000000+00:00</time></trkpt><trkpt lat="30.38301657" lon="35.51555403"><ele>1553.6</ele><time>2015-11-24T13:25:19.0000000+00:00</time></trkpt><trkpt lat="30.38236102" lon="35.51571454"><ele>1553.2</ele><time>2015-11-24T13:25:38.0000000+00:00</time></trkpt><trkpt lat="30.38214167" lon="35.51574304"><ele>1552.2</ele><time>2015-11-24T13:25:43.0000000+00:00</time></trkpt><trkpt lat="30.38209599" lon="35.51574446"><ele>1552.7</ele><time>2015-11-24T13:25:44.0000000+00:00</time></trkpt><trkpt lat="30.38205198" lon="35.5157453"><ele>1552.2</ele><time>2015-11-24T13:25:45.0000000+00:00</time></trkpt><trkpt lat="30.38181921" lon="35.51574103"><ele>1551.2</ele><time>2015-11-24T13:25:50.0000000+00:00</time></trkpt><trkpt lat="30.38176943" lon="35.51573809"><ele>1551.2</ele><time>2015-11-24T13:25:51.0000000+00:00</time></trkpt><trkpt lat="30.38156239" lon="35.51573139"><ele>1549.8</ele><time>2015-11-24T13:25:55.0000000+00:00</time></trkpt><trkpt lat="30.38066335" lon="35.51559007"><ele>1546.9</ele><time>2015-11-24T13:26:09.0000000+00:00</time></trkpt><trkpt lat="30.37982432" lon="35.51545914"><ele>1544.0</ele><time>2015-11-24T13:26:18.0000000+00:00</time></trkpt><trkpt lat="30.3793551" lon="35.51538848"><ele>1540.7</ele><time>2015-11-24T13:26:23.0000000+00:00</time></trkpt><trkpt lat="30.37835388" lon="35.51520752"><ele>1543.5</ele><time>2015-11-24T13:26:35.0000000+00:00</time></trkpt><trkpt lat="30.37757495" lon="35.51500744"><ele>1545.0</ele><time>2015-11-24T13:26:48.0000000+00:00</time></trkpt><trkpt lat="30.37722702" lon="35.51480778"><ele>1547.9</ele><time>2015-11-24T13:26:56.0000000+00:00</time></trkpt><trkpt lat="30.37692125" lon="35.51451651"><ele>1549.8</ele><time>2015-11-24T13:27:05.0000000+00:00</time></trkpt><trkpt lat="30.37649092" lon="35.51403346"><ele>1552.7</ele><time>2015-11-24T13:27:23.0000000+00:00</time></trkpt><trkpt lat="30.37614651" lon="35.5136339"><ele>1555.1</ele><time>2015-11-24T13:27:40.0000000+00:00</time></trkpt><trkpt lat="30.3757358" lon="35.51316418"><ele>1556.0</ele><time>2015-11-24T13:28:00.0000000+00:00</time></trkpt><trkpt lat="30.37546858" lon="35.51282446"><ele>1558.0</ele><time>2015-11-24T13:28:17.0000000+00:00</time></trkpt><trkpt lat="30.37545794" lon="35.51283167"><ele>1557.5</ele><time>2015-11-24T13:28:27.0000000+00:00</time></trkpt><trkpt lat="30.37546146" lon="35.51284625"><ele>1557.0</ele><time>2015-11-24T13:29:13.0000000+00:00</time></trkpt><trkpt lat="30.37548057" lon="35.5128377"><ele>1557.5</ele><time>2015-11-24T13:29:38.0000000+00:00</time></trkpt><trkpt lat="30.37550312" lon="35.51281792"><ele>1556.0</ele><time>2015-11-24T13:29:42.0000000+00:00</time></trkpt><trkpt lat="30.37550907" lon="35.51281541"><ele>1558.0</ele><time>2015-11-24T13:29:46.0000000+00:00</time></trkpt><trkpt lat="30.37552273" lon="35.5128149"><ele>1558.4</ele><time>2015-11-24T13:30:03.0000000+00:00</time></trkpt><trkpt lat="30.37552348" lon="35.51281197"><ele>1558.4</ele><time>2015-11-24T13:30:28.0000000+00:00</time></trkpt><trkpt lat="30.37556514" lon="35.51278691"><ele>1559.9</ele><time>2015-11-24T13:30:44.0000000+00:00</time></trkpt><trkpt lat="30.37557579" lon="35.51278213"><ele>1556.0</ele><time>2015-11-24T13:30:53.0000000+00:00</time></trkpt><trkpt lat="30.37557403" lon="35.51277987"><ele>1560.8</ele><time>2015-11-24T13:30:57.0000000+00:00</time></trkpt><trkpt lat="30.37557042" lon="35.51279864"><ele>1558.0</ele><time>2015-11-24T13:31:26.0000000+00:00</time></trkpt><trkpt lat="30.37557252" lon="35.51280719"><ele>1558.9</ele><time>2015-11-24T13:31:55.0000000+00:00</time></trkpt><trkpt lat="30.37555609" lon="35.51281197"><ele>1558.9</ele><time>2015-11-24T13:32:28.0000000+00:00</time></trkpt><trkpt lat="30.37555651" lon="35.51281868"><ele>1558.9</ele><time>2015-11-24T13:33:00.0000000+00:00</time></trkpt><trkpt lat="30.37556481" lon="35.51281407"><ele>1558.4</ele><time>2015-11-24T13:33:27.0000000+00:00</time></trkpt><trkpt lat="30.37556254" lon="35.51278221"><ele>1558.4</ele><time>2015-11-24T13:33:55.0000000+00:00</time></trkpt><trkpt lat="30.37558392" lon="35.51278867"><ele>1558.4</ele><time>2015-11-24T13:34:28.0000000+00:00</time></trkpt><trkpt lat="30.37554452" lon="35.51278498"><ele>1558.9</ele><time>2015-11-24T13:35:06.0000000+00:00</time></trkpt><trkpt lat="30.37554385" lon="35.51278096"><ele>1558.0</ele><time>2015-11-24T13:35:41.0000000+00:00</time></trkpt><trkpt lat="30.37553321" lon="35.51277559"><ele>1558.0</ele><time>2015-11-24T13:36:22.0000000+00:00</time></trkpt><trkpt lat="30.37553891" lon="35.51277073"><ele>1558.0</ele><time>2015-11-24T13:36:58.0000000+00:00</time></trkpt><trkpt lat="30.37552239" lon="35.51278959"><ele>1558.4</ele><time>2015-11-24T13:37:33.0000000+00:00</time></trkpt><trkpt lat="30.37551569" lon="35.51278749"><ele>1558.4</ele><time>2015-11-24T13:38:08.0000000+00:00</time></trkpt><trkpt lat="30.37553178" lon="35.51278163"><ele>1557.5</ele><time>2015-11-24T13:38:38.0000000+00:00</time></trkpt><trkpt lat="30.37556439" lon="35.51278406"><ele>1558.4</ele><time>2015-11-24T13:39:15.0000000+00:00</time></trkpt><trkpt lat="30.37557277" lon="35.5127859"><ele>1558.4</ele><time>2015-11-24T13:39:48.0000000+00:00</time></trkpt><trkpt lat="30.37557738" lon="35.51281381"><ele>1558.4</ele><time>2015-11-24T13:40:20.0000000+00:00</time></trkpt><trkpt lat="30.37557503" lon="35.51279252"><ele>1558.0</ele><time>2015-11-24T13:40:56.0000000+00:00</time></trkpt><trkpt lat="30.37554787" lon="35.51279613"><ele>1553.2</ele><time>2015-11-24T13:41:24.0000000+00:00</time></trkpt><trkpt lat="30.3755462" lon="35.51279244"><ele>1559.9</ele><time>2015-11-24T13:41:25.0000000+00:00</time></trkpt><trkpt lat="30.37554419" lon="35.51279244"><ele>1563.2</ele><time>2015-11-24T13:41:26.0000000+00:00</time></trkpt><trkpt lat="30.37555383" lon="35.51278506"><ele>1558.4</ele><time>2015-11-24T13:41:27.0000000+00:00</time></trkpt><trkpt lat="30.37555969" lon="35.51278305"><ele>1558.0</ele><time>2015-11-24T13:41:28.0000000+00:00</time></trkpt><trkpt lat="30.37553974" lon="35.51277928"><ele>1558.9</ele><time>2015-11-24T13:41:40.0000000+00:00</time></trkpt><trkpt lat="30.37548107" lon="35.51282496"><ele>1557.0</ele><time>2015-11-24T13:41:57.0000000+00:00</time></trkpt><trkpt lat="30.375455" lon="35.5128538"><ele>1556.0</ele><time>2015-11-24T13:42:10.0000000+00:00</time></trkpt><trkpt lat="30.37545349" lon="35.51285354"><ele>1557.5</ele><time>2015-11-24T13:42:12.0000000+00:00</time></trkpt><trkpt lat="30.37541837" lon="35.51283787"><ele>1556.5</ele><time>2015-11-24T13:42:28.0000000+00:00</time></trkpt><trkpt lat="30.37541159" lon="35.51283401"><ele>1557.0</ele><time>2015-11-24T13:42:30.0000000+00:00</time></trkpt><trkpt lat="30.37539432" lon="35.51282563"><ele>1557.0</ele><time>2015-11-24T13:42:32.0000000+00:00</time></trkpt><trkpt lat="30.37538183" lon="35.51281851"><ele>1556.5</ele><time>2015-11-24T13:42:33.0000000+00:00</time></trkpt><trkpt lat="30.3753716" lon="35.51280795"><ele>1556.5</ele><time>2015-11-24T13:42:34.0000000+00:00</time></trkpt><trkpt lat="30.37536037" lon="35.51279328"><ele>1556.5</ele><time>2015-11-24T13:42:35.0000000+00:00</time></trkpt><trkpt lat="30.37534948" lon="35.51277953"><ele>1556.5</ele><time>2015-11-24T13:42:36.0000000+00:00</time></trkpt><trkpt lat="30.37534051" lon="35.51276805"><ele>1556.5</ele><time>2015-11-24T13:42:37.0000000+00:00</time></trkpt><trkpt lat="30.37517329" lon="35.51258407"><ele>1553.6</ele><time>2015-11-24T13:42:50.0000000+00:00</time></trkpt><trkpt lat="30.3751603" lon="35.51257099"><ele>1558.4</ele><time>2015-11-24T13:42:51.0000000+00:00</time></trkpt><trkpt lat="30.37513632" lon="35.51253906"><ele>1554.6</ele><time>2015-11-24T13:42:53.0000000+00:00</time></trkpt><trkpt lat="30.37512727" lon="35.5125217"><ele>1558.4</ele><time>2015-11-24T13:42:54.0000000+00:00</time></trkpt><trkpt lat="30.37507631" lon="35.51243562"><ele>1558.4</ele><time>2015-11-24T13:43:00.0000000+00:00</time></trkpt><trkpt lat="30.37506575" lon="35.51242012"><ele>1558.4</ele><time>2015-11-24T13:43:01.0000000+00:00</time></trkpt><trkpt lat="30.37505477" lon="35.51240184"><ele>1558.4</ele><time>2015-11-24T13:43:02.0000000+00:00</time></trkpt><trkpt lat="30.3750406" lon="35.5123865"><ele>1558.4</ele><time>2015-11-24T13:43:03.0000000+00:00</time></trkpt><trkpt lat="30.37502686" lon="35.51237226"><ele>1558.4</ele><time>2015-11-24T13:43:04.0000000+00:00</time></trkpt><trkpt lat="30.37501277" lon="35.51235901"><ele>1558.9</ele><time>2015-11-24T13:43:05.0000000+00:00</time></trkpt><trkpt lat="30.37500029" lon="35.51234577"><ele>1558.9</ele><time>2015-11-24T13:43:06.0000000+00:00</time></trkpt><trkpt lat="30.37498763" lon="35.51233378"><ele>1558.9</ele><time>2015-11-24T13:43:07.0000000+00:00</time></trkpt><trkpt lat="30.37497522" lon="35.51232171"><ele>1558.9</ele><time>2015-11-24T13:43:08.0000000+00:00</time></trkpt><trkpt lat="30.3749619" lon="35.51230512"><ele>1558.9</ele><time>2015-11-24T13:43:09.0000000+00:00</time></trkpt><trkpt lat="30.37494731" lon="35.51228886"><ele>1558.9</ele><time>2015-11-24T13:43:10.0000000+00:00</time></trkpt><trkpt lat="30.37492351" lon="35.51226178"><ele>1559.4</ele><time>2015-11-24T13:43:12.0000000+00:00</time></trkpt><trkpt lat="30.37491454" lon="35.51225047"><ele>1559.4</ele><time>2015-11-24T13:43:13.0000000+00:00</time></trkpt><trkpt lat="30.3749018" lon="35.51223823"><ele>1559.4</ele><time>2015-11-24T13:43:14.0000000+00:00</time></trkpt><trkpt lat="30.37488973" lon="35.51222146"><ele>1559.4</ele><time>2015-11-24T13:43:15.0000000+00:00</time></trkpt><trkpt lat="30.37487699" lon="35.51219833"><ele>1559.9</ele><time>2015-11-24T13:43:16.0000000+00:00</time></trkpt><trkpt lat="30.37486148" lon="35.51217888"><ele>1559.9</ele><time>2015-11-24T13:43:17.0000000+00:00</time></trkpt><trkpt lat="30.37484639" lon="35.51216288"><ele>1559.9</ele><time>2015-11-24T13:43:18.0000000+00:00</time></trkpt><trkpt lat="30.37459544" lon="35.51190471"><ele>1561.8</ele><time>2015-11-24T13:43:35.0000000+00:00</time></trkpt><trkpt lat="30.37433996" lon="35.51170086"><ele>1561.8</ele><time>2015-11-24T13:43:50.0000000+00:00</time></trkpt><trkpt lat="30.37402865" lon="35.51153893"><ele>1564.2</ele><time>2015-11-24T13:44:06.0000000+00:00</time></trkpt><trkpt lat="30.37370134" lon="35.51142468"><ele>1565.2</ele><time>2015-11-24T13:44:23.0000000+00:00</time></trkpt><trkpt lat="30.37329784" lon="35.51136735"><ele>1565.6</ele><time>2015-11-24T13:44:41.0000000+00:00</time></trkpt><trkpt lat="30.37297547" lon="35.51140113"><ele>1564.7</ele><time>2015-11-24T13:44:56.0000000+00:00</time></trkpt><trkpt lat="30.37262963" lon="35.51146148"><ele>1566.1</ele><time>2015-11-24T13:45:12.0000000+00:00</time></trkpt><trkpt lat="30.37223258" lon="35.51153013"><ele>1569.0</ele><time>2015-11-24T13:45:30.0000000+00:00</time></trkpt><trkpt lat="30.37173101" lon="35.51161244"><ele>1571.9</ele><time>2015-11-24T13:45:54.0000000+00:00</time></trkpt><trkpt lat="30.37122692" lon="35.51157958"><ele>1574.3</ele><time>2015-11-24T13:46:15.0000000+00:00</time></trkpt><trkpt lat="30.37078184" lon="35.51142778"><ele>1577.2</ele><time>2015-11-24T13:46:34.0000000+00:00</time></trkpt><trkpt lat="30.37051043" lon="35.51129644"><ele>1580.1</ele><time>2015-11-24T13:46:47.0000000+00:00</time></trkpt><trkpt lat="30.37034313" lon="35.51122117"><ele>1582.5</ele><time>2015-11-24T13:46:55.0000000+00:00</time></trkpt><trkpt lat="30.36986746" lon="35.51098564"><ele>1583.9</ele><time>2015-11-24T13:47:17.0000000+00:00</time></trkpt><trkpt lat="30.36940536" lon="35.51076117"><ele>1586.3</ele><time>2015-11-24T13:47:38.0000000+00:00</time></trkpt><trkpt lat="30.36899809" lon="35.51054517"><ele>1587.8</ele><time>2015-11-24T13:47:54.0000000+00:00</time></trkpt><trkpt lat="30.3689421" lon="35.51051667"><ele>1588.7</ele><time>2015-11-24T13:47:56.0000000+00:00</time></trkpt><trkpt lat="30.36840968" lon="35.51022565"><ele>1587.3</ele><time>2015-11-24T13:48:14.0000000+00:00</time></trkpt><trkpt lat="30.36782957" lon="35.50976247"><ele>1584.9</ele><time>2015-11-24T13:48:28.0000000+00:00</time></trkpt><trkpt lat="30.36749513" lon="35.50937899"><ele>1581.0</ele><time>2015-11-24T13:48:34.0000000+00:00</time></trkpt><trkpt lat="30.3671078" lon="35.50889125"><ele>1577.7</ele><time>2015-11-24T13:48:40.0000000+00:00</time></trkpt><trkpt lat="30.36703806" lon="35.50880341"><ele>1577.2</ele><time>2015-11-24T13:48:41.0000000+00:00</time></trkpt><trkpt lat="30.36662794" lon="35.50837811"><ele>1574.8</ele><time>2015-11-24T13:48:46.0000000+00:00</time></trkpt><trkpt lat="30.36594464" lon="35.5080145"><ele>1570.9</ele><time>2015-11-24T13:48:53.0000000+00:00</time></trkpt><trkpt lat="30.36530988" lon="35.50793169"><ele>1567.6</ele><time>2015-11-24T13:49:01.0000000+00:00</time></trkpt><trkpt lat="30.36508542" lon="35.50791065"><ele>1566.6</ele><time>2015-11-24T13:49:04.0000000+00:00</time></trkpt><trkpt lat="30.36443146" lon="35.50787503"><ele>1563.2</ele><time>2015-11-24T13:49:12.0000000+00:00</time></trkpt><trkpt lat="30.36425527" lon="35.50786681"><ele>1562.3</ele><time>2015-11-24T13:49:14.0000000+00:00</time></trkpt><trkpt lat="30.3640795" lon="35.50785483"><ele>1558.9</ele><time>2015-11-24T13:49:16.0000000+00:00</time></trkpt><trkpt lat="30.36363719" lon="35.50781091"><ele>1556.0</ele><time>2015-11-24T13:49:21.0000000+00:00</time></trkpt><trkpt lat="30.36290436" lon="35.50774754"><ele>1551.7</ele><time>2015-11-24T13:49:29.0000000+00:00</time></trkpt><trkpt lat="30.36261577" lon="35.50772768"><ele>1550.3</ele><time>2015-11-24T13:49:32.0000000+00:00</time></trkpt><trkpt lat="30.36222224" lon="35.50769574"><ele>1547.9</ele><time>2015-11-24T13:49:36.0000000+00:00</time></trkpt><trkpt lat="30.36124382" lon="35.50763849"><ele>1544.5</ele><time>2015-11-24T13:49:45.0000000+00:00</time></trkpt><trkpt lat="30.36113217" lon="35.50763447"><ele>1544.5</ele><time>2015-11-24T13:49:46.0000000+00:00</time></trkpt><trkpt lat="30.36080696" lon="35.50763095"><ele>1541.6</ele><time>2015-11-24T13:49:49.0000000+00:00</time></trkpt><trkpt lat="30.36011403" lon="35.50768593"><ele>1538.7</ele><time>2015-11-24T13:49:57.0000000+00:00</time></trkpt><trkpt lat="30.35995561" lon="35.50771343"><ele>1537.3</ele><time>2015-11-24T13:49:59.0000000+00:00</time></trkpt><trkpt lat="30.35966065" lon="35.50778417"><ele>1533.9</ele><time>2015-11-24T13:50:03.0000000+00:00</time></trkpt><trkpt lat="30.3591486" lon="35.50792851"><ele>1530.1</ele><time>2015-11-24T13:50:10.0000000+00:00</time></trkpt><trkpt lat="30.35893662" lon="35.50798919"><ele>1526.7</ele><time>2015-11-24T13:50:13.0000000+00:00</time></trkpt><trkpt lat="30.35886495" lon="35.50801157"><ele>1527.2</ele><time>2015-11-24T13:50:14.0000000+00:00</time></trkpt><trkpt lat="30.35824687" lon="35.50818306"><ele>1524.3</ele><time>2015-11-24T13:50:22.0000000+00:00</time></trkpt><trkpt lat="30.35778201" lon="35.50832539"><ele>1520.5</ele><time>2015-11-24T13:50:28.0000000+00:00</time></trkpt><trkpt lat="30.35763256" lon="35.50838029"><ele>1520.0</ele><time>2015-11-24T13:50:30.0000000+00:00</time></trkpt><trkpt lat="30.35748211" lon="35.5084419"><ele>1519.0</ele><time>2015-11-24T13:50:32.0000000+00:00</time></trkpt><trkpt lat="30.35718162" lon="35.50858079"><ele>1514.7</ele><time>2015-11-24T13:50:36.0000000+00:00</time></trkpt><trkpt lat="30.35672153" lon="35.50884364"><ele>1509.9</ele><time>2015-11-24T13:50:42.0000000+00:00</time></trkpt><trkpt lat="30.35656437" lon="35.50894775"><ele>1508.9</ele><time>2015-11-24T13:50:44.0000000+00:00</time></trkpt><trkpt lat="30.3561581" lon="35.50922753"><ele>1504.1</ele><time>2015-11-24T13:50:49.0000000+00:00</time></trkpt><trkpt lat="30.35599004" lon="35.50934111"><ele>1502.7</ele><time>2015-11-24T13:50:51.0000000+00:00</time></trkpt><trkpt lat="30.355723" lon="35.50951537"><ele>1500.3</ele><time>2015-11-24T13:50:54.0000000+00:00</time></trkpt><trkpt lat="30.3554386" lon="35.50967622"><ele>1497.9</ele><time>2015-11-24T13:50:57.0000000+00:00</time></trkpt><trkpt lat="30.35513325" lon="35.50980723"><ele>1494.5</ele><time>2015-11-24T13:51:00.0000000+00:00</time></trkpt><trkpt lat="30.35491867" lon="35.50987839"><ele>1493.1</ele><time>2015-11-24T13:51:02.0000000+00:00</time></trkpt><trkpt lat="30.35458993" lon="35.50996061"><ele>1489.7</ele><time>2015-11-24T13:51:05.0000000+00:00</time></trkpt><trkpt lat="30.35416514" lon="35.51003614"><ele>1486.8</ele><time>2015-11-24T13:51:09.0000000+00:00</time></trkpt><trkpt lat="30.35406196" lon="35.5100539"><ele>1486.3</ele><time>2015-11-24T13:51:10.0000000+00:00</time></trkpt><trkpt lat="30.35291749" lon="35.51026823"><ele>1484.4</ele><time>2015-11-24T13:51:23.0000000+00:00</time></trkpt><trkpt lat="30.35154982" lon="35.51050862"><ele>1483.5</ele><time>2015-11-24T13:51:42.0000000+00:00</time></trkpt><trkpt lat="30.35040988" lon="35.51073334"><ele>1482.0</ele><time>2015-11-24T13:52:00.0000000+00:00</time></trkpt><trkpt lat="30.34948879" lon="35.51072957"><ele>1482.5</ele><time>2015-11-24T13:52:15.0000000+00:00</time></trkpt><trkpt lat="30.3487537" lon="35.51050929"><ele>1482.5</ele><time>2015-11-24T13:52:27.0000000+00:00</time></trkpt><trkpt lat="30.34834986" lon="35.51035331"><ele>1481.1</ele><time>2015-11-24T13:52:34.0000000+00:00</time></trkpt><trkpt lat="30.34829378" lon="35.5103347"><ele>1480.6</ele><time>2015-11-24T13:52:35.0000000+00:00</time></trkpt><trkpt lat="30.34732291" lon="35.50997268"><ele>1478.2</ele><time>2015-11-24T13:52:52.0000000+00:00</time></trkpt><trkpt lat="30.34633334" lon="35.50971838"><ele>1475.8</ele><time>2015-11-24T13:53:08.0000000+00:00</time></trkpt><trkpt lat="30.34595322" lon="35.50981091"><ele>1475.3</ele><time>2015-11-24T13:53:14.0000000+00:00</time></trkpt><trkpt lat="30.34589639" lon="35.50984151"><ele>1475.3</ele><time>2015-11-24T13:53:15.0000000+00:00</time></trkpt><trkpt lat="30.34569925" lon="35.5099814"><ele>1473.8</ele><time>2015-11-24T13:53:19.0000000+00:00</time></trkpt><trkpt lat="30.34565801" lon="35.51002054"><ele>1473.8</ele><time>2015-11-24T13:53:20.0000000+00:00</time></trkpt><trkpt lat="30.34526557" lon="35.51060518"><ele>1473.4</ele><time>2015-11-24T13:53:33.0000000+00:00</time></trkpt><trkpt lat="30.34490447" lon="35.51118915"><ele>1474.8</ele><time>2015-11-24T13:53:50.0000000+00:00</time></trkpt><trkpt lat="30.34455026" lon="35.51147757"><ele>1475.8</ele><time>2015-11-24T13:54:06.0000000+00:00</time></trkpt><trkpt lat="30.34425798" lon="35.51157991"><ele>1478.7</ele><time>2015-11-24T13:54:19.0000000+00:00</time></trkpt><trkpt lat="30.34390275" lon="35.51158075"><ele>1482.0</ele><time>2015-11-24T13:54:38.0000000+00:00</time></trkpt><trkpt lat="30.34357603" lon="35.51154002"><ele>1483.5</ele><time>2015-11-24T13:54:57.0000000+00:00</time></trkpt><trkpt lat="30.34324796" lon="35.51151571"><ele>1484.4</ele><time>2015-11-24T13:55:15.0000000+00:00</time></trkpt><trkpt lat="30.34290506" lon="35.51150657"><ele>1487.3</ele><time>2015-11-24T13:55:30.0000000+00:00</time></trkpt><trkpt lat="30.34244036" lon="35.51153926"><ele>1487.8</ele><time>2015-11-24T13:55:48.0000000+00:00</time></trkpt><trkpt lat="30.34190895" lon="35.51160892"><ele>1487.8</ele><time>2015-11-24T13:56:05.0000000+00:00</time></trkpt><trkpt lat="30.34153495" lon="35.51165108"><ele>1490.7</ele><time>2015-11-24T13:56:16.0000000+00:00</time></trkpt><trkpt lat="30.34143596" lon="35.51165728"><ele>1489.2</ele><time>2015-11-24T13:56:19.0000000+00:00</time></trkpt><trkpt lat="30.34077781" lon="35.5117307"><ele>1489.2</ele><time>2015-11-24T13:56:37.0000000+00:00</time></trkpt><trkpt lat="30.33998556" lon="35.51175853"><ele>1490.2</ele><time>2015-11-24T13:56:57.0000000+00:00</time></trkpt><trkpt lat="30.33951256" lon="35.51161143"><ele>1493.6</ele><time>2015-11-24T13:57:12.0000000+00:00</time></trkpt><trkpt lat="30.33918399" lon="35.51140423"><ele>1496.9</ele><time>2015-11-24T13:57:26.0000000+00:00</time></trkpt><trkpt lat="30.33885593" lon="35.51116065"><ele>1499.3</ele><time>2015-11-24T13:57:41.0000000+00:00</time></trkpt><trkpt lat="30.33845594" lon="35.51096393"><ele>1500.8</ele><time>2015-11-24T13:57:59.0000000+00:00</time></trkpt><trkpt lat="30.33800902" lon="35.51104372"><ele>1502.7</ele><time>2015-11-24T13:58:16.0000000+00:00</time></trkpt><trkpt lat="30.33764374" lon="35.51125042"><ele>1503.2</ele><time>2015-11-24T13:58:29.0000000+00:00</time></trkpt><trkpt lat="30.33722338" lon="35.51135721"><ele>1502.2</ele><time>2015-11-24T13:58:43.0000000+00:00</time></trkpt><trkpt lat="30.33673128" lon="35.51106091"><ele>1501.2</ele><time>2015-11-24T13:58:58.0000000+00:00</time></trkpt><trkpt lat="30.33665752" lon="35.51099687"><ele>1500.3</ele><time>2015-11-24T13:59:00.0000000+00:00</time></trkpt><trkpt lat="30.33657831" lon="35.51093359"><ele>1499.3</ele><time>2015-11-24T13:59:02.0000000+00:00</time></trkpt><trkpt lat="30.33653556" lon="35.51090634"><ele>1499.3</ele><time>2015-11-24T13:59:03.0000000+00:00</time></trkpt><trkpt lat="30.33649164" lon="35.51088044"><ele>1499.3</ele><time>2015-11-24T13:59:04.0000000+00:00</time></trkpt><trkpt lat="30.33634496" lon="35.51082018"><ele>1498.8</ele><time>2015-11-24T13:59:07.0000000+00:00</time></trkpt><trkpt lat="30.33616215" lon="35.51079277"><ele>1500.3</ele><time>2015-11-24T13:59:10.0000000+00:00</time></trkpt><trkpt lat="30.33609275" lon="35.51079646"><ele>1500.3</ele><time>2015-11-24T13:59:11.0000000+00:00</time></trkpt><trkpt lat="30.33602024" lon="35.51080735"><ele>1499.3</ele><time>2015-11-24T13:59:12.0000000+00:00</time></trkpt><trkpt lat="30.33594732" lon="35.51082412"><ele>1498.8</ele><time>2015-11-24T13:59:13.0000000+00:00</time></trkpt><trkpt lat="30.33587331" lon="35.51084591"><ele>1498.4</ele><time>2015-11-24T13:59:14.0000000+00:00</time></trkpt><trkpt lat="30.33563769" lon="35.51091732"><ele>1495.0</ele><time>2015-11-24T13:59:17.0000000+00:00</time></trkpt><trkpt lat="30.33555237" lon="35.51094331"><ele>1495.5</ele><time>2015-11-24T13:59:18.0000000+00:00</time></trkpt><trkpt lat="30.3351735" lon="35.51104062"><ele>1493.6</ele><time>2015-11-24T13:59:22.0000000+00:00</time></trkpt><trkpt lat="30.33507326" lon="35.51103869"><ele>1492.6</ele><time>2015-11-24T13:59:23.0000000+00:00</time></trkpt><trkpt lat="30.33497066" lon="35.51101975"><ele>1491.6</ele><time>2015-11-24T13:59:24.0000000+00:00</time></trkpt><trkpt lat="30.33486882" lon="35.51098254"><ele>1490.2</ele><time>2015-11-24T13:59:25.0000000+00:00</time></trkpt><trkpt lat="30.33477159" lon="35.51092554"><ele>1489.7</ele><time>2015-11-24T13:59:26.0000000+00:00</time></trkpt><trkpt lat="30.33467889" lon="35.51085245"><ele>1488.7</ele><time>2015-11-24T13:59:27.0000000+00:00</time></trkpt><trkpt lat="30.33458778" lon="35.51076947"><ele>1487.8</ele><time>2015-11-24T13:59:28.0000000+00:00</time></trkpt><trkpt lat="30.33423523" lon="35.51047158"><ele>1483.9</ele><time>2015-11-24T13:59:32.0000000+00:00</time></trkpt><trkpt lat="30.33414639" lon="35.51042497"><ele>1483.0</ele><time>2015-11-24T13:59:33.0000000+00:00</time></trkpt><trkpt lat="30.33405276" lon="35.51038759"><ele>1482.5</ele><time>2015-11-24T13:59:34.0000000+00:00</time></trkpt><trkpt lat="30.33395243" lon="35.51035867"><ele>1482.5</ele><time>2015-11-24T13:59:35.0000000+00:00</time></trkpt><trkpt lat="30.33384732" lon="35.51034015"><ele>1482.5</ele><time>2015-11-24T13:59:36.0000000+00:00</time></trkpt><trkpt lat="30.33373978" lon="35.51033202"><ele>1481.5</ele><time>2015-11-24T13:59:37.0000000+00:00</time></trkpt><trkpt lat="30.3336304" lon="35.5103404"><ele>1480.6</ele><time>2015-11-24T13:59:38.0000000+00:00</time></trkpt><trkpt lat="30.33351984" lon="35.51035808"><ele>1480.1</ele><time>2015-11-24T13:59:39.0000000+00:00</time></trkpt><trkpt lat="30.3326648" lon="35.51052681"><ele>1476.7</ele><time>2015-11-24T13:59:47.0000000+00:00</time></trkpt><trkpt lat="30.33217077" lon="35.51043436"><ele>1474.8</ele><time>2015-11-24T13:59:52.0000000+00:00</time></trkpt><trkpt lat="30.33133912" lon="35.51012758"><ele>1475.8</ele><time>2015-11-24T14:00:03.0000000+00:00</time></trkpt><trkpt lat="30.33049707" lon="35.50975266"><ele>1474.3</ele><time>2015-11-24T14:00:18.0000000+00:00</time></trkpt><trkpt lat="30.33036187" lon="35.5096732"><ele>1475.3</ele><time>2015-11-24T14:00:21.0000000+00:00</time></trkpt><trkpt lat="30.32989475" lon="35.50931948"><ele>1473.4</ele><time>2015-11-24T14:00:32.0000000+00:00</time></trkpt><trkpt lat="30.32911272" lon="35.5088687"><ele>1470.5</ele><time>2015-11-24T14:00:45.0000000+00:00</time></trkpt><trkpt lat="30.32884232" lon="35.50876846"><ele>1468.6</ele><time>2015-11-24T14:00:48.0000000+00:00</time></trkpt><trkpt lat="30.3284534" lon="35.50861071"><ele>1464.2</ele><time>2015-11-24T14:00:52.0000000+00:00</time></trkpt><trkpt lat="30.32836145" lon="35.5085569"><ele>1462.3</ele><time>2015-11-24T14:00:53.0000000+00:00</time></trkpt><trkpt lat="30.32827956" lon="35.50849252"><ele>1460.9</ele><time>2015-11-24T14:00:54.0000000+00:00</time></trkpt><trkpt lat="30.32820622" lon="35.50841415"><ele>1459.4</ele><time>2015-11-24T14:00:55.0000000+00:00</time></trkpt><trkpt lat="30.32814176" lon="35.5083165"><ele>1458.5</ele><time>2015-11-24T14:00:56.0000000+00:00</time></trkpt><trkpt lat="30.32808719" lon="35.5082015"><ele>1457.5</ele><time>2015-11-24T14:00:57.0000000+00:00</time></trkpt><trkpt lat="30.32804444" lon="35.50807293"><ele>1456.5</ele><time>2015-11-24T14:00:58.0000000+00:00</time></trkpt><trkpt lat="30.32802072" lon="35.50793261"><ele>1456.1</ele><time>2015-11-24T14:00:59.0000000+00:00</time></trkpt><trkpt lat="30.32801662" lon="35.50778199"><ele>1454.6</ele><time>2015-11-24T14:01:00.0000000+00:00</time></trkpt><trkpt lat="30.32802466" lon="35.50762558"><ele>1453.2</ele><time>2015-11-24T14:01:01.0000000+00:00</time></trkpt><trkpt lat="30.32804956" lon="35.50729492"><ele>1450.3</ele><time>2015-11-24T14:01:03.0000000+00:00</time></trkpt><trkpt lat="30.32808987" lon="35.50676392"><ele>1446.4</ele><time>2015-11-24T14:01:06.0000000+00:00</time></trkpt><trkpt lat="30.32812382" lon="35.50625305"><ele>1442.1</ele><time>2015-11-24T14:01:09.0000000+00:00</time></trkpt><trkpt lat="30.32810974" lon="35.50599237"><ele>1439.2</ele><time>2015-11-24T14:01:11.0000000+00:00</time></trkpt><trkpt lat="30.328083" lon="35.50587092"><ele>1438.8</ele><time>2015-11-24T14:01:12.0000000+00:00</time></trkpt><trkpt lat="30.32804453" lon="35.50574703"><ele>1437.8</ele><time>2015-11-24T14:01:13.0000000+00:00</time></trkpt><trkpt lat="30.32799885" lon="35.50562432"><ele>1436.4</ele><time>2015-11-24T14:01:14.0000000+00:00</time></trkpt><trkpt lat="30.32794453" lon="35.5055063"><ele>1434.9</ele><time>2015-11-24T14:01:15.0000000+00:00</time></trkpt><trkpt lat="30.32788016" lon="35.50539348"><ele>1434.9</ele><time>2015-11-24T14:01:16.0000000+00:00</time></trkpt><trkpt lat="30.32780581" lon="35.50528837"><ele>1433.0</ele><time>2015-11-24T14:01:17.0000000+00:00</time></trkpt><trkpt lat="30.32772367" lon="35.50519106"><ele>1432.5</ele><time>2015-11-24T14:01:18.0000000+00:00</time></trkpt><trkpt lat="30.32763599" lon="35.50510305"><ele>1430.6</ele><time>2015-11-24T14:01:19.0000000+00:00</time></trkpt><trkpt lat="30.32754463" lon="35.50502426"><ele>1428.7</ele><time>2015-11-24T14:01:20.0000000+00:00</time></trkpt><trkpt lat="30.32744933" lon="35.50495628"><ele>1427.2</ele><time>2015-11-24T14:01:21.0000000+00:00</time></trkpt><trkpt lat="30.32734598" lon="35.50489543"><ele>1426.3</ele><time>2015-11-24T14:01:22.0000000+00:00</time></trkpt><trkpt lat="30.32723517" lon="35.50483734"><ele>1423.9</ele><time>2015-11-24T14:01:23.0000000+00:00</time></trkpt><trkpt lat="30.32711908" lon="35.50477993"><ele>1423.9</ele><time>2015-11-24T14:01:24.0000000+00:00</time></trkpt><trkpt lat="30.32687458" lon="35.50466149"><ele>1419.5</ele><time>2015-11-24T14:01:26.0000000+00:00</time></trkpt><trkpt lat="30.32648097" lon="35.50446854"><ele>1414.2</ele><time>2015-11-24T14:01:29.0000000+00:00</time></trkpt><trkpt lat="30.32610437" lon="35.50423066"><ele>1410.9</ele><time>2015-11-24T14:01:32.0000000+00:00</time></trkpt><trkpt lat="30.32599599" lon="35.5041305"><ele>1409.4</ele><time>2015-11-24T14:01:33.0000000+00:00</time></trkpt><trkpt lat="30.32589491" lon="35.50402103"><ele>1408.0</ele><time>2015-11-24T14:01:34.0000000+00:00</time></trkpt><trkpt lat="30.32562777" lon="35.5036855"><ele>1403.2</ele><time>2015-11-24T14:01:37.0000000+00:00</time></trkpt><trkpt lat="30.32547757" lon="35.50349297"><ele>1399.3</ele><time>2015-11-24T14:01:39.0000000+00:00</time></trkpt><trkpt lat="30.32532603" lon="35.50332542"><ele>1395.0</ele><time>2015-11-24T14:01:41.0000000+00:00</time></trkpt><trkpt lat="30.32523952" lon="35.5032473"><ele>1394.5</ele><time>2015-11-24T14:01:42.0000000+00:00</time></trkpt><trkpt lat="30.32514716" lon="35.50317982"><ele>1393.1</ele><time>2015-11-24T14:01:43.0000000+00:00</time></trkpt><trkpt lat="30.3250454" lon="35.50312442"><ele>1392.6</ele><time>2015-11-24T14:01:44.0000000+00:00</time></trkpt><trkpt lat="30.32493191" lon="35.50307698"><ele>1391.2</ele><time>2015-11-24T14:01:45.0000000+00:00</time></trkpt><trkpt lat="30.32481171" lon="35.50303649"><ele>1390.2</ele><time>2015-11-24T14:01:46.0000000+00:00</time></trkpt><trkpt lat="30.324688" lon="35.50300632"><ele>1388.3</ele><time>2015-11-24T14:01:47.0000000+00:00</time></trkpt><trkpt lat="30.32456051" lon="35.50298452"><ele>1387.3</ele><time>2015-11-24T14:01:48.0000000+00:00</time></trkpt><trkpt lat="30.32442908" lon="35.50296298"><ele>1386.4</ele><time>2015-11-24T14:01:49.0000000+00:00</time></trkpt><trkpt lat="30.32417502" lon="35.50290481"><ele>1383.0</ele><time>2015-11-24T14:01:51.0000000+00:00</time></trkpt><trkpt lat="30.32406069" lon="35.50285754"><ele>1381.6</ele><time>2015-11-24T14:01:52.0000000+00:00</time></trkpt><trkpt lat="30.32395592" lon="35.50278814"><ele>1380.1</ele><time>2015-11-24T14:01:53.0000000+00:00</time></trkpt><trkpt lat="30.32385936" lon="35.50269728"><ele>1379.2</ele><time>2015-11-24T14:01:54.0000000+00:00</time></trkpt><trkpt lat="30.32376817" lon="35.50258747"><ele>1377.7</ele><time>2015-11-24T14:01:55.0000000+00:00</time></trkpt><trkpt lat="30.32368124" lon="35.50246895"><ele>1376.3</ele><time>2015-11-24T14:01:56.0000000+00:00</time></trkpt><trkpt lat="30.32360245" lon="35.50234716"><ele>1374.3</ele><time>2015-11-24T14:01:57.0000000+00:00</time></trkpt><trkpt lat="30.32353121" lon="35.50222303"><ele>1373.9</ele><time>2015-11-24T14:01:58.0000000+00:00</time></trkpt><trkpt lat="30.32347061" lon="35.50209403"><ele>1371.9</ele><time>2015-11-24T14:01:59.0000000+00:00</time></trkpt><trkpt lat="30.32342761" lon="35.50195808"><ele>1370.5</ele><time>2015-11-24T14:02:00.0000000+00:00</time></trkpt><trkpt lat="30.32340389" lon="35.50181382"><ele>1369.1</ele><time>2015-11-24T14:02:01.0000000+00:00</time></trkpt><trkpt lat="30.32339961" lon="35.50166052"><ele>1367.6</ele><time>2015-11-24T14:02:02.0000000+00:00</time></trkpt><trkpt lat="30.32340749" lon="35.50149942"><ele>1366.2</ele><time>2015-11-24T14:02:03.0000000+00:00</time></trkpt><trkpt lat="30.32342392" lon="35.50133287"><ele>1364.7</ele><time>2015-11-24T14:02:04.0000000+00:00</time></trkpt><trkpt lat="30.32346273" lon="35.50101536"><ele>1360.9</ele><time>2015-11-24T14:02:06.0000000+00:00</time></trkpt><trkpt lat="30.32348955" lon="35.50074513"><ele>1358.0</ele><time>2015-11-24T14:02:08.0000000+00:00</time></trkpt><trkpt lat="30.32349332" lon="35.50062963"><ele>1356.6</ele><time>2015-11-24T14:02:09.0000000+00:00</time></trkpt><trkpt lat="30.32348955" lon="35.50052418"><ele>1355.6</ele><time>2015-11-24T14:02:10.0000000+00:00</time></trkpt><trkpt lat="30.32347991" lon="35.50042184"><ele>1354.2</ele><time>2015-11-24T14:02:11.0000000+00:00</time></trkpt><trkpt lat="30.32342115" lon="35.5001076"><ele>1351.8</ele><time>2015-11-24T14:02:14.0000000+00:00</time></trkpt><trkpt lat="30.32335536" lon="35.49990367"><ele>1347.4</ele><time>2015-11-24T14:02:16.0000000+00:00</time></trkpt><trkpt lat="30.32331856" lon="35.49980393"><ele>1346.9</ele><time>2015-11-24T14:02:17.0000000+00:00</time></trkpt><trkpt lat="30.32321421" lon="35.49952129"><ele>1344.1</ele><time>2015-11-24T14:02:21.0000000+00:00</time></trkpt><trkpt lat="30.32313793" lon="35.49933563"><ele>1341.2</ele><time>2015-11-24T14:02:24.0000000+00:00</time></trkpt><trkpt lat="30.32305285" lon="35.4989861"><ele>1338.3</ele><time>2015-11-24T14:02:28.0000000+00:00</time></trkpt><trkpt lat="30.32304439" lon="35.49887597"><ele>1337.3</ele><time>2015-11-24T14:02:29.0000000+00:00</time></trkpt><trkpt lat="30.32304724" lon="35.49877019"><ele>1335.9</ele><time>2015-11-24T14:02:30.0000000+00:00</time></trkpt><trkpt lat="30.32306207" lon="35.49867254"><ele>1335.4</ele><time>2015-11-24T14:02:31.0000000+00:00</time></trkpt><trkpt lat="30.32308923" lon="35.49858226"><ele>1334.5</ele><time>2015-11-24T14:02:32.0000000+00:00</time></trkpt><trkpt lat="30.32312494" lon="35.49850331"><ele>1333.0</ele><time>2015-11-24T14:02:33.0000000+00:00</time></trkpt><trkpt lat="30.32316869" lon="35.49843173"><ele>1331.6</ele><time>2015-11-24T14:02:34.0000000+00:00</time></trkpt><trkpt lat="30.32322049" lon="35.4983645"><ele>1330.6</ele><time>2015-11-24T14:02:35.0000000+00:00</time></trkpt><trkpt lat="30.32327548" lon="35.49830809"><ele>1329.6</ele><time>2015-11-24T14:02:36.0000000+00:00</time></trkpt><trkpt lat="30.32332887" lon="35.49826065"><ele>1328.7</ele><time>2015-11-24T14:02:37.0000000+00:00</time></trkpt><trkpt lat="30.32351017" lon="35.49812143"><ele>1325.3</ele><time>2015-11-24T14:02:41.0000000+00:00</time></trkpt><trkpt lat="30.32356247" lon="35.49809553"><ele>1324.4</ele><time>2015-11-24T14:02:42.0000000+00:00</time></trkpt><trkpt lat="30.32375358" lon="35.49801707"><ele>1322.4</ele><time>2015-11-24T14:02:46.0000000+00:00</time></trkpt><trkpt lat="30.32405407" lon="35.49787299"><ele>1319.6</ele><time>2015-11-24T14:02:56.0000000+00:00</time></trkpt><trkpt lat="30.32431198" lon="35.49768775"><ele>1317.1</ele><time>2015-11-24T14:03:07.0000000+00:00</time></trkpt><trkpt lat="30.32450686" lon="35.49765288"><ele>1316.2</ele><time>2015-11-24T14:03:16.0000000+00:00</time></trkpt><trkpt lat="30.32449932" lon="35.49765104"><ele>1315.7</ele><time>2015-11-24T14:03:45.0000000+00:00</time></trkpt></trkseg><trkseg><trkpt lat="30.1771774" lon="35.42748705"><ele>1574.3</ele><time>2015-11-26T07:09:23.0000000+00:00</time></trkpt><trkpt lat="30.17717354" lon="35.42749308"><ele>1573.8</ele><time>2015-11-26T07:09:39.0000000+00:00</time></trkpt><trkpt lat="30.17716977" lon="35.42749367"><ele>1573.8</ele><time>2015-11-26T07:10:12.0000000+00:00</time></trkpt><trkpt lat="30.17716239" lon="35.42752971"><ele>1573.8</ele><time>2015-11-26T07:10:27.0000000+00:00</time></trkpt><trkpt lat="30.17713616" lon="35.42758134"><ele>1573.3</ele><time>2015-11-26T07:10:56.0000000+00:00</time></trkpt><trkpt lat="30.17712794" lon="35.42759484"><ele>1573.8</ele><time>2015-11-26T07:10:58.0000000+00:00</time></trkpt><trkpt lat="30.17705871" lon="35.42768176"><ele>1573.8</ele><time>2015-11-26T07:11:07.0000000+00:00</time></trkpt><trkpt lat="30.17679594" lon="35.42764287"><ele>1574.8</ele><time>2015-11-26T07:11:23.0000000+00:00</time></trkpt><trkpt lat="30.17644297" lon="35.42762828"><ele>1575.3</ele><time>2015-11-26T07:11:39.0000000+00:00</time></trkpt><trkpt lat="30.17598742" lon="35.42762082"><ele>1574.8</ele><time>2015-11-26T07:11:55.0000000+00:00</time></trkpt><trkpt lat="30.17559598" lon="35.42762744"><ele>1573.8</ele><time>2015-11-26T07:12:06.0000000+00:00</time></trkpt><trkpt lat="30.17474438" lon="35.42767388"><ele>1572.4</ele><time>2015-11-26T07:12:23.0000000+00:00</time></trkpt><trkpt lat="30.17363671" lon="35.42773808"><ele>1570.0</ele><time>2015-11-26T07:12:41.0000000+00:00</time></trkpt><trkpt lat="30.17254874" lon="35.42781117"><ele>1568.5</ele><time>2015-11-26T07:12:59.0000000+00:00</time></trkpt><trkpt lat="30.17200333" lon="35.42783372"><ele>1568.1</ele><time>2015-11-26T07:13:09.0000000+00:00</time></trkpt><trkpt lat="30.17194189" lon="35.42781981"><ele>1567.6</ele><time>2015-11-26T07:13:10.0000000+00:00</time></trkpt><trkpt lat="30.17188313" lon="35.42780137"><ele>1568.1</ele><time>2015-11-26T07:13:11.0000000+00:00</time></trkpt><trkpt lat="30.17182832" lon="35.42777622"><ele>1568.1</ele><time>2015-11-26T07:13:12.0000000+00:00</time></trkpt><trkpt lat="30.1717745" lon="35.42775049"><ele>1567.6</ele><time>2015-11-26T07:13:13.0000000+00:00</time></trkpt><trkpt lat="30.17167216" lon="35.4276914"><ele>1567.1</ele><time>2015-11-26T07:13:15.0000000+00:00</time></trkpt><trkpt lat="30.17157569" lon="35.42761981"><ele>1566.6</ele><time>2015-11-26T07:13:17.0000000+00:00</time></trkpt><trkpt lat="30.17099474" lon="35.42723819"><ele>1564.2</ele><time>2015-11-26T07:13:28.0000000+00:00</time></trkpt><trkpt lat="30.17093766" lon="35.42720592"><ele>1564.2</ele><time>2015-11-26T07:13:29.0000000+00:00</time></trkpt><trkpt lat="30.17088426" lon="35.42717021"><ele>1563.7</ele><time>2015-11-26T07:13:30.0000000+00:00</time></trkpt><trkpt lat="30.16997994" lon="35.4265352"><ele>1560.8</ele><time>2015-11-26T07:13:45.0000000+00:00</time></trkpt><trkpt lat="30.16889943" lon="35.42577228"><ele>1558.9</ele><time>2015-11-26T07:14:03.0000000+00:00</time></trkpt><trkpt lat="30.16807968" lon="35.42542485"><ele>1556.0</ele><time>2015-11-26T07:14:16.0000000+00:00</time></trkpt><trkpt lat="30.16724694" lon="35.42515931"><ele>1552.7</ele><time>2015-11-26T07:14:27.0000000+00:00</time></trkpt><trkpt lat="30.16644328" lon="35.42491162"><ele>1549.3</ele><time>2015-11-26T07:14:37.0000000+00:00</time></trkpt><trkpt lat="30.16540878" lon="35.42458934"><ele>1548.3</ele><time>2015-11-26T07:14:52.0000000+00:00</time></trkpt><trkpt lat="30.16466321" lon="35.42433017"><ele>1548.8</ele><time>2015-11-26T07:15:09.0000000+00:00</time></trkpt><trkpt lat="30.1638552" lon="35.42407352"><ele>1546.4</ele><time>2015-11-26T07:15:25.0000000+00:00</time></trkpt><trkpt lat="30.16294995" lon="35.42376481"><ele>1543.1</ele><time>2015-11-26T07:15:39.0000000+00:00</time></trkpt><trkpt lat="30.16216122" lon="35.42350614"><ele>1540.2</ele><time>2015-11-26T07:15:50.0000000+00:00</time></trkpt><trkpt lat="30.16176643" lon="35.42331353"><ele>1539.7</ele><time>2015-11-26T07:15:56.0000000+00:00</time></trkpt><trkpt lat="30.16170809" lon="35.42327807"><ele>1540.2</ele><time>2015-11-26T07:15:57.0000000+00:00</time></trkpt><trkpt lat="30.16164984" lon="35.42324337"><ele>1540.2</ele><time>2015-11-26T07:15:58.0000000+00:00</time></trkpt><trkpt lat="30.16081575" lon="35.42286971"><ele>1540.7</ele><time>2015-11-26T07:16:14.0000000+00:00</time></trkpt><trkpt lat="30.16004286" lon="35.4225926"><ele>1537.3</ele><time>2015-11-26T07:16:28.0000000+00:00</time></trkpt><trkpt lat="30.15909721" lon="35.42204057"><ele>1534.9</ele><time>2015-11-26T07:16:44.0000000+00:00</time></trkpt><trkpt lat="30.15856915" lon="35.42175324"><ele>1533.9</ele><time>2015-11-26T07:16:54.0000000+00:00</time></trkpt><trkpt lat="30.1585207" lon="35.4217358"><ele>1533.9</ele><time>2015-11-26T07:16:55.0000000+00:00</time></trkpt><trkpt lat="30.15847469" lon="35.42170831"><ele>1533.9</ele><time>2015-11-26T07:16:56.0000000+00:00</time></trkpt><trkpt lat="30.15829213" lon="35.4215835"><ele>1533.0</ele><time>2015-11-26T07:17:00.0000000+00:00</time></trkpt><trkpt lat="30.15769391" lon="35.42125812"><ele>1530.1</ele><time>2015-11-26T07:17:10.0000000+00:00</time></trkpt><trkpt lat="30.15702931" lon="35.42088739"><ele>1526.2</ele><time>2015-11-26T07:17:19.0000000+00:00</time></trkpt><trkpt lat="30.1565466" lon="35.42061497"><ele>1523.8</ele><time>2015-11-26T07:17:25.0000000+00:00</time></trkpt><trkpt lat="30.15559467" lon="35.42035053"><ele>1521.9</ele><time>2015-11-26T07:17:37.0000000+00:00</time></trkpt><trkpt lat="30.15479688" lon="35.42022756"><ele>1520.0</ele><time>2015-11-26T07:17:49.0000000+00:00</time></trkpt><trkpt lat="30.15473334" lon="35.42021273"><ele>1520.0</ele><time>2015-11-26T07:17:50.0000000+00:00</time></trkpt><trkpt lat="30.15423026" lon="35.4201124"><ele>1516.6</ele><time>2015-11-26T07:17:57.0000000+00:00</time></trkpt><trkpt lat="30.15381234" lon="35.42002807"><ele>1513.3</ele><time>2015-11-26T07:18:02.0000000+00:00</time></trkpt><trkpt lat="30.15373246" lon="35.42002019"><ele>1513.3</ele><time>2015-11-26T07:18:03.0000000+00:00</time></trkpt><trkpt lat="30.15357186" lon="35.4200176"><ele>1512.3</ele><time>2015-11-26T07:18:05.0000000+00:00</time></trkpt><trkpt lat="30.15348938" lon="35.42002849"><ele>1511.3</ele><time>2015-11-26T07:18:06.0000000+00:00</time></trkpt><trkpt lat="30.15340573" lon="35.42004501"><ele>1510.9</ele><time>2015-11-26T07:18:07.0000000+00:00</time></trkpt><trkpt lat="30.1533199" lon="35.42006261"><ele>1510.4</ele><time>2015-11-26T07:18:08.0000000+00:00</time></trkpt><trkpt lat="30.15323164" lon="35.42007334"><ele>1509.9</ele><time>2015-11-26T07:18:09.0000000+00:00</time></trkpt><trkpt lat="30.15314162" lon="35.42007199"><ele>1509.4</ele><time>2015-11-26T07:18:10.0000000+00:00</time></trkpt><trkpt lat="30.15305302" lon="35.42005632"><ele>1508.9</ele><time>2015-11-26T07:18:11.0000000+00:00</time></trkpt><trkpt lat="30.15296778" lon="35.42002447"><ele>1508.9</ele><time>2015-11-26T07:18:12.0000000+00:00</time></trkpt><trkpt lat="30.15288597" lon="35.41998457"><ele>1508.5</ele><time>2015-11-26T07:18:13.0000000+00:00</time></trkpt><trkpt lat="30.15272512" lon="35.41989539"><ele>1507.5</ele><time>2015-11-26T07:18:15.0000000+00:00</time></trkpt><trkpt lat="30.1521725" lon="35.41952063"><ele>1504.6</ele><time>2015-11-26T07:18:22.0000000+00:00</time></trkpt><trkpt lat="30.15180705" lon="35.41910891"><ele>1501.2</ele><time>2015-11-26T07:18:27.0000000+00:00</time></trkpt><trkpt lat="30.15173329" lon="35.41902912"><ele>1500.8</ele><time>2015-11-26T07:18:28.0000000+00:00</time></trkpt><trkpt lat="30.15165861" lon="35.41896022"><ele>1500.3</ele><time>2015-11-26T07:18:29.0000000+00:00</time></trkpt><trkpt lat="30.15158275" lon="35.41890398"><ele>1499.8</ele><time>2015-11-26T07:18:30.0000000+00:00</time></trkpt><trkpt lat="30.15150949" lon="35.41885947"><ele>1499.3</ele><time>2015-11-26T07:18:31.0000000+00:00</time></trkpt><trkpt lat="30.15143976" lon="35.41882653"><ele>1498.8</ele><time>2015-11-26T07:18:32.0000000+00:00</time></trkpt><trkpt lat="30.15137413" lon="35.41880297"><ele>1498.4</ele><time>2015-11-26T07:18:33.0000000+00:00</time></trkpt><trkpt lat="30.15130975" lon="35.41878688"><ele>1498.4</ele><time>2015-11-26T07:18:34.0000000+00:00</time></trkpt><trkpt lat="30.15124731" lon="35.41877657"><ele>1497.9</ele><time>2015-11-26T07:18:35.0000000+00:00</time></trkpt><trkpt lat="30.15118704" lon="35.41877347"><ele>1497.4</ele><time>2015-11-26T07:18:36.0000000+00:00</time></trkpt><trkpt lat="30.15112694" lon="35.41877557"><ele>1497.4</ele><time>2015-11-26T07:18:37.0000000+00:00</time></trkpt><trkpt lat="30.15106701" lon="35.41878177"><ele>1496.9</ele><time>2015-11-26T07:18:38.0000000+00:00</time></trkpt><trkpt lat="30.15070575" lon="35.41883642"><ele>1496.4</ele><time>2015-11-26T07:18:44.0000000+00:00</time></trkpt><trkpt lat="30.14985541" lon="35.419166"><ele>1493.1</ele><time>2015-11-26T07:18:58.0000000+00:00</time></trkpt><trkpt lat="30.14971987" lon="35.41923204"><ele>1492.1</ele><time>2015-11-26T07:19:00.0000000+00:00</time></trkpt><trkpt lat="30.14964829" lon="35.41925216"><ele>1491.6</ele><time>2015-11-26T07:19:01.0000000+00:00</time></trkpt><trkpt lat="30.14886769" lon="35.41936934"><ele>1488.3</ele><time>2015-11-26T07:19:11.0000000+00:00</time></trkpt><trkpt lat="30.1485827" lon="35.41939616"><ele>1485.9</ele><time>2015-11-26T07:19:14.0000000+00:00</time></trkpt><trkpt lat="30.14848103" lon="35.4193861"><ele>1485.4</ele><time>2015-11-26T07:19:15.0000000+00:00</time></trkpt><trkpt lat="30.14837994" lon="35.41936322"><ele>1484.4</ele><time>2015-11-26T07:19:16.0000000+00:00</time></trkpt><trkpt lat="30.14828447" lon="35.41932559"><ele>1484.4</ele><time>2015-11-26T07:19:17.0000000+00:00</time></trkpt><trkpt lat="30.14819646" lon="35.41927203"><ele>1483.9</ele><time>2015-11-26T07:19:18.0000000+00:00</time></trkpt><trkpt lat="30.14812161" lon="35.41920614"><ele>1483.5</ele><time>2015-11-26T07:19:19.0000000+00:00</time></trkpt><trkpt lat="30.14805774" lon="35.41913188"><ele>1483.0</ele><time>2015-11-26T07:19:20.0000000+00:00</time></trkpt><trkpt lat="30.14800183" lon="35.41905527"><ele>1482.5</ele><time>2015-11-26T07:19:21.0000000+00:00</time></trkpt><trkpt lat="30.14747537" lon="35.41847248"><ele>1480.1</ele><time>2015-11-26T07:19:30.0000000+00:00</time></trkpt><trkpt lat="30.14740697" lon="35.41842847"><ele>1480.1</ele><time>2015-11-26T07:19:31.0000000+00:00</time></trkpt><trkpt lat="30.1467158" lon="35.41806553"><ele>1476.7</ele><time>2015-11-26T07:19:40.0000000+00:00</time></trkpt><trkpt lat="30.14656803" lon="35.41796219"><ele>1476.2</ele><time>2015-11-26T07:19:42.0000000+00:00</time></trkpt><trkpt lat="30.14579756" lon="35.41722802"><ele>1474.3</ele><time>2015-11-26T07:19:55.0000000+00:00</time></trkpt><trkpt lat="30.14573168" lon="35.41719591"><ele>1474.3</ele><time>2015-11-26T07:19:56.0000000+00:00</time></trkpt><trkpt lat="30.1456653" lon="35.4171732"><ele>1473.8</ele><time>2015-11-26T07:19:57.0000000+00:00</time></trkpt><trkpt lat="30.14559832" lon="35.41715635"><ele>1473.8</ele><time>2015-11-26T07:19:58.0000000+00:00</time></trkpt><trkpt lat="30.14553135" lon="35.41714453"><ele>1473.8</ele><time>2015-11-26T07:19:59.0000000+00:00</time></trkpt><trkpt lat="30.1450426" lon="35.41710363"><ele>1473.8</ele><time>2015-11-26T07:20:07.0000000+00:00</time></trkpt><trkpt lat="30.14471546" lon="35.41715543"><ele>1472.4</ele><time>2015-11-26T07:20:12.0000000+00:00</time></trkpt><trkpt lat="30.1444987" lon="35.41722902"><ele>1471.0</ele><time>2015-11-26T07:20:15.0000000+00:00</time></trkpt><trkpt lat="30.14442595" lon="35.41727118"><ele>1470.5</ele><time>2015-11-26T07:20:16.0000000+00:00</time></trkpt><trkpt lat="30.14435336" lon="35.41732089"><ele>1470.0</ele><time>2015-11-26T07:20:17.0000000+00:00</time></trkpt><trkpt lat="30.14394466" lon="35.41760688"><ele>1466.6</ele><time>2015-11-26T07:20:22.0000000+00:00</time></trkpt><trkpt lat="30.14375883" lon="35.41769983"><ele>1466.2</ele><time>2015-11-26T07:20:24.0000000+00:00</time></trkpt><trkpt lat="30.14366118" lon="35.41772867"><ele>1465.7</ele><time>2015-11-26T07:20:25.0000000+00:00</time></trkpt><trkpt lat="30.14356278" lon="35.41773713"><ele>1465.7</ele><time>2015-11-26T07:20:26.0000000+00:00</time></trkpt><trkpt lat="30.14346806" lon="35.41772699"><ele>1465.7</ele><time>2015-11-26T07:20:27.0000000+00:00</time></trkpt><trkpt lat="30.14337695" lon="35.41771031"><ele>1465.7</ele><time>2015-11-26T07:20:28.0000000+00:00</time></trkpt><trkpt lat="30.14265091" lon="35.41749741"><ele>1466.6</ele><time>2015-11-26T07:20:37.0000000+00:00</time></trkpt><trkpt lat="30.14258738" lon="35.41745793"><ele>1467.1</ele><time>2015-11-26T07:20:38.0000000+00:00</time></trkpt><trkpt lat="30.14252828" lon="35.41741636"><ele>1467.1</ele><time>2015-11-26T07:20:39.0000000+00:00</time></trkpt><trkpt lat="30.14222419" lon="35.41713389"><ele>1471.0</ele><time>2015-11-26T07:20:47.0000000+00:00</time></trkpt><trkpt lat="30.14189696" lon="35.41693239"><ele>1473.8</ele><time>2015-11-26T07:21:00.0000000+00:00</time></trkpt><trkpt lat="30.14154618" lon="35.41682828"><ele>1476.2</ele><time>2015-11-26T07:21:14.0000000+00:00</time></trkpt><trkpt lat="30.14104569" lon="35.41666266"><ele>1475.8</ele><time>2015-11-26T07:21:29.0000000+00:00</time></trkpt><trkpt lat="30.14100395" lon="35.41664128"><ele>1475.8</ele><time>2015-11-26T07:21:30.0000000+00:00</time></trkpt><trkpt lat="30.14074101" lon="35.41644406"><ele>1475.8</ele><time>2015-11-26T07:21:37.0000000+00:00</time></trkpt><trkpt lat="30.14070597" lon="35.41641723"><ele>1475.8</ele><time>2015-11-26T07:21:38.0000000+00:00</time></trkpt><trkpt lat="30.14067412" lon="35.41638614"><ele>1475.8</ele><time>2015-11-26T07:21:39.0000000+00:00</time></trkpt><trkpt lat="30.14060975" lon="35.41631766"><ele>1475.3</ele><time>2015-11-26T07:21:41.0000000+00:00</time></trkpt><trkpt lat="30.14057069" lon="35.41628974"><ele>1475.3</ele><time>2015-11-26T07:21:42.0000000+00:00</time></trkpt><trkpt lat="30.14052912" lon="35.41626292"><ele>1475.3</ele><time>2015-11-26T07:21:43.0000000+00:00</time></trkpt><trkpt lat="30.13991724" lon="35.41607064"><ele>1471.9</ele><time>2015-11-26T07:21:53.0000000+00:00</time></trkpt><trkpt lat="30.13984406" lon="35.41603887"><ele>1471.9</ele><time>2015-11-26T07:21:54.0000000+00:00</time></trkpt><trkpt lat="30.13977315" lon="35.41599353"><ele>1471.4</ele><time>2015-11-26T07:21:55.0000000+00:00</time></trkpt><trkpt lat="30.13970912" lon="35.41593108"><ele>1471.0</ele><time>2015-11-26T07:21:56.0000000+00:00</time></trkpt><trkpt lat="30.13965413" lon="35.41585456"><ele>1470.5</ele><time>2015-11-26T07:21:57.0000000+00:00</time></trkpt><trkpt lat="30.13960677" lon="35.41576973"><ele>1470.0</ele><time>2015-11-26T07:21:58.0000000+00:00</time></trkpt><trkpt lat="30.13956788" lon="35.41567929"><ele>1470.0</ele><time>2015-11-26T07:21:59.0000000+00:00</time></trkpt><trkpt lat="30.13953628" lon="35.41558508"><ele>1469.5</ele><time>2015-11-26T07:22:00.0000000+00:00</time></trkpt><trkpt lat="30.13925708" lon="35.41434271"><ele>1468.6</ele><time>2015-11-26T07:22:14.0000000+00:00</time></trkpt><trkpt lat="30.13922112" lon="35.41412663"><ele>1468.6</ele><time>2015-11-26T07:22:17.0000000+00:00</time></trkpt><trkpt lat="30.13917804" lon="35.41392848"><ele>1468.6</ele><time>2015-11-26T07:22:20.0000000+00:00</time></trkpt><trkpt lat="30.13912867" lon="35.41367652"><ele>1468.1</ele><time>2015-11-26T07:22:24.0000000+00:00</time></trkpt><trkpt lat="30.13910495" lon="35.41361575"><ele>1467.6</ele><time>2015-11-26T07:22:25.0000000+00:00</time></trkpt><trkpt lat="30.13907771" lon="35.41355833"><ele>1467.6</ele><time>2015-11-26T07:22:26.0000000+00:00</time></trkpt><trkpt lat="30.13904703" lon="35.4135093"><ele>1467.1</ele><time>2015-11-26T07:22:27.0000000+00:00</time></trkpt><trkpt lat="30.1390125" lon="35.41346806"><ele>1466.6</ele><time>2015-11-26T07:22:28.0000000+00:00</time></trkpt><trkpt lat="30.13897444" lon="35.41343428"><ele>1466.2</ele><time>2015-11-26T07:22:29.0000000+00:00</time></trkpt><trkpt lat="30.13893404" lon="35.41341106"><ele>1465.7</ele><time>2015-11-26T07:22:30.0000000+00:00</time></trkpt><trkpt lat="30.13889146" lon="35.41339681"><ele>1465.7</ele><time>2015-11-26T07:22:31.0000000+00:00</time></trkpt><trkpt lat="30.1388441" lon="35.41339212"><ele>1465.2</ele><time>2015-11-26T07:22:32.0000000+00:00</time></trkpt><trkpt lat="30.13878979" lon="35.41339782"><ele>1464.7</ele><time>2015-11-26T07:22:33.0000000+00:00</time></trkpt><trkpt lat="30.13872952" lon="35.41341425"><ele>1464.2</ele><time>2015-11-26T07:22:34.0000000+00:00</time></trkpt><trkpt lat="30.13866523" lon="35.41343571"><ele>1463.7</ele><time>2015-11-26T07:22:35.0000000+00:00</time></trkpt><trkpt lat="30.13831872" lon="35.41358449"><ele>1460.4</ele><time>2015-11-26T07:22:40.0000000+00:00</time></trkpt><trkpt lat="30.13825033" lon="35.41358935"><ele>1459.4</ele><time>2015-11-26T07:22:41.0000000+00:00</time></trkpt><trkpt lat="30.13818302" lon="35.41357451"><ele>1458.5</ele><time>2015-11-26T07:22:42.0000000+00:00</time></trkpt><trkpt lat="30.13813047" lon="35.41353797"><ele>1458.0</ele><time>2015-11-26T07:22:43.0000000+00:00</time></trkpt><trkpt lat="30.13809769" lon="35.41347468"><ele>1457.5</ele><time>2015-11-26T07:22:44.0000000+00:00</time></trkpt><trkpt lat="30.13808789" lon="35.41339874"><ele>1457.0</ele><time>2015-11-26T07:22:45.0000000+00:00</time></trkpt><trkpt lat="30.13809627" lon="35.41331618"><ele>1456.1</ele><time>2015-11-26T07:22:46.0000000+00:00</time></trkpt><trkpt lat="30.13810859" lon="35.41323228"><ele>1456.1</ele><time>2015-11-26T07:22:47.0000000+00:00</time></trkpt><trkpt lat="30.13812426" lon="35.41295224"><ele>1454.1</ele><time>2015-11-26T07:22:50.0000000+00:00</time></trkpt><trkpt lat="30.13811287" lon="35.41284872"><ele>1453.7</ele><time>2015-11-26T07:22:51.0000000+00:00</time></trkpt><trkpt lat="30.13809032" lon="35.41274303"><ele>1452.7</ele><time>2015-11-26T07:22:52.0000000+00:00</time></trkpt><trkpt lat="30.13805863" lon="35.41263456"><ele>1451.7</ele><time>2015-11-26T07:22:53.0000000+00:00</time></trkpt><trkpt lat="30.13802041" lon="35.41252552"><ele>1450.3</ele><time>2015-11-26T07:22:54.0000000+00:00</time></trkpt><trkpt lat="30.13797842" lon="35.41241664"><ele>1449.8</ele><time>2015-11-26T07:22:55.0000000+00:00</time></trkpt><trkpt lat="30.13790977" lon="35.41219418"><ele>1447.9</ele><time>2015-11-26T07:22:57.0000000+00:00</time></trkpt><trkpt lat="30.1378915" lon="35.41207801"><ele>1446.4</ele><time>2015-11-26T07:22:58.0000000+00:00</time></trkpt><trkpt lat="30.13787013" lon="35.41175161"><ele>1443.1</ele><time>2015-11-26T07:23:01.0000000+00:00</time></trkpt><trkpt lat="30.13784749" lon="35.41158616"><ele>1439.7</ele><time>2015-11-26T07:23:03.0000000+00:00</time></trkpt><trkpt lat="30.1378205" lon="35.41149907"><ele>1438.8</ele><time>2015-11-26T07:23:04.0000000+00:00</time></trkpt><trkpt lat="30.137777" lon="35.41140745"><ele>1437.8</ele><time>2015-11-26T07:23:05.0000000+00:00</time></trkpt><trkpt lat="30.13771724" lon="35.41131517"><ele>1436.4</ele><time>2015-11-26T07:23:06.0000000+00:00</time></trkpt><trkpt lat="30.13764448" lon="35.41121811"><ele>1434.4</ele><time>2015-11-26T07:23:07.0000000+00:00</time></trkpt><trkpt lat="30.13756125" lon="35.41112197"><ele>1433.5</ele><time>2015-11-26T07:23:08.0000000+00:00</time></trkpt><trkpt lat="30.13746679" lon="35.41103203"><ele>1432.0</ele><time>2015-11-26T07:23:09.0000000+00:00</time></trkpt><trkpt lat="30.13714576" lon="35.41077035"><ele>1427.2</ele><time>2015-11-26T07:23:12.0000000+00:00</time></trkpt><trkpt lat="30.13682691" lon="35.41048838"><ele>1423.9</ele><time>2015-11-26T07:23:15.0000000+00:00</time></trkpt><trkpt lat="30.13651184" lon="35.41023474"><ele>1419.5</ele><time>2015-11-26T07:23:18.0000000+00:00</time></trkpt><trkpt lat="30.13629693" lon="35.4100842"><ele>1416.2</ele><time>2015-11-26T07:23:20.0000000+00:00</time></trkpt><trkpt lat="30.13610054" lon="35.4099464"><ele>1412.8</ele><time>2015-11-26T07:23:22.0000000+00:00</time></trkpt><trkpt lat="30.13593173" lon="35.40982763"><ele>1409.4</ele><time>2015-11-26T07:23:24.0000000+00:00</time></trkpt><trkpt lat="30.13578203" lon="35.40972655"><ele>1406.1</ele><time>2015-11-26T07:23:26.0000000+00:00</time></trkpt><trkpt lat="30.13557977" lon="35.40962077"><ele>1402.2</ele><time>2015-11-26T07:23:29.0000000+00:00</time></trkpt><trkpt lat="30.13550861" lon="35.40960224"><ele>1400.8</ele><time>2015-11-26T07:23:30.0000000+00:00</time></trkpt><trkpt lat="30.13543225" lon="35.40959051"><ele>1399.8</ele><time>2015-11-26T07:23:31.0000000+00:00</time></trkpt><trkpt lat="30.13534902" lon="35.40958649"><ele>1398.4</ele><time>2015-11-26T07:23:32.0000000+00:00</time></trkpt><trkpt lat="30.13525891" lon="35.40958464"><ele>1396.9</ele><time>2015-11-26T07:23:33.0000000+00:00</time></trkpt><trkpt lat="30.13498432" lon="35.40958481"><ele>1393.1</ele><time>2015-11-26T07:23:36.0000000+00:00</time></trkpt><trkpt lat="30.1346275" lon="35.4095926"><ele>1389.2</ele><time>2015-11-26T07:23:40.0000000+00:00</time></trkpt><trkpt lat="30.13434906" lon="35.40962999"><ele>1385.9</ele><time>2015-11-26T07:23:44.0000000+00:00</time></trkpt><trkpt lat="30.13416817" lon="35.40964826"><ele>1382.5</ele><time>2015-11-26T07:23:48.0000000+00:00</time></trkpt><trkpt lat="30.13392166" lon="35.40968397"><ele>1379.2</ele><time>2015-11-26T07:23:53.0000000+00:00</time></trkpt><trkpt lat="30.13370759" lon="35.4097335"><ele>1377.2</ele><time>2015-11-26T07:23:56.0000000+00:00</time></trkpt><trkpt lat="30.13329453" lon="35.40982294"><ele>1373.9</ele><time>2015-11-26T07:24:01.0000000+00:00</time></trkpt><trkpt lat="30.13281592" lon="35.40994397"><ele>1371.0</ele><time>2015-11-26T07:24:06.0000000+00:00</time></trkpt><trkpt lat="30.1327238" lon="35.40998069"><ele>1370.5</ele><time>2015-11-26T07:24:07.0000000+00:00</time></trkpt><trkpt lat="30.1325933" lon="35.41002595"><ele>1370.0</ele><time>2015-11-26T07:24:09.0000000+00:00</time></trkpt><trkpt lat="30.13256061" lon="35.41003207"><ele>1369.5</ele><time>2015-11-26T07:24:10.0000000+00:00</time></trkpt><trkpt lat="30.13253965" lon="35.41004548"><ele>1369.1</ele><time>2015-11-26T07:24:11.0000000+00:00</time></trkpt><trkpt lat="30.13253152" lon="35.41007297"><ele>1369.1</ele><time>2015-11-26T07:24:12.0000000+00:00</time></trkpt><trkpt lat="30.13256555" lon="35.41009024"><ele>1369.1</ele><time>2015-11-26T07:24:14.0000000+00:00</time></trkpt><trkpt lat="30.13258274" lon="35.41007808"><ele>1369.5</ele><time>2015-11-26T07:24:15.0000000+00:00</time></trkpt><trkpt lat="30.13260042" lon="35.41006048"><ele>1369.1</ele><time>2015-11-26T07:24:16.0000000+00:00</time></trkpt><trkpt lat="30.13282942" lon="35.40993408"><ele>1370.0</ele><time>2015-11-26T07:24:23.0000000+00:00</time></trkpt><trkpt lat="30.13332806" lon="35.40982646"><ele>1372.9</ele><time>2015-11-26T07:24:38.0000000+00:00</time></trkpt><trkpt lat="30.13355881" lon="35.40975957"><ele>1374.8</ele><time>2015-11-26T07:24:51.0000000+00:00</time></trkpt><trkpt lat="30.13375813" lon="35.40966519"><ele>1376.3</ele><time>2015-11-26T07:25:03.0000000+00:00</time></trkpt><trkpt lat="30.13377582" lon="35.40965874"><ele>1376.3</ele><time>2015-11-26T07:25:04.0000000+00:00</time></trkpt><trkpt lat="30.13378831" lon="35.40964591"><ele>1376.3</ele><time>2015-11-26T07:25:05.0000000+00:00</time></trkpt><trkpt lat="30.13379828" lon="35.40962555"><ele>1376.3</ele><time>2015-11-26T07:25:06.0000000+00:00</time></trkpt><trkpt lat="30.13381295" lon="35.40960157"><ele>1376.3</ele><time>2015-11-26T07:25:07.0000000+00:00</time></trkpt><trkpt lat="30.13400875" lon="35.40912531"><ele>1374.8</ele><time>2015-11-26T07:25:18.0000000+00:00</time></trkpt><trkpt lat="30.13414227" lon="35.4086571"><ele>1374.8</ele><time>2015-11-26T07:25:30.0000000+00:00</time></trkpt><trkpt lat="30.13407078" lon="35.40848712"><ele>1374.3</ele><time>2015-11-26T07:25:34.0000000+00:00</time></trkpt><trkpt lat="30.13404211" lon="35.40844789"><ele>1374.3</ele><time>2015-11-26T07:25:35.0000000+00:00</time></trkpt><trkpt lat="30.13400959" lon="35.40841126"><ele>1373.9</ele><time>2015-11-26T07:25:36.0000000+00:00</time></trkpt><trkpt lat="30.13397371" lon="35.40837924"><ele>1373.4</ele><time>2015-11-26T07:25:37.0000000+00:00</time></trkpt><trkpt lat="30.1339334" lon="35.40835611"><ele>1372.4</ele><time>2015-11-26T07:25:38.0000000+00:00</time></trkpt><trkpt lat="30.13389006" lon="35.40834554"><ele>1372.4</ele><time>2015-11-26T07:25:39.0000000+00:00</time></trkpt><trkpt lat="30.13384027" lon="35.4083442"><ele>1371.9</ele><time>2015-11-26T07:25:40.0000000+00:00</time></trkpt><trkpt lat="30.13378428" lon="35.40835602"><ele>1371.5</ele><time>2015-11-26T07:25:41.0000000+00:00</time></trkpt><trkpt lat="30.13372259" lon="35.40837857"><ele>1370.5</ele><time>2015-11-26T07:25:42.0000000+00:00</time></trkpt><trkpt lat="30.13365537" lon="35.40840925"><ele>1370.0</ele><time>2015-11-26T07:25:43.0000000+00:00</time></trkpt><trkpt lat="30.13341079" lon="35.40850782"><ele>1367.1</ele><time>2015-11-26T07:25:46.0000000+00:00</time></trkpt><trkpt lat="30.13331565" lon="35.40852458"><ele>1366.2</ele><time>2015-11-26T07:25:47.0000000+00:00</time></trkpt><trkpt lat="30.13321507" lon="35.40852944"><ele>1365.2</ele><time>2015-11-26T07:25:48.0000000+00:00</time></trkpt><trkpt lat="30.13280008" lon="35.40848619"><ele>1361.8</ele><time>2015-11-26T07:25:52.0000000+00:00</time></trkpt><trkpt lat="30.13245625" lon="35.40847739"><ele>1358.5</ele><time>2015-11-26T07:25:55.0000000+00:00</time></trkpt><trkpt lat="30.13209902" lon="35.4084898"><ele>1354.2</ele><time>2015-11-26T07:25:58.0000000+00:00</time></trkpt><trkpt lat="30.13184362" lon="35.40847463"><ele>1351.3</ele><time>2015-11-26T07:26:00.0000000+00:00</time></trkpt><trkpt lat="30.13160801" lon="35.40843423"><ele>1347.4</ele><time>2015-11-26T07:26:02.0000000+00:00</time></trkpt><trkpt lat="30.13141732" lon="35.40842098"><ele>1345.0</ele><time>2015-11-26T07:26:04.0000000+00:00</time></trkpt><trkpt lat="30.13132344" lon="35.40842023"><ele>1344.1</ele><time>2015-11-26T07:26:05.0000000+00:00</time></trkpt><trkpt lat="30.13122411" lon="35.40840506"><ele>1343.1</ele><time>2015-11-26T07:26:06.0000000+00:00</time></trkpt><trkpt lat="30.13112244" lon="35.40836826"><ele>1341.7</ele><time>2015-11-26T07:26:07.0000000+00:00</time></trkpt><trkpt lat="30.13102781" lon="35.40830431"><ele>1340.7</ele><time>2015-11-26T07:26:08.0000000+00:00</time></trkpt><trkpt lat="30.13094382" lon="35.40821755"><ele>1339.7</ele><time>2015-11-26T07:26:09.0000000+00:00</time></trkpt><trkpt lat="30.13086738" lon="35.40811965"><ele>1339.3</ele><time>2015-11-26T07:26:10.0000000+00:00</time></trkpt><trkpt lat="30.13079454" lon="35.40801932"><ele>1338.8</ele><time>2015-11-26T07:26:11.0000000+00:00</time></trkpt><trkpt lat="30.13034804" lon="35.40747819"><ele>1336.4</ele><time>2015-11-26T07:26:17.0000000+00:00</time></trkpt><trkpt lat="30.12961932" lon="35.40680587"><ele>1335.9</ele><time>2015-11-26T07:26:28.0000000+00:00</time></trkpt><trkpt lat="30.12928815" lon="35.40634277"><ele>1333.5</ele><time>2015-11-26T07:26:35.0000000+00:00</time></trkpt><trkpt lat="30.12925101" lon="35.40625778"><ele>1333.0</ele><time>2015-11-26T07:26:36.0000000+00:00</time></trkpt><trkpt lat="30.12914741" lon="35.40599744"><ele>1331.1</ele><time>2015-11-26T07:26:40.0000000+00:00</time></trkpt><trkpt lat="30.12905764" lon="35.40577356"><ele>1328.7</ele><time>2015-11-26T07:26:49.0000000+00:00</time></trkpt><trkpt lat="30.12904599" lon="35.40577238"><ele>1328.2</ele><time>2015-11-26T07:26:50.0000000+00:00</time></trkpt><trkpt lat="30.12902655" lon="35.40577943"><ele>1328.7</ele><time>2015-11-26T07:26:53.0000000+00:00</time></trkpt><trkpt lat="30.12901339" lon="35.40577649"><ele>1328.7</ele><time>2015-11-26T07:26:54.0000000+00:00</time></trkpt><trkpt lat="30.12900291" lon="35.40576836"><ele>1328.7</ele><time>2015-11-26T07:27:05.0000000+00:00</time></trkpt><trkpt lat="30.12900266" lon="35.40576057"><ele>1328.7</ele><time>2015-11-26T07:27:28.0000000+00:00</time></trkpt><trkpt lat="30.12900392" lon="35.40573416"><ele>1328.7</ele><time>2015-11-26T07:27:32.0000000+00:00</time></trkpt><trkpt lat="30.12900199" lon="35.40571782"><ele>1328.2</ele><time>2015-11-26T07:27:33.0000000+00:00</time></trkpt><trkpt lat="30.12892965" lon="35.40550073"><ele>1327.2</ele><time>2015-11-26T07:27:39.0000000+00:00</time></trkpt><trkpt lat="30.12859371" lon="35.4049352"><ele>1323.9</ele><time>2015-11-26T07:27:48.0000000+00:00</time></trkpt><trkpt lat="30.12851056" lon="35.40478257"><ele>1322.9</ele><time>2015-11-26T07:27:50.0000000+00:00</time></trkpt><trkpt lat="30.12826614" lon="35.40429172"><ele>1320.5</ele><time>2015-11-26T07:27:56.0000000+00:00</time></trkpt><trkpt lat="30.12780321" lon="35.40348873"><ele>1317.1</ele><time>2015-11-26T07:28:06.0000000+00:00</time></trkpt><trkpt lat="30.12764177" lon="35.40319956"><ele>1314.7</ele><time>2015-11-26T07:28:09.0000000+00:00</time></trkpt><trkpt lat="30.12757245" lon="35.40311121"><ele>1313.8</ele><time>2015-11-26T07:28:10.0000000+00:00</time></trkpt><trkpt lat="30.12748973" lon="35.40303586"><ele>1313.3</ele><time>2015-11-26T07:28:11.0000000+00:00</time></trkpt><trkpt lat="30.12739593" lon="35.40297811"><ele>1312.3</ele><time>2015-11-26T07:28:12.0000000+00:00</time></trkpt><trkpt lat="30.12729216" lon="35.4029383"><ele>1311.4</ele><time>2015-11-26T07:28:13.0000000+00:00</time></trkpt><trkpt lat="30.12718211" lon="35.40290619"><ele>1310.4</ele><time>2015-11-26T07:28:14.0000000+00:00</time></trkpt><trkpt lat="30.1269553" lon="35.40282925"><ele>1308.5</ele><time>2015-11-26T07:28:16.0000000+00:00</time></trkpt><trkpt lat="30.12684415" lon="35.40277351"><ele>1307.5</ele><time>2015-11-26T07:28:17.0000000+00:00</time></trkpt><trkpt lat="30.12655372" lon="35.40261232"><ele>1304.7</ele><time>2015-11-26T07:28:20.0000000+00:00</time></trkpt><trkpt lat="30.12646898" lon="35.40259698"><ele>1304.2</ele><time>2015-11-26T07:28:21.0000000+00:00</time></trkpt><trkpt lat="30.12638466" lon="35.40260662"><ele>1304.2</ele><time>2015-11-26T07:28:22.0000000+00:00</time></trkpt><trkpt lat="30.12597109" lon="35.40267586"><ele>1302.7</ele><time>2015-11-26T07:28:27.0000000+00:00</time></trkpt><trkpt lat="30.12588518" lon="35.40266991"><ele>1302.2</ele><time>2015-11-26T07:28:28.0000000+00:00</time></trkpt><trkpt lat="30.1258001" lon="35.40265071"><ele>1302.2</ele><time>2015-11-26T07:28:29.0000000+00:00</time></trkpt><trkpt lat="30.1257172" lon="35.40261534"><ele>1301.8</ele><time>2015-11-26T07:28:30.0000000+00:00</time></trkpt><trkpt lat="30.12563841" lon="35.40256857"><ele>1300.8</ele><time>2015-11-26T07:28:31.0000000+00:00</time></trkpt><trkpt lat="30.12556247" lon="35.40251367"><ele>1300.3</ele><time>2015-11-26T07:28:32.0000000+00:00</time></trkpt><trkpt lat="30.12525687" lon="35.40226313"><ele>1297.9</ele><time>2015-11-26T07:28:36.0000000+00:00</time></trkpt><trkpt lat="30.12517951" lon="35.40218317"><ele>1297.0</ele><time>2015-11-26T07:28:37.0000000+00:00</time></trkpt><trkpt lat="30.12510516" lon="35.40209273"><ele>1296.0</ele><time>2015-11-26T07:28:38.0000000+00:00</time></trkpt><trkpt lat="30.12503827" lon="35.40198812"><ele>1294.6</ele><time>2015-11-26T07:28:39.0000000+00:00</time></trkpt><trkpt lat="30.12498127" lon="35.40187262"><ele>1293.1</ele><time>2015-11-26T07:28:40.0000000+00:00</time></trkpt><trkpt lat="30.1249247" lon="35.4017567"><ele>1291.7</ele><time>2015-11-26T07:28:41.0000000+00:00</time></trkpt><trkpt lat="30.1248558" lon="35.40164463"><ele>1290.2</ele><time>2015-11-26T07:28:42.0000000+00:00</time></trkpt><trkpt lat="30.12477558" lon="35.40154438"><ele>1289.3</ele><time>2015-11-26T07:28:43.0000000+00:00</time></trkpt><trkpt lat="30.12468841" lon="35.40146593"><ele>1287.3</ele><time>2015-11-26T07:28:44.0000000+00:00</time></trkpt><trkpt lat="30.12459428" lon="35.4014112"><ele>1286.4</ele><time>2015-11-26T07:28:45.0000000+00:00</time></trkpt><trkpt lat="30.12449286" lon="35.40138219"><ele>1284.9</ele><time>2015-11-26T07:28:46.0000000+00:00</time></trkpt><trkpt lat="30.12438708" lon="35.40136878"><ele>1284.9</ele><time>2015-11-26T07:28:47.0000000+00:00</time></trkpt><trkpt lat="30.12427635" lon="35.40134649"><ele>1283.5</ele><time>2015-11-26T07:28:48.0000000+00:00</time></trkpt><trkpt lat="30.12416244" lon="35.40130827"><ele>1281.6</ele><time>2015-11-26T07:28:49.0000000+00:00</time></trkpt><trkpt lat="30.12404275" lon="35.40125915"><ele>1280.6</ele><time>2015-11-26T07:28:50.0000000+00:00</time></trkpt><trkpt lat="30.12366707" lon="35.40109419"><ele>1277.3</ele><time>2015-11-26T07:28:53.0000000+00:00</time></trkpt><trkpt lat="30.12329089" lon="35.40088104"><ele>1274.4</ele><time>2015-11-26T07:28:56.0000000+00:00</time></trkpt><trkpt lat="30.12301555" lon="35.40073821"><ele>1270.5</ele><time>2015-11-26T07:28:58.0000000+00:00</time></trkpt><trkpt lat="30.12243963" lon="35.40049992"><ele>1267.2</ele><time>2015-11-26T07:29:02.0000000+00:00</time></trkpt><trkpt lat="30.12201542" lon="35.40033588"><ele>1263.8</ele><time>2015-11-26T07:29:05.0000000+00:00</time></trkpt><trkpt lat="30.12147579" lon="35.40019758"><ele>1260.4</ele><time>2015-11-26T07:29:09.0000000+00:00</time></trkpt><trkpt lat="30.12135166" lon="35.40019389"><ele>1259.9</ele><time>2015-11-26T07:29:10.0000000+00:00</time></trkpt><trkpt lat="30.12123615" lon="35.40020362"><ele>1259.9</ele><time>2015-11-26T07:29:11.0000000+00:00</time></trkpt><trkpt lat="30.12028908" lon="35.40030143"><ele>1258.5</ele><time>2015-11-26T07:29:21.0000000+00:00</time></trkpt><trkpt lat="30.1202035" lon="35.400285"><ele>1258.5</ele><time>2015-11-26T07:29:22.0000000+00:00</time></trkpt><trkpt lat="30.12011516" lon="35.40026028"><ele>1257.5</ele><time>2015-11-26T07:29:23.0000000+00:00</time></trkpt><trkpt lat="30.11973454" lon="35.40009465"><ele>1254.2</ele><time>2015-11-26T07:29:27.0000000+00:00</time></trkpt><trkpt lat="30.11930664" lon="35.39993984"><ele>1251.8</ele><time>2015-11-26T07:29:31.0000000+00:00</time></trkpt><trkpt lat="30.11901772" lon="35.39982157"><ele>1250.8</ele><time>2015-11-26T07:29:34.0000000+00:00</time></trkpt><trkpt lat="30.11841296" lon="35.39940063"><ele>1247.5</ele><time>2015-11-26T07:29:41.0000000+00:00</time></trkpt><trkpt lat="30.11800267" lon="35.3990506"><ele>1244.1</ele><time>2015-11-26T07:29:46.0000000+00:00</time></trkpt><trkpt lat="30.11766588" lon="35.39874709"><ele>1240.7</ele><time>2015-11-26T07:29:50.0000000+00:00</time></trkpt><trkpt lat="30.11757511" lon="35.39867677"><ele>1239.8</ele><time>2015-11-26T07:29:51.0000000+00:00</time></trkpt><trkpt lat="30.11720077" lon="35.39841793"><ele>1236.4</ele><time>2015-11-26T07:29:55.0000000+00:00</time></trkpt><trkpt lat="30.11689173" lon="35.39822021"><ele>1233.5</ele><time>2015-11-26T07:29:58.0000000+00:00</time></trkpt><trkpt lat="30.11647917" lon="35.39796456"><ele>1230.1</ele><time>2015-11-26T07:30:02.0000000+00:00</time></trkpt><trkpt lat="30.11546731" lon="35.39736525"><ele>1228.2</ele><time>2015-11-26T07:30:14.0000000+00:00</time></trkpt><trkpt lat="30.11486281" lon="35.39686753"><ele>1224.9</ele><time>2015-11-26T07:30:23.0000000+00:00</time></trkpt><trkpt lat="30.11472258" lon="35.39674751"><ele>1223.9</ele><time>2015-11-26T07:30:25.0000000+00:00</time></trkpt><trkpt lat="30.11412436" lon="35.39635163"><ele>1224.9</ele><time>2015-11-26T07:30:35.0000000+00:00</time></trkpt><trkpt lat="30.11408564" lon="35.39633537"><ele>1225.3</ele><time>2015-11-26T07:30:36.0000000+00:00</time></trkpt><trkpt lat="30.11357099" lon="35.39622087"><ele>1223.4</ele><time>2015-11-26T07:30:48.0000000+00:00</time></trkpt><trkpt lat="30.11344107" lon="35.39620964"><ele>1222.9</ele><time>2015-11-26T07:30:50.0000000+00:00</time></trkpt><trkpt lat="30.11293212" lon="35.39606522"><ele>1219.6</ele><time>2015-11-26T07:30:57.0000000+00:00</time></trkpt><trkpt lat="30.11285174" lon="35.39604158"><ele>1219.6</ele><time>2015-11-26T07:30:58.0000000+00:00</time></trkpt><trkpt lat="30.11251571" lon="35.3959244"><ele>1216.2</ele><time>2015-11-26T07:31:02.0000000+00:00</time></trkpt><trkpt lat="30.11205948" lon="35.39570656"><ele>1213.3</ele><time>2015-11-26T07:31:07.0000000+00:00</time></trkpt><trkpt lat="30.11155807" lon="35.39543658"><ele>1210.0</ele><time>2015-11-26T07:31:13.0000000+00:00</time></trkpt><trkpt lat="30.11065979" lon="35.39492838"><ele>1207.1</ele><time>2015-11-26T07:31:25.0000000+00:00</time></trkpt><trkpt lat="30.11049173" lon="35.39475923"><ele>1206.1</ele><time>2015-11-26T07:31:28.0000000+00:00</time></trkpt><trkpt lat="30.11044705" lon="35.39469201"><ele>1206.1</ele><time>2015-11-26T07:31:29.0000000+00:00</time></trkpt><trkpt lat="30.1104059" lon="35.39462077"><ele>1205.6</ele><time>2015-11-26T07:31:30.0000000+00:00</time></trkpt><trkpt lat="30.11036885" lon="35.39454566"><ele>1205.2</ele><time>2015-11-26T07:31:31.0000000+00:00</time></trkpt><trkpt lat="30.11033683" lon="35.39446587"><ele>1204.7</ele><time>2015-11-26T07:31:32.0000000+00:00</time></trkpt><trkpt lat="30.11030808" lon="35.3943823"><ele>1204.2</ele><time>2015-11-26T07:31:33.0000000+00:00</time></trkpt><trkpt lat="30.1101448" lon="35.39356917"><ele>1201.3</ele><time>2015-11-26T07:31:42.0000000+00:00</time></trkpt><trkpt lat="30.11007867" lon="35.39237475"><ele>1199.4</ele><time>2015-11-26T07:31:55.0000000+00:00</time></trkpt><trkpt lat="30.11006316" lon="35.39198491"><ele>1200.8</ele><time>2015-11-26T07:32:01.0000000+00:00</time></trkpt><trkpt lat="30.11005092" lon="35.39193084"><ele>1200.8</ele><time>2015-11-26T07:32:02.0000000+00:00</time></trkpt><trkpt lat="30.10992075" lon="35.39161124"><ele>1200.3</ele><time>2015-11-26T07:32:08.0000000+00:00</time></trkpt><trkpt lat="30.10960551" lon="35.39122048"><ele>1197.5</ele><time>2015-11-26T07:32:14.0000000+00:00</time></trkpt><trkpt lat="30.10873346" lon="35.39037525"><ele>1195.5</ele><time>2015-11-26T07:32:27.0000000+00:00</time></trkpt><trkpt lat="30.10846582" lon="35.39009948"><ele>1198.9</ele><time>2015-11-26T07:32:37.0000000+00:00</time></trkpt><trkpt lat="30.10826818" lon="35.38986697"><ele>1200.3</ele><time>2015-11-26T07:32:51.0000000+00:00</time></trkpt><trkpt lat="30.10808654" lon="35.38956581"><ele>1198.9</ele><time>2015-11-26T07:33:04.0000000+00:00</time></trkpt><trkpt lat="30.1078744" lon="35.3891183"><ele>1197.0</ele><time>2015-11-26T07:33:14.0000000+00:00</time></trkpt><trkpt lat="30.1078661" lon="35.38911117"><ele>1196.5</ele><time>2015-11-26T07:33:21.0000000+00:00</time></trkpt><trkpt lat="30.10785545" lon="35.38910162"><ele>1197.0</ele><time>2015-11-26T07:33:22.0000000+00:00</time></trkpt><trkpt lat="30.10782955" lon="35.38908125"><ele>1197.0</ele><time>2015-11-26T07:33:25.0000000+00:00</time></trkpt><trkpt lat="30.10782" lon="35.38907656"><ele>1197.0</ele><time>2015-11-26T07:33:26.0000000+00:00</time></trkpt><trkpt lat="30.10781036" lon="35.38906918"><ele>1197.0</ele><time>2015-11-26T07:33:27.0000000+00:00</time></trkpt><trkpt lat="30.10779954" lon="35.38906314"><ele>1197.0</ele><time>2015-11-26T07:33:28.0000000+00:00</time></trkpt><trkpt lat="30.10779862" lon="35.38905443"><ele>1197.0</ele><time>2015-11-26T07:33:39.0000000+00:00</time></trkpt><trkpt lat="30.10779812" lon="35.38906189"><ele>1197.0</ele><time>2015-11-26T07:34:03.0000000+00:00</time></trkpt><trkpt lat="30.10779083" lon="35.38903322"><ele>1196.5</ele><time>2015-11-26T07:34:36.0000000+00:00</time></trkpt><trkpt lat="30.10778521" lon="35.38901914"><ele>1197.0</ele><time>2015-11-26T07:34:37.0000000+00:00</time></trkpt><trkpt lat="30.10767843" lon="35.3887484"><ele>1197.0</ele><time>2015-11-26T07:34:50.0000000+00:00</time></trkpt><trkpt lat="30.10751154" lon="35.38832663"><ele>1197.0</ele><time>2015-11-26T07:35:05.0000000+00:00</time></trkpt><trkpt lat="30.1073004" lon="35.38773109"><ele>1193.1</ele><time>2015-11-26T07:35:18.0000000+00:00</time></trkpt><trkpt lat="30.10710251" lon="35.38724947"><ele>1189.8</ele><time>2015-11-26T07:35:24.0000000+00:00</time></trkpt><trkpt lat="30.10702732" lon="35.38706808"><ele>1189.3</ele><time>2015-11-26T07:35:26.0000000+00:00</time></trkpt><trkpt lat="30.10686773" lon="35.38666927"><ele>1185.9</ele><time>2015-11-26T07:35:30.0000000+00:00</time></trkpt><trkpt lat="30.10669045" lon="35.38622193"><ele>1182.6</ele><time>2015-11-26T07:35:34.0000000+00:00</time></trkpt><trkpt lat="30.10623741" lon="35.38508568"><ele>1183.0</ele><time>2015-11-26T07:35:46.0000000+00:00</time></trkpt><trkpt lat="30.10613473" lon="35.38484512"><ele>1183.5</ele><time>2015-11-26T07:35:50.0000000+00:00</time></trkpt><trkpt lat="30.10601101" lon="35.38452921"><ele>1183.5</ele><time>2015-11-26T07:35:56.0000000+00:00</time></trkpt><trkpt lat="30.10599568" lon="35.38447539"><ele>1183.5</ele><time>2015-11-26T07:35:57.0000000+00:00</time></trkpt><trkpt lat="30.10588076" lon="35.38408572"><ele>1181.1</ele><time>2015-11-26T07:36:03.0000000+00:00</time></trkpt><trkpt lat="30.10584916" lon="35.38401347"><ele>1180.6</ele><time>2015-11-26T07:36:04.0000000+00:00</time></trkpt><trkpt lat="30.10581194" lon="35.3839465"><ele>1180.6</ele><time>2015-11-26T07:36:05.0000000+00:00</time></trkpt><trkpt lat="30.10556736" lon="35.38354835"><ele>1178.7</ele><time>2015-11-26T07:36:11.0000000+00:00</time></trkpt><trkpt lat="30.10545177" lon="35.38333034"><ele>1178.2</ele><time>2015-11-26T07:36:14.0000000+00:00</time></trkpt><trkpt lat="30.10540978" lon="35.38327192"><ele>1178.2</ele><time>2015-11-26T07:36:15.0000000+00:00</time></trkpt><trkpt lat="30.10536511" lon="35.38322221"><ele>1177.8</ele><time>2015-11-26T07:36:16.0000000+00:00</time></trkpt><trkpt lat="30.10531825" lon="35.3831788"><ele>1178.2</ele><time>2015-11-26T07:36:17.0000000+00:00</time></trkpt><trkpt lat="30.10526947" lon="35.38314175"><ele>1178.2</ele><time>2015-11-26T07:36:18.0000000+00:00</time></trkpt><trkpt lat="30.10521943" lon="35.38310722"><ele>1177.8</ele><time>2015-11-26T07:36:19.0000000+00:00</time></trkpt><trkpt lat="30.10466706" lon="35.38278778"><ele>1174.4</ele><time>2015-11-26T07:36:29.0000000+00:00</time></trkpt><trkpt lat="30.10433975" lon="35.38261905"><ele>1171.0</ele><time>2015-11-26T07:36:33.0000000+00:00</time></trkpt><trkpt lat="30.10425266" lon="35.38257178"><ele>1171.0</ele><time>2015-11-26T07:36:34.0000000+00:00</time></trkpt><trkpt lat="30.10361178" lon="35.38206417"><ele>1168.6</ele><time>2015-11-26T07:36:44.0000000+00:00</time></trkpt><trkpt lat="30.10356249" lon="35.38199343"><ele>1168.6</ele><time>2015-11-26T07:36:45.0000000+00:00</time></trkpt><trkpt lat="30.10351782" lon="35.38191548"><ele>1167.7</ele><time>2015-11-26T07:36:46.0000000+00:00</time></trkpt><trkpt lat="30.10347666" lon="35.38183191"><ele>1167.2</ele><time>2015-11-26T07:36:47.0000000+00:00</time></trkpt><trkpt lat="30.10344238" lon="35.38174289"><ele>1166.2</ele><time>2015-11-26T07:36:48.0000000+00:00</time></trkpt><trkpt lat="30.10341078" lon="35.38165262"><ele>1165.3</ele><time>2015-11-26T07:36:49.0000000+00:00</time></trkpt><trkpt lat="30.10338144" lon="35.38156863"><ele>1165.3</ele><time>2015-11-26T07:36:50.0000000+00:00</time></trkpt><trkpt lat="30.10317039" lon="35.38099858"><ele>1162.9</ele><time>2015-11-26T07:37:00.0000000+00:00</time></trkpt><trkpt lat="30.10310492" lon="35.38084108"><ele>1162.9</ele><time>2015-11-26T07:37:04.0000000+00:00</time></trkpt><trkpt lat="30.10309185" lon="35.38079599"><ele>1162.4</ele><time>2015-11-26T07:37:05.0000000+00:00</time></trkpt><trkpt lat="30.10306763" lon="35.38069742"><ele>1161.9</ele><time>2015-11-26T07:37:07.0000000+00:00</time></trkpt><trkpt lat="30.1028093" lon="35.37995042"><ele>1158.5</ele><time>2015-11-26T07:37:19.0000000+00:00</time></trkpt><trkpt lat="30.10271248" lon="35.37966242"><ele>1155.6</ele><time>2015-11-26T07:37:22.0000000+00:00</time></trkpt><trkpt lat="30.10263939" lon="35.37944768"><ele>1154.7</ele><time>2015-11-26T07:37:24.0000000+00:00</time></trkpt><trkpt lat="30.10226514" lon="35.37840078"><ele>1153.2</ele><time>2015-11-26T07:37:35.0000000+00:00</time></trkpt><trkpt lat="30.10213137" lon="35.37807724"><ele>1154.2</ele><time>2015-11-26T07:37:40.0000000+00:00</time></trkpt><trkpt lat="30.1016919" lon="35.37758111"><ele>1155.6</ele><time>2015-11-26T07:37:54.0000000+00:00</time></trkpt><trkpt lat="30.10099805" lon="35.37714047"><ele>1156.1</ele><time>2015-11-26T07:38:15.0000000+00:00</time></trkpt><trkpt lat="30.10080543" lon="35.37696253"><ele>1155.6</ele><time>2015-11-26T07:38:22.0000000+00:00</time></trkpt><trkpt lat="30.10078431" lon="35.37691877"><ele>1154.7</ele><time>2015-11-26T07:38:23.0000000+00:00</time></trkpt><trkpt lat="30.10069169" lon="35.3766798"><ele>1152.8</ele><time>2015-11-26T07:38:27.0000000+00:00</time></trkpt><trkpt lat="30.10060879" lon="35.37632114"><ele>1149.4</ele><time>2015-11-26T07:38:31.0000000+00:00</time></trkpt><trkpt lat="30.10047787" lon="35.37571899"><ele>1146.5</ele><time>2015-11-26T07:38:37.0000000+00:00</time></trkpt><trkpt lat="30.10043873" lon="35.3755138"><ele>1146.0</ele><time>2015-11-26T07:38:39.0000000+00:00</time></trkpt><trkpt lat="30.10041366" lon="35.37541741"><ele>1146.0</ele><time>2015-11-26T07:38:40.0000000+00:00</time></trkpt><trkpt lat="30.10039958" lon="35.37531976"><ele>1145.1</ele><time>2015-11-26T07:38:41.0000000+00:00</time></trkpt><trkpt lat="30.10037846" lon="35.37521842"><ele>1145.1</ele><time>2015-11-26T07:38:42.0000000+00:00</time></trkpt><trkpt lat="30.10035558" lon="35.37511205"><ele>1143.6</ele><time>2015-11-26T07:38:43.0000000+00:00</time></trkpt><trkpt lat="30.10033689" lon="35.37500024"><ele>1142.7</ele><time>2015-11-26T07:38:44.0000000+00:00</time></trkpt><trkpt lat="30.10031987" lon="35.37488532"><ele>1142.2</ele><time>2015-11-26T07:38:45.0000000+00:00</time></trkpt><trkpt lat="30.09998837" lon="35.37399349"><ele>1139.8</ele><time>2015-11-26T07:38:54.0000000+00:00</time></trkpt><trkpt lat="30.0998644" lon="35.37384882"><ele>1139.3</ele><time>2015-11-26T07:38:56.0000000+00:00</time></trkpt><trkpt lat="30.09979743" lon="35.37378671"><ele>1139.3</ele><time>2015-11-26T07:38:57.0000000+00:00</time></trkpt><trkpt lat="30.0997297" lon="35.37373792"><ele>1139.3</ele><time>2015-11-26T07:38:58.0000000+00:00</time></trkpt><trkpt lat="30.09966441" lon="35.37370255"><ele>1139.3</ele><time>2015-11-26T07:38:59.0000000+00:00</time></trkpt><trkpt lat="30.09960104" lon="35.37367472"><ele>1140.3</ele><time>2015-11-26T07:39:00.0000000+00:00</time></trkpt><trkpt lat="30.09954228" lon="35.37365712"><ele>1141.2</ele><time>2015-11-26T07:39:01.0000000+00:00</time></trkpt><trkpt lat="30.09948738" lon="35.37364262"><ele>1141.2</ele><time>2015-11-26T07:39:02.0000000+00:00</time></trkpt><trkpt lat="30.09938688" lon="35.37361412"><ele>1141.7</ele><time>2015-11-26T07:39:04.0000000+00:00</time></trkpt><trkpt lat="30.09929619" lon="35.3735733"><ele>1141.7</ele><time>2015-11-26T07:39:06.0000000+00:00</time></trkpt><trkpt lat="30.0992557" lon="35.37354522"><ele>1141.7</ele><time>2015-11-26T07:39:07.0000000+00:00</time></trkpt><trkpt lat="30.09921899" lon="35.37350977"><ele>1141.7</ele><time>2015-11-26T07:39:08.0000000+00:00</time></trkpt><trkpt lat="30.09918178" lon="35.37346794"><ele>1141.2</ele><time>2015-11-26T07:39:09.0000000+00:00</time></trkpt><trkpt lat="30.09915085" lon="35.37342385"><ele>1141.2</ele><time>2015-11-26T07:39:10.0000000+00:00</time></trkpt><trkpt lat="30.09912084" lon="35.373377"><ele>1141.2</ele><time>2015-11-26T07:39:11.0000000+00:00</time></trkpt><trkpt lat="30.0990946" lon="35.37332654"><ele>1141.2</ele><time>2015-11-26T07:39:12.0000000+00:00</time></trkpt><trkpt lat="30.09907424" lon="35.37327223"><ele>1140.7</ele><time>2015-11-26T07:39:13.0000000+00:00</time></trkpt><trkpt lat="30.09898757" lon="35.37300375"><ele>1140.7</ele><time>2015-11-26T07:39:18.0000000+00:00</time></trkpt><trkpt lat="30.09897885" lon="35.37295522"><ele>1140.3</ele><time>2015-11-26T07:39:19.0000000+00:00</time></trkpt><trkpt lat="30.09897416" lon="35.3722757"><ele>1138.3</ele><time>2015-11-26T07:39:33.0000000+00:00</time></trkpt><trkpt lat="30.09898304" lon="35.37222097"><ele>1138.3</ele><time>2015-11-26T07:39:34.0000000+00:00</time></trkpt><trkpt lat="30.0991179" lon="35.37131178"><ele>1135.0</ele><time>2015-11-26T07:39:47.0000000+00:00</time></trkpt><trkpt lat="30.09917608" lon="35.37089914"><ele>1130.7</ele><time>2015-11-26T07:39:51.0000000+00:00</time></trkpt><trkpt lat="30.09916384" lon="35.37045473"><ele>1129.7</ele><time>2015-11-26T07:39:55.0000000+00:00</time></trkpt><trkpt lat="30.09913928" lon="35.37034954"><ele>1129.2</ele><time>2015-11-26T07:39:56.0000000+00:00</time></trkpt><trkpt lat="30.09910231" lon="35.37025122"><ele>1128.7</ele><time>2015-11-26T07:39:57.0000000+00:00</time></trkpt><trkpt lat="30.09905429" lon="35.37015919"><ele>1128.7</ele><time>2015-11-26T07:39:58.0000000+00:00</time></trkpt><trkpt lat="30.09899586" lon="35.37007906"><ele>1128.2</ele><time>2015-11-26T07:39:59.0000000+00:00</time></trkpt><trkpt lat="30.09892906" lon="35.37001016"><ele>1128.2</ele><time>2015-11-26T07:40:00.0000000+00:00</time></trkpt><trkpt lat="30.098861" lon="35.36994956"><ele>1128.2</ele><time>2015-11-26T07:40:01.0000000+00:00</time></trkpt><trkpt lat="30.09822004" lon="35.36939568"><ele>1129.7</ele><time>2015-11-26T07:40:13.0000000+00:00</time></trkpt><trkpt lat="30.09794603" lon="35.36913131"><ele>1131.6</ele><time>2015-11-26T07:40:24.0000000+00:00</time></trkpt><trkpt lat="30.09771679" lon="35.36883359"><ele>1133.1</ele><time>2015-11-26T07:40:35.0000000+00:00</time></trkpt><trkpt lat="30.09746675" lon="35.36830226"><ele>1134.5</ele><time>2015-11-26T07:40:53.0000000+00:00</time></trkpt><trkpt lat="30.09733658" lon="35.36787562"><ele>1133.5</ele><time>2015-11-26T07:41:03.0000000+00:00</time></trkpt><trkpt lat="30.09728864" lon="35.36762869"><ele>1132.1</ele><time>2015-11-26T07:41:07.0000000+00:00</time></trkpt><trkpt lat="30.09724866" lon="35.36725402"><ele>1128.2</ele><time>2015-11-26T07:41:11.0000000+00:00</time></trkpt><trkpt lat="30.09721287" lon="35.36688387"><ele>1124.9</ele><time>2015-11-26T07:41:14.0000000+00:00</time></trkpt><trkpt lat="30.09721882" lon="35.36631516"><ele>1121.5</ele><time>2015-11-26T07:41:18.0000000+00:00</time></trkpt><trkpt lat="30.09723944" lon="35.36617594"><ele>1121.5</ele><time>2015-11-26T07:41:19.0000000+00:00</time></trkpt><trkpt lat="30.09753364" lon="35.36522166"><ele>1124.4</ele><time>2015-11-26T07:41:28.0000000+00:00</time></trkpt><trkpt lat="30.09764998" lon="35.36498537"><ele>1126.8</ele><time>2015-11-26T07:41:32.0000000+00:00</time></trkpt><trkpt lat="30.09771218" lon="35.36488823"><ele>1127.3</ele><time>2015-11-26T07:41:34.0000000+00:00</time></trkpt><trkpt lat="30.09777621" lon="35.36481371"><ele>1127.8</ele><time>2015-11-26T07:41:36.0000000+00:00</time></trkpt><trkpt lat="30.09780991" lon="35.36478396"><ele>1128.2</ele><time>2015-11-26T07:41:37.0000000+00:00</time></trkpt><trkpt lat="30.09787638" lon="35.36473249"><ele>1128.7</ele><time>2015-11-26T07:41:39.0000000+00:00</time></trkpt><trkpt lat="30.09846814" lon="35.36461665"><ele>1129.2</ele><time>2015-11-26T07:41:54.0000000+00:00</time></trkpt><trkpt lat="30.09859412" lon="35.36459997"><ele>1129.2</ele><time>2015-11-26T07:41:58.0000000+00:00</time></trkpt><trkpt lat="30.09861206" lon="35.36458354"><ele>1129.2</ele><time>2015-11-26T07:41:59.0000000+00:00</time></trkpt><trkpt lat="30.09853679" lon="35.36456368"><ele>1129.2</ele><time>2015-11-26T07:42:07.0000000+00:00</time></trkpt><trkpt lat="30.09845129" lon="35.36457181"><ele>1129.7</ele><time>2015-11-26T07:42:12.0000000+00:00</time></trkpt><trkpt lat="30.09843084" lon="35.36457315"><ele>1129.2</ele><time>2015-11-26T07:42:13.0000000+00:00</time></trkpt><trkpt lat="30.09840955" lon="35.36457768"><ele>1129.7</ele><time>2015-11-26T07:42:14.0000000+00:00</time></trkpt><trkpt lat="30.09838725" lon="35.3645796"><ele>1129.7</ele><time>2015-11-26T07:42:15.0000000+00:00</time></trkpt><trkpt lat="30.09836353" lon="35.36457617"><ele>1129.7</ele><time>2015-11-26T07:42:16.0000000+00:00</time></trkpt><trkpt lat="30.09834124" lon="35.36457432"><ele>1129.7</ele><time>2015-11-26T07:42:17.0000000+00:00</time></trkpt><trkpt lat="30.09832053" lon="35.36457986"><ele>1129.7</ele><time>2015-11-26T07:42:18.0000000+00:00</time></trkpt><trkpt lat="30.09830025" lon="35.36458589"><ele>1129.7</ele><time>2015-11-26T07:42:19.0000000+00:00</time></trkpt><trkpt lat="30.09799389" lon="35.3646454"><ele>1129.2</ele><time>2015-11-26T07:42:31.0000000+00:00</time></trkpt><trkpt lat="30.09762961" lon="35.36490147"><ele>1128.2</ele><time>2015-11-26T07:42:44.0000000+00:00</time></trkpt><trkpt lat="30.09757974" lon="35.36497699"><ele>1127.8</ele><time>2015-11-26T07:42:46.0000000+00:00</time></trkpt><trkpt lat="30.09751596" lon="35.36511571"><ele>1126.3</ele><time>2015-11-26T07:42:49.0000000+00:00</time></trkpt><trkpt lat="30.09736558" lon="35.3655048"><ele>1123.0</ele><time>2015-11-26T07:42:57.0000000+00:00</time></trkpt><trkpt lat="30.0973448" lon="35.36555124"><ele>1122.5</ele><time>2015-11-26T07:42:59.0000000+00:00</time></trkpt><trkpt lat="30.09733273" lon="35.36555777"><ele>1122.5</ele><time>2015-11-26T07:43:00.0000000+00:00</time></trkpt><trkpt lat="30.09721085" lon="35.36542869"><ele>1120.6</ele><time>2015-11-26T07:43:09.0000000+00:00</time></trkpt><trkpt lat="30.09712419" lon="35.36552726"><ele>1119.1</ele><time>2015-11-26T07:43:15.0000000+00:00</time></trkpt><trkpt lat="30.09713927" lon="35.36572608"><ele>1116.7</ele><time>2015-11-26T07:43:20.0000000+00:00</time></trkpt><trkpt lat="30.09713609" lon="35.36578953"><ele>1115.3</ele><time>2015-11-26T07:43:21.0000000+00:00</time></trkpt><trkpt lat="30.09711916" lon="35.36585944"><ele>1114.8</ele><time>2015-11-26T07:43:22.0000000+00:00</time></trkpt><trkpt lat="30.09709653" lon="35.36593135"><ele>1114.8</ele><time>2015-11-26T07:43:23.0000000+00:00</time></trkpt><trkpt lat="30.09692788" lon="35.36631893"><ele>1114.3</ele><time>2015-11-26T07:43:30.0000000+00:00</time></trkpt><trkpt lat="30.09673912" lon="35.36626739"><ele>1114.8</ele><time>2015-11-26T07:43:37.0000000+00:00</time></trkpt><trkpt lat="30.09665036" lon="35.36610486"><ele>1116.2</ele><time>2015-11-26T07:43:46.0000000+00:00</time></trkpt><trkpt lat="30.09632757" lon="35.36602448"><ele>1118.2</ele><time>2015-11-26T07:44:02.0000000+00:00</time></trkpt><trkpt lat="30.09603227" lon="35.36575969"><ele>1119.6</ele><time>2015-11-26T07:44:16.0000000+00:00</time></trkpt><trkpt lat="30.0959156" lon="35.36550589"><ele>1121.5</ele><time>2015-11-26T07:44:29.0000000+00:00</time></trkpt><trkpt lat="30.09576322" lon="35.3652717"><ele>1121.5</ele><time>2015-11-26T07:44:43.0000000+00:00</time></trkpt><trkpt lat="30.09573899" lon="35.36524882"><ele>1121.5</ele><time>2015-11-26T07:44:44.0000000+00:00</time></trkpt><trkpt lat="30.0954929" lon="35.365151"><ele>1119.1</ele><time>2015-11-26T07:44:49.0000000+00:00</time></trkpt><trkpt lat="30.0953178" lon="35.36505813"><ele>1117.2</ele><time>2015-11-26T07:44:52.0000000+00:00</time></trkpt><trkpt lat="30.09528335" lon="35.36500381"><ele>1116.7</ele><time>2015-11-26T07:44:53.0000000+00:00</time></trkpt><trkpt lat="30.0950391" lon="35.36473928"><ele>1119.1</ele><time>2015-11-26T07:45:04.0000000+00:00</time></trkpt><trkpt lat="30.09460442" lon="35.36448145"><ele>1118.2</ele><time>2015-11-26T07:45:20.0000000+00:00</time></trkpt><trkpt lat="30.09411978" lon="35.36425246"><ele>1117.7</ele><time>2015-11-26T07:45:34.0000000+00:00</time></trkpt><trkpt lat="30.0935721" lon="35.36419052"><ele>1117.7</ele><time>2015-11-26T07:45:50.0000000+00:00</time></trkpt><trkpt lat="30.09309324" lon="35.36412405"><ele>1116.7</ele><time>2015-11-26T07:46:02.0000000+00:00</time></trkpt><trkpt lat="30.09269091" lon="35.36409102"><ele>1115.8</ele><time>2015-11-26T07:46:12.0000000+00:00</time></trkpt><trkpt lat="30.09234105" lon="35.36405448"><ele>1117.2</ele><time>2015-11-26T07:46:25.0000000+00:00</time></trkpt><trkpt lat="30.09232513" lon="35.36405213"><ele>1117.2</ele><time>2015-11-26T07:46:26.0000000+00:00</time></trkpt><trkpt lat="30.09225531" lon="35.36407971"><ele>1117.7</ele><time>2015-11-26T07:46:31.0000000+00:00</time></trkpt><trkpt lat="30.09197108" lon="35.36414668"><ele>1119.1</ele><time>2015-11-26T07:46:47.0000000+00:00</time></trkpt><trkpt lat="30.09168902" lon="35.3641844"><ele>1120.1</ele><time>2015-11-26T07:47:01.0000000+00:00</time></trkpt><trkpt lat="30.09136087" lon="35.36422044"><ele>1120.6</ele><time>2015-11-26T07:47:15.0000000+00:00</time></trkpt><trkpt lat="30.09099903" lon="35.36424399"><ele>1122.0</ele><time>2015-11-26T07:47:31.0000000+00:00</time></trkpt><trkpt lat="30.09070071" lon="35.36429571"><ele>1121.5</ele><time>2015-11-26T07:47:43.0000000+00:00</time></trkpt><trkpt lat="30.09040106" lon="35.36433997"><ele>1119.6</ele><time>2015-11-26T07:47:54.0000000+00:00</time></trkpt><trkpt lat="30.09022596" lon="35.36445622"><ele>1120.6</ele><time>2015-11-26T07:48:05.0000000+00:00</time></trkpt><trkpt lat="30.09020006" lon="35.36446787"><ele>1120.6</ele><time>2015-11-26T07:48:07.0000000+00:00</time></trkpt><trkpt lat="30.09013267" lon="35.36446393"><ele>1121.0</ele><time>2015-11-26T07:48:11.0000000+00:00</time></trkpt><trkpt lat="30.08990971" lon="35.36437701"><ele>1122.5</ele><time>2015-11-26T07:48:27.0000000+00:00</time></trkpt><trkpt lat="30.08964426" lon="35.36422237"><ele>1123.0</ele><time>2015-11-26T07:48:41.0000000+00:00</time></trkpt><trkpt lat="30.08931133" lon="35.36415347"><ele>1125.4</ele><time>2015-11-26T07:48:56.0000000+00:00</time></trkpt><trkpt lat="30.08894227" lon="35.36404593"><ele>1126.3</ele><time>2015-11-26T07:49:12.0000000+00:00</time></trkpt><trkpt lat="30.08865645" lon="35.36427056"><ele>1126.8</ele><time>2015-11-26T07:49:26.0000000+00:00</time></trkpt><trkpt lat="30.08856584" lon="35.36466795"><ele>1125.4</ele><time>2015-11-26T07:49:39.0000000+00:00</time></trkpt><trkpt lat="30.08844414" lon="35.36488043"><ele>1126.3</ele><time>2015-11-26T07:49:49.0000000+00:00</time></trkpt><trkpt lat="30.08827046" lon="35.36515075"><ele>1127.8</ele><time>2015-11-26T07:50:05.0000000+00:00</time></trkpt><trkpt lat="30.08823576" lon="35.36519685"><ele>1127.8</ele><time>2015-11-26T07:50:08.0000000+00:00</time></trkpt><trkpt lat="30.0881475" lon="35.36531394"><ele>1128.2</ele><time>2015-11-26T07:50:17.0000000+00:00</time></trkpt><trkpt lat="30.08810082" lon="35.36537044"><ele>1128.2</ele><time>2015-11-26T07:50:21.0000000+00:00</time></trkpt><trkpt lat="30.08795807" lon="35.36555534"><ele>1129.2</ele><time>2015-11-26T07:50:32.0000000+00:00</time></trkpt><trkpt lat="30.08788398" lon="35.365611"><ele>1129.7</ele><time>2015-11-26T07:50:37.0000000+00:00</time></trkpt><trkpt lat="30.08767795" lon="35.36582583"><ele>1130.7</ele><time>2015-11-26T07:50:52.0000000+00:00</time></trkpt><trkpt lat="30.08748156" lon="35.36613814"><ele>1130.7</ele><time>2015-11-26T07:51:07.0000000+00:00</time></trkpt><trkpt lat="30.08736103" lon="35.36628876"><ele>1132.1</ele><time>2015-11-26T07:51:19.0000000+00:00</time></trkpt><trkpt lat="30.08721326" lon="35.36657676"><ele>1133.1</ele><time>2015-11-26T07:51:35.0000000+00:00</time></trkpt><trkpt lat="30.08709717" lon="35.36689913"><ele>1133.1</ele><time>2015-11-26T07:51:48.0000000+00:00</time></trkpt><trkpt lat="30.08698896" lon="35.36705051"><ele>1133.5</ele><time>2015-11-26T07:51:57.0000000+00:00</time></trkpt><trkpt lat="30.086796" lon="35.36727229"><ele>1135.5</ele><time>2015-11-26T07:52:13.0000000+00:00</time></trkpt><trkpt lat="30.08663951" lon="35.36756205"><ele>1136.4</ele><time>2015-11-26T07:52:29.0000000+00:00</time></trkpt><trkpt lat="30.08656483" lon="35.36781862"><ele>1136.4</ele><time>2015-11-26T07:52:43.0000000+00:00</time></trkpt><trkpt lat="30.08642351" lon="35.36807084"><ele>1136.4</ele><time>2015-11-26T07:52:55.0000000+00:00</time></trkpt><trkpt lat="30.08615135" lon="35.36821333"><ele>1136.4</ele><time>2015-11-26T07:53:10.0000000+00:00</time></trkpt><trkpt lat="30.08586234" lon="35.36833663"><ele>1138.3</ele><time>2015-11-26T07:53:26.0000000+00:00</time></trkpt><trkpt lat="30.08569093" lon="35.36851541"><ele>1139.3</ele><time>2015-11-26T07:53:39.0000000+00:00</time></trkpt><trkpt lat="30.08547351" lon="35.36867626"><ele>1139.3</ele><time>2015-11-26T07:53:55.0000000+00:00</time></trkpt><trkpt lat="30.08530067" lon="35.36881599"><ele>1139.3</ele><time>2015-11-26T07:54:07.0000000+00:00</time></trkpt><trkpt lat="30.08520998" lon="35.36892571"><ele>1139.8</ele><time>2015-11-26T07:54:15.0000000+00:00</time></trkpt><trkpt lat="30.08516723" lon="35.36898949"><ele>1140.3</ele><time>2015-11-26T07:54:19.0000000+00:00</time></trkpt><trkpt lat="30.08504888" lon="35.36920876"><ele>1141.2</ele><time>2015-11-26T07:54:32.0000000+00:00</time></trkpt><trkpt lat="30.08492634" lon="35.36943977"><ele>1143.6</ele><time>2015-11-26T07:54:48.0000000+00:00</time></trkpt><trkpt lat="30.08477479" lon="35.36960674"><ele>1145.1</ele><time>2015-11-26T07:55:02.0000000+00:00</time></trkpt><trkpt lat="30.08452736" lon="35.36967396"><ele>1145.1</ele><time>2015-11-26T07:55:14.0000000+00:00</time></trkpt><trkpt lat="30.08415252" lon="35.36964722"><ele>1145.1</ele><time>2015-11-26T07:55:29.0000000+00:00</time></trkpt><trkpt lat="30.0838206" lon="35.36954437"><ele>1145.1</ele><time>2015-11-26T07:55:42.0000000+00:00</time></trkpt><trkpt lat="30.08354165" lon="35.36952191"><ele>1146.0</ele><time>2015-11-26T07:55:55.0000000+00:00</time></trkpt><trkpt lat="30.0833264" lon="35.36950246"><ele>1147.5</ele><time>2015-11-26T07:56:06.0000000+00:00</time></trkpt><trkpt lat="30.08310235" lon="35.36950875"><ele>1148.9</ele><time>2015-11-26T07:56:21.0000000+00:00</time></trkpt><trkpt lat="30.08285358" lon="35.36972919"><ele>1148.4</ele><time>2015-11-26T07:56:36.0000000+00:00</time></trkpt><trkpt lat="30.08268753" lon="35.36987554"><ele>1148.9</ele><time>2015-11-26T07:56:49.0000000+00:00</time></trkpt><trkpt lat="30.08265032" lon="35.36990119"><ele>1148.9</ele><time>2015-11-26T07:56:52.0000000+00:00</time></trkpt><trkpt lat="30.08257831" lon="35.36993413"><ele>1149.4</ele><time>2015-11-26T07:56:57.0000000+00:00</time></trkpt><trkpt lat="30.08230071" lon="35.36991142"><ele>1150.4</ele><time>2015-11-26T07:57:13.0000000+00:00</time></trkpt><trkpt lat="30.08228277" lon="35.36989993"><ele>1150.4</ele><time>2015-11-26T07:57:14.0000000+00:00</time></trkpt><trkpt lat="30.08205889" lon="35.36981737"><ele>1152.3</ele><time>2015-11-26T07:57:28.0000000+00:00</time></trkpt><trkpt lat="30.08199384" lon="35.36978854"><ele>1152.3</ele><time>2015-11-26T07:57:32.0000000+00:00</time></trkpt><trkpt lat="30.08189427" lon="35.36974898"><ele>1152.8</ele><time>2015-11-26T07:57:38.0000000+00:00</time></trkpt><trkpt lat="30.08180567" lon="35.36971218"><ele>1152.8</ele><time>2015-11-26T07:57:44.0000000+00:00</time></trkpt><trkpt lat="30.08147836" lon="35.36961252"><ele>1153.2</ele><time>2015-11-26T07:57:59.0000000+00:00</time></trkpt><trkpt lat="30.08118784" lon="35.36944966"><ele>1154.7</ele><time>2015-11-26T07:58:13.0000000+00:00</time></trkpt><trkpt lat="30.08093102" lon="35.36924061"><ele>1155.6</ele><time>2015-11-26T07:58:29.0000000+00:00</time></trkpt><trkpt lat="30.08084401" lon="35.3691324"><ele>1156.1</ele><time>2015-11-26T07:58:38.0000000+00:00</time></trkpt><trkpt lat="30.08071301" lon="35.36902796"><ele>1156.1</ele><time>2015-11-26T07:58:47.0000000+00:00</time></trkpt><trkpt lat="30.08058099" lon="35.36900332"><ele>1157.1</ele><time>2015-11-26T07:58:55.0000000+00:00</time></trkpt><trkpt lat="30.08023675" lon="35.36882051"><ele>1159.5</ele><time>2015-11-26T07:59:14.0000000+00:00</time></trkpt><trkpt lat="30.07998462" lon="35.36870962"><ele>1161.9</ele><time>2015-11-26T07:59:29.0000000+00:00</time></trkpt><trkpt lat="30.07975319" lon="35.3686056"><ele>1163.3</ele><time>2015-11-26T07:59:44.0000000+00:00</time></trkpt><trkpt lat="30.07949051" lon="35.36848641"><ele>1164.8</ele><time>2015-11-26T08:00:00.0000000+00:00</time></trkpt><trkpt lat="30.07938439" lon="35.36843017"><ele>1165.3</ele><time>2015-11-26T08:00:07.0000000+00:00</time></trkpt><trkpt lat="30.07921985" lon="35.36833051"><ele>1166.2</ele><time>2015-11-26T08:00:18.0000000+00:00</time></trkpt><trkpt lat="30.07897108" lon="35.36814082"><ele>1168.1</ele><time>2015-11-26T08:00:33.0000000+00:00</time></trkpt><trkpt lat="30.07876815" lon="35.36796816"><ele>1170.1</ele><time>2015-11-26T08:00:48.0000000+00:00</time></trkpt><trkpt lat="30.07853857" lon="35.3677519"><ele>1172.5</ele><time>2015-11-26T08:01:06.0000000+00:00</time></trkpt><trkpt lat="30.07831201" lon="35.36751042"><ele>1174.4</ele><time>2015-11-26T08:01:25.0000000+00:00</time></trkpt><trkpt lat="30.07804211" lon="35.36731638"><ele>1174.9</ele><time>2015-11-26T08:01:41.0000000+00:00</time></trkpt><trkpt lat="30.07778663" lon="35.3670179"><ele>1177.3</ele><time>2015-11-26T08:01:58.0000000+00:00</time></trkpt><trkpt lat="30.07763165" lon="35.36675563"><ele>1179.2</ele><time>2015-11-26T08:02:14.0000000+00:00</time></trkpt><trkpt lat="30.07747189" lon="35.3665237"><ele>1181.1</ele><time>2015-11-26T08:02:29.0000000+00:00</time></trkpt><trkpt lat="30.07732563" lon="35.36633561"><ele>1182.6</ele><time>2015-11-26T08:02:42.0000000+00:00</time></trkpt><trkpt lat="30.07710711" lon="35.36610553"><ele>1184.0</ele><time>2015-11-26T08:02:58.0000000+00:00</time></trkpt><trkpt lat="30.07686228" lon="35.36589942"><ele>1184.0</ele><time>2015-11-26T08:03:11.0000000+00:00</time></trkpt><trkpt lat="30.07657964" lon="35.36563262"><ele>1184.5</ele><time>2015-11-26T08:03:25.0000000+00:00</time></trkpt><trkpt lat="30.0763048" lon="35.36527455"><ele>1185.4</ele><time>2015-11-26T08:03:41.0000000+00:00</time></trkpt><trkpt lat="30.07610547" lon="35.36496601"><ele>1186.9</ele><time>2015-11-26T08:03:53.0000000+00:00</time></trkpt><trkpt lat="30.07588486" lon="35.36476702"><ele>1188.3</ele><time>2015-11-26T08:04:07.0000000+00:00</time></trkpt><trkpt lat="30.07561731" lon="35.36462587"><ele>1189.3</ele><time>2015-11-26T08:04:20.0000000+00:00</time></trkpt><trkpt lat="30.07526033" lon="35.36443778"><ele>1191.7</ele><time>2015-11-26T08:04:39.0000000+00:00</time></trkpt><trkpt lat="30.07510551" lon="35.36439495"><ele>1192.7</ele><time>2015-11-26T08:04:48.0000000+00:00</time></trkpt><trkpt lat="30.07483436" lon="35.36432957"><ele>1193.6</ele><time>2015-11-26T08:05:03.0000000+00:00</time></trkpt><trkpt lat="30.07453286" lon="35.36426277"><ele>1194.6</ele><time>2015-11-26T08:05:17.0000000+00:00</time></trkpt><trkpt lat="30.07424729" lon="35.36426562"><ele>1196.0</ele><time>2015-11-26T08:05:31.0000000+00:00</time></trkpt><trkpt lat="30.07400824" lon="35.36426277"><ele>1197.5</ele><time>2015-11-26T08:05:46.0000000+00:00</time></trkpt><trkpt lat="30.07374421" lon="35.36415431"><ele>1198.4</ele><time>2015-11-26T08:06:02.0000000+00:00</time></trkpt><trkpt lat="30.07341027" lon="35.36400989"><ele>1200.3</ele><time>2015-11-26T08:06:20.0000000+00:00</time></trkpt><trkpt lat="30.07339183" lon="35.36400318"><ele>1200.8</ele><time>2015-11-26T08:06:21.0000000+00:00</time></trkpt><trkpt lat="30.07316301" lon="35.36394367"><ele>1202.3</ele><time>2015-11-26T08:06:35.0000000+00:00</time></trkpt><trkpt lat="30.07292873" lon="35.36383018"><ele>1203.2</ele><time>2015-11-26T08:06:49.0000000+00:00</time></trkpt><trkpt lat="30.07267862" lon="35.36369129"><ele>1205.2</ele><time>2015-11-26T08:07:04.0000000+00:00</time></trkpt><trkpt lat="30.07246479" lon="35.36357956"><ele>1207.6</ele><time>2015-11-26T08:07:19.0000000+00:00</time></trkpt><trkpt lat="30.07232448" lon="35.36348837"><ele>1209.0</ele><time>2015-11-26T08:07:30.0000000+00:00</time></trkpt><trkpt lat="30.07224879" lon="35.36341628"><ele>1209.5</ele><time>2015-11-26T08:07:37.0000000+00:00</time></trkpt><trkpt lat="30.0721949" lon="35.36337932"><ele>1210.0</ele><time>2015-11-26T08:07:46.0000000+00:00</time></trkpt><trkpt lat="30.07218182" lon="35.36336943"><ele>1210.0</ele><time>2015-11-26T08:07:48.0000000+00:00</time></trkpt><trkpt lat="30.07206766" lon="35.36327287"><ele>1211.4</ele><time>2015-11-26T08:07:59.0000000+00:00</time></trkpt><trkpt lat="30.07188058" lon="35.36310498"><ele>1213.3</ele><time>2015-11-26T08:08:15.0000000+00:00</time></trkpt><trkpt lat="30.07168117" lon="35.36298646"><ele>1215.7</ele><time>2015-11-26T08:08:31.0000000+00:00</time></trkpt><trkpt lat="30.07160942" lon="35.36294237"><ele>1217.2</ele><time>2015-11-26T08:08:37.0000000+00:00</time></trkpt><trkpt lat="30.07155108" lon="35.36291923"><ele>1217.2</ele><time>2015-11-26T08:08:42.0000000+00:00</time></trkpt><trkpt lat="30.07150255" lon="35.36290381"><ele>1217.2</ele><time>2015-11-26T08:08:46.0000000+00:00</time></trkpt><trkpt lat="30.0714624" lon="35.36289627"><ele>1217.2</ele><time>2015-11-26T08:08:50.0000000+00:00</time></trkpt><trkpt lat="30.07140725" lon="35.3628733"><ele>1217.2</ele><time>2015-11-26T08:08:55.0000000+00:00</time></trkpt><trkpt lat="30.07132645" lon="35.36275906"><ele>1217.2</ele><time>2015-11-26T08:09:03.0000000+00:00</time></trkpt><trkpt lat="30.07120189" lon="35.36266518"><ele>1220.1</ele><time>2015-11-26T08:09:12.0000000+00:00</time></trkpt><trkpt lat="30.07111732" lon="35.36266233"><ele>1221.5</ele><time>2015-11-26T08:09:18.0000000+00:00</time></trkpt><trkpt lat="30.07090635" lon="35.36263165"><ele>1223.9</ele><time>2015-11-26T08:09:33.0000000+00:00</time></trkpt><trkpt lat="30.07078716" lon="35.36256518"><ele>1225.3</ele><time>2015-11-26T08:09:43.0000000+00:00</time></trkpt><trkpt lat="30.07070577" lon="35.36242185"><ele>1226.8</ele><time>2015-11-26T08:09:54.0000000+00:00</time></trkpt><trkpt lat="30.0706885" lon="35.36240249"><ele>1226.8</ele><time>2015-11-26T08:09:56.0000000+00:00</time></trkpt><trkpt lat="30.07047795" lon="35.36244348"><ele>1226.3</ele><time>2015-11-26T08:10:08.0000000+00:00</time></trkpt><trkpt lat="30.07046185" lon="35.36244717"><ele>1226.8</ele><time>2015-11-26T08:10:09.0000000+00:00</time></trkpt><trkpt lat="30.07013077" lon="35.3624392"><ele>1228.2</ele><time>2015-11-26T08:10:26.0000000+00:00</time></trkpt><trkpt lat="30.06995928" lon="35.36245043"><ele>1229.2</ele><time>2015-11-26T08:10:35.0000000+00:00</time></trkpt><trkpt lat="30.06970857" lon="35.36242914"><ele>1231.1</ele><time>2015-11-26T08:10:51.0000000+00:00</time></trkpt><trkpt lat="30.06950246" lon="35.36241204"><ele>1232.6</ele><time>2015-11-26T08:11:04.0000000+00:00</time></trkpt><trkpt lat="30.06948846" lon="35.36241054"><ele>1233.0</ele><time>2015-11-26T08:11:05.0000000+00:00</time></trkpt><trkpt lat="30.06943147" lon="35.36241355"><ele>1233.0</ele><time>2015-11-26T08:11:09.0000000+00:00</time></trkpt><trkpt lat="30.06933834" lon="35.36239637"><ele>1233.5</ele><time>2015-11-26T08:11:15.0000000+00:00</time></trkpt><trkpt lat="30.06911371" lon="35.3623869"><ele>1234.5</ele><time>2015-11-26T08:11:29.0000000+00:00</time></trkpt><trkpt lat="30.06896962" lon="35.36237634"><ele>1235.9</ele><time>2015-11-26T08:11:39.0000000+00:00</time></trkpt><trkpt lat="30.06882881" lon="35.36239897"><ele>1236.9</ele><time>2015-11-26T08:11:50.0000000+00:00</time></trkpt><trkpt lat="30.06872303" lon="35.36241028"><ele>1237.4</ele><time>2015-11-26T08:11:58.0000000+00:00</time></trkpt><trkpt lat="30.06855246" lon="35.36242571"><ele>1239.3</ele><time>2015-11-26T08:12:12.0000000+00:00</time></trkpt><trkpt lat="30.06836034" lon="35.36244289"><ele>1240.7</ele><time>2015-11-26T08:12:28.0000000+00:00</time></trkpt><trkpt lat="30.06819723" lon="35.36245236"><ele>1242.6</ele><time>2015-11-26T08:12:43.0000000+00:00</time></trkpt><trkpt lat="30.06812716" lon="35.36244934"><ele>1243.1</ele><time>2015-11-26T08:12:49.0000000+00:00</time></trkpt><trkpt lat="30.06804535" lon="35.3624558"><ele>1243.6</ele><time>2015-11-26T08:12:56.0000000+00:00</time></trkpt><trkpt lat="30.06796338" lon="35.36242914"><ele>1244.6</ele><time>2015-11-26T08:13:04.0000000+00:00</time></trkpt><trkpt lat="30.06779264" lon="35.36244172"><ele>1246.5</ele><time>2015-11-26T08:13:20.0000000+00:00</time></trkpt><trkpt lat="30.06778543" lon="35.36244063"><ele>1247.0</ele><time>2015-11-26T08:13:21.0000000+00:00</time></trkpt><trkpt lat="30.0677685" lon="35.36244775"><ele>1247.0</ele><time>2015-11-26T08:13:23.0000000+00:00</time></trkpt><trkpt lat="30.06774033" lon="35.36245152"><ele>1247.5</ele><time>2015-11-26T08:13:26.0000000+00:00</time></trkpt><trkpt lat="30.06768099" lon="35.36245295"><ele>1247.9</ele><time>2015-11-26T08:13:31.0000000+00:00</time></trkpt><trkpt lat="30.06754906" lon="35.36249016"><ele>1249.4</ele><time>2015-11-26T08:13:43.0000000+00:00</time></trkpt><trkpt lat="30.06750849" lon="35.36251212"><ele>1249.9</ele><time>2015-11-26T08:13:47.0000000+00:00</time></trkpt><trkpt lat="30.06740917" lon="35.36259083"><ele>1251.3</ele><time>2015-11-26T08:13:58.0000000+00:00</time></trkpt><trkpt lat="30.06735896" lon="35.36264942"><ele>1250.8</ele><time>2015-11-26T08:14:11.0000000+00:00</time></trkpt><trkpt lat="30.06737497" lon="35.36266015"><ele>1250.3</ele><time>2015-11-26T08:14:24.0000000+00:00</time></trkpt><trkpt lat="30.0673919" lon="35.3626345"><ele>1249.9</ele><time>2015-11-26T08:15:07.0000000+00:00</time></trkpt><trkpt lat="30.06736977" lon="35.36264397"><ele>1250.3</ele><time>2015-11-26T08:15:42.0000000+00:00</time></trkpt><trkpt lat="30.06736013" lon="35.36265898"><ele>1249.4</ele><time>2015-11-26T08:16:07.0000000+00:00</time></trkpt><trkpt lat="30.06734069" lon="35.36269376"><ele>1249.4</ele><time>2015-11-26T08:16:48.0000000+00:00</time></trkpt><trkpt lat="30.06733566" lon="35.36270591"><ele>1249.4</ele><time>2015-11-26T08:17:35.0000000+00:00</time></trkpt><trkpt lat="30.06734345" lon="35.36269988"><ele>1249.9</ele><time>2015-11-26T08:18:14.0000000+00:00</time></trkpt><trkpt lat="30.06733297" lon="35.36270499"><ele>1249.9</ele><time>2015-11-26T08:18:48.0000000+00:00</time></trkpt><trkpt lat="30.06734219" lon="35.36270742"><ele>1249.9</ele><time>2015-11-26T08:19:28.0000000+00:00</time></trkpt><trkpt lat="30.06733448" lon="35.36269988"><ele>1249.9</ele><time>2015-11-26T08:20:09.0000000+00:00</time></trkpt><trkpt lat="30.06734035" lon="35.36271061"><ele>1250.3</ele><time>2015-11-26T08:20:47.0000000+00:00</time></trkpt><trkpt lat="30.06734865" lon="35.36271522"><ele>1250.3</ele><time>2015-11-26T08:21:24.0000000+00:00</time></trkpt><trkpt lat="30.0673541" lon="35.36269317"><ele>1250.3</ele><time>2015-11-26T08:22:05.0000000+00:00</time></trkpt><trkpt lat="30.06735217" lon="35.36271497"><ele>1250.3</ele><time>2015-11-26T08:22:43.0000000+00:00</time></trkpt><trkpt lat="30.06734136" lon="35.36271949"><ele>1250.3</ele><time>2015-11-26T08:23:21.0000000+00:00</time></trkpt><trkpt lat="30.06735175" lon="35.36270164"><ele>1250.3</ele><time>2015-11-26T08:24:01.0000000+00:00</time></trkpt><trkpt lat="30.06734571" lon="35.36271681"><ele>1249.9</ele><time>2015-11-26T08:24:48.0000000+00:00</time></trkpt><trkpt lat="30.06735116" lon="35.3627013"><ele>1249.9</ele><time>2015-11-26T08:25:36.0000000+00:00</time></trkpt><trkpt lat="30.06734664" lon="35.3627055"><ele>1249.9</ele><time>2015-11-26T08:26:13.0000000+00:00</time></trkpt><trkpt lat="30.06734571" lon="35.36271296"><ele>1249.4</ele><time>2015-11-26T08:26:49.0000000+00:00</time></trkpt><trkpt lat="30.06734094" lon="35.36271296"><ele>1248.9</ele><time>2015-11-26T08:27:24.0000000+00:00</time></trkpt><trkpt lat="30.06735158" lon="35.36271874"><ele>1248.4</ele><time>2015-11-26T08:28:08.0000000+00:00</time></trkpt><trkpt lat="30.06734722" lon="35.36271011"><ele>1248.4</ele><time>2015-11-26T08:28:40.0000000+00:00</time></trkpt><trkpt lat="30.06734957" lon="35.36270298"><ele>1247.9</ele><time>2015-11-26T08:29:11.0000000+00:00</time></trkpt><trkpt lat="30.06733063" lon="35.36270332"><ele>1247.5</ele><time>2015-11-26T08:29:51.0000000+00:00</time></trkpt><trkpt lat="30.06733172" lon="35.36269183"><ele>1247.5</ele><time>2015-11-26T08:30:26.0000000+00:00</time></trkpt><trkpt lat="30.06732862" lon="35.36269502"><ele>1247.5</ele><time>2015-11-26T08:31:05.0000000+00:00</time></trkpt><trkpt lat="30.06732669" lon="35.36269359"><ele>1247.5</ele><time>2015-11-26T08:31:43.0000000+00:00</time></trkpt><trkpt lat="30.0673256" lon="35.36269468"><ele>1247.0</ele><time>2015-11-26T08:32:23.0000000+00:00</time></trkpt><trkpt lat="30.06732677" lon="35.36268672"><ele>1247.5</ele><time>2015-11-26T08:33:07.0000000+00:00</time></trkpt><trkpt lat="30.06730909" lon="35.36269485"><ele>1247.5</ele><time>2015-11-26T08:33:40.0000000+00:00</time></trkpt><trkpt lat="30.06731822" lon="35.36268605"><ele>1247.5</ele><time>2015-11-26T08:34:11.0000000+00:00</time></trkpt><trkpt lat="30.06731931" lon="35.36271564"><ele>1247.5</ele><time>2015-11-26T08:34:45.0000000+00:00</time></trkpt><trkpt lat="30.06732375" lon="35.36269192"><ele>1247.9</ele><time>2015-11-26T08:35:15.0000000+00:00</time></trkpt><trkpt lat="30.06732224" lon="35.36268865"><ele>1247.9</ele><time>2015-11-26T08:35:56.0000000+00:00</time></trkpt><trkpt lat="30.06732124" lon="35.36269292"><ele>1247.9</ele><time>2015-11-26T08:36:32.0000000+00:00</time></trkpt><trkpt lat="30.06733448" lon="35.36269108"><ele>1247.9</ele><time>2015-11-26T08:37:12.0000000+00:00</time></trkpt><trkpt lat="30.06732283" lon="35.36269812"><ele>1248.4</ele><time>2015-11-26T08:37:52.0000000+00:00</time></trkpt><trkpt lat="30.06732007" lon="35.36269845"><ele>1248.4</ele><time>2015-11-26T08:38:31.0000000+00:00</time></trkpt><trkpt lat="30.06731479" lon="35.36270365"><ele>1248.4</ele><time>2015-11-26T08:39:05.0000000+00:00</time></trkpt><trkpt lat="30.06731143" lon="35.36267825"><ele>1248.4</ele><time>2015-11-26T08:39:54.0000000+00:00</time></trkpt><trkpt lat="30.06730615" lon="35.36267733"><ele>1247.9</ele><time>2015-11-26T08:40:36.0000000+00:00</time></trkpt><trkpt lat="30.06730062" lon="35.36267297"><ele>1247.9</ele><time>2015-11-26T08:41:18.0000000+00:00</time></trkpt><trkpt lat="30.06730825" lon="35.36267607"><ele>1247.9</ele><time>2015-11-26T08:42:01.0000000+00:00</time></trkpt><trkpt lat="30.06730875" lon="35.36266551"><ele>1247.9</ele><time>2015-11-26T08:42:44.0000000+00:00</time></trkpt><trkpt lat="30.06730766" lon="35.36267817"><ele>1247.5</ele><time>2015-11-26T08:43:19.0000000+00:00</time></trkpt><trkpt lat="30.06729291" lon="35.362677"><ele>1247.5</ele><time>2015-11-26T08:43:47.0000000+00:00</time></trkpt><trkpt lat="30.0673064" lon="35.36266392"><ele>1248.4</ele><time>2015-11-26T08:44:24.0000000+00:00</time></trkpt><trkpt lat="30.06731403" lon="35.36266342"><ele>1247.9</ele><time>2015-11-26T08:44:42.0000000+00:00</time></trkpt><trkpt lat="30.06731923" lon="35.36266669"><ele>1247.9</ele><time>2015-11-26T08:45:04.0000000+00:00</time></trkpt><trkpt lat="30.06732007" lon="35.36265931"><ele>1247.9</ele><time>2015-11-26T08:45:24.0000000+00:00</time></trkpt><trkpt lat="30.06732409" lon="35.36267892"><ele>1248.4</ele><time>2015-11-26T08:45:54.0000000+00:00</time></trkpt><trkpt lat="30.06731143" lon="35.36268932"><ele>1248.4</ele><time>2015-11-26T08:46:01.0000000+00:00</time></trkpt><trkpt lat="30.06702175" lon="35.36272134"><ele>1244.6</ele><time>2015-11-26T08:46:13.0000000+00:00</time></trkpt><trkpt lat="30.0667257" lon="35.36274078"><ele>1241.2</ele><time>2015-11-26T08:46:22.0000000+00:00</time></trkpt><trkpt lat="30.06655882" lon="35.36274447"><ele>1239.3</ele><time>2015-11-26T08:46:27.0000000+00:00</time></trkpt><trkpt lat="30.0662424" lon="35.3627573"><ele>1236.4</ele><time>2015-11-26T08:46:34.0000000+00:00</time></trkpt><trkpt lat="30.06607921" lon="35.36278035"><ele>1235.0</ele><time>2015-11-26T08:46:37.0000000+00:00</time></trkpt><trkpt lat="30.06573547" lon="35.36291027"><ele>1232.6</ele><time>2015-11-26T08:46:48.0000000+00:00</time></trkpt><trkpt lat="30.06544487" lon="35.36302862"><ele>1229.7</ele><time>2015-11-26T08:47:00.0000000+00:00</time></trkpt><trkpt lat="30.06536239" lon="35.36307103"><ele>1229.2</ele><time>2015-11-26T08:47:03.0000000+00:00</time></trkpt><trkpt lat="30.06525057" lon="35.36313423"><ele>1228.7</ele><time>2015-11-26T08:47:06.0000000+00:00</time></trkpt><trkpt lat="30.06487096" lon="35.36335593"><ele>1226.3</ele><time>2015-11-26T08:47:15.0000000+00:00</time></trkpt><trkpt lat="30.06469519" lon="35.36344964"><ele>1225.8</ele><time>2015-11-26T08:47:19.0000000+00:00</time></trkpt><trkpt lat="30.06423452" lon="35.36375357"><ele>1222.9</ele><time>2015-11-26T08:47:31.0000000+00:00</time></trkpt><trkpt lat="30.06378416" lon="35.36415556"><ele>1219.6</ele><time>2015-11-26T08:47:39.0000000+00:00</time></trkpt><trkpt lat="30.06319131" lon="35.36461934"><ele>1216.7</ele><time>2015-11-26T08:47:49.0000000+00:00</time></trkpt><trkpt lat="30.06284262" lon="35.36485654"><ele>1215.2</ele><time>2015-11-26T08:47:55.0000000+00:00</time></trkpt><trkpt lat="30.06239637" lon="35.36519794"><ele>1212.8</ele><time>2015-11-26T08:48:03.0000000+00:00</time></trkpt><trkpt lat="30.06220987" lon="35.36528955"><ele>1211.4</ele><time>2015-11-26T08:48:06.0000000+00:00</time></trkpt><trkpt lat="30.06188096" lon="35.36563464"><ele>1212.4</ele><time>2015-11-26T08:48:17.0000000+00:00</time></trkpt><trkpt lat="30.06178851" lon="35.36572818"><ele>1213.3</ele><time>2015-11-26T08:48:23.0000000+00:00</time></trkpt><trkpt lat="30.0616088" lon="35.36596077"><ele>1211.9</ele><time>2015-11-26T08:48:35.0000000+00:00</time></trkpt><trkpt lat="30.06158374" lon="35.36599179"><ele>1211.9</ele><time>2015-11-26T08:48:36.0000000+00:00</time></trkpt><trkpt lat="30.06137528" lon="35.36596128"><ele>1212.4</ele><time>2015-11-26T08:48:43.0000000+00:00</time></trkpt><trkpt lat="30.06113405" lon="35.36592599"><ele>1213.8</ele><time>2015-11-26T08:48:55.0000000+00:00</time></trkpt><trkpt lat="30.0609297" lon="35.36592599"><ele>1212.4</ele><time>2015-11-26T08:49:01.0000000+00:00</time></trkpt><trkpt lat="30.06055713" lon="35.3660109"><ele>1210.0</ele><time>2015-11-26T08:49:08.0000000+00:00</time></trkpt><trkpt lat="30.06040064" lon="35.36601744"><ele>1210.0</ele><time>2015-11-26T08:49:11.0000000+00:00</time></trkpt><trkpt lat="30.06019838" lon="35.36599237"><ele>1208.0</ele><time>2015-11-26T08:49:15.0000000+00:00</time></trkpt><trkpt lat="30.05986738" lon="35.36589791"><ele>1202.8</ele><time>2015-11-26T08:49:20.0000000+00:00</time></trkpt><trkpt lat="30.05972874" lon="35.36585835"><ele>1200.8</ele><time>2015-11-26T08:49:22.0000000+00:00</time></trkpt><trkpt lat="30.05933035" lon="35.36592172"><ele>1198.9</ele><time>2015-11-26T08:49:30.0000000+00:00</time></trkpt><trkpt lat="30.05906087" lon="35.36597569"><ele>1197.0</ele><time>2015-11-26T08:49:35.0000000+00:00</time></trkpt><trkpt lat="30.05895275" lon="35.36598475"><ele>1197.0</ele><time>2015-11-26T08:49:37.0000000+00:00</time></trkpt><trkpt lat="30.05851747" lon="35.36605415"><ele>1196.0</ele><time>2015-11-26T08:49:49.0000000+00:00</time></trkpt><trkpt lat="30.05835017" lon="35.36606228"><ele>1195.5</ele><time>2015-11-26T08:49:53.0000000+00:00</time></trkpt><trkpt lat="30.05814347" lon="35.36600905"><ele>1195.1</ele><time>2015-11-26T08:49:58.0000000+00:00</time></trkpt><trkpt lat="30.05778951" lon="35.36602775"><ele>1193.1</ele><time>2015-11-26T08:50:06.0000000+00:00</time></trkpt><trkpt lat="30.05746881" lon="35.36610587"><ele>1191.7</ele><time>2015-11-26T08:50:12.0000000+00:00</time></trkpt><trkpt lat="30.0573223" lon="35.3661575"><ele>1191.7</ele><time>2015-11-26T08:50:15.0000000+00:00</time></trkpt><trkpt lat="30.05716707" lon="35.36626101"><ele>1190.3</ele><time>2015-11-26T08:50:18.0000000+00:00</time></trkpt><trkpt lat="30.05704997" lon="35.36633126"><ele>1190.3</ele><time>2015-11-26T08:50:20.0000000+00:00</time></trkpt><trkpt lat="30.05684663" lon="35.36642279"><ele>1191.2</ele><time>2015-11-26T08:50:24.0000000+00:00</time></trkpt><trkpt lat="30.05660556" lon="35.36651088"><ele>1193.6</ele><time>2015-11-26T08:50:34.0000000+00:00</time></trkpt><trkpt lat="30.05636852" lon="35.36654558"><ele>1195.1</ele><time>2015-11-26T08:50:48.0000000+00:00</time></trkpt><trkpt lat="30.05627649" lon="35.36655975"><ele>1194.1</ele><time>2015-11-26T08:50:51.0000000+00:00</time></trkpt><trkpt lat="30.05591339" lon="35.36661465"><ele>1196.0</ele><time>2015-11-26T08:51:04.0000000+00:00</time></trkpt><trkpt lat="30.05571675" lon="35.36667433"><ele>1195.5</ele><time>2015-11-26T08:51:14.0000000+00:00</time></trkpt><trkpt lat="30.05541768" lon="35.36650769"><ele>1196.5</ele><time>2015-11-26T08:51:23.0000000+00:00</time></trkpt><trkpt lat="30.05539538" lon="35.36618809"><ele>1198.4</ele><time>2015-11-26T08:51:35.0000000+00:00</time></trkpt><trkpt lat="30.05524702" lon="35.36614258"><ele>1200.3</ele><time>2015-11-26T08:51:46.0000000+00:00</time></trkpt><trkpt lat="30.05517955" lon="35.36615783"><ele>1201.3</ele><time>2015-11-26T08:51:51.0000000+00:00</time></trkpt><trkpt lat="30.0551487" lon="35.36617032"><ele>1201.3</ele><time>2015-11-26T08:51:54.0000000+00:00</time></trkpt><trkpt lat="30.05511342" lon="35.36618457"><ele>1201.3</ele><time>2015-11-26T08:51:58.0000000+00:00</time></trkpt><trkpt lat="30.05501987" lon="35.36626051"><ele>1201.8</ele><time>2015-11-26T08:52:06.0000000+00:00</time></trkpt><trkpt lat="30.05472131" lon="35.36641784"><ele>1202.3</ele><time>2015-11-26T08:52:21.0000000+00:00</time></trkpt><trkpt lat="30.05450556" lon="35.36654265"><ele>1199.9</ele><time>2015-11-26T08:52:35.0000000+00:00</time></trkpt><trkpt lat="30.05432577" lon="35.36658221"><ele>1197.0</ele><time>2015-11-26T08:52:42.0000000+00:00</time></trkpt><trkpt lat="30.05401907" lon="35.36663879"><ele>1193.6</ele><time>2015-11-26T08:52:51.0000000+00:00</time></trkpt><trkpt lat="30.05380374" lon="35.36673602"><ele>1190.3</ele><time>2015-11-26T08:52:57.0000000+00:00</time></trkpt><trkpt lat="30.05359017" lon="35.36682956"><ele>1187.4</ele><time>2015-11-26T08:53:04.0000000+00:00</time></trkpt><trkpt lat="30.05325465" lon="35.3669982"><ele>1183.5</ele><time>2015-11-26T08:53:14.0000000+00:00</time></trkpt><trkpt lat="30.05311299" lon="35.36707414"><ele>1181.1</ele><time>2015-11-26T08:53:19.0000000+00:00</time></trkpt><trkpt lat="30.05300696" lon="35.36721823"><ele>1180.2</ele><time>2015-11-26T08:53:23.0000000+00:00</time></trkpt><trkpt lat="30.05294024" lon="35.36737757"><ele>1178.2</ele><time>2015-11-26T08:53:28.0000000+00:00</time></trkpt><trkpt lat="30.05273363" lon="35.36734932"><ele>1177.8</ele><time>2015-11-26T08:53:34.0000000+00:00</time></trkpt><trkpt lat="30.05252718" lon="35.36723767"><ele>1176.8</ele><time>2015-11-26T08:53:40.0000000+00:00</time></trkpt><trkpt lat="30.05224278" lon="35.36716333"><ele>1173.0</ele><time>2015-11-26T08:53:46.0000000+00:00</time></trkpt><trkpt lat="30.05206936" lon="35.36709384"><ele>1170.1</ele><time>2015-11-26T08:53:50.0000000+00:00</time></trkpt><trkpt lat="30.05182193" lon="35.36697306"><ele>1166.7</ele><time>2015-11-26T08:53:56.0000000+00:00</time></trkpt><trkpt lat="30.0515589" lon="35.36686703"><ele>1162.4</ele><time>2015-11-26T08:54:05.0000000+00:00</time></trkpt><trkpt lat="30.05146226" lon="35.36685244"><ele>1161.4</ele><time>2015-11-26T08:54:08.0000000+00:00</time></trkpt><trkpt lat="30.0513077" lon="35.3669003"><ele>1160.5</ele><time>2015-11-26T08:54:12.0000000+00:00</time></trkpt><trkpt lat="30.0512761" lon="35.36692746"><ele>1160.9</ele><time>2015-11-26T08:54:13.0000000+00:00</time></trkpt><trkpt lat="30.0511243" lon="35.36699837"><ele>1160.0</ele><time>2015-11-26T08:54:22.0000000+00:00</time></trkpt><trkpt lat="30.05112472" lon="35.36699594"><ele>1160.5</ele><time>2015-11-26T08:54:27.0000000+00:00</time></trkpt><trkpt lat="30.05108189" lon="35.3670055"><ele>1159.5</ele><time>2015-11-26T08:54:32.0000000+00:00</time></trkpt><trkpt lat="30.05105658" lon="35.36699284"><ele>1159.5</ele><time>2015-11-26T08:54:34.0000000+00:00</time></trkpt><trkpt lat="30.05101961" lon="35.36698907"><ele>1159.5</ele><time>2015-11-26T08:54:36.0000000+00:00</time></trkpt><trkpt lat="30.05099581" lon="35.36699351"><ele>1159.0</ele><time>2015-11-26T08:54:37.0000000+00:00</time></trkpt><trkpt lat="30.05096781" lon="35.36700063"><ele>1159.0</ele><time>2015-11-26T08:54:38.0000000+00:00</time></trkpt><trkpt lat="30.05093252" lon="35.3670086"><ele>1159.0</ele><time>2015-11-26T08:54:39.0000000+00:00</time></trkpt><trkpt lat="30.05089229" lon="35.36702268"><ele>1158.5</ele><time>2015-11-26T08:54:40.0000000+00:00</time></trkpt><trkpt lat="30.05084862" lon="35.36704238"><ele>1158.1</ele><time>2015-11-26T08:54:41.0000000+00:00</time></trkpt><trkpt lat="30.05048677" lon="35.36717196"><ele>1156.6</ele><time>2015-11-26T08:54:48.0000000+00:00</time></trkpt><trkpt lat="30.05043179" lon="35.367179"><ele>1156.6</ele><time>2015-11-26T08:54:49.0000000+00:00</time></trkpt><trkpt lat="30.05037647" lon="35.36718034"><ele>1156.1</ele><time>2015-11-26T08:54:50.0000000+00:00</time></trkpt><trkpt lat="30.05032215" lon="35.36717372"><ele>1156.1</ele><time>2015-11-26T08:54:51.0000000+00:00</time></trkpt><trkpt lat="30.05027127" lon="35.3671526"><ele>1156.6</ele><time>2015-11-26T08:54:52.0000000+00:00</time></trkpt><trkpt lat="30.05022174" lon="35.36712016"><ele>1155.6</ele><time>2015-11-26T08:54:53.0000000+00:00</time></trkpt><trkpt lat="30.05017279" lon="35.36708035"><ele>1155.6</ele><time>2015-11-26T08:54:54.0000000+00:00</time></trkpt><trkpt lat="30.05012409" lon="35.36703818"><ele>1155.2</ele><time>2015-11-26T08:54:55.0000000+00:00</time></trkpt><trkpt lat="30.0496744" lon="35.36671422"><ele>1154.7</ele><time>2015-11-26T08:55:04.0000000+00:00</time></trkpt><trkpt lat="30.0496133" lon="35.36669729"><ele>1154.2</ele><time>2015-11-26T08:55:05.0000000+00:00</time></trkpt><trkpt lat="30.04954691" lon="35.36669369"><ele>1153.7</ele><time>2015-11-26T08:55:06.0000000+00:00</time></trkpt><trkpt lat="30.049476" lon="35.36670207"><ele>1152.8</ele><time>2015-11-26T08:55:07.0000000+00:00</time></trkpt><trkpt lat="30.04940132" lon="35.36671339"><ele>1152.8</ele><time>2015-11-26T08:55:08.0000000+00:00</time></trkpt><trkpt lat="30.0491802" lon="35.36674096"><ele>1152.3</ele><time>2015-11-26T08:55:11.0000000+00:00</time></trkpt><trkpt lat="30.04910175" lon="35.36673593"><ele>1151.3</ele><time>2015-11-26T08:55:12.0000000+00:00</time></trkpt><trkpt lat="30.04874149" lon="35.36667299"><ele>1148.4</ele><time>2015-11-26T08:55:16.0000000+00:00</time></trkpt><trkpt lat="30.04826859" lon="35.36655799"><ele>1146.0</ele><time>2015-11-26T08:55:21.0000000+00:00</time></trkpt><trkpt lat="30.04791571" lon="35.36643486"><ele>1143.6</ele><time>2015-11-26T08:55:25.0000000+00:00</time></trkpt><trkpt lat="30.04782761" lon="35.36642119"><ele>1143.6</ele><time>2015-11-26T08:55:26.0000000+00:00</time></trkpt><trkpt lat="30.04774145" lon="35.36641499"><ele>1143.6</ele><time>2015-11-26T08:55:27.0000000+00:00</time></trkpt><trkpt lat="30.04765688" lon="35.36641709"><ele>1143.6</ele><time>2015-11-26T08:55:28.0000000+00:00</time></trkpt><trkpt lat="30.04757381" lon="35.36642664"><ele>1143.1</ele><time>2015-11-26T08:55:29.0000000+00:00</time></trkpt><trkpt lat="30.04696436" lon="35.3665113"><ele>1140.3</ele><time>2015-11-26T08:55:36.0000000+00:00</time></trkpt><trkpt lat="30.04687518" lon="35.36653343"><ele>1139.8</ele><time>2015-11-26T08:55:37.0000000+00:00</time></trkpt><trkpt lat="30.04640034" lon="35.36664046"><ele>1137.4</ele><time>2015-11-26T08:55:42.0000000+00:00</time></trkpt><trkpt lat="30.04595879" lon="35.36672034"><ele>1136.9</ele><time>2015-11-26T08:55:47.0000000+00:00</time></trkpt><trkpt lat="30.04535269" lon="35.3667252"><ele>1138.8</ele><time>2015-11-26T08:55:56.0000000+00:00</time></trkpt><trkpt lat="30.04521347" lon="35.36669671"><ele>1139.3</ele><time>2015-11-26T08:55:59.0000000+00:00</time></trkpt><trkpt lat="30.04517499" lon="35.36669101"><ele>1139.3</ele><time>2015-11-26T08:56:00.0000000+00:00</time></trkpt><trkpt lat="30.04514121" lon="35.36668304"><ele>1139.8</ele><time>2015-11-26T08:56:01.0000000+00:00</time></trkpt><trkpt lat="30.04477828" lon="35.36671456"><ele>1141.7</ele><time>2015-11-26T08:56:14.0000000+00:00</time></trkpt><trkpt lat="30.04468138" lon="35.36677323"><ele>1142.2</ele><time>2015-11-26T08:56:21.0000000+00:00</time></trkpt><trkpt lat="30.04466814" lon="35.36677793"><ele>1142.2</ele><time>2015-11-26T08:56:22.0000000+00:00</time></trkpt><trkpt lat="30.04465196" lon="35.3667812"><ele>1142.2</ele><time>2015-11-26T08:56:23.0000000+00:00</time></trkpt><trkpt lat="30.04436907" lon="35.36675354"><ele>1140.7</ele><time>2015-11-26T08:56:33.0000000+00:00</time></trkpt><trkpt lat="30.0443249" lon="35.36674658"><ele>1140.3</ele><time>2015-11-26T08:56:34.0000000+00:00</time></trkpt><trkpt lat="30.04414176" lon="35.36670551"><ele>1140.3</ele><time>2015-11-26T08:56:38.0000000+00:00</time></trkpt><trkpt lat="30.04409616" lon="35.36669578"><ele>1140.3</ele><time>2015-11-26T08:56:39.0000000+00:00</time></trkpt><trkpt lat="30.0440514" lon="35.36668371"><ele>1139.8</ele><time>2015-11-26T08:56:40.0000000+00:00</time></trkpt><trkpt lat="30.04396909" lon="35.36665874"><ele>1140.3</ele><time>2015-11-26T08:56:42.0000000+00:00</time></trkpt><trkpt lat="30.04345746" lon="35.36640275"><ele>1138.3</ele><time>2015-11-26T08:56:56.0000000+00:00</time></trkpt><trkpt lat="30.04294633" lon="35.36612112"><ele>1135.9</ele><time>2015-11-26T08:57:04.0000000+00:00</time></trkpt><trkpt lat="30.04287886" lon="35.36610922"><ele>1136.4</ele><time>2015-11-26T08:57:05.0000000+00:00</time></trkpt><trkpt lat="30.04264802" lon="35.36609774"><ele>1136.9</ele><time>2015-11-26T08:57:09.0000000+00:00</time></trkpt><trkpt lat="30.04259253" lon="35.36608726"><ele>1136.9</ele><time>2015-11-26T08:57:10.0000000+00:00</time></trkpt><trkpt lat="30.04253805" lon="35.36607703"><ele>1136.9</ele><time>2015-11-26T08:57:11.0000000+00:00</time></trkpt><trkpt lat="30.04208802" lon="35.36598751"><ele>1134.5</ele><time>2015-11-26T08:57:18.0000000+00:00</time></trkpt><trkpt lat="30.04201778" lon="35.36595038"><ele>1133.5</ele><time>2015-11-26T08:57:19.0000000+00:00</time></trkpt><trkpt lat="30.04195081" lon="35.36590839"><ele>1133.1</ele><time>2015-11-26T08:57:20.0000000+00:00</time></trkpt><trkpt lat="30.04178368" lon="35.36580403"><ele>1129.7</ele><time>2015-11-26T08:57:23.0000000+00:00</time></trkpt><trkpt lat="30.04172701" lon="35.36578308"><ele>1128.7</ele><time>2015-11-26T08:57:24.0000000+00:00</time></trkpt><trkpt lat="30.04166398" lon="35.36577252"><ele>1127.8</ele><time>2015-11-26T08:57:25.0000000+00:00</time></trkpt><trkpt lat="30.04159106" lon="35.36578291"><ele>1126.8</ele><time>2015-11-26T08:57:26.0000000+00:00</time></trkpt><trkpt lat="30.04151177" lon="35.36581669"><ele>1125.4</ele><time>2015-11-26T08:57:27.0000000+00:00</time></trkpt><trkpt lat="30.0414292" lon="35.36586883"><ele>1123.9</ele><time>2015-11-26T08:57:28.0000000+00:00</time></trkpt><trkpt lat="30.0413422" lon="35.36593596"><ele>1122.5</ele><time>2015-11-26T08:57:29.0000000+00:00</time></trkpt><trkpt lat="30.04125201" lon="35.36601241"><ele>1121.0</ele><time>2015-11-26T08:57:30.0000000+00:00</time></trkpt><trkpt lat="30.04096879" lon="35.36627644"><ele>1117.7</ele><time>2015-11-26T08:57:33.0000000+00:00</time></trkpt><trkpt lat="30.04086695" lon="35.36635498"><ele>1117.2</ele><time>2015-11-26T08:57:34.0000000+00:00</time></trkpt><trkpt lat="30.04054558" lon="35.36652915"><ele>1116.7</ele><time>2015-11-26T08:57:37.0000000+00:00</time></trkpt><trkpt lat="30.04044073" lon="35.36655891"><ele>1116.7</ele><time>2015-11-26T08:57:38.0000000+00:00</time></trkpt><trkpt lat="30.04025289" lon="35.36661364"><ele>1117.7</ele><time>2015-11-26T08:57:40.0000000+00:00</time></trkpt><trkpt lat="30.04017653" lon="35.3666527"><ele>1118.6</ele><time>2015-11-26T08:57:41.0000000+00:00</time></trkpt><trkpt lat="30.04011341" lon="35.36669654"><ele>1119.1</ele><time>2015-11-26T08:57:42.0000000+00:00</time></trkpt><trkpt lat="30.04001593" lon="35.36678187"><ele>1120.6</ele><time>2015-11-26T08:57:44.0000000+00:00</time></trkpt><trkpt lat="30.03997872" lon="35.36682445"><ele>1121.0</ele><time>2015-11-26T08:57:45.0000000+00:00</time></trkpt><trkpt lat="30.03994636" lon="35.36686267"><ele>1121.5</ele><time>2015-11-26T08:57:46.0000000+00:00</time></trkpt><trkpt lat="30.03991384" lon="35.36689351"><ele>1122.0</ele><time>2015-11-26T08:57:47.0000000+00:00</time></trkpt><trkpt lat="30.03988576" lon="35.36691899"><ele>1122.5</ele><time>2015-11-26T08:57:48.0000000+00:00</time></trkpt><trkpt lat="30.03967378" lon="35.36707909"><ele>1125.8</ele><time>2015-11-26T08:57:59.0000000+00:00</time></trkpt><trkpt lat="30.0393779" lon="35.3672593"><ele>1127.8</ele><time>2015-11-26T08:58:15.0000000+00:00</time></trkpt><trkpt lat="30.03899158" lon="35.36747639"><ele>1125.8</ele><time>2015-11-26T08:58:27.0000000+00:00</time></trkpt><trkpt lat="30.03894271" lon="35.36750522"><ele>1125.4</ele><time>2015-11-26T08:58:28.0000000+00:00</time></trkpt><trkpt lat="30.03889251" lon="35.36753666"><ele>1125.4</ele><time>2015-11-26T08:58:29.0000000+00:00</time></trkpt><trkpt lat="30.03833846" lon="35.36784654"><ele>1122.5</ele><time>2015-11-26T08:58:38.0000000+00:00</time></trkpt><trkpt lat="30.03775131" lon="35.36815633"><ele>1118.6</ele><time>2015-11-26T08:58:46.0000000+00:00</time></trkpt><trkpt lat="30.03710406" lon="35.36851893"><ele>1119.1</ele><time>2015-11-26T08:58:58.0000000+00:00</time></trkpt><trkpt lat="30.03695679" lon="35.36860283"><ele>1118.2</ele><time>2015-11-26T08:59:01.0000000+00:00</time></trkpt><trkpt lat="30.03628029" lon="35.36882772"><ele>1114.8</ele><time>2015-11-26T08:59:12.0000000+00:00</time></trkpt><trkpt lat="30.03561149" lon="35.36901682"><ele>1111.4</ele><time>2015-11-26T08:59:21.0000000+00:00</time></trkpt><trkpt lat="30.03474506" lon="35.36927146"><ele>1108.5</ele><time>2015-11-26T08:59:32.0000000+00:00</time></trkpt><trkpt lat="30.03416251" lon="35.36943415"><ele>1106.1</ele><time>2015-11-26T08:59:40.0000000+00:00</time></trkpt><trkpt lat="30.03397929" lon="35.36943994"><ele>1105.2</ele><time>2015-11-26T08:59:44.0000000+00:00</time></trkpt><trkpt lat="30.03388759" lon="35.36944186"><ele>1104.7</ele><time>2015-11-26T08:59:46.0000000+00:00</time></trkpt><trkpt lat="30.03306272" lon="35.36944253"><ele>1102.3</ele><time>2015-11-26T09:00:01.0000000+00:00</time></trkpt><trkpt lat="30.03193838" lon="35.36943373"><ele>1099.4</ele><time>2015-11-26T09:00:19.0000000+00:00</time></trkpt><trkpt lat="30.03114905" lon="35.36948025"><ele>1096.5</ele><time>2015-11-26T09:00:33.0000000+00:00</time></trkpt><trkpt lat="30.03078813" lon="35.36948922"><ele>1095.1</ele><time>2015-11-26T09:00:39.0000000+00:00</time></trkpt><trkpt lat="30.03022889" lon="35.3694049"><ele>1093.2</ele><time>2015-11-26T09:00:48.0000000+00:00</time></trkpt><trkpt lat="30.02958231" lon="35.3693733"><ele>1089.3</ele><time>2015-11-26T09:00:57.0000000+00:00</time></trkpt><trkpt lat="30.02914896" lon="35.36935947"><ele>1086.4</ele><time>2015-11-26T09:01:02.0000000+00:00</time></trkpt><trkpt lat="30.02841194" lon="35.36912394"><ele>1083.5</ele><time>2015-11-26T09:01:12.0000000+00:00</time></trkpt><trkpt lat="30.02796703" lon="35.3689988"><ele>1081.1</ele><time>2015-11-26T09:01:20.0000000+00:00</time></trkpt><trkpt lat="30.02765028" lon="35.36891866"><ele>1077.8</ele><time>2015-11-26T09:01:25.0000000+00:00</time></trkpt><trkpt lat="30.02743729" lon="35.36885949"><ele>1073.9</ele><time>2015-11-26T09:01:30.0000000+00:00</time></trkpt><trkpt lat="30.02720503" lon="35.36880735"><ele>1070.6</ele><time>2015-11-26T09:01:36.0000000+00:00</time></trkpt><trkpt lat="30.02702977" lon="35.36874767"><ele>1067.2</ele><time>2015-11-26T09:01:41.0000000+00:00</time></trkpt><trkpt lat="30.02688493" lon="35.36869512"><ele>1063.8</ele><time>2015-11-26T09:01:46.0000000+00:00</time></trkpt><trkpt lat="30.02677588" lon="35.36867031"><ele>1061.4</ele><time>2015-11-26T09:01:50.0000000+00:00</time></trkpt><trkpt lat="30.02651679" lon="35.36873317"><ele>1057.1</ele><time>2015-11-26T09:01:54.0000000+00:00</time></trkpt><trkpt lat="30.02629744" lon="35.36881372"><ele>1057.6</ele><time>2015-11-26T09:01:57.0000000+00:00</time></trkpt><trkpt lat="30.02618101" lon="35.36884029"><ele>1057.6</ele><time>2015-11-26T09:01:59.0000000+00:00</time></trkpt><trkpt lat="30.02564147" lon="35.36887122"><ele>1061.0</ele><time>2015-11-26T09:02:13.0000000+00:00</time></trkpt><trkpt lat="30.02543008" lon="35.36885513"><ele>1063.4</ele><time>2015-11-26T09:02:27.0000000+00:00</time></trkpt><trkpt lat="30.02522657" lon="35.36886762"><ele>1065.3</ele><time>2015-11-26T09:02:42.0000000+00:00</time></trkpt><trkpt lat="30.02507678" lon="35.3688874"><ele>1066.2</ele><time>2015-11-26T09:02:53.0000000+00:00</time></trkpt><trkpt lat="30.02492616" lon="35.36892696"><ele>1065.8</ele><time>2015-11-26T09:03:05.0000000+00:00</time></trkpt><trkpt lat="30.02491937" lon="35.36891095"><ele>1065.8</ele><time>2015-11-26T09:03:26.0000000+00:00</time></trkpt><trkpt lat="30.02491401" lon="35.368919"><ele>1065.8</ele><time>2015-11-26T09:03:48.0000000+00:00</time></trkpt><trkpt lat="30.02491769" lon="35.36893048"><ele>1065.8</ele><time>2015-11-26T09:04:20.0000000+00:00</time></trkpt><trkpt lat="30.02492649" lon="35.36892512"><ele>1065.8</ele><time>2015-11-26T09:04:45.0000000+00:00</time></trkpt><trkpt lat="30.02493789" lon="35.36892663"><ele>1063.8</ele><time>2015-11-26T09:05:11.0000000+00:00</time></trkpt><trkpt lat="30.02493706" lon="35.3689268"><ele>1067.2</ele><time>2015-11-26T09:05:13.0000000+00:00</time></trkpt><trkpt lat="30.02493102" lon="35.36893576"><ele>1065.8</ele><time>2015-11-26T09:05:33.0000000+00:00</time></trkpt><trkpt lat="30.02493102" lon="35.36892906"><ele>1065.8</ele><time>2015-11-26T09:05:59.0000000+00:00</time></trkpt><trkpt lat="30.0249353" lon="35.36892537"><ele>1065.8</ele><time>2015-11-26T09:06:24.0000000+00:00</time></trkpt><trkpt lat="30.02495751" lon="35.36892688"><ele>1065.8</ele><time>2015-11-26T09:06:53.0000000+00:00</time></trkpt><trkpt lat="30.02495239" lon="35.36893954"><ele>1065.8</ele><time>2015-11-26T09:07:16.0000000+00:00</time></trkpt><trkpt lat="30.02493555" lon="35.36894758"><ele>1065.8</ele><time>2015-11-26T09:07:31.0000000+00:00</time></trkpt><trkpt lat="30.02479783" lon="35.36906241"><ele>1064.8</ele><time>2015-11-26T09:07:38.0000000+00:00</time></trkpt><trkpt lat="30.02472944" lon="35.36913391"><ele>1063.8</ele><time>2015-11-26T09:07:40.0000000+00:00</time></trkpt><trkpt lat="30.02451603" lon="35.36946391"><ele>1060.0</ele><time>2015-11-26T09:07:45.0000000+00:00</time></trkpt><trkpt lat="30.02423876" lon="35.36969324"><ele>1062.4</ele><time>2015-11-26T09:07:50.0000000+00:00</time></trkpt><trkpt lat="30.02391782" lon="35.36983263"><ele>1064.8</ele><time>2015-11-26T09:08:04.0000000+00:00</time></trkpt><trkpt lat="30.0235232" lon="35.36990907"><ele>1065.8</ele><time>2015-11-26T09:08:20.0000000+00:00</time></trkpt><trkpt lat="30.02323377" lon="35.36989013"><ele>1067.7</ele><time>2015-11-26T09:08:34.0000000+00:00</time></trkpt><trkpt lat="30.02281995" lon="35.37000286"><ele>1066.2</ele><time>2015-11-26T09:08:47.0000000+00:00</time></trkpt><trkpt lat="30.02250362" lon="35.37005349"><ele>1064.8</ele><time>2015-11-26T09:08:52.0000000+00:00</time></trkpt><trkpt lat="30.02229089" lon="35.37004729"><ele>1066.2</ele><time>2015-11-26T09:08:56.0000000+00:00</time></trkpt><trkpt lat="30.02180113" lon="35.37020118"><ele>1066.2</ele><time>2015-11-26T09:09:09.0000000+00:00</time></trkpt><trkpt lat="30.02123334" lon="35.37035113"><ele>1067.7</ele><time>2015-11-26T09:09:27.0000000+00:00</time></trkpt><trkpt lat="30.0209704" lon="35.37029414"><ele>1067.7</ele><time>2015-11-26T09:09:38.0000000+00:00</time></trkpt><trkpt lat="30.02046422" lon="35.37025315"><ele>1066.2</ele><time>2015-11-26T09:09:50.0000000+00:00</time></trkpt><trkpt lat="30.02023171" lon="35.3702596"><ele>1065.8</ele><time>2015-11-26T09:09:55.0000000+00:00</time></trkpt><trkpt lat="30.0197018" lon="35.37033621"><ele>1064.8</ele><time>2015-11-26T09:10:07.0000000+00:00</time></trkpt><trkpt lat="30.01932554" lon="35.37066361"><ele>1064.3</ele><time>2015-11-26T09:10:20.0000000+00:00</time></trkpt><trkpt lat="30.01933602" lon="35.37065749"><ele>1065.3</ele><time>2015-11-26T09:10:37.0000000+00:00</time></trkpt><trkpt lat="30.01934348" lon="35.37066428"><ele>1064.3</ele><time>2015-11-26T09:11:03.0000000+00:00</time></trkpt><trkpt lat="30.01933493" lon="35.37066956"><ele>1064.3</ele><time>2015-11-26T09:11:13.0000000+00:00</time></trkpt><trkpt lat="30.01908758" lon="35.3707046"><ele>1063.8</ele><time>2015-11-26T09:11:25.0000000+00:00</time></trkpt><trkpt lat="30.01891726" lon="35.3707512"><ele>1061.4</ele><time>2015-11-26T09:11:31.0000000+00:00</time></trkpt><trkpt lat="30.01861165" lon="35.37083762"><ele>1058.1</ele><time>2015-11-26T09:11:38.0000000+00:00</time></trkpt><trkpt lat="30.01846757" lon="35.37082563"><ele>1055.7</ele><time>2015-11-26T09:11:42.0000000+00:00</time></trkpt><trkpt lat="30.01820664" lon="35.3705953"><ele>1051.8</ele><time>2015-11-26T09:11:48.0000000+00:00</time></trkpt><trkpt lat="30.01800237" lon="35.37049262"><ele>1049.9</ele><time>2015-11-26T09:11:54.0000000+00:00</time></trkpt><trkpt lat="30.01784328" lon="35.37055976"><ele>1048.0</ele><time>2015-11-26T09:11:59.0000000+00:00</time></trkpt><trkpt lat="30.01769216" lon="35.37067954"><ele>1044.1</ele><time>2015-11-26T09:12:08.0000000+00:00</time></trkpt><trkpt lat="30.0176184" lon="35.37078716"><ele>1042.2</ele><time>2015-11-26T09:12:12.0000000+00:00</time></trkpt><trkpt lat="30.01754212" lon="35.37109586"><ele>1040.8</ele><time>2015-11-26T09:12:21.0000000+00:00</time></trkpt><trkpt lat="30.01754246" lon="35.37114934"><ele>1041.3</ele><time>2015-11-26T09:12:31.0000000+00:00</time></trkpt><trkpt lat="30.0175609" lon="35.37134657"><ele>1042.7</ele><time>2015-11-26T09:12:50.0000000+00:00</time></trkpt><trkpt lat="30.01756475" lon="35.37142058"><ele>1043.2</ele><time>2015-11-26T09:13:05.0000000+00:00</time></trkpt><trkpt lat="30.01758697" lon="35.37155385"><ele>1045.1</ele><time>2015-11-26T09:13:21.0000000+00:00</time></trkpt><trkpt lat="30.01760256" lon="35.37166298"><ele>1047.0</ele><time>2015-11-26T09:13:38.0000000+00:00</time></trkpt><trkpt lat="30.01763265" lon="35.37181243"><ele>1049.4</ele><time>2015-11-26T09:13:55.0000000+00:00</time></trkpt><trkpt lat="30.01762385" lon="35.37195182"><ele>1051.3</ele><time>2015-11-26T09:14:11.0000000+00:00</time></trkpt><trkpt lat="30.01760817" lon="35.37205325"><ele>1052.8</ele><time>2015-11-26T09:14:26.0000000+00:00</time></trkpt><trkpt lat="30.01759392" lon="35.37209733"><ele>1053.3</ele><time>2015-11-26T09:14:33.0000000+00:00</time></trkpt><trkpt lat="30.01759828" lon="35.37217596"><ele>1053.7</ele><time>2015-11-26T09:14:38.0000000+00:00</time></trkpt><trkpt lat="30.01746928" lon="35.37237"><ele>1056.6</ele><time>2015-11-26T09:14:51.0000000+00:00</time></trkpt><trkpt lat="30.01730533" lon="35.37257611"><ele>1059.5</ele><time>2015-11-26T09:15:09.0000000+00:00</time></trkpt><trkpt lat="30.01712588" lon="35.3727585"><ele>1062.4</ele><time>2015-11-26T09:15:25.0000000+00:00</time></trkpt><trkpt lat="30.01699939" lon="35.37292848"><ele>1064.3</ele><time>2015-11-26T09:15:41.0000000+00:00</time></trkpt><trkpt lat="30.01697525" lon="35.37295841"><ele>1064.8</ele><time>2015-11-26T09:15:44.0000000+00:00</time></trkpt><trkpt lat="30.01691147" lon="35.37320299"><ele>1064.8</ele><time>2015-11-26T09:15:56.0000000+00:00</time></trkpt><trkpt lat="30.01678758" lon="35.37350859"><ele>1066.2</ele><time>2015-11-26T09:16:08.0000000+00:00</time></trkpt><trkpt lat="30.01663973" lon="35.37388067"><ele>1067.2</ele><time>2015-11-26T09:16:24.0000000+00:00</time></trkpt><trkpt lat="30.01638374" lon="35.37426238"><ele>1069.6</ele><time>2015-11-26T09:16:39.0000000+00:00</time></trkpt><trkpt lat="30.01609591" lon="35.37440512"><ele>1071.5</ele><time>2015-11-26T09:16:52.0000000+00:00</time></trkpt><trkpt lat="30.01578058" lon="35.37448559"><ele>1073.0</ele><time>2015-11-26T09:17:05.0000000+00:00</time></trkpt><trkpt lat="30.01556366" lon="35.37449917"><ele>1074.9</ele><time>2015-11-26T09:17:15.0000000+00:00</time></trkpt><trkpt lat="30.01528756" lon="35.37455952"><ele>1077.8</ele><time>2015-11-26T09:17:32.0000000+00:00</time></trkpt><trkpt lat="30.01518354" lon="35.37460336"><ele>1078.7</ele><time>2015-11-26T09:17:40.0000000+00:00</time></trkpt><trkpt lat="30.01491859" lon="35.37467619"><ele>1080.2</ele><time>2015-11-26T09:17:57.0000000+00:00</time></trkpt><trkpt lat="30.01465506" lon="35.37479245"><ele>1080.7</ele><time>2015-11-26T09:18:11.0000000+00:00</time></trkpt><trkpt lat="30.01433328" lon="35.37505598"><ele>1082.1</ele><time>2015-11-26T09:18:27.0000000+00:00</time></trkpt><trkpt lat="30.01412038" lon="35.3752299"><ele>1084.5</ele><time>2015-11-26T09:18:43.0000000+00:00</time></trkpt><trkpt lat="30.01402759" lon="35.37531749"><ele>1084.0</ele><time>2015-11-26T09:18:59.0000000+00:00</time></trkpt><trkpt lat="30.01402692" lon="35.37532043"><ele>1085.0</ele><time>2015-11-26T09:19:03.0000000+00:00</time></trkpt><trkpt lat="30.01403647" lon="35.37533057"><ele>1084.5</ele><time>2015-11-26T09:19:45.0000000+00:00</time></trkpt><trkpt lat="30.01403346" lon="35.37533409"><ele>1084.5</ele><time>2015-11-26T09:19:53.0000000+00:00</time></trkpt><trkpt lat="30.01403103" lon="35.37537877"><ele>1084.0</ele><time>2015-11-26T09:19:56.0000000+00:00</time></trkpt><trkpt lat="30.01397462" lon="35.3755024"><ele>1083.5</ele><time>2015-11-26T09:20:04.0000000+00:00</time></trkpt><trkpt lat="30.01396992" lon="35.37560491"><ele>1083.1</ele><time>2015-11-26T09:20:09.0000000+00:00</time></trkpt><trkpt lat="30.01397663" lon="35.37583147"><ele>1082.1</ele><time>2015-11-26T09:20:16.0000000+00:00</time></trkpt><trkpt lat="30.01392525" lon="35.37603842"><ele>1081.6</ele><time>2015-11-26T09:20:20.0000000+00:00</time></trkpt><trkpt lat="30.01375216" lon="35.37662096"><ele>1082.1</ele><time>2015-11-26T09:20:33.0000000+00:00</time></trkpt><trkpt lat="30.0137737" lon="35.37708457"><ele>1083.5</ele><time>2015-11-26T09:20:46.0000000+00:00</time></trkpt><trkpt lat="30.01391376" lon="35.37747349"><ele>1086.0</ele><time>2015-11-26T09:21:00.0000000+00:00</time></trkpt><trkpt lat="30.01404176" lon="35.3777868"><ele>1086.0</ele><time>2015-11-26T09:21:14.0000000+00:00</time></trkpt><trkpt lat="30.01410294" lon="35.37792846"><ele>1085.0</ele><time>2015-11-26T09:21:17.0000000+00:00</time></trkpt><trkpt lat="30.01421895" lon="35.37870546"><ele>1083.1</ele><time>2015-11-26T09:21:30.0000000+00:00</time></trkpt><trkpt lat="30.01422029" lon="35.37885399"><ele>1084.0</ele><time>2015-11-26T09:21:33.0000000+00:00</time></trkpt><trkpt lat="30.01406472" lon="35.37944122"><ele>1084.5</ele><time>2015-11-26T09:21:49.0000000+00:00</time></trkpt><trkpt lat="30.013883" lon="35.3799324"><ele>1083.5</ele><time>2015-11-26T09:22:00.0000000+00:00</time></trkpt><trkpt lat="30.01380807" lon="35.38034722"><ele>1084.0</ele><time>2015-11-26T09:22:08.0000000+00:00</time></trkpt><trkpt lat="30.01391913" lon="35.38100822"><ele>1086.4</ele><time>2015-11-26T09:22:24.0000000+00:00</time></trkpt><trkpt lat="30.01386163" lon="35.38141357"><ele>1087.9</ele><time>2015-11-26T09:22:37.0000000+00:00</time></trkpt><trkpt lat="30.01384562" lon="35.38184448"><ele>1089.3</ele><time>2015-11-26T09:22:50.0000000+00:00</time></trkpt><trkpt lat="30.0139032" lon="35.38229853"><ele>1089.8</ele><time>2015-11-26T09:23:03.0000000+00:00</time></trkpt><trkpt lat="30.01391125" lon="35.3827856"><ele>1091.7</ele><time>2015-11-26T09:23:17.0000000+00:00</time></trkpt><trkpt lat="30.01399565" lon="35.38309137"><ele>1092.7</ele><time>2015-11-26T09:23:30.0000000+00:00</time></trkpt><trkpt lat="30.01393698" lon="35.38337099"><ele>1092.2</ele><time>2015-11-26T09:23:42.0000000+00:00</time></trkpt><trkpt lat="30.01377697" lon="35.38346303"><ele>1092.2</ele><time>2015-11-26T09:23:47.0000000+00:00</time></trkpt><trkpt lat="30.01348796" lon="35.38357727"><ele>1090.3</ele><time>2015-11-26T09:23:54.0000000+00:00</time></trkpt><trkpt lat="30.01333977" lon="35.38361977"><ele>1089.8</ele><time>2015-11-26T09:23:57.0000000+00:00</time></trkpt><trkpt lat="30.01315738" lon="35.38358574"><ele>1089.3</ele><time>2015-11-26T09:24:01.0000000+00:00</time></trkpt><trkpt lat="30.01288028" lon="35.38346001"><ele>1089.3</ele><time>2015-11-26T09:24:08.0000000+00:00</time></trkpt><trkpt lat="30.01266017" lon="35.38336772"><ele>1088.4</ele><time>2015-11-26T09:24:13.0000000+00:00</time></trkpt><trkpt lat="30.0118483" lon="35.38319975"><ele>1086.0</ele><time>2015-11-26T09:24:30.0000000+00:00</time></trkpt><trkpt lat="30.01167596" lon="35.38317637"><ele>1085.5</ele><time>2015-11-26T09:24:33.0000000+00:00</time></trkpt><trkpt lat="30.01121731" lon="35.38320042"><ele>1085.0</ele><time>2015-11-26T09:24:44.0000000+00:00</time></trkpt><trkpt lat="30.01104606" lon="35.38320755"><ele>1084.5</ele><time>2015-11-26T09:24:49.0000000+00:00</time></trkpt><trkpt lat="30.01078941" lon="35.38322574"><ele>1083.5</ele><time>2015-11-26T09:24:55.0000000+00:00</time></trkpt><trkpt lat="30.01023117" lon="35.3831819"><ele>1080.2</ele><time>2015-11-26T09:25:05.0000000+00:00</time></trkpt><trkpt lat="30.00971384" lon="35.38304661"><ele>1077.3</ele><time>2015-11-26T09:25:12.0000000+00:00</time></trkpt><trkpt lat="30.00894003" lon="35.38242979"><ele>1073.5</ele><time>2015-11-26T09:25:24.0000000+00:00</time></trkpt><trkpt lat="30.00870835" lon="35.38215998"><ele>1073.9</ele><time>2015-11-26T09:25:29.0000000+00:00</time></trkpt><trkpt lat="30.00862839" lon="35.38208655"><ele>1074.4</ele><time>2015-11-26T09:25:31.0000000+00:00</time></trkpt><trkpt lat="30.00829085" lon="35.38191983"><ele>1072.5</ele><time>2015-11-26T09:25:38.0000000+00:00</time></trkpt><trkpt lat="30.00745257" lon="35.38142463"><ele>1069.6</ele><time>2015-11-26T09:25:56.0000000+00:00</time></trkpt><trkpt lat="30.0072903" lon="35.38131902"><ele>1068.6</ele><time>2015-11-26T09:26:00.0000000+00:00</time></trkpt><trkpt lat="30.00708084" lon="35.38114493"><ele>1068.2</ele><time>2015-11-26T09:26:10.0000000+00:00</time></trkpt><trkpt lat="30.0070945" lon="35.38116035"><ele>1068.2</ele><time>2015-11-26T09:26:25.0000000+00:00</time></trkpt><trkpt lat="30.00710271" lon="35.38117703"><ele>1068.2</ele><time>2015-11-26T09:26:36.0000000+00:00</time></trkpt><trkpt lat="30.00715267" lon="35.38123243"><ele>1068.6</ele><time>2015-11-26T09:26:41.0000000+00:00</time></trkpt><trkpt lat="30.00738946" lon="35.38142111"><ele>1069.1</ele><time>2015-11-26T09:26:54.0000000+00:00</time></trkpt><trkpt lat="30.00764075" lon="35.38155799"><ele>1069.6</ele><time>2015-11-26T09:27:05.0000000+00:00</time></trkpt><trkpt lat="30.00796479" lon="35.3817527"><ele>1070.6</ele><time>2015-11-26T09:27:20.0000000+00:00</time></trkpt><trkpt lat="30.00804987" lon="35.38182579"><ele>1070.6</ele><time>2015-11-26T09:27:26.0000000+00:00</time></trkpt><trkpt lat="30.00796462" lon="35.38190424"><ele>1070.1</ele><time>2015-11-26T09:27:35.0000000+00:00</time></trkpt><trkpt lat="30.00793571" lon="35.38191179"><ele>1070.1</ele><time>2015-11-26T09:27:36.0000000+00:00</time></trkpt><trkpt lat="30.00771032" lon="35.38211438"><ele>1068.6</ele><time>2015-11-26T09:27:44.0000000+00:00</time></trkpt><trkpt lat="30.00760638" lon="35.38219024"><ele>1067.7</ele><time>2015-11-26T09:27:47.0000000+00:00</time></trkpt><trkpt lat="30.00744671" lon="35.38227338"><ele>1066.7</ele><time>2015-11-26T09:27:51.0000000+00:00</time></trkpt><trkpt lat="30.00736691" lon="35.38232963"><ele>1066.2</ele><time>2015-11-26T09:27:53.0000000+00:00</time></trkpt><trkpt lat="30.00728007" lon="35.3823774"><ele>1066.2</ele><time>2015-11-26T09:27:55.0000000+00:00</time></trkpt><trkpt lat="30.0070898" lon="35.38241101"><ele>1065.3</ele><time>2015-11-26T09:27:59.0000000+00:00</time></trkpt><trkpt lat="30.00689979" lon="35.38238084"><ele>1064.8</ele><time>2015-11-26T09:28:03.0000000+00:00</time></trkpt><trkpt lat="30.00648002" lon="35.38232912"><ele>1064.8</ele><time>2015-11-26T09:28:16.0000000+00:00</time></trkpt><trkpt lat="30.00643074" lon="35.38231219"><ele>1065.3</ele><time>2015-11-26T09:28:31.0000000+00:00</time></trkpt><trkpt lat="30.00642872" lon="35.38231303"><ele>1064.8</ele><time>2015-11-26T09:28:32.0000000+00:00</time></trkpt><trkpt lat="30.0063734" lon="35.38231563"><ele>1064.8</ele><time>2015-11-26T09:28:36.0000000+00:00</time></trkpt><trkpt lat="30.00599303" lon="35.3822956"><ele>1063.4</ele><time>2015-11-26T09:28:46.0000000+00:00</time></trkpt><trkpt lat="30.00542977" lon="35.38232326"><ele>1061.4</ele><time>2015-11-26T09:28:59.0000000+00:00</time></trkpt><trkpt lat="30.00526448" lon="35.38242878"><ele>1061.0</ele><time>2015-11-26T09:29:03.0000000+00:00</time></trkpt><trkpt lat="30.00518879" lon="35.38253347"><ele>1060.0</ele><time>2015-11-26T09:29:06.0000000+00:00</time></trkpt><trkpt lat="30.00501595" lon="35.38262685"><ele>1057.6</ele><time>2015-11-26T09:29:10.0000000+00:00</time></trkpt><trkpt lat="30.00472669" lon="35.38267865"><ele>1055.2</ele><time>2015-11-26T09:29:14.0000000+00:00</time></trkpt><trkpt lat="30.00444146" lon="35.38283011"><ele>1054.2</ele><time>2015-11-26T09:29:23.0000000+00:00</time></trkpt><trkpt lat="30.00442503" lon="35.38283933"><ele>1054.7</ele><time>2015-11-26T09:29:24.0000000+00:00</time></trkpt><trkpt lat="30.00436074" lon="35.38299507"><ele>1057.1</ele><time>2015-11-26T09:29:35.0000000+00:00</time></trkpt><trkpt lat="30.00429285" lon="35.38322867"><ele>1059.5</ele><time>2015-11-26T09:29:48.0000000+00:00</time></trkpt><trkpt lat="30.00427592" lon="35.38338616"><ele>1060.5</ele><time>2015-11-26T09:30:00.0000000+00:00</time></trkpt><trkpt lat="30.00419537" lon="35.38367182"><ele>1061.9</ele><time>2015-11-26T09:30:14.0000000+00:00</time></trkpt><trkpt lat="30.00414935" lon="35.38411497"><ele>1062.4</ele><time>2015-11-26T09:30:31.0000000+00:00</time></trkpt><trkpt lat="30.00411616" lon="35.38428638"><ele>1063.4</ele><time>2015-11-26T09:30:40.0000000+00:00</time></trkpt><trkpt lat="30.00406972" lon="35.38440809"><ele>1063.4</ele><time>2015-11-26T09:30:47.0000000+00:00</time></trkpt><trkpt lat="30.00408364" lon="35.3844422"><ele>1062.9</ele><time>2015-11-26T09:31:00.0000000+00:00</time></trkpt><trkpt lat="30.00409294" lon="35.38444404"><ele>1064.3</ele><time>2015-11-26T09:31:13.0000000+00:00</time></trkpt><trkpt lat="30.00408305" lon="35.38445704"><ele>1062.9</ele><time>2015-11-26T09:31:50.0000000+00:00</time></trkpt><trkpt lat="30.00410249" lon="35.38446886"><ele>1062.9</ele><time>2015-11-26T09:32:17.0000000+00:00</time></trkpt><trkpt lat="30.00410417" lon="35.38446299"><ele>1062.9</ele><time>2015-11-26T09:33:05.0000000+00:00</time></trkpt><trkpt lat="30.00410015" lon="35.38445922"><ele>1062.9</ele><time>2015-11-26T09:33:51.0000000+00:00</time></trkpt><trkpt lat="30.00409353" lon="35.38446332"><ele>1062.9</ele><time>2015-11-26T09:34:41.0000000+00:00</time></trkpt><trkpt lat="30.0041149" lon="35.38446961"><ele>1062.9</ele><time>2015-11-26T09:35:21.0000000+00:00</time></trkpt><trkpt lat="30.00410811" lon="35.38446785"><ele>1062.9</ele><time>2015-11-26T09:36:04.0000000+00:00</time></trkpt><trkpt lat="30.00412085" lon="35.38447405"><ele>1062.4</ele><time>2015-11-26T09:36:46.0000000+00:00</time></trkpt><trkpt lat="30.00412546" lon="35.38447221"><ele>1062.9</ele><time>2015-11-26T09:37:23.0000000+00:00</time></trkpt><trkpt lat="30.0041294" lon="35.38446735"><ele>1062.4</ele><time>2015-11-26T09:38:04.0000000+00:00</time></trkpt><trkpt lat="30.0041299" lon="35.38446299"><ele>1061.9</ele><time>2015-11-26T09:38:47.0000000+00:00</time></trkpt><trkpt lat="30.00412043" lon="35.38446617"><ele>1061.9</ele><time>2015-11-26T09:39:21.0000000+00:00</time></trkpt><trkpt lat="30.0041232" lon="35.38447464"><ele>1061.9</ele><time>2015-11-26T09:39:58.0000000+00:00</time></trkpt><trkpt lat="30.00413426" lon="35.38447129"><ele>1061.9</ele><time>2015-11-26T09:40:43.0000000+00:00</time></trkpt><trkpt lat="30.00414407" lon="35.38446642"><ele>1061.4</ele><time>2015-11-26T09:41:23.0000000+00:00</time></trkpt><trkpt lat="30.00413418" lon="35.38446953"><ele>1061.4</ele><time>2015-11-26T09:42:10.0000000+00:00</time></trkpt><trkpt lat="30.00414315" lon="35.38446852"><ele>1061.4</ele><time>2015-11-26T09:42:53.0000000+00:00</time></trkpt><trkpt lat="30.00413728" lon="35.38447707"><ele>1061.0</ele><time>2015-11-26T09:43:38.0000000+00:00</time></trkpt><trkpt lat="30.0041413" lon="35.38447682"><ele>1061.0</ele><time>2015-11-26T09:44:26.0000000+00:00</time></trkpt><trkpt lat="30.00414072" lon="35.38447523"><ele>1060.5</ele><time>2015-11-26T09:45:21.0000000+00:00</time></trkpt><trkpt lat="30.00413803" lon="35.38447036"><ele>1061.0</ele><time>2015-11-26T09:46:13.0000000+00:00</time></trkpt><trkpt lat="30.00414063" lon="35.3844738"><ele>1060.5</ele><time>2015-11-26T09:47:01.0000000+00:00</time></trkpt><trkpt lat="30.00413728" lon="35.38447321"><ele>1060.5</ele><time>2015-11-26T09:47:39.0000000+00:00</time></trkpt><trkpt lat="30.00412848" lon="35.38447087"><ele>1060.5</ele><time>2015-11-26T09:48:32.0000000+00:00</time></trkpt><trkpt lat="30.0041289" lon="35.38446659"><ele>1060.5</ele><time>2015-11-26T09:49:06.0000000+00:00</time></trkpt><trkpt lat="30.00413015" lon="35.38446651"><ele>1060.5</ele><time>2015-11-26T09:50:02.0000000+00:00</time></trkpt><trkpt lat="30.00413074" lon="35.38446316"><ele>1060.5</ele><time>2015-11-26T09:50:58.0000000+00:00</time></trkpt><trkpt lat="30.00412814" lon="35.38447162"><ele>1060.0</ele><time>2015-11-26T09:51:45.0000000+00:00</time></trkpt><trkpt lat="30.00413015" lon="35.38447405"><ele>1060.0</ele><time>2015-11-26T09:52:43.0000000+00:00</time></trkpt><trkpt lat="30.00412923" lon="35.3844671"><ele>1059.5</ele><time>2015-11-26T09:53:27.0000000+00:00</time></trkpt><trkpt lat="30.00412839" lon="35.38446936"><ele>1059.5</ele><time>2015-11-26T09:54:06.0000000+00:00</time></trkpt><trkpt lat="30.00411901" lon="35.38447657"><ele>1059.5</ele><time>2015-11-26T09:54:51.0000000+00:00</time></trkpt><trkpt lat="30.00410493" lon="35.38447539"><ele>1059.0</ele><time>2015-11-26T09:55:27.0000000+00:00</time></trkpt><trkpt lat="30.00409889" lon="35.38447154"><ele>1059.0</ele><time>2015-11-26T09:56:08.0000000+00:00</time></trkpt><trkpt lat="30.00409537" lon="35.38447279"><ele>1058.6</ele><time>2015-11-26T09:56:40.0000000+00:00</time></trkpt><trkpt lat="30.00409864" lon="35.38447992"><ele>1058.6</ele><time>2015-11-26T09:57:09.0000000+00:00</time></trkpt><trkpt lat="30.00412865" lon="35.38446299"><ele>1058.6</ele><time>2015-11-26T09:57:43.0000000+00:00</time></trkpt><trkpt lat="30.00412228" lon="35.38445276"><ele>1059.0</ele><time>2015-11-26T09:57:57.0000000+00:00</time></trkpt><trkpt lat="30.00414667" lon="35.38445846"><ele>1059.0</ele><time>2015-11-26T09:58:00.0000000+00:00</time></trkpt><trkpt lat="30.00419159" lon="35.38445788"><ele>1059.0</ele><time>2015-11-26T09:58:04.0000000+00:00</time></trkpt><trkpt lat="30.00420702" lon="35.38447908"><ele>1059.0</ele><time>2015-11-26T09:58:07.0000000+00:00</time></trkpt><trkpt lat="30.00414466" lon="35.38450557"><ele>1059.0</ele><time>2015-11-26T09:58:12.0000000+00:00</time></trkpt><trkpt lat="30.00406402" lon="35.38464555"><ele>1058.6</ele><time>2015-11-26T09:58:20.0000000+00:00</time></trkpt><trkpt lat="30.00398096" lon="35.38500379"><ele>1055.2</ele><time>2015-11-26T09:58:29.0000000+00:00</time></trkpt><trkpt lat="30.00395405" lon="35.38537201"><ele>1052.8</ele><time>2015-11-26T09:58:34.0000000+00:00</time></trkpt><trkpt lat="30.00401985" lon="35.38567141"><ele>1051.8</ele><time>2015-11-26T09:58:40.0000000+00:00</time></trkpt><trkpt lat="30.00401977" lon="35.38586142"><ele>1050.9</ele><time>2015-11-26T09:58:44.0000000+00:00</time></trkpt><trkpt lat="30.0040351" lon="35.38626401"><ele>1048.9</ele><time>2015-11-26T09:58:56.0000000+00:00</time></trkpt><trkpt lat="30.00404692" lon="35.38636501"><ele>1048.0</ele><time>2015-11-26T09:59:03.0000000+00:00</time></trkpt><trkpt lat="30.0040294" lon="35.38667128"><ele>1045.1</ele><time>2015-11-26T09:59:16.0000000+00:00</time></trkpt><trkpt lat="30.00403527" lon="35.38676851"><ele>1046.1</ele><time>2015-11-26T09:59:21.0000000+00:00</time></trkpt><trkpt lat="30.00406084" lon="35.38679777"><ele>1046.5</ele><time>2015-11-26T09:59:24.0000000+00:00</time></trkpt><trkpt lat="30.00406411" lon="35.38681772"><ele>1046.5</ele><time>2015-11-26T09:59:26.0000000+00:00</time></trkpt><trkpt lat="30.00411917" lon="35.38708627"><ele>1047.5</ele><time>2015-11-26T09:59:40.0000000+00:00</time></trkpt><trkpt lat="30.00401314" lon="35.38745793"><ele>1049.9</ele><time>2015-11-26T09:59:53.0000000+00:00</time></trkpt><trkpt lat="30.00385221" lon="35.38760008"><ele>1052.3</ele><time>2015-11-26T10:00:07.0000000+00:00</time></trkpt><trkpt lat="30.00371994" lon="35.38785137"><ele>1054.7</ele><time>2015-11-26T10:00:23.0000000+00:00</time></trkpt><trkpt lat="30.00359799" lon="35.38804684"><ele>1056.6</ele><time>2015-11-26T10:00:37.0000000+00:00</time></trkpt><trkpt lat="30.00344879" lon="35.38837356"><ele>1059.0</ele><time>2015-11-26T10:00:56.0000000+00:00</time></trkpt><trkpt lat="30.00342775" lon="35.38846795"><ele>1059.5</ele><time>2015-11-26T10:01:01.0000000+00:00</time></trkpt><trkpt lat="30.00320639" lon="35.38872745"><ele>1061.9</ele><time>2015-11-26T10:01:21.0000000+00:00</time></trkpt><trkpt lat="30.00301519" lon="35.38889819"><ele>1064.3</ele><time>2015-11-26T10:01:35.0000000+00:00</time></trkpt><trkpt lat="30.00282308" lon="35.38907211"><ele>1066.2</ele><time>2015-11-26T10:01:51.0000000+00:00</time></trkpt><trkpt lat="30.00278377" lon="35.38910489"><ele>1066.7</ele><time>2015-11-26T10:01:54.0000000+00:00</time></trkpt><trkpt lat="30.00246962" lon="35.38940102"><ele>1067.7</ele><time>2015-11-26T10:02:11.0000000+00:00</time></trkpt><trkpt lat="30.0022304" lon="35.3895912"><ele>1070.1</ele><time>2015-11-26T10:02:25.0000000+00:00</time></trkpt><trkpt lat="30.00209721" lon="35.38970788"><ele>1071.1</ele><time>2015-11-26T10:02:35.0000000+00:00</time></trkpt><trkpt lat="30.00187031" lon="35.38996168"><ele>1072.5</ele><time>2015-11-26T10:02:54.0000000+00:00</time></trkpt><trkpt lat="30.00176394" lon="35.39023711"><ele>1074.4</ele><time>2015-11-26T10:03:07.0000000+00:00</time></trkpt><trkpt lat="30.00174835" lon="35.39035765"><ele>1074.9</ele><time>2015-11-26T10:03:13.0000000+00:00</time></trkpt><trkpt lat="30.0016305" lon="35.39068571"><ele>1075.4</ele><time>2015-11-26T10:03:27.0000000+00:00</time></trkpt><trkpt lat="30.00143998" lon="35.3909655"><ele>1076.8</ele><time>2015-11-26T10:03:41.0000000+00:00</time></trkpt><trkpt lat="30.00120722" lon="35.39132014"><ele>1078.3</ele><time>2015-11-26T10:03:59.0000000+00:00</time></trkpt><trkpt lat="30.00099507" lon="35.39168651"><ele>1079.7</ele><time>2015-11-26T10:04:13.0000000+00:00</time></trkpt><trkpt lat="30.0009172" lon="35.39200896"><ele>1079.7</ele><time>2015-11-26T10:04:26.0000000+00:00</time></trkpt><trkpt lat="30.00082953" lon="35.39229227"><ele>1079.2</ele><time>2015-11-26T10:04:34.0000000+00:00</time></trkpt><trkpt lat="30.00065703" lon="35.39230761"><ele>1079.2</ele><time>2015-11-26T10:04:40.0000000+00:00</time></trkpt><trkpt lat="30.00033743" lon="35.39230485"><ele>1077.3</ele><time>2015-11-26T10:04:49.0000000+00:00</time></trkpt><trkpt lat="29.99998908" lon="35.39254256"><ele>1076.8</ele><time>2015-11-26T10:05:00.0000000+00:00</time></trkpt><trkpt lat="29.99978523" lon="35.39272696"><ele>1076.8</ele><time>2015-11-26T10:05:06.0000000+00:00</time></trkpt><trkpt lat="29.99955674" lon="35.39282335"><ele>1075.9</ele><time>2015-11-26T10:05:11.0000000+00:00</time></trkpt><trkpt lat="29.99915323" lon="35.39271229"><ele>1077.8</ele><time>2015-11-26T10:05:24.0000000+00:00</time></trkpt><trkpt lat="29.99879189" lon="35.39268287"><ele>1079.7</ele><time>2015-11-26T10:05:37.0000000+00:00</time></trkpt><trkpt lat="29.99840506" lon="35.39272989"><ele>1081.6</ele><time>2015-11-26T10:05:52.0000000+00:00</time></trkpt><trkpt lat="29.99808102" lon="35.39295126"><ele>1081.1</ele><time>2015-11-26T10:06:03.0000000+00:00</time></trkpt><trkpt lat="29.99783769" lon="35.39314362"><ele>1082.1</ele><time>2015-11-26T10:06:13.0000000+00:00</time></trkpt><trkpt lat="29.99741843" lon="35.39335912"><ele>1083.5</ele><time>2015-11-26T10:06:28.0000000+00:00</time></trkpt><trkpt lat="29.99701719" lon="35.39354998"><ele>1084.5</ele><time>2015-11-26T10:06:44.0000000+00:00</time></trkpt><trkpt lat="29.99678141" lon="35.39362382"><ele>1082.6</ele><time>2015-11-26T10:06:49.0000000+00:00</time></trkpt><trkpt lat="29.99635736" lon="35.39345568"><ele>1079.2</ele><time>2015-11-26T10:06:56.0000000+00:00</time></trkpt><trkpt lat="29.99610842" lon="35.39342307"><ele>1080.7</ele><time>2015-11-26T10:07:01.0000000+00:00</time></trkpt><trkpt lat="29.99559629" lon="35.39330103"><ele>1078.7</ele><time>2015-11-26T10:07:13.0000000+00:00</time></trkpt><trkpt lat="29.99550736" lon="35.39326466"><ele>1079.7</ele><time>2015-11-26T10:07:15.0000000+00:00</time></trkpt><trkpt lat="29.99522522" lon="35.39315108"><ele>1080.2</ele><time>2015-11-26T10:07:24.0000000+00:00</time></trkpt><trkpt lat="29.99494242" lon="35.3930334"><ele>1076.8</ele><time>2015-11-26T10:07:32.0000000+00:00</time></trkpt><trkpt lat="29.99490914" lon="35.39301454"><ele>1076.3</ele><time>2015-11-26T10:07:33.0000000+00:00</time></trkpt><trkpt lat="29.99476179" lon="35.39272587"><ele>1074.9</ele><time>2015-11-26T10:07:40.0000000+00:00</time></trkpt><trkpt lat="29.99462365" lon="35.39238506"><ele>1077.3</ele><time>2015-11-26T10:07:52.0000000+00:00</time></trkpt><trkpt lat="29.99458149" lon="35.39189153"><ele>1075.9</ele><time>2015-11-26T10:08:06.0000000+00:00</time></trkpt><trkpt lat="29.9945716" lon="35.39160085"><ele>1075.4</ele><time>2015-11-26T10:08:13.0000000+00:00</time></trkpt><trkpt lat="29.99459859" lon="35.39139809"><ele>1074.4</ele><time>2015-11-26T10:08:17.0000000+00:00</time></trkpt><trkpt lat="29.99459448" lon="35.3912385"><ele>1074.4</ele><time>2015-11-26T10:08:20.0000000+00:00</time></trkpt><trkpt lat="29.99455559" lon="35.3909655"><ele>1072.0</ele><time>2015-11-26T10:08:24.0000000+00:00</time></trkpt><trkpt lat="29.99457093" lon="35.3904786"><ele>1070.6</ele><time>2015-11-26T10:08:30.0000000+00:00</time></trkpt><trkpt lat="29.9943867" lon="35.38953312"><ele>1067.7</ele><time>2015-11-26T10:08:42.0000000+00:00</time></trkpt><trkpt lat="29.99427941" lon="35.38930555"><ele>1066.7</ele><time>2015-11-26T10:08:45.0000000+00:00</time></trkpt><trkpt lat="29.99422668" lon="35.38900858"><ele>1066.2</ele><time>2015-11-26T10:08:49.0000000+00:00</time></trkpt><trkpt lat="29.99403482" lon="35.38793829"><ele>1064.3</ele><time>2015-11-26T10:09:05.0000000+00:00</time></trkpt><trkpt lat="29.993994" lon="35.38780251"><ele>1063.8</ele><time>2015-11-26T10:09:07.0000000+00:00</time></trkpt><trkpt lat="29.99363869" lon="35.38697949"><ele>1061.9</ele><time>2015-11-26T10:09:21.0000000+00:00</time></trkpt><trkpt lat="29.99351783" lon="35.3866365"><ele>1061.0</ele><time>2015-11-26T10:09:27.0000000+00:00</time></trkpt><trkpt lat="29.99341171" lon="35.38586595"><ele>1057.1</ele><time>2015-11-26T10:09:38.0000000+00:00</time></trkpt><trkpt lat="29.99313352" lon="35.38498568"><ele>1054.7</ele><time>2015-11-26T10:09:50.0000000+00:00</time></trkpt><trkpt lat="29.99276413" lon="35.38412956"><ele>1051.8</ele><time>2015-11-26T10:10:02.0000000+00:00</time></trkpt><trkpt lat="29.99273596" lon="35.38405403"><ele>1051.3</ele><time>2015-11-26T10:10:03.0000000+00:00</time></trkpt><trkpt lat="29.99217597" lon="35.38306355"><ele>1048.0</ele><time>2015-11-26T10:10:17.0000000+00:00</time></trkpt><trkpt lat="29.99177598" lon="35.38231689"><ele>1045.1</ele><time>2015-11-26T10:10:27.0000000+00:00</time></trkpt><trkpt lat="29.99133132" lon="35.38155765"><ele>1041.7</ele><time>2015-11-26T10:10:38.0000000+00:00</time></trkpt><trkpt lat="29.99115279" lon="35.38119849"><ele>1040.3</ele><time>2015-11-26T10:10:43.0000000+00:00</time></trkpt><trkpt lat="29.99089513" lon="35.38095851"><ele>1040.3</ele><time>2015-11-26T10:10:48.0000000+00:00</time></trkpt><trkpt lat="29.99078189" lon="35.38090722"><ele>1038.8</ele><time>2015-11-26T10:10:50.0000000+00:00</time></trkpt><trkpt lat="29.99040688" lon="35.38063556"><ele>1037.9</ele><time>2015-11-26T10:10:59.0000000+00:00</time></trkpt><trkpt lat="29.9903198" lon="35.38048116"><ele>1037.4</ele><time>2015-11-26T10:11:03.0000000+00:00</time></trkpt><trkpt lat="29.99020379" lon="35.38032702"><ele>1036.4</ele><time>2015-11-26T10:11:07.0000000+00:00</time></trkpt><trkpt lat="29.98998561" lon="35.37998521"><ele>1035.5</ele><time>2015-11-26T10:11:14.0000000+00:00</time></trkpt><trkpt lat="29.9895215" lon="35.37938054"><ele>1033.1</ele><time>2015-11-26T10:11:27.0000000+00:00</time></trkpt><trkpt lat="29.98908514" lon="35.37882071"><ele>1030.2</ele><time>2015-11-26T10:11:36.0000000+00:00</time></trkpt><trkpt lat="29.98896964" lon="35.37861619"><ele>1029.7</ele><time>2015-11-26T10:11:39.0000000+00:00</time></trkpt><trkpt lat="29.98880544" lon="35.37837756"><ele>1029.7</ele><time>2015-11-26T10:11:43.0000000+00:00</time></trkpt><trkpt lat="29.98833563" lon="35.3776568"><ele>1028.3</ele><time>2015-11-26T10:11:57.0000000+00:00</time></trkpt><trkpt lat="29.98794151" lon="35.37672498"><ele>1026.3</ele><time>2015-11-26T10:12:13.0000000+00:00</time></trkpt><trkpt lat="29.98776918" lon="35.37639926"><ele>1025.4</ele><time>2015-11-26T10:12:19.0000000+00:00</time></trkpt><trkpt lat="29.98734204" lon="35.37583977"><ele>1024.9</ele><time>2015-11-26T10:12:33.0000000+00:00</time></trkpt><trkpt lat="29.98716041" lon="35.37566006"><ele>1024.9</ele><time>2015-11-26T10:12:39.0000000+00:00</time></trkpt><trkpt lat="29.98663411" lon="35.37524424"><ele>1025.4</ele><time>2015-11-26T10:12:55.0000000+00:00</time></trkpt><trkpt lat="29.98619012" lon="35.37501189"><ele>1024.4</ele><time>2015-11-26T10:13:08.0000000+00:00</time></trkpt><trkpt lat="29.98587722" lon="35.37487501"><ele>1024.4</ele><time>2015-11-26T10:13:19.0000000+00:00</time></trkpt><trkpt lat="29.98582852" lon="35.37483218"><ele>1024.4</ele><time>2015-11-26T10:13:28.0000000+00:00</time></trkpt><trkpt lat="29.98583917" lon="35.37483998"><ele>1024.4</ele><time>2015-11-26T10:13:54.0000000+00:00</time></trkpt><trkpt lat="29.98576884" lon="35.37480519"><ele>1024.4</ele><time>2015-11-26T10:14:24.0000000+00:00</time></trkpt><trkpt lat="29.98541563" lon="35.37459606"><ele>1023.9</ele><time>2015-11-26T10:14:37.0000000+00:00</time></trkpt><trkpt lat="29.98504431" lon="35.37438123"><ele>1023.0</ele><time>2015-11-26T10:14:52.0000000+00:00</time></trkpt><trkpt lat="29.98469152" lon="35.37424587"><ele>1022.0</ele><time>2015-11-26T10:15:06.0000000+00:00</time></trkpt><trkpt lat="29.9842746" lon="35.37401503"><ele>1021.5</ele><time>2015-11-26T10:15:23.0000000+00:00</time></trkpt><trkpt lat="29.98427711" lon="35.37402241"><ele>1021.5</ele><time>2015-11-26T10:15:41.0000000+00:00</time></trkpt><trkpt lat="29.98428332" lon="35.37402769"><ele>1021.5</ele><time>2015-11-26T10:16:19.0000000+00:00</time></trkpt><trkpt lat="29.98429069" lon="35.37401075"><ele>1021.1</ele><time>2015-11-26T10:16:42.0000000+00:00</time></trkpt><trkpt lat="29.98437485" lon="35.37402232"><ele>1021.5</ele><time>2015-11-26T10:16:54.0000000+00:00</time></trkpt><trkpt lat="29.98436932" lon="35.37399743"><ele>1021.5</ele><time>2015-11-26T10:17:25.0000000+00:00</time></trkpt><trkpt lat="29.98437007" lon="35.3739691"><ele>1021.1</ele><time>2015-11-26T10:17:40.0000000+00:00</time></trkpt><trkpt lat="29.98435951" lon="35.37395267"><ele>1021.1</ele><time>2015-11-26T10:18:00.0000000+00:00</time></trkpt><trkpt lat="29.98436454" lon="35.37397061"><ele>1021.1</ele><time>2015-11-26T10:18:31.0000000+00:00</time></trkpt><trkpt lat="29.98437384" lon="35.37393733"><ele>1021.1</ele><time>2015-11-26T10:18:58.0000000+00:00</time></trkpt><trkpt lat="29.9843989" lon="35.37388737"><ele>1021.1</ele><time>2015-11-26T10:19:02.0000000+00:00</time></trkpt><trkpt lat="29.98450183" lon="35.37370062"><ele>1021.1</ele><time>2015-11-26T10:19:21.0000000+00:00</time></trkpt><trkpt lat="29.98454634" lon="35.37361488"><ele>1021.5</ele><time>2015-11-26T10:19:37.0000000+00:00</time></trkpt><trkpt lat="29.98455774" lon="35.37360541"><ele>1021.5</ele><time>2015-11-26T10:19:39.0000000+00:00</time></trkpt><trkpt lat="29.98460812" lon="35.37359342"><ele>1021.1</ele><time>2015-11-26T10:19:50.0000000+00:00</time></trkpt><trkpt lat="29.98463376" lon="35.37354288"><ele>1051.3</ele><time>2015-11-26T10:45:15.0000000+00:00</time></trkpt><trkpt lat="29.98461289" lon="35.3735619"><ele>1049.9</ele><time>2015-11-26T10:45:17.0000000+00:00</time></trkpt><trkpt lat="29.98461247" lon="35.37356559"><ele>1046.5</ele><time>2015-11-26T10:45:22.0000000+00:00</time></trkpt><trkpt lat="29.98461398" lon="35.37356718"><ele>1043.7</ele><time>2015-11-26T10:45:25.0000000+00:00</time></trkpt><trkpt lat="29.98461415" lon="35.37356559"><ele>1039.8</ele><time>2015-11-26T10:45:29.0000000+00:00</time></trkpt><trkpt lat="29.98462882" lon="35.37357062"><ele>1036.9</ele><time>2015-11-26T10:45:33.0000000+00:00</time></trkpt><trkpt lat="29.98464248" lon="35.37357808"><ele>1033.6</ele><time>2015-11-26T10:45:38.0000000+00:00</time></trkpt><trkpt lat="29.98463972" lon="35.37358093"><ele>1033.1</ele><time>2015-11-26T10:45:40.0000000+00:00</time></trkpt><trkpt lat="29.98451524" lon="35.37366232"><ele>1029.2</ele><time>2015-11-26T10:45:48.0000000+00:00</time></trkpt><trkpt lat="29.98418609" lon="35.3738339"><ele>1026.8</ele><time>2015-11-26T10:46:01.0000000+00:00</time></trkpt><trkpt lat="29.98412649" lon="35.37385234"><ele>1026.3</ele><time>2015-11-26T10:46:03.0000000+00:00</time></trkpt><trkpt lat="29.98378702" lon="35.37362586"><ele>1024.4</ele><time>2015-11-26T10:46:15.0000000+00:00</time></trkpt><trkpt lat="29.98344999" lon="35.37338664"><ele>1022.5</ele><time>2015-11-26T10:46:25.0000000+00:00</time></trkpt><trkpt lat="29.98280458" lon="35.37300685"><ele>1020.1</ele><time>2015-11-26T10:46:43.0000000+00:00</time></trkpt><trkpt lat="29.9820938" lon="35.37253462"><ele>1018.2</ele><time>2015-11-26T10:47:02.0000000+00:00</time></trkpt><trkpt lat="29.98155073" lon="35.37220705"><ele>1016.7</ele><time>2015-11-26T10:47:16.0000000+00:00</time></trkpt><trkpt lat="29.98142249" lon="35.3720892"><ele>1016.7</ele><time>2015-11-26T10:47:20.0000000+00:00</time></trkpt><trkpt lat="29.98125125" lon="35.37193875"><ele>1016.3</ele><time>2015-11-26T10:47:25.0000000+00:00</time></trkpt><trkpt lat="29.98106844" lon="35.37180137"><ele>1015.3</ele><time>2015-11-26T10:47:30.0000000+00:00</time></trkpt><trkpt lat="29.98060358" lon="35.37147984"><ele>1014.8</ele><time>2015-11-26T10:47:42.0000000+00:00</time></trkpt><trkpt lat="29.97993621" lon="35.37111715"><ele>1013.4</ele><time>2015-11-26T10:47:59.0000000+00:00</time></trkpt><trkpt lat="29.97954637" lon="35.37088003"><ele>1012.4</ele><time>2015-11-26T10:48:08.0000000+00:00</time></trkpt><trkpt lat="29.9789277" lon="35.37078406"><ele>1012.4</ele><time>2015-11-26T10:48:23.0000000+00:00</time></trkpt><trkpt lat="29.97828757" lon="35.37040788"><ele>1011.9</ele><time>2015-11-26T10:48:40.0000000+00:00</time></trkpt><trkpt lat="29.97776547" lon="35.36999197"><ele>1011.0</ele><time>2015-11-26T10:48:55.0000000+00:00</time></trkpt><trkpt lat="29.97760621" lon="35.36988451"><ele>1010.5</ele><time>2015-11-26T10:48:59.0000000+00:00</time></trkpt><trkpt lat="29.97726423" lon="35.36969927"><ele>1009.5</ele><time>2015-11-26T10:49:07.0000000+00:00</time></trkpt><trkpt lat="29.97715216" lon="35.36962694"><ele>1009.5</ele><time>2015-11-26T10:49:10.0000000+00:00</time></trkpt><trkpt lat="29.97689065" lon="35.36939912"><ele>1008.6</ele><time>2015-11-26T10:49:17.0000000+00:00</time></trkpt><trkpt lat="29.97637197" lon="35.36871473"><ele>1008.1</ele><time>2015-11-26T10:49:33.0000000+00:00</time></trkpt><trkpt lat="29.97625614" lon="35.36848356"><ele>1008.1</ele><time>2015-11-26T10:49:38.0000000+00:00</time></trkpt><trkpt lat="29.97609981" lon="35.36815977"><ele>1008.1</ele><time>2015-11-26T10:49:45.0000000+00:00</time></trkpt><trkpt lat="29.97606629" lon="35.36806514"><ele>1007.6</ele><time>2015-11-26T10:49:47.0000000+00:00</time></trkpt><trkpt lat="29.97600376" lon="35.36784721"><ele>1008.1</ele><time>2015-11-26T10:49:52.0000000+00:00</time></trkpt><trkpt lat="29.9759445" lon="35.36772969"><ele>1008.1</ele><time>2015-11-26T10:49:55.0000000+00:00</time></trkpt><trkpt lat="29.97570327" lon="35.36744068"><ele>1007.6</ele><time>2015-11-26T10:50:03.0000000+00:00</time></trkpt><trkpt lat="29.97517177" lon="35.36686962"><ele>1007.1</ele><time>2015-11-26T10:50:20.0000000+00:00</time></trkpt><trkpt lat="29.97467439" lon="35.36642195"><ele>1006.2</ele><time>2015-11-26T10:50:37.0000000+00:00</time></trkpt><trkpt lat="29.97465226" lon="35.36642136"><ele>1006.2</ele><time>2015-11-26T10:51:07.0000000+00:00</time></trkpt><trkpt lat="29.97465176" lon="35.36641088"><ele>1005.7</ele><time>2015-11-26T10:51:58.0000000+00:00</time></trkpt><trkpt lat="29.97465368" lon="35.36640803"><ele>1006.6</ele><time>2015-11-26T10:52:42.0000000+00:00</time></trkpt><trkpt lat="29.97457917" lon="35.36634567"><ele>1006.6</ele><time>2015-11-26T10:53:05.0000000+00:00</time></trkpt><trkpt lat="29.97423425" lon="35.3660104"><ele>1005.7</ele><time>2015-11-26T10:53:19.0000000+00:00</time></trkpt><trkpt lat="29.97416116" lon="35.36590789"><ele>1005.2</ele><time>2015-11-26T10:53:22.0000000+00:00</time></trkpt><trkpt lat="29.97411112" lon="35.36583371"><ele>1005.2</ele><time>2015-11-26T10:53:24.0000000+00:00</time></trkpt><trkpt lat="29.97362036" lon="35.3651976"><ele>1004.2</ele><time>2015-11-26T10:53:41.0000000+00:00</time></trkpt><trkpt lat="29.9728711" lon="35.36464666"><ele>1003.8</ele><time>2015-11-26T10:54:01.0000000+00:00</time></trkpt><trkpt lat="29.97249937" lon="35.36432966"><ele>1002.8</ele><time>2015-11-26T10:54:11.0000000+00:00</time></trkpt><trkpt lat="29.97243114" lon="35.36424936"><ele>1002.3</ele><time>2015-11-26T10:54:13.0000000+00:00</time></trkpt><trkpt lat="29.97233885" lon="35.36411969"><ele>1002.3</ele><time>2015-11-26T10:54:16.0000000+00:00</time></trkpt><trkpt lat="29.97214716" lon="35.36380218"><ele>1001.4</ele><time>2015-11-26T10:54:23.0000000+00:00</time></trkpt><trkpt lat="29.97195387" lon="35.36313389"><ele>999.4</ele><time>2015-11-26T10:54:35.0000000+00:00</time></trkpt><trkpt lat="29.97179805" lon="35.36293097"><ele>999.9</ele><time>2015-11-26T10:54:40.0000000+00:00</time></trkpt><trkpt lat="29.97107402" lon="35.36245655"><ele>998.5</ele><time>2015-11-26T10:54:57.0000000+00:00</time></trkpt><trkpt lat="29.97094176" lon="35.36235488"><ele>998.0</ele><time>2015-11-26T10:55:00.0000000+00:00</time></trkpt><trkpt lat="29.97021052" lon="35.36172104"><ele>995.6</ele><time>2015-11-26T10:55:18.0000000+00:00</time></trkpt><trkpt lat="29.9700433" lon="35.36159959"><ele>995.1</ele><time>2015-11-26T10:55:22.0000000+00:00</time></trkpt><trkpt lat="29.96967626" lon="35.36149037"><ele>994.6</ele><time>2015-11-26T10:55:30.0000000+00:00</time></trkpt><trkpt lat="29.96958925" lon="35.36144871"><ele>994.6</ele><time>2015-11-26T10:55:32.0000000+00:00</time></trkpt><trkpt lat="29.96912305" lon="35.36102333"><ele>994.6</ele><time>2015-11-26T10:55:45.0000000+00:00</time></trkpt><trkpt lat="29.9688519" lon="35.36082552"><ele>994.1</ele><time>2015-11-26T10:55:52.0000000+00:00</time></trkpt><trkpt lat="29.96853297" lon="35.3606873"><ele>993.7</ele><time>2015-11-26T10:55:59.0000000+00:00</time></trkpt><trkpt lat="29.9679863" lon="35.36061186"><ele>996.1</ele><time>2015-11-26T10:56:13.0000000+00:00</time></trkpt><trkpt lat="29.9677646" lon="35.36052855"><ele>998.5</ele><time>2015-11-26T10:56:25.0000000+00:00</time></trkpt><trkpt lat="29.96752261" lon="35.36040072"><ele>999.9</ele><time>2015-11-26T10:56:42.0000000+00:00</time></trkpt><trkpt lat="29.96728012" lon="35.36026779"><ele>999.9</ele><time>2015-11-26T10:56:55.0000000+00:00</time></trkpt><trkpt lat="29.96685617" lon="35.36003075"><ele>998.0</ele><time>2015-11-26T10:57:10.0000000+00:00</time></trkpt><trkpt lat="29.96644805" lon="35.35968902"><ele>994.6</ele><time>2015-11-26T10:57:20.0000000+00:00</time></trkpt><trkpt lat="29.9660655" lon="35.35939649"><ele>993.2</ele><time>2015-11-26T10:57:31.0000000+00:00</time></trkpt><trkpt lat="29.96572721" lon="35.35941007"><ele>991.3</ele><time>2015-11-26T10:57:43.0000000+00:00</time></trkpt><trkpt lat="29.9652015" lon="35.3592125"><ele>991.3</ele><time>2015-11-26T10:57:59.0000000+00:00</time></trkpt><trkpt lat="29.96449272" lon="35.35894554"><ele>990.3</ele><time>2015-11-26T10:58:17.0000000+00:00</time></trkpt><trkpt lat="29.96442089" lon="35.35889542"><ele>990.3</ele><time>2015-11-26T10:58:19.0000000+00:00</time></trkpt><trkpt lat="29.9640784" lon="35.35846149"><ele>989.8</ele><time>2015-11-26T10:58:33.0000000+00:00</time></trkpt><trkpt lat="29.9636661" lon="35.35789588"><ele>989.3</ele><time>2015-11-26T10:58:48.0000000+00:00</time></trkpt><trkpt lat="29.96315648" lon="35.35722407"><ele>987.9</ele><time>2015-11-26T10:59:05.0000000+00:00</time></trkpt><trkpt lat="29.96297778" lon="35.35699323"><ele>987.9</ele><time>2015-11-26T10:59:11.0000000+00:00</time></trkpt><trkpt lat="29.96289714" lon="35.3568784"><ele>986.9</ele><time>2015-11-26T10:59:14.0000000+00:00</time></trkpt><trkpt lat="29.96241275" lon="35.35620801"><ele>986.5</ele><time>2015-11-26T10:59:33.0000000+00:00</time></trkpt><trkpt lat="29.96200338" lon="35.35564349"><ele>986.0</ele><time>2015-11-26T10:59:49.0000000+00:00</time></trkpt><trkpt lat="29.9619494" lon="35.35557099"><ele>985.5</ele><time>2015-11-26T10:59:51.0000000+00:00</time></trkpt><trkpt lat="29.961823" lon="35.35538482"><ele>985.0</ele><time>2015-11-26T10:59:56.0000000+00:00</time></trkpt><trkpt lat="29.96144942" lon="35.35485551"><ele>983.6</ele><time>2015-11-26T11:00:10.0000000+00:00</time></trkpt><trkpt lat="29.96097014" lon="35.35423801"><ele>982.1</ele><time>2015-11-26T11:00:26.0000000+00:00</time></trkpt><trkpt lat="29.9604016" lon="35.3536745"><ele>981.6</ele><time>2015-11-26T11:00:43.0000000+00:00</time></trkpt><trkpt lat="29.95972023" lon="35.35301819"><ele>980.7</ele><time>2015-11-26T11:01:03.0000000+00:00</time></trkpt><trkpt lat="29.959119" lon="35.3524603"><ele>979.2</ele><time>2015-11-26T11:01:20.0000000+00:00</time></trkpt><trkpt lat="29.95868146" lon="35.35203768"><ele>978.3</ele><time>2015-11-26T11:01:32.0000000+00:00</time></trkpt><trkpt lat="29.95810261" lon="35.35151029"><ele>977.8</ele><time>2015-11-26T11:01:48.0000000+00:00</time></trkpt><trkpt lat="29.95760565" lon="35.35100327"><ele>978.3</ele><time>2015-11-26T11:02:04.0000000+00:00</time></trkpt><trkpt lat="29.95751202" lon="35.35091409"><ele>978.3</ele><time>2015-11-26T11:02:07.0000000+00:00</time></trkpt><trkpt lat="29.95720818" lon="35.35049072"><ele>978.3</ele><time>2015-11-26T11:02:19.0000000+00:00</time></trkpt><trkpt lat="29.95670962" lon="35.34990985"><ele>977.3</ele><time>2015-11-26T11:02:36.0000000+00:00</time></trkpt><trkpt lat="29.95618869" lon="35.34949813"><ele>975.9</ele><time>2015-11-26T11:02:50.0000000+00:00</time></trkpt><trkpt lat="29.95581653" lon="35.34911885"><ele>974.9</ele><time>2015-11-26T11:03:03.0000000+00:00</time></trkpt><trkpt lat="29.95541663" lon="35.34862767"><ele>974.0</ele><time>2015-11-26T11:03:16.0000000+00:00</time></trkpt><trkpt lat="29.95498789" lon="35.34809316"><ele>973.0</ele><time>2015-11-26T11:03:31.0000000+00:00</time></trkpt><trkpt lat="29.95435473" lon="35.34742193"><ele>971.6</ele><time>2015-11-26T11:03:49.0000000+00:00</time></trkpt><trkpt lat="29.95368392" lon="35.3470046"><ele>970.1</ele><time>2015-11-26T11:04:05.0000000+00:00</time></trkpt><trkpt lat="29.95326055" lon="35.34680544"><ele>969.6</ele><time>2015-11-26T11:04:15.0000000+00:00</time></trkpt><trkpt lat="29.95245664" lon="35.34645583"><ele>968.2</ele><time>2015-11-26T11:04:31.0000000+00:00</time></trkpt><trkpt lat="29.95241021" lon="35.34641971"><ele>967.7</ele><time>2015-11-26T11:04:32.0000000+00:00</time></trkpt><trkpt lat="29.95228775" lon="35.34629658"><ele>967.2</ele><time>2015-11-26T11:04:35.0000000+00:00</time></trkpt><trkpt lat="29.95208524" lon="35.34615752"><ele>966.7</ele><time>2015-11-26T11:04:40.0000000+00:00</time></trkpt><trkpt lat="29.95200662" lon="35.34609684"><ele>966.7</ele><time>2015-11-26T11:04:42.0000000+00:00</time></trkpt><trkpt lat="29.9518995" lon="35.34599131"><ele>966.3</ele><time>2015-11-26T11:04:45.0000000+00:00</time></trkpt><trkpt lat="29.95174871" lon="35.34591529"><ele>966.3</ele><time>2015-11-26T11:04:49.0000000+00:00</time></trkpt><trkpt lat="29.9515322" lon="35.34587556"><ele>965.8</ele><time>2015-11-26T11:04:55.0000000+00:00</time></trkpt><trkpt lat="29.95137923" lon="35.34581789"><ele>965.3</ele><time>2015-11-26T11:04:59.0000000+00:00</time></trkpt><trkpt lat="29.9513022" lon="35.34577497"><ele>965.3</ele><time>2015-11-26T11:05:01.0000000+00:00</time></trkpt><trkpt lat="29.95112878" lon="35.34556325"><ele>965.3</ele><time>2015-11-26T11:05:08.0000000+00:00</time></trkpt><trkpt lat="29.95110347" lon="35.34551832"><ele>965.3</ele><time>2015-11-26T11:05:10.0000000+00:00</time></trkpt><trkpt lat="29.9509945" lon="35.3454723"><ele>965.3</ele><time>2015-11-26T11:05:15.0000000+00:00</time></trkpt><trkpt lat="29.9505931" lon="35.34542997"><ele>965.3</ele><time>2015-11-26T11:05:28.0000000+00:00</time></trkpt><trkpt lat="29.95044792" lon="35.3452449"><ele>965.3</ele><time>2015-11-26T11:05:40.0000000+00:00</time></trkpt><trkpt lat="29.95042495" lon="35.34521959"><ele>965.3</ele><time>2015-11-26T11:05:43.0000000+00:00</time></trkpt><trkpt lat="29.95043761" lon="35.34510409"><ele>964.8</ele><time>2015-11-26T11:05:51.0000000+00:00</time></trkpt><trkpt lat="29.9504185" lon="35.34504935"><ele>964.3</ele><time>2015-11-26T11:06:01.0000000+00:00</time></trkpt><trkpt lat="29.95040962" lon="35.34504558"><ele>964.3</ele><time>2015-11-26T11:06:24.0000000+00:00</time></trkpt><trkpt lat="29.95031197" lon="35.34491331"><ele>963.9</ele><time>2015-11-26T11:06:37.0000000+00:00</time></trkpt><trkpt lat="29.95012186" lon="35.34451744"><ele>962.4</ele><time>2015-11-26T11:06:50.0000000+00:00</time></trkpt><trkpt lat="29.94985976" lon="35.34401687"><ele>961.5</ele><time>2015-11-26T11:07:05.0000000+00:00</time></trkpt><trkpt lat="29.94985121" lon="35.34376876"><ele>961.0</ele><time>2015-11-26T11:07:13.0000000+00:00</time></trkpt><trkpt lat="29.94992187" lon="35.34361001"><ele>960.5</ele><time>2015-11-26T11:07:17.0000000+00:00</time></trkpt><trkpt lat="29.94972934" lon="35.3432521"><ele>961.0</ele><time>2015-11-26T11:07:29.0000000+00:00</time></trkpt><trkpt lat="29.94939918" lon="35.34305085"><ele>961.0</ele><time>2015-11-26T11:07:40.0000000+00:00</time></trkpt><trkpt lat="29.94924294" lon="35.34284323"><ele>961.0</ele><time>2015-11-26T11:07:50.0000000+00:00</time></trkpt><trkpt lat="29.94930932" lon="35.34249664"><ele>961.0</ele><time>2015-11-26T11:08:01.0000000+00:00</time></trkpt><trkpt lat="29.94939012" lon="35.34201812"><ele>961.9</ele><time>2015-11-26T11:08:15.0000000+00:00</time></trkpt><trkpt lat="29.94941292" lon="35.34148612"><ele>962.9</ele><time>2015-11-26T11:08:29.0000000+00:00</time></trkpt><trkpt lat="29.94919181" lon="35.34120709"><ele>962.9</ele><time>2015-11-26T11:08:39.0000000+00:00</time></trkpt><trkpt lat="29.94899634" lon="35.34117004"><ele>962.9</ele><time>2015-11-26T11:08:45.0000000+00:00</time></trkpt><trkpt lat="29.94887665" lon="35.34112679"><ele>962.4</ele><time>2015-11-26T11:08:48.0000000+00:00</time></trkpt><trkpt lat="29.94869082" lon="35.34112738"><ele>961.9</ele><time>2015-11-26T11:08:52.0000000+00:00</time></trkpt><trkpt lat="29.94838178" lon="35.34106543"><ele>960.5</ele><time>2015-11-26T11:08:58.0000000+00:00</time></trkpt><trkpt lat="29.94777066" lon="35.34065606"><ele>960.0</ele><time>2015-11-26T11:09:12.0000000+00:00</time></trkpt><trkpt lat="29.94736715" lon="35.34031617"><ele>962.4</ele><time>2015-11-26T11:09:26.0000000+00:00</time></trkpt><trkpt lat="29.94713447" lon="35.34020905"><ele>964.3</ele><time>2015-11-26T11:09:39.0000000+00:00</time></trkpt><trkpt lat="29.94693322" lon="35.34014996"><ele>966.3</ele><time>2015-11-26T11:09:53.0000000+00:00</time></trkpt><trkpt lat="29.94688427" lon="35.34013186"><ele>966.3</ele><time>2015-11-26T11:09:57.0000000+00:00</time></trkpt><trkpt lat="29.94657682" lon="35.34002457"><ele>965.3</ele><time>2015-11-26T11:10:11.0000000+00:00</time></trkpt><trkpt lat="29.94653868" lon="35.3400192"><ele>964.8</ele><time>2015-11-26T11:10:12.0000000+00:00</time></trkpt><trkpt lat="29.94624549" lon="35.34003295"><ele>963.9</ele><time>2015-11-26T11:10:19.0000000+00:00</time></trkpt><trkpt lat="29.94606963" lon="35.34005089"><ele>962.9</ele><time>2015-11-26T11:10:23.0000000+00:00</time></trkpt><trkpt lat="29.94590459" lon="35.34006128"><ele>961.9</ele><time>2015-11-26T11:10:26.0000000+00:00</time></trkpt><trkpt lat="29.94550612" lon="35.34019237"><ele>961.0</ele><time>2015-11-26T11:10:36.0000000+00:00</time></trkpt><trkpt lat="29.9454192" lon="35.34025708"><ele>960.5</ele><time>2015-11-26T11:10:39.0000000+00:00</time></trkpt><trkpt lat="29.94525215" lon="35.34031291"><ele>959.5</ele><time>2015-11-26T11:10:43.0000000+00:00</time></trkpt><trkpt lat="29.94514746" lon="35.34033512"><ele>959.1</ele><time>2015-11-26T11:10:45.0000000+00:00</time></trkpt><trkpt lat="29.94482861" lon="35.34031685"><ele>955.7</ele><time>2015-11-26T11:10:50.0000000+00:00</time></trkpt><trkpt lat="29.94470623" lon="35.34031785"><ele>956.2</ele><time>2015-11-26T11:10:52.0000000+00:00</time></trkpt><trkpt lat="29.94448478" lon="35.3403487"><ele>956.7</ele><time>2015-11-26T11:10:56.0000000+00:00</time></trkpt><trkpt lat="29.94436568" lon="35.34039287"><ele>957.6</ele><time>2015-11-26T11:11:04.0000000+00:00</time></trkpt><trkpt lat="29.94436559" lon="35.34040041"><ele>957.1</ele><time>2015-11-26T11:11:43.0000000+00:00</time></trkpt><trkpt lat="29.9443303" lon="35.34039781"><ele>957.6</ele><time>2015-11-26T11:12:30.0000000+00:00</time></trkpt><trkpt lat="29.94416619" lon="35.34040972"><ele>958.1</ele><time>2015-11-26T11:12:44.0000000+00:00</time></trkpt><trkpt lat="29.94383535" lon="35.3403399"><ele>957.6</ele><time>2015-11-26T11:12:58.0000000+00:00</time></trkpt><trkpt lat="29.94344744" lon="35.3402145"><ele>957.1</ele><time>2015-11-26T11:13:09.0000000+00:00</time></trkpt><trkpt lat="29.94297772" lon="35.34027385"><ele>956.2</ele><time>2015-11-26T11:13:21.0000000+00:00</time></trkpt><trkpt lat="29.94293061" lon="35.34030679"><ele>956.2</ele><time>2015-11-26T11:13:31.0000000+00:00</time></trkpt><trkpt lat="29.94281083" lon="35.34033512"><ele>955.7</ele><time>2015-11-26T11:13:46.0000000+00:00</time></trkpt><trkpt lat="29.94252459" lon="35.34040159"><ele>956.2</ele><time>2015-11-26T11:13:57.0000000+00:00</time></trkpt><trkpt lat="29.94243767" lon="35.34041952"><ele>956.2</ele><time>2015-11-26T11:13:59.0000000+00:00</time></trkpt><trkpt lat="29.94209619" lon="35.34045322"><ele>955.7</ele><time>2015-11-26T11:14:08.0000000+00:00</time></trkpt><trkpt lat="29.94139873" lon="35.3404549"><ele>953.8</ele><time>2015-11-26T11:14:23.0000000+00:00</time></trkpt><trkpt lat="29.9410539" lon="35.34062857"><ele>952.3</ele><time>2015-11-26T11:14:33.0000000+00:00</time></trkpt><trkpt lat="29.9405592" lon="35.34066402"><ele>951.8</ele><time>2015-11-26T11:14:45.0000000+00:00</time></trkpt><trkpt lat="29.94025243" lon="35.34065883"><ele>951.4</ele><time>2015-11-26T11:14:52.0000000+00:00</time></trkpt><trkpt lat="29.93997549" lon="35.34066662"><ele>950.9</ele><time>2015-11-26T11:14:59.0000000+00:00</time></trkpt><trkpt lat="29.93984381" lon="35.3407035"><ele>950.4</ele><time>2015-11-26T11:15:02.0000000+00:00</time></trkpt><trkpt lat="29.93968044" lon="35.34075128"><ele>949.9</ele><time>2015-11-26T11:15:06.0000000+00:00</time></trkpt><trkpt lat="29.93945296" lon="35.3407092"><ele>949.0</ele><time>2015-11-26T11:15:11.0000000+00:00</time></trkpt><trkpt lat="29.93931281" lon="35.34068833"><ele>949.0</ele><time>2015-11-26T11:15:14.0000000+00:00</time></trkpt><trkpt lat="29.9391725" lon="35.34069981"><ele>948.5</ele><time>2015-11-26T11:15:17.0000000+00:00</time></trkpt><trkpt lat="29.93889808" lon="35.3408206"><ele>948.5</ele><time>2015-11-26T11:15:24.0000000+00:00</time></trkpt><trkpt lat="29.93863874" lon="35.34088497"><ele>947.5</ele><time>2015-11-26T11:15:30.0000000+00:00</time></trkpt><trkpt lat="29.93847094" lon="35.34087977"><ele>947.5</ele><time>2015-11-26T11:15:34.0000000+00:00</time></trkpt><trkpt lat="29.93785998" lon="35.34097885"><ele>947.0</ele><time>2015-11-26T11:15:48.0000000+00:00</time></trkpt><trkpt lat="29.93757566" lon="35.3410708"><ele>946.6</ele><time>2015-11-26T11:15:55.0000000+00:00</time></trkpt><trkpt lat="29.93732169" lon="35.34115328"><ele>946.6</ele><time>2015-11-26T11:16:01.0000000+00:00</time></trkpt><trkpt lat="29.93677704" lon="35.34122335"><ele>946.6</ele><time>2015-11-26T11:16:15.0000000+00:00</time></trkpt><trkpt lat="29.93671426" lon="35.34122511"><ele>946.1</ele><time>2015-11-26T11:16:23.0000000+00:00</time></trkpt><trkpt lat="29.93670789" lon="35.34122134"><ele>945.6</ele><time>2015-11-26T11:16:49.0000000+00:00</time></trkpt><trkpt lat="29.93664946" lon="35.34122846"><ele>945.6</ele><time>2015-11-26T11:16:53.0000000+00:00</time></trkpt><trkpt lat="29.93630329" lon="35.34110743"><ele>944.6</ele><time>2015-11-26T11:17:04.0000000+00:00</time></trkpt><trkpt lat="29.93578378" lon="35.34078548"><ele>943.7</ele><time>2015-11-26T11:17:19.0000000+00:00</time></trkpt><trkpt lat="29.93570482" lon="35.34074667"><ele>943.7</ele><time>2015-11-26T11:17:21.0000000+00:00</time></trkpt><trkpt lat="29.93531481" lon="35.34042732"><ele>943.2</ele><time>2015-11-26T11:17:35.0000000+00:00</time></trkpt><trkpt lat="29.93504005" lon="35.34015222"><ele>944.2</ele><time>2015-11-26T11:17:48.0000000+00:00</time></trkpt><trkpt lat="29.93459154" lon="35.33969625"><ele>943.2</ele><time>2015-11-26T11:18:04.0000000+00:00</time></trkpt><trkpt lat="29.93428493" lon="35.33941814"><ele>942.7</ele><time>2015-11-26T11:18:18.0000000+00:00</time></trkpt><trkpt lat="29.93409064" lon="35.33887591"><ele>943.2</ele><time>2015-11-26T11:18:33.0000000+00:00</time></trkpt><trkpt lat="29.93398662" lon="35.33841273"><ele>943.7</ele><time>2015-11-26T11:18:45.0000000+00:00</time></trkpt><trkpt lat="29.93382258" lon="35.33798777"><ele>943.7</ele><time>2015-11-26T11:18:58.0000000+00:00</time></trkpt><trkpt lat="29.93359661" lon="35.33749064"><ele>943.7</ele><time>2015-11-26T11:19:12.0000000+00:00</time></trkpt><trkpt lat="29.93353089" lon="35.33737698"><ele>943.7</ele><time>2015-11-26T11:19:15.0000000+00:00</time></trkpt><trkpt lat="29.933492" lon="35.33728997"><ele>943.2</ele><time>2015-11-26T11:19:17.0000000+00:00</time></trkpt><trkpt lat="29.93343903" lon="35.33693902"><ele>943.2</ele><time>2015-11-26T11:19:24.0000000+00:00</time></trkpt><trkpt lat="29.93345646" lon="35.33683257"><ele>943.2</ele><time>2015-11-26T11:19:26.0000000+00:00</time></trkpt><trkpt lat="29.93350097" lon="35.33667902"><ele>942.7</ele><time>2015-11-26T11:19:29.0000000+00:00</time></trkpt><trkpt lat="29.9334806" lon="35.33648841"><ele>942.7</ele><time>2015-11-26T11:19:33.0000000+00:00</time></trkpt><trkpt lat="29.93338932" lon="35.33631717"><ele>942.7</ele><time>2015-11-26T11:19:37.0000000+00:00</time></trkpt><trkpt lat="29.93316578" lon="35.33594543"><ele>942.2</ele><time>2015-11-26T11:19:50.0000000+00:00</time></trkpt><trkpt lat="29.93288146" lon="35.3355208"><ele>940.3</ele><time>2015-11-26T11:20:04.0000000+00:00</time></trkpt><trkpt lat="29.9328186" lon="35.33544838"><ele>940.3</ele><time>2015-11-26T11:20:06.0000000+00:00</time></trkpt><trkpt lat="29.93224092" lon="35.33502677"><ele>937.9</ele><time>2015-11-26T11:20:20.0000000+00:00</time></trkpt><trkpt lat="29.9322037" lon="35.33499953"><ele>937.4</ele><time>2015-11-26T11:20:21.0000000+00:00</time></trkpt><trkpt lat="29.93181327" lon="35.33474129"><ele>936.9</ele><time>2015-11-26T11:20:32.0000000+00:00</time></trkpt><trkpt lat="29.93168855" lon="35.33464397"><ele>936.9</ele><time>2015-11-26T11:20:40.0000000+00:00</time></trkpt><trkpt lat="29.93166609" lon="35.33461992"><ele>937.4</ele><time>2015-11-26T11:20:58.0000000+00:00</time></trkpt><trkpt lat="29.93160591" lon="35.33456057"><ele>937.4</ele><time>2015-11-26T11:21:12.0000000+00:00</time></trkpt><trkpt lat="29.93155846" lon="35.33449612"><ele>938.4</ele><time>2015-11-26T11:21:29.0000000+00:00</time></trkpt><trkpt lat="29.93150759" lon="35.33447055"><ele>938.4</ele><time>2015-11-26T11:21:53.0000000+00:00</time></trkpt><trkpt lat="29.93123526" lon="35.33429805"><ele>938.9</ele><time>2015-11-26T11:22:05.0000000+00:00</time></trkpt><trkpt lat="29.93080317" lon="35.33407409"><ele>939.4</ele><time>2015-11-26T11:22:18.0000000+00:00</time></trkpt><trkpt lat="29.93065079" lon="35.33404592"><ele>939.4</ele><time>2015-11-26T11:22:22.0000000+00:00</time></trkpt><trkpt lat="29.93022222" lon="35.33419085"><ele>940.3</ele><time>2015-11-26T11:22:34.0000000+00:00</time></trkpt><trkpt lat="29.93014469" lon="35.33421457"><ele>939.8</ele><time>2015-11-26T11:22:36.0000000+00:00</time></trkpt><trkpt lat="29.929969" lon="35.33422169"><ele>939.4</ele><time>2015-11-26T11:22:40.0000000+00:00</time></trkpt><trkpt lat="29.92942519" lon="35.33411331"><ele>940.8</ele><time>2015-11-26T11:22:55.0000000+00:00</time></trkpt><trkpt lat="29.92909293" lon="35.33425396"><ele>940.8</ele><time>2015-11-26T11:23:07.0000000+00:00</time></trkpt><trkpt lat="29.92868615" lon="35.33451372"><ele>939.8</ele><time>2015-11-26T11:23:22.0000000+00:00</time></trkpt><trkpt lat="29.92849857" lon="35.33461975"><ele>939.8</ele><time>2015-11-26T11:23:26.0000000+00:00</time></trkpt><trkpt lat="29.92820411" lon="35.33470047"><ele>940.3</ele><time>2015-11-26T11:23:33.0000000+00:00</time></trkpt><trkpt lat="29.9277732" lon="35.33477523"><ele>939.4</ele><time>2015-11-26T11:23:43.0000000+00:00</time></trkpt><trkpt lat="29.92768963" lon="35.33484933"><ele>939.4</ele><time>2015-11-26T11:23:45.0000000+00:00</time></trkpt><trkpt lat="29.92703903" lon="35.33541804"><ele>937.9</ele><time>2015-11-26T11:24:02.0000000+00:00</time></trkpt><trkpt lat="29.9269511" lon="35.33548107"><ele>937.9</ele><time>2015-11-26T11:24:04.0000000+00:00</time></trkpt><trkpt lat="29.9262186" lon="35.33577335"><ele>937.4</ele><time>2015-11-26T11:24:20.0000000+00:00</time></trkpt><trkpt lat="29.9251935" lon="35.33614643"><ele>936.5</ele><time>2015-11-26T11:24:38.0000000+00:00</time></trkpt><trkpt lat="29.92472428" lon="35.33625514"><ele>935.5</ele><time>2015-11-26T11:24:46.0000000+00:00</time></trkpt><trkpt lat="29.9244885" lon="35.33624768"><ele>935.0</ele><time>2015-11-26T11:24:50.0000000+00:00</time></trkpt><trkpt lat="29.92356129" lon="35.33601131"><ele>934.1</ele><time>2015-11-26T11:25:06.0000000+00:00</time></trkpt><trkpt lat="29.92332023" lon="35.33599564"><ele>933.6</ele><time>2015-11-26T11:25:10.0000000+00:00</time></trkpt><trkpt lat="29.92278161" lon="35.33577905"><ele>932.6</ele><time>2015-11-26T11:25:19.0000000+00:00</time></trkpt><trkpt lat="29.92243837" lon="35.3357275"><ele>932.1</ele><time>2015-11-26T11:25:25.0000000+00:00</time></trkpt><trkpt lat="29.92188927" lon="35.3357021"><ele>931.2</ele><time>2015-11-26T11:25:35.0000000+00:00</time></trkpt><trkpt lat="29.92111444" lon="35.33544646"><ele>929.3</ele><time>2015-11-26T11:25:51.0000000+00:00</time></trkpt><trkpt lat="29.92102643" lon="35.33542416"><ele>929.3</ele><time>2015-11-26T11:25:53.0000000+00:00</time></trkpt><trkpt lat="29.92058957" lon="35.3351634"><ele>928.8</ele><time>2015-11-26T11:26:06.0000000+00:00</time></trkpt><trkpt lat="29.91999119" lon="35.33476995"><ele>927.3</ele><time>2015-11-26T11:26:21.0000000+00:00</time></trkpt><trkpt lat="29.91945298" lon="35.33457231"><ele>926.9</ele><time>2015-11-26T11:26:32.0000000+00:00</time></trkpt><trkpt lat="29.91924402" lon="35.33452604"><ele>926.9</ele><time>2015-11-26T11:26:37.0000000+00:00</time></trkpt><trkpt lat="29.91902132" lon="35.33445722"><ele>926.9</ele><time>2015-11-26T11:26:42.0000000+00:00</time></trkpt><trkpt lat="29.91882811" lon="35.33444541"><ele>926.9</ele><time>2015-11-26T11:26:46.0000000+00:00</time></trkpt><trkpt lat="29.91851798" lon="35.3343558"><ele>925.9</ele><time>2015-11-26T11:26:53.0000000+00:00</time></trkpt><trkpt lat="29.9182527" lon="35.33425279"><ele>925.9</ele><time>2015-11-26T11:26:59.0000000+00:00</time></trkpt><trkpt lat="29.9181216" lon="35.33419127"><ele>925.4</ele><time>2015-11-26T11:27:02.0000000+00:00</time></trkpt><trkpt lat="29.91800962" lon="35.33411105"><ele>925.4</ele><time>2015-11-26T11:27:05.0000000+00:00</time></trkpt><trkpt lat="29.9175746" lon="35.3338466"><ele>924.9</ele><time>2015-11-26T11:27:16.0000000+00:00</time></trkpt><trkpt lat="29.91739783" lon="35.3337622"><ele>924.5</ele><time>2015-11-26T11:27:26.0000000+00:00</time></trkpt><trkpt lat="29.91730797" lon="35.33369506"><ele>924.0</ele><time>2015-11-26T11:27:46.0000000+00:00</time></trkpt><trkpt lat="29.91689525" lon="35.33350705"><ele>923.0</ele><time>2015-11-26T11:27:59.0000000+00:00</time></trkpt><trkpt lat="29.91668587" lon="35.33341468"><ele>923.0</ele><time>2015-11-26T11:28:04.0000000+00:00</time></trkpt><trkpt lat="29.91635269" lon="35.33323959"><ele>922.5</ele><time>2015-11-26T11:28:12.0000000+00:00</time></trkpt><trkpt lat="29.91588632" lon="35.33290716"><ele>921.1</ele><time>2015-11-26T11:28:24.0000000+00:00</time></trkpt><trkpt lat="29.91556378" lon="35.33273441"><ele>920.6</ele><time>2015-11-26T11:28:32.0000000+00:00</time></trkpt><trkpt lat="29.91506984" lon="35.3323081"><ele>920.1</ele><time>2015-11-26T11:28:46.0000000+00:00</time></trkpt><trkpt lat="29.91491083" lon="35.33219956"><ele>919.6</ele><time>2015-11-26T11:28:50.0000000+00:00</time></trkpt><trkpt lat="29.91481947" lon="35.33215296"><ele>919.6</ele><time>2015-11-26T11:28:52.0000000+00:00</time></trkpt><trkpt lat="29.91461956" lon="35.33207324"><ele>919.2</ele><time>2015-11-26T11:28:56.0000000+00:00</time></trkpt><trkpt lat="29.91391422" lon="35.33179278"><ele>916.8</ele><time>2015-11-26T11:29:09.0000000+00:00</time></trkpt><trkpt lat="29.91374969" lon="35.33166169"><ele>916.3</ele><time>2015-11-26T11:29:13.0000000+00:00</time></trkpt><trkpt lat="29.91364206" lon="35.33136296"><ele>916.3</ele><time>2015-11-26T11:29:20.0000000+00:00</time></trkpt><trkpt lat="29.91358574" lon="35.33110379"><ele>915.8</ele><time>2015-11-26T11:29:25.0000000+00:00</time></trkpt><trkpt lat="29.91351734" lon="35.33067925"><ele>915.3</ele><time>2015-11-26T11:29:33.0000000+00:00</time></trkpt><trkpt lat="29.9134813" lon="35.33042327"><ele>914.4</ele><time>2015-11-26T11:29:38.0000000+00:00</time></trkpt><trkpt lat="29.91344215" lon="35.33021238"><ele>914.4</ele><time>2015-11-26T11:29:42.0000000+00:00</time></trkpt><trkpt lat="29.91321433" lon="35.32975372"><ele>912.9</ele><time>2015-11-26T11:29:54.0000000+00:00</time></trkpt><trkpt lat="29.91321785" lon="35.32974425"><ele>912.9</ele><time>2015-11-26T11:30:15.0000000+00:00</time></trkpt><trkpt lat="29.91319078" lon="35.32972422"><ele>912.9</ele><time>2015-11-26T11:30:34.0000000+00:00</time></trkpt><trkpt lat="29.91317636" lon="35.3297212"><ele>912.9</ele><time>2015-11-26T11:30:58.0000000+00:00</time></trkpt><trkpt lat="29.91321601" lon="35.32978674"><ele>913.4</ele><time>2015-11-26T11:31:11.0000000+00:00</time></trkpt><trkpt lat="29.91323487" lon="35.32983016"><ele>913.4</ele><time>2015-11-26T11:31:27.0000000+00:00</time></trkpt><trkpt lat="29.91323889" lon="35.32982128"><ele>913.4</ele><time>2015-11-26T11:31:39.0000000+00:00</time></trkpt><trkpt lat="29.91315113" lon="35.3300838"><ele>913.9</ele><time>2015-11-26T11:31:50.0000000+00:00</time></trkpt><trkpt lat="29.91312129" lon="35.33010517"><ele>913.9</ele><time>2015-11-26T11:31:51.0000000+00:00</time></trkpt><trkpt lat="29.91297495" lon="35.33010987"><ele>913.9</ele><time>2015-11-26T11:31:55.0000000+00:00</time></trkpt><trkpt lat="29.91249709" lon="35.33012521"><ele>913.9</ele><time>2015-11-26T11:32:07.0000000+00:00</time></trkpt><trkpt lat="29.91212896" lon="35.33014842"><ele>913.4</ele><time>2015-11-26T11:32:15.0000000+00:00</time></trkpt><trkpt lat="29.91135045" lon="35.33005061"><ele>912.4</ele><time>2015-11-26T11:32:30.0000000+00:00</time></trkpt><trkpt lat="29.91008839" lon="35.32997224"><ele>910.0</ele><time>2015-11-26T11:32:50.0000000+00:00</time></trkpt><trkpt lat="29.90985638" lon="35.32993854"><ele>910.0</ele><time>2015-11-26T11:32:54.0000000+00:00</time></trkpt><trkpt lat="29.90954499" lon="35.3297383"><ele>909.5</ele><time>2015-11-26T11:33:02.0000000+00:00</time></trkpt><trkpt lat="29.9094786" lon="35.32970024"><ele>909.5</ele><time>2015-11-26T11:33:12.0000000+00:00</time></trkpt><trkpt lat="29.90935732" lon="35.32964735"><ele>909.5</ele><time>2015-11-26T11:33:27.0000000+00:00</time></trkpt><trkpt lat="29.90919027" lon="35.32957275"><ele>909.1</ele><time>2015-11-26T11:33:45.0000000+00:00</time></trkpt><trkpt lat="29.90911751" lon="35.3295259"><ele>909.5</ele><time>2015-11-26T11:33:53.0000000+00:00</time></trkpt><trkpt lat="29.90892062" lon="35.32940302"><ele>909.1</ele><time>2015-11-26T11:34:16.0000000+00:00</time></trkpt><trkpt lat="29.90879162" lon="35.32927511"><ele>908.6</ele><time>2015-11-26T11:34:35.0000000+00:00</time></trkpt><trkpt lat="29.90875323" lon="35.32925793"><ele>909.1</ele><time>2015-11-26T11:34:52.0000000+00:00</time></trkpt><trkpt lat="29.90873773" lon="35.32924787"><ele>909.1</ele><time>2015-11-26T11:35:11.0000000+00:00</time></trkpt><trkpt lat="29.90867017" lon="35.3291384"><ele>909.1</ele><time>2015-11-26T11:35:27.0000000+00:00</time></trkpt><trkpt lat="29.90862616" lon="35.32902299"><ele>908.6</ele><time>2015-11-26T11:35:42.0000000+00:00</time></trkpt><trkpt lat="29.90860797" lon="35.32899675"><ele>908.6</ele><time>2015-11-26T11:35:45.0000000+00:00</time></trkpt><trkpt lat="29.90849951" lon="35.32885275"><ele>908.6</ele><time>2015-11-26T11:36:02.0000000+00:00</time></trkpt><trkpt lat="29.90847487" lon="35.32881863"><ele>909.1</ele><time>2015-11-26T11:36:05.0000000+00:00</time></trkpt><trkpt lat="29.90825065" lon="35.32863901"><ele>909.1</ele><time>2015-11-26T11:36:18.0000000+00:00</time></trkpt><trkpt lat="29.90781077" lon="35.32855125"><ele>910.0</ele><time>2015-11-26T11:36:33.0000000+00:00</time></trkpt><trkpt lat="29.9076112" lon="35.32849501"><ele>912.0</ele><time>2015-11-26T11:36:44.0000000+00:00</time></trkpt><trkpt lat="29.90753761" lon="35.32847607"><ele>912.4</ele><time>2015-11-26T11:36:49.0000000+00:00</time></trkpt><trkpt lat="29.90719772" lon="35.32837121"><ele>912.4</ele><time>2015-11-26T11:37:03.0000000+00:00</time></trkpt><trkpt lat="29.90682263" lon="35.3282381"><ele>912.4</ele><time>2015-11-26T11:37:16.0000000+00:00</time></trkpt><trkpt lat="29.90672783" lon="35.32818169"><ele>912.4</ele><time>2015-11-26T11:37:20.0000000+00:00</time></trkpt><trkpt lat="29.90666136" lon="35.32806418"><ele>912.4</ele><time>2015-11-26T11:37:24.0000000+00:00</time></trkpt><trkpt lat="29.90628543" lon="35.32782001"><ele>912.9</ele><time>2015-11-26T11:37:38.0000000+00:00</time></trkpt><trkpt lat="29.90605661" lon="35.32774198"><ele>913.4</ele><time>2015-11-26T11:37:46.0000000+00:00</time></trkpt><trkpt lat="29.90606683" lon="35.32769454"><ele>913.4</ele><time>2015-11-26T11:37:54.0000000+00:00</time></trkpt><trkpt lat="29.90617144" lon="35.3273984"><ele>913.9</ele><time>2015-11-26T11:38:06.0000000+00:00</time></trkpt><trkpt lat="29.90618007" lon="35.32695726"><ele>914.8</ele><time>2015-11-26T11:38:18.0000000+00:00</time></trkpt><trkpt lat="29.90637168" lon="35.32638252"><ele>916.3</ele><time>2015-11-26T11:38:33.0000000+00:00</time></trkpt><trkpt lat="29.906427" lon="35.32630473"><ele>916.3</ele><time>2015-11-26T11:38:35.0000000+00:00</time></trkpt><trkpt lat="29.90651837" lon="35.3259832"><ele>916.8</ele><time>2015-11-26T11:38:43.0000000+00:00</time></trkpt><trkpt lat="29.90647763" lon="35.32595445"><ele>917.2</ele><time>2015-11-26T11:38:47.0000000+00:00</time></trkpt><trkpt lat="29.90641753" lon="35.32591674"><ele>917.2</ele><time>2015-11-26T11:38:52.0000000+00:00</time></trkpt><trkpt lat="29.90634109" lon="35.32586921"><ele>917.2</ele><time>2015-11-26T11:38:56.0000000+00:00</time></trkpt><trkpt lat="29.90624973" lon="35.32578975"><ele>917.7</ele><time>2015-11-26T11:39:01.0000000+00:00</time></trkpt><trkpt lat="29.90585024" lon="35.32550192"><ele>918.7</ele><time>2015-11-26T11:39:17.0000000+00:00</time></trkpt><trkpt lat="29.9054656" lon="35.32530125"><ele>918.2</ele><time>2015-11-26T11:39:30.0000000+00:00</time></trkpt><trkpt lat="29.90500015" lon="35.32497293"><ele>917.7</ele><time>2015-11-26T11:39:43.0000000+00:00</time></trkpt><trkpt lat="29.90479496" lon="35.32480597"><ele>918.2</ele><time>2015-11-26T11:39:54.0000000+00:00</time></trkpt><trkpt lat="29.9046798" lon="35.32474386"><ele>917.7</ele><time>2015-11-26T11:40:07.0000000+00:00</time></trkpt><trkpt lat="29.90467812" lon="35.32475106"><ele>917.7</ele><time>2015-11-26T11:40:32.0000000+00:00</time></trkpt><trkpt lat="29.90471215" lon="35.32477135"><ele>917.7</ele><time>2015-11-26T11:40:43.0000000+00:00</time></trkpt><trkpt lat="29.90466756" lon="35.32475115"><ele>917.7</ele><time>2015-11-26T11:41:15.0000000+00:00</time></trkpt><trkpt lat="29.90436749" lon="35.32458535"><ele>917.7</ele><time>2015-11-26T11:41:29.0000000+00:00</time></trkpt><trkpt lat="29.90404327" lon="35.32434664"><ele>916.8</ele><time>2015-11-26T11:41:45.0000000+00:00</time></trkpt><trkpt lat="29.90365905" lon="35.3239899"><ele>916.3</ele><time>2015-11-26T11:41:58.0000000+00:00</time></trkpt><trkpt lat="29.90316527" lon="35.323504"><ele>916.3</ele><time>2015-11-26T11:42:14.0000000+00:00</time></trkpt><trkpt lat="29.90271818" lon="35.32315247"><ele>916.8</ele><time>2015-11-26T11:42:27.0000000+00:00</time></trkpt><trkpt lat="29.90236555" lon="35.32285935"><ele>916.3</ele><time>2015-11-26T11:42:40.0000000+00:00</time></trkpt><trkpt lat="29.9023306" lon="35.32283077"><ele>916.3</ele><time>2015-11-26T11:42:47.0000000+00:00</time></trkpt><trkpt lat="29.90211569" lon="35.3226498"><ele>916.3</ele><time>2015-11-26T11:43:00.0000000+00:00</time></trkpt><trkpt lat="29.90205224" lon="35.32261225"><ele>916.3</ele><time>2015-11-26T11:43:10.0000000+00:00</time></trkpt><trkpt lat="29.90203732" lon="35.32259314"><ele>916.3</ele><time>2015-11-26T11:43:14.0000000+00:00</time></trkpt><trkpt lat="29.90202039" lon="35.32258409"><ele>916.3</ele><time>2015-11-26T11:43:16.0000000+00:00</time></trkpt><trkpt lat="29.90190337" lon="35.32248619"><ele>916.8</ele><time>2015-11-26T11:43:23.0000000+00:00</time></trkpt><trkpt lat="29.90182702" lon="35.32224655"><ele>917.2</ele><time>2015-11-26T11:43:29.0000000+00:00</time></trkpt><trkpt lat="29.90159735" lon="35.32191723"><ele>917.7</ele><time>2015-11-26T11:43:40.0000000+00:00</time></trkpt><trkpt lat="29.90125847" lon="35.3216568"><ele>918.2</ele><time>2015-11-26T11:43:51.0000000+00:00</time></trkpt><trkpt lat="29.90101246" lon="35.32135078"><ele>918.7</ele><time>2015-11-26T11:44:02.0000000+00:00</time></trkpt><trkpt lat="29.90065481" lon="35.32097409"><ele>917.7</ele><time>2015-11-26T11:44:16.0000000+00:00</time></trkpt><trkpt lat="29.90010822" lon="35.32062189"><ele>916.8</ele><time>2015-11-26T11:44:31.0000000+00:00</time></trkpt><trkpt lat="29.89992348" lon="35.32049356"><ele>917.2</ele><time>2015-11-26T11:44:37.0000000+00:00</time></trkpt><trkpt lat="29.89981117" lon="35.32032399"><ele>915.8</ele><time>2015-11-26T11:44:41.0000000+00:00</time></trkpt><trkpt lat="29.89978979" lon="35.32026272"><ele>914.8</ele><time>2015-11-26T11:44:42.0000000+00:00</time></trkpt><trkpt lat="29.89964881" lon="35.32006449"><ele>914.4</ele><time>2015-11-26T11:44:46.0000000+00:00</time></trkpt><trkpt lat="29.89956943" lon="35.32001428"><ele>913.9</ele><time>2015-11-26T11:44:48.0000000+00:00</time></trkpt><trkpt lat="29.89914313" lon="35.31971253"><ele>916.3</ele><time>2015-11-26T11:45:02.0000000+00:00</time></trkpt><trkpt lat="29.89872638" lon="35.31951212"><ele>915.8</ele><time>2015-11-26T11:45:17.0000000+00:00</time></trkpt><trkpt lat="29.8982606" lon="35.31937449"><ele>915.3</ele><time>2015-11-26T11:45:28.0000000+00:00</time></trkpt><trkpt lat="29.89816714" lon="35.31935781"><ele>915.8</ele><time>2015-11-26T11:45:30.0000000+00:00</time></trkpt><trkpt lat="29.89745233" lon="35.31947281"><ele>913.4</ele><time>2015-11-26T11:45:45.0000000+00:00</time></trkpt><trkpt lat="29.89723591" lon="35.31947843"><ele>912.9</ele><time>2015-11-26T11:45:49.0000000+00:00</time></trkpt><trkpt lat="29.89658481" lon="35.31935639"><ele>911.5</ele><time>2015-11-26T11:46:01.0000000+00:00</time></trkpt><trkpt lat="29.89628264" lon="35.31913477"><ele>910.5</ele><time>2015-11-26T11:46:08.0000000+00:00</time></trkpt><trkpt lat="29.89610469" lon="35.31875675"><ele>912.0</ele><time>2015-11-26T11:46:18.0000000+00:00</time></trkpt><trkpt lat="29.8961062" lon="35.3186995"><ele>912.0</ele><time>2015-11-26T11:46:20.0000000+00:00</time></trkpt><trkpt lat="29.89599723" lon="35.3181214"><ele>912.9</ele><time>2015-11-26T11:46:34.0000000+00:00</time></trkpt><trkpt lat="29.89596739" lon="35.31802593"><ele>912.4</ele><time>2015-11-26T11:46:36.0000000+00:00</time></trkpt><trkpt lat="29.89591258" lon="35.31790146"><ele>912.9</ele><time>2015-11-26T11:46:39.0000000+00:00</time></trkpt><trkpt lat="29.89574594" lon="35.31769761"><ele>912.9</ele><time>2015-11-26T11:46:45.0000000+00:00</time></trkpt><trkpt lat="29.89542332" lon="35.31751899"><ele>913.4</ele><time>2015-11-26T11:46:54.0000000+00:00</time></trkpt><trkpt lat="29.89500917" lon="35.31719042"><ele>913.4</ele><time>2015-11-26T11:47:07.0000000+00:00</time></trkpt><trkpt lat="29.89431331" lon="35.31695405"><ele>913.9</ele><time>2015-11-26T11:47:25.0000000+00:00</time></trkpt><trkpt lat="29.89411583" lon="35.31692312"><ele>914.4</ele><time>2015-11-26T11:47:30.0000000+00:00</time></trkpt><trkpt lat="29.89397896" lon="35.31690049"><ele>913.9</ele><time>2015-11-26T11:47:34.0000000+00:00</time></trkpt><trkpt lat="29.89365022" lon="35.31688649"><ele>914.4</ele><time>2015-11-26T11:47:47.0000000+00:00</time></trkpt><trkpt lat="29.89338811" lon="35.31655021"><ele>914.4</ele><time>2015-11-26T11:47:59.0000000+00:00</time></trkpt><trkpt lat="29.89323632" lon="35.31637059"><ele>914.4</ele><time>2015-11-26T11:48:04.0000000+00:00</time></trkpt><trkpt lat="29.8928629" lon="35.31593741"><ele>915.8</ele><time>2015-11-26T11:48:18.0000000+00:00</time></trkpt><trkpt lat="29.89241221" lon="35.3155137"><ele>915.3</ele><time>2015-11-26T11:48:32.0000000+00:00</time></trkpt><trkpt lat="29.89225773" lon="35.31530315"><ele>914.8</ele><time>2015-11-26T11:48:38.0000000+00:00</time></trkpt><trkpt lat="29.89198624" lon="35.31500341"><ele>914.8</ele><time>2015-11-26T11:48:48.0000000+00:00</time></trkpt><trkpt lat="29.89186378" lon="35.31487819"><ele>914.8</ele><time>2015-11-26T11:48:52.0000000+00:00</time></trkpt><trkpt lat="29.89155843" lon="35.3145041"><ele>915.3</ele><time>2015-11-26T11:49:03.0000000+00:00</time></trkpt><trkpt lat="29.89150487" lon="35.3144352"><ele>915.3</ele><time>2015-11-26T11:49:05.0000000+00:00</time></trkpt><trkpt lat="29.89134913" lon="35.31429028"><ele>914.8</ele><time>2015-11-26T11:49:10.0000000+00:00</time></trkpt><trkpt lat="29.8909458" lon="35.31398032"><ele>915.8</ele><time>2015-11-26T11:49:23.0000000+00:00</time></trkpt><trkpt lat="29.89052695" lon="35.31355661"><ele>916.3</ele><time>2015-11-26T11:49:36.0000000+00:00</time></trkpt><trkpt lat="29.89007031" lon="35.313292"><ele>916.3</ele><time>2015-11-26T11:49:49.0000000+00:00</time></trkpt><trkpt lat="29.88963596" lon="35.31307918"><ele>916.8</ele><time>2015-11-26T11:50:01.0000000+00:00</time></trkpt><trkpt lat="29.88925508" lon="35.31292185"><ele>916.8</ele><time>2015-11-26T11:50:11.0000000+00:00</time></trkpt><trkpt lat="29.88903648" lon="35.3128895"><ele>917.2</ele><time>2015-11-26T11:50:17.0000000+00:00</time></trkpt><trkpt lat="29.88876055" lon="35.31268884"><ele>917.7</ele><time>2015-11-26T11:50:30.0000000+00:00</time></trkpt><trkpt lat="29.88846542" lon="35.3121974"><ele>918.7</ele><time>2015-11-26T11:50:45.0000000+00:00</time></trkpt><trkpt lat="29.88824062" lon="35.31195072"><ele>918.7</ele><time>2015-11-26T11:50:57.0000000+00:00</time></trkpt><trkpt lat="29.88806586" lon="35.3119286"><ele>918.7</ele><time>2015-11-26T11:51:07.0000000+00:00</time></trkpt><trkpt lat="29.88802311" lon="35.31192415"><ele>918.7</ele><time>2015-11-26T11:51:13.0000000+00:00</time></trkpt><trkpt lat="29.8879185" lon="35.31189222"><ele>919.2</ele><time>2015-11-26T11:51:21.0000000+00:00</time></trkpt><trkpt lat="29.88782723" lon="35.31184553"><ele>919.6</ele><time>2015-11-26T11:51:28.0000000+00:00</time></trkpt><trkpt lat="29.88756236" lon="35.31160355"><ele>920.1</ele><time>2015-11-26T11:51:41.0000000+00:00</time></trkpt><trkpt lat="29.88747401" lon="35.31154638"><ele>920.1</ele><time>2015-11-26T11:51:45.0000000+00:00</time></trkpt><trkpt lat="29.88737745" lon="35.31155049"><ele>920.1</ele><time>2015-11-26T11:51:49.0000000+00:00</time></trkpt><trkpt lat="29.88697722" lon="35.31175358"><ele>920.6</ele><time>2015-11-26T11:52:03.0000000+00:00</time></trkpt><trkpt lat="29.88661705" lon="35.31187596"><ele>920.1</ele><time>2015-11-26T11:52:18.0000000+00:00</time></trkpt><trkpt lat="29.88629233" lon="35.3119255"><ele>920.6</ele><time>2015-11-26T11:52:29.0000000+00:00</time></trkpt><trkpt lat="29.88585832" lon="35.31203848"><ele>921.1</ele><time>2015-11-26T11:52:42.0000000+00:00</time></trkpt><trkpt lat="29.88524124" lon="35.31216798"><ele>921.6</ele><time>2015-11-26T11:52:57.0000000+00:00</time></trkpt><trkpt lat="29.88484427" lon="35.31221065"><ele>921.6</ele><time>2015-11-26T11:53:06.0000000+00:00</time></trkpt><trkpt lat="29.88434698" lon="35.31225809"><ele>922.0</ele><time>2015-11-26T11:53:17.0000000+00:00</time></trkpt><trkpt lat="29.88416517" lon="35.31229187"><ele>921.6</ele><time>2015-11-26T11:53:21.0000000+00:00</time></trkpt><trkpt lat="29.88364348" lon="35.31246898"><ele>921.1</ele><time>2015-11-26T11:53:35.0000000+00:00</time></trkpt><trkpt lat="29.88356511" lon="35.31246353"><ele>921.1</ele><time>2015-11-26T11:53:37.0000000+00:00</time></trkpt><trkpt lat="29.88279356" lon="35.31263159"><ele>921.1</ele><time>2015-11-26T11:53:54.0000000+00:00</time></trkpt><trkpt lat="29.88241989" lon="35.3127367"><ele>921.1</ele><time>2015-11-26T11:54:02.0000000+00:00</time></trkpt><trkpt lat="29.88217095" lon="35.31286821"><ele>920.6</ele><time>2015-11-26T11:54:08.0000000+00:00</time></trkpt><trkpt lat="29.88176392" lon="35.31325109"><ele>919.6</ele><time>2015-11-26T11:54:22.0000000+00:00</time></trkpt><trkpt lat="29.88121005" lon="35.31347648"><ele>918.2</ele><time>2015-11-26T11:54:38.0000000+00:00</time></trkpt><trkpt lat="29.88103026" lon="35.31348134"><ele>918.2</ele><time>2015-11-26T11:54:47.0000000+00:00</time></trkpt><trkpt lat="29.88105884" lon="35.313436"><ele>918.2</ele><time>2015-11-26T11:54:59.0000000+00:00</time></trkpt><trkpt lat="29.88111952" lon="35.31335847"><ele>918.2</ele><time>2015-11-26T11:55:04.0000000+00:00</time></trkpt><trkpt lat="29.8813393" lon="35.31305647"><ele>921.1</ele><time>2015-11-26T11:55:20.0000000+00:00</time></trkpt><trkpt lat="29.88135598" lon="35.31302202"><ele>922.0</ele><time>2015-11-26T11:55:29.0000000+00:00</time></trkpt><trkpt lat="29.88138305" lon="35.31300433"><ele>922.0</ele><time>2015-11-26T11:55:41.0000000+00:00</time></trkpt><trkpt lat="29.88138414" lon="35.31297365"><ele>922.0</ele><time>2015-11-26T11:55:58.0000000+00:00</time></trkpt><trkpt lat="29.8813714" lon="35.31297139"><ele>922.0</ele><time>2015-11-26T11:56:30.0000000+00:00</time></trkpt><trkpt lat="29.88138188" lon="35.31296452"><ele>922.0</ele><time>2015-11-26T11:57:10.0000000+00:00</time></trkpt><trkpt lat="29.8813797" lon="35.3129755"><ele>922.0</ele><time>2015-11-26T11:57:46.0000000+00:00</time></trkpt><trkpt lat="29.88137274" lon="35.31297793"><ele>922.0</ele><time>2015-11-26T11:58:28.0000000+00:00</time></trkpt><trkpt lat="29.88137316" lon="35.31296829"><ele>921.6</ele><time>2015-11-26T11:59:27.0000000+00:00</time></trkpt><trkpt lat="29.88137442" lon="35.31298279"><ele>922.0</ele><time>2015-11-26T12:00:15.0000000+00:00</time></trkpt><trkpt lat="29.88137308" lon="35.3129563"><ele>922.0</ele><time>2015-11-26T12:00:48.0000000+00:00</time></trkpt><trkpt lat="29.88137467" lon="35.31296385"><ele>922.0</ele><time>2015-11-26T12:01:30.0000000+00:00</time></trkpt><trkpt lat="29.88136587" lon="35.31296217"><ele>922.0</ele><time>2015-11-26T12:02:24.0000000+00:00</time></trkpt><trkpt lat="29.88137601" lon="35.31296175"><ele>922.0</ele><time>2015-11-26T12:03:01.0000000+00:00</time></trkpt><trkpt lat="29.88137366" lon="35.31296024"><ele>922.5</ele><time>2015-11-26T12:03:43.0000000+00:00</time></trkpt><trkpt lat="29.88137065" lon="35.31295337"><ele>922.5</ele><time>2015-11-26T12:04:25.0000000+00:00</time></trkpt><trkpt lat="29.88137626" lon="35.31295002"><ele>922.0</ele><time>2015-11-26T12:05:09.0000000+00:00</time></trkpt><trkpt lat="29.88137735" lon="35.31295907"><ele>922.5</ele><time>2015-11-26T12:05:55.0000000+00:00</time></trkpt><trkpt lat="29.88137718" lon="35.31295354"><ele>922.0</ele><time>2015-11-26T12:06:25.0000000+00:00</time></trkpt><trkpt lat="29.88136495" lon="35.3129594"><ele>922.0</ele><time>2015-11-26T12:07:05.0000000+00:00</time></trkpt><trkpt lat="29.8813631" lon="35.31295806"><ele>922.5</ele><time>2015-11-26T12:07:39.0000000+00:00</time></trkpt><trkpt lat="29.88137333" lon="35.3129589"><ele>922.5</ele><time>2015-11-26T12:08:06.0000000+00:00</time></trkpt><trkpt lat="29.88137249" lon="35.31296234"><ele>922.0</ele><time>2015-11-26T12:08:38.0000000+00:00</time></trkpt><trkpt lat="29.88137224" lon="35.31296963"><ele>922.0</ele><time>2015-11-26T12:09:13.0000000+00:00</time></trkpt><trkpt lat="29.88136796" lon="35.31297826"><ele>922.5</ele><time>2015-11-26T12:09:47.0000000+00:00</time></trkpt><trkpt lat="29.88137224" lon="35.31297457"><ele>922.5</ele><time>2015-11-26T12:10:16.0000000+00:00</time></trkpt><trkpt lat="29.88137634" lon="35.3129734"><ele>922.5</ele><time>2015-11-26T12:10:50.0000000+00:00</time></trkpt><trkpt lat="29.88137081" lon="35.31297256"><ele>922.5</ele><time>2015-11-26T12:11:17.0000000+00:00</time></trkpt><trkpt lat="29.88136872" lon="35.31296846"><ele>922.5</ele><time>2015-11-26T12:11:50.0000000+00:00</time></trkpt><trkpt lat="29.8813714" lon="35.31296711"><ele>922.5</ele><time>2015-11-26T12:12:20.0000000+00:00</time></trkpt><trkpt lat="29.8813714" lon="35.31296452"><ele>922.5</ele><time>2015-11-26T12:12:48.0000000+00:00</time></trkpt><trkpt lat="29.8813678" lon="35.31296376"><ele>922.5</ele><time>2015-11-26T12:13:21.0000000+00:00</time></trkpt><trkpt lat="29.88137207" lon="35.31296837"><ele>922.5</ele><time>2015-11-26T12:13:48.0000000+00:00</time></trkpt><trkpt lat="29.88136838" lon="35.31296946"><ele>923.0</ele><time>2015-11-26T12:14:15.0000000+00:00</time></trkpt><trkpt lat="29.88136997" lon="35.31297047"><ele>922.5</ele><time>2015-11-26T12:14:43.0000000+00:00</time></trkpt><trkpt lat="29.88137626" lon="35.31297156"><ele>923.0</ele><time>2015-11-26T12:15:09.0000000+00:00</time></trkpt><trkpt lat="29.8813833" lon="35.31297038"><ele>922.5</ele><time>2015-11-26T12:15:33.0000000+00:00</time></trkpt><trkpt lat="29.88138464" lon="35.31297172"><ele>923.0</ele><time>2015-11-26T12:15:58.0000000+00:00</time></trkpt><trkpt lat="29.88137995" lon="35.31297667"><ele>923.0</ele><time>2015-11-26T12:16:26.0000000+00:00</time></trkpt><trkpt lat="29.88138598" lon="35.31297675"><ele>923.0</ele><time>2015-11-26T12:16:54.0000000+00:00</time></trkpt><trkpt lat="29.88138213" lon="35.31297734"><ele>923.0</ele><time>2015-11-26T12:17:29.0000000+00:00</time></trkpt><trkpt lat="29.88138649" lon="35.31298455"><ele>923.0</ele><time>2015-11-26T12:18:01.0000000+00:00</time></trkpt><trkpt lat="29.88137878" lon="35.31297181"><ele>923.0</ele><time>2015-11-26T12:18:34.0000000+00:00</time></trkpt><trkpt lat="29.88138339" lon="35.3129817"><ele>922.5</ele><time>2015-11-26T12:19:08.0000000+00:00</time></trkpt><trkpt lat="29.88138422" lon="35.31298396"><ele>922.5</ele><time>2015-11-26T12:19:43.0000000+00:00</time></trkpt><trkpt lat="29.8813828" lon="35.31297809"><ele>922.5</ele><time>2015-11-26T12:20:18.0000000+00:00</time></trkpt><trkpt lat="29.88138825" lon="35.31298094"><ele>922.5</ele><time>2015-11-26T12:20:49.0000000+00:00</time></trkpt><trkpt lat="29.88137961" lon="35.31297868"><ele>922.5</ele><time>2015-11-26T12:21:24.0000000+00:00</time></trkpt><trkpt lat="29.88138188" lon="35.3129812"><ele>922.5</ele><time>2015-11-26T12:21:57.0000000+00:00</time></trkpt><trkpt lat="29.88137928" lon="35.31298187"><ele>923.0</ele><time>2015-11-26T12:22:27.0000000+00:00</time></trkpt><trkpt lat="29.88137928" lon="35.31298564"><ele>922.5</ele><time>2015-11-26T12:22:53.0000000+00:00</time></trkpt><trkpt lat="29.88138012" lon="35.31299335"><ele>922.5</ele><time>2015-11-26T12:23:24.0000000+00:00</time></trkpt><trkpt lat="29.88138204" lon="35.31299142"><ele>923.0</ele><time>2015-11-26T12:23:55.0000000+00:00</time></trkpt><trkpt lat="29.8813859" lon="35.31299653"><ele>923.0</ele><time>2015-11-26T12:24:33.0000000+00:00</time></trkpt><trkpt lat="29.88138213" lon="35.31298656"><ele>923.5</ele><time>2015-11-26T12:25:02.0000000+00:00</time></trkpt><trkpt lat="29.88137785" lon="35.3129812"><ele>923.5</ele><time>2015-11-26T12:25:40.0000000+00:00</time></trkpt><trkpt lat="29.88138288" lon="35.31297516"><ele>923.5</ele><time>2015-11-26T12:26:13.0000000+00:00</time></trkpt><trkpt lat="29.88139068" lon="35.31297172"><ele>924.0</ele><time>2015-11-26T12:26:40.0000000+00:00</time></trkpt><trkpt lat="29.88138607" lon="35.3129755"><ele>924.0</ele><time>2015-11-26T12:27:11.0000000+00:00</time></trkpt><trkpt lat="29.88139118" lon="35.31298346"><ele>924.0</ele><time>2015-11-26T12:27:41.0000000+00:00</time></trkpt><trkpt lat="29.88139856" lon="35.3129879"><ele>924.5</ele><time>2015-11-26T12:28:15.0000000+00:00</time></trkpt><trkpt lat="29.88140484" lon="35.31298421"><ele>924.5</ele><time>2015-11-26T12:28:49.0000000+00:00</time></trkpt><trkpt lat="29.88139051" lon="35.3129926"><ele>924.9</ele><time>2015-11-26T12:29:22.0000000+00:00</time></trkpt><trkpt lat="29.88139252" lon="35.31299402"><ele>925.4</ele><time>2015-11-26T12:29:48.0000000+00:00</time></trkpt><trkpt lat="29.88138892" lon="35.31299419"><ele>925.4</ele><time>2015-11-26T12:30:15.0000000+00:00</time></trkpt><trkpt lat="29.88138691" lon="35.31299083"><ele>925.9</ele><time>2015-11-26T12:30:48.0000000+00:00</time></trkpt><trkpt lat="29.88138556" lon="35.31299545"><ele>925.4</ele><time>2015-11-26T12:31:16.0000000+00:00</time></trkpt><trkpt lat="29.88138355" lon="35.31301271"><ele>925.9</ele><time>2015-11-26T12:31:33.0000000+00:00</time></trkpt><trkpt lat="29.88138841" lon="35.31300131"><ele>926.4</ele><time>2015-11-26T12:31:58.0000000+00:00</time></trkpt><trkpt lat="29.88137609" lon="35.31300332"><ele>925.9</ele><time>2015-11-26T12:32:20.0000000+00:00</time></trkpt><trkpt lat="29.88128792" lon="35.31306292"><ele>924.9</ele><time>2015-11-26T12:32:25.0000000+00:00</time></trkpt><trkpt lat="29.88123176" lon="35.31313559"><ele>924.5</ele><time>2015-11-26T12:32:27.0000000+00:00</time></trkpt><trkpt lat="29.88111961" lon="35.31332737"><ele>923.0</ele><time>2015-11-26T12:32:31.0000000+00:00</time></trkpt><trkpt lat="29.88084032" lon="35.31353884"><ele>922.0</ele><time>2015-11-26T12:32:38.0000000+00:00</time></trkpt><trkpt lat="29.88045283" lon="35.31361814"><ele>922.0</ele><time>2015-11-26T12:32:50.0000000+00:00</time></trkpt><trkpt lat="29.88005024" lon="35.31388309"><ele>922.0</ele><time>2015-11-26T12:33:03.0000000+00:00</time></trkpt><trkpt lat="29.87966359" lon="35.31424242"><ele>921.6</ele><time>2015-11-26T12:33:17.0000000+00:00</time></trkpt><trkpt lat="29.87957667" lon="35.31428651"><ele>921.6</ele><time>2015-11-26T12:33:27.0000000+00:00</time></trkpt><trkpt lat="29.87954892" lon="35.31430629"><ele>921.6</ele><time>2015-11-26T12:33:40.0000000+00:00</time></trkpt><trkpt lat="29.87947064" lon="35.31431182"><ele>920.6</ele><time>2015-11-26T12:33:57.0000000+00:00</time></trkpt><trkpt lat="29.87925857" lon="35.31435667"><ele>921.1</ele><time>2015-11-26T12:34:07.0000000+00:00</time></trkpt><trkpt lat="29.87895733" lon="35.31438952"><ele>921.1</ele><time>2015-11-26T12:34:18.0000000+00:00</time></trkpt><trkpt lat="29.87848668" lon="35.31442238"><ele>921.1</ele><time>2015-11-26T12:34:32.0000000+00:00</time></trkpt><trkpt lat="29.87807589" lon="35.31441903"><ele>921.6</ele><time>2015-11-26T12:34:43.0000000+00:00</time></trkpt><trkpt lat="29.87740902" lon="35.31450762"><ele>922.0</ele><time>2015-11-26T12:34:59.0000000+00:00</time></trkpt><trkpt lat="29.87690183" lon="35.31456278"><ele>922.0</ele><time>2015-11-26T12:35:11.0000000+00:00</time></trkpt><trkpt lat="29.87676772" lon="35.31457149"><ele>922.0</ele><time>2015-11-26T12:35:14.0000000+00:00</time></trkpt><trkpt lat="29.87638375" lon="35.3145647"><ele>922.5</ele><time>2015-11-26T12:35:23.0000000+00:00</time></trkpt><trkpt lat="29.87616448" lon="35.31450544"><ele>922.0</ele><time>2015-11-26T12:35:28.0000000+00:00</time></trkpt><trkpt lat="29.8757432" lon="35.31442355"><ele>922.5</ele><time>2015-11-26T12:35:38.0000000+00:00</time></trkpt><trkpt lat="29.87529108" lon="35.31438248"><ele>923.0</ele><time>2015-11-26T12:35:50.0000000+00:00</time></trkpt><trkpt lat="29.87482622" lon="35.31459907"><ele>923.5</ele><time>2015-11-26T12:36:05.0000000+00:00</time></trkpt><trkpt lat="29.87451131" lon="35.31478347"><ele>922.5</ele><time>2015-11-26T12:36:20.0000000+00:00</time></trkpt><trkpt lat="29.87437628" lon="35.31486218"><ele>922.0</ele><time>2015-11-26T12:36:24.0000000+00:00</time></trkpt><trkpt lat="29.87409364" lon="35.31499436"><ele>920.6</ele><time>2015-11-26T12:36:30.0000000+00:00</time></trkpt><trkpt lat="29.87389348" lon="35.31512789"><ele>920.6</ele><time>2015-11-26T12:36:35.0000000+00:00</time></trkpt><trkpt lat="29.87375434" lon="35.31535847"><ele>920.1</ele><time>2015-11-26T12:36:41.0000000+00:00</time></trkpt><trkpt lat="29.87362166" lon="35.31544288"><ele>919.6</ele><time>2015-11-26T12:36:45.0000000+00:00</time></trkpt><trkpt lat="29.87317943" lon="35.31570699"><ele>918.2</ele><time>2015-11-26T12:36:58.0000000+00:00</time></trkpt><trkpt lat="29.87305027" lon="35.31576005"><ele>917.7</ele><time>2015-11-26T12:37:01.0000000+00:00</time></trkpt><trkpt lat="29.87280308" lon="35.31574965"><ele>917.2</ele><time>2015-11-26T12:37:06.0000000+00:00</time></trkpt><trkpt lat="29.87250418" lon="35.31573708"><ele>918.2</ele><time>2015-11-26T12:37:17.0000000+00:00</time></trkpt><trkpt lat="29.87214125" lon="35.31593372"><ele>917.7</ele><time>2015-11-26T12:37:28.0000000+00:00</time></trkpt><trkpt lat="29.87149299" lon="35.31624427"><ele>915.8</ele><time>2015-11-26T12:37:42.0000000+00:00</time></trkpt><trkpt lat="29.87104213" lon="35.3165109"><ele>914.4</ele><time>2015-11-26T12:37:52.0000000+00:00</time></trkpt><trkpt lat="29.87095345" lon="35.31654174"><ele>913.9</ele><time>2015-11-26T12:37:54.0000000+00:00</time></trkpt><trkpt lat="29.87077282" lon="35.31667669"><ele>913.9</ele><time>2015-11-26T12:37:58.0000000+00:00</time></trkpt><trkpt lat="29.87034501" lon="35.31687082"><ele>912.9</ele><time>2015-11-26T12:38:06.0000000+00:00</time></trkpt><trkpt lat="29.87021727" lon="35.31698448"><ele>912.4</ele><time>2015-11-26T12:38:09.0000000+00:00</time></trkpt><trkpt lat="29.86990135" lon="35.31729746"><ele>911.5</ele><time>2015-11-26T12:38:17.0000000+00:00</time></trkpt><trkpt lat="29.86915788" lon="35.31775838"><ele>909.1</ele><time>2015-11-26T12:38:34.0000000+00:00</time></trkpt><trkpt lat="29.86911203" lon="35.31778302"><ele>909.1</ele><time>2015-11-26T12:38:35.0000000+00:00</time></trkpt><trkpt lat="29.86835514" lon="35.318211"><ele>907.1</ele><time>2015-11-26T12:38:52.0000000+00:00</time></trkpt><trkpt lat="29.86817074" lon="35.31836875"><ele>906.2</ele><time>2015-11-26T12:38:57.0000000+00:00</time></trkpt><trkpt lat="29.86760295" lon="35.31866279"><ele>904.7</ele><time>2015-11-26T12:39:11.0000000+00:00</time></trkpt><trkpt lat="29.86697012" lon="35.31913762"><ele>902.8</ele><time>2015-11-26T12:39:25.0000000+00:00</time></trkpt><trkpt lat="29.86638699" lon="35.31947214"><ele>900.9</ele><time>2015-11-26T12:39:39.0000000+00:00</time></trkpt><trkpt lat="29.86621675" lon="35.31954506"><ele>900.4</ele><time>2015-11-26T12:39:43.0000000+00:00</time></trkpt><trkpt lat="29.86548224" lon="35.31994505"><ele>898.5</ele><time>2015-11-26T12:40:02.0000000+00:00</time></trkpt><trkpt lat="29.86535836" lon="35.32002015"><ele>898.0</ele><time>2015-11-26T12:40:05.0000000+00:00</time></trkpt><trkpt lat="29.86515879" lon="35.32013071"><ele>898.0</ele><time>2015-11-26T12:40:10.0000000+00:00</time></trkpt><trkpt lat="29.86466794" lon="35.32060789"><ele>896.1</ele><time>2015-11-26T12:40:23.0000000+00:00</time></trkpt><trkpt lat="29.86429595" lon="35.32082708"><ele>894.6</ele><time>2015-11-26T12:40:31.0000000+00:00</time></trkpt><trkpt lat="29.86366337" lon="35.3212512"><ele>893.2</ele><time>2015-11-26T12:40:47.0000000+00:00</time></trkpt><trkpt lat="29.86358433" lon="35.32130484"><ele>893.2</ele><time>2015-11-26T12:40:49.0000000+00:00</time></trkpt><trkpt lat="29.86310581" lon="35.32176007"><ele>891.8</ele><time>2015-11-26T12:41:02.0000000+00:00</time></trkpt><trkpt lat="29.86299508" lon="35.32186568"><ele>891.3</ele><time>2015-11-26T12:41:05.0000000+00:00</time></trkpt><trkpt lat="29.86234322" lon="35.32237639"><ele>889.4</ele><time>2015-11-26T12:41:22.0000000+00:00</time></trkpt><trkpt lat="29.86169262" lon="35.32265936"><ele>887.9</ele><time>2015-11-26T12:41:37.0000000+00:00</time></trkpt><trkpt lat="29.86161986" lon="35.32270152"><ele>887.4</ele><time>2015-11-26T12:41:39.0000000+00:00</time></trkpt><trkpt lat="29.86109658" lon="35.32318901"><ele>886.0</ele><time>2015-11-26T12:41:57.0000000+00:00</time></trkpt><trkpt lat="29.86063868" lon="35.32362202"><ele>884.1</ele><time>2015-11-26T12:42:11.0000000+00:00</time></trkpt><trkpt lat="29.86060875" lon="35.32365211"><ele>884.1</ele><time>2015-11-26T12:42:12.0000000+00:00</time></trkpt><trkpt lat="29.86051496" lon="35.32373526"><ele>884.1</ele><time>2015-11-26T12:42:15.0000000+00:00</time></trkpt><trkpt lat="29.86044732" lon="35.32378857"><ele>883.6</ele><time>2015-11-26T12:42:17.0000000+00:00</time></trkpt><trkpt lat="29.86033919" lon="35.32387331"><ele>883.6</ele><time>2015-11-26T12:42:20.0000000+00:00</time></trkpt><trkpt lat="29.86007231" lon="35.32408185"><ele>882.6</ele><time>2015-11-26T12:42:28.0000000+00:00</time></trkpt><trkpt lat="29.85950276" lon="35.32437044"><ele>881.2</ele><time>2015-11-26T12:42:42.0000000+00:00</time></trkpt><trkpt lat="29.85922381" lon="35.32451419"><ele>881.2</ele><time>2015-11-26T12:42:49.0000000+00:00</time></trkpt><trkpt lat="29.85883129" lon="35.32463833"><ele>880.2</ele><time>2015-11-26T12:42:57.0000000+00:00</time></trkpt><trkpt lat="29.85817465" lon="35.32496153"><ele>878.8</ele><time>2015-11-26T12:43:12.0000000+00:00</time></trkpt><trkpt lat="29.85813727" lon="35.32498291"><ele>878.8</ele><time>2015-11-26T12:43:13.0000000+00:00</time></trkpt><trkpt lat="29.8580014" lon="35.32510017"><ele>878.3</ele><time>2015-11-26T12:43:17.0000000+00:00</time></trkpt><trkpt lat="29.85789662" lon="35.32524685"><ele>877.8</ele><time>2015-11-26T12:43:21.0000000+00:00</time></trkpt><trkpt lat="29.85762094" lon="35.32559504"><ele>877.3</ele><time>2015-11-26T12:43:30.0000000+00:00</time></trkpt><trkpt lat="29.85700965" lon="35.32601153"><ele>875.9</ele><time>2015-11-26T12:43:45.0000000+00:00</time></trkpt><trkpt lat="29.85693513" lon="35.32605923"><ele>875.9</ele><time>2015-11-26T12:43:47.0000000+00:00</time></trkpt><trkpt lat="29.85652249" lon="35.32638813"><ele>874.9</ele><time>2015-11-26T12:43:58.0000000+00:00</time></trkpt><trkpt lat="29.85595956" lon="35.32694637"><ele>873.5</ele><time>2015-11-26T12:44:15.0000000+00:00</time></trkpt><trkpt lat="29.85559386" lon="35.32718961"><ele>873.0</ele><time>2015-11-26T12:44:24.0000000+00:00</time></trkpt><trkpt lat="29.85511509" lon="35.32747451"><ele>871.6</ele><time>2015-11-26T12:44:37.0000000+00:00</time></trkpt><trkpt lat="29.85456674" lon="35.32771063"><ele>870.1</ele><time>2015-11-26T12:44:52.0000000+00:00</time></trkpt><trkpt lat="29.85388789" lon="35.32792931"><ele>869.7</ele><time>2015-11-26T12:45:09.0000000+00:00</time></trkpt><trkpt lat="29.85366577" lon="35.32800358"><ele>869.2</ele><time>2015-11-26T12:45:14.0000000+00:00</time></trkpt><trkpt lat="29.85316738" lon="35.32821178"><ele>868.2</ele><time>2015-11-26T12:45:27.0000000+00:00</time></trkpt><trkpt lat="29.85245928" lon="35.32854622"><ele>867.3</ele><time>2015-11-26T12:45:43.0000000+00:00</time></trkpt><trkpt lat="29.85174355" lon="35.32878997"><ele>866.3</ele><time>2015-11-26T12:45:59.0000000+00:00</time></trkpt><trkpt lat="29.85119244" lon="35.3289908"><ele>865.3</ele><time>2015-11-26T12:46:12.0000000+00:00</time></trkpt><trkpt lat="29.85055324" lon="35.32924485"><ele>864.4</ele><time>2015-11-26T12:46:28.0000000+00:00</time></trkpt><trkpt lat="29.85039323" lon="35.32937838"><ele>863.9</ele><time>2015-11-26T12:46:33.0000000+00:00</time></trkpt><trkpt lat="29.84985578" lon="35.32955163"><ele>862.9</ele><time>2015-11-26T12:46:45.0000000+00:00</time></trkpt><trkpt lat="29.84926921" lon="35.32988984"><ele>862.0</ele><time>2015-11-26T12:47:00.0000000+00:00</time></trkpt><trkpt lat="29.84856119" lon="35.33051689"><ele>860.5</ele><time>2015-11-26T12:47:17.0000000+00:00</time></trkpt><trkpt lat="29.84829658" lon="35.33068168"><ele>860.0</ele><time>2015-11-26T12:47:23.0000000+00:00</time></trkpt><trkpt lat="29.84813514" lon="35.33080548"><ele>860.0</ele><time>2015-11-26T12:47:27.0000000+00:00</time></trkpt><trkpt lat="29.84795242" lon="35.33097161"><ele>858.6</ele><time>2015-11-26T12:47:34.0000000+00:00</time></trkpt><trkpt lat="29.84785988" lon="35.33107412"><ele>859.1</ele><time>2015-11-26T12:47:40.0000000+00:00</time></trkpt><trkpt lat="29.84747607" lon="35.33132491"><ele>858.1</ele><time>2015-11-26T12:47:53.0000000+00:00</time></trkpt><trkpt lat="29.84724213" lon="35.3313674"><ele>858.1</ele><time>2015-11-26T12:47:59.0000000+00:00</time></trkpt><trkpt lat="29.84687392" lon="35.33138274"><ele>857.2</ele><time>2015-11-26T12:48:07.0000000+00:00</time></trkpt><trkpt lat="29.84610052" lon="35.33147989"><ele>856.7</ele><time>2015-11-26T12:48:24.0000000+00:00</time></trkpt><trkpt lat="29.84525562" lon="35.33158634"><ele>855.7</ele><time>2015-11-26T12:48:42.0000000+00:00</time></trkpt><trkpt lat="29.84520793" lon="35.33158676"><ele>855.7</ele><time>2015-11-26T12:48:43.0000000+00:00</time></trkpt><trkpt lat="29.84463159" lon="35.33172883"><ele>855.2</ele><time>2015-11-26T12:48:58.0000000+00:00</time></trkpt><trkpt lat="29.84383916" lon="35.33191935"><ele>854.3</ele><time>2015-11-26T12:49:16.0000000+00:00</time></trkpt><trkpt lat="29.84349157" lon="35.33203997"><ele>853.8</ele><time>2015-11-26T12:49:26.0000000+00:00</time></trkpt><trkpt lat="29.84286695" lon="35.33205933"><ele>853.3</ele><time>2015-11-26T12:49:41.0000000+00:00</time></trkpt><trkpt lat="29.84263008" lon="35.33195003"><ele>852.8</ele><time>2015-11-26T12:49:47.0000000+00:00</time></trkpt><trkpt lat="29.84249253" lon="35.33191826"><ele>853.3</ele><time>2015-11-26T12:49:50.0000000+00:00</time></trkpt><trkpt lat="29.8418633" lon="35.33178424"><ele>852.4</ele><time>2015-11-26T12:50:05.0000000+00:00</time></trkpt><trkpt lat="29.84118663" lon="35.33169941"><ele>851.9</ele><time>2015-11-26T12:50:21.0000000+00:00</time></trkpt><trkpt lat="29.84081405" lon="35.33163956"><ele>851.4</ele><time>2015-11-26T12:50:32.0000000+00:00</time></trkpt><trkpt lat="29.84032036" lon="35.33148986"><ele>850.9</ele><time>2015-11-26T12:50:46.0000000+00:00</time></trkpt><trkpt lat="29.83952885" lon="35.33127084"><ele>850.4</ele><time>2015-11-26T12:51:03.0000000+00:00</time></trkpt><trkpt lat="29.83899627" lon="35.33108837"><ele>850.4</ele><time>2015-11-26T12:51:14.0000000+00:00</time></trkpt><trkpt lat="29.83882301" lon="35.33102249"><ele>850.4</ele><time>2015-11-26T12:51:18.0000000+00:00</time></trkpt><trkpt lat="29.83797058" lon="35.33084739"><ele>849.9</ele><time>2015-11-26T12:51:35.0000000+00:00</time></trkpt><trkpt lat="29.8376265" lon="35.33074656"><ele>849.5</ele><time>2015-11-26T12:51:42.0000000+00:00</time></trkpt><trkpt lat="29.83759012" lon="35.33071915"><ele>849.0</ele><time>2015-11-26T12:51:43.0000000+00:00</time></trkpt><trkpt lat="29.83745777" lon="35.33057733"><ele>849.0</ele><time>2015-11-26T12:51:51.0000000+00:00</time></trkpt><trkpt lat="29.83731779" lon="35.33029553"><ele>848.5</ele><time>2015-11-26T12:52:04.0000000+00:00</time></trkpt><trkpt lat="29.83706508" lon="35.3298574"><ele>848.0</ele><time>2015-11-26T12:52:18.0000000+00:00</time></trkpt><trkpt lat="29.83680214" lon="35.32933923"><ele>847.5</ele><time>2015-11-26T12:52:32.0000000+00:00</time></trkpt><trkpt lat="29.83655965" lon="35.32886113"><ele>848.0</ele><time>2015-11-26T12:52:46.0000000+00:00</time></trkpt><trkpt lat="29.83626737" lon="35.32839761"><ele>849.0</ele><time>2015-11-26T12:52:59.0000000+00:00</time></trkpt><trkpt lat="29.83610158" lon="35.32812914"><ele>849.0</ele><time>2015-11-26T12:53:06.0000000+00:00</time></trkpt><trkpt lat="29.83608071" lon="35.32808958"><ele>849.0</ele><time>2015-11-26T12:53:07.0000000+00:00</time></trkpt><trkpt lat="29.83569833" lon="35.32739581"><ele>849.9</ele><time>2015-11-26T12:53:24.0000000+00:00</time></trkpt><trkpt lat="29.8354322" lon="35.32692474"><ele>849.9</ele><time>2015-11-26T12:53:37.0000000+00:00</time></trkpt><trkpt lat="29.83511302" lon="35.32636475"><ele>850.9</ele><time>2015-11-26T12:53:52.0000000+00:00</time></trkpt><trkpt lat="29.83484237" lon="35.32582789"><ele>852.4</ele><time>2015-11-26T12:54:06.0000000+00:00</time></trkpt><trkpt lat="29.83455487" lon="35.32536378"><ele>854.3</ele><time>2015-11-26T12:54:19.0000000+00:00</time></trkpt><trkpt lat="29.83432193" lon="35.32490605"><ele>855.2</ele><time>2015-11-26T12:54:32.0000000+00:00</time></trkpt><trkpt lat="29.83407089" lon="35.32453724"><ele>856.7</ele><time>2015-11-26T12:54:44.0000000+00:00</time></trkpt><trkpt lat="29.83367259" lon="35.32419945"><ele>857.6</ele><time>2015-11-26T12:54:58.0000000+00:00</time></trkpt><trkpt lat="29.83326355" lon="35.32402159"><ele>857.6</ele><time>2015-11-26T12:55:10.0000000+00:00</time></trkpt><trkpt lat="29.83310605" lon="35.32395763"><ele>857.6</ele><time>2015-11-26T12:55:14.0000000+00:00</time></trkpt><trkpt lat="29.83297924" lon="35.32389703"><ele>858.1</ele><time>2015-11-26T12:55:17.0000000+00:00</time></trkpt><trkpt lat="29.83216552" lon="35.32355782"><ele>857.2</ele><time>2015-11-26T12:55:35.0000000+00:00</time></trkpt><trkpt lat="29.83122373" lon="35.32317384"><ele>856.7</ele><time>2015-11-26T12:55:55.0000000+00:00</time></trkpt><trkpt lat="29.83088778" lon="35.32302196"><ele>856.7</ele><time>2015-11-26T12:56:02.0000000+00:00</time></trkpt><trkpt lat="29.83052401" lon="35.32287017"><ele>855.7</ele><time>2015-11-26T12:56:09.0000000+00:00</time></trkpt><trkpt lat="29.83042317" lon="35.32282071"><ele>855.2</ele><time>2015-11-26T12:56:11.0000000+00:00</time></trkpt><trkpt lat="29.83037062" lon="35.32280328"><ele>855.2</ele><time>2015-11-26T12:56:12.0000000+00:00</time></trkpt><trkpt lat="29.83031706" lon="35.32278534"><ele>855.2</ele><time>2015-11-26T12:56:13.0000000+00:00</time></trkpt><trkpt lat="29.82965204" lon="35.32250203"><ele>853.8</ele><time>2015-11-26T12:56:25.0000000+00:00</time></trkpt><trkpt lat="29.82959756" lon="35.32247781"><ele>853.3</ele><time>2015-11-26T12:56:26.0000000+00:00</time></trkpt><trkpt lat="29.82881972" lon="35.32215334"><ele>853.3</ele><time>2015-11-26T12:56:40.0000000+00:00</time></trkpt><trkpt lat="29.82797155" lon="35.32179175"><ele>852.8</ele><time>2015-11-26T12:56:56.0000000+00:00</time></trkpt><trkpt lat="29.82719111" lon="35.32146486"><ele>851.9</ele><time>2015-11-26T12:57:10.0000000+00:00</time></trkpt><trkpt lat="29.8267519" lon="35.32127174"><ele>851.4</ele><time>2015-11-26T12:57:18.0000000+00:00</time></trkpt><trkpt lat="29.82593869" lon="35.32093252"><ele>849.5</ele><time>2015-11-26T12:57:32.0000000+00:00</time></trkpt><trkpt lat="29.82581933" lon="35.32088198"><ele>849.0</ele><time>2015-11-26T12:57:34.0000000+00:00</time></trkpt><trkpt lat="29.82575915" lon="35.32085868"><ele>849.0</ele><time>2015-11-26T12:57:35.0000000+00:00</time></trkpt><trkpt lat="29.82569972" lon="35.32083336"><ele>849.0</ele><time>2015-11-26T12:57:36.0000000+00:00</time></trkpt><trkpt lat="29.8256413" lon="35.32080914"><ele>848.5</ele><time>2015-11-26T12:57:37.0000000+00:00</time></trkpt><trkpt lat="29.8255838" lon="35.32078399"><ele>849.0</ele><time>2015-11-26T12:57:38.0000000+00:00</time></trkpt><trkpt lat="29.82552647" lon="35.32075977"><ele>848.5</ele><time>2015-11-26T12:57:39.0000000+00:00</time></trkpt><trkpt lat="29.82547056" lon="35.32073429"><ele>848.5</ele><time>2015-11-26T12:57:40.0000000+00:00</time></trkpt><trkpt lat="29.82447521" lon="35.32032483"><ele>846.6</ele><time>2015-11-26T12:57:56.0000000+00:00</time></trkpt><trkpt lat="29.82327098" lon="35.31982309"><ele>845.1</ele><time>2015-11-26T12:58:15.0000000+00:00</time></trkpt><trkpt lat="29.82237998" lon="35.31944314"><ele>843.7</ele><time>2015-11-26T12:58:31.0000000+00:00</time></trkpt><trkpt lat="29.82167205" lon="35.31913904"><ele>843.7</ele><time>2015-11-26T12:58:47.0000000+00:00</time></trkpt><trkpt lat="29.82106176" lon="35.31888759"><ele>843.7</ele><time>2015-11-26T12:59:04.0000000+00:00</time></trkpt><trkpt lat="29.82064543" lon="35.31871509"><ele>843.7</ele><time>2015-11-26T12:59:17.0000000+00:00</time></trkpt><trkpt lat="29.82009441" lon="35.3184892"><ele>843.7</ele><time>2015-11-26T12:59:32.0000000+00:00</time></trkpt><trkpt lat="29.81968361" lon="35.31832382"><ele>842.7</ele><time>2015-11-26T12:59:44.0000000+00:00</time></trkpt><trkpt lat="29.81916083" lon="35.31811176"><ele>842.7</ele><time>2015-11-26T13:00:00.0000000+00:00</time></trkpt><trkpt lat="29.81867988" lon="35.31790783"><ele>842.3</ele><time>2015-11-26T13:00:12.0000000+00:00</time></trkpt><trkpt lat="29.81858935" lon="35.31786818"><ele>841.8</ele><time>2015-11-26T13:00:14.0000000+00:00</time></trkpt><trkpt lat="29.81854334" lon="35.31784999"><ele>841.8</ele><time>2015-11-26T13:00:15.0000000+00:00</time></trkpt><trkpt lat="29.81794646" lon="35.31758806"><ele>841.3</ele><time>2015-11-26T13:00:29.0000000+00:00</time></trkpt><trkpt lat="29.81790472" lon="35.31757155"><ele>841.3</ele><time>2015-11-26T13:00:30.0000000+00:00</time></trkpt><trkpt lat="29.81786256" lon="35.31755738"><ele>840.8</ele><time>2015-11-26T13:00:31.0000000+00:00</time></trkpt><trkpt lat="29.81773306" lon="35.31751706"><ele>840.8</ele><time>2015-11-26T13:00:34.0000000+00:00</time></trkpt><trkpt lat="29.81769391" lon="35.31749301"><ele>840.8</ele><time>2015-11-26T13:00:35.0000000+00:00</time></trkpt><trkpt lat="29.81762476" lon="35.31743953"><ele>840.8</ele><time>2015-11-26T13:00:37.0000000+00:00</time></trkpt><trkpt lat="29.81759434" lon="35.31740936"><ele>840.8</ele><time>2015-11-26T13:00:38.0000000+00:00</time></trkpt><trkpt lat="29.81735327" lon="35.31703116"><ele>842.3</ele><time>2015-11-26T13:00:51.0000000+00:00</time></trkpt><trkpt lat="29.81729317" lon="35.31691113"><ele>842.3</ele><time>2015-11-26T13:00:58.0000000+00:00</time></trkpt><trkpt lat="29.81729108" lon="35.31689605"><ele>842.3</ele><time>2015-11-26T13:00:59.0000000+00:00</time></trkpt><trkpt lat="29.81728471" lon="35.31688197"><ele>842.3</ele><time>2015-11-26T13:01:00.0000000+00:00</time></trkpt><trkpt lat="29.81727364" lon="35.31687166"><ele>842.3</ele><time>2015-11-26T13:01:01.0000000+00:00</time></trkpt><trkpt lat="29.81725889" lon="35.31686562"><ele>842.7</ele><time>2015-11-26T13:01:02.0000000+00:00</time></trkpt><trkpt lat="29.81724414" lon="35.31686336"><ele>842.3</ele><time>2015-11-26T13:01:03.0000000+00:00</time></trkpt><trkpt lat="29.81722947" lon="35.31686529"><ele>842.7</ele><time>2015-11-26T13:01:04.0000000+00:00</time></trkpt><trkpt lat="29.81721405" lon="35.31686931"><ele>842.7</ele><time>2015-11-26T13:01:05.0000000+00:00</time></trkpt><trkpt lat="29.81718471" lon="35.3169139"><ele>842.7</ele><time>2015-11-26T13:01:11.0000000+00:00</time></trkpt><trkpt lat="29.81716242" lon="35.31688507"><ele>843.2</ele><time>2015-11-26T13:01:14.0000000+00:00</time></trkpt><trkpt lat="29.81714859" lon="35.31686386"><ele>842.3</ele><time>2015-11-26T13:01:15.0000000+00:00</time></trkpt><trkpt lat="29.81713308" lon="35.31683771"><ele>842.3</ele><time>2015-11-26T13:01:16.0000000+00:00</time></trkpt><trkpt lat="29.81678062" lon="35.31630621"><ele>843.7</ele><time>2015-11-26T13:01:31.0000000+00:00</time></trkpt><trkpt lat="29.8164606" lon="35.3158266"><ele>844.7</ele><time>2015-11-26T13:01:44.0000000+00:00</time></trkpt><trkpt lat="29.81643344" lon="35.31579232"><ele>844.7</ele><time>2015-11-26T13:01:45.0000000+00:00</time></trkpt><trkpt lat="29.81640595" lon="35.31575871"><ele>844.7</ele><time>2015-11-26T13:01:46.0000000+00:00</time></trkpt><trkpt lat="29.81638055" lon="35.31572132"><ele>844.7</ele><time>2015-11-26T13:01:47.0000000+00:00</time></trkpt><trkpt lat="29.81635549" lon="35.31568344"><ele>844.7</ele><time>2015-11-26T13:01:48.0000000+00:00</time></trkpt><trkpt lat="29.81624736" lon="35.31554128"><ele>845.1</ele><time>2015-11-26T13:01:52.0000000+00:00</time></trkpt><trkpt lat="29.81589608" lon="35.31506066"><ele>846.1</ele><time>2015-11-26T13:02:05.0000000+00:00</time></trkpt><trkpt lat="29.81518412" lon="35.3141964"><ele>847.1</ele><time>2015-11-26T13:02:28.0000000+00:00</time></trkpt><trkpt lat="29.81454131" lon="35.31348185"><ele>847.1</ele><time>2015-11-26T13:02:46.0000000+00:00</time></trkpt><trkpt lat="29.8143461" lon="35.3132837"><ele>847.1</ele><time>2015-11-26T13:02:51.0000000+00:00</time></trkpt><trkpt lat="29.81369751" lon="35.31265598"><ele>846.6</ele><time>2015-11-26T13:03:06.0000000+00:00</time></trkpt><trkpt lat="29.81289226" lon="35.31196095"><ele>846.6</ele><time>2015-11-26T13:03:22.0000000+00:00</time></trkpt><trkpt lat="29.81197838" lon="35.31124564"><ele>847.5</ele><time>2015-11-26T13:03:40.0000000+00:00</time></trkpt><trkpt lat="29.81090675" lon="35.31052647"><ele>849.0</ele><time>2015-11-26T13:04:02.0000000+00:00</time></trkpt><trkpt lat="29.81001953" lon="35.31000143"><ele>849.9</ele><time>2015-11-26T13:04:21.0000000+00:00</time></trkpt><trkpt lat="29.80915736" lon="35.30956842"><ele>850.9</ele><time>2015-11-26T13:04:39.0000000+00:00</time></trkpt><trkpt lat="29.80819169" lon="35.30915335"><ele>852.4</ele><time>2015-11-26T13:04:59.0000000+00:00</time></trkpt><trkpt lat="29.80724696" lon="35.30880122"><ele>852.4</ele><time>2015-11-26T13:05:18.0000000+00:00</time></trkpt><trkpt lat="29.80600325" lon="35.30837995"><ele>850.4</ele><time>2015-11-26T13:05:39.0000000+00:00</time></trkpt><trkpt lat="29.8048054" lon="35.30796412"><ele>848.0</ele><time>2015-11-26T13:05:57.0000000+00:00</time></trkpt><trkpt lat="29.80447641" lon="35.30784158"><ele>846.6</ele><time>2015-11-26T13:06:06.0000000+00:00</time></trkpt><trkpt lat="29.80446098" lon="35.30783303"><ele>846.6</ele><time>2015-11-26T13:06:17.0000000+00:00</time></trkpt><trkpt lat="29.80444598" lon="35.30784208"><ele>846.6</ele><time>2015-11-26T13:06:34.0000000+00:00</time></trkpt><trkpt lat="29.80443626" lon="35.30785214"><ele>846.6</ele><time>2015-11-26T13:06:35.0000000+00:00</time></trkpt><trkpt lat="29.80436711" lon="35.30791719"><ele>846.6</ele><time>2015-11-26T13:06:41.0000000+00:00</time></trkpt><trkpt lat="29.8043459" lon="35.3079565"><ele>846.6</ele><time>2015-11-26T13:06:49.0000000+00:00</time></trkpt><trkpt lat="29.80424255" lon="35.30807275"><ele>846.1</ele><time>2015-11-26T13:07:05.0000000+00:00</time></trkpt><trkpt lat="29.80423207" lon="35.30806907"><ele>845.6</ele><time>2015-11-26T13:07:07.0000000+00:00</time></trkpt><trkpt lat="29.80407617" lon="35.30816613"><ele>845.1</ele><time>2015-11-26T13:07:17.0000000+00:00</time></trkpt><trkpt lat="29.80395053" lon="35.30865479"><ele>843.7</ele><time>2015-11-26T13:07:29.0000000+00:00</time></trkpt><trkpt lat="29.80392647" lon="35.30871212"><ele>843.2</ele><time>2015-11-26T13:07:30.0000000+00:00</time></trkpt><trkpt lat="29.80379974" lon="35.30904824"><ele>841.3</ele><time>2015-11-26T13:07:35.0000000+00:00</time></trkpt><trkpt lat="29.80361617" lon="35.30963824"><ele>838.4</ele><time>2015-11-26T13:07:42.0000000+00:00</time></trkpt><trkpt lat="29.80359413" lon="35.30973111"><ele>837.9</ele><time>2015-11-26T13:07:43.0000000+00:00</time></trkpt><trkpt lat="29.80331903" lon="35.31050954"><ele>834.6</ele><time>2015-11-26T13:07:52.0000000+00:00</time></trkpt><trkpt lat="29.80319012" lon="35.31088069"><ele>833.1</ele><time>2015-11-26T13:07:57.0000000+00:00</time></trkpt><trkpt lat="29.80308015" lon="35.31118562"><ele>831.2</ele><time>2015-11-26T13:08:06.0000000+00:00</time></trkpt><trkpt lat="29.80306104" lon="35.31121345"><ele>830.7</ele><time>2015-11-26T13:08:08.0000000+00:00</time></trkpt><trkpt lat="29.80305567" lon="35.31123944"><ele>830.7</ele><time>2015-11-26T13:08:23.0000000+00:00</time></trkpt><trkpt lat="29.80302726" lon="35.31124203"><ele>830.7</ele><time>2015-11-26T13:08:45.0000000+00:00</time></trkpt><trkpt lat="29.80301527" lon="35.31123994"><ele>830.2</ele><time>2015-11-26T13:08:46.0000000+00:00</time></trkpt><trkpt lat="29.80275434" lon="35.31118931"><ele>829.8</ele><time>2015-11-26T13:08:59.0000000+00:00</time></trkpt><trkpt lat="29.80229887" lon="35.31103215"><ele>828.8</ele><time>2015-11-26T13:09:16.0000000+00:00</time></trkpt><trkpt lat="29.80196527" lon="35.31088094"><ele>828.8</ele><time>2015-11-26T13:09:31.0000000+00:00</time></trkpt><trkpt lat="29.80195027" lon="35.31086359"><ele>828.3</ele><time>2015-11-26T13:09:32.0000000+00:00</time></trkpt><trkpt lat="29.80194557" lon="35.31084272"><ele>828.3</ele><time>2015-11-26T13:09:33.0000000+00:00</time></trkpt><trkpt lat="29.80195815" lon="35.3108009"><ele>828.3</ele><time>2015-11-26T13:09:45.0000000+00:00</time></trkpt><trkpt lat="29.80195588" lon="35.31079017"><ele>828.3</ele><time>2015-11-26T13:09:58.0000000+00:00</time></trkpt><trkpt lat="29.80195345" lon="35.31077717"><ele>828.8</ele><time>2015-11-26T13:10:24.0000000+00:00</time></trkpt><trkpt lat="29.80198287" lon="35.31076385"><ele>828.8</ele><time>2015-11-26T13:11:02.0000000+00:00</time></trkpt><trkpt lat="29.80199176" lon="35.31079151"><ele>828.8</ele><time>2015-11-26T13:11:48.0000000+00:00</time></trkpt><trkpt lat="29.8019869" lon="35.31078053"><ele>828.8</ele><time>2015-11-26T13:12:27.0000000+00:00</time></trkpt><trkpt lat="29.80201037" lon="35.31076636"><ele>829.3</ele><time>2015-11-26T13:13:12.0000000+00:00</time></trkpt><trkpt lat="29.80199981" lon="35.31077215"><ele>829.3</ele><time>2015-11-26T13:13:47.0000000+00:00</time></trkpt><trkpt lat="29.80197592" lon="35.31080358"><ele>829.3</ele><time>2015-11-26T13:14:33.0000000+00:00</time></trkpt><trkpt lat="29.80198354" lon="35.31078782"><ele>829.3</ele><time>2015-11-26T13:15:08.0000000+00:00</time></trkpt><trkpt lat="29.80196091" lon="35.31079402"><ele>829.8</ele><time>2015-11-26T13:15:48.0000000+00:00</time></trkpt><trkpt lat="29.80195194" lon="35.31077994"><ele>829.8</ele><time>2015-11-26T13:16:30.0000000+00:00</time></trkpt><trkpt lat="29.80197173" lon="35.31079151"><ele>829.3</ele><time>2015-11-26T13:17:11.0000000+00:00</time></trkpt><trkpt lat="29.80195454" lon="35.31080919"><ele>829.3</ele><time>2015-11-26T13:17:55.0000000+00:00</time></trkpt><trkpt lat="29.80195354" lon="35.31078815"><ele>829.8</ele><time>2015-11-26T13:18:38.0000000+00:00</time></trkpt><trkpt lat="29.80193946" lon="35.31079193"><ele>829.8</ele><time>2015-11-26T13:19:20.0000000+00:00</time></trkpt><trkpt lat="29.80195387" lon="35.31080609"><ele>829.3</ele><time>2015-11-26T13:19:54.0000000+00:00</time></trkpt><trkpt lat="29.80193602" lon="35.31077039"><ele>829.8</ele><time>2015-11-26T13:20:28.0000000+00:00</time></trkpt><trkpt lat="29.80194599" lon="35.310776"><ele>829.8</ele><time>2015-11-26T13:21:04.0000000+00:00</time></trkpt><trkpt lat="29.80194725" lon="35.31077122"><ele>829.8</ele><time>2015-11-26T13:21:43.0000000+00:00</time></trkpt><trkpt lat="29.80190534" lon="35.31080215"><ele>829.3</ele><time>2015-11-26T13:22:12.0000000+00:00</time></trkpt><trkpt lat="29.80188933" lon="35.31082436"><ele>830.7</ele><time>2015-11-26T13:22:15.0000000+00:00</time></trkpt><trkpt lat="29.80188849" lon="35.31083191"><ele>829.3</ele><time>2015-11-26T13:22:16.0000000+00:00</time></trkpt><trkpt lat="29.80190543" lon="35.31090181"><ele>829.3</ele><time>2015-11-26T13:22:28.0000000+00:00</time></trkpt><trkpt lat="29.8019175" lon="35.31091296"><ele>829.3</ele><time>2015-11-26T13:22:29.0000000+00:00</time></trkpt><trkpt lat="29.80218127" lon="35.31104732"><ele>829.8</ele><time>2015-11-26T13:22:42.0000000+00:00</time></trkpt><trkpt lat="29.80258335" lon="35.31123315"><ele>830.7</ele><time>2015-11-26T13:22:57.0000000+00:00</time></trkpt><trkpt lat="29.80283045" lon="35.31136206"><ele>830.7</ele><time>2015-11-26T13:23:07.0000000+00:00</time></trkpt><trkpt lat="29.80283087" lon="35.31138939"><ele>830.7</ele><time>2015-11-26T13:23:08.0000000+00:00</time></trkpt><trkpt lat="29.80282375" lon="35.31141956"><ele>830.2</ele><time>2015-11-26T13:23:09.0000000+00:00</time></trkpt><trkpt lat="29.80281059" lon="35.31145016"><ele>830.2</ele><time>2015-11-26T13:23:10.0000000+00:00</time></trkpt><trkpt lat="29.80279441" lon="35.31148151"><ele>830.2</ele><time>2015-11-26T13:23:11.0000000+00:00</time></trkpt><trkpt lat="29.80250054" lon="35.31195642"><ele>827.8</ele><time>2015-11-26T13:23:24.0000000+00:00</time></trkpt><trkpt lat="29.80246953" lon="35.31199632"><ele>827.8</ele><time>2015-11-26T13:23:25.0000000+00:00</time></trkpt><trkpt lat="29.8024023" lon="35.31208064"><ele>827.4</ele><time>2015-11-26T13:23:27.0000000+00:00</time></trkpt><trkpt lat="29.80216702" lon="35.3124124"><ele>826.4</ele><time>2015-11-26T13:23:34.0000000+00:00</time></trkpt><trkpt lat="29.80183133" lon="35.31289159"><ele>824.5</ele><time>2015-11-26T13:23:43.0000000+00:00</time></trkpt><trkpt lat="29.80160502" lon="35.31323357"><ele>823.0</ele><time>2015-11-26T13:23:49.0000000+00:00</time></trkpt><trkpt lat="29.80156235" lon="35.31328244"><ele>823.0</ele><time>2015-11-26T13:23:50.0000000+00:00</time></trkpt><trkpt lat="29.80152288" lon="35.31333458"><ele>822.6</ele><time>2015-11-26T13:23:51.0000000+00:00</time></trkpt><trkpt lat="29.8009115" lon="35.31418358"><ele>819.7</ele><time>2015-11-26T13:24:07.0000000+00:00</time></trkpt><trkpt lat="29.80078937" lon="35.31434703"><ele>819.2</ele><time>2015-11-26T13:24:10.0000000+00:00</time></trkpt><trkpt lat="29.80069206" lon="35.31452137"><ele>819.2</ele><time>2015-11-26T13:24:13.0000000+00:00</time></trkpt><trkpt lat="29.80065342" lon="35.31457258"><ele>819.2</ele><time>2015-11-26T13:24:14.0000000+00:00</time></trkpt><trkpt lat="29.80053457" lon="35.31472421"><ele>818.2</ele><time>2015-11-26T13:24:17.0000000+00:00</time></trkpt><trkpt lat="29.80015864" lon="35.3152651"><ele>817.3</ele><time>2015-11-26T13:24:28.0000000+00:00</time></trkpt><trkpt lat="29.80012829" lon="35.31531296"><ele>817.3</ele><time>2015-11-26T13:24:29.0000000+00:00</time></trkpt><trkpt lat="29.79985395" lon="35.31571864"><ele>816.3</ele><time>2015-11-26T13:24:38.0000000+00:00</time></trkpt><trkpt lat="29.7995947" lon="35.31568989"><ele>815.8</ele><time>2015-11-26T13:24:45.0000000+00:00</time></trkpt><trkpt lat="29.79945229" lon="35.31555804"><ele>815.3</ele><time>2015-11-26T13:24:52.0000000+00:00</time></trkpt><trkpt lat="29.79924501" lon="35.31567765"><ele>814.9</ele><time>2015-11-26T13:25:02.0000000+00:00</time></trkpt><trkpt lat="29.79888123" lon="35.31560901"><ele>815.3</ele><time>2015-11-26T13:25:16.0000000+00:00</time></trkpt><trkpt lat="29.79837723" lon="35.31549392"><ele>815.3</ele><time>2015-11-26T13:25:31.0000000+00:00</time></trkpt><trkpt lat="29.79803273" lon="35.31550901"><ele>815.8</ele><time>2015-11-26T13:25:43.0000000+00:00</time></trkpt><trkpt lat="29.79748615" lon="35.31569333"><ele>815.8</ele><time>2015-11-26T13:25:58.0000000+00:00</time></trkpt><trkpt lat="29.79728884" lon="35.31576365"><ele>815.3</ele><time>2015-11-26T13:26:03.0000000+00:00</time></trkpt><trkpt lat="29.79701073" lon="35.31592534"><ele>814.9</ele><time>2015-11-26T13:26:10.0000000+00:00</time></trkpt><trkpt lat="29.796569" lon="35.31646069"><ele>814.9</ele><time>2015-11-26T13:26:24.0000000+00:00</time></trkpt><trkpt lat="29.79614144" lon="35.31722638"><ele>815.8</ele><time>2015-11-26T13:26:41.0000000+00:00</time></trkpt><trkpt lat="29.79590189" lon="35.31780356"><ele>816.8</ele><time>2015-11-26T13:26:55.0000000+00:00</time></trkpt><trkpt lat="29.79553493" lon="35.31818384"><ele>816.3</ele><time>2015-11-26T13:27:08.0000000+00:00</time></trkpt><trkpt lat="29.7953781" lon="35.31836757"><ele>816.3</ele><time>2015-11-26T13:27:13.0000000+00:00</time></trkpt><trkpt lat="29.79534474" lon="35.31840437"><ele>816.3</ele><time>2015-11-26T13:27:14.0000000+00:00</time></trkpt><trkpt lat="29.79477469" lon="35.31906612"><ele>814.4</ele><time>2015-11-26T13:27:29.0000000+00:00</time></trkpt><trkpt lat="29.79401185" lon="35.3199603"><ele>812.5</ele><time>2015-11-26T13:27:47.0000000+00:00</time></trkpt><trkpt lat="29.79347968" lon="35.3206985"><ele>812.5</ele><time>2015-11-26T13:28:02.0000000+00:00</time></trkpt><trkpt lat="29.79319646" lon="35.32137224"><ele>812.5</ele><time>2015-11-26T13:28:15.0000000+00:00</time></trkpt><trkpt lat="29.79315313" lon="35.32148086"><ele>812.5</ele><time>2015-11-26T13:28:17.0000000+00:00</time></trkpt><trkpt lat="29.79272431" lon="35.32241184"><ele>812.9</ele><time>2015-11-26T13:28:35.0000000+00:00</time></trkpt><trkpt lat="29.79234486" lon="35.32322095"><ele>812.9</ele><time>2015-11-26T13:28:52.0000000+00:00</time></trkpt><trkpt lat="29.79203649" lon="35.32379896"><ele>812.9</ele><time>2015-11-26T13:29:05.0000000+00:00</time></trkpt><trkpt lat="29.79191051" lon="35.32405176"><ele>812.9</ele><time>2015-11-26T13:29:11.0000000+00:00</time></trkpt><trkpt lat="29.79159091" lon="35.32475458"><ele>812.9</ele><time>2015-11-26T13:29:27.0000000+00:00</time></trkpt><trkpt lat="29.79141807" lon="35.32511199"><ele>812.9</ele><time>2015-11-26T13:29:35.0000000+00:00</time></trkpt><trkpt lat="29.79131849" lon="35.32528432"><ele>812.9</ele><time>2015-11-26T13:29:39.0000000+00:00</time></trkpt><trkpt lat="29.7912848" lon="35.32531357"><ele>812.9</ele><time>2015-11-26T13:29:40.0000000+00:00</time></trkpt><trkpt lat="29.79124691" lon="35.32532749"><ele>812.5</ele><time>2015-11-26T13:29:41.0000000+00:00</time></trkpt><trkpt lat="29.79120987" lon="35.32532673"><ele>812.9</ele><time>2015-11-26T13:29:42.0000000+00:00</time></trkpt><trkpt lat="29.79117391" lon="35.32531458"><ele>812.5</ele><time>2015-11-26T13:29:43.0000000+00:00</time></trkpt><trkpt lat="29.7911387" lon="35.32529891"><ele>812.5</ele><time>2015-11-26T13:29:44.0000000+00:00</time></trkpt><trkpt lat="29.79102395" lon="35.32525431"><ele>812.5</ele><time>2015-11-26T13:29:47.0000000+00:00</time></trkpt><trkpt lat="29.79033538" lon="35.32496388"><ele>812.0</ele><time>2015-11-26T13:30:02.0000000+00:00</time></trkpt><trkpt lat="29.79029087" lon="35.32494142"><ele>812.0</ele><time>2015-11-26T13:30:03.0000000+00:00</time></trkpt><trkpt lat="29.79024595" lon="35.32492273"><ele>812.0</ele><time>2015-11-26T13:30:04.0000000+00:00</time></trkpt><trkpt lat="29.7895557" lon="35.3246281"><ele>811.0</ele><time>2015-11-26T13:30:19.0000000+00:00</time></trkpt><trkpt lat="29.7894692" lon="35.32459416"><ele>811.5</ele><time>2015-11-26T13:30:21.0000000+00:00</time></trkpt><trkpt lat="29.78942594" lon="35.32458493"><ele>811.0</ele><time>2015-11-26T13:30:22.0000000+00:00</time></trkpt><trkpt lat="29.78938345" lon="35.32458259"><ele>811.0</ele><time>2015-11-26T13:30:23.0000000+00:00</time></trkpt><trkpt lat="29.78934213" lon="35.32458745"><ele>811.0</ele><time>2015-11-26T13:30:24.0000000+00:00</time></trkpt><trkpt lat="29.78930173" lon="35.3246027"><ele>811.0</ele><time>2015-11-26T13:30:25.0000000+00:00</time></trkpt><trkpt lat="29.78926602" lon="35.32462735"><ele>811.0</ele><time>2015-11-26T13:30:26.0000000+00:00</time></trkpt><trkpt lat="29.78923685" lon="35.32466264"><ele>811.5</ele><time>2015-11-26T13:30:27.0000000+00:00</time></trkpt><trkpt lat="29.78921531" lon="35.32470656"><ele>811.5</ele><time>2015-11-26T13:30:28.0000000+00:00</time></trkpt><trkpt lat="29.78919829" lon="35.32475408"><ele>811.5</ele><time>2015-11-26T13:30:29.0000000+00:00</time></trkpt><trkpt lat="29.78918119" lon="35.32480429"><ele>811.5</ele><time>2015-11-26T13:30:30.0000000+00:00</time></trkpt><trkpt lat="29.78904809" lon="35.32524233"><ele>811.0</ele><time>2015-11-26T13:30:39.0000000+00:00</time></trkpt><trkpt lat="29.78903258" lon="35.32528684"><ele>811.5</ele><time>2015-11-26T13:30:40.0000000+00:00</time></trkpt><trkpt lat="29.78902009" lon="35.32533428"><ele>811.0</ele><time>2015-11-26T13:30:41.0000000+00:00</time></trkpt><trkpt lat="29.78900685" lon="35.32538331"><ele>811.5</ele><time>2015-11-26T13:30:42.0000000+00:00</time></trkpt><trkpt lat="29.78899252" lon="35.32543285"><ele>811.0</ele><time>2015-11-26T13:30:43.0000000+00:00</time></trkpt><trkpt lat="29.78896243" lon="35.32553528"><ele>811.5</ele><time>2015-11-26T13:30:45.0000000+00:00</time></trkpt><trkpt lat="29.78894499" lon="35.32558708"><ele>811.0</ele><time>2015-11-26T13:30:46.0000000+00:00</time></trkpt><trkpt lat="29.78862388" lon="35.32655619"><ele>811.0</ele><time>2015-11-26T13:31:03.0000000+00:00</time></trkpt><trkpt lat="29.78821895" lon="35.32777844"><ele>810.5</ele><time>2015-11-26T13:31:24.0000000+00:00</time></trkpt><trkpt lat="29.78787563" lon="35.32885183"><ele>811.5</ele><time>2015-11-26T13:31:42.0000000+00:00</time></trkpt><trkpt lat="29.78759165" lon="35.32984827"><ele>811.0</ele><time>2015-11-26T13:31:59.0000000+00:00</time></trkpt><trkpt lat="29.78736358" lon="35.33071211"><ele>810.5</ele><time>2015-11-26T13:32:14.0000000+00:00</time></trkpt><trkpt lat="29.78728831" lon="35.33100002"><ele>811.0</ele><time>2015-11-26T13:32:19.0000000+00:00</time></trkpt><trkpt lat="29.78701254" lon="35.33199026"><ele>811.0</ele><time>2015-11-26T13:32:36.0000000+00:00</time></trkpt><trkpt lat="29.78676486" lon="35.33293247"><ele>810.5</ele><time>2015-11-26T13:32:54.0000000+00:00</time></trkpt><trkpt lat="29.78667861" lon="35.33306449"><ele>810.1</ele><time>2015-11-26T13:32:58.0000000+00:00</time></trkpt><trkpt lat="29.78664382" lon="35.33307002"><ele>810.1</ele><time>2015-11-26T13:32:59.0000000+00:00</time></trkpt><trkpt lat="29.78660988" lon="35.33306315"><ele>810.1</ele><time>2015-11-26T13:33:00.0000000+00:00</time></trkpt><trkpt lat="29.78657912" lon="35.33304965"><ele>810.1</ele><time>2015-11-26T13:33:01.0000000+00:00</time></trkpt><trkpt lat="29.78654768" lon="35.33303297"><ele>810.1</ele><time>2015-11-26T13:33:02.0000000+00:00</time></trkpt><trkpt lat="29.78632456" lon="35.3328976"><ele>810.1</ele><time>2015-11-26T13:33:08.0000000+00:00</time></trkpt><trkpt lat="29.78628147" lon="35.33287195"><ele>810.1</ele><time>2015-11-26T13:33:09.0000000+00:00</time></trkpt><trkpt lat="29.7853997" lon="35.33230643"><ele>809.1</ele><time>2015-11-26T13:33:29.0000000+00:00</time></trkpt><trkpt lat="29.78521228" lon="35.33222479"><ele>808.6</ele><time>2015-11-26T13:33:33.0000000+00:00</time></trkpt><trkpt lat="29.7851635" lon="35.33222822"><ele>808.6</ele><time>2015-11-26T13:33:34.0000000+00:00</time></trkpt><trkpt lat="29.78511865" lon="35.33224809"><ele>808.6</ele><time>2015-11-26T13:33:35.0000000+00:00</time></trkpt><trkpt lat="29.78508345" lon="35.33228078"><ele>808.6</ele><time>2015-11-26T13:33:36.0000000+00:00</time></trkpt><trkpt lat="29.7850599" lon="35.33232059"><ele>808.6</ele><time>2015-11-26T13:33:37.0000000+00:00</time></trkpt><trkpt lat="29.78504757" lon="35.33236485"><ele>808.6</ele><time>2015-11-26T13:33:38.0000000+00:00</time></trkpt><trkpt lat="29.78504422" lon="35.33241288"><ele>809.1</ele><time>2015-11-26T13:33:39.0000000+00:00</time></trkpt><trkpt lat="29.78504137" lon="35.33246334"><ele>808.6</ele><time>2015-11-26T13:33:40.0000000+00:00</time></trkpt><trkpt lat="29.78503986" lon="35.33251598"><ele>808.6</ele><time>2015-11-26T13:33:41.0000000+00:00</time></trkpt><trkpt lat="29.78504246" lon="35.3325697"><ele>808.6</ele><time>2015-11-26T13:33:42.0000000+00:00</time></trkpt><trkpt lat="29.7850428" lon="35.33262402"><ele>809.1</ele><time>2015-11-26T13:33:43.0000000+00:00</time></trkpt><trkpt lat="29.78503869" lon="35.33267909"><ele>808.6</ele><time>2015-11-26T13:33:44.0000000+00:00</time></trkpt><trkpt lat="29.78502595" lon="35.33306591"><ele>809.1</ele><time>2015-11-26T13:33:51.0000000+00:00</time></trkpt><trkpt lat="29.78502603" lon="35.33311972"><ele>809.1</ele><time>2015-11-26T13:33:52.0000000+00:00</time></trkpt><trkpt lat="29.78498521" lon="35.33412882"><ele>809.1</ele><time>2015-11-26T13:34:09.0000000+00:00</time></trkpt><trkpt lat="29.78495118" lon="35.33500272"><ele>809.1</ele><time>2015-11-26T13:34:23.0000000+00:00</time></trkpt><trkpt lat="29.78494523" lon="35.33505452"><ele>809.1</ele><time>2015-11-26T13:34:24.0000000+00:00</time></trkpt><trkpt lat="29.78493534" lon="35.3351028"><ele>808.6</ele><time>2015-11-26T13:34:25.0000000+00:00</time></trkpt><trkpt lat="29.78492159" lon="35.33514328"><ele>809.1</ele><time>2015-11-26T13:34:26.0000000+00:00</time></trkpt><trkpt lat="29.78490139" lon="35.33517195"><ele>808.6</ele><time>2015-11-26T13:34:27.0000000+00:00</time></trkpt><trkpt lat="29.78487566" lon="35.33519282"><ele>808.6</ele><time>2015-11-26T13:34:28.0000000+00:00</time></trkpt><trkpt lat="29.78479553" lon="35.33521185"><ele>808.1</ele><time>2015-11-26T13:34:32.0000000+00:00</time></trkpt><trkpt lat="29.784359" lon="35.33482661"><ele>807.6</ele><time>2015-11-26T13:34:45.0000000+00:00</time></trkpt><trkpt lat="29.78388324" lon="35.33443107"><ele>807.6</ele><time>2015-11-26T13:34:58.0000000+00:00</time></trkpt><trkpt lat="29.78308269" lon="35.33375164"><ele>806.2</ele><time>2015-11-26T13:35:14.0000000+00:00</time></trkpt><trkpt lat="29.78214744" lon="35.33298369"><ele>805.7</ele><time>2015-11-26T13:35:33.0000000+00:00</time></trkpt><trkpt lat="29.78124177" lon="35.33225186"><ele>805.2</ele><time>2015-11-26T13:35:52.0000000+00:00</time></trkpt><trkpt lat="29.7804294" lon="35.33159615"><ele>804.8</ele><time>2015-11-26T13:36:09.0000000+00:00</time></trkpt><trkpt lat="29.77984367" lon="35.33111008"><ele>804.3</ele><time>2015-11-26T13:36:21.0000000+00:00</time></trkpt><trkpt lat="29.77966849" lon="35.33093624"><ele>804.3</ele><time>2015-11-26T13:36:25.0000000+00:00</time></trkpt><trkpt lat="29.77903029" lon="35.33041715"><ele>803.8</ele><time>2015-11-26T13:36:39.0000000+00:00</time></trkpt><trkpt lat="29.77831473" lon="35.32985045"><ele>803.3</ele><time>2015-11-26T13:36:54.0000000+00:00</time></trkpt><trkpt lat="29.77814198" lon="35.32968951"><ele>802.8</ele><time>2015-11-26T13:36:58.0000000+00:00</time></trkpt><trkpt lat="29.77732231" lon="35.329068"><ele>801.9</ele><time>2015-11-26T13:37:15.0000000+00:00</time></trkpt><trkpt lat="29.77671353" lon="35.32860498"><ele>801.9</ele><time>2015-11-26T13:37:28.0000000+00:00</time></trkpt><trkpt lat="29.77636032" lon="35.3283505"><ele>801.9</ele><time>2015-11-26T13:37:36.0000000+00:00</time></trkpt><trkpt lat="29.77618095" lon="35.32820743"><ele>801.4</ele><time>2015-11-26T13:37:40.0000000+00:00</time></trkpt><trkpt lat="29.77582421" lon="35.32792026"><ele>800.4</ele><time>2015-11-26T13:37:48.0000000+00:00</time></trkpt><trkpt lat="29.77561601" lon="35.32778515"><ele>800.4</ele><time>2015-11-26T13:37:53.0000000+00:00</time></trkpt><trkpt lat="29.77557435" lon="35.32778447"><ele>800.4</ele><time>2015-11-26T13:37:54.0000000+00:00</time></trkpt><trkpt lat="29.77553587" lon="35.32779889"><ele>800.4</ele><time>2015-11-26T13:37:55.0000000+00:00</time></trkpt><trkpt lat="29.77550293" lon="35.3278232"><ele>800.4</ele><time>2015-11-26T13:37:56.0000000+00:00</time></trkpt><trkpt lat="29.77547695" lon="35.32785262"><ele>800.9</ele><time>2015-11-26T13:37:57.0000000+00:00</time></trkpt><trkpt lat="29.7754534" lon="35.32788347"><ele>800.4</ele><time>2015-11-26T13:37:58.0000000+00:00</time></trkpt><trkpt lat="29.77495132" lon="35.32839602"><ele>800.4</ele><time>2015-11-26T13:38:12.0000000+00:00</time></trkpt><trkpt lat="29.77426778" lon="35.3290939"><ele>800.9</ele><time>2015-11-26T13:38:29.0000000+00:00</time></trkpt><trkpt lat="29.77381934" lon="35.32964651"><ele>800.9</ele><time>2015-11-26T13:38:44.0000000+00:00</time></trkpt><trkpt lat="29.77383552" lon="35.32968524"><ele>800.9</ele><time>2015-11-26T13:38:45.0000000+00:00</time></trkpt><trkpt lat="29.77386016" lon="35.32971952"><ele>800.4</ele><time>2015-11-26T13:38:46.0000000+00:00</time></trkpt><trkpt lat="29.77442686" lon="35.33019125"><ele>800.0</ele><time>2015-11-26T13:39:00.0000000+00:00</time></trkpt><trkpt lat="29.77451001" lon="35.3302646"><ele>800.0</ele><time>2015-11-26T13:39:02.0000000+00:00</time></trkpt><trkpt lat="29.77454656" lon="35.33030835"><ele>800.0</ele><time>2015-11-26T13:39:03.0000000+00:00</time></trkpt><trkpt lat="29.7745774" lon="35.33035579"><ele>800.4</ele><time>2015-11-26T13:39:04.0000000+00:00</time></trkpt><trkpt lat="29.77460356" lon="35.33040709"><ele>800.0</ele><time>2015-11-26T13:39:05.0000000+00:00</time></trkpt><trkpt lat="29.77462552" lon="35.33046258"><ele>800.0</ele><time>2015-11-26T13:39:06.0000000+00:00</time></trkpt><trkpt lat="29.77464513" lon="35.33051974"><ele>800.0</ele><time>2015-11-26T13:39:07.0000000+00:00</time></trkpt><trkpt lat="29.77477781" lon="35.3309499"><ele>800.4</ele><time>2015-11-26T13:39:15.0000000+00:00</time></trkpt><trkpt lat="29.77496373" lon="35.33157712"><ele>800.9</ele><time>2015-11-26T13:39:27.0000000+00:00</time></trkpt><trkpt lat="29.77497839" lon="35.33163236"><ele>800.9</ele><time>2015-11-26T13:39:28.0000000+00:00</time></trkpt><trkpt lat="29.77529607" lon="35.33264254"><ele>800.9</ele><time>2015-11-26T13:39:46.0000000+00:00</time></trkpt><trkpt lat="29.77567728" lon="35.33388834"><ele>801.9</ele><time>2015-11-26T13:40:07.0000000+00:00</time></trkpt><trkpt lat="29.77574601" lon="35.33405397"><ele>801.9</ele><time>2015-11-26T13:40:10.0000000+00:00</time></trkpt><trkpt lat="29.7757797" lon="35.33409848"><ele>801.9</ele><time>2015-11-26T13:40:11.0000000+00:00</time></trkpt><trkpt lat="29.7758227" lon="35.33413125"><ele>801.9</ele><time>2015-11-26T13:40:12.0000000+00:00</time></trkpt><trkpt lat="29.7758714" lon="35.33415137"><ele>801.9</ele><time>2015-11-26T13:40:13.0000000+00:00</time></trkpt><trkpt lat="29.7759237" lon="35.33416101"><ele>801.9</ele><time>2015-11-26T13:40:14.0000000+00:00</time></trkpt><trkpt lat="29.77597659" lon="35.33416352"><ele>801.9</ele><time>2015-11-26T13:40:15.0000000+00:00</time></trkpt><trkpt lat="29.77602915" lon="35.33416201"><ele>801.9</ele><time>2015-11-26T13:40:16.0000000+00:00</time></trkpt><trkpt lat="29.77634976" lon="35.33416218"><ele>801.9</ele><time>2015-11-26T13:40:22.0000000+00:00</time></trkpt><trkpt lat="29.77640206" lon="35.33417811"><ele>801.9</ele><time>2015-11-26T13:40:23.0000000+00:00</time></trkpt><trkpt lat="29.77644917" lon="35.33420661"><ele>801.9</ele><time>2015-11-26T13:40:24.0000000+00:00</time></trkpt><trkpt lat="29.77648781" lon="35.33425153"><ele>801.9</ele><time>2015-11-26T13:40:25.0000000+00:00</time></trkpt><trkpt lat="29.77651496" lon="35.33430601"><ele>801.9</ele><time>2015-11-26T13:40:26.0000000+00:00</time></trkpt><trkpt lat="29.77653123" lon="35.33436595"><ele>801.9</ele><time>2015-11-26T13:40:27.0000000+00:00</time></trkpt><trkpt lat="29.77653936" lon="35.3344273"><ele>801.9</ele><time>2015-11-26T13:40:28.0000000+00:00</time></trkpt><trkpt lat="29.77654573" lon="35.33448874"><ele>801.9</ele><time>2015-11-26T13:40:29.0000000+00:00</time></trkpt><trkpt lat="29.77653508" lon="35.3354861"><ele>802.4</ele><time>2015-11-26T13:40:45.0000000+00:00</time></trkpt><trkpt lat="29.77649208" lon="35.33669536"><ele>801.9</ele><time>2015-11-26T13:41:04.0000000+00:00</time></trkpt><trkpt lat="29.77648035" lon="35.33795047"><ele>802.4</ele><time>2015-11-26T13:41:23.0000000+00:00</time></trkpt><trkpt lat="29.77645679" lon="35.33925888"><ele>803.3</ele><time>2015-11-26T13:41:42.0000000+00:00</time></trkpt><trkpt lat="29.77644632" lon="35.34043184"><ele>803.8</ele><time>2015-11-26T13:41:59.0000000+00:00</time></trkpt><trkpt lat="29.77642033" lon="35.34174948"><ele>803.8</ele><time>2015-11-26T13:42:19.0000000+00:00</time></trkpt><trkpt lat="29.77639686" lon="35.34302822"><ele>803.8</ele><time>2015-11-26T13:42:39.0000000+00:00</time></trkpt><trkpt lat="29.77637884" lon="35.34366474"><ele>804.3</ele><time>2015-11-26T13:42:49.0000000+00:00</time></trkpt><trkpt lat="29.77636862" lon="35.34372174"><ele>804.3</ele><time>2015-11-26T13:42:50.0000000+00:00</time></trkpt><trkpt lat="29.77635336" lon="35.34377555"><ele>804.3</ele><time>2015-11-26T13:42:51.0000000+00:00</time></trkpt><trkpt lat="29.77633081" lon="35.34382543"><ele>804.3</ele><time>2015-11-26T13:42:52.0000000+00:00</time></trkpt><trkpt lat="29.77630123" lon="35.3438665"><ele>804.3</ele><time>2015-11-26T13:42:53.0000000+00:00</time></trkpt><trkpt lat="29.77626543" lon="35.34389935"><ele>804.3</ele><time>2015-11-26T13:42:54.0000000+00:00</time></trkpt><trkpt lat="29.77622177" lon="35.34392073"><ele>804.8</ele><time>2015-11-26T13:42:55.0000000+00:00</time></trkpt><trkpt lat="29.77617223" lon="35.34392911"><ele>804.8</ele><time>2015-11-26T13:42:56.0000000+00:00</time></trkpt><trkpt lat="29.77612068" lon="35.34392953"><ele>804.3</ele><time>2015-11-26T13:42:57.0000000+00:00</time></trkpt><trkpt lat="29.77606628" lon="35.34392718"><ele>804.3</ele><time>2015-11-26T13:42:58.0000000+00:00</time></trkpt><trkpt lat="29.77501486" lon="35.34393867"><ele>803.8</ele><time>2015-11-26T13:43:16.0000000+00:00</time></trkpt><trkpt lat="29.77402135" lon="35.3439784"><ele>802.8</ele><time>2015-11-26T13:43:31.0000000+00:00</time></trkpt><trkpt lat="29.77260581" lon="35.3440302"><ele>801.9</ele><time>2015-11-26T13:43:51.0000000+00:00</time></trkpt><trkpt lat="29.77199159" lon="35.34405769"><ele>800.9</ele><time>2015-11-26T13:43:59.0000000+00:00</time></trkpt><trkpt lat="29.77191791" lon="35.34404922"><ele>800.9</ele><time>2015-11-26T13:44:00.0000000+00:00</time></trkpt><trkpt lat="29.77184591" lon="35.34403397"><ele>800.4</ele><time>2015-11-26T13:44:01.0000000+00:00</time></trkpt><trkpt lat="29.77088878" lon="35.34367304"><ele>800.0</ele><time>2015-11-26T13:44:16.0000000+00:00</time></trkpt><trkpt lat="29.76996115" lon="35.343306"><ele>799.0</ele><time>2015-11-26T13:44:31.0000000+00:00</time></trkpt><trkpt lat="29.76894066" lon="35.34288473"><ele>799.0</ele><time>2015-11-26T13:44:48.0000000+00:00</time></trkpt><trkpt lat="29.76780457" lon="35.34242104"><ele>797.6</ele><time>2015-11-26T13:45:06.0000000+00:00</time></trkpt><trkpt lat="29.76658601" lon="35.34194226"><ele>796.1</ele><time>2015-11-26T13:45:26.0000000+00:00</time></trkpt><trkpt lat="29.76562033" lon="35.34154052"><ele>795.6</ele><time>2015-11-26T13:45:43.0000000+00:00</time></trkpt><trkpt lat="29.76545135" lon="35.34147673"><ele>795.6</ele><time>2015-11-26T13:45:46.0000000+00:00</time></trkpt><trkpt lat="29.76459808" lon="35.3411236"><ele>795.6</ele><time>2015-11-26T13:46:01.0000000+00:00</time></trkpt><trkpt lat="29.76399927" lon="35.34090433"><ele>796.6</ele><time>2015-11-26T13:46:15.0000000+00:00</time></trkpt><trkpt lat="29.76396114" lon="35.34088455"><ele>796.1</ele><time>2015-11-26T13:46:16.0000000+00:00</time></trkpt><trkpt lat="29.76381621" lon="35.34080434"><ele>796.1</ele><time>2015-11-26T13:46:20.0000000+00:00</time></trkpt><trkpt lat="29.76362427" lon="35.34072915"><ele>795.6</ele><time>2015-11-26T13:46:25.0000000+00:00</time></trkpt><trkpt lat="29.76286361" lon="35.34042791"><ele>794.7</ele><time>2015-11-26T13:46:42.0000000+00:00</time></trkpt><trkpt lat="29.76272791" lon="35.34036831"><ele>794.2</ele><time>2015-11-26T13:46:45.0000000+00:00</time></trkpt><trkpt lat="29.76226238" lon="35.3402114"><ele>793.7</ele><time>2015-11-26T13:46:58.0000000+00:00</time></trkpt><trkpt lat="29.76185787" lon="35.34004301"><ele>793.7</ele><time>2015-11-26T13:47:10.0000000+00:00</time></trkpt><trkpt lat="29.76146266" lon="35.3399125"><ele>793.2</ele><time>2015-11-26T13:47:19.0000000+00:00</time></trkpt><trkpt lat="29.76142243" lon="35.33991267"><ele>793.2</ele><time>2015-11-26T13:47:20.0000000+00:00</time></trkpt><trkpt lat="29.76086989" lon="35.3399084"><ele>792.7</ele><time>2015-11-26T13:47:32.0000000+00:00</time></trkpt><trkpt lat="29.76081616" lon="35.33991451"><ele>792.7</ele><time>2015-11-26T13:47:33.0000000+00:00</time></trkpt><trkpt lat="29.76005366" lon="35.33989633"><ele>791.8</ele><time>2015-11-26T13:47:46.0000000+00:00</time></trkpt><trkpt lat="29.75999147" lon="35.33988627"><ele>791.8</ele><time>2015-11-26T13:47:47.0000000+00:00</time></trkpt><trkpt lat="29.75992852" lon="35.33987797"><ele>791.3</ele><time>2015-11-26T13:47:48.0000000+00:00</time></trkpt><trkpt lat="29.7588574" lon="35.33986489"><ele>790.3</ele><time>2015-11-26T13:48:05.0000000+00:00</time></trkpt><trkpt lat="29.7578716" lon="35.33985106"><ele>789.9</ele><time>2015-11-26T13:48:21.0000000+00:00</time></trkpt><trkpt lat="29.75696116" lon="35.33984587"><ele>789.4</ele><time>2015-11-26T13:48:36.0000000+00:00</time></trkpt><trkpt lat="29.75678313" lon="35.33982935"><ele>788.9</ele><time>2015-11-26T13:48:39.0000000+00:00</time></trkpt><trkpt lat="29.75666335" lon="35.33981368"><ele>788.9</ele><time>2015-11-26T13:48:41.0000000+00:00</time></trkpt><trkpt lat="29.75643033" lon="35.33980312"><ele>789.4</ele><time>2015-11-26T13:48:45.0000000+00:00</time></trkpt><trkpt lat="29.75627946" lon="35.33979935"><ele>788.9</ele><time>2015-11-26T13:48:48.0000000+00:00</time></trkpt><trkpt lat="29.75566129" lon="35.33979155"><ele>788.9</ele><time>2015-11-26T13:49:00.0000000+00:00</time></trkpt><trkpt lat="29.75560857" lon="35.33979532"><ele>789.4</ele><time>2015-11-26T13:49:01.0000000+00:00</time></trkpt><trkpt lat="29.75453292" lon="35.33976926"><ele>789.4</ele><time>2015-11-26T13:49:21.0000000+00:00</time></trkpt><trkpt lat="29.75356221" lon="35.33973782"><ele>788.9</ele><time>2015-11-26T13:49:39.0000000+00:00</time></trkpt><trkpt lat="29.75234306" lon="35.33971259"><ele>788.4</ele><time>2015-11-26T13:50:01.0000000+00:00</time></trkpt><trkpt lat="29.75146607" lon="35.33968946"><ele>787.5</ele><time>2015-11-26T13:50:17.0000000+00:00</time></trkpt><trkpt lat="29.75143287" lon="35.33969977"><ele>787.9</ele><time>2015-11-26T13:50:24.0000000+00:00</time></trkpt><trkpt lat="29.75143648" lon="35.33969508"><ele>787.5</ele><time>2015-11-26T13:50:47.0000000+00:00</time></trkpt><trkpt lat="29.75144897" lon="35.33970245"><ele>787.5</ele><time>2015-11-26T13:51:05.0000000+00:00</time></trkpt><trkpt lat="29.75144729" lon="35.33971729"><ele>787.0</ele><time>2015-11-26T13:51:20.0000000+00:00</time></trkpt><trkpt lat="29.75143681" lon="35.33972542"><ele>786.5</ele><time>2015-11-26T13:52:13.0000000+00:00</time></trkpt><trkpt lat="29.75143111" lon="35.33972022"><ele>786.0</ele><time>2015-11-26T13:52:51.0000000+00:00</time></trkpt><trkpt lat="29.75143547" lon="35.33972031"><ele>786.0</ele><time>2015-11-26T13:53:47.0000000+00:00</time></trkpt><trkpt lat="29.75143514" lon="35.33972098"><ele>785.5</ele><time>2015-11-26T13:54:36.0000000+00:00</time></trkpt><trkpt lat="29.75143841" lon="35.33972458"><ele>785.1</ele><time>2015-11-26T13:55:23.0000000+00:00</time></trkpt><trkpt lat="29.75143405" lon="35.33972911"><ele>785.1</ele><time>2015-11-26T13:56:12.0000000+00:00</time></trkpt><trkpt lat="29.7514405" lon="35.33971813"><ele>785.1</ele><time>2015-11-26T13:57:10.0000000+00:00</time></trkpt><trkpt lat="29.75144092" lon="35.33971678"><ele>784.6</ele><time>2015-11-26T13:58:17.0000000+00:00</time></trkpt><trkpt lat="29.75144469" lon="35.3397162"><ele>784.6</ele><time>2015-11-26T13:59:22.0000000+00:00</time></trkpt><trkpt lat="29.75144377" lon="35.33972047"><ele>784.6</ele><time>2015-11-26T14:00:16.0000000+00:00</time></trkpt><trkpt lat="29.75144436" lon="35.3397219"><ele>784.1</ele><time>2015-11-26T14:01:09.0000000+00:00</time></trkpt><trkpt lat="29.75144126" lon="35.33972207"><ele>784.1</ele><time>2015-11-26T14:02:08.0000000+00:00</time></trkpt><trkpt lat="29.75144126" lon="35.33971754"><ele>784.6</ele><time>2015-11-26T14:03:04.0000000+00:00</time></trkpt><trkpt lat="29.7514374" lon="35.33971008"><ele>784.1</ele><time>2015-11-26T14:03:58.0000000+00:00</time></trkpt><trkpt lat="29.75144142" lon="35.33969952"><ele>784.6</ele><time>2015-11-26T14:04:19.0000000+00:00</time></trkpt><trkpt lat="29.75140831" lon="35.33970371"><ele>784.6</ele><time>2015-11-26T14:04:37.0000000+00:00</time></trkpt><trkpt lat="29.75110774" lon="35.33968762"><ele>784.6</ele><time>2015-11-26T14:04:49.0000000+00:00</time></trkpt><trkpt lat="29.75055587" lon="35.33966465"><ele>783.6</ele><time>2015-11-26T14:05:03.0000000+00:00</time></trkpt><trkpt lat="29.75033283" lon="35.33965878"><ele>784.1</ele><time>2015-11-26T14:05:08.0000000+00:00</time></trkpt><trkpt lat="29.74949565" lon="35.33965082"><ele>782.7</ele><time>2015-11-26T14:05:26.0000000+00:00</time></trkpt><trkpt lat="29.74888545" lon="35.33964437"><ele>781.2</ele><time>2015-11-26T14:05:42.0000000+00:00</time></trkpt><trkpt lat="29.74878511" lon="35.33967513"><ele>781.2</ele><time>2015-11-26T14:05:45.0000000+00:00</time></trkpt><trkpt lat="29.7485505" lon="35.33990655"><ele>780.3</ele><time>2015-11-26T14:05:52.0000000+00:00</time></trkpt><trkpt lat="29.74847448" lon="35.34007595"><ele>780.3</ele><time>2015-11-26T14:05:57.0000000+00:00</time></trkpt><trkpt lat="29.74845495" lon="35.34026966"><ele>779.8</ele><time>2015-11-26T14:06:13.0000000+00:00</time></trkpt><trkpt lat="29.74840667" lon="35.34054978"><ele>779.8</ele><time>2015-11-26T14:06:23.0000000+00:00</time></trkpt><trkpt lat="29.74837197" lon="35.34061239"><ele>779.8</ele><time>2015-11-26T14:06:28.0000000+00:00</time></trkpt><trkpt lat="29.74819084" lon="35.34101833"><ele>779.3</ele><time>2015-11-26T14:06:42.0000000+00:00</time></trkpt><trkpt lat="29.74798003" lon="35.34148201"><ele>778.8</ele><time>2015-11-26T14:06:56.0000000+00:00</time></trkpt><trkpt lat="29.7477911" lon="35.34189013"><ele>778.8</ele><time>2015-11-26T14:07:10.0000000+00:00</time></trkpt><trkpt lat="29.74751618" lon="35.3423653"><ele>778.8</ele><time>2015-11-26T14:07:25.0000000+00:00</time></trkpt><trkpt lat="29.74728978" lon="35.34284986"><ele>778.3</ele><time>2015-11-26T14:07:39.0000000+00:00</time></trkpt><trkpt lat="29.7469473" lon="35.34354053"><ele>778.3</ele><time>2015-11-26T14:07:56.0000000+00:00</time></trkpt><trkpt lat="29.74650783" lon="35.3444399"><ele>777.8</ele><time>2015-11-26T14:08:16.0000000+00:00</time></trkpt><trkpt lat="29.74639401" lon="35.34466697"><ele>777.8</ele><time>2015-11-26T14:08:21.0000000+00:00</time></trkpt><trkpt lat="29.74592244" lon="35.34562561"><ele>777.4</ele><time>2015-11-26T14:08:42.0000000+00:00</time></trkpt><trkpt lat="29.74555314" lon="35.34639825"><ele>777.4</ele><time>2015-11-26T14:08:59.0000000+00:00</time></trkpt><trkpt lat="29.74520009" lon="35.34724792"><ele>777.8</ele><time>2015-11-26T14:09:18.0000000+00:00</time></trkpt><trkpt lat="29.7450208" lon="35.34763517"><ele>777.8</ele><time>2015-11-26T14:09:31.0000000+00:00</time></trkpt><trkpt lat="29.74480589" lon="35.34812811"><ele>777.8</ele><time>2015-11-26T14:09:43.0000000+00:00</time></trkpt><trkpt lat="29.74456055" lon="35.34857369"><ele>777.8</ele><time>2015-11-26T14:09:54.0000000+00:00</time></trkpt><trkpt lat="29.74441957" lon="35.34879497"><ele>778.3</ele><time>2015-11-26T14:10:00.0000000+00:00</time></trkpt><trkpt lat="29.74408748" lon="35.34953409"><ele>778.3</ele><time>2015-11-26T14:10:19.0000000+00:00</time></trkpt><trkpt lat="29.74407029" lon="35.34959427"><ele>778.3</ele><time>2015-11-26T14:10:29.0000000+00:00</time></trkpt><trkpt lat="29.74407331" lon="35.3495796"><ele>778.3</ele><time>2015-11-26T14:10:34.0000000+00:00</time></trkpt><trkpt lat="29.7440402" lon="35.34945622"><ele>778.3</ele><time>2015-11-26T14:10:40.0000000+00:00</time></trkpt><trkpt lat="29.74378791" lon="35.34913947"><ele>777.4</ele><time>2015-11-26T14:10:50.0000000+00:00</time></trkpt><trkpt lat="29.74371976" lon="35.34896362"><ele>776.9</ele><time>2015-11-26T14:10:54.0000000+00:00</time></trkpt><trkpt lat="29.74368481" lon="35.34882163"><ele>777.4</ele><time>2015-11-26T14:10:57.0000000+00:00</time></trkpt><trkpt lat="29.74337116" lon="35.34816314"><ele>776.4</ele><time>2015-11-26T14:11:12.0000000+00:00</time></trkpt><trkpt lat="29.74325532" lon="35.34791814"><ele>776.4</ele><time>2015-11-26T14:11:18.0000000+00:00</time></trkpt><trkpt lat="29.74317712" lon="35.34780767"><ele>776.4</ele><time>2015-11-26T14:11:21.0000000+00:00</time></trkpt><trkpt lat="29.7427488" lon="35.34727852"><ele>776.4</ele><time>2015-11-26T14:11:37.0000000+00:00</time></trkpt><trkpt lat="29.7425929" lon="35.3469927"><ele>776.4</ele><time>2015-11-26T14:11:49.0000000+00:00</time></trkpt><trkpt lat="29.74250137" lon="35.34695003"><ele>775.9</ele><time>2015-11-26T14:11:55.0000000+00:00</time></trkpt><trkpt lat="29.74242509" lon="35.3469072"><ele>775.9</ele><time>2015-11-26T14:12:08.0000000+00:00</time></trkpt><trkpt lat="29.73840304" lon="35.34976484"><ele>791.8</ele><time>2015-11-26T14:17:40.0000000+00:00</time></trkpt><trkpt lat="29.73839449" lon="35.34977306"><ele>785.1</ele><time>2015-11-26T14:17:41.0000000+00:00</time></trkpt><trkpt lat="29.73835526" lon="35.34976618"><ele>785.1</ele><time>2015-11-26T14:17:42.0000000+00:00</time></trkpt><trkpt lat="29.73806064" lon="35.34982947"><ele>786.0</ele><time>2015-11-26T14:17:55.0000000+00:00</time></trkpt><trkpt lat="29.73765059" lon="35.3500044"><ele>786.5</ele><time>2015-11-26T14:18:09.0000000+00:00</time></trkpt><trkpt lat="29.73730207" lon="35.35012577"><ele>785.5</ele><time>2015-11-26T14:18:20.0000000+00:00</time></trkpt><trkpt lat="29.73690217" lon="35.35027396"><ele>786.0</ele><time>2015-11-26T14:18:35.0000000+00:00</time></trkpt><trkpt lat="29.73668148" lon="35.35045945"><ele>786.0</ele><time>2015-11-26T14:18:46.0000000+00:00</time></trkpt><trkpt lat="29.73662021" lon="35.35050211"><ele>786.0</ele><time>2015-11-26T14:18:50.0000000+00:00</time></trkpt><trkpt lat="29.73656346" lon="35.35054268"><ele>786.0</ele><time>2015-11-26T14:19:00.0000000+00:00</time></trkpt><trkpt lat="29.7365275" lon="35.3505576"><ele>786.5</ele><time>2015-11-26T14:19:05.0000000+00:00</time></trkpt><trkpt lat="29.73636238" lon="35.35063706"><ele>786.5</ele><time>2015-11-26T14:19:23.0000000+00:00</time></trkpt><trkpt lat="29.73616155" lon="35.3505804"><ele>786.5</ele><time>2015-11-26T14:19:42.0000000+00:00</time></trkpt><trkpt lat="29.73595452" lon="35.35051846"><ele>786.5</ele><time>2015-11-26T14:20:00.0000000+00:00</time></trkpt><trkpt lat="29.73574103" lon="35.35049977"><ele>786.5</ele><time>2015-11-26T14:20:19.0000000+00:00</time></trkpt><trkpt lat="29.73557113" lon="35.35045803"><ele>787.5</ele><time>2015-11-26T14:20:36.0000000+00:00</time></trkpt><trkpt lat="29.73548873" lon="35.35024446"><ele>786.0</ele><time>2015-11-26T14:20:49.0000000+00:00</time></trkpt><trkpt lat="29.73547784" lon="35.35012543"><ele>785.5</ele><time>2015-11-26T14:20:52.0000000+00:00</time></trkpt><trkpt lat="29.73542377" lon="35.34986048"><ele>786.0</ele><time>2015-11-26T14:20:58.0000000+00:00</time></trkpt><trkpt lat="29.73539745" lon="35.34984757"><ele>786.5</ele><time>2015-11-26T14:21:01.0000000+00:00</time></trkpt><trkpt lat="29.73535999" lon="35.34991253"><ele>786.0</ele><time>2015-11-26T14:21:07.0000000+00:00</time></trkpt><trkpt lat="29.73534146" lon="35.34992728"><ele>786.0</ele><time>2015-11-26T14:21:09.0000000+00:00</time></trkpt><trkpt lat="29.73531154" lon="35.349993"><ele>785.5</ele><time>2015-11-26T14:21:14.0000000+00:00</time></trkpt><trkpt lat="29.73505388" lon="35.35015133"><ele>784.6</ele><time>2015-11-26T14:21:28.0000000+00:00</time></trkpt><trkpt lat="29.73453663" lon="35.35012728"><ele>784.1</ele><time>2015-11-26T14:21:42.0000000+00:00</time></trkpt><trkpt lat="29.73406917" lon="35.35007606"><ele>784.1</ele><time>2015-11-26T14:21:55.0000000+00:00</time></trkpt><trkpt lat="29.73356701" lon="35.35002242"><ele>783.1</ele><time>2015-11-26T14:22:09.0000000+00:00</time></trkpt><trkpt lat="29.73326124" lon="35.35021068"><ele>783.1</ele><time>2015-11-26T14:22:19.0000000+00:00</time></trkpt><trkpt lat="29.73297098" lon="35.35089799"><ele>784.6</ele><time>2015-11-26T14:22:36.0000000+00:00</time></trkpt><trkpt lat="29.73279135" lon="35.3513336"><ele>785.1</ele><time>2015-11-26T14:22:51.0000000+00:00</time></trkpt><trkpt lat="29.73275003" lon="35.35145044"><ele>784.1</ele><time>2015-11-26T14:23:02.0000000+00:00</time></trkpt><trkpt lat="29.73275657" lon="35.35146209"><ele>784.1</ele><time>2015-11-26T14:23:23.0000000+00:00</time></trkpt><trkpt lat="29.73274358" lon="35.35147978"><ele>784.1</ele><time>2015-11-26T14:23:32.0000000+00:00</time></trkpt><trkpt lat="29.7325342" lon="35.35167047"><ele>782.2</ele><time>2015-11-26T14:23:46.0000000+00:00</time></trkpt><trkpt lat="29.73218149" lon="35.35188865"><ele>782.2</ele><time>2015-11-26T14:24:00.0000000+00:00</time></trkpt><trkpt lat="29.73178628" lon="35.35213256"><ele>782.7</ele><time>2015-11-26T14:24:13.0000000+00:00</time></trkpt><trkpt lat="29.73135956" lon="35.3524805"><ele>782.7</ele><time>2015-11-26T14:24:29.0000000+00:00</time></trkpt><trkpt lat="29.73100014" lon="35.35286481"><ele>783.6</ele><time>2015-11-26T14:24:43.0000000+00:00</time></trkpt><trkpt lat="29.73064592" lon="35.35314862"><ele>783.1</ele><time>2015-11-26T14:24:59.0000000+00:00</time></trkpt><trkpt lat="29.73038206" lon="35.35332656"><ele>783.1</ele><time>2015-11-26T14:25:12.0000000+00:00</time></trkpt><trkpt lat="29.73002465" lon="35.35355388"><ele>782.7</ele><time>2015-11-26T14:25:28.0000000+00:00</time></trkpt><trkpt lat="29.72967823" lon="35.35360786"><ele>782.2</ele><time>2015-11-26T14:25:41.0000000+00:00</time></trkpt><trkpt lat="29.72945804" lon="35.35363921"><ele>781.7</ele><time>2015-11-26T14:25:50.0000000+00:00</time></trkpt><trkpt lat="29.72943909" lon="35.35365639"><ele>782.2</ele><time>2015-11-26T14:25:52.0000000+00:00</time></trkpt><trkpt lat="29.72938545" lon="35.35366176"><ele>782.2</ele><time>2015-11-26T14:26:02.0000000+00:00</time></trkpt><trkpt lat="29.72927774" lon="35.35372328"><ele>781.7</ele><time>2015-11-26T14:26:17.0000000+00:00</time></trkpt><trkpt lat="29.72921069" lon="35.35372932"><ele>781.2</ele><time>2015-11-26T14:26:25.0000000+00:00</time></trkpt><trkpt lat="29.72912075" lon="35.35371657"><ele>780.7</ele><time>2015-11-26T14:26:35.0000000+00:00</time></trkpt><trkpt lat="29.72898924" lon="35.35371364"><ele>780.7</ele><time>2015-11-26T14:26:48.0000000+00:00</time></trkpt><trkpt lat="29.72885504" lon="35.35375496"><ele>780.7</ele><time>2015-11-26T14:27:03.0000000+00:00</time></trkpt><trkpt lat="29.72882696" lon="35.35376603"><ele>780.7</ele><time>2015-11-26T14:27:17.0000000+00:00</time></trkpt><trkpt lat="29.72882495" lon="35.35377089"><ele>780.7</ele><time>2015-11-26T14:27:18.0000000+00:00</time></trkpt><trkpt lat="29.72881657" lon="35.35387239"><ele>780.7</ele><time>2015-11-26T14:27:23.0000000+00:00</time></trkpt><trkpt lat="29.72879126" lon="35.35445401"><ele>780.7</ele><time>2015-11-26T14:27:39.0000000+00:00</time></trkpt><trkpt lat="29.72880291" lon="35.35481066"><ele>780.3</ele><time>2015-11-26T14:27:49.0000000+00:00</time></trkpt><trkpt lat="29.72866989" lon="35.35487898"><ele>780.3</ele><time>2015-11-26T14:27:55.0000000+00:00</time></trkpt><trkpt lat="29.72820134" lon="35.35480882"><ele>779.3</ele><time>2015-11-26T14:28:10.0000000+00:00</time></trkpt><trkpt lat="29.72808391" lon="35.35467337"><ele>779.3</ele><time>2015-11-26T14:28:20.0000000+00:00</time></trkpt><trkpt lat="29.72808701" lon="35.35467018"><ele>779.3</ele><time>2015-11-26T14:28:21.0000000+00:00</time></trkpt><trkpt lat="29.72803043" lon="35.35464713"><ele>779.3</ele><time>2015-11-26T14:28:27.0000000+00:00</time></trkpt><trkpt lat="29.7280052" lon="35.35462501"><ele>778.8</ele><time>2015-11-26T14:28:30.0000000+00:00</time></trkpt><trkpt lat="29.72797268" lon="35.35453046"><ele>778.8</ele><time>2015-11-26T14:28:40.0000000+00:00</time></trkpt><trkpt lat="29.72797268" lon="35.35443968"><ele>779.3</ele><time>2015-11-26T14:28:50.0000000+00:00</time></trkpt><trkpt lat="29.72786288" lon="35.35413592"><ele>779.3</ele><time>2015-11-26T14:29:05.0000000+00:00</time></trkpt><trkpt lat="29.72769826" lon="35.35373862"><ele>778.8</ele><time>2015-11-26T14:29:18.0000000+00:00</time></trkpt><trkpt lat="29.72756951" lon="35.35331734"><ele>778.8</ele><time>2015-11-26T14:29:32.0000000+00:00</time></trkpt><trkpt lat="29.72756423" lon="35.35327703"><ele>779.3</ele><time>2015-11-26T14:29:34.0000000+00:00</time></trkpt><trkpt lat="29.72754093" lon="35.35323897"><ele>779.3</ele><time>2015-11-26T14:29:49.0000000+00:00</time></trkpt><trkpt lat="29.72741637" lon="35.35321525"><ele>778.3</ele><time>2015-11-26T14:30:08.0000000+00:00</time></trkpt><trkpt lat="29.72739508" lon="35.3532238"><ele>777.8</ele><time>2015-11-26T14:30:24.0000000+00:00</time></trkpt><trkpt lat="29.72735653" lon="35.35323244"><ele>778.3</ele><time>2015-11-26T14:30:36.0000000+00:00</time></trkpt><trkpt lat="29.72729023" lon="35.353287"><ele>778.3</ele><time>2015-11-26T14:30:50.0000000+00:00</time></trkpt><trkpt lat="29.72726014" lon="35.35329253"><ele>777.8</ele><time>2015-11-26T14:31:09.0000000+00:00</time></trkpt><trkpt lat="29.72717682" lon="35.35321735"><ele>777.8</ele><time>2015-11-26T14:31:21.0000000+00:00</time></trkpt><trkpt lat="29.72699317" lon="35.35299246"><ele>776.9</ele><time>2015-11-26T14:31:35.0000000+00:00</time></trkpt><trkpt lat="29.72666175" lon="35.3528089"><ele>776.4</ele><time>2015-11-26T14:31:48.0000000+00:00</time></trkpt><trkpt lat="29.72642488" lon="35.35252936"><ele>776.4</ele><time>2015-11-26T14:32:01.0000000+00:00</time></trkpt><trkpt lat="29.72625548" lon="35.35233649"><ele>775.9</ele><time>2015-11-26T14:32:11.0000000+00:00</time></trkpt><trkpt lat="29.72623277" lon="35.35231562"><ele>775.4</ele><time>2015-11-26T14:32:27.0000000+00:00</time></trkpt><trkpt lat="29.72622438" lon="35.35232199"><ele>775.0</ele><time>2015-11-26T14:32:49.0000000+00:00</time></trkpt><trkpt lat="29.7262274" lon="35.35232032"><ele>774.5</ele><time>2015-11-26T14:33:44.0000000+00:00</time></trkpt><trkpt lat="29.72622287" lon="35.35231286"><ele>775.0</ele><time>2015-11-26T14:34:13.0000000+00:00</time></trkpt><trkpt lat="29.72617216" lon="35.35226114"><ele>774.5</ele><time>2015-11-26T14:34:17.0000000+00:00</time></trkpt><trkpt lat="29.7258394" lon="35.35190885"><ele>773.5</ele><time>2015-11-26T14:34:30.0000000+00:00</time></trkpt><trkpt lat="29.72573748" lon="35.35151205"><ele>774.0</ele><time>2015-11-26T14:34:41.0000000+00:00</time></trkpt><trkpt lat="29.72565014" lon="35.35110754"><ele>773.0</ele><time>2015-11-26T14:34:52.0000000+00:00</time></trkpt><trkpt lat="29.72556121" lon="35.35052952"><ele>772.6</ele><time>2015-11-26T14:35:05.0000000+00:00</time></trkpt><trkpt lat="29.72537672" lon="35.34995318"><ele>772.6</ele><time>2015-11-26T14:35:17.0000000+00:00</time></trkpt><trkpt lat="29.72511403" lon="35.3495713"><ele>772.6</ele><time>2015-11-26T14:35:26.0000000+00:00</time></trkpt><trkpt lat="29.72471765" lon="35.3492491"><ele>772.1</ele><time>2015-11-26T14:35:39.0000000+00:00</time></trkpt><trkpt lat="29.72453836" lon="35.3493429"><ele>772.6</ele><time>2015-11-26T14:35:44.0000000+00:00</time></trkpt><trkpt lat="29.72443292" lon="35.34947039"><ele>772.6</ele><time>2015-11-26T14:35:48.0000000+00:00</time></trkpt><trkpt lat="29.7243284" lon="35.34966602"><ele>772.6</ele><time>2015-11-26T14:35:53.0000000+00:00</time></trkpt><trkpt lat="29.72392078" lon="35.35007187"><ele>772.6</ele><time>2015-11-26T14:36:08.0000000+00:00</time></trkpt><trkpt lat="29.72378542" lon="35.35036884"><ele>772.6</ele><time>2015-11-26T14:36:19.0000000+00:00</time></trkpt><trkpt lat="29.7236897" lon="35.3508959"><ele>772.6</ele><time>2015-11-26T14:36:34.0000000+00:00</time></trkpt><trkpt lat="29.72357847" lon="35.35140937"><ele>772.6</ele><time>2015-11-26T14:36:47.0000000+00:00</time></trkpt><trkpt lat="29.72341309" lon="35.35225687"><ele>773.0</ele><time>2015-11-26T14:37:05.0000000+00:00</time></trkpt><trkpt lat="29.72337772" lon="35.35239936"><ele>773.0</ele><time>2015-11-26T14:37:08.0000000+00:00</time></trkpt><trkpt lat="29.72331461" lon="35.35277177"><ele>773.0</ele><time>2015-11-26T14:37:16.0000000+00:00</time></trkpt><trkpt lat="29.72328376" lon="35.35295567"><ele>773.0</ele><time>2015-11-26T14:37:20.0000000+00:00</time></trkpt><trkpt lat="29.72317555" lon="35.35353125"><ele>773.0</ele><time>2015-11-26T14:37:34.0000000+00:00</time></trkpt><trkpt lat="29.72305586" lon="35.35407775"><ele>773.5</ele><time>2015-11-26T14:37:47.0000000+00:00</time></trkpt><trkpt lat="29.72289098" lon="35.35484838"><ele>773.5</ele><time>2015-11-26T14:38:04.0000000+00:00</time></trkpt><trkpt lat="29.72274841" lon="35.35561767"><ele>773.5</ele><time>2015-11-26T14:38:21.0000000+00:00</time></trkpt><trkpt lat="29.7226267" lon="35.35627222"><ele>773.5</ele><time>2015-11-26T14:38:34.0000000+00:00</time></trkpt><trkpt lat="29.72257306" lon="35.35640809"><ele>774.0</ele><time>2015-11-26T14:38:37.0000000+00:00</time></trkpt><trkpt lat="29.72222311" lon="35.35703271"><ele>776.9</ele><time>2015-11-26T14:38:55.0000000+00:00</time></trkpt><trkpt lat="29.72202388" lon="35.35704897"><ele>777.4</ele><time>2015-11-26T14:39:05.0000000+00:00</time></trkpt><trkpt lat="29.72158492" lon="35.35704629"><ele>777.4</ele><time>2015-11-26T14:39:19.0000000+00:00</time></trkpt><trkpt lat="29.72110187" lon="35.35702055"><ele>776.4</ele><time>2015-11-26T14:39:32.0000000+00:00</time></trkpt><trkpt lat="29.72080817" lon="35.35695836"><ele>776.4</ele><time>2015-11-26T14:39:44.0000000+00:00</time></trkpt><trkpt lat="29.7206153" lon="35.35675334"><ele>774.5</ele><time>2015-11-26T14:39:56.0000000+00:00</time></trkpt><trkpt lat="29.72052176" lon="35.35664278"><ele>773.5</ele><time>2015-11-26T14:39:59.0000000+00:00</time></trkpt><trkpt lat="29.72034758" lon="35.35649635"><ele>773.5</ele><time>2015-11-26T14:40:05.0000000+00:00</time></trkpt><trkpt lat="29.71993058" lon="35.35630608"><ele>773.5</ele><time>2015-11-26T14:40:19.0000000+00:00</time></trkpt><trkpt lat="29.71949455" lon="35.35621472"><ele>773.5</ele><time>2015-11-26T14:40:34.0000000+00:00</time></trkpt><trkpt lat="29.71925969" lon="35.35629569"><ele>773.5</ele><time>2015-11-26T14:40:46.0000000+00:00</time></trkpt><trkpt lat="29.71907085" lon="35.35638814"><ele>773.5</ele><time>2015-11-26T14:40:59.0000000+00:00</time></trkpt><trkpt lat="29.71891411" lon="35.35645578"><ele>774.0</ele><time>2015-11-26T14:41:07.0000000+00:00</time></trkpt><trkpt lat="29.71887153" lon="35.35644933"><ele>773.5</ele><time>2015-11-26T14:41:10.0000000+00:00</time></trkpt><trkpt lat="29.71873264" lon="35.35647045"><ele>773.5</ele><time>2015-11-26T14:41:18.0000000+00:00</time></trkpt><trkpt lat="29.71828806" lon="35.35648277"><ele>773.5</ele><time>2015-11-26T14:41:32.0000000+00:00</time></trkpt><trkpt lat="29.71775942" lon="35.35646156"><ele>773.0</ele><time>2015-11-26T14:41:46.0000000+00:00</time></trkpt><trkpt lat="29.71756353" lon="35.35645561"><ele>773.5</ele><time>2015-11-26T14:41:51.0000000+00:00</time></trkpt><trkpt lat="29.71721015" lon="35.35640616"><ele>773.5</ele><time>2015-11-26T14:42:02.0000000+00:00</time></trkpt><trkpt lat="29.71675728" lon="35.35642401"><ele>773.0</ele><time>2015-11-26T14:42:16.0000000+00:00</time></trkpt><trkpt lat="29.71615864" lon="35.35639987"><ele>773.0</ele><time>2015-11-26T14:42:32.0000000+00:00</time></trkpt><trkpt lat="29.71582755" lon="35.35642259"><ele>773.0</ele><time>2015-11-26T14:42:45.0000000+00:00</time></trkpt><trkpt lat="29.71580174" lon="35.35653231"><ele>773.0</ele><time>2015-11-26T14:42:52.0000000+00:00</time></trkpt><trkpt lat="29.71584348" lon="35.35695903"><ele>773.5</ele><time>2015-11-26T14:43:05.0000000+00:00</time></trkpt><trkpt lat="29.71578196" lon="35.35748005"><ele>773.5</ele><time>2015-11-26T14:43:17.0000000+00:00</time></trkpt><trkpt lat="29.715746" lon="35.35785682"><ele>774.0</ele><time>2015-11-26T14:43:25.0000000+00:00</time></trkpt><trkpt lat="29.71574273" lon="35.35867204"><ele>773.5</ele><time>2015-11-26T14:43:44.0000000+00:00</time></trkpt><trkpt lat="29.71583225" lon="35.35898142"><ele>773.5</ele><time>2015-11-26T14:43:57.0000000+00:00</time></trkpt><trkpt lat="29.71597684" lon="35.35940043"><ele>773.5</ele><time>2015-11-26T14:44:10.0000000+00:00</time></trkpt><trkpt lat="29.71613777" lon="35.36011674"><ele>774.5</ele><time>2015-11-26T14:44:27.0000000+00:00</time></trkpt><trkpt lat="29.71624891" lon="35.36079769"><ele>775.4</ele><time>2015-11-26T14:44:44.0000000+00:00</time></trkpt><trkpt lat="29.71651236" lon="35.36101403"><ele>776.4</ele><time>2015-11-26T14:44:54.0000000+00:00</time></trkpt><trkpt lat="29.71681268" lon="35.36129021"><ele>776.4</ele><time>2015-11-26T14:45:06.0000000+00:00</time></trkpt><trkpt lat="29.7169483" lon="35.36179472"><ele>777.4</ele><time>2015-11-26T14:45:22.0000000+00:00</time></trkpt><trkpt lat="29.71714611" lon="35.362405"><ele>775.4</ele><time>2015-11-26T14:45:36.0000000+00:00</time></trkpt><trkpt lat="29.71735977" lon="35.36310397"><ele>775.0</ele><time>2015-11-26T14:45:50.0000000+00:00</time></trkpt><trkpt lat="29.71764601" lon="35.36404442"><ele>775.0</ele><time>2015-11-26T14:46:08.0000000+00:00</time></trkpt><trkpt lat="29.71786855" lon="35.36508369"><ele>775.4</ele><time>2015-11-26T14:46:26.0000000+00:00</time></trkpt><trkpt lat="29.71802638" lon="35.36612975"><ele>775.4</ele><time>2015-11-26T14:46:44.0000000+00:00</time></trkpt><trkpt lat="29.71811363" lon="35.36657877"><ele>775.4</ele><time>2015-11-26T14:46:52.0000000+00:00</time></trkpt><trkpt lat="29.71813476" lon="35.36689309"><ele>775.4</ele><time>2015-11-26T14:46:59.0000000+00:00</time></trkpt><trkpt lat="29.71806292" lon="35.36727757"><ele>775.4</ele><time>2015-11-26T14:47:07.0000000+00:00</time></trkpt><trkpt lat="29.71805303" lon="35.36753967"><ele>775.4</ele><time>2015-11-26T14:47:12.0000000+00:00</time></trkpt><trkpt lat="29.71791322" lon="35.36814719"><ele>775.4</ele><time>2015-11-26T14:47:26.0000000+00:00</time></trkpt><trkpt lat="29.7178237" lon="35.36860669"><ele>775.9</ele><time>2015-11-26T14:47:37.0000000+00:00</time></trkpt><trkpt lat="29.71785522" lon="35.36893627"><ele>775.4</ele><time>2015-11-26T14:47:46.0000000+00:00</time></trkpt><trkpt lat="29.71784818" lon="35.36903895"><ele>775.4</ele><time>2015-11-26T14:47:50.0000000+00:00</time></trkpt><trkpt lat="29.71781096" lon="35.36952124"><ele>775.4</ele><time>2015-11-26T14:48:03.0000000+00:00</time></trkpt><trkpt lat="29.71778582" lon="35.36986012"><ele>775.9</ele><time>2015-11-26T14:48:14.0000000+00:00</time></trkpt><trkpt lat="29.71776126" lon="35.37011485"><ele>775.9</ele><time>2015-11-26T14:48:22.0000000+00:00</time></trkpt><trkpt lat="29.71775212" lon="35.37015659"><ele>775.4</ele><time>2015-11-26T14:48:32.0000000+00:00</time></trkpt><trkpt lat="29.71774994" lon="35.37016765"><ele>775.4</ele><time>2015-11-26T14:48:37.0000000+00:00</time></trkpt><trkpt lat="29.71772312" lon="35.37021057"><ele>775.4</ele><time>2015-11-26T14:48:41.0000000+00:00</time></trkpt><trkpt lat="29.71771021" lon="35.37023538"><ele>775.4</ele><time>2015-11-26T14:48:43.0000000+00:00</time></trkpt><trkpt lat="29.71757652" lon="35.37048181"><ele>775.4</ele><time>2015-11-26T14:48:56.0000000+00:00</time></trkpt><trkpt lat="29.71739966" lon="35.37070074"><ele>775.4</ele><time>2015-11-26T14:49:07.0000000+00:00</time></trkpt><trkpt lat="29.7171793" lon="35.37083452"><ele>775.4</ele><time>2015-11-26T14:49:20.0000000+00:00</time></trkpt><trkpt lat="29.71691527" lon="35.37112093"><ele>775.4</ele><time>2015-11-26T14:49:33.0000000+00:00</time></trkpt><trkpt lat="29.71655561" lon="35.37147867"><ele>775.4</ele><time>2015-11-26T14:49:47.0000000+00:00</time></trkpt><trkpt lat="29.71651386" lon="35.37153994"><ele>775.4</ele><time>2015-11-26T14:49:57.0000000+00:00</time></trkpt><trkpt lat="29.7165204" lon="35.37152862"><ele>775.4</ele><time>2015-11-26T14:50:23.0000000+00:00</time></trkpt><trkpt lat="29.71651789" lon="35.37153332"><ele>775.4</ele><time>2015-11-26T14:50:41.0000000+00:00</time></trkpt><trkpt lat="29.7164774" lon="35.37154782"><ele>775.4</ele><time>2015-11-26T14:50:45.0000000+00:00</time></trkpt><trkpt lat="29.71624237" lon="35.37178134"><ele>775.4</ele><time>2015-11-26T14:50:57.0000000+00:00</time></trkpt><trkpt lat="29.71570669" lon="35.37230663"><ele>775.4</ele><time>2015-11-26T14:51:16.0000000+00:00</time></trkpt><trkpt lat="29.71538113" lon="35.37281164"><ele>775.4</ele><time>2015-11-26T14:51:32.0000000+00:00</time></trkpt><trkpt lat="29.71538918" lon="35.37281164"><ele>775.0</ele><time>2015-11-26T14:51:53.0000000+00:00</time></trkpt><trkpt lat="29.71540544" lon="35.3728253"><ele>774.5</ele><time>2015-11-26T14:52:33.0000000+00:00</time></trkpt><trkpt lat="29.71540561" lon="35.37283125"><ele>774.5</ele><time>2015-11-26T14:53:05.0000000+00:00</time></trkpt><trkpt lat="29.71540444" lon="35.37282631"><ele>774.0</ele><time>2015-11-26T14:53:52.0000000+00:00</time></trkpt><trkpt lat="29.7154015" lon="35.37282296"><ele>774.0</ele><time>2015-11-26T14:54:29.0000000+00:00</time></trkpt><trkpt lat="29.71540083" lon="35.37282455"><ele>773.5</ele><time>2015-11-26T14:55:15.0000000+00:00</time></trkpt><trkpt lat="29.71539714" lon="35.37282631"><ele>773.5</ele><time>2015-11-26T14:55:53.0000000+00:00</time></trkpt><trkpt lat="29.71539203" lon="35.37282757"><ele>773.0</ele><time>2015-11-26T14:56:23.0000000+00:00</time></trkpt><trkpt lat="29.71538306" lon="35.37282497"><ele>774.0</ele><time>2015-11-26T14:56:40.0000000+00:00</time></trkpt><trkpt lat="29.7151674" lon="35.37306461"><ele>773.5</ele><time>2015-11-26T14:56:52.0000000+00:00</time></trkpt><trkpt lat="29.71493077" lon="35.37353273"><ele>774.0</ele><time>2015-11-26T14:57:05.0000000+00:00</time></trkpt><trkpt lat="29.71474704" lon="35.37393264"><ele>774.0</ele><time>2015-11-26T14:57:16.0000000+00:00</time></trkpt><trkpt lat="29.71439064" lon="35.37471659"><ele>774.0</ele><time>2015-11-26T14:57:34.0000000+00:00</time></trkpt><trkpt lat="29.71417322" lon="35.37515522"><ele>774.0</ele><time>2015-11-26T14:57:45.0000000+00:00</time></trkpt><trkpt lat="29.71409024" lon="35.37531925"><ele>774.0</ele><time>2015-11-26T14:57:49.0000000+00:00</time></trkpt><trkpt lat="29.71402058" lon="35.37544582"><ele>774.0</ele><time>2015-11-26T14:57:52.0000000+00:00</time></trkpt><trkpt lat="29.71363988" lon="35.37606399"><ele>774.0</ele><time>2015-11-26T14:58:08.0000000+00:00</time></trkpt><trkpt lat="29.71334819" lon="35.37650932"><ele>774.0</ele><time>2015-11-26T14:58:19.0000000+00:00</time></trkpt><trkpt lat="29.7133077" lon="35.37660571"><ele>774.0</ele><time>2015-11-26T14:58:21.0000000+00:00</time></trkpt><trkpt lat="29.71288215" lon="35.37732664"><ele>774.0</ele><time>2015-11-26T14:58:37.0000000+00:00</time></trkpt><trkpt lat="29.71276062" lon="35.37749805"><ele>774.0</ele><time>2015-11-26T14:58:41.0000000+00:00</time></trkpt><trkpt lat="29.71230506" lon="35.37820749"><ele>774.0</ele><time>2015-11-26T14:58:58.0000000+00:00</time></trkpt><trkpt lat="29.71203776" lon="35.37897217"><ele>774.0</ele><time>2015-11-26T14:59:14.0000000+00:00</time></trkpt><trkpt lat="29.71181044" lon="35.37985395"><ele>774.0</ele><time>2015-11-26T14:59:31.0000000+00:00</time></trkpt><trkpt lat="29.71177725" lon="35.37996241"><ele>774.0</ele><time>2015-11-26T14:59:33.0000000+00:00</time></trkpt><trkpt lat="29.71172059" lon="35.38018486"><ele>774.0</ele><time>2015-11-26T14:59:37.0000000+00:00</time></trkpt><trkpt lat="29.7114522" lon="35.38136495"><ele>774.0</ele><time>2015-11-26T14:59:58.0000000+00:00</time></trkpt><trkpt lat="29.71124944" lon="35.38229526"><ele>774.0</ele><time>2015-11-26T15:00:14.0000000+00:00</time></trkpt><trkpt lat="29.71104727" lon="35.38343688"><ele>774.5</ele><time>2015-11-26T15:00:33.0000000+00:00</time></trkpt><trkpt lat="29.71085977" lon="35.38430918"><ele>774.0</ele><time>2015-11-26T15:00:49.0000000+00:00</time></trkpt><trkpt lat="29.71077134" lon="35.38456801"><ele>774.0</ele><time>2015-11-26T15:00:55.0000000+00:00</time></trkpt><trkpt lat="29.7106861" lon="35.38477337"><ele>773.5</ele><time>2015-11-26T15:01:00.0000000+00:00</time></trkpt><trkpt lat="29.71035166" lon="35.38573276"><ele>774.0</ele><time>2015-11-26T15:01:20.0000000+00:00</time></trkpt><trkpt lat="29.71017614" lon="35.38613157"><ele>774.0</ele><time>2015-11-26T15:01:28.0000000+00:00</time></trkpt><trkpt lat="29.71004513" lon="35.38640206"><ele>773.5</ele><time>2015-11-26T15:01:34.0000000+00:00</time></trkpt><trkpt lat="29.70984338" lon="35.3868898"><ele>773.5</ele><time>2015-11-26T15:01:48.0000000+00:00</time></trkpt><trkpt lat="29.70950064" lon="35.38745809"><ele>774.0</ele><time>2015-11-26T15:02:05.0000000+00:00</time></trkpt><trkpt lat="29.70925589" lon="35.38781466"><ele>774.0</ele><time>2015-11-26T15:02:15.0000000+00:00</time></trkpt><trkpt lat="29.70920971" lon="35.38789437"><ele>774.0</ele><time>2015-11-26T15:02:17.0000000+00:00</time></trkpt><trkpt lat="29.70898314" lon="35.38822697"><ele>774.0</ele><time>2015-11-26T15:02:26.0000000+00:00</time></trkpt><trkpt lat="29.70882121" lon="35.38868252"><ele>774.0</ele><time>2015-11-26T15:02:38.0000000+00:00</time></trkpt><trkpt lat="29.70873739" lon="35.38904822"><ele>773.5</ele><time>2015-11-26T15:02:49.0000000+00:00</time></trkpt><trkpt lat="29.70861996" lon="35.38931611"><ele>774.0</ele><time>2015-11-26T15:02:58.0000000+00:00</time></trkpt><trkpt lat="29.70844788" lon="35.38976789"><ele>774.0</ele><time>2015-11-26T15:03:10.0000000+00:00</time></trkpt><trkpt lat="29.70825761" lon="35.39033233"><ele>774.0</ele><time>2015-11-26T15:03:25.0000000+00:00</time></trkpt><trkpt lat="29.70803347" lon="35.39075419"><ele>774.0</ele><time>2015-11-26T15:03:36.0000000+00:00</time></trkpt><trkpt lat="29.70756568" lon="35.3915814"><ele>774.0</ele><time>2015-11-26T15:03:56.0000000+00:00</time></trkpt><trkpt lat="29.70720828" lon="35.39222061"><ele>774.0</ele><time>2015-11-26T15:04:11.0000000+00:00</time></trkpt><trkpt lat="29.70692715" lon="35.39286819"><ele>774.0</ele><time>2015-11-26T15:04:29.0000000+00:00</time></trkpt><trkpt lat="29.70663562" lon="35.39339474"><ele>774.0</ele><time>2015-11-26T15:04:44.0000000+00:00</time></trkpt><trkpt lat="29.70623472" lon="35.3939316"><ele>774.0</ele><time>2015-11-26T15:05:01.0000000+00:00</time></trkpt><trkpt lat="29.7062224" lon="35.393942"><ele>774.0</ele><time>2015-11-26T15:05:02.0000000+00:00</time></trkpt><trkpt lat="29.70618283" lon="35.3940083"><ele>774.0</ele><time>2015-11-26T15:05:06.0000000+00:00</time></trkpt><trkpt lat="29.70585963" lon="35.3945154"><ele>774.0</ele><time>2015-11-26T15:05:22.0000000+00:00</time></trkpt><trkpt lat="29.70549074" lon="35.39508923"><ele>774.5</ele><time>2015-11-26T15:05:38.0000000+00:00</time></trkpt><trkpt lat="29.70495396" lon="35.39591325"><ele>774.0</ele><time>2015-11-26T15:05:59.0000000+00:00</time></trkpt><trkpt lat="29.70444342" lon="35.39683484"><ele>774.0</ele><time>2015-11-26T15:06:21.0000000+00:00</time></trkpt><trkpt lat="29.70409113" lon="35.39737162"><ele>774.0</ele><time>2015-11-26T15:06:36.0000000+00:00</time></trkpt><trkpt lat="29.70388644" lon="35.39772131"><ele>774.0</ele><time>2015-11-26T15:06:50.0000000+00:00</time></trkpt><trkpt lat="29.70389709" lon="35.39772115"><ele>774.0</ele><time>2015-11-26T15:07:13.0000000+00:00</time></trkpt><trkpt lat="29.70389189" lon="35.39771989"><ele>774.0</ele><time>2015-11-26T15:07:29.0000000+00:00</time></trkpt><trkpt lat="29.70371788" lon="35.39780899"><ele>774.0</ele><time>2015-11-26T15:07:41.0000000+00:00</time></trkpt><trkpt lat="29.70357254" lon="35.39808526"><ele>774.0</ele><time>2015-11-26T15:07:51.0000000+00:00</time></trkpt><trkpt lat="29.70339635" lon="35.39840838"><ele>774.0</ele><time>2015-11-26T15:08:03.0000000+00:00</time></trkpt><trkpt lat="29.70316753" lon="35.39874491"><ele>774.0</ele><time>2015-11-26T15:08:13.0000000+00:00</time></trkpt><trkpt lat="29.70285589" lon="35.39951202"><ele>774.0</ele><time>2015-11-26T15:08:30.0000000+00:00</time></trkpt><trkpt lat="29.70261022" lon="35.39996448"><ele>774.0</ele><time>2015-11-26T15:08:43.0000000+00:00</time></trkpt><trkpt lat="29.70244216" lon="35.40018526"><ele>774.0</ele><time>2015-11-26T15:08:54.0000000+00:00</time></trkpt><trkpt lat="29.70228994" lon="35.40070963"><ele>774.5</ele><time>2015-11-26T15:09:07.0000000+00:00</time></trkpt><trkpt lat="29.70213664" lon="35.40109972"><ele>774.5</ele><time>2015-11-26T15:09:19.0000000+00:00</time></trkpt><trkpt lat="29.70198903" lon="35.40145922"><ele>774.5</ele><time>2015-11-26T15:09:32.0000000+00:00</time></trkpt><trkpt lat="29.70184403" lon="35.40187824"><ele>774.5</ele><time>2015-11-26T15:09:45.0000000+00:00</time></trkpt><trkpt lat="29.70166566" lon="35.40225626"><ele>774.5</ele><time>2015-11-26T15:09:58.0000000+00:00</time></trkpt><trkpt lat="29.70147463" lon="35.4026824"><ele>774.5</ele><time>2015-11-26T15:10:12.0000000+00:00</time></trkpt><trkpt lat="29.70143692" lon="35.40276831"><ele>774.5</ele><time>2015-11-26T15:10:16.0000000+00:00</time></trkpt><trkpt lat="29.70143968" lon="35.40279429"><ele>774.5</ele><time>2015-11-26T15:10:28.0000000+00:00</time></trkpt><trkpt lat="29.70142979" lon="35.40280008"><ele>774.5</ele><time>2015-11-26T15:10:46.0000000+00:00</time></trkpt><trkpt lat="29.70138939" lon="35.40279924"><ele>774.5</ele><time>2015-11-26T15:10:49.0000000+00:00</time></trkpt><trkpt lat="29.70130088" lon="35.40280469"><ele>774.5</ele><time>2015-11-26T15:10:53.0000000+00:00</time></trkpt><trkpt lat="29.70084541" lon="35.4027632"><ele>774.5</ele><time>2015-11-26T15:11:08.0000000+00:00</time></trkpt><trkpt lat="29.70033411" lon="35.4026399"><ele>774.5</ele><time>2015-11-26T15:11:23.0000000+00:00</time></trkpt><trkpt lat="29.69985374" lon="35.4025197"><ele>774.5</ele><time>2015-11-26T15:11:38.0000000+00:00</time></trkpt><trkpt lat="29.69951922" lon="35.40241635"><ele>775.0</ele><time>2015-11-26T15:11:52.0000000+00:00</time></trkpt><trkpt lat="29.69908093" lon="35.40226716"><ele>774.5</ele><time>2015-11-26T15:12:08.0000000+00:00</time></trkpt><trkpt lat="29.69865563" lon="35.40214906"><ele>775.0</ele><time>2015-11-26T15:12:23.0000000+00:00</time></trkpt><trkpt lat="29.69813302" lon="35.40199265"><ele>775.4</ele><time>2015-11-26T15:12:41.0000000+00:00</time></trkpt><trkpt lat="29.69772901" lon="35.40195183"><ele>775.9</ele><time>2015-11-26T15:12:56.0000000+00:00</time></trkpt><trkpt lat="29.69753237" lon="35.40192476"><ele>775.9</ele><time>2015-11-26T15:13:06.0000000+00:00</time></trkpt><trkpt lat="29.69753698" lon="35.40193154"><ele>776.4</ele><time>2015-11-26T15:13:18.0000000+00:00</time></trkpt><trkpt lat="29.6975001" lon="35.40188922"><ele>777.8</ele><time>2015-11-26T15:13:31.0000000+00:00</time></trkpt><trkpt lat="29.69748292" lon="35.40186524"><ele>779.3</ele><time>2015-11-26T15:13:43.0000000+00:00</time></trkpt><trkpt lat="29.6974768" lon="35.40186784"><ele>779.3</ele><time>2015-11-26T15:13:57.0000000+00:00</time></trkpt><trkpt lat="29.69748854" lon="35.40188788"><ele>778.3</ele><time>2015-11-26T15:14:15.0000000+00:00</time></trkpt><trkpt lat="29.69747479" lon="35.40187346"><ele>779.3</ele><time>2015-11-26T15:14:30.0000000+00:00</time></trkpt><trkpt lat="29.69746926" lon="35.4018665"><ele>779.3</ele><time>2015-11-26T15:14:46.0000000+00:00</time></trkpt><trkpt lat="29.69744889" lon="35.40185954"><ele>777.8</ele><time>2015-11-26T15:15:03.0000000+00:00</time></trkpt><trkpt lat="29.69737664" lon="35.40183532"><ele>776.4</ele><time>2015-11-26T15:15:10.0000000+00:00</time></trkpt><trkpt lat="29.69730824" lon="35.40184613"><ele>776.4</ele><time>2015-11-26T15:15:16.0000000+00:00</time></trkpt><trkpt lat="29.69710507" lon="35.40185728"><ele>776.9</ele><time>2015-11-26T15:15:35.0000000+00:00</time></trkpt><trkpt lat="29.69699845" lon="35.40185058"><ele>777.8</ele><time>2015-11-26T15:15:51.0000000+00:00</time></trkpt><trkpt lat="29.69685713" lon="35.4018261"><ele>778.8</ele><time>2015-11-26T15:16:04.0000000+00:00</time></trkpt><trkpt lat="29.69685151" lon="35.40182887"><ele>778.8</ele><time>2015-11-26T15:16:22.0000000+00:00</time></trkpt><trkpt lat="29.69684422" lon="35.40182359"><ele>778.8</ele><time>2015-11-26T15:16:54.0000000+00:00</time></trkpt><trkpt lat="29.69683601" lon="35.40183909"><ele>778.8</ele><time>2015-11-26T15:17:16.0000000+00:00</time></trkpt><trkpt lat="29.69682855" lon="35.40184798"><ele>778.3</ele><time>2015-11-26T15:17:41.0000000+00:00</time></trkpt><trkpt lat="29.6968438" lon="35.40182794"><ele>778.3</ele><time>2015-11-26T15:18:15.0000000+00:00</time></trkpt><trkpt lat="29.69682779" lon="35.40183775"><ele>778.3</ele><time>2015-11-26T15:18:56.0000000+00:00</time></trkpt><trkpt lat="29.69681329" lon="35.40184798"><ele>777.8</ele><time>2015-11-26T15:19:18.0000000+00:00</time></trkpt><trkpt lat="29.69682318" lon="35.40185158"><ele>777.8</ele><time>2015-11-26T15:19:50.0000000+00:00</time></trkpt><trkpt lat="29.6968371" lon="35.40185292"><ele>777.8</ele><time>2015-11-26T15:20:26.0000000+00:00</time></trkpt><trkpt lat="29.69683534" lon="35.4018603"><ele>777.4</ele><time>2015-11-26T15:20:54.0000000+00:00</time></trkpt><trkpt lat="29.69684992" lon="35.40185913"><ele>777.4</ele><time>2015-11-26T15:21:22.0000000+00:00</time></trkpt><trkpt lat="29.69684799" lon="35.4018551"><ele>777.4</ele><time>2015-11-26T15:21:56.0000000+00:00</time></trkpt><trkpt lat="29.69683232" lon="35.40184756"><ele>777.4</ele><time>2015-11-26T15:22:40.0000000+00:00</time></trkpt><trkpt lat="29.69683559" lon="35.40185024"><ele>777.4</ele><time>2015-11-26T15:23:21.0000000+00:00</time></trkpt><trkpt lat="29.69684414" lon="35.40185292"><ele>777.4</ele><time>2015-11-26T15:24:03.0000000+00:00</time></trkpt><trkpt lat="29.69683056" lon="35.40184496"><ele>777.4</ele><time>2015-11-26T15:24:42.0000000+00:00</time></trkpt><trkpt lat="29.69684305" lon="35.40184286"><ele>778.3</ele><time>2015-11-26T15:24:58.0000000+00:00</time></trkpt><trkpt lat="29.69684967" lon="35.40185016"><ele>778.3</ele><time>2015-11-26T15:25:21.0000000+00:00</time></trkpt><trkpt lat="29.69682871" lon="35.40187296"><ele>777.8</ele><time>2015-11-26T15:25:43.0000000+00:00</time></trkpt><trkpt lat="29.69678999" lon="35.4021892"><ele>777.8</ele><time>2015-11-26T15:25:57.0000000+00:00</time></trkpt><trkpt lat="29.69662998" lon="35.40269103"><ele>779.3</ele><time>2015-11-26T15:26:11.0000000+00:00</time></trkpt><trkpt lat="29.69652839" lon="35.40301432"><ele>779.8</ele><time>2015-11-26T15:26:19.0000000+00:00</time></trkpt><trkpt lat="29.6962849" lon="35.40373298"><ele>780.7</ele><time>2015-11-26T15:26:36.0000000+00:00</time></trkpt><trkpt lat="29.69600712" lon="35.40430413"><ele>780.3</ele><time>2015-11-26T15:26:50.0000000+00:00</time></trkpt><trkpt lat="29.69556606" lon="35.40515003"><ele>778.3</ele><time>2015-11-26T15:27:04.0000000+00:00</time></trkpt><trkpt lat="29.69507279" lon="35.40611445"><ele>778.3</ele><time>2015-11-26T15:27:20.0000000+00:00</time></trkpt><trkpt lat="29.69460198" lon="35.40707828"><ele>779.8</ele><time>2015-11-26T15:27:40.0000000+00:00</time></trkpt><trkpt lat="29.69423024" lon="35.40783593"><ele>781.2</ele><time>2015-11-26T15:27:57.0000000+00:00</time></trkpt><trkpt lat="29.69378918" lon="35.40872298"><ele>782.7</ele><time>2015-11-26T15:28:17.0000000+00:00</time></trkpt><trkpt lat="29.69332407" lon="35.40963485"><ele>781.7</ele><time>2015-11-26T15:28:35.0000000+00:00</time></trkpt><trkpt lat="29.69279769" lon="35.41066574"><ele>782.2</ele><time>2015-11-26T15:28:53.0000000+00:00</time></trkpt><trkpt lat="29.69222688" lon="35.41177601"><ele>781.7</ele><time>2015-11-26T15:29:12.0000000+00:00</time></trkpt><trkpt lat="29.69172187" lon="35.41275912"><ele>783.6</ele><time>2015-11-26T15:29:30.0000000+00:00</time></trkpt><trkpt lat="29.69133144" lon="35.41354216"><ele>785.5</ele><time>2015-11-26T15:29:47.0000000+00:00</time></trkpt><trkpt lat="29.69089852" lon="35.4143946"><ele>786.0</ele><time>2015-11-26T15:30:06.0000000+00:00</time></trkpt><trkpt lat="29.69046911" lon="35.41525869"><ele>786.5</ele><time>2015-11-26T15:30:24.0000000+00:00</time></trkpt><trkpt lat="29.68996427" lon="35.41624121"><ele>787.0</ele><time>2015-11-26T15:30:43.0000000+00:00</time></trkpt><trkpt lat="29.68956965" lon="35.41705853"><ele>788.9</ele><time>2015-11-26T15:31:01.0000000+00:00</time></trkpt><trkpt lat="29.68908694" lon="35.41801809"><ele>788.9</ele><time>2015-11-26T15:31:21.0000000+00:00</time></trkpt><trkpt lat="29.68859131" lon="35.41900255"><ele>788.9</ele><time>2015-11-26T15:31:39.0000000+00:00</time></trkpt><trkpt lat="29.68811061" lon="35.41993252"><ele>791.3</ele><time>2015-11-26T15:31:59.0000000+00:00</time></trkpt><trkpt lat="29.68766746" lon="35.42065563"><ele>791.8</ele><time>2015-11-26T15:32:15.0000000+00:00</time></trkpt><trkpt lat="29.68717016" lon="35.42116726"><ele>793.7</ele><time>2015-11-26T15:32:31.0000000+00:00</time></trkpt><trkpt lat="29.6867017" lon="35.42161007"><ele>795.6</ele><time>2015-11-26T15:32:48.0000000+00:00</time></trkpt><trkpt lat="29.68615017" lon="35.42213855"><ele>797.6</ele><time>2015-11-26T15:33:07.0000000+00:00</time></trkpt><trkpt lat="29.6858594" lon="35.42240887"><ele>798.5</ele><time>2015-11-26T15:33:16.0000000+00:00</time></trkpt><trkpt lat="29.68535657" lon="35.4228775"><ele>799.0</ele><time>2015-11-26T15:33:32.0000000+00:00</time></trkpt><trkpt lat="29.68466816" lon="35.42358887"><ele>798.5</ele><time>2015-11-26T15:33:51.0000000+00:00</time></trkpt><trkpt lat="29.68403592" lon="35.42423436"><ele>797.6</ele><time>2015-11-26T15:34:06.0000000+00:00</time></trkpt><trkpt lat="29.68305842" lon="35.42520742"><ele>796.6</ele><time>2015-11-26T15:34:27.0000000+00:00</time></trkpt><trkpt lat="29.68229885" lon="35.42599674"><ele>796.1</ele><time>2015-11-26T15:34:44.0000000+00:00</time></trkpt><trkpt lat="29.68148933" lon="35.42681532"><ele>797.6</ele><time>2015-11-26T15:35:04.0000000+00:00</time></trkpt><trkpt lat="29.68078726" lon="35.42750968"><ele>799.0</ele><time>2015-11-26T15:35:23.0000000+00:00</time></trkpt><trkpt lat="29.68009994" lon="35.42819423"><ele>800.4</ele><time>2015-11-26T15:35:43.0000000+00:00</time></trkpt><trkpt lat="29.67956887" lon="35.42873025"><ele>801.4</ele><time>2015-11-26T15:36:02.0000000+00:00</time></trkpt><trkpt lat="29.67930442" lon="35.42899587"><ele>801.9</ele><time>2015-11-26T15:36:16.0000000+00:00</time></trkpt><trkpt lat="29.6792662" lon="35.42903007"><ele>801.9</ele><time>2015-11-26T15:36:20.0000000+00:00</time></trkpt><trkpt lat="29.67925547" lon="35.42903996"><ele>801.9</ele><time>2015-11-26T15:36:35.0000000+00:00</time></trkpt><trkpt lat="29.67925991" lon="35.42902605"><ele>801.9</ele><time>2015-11-26T15:36:52.0000000+00:00</time></trkpt><trkpt lat="29.67925538" lon="35.42903225"><ele>801.4</ele><time>2015-11-26T15:37:12.0000000+00:00</time></trkpt></trkseg><trkseg><trkpt lat="29.64030904" lon="35.43417832"><ele>825.4</ele><time>2015-11-27T07:43:40.0000000+00:00</time></trkpt><trkpt lat="29.64029999" lon="35.43419089"><ele>828.8</ele><time>2015-11-27T07:43:48.0000000+00:00</time></trkpt><trkpt lat="29.64030392" lon="35.43418628"><ele>832.2</ele><time>2015-11-27T07:43:53.0000000+00:00</time></trkpt><trkpt lat="29.64030971" lon="35.43417991"><ele>832.6</ele><time>2015-11-27T07:43:55.0000000+00:00</time></trkpt><trkpt lat="29.64031063" lon="35.4341758"><ele>833.6</ele><time>2015-11-27T07:43:57.0000000+00:00</time></trkpt><trkpt lat="29.64031474" lon="35.43417614"><ele>836.5</ele><time>2015-11-27T07:44:07.0000000+00:00</time></trkpt><trkpt lat="29.64031222" lon="35.43417849"><ele>839.4</ele><time>2015-11-27T07:44:30.0000000+00:00</time></trkpt><trkpt lat="29.64031516" lon="35.43418067"><ele>842.3</ele><time>2015-11-27T07:44:56.0000000+00:00</time></trkpt><trkpt lat="29.64030594" lon="35.43415552"><ele>842.3</ele><time>2015-11-27T07:45:02.0000000+00:00</time></trkpt><trkpt lat="29.64042328" lon="35.43406114"><ele>841.3</ele><time>2015-11-27T07:45:19.0000000+00:00</time></trkpt><trkpt lat="29.64047005" lon="35.43402216"><ele>840.8</ele><time>2015-11-27T07:45:35.0000000+00:00</time></trkpt><trkpt lat="29.64046553" lon="35.43400314"><ele>840.8</ele><time>2015-11-27T07:46:01.0000000+00:00</time></trkpt><trkpt lat="29.6404553" lon="35.43397984"><ele>840.8</ele><time>2015-11-27T07:46:07.0000000+00:00</time></trkpt><trkpt lat="29.64036193" lon="35.43396894"><ele>841.8</ele><time>2015-11-27T07:46:15.0000000+00:00</time></trkpt><trkpt lat="29.64033611" lon="35.43398428"><ele>841.8</ele><time>2015-11-27T07:46:17.0000000+00:00</time></trkpt><trkpt lat="29.6400326" lon="35.43400171"><ele>844.2</ele><time>2015-11-27T07:46:34.0000000+00:00</time></trkpt><trkpt lat="29.63973538" lon="35.43397514"><ele>846.1</ele><time>2015-11-27T07:46:50.0000000+00:00</time></trkpt><trkpt lat="29.63972398" lon="35.43395368"><ele>846.1</ele><time>2015-11-27T07:47:02.0000000+00:00</time></trkpt><trkpt lat="29.63970386" lon="35.43395243"><ele>846.1</ele><time>2015-11-27T07:47:04.0000000+00:00</time></trkpt><trkpt lat="29.63969205" lon="35.43395025"><ele>846.1</ele><time>2015-11-27T07:47:05.0000000+00:00</time></trkpt><trkpt lat="29.63953187" lon="35.43389945"><ele>845.6</ele><time>2015-11-27T07:47:21.0000000+00:00</time></trkpt><trkpt lat="29.63949356" lon="35.43385218"><ele>846.1</ele><time>2015-11-27T07:47:33.0000000+00:00</time></trkpt><trkpt lat="29.63948376" lon="35.43383868"><ele>846.1</ele><time>2015-11-27T07:47:49.0000000+00:00</time></trkpt><trkpt lat="29.63950479" lon="35.43386701"><ele>845.6</ele><time>2015-11-27T07:48:18.0000000+00:00</time></trkpt><trkpt lat="29.63948267" lon="35.43384313"><ele>845.6</ele><time>2015-11-27T07:48:51.0000000+00:00</time></trkpt><trkpt lat="29.63948476" lon="35.43384816"><ele>845.6</ele><time>2015-11-27T07:49:27.0000000+00:00</time></trkpt><trkpt lat="29.63948853" lon="35.43385159"><ele>846.1</ele><time>2015-11-27T07:49:59.0000000+00:00</time></trkpt><trkpt lat="29.63950278" lon="35.43384388"><ele>846.1</ele><time>2015-11-27T07:50:26.0000000+00:00</time></trkpt><trkpt lat="29.63948166" lon="35.43384321"><ele>846.1</ele><time>2015-11-27T07:50:28.0000000+00:00</time></trkpt><trkpt lat="29.63943145" lon="35.43382653"><ele>846.1</ele><time>2015-11-27T07:50:32.0000000+00:00</time></trkpt><trkpt lat="29.63941628" lon="35.43383064"><ele>846.1</ele><time>2015-11-27T07:50:33.0000000+00:00</time></trkpt><trkpt lat="29.63940128" lon="35.43382997"><ele>846.1</ele><time>2015-11-27T07:50:34.0000000+00:00</time></trkpt><trkpt lat="29.63938711" lon="35.43382267"><ele>846.1</ele><time>2015-11-27T07:50:35.0000000+00:00</time></trkpt><trkpt lat="29.63937253" lon="35.43381672"><ele>846.1</ele><time>2015-11-27T07:50:36.0000000+00:00</time></trkpt><trkpt lat="29.63935392" lon="35.43381312"><ele>846.1</ele><time>2015-11-27T07:50:37.0000000+00:00</time></trkpt><trkpt lat="29.63906743" lon="35.43371857"><ele>845.6</ele><time>2015-11-27T07:50:49.0000000+00:00</time></trkpt><trkpt lat="29.63862" lon="35.43354372"><ele>845.6</ele><time>2015-11-27T07:51:04.0000000+00:00</time></trkpt><trkpt lat="29.6380626" lon="35.43331607"><ele>846.6</ele><time>2015-11-27T07:51:20.0000000+00:00</time></trkpt><trkpt lat="29.63732592" lon="35.43301667"><ele>846.6</ele><time>2015-11-27T07:51:38.0000000+00:00</time></trkpt><trkpt lat="29.636535" lon="35.43270512"><ele>848.0</ele><time>2015-11-27T07:51:56.0000000+00:00</time></trkpt><trkpt lat="29.63555139" lon="35.43231888"><ele>849.0</ele><time>2015-11-27T07:52:17.0000000+00:00</time></trkpt><trkpt lat="29.63462577" lon="35.43196357"><ele>849.9</ele><time>2015-11-27T07:52:37.0000000+00:00</time></trkpt><trkpt lat="29.63445134" lon="35.43190297"><ele>850.4</ele><time>2015-11-27T07:52:41.0000000+00:00</time></trkpt><trkpt lat="29.63441094" lon="35.43188319"><ele>850.4</ele><time>2015-11-27T07:52:42.0000000+00:00</time></trkpt><trkpt lat="29.63436878" lon="35.43186693"><ele>850.4</ele><time>2015-11-27T07:52:43.0000000+00:00</time></trkpt><trkpt lat="29.63348709" lon="35.43150969"><ele>852.4</ele><time>2015-11-27T07:53:03.0000000+00:00</time></trkpt><trkpt lat="29.63295727" lon="35.4313019"><ele>853.3</ele><time>2015-11-27T07:53:15.0000000+00:00</time></trkpt><trkpt lat="29.63291276" lon="35.43128354"><ele>853.3</ele><time>2015-11-27T07:53:16.0000000+00:00</time></trkpt><trkpt lat="29.63251563" lon="35.43113602"><ele>854.3</ele><time>2015-11-27T07:53:25.0000000+00:00</time></trkpt><trkpt lat="29.63207927" lon="35.43097132"><ele>855.2</ele><time>2015-11-27T07:53:35.0000000+00:00</time></trkpt><trkpt lat="29.63122984" lon="35.43064409"><ele>857.2</ele><time>2015-11-27T07:53:54.0000000+00:00</time></trkpt><trkpt lat="29.63040708" lon="35.43032281"><ele>858.6</ele><time>2015-11-27T07:54:12.0000000+00:00</time></trkpt><trkpt lat="29.62961113" lon="35.43001084"><ele>859.1</ele><time>2015-11-27T07:54:29.0000000+00:00</time></trkpt><trkpt lat="29.62883488" lon="35.42970515"><ele>860.0</ele><time>2015-11-27T07:54:45.0000000+00:00</time></trkpt><trkpt lat="29.62798462" lon="35.42937214"><ele>861.0</ele><time>2015-11-27T07:55:02.0000000+00:00</time></trkpt><trkpt lat="29.62769528" lon="35.42926183"><ele>861.5</ele><time>2015-11-27T07:55:08.0000000+00:00</time></trkpt><trkpt lat="29.62677914" lon="35.42889881"><ele>862.4</ele><time>2015-11-27T07:55:27.0000000+00:00</time></trkpt><trkpt lat="29.6257573" lon="35.42849447"><ele>863.4</ele><time>2015-11-27T07:55:48.0000000+00:00</time></trkpt><trkpt lat="29.62492556" lon="35.42817252"><ele>863.9</ele><time>2015-11-27T07:56:05.0000000+00:00</time></trkpt><trkpt lat="29.62388688" lon="35.42777597"><ele>864.8</ele><time>2015-11-27T07:56:26.0000000+00:00</time></trkpt><trkpt lat="29.62273336" lon="35.42737121"><ele>865.8</ele><time>2015-11-27T07:56:48.0000000+00:00</time></trkpt><trkpt lat="29.62172745" lon="35.42719971"><ele>865.8</ele><time>2015-11-27T07:57:06.0000000+00:00</time></trkpt><trkpt lat="29.620558" lon="35.42711053"><ele>868.2</ele><time>2015-11-27T07:57:28.0000000+00:00</time></trkpt><trkpt lat="29.61968897" lon="35.42707139"><ele>870.6</ele><time>2015-11-27T07:57:47.0000000+00:00</time></trkpt><trkpt lat="29.6188315" lon="35.42704406"><ele>873.0</ele><time>2015-11-27T07:58:07.0000000+00:00</time></trkpt><trkpt lat="29.61808618" lon="35.42702093"><ele>874.9</ele><time>2015-11-27T07:58:26.0000000+00:00</time></trkpt><trkpt lat="29.61738931" lon="35.42699235"><ele>877.3</ele><time>2015-11-27T07:58:44.0000000+00:00</time></trkpt><trkpt lat="29.61676645" lon="35.42695924"><ele>879.3</ele><time>2015-11-27T07:59:00.0000000+00:00</time></trkpt><trkpt lat="29.61626496" lon="35.42690936"><ele>881.2</ele><time>2015-11-27T07:59:13.0000000+00:00</time></trkpt><trkpt lat="29.61622448" lon="35.42690174"><ele>881.7</ele><time>2015-11-27T07:59:14.0000000+00:00</time></trkpt><trkpt lat="29.61552073" lon="35.42681272"><ele>884.1</ele><time>2015-11-27T07:59:31.0000000+00:00</time></trkpt><trkpt lat="29.61489796" lon="35.42672873"><ele>886.5</ele><time>2015-11-27T07:59:47.0000000+00:00</time></trkpt><trkpt lat="29.61419664" lon="35.42662581"><ele>888.4</ele><time>2015-11-27T08:00:06.0000000+00:00</time></trkpt><trkpt lat="29.61329266" lon="35.42649169"><ele>889.8</ele><time>2015-11-27T08:00:26.0000000+00:00</time></trkpt><trkpt lat="29.61245765" lon="35.42637871"><ele>890.8</ele><time>2015-11-27T08:00:43.0000000+00:00</time></trkpt><trkpt lat="29.61171191" lon="35.42626371"><ele>891.8</ele><time>2015-11-27T08:00:58.0000000+00:00</time></trkpt><trkpt lat="29.61056988" lon="35.42609674"><ele>892.2</ele><time>2015-11-27T08:01:18.0000000+00:00</time></trkpt><trkpt lat="29.60953144" lon="35.42595089"><ele>895.1</ele><time>2015-11-27T08:01:38.0000000+00:00</time></trkpt><trkpt lat="29.6089173" lon="35.42588862"><ele>896.1</ele><time>2015-11-27T08:01:51.0000000+00:00</time></trkpt><trkpt lat="29.60796763" lon="35.42579357"><ele>897.1</ele><time>2015-11-27T08:02:10.0000000+00:00</time></trkpt><trkpt lat="29.60708544" lon="35.42572995"><ele>899.5</ele><time>2015-11-27T08:02:28.0000000+00:00</time></trkpt><trkpt lat="29.60645461" lon="35.42563272"><ele>900.9</ele><time>2015-11-27T08:02:41.0000000+00:00</time></trkpt><trkpt lat="29.60626912" lon="35.42552727"><ele>900.9</ele><time>2015-11-27T08:02:45.0000000+00:00</time></trkpt><trkpt lat="29.60622939" lon="35.42549307"><ele>901.4</ele><time>2015-11-27T08:02:46.0000000+00:00</time></trkpt><trkpt lat="29.60573981" lon="35.42492026"><ele>903.3</ele><time>2015-11-27T08:03:01.0000000+00:00</time></trkpt><trkpt lat="29.60571533" lon="35.42488136"><ele>903.3</ele><time>2015-11-27T08:03:02.0000000+00:00</time></trkpt><trkpt lat="29.60569211" lon="35.42484323"><ele>903.3</ele><time>2015-11-27T08:03:03.0000000+00:00</time></trkpt><trkpt lat="29.6053529" lon="35.42441659"><ele>905.7</ele><time>2015-11-27T08:03:16.0000000+00:00</time></trkpt><trkpt lat="29.60521753" lon="35.42425155"><ele>906.2</ele><time>2015-11-27T08:03:21.0000000+00:00</time></trkpt><trkpt lat="29.60483842" lon="35.42386196"><ele>907.1</ele><time>2015-11-27T08:03:33.0000000+00:00</time></trkpt><trkpt lat="29.60472023" lon="35.42376238"><ele>907.1</ele><time>2015-11-27T08:03:36.0000000+00:00</time></trkpt><trkpt lat="29.60467639" lon="35.42373313"><ele>907.6</ele><time>2015-11-27T08:03:37.0000000+00:00</time></trkpt><trkpt lat="29.60387567" lon="35.42328587"><ele>909.5</ele><time>2015-11-27T08:03:56.0000000+00:00</time></trkpt><trkpt lat="29.60297311" lon="35.42300407"><ele>910.0</ele><time>2015-11-27T08:04:14.0000000+00:00</time></trkpt><trkpt lat="29.60201933" lon="35.42280357"><ele>912.0</ele><time>2015-11-27T08:04:32.0000000+00:00</time></trkpt><trkpt lat="29.60124996" lon="35.42265655"><ele>913.9</ele><time>2015-11-27T08:04:48.0000000+00:00</time></trkpt><trkpt lat="29.60019518" lon="35.42246486"><ele>916.3</ele><time>2015-11-27T08:05:10.0000000+00:00</time></trkpt><trkpt lat="29.59931608" lon="35.42230552"><ele>918.7</ele><time>2015-11-27T08:05:29.0000000+00:00</time></trkpt><trkpt lat="29.59843003" lon="35.42215859"><ele>921.1</ele><time>2015-11-27T08:05:49.0000000+00:00</time></trkpt><trkpt lat="29.59765362" lon="35.42200092"><ele>921.1</ele><time>2015-11-27T08:06:05.0000000+00:00</time></trkpt><trkpt lat="29.59658174" lon="35.42179917"><ele>923.0</ele><time>2015-11-27T08:06:25.0000000+00:00</time></trkpt><trkpt lat="29.59594421" lon="35.421683"><ele>925.9</ele><time>2015-11-27T08:06:41.0000000+00:00</time></trkpt><trkpt lat="29.59582753" lon="35.42166615"><ele>926.4</ele><time>2015-11-27T08:06:44.0000000+00:00</time></trkpt><trkpt lat="29.59578705" lon="35.4216602"><ele>926.4</ele><time>2015-11-27T08:06:45.0000000+00:00</time></trkpt><trkpt lat="29.59505439" lon="35.42160572"><ele>927.8</ele><time>2015-11-27T08:07:02.0000000+00:00</time></trkpt><trkpt lat="29.59418108" lon="35.42152433"><ele>925.9</ele><time>2015-11-27T08:07:18.0000000+00:00</time></trkpt><trkpt lat="29.59302278" lon="35.42145099"><ele>924.5</ele><time>2015-11-27T08:07:33.0000000+00:00</time></trkpt><trkpt lat="29.59239154" lon="35.42141318"><ele>926.4</ele><time>2015-11-27T08:07:45.0000000+00:00</time></trkpt><trkpt lat="29.5920799" lon="35.42139206"><ele>926.9</ele><time>2015-11-27T08:07:56.0000000+00:00</time></trkpt><trkpt lat="29.5920908" lon="35.42138619"><ele>926.4</ele><time>2015-11-27T08:08:22.0000000+00:00</time></trkpt><trkpt lat="29.59205786" lon="35.42138821"><ele>926.4</ele><time>2015-11-27T08:08:42.0000000+00:00</time></trkpt><trkpt lat="29.59205031" lon="35.42139047"><ele>926.9</ele><time>2015-11-27T08:08:43.0000000+00:00</time></trkpt><trkpt lat="29.59203682" lon="35.42139483"><ele>926.4</ele><time>2015-11-27T08:08:44.0000000+00:00</time></trkpt><trkpt lat="29.59202307" lon="35.42139793"><ele>926.4</ele><time>2015-11-27T08:08:45.0000000+00:00</time></trkpt><trkpt lat="29.59200824" lon="35.42139382"><ele>926.4</ele><time>2015-11-27T08:08:46.0000000+00:00</time></trkpt><trkpt lat="29.59199156" lon="35.42138854"><ele>926.4</ele><time>2015-11-27T08:08:47.0000000+00:00</time></trkpt><trkpt lat="29.59197295" lon="35.42138603"><ele>926.4</ele><time>2015-11-27T08:08:48.0000000+00:00</time></trkpt><trkpt lat="29.59195375" lon="35.42138519"><ele>926.4</ele><time>2015-11-27T08:08:49.0000000+00:00</time></trkpt><trkpt lat="29.59145872" lon="35.42136331"><ele>926.4</ele><time>2015-11-27T08:09:05.0000000+00:00</time></trkpt><trkpt lat="29.59056269" lon="35.42133548"><ele>926.9</ele><time>2015-11-27T08:09:23.0000000+00:00</time></trkpt><trkpt lat="29.5896727" lon="35.42130439"><ele>928.8</ele><time>2015-11-27T08:09:41.0000000+00:00</time></trkpt><trkpt lat="29.58878682" lon="35.42126474"><ele>929.7</ele><time>2015-11-27T08:09:58.0000000+00:00</time></trkpt><trkpt lat="29.58789733" lon="35.42121864"><ele>930.7</ele><time>2015-11-27T08:10:16.0000000+00:00</time></trkpt><trkpt lat="29.58704942" lon="35.42118662"><ele>932.6</ele><time>2015-11-27T08:10:34.0000000+00:00</time></trkpt><trkpt lat="29.58608684" lon="35.42114236"><ele>935.0</ele><time>2015-11-27T08:10:56.0000000+00:00</time></trkpt><trkpt lat="29.58591376" lon="35.42113834"><ele>935.5</ele><time>2015-11-27T08:11:00.0000000+00:00</time></trkpt><trkpt lat="29.58587243" lon="35.42113532"><ele>935.5</ele><time>2015-11-27T08:11:01.0000000+00:00</time></trkpt><trkpt lat="29.58522116" lon="35.42110574"><ele>937.4</ele><time>2015-11-27T08:11:16.0000000+00:00</time></trkpt><trkpt lat="29.58443418" lon="35.42107263"><ele>939.8</ele><time>2015-11-27T08:11:34.0000000+00:00</time></trkpt><trkpt lat="29.58365123" lon="35.42104212"><ele>941.8</ele><time>2015-11-27T08:11:52.0000000+00:00</time></trkpt><trkpt lat="29.58285461" lon="35.42099677"><ele>944.2</ele><time>2015-11-27T08:12:10.0000000+00:00</time></trkpt><trkpt lat="29.58202782" lon="35.42096006"><ele>946.6</ele><time>2015-11-27T08:12:28.0000000+00:00</time></trkpt><trkpt lat="29.58138091" lon="35.42093282"><ele>948.5</ele><time>2015-11-27T08:12:42.0000000+00:00</time></trkpt><trkpt lat="29.580492" lon="35.4209008"><ele>950.4</ele><time>2015-11-27T08:13:02.0000000+00:00</time></trkpt><trkpt lat="29.579887" lon="35.42088085"><ele>952.3</ele><time>2015-11-27T08:13:15.0000000+00:00</time></trkpt><trkpt lat="29.57984115" lon="35.42087615"><ele>952.3</ele><time>2015-11-27T08:13:16.0000000+00:00</time></trkpt><trkpt lat="29.57979572" lon="35.42087129"><ele>952.3</ele><time>2015-11-27T08:13:17.0000000+00:00</time></trkpt><trkpt lat="29.5790468" lon="35.4208267"><ele>955.2</ele><time>2015-11-27T08:13:34.0000000+00:00</time></trkpt><trkpt lat="29.57840684" lon="35.42061732"><ele>956.7</ele><time>2015-11-27T08:13:51.0000000+00:00</time></trkpt><trkpt lat="29.57829754" lon="35.42055923"><ele>957.1</ele><time>2015-11-27T08:13:54.0000000+00:00</time></trkpt><trkpt lat="29.57826175" lon="35.42054214"><ele>957.1</ele><time>2015-11-27T08:13:55.0000000+00:00</time></trkpt><trkpt lat="29.57811724" lon="35.42046636"><ele>957.6</ele><time>2015-11-27T08:13:59.0000000+00:00</time></trkpt><trkpt lat="29.5780439" lon="35.42042864"><ele>957.6</ele><time>2015-11-27T08:14:01.0000000+00:00</time></trkpt><trkpt lat="29.57728232" lon="35.42003076"><ele>958.1</ele><time>2015-11-27T08:14:20.0000000+00:00</time></trkpt><trkpt lat="29.57677212" lon="35.41980612"><ele>958.6</ele><time>2015-11-27T08:14:34.0000000+00:00</time></trkpt><trkpt lat="29.57636685" lon="35.41963027"><ele>960.5</ele><time>2015-11-27T08:14:47.0000000+00:00</time></trkpt><trkpt lat="29.57578246" lon="35.41937496"><ele>962.9</ele><time>2015-11-27T08:15:06.0000000+00:00</time></trkpt><trkpt lat="29.57531819" lon="35.41915376"><ele>964.3</ele><time>2015-11-27T08:15:21.0000000+00:00</time></trkpt><trkpt lat="29.57476038" lon="35.41890741"><ele>966.3</ele><time>2015-11-27T08:15:37.0000000+00:00</time></trkpt><trkpt lat="29.57417565" lon="35.41865017"><ele>967.2</ele><time>2015-11-27T08:15:53.0000000+00:00</time></trkpt><trkpt lat="29.57361105" lon="35.41839679"><ele>968.7</ele><time>2015-11-27T08:16:09.0000000+00:00</time></trkpt><trkpt lat="29.57317578" lon="35.41822127"><ele>968.2</ele><time>2015-11-27T08:16:22.0000000+00:00</time></trkpt><trkpt lat="29.57280647" lon="35.41825421"><ele>967.7</ele><time>2015-11-27T08:16:33.0000000+00:00</time></trkpt><trkpt lat="29.57265752" lon="35.41832672"><ele>967.7</ele><time>2015-11-27T08:16:37.0000000+00:00</time></trkpt><trkpt lat="29.57257488" lon="35.41835974"><ele>967.7</ele><time>2015-11-27T08:16:39.0000000+00:00</time></trkpt><trkpt lat="29.57235879" lon="35.41849201"><ele>966.7</ele><time>2015-11-27T08:16:44.0000000+00:00</time></trkpt><trkpt lat="29.57178094" lon="35.41875679"><ele>963.9</ele><time>2015-11-27T08:16:54.0000000+00:00</time></trkpt><trkpt lat="29.57167458" lon="35.41876693"><ele>962.9</ele><time>2015-11-27T08:16:56.0000000+00:00</time></trkpt><trkpt lat="29.57152907" lon="35.41876492"><ele>961.9</ele><time>2015-11-27T08:17:00.0000000+00:00</time></trkpt><trkpt lat="29.57152521" lon="35.41878261"><ele>962.4</ele><time>2015-11-27T08:17:01.0000000+00:00</time></trkpt><trkpt lat="29.57153217" lon="35.41880331"><ele>962.4</ele><time>2015-11-27T08:17:02.0000000+00:00</time></trkpt><trkpt lat="29.57155002" lon="35.4188189"><ele>961.9</ele><time>2015-11-27T08:17:03.0000000+00:00</time></trkpt><trkpt lat="29.57157173" lon="35.41882594"><ele>962.4</ele><time>2015-11-27T08:17:04.0000000+00:00</time></trkpt><trkpt lat="29.57159495" lon="35.41882468"><ele>962.9</ele><time>2015-11-27T08:17:05.0000000+00:00</time></trkpt><trkpt lat="29.57161993" lon="35.41881572"><ele>962.9</ele><time>2015-11-27T08:17:06.0000000+00:00</time></trkpt><trkpt lat="29.5716434" lon="35.41880524"><ele>962.9</ele><time>2015-11-27T08:17:07.0000000+00:00</time></trkpt><trkpt lat="29.57166527" lon="35.41879627"><ele>962.9</ele><time>2015-11-27T08:17:08.0000000+00:00</time></trkpt><trkpt lat="29.57172277" lon="35.41876903"><ele>963.4</ele><time>2015-11-27T08:17:19.0000000+00:00</time></trkpt><trkpt lat="29.57169889" lon="35.41875721"><ele>962.9</ele><time>2015-11-27T08:17:23.0000000+00:00</time></trkpt><trkpt lat="29.57160417" lon="35.41875939"><ele>962.9</ele><time>2015-11-27T08:17:28.0000000+00:00</time></trkpt><trkpt lat="29.57140393" lon="35.41874053"><ele>961.9</ele><time>2015-11-27T08:17:34.0000000+00:00</time></trkpt><trkpt lat="29.57136369" lon="35.41873232"><ele>961.9</ele><time>2015-11-27T08:17:35.0000000+00:00</time></trkpt><trkpt lat="29.57127837" lon="35.41870918"><ele>961.5</ele><time>2015-11-27T08:17:37.0000000+00:00</time></trkpt><trkpt lat="29.57083647" lon="35.41864472"><ele>960.0</ele><time>2015-11-27T08:17:48.0000000+00:00</time></trkpt><trkpt lat="29.57079431" lon="35.41864095"><ele>960.0</ele><time>2015-11-27T08:17:49.0000000+00:00</time></trkpt><trkpt lat="29.57075005" lon="35.41863232"><ele>960.0</ele><time>2015-11-27T08:17:50.0000000+00:00</time></trkpt><trkpt lat="29.57036356" lon="35.41855177"><ele>959.1</ele><time>2015-11-27T08:17:58.0000000+00:00</time></trkpt><trkpt lat="29.57031545" lon="35.41854993"><ele>958.6</ele><time>2015-11-27T08:17:59.0000000+00:00</time></trkpt><trkpt lat="29.57027019" lon="35.41854716"><ele>958.6</ele><time>2015-11-27T08:18:00.0000000+00:00</time></trkpt><trkpt lat="29.57003466" lon="35.41848832"><ele>958.1</ele><time>2015-11-27T08:18:05.0000000+00:00</time></trkpt><trkpt lat="29.56979351" lon="35.41842897"><ele>957.6</ele><time>2015-11-27T08:18:10.0000000+00:00</time></trkpt><trkpt lat="29.56946326" lon="35.4183786"><ele>957.6</ele><time>2015-11-27T08:18:17.0000000+00:00</time></trkpt><trkpt lat="29.56891048" lon="35.4182859"><ele>957.6</ele><time>2015-11-27T08:18:30.0000000+00:00</time></trkpt><trkpt lat="29.56878374" lon="35.41827106"><ele>957.6</ele><time>2015-11-27T08:18:39.0000000+00:00</time></trkpt><trkpt lat="29.56863547" lon="35.41826159"><ele>958.1</ele><time>2015-11-27T08:18:54.0000000+00:00</time></trkpt><trkpt lat="29.56851116" lon="35.41824717"><ele>957.6</ele><time>2015-11-27T08:19:09.0000000+00:00</time></trkpt><trkpt lat="29.5682473" lon="35.41821247"><ele>957.6</ele><time>2015-11-27T08:19:22.0000000+00:00</time></trkpt><trkpt lat="29.56818176" lon="35.41819068"><ele>957.6</ele><time>2015-11-27T08:19:30.0000000+00:00</time></trkpt><trkpt lat="29.56807338" lon="35.41816922"><ele>957.6</ele><time>2015-11-27T08:19:48.0000000+00:00</time></trkpt><trkpt lat="29.56789149" lon="35.41817115"><ele>957.6</ele><time>2015-11-27T08:20:06.0000000+00:00</time></trkpt><trkpt lat="29.56788311" lon="35.41816939"><ele>957.6</ele><time>2015-11-27T08:20:12.0000000+00:00</time></trkpt><trkpt lat="29.56781731" lon="35.41820392"><ele>957.1</ele><time>2015-11-27T08:20:17.0000000+00:00</time></trkpt><trkpt lat="29.56752495" lon="35.41827165"><ele>956.7</ele><time>2015-11-27T08:20:29.0000000+00:00</time></trkpt><trkpt lat="29.56724466" lon="35.41835035"><ele>956.2</ele><time>2015-11-27T08:20:36.0000000+00:00</time></trkpt><trkpt lat="29.56660504" lon="35.41840215"><ele>955.7</ele><time>2015-11-27T08:20:52.0000000+00:00</time></trkpt><trkpt lat="29.56652348" lon="35.4184195"><ele>955.2</ele><time>2015-11-27T08:20:54.0000000+00:00</time></trkpt><trkpt lat="29.56589559" lon="35.41850676"><ele>955.2</ele><time>2015-11-27T08:21:09.0000000+00:00</time></trkpt><trkpt lat="29.56558663" lon="35.41844985"><ele>956.2</ele><time>2015-11-27T08:21:20.0000000+00:00</time></trkpt><trkpt lat="29.56531975" lon="35.41845052"><ele>956.7</ele><time>2015-11-27T08:21:33.0000000+00:00</time></trkpt><trkpt lat="29.56518221" lon="35.41848379"><ele>957.1</ele><time>2015-11-27T08:21:45.0000000+00:00</time></trkpt><trkpt lat="29.56491164" lon="35.41852553"><ele>957.6</ele><time>2015-11-27T08:21:56.0000000+00:00</time></trkpt><trkpt lat="29.56464233" lon="35.41843819"><ele>958.6</ele><time>2015-11-27T08:22:10.0000000+00:00</time></trkpt><trkpt lat="29.56448173" lon="35.41838748"><ele>959.1</ele><time>2015-11-27T08:22:17.0000000+00:00</time></trkpt><trkpt lat="29.56407261" lon="35.41826695"><ele>960.0</ele><time>2015-11-27T08:22:34.0000000+00:00</time></trkpt><trkpt lat="29.56371043" lon="35.41813787"><ele>960.5</ele><time>2015-11-27T08:22:49.0000000+00:00</time></trkpt><trkpt lat="29.56347724" lon="35.4180305"><ele>961.5</ele><time>2015-11-27T08:23:02.0000000+00:00</time></trkpt><trkpt lat="29.56326284" lon="35.41796705"><ele>961.9</ele><time>2015-11-27T08:23:14.0000000+00:00</time></trkpt><trkpt lat="29.56317985" lon="35.41793746"><ele>961.9</ele><time>2015-11-27T08:23:18.0000000+00:00</time></trkpt><trkpt lat="29.56312923" lon="35.41788876"><ele>962.4</ele><time>2015-11-27T08:23:29.0000000+00:00</time></trkpt><trkpt lat="29.56301498" lon="35.41780327"><ele>962.9</ele><time>2015-11-27T08:23:43.0000000+00:00</time></trkpt><trkpt lat="29.56287936" lon="35.41770008"><ele>963.4</ele><time>2015-11-27T08:23:59.0000000+00:00</time></trkpt><trkpt lat="29.56255834" lon="35.41756036"><ele>964.3</ele><time>2015-11-27T08:24:15.0000000+00:00</time></trkpt><trkpt lat="29.5621058" lon="35.41738811"><ele>964.8</ele><time>2015-11-27T08:24:30.0000000+00:00</time></trkpt><trkpt lat="29.56194185" lon="35.41730412"><ele>965.3</ele><time>2015-11-27T08:24:41.0000000+00:00</time></trkpt><trkpt lat="29.56194352" lon="35.41730421"><ele>968.2</ele><time>2015-11-27T08:24:44.0000000+00:00</time></trkpt><trkpt lat="29.56194319" lon="35.41730412"><ele>965.3</ele><time>2015-11-27T08:24:45.0000000+00:00</time></trkpt><trkpt lat="29.56192433" lon="35.41732784"><ele>965.8</ele><time>2015-11-27T08:25:20.0000000+00:00</time></trkpt><trkpt lat="29.56192181" lon="35.4173234"><ele>965.8</ele><time>2015-11-27T08:25:50.0000000+00:00</time></trkpt><trkpt lat="29.56176097" lon="35.41722961"><ele>965.8</ele><time>2015-11-27T08:26:05.0000000+00:00</time></trkpt><trkpt lat="29.56171998" lon="35.41721134"><ele>965.8</ele><time>2015-11-27T08:26:07.0000000+00:00</time></trkpt><trkpt lat="29.56144924" lon="35.41707446"><ele>967.2</ele><time>2015-11-27T08:26:21.0000000+00:00</time></trkpt><trkpt lat="29.56141236" lon="35.41704412"><ele>967.2</ele><time>2015-11-27T08:26:24.0000000+00:00</time></trkpt><trkpt lat="29.56129937" lon="35.41701025"><ele>967.7</ele><time>2015-11-27T08:26:30.0000000+00:00</time></trkpt><trkpt lat="29.56117205" lon="35.41695041"><ele>968.7</ele><time>2015-11-27T08:26:37.0000000+00:00</time></trkpt><trkpt lat="29.56107767" lon="35.41693188"><ele>968.7</ele><time>2015-11-27T08:26:43.0000000+00:00</time></trkpt><trkpt lat="29.56083376" lon="35.41686365"><ele>970.1</ele><time>2015-11-27T08:26:58.0000000+00:00</time></trkpt><trkpt lat="29.56062622" lon="35.41678838"><ele>970.6</ele><time>2015-11-27T08:27:12.0000000+00:00</time></trkpt><trkpt lat="29.56036823" lon="35.41669426"><ele>971.6</ele><time>2015-11-27T08:27:28.0000000+00:00</time></trkpt><trkpt lat="29.56012105" lon="35.41658127"><ele>972.5</ele><time>2015-11-27T08:27:43.0000000+00:00</time></trkpt><trkpt lat="29.55991359" lon="35.41646694"><ele>973.0</ele><time>2015-11-27T08:27:57.0000000+00:00</time></trkpt><trkpt lat="29.55968502" lon="35.4163397"><ele>974.4</ele><time>2015-11-27T08:28:12.0000000+00:00</time></trkpt><trkpt lat="29.55941102" lon="35.41618061"><ele>975.9</ele><time>2015-11-27T08:28:29.0000000+00:00</time></trkpt><trkpt lat="29.55914254" lon="35.41603653"><ele>977.3</ele><time>2015-11-27T08:28:45.0000000+00:00</time></trkpt><trkpt lat="29.55890701" lon="35.41584525"><ele>978.8</ele><time>2015-11-27T08:29:00.0000000+00:00</time></trkpt><trkpt lat="29.55883635" lon="35.41579169"><ele>979.2</ele><time>2015-11-27T08:29:06.0000000+00:00</time></trkpt><trkpt lat="29.55880358" lon="35.41579127"><ele>979.7</ele><time>2015-11-27T08:29:10.0000000+00:00</time></trkpt><trkpt lat="29.55870467" lon="35.41572053"><ele>979.7</ele><time>2015-11-27T08:29:17.0000000+00:00</time></trkpt><trkpt lat="29.55844852" lon="35.41557737"><ele>980.7</ele><time>2015-11-27T08:29:32.0000000+00:00</time></trkpt><trkpt lat="29.55811299" lon="35.41535097"><ele>980.7</ele><time>2015-11-27T08:29:48.0000000+00:00</time></trkpt><trkpt lat="29.5578897" lon="35.41523027"><ele>980.7</ele><time>2015-11-27T08:30:00.0000000+00:00</time></trkpt><trkpt lat="29.55778669" lon="35.41519725"><ele>980.7</ele><time>2015-11-27T08:30:14.0000000+00:00</time></trkpt><trkpt lat="29.55766758" lon="35.41513019"><ele>981.2</ele><time>2015-11-27T08:30:30.0000000+00:00</time></trkpt><trkpt lat="29.55755057" lon="35.41505819"><ele>981.2</ele><time>2015-11-27T08:30:46.0000000+00:00</time></trkpt><trkpt lat="29.55743607" lon="35.4149799"><ele>981.2</ele><time>2015-11-27T08:31:03.0000000+00:00</time></trkpt><trkpt lat="29.55735477" lon="35.4148411"><ele>981.6</ele><time>2015-11-27T08:31:22.0000000+00:00</time></trkpt><trkpt lat="29.55728813" lon="35.4147717"><ele>981.6</ele><time>2015-11-27T08:31:37.0000000+00:00</time></trkpt><trkpt lat="29.55717967" lon="35.41472694"><ele>981.6</ele><time>2015-11-27T08:31:54.0000000+00:00</time></trkpt><trkpt lat="29.55717858" lon="35.41473079"><ele>981.6</ele><time>2015-11-27T08:32:16.0000000+00:00</time></trkpt><trkpt lat="29.55719115" lon="35.41472208"><ele>981.6</ele><time>2015-11-27T08:32:48.0000000+00:00</time></trkpt><trkpt lat="29.55719677" lon="35.41471353"><ele>981.6</ele><time>2015-11-27T08:33:29.0000000+00:00</time></trkpt><trkpt lat="29.55719476" lon="35.41470741"><ele>981.6</ele><time>2015-11-27T08:34:15.0000000+00:00</time></trkpt><trkpt lat="29.55719333" lon="35.41469894"><ele>981.6</ele><time>2015-11-27T08:34:54.0000000+00:00</time></trkpt><trkpt lat="29.55719023" lon="35.41469618"><ele>981.6</ele><time>2015-11-27T08:35:06.0000000+00:00</time></trkpt><trkpt lat="29.55711395" lon="35.41470833"><ele>981.6</ele><time>2015-11-27T08:35:15.0000000+00:00</time></trkpt><trkpt lat="29.55697909" lon="35.41472409"><ele>981.2</ele><time>2015-11-27T08:35:28.0000000+00:00</time></trkpt><trkpt lat="29.55678119" lon="35.41467891"><ele>981.2</ele><time>2015-11-27T08:35:49.0000000+00:00</time></trkpt><trkpt lat="29.55661431" lon="35.41462535"><ele>981.6</ele><time>2015-11-27T08:36:10.0000000+00:00</time></trkpt><trkpt lat="29.55642756" lon="35.41454748"><ele>982.6</ele><time>2015-11-27T08:36:28.0000000+00:00</time></trkpt><trkpt lat="29.55620267" lon="35.41444405"><ele>983.6</ele><time>2015-11-27T08:36:41.0000000+00:00</time></trkpt><trkpt lat="29.55614819" lon="35.41438689"><ele>983.6</ele><time>2015-11-27T08:36:53.0000000+00:00</time></trkpt><trkpt lat="29.55595809" lon="35.41430516"><ele>984.1</ele><time>2015-11-27T08:37:15.0000000+00:00</time></trkpt><trkpt lat="29.55576363" lon="35.41424473"><ele>984.1</ele><time>2015-11-27T08:37:31.0000000+00:00</time></trkpt><trkpt lat="29.55535367" lon="35.41400719"><ele>984.5</ele><time>2015-11-27T08:37:46.0000000+00:00</time></trkpt><trkpt lat="29.55506156" lon="35.41375313"><ele>985.0</ele><time>2015-11-27T08:37:59.0000000+00:00</time></trkpt><trkpt lat="29.55482192" lon="35.4136388"><ele>984.5</ele><time>2015-11-27T08:38:08.0000000+00:00</time></trkpt><trkpt lat="29.55470374" lon="35.41356387"><ele>984.5</ele><time>2015-11-27T08:38:12.0000000+00:00</time></trkpt><trkpt lat="29.55459544" lon="35.41354165"><ele>984.5</ele><time>2015-11-27T08:38:16.0000000+00:00</time></trkpt><trkpt lat="29.55454239" lon="35.41353051"><ele>985.0</ele><time>2015-11-27T08:38:25.0000000+00:00</time></trkpt><trkpt lat="29.55429738" lon="35.41347636"><ele>984.5</ele><time>2015-11-27T08:38:40.0000000+00:00</time></trkpt><trkpt lat="29.5538694" lon="35.41341945"><ele>984.5</ele><time>2015-11-27T08:38:55.0000000+00:00</time></trkpt><trkpt lat="29.55379254" lon="35.41339422"><ele>984.5</ele><time>2015-11-27T08:39:04.0000000+00:00</time></trkpt><trkpt lat="29.55370939" lon="35.41340025"><ele>985.0</ele><time>2015-11-27T08:39:15.0000000+00:00</time></trkpt><trkpt lat="29.55350957" lon="35.41341257"><ele>985.0</ele><time>2015-11-27T08:39:32.0000000+00:00</time></trkpt><trkpt lat="29.55316348" lon="35.41339807"><ele>984.5</ele><time>2015-11-27T08:39:45.0000000+00:00</time></trkpt><trkpt lat="29.5528557" lon="35.41335532"><ele>984.1</ele><time>2015-11-27T08:39:57.0000000+00:00</time></trkpt><trkpt lat="29.55238556" lon="35.41325692"><ele>983.6</ele><time>2015-11-27T08:40:12.0000000+00:00</time></trkpt><trkpt lat="29.55187694" lon="35.41317293"><ele>982.6</ele><time>2015-11-27T08:40:25.0000000+00:00</time></trkpt><trkpt lat="29.55141569" lon="35.41304813"><ele>982.1</ele><time>2015-11-27T08:40:37.0000000+00:00</time></trkpt><trkpt lat="29.55096968" lon="35.41290614"><ele>981.2</ele><time>2015-11-27T08:40:49.0000000+00:00</time></trkpt><trkpt lat="29.55079325" lon="35.41284026"><ele>981.2</ele><time>2015-11-27T08:40:53.0000000+00:00</time></trkpt><trkpt lat="29.55022361" lon="35.41270564"><ele>980.2</ele><time>2015-11-27T08:41:04.0000000+00:00</time></trkpt><trkpt lat="29.54996453" lon="35.41262258"><ele>979.7</ele><time>2015-11-27T08:41:09.0000000+00:00</time></trkpt><trkpt lat="29.54951668" lon="35.41249199"><ele>978.8</ele><time>2015-11-27T08:41:19.0000000+00:00</time></trkpt><trkpt lat="29.54935474" lon="35.41243189"><ele>979.2</ele><time>2015-11-27T08:41:23.0000000+00:00</time></trkpt><trkpt lat="29.54877279" lon="35.41221765"><ele>979.7</ele><time>2015-11-27T08:41:38.0000000+00:00</time></trkpt><trkpt lat="29.54813744" lon="35.41201372"><ele>980.7</ele><time>2015-11-27T08:41:53.0000000+00:00</time></trkpt><trkpt lat="29.54755565" lon="35.41175388"><ele>983.1</ele><time>2015-11-27T08:42:10.0000000+00:00</time></trkpt><trkpt lat="29.54709758" lon="35.41156755"><ele>983.6</ele><time>2015-11-27T08:42:26.0000000+00:00</time></trkpt><trkpt lat="29.54663222" lon="35.41145439"><ele>984.1</ele><time>2015-11-27T08:42:41.0000000+00:00</time></trkpt><trkpt lat="29.54659165" lon="35.41145179"><ele>984.1</ele><time>2015-11-27T08:42:42.0000000+00:00</time></trkpt><trkpt lat="29.54617423" lon="35.41128064"><ele>984.1</ele><time>2015-11-27T08:42:55.0000000+00:00</time></trkpt><trkpt lat="29.54560518" lon="35.41103086"><ele>985.5</ele><time>2015-11-27T08:43:14.0000000+00:00</time></trkpt><trkpt lat="29.54530763" lon="35.41087587"><ele>985.5</ele><time>2015-11-27T08:43:23.0000000+00:00</time></trkpt><trkpt lat="29.54518072" lon="35.4108483"><ele>985.0</ele><time>2015-11-27T08:43:26.0000000+00:00</time></trkpt><trkpt lat="29.54509053" lon="35.41084142"><ele>985.0</ele><time>2015-11-27T08:43:28.0000000+00:00</time></trkpt><trkpt lat="29.54483547" lon="35.41076859"><ele>984.5</ele><time>2015-11-27T08:43:34.0000000+00:00</time></trkpt><trkpt lat="29.54431219" lon="35.41056323"><ele>986.0</ele><time>2015-11-27T08:43:50.0000000+00:00</time></trkpt><trkpt lat="29.54394087" lon="35.41042023"><ele>986.5</ele><time>2015-11-27T08:44:02.0000000+00:00</time></trkpt><trkpt lat="29.5436957" lon="35.4103536"><ele>986.9</ele><time>2015-11-27T08:44:14.0000000+00:00</time></trkpt><trkpt lat="29.54334467" lon="35.41018135"><ele>988.9</ele><time>2015-11-27T08:44:29.0000000+00:00</time></trkpt><trkpt lat="29.54296723" lon="35.41003416"><ele>990.3</ele><time>2015-11-27T08:44:47.0000000+00:00</time></trkpt><trkpt lat="29.54260631" lon="35.40988664"><ele>991.3</ele><time>2015-11-27T08:45:03.0000000+00:00</time></trkpt><trkpt lat="29.54224362" lon="35.40974767"><ele>991.3</ele><time>2015-11-27T08:45:17.0000000+00:00</time></trkpt><trkpt lat="29.54166577" lon="35.40943947"><ele>992.7</ele><time>2015-11-27T08:45:36.0000000+00:00</time></trkpt><trkpt lat="29.54119664" lon="35.40922087"><ele>991.7</ele><time>2015-11-27T08:45:50.0000000+00:00</time></trkpt><trkpt lat="29.54060672" lon="35.40891099"><ele>992.7</ele><time>2015-11-27T08:46:06.0000000+00:00</time></trkpt><trkpt lat="29.54004329" lon="35.40869004"><ele>994.6</ele><time>2015-11-27T08:46:23.0000000+00:00</time></trkpt><trkpt lat="29.53961581" lon="35.40842584"><ele>996.5</ele><time>2015-11-27T08:46:40.0000000+00:00</time></trkpt><trkpt lat="29.53926436" lon="35.4082836"><ele>997.5</ele><time>2015-11-27T08:46:56.0000000+00:00</time></trkpt><trkpt lat="29.53888281" lon="35.40810381"><ele>999.0</ele><time>2015-11-27T08:47:14.0000000+00:00</time></trkpt><trkpt lat="29.53858634" lon="35.40787247"><ele>999.9</ele><time>2015-11-27T08:47:31.0000000+00:00</time></trkpt><trkpt lat="29.5385063" lon="35.40782679"><ele>1000.9</ele><time>2015-11-27T08:47:44.0000000+00:00</time></trkpt><trkpt lat="29.53833933" lon="35.40772277"><ele>1001.4</ele><time>2015-11-27T08:47:58.0000000+00:00</time></trkpt><trkpt lat="29.53806717" lon="35.40761196"><ele>1002.3</ele><time>2015-11-27T08:48:13.0000000+00:00</time></trkpt><trkpt lat="29.53783147" lon="35.40753057"><ele>1002.8</ele><time>2015-11-27T08:48:26.0000000+00:00</time></trkpt><trkpt lat="29.53770968" lon="35.40750492"><ele>1003.3</ele><time>2015-11-27T08:48:34.0000000+00:00</time></trkpt><trkpt lat="29.53765126" lon="35.40749948"><ele>1003.3</ele><time>2015-11-27T08:48:46.0000000+00:00</time></trkpt><trkpt lat="29.53763072" lon="35.40749855"><ele>1003.3</ele><time>2015-11-27T08:49:05.0000000+00:00</time></trkpt><trkpt lat="29.53738119" lon="35.40749185"><ele>1003.8</ele><time>2015-11-27T08:49:19.0000000+00:00</time></trkpt><trkpt lat="29.53712186" lon="35.40742253"><ele>1004.2</ele><time>2015-11-27T08:49:33.0000000+00:00</time></trkpt><trkpt lat="29.53668835" lon="35.40725984"><ele>1004.2</ele><time>2015-11-27T08:49:51.0000000+00:00</time></trkpt><trkpt lat="29.53626162" lon="35.40716914"><ele>1004.7</ele><time>2015-11-27T08:50:07.0000000+00:00</time></trkpt><trkpt lat="29.53589785" lon="35.4070606"><ele>1004.7</ele><time>2015-11-27T08:50:22.0000000+00:00</time></trkpt><trkpt lat="29.53558587" lon="35.40690889"><ele>1005.2</ele><time>2015-11-27T08:50:35.0000000+00:00</time></trkpt><trkpt lat="29.53522076" lon="35.40675432"><ele>1005.2</ele><time>2015-11-27T08:50:50.0000000+00:00</time></trkpt><trkpt lat="29.53489504" lon="35.40662264"><ele>1005.2</ele><time>2015-11-27T08:51:04.0000000+00:00</time></trkpt><trkpt lat="29.5344969" lon="35.40648376"><ele>1004.7</ele><time>2015-11-27T08:51:18.0000000+00:00</time></trkpt><trkpt lat="29.53441484" lon="35.40644738"><ele>1004.7</ele><time>2015-11-27T08:51:27.0000000+00:00</time></trkpt><trkpt lat="29.5343161" lon="35.40640295"><ele>1004.7</ele><time>2015-11-27T08:51:43.0000000+00:00</time></trkpt><trkpt lat="29.53427067" lon="35.40639114"><ele>1004.7</ele><time>2015-11-27T08:52:02.0000000+00:00</time></trkpt><trkpt lat="29.5342384" lon="35.40637949"><ele>1004.7</ele><time>2015-11-27T08:52:06.0000000+00:00</time></trkpt><trkpt lat="29.53406917" lon="35.40627446"><ele>1004.2</ele><time>2015-11-27T08:52:17.0000000+00:00</time></trkpt><trkpt lat="29.53398879" lon="35.40624269"><ele>1004.2</ele><time>2015-11-27T08:52:30.0000000+00:00</time></trkpt><trkpt lat="29.53389793" lon="35.4062059"><ele>1004.2</ele><time>2015-11-27T08:52:41.0000000+00:00</time></trkpt><trkpt lat="29.53374085" lon="35.40615963"><ele>1003.8</ele><time>2015-11-27T08:52:57.0000000+00:00</time></trkpt><trkpt lat="29.5336323" lon="35.40615384"><ele>1003.8</ele><time>2015-11-27T08:53:08.0000000+00:00</time></trkpt><trkpt lat="29.53341396" lon="35.40610045"><ele>1003.3</ele><time>2015-11-27T08:53:19.0000000+00:00</time></trkpt><trkpt lat="29.5328838" lon="35.40587205"><ele>1003.8</ele><time>2015-11-27T08:53:37.0000000+00:00</time></trkpt><trkpt lat="29.53241718" lon="35.40573022"><ele>1004.7</ele><time>2015-11-27T08:53:53.0000000+00:00</time></trkpt><trkpt lat="29.53177471" lon="35.40547885"><ele>1005.7</ele><time>2015-11-27T08:54:16.0000000+00:00</time></trkpt><trkpt lat="29.53128269" lon="35.4052724"><ele>1007.6</ele><time>2015-11-27T08:54:35.0000000+00:00</time></trkpt><trkpt lat="29.53080995" lon="35.40513511"><ele>1008.6</ele><time>2015-11-27T08:54:53.0000000+00:00</time></trkpt><trkpt lat="29.5303321" lon="35.40495532"><ele>1009.0</ele><time>2015-11-27T08:55:10.0000000+00:00</time></trkpt><trkpt lat="29.52970932" lon="35.4047518"><ele>1011.0</ele><time>2015-11-27T08:55:31.0000000+00:00</time></trkpt><trkpt lat="29.52919954" lon="35.4045928"><ele>1012.9</ele><time>2015-11-27T08:55:49.0000000+00:00</time></trkpt><trkpt lat="29.52879963" lon="35.40449775"><ele>1013.9</ele><time>2015-11-27T08:56:04.0000000+00:00</time></trkpt><trkpt lat="29.52849981" lon="35.40438082"><ele>1014.8</ele><time>2015-11-27T08:56:19.0000000+00:00</time></trkpt><trkpt lat="29.5282761" lon="35.404297"><ele>1015.8</ele><time>2015-11-27T08:56:32.0000000+00:00</time></trkpt><trkpt lat="29.52793378" lon="35.40417479"><ele>1017.2</ele><time>2015-11-27T08:56:50.0000000+00:00</time></trkpt><trkpt lat="29.52764075" lon="35.40408402"><ele>1018.2</ele><time>2015-11-27T08:57:07.0000000+00:00</time></trkpt><trkpt lat="29.52758183" lon="35.40408184"><ele>1018.7</ele><time>2015-11-27T08:57:18.0000000+00:00</time></trkpt><trkpt lat="29.52748016" lon="35.40406533"><ele>1019.1</ele><time>2015-11-27T08:57:30.0000000+00:00</time></trkpt><trkpt lat="29.52733632" lon="35.40404873"><ele>1019.6</ele><time>2015-11-27T08:57:40.0000000+00:00</time></trkpt><trkpt lat="29.52707958" lon="35.4040401"><ele>1020.6</ele><time>2015-11-27T08:57:55.0000000+00:00</time></trkpt><trkpt lat="29.52691295" lon="35.40403415"><ele>1020.6</ele><time>2015-11-27T08:58:07.0000000+00:00</time></trkpt><trkpt lat="29.52682561" lon="35.40403616"><ele>1020.6</ele><time>2015-11-27T08:58:19.0000000+00:00</time></trkpt><trkpt lat="29.52673274" lon="35.40402677"><ele>1020.6</ele><time>2015-11-27T08:58:34.0000000+00:00</time></trkpt><trkpt lat="29.52658522" lon="35.40402669"><ele>1021.1</ele><time>2015-11-27T08:58:52.0000000+00:00</time></trkpt><trkpt lat="29.52645346" lon="35.40404345"><ele>1021.1</ele><time>2015-11-27T08:59:07.0000000+00:00</time></trkpt><trkpt lat="29.52634315" lon="35.4040748"><ele>1021.1</ele><time>2015-11-27T08:59:20.0000000+00:00</time></trkpt><trkpt lat="29.52618213" lon="35.40410229"><ele>1021.5</ele><time>2015-11-27T08:59:39.0000000+00:00</time></trkpt><trkpt lat="29.52600284" lon="35.40410883"><ele>1021.5</ele><time>2015-11-27T08:59:54.0000000+00:00</time></trkpt><trkpt lat="29.52572926" lon="35.40408947"><ele>1022.5</ele><time>2015-11-27T09:00:08.0000000+00:00</time></trkpt><trkpt lat="29.52548526" lon="35.4039981"><ele>1023.5</ele><time>2015-11-27T09:00:22.0000000+00:00</time></trkpt><trkpt lat="29.5251976" lon="35.40386064"><ele>1023.9</ele><time>2015-11-27T09:00:38.0000000+00:00</time></trkpt><trkpt lat="29.52489744" lon="35.40367867"><ele>1023.9</ele><time>2015-11-27T09:00:52.0000000+00:00</time></trkpt><trkpt lat="29.5245806" lon="35.40348421"><ele>1023.5</ele><time>2015-11-27T09:01:06.0000000+00:00</time></trkpt><trkpt lat="29.5241595" lon="35.40325019"><ele>1023.0</ele><time>2015-11-27T09:01:22.0000000+00:00</time></trkpt><trkpt lat="29.5238502" lon="35.40303276"><ele>1022.5</ele><time>2015-11-27T09:01:35.0000000+00:00</time></trkpt><trkpt lat="29.52352365" lon="35.40280636"><ele>1023.9</ele><time>2015-11-27T09:01:51.0000000+00:00</time></trkpt><trkpt lat="29.52321142" lon="35.4025617"><ele>1024.4</ele><time>2015-11-27T09:02:08.0000000+00:00</time></trkpt><trkpt lat="29.5229411" lon="35.40236229"><ele>1024.9</ele><time>2015-11-27T09:02:23.0000000+00:00</time></trkpt><trkpt lat="29.52274681" lon="35.40223472"><ele>1025.4</ele><time>2015-11-27T09:02:35.0000000+00:00</time></trkpt><trkpt lat="29.52261823" lon="35.40219147"><ele>1024.9</ele><time>2015-11-27T09:02:41.0000000+00:00</time></trkpt><trkpt lat="29.52249854" lon="35.40204009"><ele>1025.4</ele><time>2015-11-27T09:02:49.0000000+00:00</time></trkpt><trkpt lat="29.52244934" lon="35.4020131"><ele>1025.9</ele><time>2015-11-27T09:02:57.0000000+00:00</time></trkpt><trkpt lat="29.52242293" lon="35.40198863"><ele>1025.9</ele><time>2015-11-27T09:03:01.0000000+00:00</time></trkpt><trkpt lat="29.52236007" lon="35.40190288"><ele>1025.9</ele><time>2015-11-27T09:03:07.0000000+00:00</time></trkpt><trkpt lat="29.52222135" lon="35.40176961"><ele>1026.3</ele><time>2015-11-27T09:03:22.0000000+00:00</time></trkpt><trkpt lat="29.52215756" lon="35.40172451"><ele>1026.3</ele><time>2015-11-27T09:03:39.0000000+00:00</time></trkpt><trkpt lat="29.52200719" lon="35.40162083"><ele>1027.3</ele><time>2015-11-27T09:03:58.0000000+00:00</time></trkpt><trkpt lat="29.52184701" lon="35.40151731"><ele>1027.3</ele><time>2015-11-27T09:04:18.0000000+00:00</time></trkpt><trkpt lat="29.52172791" lon="35.4014438"><ele>1027.8</ele><time>2015-11-27T09:04:35.0000000+00:00</time></trkpt><trkpt lat="29.5216" lon="35.40136535"><ele>1028.3</ele><time>2015-11-27T09:04:53.0000000+00:00</time></trkpt><trkpt lat="29.52144007" lon="35.40127348"><ele>1028.8</ele><time>2015-11-27T09:05:12.0000000+00:00</time></trkpt><trkpt lat="29.52137453" lon="35.4012418"><ele>1028.8</ele><time>2015-11-27T09:05:21.0000000+00:00</time></trkpt><trkpt lat="29.52128585" lon="35.40117784"><ele>1029.2</ele><time>2015-11-27T09:05:28.0000000+00:00</time></trkpt><trkpt lat="29.52106507" lon="35.40106452"><ele>1029.7</ele><time>2015-11-27T09:05:42.0000000+00:00</time></trkpt><trkpt lat="29.52100765" lon="35.40104801"><ele>1029.2</ele><time>2015-11-27T09:05:58.0000000+00:00</time></trkpt><trkpt lat="29.52099047" lon="35.40104725"><ele>1029.7</ele><time>2015-11-27T09:06:12.0000000+00:00</time></trkpt><trkpt lat="29.52086583" lon="35.40098338"><ele>1030.2</ele><time>2015-11-27T09:06:28.0000000+00:00</time></trkpt><trkpt lat="29.52067472" lon="35.40090191"><ele>1031.2</ele><time>2015-11-27T09:06:49.0000000+00:00</time></trkpt><trkpt lat="29.52051521" lon="35.40082622"><ele>1031.2</ele><time>2015-11-27T09:07:07.0000000+00:00</time></trkpt><trkpt lat="29.52040927" lon="35.40076009"><ele>1031.2</ele><time>2015-11-27T09:07:25.0000000+00:00</time></trkpt><trkpt lat="29.52025454" lon="35.4006735"><ele>1031.6</ele><time>2015-11-27T09:07:42.0000000+00:00</time></trkpt><trkpt lat="29.52016477" lon="35.40062095"><ele>1031.6</ele><time>2015-11-27T09:08:03.0000000+00:00</time></trkpt><trkpt lat="29.52008857" lon="35.4005746"><ele>1032.1</ele><time>2015-11-27T09:08:19.0000000+00:00</time></trkpt><trkpt lat="29.52000073" lon="35.40052196"><ele>1032.6</ele><time>2015-11-27T09:08:39.0000000+00:00</time></trkpt><trkpt lat="29.51983854" lon="35.4004544"><ele>1032.1</ele><time>2015-11-27T09:08:59.0000000+00:00</time></trkpt><trkpt lat="29.51975598" lon="35.40040813"><ele>1032.6</ele><time>2015-11-27T09:09:13.0000000+00:00</time></trkpt><trkpt lat="29.51973134" lon="35.40040587"><ele>1032.1</ele><time>2015-11-27T09:09:30.0000000+00:00</time></trkpt><trkpt lat="29.51973394" lon="35.40040696"><ele>1032.6</ele><time>2015-11-27T09:10:10.0000000+00:00</time></trkpt><trkpt lat="29.51973553" lon="35.40040948"><ele>1032.1</ele><time>2015-11-27T09:10:38.0000000+00:00</time></trkpt><trkpt lat="29.51961416" lon="35.4003472"><ele>1032.6</ele><time>2015-11-27T09:10:54.0000000+00:00</time></trkpt><trkpt lat="29.51949899" lon="35.4003042"><ele>1032.6</ele><time>2015-11-27T09:11:09.0000000+00:00</time></trkpt><trkpt lat="29.51944568" lon="35.40024871"><ele>1033.1</ele><time>2015-11-27T09:11:23.0000000+00:00</time></trkpt><trkpt lat="29.51934854" lon="35.40016665"><ele>1033.1</ele><time>2015-11-27T09:11:38.0000000+00:00</time></trkpt><trkpt lat="29.51932205" lon="35.40012172"><ele>1033.1</ele><time>2015-11-27T09:11:56.0000000+00:00</time></trkpt><trkpt lat="29.51929891" lon="35.40011737"><ele>1033.1</ele><time>2015-11-27T09:12:07.0000000+00:00</time></trkpt><trkpt lat="29.51915265" lon="35.40014477"><ele>1033.1</ele><time>2015-11-27T09:12:25.0000000+00:00</time></trkpt><trkpt lat="29.5190571" lon="35.40018903"><ele>1032.6</ele><time>2015-11-27T09:12:39.0000000+00:00</time></trkpt><trkpt lat="29.51895442" lon="35.40025366"><ele>1032.1</ele><time>2015-11-27T09:12:55.0000000+00:00</time></trkpt><trkpt lat="29.51890002" lon="35.40030797"><ele>1032.1</ele><time>2015-11-27T09:13:10.0000000+00:00</time></trkpt><trkpt lat="29.51889516" lon="35.40034175"><ele>1032.1</ele><time>2015-11-27T09:13:30.0000000+00:00</time></trkpt><trkpt lat="29.51881235" lon="35.4003187"><ele>1031.6</ele><time>2015-11-27T09:13:50.0000000+00:00</time></trkpt><trkpt lat="29.5187064" lon="35.40030763"><ele>1031.6</ele><time>2015-11-27T09:14:08.0000000+00:00</time></trkpt><trkpt lat="29.51856374" lon="35.40029339"><ele>1031.6</ele><time>2015-11-27T09:14:24.0000000+00:00</time></trkpt><trkpt lat="29.51844254" lon="35.40036128"><ele>1031.2</ele><time>2015-11-27T09:14:40.0000000+00:00</time></trkpt><trkpt lat="29.51829552" lon="35.40031401"><ele>1031.2</ele><time>2015-11-27T09:14:57.0000000+00:00</time></trkpt><trkpt lat="29.51815361" lon="35.40031132"><ele>1031.2</ele><time>2015-11-27T09:15:16.0000000+00:00</time></trkpt><trkpt lat="29.51802109" lon="35.40028123"><ele>1031.2</ele><time>2015-11-27T09:15:35.0000000+00:00</time></trkpt><trkpt lat="29.51800735" lon="35.40027285"><ele>1031.6</ele><time>2015-11-27T09:15:50.0000000+00:00</time></trkpt><trkpt lat="29.5180086" lon="35.40025516"><ele>1031.6</ele><time>2015-11-27T09:16:21.0000000+00:00</time></trkpt><trkpt lat="29.51791456" lon="35.4002042"><ele>1031.6</ele><time>2015-11-27T09:16:35.0000000+00:00</time></trkpt><trkpt lat="29.51778514" lon="35.40012114"><ele>1031.6</ele><time>2015-11-27T09:16:52.0000000+00:00</time></trkpt><trkpt lat="29.517761" lon="35.40009423"><ele>1032.1</ele><time>2015-11-27T09:17:08.0000000+00:00</time></trkpt><trkpt lat="29.51771691" lon="35.40004503"><ele>1032.1</ele><time>2015-11-27T09:17:16.0000000+00:00</time></trkpt><trkpt lat="29.51767576" lon="35.4000022"><ele>1032.1</ele><time>2015-11-27T09:17:20.0000000+00:00</time></trkpt><trkpt lat="29.51756814" lon="35.39992802"><ele>1032.1</ele><time>2015-11-27T09:17:31.0000000+00:00</time></trkpt><trkpt lat="29.51752388" lon="35.39994847"><ele>1032.6</ele><time>2015-11-27T09:17:42.0000000+00:00</time></trkpt><trkpt lat="29.51740268" lon="35.39995819"><ele>1032.1</ele><time>2015-11-27T09:17:51.0000000+00:00</time></trkpt><trkpt lat="29.51721593" lon="35.39980195"><ele>1032.6</ele><time>2015-11-27T09:18:06.0000000+00:00</time></trkpt><trkpt lat="29.51708081" lon="35.39970808"><ele>1032.6</ele><time>2015-11-27T09:18:16.0000000+00:00</time></trkpt><trkpt lat="29.51699993" lon="35.3996774"><ele>1033.1</ele><time>2015-11-27T09:18:29.0000000+00:00</time></trkpt><trkpt lat="29.5168742" lon="35.39963247"><ele>1033.1</ele><time>2015-11-27T09:18:47.0000000+00:00</time></trkpt><trkpt lat="29.51672693" lon="35.39956424"><ele>1033.1</ele><time>2015-11-27T09:19:06.0000000+00:00</time></trkpt><trkpt lat="29.51664638" lon="35.39952778"><ele>1033.6</ele><time>2015-11-27T09:19:19.0000000+00:00</time></trkpt><trkpt lat="29.51651772" lon="35.39953533"><ele>1033.6</ele><time>2015-11-27T09:19:35.0000000+00:00</time></trkpt><trkpt lat="29.51631906" lon="35.39951077"><ele>1033.6</ele><time>2015-11-27T09:19:58.0000000+00:00</time></trkpt><trkpt lat="29.51617347" lon="35.39949073"><ele>1033.6</ele><time>2015-11-27T09:20:15.0000000+00:00</time></trkpt><trkpt lat="29.51600273" lon="35.39946073"><ele>1033.6</ele><time>2015-11-27T09:20:36.0000000+00:00</time></trkpt><trkpt lat="29.51583602" lon="35.3994293"><ele>1033.6</ele><time>2015-11-27T09:20:55.0000000+00:00</time></trkpt><trkpt lat="29.51566595" lon="35.39936031"><ele>1034.0</ele><time>2015-11-27T09:21:16.0000000+00:00</time></trkpt><trkpt lat="29.51553083" lon="35.39930583"><ele>1034.5</ele><time>2015-11-27T09:21:33.0000000+00:00</time></trkpt><trkpt lat="29.51539454" lon="35.3992459"><ele>1034.5</ele><time>2015-11-27T09:21:51.0000000+00:00</time></trkpt><trkpt lat="29.51529421" lon="35.39917993"><ele>1035.0</ele><time>2015-11-27T09:22:07.0000000+00:00</time></trkpt><trkpt lat="29.51515566" lon="35.3991117"><ele>1035.0</ele><time>2015-11-27T09:22:29.0000000+00:00</time></trkpt><trkpt lat="29.5150187" lon="35.39904624"><ele>1035.5</ele><time>2015-11-27T09:22:47.0000000+00:00</time></trkpt><trkpt lat="29.51482566" lon="35.39895865"><ele>1035.5</ele><time>2015-11-27T09:23:07.0000000+00:00</time></trkpt><trkpt lat="29.51460882" lon="35.39885824"><ele>1035.5</ele><time>2015-11-27T09:23:26.0000000+00:00</time></trkpt><trkpt lat="29.51447396" lon="35.39879235"><ele>1035.5</ele><time>2015-11-27T09:23:43.0000000+00:00</time></trkpt><trkpt lat="29.51436843" lon="35.39872438"><ele>1035.5</ele><time>2015-11-27T09:23:58.0000000+00:00</time></trkpt><trkpt lat="29.51419668" lon="35.39863628"><ele>1036.0</ele><time>2015-11-27T09:24:19.0000000+00:00</time></trkpt><trkpt lat="29.51404883" lon="35.39859404"><ele>1036.0</ele><time>2015-11-27T09:24:38.0000000+00:00</time></trkpt><trkpt lat="29.51388169" lon="35.39854165"><ele>1036.0</ele><time>2015-11-27T09:24:57.0000000+00:00</time></trkpt><trkpt lat="29.51370039" lon="35.39851014"><ele>1036.0</ele><time>2015-11-27T09:25:18.0000000+00:00</time></trkpt><trkpt lat="29.51352437" lon="35.39849916"><ele>1035.0</ele><time>2015-11-27T09:25:37.0000000+00:00</time></trkpt><trkpt lat="29.51333318" lon="35.39845917"><ele>1035.5</ele><time>2015-11-27T09:25:58.0000000+00:00</time></trkpt><trkpt lat="29.5131678" lon="35.39841492"><ele>1035.0</ele><time>2015-11-27T09:26:17.0000000+00:00</time></trkpt><trkpt lat="29.51312095" lon="35.39840578"><ele>1035.0</ele><time>2015-11-27T09:26:33.0000000+00:00</time></trkpt><trkpt lat="29.51312891" lon="35.39840176"><ele>1035.5</ele><time>2015-11-27T09:27:02.0000000+00:00</time></trkpt><trkpt lat="29.51310234" lon="35.39839732"><ele>1035.5</ele><time>2015-11-27T09:27:38.0000000+00:00</time></trkpt><trkpt lat="29.51297611" lon="35.39836781"><ele>1035.5</ele><time>2015-11-27T09:27:54.0000000+00:00</time></trkpt><trkpt lat="29.51285449" lon="35.39827511"><ele>1036.0</ele><time>2015-11-27T09:28:13.0000000+00:00</time></trkpt><trkpt lat="29.51273513" lon="35.39818324"><ele>1035.5</ele><time>2015-11-27T09:28:30.0000000+00:00</time></trkpt><trkpt lat="29.51252013" lon="35.39801124"><ele>1035.5</ele><time>2015-11-27T09:28:55.0000000+00:00</time></trkpt><trkpt lat="29.51239516" lon="35.39791301"><ele>1035.5</ele><time>2015-11-27T09:29:13.0000000+00:00</time></trkpt><trkpt lat="29.51223289" lon="35.39779013"><ele>1035.5</ele><time>2015-11-27T09:29:33.0000000+00:00</time></trkpt><trkpt lat="29.51207262" lon="35.39768963"><ele>1035.0</ele><time>2015-11-27T09:29:53.0000000+00:00</time></trkpt><trkpt lat="29.51193474" lon="35.39760682"><ele>1035.0</ele><time>2015-11-27T09:30:10.0000000+00:00</time></trkpt><trkpt lat="29.51180851" lon="35.39751529"><ele>1034.5</ele><time>2015-11-27T09:30:28.0000000+00:00</time></trkpt><trkpt lat="29.51165646" lon="35.39741546"><ele>1035.0</ele><time>2015-11-27T09:30:47.0000000+00:00</time></trkpt><trkpt lat="29.51149737" lon="35.39730172"><ele>1035.0</ele><time>2015-11-27T09:31:06.0000000+00:00</time></trkpt><trkpt lat="29.51132328" lon="35.39717129"><ele>1034.5</ele><time>2015-11-27T09:31:27.0000000+00:00</time></trkpt><trkpt lat="29.51129378" lon="35.39712586"><ele>1035.0</ele><time>2015-11-27T09:31:46.0000000+00:00</time></trkpt><trkpt lat="29.51126503" lon="35.39709083"><ele>1035.0</ele><time>2015-11-27T09:31:54.0000000+00:00</time></trkpt><trkpt lat="29.51122362" lon="35.39708203"><ele>1035.0</ele><time>2015-11-27T09:31:58.0000000+00:00</time></trkpt><trkpt lat="29.51099941" lon="35.39689084"><ele>1035.0</ele><time>2015-11-27T09:32:11.0000000+00:00</time></trkpt><trkpt lat="29.51070805" lon="35.39664659"><ele>1035.0</ele><time>2015-11-27T09:32:27.0000000+00:00</time></trkpt><trkpt lat="29.5106819" lon="35.39665061"><ele>1035.0</ele><time>2015-11-27T09:32:32.0000000+00:00</time></trkpt><trkpt lat="29.51061694" lon="35.39659797"><ele>1035.0</ele><time>2015-11-27T09:32:37.0000000+00:00</time></trkpt><trkpt lat="29.51045919" lon="35.39645213"><ele>1035.0</ele><time>2015-11-27T09:32:47.0000000+00:00</time></trkpt><trkpt lat="29.5104141" lon="35.39638549"><ele>1035.0</ele><time>2015-11-27T09:32:59.0000000+00:00</time></trkpt><trkpt lat="29.51037495" lon="35.39634191"><ele>1035.0</ele><time>2015-11-27T09:33:06.0000000+00:00</time></trkpt><trkpt lat="29.51020136" lon="35.39625063"><ele>1035.0</ele><time>2015-11-27T09:33:23.0000000+00:00</time></trkpt><trkpt lat="29.50983943" lon="35.39609967"><ele>1034.5</ele><time>2015-11-27T09:33:40.0000000+00:00</time></trkpt><trkpt lat="29.50946887" lon="35.39595558"><ele>1034.0</ele><time>2015-11-27T09:33:55.0000000+00:00</time></trkpt><trkpt lat="29.5090792" lon="35.39572366"><ele>1034.0</ele><time>2015-11-27T09:34:10.0000000+00:00</time></trkpt><trkpt lat="29.50866194" lon="35.39549944"><ele>1033.6</ele><time>2015-11-27T09:34:25.0000000+00:00</time></trkpt><trkpt lat="29.50830144" lon="35.39534546"><ele>1033.1</ele><time>2015-11-27T09:34:37.0000000+00:00</time></trkpt><trkpt lat="29.50820873" lon="35.39528847"><ele>1033.1</ele><time>2015-11-27T09:34:41.0000000+00:00</time></trkpt><trkpt lat="29.50776584" lon="35.3950873"><ele>1032.1</ele><time>2015-11-27T09:34:57.0000000+00:00</time></trkpt><trkpt lat="29.50741564" lon="35.39491648"><ele>1031.6</ele><time>2015-11-27T09:35:09.0000000+00:00</time></trkpt><trkpt lat="29.50714868" lon="35.39482604"><ele>1031.2</ele><time>2015-11-27T09:35:21.0000000+00:00</time></trkpt><trkpt lat="29.50671273" lon="35.39470458"><ele>1030.7</ele><time>2015-11-27T09:35:36.0000000+00:00</time></trkpt><trkpt lat="29.50624075" lon="35.39449495"><ele>1029.7</ele><time>2015-11-27T09:35:50.0000000+00:00</time></trkpt><trkpt lat="29.50567053" lon="35.39425523"><ele>1028.8</ele><time>2015-11-27T09:36:06.0000000+00:00</time></trkpt><trkpt lat="29.50522352" lon="35.39399992"><ele>1027.8</ele><time>2015-11-27T09:36:19.0000000+00:00</time></trkpt><trkpt lat="29.50477635" lon="35.3937586"><ele>1027.3</ele><time>2015-11-27T09:36:34.0000000+00:00</time></trkpt><trkpt lat="29.50436044" lon="35.39351"><ele>1027.3</ele><time>2015-11-27T09:36:50.0000000+00:00</time></trkpt><trkpt lat="29.50400756" lon="35.39327346"><ele>1026.3</ele><time>2015-11-27T09:37:04.0000000+00:00</time></trkpt><trkpt lat="29.50365619" lon="35.39302971"><ele>1025.9</ele><time>2015-11-27T09:37:17.0000000+00:00</time></trkpt><trkpt lat="29.5034199" lon="35.39273341"><ele>1025.9</ele><time>2015-11-27T09:37:30.0000000+00:00</time></trkpt><trkpt lat="29.50319585" lon="35.39256351"><ele>1025.4</ele><time>2015-11-27T09:37:40.0000000+00:00</time></trkpt><trkpt lat="29.50269076" lon="35.39226436"><ele>1025.4</ele><time>2015-11-27T09:37:58.0000000+00:00</time></trkpt><trkpt lat="29.50229991" lon="35.39213134"><ele>1024.9</ele><time>2015-11-27T09:38:11.0000000+00:00</time></trkpt><trkpt lat="29.50192918" lon="35.39199539"><ele>1023.9</ele><time>2015-11-27T09:38:24.0000000+00:00</time></trkpt><trkpt lat="29.50175794" lon="35.39184334"><ele>1023.9</ele><time>2015-11-27T09:38:35.0000000+00:00</time></trkpt><trkpt lat="29.50141872" lon="35.39171258"><ele>1023.9</ele><time>2015-11-27T09:38:49.0000000+00:00</time></trkpt><trkpt lat="29.50106291" lon="35.39164963"><ele>1023.5</ele><time>2015-11-27T09:39:02.0000000+00:00</time></trkpt><trkpt lat="29.50065161" lon="35.39165441"><ele>1023.5</ele><time>2015-11-27T09:39:16.0000000+00:00</time></trkpt><trkpt lat="29.50023025" lon="35.39171384"><ele>1023.9</ele><time>2015-11-27T09:39:31.0000000+00:00</time></trkpt><trkpt lat="29.49988643" lon="35.39170311"><ele>1024.4</ele><time>2015-11-27T09:39:45.0000000+00:00</time></trkpt><trkpt lat="29.49950287" lon="35.39154922"><ele>1023.9</ele><time>2015-11-27T09:40:00.0000000+00:00</time></trkpt><trkpt lat="29.49934387" lon="35.39133573"><ele>1023.9</ele><time>2015-11-27T09:40:12.0000000+00:00</time></trkpt><trkpt lat="29.49933222" lon="35.39133791"><ele>1023.5</ele><time>2015-11-27T09:40:32.0000000+00:00</time></trkpt><trkpt lat="29.49933012" lon="35.3913224"><ele>1023.9</ele><time>2015-11-27T09:41:00.0000000+00:00</time></trkpt><trkpt lat="29.49933305" lon="35.39132592"><ele>1023.5</ele><time>2015-11-27T09:41:27.0000000+00:00</time></trkpt><trkpt lat="29.49932601" lon="35.39133741"><ele>1023.0</ele><time>2015-11-27T09:41:55.0000000+00:00</time></trkpt><trkpt lat="29.49933247" lon="35.39134151"><ele>1023.0</ele><time>2015-11-27T09:42:31.0000000+00:00</time></trkpt><trkpt lat="29.4993416" lon="35.39133523"><ele>1022.5</ele><time>2015-11-27T09:43:15.0000000+00:00</time></trkpt><trkpt lat="29.49933096" lon="35.39134135"><ele>1022.5</ele><time>2015-11-27T09:44:06.0000000+00:00</time></trkpt><trkpt lat="29.49932844" lon="35.39134302"><ele>1022.5</ele><time>2015-11-27T09:44:49.0000000+00:00</time></trkpt><trkpt lat="29.49932325" lon="35.39135224"><ele>1022.5</ele><time>2015-11-27T09:45:35.0000000+00:00</time></trkpt><trkpt lat="29.49932995" lon="35.39134797"><ele>1022.0</ele><time>2015-11-27T09:46:19.0000000+00:00</time></trkpt><trkpt lat="29.49931872" lon="35.39135015"><ele>1022.5</ele><time>2015-11-27T09:46:47.0000000+00:00</time></trkpt><trkpt lat="29.49932694" lon="35.3913452"><ele>1022.0</ele><time>2015-11-27T09:47:28.0000000+00:00</time></trkpt><trkpt lat="29.49932517" lon="35.39135417"><ele>1022.0</ele><time>2015-11-27T09:48:12.0000000+00:00</time></trkpt><trkpt lat="29.49931906" lon="35.39135258"><ele>1021.5</ele><time>2015-11-27T09:48:55.0000000+00:00</time></trkpt><trkpt lat="29.49931855" lon="35.39135543"><ele>1021.5</ele><time>2015-11-27T09:49:29.0000000+00:00</time></trkpt><trkpt lat="29.49933188" lon="35.39132752"><ele>1021.5</ele><time>2015-11-27T09:50:18.0000000+00:00</time></trkpt><trkpt lat="29.49933381" lon="35.3913105"><ele>1021.1</ele><time>2015-11-27T09:50:54.0000000+00:00</time></trkpt><trkpt lat="29.49932735" lon="35.39129164"><ele>1021.1</ele><time>2015-11-27T09:51:31.0000000+00:00</time></trkpt><trkpt lat="29.49933079" lon="35.39129441"><ele>1021.1</ele><time>2015-11-27T09:52:11.0000000+00:00</time></trkpt><trkpt lat="29.49933263" lon="35.39130472"><ele>1021.1</ele><time>2015-11-27T09:52:49.0000000+00:00</time></trkpt><trkpt lat="29.49932517" lon="35.39130195"><ele>1021.1</ele><time>2015-11-27T09:53:25.0000000+00:00</time></trkpt><trkpt lat="29.49932551" lon="35.39130765"><ele>1021.1</ele><time>2015-11-27T09:54:00.0000000+00:00</time></trkpt><trkpt lat="29.4993302" lon="35.39131503"><ele>1021.1</ele><time>2015-11-27T09:54:35.0000000+00:00</time></trkpt><trkpt lat="29.49932903" lon="35.39131385"><ele>1021.5</ele><time>2015-11-27T09:55:02.0000000+00:00</time></trkpt><trkpt lat="29.49928544" lon="35.39131897"><ele>1022.0</ele><time>2015-11-27T09:55:27.0000000+00:00</time></trkpt><trkpt lat="29.49924379" lon="35.39133715"><ele>1022.0</ele><time>2015-11-27T09:55:32.0000000+00:00</time></trkpt><trkpt lat="29.49913859" lon="35.39139046"><ele>1021.5</ele><time>2015-11-27T09:55:48.0000000+00:00</time></trkpt><trkpt lat="29.49902334" lon="35.39141628"><ele>1021.5</ele><time>2015-11-27T09:56:06.0000000+00:00</time></trkpt><trkpt lat="29.4990013" lon="35.39141905"><ele>1021.5</ele><time>2015-11-27T09:56:09.0000000+00:00</time></trkpt><trkpt lat="29.49884397" lon="35.39143992"><ele>1021.5</ele><time>2015-11-27T09:56:26.0000000+00:00</time></trkpt><trkpt lat="29.49873366" lon="35.3914711"><ele>1021.5</ele><time>2015-11-27T09:56:43.0000000+00:00</time></trkpt><trkpt lat="29.4986397" lon="35.39147219"><ele>1021.5</ele><time>2015-11-27T09:56:59.0000000+00:00</time></trkpt><trkpt lat="29.49850895" lon="35.39145299"><ele>1022.5</ele><time>2015-11-27T09:57:17.0000000+00:00</time></trkpt><trkpt lat="29.49831457" lon="35.3914193"><ele>1023.0</ele><time>2015-11-27T09:57:38.0000000+00:00</time></trkpt><trkpt lat="29.49811609" lon="35.3913861"><ele>1023.5</ele><time>2015-11-27T09:58:00.0000000+00:00</time></trkpt><trkpt lat="29.49803939" lon="35.39136942"><ele>1023.5</ele><time>2015-11-27T09:58:16.0000000+00:00</time></trkpt><trkpt lat="29.49803696" lon="35.39133665"><ele>1023.0</ele><time>2015-11-27T09:58:32.0000000+00:00</time></trkpt><trkpt lat="29.49798818" lon="35.39114135"><ele>1022.5</ele><time>2015-11-27T09:58:51.0000000+00:00</time></trkpt><trkpt lat="29.4979772" lon="35.39112333"><ele>1022.5</ele><time>2015-11-27T09:58:53.0000000+00:00</time></trkpt><trkpt lat="29.49794778" lon="35.39093583"><ele>1022.0</ele><time>2015-11-27T09:59:10.0000000+00:00</time></trkpt><trkpt lat="29.49794015" lon="35.39092099"><ele>1022.0</ele><time>2015-11-27T09:59:13.0000000+00:00</time></trkpt><trkpt lat="29.49776446" lon="35.3906775"><ele>1021.1</ele><time>2015-11-27T09:59:25.0000000+00:00</time></trkpt><trkpt lat="29.49762164" lon="35.39042093"><ele>1020.6</ele><time>2015-11-27T09:59:35.0000000+00:00</time></trkpt><trkpt lat="29.49736247" lon="35.39016436"><ele>1019.6</ele><time>2015-11-27T09:59:47.0000000+00:00</time></trkpt><trkpt lat="29.497081" lon="35.3897917"><ele>1018.2</ele><time>2015-11-27T10:00:00.0000000+00:00</time></trkpt><trkpt lat="29.49689283" lon="35.38955013"><ele>1017.2</ele><time>2015-11-27T10:00:11.0000000+00:00</time></trkpt><trkpt lat="29.49690758" lon="35.3895068"><ele>1017.2</ele><time>2015-11-27T10:00:15.0000000+00:00</time></trkpt><trkpt lat="29.49686768" lon="35.38915887"><ele>1015.8</ele><time>2015-11-27T10:00:26.0000000+00:00</time></trkpt><trkpt lat="29.49662721" lon="35.38879199"><ele>1014.8</ele><time>2015-11-27T10:00:37.0000000+00:00</time></trkpt><trkpt lat="29.49658329" lon="35.38872167"><ele>1014.8</ele><time>2015-11-27T10:00:45.0000000+00:00</time></trkpt><trkpt lat="29.49657516" lon="35.38871144"><ele>1014.8</ele><time>2015-11-27T10:01:02.0000000+00:00</time></trkpt><trkpt lat="29.49659502" lon="35.38870423"><ele>1014.8</ele><time>2015-11-27T10:01:15.0000000+00:00</time></trkpt><trkpt lat="29.49659083" lon="35.38871538"><ele>1014.3</ele><time>2015-11-27T10:01:39.0000000+00:00</time></trkpt><trkpt lat="29.49659519" lon="35.38870825"><ele>1014.3</ele><time>2015-11-27T10:02:18.0000000+00:00</time></trkpt><trkpt lat="29.49659469" lon="35.38870817"><ele>1013.9</ele><time>2015-11-27T10:02:58.0000000+00:00</time></trkpt><trkpt lat="29.49659301" lon="35.38870566"><ele>1013.9</ele><time>2015-11-27T10:03:28.0000000+00:00</time></trkpt><trkpt lat="29.49659594" lon="35.38870708"><ele>1013.9</ele><time>2015-11-27T10:04:07.0000000+00:00</time></trkpt><trkpt lat="29.49659443" lon="35.38870666"><ele>1013.9</ele><time>2015-11-27T10:04:42.0000000+00:00</time></trkpt><trkpt lat="29.49659586" lon="35.38870608"><ele>1013.9</ele><time>2015-11-27T10:05:12.0000000+00:00</time></trkpt><trkpt lat="29.49659863" lon="35.38871152"><ele>1013.4</ele><time>2015-11-27T10:05:52.0000000+00:00</time></trkpt><trkpt lat="29.49660852" lon="35.38872619"><ele>1013.4</ele><time>2015-11-27T10:06:35.0000000+00:00</time></trkpt><trkpt lat="29.49660474" lon="35.38872477"><ele>1013.4</ele><time>2015-11-27T10:07:12.0000000+00:00</time></trkpt><trkpt lat="29.49660273" lon="35.3887215"><ele>1013.4</ele><time>2015-11-27T10:07:43.0000000+00:00</time></trkpt><trkpt lat="29.49660298" lon="35.38871462"><ele>1013.4</ele><time>2015-11-27T10:08:26.0000000+00:00</time></trkpt><trkpt lat="29.49659762" lon="35.38872577"><ele>1013.4</ele><time>2015-11-27T10:09:05.0000000+00:00</time></trkpt><trkpt lat="29.49659879" lon="35.38872468"><ele>1012.9</ele><time>2015-11-27T10:09:56.0000000+00:00</time></trkpt><trkpt lat="29.49659837" lon="35.38871085"><ele>1013.4</ele><time>2015-11-27T10:10:36.0000000+00:00</time></trkpt><trkpt lat="29.49659762" lon="35.38870842"><ele>1013.4</ele><time>2015-11-27T10:11:17.0000000+00:00</time></trkpt><trkpt lat="29.49658907" lon="35.38869074"><ele>1013.4</ele><time>2015-11-27T10:11:51.0000000+00:00</time></trkpt><trkpt lat="29.49657801" lon="35.38868059"><ele>1013.9</ele><time>2015-11-27T10:12:06.0000000+00:00</time></trkpt><trkpt lat="29.49659267" lon="35.38867774"><ele>1013.9</ele><time>2015-11-27T10:12:27.0000000+00:00</time></trkpt><trkpt lat="29.4965687" lon="35.38866291"><ele>1013.9</ele><time>2015-11-27T10:12:51.0000000+00:00</time></trkpt><trkpt lat="29.49630367" lon="35.38853693"><ele>1014.3</ele><time>2015-11-27T10:13:04.0000000+00:00</time></trkpt><trkpt lat="29.49600938" lon="35.38838823"><ele>1014.3</ele><time>2015-11-27T10:13:18.0000000+00:00</time></trkpt><trkpt lat="29.49570428" lon="35.38825035"><ele>1014.8</ele><time>2015-11-27T10:13:32.0000000+00:00</time></trkpt><trkpt lat="29.49534964" lon="35.38812898"><ele>1015.3</ele><time>2015-11-27T10:13:46.0000000+00:00</time></trkpt><trkpt lat="29.49499886" lon="35.38803644"><ele>1015.8</ele><time>2015-11-27T10:14:00.0000000+00:00</time></trkpt><trkpt lat="29.49464774" lon="35.38795271"><ele>1015.8</ele><time>2015-11-27T10:14:14.0000000+00:00</time></trkpt><trkpt lat="29.49436468" lon="35.38790326"><ele>1015.3</ele><time>2015-11-27T10:14:26.0000000+00:00</time></trkpt><trkpt lat="29.49403184" lon="35.38788616"><ele>1016.3</ele><time>2015-11-27T10:14:38.0000000+00:00</time></trkpt><trkpt lat="29.49372347" lon="35.38785196"><ele>1018.7</ele><time>2015-11-27T10:14:52.0000000+00:00</time></trkpt><trkpt lat="29.49357678" lon="35.38783779"><ele>1019.6</ele><time>2015-11-27T10:15:04.0000000+00:00</time></trkpt><trkpt lat="29.49354124" lon="35.38784442"><ele>1019.6</ele><time>2015-11-27T10:15:17.0000000+00:00</time></trkpt><trkpt lat="29.49341627" lon="35.38783302"><ele>1019.6</ele><time>2015-11-27T10:15:34.0000000+00:00</time></trkpt><trkpt lat="29.49318199" lon="35.3877647"><ele>1018.2</ele><time>2015-11-27T10:15:47.0000000+00:00</time></trkpt><trkpt lat="29.49300564" lon="35.38766337"><ele>1017.2</ele><time>2015-11-27T10:15:51.0000000+00:00</time></trkpt><trkpt lat="29.49258043" lon="35.38725123"><ele>1014.3</ele><time>2015-11-27T10:16:00.0000000+00:00</time></trkpt><trkpt lat="29.49233542" lon="35.38708652"><ele>1013.4</ele><time>2015-11-27T10:16:04.0000000+00:00</time></trkpt><trkpt lat="29.49174223" lon="35.38678327"><ele>1011.0</ele><time>2015-11-27T10:16:15.0000000+00:00</time></trkpt><trkpt lat="29.49147921" lon="35.38657087"><ele>1010.0</ele><time>2015-11-27T10:16:21.0000000+00:00</time></trkpt><trkpt lat="29.49096607" lon="35.38630776"><ele>1008.1</ele><time>2015-11-27T10:16:35.0000000+00:00</time></trkpt><trkpt lat="29.49060682" lon="35.38606402"><ele>1007.1</ele><time>2015-11-27T10:16:49.0000000+00:00</time></trkpt><trkpt lat="29.49056625" lon="35.38606904"><ele>1007.6</ele><time>2015-11-27T10:16:57.0000000+00:00</time></trkpt><trkpt lat="29.49053273" lon="35.38609729"><ele>1007.6</ele><time>2015-11-27T10:17:04.0000000+00:00</time></trkpt><trkpt lat="29.49050515" lon="35.38610433"><ele>1008.1</ele><time>2015-11-27T10:17:08.0000000+00:00</time></trkpt><trkpt lat="29.49023592" lon="35.38595564"><ele>1007.1</ele><time>2015-11-27T10:17:23.0000000+00:00</time></trkpt><trkpt lat="29.48972723" lon="35.38573704"><ele>1005.7</ele><time>2015-11-27T10:17:38.0000000+00:00</time></trkpt><trkpt lat="29.48923563" lon="35.38539589"><ele>1004.7</ele><time>2015-11-27T10:17:54.0000000+00:00</time></trkpt><trkpt lat="29.48882869" lon="35.38502256"><ele>1003.3</ele><time>2015-11-27T10:18:08.0000000+00:00</time></trkpt><trkpt lat="29.48882827" lon="35.38501494"><ele>1002.8</ele><time>2015-11-27T10:18:12.0000000+00:00</time></trkpt><trkpt lat="29.48882449" lon="35.38499407"><ele>1002.8</ele><time>2015-11-27T10:18:14.0000000+00:00</time></trkpt><trkpt lat="29.48875476" lon="35.3849053"><ele>1002.8</ele><time>2015-11-27T10:18:29.0000000+00:00</time></trkpt><trkpt lat="29.48866574" lon="35.38481042"><ele>1002.3</ele><time>2015-11-27T10:18:47.0000000+00:00</time></trkpt><trkpt lat="29.48852233" lon="35.38459777"><ele>1001.8</ele><time>2015-11-27T10:19:08.0000000+00:00</time></trkpt><trkpt lat="29.48839517" lon="35.38443935"><ele>1001.4</ele><time>2015-11-27T10:19:25.0000000+00:00</time></trkpt><trkpt lat="29.48818437" lon="35.38420357"><ele>1001.8</ele><time>2015-11-27T10:19:38.0000000+00:00</time></trkpt><trkpt lat="29.48793744" lon="35.38385991"><ele>1001.8</ele><time>2015-11-27T10:19:50.0000000+00:00</time></trkpt><trkpt lat="29.48770476" lon="35.38348499"><ele>1000.9</ele><time>2015-11-27T10:20:02.0000000+00:00</time></trkpt><trkpt lat="29.48761515" lon="35.38332816"><ele>1000.4</ele><time>2015-11-27T10:20:07.0000000+00:00</time></trkpt><trkpt lat="29.48741692" lon="35.38305047"><ele>999.4</ele><time>2015-11-27T10:20:15.0000000+00:00</time></trkpt><trkpt lat="29.48691141" lon="35.38253951"><ele>997.5</ele><time>2015-11-27T10:20:30.0000000+00:00</time></trkpt><trkpt lat="29.48659642" lon="35.38222854"><ele>996.5</ele><time>2015-11-27T10:20:41.0000000+00:00</time></trkpt><trkpt lat="29.48636189" lon="35.38195336"><ele>995.6</ele><time>2015-11-27T10:20:53.0000000+00:00</time></trkpt><trkpt lat="29.48638402" lon="35.3819449"><ele>995.6</ele><time>2015-11-27T10:21:22.0000000+00:00</time></trkpt><trkpt lat="29.48637438" lon="35.38196309"><ele>995.6</ele><time>2015-11-27T10:21:54.0000000+00:00</time></trkpt><trkpt lat="29.48637329" lon="35.38197708"><ele>995.1</ele><time>2015-11-27T10:22:13.0000000+00:00</time></trkpt><trkpt lat="29.48637262" lon="35.38196786"><ele>995.1</ele><time>2015-11-27T10:22:48.0000000+00:00</time></trkpt><trkpt lat="29.48637597" lon="35.38197155"><ele>994.6</ele><time>2015-11-27T10:23:22.0000000+00:00</time></trkpt><trkpt lat="29.4863722" lon="35.38197272"><ele>995.1</ele><time>2015-11-27T10:24:03.0000000+00:00</time></trkpt><trkpt lat="29.48636533" lon="35.38196007"><ele>995.6</ele><time>2015-11-27T10:24:30.0000000+00:00</time></trkpt><trkpt lat="29.4863629" lon="35.38195755"><ele>995.6</ele><time>2015-11-27T10:24:57.0000000+00:00</time></trkpt><trkpt lat="29.48635217" lon="35.38194465"><ele>995.1</ele><time>2015-11-27T10:25:18.0000000+00:00</time></trkpt><trkpt lat="29.48636172" lon="35.38195663"><ele>995.1</ele><time>2015-11-27T10:25:58.0000000+00:00</time></trkpt><trkpt lat="29.48636348" lon="35.38195001"><ele>995.1</ele><time>2015-11-27T10:26:35.0000000+00:00</time></trkpt><trkpt lat="29.48635745" lon="35.38192243"><ele>995.1</ele><time>2015-11-27T10:27:00.0000000+00:00</time></trkpt><trkpt lat="29.48632719" lon="35.38186963"><ele>995.1</ele><time>2015-11-27T10:27:12.0000000+00:00</time></trkpt><trkpt lat="29.4861992" lon="35.38158414"><ele>994.6</ele><time>2015-11-27T10:27:25.0000000+00:00</time></trkpt><trkpt lat="29.4860531" lon="35.38138398"><ele>994.1</ele><time>2015-11-27T10:27:36.0000000+00:00</time></trkpt><trkpt lat="29.4860692" lon="35.38137216"><ele>993.7</ele><time>2015-11-27T10:27:53.0000000+00:00</time></trkpt><trkpt lat="29.48610976" lon="35.38126697"><ele>993.2</ele><time>2015-11-27T10:28:08.0000000+00:00</time></trkpt><trkpt lat="29.48612862" lon="35.3812181"><ele>993.2</ele><time>2015-11-27T10:28:14.0000000+00:00</time></trkpt><trkpt lat="29.48613382" lon="35.38105164"><ele>992.7</ele><time>2015-11-27T10:28:23.0000000+00:00</time></trkpt><trkpt lat="29.48609476" lon="35.38051159"><ele>990.8</ele><time>2015-11-27T10:28:38.0000000+00:00</time></trkpt><trkpt lat="29.48590927" lon="35.38013407"><ele>988.4</ele><time>2015-11-27T10:28:49.0000000+00:00</time></trkpt><trkpt lat="29.48580047" lon="35.37982218"><ele>986.0</ele><time>2015-11-27T10:29:00.0000000+00:00</time></trkpt><trkpt lat="29.48580902" lon="35.37980751"><ele>986.0</ele><time>2015-11-27T10:29:03.0000000+00:00</time></trkpt><trkpt lat="29.48587406" lon="35.37970961"><ele>986.9</ele><time>2015-11-27T10:29:16.0000000+00:00</time></trkpt><trkpt lat="29.48598169" lon="35.37945044"><ele>986.9</ele><time>2015-11-27T10:29:28.0000000+00:00</time></trkpt><trkpt lat="29.48615201" lon="35.37927115"><ele>986.9</ele><time>2015-11-27T10:29:40.0000000+00:00</time></trkpt><trkpt lat="29.48617313" lon="35.37925933"><ele>986.9</ele><time>2015-11-27T10:29:41.0000000+00:00</time></trkpt><trkpt lat="29.48621781" lon="35.37925188"><ele>986.9</ele><time>2015-11-27T10:29:46.0000000+00:00</time></trkpt><trkpt lat="29.48625108" lon="35.37920896"><ele>986.9</ele><time>2015-11-27T10:29:50.0000000+00:00</time></trkpt><trkpt lat="29.48629743" lon="35.37914501"><ele>986.5</ele><time>2015-11-27T10:29:56.0000000+00:00</time></trkpt><trkpt lat="29.48633683" lon="35.37906127"><ele>986.5</ele><time>2015-11-27T10:30:02.0000000+00:00</time></trkpt><trkpt lat="29.48644814" lon="35.37886597"><ele>985.5</ele><time>2015-11-27T10:30:13.0000000+00:00</time></trkpt><trkpt lat="29.48649961" lon="35.37885575"><ele>985.5</ele><time>2015-11-27T10:30:25.0000000+00:00</time></trkpt><trkpt lat="29.48653883" lon="35.3788332"><ele>985.0</ele><time>2015-11-27T10:30:36.0000000+00:00</time></trkpt><trkpt lat="29.48660648" lon="35.37876782"><ele>985.0</ele><time>2015-11-27T10:30:47.0000000+00:00</time></trkpt><trkpt lat="29.48673572" lon="35.37863916"><ele>984.5</ele><time>2015-11-27T10:31:06.0000000+00:00</time></trkpt><trkpt lat="29.48678769" lon="35.37859004"><ele>984.1</ele><time>2015-11-27T10:31:15.0000000+00:00</time></trkpt><trkpt lat="29.48686187" lon="35.37854034"><ele>984.5</ele><time>2015-11-27T10:31:24.0000000+00:00</time></trkpt><trkpt lat="29.48696128" lon="35.37841922"><ele>984.5</ele><time>2015-11-27T10:31:40.0000000+00:00</time></trkpt><trkpt lat="29.48704854" lon="35.37833741"><ele>984.5</ele><time>2015-11-27T10:31:55.0000000+00:00</time></trkpt><trkpt lat="29.48706438" lon="35.37831277"><ele>984.5</ele><time>2015-11-27T10:31:59.0000000+00:00</time></trkpt><trkpt lat="29.48710411" lon="35.3782634"><ele>984.5</ele><time>2015-11-27T10:32:03.0000000+00:00</time></trkpt><trkpt lat="29.48718516" lon="35.37821352"><ele>984.5</ele><time>2015-11-27T10:32:14.0000000+00:00</time></trkpt><trkpt lat="29.48722238" lon="35.37817514"><ele>984.5</ele><time>2015-11-27T10:32:27.0000000+00:00</time></trkpt><trkpt lat="29.48728868" lon="35.378051"><ele>984.1</ele><time>2015-11-27T10:32:47.0000000+00:00</time></trkpt><trkpt lat="29.48736009" lon="35.37796416"><ele>983.6</ele><time>2015-11-27T10:33:07.0000000+00:00</time></trkpt><trkpt lat="29.48748473" lon="35.37786216"><ele>983.6</ele><time>2015-11-27T10:33:24.0000000+00:00</time></trkpt><trkpt lat="29.48749454" lon="35.37784967"><ele>983.6</ele><time>2015-11-27T10:33:47.0000000+00:00</time></trkpt><trkpt lat="29.48751901" lon="35.37781681"><ele>983.6</ele><time>2015-11-27T10:34:26.0000000+00:00</time></trkpt><trkpt lat="29.48764063" lon="35.37767641"><ele>983.6</ele><time>2015-11-27T10:34:43.0000000+00:00</time></trkpt><trkpt lat="29.48773208" lon="35.37755789"><ele>984.1</ele><time>2015-11-27T10:35:00.0000000+00:00</time></trkpt><trkpt lat="29.48781263" lon="35.37740006"><ele>984.5</ele><time>2015-11-27T10:35:17.0000000+00:00</time></trkpt><trkpt lat="29.48781741" lon="35.37738925"><ele>984.5</ele><time>2015-11-27T10:35:18.0000000+00:00</time></trkpt><trkpt lat="29.48784884" lon="35.37717786"><ele>983.1</ele><time>2015-11-27T10:35:36.0000000+00:00</time></trkpt><trkpt lat="29.48783216" lon="35.37710829"><ele>982.6</ele><time>2015-11-27T10:35:42.0000000+00:00</time></trkpt><trkpt lat="29.48780634" lon="35.37691944"><ele>982.1</ele><time>2015-11-27T10:35:59.0000000+00:00</time></trkpt><trkpt lat="29.48782219" lon="35.37682163"><ele>981.6</ele><time>2015-11-27T10:36:15.0000000+00:00</time></trkpt><trkpt lat="29.48781489" lon="35.3766016"><ele>982.1</ele><time>2015-11-27T10:36:35.0000000+00:00</time></trkpt><trkpt lat="29.48785052" lon="35.3764141"><ele>982.6</ele><time>2015-11-27T10:36:52.0000000+00:00</time></trkpt><trkpt lat="29.48793325" lon="35.37635559"><ele>982.6</ele><time>2015-11-27T10:37:04.0000000+00:00</time></trkpt><trkpt lat="29.48797935" lon="35.37632667"><ele>982.6</ele><time>2015-11-27T10:37:09.0000000+00:00</time></trkpt><trkpt lat="29.48801992" lon="35.37627739"><ele>982.6</ele><time>2015-11-27T10:37:12.0000000+00:00</time></trkpt><trkpt lat="29.48807297" lon="35.37613615"><ele>982.6</ele><time>2015-11-27T10:37:18.0000000+00:00</time></trkpt><trkpt lat="29.48824539" lon="35.37590984"><ele>983.1</ele><time>2015-11-27T10:37:29.0000000+00:00</time></trkpt><trkpt lat="29.488307" lon="35.37582309"><ele>983.1</ele><time>2015-11-27T10:37:34.0000000+00:00</time></trkpt><trkpt lat="29.48844085" lon="35.3757365"><ele>984.1</ele><time>2015-11-27T10:37:47.0000000+00:00</time></trkpt><trkpt lat="29.48847304" lon="35.375707"><ele>984.1</ele><time>2015-11-27T10:37:59.0000000+00:00</time></trkpt><trkpt lat="29.48853356" lon="35.37566015"><ele>984.1</ele><time>2015-11-27T10:38:09.0000000+00:00</time></trkpt><trkpt lat="29.48856248" lon="35.37561706"><ele>984.1</ele><time>2015-11-27T10:38:13.0000000+00:00</time></trkpt><trkpt lat="29.48858393" lon="35.37557054"><ele>984.1</ele><time>2015-11-27T10:38:17.0000000+00:00</time></trkpt><trkpt lat="29.48862132" lon="35.37553702"><ele>984.1</ele><time>2015-11-27T10:38:23.0000000+00:00</time></trkpt><trkpt lat="29.48865836" lon="35.37540835"><ele>983.6</ele><time>2015-11-27T10:38:37.0000000+00:00</time></trkpt><trkpt lat="29.48866909" lon="35.37528858"><ele>984.1</ele><time>2015-11-27T10:38:51.0000000+00:00</time></trkpt><trkpt lat="29.4886152" lon="35.3752444"><ele>984.1</ele><time>2015-11-27T10:39:01.0000000+00:00</time></trkpt><trkpt lat="29.48846994" lon="35.37515857"><ele>983.6</ele><time>2015-11-27T10:39:13.0000000+00:00</time></trkpt><trkpt lat="29.4881951" lon="35.37494483"><ele>983.6</ele><time>2015-11-27T10:39:27.0000000+00:00</time></trkpt><trkpt lat="29.48817984" lon="35.37491273"><ele>983.1</ele><time>2015-11-27T10:39:29.0000000+00:00</time></trkpt><trkpt lat="29.4880366" lon="35.37472305"><ele>982.6</ele><time>2015-11-27T10:39:41.0000000+00:00</time></trkpt><trkpt lat="29.48804573" lon="35.37472984"><ele>982.1</ele><time>2015-11-27T10:39:56.0000000+00:00</time></trkpt><trkpt lat="29.48797641" lon="35.37466706"><ele>982.6</ele><time>2015-11-27T10:40:09.0000000+00:00</time></trkpt><trkpt lat="29.48794314" lon="35.37466471"><ele>982.1</ele><time>2015-11-27T10:40:12.0000000+00:00</time></trkpt><trkpt lat="29.48785529" lon="35.3745819"><ele>982.1</ele><time>2015-11-27T10:40:20.0000000+00:00</time></trkpt><trkpt lat="29.4875248" lon="35.37424402"><ele>981.2</ele><time>2015-11-27T10:40:34.0000000+00:00</time></trkpt><trkpt lat="29.48746059" lon="35.37419868"><ele>980.7</ele><time>2015-11-27T10:40:44.0000000+00:00</time></trkpt><trkpt lat="29.4874388" lon="35.37417563"><ele>981.2</ele><time>2015-11-27T10:40:48.0000000+00:00</time></trkpt><trkpt lat="29.48723554" lon="35.37397354"><ele>980.2</ele><time>2015-11-27T10:40:59.0000000+00:00</time></trkpt><trkpt lat="29.48722783" lon="35.37393322"><ele>980.2</ele><time>2015-11-27T10:41:07.0000000+00:00</time></trkpt><trkpt lat="29.48724576" lon="35.37386625"><ele>980.2</ele><time>2015-11-27T10:41:14.0000000+00:00</time></trkpt><trkpt lat="29.48719514" lon="35.37365821"><ele>980.2</ele><time>2015-11-27T10:41:31.0000000+00:00</time></trkpt><trkpt lat="29.48707553" lon="35.37340005"><ele>979.7</ele><time>2015-11-27T10:41:41.0000000+00:00</time></trkpt><trkpt lat="29.48702456" lon="35.37305413"><ele>979.2</ele><time>2015-11-27T10:41:49.0000000+00:00</time></trkpt><trkpt lat="29.48706656" lon="35.37235659"><ele>979.2</ele><time>2015-11-27T10:42:05.0000000+00:00</time></trkpt><trkpt lat="29.48699045" lon="35.3717033"><ele>978.3</ele><time>2015-11-27T10:42:21.0000000+00:00</time></trkpt><trkpt lat="29.48666548" lon="35.37121749"><ele>976.8</ele><time>2015-11-27T10:42:36.0000000+00:00</time></trkpt><trkpt lat="29.48629282" lon="35.37097223"><ele>975.9</ele><time>2015-11-27T10:42:51.0000000+00:00</time></trkpt><trkpt lat="29.48603022" lon="35.37081474"><ele>974.9</ele><time>2015-11-27T10:43:02.0000000+00:00</time></trkpt><trkpt lat="29.48601765" lon="35.37077794"><ele>974.9</ele><time>2015-11-27T10:43:06.0000000+00:00</time></trkpt><trkpt lat="29.48605444" lon="35.37050771"><ele>974.4</ele><time>2015-11-27T10:43:19.0000000+00:00</time></trkpt><trkpt lat="29.48600021" lon="35.3702586"><ele>974.4</ele><time>2015-11-27T10:43:31.0000000+00:00</time></trkpt><trkpt lat="29.48600549" lon="35.36989868"><ele>974.0</ele><time>2015-11-27T10:43:44.0000000+00:00</time></trkpt><trkpt lat="29.48618478" lon="35.36946148"><ele>973.5</ele><time>2015-11-27T10:43:58.0000000+00:00</time></trkpt><trkpt lat="29.48620071" lon="35.36941898"><ele>974.0</ele><time>2015-11-27T10:44:06.0000000+00:00</time></trkpt><trkpt lat="29.4862168" lon="35.36939551"><ele>974.4</ele><time>2015-11-27T10:44:20.0000000+00:00</time></trkpt><trkpt lat="29.48622409" lon="35.36939526"><ele>974.4</ele><time>2015-11-27T10:44:33.0000000+00:00</time></trkpt><trkpt lat="29.48622258" lon="35.36940146"><ele>974.4</ele><time>2015-11-27T10:44:56.0000000+00:00</time></trkpt><trkpt lat="29.48628034" lon="35.3693137"><ele>974.9</ele><time>2015-11-27T10:45:10.0000000+00:00</time></trkpt><trkpt lat="29.48636021" lon="35.3690568"><ele>974.9</ele><time>2015-11-27T10:45:24.0000000+00:00</time></trkpt><trkpt lat="29.48638737" lon="35.36862044"><ele>974.9</ele><time>2015-11-27T10:45:39.0000000+00:00</time></trkpt><trkpt lat="29.48616358" lon="35.36829178"><ele>973.5</ele><time>2015-11-27T10:45:52.0000000+00:00</time></trkpt><trkpt lat="29.48603399" lon="35.36790781"><ele>972.5</ele><time>2015-11-27T10:46:03.0000000+00:00</time></trkpt><trkpt lat="29.48584481" lon="35.36754454"><ele>971.6</ele><time>2015-11-27T10:46:15.0000000+00:00</time></trkpt><trkpt lat="29.48565035" lon="35.36724069"><ele>970.6</ele><time>2015-11-27T10:46:26.0000000+00:00</time></trkpt><trkpt lat="29.48555849" lon="35.36674406"><ele>970.1</ele><time>2015-11-27T10:46:40.0000000+00:00</time></trkpt><trkpt lat="29.48547207" lon="35.36612313"><ele>968.2</ele><time>2015-11-27T10:46:57.0000000+00:00</time></trkpt><trkpt lat="29.48541272" lon="35.36557864"><ele>966.7</ele><time>2015-11-27T10:47:12.0000000+00:00</time></trkpt><trkpt lat="29.48537425" lon="35.36509308"><ele>966.3</ele><time>2015-11-27T10:47:26.0000000+00:00</time></trkpt><trkpt lat="29.48526948" lon="35.36459528"><ele>965.8</ele><time>2015-11-27T10:47:40.0000000+00:00</time></trkpt><trkpt lat="29.48521089" lon="35.36428926"><ele>964.8</ele><time>2015-11-27T10:47:52.0000000+00:00</time></trkpt><trkpt lat="29.48510678" lon="35.36396622"><ele>964.3</ele><time>2015-11-27T10:48:04.0000000+00:00</time></trkpt><trkpt lat="29.48494451" lon="35.36375432"><ele>963.4</ele><time>2015-11-27T10:48:14.0000000+00:00</time></trkpt><trkpt lat="29.48494585" lon="35.36375893"><ele>962.9</ele><time>2015-11-27T10:48:37.0000000+00:00</time></trkpt><trkpt lat="29.48495817" lon="35.36373194"><ele>963.4</ele><time>2015-11-27T10:49:11.0000000+00:00</time></trkpt><trkpt lat="29.48495993" lon="35.36372222"><ele>963.4</ele><time>2015-11-27T10:49:38.0000000+00:00</time></trkpt><trkpt lat="29.48495926" lon="35.36371266"><ele>962.9</ele><time>2015-11-27T10:49:46.0000000+00:00</time></trkpt><trkpt lat="29.48497997" lon="35.36338502"><ele>962.9</ele><time>2015-11-27T10:50:00.0000000+00:00</time></trkpt><trkpt lat="29.4850839" lon="35.36296374"><ele>962.4</ele><time>2015-11-27T10:50:12.0000000+00:00</time></trkpt><trkpt lat="29.48515632" lon="35.36261355"><ele>962.9</ele><time>2015-11-27T10:50:25.0000000+00:00</time></trkpt><trkpt lat="29.48523" lon="35.36229554"><ele>962.4</ele><time>2015-11-27T10:50:35.0000000+00:00</time></trkpt><trkpt lat="29.48520645" lon="35.36214315"><ele>962.4</ele><time>2015-11-27T10:50:43.0000000+00:00</time></trkpt><trkpt lat="29.48519823" lon="35.36212748"><ele>962.4</ele><time>2015-11-27T10:50:45.0000000+00:00</time></trkpt><trkpt lat="29.48519245" lon="35.36205632"><ele>962.4</ele><time>2015-11-27T10:50:49.0000000+00:00</time></trkpt><trkpt lat="29.48533704" lon="35.36156908"><ele>962.9</ele><time>2015-11-27T10:51:04.0000000+00:00</time></trkpt><trkpt lat="29.48541289" lon="35.36118384"><ele>962.9</ele><time>2015-11-27T10:51:16.0000000+00:00</time></trkpt><trkpt lat="29.48549797" lon="35.36066802"><ele>962.9</ele><time>2015-11-27T10:51:31.0000000+00:00</time></trkpt><trkpt lat="29.48567424" lon="35.36023116"><ele>963.4</ele><time>2015-11-27T10:51:45.0000000+00:00</time></trkpt><trkpt lat="29.48576787" lon="35.35989915"><ele>962.9</ele><time>2015-11-27T10:51:55.0000000+00:00</time></trkpt><trkpt lat="29.48582704" lon="35.3597834"><ele>962.9</ele><time>2015-11-27T10:52:02.0000000+00:00</time></trkpt><trkpt lat="29.48581262" lon="35.35968835"><ele>962.9</ele><time>2015-11-27T10:52:12.0000000+00:00</time></trkpt><trkpt lat="29.48579796" lon="35.35953378"><ele>962.9</ele><time>2015-11-27T10:52:28.0000000+00:00</time></trkpt><trkpt lat="29.48575739" lon="35.3591659"><ele>962.4</ele><time>2015-11-27T10:52:39.0000000+00:00</time></trkpt><trkpt lat="29.48572537" lon="35.35882451"><ele>961.9</ele><time>2015-11-27T10:52:52.0000000+00:00</time></trkpt><trkpt lat="29.48573518" lon="35.35838102"><ele>961.5</ele><time>2015-11-27T10:53:08.0000000+00:00</time></trkpt><trkpt lat="29.48575119" lon="35.35788733"><ele>960.5</ele><time>2015-11-27T10:53:24.0000000+00:00</time></trkpt><trkpt lat="29.48578052" lon="35.35733739"><ele>959.1</ele><time>2015-11-27T10:53:42.0000000+00:00</time></trkpt><trkpt lat="29.48581321" lon="35.35676776"><ele>958.1</ele><time>2015-11-27T10:54:01.0000000+00:00</time></trkpt><trkpt lat="29.48583936" lon="35.35617976"><ele>957.1</ele><time>2015-11-27T10:54:17.0000000+00:00</time></trkpt><trkpt lat="29.48587264" lon="35.35571189"><ele>955.2</ele><time>2015-11-27T10:54:30.0000000+00:00</time></trkpt><trkpt lat="29.48591053" lon="35.3551394"><ele>953.3</ele><time>2015-11-27T10:54:47.0000000+00:00</time></trkpt><trkpt lat="29.48592201" lon="35.3548887"><ele>952.3</ele><time>2015-11-27T10:54:58.0000000+00:00</time></trkpt><trkpt lat="29.48585462" lon="35.35486154"><ele>952.8</ele><time>2015-11-27T10:55:07.0000000+00:00</time></trkpt><trkpt lat="29.48580885" lon="35.35476515"><ele>952.8</ele><time>2015-11-27T10:55:15.0000000+00:00</time></trkpt><trkpt lat="29.48581506" lon="35.35430188"><ele>951.4</ele><time>2015-11-27T10:55:31.0000000+00:00</time></trkpt><trkpt lat="29.48580818" lon="35.35377265"><ele>949.9</ele><time>2015-11-27T10:55:46.0000000+00:00</time></trkpt><trkpt lat="29.48581397" lon="35.3533994"><ele>949.0</ele><time>2015-11-27T10:55:56.0000000+00:00</time></trkpt><trkpt lat="29.48577055" lon="35.35292088"><ele>948.0</ele><time>2015-11-27T10:56:08.0000000+00:00</time></trkpt><trkpt lat="29.48583324" lon="35.35258871"><ele>946.6</ele><time>2015-11-27T10:56:19.0000000+00:00</time></trkpt><trkpt lat="29.48584213" lon="35.35251394"><ele>946.6</ele><time>2015-11-27T10:56:30.0000000+00:00</time></trkpt><trkpt lat="29.48585529" lon="35.35245988"><ele>946.6</ele><time>2015-11-27T10:56:45.0000000+00:00</time></trkpt><trkpt lat="29.48587046" lon="35.35228604"><ele>946.1</ele><time>2015-11-27T10:57:03.0000000+00:00</time></trkpt><trkpt lat="29.48590675" lon="35.35207121"><ele>946.1</ele><time>2015-11-27T10:57:24.0000000+00:00</time></trkpt><trkpt lat="29.48594447" lon="35.35194037"><ele>945.6</ele><time>2015-11-27T10:57:45.0000000+00:00</time></trkpt><trkpt lat="29.48594933" lon="35.35188471"><ele>945.6</ele><time>2015-11-27T10:57:59.0000000+00:00</time></trkpt><trkpt lat="29.4859386" lon="35.35182377"><ele>945.6</ele><time>2015-11-27T10:58:04.0000000+00:00</time></trkpt><trkpt lat="29.48589728" lon="35.35169444"><ele>945.6</ele><time>2015-11-27T10:58:15.0000000+00:00</time></trkpt><trkpt lat="29.48590256" lon="35.35165563"><ele>945.6</ele><time>2015-11-27T10:58:19.0000000+00:00</time></trkpt><trkpt lat="29.48592142" lon="35.35147475"><ele>945.1</ele><time>2015-11-27T10:58:38.0000000+00:00</time></trkpt><trkpt lat="29.48592553" lon="35.35126545"><ele>944.6</ele><time>2015-11-27T10:58:48.0000000+00:00</time></trkpt><trkpt lat="29.48593374" lon="35.35114216"><ele>944.6</ele><time>2015-11-27T10:58:52.0000000+00:00</time></trkpt><trkpt lat="29.48592444" lon="35.35103797"><ele>944.2</ele><time>2015-11-27T10:59:05.0000000+00:00</time></trkpt><trkpt lat="29.48592637" lon="35.35102255"><ele>944.2</ele><time>2015-11-27T10:59:09.0000000+00:00</time></trkpt><trkpt lat="29.48596082" lon="35.35091979"><ele>943.7</ele><time>2015-11-27T10:59:19.0000000+00:00</time></trkpt><trkpt lat="29.48597783" lon="35.35087511"><ele>943.2</ele><time>2015-11-27T10:59:23.0000000+00:00</time></trkpt><trkpt lat="29.48600926" lon="35.35080118"><ele>943.7</ele><time>2015-11-27T10:59:31.0000000+00:00</time></trkpt><trkpt lat="29.48615938" lon="35.35073639"><ele>943.2</ele><time>2015-11-27T10:59:48.0000000+00:00</time></trkpt><trkpt lat="29.48617565" lon="35.35073186"><ele>943.2</ele><time>2015-11-27T10:59:50.0000000+00:00</time></trkpt><trkpt lat="29.48623591" lon="35.35071719"><ele>943.2</ele><time>2015-11-27T10:59:56.0000000+00:00</time></trkpt><trkpt lat="29.48626818" lon="35.35068057"><ele>943.2</ele><time>2015-11-27T11:00:02.0000000+00:00</time></trkpt><trkpt lat="29.48645384" lon="35.35029718"><ele>942.2</ele><time>2015-11-27T11:00:15.0000000+00:00</time></trkpt><trkpt lat="29.48655711" lon="35.34984346"><ele>941.3</ele><time>2015-11-27T11:00:27.0000000+00:00</time></trkpt><trkpt lat="29.48663958" lon="35.34940694"><ele>940.3</ele><time>2015-11-27T11:00:38.0000000+00:00</time></trkpt><trkpt lat="29.48671091" lon="35.34918398"><ele>939.8</ele><time>2015-11-27T11:00:49.0000000+00:00</time></trkpt><trkpt lat="29.48671561" lon="35.34909789"><ele>939.8</ele><time>2015-11-27T11:01:02.0000000+00:00</time></trkpt><trkpt lat="29.4867452" lon="35.34889824"><ele>939.4</ele><time>2015-11-27T11:01:18.0000000+00:00</time></trkpt><trkpt lat="29.48677638" lon="35.34880687"><ele>939.4</ele><time>2015-11-27T11:01:32.0000000+00:00</time></trkpt><trkpt lat="29.48683689" lon="35.3486679"><ele>939.4</ele><time>2015-11-27T11:01:48.0000000+00:00</time></trkpt><trkpt lat="29.486898" lon="35.34855885"><ele>938.9</ele><time>2015-11-27T11:02:06.0000000+00:00</time></trkpt><trkpt lat="29.48691744" lon="35.34855969"><ele>938.9</ele><time>2015-11-27T11:02:09.0000000+00:00</time></trkpt><trkpt lat="29.487042" lon="35.34851217"><ele>938.4</ele><time>2015-11-27T11:02:23.0000000+00:00</time></trkpt><trkpt lat="29.48712657" lon="35.34848543"><ele>938.4</ele><time>2015-11-27T11:02:35.0000000+00:00</time></trkpt><trkpt lat="29.48723738" lon="35.34845601"><ele>938.4</ele><time>2015-11-27T11:02:50.0000000+00:00</time></trkpt><trkpt lat="29.48727828" lon="35.34842516"><ele>938.4</ele><time>2015-11-27T11:02:56.0000000+00:00</time></trkpt><trkpt lat="29.48735607" lon="35.34835559"><ele>938.4</ele><time>2015-11-27T11:03:03.0000000+00:00</time></trkpt><trkpt lat="29.48755749" lon="35.34813741"><ele>937.4</ele><time>2015-11-27T11:03:16.0000000+00:00</time></trkpt><trkpt lat="29.48766427" lon="35.34790238"><ele>936.9</ele><time>2015-11-27T11:03:26.0000000+00:00</time></trkpt><trkpt lat="29.48769554" lon="35.34781312"><ele>936.5</ele><time>2015-11-27T11:03:29.0000000+00:00</time></trkpt><trkpt lat="29.48782403" lon="35.34764296"><ele>936.0</ele><time>2015-11-27T11:03:38.0000000+00:00</time></trkpt><trkpt lat="29.48786904" lon="35.34757457"><ele>936.0</ele><time>2015-11-27T11:03:48.0000000+00:00</time></trkpt><trkpt lat="29.4879335" lon="35.34745923"><ele>935.5</ele><time>2015-11-27T11:04:03.0000000+00:00</time></trkpt><trkpt lat="29.48796074" lon="35.34740777"><ele>935.5</ele><time>2015-11-27T11:04:13.0000000+00:00</time></trkpt><trkpt lat="29.48800776" lon="35.34734415"><ele>935.5</ele><time>2015-11-27T11:04:18.0000000+00:00</time></trkpt><trkpt lat="29.48830741" lon="35.34722387"><ele>935.5</ele><time>2015-11-27T11:04:32.0000000+00:00</time></trkpt><trkpt lat="29.48843817" lon="35.34716184"><ele>935.5</ele><time>2015-11-27T11:04:38.0000000+00:00</time></trkpt><trkpt lat="29.48861671" lon="35.34662892"><ele>934.5</ele><time>2015-11-27T11:04:52.0000000+00:00</time></trkpt><trkpt lat="29.4888105" lon="35.34598251"><ele>933.6</ele><time>2015-11-27T11:05:05.0000000+00:00</time></trkpt><trkpt lat="29.48905198" lon="35.34518061"><ele>931.7</ele><time>2015-11-27T11:05:21.0000000+00:00</time></trkpt><trkpt lat="29.48910864" lon="35.34497056"><ele>931.2</ele><time>2015-11-27T11:05:25.0000000+00:00</time></trkpt><trkpt lat="29.48931224" lon="35.34447695"><ele>930.2</ele><time>2015-11-27T11:05:35.0000000+00:00</time></trkpt><trkpt lat="29.48933537" lon="35.34422985"><ele>929.3</ele><time>2015-11-27T11:05:39.0000000+00:00</time></trkpt><trkpt lat="29.4895212" lon="35.34357154"><ele>927.8</ele><time>2015-11-27T11:05:52.0000000+00:00</time></trkpt><trkpt lat="29.48965925" lon="35.34329368"><ele>926.9</ele><time>2015-11-27T11:06:01.0000000+00:00</time></trkpt><trkpt lat="29.48964466" lon="35.34328127"><ele>926.9</ele><time>2015-11-27T11:06:06.0000000+00:00</time></trkpt><trkpt lat="29.48962262" lon="35.3432288"><ele>927.3</ele><time>2015-11-27T11:06:11.0000000+00:00</time></trkpt><trkpt lat="29.48956034" lon="35.34303853"><ele>927.3</ele><time>2015-11-27T11:06:27.0000000+00:00</time></trkpt><trkpt lat="29.48963192" lon="35.34280049"><ele>926.4</ele><time>2015-11-27T11:06:36.0000000+00:00</time></trkpt><trkpt lat="29.4896543" lon="35.34277358"><ele>926.4</ele><time>2015-11-27T11:06:42.0000000+00:00</time></trkpt><trkpt lat="29.48967836" lon="35.34266814"><ele>926.4</ele><time>2015-11-27T11:06:54.0000000+00:00</time></trkpt><trkpt lat="29.4897092" lon="35.34258071"><ele>925.9</ele><time>2015-11-27T11:07:02.0000000+00:00</time></trkpt><trkpt lat="29.48972697" lon="35.3425642"><ele>926.4</ele><time>2015-11-27T11:07:04.0000000+00:00</time></trkpt><trkpt lat="29.48980006" lon="35.34251181"><ele>926.4</ele><time>2015-11-27T11:07:13.0000000+00:00</time></trkpt><trkpt lat="29.48981993" lon="35.34243805"><ele>926.4</ele><time>2015-11-27T11:07:18.0000000+00:00</time></trkpt><trkpt lat="29.48982194" lon="35.34190287"><ele>926.9</ele><time>2015-11-27T11:07:33.0000000+00:00</time></trkpt><trkpt lat="29.48981775" lon="35.34130482"><ele>926.9</ele><time>2015-11-27T11:07:48.0000000+00:00</time></trkpt><trkpt lat="29.48981859" lon="35.3408895"><ele>926.4</ele><time>2015-11-27T11:08:00.0000000+00:00</time></trkpt><trkpt lat="29.489817" lon="35.3403673"><ele>926.9</ele><time>2015-11-27T11:08:15.0000000+00:00</time></trkpt><trkpt lat="29.48982554" lon="35.33997973"><ele>926.9</ele><time>2015-11-27T11:08:26.0000000+00:00</time></trkpt><trkpt lat="29.48980518" lon="35.33954554"><ele>926.9</ele><time>2015-11-27T11:08:38.0000000+00:00</time></trkpt><trkpt lat="29.48982026" lon="35.33933977"><ele>926.4</ele><time>2015-11-27T11:08:43.0000000+00:00</time></trkpt><trkpt lat="29.4899786" lon="35.33881556"><ele>926.9</ele><time>2015-11-27T11:08:58.0000000+00:00</time></trkpt><trkpt lat="29.49020508" lon="35.33815733"><ele>926.9</ele><time>2015-11-27T11:09:15.0000000+00:00</time></trkpt><trkpt lat="29.49045327" lon="35.33742098"><ele>926.9</ele><time>2015-11-27T11:09:32.0000000+00:00</time></trkpt><trkpt lat="29.49067019" lon="35.33675973"><ele>925.9</ele><time>2015-11-27T11:09:49.0000000+00:00</time></trkpt><trkpt lat="29.49084772" lon="35.33621508"><ele>925.4</ele><time>2015-11-27T11:10:02.0000000+00:00</time></trkpt><trkpt lat="29.49102575" lon="35.33558199"><ele>925.9</ele><time>2015-11-27T11:10:18.0000000+00:00</time></trkpt><trkpt lat="29.49119146" lon="35.3351463"><ele>924.9</ele><time>2015-11-27T11:10:29.0000000+00:00</time></trkpt><trkpt lat="29.4913373" lon="35.33465537"><ele>924.0</ele><time>2015-11-27T11:10:42.0000000+00:00</time></trkpt><trkpt lat="29.49155062" lon="35.33401064"><ele>922.5</ele><time>2015-11-27T11:10:57.0000000+00:00</time></trkpt><trkpt lat="29.49174416" lon="35.3334783"><ele>921.6</ele><time>2015-11-27T11:11:09.0000000+00:00</time></trkpt><trkpt lat="29.49189596" lon="35.33299165"><ele>921.6</ele><time>2015-11-27T11:11:20.0000000+00:00</time></trkpt><trkpt lat="29.49217466" lon="35.33217919"><ele>920.6</ele><time>2015-11-27T11:11:38.0000000+00:00</time></trkpt><trkpt lat="29.49236342" lon="35.33147754"><ele>918.2</ele><time>2015-11-27T11:11:52.0000000+00:00</time></trkpt><trkpt lat="29.49252552" lon="35.33096641"><ele>918.2</ele><time>2015-11-27T11:12:06.0000000+00:00</time></trkpt><trkpt lat="29.49254556" lon="35.33085066"><ele>918.7</ele><time>2015-11-27T11:12:15.0000000+00:00</time></trkpt><trkpt lat="29.49252309" lon="35.33074614"><ele>918.2</ele><time>2015-11-27T11:12:29.0000000+00:00</time></trkpt><trkpt lat="29.4924894" lon="35.33060331"><ele>918.7</ele><time>2015-11-27T11:12:46.0000000+00:00</time></trkpt><trkpt lat="29.49255897" lon="35.33038186"><ele>919.2</ele><time>2015-11-27T11:13:00.0000000+00:00</time></trkpt><trkpt lat="29.49271889" lon="35.32996897"><ele>919.6</ele><time>2015-11-27T11:13:14.0000000+00:00</time></trkpt><trkpt lat="29.49289265" lon="35.32960804"><ele>921.1</ele><time>2015-11-27T11:13:27.0000000+00:00</time></trkpt><trkpt lat="29.49295677" lon="35.32918501"><ele>920.6</ele><time>2015-11-27T11:13:40.0000000+00:00</time></trkpt><trkpt lat="29.49295761" lon="35.32919498"><ele>920.6</ele><time>2015-11-27T11:13:55.0000000+00:00</time></trkpt><trkpt lat="29.49299533" lon="35.32910462"><ele>920.6</ele><time>2015-11-27T11:14:20.0000000+00:00</time></trkpt><trkpt lat="29.4930416" lon="35.32900823"><ele>921.1</ele><time>2015-11-27T11:14:35.0000000+00:00</time></trkpt><trkpt lat="29.493139" lon="35.32891084"><ele>921.6</ele><time>2015-11-27T11:14:51.0000000+00:00</time></trkpt><trkpt lat="29.49327361" lon="35.32864077"><ele>921.6</ele><time>2015-11-27T11:15:07.0000000+00:00</time></trkpt><trkpt lat="29.49352297" lon="35.32783946"><ele>922.0</ele><time>2015-11-27T11:15:28.0000000+00:00</time></trkpt><trkpt lat="29.4935456" lon="35.32776888"><ele>922.0</ele><time>2015-11-27T11:15:30.0000000+00:00</time></trkpt><trkpt lat="29.49356044" lon="35.32771356"><ele>922.0</ele><time>2015-11-27T11:15:36.0000000+00:00</time></trkpt><trkpt lat="29.49368072" lon="35.32733202"><ele>922.0</ele><time>2015-11-27T11:15:49.0000000+00:00</time></trkpt><trkpt lat="29.49391323" lon="35.32662836"><ele>923.0</ele><time>2015-11-27T11:16:08.0000000+00:00</time></trkpt><trkpt lat="29.49415664" lon="35.32588832"><ele>923.0</ele><time>2015-11-27T11:16:28.0000000+00:00</time></trkpt><trkpt lat="29.49427089" lon="35.3255481"><ele>923.0</ele><time>2015-11-27T11:16:36.0000000+00:00</time></trkpt><trkpt lat="29.49445336" lon="35.3249529"><ele>922.5</ele><time>2015-11-27T11:16:51.0000000+00:00</time></trkpt><trkpt lat="29.4945671" lon="35.32460514"><ele>922.5</ele><time>2015-11-27T11:17:03.0000000+00:00</time></trkpt><trkpt lat="29.4947598" lon="35.32400935"><ele>923.0</ele><time>2015-11-27T11:17:19.0000000+00:00</time></trkpt><trkpt lat="29.49486592" lon="35.32366678"><ele>923.0</ele><time>2015-11-27T11:17:30.0000000+00:00</time></trkpt><trkpt lat="29.49499911" lon="35.32323092"><ele>923.0</ele><time>2015-11-27T11:17:42.0000000+00:00</time></trkpt><trkpt lat="29.49505267" lon="35.32312263"><ele>922.0</ele><time>2015-11-27T11:17:46.0000000+00:00</time></trkpt><trkpt lat="29.49517094" lon="35.32276916"><ele>922.5</ele><time>2015-11-27T11:17:57.0000000+00:00</time></trkpt><trkpt lat="29.49535542" lon="35.32221386"><ele>921.6</ele><time>2015-11-27T11:18:13.0000000+00:00</time></trkpt><trkpt lat="29.49544955" lon="35.32191429"><ele>922.5</ele><time>2015-11-27T11:18:23.0000000+00:00</time></trkpt><trkpt lat="29.4956047" lon="35.3214434"><ele>922.5</ele><time>2015-11-27T11:18:37.0000000+00:00</time></trkpt><trkpt lat="29.49569103" lon="35.32121507"><ele>921.6</ele><time>2015-11-27T11:18:43.0000000+00:00</time></trkpt><trkpt lat="29.49583394" lon="35.32078525"><ele>922.0</ele><time>2015-11-27T11:18:54.0000000+00:00</time></trkpt><trkpt lat="29.4959103" lon="35.32047856"><ele>920.6</ele><time>2015-11-27T11:19:04.0000000+00:00</time></trkpt><trkpt lat="29.4960792" lon="35.31993122"><ele>920.6</ele><time>2015-11-27T11:19:21.0000000+00:00</time></trkpt><trkpt lat="29.49621331" lon="35.31949268"><ele>919.6</ele><time>2015-11-27T11:19:35.0000000+00:00</time></trkpt><trkpt lat="29.49621867" lon="35.31946401"><ele>919.6</ele><time>2015-11-27T11:19:36.0000000+00:00</time></trkpt><trkpt lat="29.49623535" lon="35.31939754"><ele>920.1</ele><time>2015-11-27T11:19:40.0000000+00:00</time></trkpt><trkpt lat="29.49633057" lon="35.31900544"><ele>919.6</ele><time>2015-11-27T11:19:51.0000000+00:00</time></trkpt><trkpt lat="29.49640919" lon="35.31866111"><ele>920.1</ele><time>2015-11-27T11:20:03.0000000+00:00</time></trkpt><trkpt lat="29.49654959" lon="35.31801805"><ele>920.1</ele><time>2015-11-27T11:20:19.0000000+00:00</time></trkpt><trkpt lat="29.49670684" lon="35.31743551"><ele>918.7</ele><time>2015-11-27T11:20:32.0000000+00:00</time></trkpt><trkpt lat="29.4969168" lon="35.31679161"><ele>918.7</ele><time>2015-11-27T11:20:48.0000000+00:00</time></trkpt><trkpt lat="29.49716776" lon="35.31635215"><ele>920.1</ele><time>2015-11-27T11:21:02.0000000+00:00</time></trkpt><trkpt lat="29.49740496" lon="35.31593842"><ele>921.1</ele><time>2015-11-27T11:21:17.0000000+00:00</time></trkpt><trkpt lat="29.49777109" lon="35.31526719"><ele>921.1</ele><time>2015-11-27T11:21:38.0000000+00:00</time></trkpt><trkpt lat="29.49801584" lon="35.31473829"><ele>919.6</ele><time>2015-11-27T11:21:52.0000000+00:00</time></trkpt><trkpt lat="29.49804325" lon="35.3142731"><ele>919.2</ele><time>2015-11-27T11:22:05.0000000+00:00</time></trkpt><trkpt lat="29.49800611" lon="35.31398853"><ele>920.6</ele><time>2015-11-27T11:22:15.0000000+00:00</time></trkpt><trkpt lat="29.49806881" lon="35.3134945"><ele>920.1</ele><time>2015-11-27T11:22:29.0000000+00:00</time></trkpt><trkpt lat="29.49810762" lon="35.31316459"><ele>919.2</ele><time>2015-11-27T11:22:41.0000000+00:00</time></trkpt><trkpt lat="29.49809873" lon="35.31311598"><ele>919.6</ele><time>2015-11-27T11:22:43.0000000+00:00</time></trkpt><trkpt lat="29.49813436" lon="35.31263175"><ele>919.6</ele><time>2015-11-27T11:22:58.0000000+00:00</time></trkpt><trkpt lat="29.49818423" lon="35.31214485"><ele>919.6</ele><time>2015-11-27T11:23:13.0000000+00:00</time></trkpt><trkpt lat="29.49824592" lon="35.31165635"><ele>919.2</ele><time>2015-11-27T11:23:26.0000000+00:00</time></trkpt><trkpt lat="29.49841239" lon="35.31108135"><ele>920.1</ele><time>2015-11-27T11:23:43.0000000+00:00</time></trkpt><trkpt lat="29.49853091" lon="35.31068061"><ele>920.6</ele><time>2015-11-27T11:23:56.0000000+00:00</time></trkpt><trkpt lat="29.49864658" lon="35.3102502"><ele>920.1</ele><time>2015-11-27T11:24:09.0000000+00:00</time></trkpt><trkpt lat="29.49877918" lon="35.30978937"><ele>919.2</ele><time>2015-11-27T11:24:22.0000000+00:00</time></trkpt><trkpt lat="29.49898353" lon="35.3090733"><ele>918.7</ele><time>2015-11-27T11:24:40.0000000+00:00</time></trkpt><trkpt lat="29.49916525" lon="35.30848204"><ele>920.1</ele><time>2015-11-27T11:24:57.0000000+00:00</time></trkpt><trkpt lat="29.4993463" lon="35.30790327"><ele>920.6</ele><time>2015-11-27T11:25:13.0000000+00:00</time></trkpt><trkpt lat="29.49948301" lon="35.30742148"><ele>920.1</ele><time>2015-11-27T11:25:27.0000000+00:00</time></trkpt><trkpt lat="29.49964352" lon="35.30685461"><ele>919.6</ele><time>2015-11-27T11:25:41.0000000+00:00</time></trkpt><trkpt lat="29.49986262" lon="35.30623737"><ele>918.7</ele><time>2015-11-27T11:25:56.0000000+00:00</time></trkpt><trkpt lat="29.49995977" lon="35.30584702"><ele>918.7</ele><time>2015-11-27T11:26:06.0000000+00:00</time></trkpt><trkpt lat="29.50010729" lon="35.30535165"><ele>918.7</ele><time>2015-11-27T11:26:19.0000000+00:00</time></trkpt><trkpt lat="29.50022279" lon="35.30492837"><ele>920.6</ele><time>2015-11-27T11:26:31.0000000+00:00</time></trkpt><trkpt lat="29.50035749" lon="35.30446342"><ele>921.6</ele><time>2015-11-27T11:26:47.0000000+00:00</time></trkpt><trkpt lat="29.50051339" lon="35.30393603"><ele>921.6</ele><time>2015-11-27T11:27:02.0000000+00:00</time></trkpt><trkpt lat="29.50065798" lon="35.3034581"><ele>921.6</ele><time>2015-11-27T11:27:15.0000000+00:00</time></trkpt><trkpt lat="29.50079989" lon="35.30287991"><ele>921.1</ele><time>2015-11-27T11:27:31.0000000+00:00</time></trkpt><trkpt lat="29.50091807" lon="35.30240541"><ele>921.6</ele><time>2015-11-27T11:27:46.0000000+00:00</time></trkpt><trkpt lat="29.50100667" lon="35.30206846"><ele>922.5</ele><time>2015-11-27T11:27:58.0000000+00:00</time></trkpt><trkpt lat="29.50118981" lon="35.30144292"><ele>923.0</ele><time>2015-11-27T11:28:18.0000000+00:00</time></trkpt><trkpt lat="29.50128637" lon="35.30112323"><ele>923.0</ele><time>2015-11-27T11:28:33.0000000+00:00</time></trkpt><trkpt lat="29.5012935" lon="35.30113832"><ele>923.5</ele><time>2015-11-27T11:28:52.0000000+00:00</time></trkpt><trkpt lat="29.50136214" lon="35.30088938"><ele>924.0</ele><time>2015-11-27T11:29:11.0000000+00:00</time></trkpt><trkpt lat="29.50143582" lon="35.30062853"><ele>924.5</ele><time>2015-11-27T11:29:31.0000000+00:00</time></trkpt><trkpt lat="29.50146818" lon="35.30037691"><ele>924.9</ele><time>2015-11-27T11:29:49.0000000+00:00</time></trkpt><trkpt lat="29.5014903" lon="35.2999413"><ele>925.4</ele><time>2015-11-27T11:30:02.0000000+00:00</time></trkpt><trkpt lat="29.50155585" lon="35.29936052"><ele>924.9</ele><time>2015-11-27T11:30:19.0000000+00:00</time></trkpt><trkpt lat="29.50158259" lon="35.29879935"><ele>924.0</ele><time>2015-11-27T11:30:33.0000000+00:00</time></trkpt><trkpt lat="29.50159642" lon="35.29866331"><ele>924.0</ele><time>2015-11-27T11:30:36.0000000+00:00</time></trkpt><trkpt lat="29.50162341" lon="35.29827791"><ele>924.0</ele><time>2015-11-27T11:30:48.0000000+00:00</time></trkpt><trkpt lat="29.50166792" lon="35.29776167"><ele>923.5</ele><time>2015-11-27T11:31:02.0000000+00:00</time></trkpt><trkpt lat="29.50169876" lon="35.29728424"><ele>923.0</ele><time>2015-11-27T11:31:15.0000000+00:00</time></trkpt><trkpt lat="29.50183044" lon="35.29690211"><ele>921.6</ele><time>2015-11-27T11:31:25.0000000+00:00</time></trkpt><trkpt lat="29.50176079" lon="35.29665132"><ele>921.1</ele><time>2015-11-27T11:31:34.0000000+00:00</time></trkpt><trkpt lat="29.50174444" lon="35.29662316"><ele>921.1</ele><time>2015-11-27T11:31:43.0000000+00:00</time></trkpt><trkpt lat="29.50175727" lon="35.29660396"><ele>920.6</ele><time>2015-11-27T11:32:00.0000000+00:00</time></trkpt><trkpt lat="29.50177219" lon="35.29661947"><ele>920.1</ele><time>2015-11-27T11:32:42.0000000+00:00</time></trkpt><trkpt lat="29.50176951" lon="35.29662123"><ele>920.1</ele><time>2015-11-27T11:33:20.0000000+00:00</time></trkpt><trkpt lat="29.50177378" lon="35.29661888"><ele>920.1</ele><time>2015-11-27T11:33:58.0000000+00:00</time></trkpt><trkpt lat="29.50176104" lon="35.29662651"><ele>920.6</ele><time>2015-11-27T11:34:39.0000000+00:00</time></trkpt><trkpt lat="29.50173598" lon="35.29660933"><ele>919.6</ele><time>2015-11-27T11:35:05.0000000+00:00</time></trkpt><trkpt lat="29.50176925" lon="35.29660799"><ele>919.2</ele><time>2015-11-27T11:35:47.0000000+00:00</time></trkpt><trkpt lat="29.50176246" lon="35.29661209"><ele>919.2</ele><time>2015-11-27T11:36:33.0000000+00:00</time></trkpt><trkpt lat="29.50176615" lon="35.29661335"><ele>918.7</ele><time>2015-11-27T11:37:24.0000000+00:00</time></trkpt><trkpt lat="29.50176246" lon="35.29661335"><ele>918.2</ele><time>2015-11-27T11:38:17.0000000+00:00</time></trkpt><trkpt lat="29.50176154" lon="35.29661201"><ele>917.7</ele><time>2015-11-27T11:39:15.0000000+00:00</time></trkpt><trkpt lat="29.50176682" lon="35.29660136"><ele>917.2</ele><time>2015-11-27T11:40:03.0000000+00:00</time></trkpt><trkpt lat="29.50176649" lon="35.29661184"><ele>917.2</ele><time>2015-11-27T11:40:43.0000000+00:00</time></trkpt><trkpt lat="29.50175408" lon="35.29661687"><ele>916.8</ele><time>2015-11-27T11:41:17.0000000+00:00</time></trkpt><trkpt lat="29.5017706" lon="35.29660614"><ele>916.8</ele><time>2015-11-27T11:41:58.0000000+00:00</time></trkpt><trkpt lat="29.50173866" lon="35.29660036"><ele>916.8</ele><time>2015-11-27T11:42:35.0000000+00:00</time></trkpt><trkpt lat="29.50174998" lon="35.296596"><ele>916.3</ele><time>2015-11-27T11:43:07.0000000+00:00</time></trkpt><trkpt lat="29.50177118" lon="35.29660539"><ele>915.8</ele><time>2015-11-27T11:43:54.0000000+00:00</time></trkpt><trkpt lat="29.50176624" lon="35.29661025"><ele>915.8</ele><time>2015-11-27T11:44:33.0000000+00:00</time></trkpt><trkpt lat="29.50177009" lon="35.29660665"><ele>915.3</ele><time>2015-11-27T11:45:26.0000000+00:00</time></trkpt><trkpt lat="29.50178174" lon="35.29662006"><ele>914.8</ele><time>2015-11-27T11:46:03.0000000+00:00</time></trkpt><trkpt lat="29.50176355" lon="35.29662098"><ele>914.4</ele><time>2015-11-27T11:46:36.0000000+00:00</time></trkpt><trkpt lat="29.501768" lon="35.29661603"><ele>914.4</ele><time>2015-11-27T11:47:16.0000000+00:00</time></trkpt><trkpt lat="29.50174998" lon="35.29660715"><ele>913.9</ele><time>2015-11-27T11:47:59.0000000+00:00</time></trkpt><trkpt lat="29.50174897" lon="35.29662148"><ele>913.9</ele><time>2015-11-27T11:48:36.0000000+00:00</time></trkpt><trkpt lat="29.50175366" lon="35.29662039"><ele>913.9</ele><time>2015-11-27T11:49:10.0000000+00:00</time></trkpt><trkpt lat="29.50174939" lon="35.29660706"><ele>913.4</ele><time>2015-11-27T11:49:45.0000000+00:00</time></trkpt><trkpt lat="29.50174226" lon="35.29661486"><ele>912.9</ele><time>2015-11-27T11:50:07.0000000+00:00</time></trkpt><trkpt lat="29.50173229" lon="35.29662349"><ele>912.9</ele><time>2015-11-27T11:50:49.0000000+00:00</time></trkpt><trkpt lat="29.50172827" lon="35.29661536"><ele>913.4</ele><time>2015-11-27T11:51:25.0000000+00:00</time></trkpt><trkpt lat="29.50174595" lon="35.29661955"><ele>912.9</ele><time>2015-11-27T11:51:55.0000000+00:00</time></trkpt><trkpt lat="29.50172299" lon="35.29661561"><ele>912.4</ele><time>2015-11-27T11:52:41.0000000+00:00</time></trkpt><trkpt lat="29.50174042" lon="35.29660396"><ele>912.4</ele><time>2015-11-27T11:53:17.0000000+00:00</time></trkpt><trkpt lat="29.50174671" lon="35.29660405"><ele>912.4</ele><time>2015-11-27T11:53:43.0000000+00:00</time></trkpt><trkpt lat="29.50172257" lon="35.29661159"><ele>912.4</ele><time>2015-11-27T11:54:22.0000000+00:00</time></trkpt><trkpt lat="29.50172776" lon="35.29661008"><ele>912.9</ele><time>2015-11-27T11:54:45.0000000+00:00</time></trkpt><trkpt lat="29.50175811" lon="35.2966457"><ele>912.9</ele><time>2015-11-27T11:54:59.0000000+00:00</time></trkpt><trkpt lat="29.50179675" lon="35.29669181"><ele>912.9</ele><time>2015-11-27T11:55:17.0000000+00:00</time></trkpt><trkpt lat="29.50182013" lon="35.29679348"><ele>912.9</ele><time>2015-11-27T11:55:34.0000000+00:00</time></trkpt><trkpt lat="29.50187093" lon="35.29677805"><ele>913.4</ele><time>2015-11-27T11:55:52.0000000+00:00</time></trkpt><trkpt lat="29.5019669" lon="35.29666071"><ele>913.4</ele><time>2015-11-27T11:56:08.0000000+00:00</time></trkpt><trkpt lat="29.50197721" lon="35.29665627"><ele>913.9</ele><time>2015-11-27T11:56:31.0000000+00:00</time></trkpt><trkpt lat="29.50198048" lon="35.29666272"><ele>913.9</ele><time>2015-11-27T11:56:55.0000000+00:00</time></trkpt><trkpt lat="29.50197889" lon="35.29663783"><ele>913.9</ele><time>2015-11-27T11:57:20.0000000+00:00</time></trkpt><trkpt lat="29.50210688" lon="35.29637036"><ele>912.4</ele><time>2015-11-27T11:57:30.0000000+00:00</time></trkpt><trkpt lat="29.50212087" lon="35.296294"><ele>912.4</ele><time>2015-11-27T11:57:34.0000000+00:00</time></trkpt><trkpt lat="29.50212833" lon="35.29618043"><ele>912.0</ele><time>2015-11-27T11:57:40.0000000+00:00</time></trkpt><trkpt lat="29.50215784" lon="35.29611681"><ele>912.0</ele><time>2015-11-27T11:57:43.0000000+00:00</time></trkpt><trkpt lat="29.50213479" lon="35.29558774"><ele>911.5</ele><time>2015-11-27T11:57:57.0000000+00:00</time></trkpt><trkpt lat="29.50215281" lon="35.29510955"><ele>910.5</ele><time>2015-11-27T11:58:08.0000000+00:00</time></trkpt><trkpt lat="29.50217511" lon="35.29494887"><ele>910.0</ele><time>2015-11-27T11:58:11.0000000+00:00</time></trkpt><trkpt lat="29.50214317" lon="35.29429156"><ele>908.6</ele><time>2015-11-27T11:58:24.0000000+00:00</time></trkpt><trkpt lat="29.50216748" lon="35.29373274"><ele>907.1</ele><time>2015-11-27T11:58:37.0000000+00:00</time></trkpt><trkpt lat="29.50220109" lon="35.2930979"><ele>906.2</ele><time>2015-11-27T11:58:52.0000000+00:00</time></trkpt><trkpt lat="29.50224719" lon="35.29237378"><ele>904.3</ele><time>2015-11-27T11:59:08.0000000+00:00</time></trkpt><trkpt lat="29.50226421" lon="35.29196399"><ele>903.3</ele><time>2015-11-27T11:59:19.0000000+00:00</time></trkpt><trkpt lat="29.50223168" lon="35.29183147"><ele>903.3</ele><time>2015-11-27T11:59:25.0000000+00:00</time></trkpt><trkpt lat="29.50224023" lon="35.29168596"><ele>902.3</ele><time>2015-11-27T11:59:28.0000000+00:00</time></trkpt><trkpt lat="29.50228273" lon="35.29128112"><ele>901.4</ele><time>2015-11-27T11:59:37.0000000+00:00</time></trkpt><trkpt lat="29.50232321" lon="35.29081291"><ele>900.4</ele><time>2015-11-27T11:59:48.0000000+00:00</time></trkpt><trkpt lat="29.50235372" lon="35.29030999"><ele>899.0</ele><time>2015-11-27T12:00:01.0000000+00:00</time></trkpt><trkpt lat="29.50237845" lon="35.28979635"><ele>898.0</ele><time>2015-11-27T12:00:13.0000000+00:00</time></trkpt><trkpt lat="29.50237744" lon="35.28942109"><ele>897.1</ele><time>2015-11-27T12:00:22.0000000+00:00</time></trkpt><trkpt lat="29.5024124" lon="35.28919671"><ele>896.6</ele><time>2015-11-27T12:00:27.0000000+00:00</time></trkpt><trkpt lat="29.50243243" lon="35.28859807"><ele>895.1</ele><time>2015-11-27T12:00:41.0000000+00:00</time></trkpt><trkpt lat="29.50243779" lon="35.28811477"><ele>893.2</ele><time>2015-11-27T12:00:53.0000000+00:00</time></trkpt><trkpt lat="29.5025217" lon="35.28774354"><ele>893.2</ele><time>2015-11-27T12:01:04.0000000+00:00</time></trkpt><trkpt lat="29.50254508" lon="35.28724708"><ele>891.8</ele><time>2015-11-27T12:01:16.0000000+00:00</time></trkpt><trkpt lat="29.50256109" lon="35.28676864"><ele>890.3</ele><time>2015-11-27T12:01:28.0000000+00:00</time></trkpt><trkpt lat="29.50254056" lon="35.28656001"><ele>890.3</ele><time>2015-11-27T12:01:34.0000000+00:00</time></trkpt><trkpt lat="29.50252748" lon="35.28637008"><ele>889.8</ele><time>2015-11-27T12:01:38.0000000+00:00</time></trkpt><trkpt lat="29.50254232" lon="35.2862239"><ele>888.9</ele><time>2015-11-27T12:01:41.0000000+00:00</time></trkpt><trkpt lat="29.50256587" lon="35.2859431"><ele>888.4</ele><time>2015-11-27T12:01:47.0000000+00:00</time></trkpt><trkpt lat="29.50250091" lon="35.28515738"><ele>886.0</ele><time>2015-11-27T12:02:04.0000000+00:00</time></trkpt><trkpt lat="29.50254014" lon="35.28434719"><ele>883.6</ele><time>2015-11-27T12:02:21.0000000+00:00</time></trkpt><trkpt lat="29.50257853" lon="35.28372978"><ele>881.7</ele><time>2015-11-27T12:02:35.0000000+00:00</time></trkpt><trkpt lat="29.50263896" lon="35.2830381"><ele>879.3</ele><time>2015-11-27T12:02:50.0000000+00:00</time></trkpt><trkpt lat="29.50275178" lon="35.28233998"><ele>877.8</ele><time>2015-11-27T12:03:07.0000000+00:00</time></trkpt><trkpt lat="29.50280702" lon="35.28206941"><ele>876.9</ele><time>2015-11-27T12:03:13.0000000+00:00</time></trkpt><trkpt lat="29.50282102" lon="35.2815623"><ele>875.4</ele><time>2015-11-27T12:03:23.0000000+00:00</time></trkpt><trkpt lat="29.50286745" lon="35.2812334"><ele>874.5</ele><time>2015-11-27T12:03:33.0000000+00:00</time></trkpt><trkpt lat="29.50281758" lon="35.28079921"><ele>874.0</ele><time>2015-11-27T12:03:44.0000000+00:00</time></trkpt><trkpt lat="29.50285614" lon="35.28023268"><ele>872.5</ele><time>2015-11-27T12:03:56.0000000+00:00</time></trkpt><trkpt lat="29.50289595" lon="35.27980822"><ele>871.6</ele><time>2015-11-27T12:04:05.0000000+00:00</time></trkpt><trkpt lat="29.50293761" lon="35.27944721"><ele>870.6</ele><time>2015-11-27T12:04:13.0000000+00:00</time></trkpt><trkpt lat="29.50298404" lon="35.27872654"><ele>868.7</ele><time>2015-11-27T12:04:29.0000000+00:00</time></trkpt><trkpt lat="29.50297214" lon="35.27850651"><ele>867.7</ele><time>2015-11-27T12:04:34.0000000+00:00</time></trkpt><trkpt lat="29.50298245" lon="35.27836184"><ele>867.3</ele><time>2015-11-27T12:04:37.0000000+00:00</time></trkpt><trkpt lat="29.50297751" lon="35.27820426"><ele>867.3</ele><time>2015-11-27T12:04:40.0000000+00:00</time></trkpt><trkpt lat="29.50305479" lon="35.27751653"><ele>865.8</ele><time>2015-11-27T12:04:52.0000000+00:00</time></trkpt><trkpt lat="29.50313282" lon="35.27683734"><ele>863.9</ele><time>2015-11-27T12:05:04.0000000+00:00</time></trkpt><trkpt lat="29.50320658" lon="35.27627106"><ele>862.0</ele><time>2015-11-27T12:05:16.0000000+00:00</time></trkpt><trkpt lat="29.5032474" lon="35.27622119"><ele>862.4</ele><time>2015-11-27T12:05:29.0000000+00:00</time></trkpt><trkpt lat="29.50335712" lon="35.27612655"><ele>862.0</ele><time>2015-11-27T12:05:44.0000000+00:00</time></trkpt><trkpt lat="29.50335008" lon="35.27611407"><ele>862.0</ele><time>2015-11-27T12:06:00.0000000+00:00</time></trkpt><trkpt lat="29.50331219" lon="35.27585112"><ele>862.0</ele><time>2015-11-27T12:06:13.0000000+00:00</time></trkpt><trkpt lat="29.50343273" lon="35.27556337"><ele>861.0</ele><time>2015-11-27T12:06:23.0000000+00:00</time></trkpt><trkpt lat="29.50344027" lon="35.27523774"><ele>861.0</ele><time>2015-11-27T12:06:34.0000000+00:00</time></trkpt><trkpt lat="29.50348101" lon="35.27491788"><ele>860.5</ele><time>2015-11-27T12:06:45.0000000+00:00</time></trkpt><trkpt lat="29.50348922" lon="35.27464857"><ele>859.6</ele><time>2015-11-27T12:06:56.0000000+00:00</time></trkpt><trkpt lat="29.50348017" lon="35.27456366"><ele>859.1</ele><time>2015-11-27T12:07:05.0000000+00:00</time></trkpt><trkpt lat="29.5034681" lon="35.27455176"><ele>859.1</ele><time>2015-11-27T12:07:07.0000000+00:00</time></trkpt><trkpt lat="29.50343885" lon="35.27452972"><ele>859.1</ele><time>2015-11-27T12:07:11.0000000+00:00</time></trkpt><trkpt lat="29.50341923" lon="35.27448596"><ele>859.1</ele><time>2015-11-27T12:07:17.0000000+00:00</time></trkpt><trkpt lat="29.50343675" lon="35.27413719"><ele>859.1</ele><time>2015-11-27T12:07:30.0000000+00:00</time></trkpt><trkpt lat="29.50345242" lon="35.27385196"><ele>858.1</ele><time>2015-11-27T12:07:39.0000000+00:00</time></trkpt><trkpt lat="29.50353574" lon="35.27312935"><ele>857.2</ele><time>2015-11-27T12:07:56.0000000+00:00</time></trkpt><trkpt lat="29.50352325" lon="35.2729908"><ele>856.2</ele><time>2015-11-27T12:08:01.0000000+00:00</time></trkpt><trkpt lat="29.50353591" lon="35.27294663"><ele>855.7</ele><time>2015-11-27T12:08:08.0000000+00:00</time></trkpt><trkpt lat="29.50354412" lon="35.27282224"><ele>855.7</ele><time>2015-11-27T12:08:20.0000000+00:00</time></trkpt><trkpt lat="29.50353934" lon="35.27272426"><ele>855.2</ele><time>2015-11-27T12:08:35.0000000+00:00</time></trkpt><trkpt lat="29.50351487" lon="35.27258813"><ele>854.8</ele><time>2015-11-27T12:08:48.0000000+00:00</time></trkpt><trkpt lat="29.5035354" lon="35.27244732"><ele>854.8</ele><time>2015-11-27T12:09:00.0000000+00:00</time></trkpt><trkpt lat="29.50355452" lon="35.27229602"><ele>854.3</ele><time>2015-11-27T12:09:13.0000000+00:00</time></trkpt><trkpt lat="29.50358268" lon="35.27196771"><ele>854.3</ele><time>2015-11-27T12:09:23.0000000+00:00</time></trkpt><trkpt lat="29.50361134" lon="35.27147778"><ele>852.8</ele><time>2015-11-27T12:09:38.0000000+00:00</time></trkpt><trkpt lat="29.5036805" lon="35.2712565"><ele>852.4</ele><time>2015-11-27T12:09:49.0000000+00:00</time></trkpt><trkpt lat="29.50373037" lon="35.27112147"><ele>851.9</ele><time>2015-11-27T12:09:58.0000000+00:00</time></trkpt><trkpt lat="29.50375375" lon="35.2710612"><ele>851.9</ele><time>2015-11-27T12:10:11.0000000+00:00</time></trkpt><trkpt lat="29.50376784" lon="35.27100898"><ele>851.9</ele><time>2015-11-27T12:10:17.0000000+00:00</time></trkpt><trkpt lat="29.50378435" lon="35.27099323"><ele>851.9</ele><time>2015-11-27T12:10:20.0000000+00:00</time></trkpt><trkpt lat="29.50382994" lon="35.27095785"><ele>851.4</ele><time>2015-11-27T12:10:27.0000000+00:00</time></trkpt><trkpt lat="29.50385744" lon="35.27090203"><ele>851.4</ele><time>2015-11-27T12:10:33.0000000+00:00</time></trkpt><trkpt lat="29.50390639" lon="35.27071939"><ele>851.4</ele><time>2015-11-27T12:10:48.0000000+00:00</time></trkpt><trkpt lat="29.50396967" lon="35.27054245"><ele>850.9</ele><time>2015-11-27T12:11:05.0000000+00:00</time></trkpt><trkpt lat="29.50402508" lon="35.27037447"><ele>850.4</ele><time>2015-11-27T12:11:21.0000000+00:00</time></trkpt><trkpt lat="29.50399146" lon="35.27022067"><ele>850.4</ele><time>2015-11-27T12:11:35.0000000+00:00</time></trkpt><trkpt lat="29.5040545" lon="35.26984197"><ele>849.9</ele><time>2015-11-27T12:11:47.0000000+00:00</time></trkpt><trkpt lat="29.50404477" lon="35.2697667"><ele>849.5</ele><time>2015-11-27T12:11:55.0000000+00:00</time></trkpt><trkpt lat="29.50403882" lon="35.26970367"><ele>849.0</ele><time>2015-11-27T12:12:04.0000000+00:00</time></trkpt><trkpt lat="29.50405299" lon="35.26955263"><ele>849.0</ele><time>2015-11-27T12:12:18.0000000+00:00</time></trkpt><trkpt lat="29.50408844" lon="35.26932489"><ele>848.0</ele><time>2015-11-27T12:12:40.0000000+00:00</time></trkpt><trkpt lat="29.50410102" lon="35.26926111"><ele>848.0</ele><time>2015-11-27T12:12:57.0000000+00:00</time></trkpt><trkpt lat="29.50412767" lon="35.26906673"><ele>847.5</ele><time>2015-11-27T12:13:16.0000000+00:00</time></trkpt><trkpt lat="29.504127" lon="35.26891803"><ele>847.5</ele><time>2015-11-27T12:13:33.0000000+00:00</time></trkpt><trkpt lat="29.5041296" lon="35.26891585"><ele>847.5</ele><time>2015-11-27T12:13:54.0000000+00:00</time></trkpt><trkpt lat="29.50412733" lon="35.26891879"><ele>847.5</ele><time>2015-11-27T12:14:19.0000000+00:00</time></trkpt><trkpt lat="29.50413278" lon="35.26884134"><ele>847.1</ele><time>2015-11-27T12:14:36.0000000+00:00</time></trkpt><trkpt lat="29.5041306" lon="35.26884838"><ele>847.1</ele><time>2015-11-27T12:15:02.0000000+00:00</time></trkpt><trkpt lat="29.50413136" lon="35.2688338"><ele>847.1</ele><time>2015-11-27T12:15:18.0000000+00:00</time></trkpt><trkpt lat="29.50414544" lon="35.26876875"><ele>847.1</ele><time>2015-11-27T12:15:22.0000000+00:00</time></trkpt><trkpt lat="29.50421954" lon="35.26847295"><ele>846.6</ele><time>2015-11-27T12:15:33.0000000+00:00</time></trkpt><trkpt lat="29.50412365" lon="35.26815847"><ele>845.6</ele><time>2015-11-27T12:15:43.0000000+00:00</time></trkpt><trkpt lat="29.50413689" lon="35.26811915"><ele>846.1</ele><time>2015-11-27T12:15:54.0000000+00:00</time></trkpt><trkpt lat="29.50417411" lon="35.26808445"><ele>846.1</ele><time>2015-11-27T12:16:05.0000000+00:00</time></trkpt><trkpt lat="29.50418266" lon="35.26805654"><ele>846.1</ele><time>2015-11-27T12:16:13.0000000+00:00</time></trkpt><trkpt lat="29.50419229" lon="35.26798362"><ele>846.1</ele><time>2015-11-27T12:16:21.0000000+00:00</time></trkpt><trkpt lat="29.50417964" lon="35.26777759"><ele>845.6</ele><time>2015-11-27T12:16:32.0000000+00:00</time></trkpt><trkpt lat="29.5041156" lon="35.26742312"><ele>844.7</ele><time>2015-11-27T12:16:44.0000000+00:00</time></trkpt><trkpt lat="29.50411728" lon="35.26696019"><ele>844.2</ele><time>2015-11-27T12:16:57.0000000+00:00</time></trkpt><trkpt lat="29.50405768" lon="35.26659566"><ele>843.2</ele><time>2015-11-27T12:17:09.0000000+00:00</time></trkpt><trkpt lat="29.50407344" lon="35.26629173"><ele>842.3</ele><time>2015-11-27T12:17:19.0000000+00:00</time></trkpt><trkpt lat="29.50410596" lon="35.26600063"><ele>841.8</ele><time>2015-11-27T12:17:29.0000000+00:00</time></trkpt><trkpt lat="29.50412298" lon="35.26566703"><ele>841.3</ele><time>2015-11-27T12:17:42.0000000+00:00</time></trkpt><trkpt lat="29.50411342" lon="35.26561121"><ele>840.8</ele><time>2015-11-27T12:17:52.0000000+00:00</time></trkpt><trkpt lat="29.5040659" lon="35.26545086"><ele>840.3</ele><time>2015-11-27T12:18:05.0000000+00:00</time></trkpt><trkpt lat="29.50405332" lon="35.26542555"><ele>840.8</ele><time>2015-11-27T12:18:06.0000000+00:00</time></trkpt><trkpt lat="29.50404075" lon="35.26534332"><ele>840.3</ele><time>2015-11-27T12:18:15.0000000+00:00</time></trkpt><trkpt lat="29.50409087" lon="35.26495918"><ele>839.9</ele><time>2015-11-27T12:18:28.0000000+00:00</time></trkpt><trkpt lat="29.50412532" lon="35.26450396"><ele>838.9</ele><time>2015-11-27T12:18:40.0000000+00:00</time></trkpt><trkpt lat="29.50411946" lon="35.2639386"><ele>837.9</ele><time>2015-11-27T12:18:54.0000000+00:00</time></trkpt><trkpt lat="29.5039918" lon="35.26357667"><ele>837.5</ele><time>2015-11-27T12:19:07.0000000+00:00</time></trkpt><trkpt lat="29.50374101" lon="35.26323242"><ele>836.5</ele><time>2015-11-27T12:19:19.0000000+00:00</time></trkpt><trkpt lat="29.50357715" lon="35.26276563"><ele>835.5</ele><time>2015-11-27T12:19:31.0000000+00:00</time></trkpt><trkpt lat="29.50332175" lon="35.26201679"><ele>834.1</ele><time>2015-11-27T12:19:48.0000000+00:00</time></trkpt><trkpt lat="29.50319049" lon="35.261678"><ele>833.1</ele><time>2015-11-27T12:19:59.0000000+00:00</time></trkpt><trkpt lat="29.50319359" lon="35.2616754"><ele>833.1</ele><time>2015-11-27T12:20:00.0000000+00:00</time></trkpt><trkpt lat="29.50317758" lon="35.26159066"><ele>833.1</ele><time>2015-11-27T12:20:05.0000000+00:00</time></trkpt><trkpt lat="29.50313601" lon="35.26126745"><ele>832.6</ele><time>2015-11-27T12:20:19.0000000+00:00</time></trkpt><trkpt lat="29.50313416" lon="35.26108162"><ele>832.6</ele><time>2015-11-27T12:20:35.0000000+00:00</time></trkpt><trkpt lat="29.50304464" lon="35.26063068"><ele>831.7</ele><time>2015-11-27T12:20:48.0000000+00:00</time></trkpt><trkpt lat="29.50302922" lon="35.26060436"><ele>831.2</ele><time>2015-11-27T12:20:49.0000000+00:00</time></trkpt><trkpt lat="29.50299377" lon="35.26053806"><ele>830.7</ele><time>2015-11-27T12:20:59.0000000+00:00</time></trkpt><trkpt lat="29.50298153" lon="35.26046673"><ele>830.7</ele><time>2015-11-27T12:21:13.0000000+00:00</time></trkpt><trkpt lat="29.50297415" lon="35.26045642"><ele>830.7</ele><time>2015-11-27T12:21:35.0000000+00:00</time></trkpt><trkpt lat="29.50297499" lon="35.26045407"><ele>830.7</ele><time>2015-11-27T12:22:01.0000000+00:00</time></trkpt><trkpt lat="29.50298212" lon="35.26045617"><ele>831.2</ele><time>2015-11-27T12:22:27.0000000+00:00</time></trkpt><trkpt lat="29.50298388" lon="35.26044913"><ele>831.2</ele><time>2015-11-27T12:22:47.0000000+00:00</time></trkpt><trkpt lat="29.50299368" lon="35.26044494"><ele>830.7</ele><time>2015-11-27T12:23:15.0000000+00:00</time></trkpt><trkpt lat="29.50296686" lon="35.26041174"><ele>831.2</ele><time>2015-11-27T12:23:40.0000000+00:00</time></trkpt><trkpt lat="29.50292185" lon="35.26034754"><ele>830.7</ele><time>2015-11-27T12:23:52.0000000+00:00</time></trkpt><trkpt lat="29.5028796" lon="35.26023187"><ele>831.2</ele><time>2015-11-27T12:24:03.0000000+00:00</time></trkpt><trkpt lat="29.50276586" lon="35.26012039"><ele>830.7</ele><time>2015-11-27T12:24:19.0000000+00:00</time></trkpt><trkpt lat="29.50270291" lon="35.25980774"><ele>830.2</ele><time>2015-11-27T12:24:33.0000000+00:00</time></trkpt><trkpt lat="29.50262236" lon="35.25940156"><ele>829.3</ele><time>2015-11-27T12:24:45.0000000+00:00</time></trkpt><trkpt lat="29.50257618" lon="35.25889009"><ele>828.3</ele><time>2015-11-27T12:25:00.0000000+00:00</time></trkpt><trkpt lat="29.50252782" lon="35.25844937"><ele>827.4</ele><time>2015-11-27T12:25:14.0000000+00:00</time></trkpt><trkpt lat="29.50249161" lon="35.25842808"><ele>827.4</ele><time>2015-11-27T12:25:25.0000000+00:00</time></trkpt><trkpt lat="29.50247979" lon="35.2583674"><ele>827.4</ele><time>2015-11-27T12:25:39.0000000+00:00</time></trkpt><trkpt lat="29.50246763" lon="35.2583073"><ele>827.4</ele><time>2015-11-27T12:25:45.0000000+00:00</time></trkpt><trkpt lat="29.50244919" lon="35.25823446"><ele>827.4</ele><time>2015-11-27T12:25:52.0000000+00:00</time></trkpt><trkpt lat="29.50241952" lon="35.25806179"><ele>826.9</ele><time>2015-11-27T12:26:08.0000000+00:00</time></trkpt><trkpt lat="29.50239463" lon="35.25788108"><ele>826.4</ele><time>2015-11-27T12:26:23.0000000+00:00</time></trkpt><trkpt lat="29.50238884" lon="35.25787555"><ele>826.4</ele><time>2015-11-27T12:26:25.0000000+00:00</time></trkpt><trkpt lat="29.50227443" lon="35.25768293"><ele>825.4</ele><time>2015-11-27T12:26:43.0000000+00:00</time></trkpt><trkpt lat="29.5021912" lon="35.25748227"><ele>825.0</ele><time>2015-11-27T12:27:00.0000000+00:00</time></trkpt><trkpt lat="29.50214418" lon="35.25741261"><ele>825.0</ele><time>2015-11-27T12:27:09.0000000+00:00</time></trkpt><trkpt lat="29.50205675" lon="35.25720675"><ele>824.5</ele><time>2015-11-27T12:27:26.0000000+00:00</time></trkpt><trkpt lat="29.50205022" lon="35.25717138"><ele>824.5</ele><time>2015-11-27T12:27:28.0000000+00:00</time></trkpt><trkpt lat="29.50200981" lon="35.25705286"><ele>824.0</ele><time>2015-11-27T12:27:39.0000000+00:00</time></trkpt><trkpt lat="29.50199607" lon="35.25700022"><ele>823.5</ele><time>2015-11-27T12:27:51.0000000+00:00</time></trkpt><trkpt lat="29.50199389" lon="35.25698866"><ele>824.0</ele><time>2015-11-27T12:27:55.0000000+00:00</time></trkpt><trkpt lat="29.5019871" lon="35.25693619"><ele>823.5</ele><time>2015-11-27T12:28:00.0000000+00:00</time></trkpt><trkpt lat="29.50192097" lon="35.25666637"><ele>823.0</ele><time>2015-11-27T12:28:21.0000000+00:00</time></trkpt><trkpt lat="29.50188786" lon="35.25645465"><ele>822.6</ele><time>2015-11-27T12:28:41.0000000+00:00</time></trkpt><trkpt lat="29.50183472" lon="35.25622783"><ele>822.1</ele><time>2015-11-27T12:28:59.0000000+00:00</time></trkpt><trkpt lat="29.50177596" lon="35.25595961"><ele>821.6</ele><time>2015-11-27T12:29:20.0000000+00:00</time></trkpt><trkpt lat="29.50177344" lon="35.25594486"><ele>821.1</ele><time>2015-11-27T12:29:21.0000000+00:00</time></trkpt><trkpt lat="29.50173346" lon="35.2557224"><ele>820.6</ele><time>2015-11-27T12:29:38.0000000+00:00</time></trkpt><trkpt lat="29.50169248" lon="35.25553389"><ele>820.1</ele><time>2015-11-27T12:29:54.0000000+00:00</time></trkpt><trkpt lat="29.50168711" lon="35.25549936"><ele>820.1</ele><time>2015-11-27T12:29:57.0000000+00:00</time></trkpt><trkpt lat="29.50172776" lon="35.25536567"><ele>820.1</ele><time>2015-11-27T12:30:09.0000000+00:00</time></trkpt><trkpt lat="29.50173807" lon="35.25534513"><ele>820.1</ele><time>2015-11-27T12:30:11.0000000+00:00</time></trkpt><trkpt lat="29.50177202" lon="35.25515545"><ele>819.7</ele><time>2015-11-27T12:30:28.0000000+00:00</time></trkpt><trkpt lat="29.50176364" lon="35.25487801"><ele>819.2</ele><time>2015-11-27T12:30:47.0000000+00:00</time></trkpt><trkpt lat="29.50174084" lon="35.25458339"><ele>818.2</ele><time>2015-11-27T12:31:07.0000000+00:00</time></trkpt><trkpt lat="29.50173573" lon="35.25449697"><ele>818.7</ele><time>2015-11-27T12:31:14.0000000+00:00</time></trkpt><trkpt lat="29.50174545" lon="35.25438733"><ele>817.7</ele><time>2015-11-27T12:31:29.0000000+00:00</time></trkpt><trkpt lat="29.50172776" lon="35.25433126"><ele>817.3</ele><time>2015-11-27T12:31:43.0000000+00:00</time></trkpt><trkpt lat="29.50171829" lon="35.25419002"><ele>817.3</ele><time>2015-11-27T12:31:56.0000000+00:00</time></trkpt><trkpt lat="29.50172299" lon="35.25412129"><ele>817.3</ele><time>2015-11-27T12:31:59.0000000+00:00</time></trkpt><trkpt lat="29.50170044" lon="35.25407846"><ele>816.8</ele><time>2015-11-27T12:32:09.0000000+00:00</time></trkpt><trkpt lat="29.50166238" lon="35.25401283"><ele>816.8</ele><time>2015-11-27T12:32:19.0000000+00:00</time></trkpt><trkpt lat="29.50166071" lon="35.25398391"><ele>817.3</ele><time>2015-11-27T12:32:24.0000000+00:00</time></trkpt><trkpt lat="29.5016188" lon="35.2537975"><ele>816.8</ele><time>2015-11-27T12:32:40.0000000+00:00</time></trkpt><trkpt lat="29.50159592" lon="35.25376129"><ele>816.3</ele><time>2015-11-27T12:32:44.0000000+00:00</time></trkpt><trkpt lat="29.50155518" lon="35.25356742"><ele>816.3</ele><time>2015-11-27T12:33:01.0000000+00:00</time></trkpt><trkpt lat="29.50152375" lon="35.2534354"><ele>815.8</ele><time>2015-11-27T12:33:12.0000000+00:00</time></trkpt><trkpt lat="29.5015048" lon="35.25336977"><ele>815.8</ele><time>2015-11-27T12:33:20.0000000+00:00</time></trkpt><trkpt lat="29.50145309" lon="35.25322166"><ele>815.3</ele><time>2015-11-27T12:33:28.0000000+00:00</time></trkpt><trkpt lat="29.50140322" lon="35.25311555"><ele>815.3</ele><time>2015-11-27T12:33:33.0000000+00:00</time></trkpt><trkpt lat="29.5013484" lon="35.25306492"><ele>814.9</ele><time>2015-11-27T12:33:43.0000000+00:00</time></trkpt><trkpt lat="29.50119912" lon="35.25284649"><ele>814.4</ele><time>2015-11-27T12:33:55.0000000+00:00</time></trkpt><trkpt lat="29.50117431" lon="35.25281556"><ele>814.4</ele><time>2015-11-27T12:34:05.0000000+00:00</time></trkpt><trkpt lat="29.501122" lon="35.25270676"><ele>813.9</ele><time>2015-11-27T12:34:21.0000000+00:00</time></trkpt><trkpt lat="29.50111412" lon="35.25268472"><ele>813.4</ele><time>2015-11-27T12:34:32.0000000+00:00</time></trkpt><trkpt lat="29.5010412" lon="35.25263744"><ele>813.9</ele><time>2015-11-27T12:34:40.0000000+00:00</time></trkpt><trkpt lat="29.50093936" lon="35.25234919"><ele>813.9</ele><time>2015-11-27T12:34:56.0000000+00:00</time></trkpt><trkpt lat="29.50080542" lon="35.25194401"><ele>812.5</ele><time>2015-11-27T12:35:10.0000000+00:00</time></trkpt><trkpt lat="29.50067416" lon="35.25157956"><ele>811.5</ele><time>2015-11-27T12:35:22.0000000+00:00</time></trkpt><trkpt lat="29.50056603" lon="35.25114127"><ele>810.5</ele><time>2015-11-27T12:35:35.0000000+00:00</time></trkpt><trkpt lat="29.50054491" lon="35.2508635"><ele>810.5</ele><time>2015-11-27T12:35:45.0000000+00:00</time></trkpt><trkpt lat="29.50039479" lon="35.25046309"><ele>809.1</ele><time>2015-11-27T12:35:58.0000000+00:00</time></trkpt><trkpt lat="29.50039194" lon="35.25041758"><ele>809.1</ele><time>2015-11-27T12:36:00.0000000+00:00</time></trkpt><trkpt lat="29.50042706" lon="35.25030593"><ele>808.6</ele><time>2015-11-27T12:36:05.0000000+00:00</time></trkpt><trkpt lat="29.50041625" lon="35.25026713"><ele>808.6</ele><time>2015-11-27T12:36:15.0000000+00:00</time></trkpt><trkpt lat="29.50036612" lon="35.25017585"><ele>808.1</ele><time>2015-11-27T12:36:29.0000000+00:00</time></trkpt><trkpt lat="29.50034425" lon="35.25007124"><ele>808.1</ele><time>2015-11-27T12:36:40.0000000+00:00</time></trkpt><trkpt lat="29.50036319" lon="35.25000787"><ele>808.1</ele><time>2015-11-27T12:36:47.0000000+00:00</time></trkpt><trkpt lat="29.50032338" lon="35.24994006"><ele>807.6</ele><time>2015-11-27T12:36:56.0000000+00:00</time></trkpt><trkpt lat="29.50029236" lon="35.24984786"><ele>808.1</ele><time>2015-11-27T12:37:01.0000000+00:00</time></trkpt><trkpt lat="29.50022061" lon="35.24972389"><ele>807.6</ele><time>2015-11-27T12:37:06.0000000+00:00</time></trkpt><trkpt lat="29.50016295" lon="35.24957017"><ele>807.2</ele><time>2015-11-27T12:37:11.0000000+00:00</time></trkpt><trkpt lat="29.49991828" lon="35.24920841"><ele>806.2</ele><time>2015-11-27T12:37:24.0000000+00:00</time></trkpt><trkpt lat="29.49990227" lon="35.24920095"><ele>806.2</ele><time>2015-11-27T12:37:25.0000000+00:00</time></trkpt><trkpt lat="29.49979624" lon="35.24899023"><ele>806.2</ele><time>2015-11-27T12:37:38.0000000+00:00</time></trkpt><trkpt lat="29.49980755" lon="35.24889786"><ele>805.7</ele><time>2015-11-27T12:37:54.0000000+00:00</time></trkpt><trkpt lat="29.49965006" lon="35.24875302"><ele>805.7</ele><time>2015-11-27T12:38:05.0000000+00:00</time></trkpt><trkpt lat="29.49939391" lon="35.24835915"><ele>804.3</ele><time>2015-11-27T12:38:21.0000000+00:00</time></trkpt><trkpt lat="29.49928871" lon="35.24818883"><ele>803.3</ele><time>2015-11-27T12:38:32.0000000+00:00</time></trkpt><trkpt lat="29.49929316" lon="35.24819319"><ele>803.8</ele><time>2015-11-27T12:38:36.0000000+00:00</time></trkpt><trkpt lat="29.49943682" lon="35.24798239"><ele>803.8</ele><time>2015-11-27T12:38:51.0000000+00:00</time></trkpt><trkpt lat="29.49931721" lon="35.24755265"><ele>803.3</ele><time>2015-11-27T12:39:03.0000000+00:00</time></trkpt><trkpt lat="29.49901856" lon="35.24716725"><ele>802.4</ele><time>2015-11-27T12:39:16.0000000+00:00</time></trkpt><trkpt lat="29.49871313" lon="35.24682652"><ele>801.4</ele><time>2015-11-27T12:39:28.0000000+00:00</time></trkpt><trkpt lat="29.49840501" lon="35.24641673"><ele>800.4</ele><time>2015-11-27T12:39:42.0000000+00:00</time></trkpt><trkpt lat="29.49831365" lon="35.24620886"><ele>800.0</ele><time>2015-11-27T12:39:51.0000000+00:00</time></trkpt><trkpt lat="29.49829806" lon="35.24618782"><ele>799.5</ele><time>2015-11-27T12:39:52.0000000+00:00</time></trkpt><trkpt lat="29.49797426" lon="35.24589429"><ele>798.5</ele><time>2015-11-27T12:40:05.0000000+00:00</time></trkpt><trkpt lat="29.49773286" lon="35.24559966"><ele>798.0</ele><time>2015-11-27T12:40:15.0000000+00:00</time></trkpt><trkpt lat="29.49760512" lon="35.24547402"><ele>797.6</ele><time>2015-11-27T12:40:23.0000000+00:00</time></trkpt><trkpt lat="29.49756623" lon="35.24543538"><ele>797.6</ele><time>2015-11-27T12:40:30.0000000+00:00</time></trkpt><trkpt lat="29.49750504" lon="35.24535743"><ele>797.1</ele><time>2015-11-27T12:40:35.0000000+00:00</time></trkpt><trkpt lat="29.49722987" lon="35.24499374"><ele>797.1</ele><time>2015-11-27T12:40:49.0000000+00:00</time></trkpt><trkpt lat="29.49711847" lon="35.24483884"><ele>796.1</ele><time>2015-11-27T12:40:59.0000000+00:00</time></trkpt><trkpt lat="29.49707287" lon="35.24484688"><ele>795.6</ele><time>2015-11-27T12:41:07.0000000+00:00</time></trkpt><trkpt lat="29.49695435" lon="35.24476927"><ele>796.1</ele><time>2015-11-27T12:41:16.0000000+00:00</time></trkpt><trkpt lat="29.49694924" lon="35.24476726"><ele>796.1</ele><time>2015-11-27T12:41:17.0000000+00:00</time></trkpt><trkpt lat="29.49693566" lon="35.24473616"><ele>795.6</ele><time>2015-11-27T12:41:21.0000000+00:00</time></trkpt><trkpt lat="29.49680599" lon="35.2445018"><ele>795.2</ele><time>2015-11-27T12:41:35.0000000+00:00</time></trkpt><trkpt lat="29.49654758" lon="35.24425663"><ele>794.7</ele><time>2015-11-27T12:41:47.0000000+00:00</time></trkpt><trkpt lat="29.49646259" lon="35.24419477"><ele>794.2</ele><time>2015-11-27T12:41:50.0000000+00:00</time></trkpt><trkpt lat="29.49635815" lon="35.2440594"><ele>793.7</ele><time>2015-11-27T12:41:54.0000000+00:00</time></trkpt><trkpt lat="29.49625882" lon="35.24398858"><ele>793.7</ele><time>2015-11-27T12:41:57.0000000+00:00</time></trkpt><trkpt lat="29.49621784" lon="35.24395924"><ele>793.2</ele><time>2015-11-27T12:42:06.0000000+00:00</time></trkpt><trkpt lat="29.49618414" lon="35.24395849"><ele>793.7</ele><time>2015-11-27T12:42:14.0000000+00:00</time></trkpt><trkpt lat="29.49613703" lon="35.24394616"><ele>793.2</ele><time>2015-11-27T12:42:22.0000000+00:00</time></trkpt><trkpt lat="29.49606663" lon="35.24388607"><ele>793.2</ele><time>2015-11-27T12:42:27.0000000+00:00</time></trkpt><trkpt lat="29.49572037" lon="35.24355926"><ele>792.3</ele><time>2015-11-27T12:42:42.0000000+00:00</time></trkpt><trkpt lat="29.49552138" lon="35.24324074"><ele>791.3</ele><time>2015-11-27T12:42:53.0000000+00:00</time></trkpt><trkpt lat="29.49523841" lon="35.24296791"><ele>790.3</ele><time>2015-11-27T12:43:04.0000000+00:00</time></trkpt><trkpt lat="29.49476559" lon="35.24265477"><ele>789.4</ele><time>2015-11-27T12:43:19.0000000+00:00</time></trkpt><trkpt lat="29.49471546" lon="35.24263607"><ele>788.9</ele><time>2015-11-27T12:43:26.0000000+00:00</time></trkpt><trkpt lat="29.49459543" lon="35.24258025"><ele>788.4</ele><time>2015-11-27T12:43:33.0000000+00:00</time></trkpt><trkpt lat="29.49422068" lon="35.24233013"><ele>787.9</ele><time>2015-11-27T12:43:47.0000000+00:00</time></trkpt><trkpt lat="29.49381349" lon="35.242077"><ele>786.5</ele><time>2015-11-27T12:44:00.0000000+00:00</time></trkpt><trkpt lat="29.49364845" lon="35.24195387"><ele>786.5</ele><time>2015-11-27T12:44:06.0000000+00:00</time></trkpt><trkpt lat="29.49322575" lon="35.24162128"><ele>785.1</ele><time>2015-11-27T12:44:20.0000000+00:00</time></trkpt><trkpt lat="29.49304503" lon="35.24150527"><ele>784.6</ele><time>2015-11-27T12:44:30.0000000+00:00</time></trkpt><trkpt lat="29.49302735" lon="35.24149865"><ele>784.6</ele><time>2015-11-27T12:44:31.0000000+00:00</time></trkpt><trkpt lat="29.49268428" lon="35.24121115"><ele>783.6</ele><time>2015-11-27T12:44:46.0000000+00:00</time></trkpt><trkpt lat="29.49228262" lon="35.24100889"><ele>782.7</ele><time>2015-11-27T12:45:00.0000000+00:00</time></trkpt><trkpt lat="29.49224657" lon="35.24100043"><ele>782.7</ele><time>2015-11-27T12:45:10.0000000+00:00</time></trkpt><trkpt lat="29.49223786" lon="35.24092952"><ele>783.1</ele><time>2015-11-27T12:45:25.0000000+00:00</time></trkpt><trkpt lat="29.49225571" lon="35.24070363"><ele>782.7</ele><time>2015-11-27T12:45:42.0000000+00:00</time></trkpt><trkpt lat="29.4922568" lon="35.24055879"><ele>782.7</ele><time>2015-11-27T12:45:55.0000000+00:00</time></trkpt><trkpt lat="29.49211137" lon="35.24027917"><ele>782.2</ele><time>2015-11-27T12:46:07.0000000+00:00</time></trkpt><trkpt lat="29.49210031" lon="35.24012527"><ele>782.2</ele><time>2015-11-27T12:46:17.0000000+00:00</time></trkpt><trkpt lat="29.49178917" lon="35.23983895"><ele>781.7</ele><time>2015-11-27T12:46:28.0000000+00:00</time></trkpt><trkpt lat="29.49150251" lon="35.23962395"><ele>780.7</ele><time>2015-11-27T12:46:39.0000000+00:00</time></trkpt><trkpt lat="29.49121585" lon="35.23941893"><ele>780.3</ele><time>2015-11-27T12:46:49.0000000+00:00</time></trkpt><trkpt lat="29.49103606" lon="35.23908181"><ele>779.3</ele><time>2015-11-27T12:46:59.0000000+00:00</time></trkpt><trkpt lat="29.49086314" lon="35.23892683"><ele>779.3</ele><time>2015-11-27T12:47:05.0000000+00:00</time></trkpt><trkpt lat="29.49038814" lon="35.2384048"><ele>777.8</ele><time>2015-11-27T12:47:21.0000000+00:00</time></trkpt><trkpt lat="29.49006267" lon="35.23815569"><ele>776.9</ele><time>2015-11-27T12:47:29.0000000+00:00</time></trkpt><trkpt lat="29.48997885" lon="35.23810146"><ele>776.4</ele><time>2015-11-27T12:47:31.0000000+00:00</time></trkpt><trkpt lat="29.48986536" lon="35.2380039"><ele>775.9</ele><time>2015-11-27T12:47:34.0000000+00:00</time></trkpt><trkpt lat="29.48948616" lon="35.23771414"><ele>774.5</ele><time>2015-11-27T12:47:44.0000000+00:00</time></trkpt><trkpt lat="29.48898425" lon="35.23758623"><ele>773.5</ele><time>2015-11-27T12:47:56.0000000+00:00</time></trkpt><trkpt lat="29.48884394" lon="35.23751674"><ele>773.0</ele><time>2015-11-27T12:48:00.0000000+00:00</time></trkpt><trkpt lat="29.48823332" lon="35.23702196"><ele>771.6</ele><time>2015-11-27T12:48:16.0000000+00:00</time></trkpt><trkpt lat="29.48797281" lon="35.23672792"><ele>771.1</ele><time>2015-11-27T12:48:27.0000000+00:00</time></trkpt><trkpt lat="29.4876486" lon="35.23648309"><ele>770.2</ele><time>2015-11-27T12:48:39.0000000+00:00</time></trkpt><trkpt lat="29.48756319" lon="35.23640145"><ele>769.7</ele><time>2015-11-27T12:48:43.0000000+00:00</time></trkpt><trkpt lat="29.48727435" lon="35.23620422"><ele>769.7</ele><time>2015-11-27T12:48:56.0000000+00:00</time></trkpt><trkpt lat="29.48704493" lon="35.23589049"><ele>769.2</ele><time>2015-11-27T12:49:07.0000000+00:00</time></trkpt><trkpt lat="29.48689775" lon="35.23569779"><ele>768.2</ele><time>2015-11-27T12:49:15.0000000+00:00</time></trkpt><trkpt lat="29.48686179" lon="35.2356506"><ele>767.8</ele><time>2015-11-27T12:49:27.0000000+00:00</time></trkpt><trkpt lat="29.48686187" lon="35.23565345"><ele>767.8</ele><time>2015-11-27T12:49:48.0000000+00:00</time></trkpt><trkpt lat="29.48687302" lon="35.23565194"><ele>768.2</ele><time>2015-11-27T12:50:20.0000000+00:00</time></trkpt><trkpt lat="29.48686413" lon="35.23563693"><ele>767.3</ele><time>2015-11-27T12:50:43.0000000+00:00</time></trkpt><trkpt lat="29.4868752" lon="35.23563903"><ele>767.3</ele><time>2015-11-27T12:51:26.0000000+00:00</time></trkpt><trkpt lat="29.48687956" lon="35.23563417"><ele>766.8</ele><time>2015-11-27T12:52:00.0000000+00:00</time></trkpt><trkpt lat="29.48687704" lon="35.2356376"><ele>767.3</ele><time>2015-11-27T12:52:39.0000000+00:00</time></trkpt><trkpt lat="29.48687662" lon="35.23563551"><ele>766.8</ele><time>2015-11-27T12:53:16.0000000+00:00</time></trkpt><trkpt lat="29.4868778" lon="35.23563844"><ele>766.8</ele><time>2015-11-27T12:53:48.0000000+00:00</time></trkpt><trkpt lat="29.48687696" lon="35.23563769"><ele>766.8</ele><time>2015-11-27T12:54:15.0000000+00:00</time></trkpt><trkpt lat="29.48687973" lon="35.2356392"><ele>766.8</ele><time>2015-11-27T12:54:46.0000000+00:00</time></trkpt><trkpt lat="29.48687746" lon="35.23564087"><ele>766.3</ele><time>2015-11-27T12:55:13.0000000+00:00</time></trkpt><trkpt lat="29.48688157" lon="35.23563576"><ele>766.3</ele><time>2015-11-27T12:55:37.0000000+00:00</time></trkpt><trkpt lat="29.48688425" lon="35.2356366"><ele>766.3</ele><time>2015-11-27T12:56:10.0000000+00:00</time></trkpt><trkpt lat="29.4868876" lon="35.23563274"><ele>766.3</ele><time>2015-11-27T12:56:35.0000000+00:00</time></trkpt><trkpt lat="29.48687788" lon="35.23563123"><ele>766.3</ele><time>2015-11-27T12:57:06.0000000+00:00</time></trkpt><trkpt lat="29.48688668" lon="35.23562511"><ele>766.3</ele><time>2015-11-27T12:57:43.0000000+00:00</time></trkpt><trkpt lat="29.48688467" lon="35.2356252"><ele>765.8</ele><time>2015-11-27T12:58:12.0000000+00:00</time></trkpt><trkpt lat="29.48688911" lon="35.23562956"><ele>765.8</ele><time>2015-11-27T12:58:54.0000000+00:00</time></trkpt><trkpt lat="29.48689406" lon="35.23562428"><ele>765.8</ele><time>2015-11-27T12:59:27.0000000+00:00</time></trkpt><trkpt lat="29.48689288" lon="35.23563609"><ele>765.8</ele><time>2015-11-27T13:00:03.0000000+00:00</time></trkpt><trkpt lat="29.48689448" lon="35.23562813"><ele>765.8</ele><time>2015-11-27T13:00:35.0000000+00:00</time></trkpt><trkpt lat="29.48689657" lon="35.23562486"><ele>765.4</ele><time>2015-11-27T13:01:17.0000000+00:00</time></trkpt><trkpt lat="29.48689867" lon="35.23562335"><ele>765.8</ele><time>2015-11-27T13:01:43.0000000+00:00</time></trkpt><trkpt lat="29.486898" lon="35.23563031"><ele>765.8</ele><time>2015-11-27T13:02:25.0000000+00:00</time></trkpt><trkpt lat="29.48689406" lon="35.23563014"><ele>765.8</ele><time>2015-11-27T13:03:08.0000000+00:00</time></trkpt><trkpt lat="29.48688962" lon="35.23564163"><ele>766.8</ele><time>2015-11-27T13:03:42.0000000+00:00</time></trkpt><trkpt lat="29.48688249" lon="35.23566082"><ele>766.8</ele><time>2015-11-27T13:04:07.0000000+00:00</time></trkpt><trkpt lat="29.48684427" lon="35.23567272"><ele>766.8</ele><time>2015-11-27T13:04:27.0000000+00:00</time></trkpt><trkpt lat="29.48649047" lon="35.23568278"><ele>765.8</ele><time>2015-11-27T13:04:41.0000000+00:00</time></trkpt><trkpt lat="29.48603265" lon="35.23560156"><ele>764.9</ele><time>2015-11-27T13:04:54.0000000+00:00</time></trkpt><trkpt lat="29.48560014" lon="35.23547759"><ele>763.9</ele><time>2015-11-27T13:05:07.0000000+00:00</time></trkpt><trkpt lat="29.48510276" lon="35.23530417"><ele>762.9</ele><time>2015-11-27T13:05:23.0000000+00:00</time></trkpt><trkpt lat="29.4846835" lon="35.2352165"><ele>762.0</ele><time>2015-11-27T13:05:35.0000000+00:00</time></trkpt><trkpt lat="29.48407581" lon="35.2350393"><ele>761.0</ele><time>2015-11-27T13:05:51.0000000+00:00</time></trkpt><trkpt lat="29.4837122" lon="35.23488315"><ele>760.1</ele><time>2015-11-27T13:06:04.0000000+00:00</time></trkpt><trkpt lat="29.48328548" lon="35.23468743"><ele>759.6</ele><time>2015-11-27T13:06:17.0000000+00:00</time></trkpt><trkpt lat="29.4827964" lon="35.23435844"><ele>758.6</ele><time>2015-11-27T13:06:31.0000000+00:00</time></trkpt><trkpt lat="29.48240932" lon="35.23414227"><ele>757.7</ele><time>2015-11-27T13:06:43.0000000+00:00</time></trkpt><trkpt lat="29.48208016" lon="35.23398276"><ele>756.7</ele><time>2015-11-27T13:06:52.0000000+00:00</time></trkpt><trkpt lat="29.48179007" lon="35.23384555"><ele>756.2</ele><time>2015-11-27T13:07:00.0000000+00:00</time></trkpt><trkpt lat="29.48134675" lon="35.23360617"><ele>755.3</ele><time>2015-11-27T13:07:13.0000000+00:00</time></trkpt><trkpt lat="29.48071509" lon="35.23324398"><ele>753.3</ele><time>2015-11-27T13:07:32.0000000+00:00</time></trkpt><trkpt lat="29.48021184" lon="35.23297241"><ele>752.9</ele><time>2015-11-27T13:07:47.0000000+00:00</time></trkpt><trkpt lat="29.48013204" lon="35.23292203"><ele>752.9</ele><time>2015-11-27T13:07:49.0000000+00:00</time></trkpt><trkpt lat="29.47992819" lon="35.23285431"><ele>751.9</ele><time>2015-11-27T13:07:54.0000000+00:00</time></trkpt><trkpt lat="29.47959241" lon="35.23271291"><ele>751.4</ele><time>2015-11-27T13:08:03.0000000+00:00</time></trkpt><trkpt lat="29.47932822" lon="35.23241124"><ele>750.5</ele><time>2015-11-27T13:08:13.0000000+00:00</time></trkpt><trkpt lat="29.47890133" lon="35.23211469"><ele>749.0</ele><time>2015-11-27T13:08:27.0000000+00:00</time></trkpt><trkpt lat="29.47884047" lon="35.23210237"><ele>749.0</ele><time>2015-11-27T13:08:32.0000000+00:00</time></trkpt><trkpt lat="29.47877702" lon="35.23208359"><ele>749.0</ele><time>2015-11-27T13:08:36.0000000+00:00</time></trkpt><trkpt lat="29.47857544" lon="35.23201637"><ele>748.5</ele><time>2015-11-27T13:08:42.0000000+00:00</time></trkpt><trkpt lat="29.47791511" lon="35.23189022"><ele>747.1</ele><time>2015-11-27T13:09:00.0000000+00:00</time></trkpt><trkpt lat="29.47737934" lon="35.2316966"><ele>746.6</ele><time>2015-11-27T13:09:15.0000000+00:00</time></trkpt><trkpt lat="29.47685036" lon="35.23157414"><ele>745.2</ele><time>2015-11-27T13:09:30.0000000+00:00</time></trkpt><trkpt lat="29.47625164" lon="35.23135277"><ele>744.2</ele><time>2015-11-27T13:09:46.0000000+00:00</time></trkpt><trkpt lat="29.47577898" lon="35.23105949"><ele>743.2</ele><time>2015-11-27T13:10:02.0000000+00:00</time></trkpt><trkpt lat="29.47554379" lon="35.2308761"><ele>742.8</ele><time>2015-11-27T13:10:09.0000000+00:00</time></trkpt><trkpt lat="29.4750257" lon="35.23058466"><ele>741.8</ele><time>2015-11-27T13:10:24.0000000+00:00</time></trkpt><trkpt lat="29.47466947" lon="35.23016481"><ele>740.8</ele><time>2015-11-27T13:10:38.0000000+00:00</time></trkpt><trkpt lat="29.47413797" lon="35.22946735"><ele>739.9</ele><time>2015-11-27T13:10:57.0000000+00:00</time></trkpt><trkpt lat="29.47401878" lon="35.22932167"><ele>739.4</ele><time>2015-11-27T13:11:01.0000000+00:00</time></trkpt><trkpt lat="29.47392298" lon="35.22917507"><ele>739.4</ele><time>2015-11-27T13:11:05.0000000+00:00</time></trkpt><trkpt lat="29.47339458" lon="35.22861281"><ele>737.5</ele><time>2015-11-27T13:11:24.0000000+00:00</time></trkpt><trkpt lat="29.47310348" lon="35.22826253"><ele>737.5</ele><time>2015-11-27T13:11:37.0000000+00:00</time></trkpt><trkpt lat="29.47294146" lon="35.22806833"><ele>736.5</ele><time>2015-11-27T13:11:45.0000000+00:00</time></trkpt><trkpt lat="29.47270115" lon="35.22784822"><ele>736.0</ele><time>2015-11-27T13:11:58.0000000+00:00</time></trkpt><trkpt lat="29.47247903" lon="35.2273153"><ele>734.6</ele><time>2015-11-27T13:12:13.0000000+00:00</time></trkpt><trkpt lat="29.47217208" lon="35.22671213"><ele>733.6</ele><time>2015-11-27T13:12:30.0000000+00:00</time></trkpt><trkpt lat="29.47195893" lon="35.22590068"><ele>731.7</ele><time>2015-11-27T13:12:49.0000000+00:00</time></trkpt><trkpt lat="29.4719187" lon="35.22525687"><ele>730.3</ele><time>2015-11-27T13:13:04.0000000+00:00</time></trkpt><trkpt lat="29.47172801" lon="35.22466863"><ele>729.3</ele><time>2015-11-27T13:13:20.0000000+00:00</time></trkpt><trkpt lat="29.47168275" lon="35.22430016"><ele>728.8</ele><time>2015-11-27T13:13:32.0000000+00:00</time></trkpt><trkpt lat="29.4716177" lon="35.22382834"><ele>728.3</ele><time>2015-11-27T13:13:47.0000000+00:00</time></trkpt><trkpt lat="29.4715571" lon="35.22359599"><ele>728.3</ele><time>2015-11-27T13:13:56.0000000+00:00</time></trkpt><trkpt lat="29.47140464" lon="35.22292594"><ele>727.4</ele><time>2015-11-27T13:14:14.0000000+00:00</time></trkpt><trkpt lat="29.47124471" lon="35.22245069"><ele>726.9</ele><time>2015-11-27T13:14:28.0000000+00:00</time></trkpt><trkpt lat="29.47107615" lon="35.22190763"><ele>725.9</ele><time>2015-11-27T13:14:45.0000000+00:00</time></trkpt><trkpt lat="29.47097481" lon="35.22157654"><ele>724.5</ele><time>2015-11-27T13:14:56.0000000+00:00</time></trkpt><trkpt lat="29.47090281" lon="35.22117756"><ele>724.0</ele><time>2015-11-27T13:15:10.0000000+00:00</time></trkpt><trkpt lat="29.47082142" lon="35.22080516"><ele>723.5</ele><time>2015-11-27T13:15:22.0000000+00:00</time></trkpt><trkpt lat="29.47065094" lon="35.22035664"><ele>723.1</ele><time>2015-11-27T13:15:36.0000000+00:00</time></trkpt><trkpt lat="29.47052194" lon="35.21989262"><ele>722.1</ele><time>2015-11-27T13:15:51.0000000+00:00</time></trkpt><trkpt lat="29.47049051" lon="35.2198119"><ele>722.1</ele><time>2015-11-27T13:15:54.0000000+00:00</time></trkpt><trkpt lat="29.47036553" lon="35.21961501"><ele>721.6</ele><time>2015-11-27T13:16:04.0000000+00:00</time></trkpt><trkpt lat="29.47029487" lon="35.219599"><ele>721.6</ele><time>2015-11-27T13:16:16.0000000+00:00</time></trkpt><trkpt lat="29.47028448" lon="35.21959079"><ele>721.6</ele><time>2015-11-27T13:16:24.0000000+00:00</time></trkpt><trkpt lat="29.47013184" lon="35.21930655"><ele>722.1</ele><time>2015-11-27T13:16:38.0000000+00:00</time></trkpt><trkpt lat="29.46984896" lon="35.21897991"><ele>721.1</ele><time>2015-11-27T13:16:51.0000000+00:00</time></trkpt><trkpt lat="29.46954494" lon="35.21871018"><ele>720.7</ele><time>2015-11-27T13:17:03.0000000+00:00</time></trkpt><trkpt lat="29.46931042" lon="35.21841891"><ele>719.2</ele><time>2015-11-27T13:17:14.0000000+00:00</time></trkpt><trkpt lat="29.46927748" lon="35.21833476"><ele>719.2</ele><time>2015-11-27T13:17:17.0000000+00:00</time></trkpt><trkpt lat="29.46910263" lon="35.21806595"><ele>718.7</ele><time>2015-11-27T13:17:29.0000000+00:00</time></trkpt><trkpt lat="29.46904178" lon="35.21794148"><ele>718.2</ele><time>2015-11-27T13:17:34.0000000+00:00</time></trkpt><trkpt lat="29.46898084" lon="35.21788691"><ele>718.2</ele><time>2015-11-27T13:17:44.0000000+00:00</time></trkpt><trkpt lat="29.46890507" lon="35.2178238"><ele>717.8</ele><time>2015-11-27T13:17:57.0000000+00:00</time></trkpt><trkpt lat="29.46884187" lon="35.21773327"><ele>717.8</ele><time>2015-11-27T13:18:07.0000000+00:00</time></trkpt><trkpt lat="29.46881815" lon="35.21756957"><ele>717.3</ele><time>2015-11-27T13:18:19.0000000+00:00</time></trkpt><trkpt lat="29.46884799" lon="35.2174679"><ele>717.3</ele><time>2015-11-27T13:18:28.0000000+00:00</time></trkpt><trkpt lat="29.46879242" lon="35.21734728"><ele>717.3</ele><time>2015-11-27T13:18:41.0000000+00:00</time></trkpt><trkpt lat="29.46864774" lon="35.21705685"><ele>716.8</ele><time>2015-11-27T13:18:53.0000000+00:00</time></trkpt><trkpt lat="29.46848296" lon="35.21671453"><ele>716.3</ele><time>2015-11-27T13:19:06.0000000+00:00</time></trkpt><trkpt lat="29.46840291" lon="35.21661177"><ele>715.8</ele><time>2015-11-27T13:19:16.0000000+00:00</time></trkpt><trkpt lat="29.46831465" lon="35.21644154"><ele>715.8</ele><time>2015-11-27T13:19:29.0000000+00:00</time></trkpt><trkpt lat="29.46806872" lon="35.21610802"><ele>715.4</ele><time>2015-11-27T13:19:43.0000000+00:00</time></trkpt><trkpt lat="29.46794752" lon="35.21592848"><ele>714.9</ele><time>2015-11-27T13:19:51.0000000+00:00</time></trkpt><trkpt lat="29.46790352" lon="35.2157942"><ele>714.9</ele><time>2015-11-27T13:19:56.0000000+00:00</time></trkpt><trkpt lat="29.46757209" lon="35.2152384"><ele>714.4</ele><time>2015-11-27T13:20:15.0000000+00:00</time></trkpt><trkpt lat="29.46735123" lon="35.21492869"><ele>713.9</ele><time>2015-11-27T13:20:27.0000000+00:00</time></trkpt><trkpt lat="29.46718192" lon="35.21471671"><ele>713.4</ele><time>2015-11-27T13:20:39.0000000+00:00</time></trkpt><trkpt lat="29.46721938" lon="35.21464521"><ele>713.4</ele><time>2015-11-27T13:20:52.0000000+00:00</time></trkpt><trkpt lat="29.46722969" lon="35.21465016"><ele>713.0</ele><time>2015-11-27T13:21:13.0000000+00:00</time></trkpt><trkpt lat="29.46722098" lon="35.21462853"><ele>713.0</ele><time>2015-11-27T13:21:22.0000000+00:00</time></trkpt><trkpt lat="29.46717119" lon="35.21445855"><ele>713.0</ele><time>2015-11-27T13:21:32.0000000+00:00</time></trkpt><trkpt lat="29.4669427" lon="35.21415906"><ele>712.0</ele><time>2015-11-27T13:21:46.0000000+00:00</time></trkpt><trkpt lat="29.46686818" lon="35.21408999"><ele>712.0</ele><time>2015-11-27T13:21:56.0000000+00:00</time></trkpt><trkpt lat="29.46685268" lon="35.21408832"><ele>712.0</ele><time>2015-11-27T13:21:58.0000000+00:00</time></trkpt><trkpt lat="29.4668194" lon="35.21405823"><ele>712.0</ele><time>2015-11-27T13:22:02.0000000+00:00</time></trkpt><trkpt lat="29.46672846" lon="35.21388598"><ele>711.5</ele><time>2015-11-27T13:22:19.0000000+00:00</time></trkpt><trkpt lat="29.46669803" lon="35.21385035"><ele>711.5</ele><time>2015-11-27T13:22:24.0000000+00:00</time></trkpt><trkpt lat="29.46666559" lon="35.21382948"><ele>711.5</ele><time>2015-11-27T13:22:28.0000000+00:00</time></trkpt><trkpt lat="29.4666298" lon="35.21378766"><ele>711.5</ele><time>2015-11-27T13:22:33.0000000+00:00</time></trkpt><trkpt lat="29.46655948" lon="35.21356612"><ele>711.5</ele><time>2015-11-27T13:22:53.0000000+00:00</time></trkpt><trkpt lat="29.46652444" lon="35.21344702"><ele>711.0</ele><time>2015-11-27T13:23:11.0000000+00:00</time></trkpt><trkpt lat="29.4665003" lon="35.21343989"><ele>711.0</ele><time>2015-11-27T13:23:40.0000000+00:00</time></trkpt><trkpt lat="29.46646325" lon="35.2132342"><ele>711.0</ele><time>2015-11-27T13:23:51.0000000+00:00</time></trkpt><trkpt lat="29.46647784" lon="35.21304301"><ele>710.6</ele><time>2015-11-27T13:24:02.0000000+00:00</time></trkpt><trkpt lat="29.46650206" lon="35.21290253"><ele>710.6</ele><time>2015-11-27T13:24:16.0000000+00:00</time></trkpt><trkpt lat="29.46655118" lon="35.21271628"><ele>710.1</ele><time>2015-11-27T13:24:33.0000000+00:00</time></trkpt><trkpt lat="29.46655931" lon="35.21269935"><ele>710.1</ele><time>2015-11-27T13:24:47.0000000+00:00</time></trkpt><trkpt lat="29.46655076" lon="35.21268401"><ele>710.1</ele><time>2015-11-27T13:25:06.0000000+00:00</time></trkpt><trkpt lat="29.46660231" lon="35.21255854"><ele>710.1</ele><time>2015-11-27T13:25:26.0000000+00:00</time></trkpt><trkpt lat="29.46664137" lon="35.21240087"><ele>709.6</ele><time>2015-11-27T13:25:41.0000000+00:00</time></trkpt><trkpt lat="29.46662662" lon="35.21231647"><ele>709.6</ele><time>2015-11-27T13:25:50.0000000+00:00</time></trkpt><trkpt lat="29.46668554" lon="35.2120661"><ele>709.6</ele><time>2015-11-27T13:26:09.0000000+00:00</time></trkpt><trkpt lat="29.46678495" lon="35.21192185"><ele>709.1</ele><time>2015-11-27T13:26:24.0000000+00:00</time></trkpt><trkpt lat="29.46684815" lon="35.21186074"><ele>709.1</ele><time>2015-11-27T13:26:33.0000000+00:00</time></trkpt><trkpt lat="29.46694597" lon="35.2116584"><ele>709.1</ele><time>2015-11-27T13:26:52.0000000+00:00</time></trkpt><trkpt lat="29.4670437" lon="35.21143821"><ele>708.2</ele><time>2015-11-27T13:27:11.0000000+00:00</time></trkpt><trkpt lat="29.46713397" lon="35.21125096"><ele>708.2</ele><time>2015-11-27T13:27:27.0000000+00:00</time></trkpt><trkpt lat="29.46718183" lon="35.21103269"><ele>707.7</ele><time>2015-11-27T13:27:44.0000000+00:00</time></trkpt><trkpt lat="29.46725677" lon="35.21077101"><ele>707.2</ele><time>2015-11-27T13:28:05.0000000+00:00</time></trkpt><trkpt lat="29.46730798" lon="35.21060907"><ele>707.2</ele><time>2015-11-27T13:28:18.0000000+00:00</time></trkpt><trkpt lat="29.46730019" lon="35.21029936"><ele>706.7</ele><time>2015-11-27T13:28:30.0000000+00:00</time></trkpt><trkpt lat="29.46731167" lon="35.21026005"><ele>706.2</ele><time>2015-11-27T13:28:42.0000000+00:00</time></trkpt><trkpt lat="29.46731527" lon="35.21018805"><ele>706.7</ele><time>2015-11-27T13:28:48.0000000+00:00</time></trkpt><trkpt lat="29.46741653" lon="35.21007984"><ele>706.2</ele><time>2015-11-27T13:29:03.0000000+00:00</time></trkpt><trkpt lat="29.46764225" lon="35.20980173"><ele>705.8</ele><time>2015-11-27T13:29:16.0000000+00:00</time></trkpt><trkpt lat="29.46782028" lon="35.20949906"><ele>705.3</ele><time>2015-11-27T13:29:28.0000000+00:00</time></trkpt><trkpt lat="29.4680098" lon="35.20917334"><ele>704.8</ele><time>2015-11-27T13:29:41.0000000+00:00</time></trkpt><trkpt lat="29.46819378" lon="35.2088788"><ele>703.8</ele><time>2015-11-27T13:29:54.0000000+00:00</time></trkpt><trkpt lat="29.4683631" lon="35.20860186"><ele>703.8</ele><time>2015-11-27T13:30:08.0000000+00:00</time></trkpt><trkpt lat="29.46837558" lon="35.20857956"><ele>703.3</ele><time>2015-11-27T13:30:28.0000000+00:00</time></trkpt><trkpt lat="29.46850668" lon="35.20854712"><ele>703.8</ele><time>2015-11-27T13:30:43.0000000+00:00</time></trkpt><trkpt lat="29.46852344" lon="35.20851536"><ele>704.3</ele><time>2015-11-27T13:31:06.0000000+00:00</time></trkpt><trkpt lat="29.46872058" lon="35.20838032"><ele>703.8</ele><time>2015-11-27T13:31:27.0000000+00:00</time></trkpt><trkpt lat="29.46879392" lon="35.20827295"><ele>703.3</ele><time>2015-11-27T13:31:42.0000000+00:00</time></trkpt><trkpt lat="29.46889501" lon="35.20811009"><ele>703.3</ele><time>2015-11-27T13:31:55.0000000+00:00</time></trkpt><trkpt lat="29.46913289" lon="35.20780466"><ele>702.9</ele><time>2015-11-27T13:32:07.0000000+00:00</time></trkpt><trkpt lat="29.46929525" lon="35.20732932"><ele>701.9</ele><time>2015-11-27T13:32:20.0000000+00:00</time></trkpt><trkpt lat="29.46943078" lon="35.2068684"><ele>701.9</ele><time>2015-11-27T13:32:33.0000000+00:00</time></trkpt><trkpt lat="29.46970378" lon="35.20641636"><ele>701.4</ele><time>2015-11-27T13:32:48.0000000+00:00</time></trkpt><trkpt lat="29.46984342" lon="35.2060199"><ele>701.4</ele><time>2015-11-27T13:33:00.0000000+00:00</time></trkpt><trkpt lat="29.46987879" lon="35.20560692"><ele>700.0</ele><time>2015-11-27T13:33:11.0000000+00:00</time></trkpt><trkpt lat="29.46996706" lon="35.20551128"><ele>700.0</ele><time>2015-11-27T13:33:15.0000000+00:00</time></trkpt><trkpt lat="29.47004702" lon="35.20532294"><ele>700.0</ele><time>2015-11-27T13:33:22.0000000+00:00</time></trkpt><trkpt lat="29.47011634" lon="35.20507777"><ele>699.5</ele><time>2015-11-27T13:33:33.0000000+00:00</time></trkpt><trkpt lat="29.47015121" lon="35.20466547"><ele>698.5</ele><time>2015-11-27T13:33:46.0000000+00:00</time></trkpt><trkpt lat="29.47021441" lon="35.20425458"><ele>697.6</ele><time>2015-11-27T13:34:00.0000000+00:00</time></trkpt><trkpt lat="29.47017954" lon="35.2041105"><ele>697.1</ele><time>2015-11-27T13:34:11.0000000+00:00</time></trkpt><trkpt lat="29.47017015" lon="35.20409944"><ele>697.1</ele><time>2015-11-27T13:34:25.0000000+00:00</time></trkpt><trkpt lat="29.47018063" lon="35.20411771"><ele>697.1</ele><time>2015-11-27T13:34:42.0000000+00:00</time></trkpt><trkpt lat="29.47018281" lon="35.20408041"><ele>697.1</ele><time>2015-11-27T13:34:51.0000000+00:00</time></trkpt><trkpt lat="29.47014039" lon="35.20379601"><ele>696.6</ele><time>2015-11-27T13:35:06.0000000+00:00</time></trkpt><trkpt lat="29.47006747" lon="35.20368034"><ele>696.1</ele><time>2015-11-27T13:35:17.0000000+00:00</time></trkpt><trkpt lat="29.47003118" lon="35.20366986"><ele>696.6</ele><time>2015-11-27T13:35:42.0000000+00:00</time></trkpt><trkpt lat="29.47003109" lon="35.20366509"><ele>696.1</ele><time>2015-11-27T13:36:08.0000000+00:00</time></trkpt><trkpt lat="29.47000293" lon="35.20358579"><ele>691.8</ele><time>2015-11-27T13:36:21.0000000+00:00</time></trkpt><trkpt lat="29.46999916" lon="35.20357993"><ele>699.5</ele><time>2015-11-27T13:36:22.0000000+00:00</time></trkpt><trkpt lat="29.46999623" lon="35.20357599"><ele>696.1</ele><time>2015-11-27T13:36:23.0000000+00:00</time></trkpt><trkpt lat="29.47000955" lon="35.20351882"><ele>696.1</ele><time>2015-11-27T13:36:43.0000000+00:00</time></trkpt><trkpt lat="29.46999312" lon="35.20346283"><ele>695.7</ele><time>2015-11-27T13:36:49.0000000+00:00</time></trkpt><trkpt lat="29.46996211" lon="35.20319947"><ele>695.7</ele><time>2015-11-27T13:37:10.0000000+00:00</time></trkpt><trkpt lat="29.46994979" lon="35.20294726"><ele>695.2</ele><time>2015-11-27T13:37:29.0000000+00:00</time></trkpt><trkpt lat="29.46994442" lon="35.20292077"><ele>695.2</ele><time>2015-11-27T13:37:34.0000000+00:00</time></trkpt><trkpt lat="29.46994895" lon="35.20282371"><ele>695.2</ele><time>2015-11-27T13:37:40.0000000+00:00</time></trkpt><trkpt lat="29.46995524" lon="35.20248215"><ele>694.7</ele><time>2015-11-27T13:37:54.0000000+00:00</time></trkpt><trkpt lat="29.46998617" lon="35.20205568"><ele>694.7</ele><time>2015-11-27T13:38:10.0000000+00:00</time></trkpt><trkpt lat="29.47003067" lon="35.20176709"><ele>693.7</ele><time>2015-11-27T13:38:21.0000000+00:00</time></trkpt><trkpt lat="29.47003646" lon="35.20170003"><ele>693.7</ele><time>2015-11-27T13:38:26.0000000+00:00</time></trkpt><trkpt lat="29.4700186" lon="35.20162677"><ele>693.7</ele><time>2015-11-27T13:38:30.0000000+00:00</time></trkpt><trkpt lat="29.47012547" lon="35.20106502"><ele>692.8</ele><time>2015-11-27T13:38:46.0000000+00:00</time></trkpt><trkpt lat="29.47017778" lon="35.20077107"><ele>692.3</ele><time>2015-11-27T13:38:58.0000000+00:00</time></trkpt><trkpt lat="29.47015515" lon="35.20048348"><ele>692.3</ele><time>2015-11-27T13:39:10.0000000+00:00</time></trkpt><trkpt lat="29.47021717" lon="35.20007176"><ele>691.3</ele><time>2015-11-27T13:39:25.0000000+00:00</time></trkpt><trkpt lat="29.47031583" lon="35.19977789"><ele>690.8</ele><time>2015-11-27T13:39:39.0000000+00:00</time></trkpt><trkpt lat="29.47040828" lon="35.19945771"><ele>689.9</ele><time>2015-11-27T13:39:51.0000000+00:00</time></trkpt><trkpt lat="29.47048078" lon="35.19914674"><ele>689.9</ele><time>2015-11-27T13:40:02.0000000+00:00</time></trkpt><trkpt lat="29.47062797" lon="35.19869965"><ele>688.9</ele><time>2015-11-27T13:40:15.0000000+00:00</time></trkpt><trkpt lat="29.47074724" lon="35.19816128"><ele>688.0</ele><time>2015-11-27T13:40:29.0000000+00:00</time></trkpt><trkpt lat="29.47088085" lon="35.19756633"><ele>687.0</ele><time>2015-11-27T13:40:46.0000000+00:00</time></trkpt><trkpt lat="29.47095981" lon="35.19705277"><ele>686.5</ele><time>2015-11-27T13:41:00.0000000+00:00</time></trkpt><trkpt lat="29.4711163" lon="35.19655405"><ele>686.0</ele><time>2015-11-27T13:41:14.0000000+00:00</time></trkpt><trkpt lat="29.4712458" lon="35.19621274"><ele>685.1</ele><time>2015-11-27T13:41:26.0000000+00:00</time></trkpt><trkpt lat="29.47136893" lon="35.19570488"><ele>684.6</ele><time>2015-11-27T13:41:40.0000000+00:00</time></trkpt><trkpt lat="29.47146909" lon="35.19528327"><ele>684.1</ele><time>2015-11-27T13:41:55.0000000+00:00</time></trkpt><trkpt lat="29.47160748" lon="35.19494254"><ele>683.6</ele><time>2015-11-27T13:42:06.0000000+00:00</time></trkpt><trkpt lat="29.4717716" lon="35.1944864"><ele>682.7</ele><time>2015-11-27T13:42:21.0000000+00:00</time></trkpt><trkpt lat="29.47190906" lon="35.19413997"><ele>682.2</ele><time>2015-11-27T13:42:33.0000000+00:00</time></trkpt><trkpt lat="29.47200864" lon="35.19380788"><ele>681.7</ele><time>2015-11-27T13:42:44.0000000+00:00</time></trkpt><trkpt lat="29.47208634" lon="35.19362306"><ele>681.2</ele><time>2015-11-27T13:42:50.0000000+00:00</time></trkpt><trkpt lat="29.47208717" lon="35.19352181"><ele>681.2</ele><time>2015-11-27T13:42:54.0000000+00:00</time></trkpt><trkpt lat="29.4720834" lon="35.1930536"><ele>680.8</ele><time>2015-11-27T13:43:07.0000000+00:00</time></trkpt><trkpt lat="29.47202783" lon="35.19264012"><ele>679.8</ele><time>2015-11-27T13:43:20.0000000+00:00</time></trkpt><trkpt lat="29.47209891" lon="35.19228942"><ele>679.3</ele><time>2015-11-27T13:43:31.0000000+00:00</time></trkpt><trkpt lat="29.47211542" lon="35.1918808"><ele>678.8</ele><time>2015-11-27T13:43:43.0000000+00:00</time></trkpt><trkpt lat="29.47210997" lon="35.1917218"><ele>678.8</ele><time>2015-11-27T13:43:48.0000000+00:00</time></trkpt><trkpt lat="29.47210612" lon="35.19159439"><ele>678.4</ele><time>2015-11-27T13:43:53.0000000+00:00</time></trkpt><trkpt lat="29.47214744" lon="35.19118862"><ele>677.4</ele><time>2015-11-27T13:44:07.0000000+00:00</time></trkpt><trkpt lat="29.47217669" lon="35.19078998"><ele>677.9</ele><time>2015-11-27T13:44:19.0000000+00:00</time></trkpt><trkpt lat="29.4721663" lon="35.19063852"><ele>676.9</ele><time>2015-11-27T13:44:25.0000000+00:00</time></trkpt><trkpt lat="29.47226169" lon="35.19048044"><ele>676.4</ele><time>2015-11-27T13:44:31.0000000+00:00</time></trkpt><trkpt lat="29.47228499" lon="35.19002371"><ele>675.9</ele><time>2015-11-27T13:44:45.0000000+00:00</time></trkpt><trkpt lat="29.47226345" lon="35.18964887"><ele>675.9</ele><time>2015-11-27T13:44:57.0000000+00:00</time></trkpt><trkpt lat="29.47233729" lon="35.18925961"><ele>675.5</ele><time>2015-11-27T13:45:10.0000000+00:00</time></trkpt><trkpt lat="29.47243117" lon="35.18894495"><ele>675.0</ele><time>2015-11-27T13:45:23.0000000+00:00</time></trkpt><trkpt lat="29.47247148" lon="35.18877673"><ele>675.0</ele><time>2015-11-27T13:45:30.0000000+00:00</time></trkpt><trkpt lat="29.47251985" lon="35.18841597"><ele>675.0</ele><time>2015-11-27T13:45:42.0000000+00:00</time></trkpt><trkpt lat="29.47252228" lon="35.18808271"><ele>674.5</ele><time>2015-11-27T13:45:54.0000000+00:00</time></trkpt><trkpt lat="29.47262194" lon="35.18775816"><ele>673.5</ele><time>2015-11-27T13:46:06.0000000+00:00</time></trkpt><trkpt lat="29.47284624" lon="35.18729883"><ele>673.1</ele><time>2015-11-27T13:46:21.0000000+00:00</time></trkpt><trkpt lat="29.47311035" lon="35.18685753"><ele>672.1</ele><time>2015-11-27T13:46:37.0000000+00:00</time></trkpt><trkpt lat="29.47333692" lon="35.18646559"><ele>671.6</ele><time>2015-11-27T13:46:49.0000000+00:00</time></trkpt><trkpt lat="29.47363129" lon="35.18597692"><ele>670.7</ele><time>2015-11-27T13:47:05.0000000+00:00</time></trkpt><trkpt lat="29.47379851" lon="35.18558834"><ele>669.7</ele><time>2015-11-27T13:47:18.0000000+00:00</time></trkpt><trkpt lat="29.47395743" lon="35.1852249"><ele>669.2</ele><time>2015-11-27T13:47:32.0000000+00:00</time></trkpt><trkpt lat="29.47418257" lon="35.1848255"><ele>668.7</ele><time>2015-11-27T13:47:48.0000000+00:00</time></trkpt><trkpt lat="29.47432506" lon="35.18445158"><ele>667.8</ele><time>2015-11-27T13:48:02.0000000+00:00</time></trkpt><trkpt lat="29.47436554" lon="35.18405219"><ele>667.3</ele><time>2015-11-27T13:48:15.0000000+00:00</time></trkpt><trkpt lat="29.47434216" lon="35.1836294"><ele>667.3</ele><time>2015-11-27T13:48:26.0000000+00:00</time></trkpt><trkpt lat="29.47441785" lon="35.18330544"><ele>666.8</ele><time>2015-11-27T13:48:39.0000000+00:00</time></trkpt><trkpt lat="29.47442841" lon="35.18311895"><ele>666.3</ele><time>2015-11-27T13:48:45.0000000+00:00</time></trkpt><trkpt lat="29.47449756" lon="35.18294443"><ele>665.9</ele><time>2015-11-27T13:48:52.0000000+00:00</time></trkpt><trkpt lat="29.47464072" lon="35.18258795"><ele>664.9</ele><time>2015-11-27T13:49:08.0000000+00:00</time></trkpt><trkpt lat="29.4747527" lon="35.18217883"><ele>664.9</ele><time>2015-11-27T13:49:21.0000000+00:00</time></trkpt><trkpt lat="29.47484524" lon="35.18184464"><ele>664.4</ele><time>2015-11-27T13:49:32.0000000+00:00</time></trkpt><trkpt lat="29.47485723" lon="35.18175001"><ele>664.4</ele><time>2015-11-27T13:49:43.0000000+00:00</time></trkpt><trkpt lat="29.47486804" lon="35.18173115"><ele>664.4</ele><time>2015-11-27T13:50:12.0000000+00:00</time></trkpt><trkpt lat="29.47483434" lon="35.18167357"><ele>663.9</ele><time>2015-11-27T13:50:32.0000000+00:00</time></trkpt><trkpt lat="29.47485287" lon="35.18165052"><ele>664.4</ele><time>2015-11-27T13:50:45.0000000+00:00</time></trkpt><trkpt lat="29.47484935" lon="35.1816356"><ele>664.9</ele><time>2015-11-27T13:50:47.0000000+00:00</time></trkpt><trkpt lat="29.4748133" lon="35.18162713"><ele>664.9</ele><time>2015-11-27T13:51:03.0000000+00:00</time></trkpt><trkpt lat="29.47482252" lon="35.18161808"><ele>664.9</ele><time>2015-11-27T13:51:48.0000000+00:00</time></trkpt><trkpt lat="29.47479185" lon="35.18161724"><ele>664.4</ele><time>2015-11-27T13:52:14.0000000+00:00</time></trkpt><trkpt lat="29.47479193" lon="35.18163602"><ele>663.9</ele><time>2015-11-27T13:52:38.0000000+00:00</time></trkpt><trkpt lat="29.47479109" lon="35.18166175"><ele>663.9</ele><time>2015-11-27T13:53:12.0000000+00:00</time></trkpt><trkpt lat="29.47478187" lon="35.18163468"><ele>663.9</ele><time>2015-11-27T13:54:16.0000000+00:00</time></trkpt><trkpt lat="29.47477869" lon="35.18164247"><ele>664.4</ele><time>2015-11-27T13:54:58.0000000+00:00</time></trkpt><trkpt lat="29.474789" lon="35.18164474"><ele>663.9</ele><time>2015-11-27T13:56:05.0000000+00:00</time></trkpt><trkpt lat="29.47478774" lon="35.1816532"><ele>663.9</ele><time>2015-11-27T13:56:51.0000000+00:00</time></trkpt><trkpt lat="29.47478757" lon="35.18164658"><ele>663.9</ele><time>2015-11-27T13:57:31.0000000+00:00</time></trkpt><trkpt lat="29.47479478" lon="35.18162814"><ele>663.9</ele><time>2015-11-27T13:58:24.0000000+00:00</time></trkpt><trkpt lat="29.47478414" lon="35.1816294"><ele>663.5</ele><time>2015-11-27T13:59:13.0000000+00:00</time></trkpt><trkpt lat="29.4747776" lon="35.18163711"><ele>663.5</ele><time>2015-11-27T14:00:00.0000000+00:00</time></trkpt><trkpt lat="29.47478699" lon="35.18164901"><ele>663.5</ele><time>2015-11-27T14:00:40.0000000+00:00</time></trkpt><trkpt lat="29.47477777" lon="35.18165924"><ele>663.5</ele><time>2015-11-27T14:01:28.0000000+00:00</time></trkpt><trkpt lat="29.47478137" lon="35.18164373"><ele>663.0</ele><time>2015-11-27T14:02:08.0000000+00:00</time></trkpt><trkpt lat="29.47478514" lon="35.18162965"><ele>663.0</ele><time>2015-11-27T14:02:51.0000000+00:00</time></trkpt><trkpt lat="29.47478673" lon="35.18163367"><ele>662.5</ele><time>2015-11-27T14:03:32.0000000+00:00</time></trkpt><trkpt lat="29.47480358" lon="35.18163401"><ele>662.5</ele><time>2015-11-27T14:04:27.0000000+00:00</time></trkpt><trkpt lat="29.47480467" lon="35.18163074"><ele>662.5</ele><time>2015-11-27T14:05:03.0000000+00:00</time></trkpt><trkpt lat="29.47480157" lon="35.18162956"><ele>662.0</ele><time>2015-11-27T14:05:51.0000000+00:00</time></trkpt><trkpt lat="29.4747895" lon="35.18161892"><ele>663.0</ele><time>2015-11-27T14:06:18.0000000+00:00</time></trkpt><trkpt lat="29.47478715" lon="35.18159981"><ele>663.0</ele><time>2015-11-27T14:06:41.0000000+00:00</time></trkpt><trkpt lat="29.47478657" lon="35.18160786"><ele>662.5</ele><time>2015-11-27T14:07:11.0000000+00:00</time></trkpt><trkpt lat="29.47477944" lon="35.18161012"><ele>662.5</ele><time>2015-11-27T14:07:18.0000000+00:00</time></trkpt><trkpt lat="29.47474667" lon="35.18161909"><ele>663.0</ele><time>2015-11-27T14:07:22.0000000+00:00</time></trkpt><trkpt lat="29.47472362" lon="35.18160501"><ele>663.0</ele><time>2015-11-27T14:07:25.0000000+00:00</time></trkpt><trkpt lat="29.47446864" lon="35.18159268"><ele>663.0</ele><time>2015-11-27T14:07:39.0000000+00:00</time></trkpt><trkpt lat="29.47404888" lon="35.18155589"><ele>663.9</ele><time>2015-11-27T14:07:53.0000000+00:00</time></trkpt><trkpt lat="29.47360137" lon="35.18166695"><ele>664.4</ele><time>2015-11-27T14:08:08.0000000+00:00</time></trkpt><trkpt lat="29.47331965" lon="35.18193861"><ele>664.9</ele><time>2015-11-27T14:08:21.0000000+00:00</time></trkpt><trkpt lat="29.47307339" lon="35.18218327"><ele>664.9</ele><time>2015-11-27T14:08:35.0000000+00:00</time></trkpt><trkpt lat="29.47273836" lon="35.1825219"><ele>665.4</ele><time>2015-11-27T14:08:49.0000000+00:00</time></trkpt><trkpt lat="29.4725947" lon="35.1826737"><ele>665.4</ele><time>2015-11-27T14:08:54.0000000+00:00</time></trkpt><trkpt lat="29.47256687" lon="35.18270907"><ele>665.4</ele><time>2015-11-27T14:08:55.0000000+00:00</time></trkpt><trkpt lat="29.47253468" lon="35.18273891"><ele>665.4</ele><time>2015-11-27T14:08:56.0000000+00:00</time></trkpt><trkpt lat="29.47246813" lon="35.18279817"><ele>665.4</ele><time>2015-11-27T14:08:58.0000000+00:00</time></trkpt><trkpt lat="29.47208399" lon="35.18323956"><ele>666.8</ele><time>2015-11-27T14:09:12.0000000+00:00</time></trkpt><trkpt lat="29.47187696" lon="35.18350057"><ele>667.3</ele><time>2015-11-27T14:09:20.0000000+00:00</time></trkpt><trkpt lat="29.47142945" lon="35.18417884"><ele>669.2</ele><time>2015-11-27T14:09:38.0000000+00:00</time></trkpt><trkpt lat="29.47104497" lon="35.18474981"><ele>670.2</ele><time>2015-11-27T14:09:55.0000000+00:00</time></trkpt><trkpt lat="29.4710298" lon="35.18475995"><ele>670.2</ele><time>2015-11-27T14:09:56.0000000+00:00</time></trkpt><trkpt lat="29.47101614" lon="35.18477278"><ele>670.2</ele><time>2015-11-27T14:09:57.0000000+00:00</time></trkpt><trkpt lat="29.47100557" lon="35.18478879"><ele>670.7</ele><time>2015-11-27T14:09:58.0000000+00:00</time></trkpt><trkpt lat="29.47099677" lon="35.18480153"><ele>670.7</ele><time>2015-11-27T14:09:59.0000000+00:00</time></trkpt><trkpt lat="29.47099007" lon="35.18482852"><ele>670.7</ele><time>2015-11-27T14:10:13.0000000+00:00</time></trkpt><trkpt lat="29.47102251" lon="35.18481192"><ele>670.2</ele><time>2015-11-27T14:10:20.0000000+00:00</time></trkpt><trkpt lat="29.47102963" lon="35.18479474"><ele>670.7</ele><time>2015-11-27T14:10:21.0000000+00:00</time></trkpt><trkpt lat="29.47103634" lon="35.18477504"><ele>670.2</ele><time>2015-11-27T14:10:22.0000000+00:00</time></trkpt><trkpt lat="29.47104606" lon="35.18475618"><ele>670.2</ele><time>2015-11-27T14:10:23.0000000+00:00</time></trkpt><trkpt lat="29.47105846" lon="35.18473766"><ele>670.2</ele><time>2015-11-27T14:10:24.0000000+00:00</time></trkpt><trkpt lat="29.4710702" lon="35.18472064"><ele>670.2</ele><time>2015-11-27T14:10:25.0000000+00:00</time></trkpt><trkpt lat="29.47108286" lon="35.18469969"><ele>670.2</ele><time>2015-11-27T14:10:26.0000000+00:00</time></trkpt><trkpt lat="29.47134336" lon="35.18432141"><ele>668.7</ele><time>2015-11-27T14:10:37.0000000+00:00</time></trkpt><trkpt lat="29.47172575" lon="35.18375329"><ele>667.8</ele><time>2015-11-27T14:10:51.0000000+00:00</time></trkpt><trkpt lat="29.47178861" lon="35.18366327"><ele>667.8</ele><time>2015-11-27T14:10:53.0000000+00:00</time></trkpt><trkpt lat="29.47208131" lon="35.18327468"><ele>666.8</ele><time>2015-11-27T14:11:02.0000000+00:00</time></trkpt><trkpt lat="29.47211643" lon="35.18323788"><ele>666.3</ele><time>2015-11-27T14:11:03.0000000+00:00</time></trkpt><trkpt lat="29.47214853" lon="35.18319757"><ele>665.9</ele><time>2015-11-27T14:11:04.0000000+00:00</time></trkpt><trkpt lat="29.47218105" lon="35.183158"><ele>665.9</ele><time>2015-11-27T14:11:05.0000000+00:00</time></trkpt><trkpt lat="29.47221751" lon="35.18311794"><ele>665.9</ele><time>2015-11-27T14:11:06.0000000+00:00</time></trkpt><trkpt lat="29.47281766" lon="35.18249407"><ele>664.9</ele><time>2015-11-27T14:11:22.0000000+00:00</time></trkpt><trkpt lat="29.47333507" lon="35.18196736"><ele>663.9</ele><time>2015-11-27T14:11:37.0000000+00:00</time></trkpt><trkpt lat="29.47336609" lon="35.18192955"><ele>663.9</ele><time>2015-11-27T14:11:38.0000000+00:00</time></trkpt><trkpt lat="29.47339827" lon="35.18189318"><ele>663.9</ele><time>2015-11-27T14:11:39.0000000+00:00</time></trkpt><trkpt lat="29.47343105" lon="35.18186124"><ele>663.9</ele><time>2015-11-27T14:11:40.0000000+00:00</time></trkpt><trkpt lat="29.47346457" lon="35.18183207"><ele>663.9</ele><time>2015-11-27T14:11:41.0000000+00:00</time></trkpt><trkpt lat="29.47381301" lon="35.18159118"><ele>663.5</ele><time>2015-11-27T14:11:51.0000000+00:00</time></trkpt><trkpt lat="29.47385483" lon="35.18158162"><ele>663.5</ele><time>2015-11-27T14:11:52.0000000+00:00</time></trkpt><trkpt lat="29.47389901" lon="35.18157517"><ele>663.5</ele><time>2015-11-27T14:11:53.0000000+00:00</time></trkpt><trkpt lat="29.47394318" lon="35.1815729"><ele>663.5</ele><time>2015-11-27T14:11:54.0000000+00:00</time></trkpt><trkpt lat="29.47398869" lon="35.18157282"><ele>663.5</ele><time>2015-11-27T14:11:55.0000000+00:00</time></trkpt><trkpt lat="29.47426748" lon="35.18161054"><ele>663.0</ele><time>2015-11-27T14:12:01.0000000+00:00</time></trkpt><trkpt lat="29.47513173" lon="35.18165337"><ele>661.5</ele><time>2015-11-27T14:12:19.0000000+00:00</time></trkpt><trkpt lat="29.47518035" lon="35.18164943"><ele>661.0</ele><time>2015-11-27T14:12:20.0000000+00:00</time></trkpt><trkpt lat="29.47527649" lon="35.18162898"><ele>661.0</ele><time>2015-11-27T14:12:22.0000000+00:00</time></trkpt><trkpt lat="29.47531882" lon="35.18160995"><ele>661.0</ele><time>2015-11-27T14:12:23.0000000+00:00</time></trkpt><trkpt lat="29.4755955" lon="35.18125196"><ele>660.6</ele><time>2015-11-27T14:12:34.0000000+00:00</time></trkpt><trkpt lat="29.47578552" lon="35.18055685"><ele>659.6</ele><time>2015-11-27T14:12:48.0000000+00:00</time></trkpt><trkpt lat="29.47580933" lon="35.18051838"><ele>659.1</ele><time>2015-11-27T14:12:49.0000000+00:00</time></trkpt><trkpt lat="29.47583037" lon="35.18047831"><ele>659.1</ele><time>2015-11-27T14:12:50.0000000+00:00</time></trkpt><trkpt lat="29.47584679" lon="35.18043498"><ele>659.1</ele><time>2015-11-27T14:12:51.0000000+00:00</time></trkpt><trkpt lat="29.47586138" lon="35.1803898"><ele>659.6</ele><time>2015-11-27T14:12:52.0000000+00:00</time></trkpt><trkpt lat="29.47587546" lon="35.18034529"><ele>659.6</ele><time>2015-11-27T14:12:53.0000000+00:00</time></trkpt><trkpt lat="29.47623362" lon="35.17954096"><ele>658.2</ele><time>2015-11-27T14:13:09.0000000+00:00</time></trkpt><trkpt lat="29.47664182" lon="35.17876807"><ele>657.2</ele><time>2015-11-27T14:13:24.0000000+00:00</time></trkpt><trkpt lat="29.47703937" lon="35.17815686"><ele>656.2</ele><time>2015-11-27T14:13:36.0000000+00:00</time></trkpt><trkpt lat="29.47708195" lon="35.17811512"><ele>656.2</ele><time>2015-11-27T14:13:37.0000000+00:00</time></trkpt><trkpt lat="29.47738579" lon="35.17783818"><ele>655.8</ele><time>2015-11-27T14:13:44.0000000+00:00</time></trkpt><trkpt lat="29.47742385" lon="35.17779476"><ele>655.3</ele><time>2015-11-27T14:13:45.0000000+00:00</time></trkpt><trkpt lat="29.47753483" lon="35.17766023"><ele>654.8</ele><time>2015-11-27T14:13:48.0000000+00:00</time></trkpt><trkpt lat="29.47756181" lon="35.17760952"><ele>654.8</ele><time>2015-11-27T14:13:49.0000000+00:00</time></trkpt><trkpt lat="29.47758059" lon="35.17755428"><ele>654.8</ele><time>2015-11-27T14:13:50.0000000+00:00</time></trkpt><trkpt lat="29.47759509" lon="35.17749771"><ele>654.8</ele><time>2015-11-27T14:13:51.0000000+00:00</time></trkpt><trkpt lat="29.47760372" lon="35.17743954"><ele>654.3</ele><time>2015-11-27T14:13:52.0000000+00:00</time></trkpt><trkpt lat="29.47760892" lon="35.17738195"><ele>654.3</ele><time>2015-11-27T14:13:53.0000000+00:00</time></trkpt><trkpt lat="29.47763843" lon="35.17655575"><ele>653.8</ele><time>2015-11-27T14:14:07.0000000+00:00</time></trkpt><trkpt lat="29.47791369" lon="35.1757603"><ele>653.8</ele><time>2015-11-27T14:14:21.0000000+00:00</time></trkpt><trkpt lat="29.47822273" lon="35.17506184"><ele>653.8</ele><time>2015-11-27T14:14:34.0000000+00:00</time></trkpt><trkpt lat="29.4785539" lon="35.17429716"><ele>656.7</ele><time>2015-11-27T14:14:52.0000000+00:00</time></trkpt><trkpt lat="29.47878356" lon="35.17376156"><ele>656.2</ele><time>2015-11-27T14:15:07.0000000+00:00</time></trkpt><trkpt lat="29.47898716" lon="35.17322159"><ele>654.8</ele><time>2015-11-27T14:15:20.0000000+00:00</time></trkpt><trkpt lat="29.47936418" lon="35.1722648"><ele>652.9</ele><time>2015-11-27T14:15:35.0000000+00:00</time></trkpt><trkpt lat="29.47983147" lon="35.17105915"><ele>651.4</ele><time>2015-11-27T14:15:52.0000000+00:00</time></trkpt><trkpt lat="29.48017336" lon="35.17018265"><ele>654.3</ele><time>2015-11-27T14:16:09.0000000+00:00</time></trkpt><trkpt lat="29.48025626" lon="35.1699664"><ele>654.8</ele><time>2015-11-27T14:16:14.0000000+00:00</time></trkpt><trkpt lat="29.48049372" lon="35.16935796"><ele>656.2</ele><time>2015-11-27T14:16:30.0000000+00:00</time></trkpt><trkpt lat="29.48054477" lon="35.16923793"><ele>656.2</ele><time>2015-11-27T14:16:33.0000000+00:00</time></trkpt><trkpt lat="29.48081911" lon="35.16856302"><ele>657.7</ele><time>2015-11-27T14:16:50.0000000+00:00</time></trkpt><trkpt lat="29.4810222" lon="35.16805097"><ele>658.2</ele><time>2015-11-27T14:17:04.0000000+00:00</time></trkpt><trkpt lat="29.48117374" lon="35.16766439"><ele>658.2</ele><time>2015-11-27T14:17:17.0000000+00:00</time></trkpt><trkpt lat="29.48130702" lon="35.16731948"><ele>659.1</ele><time>2015-11-27T14:17:28.0000000+00:00</time></trkpt><trkpt lat="29.48159108" lon="35.16661623"><ele>660.1</ele><time>2015-11-27T14:17:47.0000000+00:00</time></trkpt><trkpt lat="29.48193558" lon="35.16575927"><ele>661.0</ele><time>2015-11-27T14:18:07.0000000+00:00</time></trkpt><trkpt lat="29.48231293" lon="35.16481781"><ele>661.5</ele><time>2015-11-27T14:18:27.0000000+00:00</time></trkpt><trkpt lat="29.48250764" lon="35.16432496"><ele>662.0</ele><time>2015-11-27T14:18:40.0000000+00:00</time></trkpt><trkpt lat="29.48273504" lon="35.16377376"><ele>662.0</ele><time>2015-11-27T14:18:53.0000000+00:00</time></trkpt><trkpt lat="29.48298994" lon="35.16314236"><ele>662.5</ele><time>2015-11-27T14:19:08.0000000+00:00</time></trkpt><trkpt lat="29.48305724" lon="35.16296692"><ele>663.0</ele><time>2015-11-27T14:19:12.0000000+00:00</time></trkpt><trkpt lat="29.4830725" lon="35.1629235"><ele>663.0</ele><time>2015-11-27T14:19:13.0000000+00:00</time></trkpt><trkpt lat="29.48327811" lon="35.16240902"><ele>665.4</ele><time>2015-11-27T14:19:28.0000000+00:00</time></trkpt><trkpt lat="29.4834159" lon="35.16206277"><ele>666.8</ele><time>2015-11-27T14:19:41.0000000+00:00</time></trkpt><trkpt lat="29.48357021" lon="35.16165566"><ele>668.7</ele><time>2015-11-27T14:19:57.0000000+00:00</time></trkpt><trkpt lat="29.48372662" lon="35.16125576"><ele>670.7</ele><time>2015-11-27T14:20:13.0000000+00:00</time></trkpt><trkpt lat="29.48390532" lon="35.16079417"><ele>673.1</ele><time>2015-11-27T14:20:32.0000000+00:00</time></trkpt><trkpt lat="29.48404463" lon="35.16045009"><ele>675.0</ele><time>2015-11-27T14:20:47.0000000+00:00</time></trkpt><trkpt lat="29.48424253" lon="35.16030592"><ele>675.9</ele><time>2015-11-27T14:21:00.0000000+00:00</time></trkpt><trkpt lat="29.48425057" lon="35.16033039"><ele>675.9</ele><time>2015-11-27T14:21:16.0000000+00:00</time></trkpt><trkpt lat="29.48426524" lon="35.16033718"><ele>675.9</ele><time>2015-11-27T14:21:17.0000000+00:00</time></trkpt><trkpt lat="29.48427924" lon="35.16034171"><ele>675.9</ele><time>2015-11-27T14:21:18.0000000+00:00</time></trkpt><trkpt lat="29.48429123" lon="35.1603464"><ele>675.9</ele><time>2015-11-27T14:21:19.0000000+00:00</time></trkpt><trkpt lat="29.48430128" lon="35.16035277"><ele>675.9</ele><time>2015-11-27T14:21:20.0000000+00:00</time></trkpt><trkpt lat="29.48431243" lon="35.16035772"><ele>675.9</ele><time>2015-11-27T14:21:21.0000000+00:00</time></trkpt><trkpt lat="29.48432056" lon="35.16036124"><ele>675.5</ele><time>2015-11-27T14:21:22.0000000+00:00</time></trkpt><trkpt lat="29.48434462" lon="35.16037926"><ele>675.0</ele><time>2015-11-27T14:21:38.0000000+00:00</time></trkpt><trkpt lat="29.48434236" lon="35.16037851"><ele>675.0</ele><time>2015-11-27T14:22:09.0000000+00:00</time></trkpt><trkpt lat="29.48434839" lon="35.16039125"><ele>675.0</ele><time>2015-11-27T14:22:15.0000000+00:00</time></trkpt><trkpt lat="29.48435577" lon="35.16039946"><ele>675.5</ele><time>2015-11-27T14:22:16.0000000+00:00</time></trkpt><trkpt lat="29.48437144" lon="35.16040692"><ele>675.0</ele><time>2015-11-27T14:22:17.0000000+00:00</time></trkpt><trkpt lat="29.48438904" lon="35.16041606"><ele>675.0</ele><time>2015-11-27T14:22:18.0000000+00:00</time></trkpt><trkpt lat="29.48441016" lon="35.1604257"><ele>675.0</ele><time>2015-11-27T14:22:19.0000000+00:00</time></trkpt><trkpt lat="29.48484208" lon="35.16063969"><ele>673.1</ele><time>2015-11-27T14:22:29.0000000+00:00</time></trkpt><trkpt lat="29.48585512" lon="35.16118795"><ele>670.2</ele><time>2015-11-27T14:22:44.0000000+00:00</time></trkpt><trkpt lat="29.48663732" lon="35.16159824"><ele>666.8</ele><time>2015-11-27T14:22:55.0000000+00:00</time></trkpt><trkpt lat="29.48713437" lon="35.16185984"><ele>663.5</ele><time>2015-11-27T14:23:01.0000000+00:00</time></trkpt><trkpt lat="29.48743167" lon="35.16201298"><ele>660.6</ele><time>2015-11-27T14:23:04.0000000+00:00</time></trkpt><trkpt lat="29.48775387" lon="35.16218095"><ele>657.2</ele><time>2015-11-27T14:23:07.0000000+00:00</time></trkpt><trkpt lat="29.48830725" lon="35.16247541"><ele>653.4</ele><time>2015-11-27T14:23:12.0000000+00:00</time></trkpt><trkpt lat="29.48877714" lon="35.16271303"><ele>649.5</ele><time>2015-11-27T14:23:16.0000000+00:00</time></trkpt><trkpt lat="29.4893601" lon="35.16301713"><ele>646.1</ele><time>2015-11-27T14:23:21.0000000+00:00</time></trkpt><trkpt lat="29.48992152" lon="35.16331812"><ele>642.8</ele><time>2015-11-27T14:23:26.0000000+00:00</time></trkpt><trkpt lat="29.49084009" lon="35.16380863"><ele>638.9</ele><time>2015-11-27T14:23:35.0000000+00:00</time></trkpt><trkpt lat="29.4909343" lon="35.16385985"><ele>638.9</ele><time>2015-11-27T14:23:36.0000000+00:00</time></trkpt><trkpt lat="29.49189185" lon="35.16437114"><ele>635.1</ele><time>2015-11-27T14:23:47.0000000+00:00</time></trkpt><trkpt lat="29.49252963" lon="35.1646982"><ele>631.7</ele><time>2015-11-27T14:23:54.0000000+00:00</time></trkpt><trkpt lat="29.49302224" lon="35.16494664"><ele>627.9</ele><time>2015-11-27T14:23:59.0000000+00:00</time></trkpt><trkpt lat="29.49332331" lon="35.1650774"><ele>626.4</ele><time>2015-11-27T14:24:02.0000000+00:00</time></trkpt><trkpt lat="29.49342532" lon="35.16510146"><ele>626.0</ele><time>2015-11-27T14:24:03.0000000+00:00</time></trkpt><trkpt lat="29.49352657" lon="35.16511252"><ele>625.5</ele><time>2015-11-27T14:24:04.0000000+00:00</time></trkpt><trkpt lat="29.49362674" lon="35.16511252"><ele>625.0</ele><time>2015-11-27T14:24:05.0000000+00:00</time></trkpt><trkpt lat="29.49372623" lon="35.16510481"><ele>624.5</ele><time>2015-11-27T14:24:06.0000000+00:00</time></trkpt><trkpt lat="29.49431581" lon="35.1650059"><ele>622.1</ele><time>2015-11-27T14:24:12.0000000+00:00</time></trkpt><trkpt lat="29.49440626" lon="35.16496475"><ele>621.6</ele><time>2015-11-27T14:24:13.0000000+00:00</time></trkpt><trkpt lat="29.4944915" lon="35.16491571"><ele>621.2</ele><time>2015-11-27T14:24:14.0000000+00:00</time></trkpt><trkpt lat="29.49457171" lon="35.16485847"><ele>621.2</ele><time>2015-11-27T14:24:15.0000000+00:00</time></trkpt><trkpt lat="29.49464438" lon="35.16479678"><ele>621.2</ele><time>2015-11-27T14:24:16.0000000+00:00</time></trkpt><trkpt lat="29.49471337" lon="35.16473425"><ele>620.7</ele><time>2015-11-27T14:24:17.0000000+00:00</time></trkpt><trkpt lat="29.49542633" lon="35.16409638"><ele>617.8</ele><time>2015-11-27T14:24:28.0000000+00:00</time></trkpt><trkpt lat="29.49585373" lon="35.16367754"><ele>616.3</ele><time>2015-11-27T14:24:36.0000000+00:00</time></trkpt><trkpt lat="29.49589882" lon="35.16361744"><ele>616.8</ele><time>2015-11-27T14:24:37.0000000+00:00</time></trkpt><trkpt lat="29.4959823" lon="35.16349372"><ele>615.9</ele><time>2015-11-27T14:24:39.0000000+00:00</time></trkpt><trkpt lat="29.49602036" lon="35.16343245"><ele>615.9</ele><time>2015-11-27T14:24:40.0000000+00:00</time></trkpt><trkpt lat="29.49653325" lon="35.16257197"><ele>613.9</ele><time>2015-11-27T14:24:55.0000000+00:00</time></trkpt><trkpt lat="29.49664188" lon="35.16237667"><ele>613.5</ele><time>2015-11-27T14:24:59.0000000+00:00</time></trkpt><trkpt lat="29.49666333" lon="35.16232696"><ele>613.5</ele><time>2015-11-27T14:25:00.0000000+00:00</time></trkpt><trkpt lat="29.49674648" lon="35.16217743"><ele>612.5</ele><time>2015-11-27T14:25:03.0000000+00:00</time></trkpt><trkpt lat="29.49677691" lon="35.16212915"><ele>613.0</ele><time>2015-11-27T14:25:04.0000000+00:00</time></trkpt><trkpt lat="29.49680457" lon="35.16207886"><ele>612.5</ele><time>2015-11-27T14:25:05.0000000+00:00</time></trkpt><trkpt lat="29.49703675" lon="35.16170519"><ele>611.5</ele><time>2015-11-27T14:25:13.0000000+00:00</time></trkpt><trkpt lat="29.4973597" lon="35.16135508"><ele>611.5</ele><time>2015-11-27T14:25:22.0000000+00:00</time></trkpt><trkpt lat="29.49809161" lon="35.16089475"><ele>609.1</ele><time>2015-11-27T14:25:37.0000000+00:00</time></trkpt><trkpt lat="29.4989407" lon="35.1604433"><ele>607.2</ele><time>2015-11-27T14:25:54.0000000+00:00</time></trkpt><trkpt lat="29.49911102" lon="35.16032956"><ele>606.7</ele><time>2015-11-27T14:25:58.0000000+00:00</time></trkpt><trkpt lat="29.49987302" lon="35.15983134"><ele>604.8</ele><time>2015-11-27T14:26:15.0000000+00:00</time></trkpt><trkpt lat="29.49992096" lon="35.15980141"><ele>605.3</ele><time>2015-11-27T14:26:16.0000000+00:00</time></trkpt><trkpt lat="29.50007125" lon="35.15971642"><ele>604.8</ele><time>2015-11-27T14:26:19.0000000+00:00</time></trkpt><trkpt lat="29.50088128" lon="35.15922071"><ele>602.9</ele><time>2015-11-27T14:26:35.0000000+00:00</time></trkpt><trkpt lat="29.50113944" lon="35.15908669"><ele>602.4</ele><time>2015-11-27T14:26:40.0000000+00:00</time></trkpt><trkpt lat="29.50124396" lon="35.15902164"><ele>602.4</ele><time>2015-11-27T14:26:42.0000000+00:00</time></trkpt><trkpt lat="29.50129249" lon="35.15898074"><ele>602.4</ele><time>2015-11-27T14:26:43.0000000+00:00</time></trkpt><trkpt lat="29.50133926" lon="35.15893456"><ele>601.9</ele><time>2015-11-27T14:26:44.0000000+00:00</time></trkpt><trkpt lat="29.5013826" lon="35.15888058"><ele>601.9</ele><time>2015-11-27T14:26:45.0000000+00:00</time></trkpt><trkpt lat="29.5014204" lon="35.15882048"><ele>601.9</ele><time>2015-11-27T14:26:46.0000000+00:00</time></trkpt><trkpt lat="29.50145619" lon="35.15875527"><ele>601.9</ele><time>2015-11-27T14:26:47.0000000+00:00</time></trkpt><trkpt lat="29.50173472" lon="35.15795077"><ele>600.5</ele><time>2015-11-27T14:26:59.0000000+00:00</time></trkpt><trkpt lat="29.50200437" lon="35.1568193"><ele>598.1</ele><time>2015-11-27T14:27:17.0000000+00:00</time></trkpt><trkpt lat="29.50224375" lon="35.15575237"><ele>595.7</ele><time>2015-11-27T14:27:34.0000000+00:00</time></trkpt><trkpt lat="29.50257886" lon="35.15457102"><ele>593.3</ele><time>2015-11-27T14:27:52.0000000+00:00</time></trkpt><trkpt lat="29.50290752" lon="35.15353041"><ele>591.4</ele><time>2015-11-27T14:28:08.0000000+00:00</time></trkpt><trkpt lat="29.50298312" lon="35.15326973"><ele>590.4</ele><time>2015-11-27T14:28:12.0000000+00:00</time></trkpt><trkpt lat="29.50300575" lon="35.15320804"><ele>590.9</ele><time>2015-11-27T14:28:13.0000000+00:00</time></trkpt><trkpt lat="29.50334254" lon="35.15212141"><ele>588.5</ele><time>2015-11-27T14:28:30.0000000+00:00</time></trkpt><trkpt lat="29.50369525" lon="35.15111055"><ele>586.1</ele><time>2015-11-27T14:28:46.0000000+00:00</time></trkpt><trkpt lat="29.50401904" lon="35.15012702"><ele>584.6</ele><time>2015-11-27T14:29:01.0000000+00:00</time></trkpt><trkpt lat="29.50425424" lon="35.14945865"><ele>583.2</ele><time>2015-11-27T14:29:12.0000000+00:00</time></trkpt><trkpt lat="29.50428131" lon="35.14939738"><ele>583.2</ele><time>2015-11-27T14:29:13.0000000+00:00</time></trkpt><trkpt lat="29.50430294" lon="35.14933585"><ele>582.7</ele><time>2015-11-27T14:29:14.0000000+00:00</time></trkpt><trkpt lat="29.504659" lon="35.14832147"><ele>580.3</ele><time>2015-11-27T14:29:30.0000000+00:00</time></trkpt><trkpt lat="29.5051195" lon="35.14729913"><ele>578.4</ele><time>2015-11-27T14:29:46.0000000+00:00</time></trkpt><trkpt lat="29.50515093" lon="35.14724339"><ele>578.4</ele><time>2015-11-27T14:29:47.0000000+00:00</time></trkpt><trkpt lat="29.50567975" lon="35.14629171"><ele>576.5</ele><time>2015-11-27T14:30:03.0000000+00:00</time></trkpt><trkpt lat="29.50587614" lon="35.14591394"><ele>575.5</ele><time>2015-11-27T14:30:09.0000000+00:00</time></trkpt><trkpt lat="29.5059048" lon="35.14584932"><ele>575.0</ele><time>2015-11-27T14:30:10.0000000+00:00</time></trkpt><trkpt lat="29.50593908" lon="35.14579081"><ele>575.0</ele><time>2015-11-27T14:30:11.0000000+00:00</time></trkpt><trkpt lat="29.50597328" lon="35.14573189"><ele>575.0</ele><time>2015-11-27T14:30:12.0000000+00:00</time></trkpt><trkpt lat="29.50600463" lon="35.14567053"><ele>574.5</ele><time>2015-11-27T14:30:13.0000000+00:00</time></trkpt><trkpt lat="29.50634192" lon="35.14518287"><ele>573.6</ele><time>2015-11-27T14:30:22.0000000+00:00</time></trkpt><trkpt lat="29.50697945" lon="35.14447695"><ele>571.2</ele><time>2015-11-27T14:30:38.0000000+00:00</time></trkpt><trkpt lat="29.50703728" lon="35.14440998"><ele>570.7</ele><time>2015-11-27T14:30:42.0000000+00:00</time></trkpt><trkpt lat="29.50704675" lon="35.14439036"><ele>570.7</ele><time>2015-11-27T14:30:43.0000000+00:00</time></trkpt><trkpt lat="29.50706033" lon="35.14437368"><ele>570.7</ele><time>2015-11-27T14:30:44.0000000+00:00</time></trkpt><trkpt lat="29.50708707" lon="35.14436429"><ele>570.7</ele><time>2015-11-27T14:30:52.0000000+00:00</time></trkpt><trkpt lat="29.50710987" lon="35.1443358"><ele>570.7</ele><time>2015-11-27T14:31:17.0000000+00:00</time></trkpt><trkpt lat="29.5073765" lon="35.14401309"><ele>569.7</ele><time>2015-11-27T14:31:32.0000000+00:00</time></trkpt><trkpt lat="29.50765578" lon="35.14369726"><ele>568.8</ele><time>2015-11-27T14:31:42.0000000+00:00</time></trkpt><trkpt lat="29.50788" lon="35.14346533"><ele>567.8</ele><time>2015-11-27T14:31:49.0000000+00:00</time></trkpt><trkpt lat="29.50791436" lon="35.14343063"><ele>567.8</ele><time>2015-11-27T14:31:50.0000000+00:00</time></trkpt><trkpt lat="29.50794923" lon="35.14339602"><ele>567.3</ele><time>2015-11-27T14:31:51.0000000+00:00</time></trkpt><trkpt lat="29.50860377" lon="35.14278699"><ele>565.9</ele><time>2015-11-27T14:32:07.0000000+00:00</time></trkpt><trkpt lat="29.50932504" lon="35.1420322"><ele>563.5</ele><time>2015-11-27T14:32:24.0000000+00:00</time></trkpt><trkpt lat="29.51014588" lon="35.14126651"><ele>561.6</ele><time>2015-11-27T14:32:43.0000000+00:00</time></trkpt><trkpt lat="29.51098893" lon="35.1405279"><ele>559.1</ele><time>2015-11-27T14:33:02.0000000+00:00</time></trkpt><trkpt lat="29.51166786" lon="35.13997427"><ele>557.7</ele><time>2015-11-27T14:33:17.0000000+00:00</time></trkpt><trkpt lat="29.51194061" lon="35.13974712"><ele>556.7</ele><time>2015-11-27T14:33:23.0000000+00:00</time></trkpt><trkpt lat="29.51252969" lon="35.13927061"><ele>555.3</ele><time>2015-11-27T14:33:36.0000000+00:00</time></trkpt><trkpt lat="29.51315339" lon="35.13847282"><ele>552.9</ele><time>2015-11-27T14:33:52.0000000+00:00</time></trkpt><trkpt lat="29.513719" lon="35.13757688"><ele>550.5</ele><time>2015-11-27T14:34:09.0000000+00:00</time></trkpt><trkpt lat="29.51420087" lon="35.13672846"><ele>548.6</ele><time>2015-11-27T14:34:25.0000000+00:00</time></trkpt><trkpt lat="29.51465526" lon="35.13603997"><ele>547.1</ele><time>2015-11-27T14:34:39.0000000+00:00</time></trkpt><trkpt lat="29.51480429" lon="35.13587225"><ele>546.7</ele><time>2015-11-27T14:34:43.0000000+00:00</time></trkpt><trkpt lat="29.51559152" lon="35.13523674"><ele>545.2</ele><time>2015-11-27T14:35:01.0000000+00:00</time></trkpt><trkpt lat="29.51567693" lon="35.13517287"><ele>544.7</ele><time>2015-11-27T14:35:03.0000000+00:00</time></trkpt><trkpt lat="29.51571808" lon="35.13513817"><ele>544.7</ele><time>2015-11-27T14:35:04.0000000+00:00</time></trkpt><trkpt lat="29.51576024" lon="35.13510673"><ele>544.7</ele><time>2015-11-27T14:35:05.0000000+00:00</time></trkpt><trkpt lat="29.51630448" lon="35.13473198"><ele>543.3</ele><time>2015-11-27T14:35:17.0000000+00:00</time></trkpt><trkpt lat="29.51709179" lon="35.13442939"><ele>540.9</ele><time>2015-11-27T14:35:31.0000000+00:00</time></trkpt><trkpt lat="29.51714477" lon="35.13439964"><ele>540.4</ele><time>2015-11-27T14:35:32.0000000+00:00</time></trkpt><trkpt lat="29.51719221" lon="35.13436552"><ele>540.4</ele><time>2015-11-27T14:35:33.0000000+00:00</time></trkpt><trkpt lat="29.51729187" lon="35.13430567"><ele>540.4</ele><time>2015-11-27T14:35:35.0000000+00:00</time></trkpt><trkpt lat="29.51734417" lon="35.13428187"><ele>540.4</ele><time>2015-11-27T14:35:36.0000000+00:00</time></trkpt><trkpt lat="29.51750955" lon="35.13422772"><ele>539.4</ele><time>2015-11-27T14:35:39.0000000+00:00</time></trkpt><trkpt lat="29.51756646" lon="35.13421406"><ele>539.4</ele><time>2015-11-27T14:35:40.0000000+00:00</time></trkpt><trkpt lat="29.51762505" lon="35.13420526"><ele>539.4</ele><time>2015-11-27T14:35:41.0000000+00:00</time></trkpt><trkpt lat="29.51768448" lon="35.13420023"><ele>539.0</ele><time>2015-11-27T14:35:42.0000000+00:00</time></trkpt><trkpt lat="29.51774474" lon="35.13419822"><ele>539.0</ele><time>2015-11-27T14:35:43.0000000+00:00</time></trkpt><trkpt lat="29.5186411" lon="35.13434121"><ele>536.6</ele><time>2015-11-27T14:35:58.0000000+00:00</time></trkpt><trkpt lat="29.51869701" lon="35.13435379"><ele>536.6</ele><time>2015-11-27T14:35:59.0000000+00:00</time></trkpt><trkpt lat="29.5196238" lon="35.13457054"><ele>534.2</ele><time>2015-11-27T14:36:17.0000000+00:00</time></trkpt><trkpt lat="29.52041756" lon="35.13502426"><ele>532.2</ele><time>2015-11-27T14:36:33.0000000+00:00</time></trkpt><trkpt lat="29.52119683" lon="35.13542231"><ele>530.3</ele><time>2015-11-27T14:36:47.0000000+00:00</time></trkpt><trkpt lat="29.52159078" lon="35.13552935"><ele>529.8</ele><time>2015-11-27T14:36:54.0000000+00:00</time></trkpt><trkpt lat="29.52164551" lon="35.13552482"><ele>529.8</ele><time>2015-11-27T14:36:55.0000000+00:00</time></trkpt><trkpt lat="29.52169974" lon="35.1355156"><ele>529.8</ele><time>2015-11-27T14:36:56.0000000+00:00</time></trkpt><trkpt lat="29.52175297" lon="35.13549959"><ele>529.8</ele><time>2015-11-27T14:36:57.0000000+00:00</time></trkpt><trkpt lat="29.52180418" lon="35.13547353"><ele>529.8</ele><time>2015-11-27T14:36:58.0000000+00:00</time></trkpt><trkpt lat="29.52185112" lon="35.13543941"><ele>530.3</ele><time>2015-11-27T14:36:59.0000000+00:00</time></trkpt><trkpt lat="29.52189077" lon="35.13540152"><ele>530.3</ele><time>2015-11-27T14:37:00.0000000+00:00</time></trkpt><trkpt lat="29.52211683" lon="35.13518888"><ele>532.2</ele><time>2015-11-27T14:37:10.0000000+00:00</time></trkpt><trkpt lat="29.52243861" lon="35.13481001"><ele>531.8</ele><time>2015-11-27T14:37:24.0000000+00:00</time></trkpt><trkpt lat="29.52246694" lon="35.13476928"><ele>531.8</ele><time>2015-11-27T14:37:25.0000000+00:00</time></trkpt><trkpt lat="29.52249586" lon="35.13472846"><ele>531.8</ele><time>2015-11-27T14:37:26.0000000+00:00</time></trkpt><trkpt lat="29.52264975" lon="35.13452587"><ele>531.3</ele><time>2015-11-27T14:37:31.0000000+00:00</time></trkpt><trkpt lat="29.5227256" lon="35.13444305"><ele>530.8</ele><time>2015-11-27T14:37:33.0000000+00:00</time></trkpt><trkpt lat="29.52342826" lon="35.13353286"><ele>529.3</ele><time>2015-11-27T14:37:50.0000000+00:00</time></trkpt><trkpt lat="29.52418313" lon="35.13248102"><ele>527.4</ele><time>2015-11-27T14:38:08.0000000+00:00</time></trkpt><trkpt lat="29.52470382" lon="35.13176059"><ele>527.9</ele><time>2015-11-27T14:38:22.0000000+00:00</time></trkpt><trkpt lat="29.52498947" lon="35.13136245"><ele>529.8</ele><time>2015-11-27T14:38:35.0000000+00:00</time></trkpt><trkpt lat="29.52518955" lon="35.13103615"><ele>532.2</ele><time>2015-11-27T14:38:49.0000000+00:00</time></trkpt><trkpt lat="29.52530958" lon="35.13076994"><ele>534.6</ele><time>2015-11-27T14:39:03.0000000+00:00</time></trkpt><trkpt lat="29.52537621" lon="35.13048395"><ele>535.6</ele><time>2015-11-27T14:39:16.0000000+00:00</time></trkpt><trkpt lat="29.52526063" lon="35.1299532"><ele>535.1</ele><time>2015-11-27T14:39:31.0000000+00:00</time></trkpt><trkpt lat="29.52505494" lon="35.12947703"><ele>537.5</ele><time>2015-11-27T14:39:46.0000000+00:00</time></trkpt><trkpt lat="29.52502375" lon="35.12898853"><ele>539.9</ele><time>2015-11-27T14:40:02.0000000+00:00</time></trkpt><trkpt lat="29.52537932" lon="35.1284717"><ele>538.0</ele><time>2015-11-27T14:40:18.0000000+00:00</time></trkpt><trkpt lat="29.52559842" lon="35.12829686"><ele>535.1</ele><time>2015-11-27T14:40:22.0000000+00:00</time></trkpt><trkpt lat="29.52610125" lon="35.12798362"><ele>532.7</ele><time>2015-11-27T14:40:29.0000000+00:00</time></trkpt><trkpt lat="29.52677725" lon="35.12769512"><ele>532.2</ele><time>2015-11-27T14:40:38.0000000+00:00</time></trkpt><trkpt lat="29.52684565" lon="35.12766561"><ele>532.2</ele><time>2015-11-27T14:40:39.0000000+00:00</time></trkpt><trkpt lat="29.52691714" lon="35.12764156"><ele>531.3</ele><time>2015-11-27T14:40:40.0000000+00:00</time></trkpt><trkpt lat="29.52754604" lon="35.12741642"><ele>527.9</ele><time>2015-11-27T14:40:48.0000000+00:00</time></trkpt><trkpt lat="29.52789322" lon="35.12727292"><ele>526.0</ele><time>2015-11-27T14:40:52.0000000+00:00</time></trkpt><trkpt lat="29.52879427" lon="35.12686791"><ele>522.6</ele><time>2015-11-27T14:41:03.0000000+00:00</time></trkpt><trkpt lat="29.5288796" lon="35.12682667"><ele>522.6</ele><time>2015-11-27T14:41:04.0000000+00:00</time></trkpt><trkpt lat="29.53001836" lon="35.12640229"><ele>519.7</ele><time>2015-11-27T14:41:18.0000000+00:00</time></trkpt><trkpt lat="29.53054584" lon="35.12638494"><ele>516.9</ele><time>2015-11-27T14:41:23.0000000+00:00</time></trkpt><trkpt lat="29.53112754" lon="35.12647052"><ele>520.2</ele><time>2015-11-27T14:41:30.0000000+00:00</time></trkpt><trkpt lat="29.53124145" lon="35.12649659"><ele>521.2</ele><time>2015-11-27T14:41:32.0000000+00:00</time></trkpt><trkpt lat="29.53165971" lon="35.12656817"><ele>524.1</ele><time>2015-11-27T14:41:43.0000000+00:00</time></trkpt><trkpt lat="29.53195869" lon="35.12652953"><ele>526.5</ele><time>2015-11-27T14:41:58.0000000+00:00</time></trkpt><trkpt lat="29.53215944" lon="35.12640917"><ele>526.5</ele><time>2015-11-27T14:42:08.0000000+00:00</time></trkpt><trkpt lat="29.53234057" lon="35.1259169"><ele>525.5</ele><time>2015-11-27T14:42:23.0000000+00:00</time></trkpt><trkpt lat="29.53236186" lon="35.12545765"><ele>526.9</ele><time>2015-11-27T14:42:36.0000000+00:00</time></trkpt><trkpt lat="29.53228936" lon="35.12507225"><ele>530.3</ele><time>2015-11-27T14:42:50.0000000+00:00</time></trkpt><trkpt lat="29.53222976" lon="35.12465894"><ele>532.7</ele><time>2015-11-27T14:43:06.0000000+00:00</time></trkpt><trkpt lat="29.53222062" lon="35.12418461"><ele>535.1</ele><time>2015-11-27T14:43:24.0000000+00:00</time></trkpt><trkpt lat="29.53220721" lon="35.12407254"><ele>535.6</ele><time>2015-11-27T14:43:36.0000000+00:00</time></trkpt><trkpt lat="29.53221308" lon="35.12406827"><ele>535.6</ele><time>2015-11-27T14:44:03.0000000+00:00</time></trkpt><trkpt lat="29.53221643" lon="35.12405452"><ele>535.6</ele><time>2015-11-27T14:44:04.0000000+00:00</time></trkpt><trkpt lat="29.53221761" lon="35.12403818"><ele>536.1</ele><time>2015-11-27T14:44:05.0000000+00:00</time></trkpt><trkpt lat="29.53232741" lon="35.12378463"><ele>538.0</ele><time>2015-11-27T14:44:18.0000000+00:00</time></trkpt><trkpt lat="29.53233579" lon="35.12378974"><ele>538.5</ele><time>2015-11-27T14:44:19.0000000+00:00</time></trkpt><trkpt lat="29.53234233" lon="35.12379929"><ele>538.0</ele><time>2015-11-27T14:44:20.0000000+00:00</time></trkpt><trkpt lat="29.5323373" lon="35.12380692"><ele>538.0</ele><time>2015-11-27T14:44:32.0000000+00:00</time></trkpt><trkpt lat="29.53236706" lon="35.12381312"><ele>538.0</ele><time>2015-11-27T14:44:47.0000000+00:00</time></trkpt><trkpt lat="29.53237628" lon="35.12382058"><ele>538.0</ele><time>2015-11-27T14:44:48.0000000+00:00</time></trkpt><trkpt lat="29.5323855" lon="35.1238298"><ele>538.0</ele><time>2015-11-27T14:44:49.0000000+00:00</time></trkpt><trkpt lat="29.53256789" lon="35.12408881"><ele>536.1</ele><time>2015-11-27T14:45:02.0000000+00:00</time></trkpt><trkpt lat="29.53293166" lon="35.12468736"><ele>533.2</ele><time>2015-11-27T14:45:13.0000000+00:00</time></trkpt><trkpt lat="29.53331949" lon="35.12541683"><ele>529.3</ele><time>2015-11-27T14:45:23.0000000+00:00</time></trkpt><trkpt lat="29.53368796" lon="35.12615746"><ele>526.0</ele><time>2015-11-27T14:45:32.0000000+00:00</time></trkpt><trkpt lat="29.53404788" lon="35.12686213"><ele>523.1</ele><time>2015-11-27T14:45:40.0000000+00:00</time></trkpt><trkpt lat="29.53409859" lon="35.12695852"><ele>522.6</ele><time>2015-11-27T14:45:41.0000000+00:00</time></trkpt><trkpt lat="29.53432943" lon="35.12735632"><ele>521.2</ele><time>2015-11-27T14:45:45.0000000+00:00</time></trkpt><trkpt lat="29.53475213" lon="35.12793727"><ele>518.3</ele><time>2015-11-27T14:45:51.0000000+00:00</time></trkpt><trkpt lat="29.53526074" lon="35.12844362"><ele>514.0</ele><time>2015-11-27T14:45:57.0000000+00:00</time></trkpt><trkpt lat="29.53535143" lon="35.12851847"><ele>513.5</ele><time>2015-11-27T14:45:58.0000000+00:00</time></trkpt><trkpt lat="29.53603012" lon="35.12898384"><ele>510.6</ele><time>2015-11-27T14:46:05.0000000+00:00</time></trkpt><trkpt lat="29.53633773" lon="35.12914661"><ele>509.2</ele><time>2015-11-27T14:46:08.0000000+00:00</time></trkpt><trkpt lat="29.53696109" lon="35.12936848"><ele>505.8</ele><time>2015-11-27T14:46:14.0000000+00:00</time></trkpt><trkpt lat="29.53759275" lon="35.12950268"><ele>502.4</ele><time>2015-11-27T14:46:20.0000000+00:00</time></trkpt><trkpt lat="29.53769652" lon="35.1295207"><ele>502.0</ele><time>2015-11-27T14:46:21.0000000+00:00</time></trkpt><trkpt lat="29.53790708" lon="35.12954802"><ele>501.0</ele><time>2015-11-27T14:46:23.0000000+00:00</time></trkpt><trkpt lat="29.53811863" lon="35.12957342"><ele>500.0</ele><time>2015-11-27T14:46:25.0000000+00:00</time></trkpt><trkpt lat="29.53874937" lon="35.12966051"><ele>495.7</ele><time>2015-11-27T14:46:31.0000000+00:00</time></trkpt><trkpt lat="29.53958865" lon="35.12977785"><ele>492.3</ele><time>2015-11-27T14:46:39.0000000+00:00</time></trkpt><trkpt lat="29.54031419" lon="35.12987844"><ele>489.0</ele><time>2015-11-27T14:46:46.0000000+00:00</time></trkpt><trkpt lat="29.54092062" lon="35.12996553"><ele>485.6</ele><time>2015-11-27T14:46:52.0000000+00:00</time></trkpt><trkpt lat="29.5415263" lon="35.13006644"><ele>482.2</ele><time>2015-11-27T14:46:58.0000000+00:00</time></trkpt><trkpt lat="29.54212829" lon="35.13015856"><ele>478.4</ele><time>2015-11-27T14:47:04.0000000+00:00</time></trkpt><trkpt lat="29.54261092" lon="35.1302376"><ele>475.0</ele><time>2015-11-27T14:47:09.0000000+00:00</time></trkpt><trkpt lat="29.54310821" lon="35.13037339"><ele>471.7</ele><time>2015-11-27T14:47:14.0000000+00:00</time></trkpt><trkpt lat="29.54360534" lon="35.13058671"><ele>468.3</ele><time>2015-11-27T14:47:19.0000000+00:00</time></trkpt><trkpt lat="29.54398127" lon="35.13083012"><ele>464.9</ele><time>2015-11-27T14:47:23.0000000+00:00</time></trkpt><trkpt lat="29.54439341" lon="35.13117311"><ele>461.6</ele><time>2015-11-27T14:47:28.0000000+00:00</time></trkpt><trkpt lat="29.54447304" lon="35.13124536"><ele>461.1</ele><time>2015-11-27T14:47:29.0000000+00:00</time></trkpt><trkpt lat="29.54471067" lon="35.13146513"><ele>460.1</ele><time>2015-11-27T14:47:32.0000000+00:00</time></trkpt><trkpt lat="29.5457201" lon="35.13236543"><ele>456.8</ele><time>2015-11-27T14:47:46.0000000+00:00</time></trkpt><trkpt lat="29.54660749" lon="35.13323346"><ele>453.4</ele><time>2015-11-27T14:47:59.0000000+00:00</time></trkpt><trkpt lat="29.54745188" lon="35.13399638"><ele>454.8</ele><time>2015-11-27T14:48:13.0000000+00:00</time></trkpt><trkpt lat="29.54794055" lon="35.13432235"><ele>457.2</ele><time>2015-11-27T14:48:26.0000000+00:00</time></trkpt><trkpt lat="29.54829921" lon="35.13445873"><ele>460.6</ele><time>2015-11-27T14:48:39.0000000+00:00</time></trkpt><trkpt lat="29.54877245" lon="35.1345941"><ele>462.5</ele><time>2015-11-27T14:48:56.0000000+00:00</time></trkpt><trkpt lat="29.5491607" lon="35.13471228"><ele>464.9</ele><time>2015-11-27T14:49:11.0000000+00:00</time></trkpt><trkpt lat="29.54957351" lon="35.13483415"><ele>467.8</ele><time>2015-11-27T14:49:27.0000000+00:00</time></trkpt><trkpt lat="29.5500429" lon="35.13496575"><ele>470.7</ele><time>2015-11-27T14:49:45.0000000+00:00</time></trkpt><trkpt lat="29.5503226" lon="35.13507631"><ele>472.1</ele><time>2015-11-27T14:49:57.0000000+00:00</time></trkpt><trkpt lat="29.55067137" lon="35.13532072"><ele>474.1</ele><time>2015-11-27T14:50:12.0000000+00:00</time></trkpt><trkpt lat="29.55096155" lon="35.13578609"><ele>475.0</ele><time>2015-11-27T14:50:28.0000000+00:00</time></trkpt><trkpt lat="29.55096365" lon="35.13616512"><ele>474.6</ele><time>2015-11-27T14:50:38.0000000+00:00</time></trkpt><trkpt lat="29.55083557" lon="35.13641389"><ele>473.6</ele><time>2015-11-27T14:50:43.0000000+00:00</time></trkpt><trkpt lat="29.55079693" lon="35.13646494"><ele>473.1</ele><time>2015-11-27T14:50:44.0000000+00:00</time></trkpt><trkpt lat="29.5507515" lon="35.1365128"><ele>472.6</ele><time>2015-11-27T14:50:45.0000000+00:00</time></trkpt><trkpt lat="29.55069979" lon="35.13655647"><ele>472.6</ele><time>2015-11-27T14:50:46.0000000+00:00</time></trkpt><trkpt lat="29.55064246" lon="35.13659553"><ele>472.1</ele><time>2015-11-27T14:50:47.0000000+00:00</time></trkpt><trkpt lat="29.5505816" lon="35.13662688"><ele>471.7</ele><time>2015-11-27T14:50:48.0000000+00:00</time></trkpt><trkpt lat="29.55051756" lon="35.13665068"><ele>471.7</ele><time>2015-11-27T14:50:49.0000000+00:00</time></trkpt><trkpt lat="29.55045093" lon="35.13666661"><ele>471.7</ele><time>2015-11-27T14:50:50.0000000+00:00</time></trkpt><trkpt lat="29.55038278" lon="35.13667482"><ele>471.2</ele><time>2015-11-27T14:50:51.0000000+00:00</time></trkpt><trkpt lat="29.55031598" lon="35.13667415"><ele>471.2</ele><time>2015-11-27T14:50:52.0000000+00:00</time></trkpt><trkpt lat="29.55025077" lon="35.13666543"><ele>471.2</ele><time>2015-11-27T14:50:53.0000000+00:00</time></trkpt><trkpt lat="29.55018765" lon="35.13664959"><ele>470.7</ele><time>2015-11-27T14:50:54.0000000+00:00</time></trkpt><trkpt lat="29.55012764" lon="35.13662461"><ele>470.7</ele><time>2015-11-27T14:50:55.0000000+00:00</time></trkpt><trkpt lat="29.5500714" lon="35.13659477"><ele>470.7</ele><time>2015-11-27T14:50:56.0000000+00:00</time></trkpt><trkpt lat="29.55001834" lon="35.13656242"><ele>470.7</ele><time>2015-11-27T14:50:57.0000000+00:00</time></trkpt><trkpt lat="29.54963939" lon="35.13626905"><ele>469.7</ele><time>2015-11-27T14:51:08.0000000+00:00</time></trkpt><trkpt lat="29.54926036" lon="35.1359357"><ele>468.8</ele><time>2015-11-27T14:51:22.0000000+00:00</time></trkpt><trkpt lat="29.54889349" lon="35.1354954"><ele>468.3</ele><time>2015-11-27T14:51:37.0000000+00:00</time></trkpt><trkpt lat="29.54861219" lon="35.13499869"><ele>467.8</ele><time>2015-11-27T14:51:50.0000000+00:00</time></trkpt><trkpt lat="29.54861739" lon="35.13499676"><ele>467.8</ele><time>2015-11-27T14:52:06.0000000+00:00</time></trkpt><trkpt lat="29.5486173" lon="35.13499081"><ele>467.8</ele><time>2015-11-27T14:52:35.0000000+00:00</time></trkpt><trkpt lat="29.5486168" lon="35.13495745"><ele>467.8</ele><time>2015-11-27T14:52:53.0000000+00:00</time></trkpt><trkpt lat="29.54862501" lon="35.13494932"><ele>467.8</ele><time>2015-11-27T14:53:08.0000000+00:00</time></trkpt><trkpt lat="29.54861194" lon="35.13496684"><ele>467.8</ele><time>2015-11-27T14:53:50.0000000+00:00</time></trkpt><trkpt lat="29.54861177" lon="35.13495569"><ele>467.3</ele><time>2015-11-27T14:54:31.0000000+00:00</time></trkpt><trkpt lat="29.54860565" lon="35.1349593"><ele>467.3</ele><time>2015-11-27T14:55:16.0000000+00:00</time></trkpt><trkpt lat="29.54860264" lon="35.13495133"><ele>467.3</ele><time>2015-11-27T14:56:00.0000000+00:00</time></trkpt><trkpt lat="29.54859878" lon="35.13494169"><ele>467.3</ele><time>2015-11-27T14:56:32.0000000+00:00</time></trkpt><trkpt lat="29.54859199" lon="35.1349479"><ele>467.3</ele><time>2015-11-27T14:57:19.0000000+00:00</time></trkpt><trkpt lat="29.5485992" lon="35.13494278"><ele>466.9</ele><time>2015-11-27T14:58:00.0000000+00:00</time></trkpt><trkpt lat="29.54857472" lon="35.13492124"><ele>467.3</ele><time>2015-11-27T14:58:31.0000000+00:00</time></trkpt><trkpt lat="29.54848923" lon="35.1347293"><ele>466.9</ele><time>2015-11-27T14:58:42.0000000+00:00</time></trkpt><trkpt lat="29.54826778" lon="35.13400971"><ele>466.9</ele><time>2015-11-27T14:58:58.0000000+00:00</time></trkpt><trkpt lat="29.54813811" lon="35.13287505"><ele>465.9</ele><time>2015-11-27T14:59:18.0000000+00:00</time></trkpt><trkpt lat="29.54833215" lon="35.13170284"><ele>464.0</ele><time>2015-11-27T14:59:35.0000000+00:00</time></trkpt><trkpt lat="29.54883289" lon="35.13088292"><ele>460.6</ele><time>2015-11-27T14:59:47.0000000+00:00</time></trkpt><trkpt lat="29.54932432" lon="35.13047749"><ele>457.2</ele><time>2015-11-27T14:59:54.0000000+00:00</time></trkpt><trkpt lat="29.54976889" lon="35.13025152"><ele>454.4</ele><time>2015-11-27T14:59:59.0000000+00:00</time></trkpt><trkpt lat="29.54986135" lon="35.13020835"><ele>453.9</ele><time>2015-11-27T15:00:00.0000000+00:00</time></trkpt><trkpt lat="29.55033995" lon="35.1299812"><ele>451.0</ele><time>2015-11-27T15:00:05.0000000+00:00</time></trkpt><trkpt lat="29.55103992" lon="35.12965028"><ele>448.1</ele><time>2015-11-27T15:00:12.0000000+00:00</time></trkpt><trkpt lat="29.55232554" lon="35.12903161"><ele>444.8</ele><time>2015-11-27T15:00:26.0000000+00:00</time></trkpt><trkpt lat="29.55369288" lon="35.12837104"><ele>441.4</ele><time>2015-11-27T15:00:43.0000000+00:00</time></trkpt><trkpt lat="29.55476317" lon="35.12772856"><ele>438.5</ele><time>2015-11-27T15:00:59.0000000+00:00</time></trkpt><trkpt lat="29.55566908" lon="35.12715616"><ele>435.6</ele><time>2015-11-27T15:01:14.0000000+00:00</time></trkpt><trkpt lat="29.55632572" lon="35.12674335"><ele>432.3</ele><time>2015-11-27T15:01:24.0000000+00:00</time></trkpt><trkpt lat="29.55668329" lon="35.12651101"><ele>429.9</ele><time>2015-11-27T15:01:29.0000000+00:00</time></trkpt><trkpt lat="29.5571583" lon="35.12621538"><ele>427.0</ele><time>2015-11-27T15:01:35.0000000+00:00</time></trkpt><trkpt lat="29.55757328" lon="35.12594942"><ele>423.6</ele><time>2015-11-27T15:01:40.0000000+00:00</time></trkpt><trkpt lat="29.55809455" lon="35.12563602"><ele>420.7</ele><time>2015-11-27T15:01:46.0000000+00:00</time></trkpt><trkpt lat="29.55861524" lon="35.12533486"><ele>417.8</ele><time>2015-11-27T15:01:52.0000000+00:00</time></trkpt><trkpt lat="29.55929367" lon="35.12495206"><ele>415.0</ele><time>2015-11-27T15:02:00.0000000+00:00</time></trkpt><trkpt lat="29.55988082" lon="35.12462935"><ele>412.1</ele><time>2015-11-27T15:02:08.0000000+00:00</time></trkpt><trkpt lat="29.56034929" lon="35.12435979"><ele>409.7</ele><time>2015-11-27T15:02:21.0000000+00:00</time></trkpt><trkpt lat="29.56100768" lon="35.12387331"><ele>406.8</ele><time>2015-11-27T15:02:36.0000000+00:00</time></trkpt><trkpt lat="29.56165711" lon="35.12302472"><ele>404.4</ele><time>2015-11-27T15:02:51.0000000+00:00</time></trkpt><trkpt lat="29.56209683" lon="35.12181253"><ele>401.0</ele><time>2015-11-27T15:03:07.0000000+00:00</time></trkpt><trkpt lat="29.56214637" lon="35.12053262"><ele>398.6</ele><time>2015-11-27T15:03:24.0000000+00:00</time></trkpt><trkpt lat="29.56194654" lon="35.119405"><ele>395.2</ele><time>2015-11-27T15:03:38.0000000+00:00</time></trkpt><trkpt lat="29.56171746" lon="35.11822189"><ele>392.4</ele><time>2015-11-27T15:03:52.0000000+00:00</time></trkpt><trkpt lat="29.56162275" lon="35.11779743"><ele>390.9</ele><time>2015-11-27T15:03:59.0000000+00:00</time></trkpt><trkpt lat="29.56143365" lon="35.11699537"><ele>389.5</ele><time>2015-11-27T15:04:11.0000000+00:00</time></trkpt><trkpt lat="29.56097248" lon="35.11590748"><ele>387.1</ele><time>2015-11-27T15:04:26.0000000+00:00</time></trkpt><trkpt lat="29.56038491" lon="35.11485874"><ele>383.7</ele><time>2015-11-27T15:04:41.0000000+00:00</time></trkpt><trkpt lat="29.56005902" lon="35.11383983"><ele>380.3</ele><time>2015-11-27T15:04:55.0000000+00:00</time></trkpt><trkpt lat="29.56014527" lon="35.1126869"><ele>377.5</ele><time>2015-11-27T15:05:10.0000000+00:00</time></trkpt><trkpt lat="29.56032565" lon="35.11219229"><ele>377.0</ele><time>2015-11-27T15:05:17.0000000+00:00</time></trkpt><trkpt lat="29.56089562" lon="35.11140891"><ele>376.5</ele><time>2015-11-27T15:05:32.0000000+00:00</time></trkpt><trkpt lat="29.56154689" lon="35.11085219"><ele>376.5</ele><time>2015-11-27T15:05:49.0000000+00:00</time></trkpt><trkpt lat="29.56228056" lon="35.11023453"><ele>375.5</ele><time>2015-11-27T15:06:06.0000000+00:00</time></trkpt><trkpt lat="29.5629237" lon="35.1093535"><ele>372.2</ele><time>2015-11-27T15:06:21.0000000+00:00</time></trkpt><trkpt lat="29.56315773" lon="35.10867859"><ele>369.3</ele><time>2015-11-27T15:06:29.0000000+00:00</time></trkpt><trkpt lat="29.56321917" lon="35.10809924"><ele>366.9</ele><time>2015-11-27T15:06:35.0000000+00:00</time></trkpt><trkpt lat="29.56314339" lon="35.10738057"><ele>363.0</ele><time>2015-11-27T15:06:42.0000000+00:00</time></trkpt><trkpt lat="29.56301096" lon="35.10697279"><ele>361.6</ele><time>2015-11-27T15:06:46.0000000+00:00</time></trkpt><trkpt lat="29.56275883" lon="35.10649201"><ele>358.2</ele><time>2015-11-27T15:06:51.0000000+00:00</time></trkpt><trkpt lat="29.56263126" lon="35.10630341"><ele>357.3</ele><time>2015-11-27T15:06:53.0000000+00:00</time></trkpt><trkpt lat="29.56216975" lon="35.10575582"><ele>353.4</ele><time>2015-11-27T15:06:59.0000000+00:00</time></trkpt><trkpt lat="29.56164085" lon="35.10516725"><ele>350.5</ele><time>2015-11-27T15:07:05.0000000+00:00</time></trkpt><trkpt lat="29.56155175" lon="35.10506809"><ele>350.1</ele><time>2015-11-27T15:07:06.0000000+00:00</time></trkpt><trkpt lat="29.56112076" lon="35.10459024"><ele>347.2</ele><time>2015-11-27T15:07:11.0000000+00:00</time></trkpt><trkpt lat="29.56103618" lon="35.10449753"><ele>346.7</ele><time>2015-11-27T15:07:12.0000000+00:00</time></trkpt><trkpt lat="29.56056981" lon="35.10392161"><ele>343.8</ele><time>2015-11-27T15:07:18.0000000+00:00</time></trkpt><trkpt lat="29.56010529" lon="35.10310111"><ele>340.4</ele><time>2015-11-27T15:07:26.0000000+00:00</time></trkpt><trkpt lat="29.55972886" lon="35.10187383"><ele>338.5</ele><time>2015-11-27T15:07:39.0000000+00:00</time></trkpt><trkpt lat="29.5594546" lon="35.10067874"><ele>337.1</ele><time>2015-11-27T15:07:55.0000000+00:00</time></trkpt><trkpt lat="29.55911245" lon="35.09932657"><ele>334.2</ele><time>2015-11-27T15:08:15.0000000+00:00</time></trkpt><trkpt lat="29.55887449" lon="35.09830255"><ele>330.8</ele><time>2015-11-27T15:08:28.0000000+00:00</time></trkpt><trkpt lat="29.55874943" lon="35.09774784"><ele>328.0</ele><time>2015-11-27T15:08:34.0000000+00:00</time></trkpt><trkpt lat="29.55868254" lon="35.0971321"><ele>325.1</ele><time>2015-11-27T15:08:40.0000000+00:00</time></trkpt><trkpt lat="29.55870551" lon="35.0964908"><ele>321.7</ele><time>2015-11-27T15:08:46.0000000+00:00</time></trkpt><trkpt lat="29.55876611" lon="35.09605545"><ele>320.3</ele><time>2015-11-27T15:08:50.0000000+00:00</time></trkpt><trkpt lat="29.55890031" lon="35.0955216"><ele>317.4</ele><time>2015-11-27T15:08:55.0000000+00:00</time></trkpt><trkpt lat="29.55917221" lon="35.09481769"><ele>314.5</ele><time>2015-11-27T15:09:02.0000000+00:00</time></trkpt><trkpt lat="29.55960145" lon="35.09380122"><ele>311.1</ele><time>2015-11-27T15:09:13.0000000+00:00</time></trkpt><trkpt lat="29.55978937" lon="35.09334373"><ele>309.2</ele><time>2015-11-27T15:09:19.0000000+00:00</time></trkpt><trkpt lat="29.55980404" lon="35.09329713"><ele>308.7</ele><time>2015-11-27T15:09:20.0000000+00:00</time></trkpt><trkpt lat="29.55981754" lon="35.09325254"><ele>308.7</ele><time>2015-11-27T15:09:21.0000000+00:00</time></trkpt><trkpt lat="29.55983388" lon="35.093203"><ele>308.7</ele><time>2015-11-27T15:09:22.0000000+00:00</time></trkpt><trkpt lat="29.55985886" lon="35.09314827"><ele>308.7</ele><time>2015-11-27T15:09:23.0000000+00:00</time></trkpt><trkpt lat="29.56021677" lon="35.09227663"><ele>306.8</ele><time>2015-11-27T15:09:34.0000000+00:00</time></trkpt><trkpt lat="29.56070376" lon="35.09122621"><ele>303.4</ele><time>2015-11-27T15:09:46.0000000+00:00</time></trkpt><trkpt lat="29.56119217" lon="35.09021209"><ele>300.1</ele><time>2015-11-27T15:09:58.0000000+00:00</time></trkpt><trkpt lat="29.56170573" lon="35.08908883"><ele>296.7</ele><time>2015-11-27T15:10:11.0000000+00:00</time></trkpt><trkpt lat="29.56210529" lon="35.08793573"><ele>293.8</ele><time>2015-11-27T15:10:24.0000000+00:00</time></trkpt><trkpt lat="29.56246815" lon="35.08661927"><ele>290.5</ele><time>2015-11-27T15:10:39.0000000+00:00</time></trkpt><trkpt lat="29.56277836" lon="35.08551386"><ele>288.5</ele><time>2015-11-27T15:10:52.0000000+00:00</time></trkpt><trkpt lat="29.56311045" lon="35.08426915"><ele>285.2</ele><time>2015-11-27T15:11:08.0000000+00:00</time></trkpt><trkpt lat="29.56342687" lon="35.08306618"><ele>282.3</ele><time>2015-11-27T15:11:23.0000000+00:00</time></trkpt><trkpt lat="29.56375192" lon="35.08219614"><ele>278.9</ele><time>2015-11-27T15:11:34.0000000+00:00</time></trkpt><trkpt lat="29.56435433" lon="35.08142408"><ele>275.6</ele><time>2015-11-27T15:11:46.0000000+00:00</time></trkpt><trkpt lat="29.56507676" lon="35.08097179"><ele>272.7</ele><time>2015-11-27T15:11:57.0000000+00:00</time></trkpt><trkpt lat="29.56621494" lon="35.08061447"><ele>270.3</ele><time>2015-11-27T15:12:14.0000000+00:00</time></trkpt><trkpt lat="29.56653371" lon="35.08050023"><ele>269.8</ele><time>2015-11-27T15:12:21.0000000+00:00</time></trkpt><trkpt lat="29.56734097" lon="35.08024424"><ele>268.4</ele><time>2015-11-27T15:12:38.0000000+00:00</time></trkpt><trkpt lat="29.56777146" lon="35.08011198"><ele>267.4</ele><time>2015-11-27T15:12:48.0000000+00:00</time></trkpt><trkpt lat="29.56847236" lon="35.07972767"><ele>265.9</ele><time>2015-11-27T15:13:04.0000000+00:00</time></trkpt><trkpt lat="29.56918792" lon="35.07894983"><ele>262.6</ele><time>2015-11-27T15:13:20.0000000+00:00</time></trkpt><trkpt lat="29.56974791" lon="35.07818305"><ele>259.7</ele><time>2015-11-27T15:13:33.0000000+00:00</time></trkpt><trkpt lat="29.57038309" lon="35.07728996"><ele>256.8</ele><time>2015-11-27T15:13:48.0000000+00:00</time></trkpt><trkpt lat="29.57079825" lon="35.07661664"><ele>253.4</ele><time>2015-11-27T15:14:02.0000000+00:00</time></trkpt><trkpt lat="29.57085055" lon="35.07652871"><ele>253.0</ele><time>2015-11-27T15:14:11.0000000+00:00</time></trkpt><trkpt lat="29.57085676" lon="35.07652771"><ele>253.0</ele><time>2015-11-27T15:14:39.0000000+00:00</time></trkpt><trkpt lat="29.57085868" lon="35.07651765"><ele>253.0</ele><time>2015-11-27T15:14:41.0000000+00:00</time></trkpt><trkpt lat="29.57086396" lon="35.07650231"><ele>252.5</ele><time>2015-11-27T15:14:42.0000000+00:00</time></trkpt><trkpt lat="29.5708726" lon="35.07648328"><ele>252.5</ele><time>2015-11-27T15:14:43.0000000+00:00</time></trkpt><trkpt lat="29.57088559" lon="35.07645898"><ele>252.5</ele><time>2015-11-27T15:14:44.0000000+00:00</time></trkpt><trkpt lat="29.57090043" lon="35.07642989"><ele>252.5</ele><time>2015-11-27T15:14:45.0000000+00:00</time></trkpt><trkpt lat="29.57121005" lon="35.07582924"><ele>249.6</ele><time>2015-11-27T15:14:57.0000000+00:00</time></trkpt><trkpt lat="29.57144667" lon="35.07528735"><ele>246.7</ele><time>2015-11-27T15:15:04.0000000+00:00</time></trkpt><trkpt lat="29.5715165" lon="35.07511024"><ele>245.8</ele><time>2015-11-27T15:15:06.0000000+00:00</time></trkpt><trkpt lat="29.57165647" lon="35.07472887"><ele>243.8</ele><time>2015-11-27T15:15:10.0000000+00:00</time></trkpt><trkpt lat="29.57187876" lon="35.07399587"><ele>240.5</ele><time>2015-11-27T15:15:17.0000000+00:00</time></trkpt><trkpt lat="29.57210792" lon="35.07300404"><ele>237.1</ele><time>2015-11-27T15:15:26.0000000+00:00</time></trkpt><trkpt lat="29.57226601" lon="35.07169956"><ele>233.7</ele><time>2015-11-27T15:15:39.0000000+00:00</time></trkpt><trkpt lat="29.57229266" lon="35.07055426"><ele>230.4</ele><time>2015-11-27T15:15:51.0000000+00:00</time></trkpt><trkpt lat="29.57229735" lon="35.06940099"><ele>227.0</ele><time>2015-11-27T15:16:03.0000000+00:00</time></trkpt><trkpt lat="29.57230875" lon="35.06831939"><ele>224.1</ele><time>2015-11-27T15:16:14.0000000+00:00</time></trkpt><trkpt lat="29.57232149" lon="35.0669803"><ele>220.8</ele><time>2015-11-27T15:16:29.0000000+00:00</time></trkpt><trkpt lat="29.57231261" lon="35.06544054"><ele>217.4</ele><time>2015-11-27T15:16:47.0000000+00:00</time></trkpt><trkpt lat="29.57206677" lon="35.0640344"><ele>215.0</ele><time>2015-11-27T15:17:06.0000000+00:00</time></trkpt><trkpt lat="29.5717558" lon="35.0631087"><ele>212.6</ele><time>2015-11-27T15:17:20.0000000+00:00</time></trkpt><trkpt lat="29.5717475" lon="35.06307593"><ele>212.6</ele><time>2015-11-27T15:17:27.0000000+00:00</time></trkpt><trkpt lat="29.57175245" lon="35.06306863"><ele>212.1</ele><time>2015-11-27T15:17:53.0000000+00:00</time></trkpt><trkpt lat="29.5717475" lon="35.06307618"><ele>212.1</ele><time>2015-11-27T15:18:26.0000000+00:00</time></trkpt><trkpt lat="29.57174398" lon="35.06308439"><ele>211.6</ele><time>2015-11-27T15:18:54.0000000+00:00</time></trkpt><trkpt lat="29.57174566" lon="35.06307785"><ele>211.6</ele><time>2015-11-27T15:19:37.0000000+00:00</time></trkpt><trkpt lat="29.57174331" lon="35.06307308"><ele>211.6</ele><time>2015-11-27T15:19:38.0000000+00:00</time></trkpt><trkpt lat="29.57173828" lon="35.06305933"><ele>211.6</ele><time>2015-11-27T15:19:39.0000000+00:00</time></trkpt><trkpt lat="29.57173157" lon="35.06304366"><ele>211.6</ele><time>2015-11-27T15:19:40.0000000+00:00</time></trkpt><trkpt lat="29.57172227" lon="35.06302463"><ele>211.6</ele><time>2015-11-27T15:19:41.0000000+00:00</time></trkpt><trkpt lat="29.57171565" lon="35.06299932"><ele>211.2</ele><time>2015-11-27T15:19:42.0000000+00:00</time></trkpt><trkpt lat="29.57170819" lon="35.06297157"><ele>211.2</ele><time>2015-11-27T15:19:43.0000000+00:00</time></trkpt><trkpt lat="29.57169696" lon="35.06294291"><ele>211.6</ele><time>2015-11-27T15:19:44.0000000+00:00</time></trkpt><trkpt lat="29.57168623" lon="35.06291206"><ele>211.2</ele><time>2015-11-27T15:19:45.0000000+00:00</time></trkpt><trkpt lat="29.57167634" lon="35.06288054"><ele>211.2</ele><time>2015-11-27T15:19:46.0000000+00:00</time></trkpt><trkpt lat="29.57144684" lon="35.06221804"><ele>210.2</ele><time>2015-11-27T15:20:00.0000000+00:00</time></trkpt><trkpt lat="29.57108625" lon="35.06111557"><ele>207.8</ele><time>2015-11-27T15:20:18.0000000+00:00</time></trkpt><trkpt lat="29.57082608" lon="35.06033479"><ele>205.9</ele><time>2015-11-27T15:20:31.0000000+00:00</time></trkpt><trkpt lat="29.57053849" lon="35.05958025"><ele>203.0</ele><time>2015-11-27T15:20:43.0000000+00:00</time></trkpt><trkpt lat="29.57028142" lon="35.05887827"><ele>199.6</ele><time>2015-11-27T15:20:51.0000000+00:00</time></trkpt><trkpt lat="29.57008772" lon="35.05836622"><ele>196.7</ele><time>2015-11-27T15:20:56.0000000+00:00</time></trkpt><trkpt lat="29.5698324" lon="35.05769525"><ele>193.4</ele><time>2015-11-27T15:21:02.0000000+00:00</time></trkpt><trkpt lat="29.56960928" lon="35.05710441"><ele>190.0</ele><time>2015-11-27T15:21:07.0000000+00:00</time></trkpt><trkpt lat="29.56934583" lon="35.05640267"><ele>187.1</ele><time>2015-11-27T15:21:13.0000000+00:00</time></trkpt><trkpt lat="29.56926151" lon="35.05617519"><ele>186.2</ele><time>2015-11-27T15:21:15.0000000+00:00</time></trkpt><trkpt lat="29.56889749" lon="35.05520373"><ele>183.3</ele><time>2015-11-27T15:21:24.0000000+00:00</time></trkpt><trkpt lat="29.56856514" lon="35.05430175"><ele>179.9</ele><time>2015-11-27T15:21:33.0000000+00:00</time></trkpt><trkpt lat="29.5681955" lon="35.05332224"><ele>176.5</ele><time>2015-11-27T15:21:43.0000000+00:00</time></trkpt><trkpt lat="29.5680458" lon="35.05293701"><ele>175.6</ele><time>2015-11-27T15:21:47.0000000+00:00</time></trkpt><trkpt lat="29.56752964" lon="35.05156623"><ele>174.1</ele><time>2015-11-27T15:22:03.0000000+00:00</time></trkpt><trkpt lat="29.5670274" lon="35.05024013"><ele>175.1</ele><time>2015-11-27T15:22:24.0000000+00:00</time></trkpt><trkpt lat="29.56665985" lon="35.04924595"><ele>173.7</ele><time>2015-11-27T15:22:44.0000000+00:00</time></trkpt><trkpt lat="29.56632609" lon="35.04844087"><ele>170.3</ele><time>2015-11-27T15:22:56.0000000+00:00</time></trkpt><trkpt lat="29.56604915" lon="35.04778398"><ele>166.5</ele><time>2015-11-27T15:23:03.0000000+00:00</time></trkpt><trkpt lat="29.56582292" lon="35.04723505"><ele>163.1</ele><time>2015-11-27T15:23:08.0000000+00:00</time></trkpt><trkpt lat="29.56557473" lon="35.04664572"><ele>159.2</ele><time>2015-11-27T15:23:13.0000000+00:00</time></trkpt><trkpt lat="29.56531431" lon="35.04602236"><ele>155.4</ele><time>2015-11-27T15:23:18.0000000+00:00</time></trkpt><trkpt lat="29.56510006" lon="35.04551601"><ele>152.5</ele><time>2015-11-27T15:23:22.0000000+00:00</time></trkpt><trkpt lat="29.56476445" lon="35.04473959"><ele>149.1</ele><time>2015-11-27T15:23:28.0000000+00:00</time></trkpt><trkpt lat="29.56432365" lon="35.04381398"><ele>145.8</ele><time>2015-11-27T15:23:35.0000000+00:00</time></trkpt><trkpt lat="29.56419733" lon="35.0435678"><ele>144.8</ele><time>2015-11-27T15:23:37.0000000+00:00</time></trkpt><trkpt lat="29.56344665" lon="35.04226039"><ele>144.8</ele><time>2015-11-27T15:23:50.0000000+00:00</time></trkpt><trkpt lat="29.5629698" lon="35.04151315"><ele>146.3</ele><time>2015-11-27T15:24:02.0000000+00:00</time></trkpt><trkpt lat="29.56252791" lon="35.04089297"><ele>146.3</ele><time>2015-11-27T15:24:18.0000000+00:00</time></trkpt><trkpt lat="29.5620483" lon="35.0402712"><ele>144.8</ele><time>2015-11-27T15:24:34.0000000+00:00</time></trkpt><trkpt lat="29.5615049" lon="35.03962906"><ele>141.9</ele><time>2015-11-27T15:24:47.0000000+00:00</time></trkpt><trkpt lat="29.56098547" lon="35.03903386"><ele>138.6</ele><time>2015-11-27T15:24:57.0000000+00:00</time></trkpt><trkpt lat="29.56039111" lon="35.03838602"><ele>135.7</ele><time>2015-11-27T15:25:07.0000000+00:00</time></trkpt><trkpt lat="29.55980429" lon="35.03771011"><ele>132.3</ele><time>2015-11-27T15:25:16.0000000+00:00</time></trkpt><trkpt lat="29.55913341" lon="35.03694149"><ele>129.4</ele><time>2015-11-27T15:25:26.0000000+00:00</time></trkpt><trkpt lat="29.55838222" lon="35.03605837"><ele>126.1</ele><time>2015-11-27T15:25:37.0000000+00:00</time></trkpt><trkpt lat="29.55722041" lon="35.03472573"><ele>123.2</ele><time>2015-11-27T15:25:56.0000000+00:00</time></trkpt><trkpt lat="29.55644198" lon="35.0338432"><ele>122.2</ele><time>2015-11-27T15:26:11.0000000+00:00</time></trkpt><trkpt lat="29.55559524" lon="35.03287006"><ele>121.3</ele><time>2015-11-27T15:26:29.0000000+00:00</time></trkpt><trkpt lat="29.55483592" lon="35.03202885"><ele>120.3</ele><time>2015-11-27T15:26:45.0000000+00:00</time></trkpt><trkpt lat="29.55470156" lon="35.03187538"><ele>120.3</ele><time>2015-11-27T15:26:48.0000000+00:00</time></trkpt><trkpt lat="29.55448112" lon="35.03161713"><ele>120.3</ele><time>2015-11-27T15:26:53.0000000+00:00</time></trkpt><trkpt lat="29.55426394" lon="35.03138127"><ele>120.3</ele><time>2015-11-27T15:26:58.0000000+00:00</time></trkpt><trkpt lat="29.55354352" lon="35.03054408"><ele>119.8</ele><time>2015-11-27T15:27:16.0000000+00:00</time></trkpt><trkpt lat="29.55276584" lon="35.0296463"><ele>119.8</ele><time>2015-11-27T15:27:36.0000000+00:00</time></trkpt><trkpt lat="29.55217919" lon="35.02900575"><ele>119.8</ele><time>2015-11-27T15:27:55.0000000+00:00</time></trkpt><trkpt lat="29.55193126" lon="35.02873812"><ele>119.8</ele><time>2015-11-27T15:28:08.0000000+00:00</time></trkpt><trkpt lat="29.55163177" lon="35.02843486"><ele>120.3</ele><time>2015-11-27T15:28:21.0000000+00:00</time></trkpt><trkpt lat="29.55124553" lon="35.02809221"><ele>120.3</ele><time>2015-11-27T15:28:36.0000000+00:00</time></trkpt><trkpt lat="29.5508463" lon="35.02767085"><ele>120.3</ele><time>2015-11-27T15:28:51.0000000+00:00</time></trkpt><trkpt lat="29.55030022" lon="35.02703584"><ele>119.8</ele><time>2015-11-27T15:29:06.0000000+00:00</time></trkpt><trkpt lat="29.5495254" lon="35.02614426"><ele>117.9</ele><time>2015-11-27T15:29:27.0000000+00:00</time></trkpt><trkpt lat="29.5486629" lon="35.02513004"><ele>115.0</ele><time>2015-11-27T15:29:46.0000000+00:00</time></trkpt><trkpt lat="29.54787266" lon="35.0242191"><ele>111.7</ele><time>2015-11-27T15:30:00.0000000+00:00</time></trkpt><trkpt lat="29.54713052" lon="35.0233877"><ele>108.3</ele><time>2015-11-27T15:30:12.0000000+00:00</time></trkpt><trkpt lat="29.54654907" lon="35.02270835"><ele>104.9</ele><time>2015-11-27T15:30:22.0000000+00:00</time></trkpt><trkpt lat="29.54635327" lon="35.02248011"><ele>103.5</ele><time>2015-11-27T15:30:30.0000000+00:00</time></trkpt><trkpt lat="29.54635218" lon="35.02248262"><ele>103.5</ele><time>2015-11-27T15:30:55.0000000+00:00</time></trkpt><trkpt lat="29.54619468" lon="35.02229805"><ele>102.5</ele><time>2015-11-27T15:31:05.0000000+00:00</time></trkpt><trkpt lat="29.54558037" lon="35.02160562"><ele>98.7</ele><time>2015-11-27T15:31:18.0000000+00:00</time></trkpt><trkpt lat="29.54534467" lon="35.02133497"><ele>97.2</ele><time>2015-11-27T15:31:22.0000000+00:00</time></trkpt><trkpt lat="29.5449358" lon="35.02086433"><ele>94.4</ele><time>2015-11-27T15:31:29.0000000+00:00</time></trkpt><trkpt lat="29.54454973" lon="35.02041916"><ele>91.9</ele><time>2015-11-27T15:31:35.0000000+00:00</time></trkpt><trkpt lat="29.54410985" lon="35.01991508"><ele>88.6</ele><time>2015-11-27T15:31:41.0000000+00:00</time></trkpt><trkpt lat="29.54363535" lon="35.01936539"><ele>85.2</ele><time>2015-11-27T15:31:47.0000000+00:00</time></trkpt><trkpt lat="29.54322472" lon="35.01887228"><ele>82.3</ele><time>2015-11-27T15:31:52.0000000+00:00</time></trkpt><trkpt lat="29.54313956" lon="35.01877229"><ele>82.3</ele><time>2015-11-27T15:31:53.0000000+00:00</time></trkpt><trkpt lat="29.5427141" lon="35.01826359"><ele>79.0</ele><time>2015-11-27T15:31:58.0000000+00:00</time></trkpt><trkpt lat="29.54211496" lon="35.01757024"><ele>75.6</ele><time>2015-11-27T15:32:05.0000000+00:00</time></trkpt><trkpt lat="29.5417796" lon="35.01718425"><ele>73.7</ele><time>2015-11-27T15:32:09.0000000+00:00</time></trkpt><trkpt lat="29.54144474" lon="35.01680397"><ele>71.8</ele><time>2015-11-27T15:32:13.0000000+00:00</time></trkpt><trkpt lat="29.54085667" lon="35.01613702"><ele>67.9</ele><time>2015-11-27T15:32:20.0000000+00:00</time></trkpt><trkpt lat="29.54050756" lon="35.0157398"><ele>64.6</ele><time>2015-11-27T15:32:24.0000000+00:00</time></trkpt><trkpt lat="29.54016415" lon="35.01534602"><ele>61.2</ele><time>2015-11-27T15:32:28.0000000+00:00</time></trkpt><trkpt lat="29.53989283" lon="35.01503614"><ele>58.3</ele><time>2015-11-27T15:32:32.0000000+00:00</time></trkpt><trkpt lat="29.5396226" lon="35.01469944"><ele>55.4</ele><time>2015-11-27T15:32:37.0000000+00:00</time></trkpt><trkpt lat="29.53943728" lon="35.01439945"><ele>53.5</ele><time>2015-11-27T15:32:46.0000000+00:00</time></trkpt><trkpt lat="29.53930476" lon="35.01418328"><ele>52.5</ele><time>2015-11-27T15:32:51.0000000+00:00</time></trkpt><trkpt lat="29.53924147" lon="35.01406535"><ele>52.5</ele><time>2015-11-27T15:32:53.0000000+00:00</time></trkpt><trkpt lat="29.53919881" lon="35.0140179"><ele>52.1</ele><time>2015-11-27T15:32:54.0000000+00:00</time></trkpt><trkpt lat="29.53856807" lon="35.01352848"><ele>49.2</ele><time>2015-11-27T15:33:05.0000000+00:00</time></trkpt><trkpt lat="29.53835324" lon="35.01330192"><ele>47.7</ele><time>2015-11-27T15:33:10.0000000+00:00</time></trkpt><trkpt lat="29.53831066" lon="35.01325775"><ele>47.7</ele><time>2015-11-27T15:33:11.0000000+00:00</time></trkpt><trkpt lat="29.53826942" lon="35.01320804"><ele>47.7</ele><time>2015-11-27T15:33:12.0000000+00:00</time></trkpt><trkpt lat="29.53822928" lon="35.01315557"><ele>47.2</ele><time>2015-11-27T15:33:13.0000000+00:00</time></trkpt><trkpt lat="29.53818904" lon="35.01310009"><ele>46.8</ele><time>2015-11-27T15:33:14.0000000+00:00</time></trkpt><trkpt lat="29.53757096" lon="35.01237874"><ele>43.9</ele><time>2015-11-27T15:33:26.0000000+00:00</time></trkpt><trkpt lat="29.53691273" lon="35.01163677"><ele>40.5</ele><time>2015-11-27T15:33:37.0000000+00:00</time></trkpt><trkpt lat="29.53620697" lon="35.01083261"><ele>37.2</ele><time>2015-11-27T15:33:48.0000000+00:00</time></trkpt><trkpt lat="29.53557733" lon="35.01009551"><ele>34.3</ele><time>2015-11-27T15:33:58.0000000+00:00</time></trkpt><trkpt lat="29.53537926" lon="35.00984238"><ele>32.8</ele><time>2015-11-27T15:34:04.0000000+00:00</time></trkpt><trkpt lat="29.53536836" lon="35.00983919"><ele>32.8</ele><time>2015-11-27T15:34:07.0000000+00:00</time></trkpt><trkpt lat="29.53535462" lon="35.00982972"><ele>32.8</ele><time>2015-11-27T15:34:08.0000000+00:00</time></trkpt><trkpt lat="29.53507743" lon="35.009518"><ele>31.9</ele><time>2015-11-27T15:34:18.0000000+00:00</time></trkpt><trkpt lat="29.53439699" lon="35.00876287"><ele>29.9</ele><time>2015-11-27T15:34:36.0000000+00:00</time></trkpt><trkpt lat="29.53431535" lon="35.00866757"><ele>29.5</ele><time>2015-11-27T15:34:44.0000000+00:00</time></trkpt><trkpt lat="29.53431015" lon="35.00866178"><ele>29.5</ele><time>2015-11-27T15:34:52.0000000+00:00</time></trkpt><trkpt lat="29.53429565" lon="35.00864611"><ele>29.5</ele><time>2015-11-27T15:34:53.0000000+00:00</time></trkpt><trkpt lat="29.53395953" lon="35.00827538"><ele>29.0</ele><time>2015-11-27T15:35:02.0000000+00:00</time></trkpt><trkpt lat="29.53309905" lon="35.00729017"><ele>27.5</ele><time>2015-11-27T15:35:20.0000000+00:00</time></trkpt><trkpt lat="29.53264559" lon="35.00662163"><ele>27.1</ele><time>2015-11-27T15:35:35.0000000+00:00</time></trkpt><trkpt lat="29.53263637" lon="35.00646296"><ele>26.6</ele><time>2015-11-27T15:35:44.0000000+00:00</time></trkpt><trkpt lat="29.53263343" lon="35.00644217"><ele>26.6</ele><time>2015-11-27T15:35:59.0000000+00:00</time></trkpt><trkpt lat="29.53262748" lon="35.00642742"><ele>26.6</ele><time>2015-11-27T15:36:00.0000000+00:00</time></trkpt><trkpt lat="29.53262136" lon="35.00640387"><ele>26.1</ele><time>2015-11-27T15:36:01.0000000+00:00</time></trkpt><trkpt lat="29.53261952" lon="35.00637067"><ele>26.1</ele><time>2015-11-27T15:36:02.0000000+00:00</time></trkpt><trkpt lat="29.53262036" lon="35.00633103"><ele>26.1</ele><time>2015-11-27T15:36:03.0000000+00:00</time></trkpt><trkpt lat="29.5324057" lon="35.00588913"><ele>25.1</ele><time>2015-11-27T15:36:16.0000000+00:00</time></trkpt><trkpt lat="29.53233956" lon="35.00582309"><ele>25.6</ele><time>2015-11-27T15:36:18.0000000+00:00</time></trkpt><trkpt lat="29.53230377" lon="35.0057971"><ele>25.6</ele><time>2015-11-27T15:36:19.0000000+00:00</time></trkpt><trkpt lat="29.53226639" lon="35.00577858"><ele>25.6</ele><time>2015-11-27T15:36:20.0000000+00:00</time></trkpt><trkpt lat="29.532228" lon="35.00576575"><ele>25.6</ele><time>2015-11-27T15:36:21.0000000+00:00</time></trkpt><trkpt lat="29.53218852" lon="35.00575402"><ele>25.6</ele><time>2015-11-27T15:36:22.0000000+00:00</time></trkpt><trkpt lat="29.53206623" lon="35.00572912"><ele>26.1</ele><time>2015-11-27T15:36:25.0000000+00:00</time></trkpt><trkpt lat="29.53168351" lon="35.0059085"><ele>27.5</ele><time>2015-11-27T15:36:37.0000000+00:00</time></trkpt><trkpt lat="29.53150447" lon="35.00627722"><ele>29.0</ele><time>2015-11-27T15:36:50.0000000+00:00</time></trkpt><trkpt lat="29.53147715" lon="35.00633053"><ele>29.5</ele><time>2015-11-27T15:37:01.0000000+00:00</time></trkpt><trkpt lat="29.53139408" lon="35.00634285"><ele>29.9</ele><time>2015-11-27T15:37:15.0000000+00:00</time></trkpt><trkpt lat="29.53130775" lon="35.00633639"><ele>30.9</ele><time>2015-11-27T15:37:31.0000000+00:00</time></trkpt><trkpt lat="29.53122913" lon="35.00639364"><ele>31.4</ele><time>2015-11-27T15:37:49.0000000+00:00</time></trkpt><trkpt lat="29.53115118" lon="35.00643916"><ele>31.4</ele><time>2015-11-27T15:37:59.0000000+00:00</time></trkpt><trkpt lat="29.53102394" lon="35.00657964"><ele>32.8</ele><time>2015-11-27T15:38:15.0000000+00:00</time></trkpt><trkpt lat="29.53096787" lon="35.00655717"><ele>33.3</ele><time>2015-11-27T15:38:28.0000000+00:00</time></trkpt><trkpt lat="29.53077994" lon="35.00648266"><ele>32.8</ele><time>2015-11-27T15:38:45.0000000+00:00</time></trkpt><trkpt lat="29.53070769" lon="35.00635668"><ele>32.8</ele><time>2015-11-27T15:39:01.0000000+00:00</time></trkpt><trkpt lat="29.53070023" lon="35.00632323"><ele>32.8</ele><time>2015-11-27T15:39:12.0000000+00:00</time></trkpt><trkpt lat="29.53056679" lon="35.00622944"><ele>32.3</ele><time>2015-11-27T15:39:26.0000000+00:00</time></trkpt><trkpt lat="29.53042958" lon="35.00608276"><ele>32.3</ele><time>2015-11-27T15:39:44.0000000+00:00</time></trkpt><trkpt lat="29.53034366" lon="35.0059846"><ele>31.9</ele><time>2015-11-27T15:39:59.0000000+00:00</time></trkpt><trkpt lat="29.53032254" lon="35.00597036"><ele>31.9</ele><time>2015-11-27T15:40:01.0000000+00:00</time></trkpt><trkpt lat="29.53030938" lon="35.00595552"><ele>31.9</ele><time>2015-11-27T15:40:02.0000000+00:00</time></trkpt><trkpt lat="29.53021525" lon="35.00584077"><ele>31.9</ele><time>2015-11-27T15:40:13.0000000+00:00</time></trkpt><trkpt lat="29.53020369" lon="35.00581328"><ele>31.9</ele><time>2015-11-27T15:40:21.0000000+00:00</time></trkpt><trkpt lat="29.53019908" lon="35.00580582"><ele>31.9</ele><time>2015-11-27T15:40:22.0000000+00:00</time></trkpt><trkpt lat="29.53019254" lon="35.00579836"><ele>31.9</ele><time>2015-11-27T15:40:23.0000000+00:00</time></trkpt><trkpt lat="29.53013102" lon="35.00571697"><ele>31.9</ele><time>2015-11-27T15:40:38.0000000+00:00</time></trkpt><trkpt lat="29.53015029" lon="35.0056754"><ele>31.4</ele><time>2015-11-27T15:40:55.0000000+00:00</time></trkpt><trkpt lat="29.53014233" lon="35.00565092"><ele>31.4</ele><time>2015-11-27T15:41:15.0000000+00:00</time></trkpt><trkpt lat="29.53013579" lon="35.00562829"><ele>31.4</ele><time>2015-11-27T15:41:38.0000000+00:00</time></trkpt><trkpt lat="29.5301254" lon="35.00567003"><ele>31.4</ele><time>2015-11-27T15:42:03.0000000+00:00</time></trkpt><trkpt lat="29.53012951" lon="35.00568177"><ele>30.9</ele><time>2015-11-27T15:42:40.0000000+00:00</time></trkpt><trkpt lat="29.5301114" lon="35.00565679"><ele>30.9</ele><time>2015-11-27T15:43:15.0000000+00:00</time></trkpt><trkpt lat="29.53011618" lon="35.00563424"><ele>30.4</ele><time>2015-11-27T15:43:35.0000000+00:00</time></trkpt><trkpt lat="29.53002641" lon="35.00556903"><ele>30.4</ele><time>2015-11-27T15:43:48.0000000+00:00</time></trkpt><trkpt lat="29.52991971" lon="35.00548169"><ele>30.4</ele><time>2015-11-27T15:44:03.0000000+00:00</time></trkpt><trkpt lat="29.52977822" lon="35.00535345"><ele>30.4</ele><time>2015-11-27T15:44:21.0000000+00:00</time></trkpt><trkpt lat="29.52974604" lon="35.00532906"><ele>30.4</ele><time>2015-11-27T15:44:28.0000000+00:00</time></trkpt><trkpt lat="29.52973698" lon="35.00531866"><ele>30.4</ele><time>2015-11-27T15:44:29.0000000+00:00</time></trkpt><trkpt lat="29.52972483" lon="35.00530751"><ele>29.9</ele><time>2015-11-27T15:44:30.0000000+00:00</time></trkpt><trkpt lat="29.5295566" lon="35.00511708"><ele>29.9</ele><time>2015-11-27T15:44:44.0000000+00:00</time></trkpt><trkpt lat="29.52949567" lon="35.00503762"><ele>29.9</ele><time>2015-11-27T15:44:56.0000000+00:00</time></trkpt><trkpt lat="29.52951344" lon="35.0050553"><ele>29.9</ele><time>2015-11-27T15:45:13.0000000+00:00</time></trkpt><trkpt lat="29.52951503" lon="35.00502488"><ele>29.9</ele><time>2015-11-27T15:45:27.0000000+00:00</time></trkpt><trkpt lat="29.52963238" lon="35.00482908"><ele>28.5</ele><time>2015-11-27T15:45:38.0000000+00:00</time></trkpt><trkpt lat="29.52966473" lon="35.00474693"><ele>28.0</ele><time>2015-11-27T15:45:51.0000000+00:00</time></trkpt><trkpt lat="29.52970941" lon="35.00472204"><ele>28.0</ele><time>2015-11-27T15:46:16.0000000+00:00</time></trkpt><trkpt lat="29.52973338" lon="35.00471215"><ele>28.0</ele><time>2015-11-27T15:46:22.0000000+00:00</time></trkpt><trkpt lat="29.52979105" lon="35.00473981"><ele>28.0</ele><time>2015-11-27T15:46:27.0000000+00:00</time></trkpt><trkpt lat="29.52983086" lon="35.00481047"><ele>28.0</ele><time>2015-11-27T15:46:35.0000000+00:00</time></trkpt><trkpt lat="29.52984218" lon="35.00482036"><ele>28.0</ele><time>2015-11-27T15:46:36.0000000+00:00</time></trkpt><trkpt lat="29.52992809" lon="35.0049284"><ele>28.5</ele><time>2015-11-27T15:46:48.0000000+00:00</time></trkpt><trkpt lat="29.52989196" lon="35.00499085"><ele>28.5</ele><time>2015-11-27T15:47:09.0000000+00:00</time></trkpt><trkpt lat="29.52988601" lon="35.00499428"><ele>28.5</ele><time>2015-11-27T15:47:40.0000000+00:00</time></trkpt><trkpt lat="29.52989046" lon="35.00500451"><ele>28.5</ele><time>2015-11-27T15:48:02.0000000+00:00</time></trkpt><trkpt lat="29.52994787" lon="35.00500828"><ele>28.5</ele><time>2015-11-27T15:48:17.0000000+00:00</time></trkpt><trkpt lat="29.52995692" lon="35.00501842"><ele>28.5</ele><time>2015-11-27T15:48:18.0000000+00:00</time></trkpt><trkpt lat="29.52996606" lon="35.0050289"><ele>28.5</ele><time>2015-11-27T15:48:19.0000000+00:00</time></trkpt><trkpt lat="29.52997553" lon="35.00503846"><ele>28.5</ele><time>2015-11-27T15:48:20.0000000+00:00</time></trkpt><trkpt lat="29.52998601" lon="35.00504818"><ele>28.5</ele><time>2015-11-27T15:48:21.0000000+00:00</time></trkpt><trkpt lat="29.53007595" lon="35.00514658"><ele>28.5</ele><time>2015-11-27T15:48:30.0000000+00:00</time></trkpt><trkpt lat="29.5300876" lon="35.00515656"><ele>28.5</ele><time>2015-11-27T15:48:31.0000000+00:00</time></trkpt><trkpt lat="29.5301461" lon="35.00526502"><ele>29.0</ele><time>2015-11-27T15:48:48.0000000+00:00</time></trkpt><trkpt lat="29.53015088" lon="35.00526485"><ele>29.0</ele><time>2015-11-27T15:49:12.0000000+00:00</time></trkpt><trkpt lat="29.53014376" lon="35.00528212"><ele>28.5</ele><time>2015-11-27T15:49:50.0000000+00:00</time></trkpt><trkpt lat="29.53013596" lon="35.00531095"><ele>28.5</ele><time>2015-11-27T15:50:06.0000000+00:00</time></trkpt><trkpt lat="29.53008844" lon="35.0053718"><ele>29.0</ele><time>2015-11-27T15:50:17.0000000+00:00</time></trkpt><trkpt lat="29.53007955" lon="35.00539586"><ele>29.0</ele><time>2015-11-27T15:50:19.0000000+00:00</time></trkpt><trkpt lat="29.53007176" lon="35.00540659"><ele>29.5</ele><time>2015-11-27T15:50:20.0000000+00:00</time></trkpt><trkpt lat="29.53005633" lon="35.00543123"><ele>29.5</ele><time>2015-11-27T15:50:23.0000000+00:00</time></trkpt><trkpt lat="29.53005432" lon="35.00544179"><ele>29.5</ele><time>2015-11-27T15:50:24.0000000+00:00</time></trkpt><trkpt lat="29.53005424" lon="35.00545235"><ele>29.5</ele><time>2015-11-27T15:50:25.0000000+00:00</time></trkpt><trkpt lat="29.53005415" lon="35.00546736"><ele>29.9</ele><time>2015-11-27T15:50:26.0000000+00:00</time></trkpt><trkpt lat="29.53004594" lon="35.00547817"><ele>29.9</ele><time>2015-11-27T15:50:27.0000000+00:00</time></trkpt><trkpt lat="29.52998349" lon="35.0055552"><ele>30.4</ele><time>2015-11-27T15:50:44.0000000+00:00</time></trkpt><trkpt lat="29.52996489" lon="35.00557825"><ele>30.4</ele><time>2015-11-27T15:50:52.0000000+00:00</time></trkpt><trkpt lat="29.52988903" lon="35.00571487"><ele>31.4</ele><time>2015-11-27T15:51:08.0000000+00:00</time></trkpt><trkpt lat="29.52981812" lon="35.00573851"><ele>31.4</ele><time>2015-11-27T15:51:24.0000000+00:00</time></trkpt><trkpt lat="29.52983798" lon="35.00570741"><ele>31.4</ele><time>2015-11-27T15:51:38.0000000+00:00</time></trkpt><trkpt lat="29.52989079" lon="35.00568545"><ele>30.9</ele><time>2015-11-27T15:51:55.0000000+00:00</time></trkpt><trkpt lat="29.52993262" lon="35.00568068"><ele>30.9</ele><time>2015-11-27T15:52:21.0000000+00:00</time></trkpt><trkpt lat="29.52988635" lon="35.00570708"><ele>31.4</ele><time>2015-11-27T15:52:26.0000000+00:00</time></trkpt><trkpt lat="29.52985869" lon="35.00572141"><ele>31.4</ele><time>2015-11-27T15:52:28.0000000+00:00</time></trkpt><trkpt lat="29.52975919" lon="35.00576718"><ele>31.9</ele><time>2015-11-27T15:52:40.0000000+00:00</time></trkpt><trkpt lat="29.52972433" lon="35.00585837"><ele>32.8</ele><time>2015-11-27T15:52:54.0000000+00:00</time></trkpt><trkpt lat="29.52973246" lon="35.00587438"><ele>32.8</ele><time>2015-11-27T15:53:21.0000000+00:00</time></trkpt><trkpt lat="29.5296975" lon="35.0058852"><ele>32.8</ele><time>2015-11-27T15:53:38.0000000+00:00</time></trkpt><trkpt lat="29.52966808" lon="35.00587589"><ele>32.8</ele><time>2015-11-27T15:53:58.0000000+00:00</time></trkpt><trkpt lat="29.5295623" lon="35.00575762"><ele>32.8</ele><time>2015-11-27T15:54:14.0000000+00:00</time></trkpt><trkpt lat="29.52947111" lon="35.00563944"><ele>32.8</ele><time>2015-11-27T15:54:31.0000000+00:00</time></trkpt><trkpt lat="29.52946574" lon="35.00562904"><ele>32.8</ele><time>2015-11-27T15:54:32.0000000+00:00</time></trkpt><trkpt lat="29.5293769" lon="35.00554154"><ele>32.8</ele><time>2015-11-27T15:54:48.0000000+00:00</time></trkpt><trkpt lat="29.529295" lon="35.00542763"><ele>32.3</ele><time>2015-11-27T15:55:00.0000000+00:00</time></trkpt><trkpt lat="29.52927765" lon="35.00540692"><ele>32.3</ele><time>2015-11-27T15:55:02.0000000+00:00</time></trkpt><trkpt lat="29.52924186" lon="35.00539033"><ele>32.8</ele><time>2015-11-27T15:55:17.0000000+00:00</time></trkpt><trkpt lat="29.5292432" lon="35.0053542"><ele>32.3</ele><time>2015-11-27T15:55:39.0000000+00:00</time></trkpt><trkpt lat="29.52927631" lon="35.00534574"><ele>32.3</ele><time>2015-11-27T15:56:10.0000000+00:00</time></trkpt><trkpt lat="29.52925586" lon="35.00535244"><ele>32.3</ele><time>2015-11-27T15:56:52.0000000+00:00</time></trkpt><trkpt lat="29.52927455" lon="35.00536225"><ele>32.3</ele><time>2015-11-27T15:57:36.0000000+00:00</time></trkpt><trkpt lat="29.52930716" lon="35.00533006"><ele>32.3</ele><time>2015-11-27T15:58:07.0000000+00:00</time></trkpt><trkpt lat="29.52930221" lon="35.00535437"><ele>32.3</ele><time>2015-11-27T15:58:44.0000000+00:00</time></trkpt><trkpt lat="29.52931747" lon="35.00534347"><ele>32.3</ele><time>2015-11-27T15:59:23.0000000+00:00</time></trkpt><trkpt lat="29.52932803" lon="35.00533274"><ele>32.3</ele><time>2015-11-27T15:59:51.0000000+00:00</time></trkpt><trkpt lat="29.52928" lon="35.00535839"><ele>31.9</ele><time>2015-11-27T16:00:35.0000000+00:00</time></trkpt><trkpt lat="29.52927992" lon="35.00535554"><ele>31.9</ele><time>2015-11-27T16:01:20.0000000+00:00</time></trkpt><trkpt lat="29.52930691" lon="35.00534909"><ele>31.9</ele><time>2015-11-27T16:02:01.0000000+00:00</time></trkpt><trkpt lat="29.52929718" lon="35.00533308"><ele>31.9</ele><time>2015-11-27T16:02:31.0000000+00:00</time></trkpt><trkpt lat="29.52927497" lon="35.00534087"><ele>31.4</ele><time>2015-11-27T16:03:03.0000000+00:00</time></trkpt><trkpt lat="29.5293064" lon="35.00537013"><ele>31.4</ele><time>2015-11-27T16:03:39.0000000+00:00</time></trkpt><trkpt lat="29.52929375" lon="35.0053604"><ele>31.4</ele><time>2015-11-27T16:04:18.0000000+00:00</time></trkpt><trkpt lat="29.52931462" lon="35.00533987"><ele>31.4</ele><time>2015-11-27T16:04:59.0000000+00:00</time></trkpt><trkpt lat="29.52927103" lon="35.00535747"><ele>30.9</ele><time>2015-11-27T16:05:31.0000000+00:00</time></trkpt><trkpt lat="29.52920079" lon="35.00537516"><ele>30.9</ele><time>2015-11-27T16:06:05.0000000+00:00</time></trkpt><trkpt lat="29.52924823" lon="35.00536091"><ele>30.9</ele><time>2015-11-27T16:06:23.0000000+00:00</time></trkpt><trkpt lat="29.5293028" lon="35.00524146"><ele>30.9</ele><time>2015-11-27T16:06:41.0000000+00:00</time></trkpt><trkpt lat="29.52937354" lon="35.00515035"><ele>30.4</ele><time>2015-11-27T16:06:56.0000000+00:00</time></trkpt><trkpt lat="29.52941428" lon="35.0050947"><ele>29.0</ele><time>2015-11-27T16:07:10.0000000+00:00</time></trkpt><trkpt lat="29.5294986" lon="35.00506846"><ele>28.0</ele><time>2015-11-27T16:07:27.0000000+00:00</time></trkpt><trkpt lat="29.52951277" lon="35.0050859"><ele>28.0</ele><time>2015-11-27T16:07:29.0000000+00:00</time></trkpt><trkpt lat="29.52952241" lon="35.00509277"><ele>28.0</ele><time>2015-11-27T16:07:30.0000000+00:00</time></trkpt><trkpt lat="29.52953054" lon="35.00510098"><ele>28.0</ele><time>2015-11-27T16:07:31.0000000+00:00</time></trkpt><trkpt lat="29.52972684" lon="35.00527826"><ele>28.5</ele><time>2015-11-27T16:07:50.0000000+00:00</time></trkpt><trkpt lat="29.52987126" lon="35.00544112"><ele>28.5</ele><time>2015-11-27T16:08:08.0000000+00:00</time></trkpt><trkpt lat="29.52993203" lon="35.00548052"><ele>28.5</ele><time>2015-11-27T16:08:14.0000000+00:00</time></trkpt><trkpt lat="29.52996824" lon="35.0055034"><ele>28.5</ele><time>2015-11-27T16:08:27.0000000+00:00</time></trkpt><trkpt lat="29.5299819" lon="35.00552041"><ele>28.5</ele><time>2015-11-27T16:08:29.0000000+00:00</time></trkpt><trkpt lat="29.53009799" lon="35.0056391"><ele>28.5</ele><time>2015-11-27T16:08:46.0000000+00:00</time></trkpt><trkpt lat="29.53013387" lon="35.00563399"><ele>28.5</ele><time>2015-11-27T16:08:57.0000000+00:00</time></trkpt><trkpt lat="29.53014367" lon="35.00562527"><ele>28.5</ele><time>2015-11-27T16:08:58.0000000+00:00</time></trkpt><trkpt lat="29.53015474" lon="35.00561907"><ele>28.5</ele><time>2015-11-27T16:08:59.0000000+00:00</time></trkpt><trkpt lat="29.53016563" lon="35.00561253"><ele>28.5</ele><time>2015-11-27T16:09:00.0000000+00:00</time></trkpt><trkpt lat="29.53020427" lon="35.00554581"><ele>27.5</ele><time>2015-11-27T16:09:16.0000000+00:00</time></trkpt><trkpt lat="29.53021182" lon="35.00549535"><ele>27.1</ele><time>2015-11-27T16:09:25.0000000+00:00</time></trkpt><trkpt lat="29.53027342" lon="35.00544816"><ele>26.6</ele><time>2015-11-27T16:09:44.0000000+00:00</time></trkpt><trkpt lat="29.53031215" lon="35.00540474"><ele>26.6</ele><time>2015-11-27T16:09:56.0000000+00:00</time></trkpt><trkpt lat="29.53038633" lon="35.00547566"><ele>26.6</ele><time>2015-11-27T16:10:04.0000000+00:00</time></trkpt><trkpt lat="29.53039421" lon="35.00548429"><ele>26.6</ele><time>2015-11-27T16:10:05.0000000+00:00</time></trkpt><trkpt lat="29.53041248" lon="35.00551262"><ele>26.6</ele><time>2015-11-27T16:10:08.0000000+00:00</time></trkpt><trkpt lat="29.53041944" lon="35.0055241"><ele>26.6</ele><time>2015-11-27T16:10:09.0000000+00:00</time></trkpt><trkpt lat="29.53048255" lon="35.00560859"><ele>26.6</ele><time>2015-11-27T16:10:17.0000000+00:00</time></trkpt><trkpt lat="29.53049077" lon="35.00561857"><ele>27.1</ele><time>2015-11-27T16:10:18.0000000+00:00</time></trkpt><trkpt lat="29.5305714" lon="35.00571496"><ele>27.1</ele><time>2015-11-27T16:10:33.0000000+00:00</time></trkpt><trkpt lat="29.53059915" lon="35.00570624"><ele>26.6</ele><time>2015-11-27T16:10:54.0000000+00:00</time></trkpt><trkpt lat="29.53062144" lon="35.00564908"><ele>26.1</ele><time>2015-11-27T16:11:25.0000000+00:00</time></trkpt><trkpt lat="29.53059521" lon="35.00566542"><ele>26.1</ele><time>2015-11-27T16:11:51.0000000+00:00</time></trkpt><trkpt lat="29.53062999" lon="35.00564899"><ele>26.1</ele><time>2015-11-27T16:12:17.0000000+00:00</time></trkpt><trkpt lat="29.53066913" lon="35.00565033"><ele>25.6</ele><time>2015-11-27T16:12:41.0000000+00:00</time></trkpt><trkpt lat="29.53068011" lon="35.00572141"><ele>25.6</ele><time>2015-11-27T16:12:58.0000000+00:00</time></trkpt><trkpt lat="29.53075932" lon="35.00588662"><ele>25.6</ele><time>2015-11-27T16:13:13.0000000+00:00</time></trkpt><trkpt lat="29.5307589" lon="35.0059012"><ele>26.1</ele><time>2015-11-27T16:13:14.0000000+00:00</time></trkpt><trkpt lat="29.53073468" lon="35.00614151"><ele>27.1</ele><time>2015-11-27T16:13:31.0000000+00:00</time></trkpt><trkpt lat="29.53066126" lon="35.00626163"><ele>28.0</ele><time>2015-11-27T16:13:47.0000000+00:00</time></trkpt><trkpt lat="29.53061339" lon="35.0062519"><ele>28.0</ele><time>2015-11-27T16:13:53.0000000+00:00</time></trkpt><trkpt lat="29.53052832" lon="35.0062597"><ele>28.0</ele><time>2015-11-27T16:14:06.0000000+00:00</time></trkpt><trkpt lat="29.53047484" lon="35.00629012"><ele>28.5</ele><time>2015-11-27T16:14:19.0000000+00:00</time></trkpt><trkpt lat="29.53042882" lon="35.00633069"><ele>29.0</ele><time>2015-11-27T16:14:23.0000000+00:00</time></trkpt><trkpt lat="29.53040008" lon="35.00636682"><ele>29.0</ele><time>2015-11-27T16:14:37.0000000+00:00</time></trkpt><trkpt lat="29.53040192" lon="35.00638107"><ele>28.5</ele><time>2015-11-27T16:14:49.0000000+00:00</time></trkpt></trkseg></trk></gpx>